﻿<?xml version="1.0" encoding="UTF-8"?>
<gpx version="v1.1.5" creator="iTravel Tech Inc. - http://www.itravel-tech.com" xmlns:xsi="http://www.w3.org/2001/XMLSchema-instance" xmlns="http://www.topografix.com/GPX/1/1" xsi:schemaLocation="http://www.topografix.com/GPX/1/1 http://www.topografix.com/GPX/1/1/gpx.xsd http://www.topografix.com/GPX/gpx_overlay/0/3 http://www.topografix.com/GPX/gpx_overlay/0/3/gpx_overlay.xsd http://www.topografix.com/GPX/gpx_modified/0/1 http://www.topografix.com/GPX/gpx_modified/0/1/gpx_modified.xsd">
<trk>
<name>Holux2010/07/18_09:30</name>
<trkseg>
<trkpt lat="55.704346" lon="26.086185">
<ele>168.349731</ele>
<time>2010-07-18T06:30:23Z</time>
<desc>lat.=55.704346, lon.=26.086185, Alt.=168.349731m. Speed=0.396000m/h.</desc>
<speed>0.110000</speed>
</trkpt>
<trkpt lat="55.704288" lon="26.086216">
<ele>156.966919</ele>
<time>2010-07-18T06:30:24Z</time>
<desc>lat.=55.704288, lon.=26.086216, Alt.=156.966919m. Speed=0.612000m/h.</desc>
<speed>0.170000</speed>
</trkpt>
<trkpt lat="55.704285" lon="26.086208">
<ele>155.103638</ele>
<time>2010-07-18T06:30:25Z</time>
<desc>lat.=55.704285, lon.=26.086208, Alt.=155.103638m. Speed=0.540000m/h.</desc>
<speed>0.150000</speed>
</trkpt>
<trkpt lat="55.704292" lon="26.086195">
<ele>154.701294</ele>
<time>2010-07-18T06:30:26Z</time>
<desc>lat.=55.704292, lon.=26.086195, Alt.=154.701294m. Speed=0.936000m/h.</desc>
<speed>0.260000</speed>
</trkpt>
<trkpt lat="55.704296" lon="26.086187">
<ele>153.791138</ele>
<time>2010-07-18T06:30:27Z</time>
<desc>lat.=55.704296, lon.=26.086187, Alt.=153.791138m. Speed=0.900000m/h.</desc>
<speed>0.250000</speed>
</trkpt>
<trkpt lat="55.704285" lon="26.086159">
<ele>152.420044</ele>
<time>2010-07-18T06:30:28Z</time>
<desc>lat.=55.704285, lon.=26.086159, Alt.=152.420044m. Speed=0.972000m/h.</desc>
<speed>0.270000</speed>
</trkpt>
<trkpt lat="55.704277" lon="26.086174">
<ele>151.400513</ele>
<time>2010-07-18T06:30:29Z</time>
<desc>lat.=55.704277, lon.=26.086174, Alt.=151.400513m. Speed=1.332000m/h.</desc>
<speed>0.370000</speed>
</trkpt>
<trkpt lat="55.704288" lon="26.086241">
<ele>151.068481</ele>
<time>2010-07-18T06:30:30Z</time>
<desc>lat.=55.704288, lon.=26.086241, Alt.=151.068481m. Speed=0.972000m/h.</desc>
<speed>0.270000</speed>
</trkpt>
<trkpt lat="55.704296" lon="26.086271">
<ele>150.724731</ele>
<time>2010-07-18T06:30:31Z</time>
<desc>lat.=55.704296, lon.=26.086271, Alt.=150.724731m. Speed=0.792000m/h.</desc>
<speed>0.220000</speed>
</trkpt>
<trkpt lat="55.704296" lon="26.086370">
<ele>148.908325</ele>
<time>2010-07-18T06:30:32Z</time>
<desc>lat.=55.704296, lon.=26.086370, Alt.=148.908325m. Speed=0.504000m/h.</desc>
<speed>0.140000</speed>
</trkpt>
<trkpt lat="55.704300" lon="26.086382">
<ele>149.197388</ele>
<time>2010-07-18T06:30:33Z</time>
<desc>lat.=55.704300, lon.=26.086382, Alt.=149.197388m. Speed=0.828000m/h.</desc>
<speed>0.230000</speed>
</trkpt>
<trkpt lat="55.704300" lon="26.086384">
<ele>149.349731</ele>
<time>2010-07-18T06:30:34Z</time>
<desc>lat.=55.704300, lon.=26.086384, Alt.=149.349731m. Speed=0.900000m/h.</desc>
<speed>0.250000</speed>
</trkpt>
<trkpt lat="55.704311" lon="26.086393">
<ele>150.162231</ele>
<time>2010-07-18T06:30:35Z</time>
<desc>lat.=55.704311, lon.=26.086393, Alt.=150.162231m. Speed=0.936000m/h.</desc>
<speed>0.260000</speed>
</trkpt>
<trkpt lat="55.704311" lon="26.086391">
<ele>150.666138</ele>
<time>2010-07-18T06:30:36Z</time>
<desc>lat.=55.704311, lon.=26.086391, Alt.=150.666138m. Speed=1.152000m/h.</desc>
<speed>0.320000</speed>
</trkpt>
<trkpt lat="55.704308" lon="26.086380">
<ele>150.767700</ele>
<time>2010-07-18T06:30:37Z</time>
<desc>lat.=55.704308, lon.=26.086380, Alt.=150.767700m. Speed=1.476000m/h.</desc>
<speed>0.410000</speed>
</trkpt>
<trkpt lat="55.704292" lon="26.086386">
<ele>150.611450</ele>
<time>2010-07-18T06:30:38Z</time>
<desc>lat.=55.704292, lon.=26.086386, Alt.=150.611450m. Speed=2.988000m/h.</desc>
<speed>0.830000</speed>
</trkpt>
<trkpt lat="55.704285" lon="26.086388">
<ele>150.646606</ele>
<time>2010-07-18T06:30:39Z</time>
<desc>lat.=55.704285, lon.=26.086388, Alt.=150.646606m. Speed=3.096000m/h.</desc>
<speed>0.860000</speed>
</trkpt>
<trkpt lat="55.704277" lon="26.086388">
<ele>150.701294</ele>
<time>2010-07-18T06:30:40Z</time>
<desc>lat.=55.704277, lon.=26.086388, Alt.=150.701294m. Speed=3.600000m/h.</desc>
<speed>1.000000</speed>
</trkpt>
<trkpt lat="55.704277" lon="26.086386">
<ele>150.322388</ele>
<time>2010-07-18T06:30:41Z</time>
<desc>lat.=55.704277, lon.=26.086386, Alt.=150.322388m. Speed=3.636000m/h.</desc>
<speed>1.010000</speed>
</trkpt>
<trkpt lat="55.704262" lon="26.086382">
<ele>150.295044</ele>
<time>2010-07-18T06:30:42Z</time>
<desc>lat.=55.704262, lon.=26.086382, Alt.=150.295044m. Speed=4.320000m/h.</desc>
<speed>1.200000</speed>
</trkpt>
<trkpt lat="55.704243" lon="26.086370">
<ele>150.080200</ele>
<time>2010-07-18T06:30:43Z</time>
<desc>lat.=55.704243, lon.=26.086370, Alt.=150.080200m. Speed=5.328000m/h.</desc>
<speed>1.480000</speed>
</trkpt>
<trkpt lat="55.704224" lon="26.086378">
<ele>149.373169</ele>
<time>2010-07-18T06:30:44Z</time>
<desc>lat.=55.704224, lon.=26.086378, Alt.=149.373169m. Speed=5.688000m/h.</desc>
<speed>1.580000</speed>
</trkpt>
<trkpt lat="55.704208" lon="26.086372">
<ele>149.322388</ele>
<time>2010-07-18T06:30:45Z</time>
<desc>lat.=55.704208, lon.=26.086372, Alt.=149.322388m. Speed=6.624000m/h.</desc>
<speed>1.840000</speed>
</trkpt>
<trkpt lat="55.704189" lon="26.086367">
<ele>149.420044</ele>
<time>2010-07-18T06:30:46Z</time>
<desc>lat.=55.704189, lon.=26.086367, Alt.=149.420044m. Speed=7.956000m/h.</desc>
<speed>2.210000</speed>
</trkpt>
<trkpt lat="55.704166" lon="26.086353">
<ele>149.084106</ele>
<time>2010-07-18T06:30:47Z</time>
<desc>lat.=55.704166, lon.=26.086353, Alt.=149.084106m. Speed=7.452000m/h.</desc>
<speed>2.070000</speed>
</trkpt>
<trkpt lat="55.704147" lon="26.086349">
<ele>149.021606</ele>
<time>2010-07-18T06:30:48Z</time>
<desc>lat.=55.704147, lon.=26.086349, Alt.=149.021606m. Speed=7.128000m/h.</desc>
<speed>1.980000</speed>
</trkpt>
<trkpt lat="55.704124" lon="26.086346">
<ele>149.052856</ele>
<time>2010-07-18T06:30:49Z</time>
<desc>lat.=55.704124, lon.=26.086346, Alt.=149.052856m. Speed=7.164000m/h.</desc>
<speed>1.990000</speed>
</trkpt>
<trkpt lat="55.704090" lon="26.086349">
<ele>149.138794</ele>
<time>2010-07-18T06:30:50Z</time>
<desc>lat.=55.704090, lon.=26.086349, Alt.=149.138794m. Speed=10.296000m/h.</desc>
<speed>2.860000</speed>
</trkpt>
<trkpt lat="55.704067" lon="26.086349">
<ele>149.209106</ele>
<time>2010-07-18T06:30:51Z</time>
<desc>lat.=55.704067, lon.=26.086349, Alt.=149.209106m. Speed=8.280000m/h.</desc>
<speed>2.300000</speed>
</trkpt>
<trkpt lat="55.704044" lon="26.086340">
<ele>148.959106</ele>
<time>2010-07-18T06:30:52Z</time>
<desc>lat.=55.704044, lon.=26.086340, Alt.=148.959106m. Speed=8.748000m/h.</desc>
<speed>2.430000</speed>
</trkpt>
<trkpt lat="55.704018" lon="26.086330">
<ele>148.298950</ele>
<time>2010-07-18T06:30:53Z</time>
<desc>lat.=55.704018, lon.=26.086330, Alt.=148.298950m. Speed=8.676000m/h.</desc>
<speed>2.410000</speed>
</trkpt>
<trkpt lat="55.703995" lon="26.086330">
<ele>147.966919</ele>
<time>2010-07-18T06:30:54Z</time>
<desc>lat.=55.703995, lon.=26.086330, Alt.=147.966919m. Speed=7.560000m/h.</desc>
<speed>2.100000</speed>
</trkpt>
<trkpt lat="55.703979" lon="26.086330">
<ele>147.943481</ele>
<time>2010-07-18T06:30:55Z</time>
<desc>lat.=55.703979, lon.=26.086330, Alt.=147.943481m. Speed=5.256000m/h.</desc>
<speed>1.460000</speed>
</trkpt>
<trkpt lat="55.703964" lon="26.086330">
<ele>147.509888</ele>
<time>2010-07-18T06:30:56Z</time>
<desc>lat.=55.703964, lon.=26.086330, Alt.=147.509888m. Speed=4.968000m/h.</desc>
<speed>1.380000</speed>
</trkpt>
<trkpt lat="55.703949" lon="26.086338">
<ele>147.545044</ele>
<time>2010-07-18T06:30:57Z</time>
<desc>lat.=55.703949, lon.=26.086338, Alt.=147.545044m. Speed=5.904000m/h.</desc>
<speed>1.640000</speed>
</trkpt>
<trkpt lat="55.703934" lon="26.086342">
<ele>147.627075</ele>
<time>2010-07-18T06:30:58Z</time>
<desc>lat.=55.703934, lon.=26.086342, Alt.=147.627075m. Speed=6.480000m/h.</desc>
<speed>1.800000</speed>
</trkpt>
<trkpt lat="55.703918" lon="26.086344">
<ele>147.666138</ele>
<time>2010-07-18T06:30:59Z</time>
<desc>lat.=55.703918, lon.=26.086344, Alt.=147.666138m. Speed=5.400000m/h.</desc>
<speed>1.500000</speed>
</trkpt>
<trkpt lat="55.703903" lon="26.086348">
<ele>147.857544</ele>
<time>2010-07-18T06:31:00Z</time>
<desc>lat.=55.703903, lon.=26.086348, Alt.=147.857544m. Speed=5.760000m/h.</desc>
<speed>1.600000</speed>
</trkpt>
<trkpt lat="55.703888" lon="26.086353">
<ele>147.861450</ele>
<time>2010-07-18T06:31:01Z</time>
<desc>lat.=55.703888, lon.=26.086353, Alt.=147.861450m. Speed=5.472000m/h.</desc>
<speed>1.520000</speed>
</trkpt>
<trkpt lat="55.703876" lon="26.086361">
<ele>148.173950</ele>
<time>2010-07-18T06:31:02Z</time>
<desc>lat.=55.703876, lon.=26.086361, Alt.=148.173950m. Speed=3.420000m/h.</desc>
<speed>0.950000</speed>
</trkpt>
<trkpt lat="55.703865" lon="26.086355">
<ele>148.455200</ele>
<time>2010-07-18T06:31:03Z</time>
<desc>lat.=55.703865, lon.=26.086355, Alt.=148.455200m. Speed=0.864000m/h.</desc>
<speed>0.240000</speed>
</trkpt>
<trkpt lat="55.703861" lon="26.086351">
<ele>148.474731</ele>
<time>2010-07-18T06:31:04Z</time>
<desc>lat.=55.703861, lon.=26.086351, Alt.=148.474731m. Speed=0.720000m/h.</desc>
<speed>0.200000</speed>
</trkpt>
<trkpt lat="55.703854" lon="26.086348">
<ele>148.451294</ele>
<time>2010-07-18T06:31:05Z</time>
<desc>lat.=55.703854, lon.=26.086348, Alt.=148.451294m. Speed=1.476000m/h.</desc>
<speed>0.410000</speed>
</trkpt>
<trkpt lat="55.703850" lon="26.086349">
<ele>148.744263</ele>
<time>2010-07-18T06:31:06Z</time>
<desc>lat.=55.703850, lon.=26.086349, Alt.=148.744263m. Speed=1.836000m/h.</desc>
<speed>0.510000</speed>
</trkpt>
<trkpt lat="55.703835" lon="26.086346">
<ele>148.580200</ele>
<time>2010-07-18T06:31:07Z</time>
<desc>lat.=55.703835, lon.=26.086346, Alt.=148.580200m. Speed=2.592000m/h.</desc>
<speed>0.720000</speed>
</trkpt>
<trkpt lat="55.703812" lon="26.086329">
<ele>147.935669</ele>
<time>2010-07-18T06:31:08Z</time>
<desc>lat.=55.703812, lon.=26.086329, Alt.=147.935669m. Speed=3.384000m/h.</desc>
<speed>0.940000</speed>
</trkpt>
<trkpt lat="55.703800" lon="26.086327">
<ele>147.935669</ele>
<time>2010-07-18T06:31:09Z</time>
<desc>lat.=55.703800, lon.=26.086327, Alt.=147.935669m. Speed=3.744000m/h.</desc>
<speed>1.040000</speed>
</trkpt>
<trkpt lat="55.703766" lon="26.086329">
<ele>147.693481</ele>
<time>2010-07-18T06:31:10Z</time>
<desc>lat.=55.703766, lon.=26.086329, Alt.=147.693481m. Speed=4.896000m/h.</desc>
<speed>1.360000</speed>
</trkpt>
<trkpt lat="55.703743" lon="26.086329">
<ele>147.607544</ele>
<time>2010-07-18T06:31:11Z</time>
<desc>lat.=55.703743, lon.=26.086329, Alt.=147.607544m. Speed=5.868000m/h.</desc>
<speed>1.630000</speed>
</trkpt>
<trkpt lat="55.703720" lon="26.086330">
<ele>147.623169</ele>
<time>2010-07-18T06:31:12Z</time>
<desc>lat.=55.703720, lon.=26.086330, Alt.=147.623169m. Speed=7.848000m/h.</desc>
<speed>2.180000</speed>
</trkpt>
<trkpt lat="55.703701" lon="26.086330">
<ele>147.627075</ele>
<time>2010-07-18T06:31:13Z</time>
<desc>lat.=55.703701, lon.=26.086330, Alt.=147.627075m. Speed=8.244000m/h.</desc>
<speed>2.290000</speed>
</trkpt>
<trkpt lat="55.703674" lon="26.086330">
<ele>147.650513</ele>
<time>2010-07-18T06:31:14Z</time>
<desc>lat.=55.703674, lon.=26.086330, Alt.=147.650513m. Speed=9.288000m/h.</desc>
<speed>2.580000</speed>
</trkpt>
<trkpt lat="55.703644" lon="26.086340">
<ele>147.701294</ele>
<time>2010-07-18T06:31:15Z</time>
<desc>lat.=55.703644, lon.=26.086340, Alt.=147.701294m. Speed=9.720000m/h.</desc>
<speed>2.700000</speed>
</trkpt>
<trkpt lat="55.703617" lon="26.086344">
<ele>147.724731</ele>
<time>2010-07-18T06:31:16Z</time>
<desc>lat.=55.703617, lon.=26.086344, Alt.=147.724731m. Speed=8.136000m/h.</desc>
<speed>2.260000</speed>
</trkpt>
<trkpt lat="55.703598" lon="26.086342">
<ele>147.709106</ele>
<time>2010-07-18T06:31:17Z</time>
<desc>lat.=55.703598, lon.=26.086342, Alt.=147.709106m. Speed=7.596000m/h.</desc>
<speed>2.110000</speed>
</trkpt>
<trkpt lat="55.703560" lon="26.086353">
<ele>147.755981</ele>
<time>2010-07-18T06:31:18Z</time>
<desc>lat.=55.703560, lon.=26.086353, Alt.=147.755981m. Speed=6.876000m/h.</desc>
<speed>1.910000</speed>
</trkpt>
<trkpt lat="55.703537" lon="26.086344">
<ele>147.662231</ele>
<time>2010-07-18T06:31:19Z</time>
<desc>lat.=55.703537, lon.=26.086344, Alt.=147.662231m. Speed=5.436000m/h.</desc>
<speed>1.510000</speed>
</trkpt>
<trkpt lat="55.703526" lon="26.086346">
<ele>147.591919</ele>
<time>2010-07-18T06:31:20Z</time>
<desc>lat.=55.703526, lon.=26.086346, Alt.=147.591919m. Speed=4.788000m/h.</desc>
<speed>1.330000</speed>
</trkpt>
<trkpt lat="55.703510" lon="26.086348">
<ele>147.545044</ele>
<time>2010-07-18T06:31:21Z</time>
<desc>lat.=55.703510, lon.=26.086348, Alt.=147.545044m. Speed=4.392000m/h.</desc>
<speed>1.220000</speed>
</trkpt>
<trkpt lat="55.703518" lon="26.086340">
<ele>147.810669</ele>
<time>2010-07-18T06:31:22Z</time>
<desc>lat.=55.703518, lon.=26.086340, Alt.=147.810669m. Speed=1.836000m/h.</desc>
<speed>0.510000</speed>
</trkpt>
<trkpt lat="55.703514" lon="26.086340">
<ele>147.806763</ele>
<time>2010-07-18T06:31:23Z</time>
<desc>lat.=55.703514, lon.=26.086340, Alt.=147.806763m. Speed=1.404000m/h.</desc>
<speed>0.390000</speed>
</trkpt>
<trkpt lat="55.703506" lon="26.086346">
<ele>147.767700</ele>
<time>2010-07-18T06:31:24Z</time>
<desc>lat.=55.703506, lon.=26.086346, Alt.=147.767700m. Speed=1.080000m/h.</desc>
<speed>0.300000</speed>
</trkpt>
<trkpt lat="55.703499" lon="26.086348">
<ele>147.646606</ele>
<time>2010-07-18T06:31:25Z</time>
<desc>lat.=55.703499, lon.=26.086348, Alt.=147.646606m. Speed=0.900000m/h.</desc>
<speed>0.250000</speed>
</trkpt>
<trkpt lat="55.703495" lon="26.086353">
<ele>147.580200</ele>
<time>2010-07-18T06:31:26Z</time>
<desc>lat.=55.703495, lon.=26.086353, Alt.=147.580200m. Speed=0.648000m/h.</desc>
<speed>0.180000</speed>
</trkpt>
<trkpt lat="55.703495" lon="26.086361">
<ele>147.041138</ele>
<time>2010-07-18T06:31:27Z</time>
<desc>lat.=55.703495, lon.=26.086361, Alt.=147.041138m. Speed=0.036000m/h.</desc>
<speed>0.010000</speed>
</trkpt>
<trkpt lat="55.703503" lon="26.086367">
<ele>146.798950</ele>
<time>2010-07-18T06:31:28Z</time>
<desc>lat.=55.703503, lon.=26.086367, Alt.=146.798950m. Speed=0.108000m/h.</desc>
<speed>0.030000</speed>
</trkpt>
<trkpt lat="55.703503" lon="26.086367">
<ele>146.834106</ele>
<time>2010-07-18T06:31:29Z</time>
<desc>lat.=55.703503, lon.=26.086367, Alt.=146.834106m. Speed=0.504000m/h.</desc>
<speed>0.140000</speed>
</trkpt>
<trkpt lat="55.703503" lon="26.086365">
<ele>147.052856</ele>
<time>2010-07-18T06:31:30Z</time>
<desc>lat.=55.703503, lon.=26.086365, Alt.=147.052856m. Speed=0.036000m/h.</desc>
<speed>0.010000</speed>
</trkpt>
<trkpt lat="55.703506" lon="26.086365">
<ele>147.185669</ele>
<time>2010-07-18T06:31:31Z</time>
<desc>lat.=55.703506, lon.=26.086365, Alt.=147.185669m. Speed=0.288000m/h.</desc>
<speed>0.080000</speed>
</trkpt>
<trkpt lat="55.703503" lon="26.086365">
<ele>147.306763</ele>
<time>2010-07-18T06:31:32Z</time>
<desc>lat.=55.703503, lon.=26.086365, Alt.=147.306763m. Speed=0.684000m/h.</desc>
<speed>0.190000</speed>
</trkpt>
<trkpt lat="55.703503" lon="26.086365">
<ele>147.404419</ele>
<time>2010-07-18T06:31:33Z</time>
<desc>lat.=55.703503, lon.=26.086365, Alt.=147.404419m. Speed=0.828000m/h.</desc>
<speed>0.230000</speed>
</trkpt>
<trkpt lat="55.703503" lon="26.086361">
<ele>147.490356</ele>
<time>2010-07-18T06:31:34Z</time>
<desc>lat.=55.703503, lon.=26.086361, Alt.=147.490356m. Speed=0.756000m/h.</desc>
<speed>0.210000</speed>
</trkpt>
<trkpt lat="55.703503" lon="26.086359">
<ele>147.548950</ele>
<time>2010-07-18T06:31:35Z</time>
<desc>lat.=55.703503, lon.=26.086359, Alt.=147.548950m. Speed=0.036000m/h.</desc>
<speed>0.010000</speed>
</trkpt>
<trkpt lat="55.703503" lon="26.086359">
<ele>147.599731</ele>
<time>2010-07-18T06:31:36Z</time>
<desc>lat.=55.703503, lon.=26.086359, Alt.=147.599731m. Speed=0.000000m/h.</desc>
<speed>0.000000</speed>
</trkpt>
<trkpt lat="55.703503" lon="26.086359">
<ele>147.634888</ele>
<time>2010-07-18T06:31:37Z</time>
<desc>lat.=55.703503, lon.=26.086359, Alt.=147.634888m. Speed=0.108000m/h.</desc>
<speed>0.030000</speed>
</trkpt>
<trkpt lat="55.703503" lon="26.086359">
<ele>147.662231</ele>
<time>2010-07-18T06:31:38Z</time>
<desc>lat.=55.703503, lon.=26.086359, Alt.=147.662231m. Speed=0.072000m/h.</desc>
<speed>0.020000</speed>
</trkpt>
<trkpt lat="55.703503" lon="26.086357">
<ele>147.681763</ele>
<time>2010-07-18T06:31:39Z</time>
<desc>lat.=55.703503, lon.=26.086357, Alt.=147.681763m. Speed=0.072000m/h.</desc>
<speed>0.020000</speed>
</trkpt>
<trkpt lat="55.703503" lon="26.086357">
<ele>147.701294</ele>
<time>2010-07-18T06:31:40Z</time>
<desc>lat.=55.703503, lon.=26.086357, Alt.=147.701294m. Speed=0.000000m/h.</desc>
<speed>0.000000</speed>
</trkpt>
<trkpt lat="55.703503" lon="26.086357">
<ele>147.713013</ele>
<time>2010-07-18T06:31:41Z</time>
<desc>lat.=55.703503, lon.=26.086357, Alt.=147.713013m. Speed=0.036000m/h.</desc>
<speed>0.010000</speed>
</trkpt>
<trkpt lat="55.703503" lon="26.086357">
<ele>147.728638</ele>
<time>2010-07-18T06:31:42Z</time>
<desc>lat.=55.703503, lon.=26.086357, Alt.=147.728638m. Speed=0.108000m/h.</desc>
<speed>0.030000</speed>
</trkpt>
<trkpt lat="55.703503" lon="26.086357">
<ele>147.740356</ele>
<time>2010-07-18T06:31:43Z</time>
<desc>lat.=55.703503, lon.=26.086357, Alt.=147.740356m. Speed=0.036000m/h.</desc>
<speed>0.010000</speed>
</trkpt>
<trkpt lat="55.703503" lon="26.086357">
<ele>147.748169</ele>
<time>2010-07-18T06:31:44Z</time>
<desc>lat.=55.703503, lon.=26.086357, Alt.=147.748169m. Speed=0.036000m/h.</desc>
<speed>0.010000</speed>
</trkpt>
<trkpt lat="55.703503" lon="26.086357">
<ele>147.752075</ele>
<time>2010-07-18T06:31:45Z</time>
<desc>lat.=55.703503, lon.=26.086357, Alt.=147.752075m. Speed=0.000000m/h.</desc>
<speed>0.000000</speed>
</trkpt>
<trkpt lat="55.703503" lon="26.086357">
<ele>147.759888</ele>
<time>2010-07-18T06:31:46Z</time>
<desc>lat.=55.703503, lon.=26.086357, Alt.=147.759888m. Speed=0.036000m/h.</desc>
<speed>0.010000</speed>
</trkpt>
<trkpt lat="55.703503" lon="26.086357">
<ele>147.759888</ele>
<time>2010-07-18T06:31:47Z</time>
<desc>lat.=55.703503, lon.=26.086357, Alt.=147.759888m. Speed=0.036000m/h.</desc>
<speed>0.010000</speed>
</trkpt>
<trkpt lat="55.703503" lon="26.086357">
<ele>147.763794</ele>
<time>2010-07-18T06:31:48Z</time>
<desc>lat.=55.703503, lon.=26.086357, Alt.=147.763794m. Speed=0.036000m/h.</desc>
<speed>0.010000</speed>
</trkpt>
<trkpt lat="55.703503" lon="26.086357">
<ele>147.767700</ele>
<time>2010-07-18T06:31:49Z</time>
<desc>lat.=55.703503, lon.=26.086357, Alt.=147.767700m. Speed=0.036000m/h.</desc>
<speed>0.010000</speed>
</trkpt>
<trkpt lat="55.703503" lon="26.086357">
<ele>147.767700</ele>
<time>2010-07-18T06:31:50Z</time>
<desc>lat.=55.703503, lon.=26.086357, Alt.=147.767700m. Speed=0.072000m/h.</desc>
<speed>0.020000</speed>
</trkpt>
<trkpt lat="55.703503" lon="26.086357">
<ele>147.771606</ele>
<time>2010-07-18T06:31:51Z</time>
<desc>lat.=55.703503, lon.=26.086357, Alt.=147.771606m. Speed=0.108000m/h.</desc>
<speed>0.030000</speed>
</trkpt>
<trkpt lat="55.703503" lon="26.086357">
<ele>147.775513</ele>
<time>2010-07-18T06:31:52Z</time>
<desc>lat.=55.703503, lon.=26.086357, Alt.=147.775513m. Speed=0.108000m/h.</desc>
<speed>0.030000</speed>
</trkpt>
<trkpt lat="55.703503" lon="26.086355">
<ele>147.775513</ele>
<time>2010-07-18T06:31:53Z</time>
<desc>lat.=55.703503, lon.=26.086355, Alt.=147.775513m. Speed=0.108000m/h.</desc>
<speed>0.030000</speed>
</trkpt>
<trkpt lat="55.703503" lon="26.086355">
<ele>147.779419</ele>
<time>2010-07-18T06:31:54Z</time>
<desc>lat.=55.703503, lon.=26.086355, Alt.=147.779419m. Speed=0.180000m/h.</desc>
<speed>0.050000</speed>
</trkpt>
<trkpt lat="55.703503" lon="26.086355">
<ele>147.779419</ele>
<time>2010-07-18T06:31:55Z</time>
<desc>lat.=55.703503, lon.=26.086355, Alt.=147.779419m. Speed=0.036000m/h.</desc>
<speed>0.010000</speed>
</trkpt>
<trkpt lat="55.703503" lon="26.086355">
<ele>147.779419</ele>
<time>2010-07-18T06:31:56Z</time>
<desc>lat.=55.703503, lon.=26.086355, Alt.=147.779419m. Speed=0.000000m/h.</desc>
<speed>0.000000</speed>
</trkpt>
<trkpt lat="55.703503" lon="26.086355">
<ele>147.783325</ele>
<time>2010-07-18T06:31:57Z</time>
<desc>lat.=55.703503, lon.=26.086355, Alt.=147.783325m. Speed=0.036000m/h.</desc>
<speed>0.010000</speed>
</trkpt>
<trkpt lat="55.703503" lon="26.086355">
<ele>147.787231</ele>
<time>2010-07-18T06:31:58Z</time>
<desc>lat.=55.703503, lon.=26.086355, Alt.=147.787231m. Speed=0.036000m/h.</desc>
<speed>0.010000</speed>
</trkpt>
<trkpt lat="55.703503" lon="26.086355">
<ele>147.795044</ele>
<time>2010-07-18T06:31:59Z</time>
<desc>lat.=55.703503, lon.=26.086355, Alt.=147.795044m. Speed=0.000000m/h.</desc>
<speed>0.000000</speed>
</trkpt>
<trkpt lat="55.703503" lon="26.086355">
<ele>147.798950</ele>
<time>2010-07-18T06:32:00Z</time>
<desc>lat.=55.703503, lon.=26.086355, Alt.=147.798950m. Speed=0.036000m/h.</desc>
<speed>0.010000</speed>
</trkpt>
<trkpt lat="55.703503" lon="26.086355">
<ele>147.802856</ele>
<time>2010-07-18T06:32:01Z</time>
<desc>lat.=55.703503, lon.=26.086355, Alt.=147.802856m. Speed=0.072000m/h.</desc>
<speed>0.020000</speed>
</trkpt>
<trkpt lat="55.703503" lon="26.086357">
<ele>147.802856</ele>
<time>2010-07-18T06:32:02Z</time>
<desc>lat.=55.703503, lon.=26.086357, Alt.=147.802856m. Speed=0.072000m/h.</desc>
<speed>0.020000</speed>
</trkpt>
<trkpt lat="55.703503" lon="26.086357">
<ele>147.810669</ele>
<time>2010-07-18T06:32:03Z</time>
<desc>lat.=55.703503, lon.=26.086357, Alt.=147.810669m. Speed=0.072000m/h.</desc>
<speed>0.020000</speed>
</trkpt>
<trkpt lat="55.703503" lon="26.086357">
<ele>147.810669</ele>
<time>2010-07-18T06:32:04Z</time>
<desc>lat.=55.703503, lon.=26.086357, Alt.=147.810669m. Speed=0.072000m/h.</desc>
<speed>0.020000</speed>
</trkpt>
<trkpt lat="55.703503" lon="26.086357">
<ele>147.814575</ele>
<time>2010-07-18T06:32:05Z</time>
<desc>lat.=55.703503, lon.=26.086357, Alt.=147.814575m. Speed=0.072000m/h.</desc>
<speed>0.020000</speed>
</trkpt>
<trkpt lat="55.703503" lon="26.086357">
<ele>147.818481</ele>
<time>2010-07-18T06:32:06Z</time>
<desc>lat.=55.703503, lon.=26.086357, Alt.=147.818481m. Speed=0.252000m/h.</desc>
<speed>0.070000</speed>
</trkpt>
<trkpt lat="55.703503" lon="26.086359">
<ele>147.818481</ele>
<time>2010-07-18T06:32:07Z</time>
<desc>lat.=55.703503, lon.=26.086359, Alt.=147.818481m. Speed=0.108000m/h.</desc>
<speed>0.030000</speed>
</trkpt>
<trkpt lat="55.703503" lon="26.086359">
<ele>147.822388</ele>
<time>2010-07-18T06:32:08Z</time>
<desc>lat.=55.703503, lon.=26.086359, Alt.=147.822388m. Speed=0.072000m/h.</desc>
<speed>0.020000</speed>
</trkpt>
<trkpt lat="55.703503" lon="26.086359">
<ele>147.826294</ele>
<time>2010-07-18T06:32:09Z</time>
<desc>lat.=55.703503, lon.=26.086359, Alt.=147.826294m. Speed=0.180000m/h.</desc>
<speed>0.050000</speed>
</trkpt>
<trkpt lat="55.703503" lon="26.086361">
<ele>147.830200</ele>
<time>2010-07-18T06:32:10Z</time>
<desc>lat.=55.703503, lon.=26.086361, Alt.=147.830200m. Speed=0.684000m/h.</desc>
<speed>0.190000</speed>
</trkpt>
<trkpt lat="55.703503" lon="26.086363">
<ele>147.845825</ele>
<time>2010-07-18T06:32:11Z</time>
<desc>lat.=55.703503, lon.=26.086363, Alt.=147.845825m. Speed=1.512000m/h.</desc>
<speed>0.420000</speed>
</trkpt>
<trkpt lat="55.703499" lon="26.086370">
<ele>147.771606</ele>
<time>2010-07-18T06:32:12Z</time>
<desc>lat.=55.703499, lon.=26.086370, Alt.=147.771606m. Speed=3.420000m/h.</desc>
<speed>0.950000</speed>
</trkpt>
<trkpt lat="55.703495" lon="26.086384">
<ele>147.744263</ele>
<time>2010-07-18T06:32:13Z</time>
<desc>lat.=55.703495, lon.=26.086384, Alt.=147.744263m. Speed=2.988000m/h.</desc>
<speed>0.830000</speed>
</trkpt>
<trkpt lat="55.703499" lon="26.086391">
<ele>147.802856</ele>
<time>2010-07-18T06:32:14Z</time>
<desc>lat.=55.703499, lon.=26.086391, Alt.=147.802856m. Speed=2.592000m/h.</desc>
<speed>0.720000</speed>
</trkpt>
<trkpt lat="55.703503" lon="26.086399">
<ele>147.732544</ele>
<time>2010-07-18T06:32:15Z</time>
<desc>lat.=55.703503, lon.=26.086399, Alt.=147.732544m. Speed=2.484000m/h.</desc>
<speed>0.690000</speed>
</trkpt>
<trkpt lat="55.703503" lon="26.086412">
<ele>147.685669</ele>
<time>2010-07-18T06:32:16Z</time>
<desc>lat.=55.703503, lon.=26.086412, Alt.=147.685669m. Speed=2.484000m/h.</desc>
<speed>0.690000</speed>
</trkpt>
<trkpt lat="55.703506" lon="26.086430">
<ele>147.615356</ele>
<time>2010-07-18T06:32:17Z</time>
<desc>lat.=55.703506, lon.=26.086430, Alt.=147.615356m. Speed=3.096000m/h.</desc>
<speed>0.860000</speed>
</trkpt>
<trkpt lat="55.703506" lon="26.086452">
<ele>147.541138</ele>
<time>2010-07-18T06:32:18Z</time>
<desc>lat.=55.703506, lon.=26.086452, Alt.=147.541138m. Speed=3.672000m/h.</desc>
<speed>1.020000</speed>
</trkpt>
<trkpt lat="55.703510" lon="26.086485">
<ele>147.482544</ele>
<time>2010-07-18T06:32:19Z</time>
<desc>lat.=55.703510, lon.=26.086485, Alt.=147.482544m. Speed=4.752000m/h.</desc>
<speed>1.320000</speed>
</trkpt>
<trkpt lat="55.703510" lon="26.086514">
<ele>147.408325</ele>
<time>2010-07-18T06:32:20Z</time>
<desc>lat.=55.703510, lon.=26.086514, Alt.=147.408325m. Speed=5.112000m/h.</desc>
<speed>1.420000</speed>
</trkpt>
<trkpt lat="55.703514" lon="26.086540">
<ele>147.330200</ele>
<time>2010-07-18T06:32:21Z</time>
<desc>lat.=55.703514, lon.=26.086540, Alt.=147.330200m. Speed=5.472000m/h.</desc>
<speed>1.520000</speed>
</trkpt>
<trkpt lat="55.703518" lon="26.086569">
<ele>147.248169</ele>
<time>2010-07-18T06:32:22Z</time>
<desc>lat.=55.703518, lon.=26.086569, Alt.=147.248169m. Speed=5.652000m/h.</desc>
<speed>1.570000</speed>
</trkpt>
<trkpt lat="55.703529" lon="26.086594">
<ele>147.158325</ele>
<time>2010-07-18T06:32:23Z</time>
<desc>lat.=55.703529, lon.=26.086594, Alt.=147.158325m. Speed=6.588000m/h.</desc>
<speed>1.830000</speed>
</trkpt>
<trkpt lat="55.703537" lon="26.086617">
<ele>147.076294</ele>
<time>2010-07-18T06:32:24Z</time>
<desc>lat.=55.703537, lon.=26.086617, Alt.=147.076294m. Speed=6.336000m/h.</desc>
<speed>1.760000</speed>
</trkpt>
<trkpt lat="55.703545" lon="26.086645">
<ele>147.002075</ele>
<time>2010-07-18T06:32:25Z</time>
<desc>lat.=55.703545, lon.=26.086645, Alt.=147.002075m. Speed=6.696000m/h.</desc>
<speed>1.860000</speed>
</trkpt>
<trkpt lat="55.703548" lon="26.086674">
<ele>146.939575</ele>
<time>2010-07-18T06:32:26Z</time>
<desc>lat.=55.703548, lon.=26.086674, Alt.=146.939575m. Speed=6.804000m/h.</desc>
<speed>1.890000</speed>
</trkpt>
<trkpt lat="55.703545" lon="26.086716">
<ele>146.920044</ele>
<time>2010-07-18T06:32:27Z</time>
<desc>lat.=55.703545, lon.=26.086716, Alt.=146.920044m. Speed=7.776000m/h.</desc>
<speed>2.160000</speed>
</trkpt>
<trkpt lat="55.703537" lon="26.086760">
<ele>146.845825</ele>
<time>2010-07-18T06:32:28Z</time>
<desc>lat.=55.703537, lon.=26.086760, Alt.=146.845825m. Speed=8.280000m/h.</desc>
<speed>2.300000</speed>
</trkpt>
<trkpt lat="55.703545" lon="26.086803">
<ele>146.845825</ele>
<time>2010-07-18T06:32:29Z</time>
<desc>lat.=55.703545, lon.=26.086803, Alt.=146.845825m. Speed=8.280000m/h.</desc>
<speed>2.300000</speed>
</trkpt>
<trkpt lat="55.703556" lon="26.086845">
<ele>146.830200</ele>
<time>2010-07-18T06:32:30Z</time>
<desc>lat.=55.703556, lon.=26.086845, Alt.=146.830200m. Speed=7.848000m/h.</desc>
<speed>2.180000</speed>
</trkpt>
<trkpt lat="55.703560" lon="26.086885">
<ele>146.775513</ele>
<time>2010-07-18T06:32:31Z</time>
<desc>lat.=55.703560, lon.=26.086885, Alt.=146.775513m. Speed=9.432000m/h.</desc>
<speed>2.620000</speed>
</trkpt>
<trkpt lat="55.703564" lon="26.086931">
<ele>146.724731</ele>
<time>2010-07-18T06:32:32Z</time>
<desc>lat.=55.703564, lon.=26.086931, Alt.=146.724731m. Speed=10.764000m/h.</desc>
<speed>2.990000</speed>
</trkpt>
<trkpt lat="55.703575" lon="26.086987">
<ele>146.709106</ele>
<time>2010-07-18T06:32:33Z</time>
<desc>lat.=55.703575, lon.=26.086987, Alt.=146.709106m. Speed=11.880000m/h.</desc>
<speed>3.300000</speed>
</trkpt>
<trkpt lat="55.703575" lon="26.087038">
<ele>146.623169</ele>
<time>2010-07-18T06:32:34Z</time>
<desc>lat.=55.703575, lon.=26.087038, Alt.=146.623169m. Speed=11.988000m/h.</desc>
<speed>3.330000</speed>
</trkpt>
<trkpt lat="55.703587" lon="26.087090">
<ele>146.556763</ele>
<time>2010-07-18T06:32:35Z</time>
<desc>lat.=55.703587, lon.=26.087090, Alt.=146.556763m. Speed=12.492000m/h.</desc>
<speed>3.470000</speed>
</trkpt>
<trkpt lat="55.703594" lon="26.087145">
<ele>146.486450</ele>
<time>2010-07-18T06:32:36Z</time>
<desc>lat.=55.703594, lon.=26.087145, Alt.=146.486450m. Speed=12.924000m/h.</desc>
<speed>3.590000</speed>
</trkpt>
<trkpt lat="55.703602" lon="26.087202">
<ele>146.400513</ele>
<time>2010-07-18T06:32:37Z</time>
<desc>lat.=55.703602, lon.=26.087202, Alt.=146.400513m. Speed=13.140000m/h.</desc>
<speed>3.650000</speed>
</trkpt>
<trkpt lat="55.703609" lon="26.087261">
<ele>146.326294</ele>
<time>2010-07-18T06:32:38Z</time>
<desc>lat.=55.703609, lon.=26.087261, Alt.=146.326294m. Speed=13.284000m/h.</desc>
<speed>3.690000</speed>
</trkpt>
<trkpt lat="55.703625" lon="26.087322">
<ele>146.244263</ele>
<time>2010-07-18T06:32:39Z</time>
<desc>lat.=55.703625, lon.=26.087322, Alt.=146.244263m. Speed=14.976000m/h.</desc>
<speed>4.160000</speed>
</trkpt>
<trkpt lat="55.703632" lon="26.087391">
<ele>146.170044</ele>
<time>2010-07-18T06:32:40Z</time>
<desc>lat.=55.703632, lon.=26.087391, Alt.=146.170044m. Speed=15.192000m/h.</desc>
<speed>4.220000</speed>
</trkpt>
<trkpt lat="55.703644" lon="26.087461">
<ele>146.080200</ele>
<time>2010-07-18T06:32:41Z</time>
<desc>lat.=55.703644, lon.=26.087461, Alt.=146.080200m. Speed=16.524000m/h.</desc>
<speed>4.590000</speed>
</trkpt>
<trkpt lat="55.703663" lon="26.087530">
<ele>145.966919</ele>
<time>2010-07-18T06:32:42Z</time>
<desc>lat.=55.703663, lon.=26.087530, Alt.=145.966919m. Speed=16.308001m/h.</desc>
<speed>4.530000</speed>
</trkpt>
<trkpt lat="55.703678" lon="26.087599">
<ele>145.880981</ele>
<time>2010-07-18T06:32:43Z</time>
<desc>lat.=55.703678, lon.=26.087599, Alt.=145.880981m. Speed=16.308001m/h.</desc>
<speed>4.530000</speed>
</trkpt>
<trkpt lat="55.703690" lon="26.087671">
<ele>145.826294</ele>
<time>2010-07-18T06:32:44Z</time>
<desc>lat.=55.703690, lon.=26.087671, Alt.=145.826294m. Speed=15.588000m/h.</desc>
<speed>4.330000</speed>
</trkpt>
<trkpt lat="55.703705" lon="26.087744">
<ele>145.783325</ele>
<time>2010-07-18T06:32:45Z</time>
<desc>lat.=55.703705, lon.=26.087744, Alt.=145.783325m. Speed=16.488001m/h.</desc>
<speed>4.580000</speed>
</trkpt>
<trkpt lat="55.703720" lon="26.087816">
<ele>145.724731</ele>
<time>2010-07-18T06:32:46Z</time>
<desc>lat.=55.703720, lon.=26.087816, Alt.=145.724731m. Speed=16.992001m/h.</desc>
<speed>4.720000</speed>
</trkpt>
<trkpt lat="55.703732" lon="26.087893">
<ele>145.681763</ele>
<time>2010-07-18T06:32:47Z</time>
<desc>lat.=55.703732, lon.=26.087893, Alt.=145.681763m. Speed=17.388000m/h.</desc>
<speed>4.830000</speed>
</trkpt>
<trkpt lat="55.703739" lon="26.087969">
<ele>145.638794</ele>
<time>2010-07-18T06:32:48Z</time>
<desc>lat.=55.703739, lon.=26.087969, Alt.=145.638794m. Speed=17.280001m/h.</desc>
<speed>4.800000</speed>
</trkpt>
<trkpt lat="55.703758" lon="26.088047">
<ele>145.638794</ele>
<time>2010-07-18T06:32:49Z</time>
<desc>lat.=55.703758, lon.=26.088047, Alt.=145.638794m. Speed=17.820000m/h.</desc>
<speed>4.950000</speed>
</trkpt>
<trkpt lat="55.703773" lon="26.088123">
<ele>145.564575</ele>
<time>2010-07-18T06:32:50Z</time>
<desc>lat.=55.703773, lon.=26.088123, Alt.=145.564575m. Speed=17.964001m/h.</desc>
<speed>4.990000</speed>
</trkpt>
<trkpt lat="55.703781" lon="26.088200">
<ele>145.420044</ele>
<time>2010-07-18T06:32:51Z</time>
<desc>lat.=55.703781, lon.=26.088200, Alt.=145.420044m. Speed=17.604000m/h.</desc>
<speed>4.890000</speed>
</trkpt>
<trkpt lat="55.703800" lon="26.088276">
<ele>145.420044</ele>
<time>2010-07-18T06:32:52Z</time>
<desc>lat.=55.703800, lon.=26.088276, Alt.=145.420044m. Speed=16.740000m/h.</desc>
<speed>4.650000</speed>
</trkpt>
<trkpt lat="55.703808" lon="26.088360">
<ele>145.423950</ele>
<time>2010-07-18T06:32:53Z</time>
<desc>lat.=55.703808, lon.=26.088360, Alt.=145.423950m. Speed=15.372000m/h.</desc>
<speed>4.270000</speed>
</trkpt>
<trkpt lat="55.703812" lon="26.088432">
<ele>145.357544</ele>
<time>2010-07-18T06:32:54Z</time>
<desc>lat.=55.703812, lon.=26.088432, Alt.=145.357544m. Speed=15.228000m/h.</desc>
<speed>4.230000</speed>
</trkpt>
<trkpt lat="55.703819" lon="26.088501">
<ele>145.345825</ele>
<time>2010-07-18T06:32:55Z</time>
<desc>lat.=55.703819, lon.=26.088501, Alt.=145.345825m. Speed=15.048000m/h.</desc>
<speed>4.180000</speed>
</trkpt>
<trkpt lat="55.703823" lon="26.088568">
<ele>145.306763</ele>
<time>2010-07-18T06:32:56Z</time>
<desc>lat.=55.703823, lon.=26.088568, Alt.=145.306763m. Speed=14.400000m/h.</desc>
<speed>4.000000</speed>
</trkpt>
<trkpt lat="55.703831" lon="26.088629">
<ele>145.306763</ele>
<time>2010-07-18T06:32:57Z</time>
<desc>lat.=55.703831, lon.=26.088629, Alt.=145.306763m. Speed=14.292000m/h.</desc>
<speed>3.970000</speed>
</trkpt>
<trkpt lat="55.703842" lon="26.088696">
<ele>145.318481</ele>
<time>2010-07-18T06:32:58Z</time>
<desc>lat.=55.703842, lon.=26.088696, Alt.=145.318481m. Speed=15.300000m/h.</desc>
<speed>4.250000</speed>
</trkpt>
<trkpt lat="55.703842" lon="26.088768">
<ele>145.369263</ele>
<time>2010-07-18T06:32:59Z</time>
<desc>lat.=55.703842, lon.=26.088768, Alt.=145.369263m. Speed=15.516000m/h.</desc>
<speed>4.310000</speed>
</trkpt>
<trkpt lat="55.703850" lon="26.088837">
<ele>145.357544</ele>
<time>2010-07-18T06:33:00Z</time>
<desc>lat.=55.703850, lon.=26.088837, Alt.=145.357544m. Speed=15.984000m/h.</desc>
<speed>4.440000</speed>
</trkpt>
<trkpt lat="55.703865" lon="26.088905">
<ele>145.345825</ele>
<time>2010-07-18T06:33:01Z</time>
<desc>lat.=55.703865, lon.=26.088905, Alt.=145.345825m. Speed=15.552000m/h.</desc>
<speed>4.320000</speed>
</trkpt>
<trkpt lat="55.703876" lon="26.088974">
<ele>145.298950</ele>
<time>2010-07-18T06:33:02Z</time>
<desc>lat.=55.703876, lon.=26.088974, Alt.=145.298950m. Speed=15.624000m/h.</desc>
<speed>4.340000</speed>
</trkpt>
<trkpt lat="55.703892" lon="26.089039">
<ele>145.291138</ele>
<time>2010-07-18T06:33:03Z</time>
<desc>lat.=55.703892, lon.=26.089039, Alt.=145.291138m. Speed=15.624000m/h.</desc>
<speed>4.340000</speed>
</trkpt>
<trkpt lat="55.703903" lon="26.089106">
<ele>145.259888</ele>
<time>2010-07-18T06:33:04Z</time>
<desc>lat.=55.703903, lon.=26.089106, Alt.=145.259888m. Speed=15.624000m/h.</desc>
<speed>4.340000</speed>
</trkpt>
<trkpt lat="55.703922" lon="26.089170">
<ele>145.255981</ele>
<time>2010-07-18T06:33:05Z</time>
<desc>lat.=55.703922, lon.=26.089170, Alt.=145.255981m. Speed=16.056000m/h.</desc>
<speed>4.460000</speed>
</trkpt>
<trkpt lat="55.703938" lon="26.089237">
<ele>145.197388</ele>
<time>2010-07-18T06:33:06Z</time>
<desc>lat.=55.703938, lon.=26.089237, Alt.=145.197388m. Speed=16.524000m/h.</desc>
<speed>4.590000</speed>
</trkpt>
<trkpt lat="55.703953" lon="26.089302">
<ele>145.134888</ele>
<time>2010-07-18T06:33:07Z</time>
<desc>lat.=55.703953, lon.=26.089302, Alt.=145.134888m. Speed=15.264000m/h.</desc>
<speed>4.240000</speed>
</trkpt>
<trkpt lat="55.703968" lon="26.089367">
<ele>145.119263</ele>
<time>2010-07-18T06:33:08Z</time>
<desc>lat.=55.703968, lon.=26.089367, Alt.=145.119263m. Speed=15.588000m/h.</desc>
<speed>4.330000</speed>
</trkpt>
<trkpt lat="55.703979" lon="26.089434">
<ele>145.072388</ele>
<time>2010-07-18T06:33:09Z</time>
<desc>lat.=55.703979, lon.=26.089434, Alt.=145.072388m. Speed=15.372000m/h.</desc>
<speed>4.270000</speed>
</trkpt>
<trkpt lat="55.703995" lon="26.089497">
<ele>145.021606</ele>
<time>2010-07-18T06:33:10Z</time>
<desc>lat.=55.703995, lon.=26.089497, Alt.=145.021606m. Speed=15.588000m/h.</desc>
<speed>4.330000</speed>
</trkpt>
<trkpt lat="55.704014" lon="26.089554">
<ele>144.974731</ele>
<time>2010-07-18T06:33:11Z</time>
<desc>lat.=55.704014, lon.=26.089554, Alt.=144.974731m. Speed=15.228000m/h.</desc>
<speed>4.230000</speed>
</trkpt>
<trkpt lat="55.704037" lon="26.089617">
<ele>144.998169</ele>
<time>2010-07-18T06:33:12Z</time>
<desc>lat.=55.704037, lon.=26.089617, Alt.=144.998169m. Speed=16.632000m/h.</desc>
<speed>4.620000</speed>
</trkpt>
<trkpt lat="55.704060" lon="26.089682">
<ele>144.947388</ele>
<time>2010-07-18T06:33:13Z</time>
<desc>lat.=55.704060, lon.=26.089682, Alt.=144.947388m. Speed=15.984000m/h.</desc>
<speed>4.440000</speed>
</trkpt>
<trkpt lat="55.704075" lon="26.089748">
<ele>144.923950</ele>
<time>2010-07-18T06:33:14Z</time>
<desc>lat.=55.704075, lon.=26.089748, Alt.=144.923950m. Speed=16.559999m/h.</desc>
<speed>4.600000</speed>
</trkpt>
<trkpt lat="55.704094" lon="26.089809">
<ele>144.978638</ele>
<time>2010-07-18T06:33:15Z</time>
<desc>lat.=55.704094, lon.=26.089809, Alt.=144.978638m. Speed=16.200001m/h.</desc>
<speed>4.500000</speed>
</trkpt>
<trkpt lat="55.704117" lon="26.089870">
<ele>144.951294</ele>
<time>2010-07-18T06:33:16Z</time>
<desc>lat.=55.704117, lon.=26.089870, Alt.=144.951294m. Speed=16.488001m/h.</desc>
<speed>4.580000</speed>
</trkpt>
<trkpt lat="55.704140" lon="26.089930">
<ele>144.908325</ele>
<time>2010-07-18T06:33:17Z</time>
<desc>lat.=55.704140, lon.=26.089930, Alt.=144.908325m. Speed=16.667999m/h.</desc>
<speed>4.630000</speed>
</trkpt>
<trkpt lat="55.704163" lon="26.089996">
<ele>144.857544</ele>
<time>2010-07-18T06:33:18Z</time>
<desc>lat.=55.704163, lon.=26.089996, Alt.=144.857544m. Speed=16.775999m/h.</desc>
<speed>4.660000</speed>
</trkpt>
<trkpt lat="55.704189" lon="26.090048">
<ele>144.880981</ele>
<time>2010-07-18T06:33:19Z</time>
<desc>lat.=55.704189, lon.=26.090048, Alt.=144.880981m. Speed=16.308001m/h.</desc>
<speed>4.530000</speed>
</trkpt>
<trkpt lat="55.704224" lon="26.090113">
<ele>144.970825</ele>
<time>2010-07-18T06:33:20Z</time>
<desc>lat.=55.704224, lon.=26.090113, Alt.=144.970825m. Speed=17.172001m/h.</desc>
<speed>4.770000</speed>
</trkpt>
<trkpt lat="55.704247" lon="26.090176">
<ele>145.005981</ele>
<time>2010-07-18T06:33:21Z</time>
<desc>lat.=55.704247, lon.=26.090176, Alt.=145.005981m. Speed=17.243999m/h.</desc>
<speed>4.790000</speed>
</trkpt>
<trkpt lat="55.704266" lon="26.090244">
<ele>145.013794</ele>
<time>2010-07-18T06:33:22Z</time>
<desc>lat.=55.704266, lon.=26.090244, Alt.=145.013794m. Speed=16.488001m/h.</desc>
<speed>4.580000</speed>
</trkpt>
<trkpt lat="55.704285" lon="26.090307">
<ele>145.005981</ele>
<time>2010-07-18T06:33:23Z</time>
<desc>lat.=55.704285, lon.=26.090307, Alt.=145.005981m. Speed=16.020000m/h.</desc>
<speed>4.450000</speed>
</trkpt>
<trkpt lat="55.704281" lon="26.090382">
<ele>145.084106</ele>
<time>2010-07-18T06:33:24Z</time>
<desc>lat.=55.704281, lon.=26.090382, Alt.=145.084106m. Speed=14.040000m/h.</desc>
<speed>3.900000</speed>
</trkpt>
<trkpt lat="55.704292" lon="26.090437">
<ele>145.197388</ele>
<time>2010-07-18T06:33:25Z</time>
<desc>lat.=55.704292, lon.=26.090437, Alt.=145.197388m. Speed=11.448000m/h.</desc>
<speed>3.180000</speed>
</trkpt>
<trkpt lat="55.704304" lon="26.090487">
<ele>145.224731</ele>
<time>2010-07-18T06:33:26Z</time>
<desc>lat.=55.704304, lon.=26.090487, Alt.=145.224731m. Speed=11.448000m/h.</desc>
<speed>3.180000</speed>
</trkpt>
<trkpt lat="55.704311" lon="26.090528">
<ele>145.232544</ele>
<time>2010-07-18T06:33:27Z</time>
<desc>lat.=55.704311, lon.=26.090528, Alt.=145.232544m. Speed=10.404000m/h.</desc>
<speed>2.890000</speed>
</trkpt>
<trkpt lat="55.704323" lon="26.090572">
<ele>145.213013</ele>
<time>2010-07-18T06:33:28Z</time>
<desc>lat.=55.704323, lon.=26.090572, Alt.=145.213013m. Speed=10.944000m/h.</desc>
<speed>3.040000</speed>
</trkpt>
<trkpt lat="55.704342" lon="26.090599">
<ele>145.306763</ele>
<time>2010-07-18T06:33:29Z</time>
<desc>lat.=55.704342, lon.=26.090599, Alt.=145.306763m. Speed=9.900000m/h.</desc>
<speed>2.750000</speed>
</trkpt>
<trkpt lat="55.704357" lon="26.090637">
<ele>145.291138</ele>
<time>2010-07-18T06:33:30Z</time>
<desc>lat.=55.704357, lon.=26.090637, Alt.=145.291138m. Speed=10.368000m/h.</desc>
<speed>2.880000</speed>
</trkpt>
<trkpt lat="55.704380" lon="26.090675">
<ele>145.287231</ele>
<time>2010-07-18T06:33:31Z</time>
<desc>lat.=55.704380, lon.=26.090675, Alt.=145.287231m. Speed=11.916000m/h.</desc>
<speed>3.310000</speed>
</trkpt>
<trkpt lat="55.704403" lon="26.090715">
<ele>145.396606</ele>
<time>2010-07-18T06:33:32Z</time>
<desc>lat.=55.704403, lon.=26.090715, Alt.=145.396606m. Speed=12.708000m/h.</desc>
<speed>3.530000</speed>
</trkpt>
<trkpt lat="55.704422" lon="26.090750">
<ele>145.552856</ele>
<time>2010-07-18T06:33:33Z</time>
<desc>lat.=55.704422, lon.=26.090750, Alt.=145.552856m. Speed=13.392000m/h.</desc>
<speed>3.720000</speed>
</trkpt>
<trkpt lat="55.704437" lon="26.090803">
<ele>145.599731</ele>
<time>2010-07-18T06:33:34Z</time>
<desc>lat.=55.704437, lon.=26.090803, Alt.=145.599731m. Speed=13.536000m/h.</desc>
<speed>3.760000</speed>
</trkpt>
<trkpt lat="55.704460" lon="26.090853">
<ele>145.630981</ele>
<time>2010-07-18T06:33:35Z</time>
<desc>lat.=55.704460, lon.=26.090853, Alt.=145.630981m. Speed=14.652000m/h.</desc>
<speed>4.070000</speed>
</trkpt>
<trkpt lat="55.704491" lon="26.090904">
<ele>145.642700</ele>
<time>2010-07-18T06:33:36Z</time>
<desc>lat.=55.704491, lon.=26.090904, Alt.=145.642700m. Speed=16.128000m/h.</desc>
<speed>4.480000</speed>
</trkpt>
<trkpt lat="55.704525" lon="26.090956">
<ele>145.830200</ele>
<time>2010-07-18T06:33:37Z</time>
<desc>lat.=55.704525, lon.=26.090956, Alt.=145.830200m. Speed=18.072001m/h.</desc>
<speed>5.020000</speed>
</trkpt>
<trkpt lat="55.704556" lon="26.091013">
<ele>145.822388</ele>
<time>2010-07-18T06:33:38Z</time>
<desc>lat.=55.704556, lon.=26.091013, Alt.=145.822388m. Speed=17.784000m/h.</desc>
<speed>4.940000</speed>
</trkpt>
<trkpt lat="55.704590" lon="26.091068">
<ele>145.814575</ele>
<time>2010-07-18T06:33:39Z</time>
<desc>lat.=55.704590, lon.=26.091068, Alt.=145.814575m. Speed=19.260000m/h.</desc>
<speed>5.350000</speed>
</trkpt>
<trkpt lat="55.704624" lon="26.091129">
<ele>145.775513</ele>
<time>2010-07-18T06:33:40Z</time>
<desc>lat.=55.704624, lon.=26.091129, Alt.=145.775513m. Speed=19.152000m/h.</desc>
<speed>5.320000</speed>
</trkpt>
<trkpt lat="55.704659" lon="26.091185">
<ele>145.775513</ele>
<time>2010-07-18T06:33:41Z</time>
<desc>lat.=55.704659, lon.=26.091185, Alt.=145.775513m. Speed=19.188000m/h.</desc>
<speed>5.330000</speed>
</trkpt>
<trkpt lat="55.704697" lon="26.091242">
<ele>145.798950</ele>
<time>2010-07-18T06:33:42Z</time>
<desc>lat.=55.704697, lon.=26.091242, Alt.=145.798950m. Speed=19.368000m/h.</desc>
<speed>5.380000</speed>
</trkpt>
<trkpt lat="55.704735" lon="26.091291">
<ele>145.861450</ele>
<time>2010-07-18T06:33:43Z</time>
<desc>lat.=55.704735, lon.=26.091291, Alt.=145.861450m. Speed=18.792000m/h.</desc>
<speed>5.220000</speed>
</trkpt>
<trkpt lat="55.704773" lon="26.091345">
<ele>145.923950</ele>
<time>2010-07-18T06:33:44Z</time>
<desc>lat.=55.704773, lon.=26.091345, Alt.=145.923950m. Speed=18.252001m/h.</desc>
<speed>5.070000</speed>
</trkpt>
<trkpt lat="55.704811" lon="26.091398">
<ele>145.939575</ele>
<time>2010-07-18T06:33:45Z</time>
<desc>lat.=55.704811, lon.=26.091398, Alt.=145.939575m. Speed=17.964001m/h.</desc>
<speed>4.990000</speed>
</trkpt>
<trkpt lat="55.704845" lon="26.091442">
<ele>145.998169</ele>
<time>2010-07-18T06:33:46Z</time>
<desc>lat.=55.704845, lon.=26.091442, Alt.=145.998169m. Speed=17.604000m/h.</desc>
<speed>4.890000</speed>
</trkpt>
<trkpt lat="55.704876" lon="26.091486">
<ele>146.021606</ele>
<time>2010-07-18T06:33:47Z</time>
<desc>lat.=55.704876, lon.=26.091486, Alt.=146.021606m. Speed=15.732000m/h.</desc>
<speed>4.370000</speed>
</trkpt>
<trkpt lat="55.704903" lon="26.091532">
<ele>145.974731</ele>
<time>2010-07-18T06:33:48Z</time>
<desc>lat.=55.704903, lon.=26.091532, Alt.=145.974731m. Speed=14.976000m/h.</desc>
<speed>4.160000</speed>
</trkpt>
<trkpt lat="55.704933" lon="26.091578">
<ele>145.966919</ele>
<time>2010-07-18T06:33:49Z</time>
<desc>lat.=55.704933, lon.=26.091578, Alt.=145.966919m. Speed=15.156000m/h.</desc>
<speed>4.210000</speed>
</trkpt>
<trkpt lat="55.704964" lon="26.091627">
<ele>146.017700</ele>
<time>2010-07-18T06:33:50Z</time>
<desc>lat.=55.704964, lon.=26.091627, Alt.=146.017700m. Speed=15.624000m/h.</desc>
<speed>4.340000</speed>
</trkpt>
<trkpt lat="55.704990" lon="26.091681">
<ele>146.064575</ele>
<time>2010-07-18T06:33:51Z</time>
<desc>lat.=55.704990, lon.=26.091681, Alt.=146.064575m. Speed=15.300000m/h.</desc>
<speed>4.250000</speed>
</trkpt>
<trkpt lat="55.705021" lon="26.091726">
<ele>146.150513</ele>
<time>2010-07-18T06:33:52Z</time>
<desc>lat.=55.705021, lon.=26.091726, Alt.=146.150513m. Speed=15.012000m/h.</desc>
<speed>4.170000</speed>
</trkpt>
<trkpt lat="55.705051" lon="26.091768">
<ele>146.224731</ele>
<time>2010-07-18T06:33:53Z</time>
<desc>lat.=55.705051, lon.=26.091768, Alt.=146.224731m. Speed=14.508000m/h.</desc>
<speed>4.030000</speed>
</trkpt>
<trkpt lat="55.705078" lon="26.091816">
<ele>146.259888</ele>
<time>2010-07-18T06:33:54Z</time>
<desc>lat.=55.705078, lon.=26.091816, Alt.=146.259888m. Speed=14.256000m/h.</desc>
<speed>3.960000</speed>
</trkpt>
<trkpt lat="55.705105" lon="26.091856">
<ele>146.271606</ele>
<time>2010-07-18T06:33:55Z</time>
<desc>lat.=55.705105, lon.=26.091856, Alt.=146.271606m. Speed=14.508000m/h.</desc>
<speed>4.030000</speed>
</trkpt>
<trkpt lat="55.705135" lon="26.091896">
<ele>146.330200</ele>
<time>2010-07-18T06:33:56Z</time>
<desc>lat.=55.705135, lon.=26.091896, Alt.=146.330200m. Speed=14.544000m/h.</desc>
<speed>4.040000</speed>
</trkpt>
<trkpt lat="55.705158" lon="26.091940">
<ele>146.298950</ele>
<time>2010-07-18T06:33:57Z</time>
<desc>lat.=55.705158, lon.=26.091940, Alt.=146.298950m. Speed=14.724000m/h.</desc>
<speed>4.090000</speed>
</trkpt>
<trkpt lat="55.705189" lon="26.091980">
<ele>146.197388</ele>
<time>2010-07-18T06:33:58Z</time>
<desc>lat.=55.705189, lon.=26.091980, Alt.=146.197388m. Speed=14.832000m/h.</desc>
<speed>4.120000</speed>
</trkpt>
<trkpt lat="55.705212" lon="26.092024">
<ele>146.166138</ele>
<time>2010-07-18T06:33:59Z</time>
<desc>lat.=55.705212, lon.=26.092024, Alt.=146.166138m. Speed=15.480000m/h.</desc>
<speed>4.300000</speed>
</trkpt>
<trkpt lat="55.705242" lon="26.092072">
<ele>146.193481</ele>
<time>2010-07-18T06:34:00Z</time>
<desc>lat.=55.705242, lon.=26.092072, Alt.=146.193481m. Speed=15.624000m/h.</desc>
<speed>4.340000</speed>
</trkpt>
<trkpt lat="55.705273" lon="26.092115">
<ele>146.252075</ele>
<time>2010-07-18T06:34:01Z</time>
<desc>lat.=55.705273, lon.=26.092115, Alt.=146.252075m. Speed=15.480000m/h.</desc>
<speed>4.300000</speed>
</trkpt>
<trkpt lat="55.705303" lon="26.092163">
<ele>146.310669</ele>
<time>2010-07-18T06:34:02Z</time>
<desc>lat.=55.705303, lon.=26.092163, Alt.=146.310669m. Speed=15.732000m/h.</desc>
<speed>4.370000</speed>
</trkpt>
<trkpt lat="55.705334" lon="26.092213">
<ele>146.392700</ele>
<time>2010-07-18T06:34:03Z</time>
<desc>lat.=55.705334, lon.=26.092213, Alt.=146.392700m. Speed=17.028000m/h.</desc>
<speed>4.730000</speed>
</trkpt>
<trkpt lat="55.705364" lon="26.092279">
<ele>146.318481</ele>
<time>2010-07-18T06:34:04Z</time>
<desc>lat.=55.705364, lon.=26.092279, Alt.=146.318481m. Speed=16.740000m/h.</desc>
<speed>4.650000</speed>
</trkpt>
<trkpt lat="55.705391" lon="26.092331">
<ele>146.377075</ele>
<time>2010-07-18T06:34:05Z</time>
<desc>lat.=55.705391, lon.=26.092331, Alt.=146.377075m. Speed=17.136000m/h.</desc>
<speed>4.760000</speed>
</trkpt>
<trkpt lat="55.705421" lon="26.092390">
<ele>146.443481</ele>
<time>2010-07-18T06:34:06Z</time>
<desc>lat.=55.705421, lon.=26.092390, Alt.=146.443481m. Speed=17.747999m/h.</desc>
<speed>4.930000</speed>
</trkpt>
<trkpt lat="55.705452" lon="26.092461">
<ele>145.908325</ele>
<time>2010-07-18T06:34:07Z</time>
<desc>lat.=55.705452, lon.=26.092461, Alt.=145.908325m. Speed=17.927999m/h.</desc>
<speed>4.980000</speed>
</trkpt>
<trkpt lat="55.705456" lon="26.092520">
<ele>146.134888</ele>
<time>2010-07-18T06:34:08Z</time>
<desc>lat.=55.705456, lon.=26.092520, Alt.=146.134888m. Speed=18.072001m/h.</desc>
<speed>5.020000</speed>
</trkpt>
<trkpt lat="55.705479" lon="26.092573">
<ele>146.107544</ele>
<time>2010-07-18T06:34:09Z</time>
<desc>lat.=55.705479, lon.=26.092573, Alt.=146.107544m. Speed=16.379999m/h.</desc>
<speed>4.550000</speed>
</trkpt>
<trkpt lat="55.705502" lon="26.092627">
<ele>145.869263</ele>
<time>2010-07-18T06:34:10Z</time>
<desc>lat.=55.705502, lon.=26.092627, Alt.=145.869263m. Speed=16.812000m/h.</desc>
<speed>4.670000</speed>
</trkpt>
<trkpt lat="55.705505" lon="26.092686">
<ele>146.052856</ele>
<time>2010-07-18T06:34:11Z</time>
<desc>lat.=55.705505, lon.=26.092686, Alt.=146.052856m. Speed=17.388000m/h.</desc>
<speed>4.830000</speed>
</trkpt>
<trkpt lat="55.705536" lon="26.092749">
<ele>145.998169</ele>
<time>2010-07-18T06:34:12Z</time>
<desc>lat.=55.705536, lon.=26.092749, Alt.=145.998169m. Speed=16.884001m/h.</desc>
<speed>4.690000</speed>
</trkpt>
<trkpt lat="55.705563" lon="26.092813">
<ele>146.232544</ele>
<time>2010-07-18T06:34:13Z</time>
<desc>lat.=55.705563, lon.=26.092813, Alt.=146.232544m. Speed=17.892000m/h.</desc>
<speed>4.970000</speed>
</trkpt>
<trkpt lat="55.705608" lon="26.092880">
<ele>146.052856</ele>
<time>2010-07-18T06:34:14Z</time>
<desc>lat.=55.705608, lon.=26.092880, Alt.=146.052856m. Speed=18.072001m/h.</desc>
<speed>5.020000</speed>
</trkpt>
<trkpt lat="55.705643" lon="26.092957">
<ele>146.197388</ele>
<time>2010-07-18T06:34:15Z</time>
<desc>lat.=55.705643, lon.=26.092957, Alt.=146.197388m. Speed=18.180000m/h.</desc>
<speed>5.050000</speed>
</trkpt>
<trkpt lat="55.705666" lon="26.093035">
<ele>146.224731</ele>
<time>2010-07-18T06:34:16Z</time>
<desc>lat.=55.705666, lon.=26.093035, Alt.=146.224731m. Speed=19.260000m/h.</desc>
<speed>5.350000</speed>
</trkpt>
<trkpt lat="55.705688" lon="26.093111">
<ele>146.248169</ele>
<time>2010-07-18T06:34:17Z</time>
<desc>lat.=55.705688, lon.=26.093111, Alt.=146.248169m. Speed=17.280001m/h.</desc>
<speed>4.800000</speed>
</trkpt>
<trkpt lat="55.705708" lon="26.093185">
<ele>146.322388</ele>
<time>2010-07-18T06:34:18Z</time>
<desc>lat.=55.705708, lon.=26.093185, Alt.=146.322388m. Speed=18.035999m/h.</desc>
<speed>5.010000</speed>
</trkpt>
<trkpt lat="55.705730" lon="26.093260">
<ele>146.220825</ele>
<time>2010-07-18T06:34:19Z</time>
<desc>lat.=55.705730, lon.=26.093260, Alt.=146.220825m. Speed=18.323999m/h.</desc>
<speed>5.090000</speed>
</trkpt>
<trkpt lat="55.705746" lon="26.093338">
<ele>146.130981</ele>
<time>2010-07-18T06:34:20Z</time>
<desc>lat.=55.705746, lon.=26.093338, Alt.=146.130981m. Speed=19.691999m/h.</desc>
<speed>5.470000</speed>
</trkpt>
<trkpt lat="55.705761" lon="26.093424">
<ele>146.013794</ele>
<time>2010-07-18T06:34:21Z</time>
<desc>lat.=55.705761, lon.=26.093424, Alt.=146.013794m. Speed=19.584000m/h.</desc>
<speed>5.440000</speed>
</trkpt>
<trkpt lat="55.705772" lon="26.093500">
<ele>146.060669</ele>
<time>2010-07-18T06:34:22Z</time>
<desc>lat.=55.705772, lon.=26.093500, Alt.=146.060669m. Speed=16.955999m/h.</desc>
<speed>4.710000</speed>
</trkpt>
<trkpt lat="55.705811" lon="26.093588">
<ele>146.740356</ele>
<time>2010-07-18T06:34:23Z</time>
<desc>lat.=55.705811, lon.=26.093588, Alt.=146.740356m. Speed=17.927999m/h.</desc>
<speed>4.980000</speed>
</trkpt>
<trkpt lat="55.705826" lon="26.093662">
<ele>146.923950</ele>
<time>2010-07-18T06:34:24Z</time>
<desc>lat.=55.705826, lon.=26.093662, Alt.=146.923950m. Speed=16.992001m/h.</desc>
<speed>4.720000</speed>
</trkpt>
<trkpt lat="55.705837" lon="26.093733">
<ele>147.115356</ele>
<time>2010-07-18T06:34:25Z</time>
<desc>lat.=55.705837, lon.=26.093733, Alt.=147.115356m. Speed=16.344000m/h.</desc>
<speed>4.540000</speed>
</trkpt>
<trkpt lat="55.705845" lon="26.093801">
<ele>147.205200</ele>
<time>2010-07-18T06:34:26Z</time>
<desc>lat.=55.705845, lon.=26.093801, Alt.=147.205200m. Speed=15.660000m/h.</desc>
<speed>4.350000</speed>
</trkpt>
<trkpt lat="55.705856" lon="26.093863">
<ele>147.326294</ele>
<time>2010-07-18T06:34:27Z</time>
<desc>lat.=55.705856, lon.=26.093863, Alt.=147.326294m. Speed=15.048000m/h.</desc>
<speed>4.180000</speed>
</trkpt>
<trkpt lat="55.705868" lon="26.093929">
<ele>147.377075</ele>
<time>2010-07-18T06:34:28Z</time>
<desc>lat.=55.705868, lon.=26.093929, Alt.=147.377075m. Speed=16.091999m/h.</desc>
<speed>4.470000</speed>
</trkpt>
<trkpt lat="55.705883" lon="26.094000">
<ele>147.193481</ele>
<time>2010-07-18T06:34:29Z</time>
<desc>lat.=55.705883, lon.=26.094000, Alt.=147.193481m. Speed=16.488001m/h.</desc>
<speed>4.580000</speed>
</trkpt>
<trkpt lat="55.705898" lon="26.094067">
<ele>146.787231</ele>
<time>2010-07-18T06:34:30Z</time>
<desc>lat.=55.705898, lon.=26.094067, Alt.=146.787231m. Speed=16.379999m/h.</desc>
<speed>4.550000</speed>
</trkpt>
<trkpt lat="55.705910" lon="26.094135">
<ele>146.818481</ele>
<time>2010-07-18T06:34:31Z</time>
<desc>lat.=55.705910, lon.=26.094135, Alt.=146.818481m. Speed=16.704000m/h.</desc>
<speed>4.640000</speed>
</trkpt>
<trkpt lat="55.705921" lon="26.094208">
<ele>146.779419</ele>
<time>2010-07-18T06:34:32Z</time>
<desc>lat.=55.705921, lon.=26.094208, Alt.=146.779419m. Speed=17.243999m/h.</desc>
<speed>4.790000</speed>
</trkpt>
<trkpt lat="55.705933" lon="26.094278">
<ele>146.713013</ele>
<time>2010-07-18T06:34:33Z</time>
<desc>lat.=55.705933, lon.=26.094278, Alt.=146.713013m. Speed=16.524000m/h.</desc>
<speed>4.590000</speed>
</trkpt>
<trkpt lat="55.705940" lon="26.094347">
<ele>146.744263</ele>
<time>2010-07-18T06:34:34Z</time>
<desc>lat.=55.705940, lon.=26.094347, Alt.=146.744263m. Speed=16.271999m/h.</desc>
<speed>4.520000</speed>
</trkpt>
<trkpt lat="55.705952" lon="26.094418">
<ele>146.795044</ele>
<time>2010-07-18T06:34:35Z</time>
<desc>lat.=55.705952, lon.=26.094418, Alt.=146.795044m. Speed=16.740000m/h.</desc>
<speed>4.650000</speed>
</trkpt>
<trkpt lat="55.705956" lon="26.094488">
<ele>147.123169</ele>
<time>2010-07-18T06:34:36Z</time>
<desc>lat.=55.705956, lon.=26.094488, Alt.=147.123169m. Speed=17.316000m/h.</desc>
<speed>4.810000</speed>
</trkpt>
<trkpt lat="55.705956" lon="26.094574">
<ele>147.193481</ele>
<time>2010-07-18T06:34:37Z</time>
<desc>lat.=55.705956, lon.=26.094574, Alt.=147.193481m. Speed=18.143999m/h.</desc>
<speed>5.040000</speed>
</trkpt>
<trkpt lat="55.705971" lon="26.094650">
<ele>147.158325</ele>
<time>2010-07-18T06:34:38Z</time>
<desc>lat.=55.705971, lon.=26.094650, Alt.=147.158325m. Speed=17.892000m/h.</desc>
<speed>4.970000</speed>
</trkpt>
<trkpt lat="55.705986" lon="26.094723">
<ele>147.298950</ele>
<time>2010-07-18T06:34:39Z</time>
<desc>lat.=55.705986, lon.=26.094723, Alt.=147.298950m. Speed=17.172001m/h.</desc>
<speed>4.770000</speed>
</trkpt>
<trkpt lat="55.706005" lon="26.094791">
<ele>147.306763</ele>
<time>2010-07-18T06:34:40Z</time>
<desc>lat.=55.706005, lon.=26.094791, Alt.=147.306763m. Speed=16.632000m/h.</desc>
<speed>4.620000</speed>
</trkpt>
<trkpt lat="55.706017" lon="26.094858">
<ele>147.314575</ele>
<time>2010-07-18T06:34:41Z</time>
<desc>lat.=55.706017, lon.=26.094858, Alt.=147.314575m. Speed=16.344000m/h.</desc>
<speed>4.540000</speed>
</trkpt>
<trkpt lat="55.706017" lon="26.094919">
<ele>147.564575</ele>
<time>2010-07-18T06:34:42Z</time>
<desc>lat.=55.706017, lon.=26.094919, Alt.=147.564575m. Speed=13.644000m/h.</desc>
<speed>3.790000</speed>
</trkpt>
<trkpt lat="55.706024" lon="26.094978">
<ele>147.615356</ele>
<time>2010-07-18T06:34:43Z</time>
<desc>lat.=55.706024, lon.=26.094978, Alt.=147.615356m. Speed=14.796000m/h.</desc>
<speed>4.110000</speed>
</trkpt>
<trkpt lat="55.706032" lon="26.095041">
<ele>147.654419</ele>
<time>2010-07-18T06:34:44Z</time>
<desc>lat.=55.706032, lon.=26.095041, Alt.=147.654419m. Speed=14.724000m/h.</desc>
<speed>4.090000</speed>
</trkpt>
<trkpt lat="55.706039" lon="26.095106">
<ele>147.826294</ele>
<time>2010-07-18T06:34:45Z</time>
<desc>lat.=55.706039, lon.=26.095106, Alt.=147.826294m. Speed=13.824000m/h.</desc>
<speed>3.840000</speed>
</trkpt>
<trkpt lat="55.706047" lon="26.095167">
<ele>147.857544</ele>
<time>2010-07-18T06:34:46Z</time>
<desc>lat.=55.706047, lon.=26.095167, Alt.=147.857544m. Speed=13.716000m/h.</desc>
<speed>3.810000</speed>
</trkpt>
<trkpt lat="55.706066" lon="26.095232">
<ele>148.392700</ele>
<time>2010-07-18T06:34:47Z</time>
<desc>lat.=55.706066, lon.=26.095232, Alt.=148.392700m. Speed=13.464000m/h.</desc>
<speed>3.740000</speed>
</trkpt>
<trkpt lat="55.706081" lon="26.095308">
<ele>149.052856</ele>
<time>2010-07-18T06:34:48Z</time>
<desc>lat.=55.706081, lon.=26.095308, Alt.=149.052856m. Speed=13.968000m/h.</desc>
<speed>3.880000</speed>
</trkpt>
<trkpt lat="55.706089" lon="26.095366">
<ele>149.166138</ele>
<time>2010-07-18T06:34:49Z</time>
<desc>lat.=55.706089, lon.=26.095366, Alt.=149.166138m. Speed=12.132000m/h.</desc>
<speed>3.370000</speed>
</trkpt>
<trkpt lat="55.706100" lon="26.095407">
<ele>149.154419</ele>
<time>2010-07-18T06:34:50Z</time>
<desc>lat.=55.706100, lon.=26.095407, Alt.=149.154419m. Speed=12.168000m/h.</desc>
<speed>3.380000</speed>
</trkpt>
<trkpt lat="55.706112" lon="26.095459">
<ele>149.470825</ele>
<time>2010-07-18T06:34:51Z</time>
<desc>lat.=55.706112, lon.=26.095459, Alt.=149.470825m. Speed=11.484000m/h.</desc>
<speed>3.190000</speed>
</trkpt>
<trkpt lat="55.706123" lon="26.095503">
<ele>149.607544</ele>
<time>2010-07-18T06:34:52Z</time>
<desc>lat.=55.706123, lon.=26.095503, Alt.=149.607544m. Speed=10.764000m/h.</desc>
<speed>2.990000</speed>
</trkpt>
<trkpt lat="55.706131" lon="26.095551">
<ele>149.931763</ele>
<time>2010-07-18T06:34:53Z</time>
<desc>lat.=55.706131, lon.=26.095551, Alt.=149.931763m. Speed=10.080000m/h.</desc>
<speed>2.800000</speed>
</trkpt>
<trkpt lat="55.706142" lon="26.095591">
<ele>150.349731</ele>
<time>2010-07-18T06:34:54Z</time>
<desc>lat.=55.706142, lon.=26.095591, Alt.=150.349731m. Speed=8.316000m/h.</desc>
<speed>2.310000</speed>
</trkpt>
<trkpt lat="55.706142" lon="26.095623">
<ele>150.420044</ele>
<time>2010-07-18T06:34:55Z</time>
<desc>lat.=55.706142, lon.=26.095623, Alt.=150.420044m. Speed=7.632000m/h.</desc>
<speed>2.120000</speed>
</trkpt>
<trkpt lat="55.706139" lon="26.095657">
<ele>150.466919</ele>
<time>2010-07-18T06:34:56Z</time>
<desc>lat.=55.706139, lon.=26.095657, Alt.=150.466919m. Speed=8.208000m/h.</desc>
<speed>2.280000</speed>
</trkpt>
<trkpt lat="55.706146" lon="26.095690">
<ele>150.732544</ele>
<time>2010-07-18T06:34:57Z</time>
<desc>lat.=55.706146, lon.=26.095690, Alt.=150.732544m. Speed=7.668000m/h.</desc>
<speed>2.130000</speed>
</trkpt>
<trkpt lat="55.706146" lon="26.095728">
<ele>150.658325</ele>
<time>2010-07-18T06:34:58Z</time>
<desc>lat.=55.706146, lon.=26.095728, Alt.=150.658325m. Speed=7.236000m/h.</desc>
<speed>2.010000</speed>
</trkpt>
<trkpt lat="55.706154" lon="26.095764">
<ele>150.834106</ele>
<time>2010-07-18T06:34:59Z</time>
<desc>lat.=55.706154, lon.=26.095764, Alt.=150.834106m. Speed=8.208000m/h.</desc>
<speed>2.280000</speed>
</trkpt>
<trkpt lat="55.706154" lon="26.095810">
<ele>150.818481</ele>
<time>2010-07-18T06:35:00Z</time>
<desc>lat.=55.706154, lon.=26.095810, Alt.=150.818481m. Speed=7.488000m/h.</desc>
<speed>2.080000</speed>
</trkpt>
<trkpt lat="55.706158" lon="26.095848">
<ele>150.935669</ele>
<time>2010-07-18T06:35:01Z</time>
<desc>lat.=55.706158, lon.=26.095848, Alt.=150.935669m. Speed=7.596000m/h.</desc>
<speed>2.110000</speed>
</trkpt>
<trkpt lat="55.706154" lon="26.095882">
<ele>151.205200</ele>
<time>2010-07-18T06:35:02Z</time>
<desc>lat.=55.706154, lon.=26.095882, Alt.=151.205200m. Speed=7.920000m/h.</desc>
<speed>2.200000</speed>
</trkpt>
<trkpt lat="55.706142" lon="26.095903">
<ele>152.720825</ele>
<time>2010-07-18T06:35:03Z</time>
<desc>lat.=55.706142, lon.=26.095903, Alt.=152.720825m. Speed=7.344000m/h.</desc>
<speed>2.040000</speed>
</trkpt>
<trkpt lat="55.706135" lon="26.095936">
<ele>153.130981</ele>
<time>2010-07-18T06:35:04Z</time>
<desc>lat.=55.706135, lon.=26.095936, Alt.=153.130981m. Speed=7.560000m/h.</desc>
<speed>2.100000</speed>
</trkpt>
<trkpt lat="55.706127" lon="26.095968">
<ele>153.880981</ele>
<time>2010-07-18T06:35:05Z</time>
<desc>lat.=55.706127, lon.=26.095968, Alt.=153.880981m. Speed=7.776000m/h.</desc>
<speed>2.160000</speed>
</trkpt>
<trkpt lat="55.706131" lon="26.095999">
<ele>153.724731</ele>
<time>2010-07-18T06:35:06Z</time>
<desc>lat.=55.706131, lon.=26.095999, Alt.=153.724731m. Speed=6.516000m/h.</desc>
<speed>1.810000</speed>
</trkpt>
<trkpt lat="55.706131" lon="26.096029">
<ele>153.119263</ele>
<time>2010-07-18T06:35:07Z</time>
<desc>lat.=55.706131, lon.=26.096029, Alt.=153.119263m. Speed=7.560000m/h.</desc>
<speed>2.100000</speed>
</trkpt>
<trkpt lat="55.706123" lon="26.096062">
<ele>153.302856</ele>
<time>2010-07-18T06:35:08Z</time>
<desc>lat.=55.706123, lon.=26.096062, Alt.=153.302856m. Speed=7.812000m/h.</desc>
<speed>2.170000</speed>
</trkpt>
<trkpt lat="55.706123" lon="26.096087">
<ele>153.349731</ele>
<time>2010-07-18T06:35:09Z</time>
<desc>lat.=55.706123, lon.=26.096087, Alt.=153.349731m. Speed=7.416000m/h.</desc>
<speed>2.060000</speed>
</trkpt>
<trkpt lat="55.706131" lon="26.096102">
<ele>154.255981</ele>
<time>2010-07-18T06:35:10Z</time>
<desc>lat.=55.706131, lon.=26.096102, Alt.=154.255981m. Speed=7.812000m/h.</desc>
<speed>2.170000</speed>
</trkpt>
<trkpt lat="55.706131" lon="26.096138">
<ele>154.927856</ele>
<time>2010-07-18T06:35:11Z</time>
<desc>lat.=55.706131, lon.=26.096138, Alt.=154.927856m. Speed=7.200000m/h.</desc>
<speed>2.000000</speed>
</trkpt>
<trkpt lat="55.706123" lon="26.096172">
<ele>155.654419</ele>
<time>2010-07-18T06:35:12Z</time>
<desc>lat.=55.706123, lon.=26.096172, Alt.=155.654419m. Speed=7.704000m/h.</desc>
<speed>2.140000</speed>
</trkpt>
<trkpt lat="55.706116" lon="26.096195">
<ele>155.994263</ele>
<time>2010-07-18T06:35:13Z</time>
<desc>lat.=55.706116, lon.=26.096195, Alt.=155.994263m. Speed=6.372000m/h.</desc>
<speed>1.770000</speed>
</trkpt>
<trkpt lat="55.706112" lon="26.096222">
<ele>156.404419</ele>
<time>2010-07-18T06:35:14Z</time>
<desc>lat.=55.706112, lon.=26.096222, Alt.=156.404419m. Speed=6.264000m/h.</desc>
<speed>1.740000</speed>
</trkpt>
<trkpt lat="55.706108" lon="26.096252">
<ele>156.982544</ele>
<time>2010-07-18T06:35:15Z</time>
<desc>lat.=55.706108, lon.=26.096252, Alt.=156.982544m. Speed=6.480000m/h.</desc>
<speed>1.800000</speed>
</trkpt>
<trkpt lat="55.706108" lon="26.096283">
<ele>157.240356</ele>
<time>2010-07-18T06:35:16Z</time>
<desc>lat.=55.706108, lon.=26.096283, Alt.=157.240356m. Speed=7.308000m/h.</desc>
<speed>2.030000</speed>
</trkpt>
<trkpt lat="55.706104" lon="26.096319">
<ele>157.650513</ele>
<time>2010-07-18T06:35:17Z</time>
<desc>lat.=55.706104, lon.=26.096319, Alt.=157.650513m. Speed=7.128000m/h.</desc>
<speed>1.980000</speed>
</trkpt>
<trkpt lat="55.706104" lon="26.096348">
<ele>157.994263</ele>
<time>2010-07-18T06:35:18Z</time>
<desc>lat.=55.706104, lon.=26.096348, Alt.=157.994263m. Speed=6.012000m/h.</desc>
<speed>1.670000</speed>
</trkpt>
<trkpt lat="55.706100" lon="26.096378">
<ele>158.287231</ele>
<time>2010-07-18T06:35:19Z</time>
<desc>lat.=55.706100, lon.=26.096378, Alt.=158.287231m. Speed=6.660000m/h.</desc>
<speed>1.850000</speed>
</trkpt>
<trkpt lat="55.706100" lon="26.096399">
<ele>158.322388</ele>
<time>2010-07-18T06:35:20Z</time>
<desc>lat.=55.706100, lon.=26.096399, Alt.=158.322388m. Speed=5.868000m/h.</desc>
<speed>1.630000</speed>
</trkpt>
<trkpt lat="55.706093" lon="26.096424">
<ele>158.478638</ele>
<time>2010-07-18T06:35:21Z</time>
<desc>lat.=55.706093, lon.=26.096424, Alt.=158.478638m. Speed=6.768000m/h.</desc>
<speed>1.880000</speed>
</trkpt>
<trkpt lat="55.706085" lon="26.096455">
<ele>158.435669</ele>
<time>2010-07-18T06:35:22Z</time>
<desc>lat.=55.706085, lon.=26.096455, Alt.=158.435669m. Speed=5.904000m/h.</desc>
<speed>1.640000</speed>
</trkpt>
<trkpt lat="55.706081" lon="26.096478">
<ele>158.529419</ele>
<time>2010-07-18T06:35:23Z</time>
<desc>lat.=55.706081, lon.=26.096478, Alt.=158.529419m. Speed=7.020000m/h.</desc>
<speed>1.950000</speed>
</trkpt>
<trkpt lat="55.706081" lon="26.096502">
<ele>158.798950</ele>
<time>2010-07-18T06:35:24Z</time>
<desc>lat.=55.706081, lon.=26.096502, Alt.=158.798950m. Speed=6.660000m/h.</desc>
<speed>1.850000</speed>
</trkpt>
<trkpt lat="55.706074" lon="26.096539">
<ele>158.779419</ele>
<time>2010-07-18T06:35:25Z</time>
<desc>lat.=55.706074, lon.=26.096539, Alt.=158.779419m. Speed=6.840000m/h.</desc>
<speed>1.900000</speed>
</trkpt>
<trkpt lat="55.706074" lon="26.096567">
<ele>159.263794</ele>
<time>2010-07-18T06:35:26Z</time>
<desc>lat.=55.706074, lon.=26.096567, Alt.=159.263794m. Speed=4.932000m/h.</desc>
<speed>1.370000</speed>
</trkpt>
<trkpt lat="55.706036" lon="26.096621">
<ele>159.353638</ele>
<time>2010-07-18T06:35:27Z</time>
<desc>lat.=55.706036, lon.=26.096621, Alt.=159.353638m. Speed=7.560000m/h.</desc>
<speed>2.100000</speed>
</trkpt>
<trkpt lat="55.706032" lon="26.096643">
<ele>160.041138</ele>
<time>2010-07-18T06:35:28Z</time>
<desc>lat.=55.706032, lon.=26.096643, Alt.=160.041138m. Speed=7.812000m/h.</desc>
<speed>2.170000</speed>
</trkpt>
<trkpt lat="55.706017" lon="26.096682">
<ele>160.490356</ele>
<time>2010-07-18T06:35:29Z</time>
<desc>lat.=55.706017, lon.=26.096682, Alt.=160.490356m. Speed=7.956000m/h.</desc>
<speed>2.210000</speed>
</trkpt>
<trkpt lat="55.706009" lon="26.096718">
<ele>160.541138</ele>
<time>2010-07-18T06:35:30Z</time>
<desc>lat.=55.706009, lon.=26.096718, Alt.=160.541138m. Speed=7.596000m/h.</desc>
<speed>2.110000</speed>
</trkpt>
<trkpt lat="55.706005" lon="26.096750">
<ele>160.478638</ele>
<time>2010-07-18T06:35:31Z</time>
<desc>lat.=55.706005, lon.=26.096750, Alt.=160.478638m. Speed=6.732000m/h.</desc>
<speed>1.870000</speed>
</trkpt>
<trkpt lat="55.706001" lon="26.096779">
<ele>161.041138</ele>
<time>2010-07-18T06:35:32Z</time>
<desc>lat.=55.706001, lon.=26.096779, Alt.=161.041138m. Speed=4.860000m/h.</desc>
<speed>1.350000</speed>
</trkpt>
<trkpt lat="55.705994" lon="26.096802">
<ele>161.228638</ele>
<time>2010-07-18T06:35:33Z</time>
<desc>lat.=55.705994, lon.=26.096802, Alt.=161.228638m. Speed=6.120000m/h.</desc>
<speed>1.700000</speed>
</trkpt>
<trkpt lat="55.705982" lon="26.096836">
<ele>161.322388</ele>
<time>2010-07-18T06:35:34Z</time>
<desc>lat.=55.705982, lon.=26.096836, Alt.=161.322388m. Speed=7.272000m/h.</desc>
<speed>2.020000</speed>
</trkpt>
<trkpt lat="55.705978" lon="26.096857">
<ele>161.658325</ele>
<time>2010-07-18T06:35:35Z</time>
<desc>lat.=55.705978, lon.=26.096857, Alt.=161.658325m. Speed=7.056000m/h.</desc>
<speed>1.960000</speed>
</trkpt>
<trkpt lat="55.705967" lon="26.096888">
<ele>161.990356</ele>
<time>2010-07-18T06:35:36Z</time>
<desc>lat.=55.705967, lon.=26.096888, Alt.=161.990356m. Speed=7.272000m/h.</desc>
<speed>2.020000</speed>
</trkpt>
<trkpt lat="55.705959" lon="26.096916">
<ele>162.177856</ele>
<time>2010-07-18T06:35:37Z</time>
<desc>lat.=55.705959, lon.=26.096916, Alt.=162.177856m. Speed=7.272000m/h.</desc>
<speed>2.020000</speed>
</trkpt>
<trkpt lat="55.705952" lon="26.096949">
<ele>162.295044</ele>
<time>2010-07-18T06:35:38Z</time>
<desc>lat.=55.705952, lon.=26.096949, Alt.=162.295044m. Speed=6.372000m/h.</desc>
<speed>1.770000</speed>
</trkpt>
<trkpt lat="55.705944" lon="26.096981">
<ele>162.490356</ele>
<time>2010-07-18T06:35:39Z</time>
<desc>lat.=55.705944, lon.=26.096981, Alt.=162.490356m. Speed=7.992000m/h.</desc>
<speed>2.220000</speed>
</trkpt>
<trkpt lat="55.705936" lon="26.097008">
<ele>162.724731</ele>
<time>2010-07-18T06:35:40Z</time>
<desc>lat.=55.705936, lon.=26.097008, Alt.=162.724731m. Speed=6.732000m/h.</desc>
<speed>1.870000</speed>
</trkpt>
<trkpt lat="55.705925" lon="26.097034">
<ele>162.923950</ele>
<time>2010-07-18T06:35:41Z</time>
<desc>lat.=55.705925, lon.=26.097034, Alt.=162.923950m. Speed=6.444000m/h.</desc>
<speed>1.790000</speed>
</trkpt>
<trkpt lat="55.705914" lon="26.097063">
<ele>163.197388</ele>
<time>2010-07-18T06:35:42Z</time>
<desc>lat.=55.705914, lon.=26.097063, Alt.=163.197388m. Speed=5.904000m/h.</desc>
<speed>1.640000</speed>
</trkpt>
<trkpt lat="55.705910" lon="26.097101">
<ele>163.295044</ele>
<time>2010-07-18T06:35:43Z</time>
<desc>lat.=55.705910, lon.=26.097101, Alt.=163.295044m. Speed=8.388000m/h.</desc>
<speed>2.330000</speed>
</trkpt>
<trkpt lat="55.705894" lon="26.097136">
<ele>163.580200</ele>
<time>2010-07-18T06:35:44Z</time>
<desc>lat.=55.705894, lon.=26.097136, Alt.=163.580200m. Speed=7.956000m/h.</desc>
<speed>2.210000</speed>
</trkpt>
<trkpt lat="55.705879" lon="26.097162">
<ele>163.681763</ele>
<time>2010-07-18T06:35:45Z</time>
<desc>lat.=55.705879, lon.=26.097162, Alt.=163.681763m. Speed=7.308000m/h.</desc>
<speed>2.030000</speed>
</trkpt>
<trkpt lat="55.705864" lon="26.097204">
<ele>163.935669</ele>
<time>2010-07-18T06:35:46Z</time>
<desc>lat.=55.705864, lon.=26.097204, Alt.=163.935669m. Speed=9.036000m/h.</desc>
<speed>2.510000</speed>
</trkpt>
<trkpt lat="55.705853" lon="26.097239">
<ele>164.213013</ele>
<time>2010-07-18T06:35:47Z</time>
<desc>lat.=55.705853, lon.=26.097239, Alt.=164.213013m. Speed=7.344000m/h.</desc>
<speed>2.040000</speed>
</trkpt>
<trkpt lat="55.705833" lon="26.097277">
<ele>164.357544</ele>
<time>2010-07-18T06:35:48Z</time>
<desc>lat.=55.705833, lon.=26.097277, Alt.=164.357544m. Speed=9.720000m/h.</desc>
<speed>2.700000</speed>
</trkpt>
<trkpt lat="55.705818" lon="26.097315">
<ele>164.548950</ele>
<time>2010-07-18T06:35:49Z</time>
<desc>lat.=55.705818, lon.=26.097315, Alt.=164.548950m. Speed=9.504000m/h.</desc>
<speed>2.640000</speed>
</trkpt>
<trkpt lat="55.705795" lon="26.097359">
<ele>164.822388</ele>
<time>2010-07-18T06:35:50Z</time>
<desc>lat.=55.705795, lon.=26.097359, Alt.=164.822388m. Speed=9.468000m/h.</desc>
<speed>2.630000</speed>
</trkpt>
<trkpt lat="55.705780" lon="26.097395">
<ele>165.130981</ele>
<time>2010-07-18T06:35:51Z</time>
<desc>lat.=55.705780, lon.=26.097395, Alt.=165.130981m. Speed=6.984000m/h.</desc>
<speed>1.940000</speed>
</trkpt>
<trkpt lat="55.705765" lon="26.097443">
<ele>165.541138</ele>
<time>2010-07-18T06:35:52Z</time>
<desc>lat.=55.705765, lon.=26.097443, Alt.=165.541138m. Speed=9.900000m/h.</desc>
<speed>2.750000</speed>
</trkpt>
<trkpt lat="55.705742" lon="26.097488">
<ele>165.935669</ele>
<time>2010-07-18T06:35:53Z</time>
<desc>lat.=55.705742, lon.=26.097488, Alt.=165.935669m. Speed=11.808000m/h.</desc>
<speed>3.280000</speed>
</trkpt>
<trkpt lat="55.705723" lon="26.097532">
<ele>166.263794</ele>
<time>2010-07-18T06:35:54Z</time>
<desc>lat.=55.705723, lon.=26.097532, Alt.=166.263794m. Speed=10.908000m/h.</desc>
<speed>3.030000</speed>
</trkpt>
<trkpt lat="55.705704" lon="26.097576">
<ele>166.560669</ele>
<time>2010-07-18T06:35:55Z</time>
<desc>lat.=55.705704, lon.=26.097576, Alt.=166.560669m. Speed=11.124000m/h.</desc>
<speed>3.090000</speed>
</trkpt>
<trkpt lat="55.705696" lon="26.097641">
<ele>166.884888</ele>
<time>2010-07-18T06:35:56Z</time>
<desc>lat.=55.705696, lon.=26.097641, Alt.=166.884888m. Speed=11.520000m/h.</desc>
<speed>3.200000</speed>
</trkpt>
<trkpt lat="55.705677" lon="26.097712">
<ele>166.478638</ele>
<time>2010-07-18T06:35:57Z</time>
<desc>lat.=55.705677, lon.=26.097712, Alt.=166.478638m. Speed=14.544000m/h.</desc>
<speed>4.040000</speed>
</trkpt>
<trkpt lat="55.705658" lon="26.097767">
<ele>166.642700</ele>
<time>2010-07-18T06:35:58Z</time>
<desc>lat.=55.705658, lon.=26.097767, Alt.=166.642700m. Speed=13.932000m/h.</desc>
<speed>3.870000</speed>
</trkpt>
<trkpt lat="55.705673" lon="26.097851">
<ele>166.377075</ele>
<time>2010-07-18T06:35:59Z</time>
<desc>lat.=55.705673, lon.=26.097851, Alt.=166.377075m. Speed=13.500000m/h.</desc>
<speed>3.750000</speed>
</trkpt>
<trkpt lat="55.705647" lon="26.097900">
<ele>166.517700</ele>
<time>2010-07-18T06:36:00Z</time>
<desc>lat.=55.705647, lon.=26.097900, Alt.=166.517700m. Speed=13.500000m/h.</desc>
<speed>3.750000</speed>
</trkpt>
<trkpt lat="55.705624" lon="26.097973">
<ele>166.498169</ele>
<time>2010-07-18T06:36:01Z</time>
<desc>lat.=55.705624, lon.=26.097973, Alt.=166.498169m. Speed=15.516000m/h.</desc>
<speed>4.310000</speed>
</trkpt>
<trkpt lat="55.705608" lon="26.098042">
<ele>166.588013</ele>
<time>2010-07-18T06:36:02Z</time>
<desc>lat.=55.705608, lon.=26.098042, Alt.=166.588013m. Speed=15.120000m/h.</desc>
<speed>4.200000</speed>
</trkpt>
<trkpt lat="55.705585" lon="26.098120">
<ele>166.302856</ele>
<time>2010-07-18T06:36:03Z</time>
<desc>lat.=55.705585, lon.=26.098120, Alt.=166.302856m. Speed=15.876000m/h.</desc>
<speed>4.410000</speed>
</trkpt>
<trkpt lat="55.705540" lon="26.098204">
<ele>166.466919</ele>
<time>2010-07-18T06:36:04Z</time>
<desc>lat.=55.705540, lon.=26.098204, Alt.=166.466919m. Speed=16.704000m/h.</desc>
<speed>4.640000</speed>
</trkpt>
<trkpt lat="55.705513" lon="26.098288">
<ele>166.037231</ele>
<time>2010-07-18T06:36:05Z</time>
<desc>lat.=55.705513, lon.=26.098288, Alt.=166.037231m. Speed=16.955999m/h.</desc>
<speed>4.710000</speed>
</trkpt>
<trkpt lat="55.705486" lon="26.098360">
<ele>165.361450</ele>
<time>2010-07-18T06:36:06Z</time>
<desc>lat.=55.705486, lon.=26.098360, Alt.=165.361450m. Speed=17.243999m/h.</desc>
<speed>4.790000</speed>
</trkpt>
<trkpt lat="55.705467" lon="26.098433">
<ele>164.759888</ele>
<time>2010-07-18T06:36:07Z</time>
<desc>lat.=55.705467, lon.=26.098433, Alt.=164.759888m. Speed=17.496000m/h.</desc>
<speed>4.860000</speed>
</trkpt>
<trkpt lat="55.705444" lon="26.098501">
<ele>164.947388</ele>
<time>2010-07-18T06:36:08Z</time>
<desc>lat.=55.705444, lon.=26.098501, Alt.=164.947388m. Speed=17.568001m/h.</desc>
<speed>4.880000</speed>
</trkpt>
<trkpt lat="55.705418" lon="26.098583">
<ele>164.392700</ele>
<time>2010-07-18T06:36:09Z</time>
<desc>lat.=55.705418, lon.=26.098583, Alt.=164.392700m. Speed=18.396000m/h.</desc>
<speed>5.110000</speed>
</trkpt>
<trkpt lat="55.705402" lon="26.098654">
<ele>163.994263</ele>
<time>2010-07-18T06:36:10Z</time>
<desc>lat.=55.705402, lon.=26.098654, Alt.=163.994263m. Speed=19.188000m/h.</desc>
<speed>5.330000</speed>
</trkpt>
<trkpt lat="55.705387" lon="26.098728">
<ele>163.158325</ele>
<time>2010-07-18T06:36:11Z</time>
<desc>lat.=55.705387, lon.=26.098728, Alt.=163.158325m. Speed=19.764000m/h.</desc>
<speed>5.490000</speed>
</trkpt>
<trkpt lat="55.705360" lon="26.098814">
<ele>162.525513</ele>
<time>2010-07-18T06:36:12Z</time>
<desc>lat.=55.705360, lon.=26.098814, Alt.=162.525513m. Speed=20.520000m/h.</desc>
<speed>5.700000</speed>
</trkpt>
<trkpt lat="55.705338" lon="26.098896">
<ele>161.927856</ele>
<time>2010-07-18T06:36:13Z</time>
<desc>lat.=55.705338, lon.=26.098896, Alt.=161.927856m. Speed=20.664000m/h.</desc>
<speed>5.740000</speed>
</trkpt>
<trkpt lat="55.705307" lon="26.098974">
<ele>161.947388</ele>
<time>2010-07-18T06:36:14Z</time>
<desc>lat.=55.705307, lon.=26.098974, Alt.=161.947388m. Speed=21.528000m/h.</desc>
<speed>5.980000</speed>
</trkpt>
<trkpt lat="55.705280" lon="26.099056">
<ele>162.275513</ele>
<time>2010-07-18T06:36:15Z</time>
<desc>lat.=55.705280, lon.=26.099056, Alt.=162.275513m. Speed=21.420000m/h.</desc>
<speed>5.950000</speed>
</trkpt>
<trkpt lat="55.705254" lon="26.099134">
<ele>162.463013</ele>
<time>2010-07-18T06:36:16Z</time>
<desc>lat.=55.705254, lon.=26.099134, Alt.=162.463013m. Speed=21.455999m/h.</desc>
<speed>5.960000</speed>
</trkpt>
<trkpt lat="55.705231" lon="26.099213">
<ele>162.435669</ele>
<time>2010-07-18T06:36:17Z</time>
<desc>lat.=55.705231, lon.=26.099213, Alt.=162.435669m. Speed=20.304001m/h.</desc>
<speed>5.640000</speed>
</trkpt>
<trkpt lat="55.705204" lon="26.099293">
<ele>162.611450</ele>
<time>2010-07-18T06:36:18Z</time>
<desc>lat.=55.705204, lon.=26.099293, Alt.=162.611450m. Speed=20.844000m/h.</desc>
<speed>5.790000</speed>
</trkpt>
<trkpt lat="55.705181" lon="26.099363">
<ele>162.771606</ele>
<time>2010-07-18T06:36:19Z</time>
<desc>lat.=55.705181, lon.=26.099363, Alt.=162.771606m. Speed=16.379999m/h.</desc>
<speed>4.550000</speed>
</trkpt>
<trkpt lat="55.705162" lon="26.099424">
<ele>162.689575</ele>
<time>2010-07-18T06:36:20Z</time>
<desc>lat.=55.705162, lon.=26.099424, Alt.=162.689575m. Speed=15.300000m/h.</desc>
<speed>4.250000</speed>
</trkpt>
<trkpt lat="55.705147" lon="26.099483">
<ele>162.498169</ele>
<time>2010-07-18T06:36:21Z</time>
<desc>lat.=55.705147, lon.=26.099483, Alt.=162.498169m. Speed=15.048000m/h.</desc>
<speed>4.180000</speed>
</trkpt>
<trkpt lat="55.705132" lon="26.099548">
<ele>162.752075</ele>
<time>2010-07-18T06:36:22Z</time>
<desc>lat.=55.705132, lon.=26.099548, Alt.=162.752075m. Speed=15.840000m/h.</desc>
<speed>4.400000</speed>
</trkpt>
<trkpt lat="55.705112" lon="26.099607">
<ele>162.943481</ele>
<time>2010-07-18T06:36:23Z</time>
<desc>lat.=55.705112, lon.=26.099607, Alt.=162.943481m. Speed=15.912000m/h.</desc>
<speed>4.420000</speed>
</trkpt>
<trkpt lat="55.705097" lon="26.099672">
<ele>162.826294</ele>
<time>2010-07-18T06:36:24Z</time>
<desc>lat.=55.705097, lon.=26.099672, Alt.=162.826294m. Speed=16.488001m/h.</desc>
<speed>4.580000</speed>
</trkpt>
<trkpt lat="55.705078" lon="26.099733">
<ele>162.677856</ele>
<time>2010-07-18T06:36:25Z</time>
<desc>lat.=55.705078, lon.=26.099733, Alt.=162.677856m. Speed=15.624000m/h.</desc>
<speed>4.340000</speed>
</trkpt>
<trkpt lat="55.705063" lon="26.099800">
<ele>162.607544</ele>
<time>2010-07-18T06:36:26Z</time>
<desc>lat.=55.705063, lon.=26.099800, Alt.=162.607544m. Speed=16.271999m/h.</desc>
<speed>4.520000</speed>
</trkpt>
<trkpt lat="55.705051" lon="26.099865">
<ele>162.533325</ele>
<time>2010-07-18T06:36:27Z</time>
<desc>lat.=55.705051, lon.=26.099865, Alt.=162.533325m. Speed=16.236000m/h.</desc>
<speed>4.510000</speed>
</trkpt>
<trkpt lat="55.705044" lon="26.099930">
<ele>162.713013</ele>
<time>2010-07-18T06:36:28Z</time>
<desc>lat.=55.705044, lon.=26.099930, Alt.=162.713013m. Speed=16.596001m/h.</desc>
<speed>4.610000</speed>
</trkpt>
<trkpt lat="55.705032" lon="26.099997">
<ele>162.724731</ele>
<time>2010-07-18T06:36:29Z</time>
<desc>lat.=55.705032, lon.=26.099997, Alt.=162.724731m. Speed=15.912000m/h.</desc>
<speed>4.420000</speed>
</trkpt>
<trkpt lat="55.705025" lon="26.100069">
<ele>162.564575</ele>
<time>2010-07-18T06:36:30Z</time>
<desc>lat.=55.705025, lon.=26.100069, Alt.=162.564575m. Speed=16.308001m/h.</desc>
<speed>4.530000</speed>
</trkpt>
<trkpt lat="55.705009" lon="26.100145">
<ele>162.123169</ele>
<time>2010-07-18T06:36:31Z</time>
<desc>lat.=55.705009, lon.=26.100145, Alt.=162.123169m. Speed=17.388000m/h.</desc>
<speed>4.830000</speed>
</trkpt>
<trkpt lat="55.704998" lon="26.100225">
<ele>161.884888</ele>
<time>2010-07-18T06:36:32Z</time>
<desc>lat.=55.704998, lon.=26.100225, Alt.=161.884888m. Speed=18.827999m/h.</desc>
<speed>5.230000</speed>
</trkpt>
<trkpt lat="55.704987" lon="26.100317">
<ele>161.740356</ele>
<time>2010-07-18T06:36:33Z</time>
<desc>lat.=55.704987, lon.=26.100317, Alt.=161.740356m. Speed=18.540001m/h.</desc>
<speed>5.150000</speed>
</trkpt>
<trkpt lat="55.704979" lon="26.100397">
<ele>161.748169</ele>
<time>2010-07-18T06:36:34Z</time>
<desc>lat.=55.704979, lon.=26.100397, Alt.=161.748169m. Speed=18.000000m/h.</desc>
<speed>5.000000</speed>
</trkpt>
<trkpt lat="55.704979" lon="26.100483">
<ele>161.693481</ele>
<time>2010-07-18T06:36:35Z</time>
<desc>lat.=55.704979, lon.=26.100483, Alt.=161.693481m. Speed=17.639999m/h.</desc>
<speed>4.900000</speed>
</trkpt>
<trkpt lat="55.704971" lon="26.100571">
<ele>161.248169</ele>
<time>2010-07-18T06:36:36Z</time>
<desc>lat.=55.704971, lon.=26.100571, Alt.=161.248169m. Speed=17.639999m/h.</desc>
<speed>4.900000</speed>
</trkpt>
<trkpt lat="55.704975" lon="26.100658">
<ele>161.478638</ele>
<time>2010-07-18T06:36:37Z</time>
<desc>lat.=55.704975, lon.=26.100658, Alt.=161.478638m. Speed=18.180000m/h.</desc>
<speed>5.050000</speed>
</trkpt>
<trkpt lat="55.704987" lon="26.100740">
<ele>161.591919</ele>
<time>2010-07-18T06:36:38Z</time>
<desc>lat.=55.704987, lon.=26.100740, Alt.=161.591919m. Speed=18.180000m/h.</desc>
<speed>5.050000</speed>
</trkpt>
<trkpt lat="55.704990" lon="26.100821">
<ele>161.513794</ele>
<time>2010-07-18T06:36:39Z</time>
<desc>lat.=55.704990, lon.=26.100821, Alt.=161.513794m. Speed=18.252001m/h.</desc>
<speed>5.070000</speed>
</trkpt>
<trkpt lat="55.704998" lon="26.100903">
<ele>161.646606</ele>
<time>2010-07-18T06:36:40Z</time>
<desc>lat.=55.704998, lon.=26.100903, Alt.=161.646606m. Speed=18.792000m/h.</desc>
<speed>5.220000</speed>
</trkpt>
<trkpt lat="55.705013" lon="26.100981">
<ele>161.607544</ele>
<time>2010-07-18T06:36:41Z</time>
<desc>lat.=55.705013, lon.=26.100981, Alt.=161.607544m. Speed=18.576000m/h.</desc>
<speed>5.160000</speed>
</trkpt>
<trkpt lat="55.705025" lon="26.101063">
<ele>161.470825</ele>
<time>2010-07-18T06:36:42Z</time>
<desc>lat.=55.705025, lon.=26.101063, Alt.=161.470825m. Speed=19.152000m/h.</desc>
<speed>5.320000</speed>
</trkpt>
<trkpt lat="55.705040" lon="26.101147">
<ele>161.431763</ele>
<time>2010-07-18T06:36:43Z</time>
<desc>lat.=55.705040, lon.=26.101147, Alt.=161.431763m. Speed=20.016001m/h.</desc>
<speed>5.560000</speed>
</trkpt>
<trkpt lat="55.705055" lon="26.101229">
<ele>161.412231</ele>
<time>2010-07-18T06:36:44Z</time>
<desc>lat.=55.705055, lon.=26.101229, Alt.=161.412231m. Speed=19.511999m/h.</desc>
<speed>5.420000</speed>
</trkpt>
<trkpt lat="55.705074" lon="26.101307">
<ele>161.326294</ele>
<time>2010-07-18T06:36:45Z</time>
<desc>lat.=55.705074, lon.=26.101307, Alt.=161.326294m. Speed=18.972000m/h.</desc>
<speed>5.270000</speed>
</trkpt>
<trkpt lat="55.705090" lon="26.101381">
<ele>161.341919</ele>
<time>2010-07-18T06:36:46Z</time>
<desc>lat.=55.705090, lon.=26.101381, Alt.=161.341919m. Speed=18.035999m/h.</desc>
<speed>5.010000</speed>
</trkpt>
<trkpt lat="55.705105" lon="26.101454">
<ele>161.341919</ele>
<time>2010-07-18T06:36:47Z</time>
<desc>lat.=55.705105, lon.=26.101454, Alt.=161.341919m. Speed=17.496000m/h.</desc>
<speed>4.860000</speed>
</trkpt>
<trkpt lat="55.705124" lon="26.101526">
<ele>161.189575</ele>
<time>2010-07-18T06:36:48Z</time>
<desc>lat.=55.705124, lon.=26.101526, Alt.=161.189575m. Speed=18.323999m/h.</desc>
<speed>5.090000</speed>
</trkpt>
<trkpt lat="55.705143" lon="26.101593">
<ele>161.271606</ele>
<time>2010-07-18T06:36:49Z</time>
<desc>lat.=55.705143, lon.=26.101593, Alt.=161.271606m. Speed=19.007999m/h.</desc>
<speed>5.280000</speed>
</trkpt>
<trkpt lat="55.705162" lon="26.101667">
<ele>161.306763</ele>
<time>2010-07-18T06:36:50Z</time>
<desc>lat.=55.705162, lon.=26.101667, Alt.=161.306763m. Speed=18.972000m/h.</desc>
<speed>5.270000</speed>
</trkpt>
<trkpt lat="55.705173" lon="26.101740">
<ele>161.162231</ele>
<time>2010-07-18T06:36:51Z</time>
<desc>lat.=55.705173, lon.=26.101740, Alt.=161.162231m. Speed=18.431999m/h.</desc>
<speed>5.120000</speed>
</trkpt>
<trkpt lat="55.705189" lon="26.101816">
<ele>161.119263</ele>
<time>2010-07-18T06:36:52Z</time>
<desc>lat.=55.705189, lon.=26.101816, Alt.=161.119263m. Speed=18.936001m/h.</desc>
<speed>5.260000</speed>
</trkpt>
<trkpt lat="55.705204" lon="26.101896">
<ele>161.080200</ele>
<time>2010-07-18T06:36:53Z</time>
<desc>lat.=55.705204, lon.=26.101896, Alt.=161.080200m. Speed=19.548000m/h.</desc>
<speed>5.430000</speed>
</trkpt>
<trkpt lat="55.705223" lon="26.101980">
<ele>160.951294</ele>
<time>2010-07-18T06:36:54Z</time>
<desc>lat.=55.705223, lon.=26.101980, Alt.=160.951294m. Speed=20.195999m/h.</desc>
<speed>5.610000</speed>
</trkpt>
<trkpt lat="55.705238" lon="26.102093">
<ele>160.548950</ele>
<time>2010-07-18T06:36:55Z</time>
<desc>lat.=55.705238, lon.=26.102093, Alt.=160.548950m. Speed=21.312000m/h.</desc>
<speed>5.920000</speed>
</trkpt>
<trkpt lat="55.705261" lon="26.102184">
<ele>160.275513</ele>
<time>2010-07-18T06:36:56Z</time>
<desc>lat.=55.705261, lon.=26.102184, Alt.=160.275513m. Speed=21.888000m/h.</desc>
<speed>6.080000</speed>
</trkpt>
<trkpt lat="55.705288" lon="26.102272">
<ele>159.869263</ele>
<time>2010-07-18T06:36:57Z</time>
<desc>lat.=55.705288, lon.=26.102272, Alt.=159.869263m. Speed=22.643999m/h.</desc>
<speed>6.290000</speed>
</trkpt>
<trkpt lat="55.705311" lon="26.102367">
<ele>159.373169</ele>
<time>2010-07-18T06:36:58Z</time>
<desc>lat.=55.705311, lon.=26.102367, Alt.=159.373169m. Speed=22.608000m/h.</desc>
<speed>6.280000</speed>
</trkpt>
<trkpt lat="55.705330" lon="26.102465">
<ele>159.166138</ele>
<time>2010-07-18T06:36:59Z</time>
<desc>lat.=55.705330, lon.=26.102465, Alt.=159.166138m. Speed=24.191999m/h.</desc>
<speed>6.720000</speed>
</trkpt>
<trkpt lat="55.705360" lon="26.102579">
<ele>158.463013</ele>
<time>2010-07-18T06:37:00Z</time>
<desc>lat.=55.705360, lon.=26.102579, Alt.=158.463013m. Speed=25.020000m/h.</desc>
<speed>6.950000</speed>
</trkpt>
<trkpt lat="55.705383" lon="26.102676">
<ele>158.291138</ele>
<time>2010-07-18T06:37:01Z</time>
<desc>lat.=55.705383, lon.=26.102676, Alt.=158.291138m. Speed=24.624001m/h.</desc>
<speed>6.840000</speed>
</trkpt>
<trkpt lat="55.705402" lon="26.102785">
<ele>157.763794</ele>
<time>2010-07-18T06:37:02Z</time>
<desc>lat.=55.705402, lon.=26.102785, Alt.=157.763794m. Speed=24.624001m/h.</desc>
<speed>6.840000</speed>
</trkpt>
<trkpt lat="55.705429" lon="26.102884">
<ele>157.408325</ele>
<time>2010-07-18T06:37:03Z</time>
<desc>lat.=55.705429, lon.=26.102884, Alt.=157.408325m. Speed=25.200001m/h.</desc>
<speed>7.000000</speed>
</trkpt>
<trkpt lat="55.705452" lon="26.102987">
<ele>156.763794</ele>
<time>2010-07-18T06:37:04Z</time>
<desc>lat.=55.705452, lon.=26.102987, Alt.=156.763794m. Speed=24.912001m/h.</desc>
<speed>6.920000</speed>
</trkpt>
<trkpt lat="55.705482" lon="26.103083">
<ele>156.060669</ele>
<time>2010-07-18T06:37:05Z</time>
<desc>lat.=55.705482, lon.=26.103083, Alt.=156.060669m. Speed=25.559999m/h.</desc>
<speed>7.100000</speed>
</trkpt>
<trkpt lat="55.705498" lon="26.103182">
<ele>155.658325</ele>
<time>2010-07-18T06:37:06Z</time>
<desc>lat.=55.705498, lon.=26.103182, Alt.=155.658325m. Speed=25.379999m/h.</desc>
<speed>7.050000</speed>
</trkpt>
<trkpt lat="55.705521" lon="26.103285">
<ele>155.236450</ele>
<time>2010-07-18T06:37:07Z</time>
<desc>lat.=55.705521, lon.=26.103285, Alt.=155.236450m. Speed=24.732000m/h.</desc>
<speed>6.870000</speed>
</trkpt>
<trkpt lat="55.705536" lon="26.103392">
<ele>154.740356</ele>
<time>2010-07-18T06:37:08Z</time>
<desc>lat.=55.705536, lon.=26.103392, Alt.=154.740356m. Speed=24.912001m/h.</desc>
<speed>6.920000</speed>
</trkpt>
<trkpt lat="55.705559" lon="26.103498">
<ele>154.216919</ele>
<time>2010-07-18T06:37:09Z</time>
<desc>lat.=55.705559, lon.=26.103498, Alt.=154.216919m. Speed=24.912001m/h.</desc>
<speed>6.920000</speed>
</trkpt>
<trkpt lat="55.705578" lon="26.103598">
<ele>153.791138</ele>
<time>2010-07-18T06:37:10Z</time>
<desc>lat.=55.705578, lon.=26.103598, Alt.=153.791138m. Speed=23.652000m/h.</desc>
<speed>6.570000</speed>
</trkpt>
<trkpt lat="55.705601" lon="26.103695">
<ele>153.490356</ele>
<time>2010-07-18T06:37:11Z</time>
<desc>lat.=55.705601, lon.=26.103695, Alt.=153.490356m. Speed=22.464001m/h.</desc>
<speed>6.240000</speed>
</trkpt>
<trkpt lat="55.705616" lon="26.103792">
<ele>153.244263</ele>
<time>2010-07-18T06:37:12Z</time>
<desc>lat.=55.705616, lon.=26.103792, Alt.=153.244263m. Speed=21.743999m/h.</desc>
<speed>6.040000</speed>
</trkpt>
<trkpt lat="55.705627" lon="26.103880">
<ele>153.248169</ele>
<time>2010-07-18T06:37:13Z</time>
<desc>lat.=55.705627, lon.=26.103880, Alt.=153.248169m. Speed=20.736000m/h.</desc>
<speed>5.760000</speed>
</trkpt>
<trkpt lat="55.705639" lon="26.103968">
<ele>153.033325</ele>
<time>2010-07-18T06:37:14Z</time>
<desc>lat.=55.705639, lon.=26.103968, Alt.=153.033325m. Speed=19.728001m/h.</desc>
<speed>5.480000</speed>
</trkpt>
<trkpt lat="55.705654" lon="26.104050">
<ele>152.775513</ele>
<time>2010-07-18T06:37:15Z</time>
<desc>lat.=55.705654, lon.=26.104050, Alt.=152.775513m. Speed=18.648001m/h.</desc>
<speed>5.180000</speed>
</trkpt>
<trkpt lat="55.705681" lon="26.104122">
<ele>153.177856</ele>
<time>2010-07-18T06:37:16Z</time>
<desc>lat.=55.705681, lon.=26.104122, Alt.=153.177856m. Speed=18.143999m/h.</desc>
<speed>5.040000</speed>
</trkpt>
<trkpt lat="55.705692" lon="26.104200">
<ele>153.228638</ele>
<time>2010-07-18T06:37:17Z</time>
<desc>lat.=55.705692, lon.=26.104200, Alt.=153.228638m. Speed=19.152000m/h.</desc>
<speed>5.320000</speed>
</trkpt>
<trkpt lat="55.705704" lon="26.104280">
<ele>153.025513</ele>
<time>2010-07-18T06:37:18Z</time>
<desc>lat.=55.705704, lon.=26.104280, Alt.=153.025513m. Speed=18.612000m/h.</desc>
<speed>5.170000</speed>
</trkpt>
<trkpt lat="55.705715" lon="26.104364">
<ele>152.947388</ele>
<time>2010-07-18T06:37:19Z</time>
<desc>lat.=55.705715, lon.=26.104364, Alt.=152.947388m. Speed=19.403999m/h.</desc>
<speed>5.390000</speed>
</trkpt>
<trkpt lat="55.705738" lon="26.104448">
<ele>152.912231</ele>
<time>2010-07-18T06:37:20Z</time>
<desc>lat.=55.705738, lon.=26.104448, Alt.=152.912231m. Speed=19.007999m/h.</desc>
<speed>5.280000</speed>
</trkpt>
<trkpt lat="55.705765" lon="26.104536">
<ele>152.927856</ele>
<time>2010-07-18T06:37:21Z</time>
<desc>lat.=55.705765, lon.=26.104536, Alt.=152.927856m. Speed=19.044001m/h.</desc>
<speed>5.290000</speed>
</trkpt>
<trkpt lat="55.705784" lon="26.104616">
<ele>153.107544</ele>
<time>2010-07-18T06:37:22Z</time>
<desc>lat.=55.705784, lon.=26.104616, Alt.=153.107544m. Speed=18.143999m/h.</desc>
<speed>5.040000</speed>
</trkpt>
<trkpt lat="55.705799" lon="26.104696">
<ele>152.943481</ele>
<time>2010-07-18T06:37:23Z</time>
<desc>lat.=55.705799, lon.=26.104696, Alt.=152.943481m. Speed=18.431999m/h.</desc>
<speed>5.120000</speed>
</trkpt>
<trkpt lat="55.705822" lon="26.104776">
<ele>153.099731</ele>
<time>2010-07-18T06:37:24Z</time>
<desc>lat.=55.705822, lon.=26.104776, Alt.=153.099731m. Speed=19.080000m/h.</desc>
<speed>5.300000</speed>
</trkpt>
<trkpt lat="55.705837" lon="26.104849">
<ele>153.314575</ele>
<time>2010-07-18T06:37:25Z</time>
<desc>lat.=55.705837, lon.=26.104849, Alt.=153.314575m. Speed=18.719999m/h.</desc>
<speed>5.200000</speed>
</trkpt>
<trkpt lat="55.705860" lon="26.104931">
<ele>152.904419</ele>
<time>2010-07-18T06:37:26Z</time>
<desc>lat.=55.705860, lon.=26.104931, Alt.=152.904419m. Speed=18.468000m/h.</desc>
<speed>5.130000</speed>
</trkpt>
<trkpt lat="55.705879" lon="26.105007">
<ele>153.170044</ele>
<time>2010-07-18T06:37:27Z</time>
<desc>lat.=55.705879, lon.=26.105007, Alt.=153.170044m. Speed=18.143999m/h.</desc>
<speed>5.040000</speed>
</trkpt>
<trkpt lat="55.705887" lon="26.105080">
<ele>153.189575</ele>
<time>2010-07-18T06:37:28Z</time>
<desc>lat.=55.705887, lon.=26.105080, Alt.=153.189575m. Speed=17.280001m/h.</desc>
<speed>4.800000</speed>
</trkpt>
<trkpt lat="55.705902" lon="26.105152">
<ele>153.279419</ele>
<time>2010-07-18T06:37:29Z</time>
<desc>lat.=55.705902, lon.=26.105152, Alt.=153.279419m. Speed=17.388000m/h.</desc>
<speed>4.830000</speed>
</trkpt>
<trkpt lat="55.705917" lon="26.105213">
<ele>153.478638</ele>
<time>2010-07-18T06:37:30Z</time>
<desc>lat.=55.705917, lon.=26.105213, Alt.=153.478638m. Speed=17.063999m/h.</desc>
<speed>4.740000</speed>
</trkpt>
<trkpt lat="55.705940" lon="26.105284">
<ele>153.275513</ele>
<time>2010-07-18T06:37:31Z</time>
<desc>lat.=55.705940, lon.=26.105284, Alt.=153.275513m. Speed=17.747999m/h.</desc>
<speed>4.930000</speed>
</trkpt>
<trkpt lat="55.705956" lon="26.105349">
<ele>152.888794</ele>
<time>2010-07-18T06:37:32Z</time>
<desc>lat.=55.705956, lon.=26.105349, Alt.=152.888794m. Speed=17.712000m/h.</desc>
<speed>4.920000</speed>
</trkpt>
<trkpt lat="55.705971" lon="26.105425">
<ele>152.584106</ele>
<time>2010-07-18T06:37:33Z</time>
<desc>lat.=55.705971, lon.=26.105425, Alt.=152.584106m. Speed=19.368000m/h.</desc>
<speed>5.380000</speed>
</trkpt>
<trkpt lat="55.705994" lon="26.105507">
<ele>152.103638</ele>
<time>2010-07-18T06:37:34Z</time>
<desc>lat.=55.705994, lon.=26.105507, Alt.=152.103638m. Speed=19.080000m/h.</desc>
<speed>5.300000</speed>
</trkpt>
<trkpt lat="55.706013" lon="26.105577">
<ele>152.103638</ele>
<time>2010-07-18T06:37:35Z</time>
<desc>lat.=55.706013, lon.=26.105577, Alt.=152.103638m. Speed=17.388000m/h.</desc>
<speed>4.830000</speed>
</trkpt>
<trkpt lat="55.706032" lon="26.105646">
<ele>151.939575</ele>
<time>2010-07-18T06:37:36Z</time>
<desc>lat.=55.706032, lon.=26.105646, Alt.=151.939575m. Speed=16.848000m/h.</desc>
<speed>4.680000</speed>
</trkpt>
<trkpt lat="55.706051" lon="26.105715">
<ele>152.002075</ele>
<time>2010-07-18T06:37:37Z</time>
<desc>lat.=55.706051, lon.=26.105715, Alt.=152.002075m. Speed=17.532000m/h.</desc>
<speed>4.870000</speed>
</trkpt>
<trkpt lat="55.706070" lon="26.105787">
<ele>151.736450</ele>
<time>2010-07-18T06:37:38Z</time>
<desc>lat.=55.706070, lon.=26.105787, Alt.=151.736450m. Speed=17.568001m/h.</desc>
<speed>4.880000</speed>
</trkpt>
<trkpt lat="55.706089" lon="26.105862">
<ele>151.466919</ele>
<time>2010-07-18T06:37:39Z</time>
<desc>lat.=55.706089, lon.=26.105862, Alt.=151.466919m. Speed=17.820000m/h.</desc>
<speed>4.950000</speed>
</trkpt>
<trkpt lat="55.706100" lon="26.105940">
<ele>150.841919</ele>
<time>2010-07-18T06:37:40Z</time>
<desc>lat.=55.706100, lon.=26.105940, Alt.=150.841919m. Speed=17.712000m/h.</desc>
<speed>4.920000</speed>
</trkpt>
<trkpt lat="55.706100" lon="26.106031">
<ele>150.908325</ele>
<time>2010-07-18T06:37:41Z</time>
<desc>lat.=55.706100, lon.=26.106031, Alt.=150.908325m. Speed=17.784000m/h.</desc>
<speed>4.940000</speed>
</trkpt>
<trkpt lat="55.706104" lon="26.106110">
<ele>150.869263</ele>
<time>2010-07-18T06:37:42Z</time>
<desc>lat.=55.706104, lon.=26.106110, Alt.=150.869263m. Speed=17.028000m/h.</desc>
<speed>4.730000</speed>
</trkpt>
<trkpt lat="55.706116" lon="26.106188">
<ele>151.201294</ele>
<time>2010-07-18T06:37:43Z</time>
<desc>lat.=55.706116, lon.=26.106188, Alt.=151.201294m. Speed=17.568001m/h.</desc>
<speed>4.880000</speed>
</trkpt>
<trkpt lat="55.706123" lon="26.106255">
<ele>151.744263</ele>
<time>2010-07-18T06:37:44Z</time>
<desc>lat.=55.706123, lon.=26.106255, Alt.=151.744263m. Speed=15.624000m/h.</desc>
<speed>4.340000</speed>
</trkpt>
<trkpt lat="55.706139" lon="26.106323">
<ele>152.002075</ele>
<time>2010-07-18T06:37:45Z</time>
<desc>lat.=55.706139, lon.=26.106323, Alt.=152.002075m. Speed=14.220000m/h.</desc>
<speed>3.950000</speed>
</trkpt>
<trkpt lat="55.706150" lon="26.106386">
<ele>152.220825</ele>
<time>2010-07-18T06:37:46Z</time>
<desc>lat.=55.706150, lon.=26.106386, Alt.=152.220825m. Speed=12.780000m/h.</desc>
<speed>3.550000</speed>
</trkpt>
<trkpt lat="55.706158" lon="26.106436">
<ele>152.615356</ele>
<time>2010-07-18T06:37:47Z</time>
<desc>lat.=55.706158, lon.=26.106436, Alt.=152.615356m. Speed=10.872000m/h.</desc>
<speed>3.020000</speed>
</trkpt>
<trkpt lat="55.706165" lon="26.106483">
<ele>152.748169</ele>
<time>2010-07-18T06:37:48Z</time>
<desc>lat.=55.706165, lon.=26.106483, Alt.=152.748169m. Speed=9.756000m/h.</desc>
<speed>2.710000</speed>
</trkpt>
<trkpt lat="55.706173" lon="26.106533">
<ele>153.314575</ele>
<time>2010-07-18T06:37:49Z</time>
<desc>lat.=55.706173, lon.=26.106533, Alt.=153.314575m. Speed=11.196000m/h.</desc>
<speed>3.110000</speed>
</trkpt>
<trkpt lat="55.706181" lon="26.106579">
<ele>154.228638</ele>
<time>2010-07-18T06:37:50Z</time>
<desc>lat.=55.706181, lon.=26.106579, Alt.=154.228638m. Speed=8.712000m/h.</desc>
<speed>2.420000</speed>
</trkpt>
<trkpt lat="55.706184" lon="26.106621">
<ele>154.697388</ele>
<time>2010-07-18T06:37:51Z</time>
<desc>lat.=55.706184, lon.=26.106621, Alt.=154.697388m. Speed=8.280000m/h.</desc>
<speed>2.300000</speed>
</trkpt>
<trkpt lat="55.706192" lon="26.106659">
<ele>154.908325</ele>
<time>2010-07-18T06:37:52Z</time>
<desc>lat.=55.706192, lon.=26.106659, Alt.=154.908325m. Speed=8.424000m/h.</desc>
<speed>2.340000</speed>
</trkpt>
<trkpt lat="55.706196" lon="26.106697">
<ele>155.275513</ele>
<time>2010-07-18T06:37:53Z</time>
<desc>lat.=55.706196, lon.=26.106697, Alt.=155.275513m. Speed=8.424000m/h.</desc>
<speed>2.340000</speed>
</trkpt>
<trkpt lat="55.706203" lon="26.106728">
<ele>155.791138</ele>
<time>2010-07-18T06:37:54Z</time>
<desc>lat.=55.706203, lon.=26.106728, Alt.=155.791138m. Speed=7.200000m/h.</desc>
<speed>2.000000</speed>
</trkpt>
<trkpt lat="55.706211" lon="26.106764">
<ele>156.255981</ele>
<time>2010-07-18T06:37:55Z</time>
<desc>lat.=55.706211, lon.=26.106764, Alt.=156.255981m. Speed=8.028000m/h.</desc>
<speed>2.230000</speed>
</trkpt>
<trkpt lat="55.706215" lon="26.106810">
<ele>156.505981</ele>
<time>2010-07-18T06:37:56Z</time>
<desc>lat.=55.706215, lon.=26.106810, Alt.=156.505981m. Speed=8.820000m/h.</desc>
<speed>2.450000</speed>
</trkpt>
<trkpt lat="55.706223" lon="26.106855">
<ele>156.892700</ele>
<time>2010-07-18T06:37:57Z</time>
<desc>lat.=55.706223, lon.=26.106855, Alt.=156.892700m. Speed=8.892000m/h.</desc>
<speed>2.470000</speed>
</trkpt>
<trkpt lat="55.706234" lon="26.106907">
<ele>157.111450</ele>
<time>2010-07-18T06:37:58Z</time>
<desc>lat.=55.706234, lon.=26.106907, Alt.=157.111450m. Speed=11.124000m/h.</desc>
<speed>3.090000</speed>
</trkpt>
<trkpt lat="55.706242" lon="26.106960">
<ele>157.451294</ele>
<time>2010-07-18T06:37:59Z</time>
<desc>lat.=55.706242, lon.=26.106960, Alt.=157.451294m. Speed=9.972000m/h.</desc>
<speed>2.770000</speed>
</trkpt>
<trkpt lat="55.706242" lon="26.107012">
<ele>157.623169</ele>
<time>2010-07-18T06:38:00Z</time>
<desc>lat.=55.706242, lon.=26.107012, Alt.=157.623169m. Speed=10.728000m/h.</desc>
<speed>2.980000</speed>
</trkpt>
<trkpt lat="55.706242" lon="26.107071">
<ele>158.013794</ele>
<time>2010-07-18T06:38:01Z</time>
<desc>lat.=55.706242, lon.=26.107071, Alt.=158.013794m. Speed=11.160000m/h.</desc>
<speed>3.100000</speed>
</trkpt>
<trkpt lat="55.706249" lon="26.107126">
<ele>158.056763</ele>
<time>2010-07-18T06:38:02Z</time>
<desc>lat.=55.706249, lon.=26.107126, Alt.=158.056763m. Speed=10.044000m/h.</desc>
<speed>2.790000</speed>
</trkpt>
<trkpt lat="55.706257" lon="26.107189">
<ele>158.521606</ele>
<time>2010-07-18T06:38:03Z</time>
<desc>lat.=55.706257, lon.=26.107189, Alt.=158.521606m. Speed=11.412000m/h.</desc>
<speed>3.170000</speed>
</trkpt>
<trkpt lat="55.706264" lon="26.107258">
<ele>158.795044</ele>
<time>2010-07-18T06:38:04Z</time>
<desc>lat.=55.706264, lon.=26.107258, Alt.=158.795044m. Speed=11.808000m/h.</desc>
<speed>3.280000</speed>
</trkpt>
<trkpt lat="55.706268" lon="26.107330">
<ele>159.322388</ele>
<time>2010-07-18T06:38:05Z</time>
<desc>lat.=55.706268, lon.=26.107330, Alt.=159.322388m. Speed=15.084000m/h.</desc>
<speed>4.190000</speed>
</trkpt>
<trkpt lat="55.706276" lon="26.107401">
<ele>159.369263</ele>
<time>2010-07-18T06:38:06Z</time>
<desc>lat.=55.706276, lon.=26.107401, Alt.=159.369263m. Speed=12.744000m/h.</desc>
<speed>3.540000</speed>
</trkpt>
<trkpt lat="55.706284" lon="26.107466">
<ele>159.455200</ele>
<time>2010-07-18T06:38:07Z</time>
<desc>lat.=55.706284, lon.=26.107466, Alt.=159.455200m. Speed=12.456000m/h.</desc>
<speed>3.460000</speed>
</trkpt>
<trkpt lat="55.706299" lon="26.107531">
<ele>159.271606</ele>
<time>2010-07-18T06:38:08Z</time>
<desc>lat.=55.706299, lon.=26.107531, Alt.=159.271606m. Speed=13.248000m/h.</desc>
<speed>3.680000</speed>
</trkpt>
<trkpt lat="55.706322" lon="26.107626">
<ele>158.841919</ele>
<time>2010-07-18T06:38:09Z</time>
<desc>lat.=55.706322, lon.=26.107626, Alt.=158.841919m. Speed=13.644000m/h.</desc>
<speed>3.790000</speed>
</trkpt>
<trkpt lat="55.706341" lon="26.107695">
<ele>158.802856</ele>
<time>2010-07-18T06:38:10Z</time>
<desc>lat.=55.706341, lon.=26.107695, Alt.=158.802856m. Speed=14.184000m/h.</desc>
<speed>3.940000</speed>
</trkpt>
<trkpt lat="55.706356" lon="26.107767">
<ele>158.482544</ele>
<time>2010-07-18T06:38:11Z</time>
<desc>lat.=55.706356, lon.=26.107767, Alt.=158.482544m. Speed=16.559999m/h.</desc>
<speed>4.600000</speed>
</trkpt>
<trkpt lat="55.706375" lon="26.107841">
<ele>158.564575</ele>
<time>2010-07-18T06:38:12Z</time>
<desc>lat.=55.706375, lon.=26.107841, Alt.=158.564575m. Speed=17.063999m/h.</desc>
<speed>4.740000</speed>
</trkpt>
<trkpt lat="55.706387" lon="26.107912">
<ele>158.435669</ele>
<time>2010-07-18T06:38:13Z</time>
<desc>lat.=55.706387, lon.=26.107912, Alt.=158.435669m. Speed=16.128000m/h.</desc>
<speed>4.480000</speed>
</trkpt>
<trkpt lat="55.706402" lon="26.107981">
<ele>158.017700</ele>
<time>2010-07-18T06:38:14Z</time>
<desc>lat.=55.706402, lon.=26.107981, Alt.=158.017700m. Speed=16.091999m/h.</desc>
<speed>4.470000</speed>
</trkpt>
<trkpt lat="55.706409" lon="26.108063">
<ele>157.513794</ele>
<time>2010-07-18T06:38:15Z</time>
<desc>lat.=55.706409, lon.=26.108063, Alt.=157.513794m. Speed=15.660000m/h.</desc>
<speed>4.350000</speed>
</trkpt>
<trkpt lat="55.706417" lon="26.108130">
<ele>157.248169</ele>
<time>2010-07-18T06:38:16Z</time>
<desc>lat.=55.706417, lon.=26.108130, Alt.=157.248169m. Speed=15.732000m/h.</desc>
<speed>4.370000</speed>
</trkpt>
<trkpt lat="55.706425" lon="26.108198">
<ele>157.838013</ele>
<time>2010-07-18T06:38:17Z</time>
<desc>lat.=55.706425, lon.=26.108198, Alt.=157.838013m. Speed=14.652000m/h.</desc>
<speed>4.070000</speed>
</trkpt>
<trkpt lat="55.706440" lon="26.108271">
<ele>158.435669</ele>
<time>2010-07-18T06:38:18Z</time>
<desc>lat.=55.706440, lon.=26.108271, Alt.=158.435669m. Speed=13.788000m/h.</desc>
<speed>3.830000</speed>
</trkpt>
<trkpt lat="55.706455" lon="26.108337">
<ele>158.478638</ele>
<time>2010-07-18T06:38:19Z</time>
<desc>lat.=55.706455, lon.=26.108337, Alt.=158.478638m. Speed=13.428000m/h.</desc>
<speed>3.730000</speed>
</trkpt>
<trkpt lat="55.706470" lon="26.108404">
<ele>158.341919</ele>
<time>2010-07-18T06:38:20Z</time>
<desc>lat.=55.706470, lon.=26.108404, Alt.=158.341919m. Speed=13.500000m/h.</desc>
<speed>3.750000</speed>
</trkpt>
<trkpt lat="55.706478" lon="26.108458">
<ele>158.486450</ele>
<time>2010-07-18T06:38:21Z</time>
<desc>lat.=55.706478, lon.=26.108458, Alt.=158.486450m. Speed=10.980000m/h.</desc>
<speed>3.050000</speed>
</trkpt>
<trkpt lat="55.706474" lon="26.108505">
<ele>159.158325</ele>
<time>2010-07-18T06:38:22Z</time>
<desc>lat.=55.706474, lon.=26.108505, Alt.=159.158325m. Speed=13.032000m/h.</desc>
<speed>3.620000</speed>
</trkpt>
<trkpt lat="55.706470" lon="26.108564">
<ele>159.259888</ele>
<time>2010-07-18T06:38:23Z</time>
<desc>lat.=55.706470, lon.=26.108564, Alt.=159.259888m. Speed=14.940000m/h.</desc>
<speed>4.150000</speed>
</trkpt>
<trkpt lat="55.706470" lon="26.108631">
<ele>158.447388</ele>
<time>2010-07-18T06:38:24Z</time>
<desc>lat.=55.706470, lon.=26.108631, Alt.=158.447388m. Speed=14.796000m/h.</desc>
<speed>4.110000</speed>
</trkpt>
<trkpt lat="55.706463" lon="26.108700">
<ele>158.892700</ele>
<time>2010-07-18T06:38:25Z</time>
<desc>lat.=55.706463, lon.=26.108700, Alt.=158.892700m. Speed=16.164000m/h.</desc>
<speed>4.490000</speed>
</trkpt>
<trkpt lat="55.706455" lon="26.108778">
<ele>159.013794</ele>
<time>2010-07-18T06:38:26Z</time>
<desc>lat.=55.706455, lon.=26.108778, Alt.=159.013794m. Speed=16.812000m/h.</desc>
<speed>4.670000</speed>
</trkpt>
<trkpt lat="55.706444" lon="26.108860">
<ele>158.341919</ele>
<time>2010-07-18T06:38:27Z</time>
<desc>lat.=55.706444, lon.=26.108860, Alt.=158.341919m. Speed=16.775999m/h.</desc>
<speed>4.660000</speed>
</trkpt>
<trkpt lat="55.706432" lon="26.108946">
<ele>156.963013</ele>
<time>2010-07-18T06:38:28Z</time>
<desc>lat.=55.706432, lon.=26.108946, Alt.=156.963013m. Speed=17.136000m/h.</desc>
<speed>4.760000</speed>
</trkpt>
<trkpt lat="55.706417" lon="26.109026">
<ele>156.322388</ele>
<time>2010-07-18T06:38:29Z</time>
<desc>lat.=55.706417, lon.=26.109026, Alt.=156.322388m. Speed=16.992001m/h.</desc>
<speed>4.720000</speed>
</trkpt>
<trkpt lat="55.706406" lon="26.109098">
<ele>156.982544</ele>
<time>2010-07-18T06:38:30Z</time>
<desc>lat.=55.706406, lon.=26.109098, Alt.=156.982544m. Speed=16.488001m/h.</desc>
<speed>4.580000</speed>
</trkpt>
<trkpt lat="55.706394" lon="26.109171">
<ele>157.826294</ele>
<time>2010-07-18T06:38:31Z</time>
<desc>lat.=55.706394, lon.=26.109171, Alt.=157.826294m. Speed=16.308001m/h.</desc>
<speed>4.530000</speed>
</trkpt>
<trkpt lat="55.706394" lon="26.109255">
<ele>157.502075</ele>
<time>2010-07-18T06:38:32Z</time>
<desc>lat.=55.706394, lon.=26.109255, Alt.=157.502075m. Speed=17.604000m/h.</desc>
<speed>4.890000</speed>
</trkpt>
<trkpt lat="55.706383" lon="26.109344">
<ele>157.334106</ele>
<time>2010-07-18T06:38:33Z</time>
<desc>lat.=55.706383, lon.=26.109344, Alt.=157.334106m. Speed=18.000000m/h.</desc>
<speed>5.000000</speed>
</trkpt>
<trkpt lat="55.706375" lon="26.109425">
<ele>157.146606</ele>
<time>2010-07-18T06:38:34Z</time>
<desc>lat.=55.706375, lon.=26.109425, Alt.=157.146606m. Speed=18.648001m/h.</desc>
<speed>5.180000</speed>
</trkpt>
<trkpt lat="55.706360" lon="26.109505">
<ele>157.095825</ele>
<time>2010-07-18T06:38:35Z</time>
<desc>lat.=55.706360, lon.=26.109505, Alt.=157.095825m. Speed=18.323999m/h.</desc>
<speed>5.090000</speed>
</trkpt>
<trkpt lat="55.706341" lon="26.109589">
<ele>157.056763</ele>
<time>2010-07-18T06:38:36Z</time>
<desc>lat.=55.706341, lon.=26.109589, Alt.=157.056763m. Speed=21.312000m/h.</desc>
<speed>5.920000</speed>
</trkpt>
<trkpt lat="55.706322" lon="26.109686">
<ele>157.228638</ele>
<time>2010-07-18T06:38:37Z</time>
<desc>lat.=55.706322, lon.=26.109686, Alt.=157.228638m. Speed=20.988001m/h.</desc>
<speed>5.830000</speed>
</trkpt>
<trkpt lat="55.706306" lon="26.109772">
<ele>157.365356</ele>
<time>2010-07-18T06:38:38Z</time>
<desc>lat.=55.706306, lon.=26.109772, Alt.=157.365356m. Speed=20.879999m/h.</desc>
<speed>5.800000</speed>
</trkpt>
<trkpt lat="55.706295" lon="26.109858">
<ele>157.119263</ele>
<time>2010-07-18T06:38:39Z</time>
<desc>lat.=55.706295, lon.=26.109858, Alt.=157.119263m. Speed=19.728001m/h.</desc>
<speed>5.480000</speed>
</trkpt>
<trkpt lat="55.706280" lon="26.109943">
<ele>157.334106</ele>
<time>2010-07-18T06:38:40Z</time>
<desc>lat.=55.706280, lon.=26.109943, Alt.=157.334106m. Speed=18.827999m/h.</desc>
<speed>5.230000</speed>
</trkpt>
<trkpt lat="55.706261" lon="26.110029">
<ele>157.627075</ele>
<time>2010-07-18T06:38:41Z</time>
<desc>lat.=55.706261, lon.=26.110029, Alt.=157.627075m. Speed=17.496000m/h.</desc>
<speed>4.860000</speed>
</trkpt>
<trkpt lat="55.706249" lon="26.110102">
<ele>157.748169</ele>
<time>2010-07-18T06:38:42Z</time>
<desc>lat.=55.706249, lon.=26.110102, Alt.=157.748169m. Speed=16.848000m/h.</desc>
<speed>4.680000</speed>
</trkpt>
<trkpt lat="55.706238" lon="26.110174">
<ele>157.236450</ele>
<time>2010-07-18T06:38:43Z</time>
<desc>lat.=55.706238, lon.=26.110174, Alt.=157.236450m. Speed=15.804000m/h.</desc>
<speed>4.390000</speed>
</trkpt>
<trkpt lat="55.706226" lon="26.110241">
<ele>157.630981</ele>
<time>2010-07-18T06:38:44Z</time>
<desc>lat.=55.706226, lon.=26.110241, Alt.=157.630981m. Speed=14.940000m/h.</desc>
<speed>4.150000</speed>
</trkpt>
<trkpt lat="55.706215" lon="26.110310">
<ele>158.029419</ele>
<time>2010-07-18T06:38:45Z</time>
<desc>lat.=55.706215, lon.=26.110310, Alt.=158.029419m. Speed=16.091999m/h.</desc>
<speed>4.470000</speed>
</trkpt>
<trkpt lat="55.706203" lon="26.110378">
<ele>158.279419</ele>
<time>2010-07-18T06:38:46Z</time>
<desc>lat.=55.706203, lon.=26.110378, Alt.=158.279419m. Speed=15.696000m/h.</desc>
<speed>4.360000</speed>
</trkpt>
<trkpt lat="55.706196" lon="26.110449">
<ele>158.060669</ele>
<time>2010-07-18T06:38:47Z</time>
<desc>lat.=55.706196, lon.=26.110449, Alt.=158.060669m. Speed=15.516000m/h.</desc>
<speed>4.310000</speed>
</trkpt>
<trkpt lat="55.706184" lon="26.110521">
<ele>157.634888</ele>
<time>2010-07-18T06:38:48Z</time>
<desc>lat.=55.706184, lon.=26.110521, Alt.=157.634888m. Speed=14.904000m/h.</desc>
<speed>4.140000</speed>
</trkpt>
<trkpt lat="55.706177" lon="26.110586">
<ele>157.728638</ele>
<time>2010-07-18T06:38:49Z</time>
<desc>lat.=55.706177, lon.=26.110586, Alt.=157.728638m. Speed=14.688000m/h.</desc>
<speed>4.080000</speed>
</trkpt>
<trkpt lat="55.706169" lon="26.110645">
<ele>157.697388</ele>
<time>2010-07-18T06:38:50Z</time>
<desc>lat.=55.706169, lon.=26.110645, Alt.=157.697388m. Speed=13.716000m/h.</desc>
<speed>3.810000</speed>
</trkpt>
<trkpt lat="55.706158" lon="26.110706">
<ele>157.861450</ele>
<time>2010-07-18T06:38:51Z</time>
<desc>lat.=55.706158, lon.=26.110706, Alt.=157.861450m. Speed=14.328000m/h.</desc>
<speed>3.980000</speed>
</trkpt>
<trkpt lat="55.706146" lon="26.110769">
<ele>158.154419</ele>
<time>2010-07-18T06:38:52Z</time>
<desc>lat.=55.706146, lon.=26.110769, Alt.=158.154419m. Speed=15.588000m/h.</desc>
<speed>4.330000</speed>
</trkpt>
<trkpt lat="55.706131" lon="26.110838">
<ele>158.158325</ele>
<time>2010-07-18T06:38:53Z</time>
<desc>lat.=55.706131, lon.=26.110838, Alt.=158.158325m. Speed=16.020000m/h.</desc>
<speed>4.450000</speed>
</trkpt>
<trkpt lat="55.706120" lon="26.110905">
<ele>158.888794</ele>
<time>2010-07-18T06:38:54Z</time>
<desc>lat.=55.706120, lon.=26.110905, Alt.=158.888794m. Speed=16.164000m/h.</desc>
<speed>4.490000</speed>
</trkpt>
<trkpt lat="55.706108" lon="26.110975">
<ele>158.599731</ele>
<time>2010-07-18T06:38:55Z</time>
<desc>lat.=55.706108, lon.=26.110975, Alt.=158.599731m. Speed=16.308001m/h.</desc>
<speed>4.530000</speed>
</trkpt>
<trkpt lat="55.706097" lon="26.111046">
<ele>158.779419</ele>
<time>2010-07-18T06:38:56Z</time>
<desc>lat.=55.706097, lon.=26.111046, Alt.=158.779419m. Speed=16.379999m/h.</desc>
<speed>4.550000</speed>
</trkpt>
<trkpt lat="55.706089" lon="26.111111">
<ele>158.904419</ele>
<time>2010-07-18T06:38:57Z</time>
<desc>lat.=55.706089, lon.=26.111111, Alt.=158.904419m. Speed=16.559999m/h.</desc>
<speed>4.600000</speed>
</trkpt>
<trkpt lat="55.706081" lon="26.111187">
<ele>159.103638</ele>
<time>2010-07-18T06:38:58Z</time>
<desc>lat.=55.706081, lon.=26.111187, Alt.=159.103638m. Speed=18.504000m/h.</desc>
<speed>5.140000</speed>
</trkpt>
<trkpt lat="55.706066" lon="26.111265">
<ele>159.427856</ele>
<time>2010-07-18T06:38:59Z</time>
<desc>lat.=55.706066, lon.=26.111265, Alt.=159.427856m. Speed=18.072001m/h.</desc>
<speed>5.020000</speed>
</trkpt>
<trkpt lat="55.706051" lon="26.111347">
<ele>159.255981</ele>
<time>2010-07-18T06:39:00Z</time>
<desc>lat.=55.706051, lon.=26.111347, Alt.=159.255981m. Speed=16.704000m/h.</desc>
<speed>4.640000</speed>
</trkpt>
<trkpt lat="55.706036" lon="26.111416">
<ele>159.380981</ele>
<time>2010-07-18T06:39:01Z</time>
<desc>lat.=55.706036, lon.=26.111416, Alt.=159.380981m. Speed=16.128000m/h.</desc>
<speed>4.480000</speed>
</trkpt>
<trkpt lat="55.706024" lon="26.111486">
<ele>159.232544</ele>
<time>2010-07-18T06:39:02Z</time>
<desc>lat.=55.706024, lon.=26.111486, Alt.=159.232544m. Speed=16.992001m/h.</desc>
<speed>4.720000</speed>
</trkpt>
<trkpt lat="55.706017" lon="26.111557">
<ele>158.619263</ele>
<time>2010-07-18T06:39:03Z</time>
<desc>lat.=55.706017, lon.=26.111557, Alt.=158.619263m. Speed=17.243999m/h.</desc>
<speed>4.790000</speed>
</trkpt>
<trkpt lat="55.706009" lon="26.111639">
<ele>158.697388</ele>
<time>2010-07-18T06:39:04Z</time>
<desc>lat.=55.706009, lon.=26.111639, Alt.=158.697388m. Speed=18.648001m/h.</desc>
<speed>5.180000</speed>
</trkpt>
<trkpt lat="55.706005" lon="26.111732">
<ele>158.666138</ele>
<time>2010-07-18T06:39:05Z</time>
<desc>lat.=55.706005, lon.=26.111732, Alt.=158.666138m. Speed=19.115999m/h.</desc>
<speed>5.310000</speed>
</trkpt>
<trkpt lat="55.705994" lon="26.111822">
<ele>158.384888</ele>
<time>2010-07-18T06:39:06Z</time>
<desc>lat.=55.705994, lon.=26.111822, Alt.=158.384888m. Speed=18.216000m/h.</desc>
<speed>5.060000</speed>
</trkpt>
<trkpt lat="55.705997" lon="26.111902">
<ele>158.259888</ele>
<time>2010-07-18T06:39:07Z</time>
<desc>lat.=55.705997, lon.=26.111902, Alt.=158.259888m. Speed=17.639999m/h.</desc>
<speed>4.900000</speed>
</trkpt>
<trkpt lat="55.705994" lon="26.111977">
<ele>158.767700</ele>
<time>2010-07-18T06:39:08Z</time>
<desc>lat.=55.705994, lon.=26.111977, Alt.=158.767700m. Speed=18.072001m/h.</desc>
<speed>5.020000</speed>
</trkpt>
<trkpt lat="55.705986" lon="26.112061">
<ele>159.002075</ele>
<time>2010-07-18T06:39:09Z</time>
<desc>lat.=55.705986, lon.=26.112061, Alt.=159.002075m. Speed=18.504000m/h.</desc>
<speed>5.140000</speed>
</trkpt>
<trkpt lat="55.705986" lon="26.112143">
<ele>159.361450</ele>
<time>2010-07-18T06:39:10Z</time>
<desc>lat.=55.705986, lon.=26.112143, Alt.=159.361450m. Speed=18.504000m/h.</desc>
<speed>5.140000</speed>
</trkpt>
<trkpt lat="55.705978" lon="26.112232">
<ele>158.873169</ele>
<time>2010-07-18T06:39:11Z</time>
<desc>lat.=55.705978, lon.=26.112232, Alt.=158.873169m. Speed=18.719999m/h.</desc>
<speed>5.200000</speed>
</trkpt>
<trkpt lat="55.705978" lon="26.112324">
<ele>158.275513</ele>
<time>2010-07-18T06:39:12Z</time>
<desc>lat.=55.705978, lon.=26.112324, Alt.=158.275513m. Speed=19.691999m/h.</desc>
<speed>5.470000</speed>
</trkpt>
<trkpt lat="55.705978" lon="26.112415">
<ele>158.091919</ele>
<time>2010-07-18T06:39:13Z</time>
<desc>lat.=55.705978, lon.=26.112415, Alt.=158.091919m. Speed=18.972000m/h.</desc>
<speed>5.270000</speed>
</trkpt>
<trkpt lat="55.705982" lon="26.112497">
<ele>158.545044</ele>
<time>2010-07-18T06:39:14Z</time>
<desc>lat.=55.705982, lon.=26.112497, Alt.=158.545044m. Speed=17.676001m/h.</desc>
<speed>4.910000</speed>
</trkpt>
<trkpt lat="55.705982" lon="26.112583">
<ele>158.552856</ele>
<time>2010-07-18T06:39:15Z</time>
<desc>lat.=55.705982, lon.=26.112583, Alt.=158.552856m. Speed=19.188000m/h.</desc>
<speed>5.330000</speed>
</trkpt>
<trkpt lat="55.705986" lon="26.112671">
<ele>158.634888</ele>
<time>2010-07-18T06:39:16Z</time>
<desc>lat.=55.705986, lon.=26.112671, Alt.=158.634888m. Speed=19.548000m/h.</desc>
<speed>5.430000</speed>
</trkpt>
<trkpt lat="55.705986" lon="26.112766">
<ele>158.388794</ele>
<time>2010-07-18T06:39:17Z</time>
<desc>lat.=55.705986, lon.=26.112766, Alt.=158.388794m. Speed=18.612000m/h.</desc>
<speed>5.170000</speed>
</trkpt>
<trkpt lat="55.705986" lon="26.112848">
<ele>158.502075</ele>
<time>2010-07-18T06:39:18Z</time>
<desc>lat.=55.705986, lon.=26.112848, Alt.=158.502075m. Speed=17.532000m/h.</desc>
<speed>4.870000</speed>
</trkpt>
<trkpt lat="55.705990" lon="26.112921">
<ele>158.451294</ele>
<time>2010-07-18T06:39:19Z</time>
<desc>lat.=55.705990, lon.=26.112921, Alt.=158.451294m. Speed=15.228000m/h.</desc>
<speed>4.230000</speed>
</trkpt>
<trkpt lat="55.705990" lon="26.112991">
<ele>158.314575</ele>
<time>2010-07-18T06:39:20Z</time>
<desc>lat.=55.705990, lon.=26.112991, Alt.=158.314575m. Speed=14.544000m/h.</desc>
<speed>4.040000</speed>
</trkpt>
<trkpt lat="55.705990" lon="26.113062">
<ele>158.072388</ele>
<time>2010-07-18T06:39:21Z</time>
<desc>lat.=55.705990, lon.=26.113062, Alt.=158.072388m. Speed=15.300000m/h.</desc>
<speed>4.250000</speed>
</trkpt>
<trkpt lat="55.705990" lon="26.113134">
<ele>158.119263</ele>
<time>2010-07-18T06:39:22Z</time>
<desc>lat.=55.705990, lon.=26.113134, Alt.=158.119263m. Speed=14.868000m/h.</desc>
<speed>4.130000</speed>
</trkpt>
<trkpt lat="55.705997" lon="26.113199">
<ele>157.935669</ele>
<time>2010-07-18T06:39:23Z</time>
<desc>lat.=55.705997, lon.=26.113199, Alt.=157.935669m. Speed=14.904000m/h.</desc>
<speed>4.140000</speed>
</trkpt>
<trkpt lat="55.706001" lon="26.113272">
<ele>158.193481</ele>
<time>2010-07-18T06:39:24Z</time>
<desc>lat.=55.706001, lon.=26.113272, Alt.=158.193481m. Speed=16.775999m/h.</desc>
<speed>4.660000</speed>
</trkpt>
<trkpt lat="55.706005" lon="26.113348">
<ele>158.142700</ele>
<time>2010-07-18T06:39:25Z</time>
<desc>lat.=55.706005, lon.=26.113348, Alt.=158.142700m. Speed=16.200001m/h.</desc>
<speed>4.500000</speed>
</trkpt>
<trkpt lat="55.706009" lon="26.113422">
<ele>157.634888</ele>
<time>2010-07-18T06:39:26Z</time>
<desc>lat.=55.706009, lon.=26.113422, Alt.=157.634888m. Speed=15.732000m/h.</desc>
<speed>4.370000</speed>
</trkpt>
<trkpt lat="55.706009" lon="26.113495">
<ele>157.189575</ele>
<time>2010-07-18T06:39:27Z</time>
<desc>lat.=55.706009, lon.=26.113495, Alt.=157.189575m. Speed=16.344000m/h.</desc>
<speed>4.540000</speed>
</trkpt>
<trkpt lat="55.706017" lon="26.113564">
<ele>157.447388</ele>
<time>2010-07-18T06:39:28Z</time>
<desc>lat.=55.706017, lon.=26.113564, Alt.=157.447388m. Speed=16.632000m/h.</desc>
<speed>4.620000</speed>
</trkpt>
<trkpt lat="55.706020" lon="26.113640">
<ele>157.146606</ele>
<time>2010-07-18T06:39:29Z</time>
<desc>lat.=55.706020, lon.=26.113640, Alt.=157.146606m. Speed=17.639999m/h.</desc>
<speed>4.900000</speed>
</trkpt>
<trkpt lat="55.706024" lon="26.113714">
<ele>157.252075</ele>
<time>2010-07-18T06:39:30Z</time>
<desc>lat.=55.706024, lon.=26.113714, Alt.=157.252075m. Speed=17.351999m/h.</desc>
<speed>4.820000</speed>
</trkpt>
<trkpt lat="55.706024" lon="26.113787">
<ele>157.396606</ele>
<time>2010-07-18T06:39:31Z</time>
<desc>lat.=55.706024, lon.=26.113787, Alt.=157.396606m. Speed=17.784000m/h.</desc>
<speed>4.940000</speed>
</trkpt>
<trkpt lat="55.706032" lon="26.113867">
<ele>157.521606</ele>
<time>2010-07-18T06:39:32Z</time>
<desc>lat.=55.706032, lon.=26.113867, Alt.=157.521606m. Speed=17.172001m/h.</desc>
<speed>4.770000</speed>
</trkpt>
<trkpt lat="55.706036" lon="26.113941">
<ele>157.088013</ele>
<time>2010-07-18T06:39:33Z</time>
<desc>lat.=55.706036, lon.=26.113941, Alt.=157.088013m. Speed=16.596001m/h.</desc>
<speed>4.610000</speed>
</trkpt>
<trkpt lat="55.706039" lon="26.114017">
<ele>156.935669</ele>
<time>2010-07-18T06:39:34Z</time>
<desc>lat.=55.706039, lon.=26.114017, Alt.=156.935669m. Speed=16.812000m/h.</desc>
<speed>4.670000</speed>
</trkpt>
<trkpt lat="55.706036" lon="26.114092">
<ele>156.537231</ele>
<time>2010-07-18T06:39:35Z</time>
<desc>lat.=55.706036, lon.=26.114092, Alt.=156.537231m. Speed=14.940000m/h.</desc>
<speed>4.150000</speed>
</trkpt>
<trkpt lat="55.706036" lon="26.114166">
<ele>156.220825</ele>
<time>2010-07-18T06:39:36Z</time>
<desc>lat.=55.706036, lon.=26.114166, Alt.=156.220825m. Speed=16.308001m/h.</desc>
<speed>4.530000</speed>
</trkpt>
<trkpt lat="55.706036" lon="26.114237">
<ele>156.466919</ele>
<time>2010-07-18T06:39:37Z</time>
<desc>lat.=55.706036, lon.=26.114237, Alt.=156.466919m. Speed=16.559999m/h.</desc>
<speed>4.600000</speed>
</trkpt>
<trkpt lat="55.706043" lon="26.114315">
<ele>156.611450</ele>
<time>2010-07-18T06:39:38Z</time>
<desc>lat.=55.706043, lon.=26.114315, Alt.=156.611450m. Speed=18.540001m/h.</desc>
<speed>5.150000</speed>
</trkpt>
<trkpt lat="55.706043" lon="26.114397">
<ele>156.732544</ele>
<time>2010-07-18T06:39:39Z</time>
<desc>lat.=55.706043, lon.=26.114397, Alt.=156.732544m. Speed=18.180000m/h.</desc>
<speed>5.050000</speed>
</trkpt>
<trkpt lat="55.706039" lon="26.114483">
<ele>156.263794</ele>
<time>2010-07-18T06:39:40Z</time>
<desc>lat.=55.706039, lon.=26.114483, Alt.=156.263794m. Speed=18.792000m/h.</desc>
<speed>5.220000</speed>
</trkpt>
<trkpt lat="55.706047" lon="26.114565">
<ele>156.076294</ele>
<time>2010-07-18T06:39:41Z</time>
<desc>lat.=55.706047, lon.=26.114565, Alt.=156.076294m. Speed=18.360001m/h.</desc>
<speed>5.100000</speed>
</trkpt>
<trkpt lat="55.706051" lon="26.114655">
<ele>155.771606</ele>
<time>2010-07-18T06:39:42Z</time>
<desc>lat.=55.706051, lon.=26.114655, Alt.=155.771606m. Speed=18.360001m/h.</desc>
<speed>5.100000</speed>
</trkpt>
<trkpt lat="55.706055" lon="26.114740">
<ele>155.806763</ele>
<time>2010-07-18T06:39:43Z</time>
<desc>lat.=55.706055, lon.=26.114740, Alt.=155.806763m. Speed=17.388000m/h.</desc>
<speed>4.830000</speed>
</trkpt>
<trkpt lat="55.706055" lon="26.114815">
<ele>155.673950</ele>
<time>2010-07-18T06:39:44Z</time>
<desc>lat.=55.706055, lon.=26.114815, Alt.=155.673950m. Speed=16.704000m/h.</desc>
<speed>4.640000</speed>
</trkpt>
<trkpt lat="55.706062" lon="26.114889">
<ele>156.341919</ele>
<time>2010-07-18T06:39:45Z</time>
<desc>lat.=55.706062, lon.=26.114889, Alt.=156.341919m. Speed=16.596001m/h.</desc>
<speed>4.610000</speed>
</trkpt>
<trkpt lat="55.706066" lon="26.114958">
<ele>156.599731</ele>
<time>2010-07-18T06:39:46Z</time>
<desc>lat.=55.706066, lon.=26.114958, Alt.=156.599731m. Speed=15.948000m/h.</desc>
<speed>4.430000</speed>
</trkpt>
<trkpt lat="55.706070" lon="26.115028">
<ele>156.884888</ele>
<time>2010-07-18T06:39:47Z</time>
<desc>lat.=55.706070, lon.=26.115028, Alt.=156.884888m. Speed=15.408000m/h.</desc>
<speed>4.280000</speed>
</trkpt>
<trkpt lat="55.706078" lon="26.115097">
<ele>156.736450</ele>
<time>2010-07-18T06:39:48Z</time>
<desc>lat.=55.706078, lon.=26.115097, Alt.=156.736450m. Speed=15.984000m/h.</desc>
<speed>4.440000</speed>
</trkpt>
<trkpt lat="55.706078" lon="26.115168">
<ele>156.896606</ele>
<time>2010-07-18T06:39:49Z</time>
<desc>lat.=55.706078, lon.=26.115168, Alt.=156.896606m. Speed=16.884001m/h.</desc>
<speed>4.690000</speed>
</trkpt>
<trkpt lat="55.706089" lon="26.115242">
<ele>156.509888</ele>
<time>2010-07-18T06:39:50Z</time>
<desc>lat.=55.706089, lon.=26.115242, Alt.=156.509888m. Speed=16.848000m/h.</desc>
<speed>4.680000</speed>
</trkpt>
<trkpt lat="55.706097" lon="26.115313">
<ele>156.248169</ele>
<time>2010-07-18T06:39:51Z</time>
<desc>lat.=55.706097, lon.=26.115313, Alt.=156.248169m. Speed=16.452000m/h.</desc>
<speed>4.570000</speed>
</trkpt>
<trkpt lat="55.706104" lon="26.115383">
<ele>156.603638</ele>
<time>2010-07-18T06:39:52Z</time>
<desc>lat.=55.706104, lon.=26.115383, Alt.=156.603638m. Speed=18.323999m/h.</desc>
<speed>5.090000</speed>
</trkpt>
<trkpt lat="55.706104" lon="26.115454">
<ele>158.052856</ele>
<time>2010-07-18T06:39:53Z</time>
<desc>lat.=55.706104, lon.=26.115454, Alt.=158.052856m. Speed=16.667999m/h.</desc>
<speed>4.630000</speed>
</trkpt>
<trkpt lat="55.706104" lon="26.115532">
<ele>157.716919</ele>
<time>2010-07-18T06:39:54Z</time>
<desc>lat.=55.706104, lon.=26.115532, Alt.=157.716919m. Speed=17.243999m/h.</desc>
<speed>4.790000</speed>
</trkpt>
<trkpt lat="55.706104" lon="26.115606">
<ele>157.330200</ele>
<time>2010-07-18T06:39:55Z</time>
<desc>lat.=55.706104, lon.=26.115606, Alt.=157.330200m. Speed=16.596001m/h.</desc>
<speed>4.610000</speed>
</trkpt>
<trkpt lat="55.706112" lon="26.115692">
<ele>156.681763</ele>
<time>2010-07-18T06:39:56Z</time>
<desc>lat.=55.706112, lon.=26.115692, Alt.=156.681763m. Speed=16.308001m/h.</desc>
<speed>4.530000</speed>
</trkpt>
<trkpt lat="55.706104" lon="26.115751">
<ele>158.275513</ele>
<time>2010-07-18T06:39:57Z</time>
<desc>lat.=55.706104, lon.=26.115751, Alt.=158.275513m. Speed=14.832000m/h.</desc>
<speed>4.120000</speed>
</trkpt>
<trkpt lat="55.706104" lon="26.115814">
<ele>158.814575</ele>
<time>2010-07-18T06:39:58Z</time>
<desc>lat.=55.706104, lon.=26.115814, Alt.=158.814575m. Speed=14.580000m/h.</desc>
<speed>4.050000</speed>
</trkpt>
<trkpt lat="55.706104" lon="26.115879">
<ele>158.576294</ele>
<time>2010-07-18T06:39:59Z</time>
<desc>lat.=55.706104, lon.=26.115879, Alt.=158.576294m. Speed=15.408000m/h.</desc>
<speed>4.280000</speed>
</trkpt>
<trkpt lat="55.706112" lon="26.115952">
<ele>158.775513</ele>
<time>2010-07-18T06:40:00Z</time>
<desc>lat.=55.706112, lon.=26.115952, Alt.=158.775513m. Speed=15.516000m/h.</desc>
<speed>4.310000</speed>
</trkpt>
<trkpt lat="55.706120" lon="26.116026">
<ele>158.681763</ele>
<time>2010-07-18T06:40:01Z</time>
<desc>lat.=55.706120, lon.=26.116026, Alt.=158.681763m. Speed=16.164000m/h.</desc>
<speed>4.490000</speed>
</trkpt>
<trkpt lat="55.706123" lon="26.116098">
<ele>158.826294</ele>
<time>2010-07-18T06:40:02Z</time>
<desc>lat.=55.706123, lon.=26.116098, Alt.=158.826294m. Speed=16.740000m/h.</desc>
<speed>4.650000</speed>
</trkpt>
<trkpt lat="55.706127" lon="26.116175">
<ele>158.849731</ele>
<time>2010-07-18T06:40:03Z</time>
<desc>lat.=55.706127, lon.=26.116175, Alt.=158.849731m. Speed=17.604000m/h.</desc>
<speed>4.890000</speed>
</trkpt>
<trkpt lat="55.706127" lon="26.116257">
<ele>158.939575</ele>
<time>2010-07-18T06:40:04Z</time>
<desc>lat.=55.706127, lon.=26.116257, Alt.=158.939575m. Speed=17.532000m/h.</desc>
<speed>4.870000</speed>
</trkpt>
<trkpt lat="55.706131" lon="26.116341">
<ele>158.853638</ele>
<time>2010-07-18T06:40:05Z</time>
<desc>lat.=55.706131, lon.=26.116341, Alt.=158.853638m. Speed=18.180000m/h.</desc>
<speed>5.050000</speed>
</trkpt>
<trkpt lat="55.706135" lon="26.116425">
<ele>158.142700</ele>
<time>2010-07-18T06:40:06Z</time>
<desc>lat.=55.706135, lon.=26.116425, Alt.=158.142700m. Speed=18.252001m/h.</desc>
<speed>5.070000</speed>
</trkpt>
<trkpt lat="55.706142" lon="26.116505">
<ele>157.888794</ele>
<time>2010-07-18T06:40:07Z</time>
<desc>lat.=55.706142, lon.=26.116505, Alt.=157.888794m. Speed=17.676001m/h.</desc>
<speed>4.910000</speed>
</trkpt>
<trkpt lat="55.706146" lon="26.116583">
<ele>157.244263</ele>
<time>2010-07-18T06:40:08Z</time>
<desc>lat.=55.706146, lon.=26.116583, Alt.=157.244263m. Speed=16.379999m/h.</desc>
<speed>4.550000</speed>
</trkpt>
<trkpt lat="55.706142" lon="26.116655">
<ele>157.642700</ele>
<time>2010-07-18T06:40:09Z</time>
<desc>lat.=55.706142, lon.=26.116655, Alt.=157.642700m. Speed=15.228000m/h.</desc>
<speed>4.230000</speed>
</trkpt>
<trkpt lat="55.706142" lon="26.116720">
<ele>158.201294</ele>
<time>2010-07-18T06:40:10Z</time>
<desc>lat.=55.706142, lon.=26.116720, Alt.=158.201294m. Speed=13.860000m/h.</desc>
<speed>3.850000</speed>
</trkpt>
<trkpt lat="55.706150" lon="26.116781">
<ele>157.939575</ele>
<time>2010-07-18T06:40:11Z</time>
<desc>lat.=55.706150, lon.=26.116781, Alt.=157.939575m. Speed=13.104000m/h.</desc>
<speed>3.640000</speed>
</trkpt>
<trkpt lat="55.706158" lon="26.116837">
<ele>158.111450</ele>
<time>2010-07-18T06:40:12Z</time>
<desc>lat.=55.706158, lon.=26.116837, Alt.=158.111450m. Speed=12.780000m/h.</desc>
<speed>3.550000</speed>
</trkpt>
<trkpt lat="55.706161" lon="26.116890">
<ele>158.830200</ele>
<time>2010-07-18T06:40:13Z</time>
<desc>lat.=55.706161, lon.=26.116890, Alt.=158.830200m. Speed=13.572000m/h.</desc>
<speed>3.770000</speed>
</trkpt>
<trkpt lat="55.706165" lon="26.116945">
<ele>159.888794</ele>
<time>2010-07-18T06:40:14Z</time>
<desc>lat.=55.706165, lon.=26.116945, Alt.=159.888794m. Speed=13.824000m/h.</desc>
<speed>3.840000</speed>
</trkpt>
<trkpt lat="55.706169" lon="26.116997">
<ele>160.130981</ele>
<time>2010-07-18T06:40:15Z</time>
<desc>lat.=55.706169, lon.=26.116997, Alt.=160.130981m. Speed=13.824000m/h.</desc>
<speed>3.840000</speed>
</trkpt>
<trkpt lat="55.706169" lon="26.117054">
<ele>159.787231</ele>
<time>2010-07-18T06:40:16Z</time>
<desc>lat.=55.706169, lon.=26.117054, Alt.=159.787231m. Speed=13.212000m/h.</desc>
<speed>3.670000</speed>
</trkpt>
<trkpt lat="55.706169" lon="26.117105">
<ele>160.314575</ele>
<time>2010-07-18T06:40:17Z</time>
<desc>lat.=55.706169, lon.=26.117105, Alt.=160.314575m. Speed=14.724000m/h.</desc>
<speed>4.090000</speed>
</trkpt>
<trkpt lat="55.706165" lon="26.117178">
<ele>161.236450</ele>
<time>2010-07-18T06:40:18Z</time>
<desc>lat.=55.706165, lon.=26.117178, Alt.=161.236450m. Speed=16.416000m/h.</desc>
<speed>4.560000</speed>
</trkpt>
<trkpt lat="55.706165" lon="26.117250">
<ele>160.744263</ele>
<time>2010-07-18T06:40:19Z</time>
<desc>lat.=55.706165, lon.=26.117250, Alt.=160.744263m. Speed=16.091999m/h.</desc>
<speed>4.470000</speed>
</trkpt>
<trkpt lat="55.706169" lon="26.117321">
<ele>160.998169</ele>
<time>2010-07-18T06:40:20Z</time>
<desc>lat.=55.706169, lon.=26.117321, Alt.=160.998169m. Speed=16.128000m/h.</desc>
<speed>4.480000</speed>
</trkpt>
<trkpt lat="55.706173" lon="26.117390">
<ele>161.048950</ele>
<time>2010-07-18T06:40:21Z</time>
<desc>lat.=55.706173, lon.=26.117390, Alt.=161.048950m. Speed=16.992001m/h.</desc>
<speed>4.720000</speed>
</trkpt>
<trkpt lat="55.706177" lon="26.117466">
<ele>161.248169</ele>
<time>2010-07-18T06:40:22Z</time>
<desc>lat.=55.706177, lon.=26.117466, Alt.=161.248169m. Speed=17.351999m/h.</desc>
<speed>4.820000</speed>
</trkpt>
<trkpt lat="55.706184" lon="26.117544">
<ele>161.255981</ele>
<time>2010-07-18T06:40:23Z</time>
<desc>lat.=55.706184, lon.=26.117544, Alt.=161.255981m. Speed=17.243999m/h.</desc>
<speed>4.790000</speed>
</trkpt>
<trkpt lat="55.706192" lon="26.117613">
<ele>161.423950</ele>
<time>2010-07-18T06:40:24Z</time>
<desc>lat.=55.706192, lon.=26.117613, Alt.=161.423950m. Speed=16.992001m/h.</desc>
<speed>4.720000</speed>
</trkpt>
<trkpt lat="55.706196" lon="26.117695">
<ele>160.654419</ele>
<time>2010-07-18T06:40:25Z</time>
<desc>lat.=55.706196, lon.=26.117695, Alt.=160.654419m. Speed=16.920000m/h.</desc>
<speed>4.700000</speed>
</trkpt>
<trkpt lat="55.706203" lon="26.117775">
<ele>160.798950</ele>
<time>2010-07-18T06:40:26Z</time>
<desc>lat.=55.706203, lon.=26.117775, Alt.=160.798950m. Speed=17.459999m/h.</desc>
<speed>4.850000</speed>
</trkpt>
<trkpt lat="55.706211" lon="26.117861">
<ele>160.302856</ele>
<time>2010-07-18T06:40:27Z</time>
<desc>lat.=55.706211, lon.=26.117861, Alt.=160.302856m. Speed=18.323999m/h.</desc>
<speed>5.090000</speed>
</trkpt>
<trkpt lat="55.706219" lon="26.117945">
<ele>159.713013</ele>
<time>2010-07-18T06:40:28Z</time>
<desc>lat.=55.706219, lon.=26.117945, Alt.=159.713013m. Speed=18.612000m/h.</desc>
<speed>5.170000</speed>
</trkpt>
<trkpt lat="55.706219" lon="26.118036">
<ele>160.423950</ele>
<time>2010-07-18T06:40:29Z</time>
<desc>lat.=55.706219, lon.=26.118036, Alt.=160.423950m. Speed=18.719999m/h.</desc>
<speed>5.200000</speed>
</trkpt>
<trkpt lat="55.706223" lon="26.118135">
<ele>159.709106</ele>
<time>2010-07-18T06:40:30Z</time>
<desc>lat.=55.706223, lon.=26.118135, Alt.=159.709106m. Speed=19.260000m/h.</desc>
<speed>5.350000</speed>
</trkpt>
<trkpt lat="55.706234" lon="26.118225">
<ele>158.810669</ele>
<time>2010-07-18T06:40:31Z</time>
<desc>lat.=55.706234, lon.=26.118225, Alt.=158.810669m. Speed=19.620001m/h.</desc>
<speed>5.450000</speed>
</trkpt>
<trkpt lat="55.706238" lon="26.118309">
<ele>158.427856</ele>
<time>2010-07-18T06:40:32Z</time>
<desc>lat.=55.706238, lon.=26.118309, Alt.=158.427856m. Speed=20.052000m/h.</desc>
<speed>5.570000</speed>
</trkpt>
<trkpt lat="55.706242" lon="26.118395">
<ele>157.806763</ele>
<time>2010-07-18T06:40:33Z</time>
<desc>lat.=55.706242, lon.=26.118395, Alt.=157.806763m. Speed=20.375999m/h.</desc>
<speed>5.660000</speed>
</trkpt>
<trkpt lat="55.706253" lon="26.118486">
<ele>157.338013</ele>
<time>2010-07-18T06:40:34Z</time>
<desc>lat.=55.706253, lon.=26.118486, Alt.=157.338013m. Speed=21.312000m/h.</desc>
<speed>5.920000</speed>
</trkpt>
<trkpt lat="55.706257" lon="26.118582">
<ele>158.330200</ele>
<time>2010-07-18T06:40:35Z</time>
<desc>lat.=55.706257, lon.=26.118582, Alt.=158.330200m. Speed=22.139999m/h.</desc>
<speed>6.150000</speed>
</trkpt>
<trkpt lat="55.706264" lon="26.118685">
<ele>159.607544</ele>
<time>2010-07-18T06:40:36Z</time>
<desc>lat.=55.706264, lon.=26.118685, Alt.=159.607544m. Speed=22.247999m/h.</desc>
<speed>6.180000</speed>
</trkpt>
<trkpt lat="55.706264" lon="26.118792">
<ele>159.599731</ele>
<time>2010-07-18T06:40:37Z</time>
<desc>lat.=55.706264, lon.=26.118792, Alt.=159.599731m. Speed=23.040001m/h.</desc>
<speed>6.400000</speed>
</trkpt>
<trkpt lat="55.706268" lon="26.118893">
<ele>159.478638</ele>
<time>2010-07-18T06:40:38Z</time>
<desc>lat.=55.706268, lon.=26.118893, Alt.=159.478638m. Speed=22.752001m/h.</desc>
<speed>6.320000</speed>
</trkpt>
<trkpt lat="55.706280" lon="26.118990">
<ele>158.728638</ele>
<time>2010-07-18T06:40:39Z</time>
<desc>lat.=55.706280, lon.=26.118990, Alt.=158.728638m. Speed=21.816000m/h.</desc>
<speed>6.060000</speed>
</trkpt>
<trkpt lat="55.706287" lon="26.119080">
<ele>158.591919</ele>
<time>2010-07-18T06:40:40Z</time>
<desc>lat.=55.706287, lon.=26.119080, Alt.=158.591919m. Speed=21.312000m/h.</desc>
<speed>5.920000</speed>
</trkpt>
<trkpt lat="55.706284" lon="26.119169">
<ele>158.517700</ele>
<time>2010-07-18T06:40:41Z</time>
<desc>lat.=55.706284, lon.=26.119169, Alt.=158.517700m. Speed=20.700001m/h.</desc>
<speed>5.750000</speed>
</trkpt>
<trkpt lat="55.706291" lon="26.119253">
<ele>158.982544</ele>
<time>2010-07-18T06:40:42Z</time>
<desc>lat.=55.706291, lon.=26.119253, Alt.=158.982544m. Speed=19.656000m/h.</desc>
<speed>5.460000</speed>
</trkpt>
<trkpt lat="55.706291" lon="26.119333">
<ele>158.861450</ele>
<time>2010-07-18T06:40:43Z</time>
<desc>lat.=55.706291, lon.=26.119333, Alt.=158.861450m. Speed=18.612000m/h.</desc>
<speed>5.170000</speed>
</trkpt>
<trkpt lat="55.706295" lon="26.119419">
<ele>159.314575</ele>
<time>2010-07-18T06:40:44Z</time>
<desc>lat.=55.706295, lon.=26.119419, Alt.=159.314575m. Speed=18.396000m/h.</desc>
<speed>5.110000</speed>
</trkpt>
<trkpt lat="55.706295" lon="26.119505">
<ele>159.607544</ele>
<time>2010-07-18T06:40:45Z</time>
<desc>lat.=55.706295, lon.=26.119505, Alt.=159.607544m. Speed=18.756001m/h.</desc>
<speed>5.210000</speed>
</trkpt>
<trkpt lat="55.706295" lon="26.119593">
<ele>159.490356</ele>
<time>2010-07-18T06:40:46Z</time>
<desc>lat.=55.706295, lon.=26.119593, Alt.=159.490356m. Speed=18.180000m/h.</desc>
<speed>5.050000</speed>
</trkpt>
<trkpt lat="55.706299" lon="26.119675">
<ele>159.568481</ele>
<time>2010-07-18T06:40:47Z</time>
<desc>lat.=55.706299, lon.=26.119675, Alt.=159.568481m. Speed=18.684000m/h.</desc>
<speed>5.190000</speed>
</trkpt>
<trkpt lat="55.706303" lon="26.119753">
<ele>158.974731</ele>
<time>2010-07-18T06:40:48Z</time>
<desc>lat.=55.706303, lon.=26.119753, Alt.=158.974731m. Speed=16.775999m/h.</desc>
<speed>4.660000</speed>
</trkpt>
<trkpt lat="55.706310" lon="26.119831">
<ele>158.939575</ele>
<time>2010-07-18T06:40:49Z</time>
<desc>lat.=55.706310, lon.=26.119831, Alt.=158.939575m. Speed=17.820000m/h.</desc>
<speed>4.950000</speed>
</trkpt>
<trkpt lat="55.706310" lon="26.119909">
<ele>159.427856</ele>
<time>2010-07-18T06:40:50Z</time>
<desc>lat.=55.706310, lon.=26.119909, Alt.=159.427856m. Speed=16.775999m/h.</desc>
<speed>4.660000</speed>
</trkpt>
<trkpt lat="55.706310" lon="26.119982">
<ele>159.146606</ele>
<time>2010-07-18T06:40:51Z</time>
<desc>lat.=55.706310, lon.=26.119982, Alt.=159.146606m. Speed=16.632000m/h.</desc>
<speed>4.620000</speed>
</trkpt>
<trkpt lat="55.706314" lon="26.120058">
<ele>158.935669</ele>
<time>2010-07-18T06:40:52Z</time>
<desc>lat.=55.706314, lon.=26.120058, Alt.=158.935669m. Speed=17.280001m/h.</desc>
<speed>4.800000</speed>
</trkpt>
<trkpt lat="55.706314" lon="26.120123">
<ele>159.509888</ele>
<time>2010-07-18T06:40:53Z</time>
<desc>lat.=55.706314, lon.=26.120123, Alt.=159.509888m. Speed=17.459999m/h.</desc>
<speed>4.850000</speed>
</trkpt>
<trkpt lat="55.706318" lon="26.120195">
<ele>158.630981</ele>
<time>2010-07-18T06:40:54Z</time>
<desc>lat.=55.706318, lon.=26.120195, Alt.=158.630981m. Speed=16.992001m/h.</desc>
<speed>4.720000</speed>
</trkpt>
<trkpt lat="55.706318" lon="26.120274">
<ele>158.798950</ele>
<time>2010-07-18T06:40:55Z</time>
<desc>lat.=55.706318, lon.=26.120274, Alt.=158.798950m. Speed=17.172001m/h.</desc>
<speed>4.770000</speed>
</trkpt>
<trkpt lat="55.706322" lon="26.120346">
<ele>158.920044</ele>
<time>2010-07-18T06:40:56Z</time>
<desc>lat.=55.706322, lon.=26.120346, Alt.=158.920044m. Speed=16.740000m/h.</desc>
<speed>4.650000</speed>
</trkpt>
<trkpt lat="55.706326" lon="26.120419">
<ele>157.955200</ele>
<time>2010-07-18T06:40:57Z</time>
<desc>lat.=55.706326, lon.=26.120419, Alt.=157.955200m. Speed=16.596001m/h.</desc>
<speed>4.610000</speed>
</trkpt>
<trkpt lat="55.706326" lon="26.120497">
<ele>157.033325</ele>
<time>2010-07-18T06:40:58Z</time>
<desc>lat.=55.706326, lon.=26.120497, Alt.=157.033325m. Speed=19.007999m/h.</desc>
<speed>5.280000</speed>
</trkpt>
<trkpt lat="55.706329" lon="26.120584">
<ele>157.267700</ele>
<time>2010-07-18T06:40:59Z</time>
<desc>lat.=55.706329, lon.=26.120584, Alt.=157.267700m. Speed=19.080000m/h.</desc>
<speed>5.300000</speed>
</trkpt>
<trkpt lat="55.706333" lon="26.120670">
<ele>156.923950</ele>
<time>2010-07-18T06:41:00Z</time>
<desc>lat.=55.706333, lon.=26.120670, Alt.=156.923950m. Speed=18.936001m/h.</desc>
<speed>5.260000</speed>
</trkpt>
<trkpt lat="55.706333" lon="26.120760">
<ele>156.814575</ele>
<time>2010-07-18T06:41:01Z</time>
<desc>lat.=55.706333, lon.=26.120760, Alt.=156.814575m. Speed=19.476000m/h.</desc>
<speed>5.410000</speed>
</trkpt>
<trkpt lat="55.706333" lon="26.120855">
<ele>156.400513</ele>
<time>2010-07-18T06:41:02Z</time>
<desc>lat.=55.706333, lon.=26.120855, Alt.=156.400513m. Speed=19.656000m/h.</desc>
<speed>5.460000</speed>
</trkpt>
<trkpt lat="55.706341" lon="26.120939">
<ele>156.095825</ele>
<time>2010-07-18T06:41:03Z</time>
<desc>lat.=55.706341, lon.=26.120939, Alt.=156.095825m. Speed=19.115999m/h.</desc>
<speed>5.310000</speed>
</trkpt>
<trkpt lat="55.706345" lon="26.121027">
<ele>156.931763</ele>
<time>2010-07-18T06:41:04Z</time>
<desc>lat.=55.706345, lon.=26.121027, Alt.=156.931763m. Speed=18.936001m/h.</desc>
<speed>5.260000</speed>
</trkpt>
<trkpt lat="55.706345" lon="26.121115">
<ele>155.670044</ele>
<time>2010-07-18T06:41:05Z</time>
<desc>lat.=55.706345, lon.=26.121115, Alt.=155.670044m. Speed=18.756001m/h.</desc>
<speed>5.210000</speed>
</trkpt>
<trkpt lat="55.706345" lon="26.121195">
<ele>155.783325</ele>
<time>2010-07-18T06:41:06Z</time>
<desc>lat.=55.706345, lon.=26.121195, Alt.=155.783325m. Speed=18.612000m/h.</desc>
<speed>5.170000</speed>
</trkpt>
<trkpt lat="55.706348" lon="26.121273">
<ele>155.431763</ele>
<time>2010-07-18T06:41:07Z</time>
<desc>lat.=55.706348, lon.=26.121273, Alt.=155.431763m. Speed=18.468000m/h.</desc>
<speed>5.130000</speed>
</trkpt>
<trkpt lat="55.706352" lon="26.121367">
<ele>153.861450</ele>
<time>2010-07-18T06:41:08Z</time>
<desc>lat.=55.706352, lon.=26.121367, Alt.=153.861450m. Speed=18.504000m/h.</desc>
<speed>5.140000</speed>
</trkpt>
<trkpt lat="55.706356" lon="26.121449">
<ele>153.240356</ele>
<time>2010-07-18T06:41:09Z</time>
<desc>lat.=55.706356, lon.=26.121449, Alt.=153.240356m. Speed=17.568001m/h.</desc>
<speed>4.880000</speed>
</trkpt>
<trkpt lat="55.706356" lon="26.121529">
<ele>153.119263</ele>
<time>2010-07-18T06:41:10Z</time>
<desc>lat.=55.706356, lon.=26.121529, Alt.=153.119263m. Speed=18.108000m/h.</desc>
<speed>5.030000</speed>
</trkpt>
<trkpt lat="55.706356" lon="26.121611">
<ele>153.771606</ele>
<time>2010-07-18T06:41:11Z</time>
<desc>lat.=55.706356, lon.=26.121611, Alt.=153.771606m. Speed=17.459999m/h.</desc>
<speed>4.850000</speed>
</trkpt>
<trkpt lat="55.706364" lon="26.121691">
<ele>152.607544</ele>
<time>2010-07-18T06:41:12Z</time>
<desc>lat.=55.706364, lon.=26.121691, Alt.=152.607544m. Speed=18.612000m/h.</desc>
<speed>5.170000</speed>
</trkpt>
<trkpt lat="55.706367" lon="26.121771">
<ele>151.963013</ele>
<time>2010-07-18T06:41:13Z</time>
<desc>lat.=55.706367, lon.=26.121771, Alt.=151.963013m. Speed=17.243999m/h.</desc>
<speed>4.790000</speed>
</trkpt>
<trkpt lat="55.706371" lon="26.121841">
<ele>152.189575</ele>
<time>2010-07-18T06:41:14Z</time>
<desc>lat.=55.706371, lon.=26.121841, Alt.=152.189575m. Speed=17.496000m/h.</desc>
<speed>4.860000</speed>
</trkpt>
<trkpt lat="55.706375" lon="26.121916">
<ele>153.173950</ele>
<time>2010-07-18T06:41:15Z</time>
<desc>lat.=55.706375, lon.=26.121916, Alt.=153.173950m. Speed=17.784000m/h.</desc>
<speed>4.940000</speed>
</trkpt>
<trkpt lat="55.706387" lon="26.122000">
<ele>152.490356</ele>
<time>2010-07-18T06:41:16Z</time>
<desc>lat.=55.706387, lon.=26.122000, Alt.=152.490356m. Speed=18.864000m/h.</desc>
<speed>5.240000</speed>
</trkpt>
<trkpt lat="55.706398" lon="26.122084">
<ele>152.357544</ele>
<time>2010-07-18T06:41:17Z</time>
<desc>lat.=55.706398, lon.=26.122084, Alt.=152.357544m. Speed=17.964001m/h.</desc>
<speed>4.990000</speed>
</trkpt>
<trkpt lat="55.706406" lon="26.122162">
<ele>152.275513</ele>
<time>2010-07-18T06:41:18Z</time>
<desc>lat.=55.706406, lon.=26.122162, Alt.=152.275513m. Speed=16.632000m/h.</desc>
<speed>4.620000</speed>
</trkpt>
<trkpt lat="55.706425" lon="26.122244">
<ele>152.654419</ele>
<time>2010-07-18T06:41:19Z</time>
<desc>lat.=55.706425, lon.=26.122244, Alt.=152.654419m. Speed=18.252001m/h.</desc>
<speed>5.070000</speed>
</trkpt>
<trkpt lat="55.706440" lon="26.122318">
<ele>152.451294</ele>
<time>2010-07-18T06:41:20Z</time>
<desc>lat.=55.706440, lon.=26.122318, Alt.=152.451294m. Speed=16.128000m/h.</desc>
<speed>4.480000</speed>
</trkpt>
<trkpt lat="55.706448" lon="26.122391">
<ele>151.892700</ele>
<time>2010-07-18T06:41:21Z</time>
<desc>lat.=55.706448, lon.=26.122391, Alt.=151.892700m. Speed=15.120000m/h.</desc>
<speed>4.200000</speed>
</trkpt>
<trkpt lat="55.706459" lon="26.122452">
<ele>151.783325</ele>
<time>2010-07-18T06:41:22Z</time>
<desc>lat.=55.706459, lon.=26.122452, Alt.=151.783325m. Speed=14.760000m/h.</desc>
<speed>4.100000</speed>
</trkpt>
<trkpt lat="55.706470" lon="26.122519">
<ele>151.560669</ele>
<time>2010-07-18T06:41:23Z</time>
<desc>lat.=55.706470, lon.=26.122519, Alt.=151.560669m. Speed=14.544000m/h.</desc>
<speed>4.040000</speed>
</trkpt>
<trkpt lat="55.706482" lon="26.122587">
<ele>150.939575</ele>
<time>2010-07-18T06:41:24Z</time>
<desc>lat.=55.706482, lon.=26.122587, Alt.=150.939575m. Speed=14.112000m/h.</desc>
<speed>3.920000</speed>
</trkpt>
<trkpt lat="55.706505" lon="26.122658">
<ele>150.482544</ele>
<time>2010-07-18T06:41:25Z</time>
<desc>lat.=55.706505, lon.=26.122658, Alt.=150.482544m. Speed=15.984000m/h.</desc>
<speed>4.440000</speed>
</trkpt>
<trkpt lat="55.706532" lon="26.122734">
<ele>150.392700</ele>
<time>2010-07-18T06:41:26Z</time>
<desc>lat.=55.706532, lon.=26.122734, Alt.=150.392700m. Speed=17.604000m/h.</desc>
<speed>4.890000</speed>
</trkpt>
<trkpt lat="55.706554" lon="26.122810">
<ele>150.146606</ele>
<time>2010-07-18T06:41:27Z</time>
<desc>lat.=55.706554, lon.=26.122810, Alt.=150.146606m. Speed=17.028000m/h.</desc>
<speed>4.730000</speed>
</trkpt>
<trkpt lat="55.706577" lon="26.122881">
<ele>150.275513</ele>
<time>2010-07-18T06:41:28Z</time>
<desc>lat.=55.706577, lon.=26.122881, Alt.=150.275513m. Speed=17.028000m/h.</desc>
<speed>4.730000</speed>
</trkpt>
<trkpt lat="55.706600" lon="26.122952">
<ele>149.482544</ele>
<time>2010-07-18T06:41:29Z</time>
<desc>lat.=55.706600, lon.=26.122952, Alt.=149.482544m. Speed=17.028000m/h.</desc>
<speed>4.730000</speed>
</trkpt>
<trkpt lat="55.706623" lon="26.123022">
<ele>149.314575</ele>
<time>2010-07-18T06:41:30Z</time>
<desc>lat.=55.706623, lon.=26.123022, Alt.=149.314575m. Speed=15.876000m/h.</desc>
<speed>4.410000</speed>
</trkpt>
<trkpt lat="55.706638" lon="26.123096">
<ele>148.541138</ele>
<time>2010-07-18T06:41:31Z</time>
<desc>lat.=55.706638, lon.=26.123096, Alt.=148.541138m. Speed=15.732000m/h.</desc>
<speed>4.370000</speed>
</trkpt>
<trkpt lat="55.706650" lon="26.123163">
<ele>148.443481</ele>
<time>2010-07-18T06:41:32Z</time>
<desc>lat.=55.706650, lon.=26.123163, Alt.=148.443481m. Speed=15.480000m/h.</desc>
<speed>4.300000</speed>
</trkpt>
<trkpt lat="55.706665" lon="26.123226">
<ele>148.627075</ele>
<time>2010-07-18T06:41:33Z</time>
<desc>lat.=55.706665, lon.=26.123226, Alt.=148.627075m. Speed=15.228000m/h.</desc>
<speed>4.230000</speed>
</trkpt>
<trkpt lat="55.706696" lon="26.123295">
<ele>148.560669</ele>
<time>2010-07-18T06:41:34Z</time>
<desc>lat.=55.706696, lon.=26.123295, Alt.=148.560669m. Speed=15.408000m/h.</desc>
<speed>4.280000</speed>
</trkpt>
<trkpt lat="55.706711" lon="26.123346">
<ele>148.420044</ele>
<time>2010-07-18T06:41:35Z</time>
<desc>lat.=55.706711, lon.=26.123346, Alt.=148.420044m. Speed=14.688000m/h.</desc>
<speed>4.080000</speed>
</trkpt>
<trkpt lat="55.706722" lon="26.123400">
<ele>148.642700</ele>
<time>2010-07-18T06:41:36Z</time>
<desc>lat.=55.706722, lon.=26.123400, Alt.=148.642700m. Speed=13.968000m/h.</desc>
<speed>3.880000</speed>
</trkpt>
<trkpt lat="55.706734" lon="26.123453">
<ele>148.630981</ele>
<time>2010-07-18T06:41:37Z</time>
<desc>lat.=55.706734, lon.=26.123453, Alt.=148.630981m. Speed=14.256000m/h.</desc>
<speed>3.960000</speed>
</trkpt>
<trkpt lat="55.706741" lon="26.123503">
<ele>148.423950</ele>
<time>2010-07-18T06:41:38Z</time>
<desc>lat.=55.706741, lon.=26.123503, Alt.=148.423950m. Speed=15.084000m/h.</desc>
<speed>4.190000</speed>
</trkpt>
<trkpt lat="55.706749" lon="26.123568">
<ele>149.029419</ele>
<time>2010-07-18T06:41:39Z</time>
<desc>lat.=55.706749, lon.=26.123568, Alt.=149.029419m. Speed=15.660000m/h.</desc>
<speed>4.350000</speed>
</trkpt>
<trkpt lat="55.706776" lon="26.123631">
<ele>148.630981</ele>
<time>2010-07-18T06:41:40Z</time>
<desc>lat.=55.706776, lon.=26.123631, Alt.=148.630981m. Speed=15.768000m/h.</desc>
<speed>4.380000</speed>
</trkpt>
<trkpt lat="55.706791" lon="26.123692">
<ele>148.373169</ele>
<time>2010-07-18T06:41:41Z</time>
<desc>lat.=55.706791, lon.=26.123692, Alt.=148.373169m. Speed=16.056000m/h.</desc>
<speed>4.460000</speed>
</trkpt>
<trkpt lat="55.706806" lon="26.123760">
<ele>147.834106</ele>
<time>2010-07-18T06:41:42Z</time>
<desc>lat.=55.706806, lon.=26.123760, Alt.=147.834106m. Speed=15.876000m/h.</desc>
<speed>4.410000</speed>
</trkpt>
<trkpt lat="55.706825" lon="26.123835">
<ele>148.181763</ele>
<time>2010-07-18T06:41:43Z</time>
<desc>lat.=55.706825, lon.=26.123835, Alt.=148.181763m. Speed=16.488001m/h.</desc>
<speed>4.580000</speed>
</trkpt>
<trkpt lat="55.706848" lon="26.123899">
<ele>148.349731</ele>
<time>2010-07-18T06:41:44Z</time>
<desc>lat.=55.706848, lon.=26.123899, Alt.=148.349731m. Speed=16.992001m/h.</desc>
<speed>4.720000</speed>
</trkpt>
<trkpt lat="55.706871" lon="26.123976">
<ele>147.939575</ele>
<time>2010-07-18T06:41:45Z</time>
<desc>lat.=55.706871, lon.=26.123976, Alt.=147.939575m. Speed=17.784000m/h.</desc>
<speed>4.940000</speed>
</trkpt>
<trkpt lat="55.706898" lon="26.124037">
<ele>148.787231</ele>
<time>2010-07-18T06:41:46Z</time>
<desc>lat.=55.706898, lon.=26.124037, Alt.=148.787231m. Speed=18.000000m/h.</desc>
<speed>5.000000</speed>
</trkpt>
<trkpt lat="55.706921" lon="26.124105">
<ele>148.607544</ele>
<time>2010-07-18T06:41:47Z</time>
<desc>lat.=55.706921, lon.=26.124105, Alt.=148.607544m. Speed=17.172001m/h.</desc>
<speed>4.770000</speed>
</trkpt>
<trkpt lat="55.706944" lon="26.124176">
<ele>149.033325</ele>
<time>2010-07-18T06:41:48Z</time>
<desc>lat.=55.706944, lon.=26.124176, Alt.=149.033325m. Speed=17.063999m/h.</desc>
<speed>4.740000</speed>
</trkpt>
<trkpt lat="55.706966" lon="26.124233">
<ele>148.431763</ele>
<time>2010-07-18T06:41:49Z</time>
<desc>lat.=55.706966, lon.=26.124233, Alt.=148.431763m. Speed=16.992001m/h.</desc>
<speed>4.720000</speed>
</trkpt>
<trkpt lat="55.706997" lon="26.124300">
<ele>148.525513</ele>
<time>2010-07-18T06:41:50Z</time>
<desc>lat.=55.706997, lon.=26.124300, Alt.=148.525513m. Speed=18.323999m/h.</desc>
<speed>5.090000</speed>
</trkpt>
<trkpt lat="55.707024" lon="26.124371">
<ele>148.599731</ele>
<time>2010-07-18T06:41:51Z</time>
<desc>lat.=55.707024, lon.=26.124371, Alt.=148.599731m. Speed=18.576000m/h.</desc>
<speed>5.160000</speed>
</trkpt>
<trkpt lat="55.707047" lon="26.124445">
<ele>148.630981</ele>
<time>2010-07-18T06:41:52Z</time>
<desc>lat.=55.707047, lon.=26.124445, Alt.=148.630981m. Speed=19.872000m/h.</desc>
<speed>5.520000</speed>
</trkpt>
<trkpt lat="55.707069" lon="26.124533">
<ele>149.545044</ele>
<time>2010-07-18T06:41:53Z</time>
<desc>lat.=55.707069, lon.=26.124533, Alt.=149.545044m. Speed=20.195999m/h.</desc>
<speed>5.610000</speed>
</trkpt>
<trkpt lat="55.707088" lon="26.124622">
<ele>149.232544</ele>
<time>2010-07-18T06:41:54Z</time>
<desc>lat.=55.707088, lon.=26.124622, Alt.=149.232544m. Speed=20.952000m/h.</desc>
<speed>5.820000</speed>
</trkpt>
<trkpt lat="55.707115" lon="26.124714">
<ele>149.334106</ele>
<time>2010-07-18T06:41:55Z</time>
<desc>lat.=55.707115, lon.=26.124714, Alt.=149.334106m. Speed=21.672001m/h.</desc>
<speed>6.020000</speed>
</trkpt>
<trkpt lat="55.707146" lon="26.124800">
<ele>149.525513</ele>
<time>2010-07-18T06:41:56Z</time>
<desc>lat.=55.707146, lon.=26.124800, Alt.=149.525513m. Speed=21.492001m/h.</desc>
<speed>5.970000</speed>
</trkpt>
<trkpt lat="55.707172" lon="26.124880">
<ele>149.447388</ele>
<time>2010-07-18T06:41:57Z</time>
<desc>lat.=55.707172, lon.=26.124880, Alt.=149.447388m. Speed=20.952000m/h.</desc>
<speed>5.820000</speed>
</trkpt>
<trkpt lat="55.707191" lon="26.124968">
<ele>149.197388</ele>
<time>2010-07-18T06:41:58Z</time>
<desc>lat.=55.707191, lon.=26.124968, Alt.=149.197388m. Speed=22.068001m/h.</desc>
<speed>6.130000</speed>
</trkpt>
<trkpt lat="55.707222" lon="26.125051">
<ele>149.252075</ele>
<time>2010-07-18T06:41:59Z</time>
<desc>lat.=55.707222, lon.=26.125051, Alt.=149.252075m. Speed=21.275999m/h.</desc>
<speed>5.910000</speed>
</trkpt>
<trkpt lat="55.707245" lon="26.125132">
<ele>149.318481</ele>
<time>2010-07-18T06:42:00Z</time>
<desc>lat.=55.707245, lon.=26.125132, Alt.=149.318481m. Speed=20.591999m/h.</desc>
<speed>5.720000</speed>
</trkpt>
<trkpt lat="55.707272" lon="26.125204">
<ele>149.271606</ele>
<time>2010-07-18T06:42:01Z</time>
<desc>lat.=55.707272, lon.=26.125204, Alt.=149.271606m. Speed=19.799999m/h.</desc>
<speed>5.500000</speed>
</trkpt>
<trkpt lat="55.707294" lon="26.125278">
<ele>149.435669</ele>
<time>2010-07-18T06:42:02Z</time>
<desc>lat.=55.707294, lon.=26.125278, Alt.=149.435669m. Speed=19.080000m/h.</desc>
<speed>5.300000</speed>
</trkpt>
<trkpt lat="55.707317" lon="26.125355">
<ele>149.529419</ele>
<time>2010-07-18T06:42:03Z</time>
<desc>lat.=55.707317, lon.=26.125355, Alt.=149.529419m. Speed=18.612000m/h.</desc>
<speed>5.170000</speed>
</trkpt>
<trkpt lat="55.707340" lon="26.125422">
<ele>149.826294</ele>
<time>2010-07-18T06:42:04Z</time>
<desc>lat.=55.707340, lon.=26.125422, Alt.=149.826294m. Speed=17.604000m/h.</desc>
<speed>4.890000</speed>
</trkpt>
<trkpt lat="55.707363" lon="26.125484">
<ele>149.666138</ele>
<time>2010-07-18T06:42:05Z</time>
<desc>lat.=55.707363, lon.=26.125484, Alt.=149.666138m. Speed=17.424000m/h.</desc>
<speed>4.840000</speed>
</trkpt>
<trkpt lat="55.707378" lon="26.125555">
<ele>148.959106</ele>
<time>2010-07-18T06:42:06Z</time>
<desc>lat.=55.707378, lon.=26.125555, Alt.=148.959106m. Speed=15.732000m/h.</desc>
<speed>4.370000</speed>
</trkpt>
<trkpt lat="55.707401" lon="26.125633">
<ele>148.607544</ele>
<time>2010-07-18T06:42:07Z</time>
<desc>lat.=55.707401, lon.=26.125633, Alt.=148.607544m. Speed=15.264000m/h.</desc>
<speed>4.240000</speed>
</trkpt>
<trkpt lat="55.707424" lon="26.125694">
<ele>145.685669</ele>
<time>2010-07-18T06:42:08Z</time>
<desc>lat.=55.707424, lon.=26.125694, Alt.=145.685669m. Speed=17.243999m/h.</desc>
<speed>4.790000</speed>
</trkpt>
<trkpt lat="55.707443" lon="26.125759">
<ele>145.830200</ele>
<time>2010-07-18T06:42:09Z</time>
<desc>lat.=55.707443, lon.=26.125759, Alt.=145.830200m. Speed=14.976000m/h.</desc>
<speed>4.160000</speed>
</trkpt>
<trkpt lat="55.707474" lon="26.125818">
<ele>146.740356</ele>
<time>2010-07-18T06:42:10Z</time>
<desc>lat.=55.707474, lon.=26.125818, Alt.=146.740356m. Speed=16.308001m/h.</desc>
<speed>4.530000</speed>
</trkpt>
<trkpt lat="55.707489" lon="26.125885">
<ele>146.666138</ele>
<time>2010-07-18T06:42:11Z</time>
<desc>lat.=55.707489, lon.=26.125885, Alt.=146.666138m. Speed=15.516000m/h.</desc>
<speed>4.310000</speed>
</trkpt>
<trkpt lat="55.707493" lon="26.125946">
<ele>148.439575</ele>
<time>2010-07-18T06:42:12Z</time>
<desc>lat.=55.707493, lon.=26.125946, Alt.=148.439575m. Speed=14.400000m/h.</desc>
<speed>4.000000</speed>
</trkpt>
<trkpt lat="55.707512" lon="26.125992">
<ele>148.670044</ele>
<time>2010-07-18T06:42:13Z</time>
<desc>lat.=55.707512, lon.=26.125992, Alt.=148.670044m. Speed=10.440000m/h.</desc>
<speed>2.900000</speed>
</trkpt>
<trkpt lat="55.707523" lon="26.126026">
<ele>150.002075</ele>
<time>2010-07-18T06:42:14Z</time>
<desc>lat.=55.707523, lon.=26.126026, Alt.=150.002075m. Speed=10.548000m/h.</desc>
<speed>2.930000</speed>
</trkpt>
<trkpt lat="55.707535" lon="26.126068">
<ele>151.037231</ele>
<time>2010-07-18T06:42:15Z</time>
<desc>lat.=55.707535, lon.=26.126068, Alt.=151.037231m. Speed=9.612000m/h.</desc>
<speed>2.670000</speed>
</trkpt>
<trkpt lat="55.707539" lon="26.126112">
<ele>150.619263</ele>
<time>2010-07-18T06:42:16Z</time>
<desc>lat.=55.707539, lon.=26.126112, Alt.=150.619263m. Speed=9.000000m/h.</desc>
<speed>2.500000</speed>
</trkpt>
<trkpt lat="55.707546" lon="26.126148">
<ele>151.345825</ele>
<time>2010-07-18T06:42:17Z</time>
<desc>lat.=55.707546, lon.=26.126148, Alt.=151.345825m. Speed=8.424000m/h.</desc>
<speed>2.340000</speed>
</trkpt>
<trkpt lat="55.707554" lon="26.126188">
<ele>152.400513</ele>
<time>2010-07-18T06:42:18Z</time>
<desc>lat.=55.707554, lon.=26.126188, Alt.=152.400513m. Speed=8.136000m/h.</desc>
<speed>2.260000</speed>
</trkpt>
<trkpt lat="55.707558" lon="26.126230">
<ele>152.963013</ele>
<time>2010-07-18T06:42:19Z</time>
<desc>lat.=55.707558, lon.=26.126230, Alt.=152.963013m. Speed=8.892000m/h.</desc>
<speed>2.470000</speed>
</trkpt>
<trkpt lat="55.707565" lon="26.126274">
<ele>153.771606</ele>
<time>2010-07-18T06:42:20Z</time>
<desc>lat.=55.707565, lon.=26.126274, Alt.=153.771606m. Speed=9.396000m/h.</desc>
<speed>2.610000</speed>
</trkpt>
<trkpt lat="55.707565" lon="26.126322">
<ele>154.056763</ele>
<time>2010-07-18T06:42:21Z</time>
<desc>lat.=55.707565, lon.=26.126322, Alt.=154.056763m. Speed=8.640000m/h.</desc>
<speed>2.400000</speed>
</trkpt>
<trkpt lat="55.707569" lon="26.126364">
<ele>154.181763</ele>
<time>2010-07-18T06:42:22Z</time>
<desc>lat.=55.707569, lon.=26.126364, Alt.=154.181763m. Speed=8.604000m/h.</desc>
<speed>2.390000</speed>
</trkpt>
<trkpt lat="55.707573" lon="26.126408">
<ele>154.595825</ele>
<time>2010-07-18T06:42:23Z</time>
<desc>lat.=55.707573, lon.=26.126408, Alt.=154.595825m. Speed=8.100000m/h.</desc>
<speed>2.250000</speed>
</trkpt>
<trkpt lat="55.707577" lon="26.126450">
<ele>155.162231</ele>
<time>2010-07-18T06:42:24Z</time>
<desc>lat.=55.707577, lon.=26.126450, Alt.=155.162231m. Speed=7.488000m/h.</desc>
<speed>2.080000</speed>
</trkpt>
<trkpt lat="55.707584" lon="26.126493">
<ele>155.334106</ele>
<time>2010-07-18T06:42:25Z</time>
<desc>lat.=55.707584, lon.=26.126493, Alt.=155.334106m. Speed=7.236000m/h.</desc>
<speed>2.010000</speed>
</trkpt>
<trkpt lat="55.707592" lon="26.126545">
<ele>157.423950</ele>
<time>2010-07-18T06:42:26Z</time>
<desc>lat.=55.707592, lon.=26.126545, Alt.=157.423950m. Speed=7.884000m/h.</desc>
<speed>2.190000</speed>
</trkpt>
<trkpt lat="55.707600" lon="26.126587">
<ele>157.423950</ele>
<time>2010-07-18T06:42:27Z</time>
<desc>lat.=55.707600, lon.=26.126587, Alt.=157.423950m. Speed=8.460000m/h.</desc>
<speed>2.350000</speed>
</trkpt>
<trkpt lat="55.707603" lon="26.126627">
<ele>157.533325</ele>
<time>2010-07-18T06:42:28Z</time>
<desc>lat.=55.707603, lon.=26.126627, Alt.=157.533325m. Speed=8.208000m/h.</desc>
<speed>2.280000</speed>
</trkpt>
<trkpt lat="55.707615" lon="26.126663">
<ele>157.509888</ele>
<time>2010-07-18T06:42:29Z</time>
<desc>lat.=55.707615, lon.=26.126663, Alt.=157.509888m. Speed=8.964000m/h.</desc>
<speed>2.490000</speed>
</trkpt>
<trkpt lat="55.707619" lon="26.126701">
<ele>157.314575</ele>
<time>2010-07-18T06:42:30Z</time>
<desc>lat.=55.707619, lon.=26.126701, Alt.=157.314575m. Speed=9.072000m/h.</desc>
<speed>2.520000</speed>
</trkpt>
<trkpt lat="55.707638" lon="26.126753">
<ele>156.779419</ele>
<time>2010-07-18T06:42:31Z</time>
<desc>lat.=55.707638, lon.=26.126753, Alt.=156.779419m. Speed=9.144000m/h.</desc>
<speed>2.540000</speed>
</trkpt>
<trkpt lat="55.707649" lon="26.126806">
<ele>156.627075</ele>
<time>2010-07-18T06:42:32Z</time>
<desc>lat.=55.707649, lon.=26.126806, Alt.=156.627075m. Speed=10.224000m/h.</desc>
<speed>2.840000</speed>
</trkpt>
<trkpt lat="55.707657" lon="26.126867">
<ele>156.291138</ele>
<time>2010-07-18T06:42:33Z</time>
<desc>lat.=55.707657, lon.=26.126867, Alt.=156.291138m. Speed=11.124000m/h.</desc>
<speed>3.090000</speed>
</trkpt>
<trkpt lat="55.707676" lon="26.126940">
<ele>155.564575</ele>
<time>2010-07-18T06:42:34Z</time>
<desc>lat.=55.707676, lon.=26.126940, Alt.=155.564575m. Speed=12.204000m/h.</desc>
<speed>3.390000</speed>
</trkpt>
<trkpt lat="55.707706" lon="26.127003">
<ele>157.865356</ele>
<time>2010-07-18T06:42:35Z</time>
<desc>lat.=55.707706, lon.=26.127003, Alt.=157.865356m. Speed=12.456000m/h.</desc>
<speed>3.460000</speed>
</trkpt>
<trkpt lat="55.707710" lon="26.127064">
<ele>159.443481</ele>
<time>2010-07-18T06:42:36Z</time>
<desc>lat.=55.707710, lon.=26.127064, Alt.=159.443481m. Speed=12.132000m/h.</desc>
<speed>3.370000</speed>
</trkpt>
<trkpt lat="55.707726" lon="26.127125">
<ele>160.068481</ele>
<time>2010-07-18T06:42:37Z</time>
<desc>lat.=55.707726, lon.=26.127125, Alt.=160.068481m. Speed=11.772000m/h.</desc>
<speed>3.270000</speed>
</trkpt>
<trkpt lat="55.707729" lon="26.127182">
<ele>159.474731</ele>
<time>2010-07-18T06:42:38Z</time>
<desc>lat.=55.707729, lon.=26.127182, Alt.=159.474731m. Speed=9.792000m/h.</desc>
<speed>2.720000</speed>
</trkpt>
<trkpt lat="55.707752" lon="26.127235">
<ele>158.603638</ele>
<time>2010-07-18T06:42:39Z</time>
<desc>lat.=55.707752, lon.=26.127235, Alt.=158.603638m. Speed=10.656000m/h.</desc>
<speed>2.960000</speed>
</trkpt>
<trkpt lat="55.707771" lon="26.127295">
<ele>159.150513</ele>
<time>2010-07-18T06:42:40Z</time>
<desc>lat.=55.707771, lon.=26.127295, Alt.=159.150513m. Speed=12.276000m/h.</desc>
<speed>3.410000</speed>
</trkpt>
<trkpt lat="55.707783" lon="26.127359">
<ele>158.420044</ele>
<time>2010-07-18T06:42:41Z</time>
<desc>lat.=55.707783, lon.=26.127359, Alt.=158.420044m. Speed=12.204000m/h.</desc>
<speed>3.390000</speed>
</trkpt>
<trkpt lat="55.707790" lon="26.127428">
<ele>157.275513</ele>
<time>2010-07-18T06:42:42Z</time>
<desc>lat.=55.707790, lon.=26.127428, Alt.=157.275513m. Speed=12.204000m/h.</desc>
<speed>3.390000</speed>
</trkpt>
<trkpt lat="55.707790" lon="26.127489">
<ele>158.048950</ele>
<time>2010-07-18T06:42:43Z</time>
<desc>lat.=55.707790, lon.=26.127489, Alt.=158.048950m. Speed=13.572000m/h.</desc>
<speed>3.770000</speed>
</trkpt>
<trkpt lat="55.707806" lon="26.127552">
<ele>157.505981</ele>
<time>2010-07-18T06:42:44Z</time>
<desc>lat.=55.707806, lon.=26.127552, Alt.=157.505981m. Speed=13.140000m/h.</desc>
<speed>3.650000</speed>
</trkpt>
<trkpt lat="55.707817" lon="26.127615">
<ele>156.798950</ele>
<time>2010-07-18T06:42:45Z</time>
<desc>lat.=55.707817, lon.=26.127615, Alt.=156.798950m. Speed=14.400000m/h.</desc>
<speed>4.000000</speed>
</trkpt>
<trkpt lat="55.707825" lon="26.127691">
<ele>156.240356</ele>
<time>2010-07-18T06:42:46Z</time>
<desc>lat.=55.707825, lon.=26.127691, Alt.=156.240356m. Speed=17.676001m/h.</desc>
<speed>4.910000</speed>
</trkpt>
<trkpt lat="55.707840" lon="26.127779">
<ele>155.920044</ele>
<time>2010-07-18T06:42:47Z</time>
<desc>lat.=55.707840, lon.=26.127779, Alt.=155.920044m. Speed=19.440001m/h.</desc>
<speed>5.400000</speed>
</trkpt>
<trkpt lat="55.707859" lon="26.127850">
<ele>157.986450</ele>
<time>2010-07-18T06:42:48Z</time>
<desc>lat.=55.707859, lon.=26.127850, Alt.=157.986450m. Speed=16.992001m/h.</desc>
<speed>4.720000</speed>
</trkpt>
<trkpt lat="55.707878" lon="26.127928">
<ele>159.326294</ele>
<time>2010-07-18T06:42:49Z</time>
<desc>lat.=55.707878, lon.=26.127928, Alt.=159.326294m. Speed=19.368000m/h.</desc>
<speed>5.380000</speed>
</trkpt>
<trkpt lat="55.707901" lon="26.128014">
<ele>160.334106</ele>
<time>2010-07-18T06:42:50Z</time>
<desc>lat.=55.707901, lon.=26.128014, Alt.=160.334106m. Speed=19.368000m/h.</desc>
<speed>5.380000</speed>
</trkpt>
<trkpt lat="55.707916" lon="26.128111">
<ele>160.005981</ele>
<time>2010-07-18T06:42:51Z</time>
<desc>lat.=55.707916, lon.=26.128111, Alt.=160.005981m. Speed=20.016001m/h.</desc>
<speed>5.560000</speed>
</trkpt>
<trkpt lat="55.707916" lon="26.128206">
<ele>160.259888</ele>
<time>2010-07-18T06:42:52Z</time>
<desc>lat.=55.707916, lon.=26.128206, Alt.=160.259888m. Speed=19.764000m/h.</desc>
<speed>5.490000</speed>
</trkpt>
<trkpt lat="55.707947" lon="26.128288">
<ele>158.779419</ele>
<time>2010-07-18T06:42:53Z</time>
<desc>lat.=55.707947, lon.=26.128288, Alt.=158.779419m. Speed=19.296000m/h.</desc>
<speed>5.360000</speed>
</trkpt>
<trkpt lat="55.707954" lon="26.128391">
<ele>157.904419</ele>
<time>2010-07-18T06:42:54Z</time>
<desc>lat.=55.707954, lon.=26.128391, Alt.=157.904419m. Speed=20.700001m/h.</desc>
<speed>5.750000</speed>
</trkpt>
<trkpt lat="55.707958" lon="26.128489">
<ele>158.150513</ele>
<time>2010-07-18T06:42:55Z</time>
<desc>lat.=55.707958, lon.=26.128489, Alt.=158.150513m. Speed=20.016001m/h.</desc>
<speed>5.560000</speed>
</trkpt>
<trkpt lat="55.707958" lon="26.128592">
<ele>157.283325</ele>
<time>2010-07-18T06:42:56Z</time>
<desc>lat.=55.707958, lon.=26.128592, Alt.=157.283325m. Speed=20.520000m/h.</desc>
<speed>5.700000</speed>
</trkpt>
<trkpt lat="55.707962" lon="26.128681">
<ele>157.009888</ele>
<time>2010-07-18T06:42:57Z</time>
<desc>lat.=55.707962, lon.=26.128681, Alt.=157.009888m. Speed=18.756001m/h.</desc>
<speed>5.210000</speed>
</trkpt>
<trkpt lat="55.707962" lon="26.128761">
<ele>155.709106</ele>
<time>2010-07-18T06:42:58Z</time>
<desc>lat.=55.707962, lon.=26.128761, Alt.=155.709106m. Speed=17.676001m/h.</desc>
<speed>4.910000</speed>
</trkpt>
<trkpt lat="55.707970" lon="26.128838">
<ele>155.002075</ele>
<time>2010-07-18T06:42:59Z</time>
<desc>lat.=55.707970, lon.=26.128838, Alt.=155.002075m. Speed=19.188000m/h.</desc>
<speed>5.330000</speed>
</trkpt>
<trkpt lat="55.707973" lon="26.128922">
<ele>154.724731</ele>
<time>2010-07-18T06:43:00Z</time>
<desc>lat.=55.707973, lon.=26.128922, Alt.=154.724731m. Speed=19.944000m/h.</desc>
<speed>5.540000</speed>
</trkpt>
<trkpt lat="55.707973" lon="26.129011">
<ele>153.990356</ele>
<time>2010-07-18T06:43:01Z</time>
<desc>lat.=55.707973, lon.=26.129011, Alt.=153.990356m. Speed=18.827999m/h.</desc>
<speed>5.230000</speed>
</trkpt>
<trkpt lat="55.707981" lon="26.129093">
<ele>153.767700</ele>
<time>2010-07-18T06:43:02Z</time>
<desc>lat.=55.707981, lon.=26.129093, Alt.=153.767700m. Speed=18.035999m/h.</desc>
<speed>5.010000</speed>
</trkpt>
<trkpt lat="55.707996" lon="26.129173">
<ele>155.822388</ele>
<time>2010-07-18T06:43:03Z</time>
<desc>lat.=55.707996, lon.=26.129173, Alt.=155.822388m. Speed=17.243999m/h.</desc>
<speed>4.790000</speed>
</trkpt>
<trkpt lat="55.708000" lon="26.129246">
<ele>155.744263</ele>
<time>2010-07-18T06:43:04Z</time>
<desc>lat.=55.708000, lon.=26.129246, Alt.=155.744263m. Speed=16.884001m/h.</desc>
<speed>4.690000</speed>
</trkpt>
<trkpt lat="55.708004" lon="26.129324">
<ele>155.658325</ele>
<time>2010-07-18T06:43:05Z</time>
<desc>lat.=55.708004, lon.=26.129324, Alt.=155.658325m. Speed=16.884001m/h.</desc>
<speed>4.690000</speed>
</trkpt>
<trkpt lat="55.708008" lon="26.129404">
<ele>155.728638</ele>
<time>2010-07-18T06:43:06Z</time>
<desc>lat.=55.708008, lon.=26.129404, Alt.=155.728638m. Speed=17.351999m/h.</desc>
<speed>4.820000</speed>
</trkpt>
<trkpt lat="55.708004" lon="26.129488">
<ele>155.584106</ele>
<time>2010-07-18T06:43:07Z</time>
<desc>lat.=55.708004, lon.=26.129488, Alt.=155.584106m. Speed=17.316000m/h.</desc>
<speed>4.810000</speed>
</trkpt>
<trkpt lat="55.708000" lon="26.129574">
<ele>155.545044</ele>
<time>2010-07-18T06:43:08Z</time>
<desc>lat.=55.708000, lon.=26.129574, Alt.=155.545044m. Speed=18.252001m/h.</desc>
<speed>5.070000</speed>
</trkpt>
<trkpt lat="55.707993" lon="26.129662">
<ele>155.505981</ele>
<time>2010-07-18T06:43:09Z</time>
<desc>lat.=55.707993, lon.=26.129662, Alt.=155.505981m. Speed=19.080000m/h.</desc>
<speed>5.300000</speed>
</trkpt>
<trkpt lat="55.707985" lon="26.129759">
<ele>155.025513</ele>
<time>2010-07-18T06:43:10Z</time>
<desc>lat.=55.707985, lon.=26.129759, Alt.=155.025513m. Speed=19.584000m/h.</desc>
<speed>5.440000</speed>
</trkpt>
<trkpt lat="55.707977" lon="26.129850">
<ele>154.513794</ele>
<time>2010-07-18T06:43:11Z</time>
<desc>lat.=55.707977, lon.=26.129850, Alt.=154.513794m. Speed=20.052000m/h.</desc>
<speed>5.570000</speed>
</trkpt>
<trkpt lat="55.707973" lon="26.129946">
<ele>154.263794</ele>
<time>2010-07-18T06:43:12Z</time>
<desc>lat.=55.707973, lon.=26.129946, Alt.=154.263794m. Speed=19.584000m/h.</desc>
<speed>5.440000</speed>
</trkpt>
<trkpt lat="55.707973" lon="26.130033">
<ele>154.185669</ele>
<time>2010-07-18T06:43:13Z</time>
<desc>lat.=55.707973, lon.=26.130033, Alt.=154.185669m. Speed=20.304001m/h.</desc>
<speed>5.640000</speed>
</trkpt>
<trkpt lat="55.707977" lon="26.130129">
<ele>154.459106</ele>
<time>2010-07-18T06:43:14Z</time>
<desc>lat.=55.707977, lon.=26.130129, Alt.=154.459106m. Speed=21.204000m/h.</desc>
<speed>5.890000</speed>
</trkpt>
<trkpt lat="55.707993" lon="26.130230">
<ele>154.494263</ele>
<time>2010-07-18T06:43:15Z</time>
<desc>lat.=55.707993, lon.=26.130230, Alt.=154.494263m. Speed=21.240000m/h.</desc>
<speed>5.900000</speed>
</trkpt>
<trkpt lat="55.708000" lon="26.130322">
<ele>154.435669</ele>
<time>2010-07-18T06:43:16Z</time>
<desc>lat.=55.708000, lon.=26.130322, Alt.=154.435669m. Speed=20.340000m/h.</desc>
<speed>5.650000</speed>
</trkpt>
<trkpt lat="55.708008" lon="26.130419">
<ele>153.802856</ele>
<time>2010-07-18T06:43:17Z</time>
<desc>lat.=55.708008, lon.=26.130419, Alt.=153.802856m. Speed=19.584000m/h.</desc>
<speed>5.440000</speed>
</trkpt>
<trkpt lat="55.708015" lon="26.130505">
<ele>152.880981</ele>
<time>2010-07-18T06:43:18Z</time>
<desc>lat.=55.708015, lon.=26.130505, Alt.=152.880981m. Speed=18.719999m/h.</desc>
<speed>5.200000</speed>
</trkpt>
<trkpt lat="55.708023" lon="26.130590">
<ele>152.693481</ele>
<time>2010-07-18T06:43:19Z</time>
<desc>lat.=55.708023, lon.=26.130590, Alt.=152.693481m. Speed=18.000000m/h.</desc>
<speed>5.000000</speed>
</trkpt>
<trkpt lat="55.708038" lon="26.130672">
<ele>152.431763</ele>
<time>2010-07-18T06:43:20Z</time>
<desc>lat.=55.708038, lon.=26.130672, Alt.=152.431763m. Speed=18.504000m/h.</desc>
<speed>5.140000</speed>
</trkpt>
<trkpt lat="55.708054" lon="26.130745">
<ele>152.474731</ele>
<time>2010-07-18T06:43:21Z</time>
<desc>lat.=55.708054, lon.=26.130745, Alt.=152.474731m. Speed=17.459999m/h.</desc>
<speed>4.850000</speed>
</trkpt>
<trkpt lat="55.708073" lon="26.130817">
<ele>151.677856</ele>
<time>2010-07-18T06:43:22Z</time>
<desc>lat.=55.708073, lon.=26.130817, Alt.=151.677856m. Speed=16.920000m/h.</desc>
<speed>4.700000</speed>
</trkpt>
<trkpt lat="55.708092" lon="26.130890">
<ele>150.654419</ele>
<time>2010-07-18T06:43:23Z</time>
<desc>lat.=55.708092, lon.=26.130890, Alt.=150.654419m. Speed=15.372000m/h.</desc>
<speed>4.270000</speed>
</trkpt>
<trkpt lat="55.708111" lon="26.130970">
<ele>150.146606</ele>
<time>2010-07-18T06:43:24Z</time>
<desc>lat.=55.708111, lon.=26.130970, Alt.=150.146606m. Speed=16.056000m/h.</desc>
<speed>4.460000</speed>
</trkpt>
<trkpt lat="55.708138" lon="26.131035">
<ele>150.920044</ele>
<time>2010-07-18T06:43:25Z</time>
<desc>lat.=55.708138, lon.=26.131035, Alt.=150.920044m. Speed=15.264000m/h.</desc>
<speed>4.240000</speed>
</trkpt>
<trkpt lat="55.708164" lon="26.131109">
<ele>150.189575</ele>
<time>2010-07-18T06:43:26Z</time>
<desc>lat.=55.708164, lon.=26.131109, Alt.=150.189575m. Speed=15.408000m/h.</desc>
<speed>4.280000</speed>
</trkpt>
<trkpt lat="55.708179" lon="26.131180">
<ele>149.884888</ele>
<time>2010-07-18T06:43:27Z</time>
<desc>lat.=55.708179, lon.=26.131180, Alt.=149.884888m. Speed=15.444000m/h.</desc>
<speed>4.290000</speed>
</trkpt>
<trkpt lat="55.708195" lon="26.131245">
<ele>149.998169</ele>
<time>2010-07-18T06:43:28Z</time>
<desc>lat.=55.708195, lon.=26.131245, Alt.=149.998169m. Speed=16.452000m/h.</desc>
<speed>4.570000</speed>
</trkpt>
<trkpt lat="55.708218" lon="26.131321">
<ele>149.560669</ele>
<time>2010-07-18T06:43:29Z</time>
<desc>lat.=55.708218, lon.=26.131321, Alt.=149.560669m. Speed=16.992001m/h.</desc>
<speed>4.720000</speed>
</trkpt>
<trkpt lat="55.708248" lon="26.131395">
<ele>150.505981</ele>
<time>2010-07-18T06:43:30Z</time>
<desc>lat.=55.708248, lon.=26.131395, Alt.=150.505981m. Speed=16.992001m/h.</desc>
<speed>4.720000</speed>
</trkpt>
<trkpt lat="55.708271" lon="26.131462">
<ele>150.556763</ele>
<time>2010-07-18T06:43:31Z</time>
<desc>lat.=55.708271, lon.=26.131462, Alt.=150.556763m. Speed=16.308001m/h.</desc>
<speed>4.530000</speed>
</trkpt>
<trkpt lat="55.708294" lon="26.131523">
<ele>150.795044</ele>
<time>2010-07-18T06:43:32Z</time>
<desc>lat.=55.708294, lon.=26.131523, Alt.=150.795044m. Speed=16.559999m/h.</desc>
<speed>4.600000</speed>
</trkpt>
<trkpt lat="55.708317" lon="26.131578">
<ele>150.943481</ele>
<time>2010-07-18T06:43:33Z</time>
<desc>lat.=55.708317, lon.=26.131578, Alt.=150.943481m. Speed=15.228000m/h.</desc>
<speed>4.230000</speed>
</trkpt>
<trkpt lat="55.708344" lon="26.131638">
<ele>150.709106</ele>
<time>2010-07-18T06:43:34Z</time>
<desc>lat.=55.708344, lon.=26.131638, Alt.=150.709106m. Speed=15.480000m/h.</desc>
<speed>4.300000</speed>
</trkpt>
<trkpt lat="55.708370" lon="26.131687">
<ele>151.795044</ele>
<time>2010-07-18T06:43:35Z</time>
<desc>lat.=55.708370, lon.=26.131687, Alt.=151.795044m. Speed=15.912000m/h.</desc>
<speed>4.420000</speed>
</trkpt>
<trkpt lat="55.708397" lon="26.131748">
<ele>153.095825</ele>
<time>2010-07-18T06:43:36Z</time>
<desc>lat.=55.708397, lon.=26.131748, Alt.=153.095825m. Speed=14.436000m/h.</desc>
<speed>4.010000</speed>
</trkpt>
<trkpt lat="55.708420" lon="26.131802">
<ele>154.771606</ele>
<time>2010-07-18T06:43:37Z</time>
<desc>lat.=55.708420, lon.=26.131802, Alt.=154.771606m. Speed=14.472000m/h.</desc>
<speed>4.020000</speed>
</trkpt>
<trkpt lat="55.708443" lon="26.131849">
<ele>155.224731</ele>
<time>2010-07-18T06:43:38Z</time>
<desc>lat.=55.708443, lon.=26.131849, Alt.=155.224731m. Speed=14.400000m/h.</desc>
<speed>4.000000</speed>
</trkpt>
<trkpt lat="55.708466" lon="26.131893">
<ele>154.244263</ele>
<time>2010-07-18T06:43:39Z</time>
<desc>lat.=55.708466, lon.=26.131893, Alt.=154.244263m. Speed=11.736000m/h.</desc>
<speed>3.260000</speed>
</trkpt>
<trkpt lat="55.708485" lon="26.131941">
<ele>154.392700</ele>
<time>2010-07-18T06:43:40Z</time>
<desc>lat.=55.708485, lon.=26.131941, Alt.=154.392700m. Speed=13.536000m/h.</desc>
<speed>3.760000</speed>
</trkpt>
<trkpt lat="55.708511" lon="26.131979">
<ele>154.416138</ele>
<time>2010-07-18T06:43:41Z</time>
<desc>lat.=55.708511, lon.=26.131979, Alt.=154.416138m. Speed=13.896000m/h.</desc>
<speed>3.860000</speed>
</trkpt>
<trkpt lat="55.708538" lon="26.132015">
<ele>154.795044</ele>
<time>2010-07-18T06:43:42Z</time>
<desc>lat.=55.708538, lon.=26.132015, Alt.=154.795044m. Speed=13.680000m/h.</desc>
<speed>3.800000</speed>
</trkpt>
<trkpt lat="55.708565" lon="26.132048">
<ele>155.088013</ele>
<time>2010-07-18T06:43:43Z</time>
<desc>lat.=55.708565, lon.=26.132048, Alt.=155.088013m. Speed=13.356000m/h.</desc>
<speed>3.710000</speed>
</trkpt>
<trkpt lat="55.708591" lon="26.132092">
<ele>154.322388</ele>
<time>2010-07-18T06:43:44Z</time>
<desc>lat.=55.708591, lon.=26.132092, Alt.=154.322388m. Speed=13.932000m/h.</desc>
<speed>3.870000</speed>
</trkpt>
<trkpt lat="55.708630" lon="26.132135">
<ele>153.838013</ele>
<time>2010-07-18T06:43:45Z</time>
<desc>lat.=55.708630, lon.=26.132135, Alt.=153.838013m. Speed=15.516000m/h.</desc>
<speed>4.310000</speed>
</trkpt>
<trkpt lat="55.708656" lon="26.132183">
<ele>154.091919</ele>
<time>2010-07-18T06:43:46Z</time>
<desc>lat.=55.708656, lon.=26.132183, Alt.=154.091919m. Speed=15.336000m/h.</desc>
<speed>4.260000</speed>
</trkpt>
<trkpt lat="55.708694" lon="26.132219">
<ele>154.900513</ele>
<time>2010-07-18T06:43:47Z</time>
<desc>lat.=55.708694, lon.=26.132219, Alt.=154.900513m. Speed=16.379999m/h.</desc>
<speed>4.550000</speed>
</trkpt>
<trkpt lat="55.708733" lon="26.132256">
<ele>155.306763</ele>
<time>2010-07-18T06:43:48Z</time>
<desc>lat.=55.708733, lon.=26.132256, Alt.=155.306763m. Speed=15.732000m/h.</desc>
<speed>4.370000</speed>
</trkpt>
<trkpt lat="55.708763" lon="26.132298">
<ele>155.822388</ele>
<time>2010-07-18T06:43:49Z</time>
<desc>lat.=55.708763, lon.=26.132298, Alt.=155.822388m. Speed=17.243999m/h.</desc>
<speed>4.790000</speed>
</trkpt>
<trkpt lat="55.708797" lon="26.132339">
<ele>155.611450</ele>
<time>2010-07-18T06:43:50Z</time>
<desc>lat.=55.708797, lon.=26.132339, Alt.=155.611450m. Speed=17.208000m/h.</desc>
<speed>4.780000</speed>
</trkpt>
<trkpt lat="55.708839" lon="26.132385">
<ele>155.255981</ele>
<time>2010-07-18T06:43:51Z</time>
<desc>lat.=55.708839, lon.=26.132385, Alt.=155.255981m. Speed=18.000000m/h.</desc>
<speed>5.000000</speed>
</trkpt>
<trkpt lat="55.708878" lon="26.132429">
<ele>155.384888</ele>
<time>2010-07-18T06:43:52Z</time>
<desc>lat.=55.708878, lon.=26.132429, Alt.=155.384888m. Speed=17.604000m/h.</desc>
<speed>4.890000</speed>
</trkpt>
<trkpt lat="55.708908" lon="26.132473">
<ele>156.392700</ele>
<time>2010-07-18T06:43:53Z</time>
<desc>lat.=55.708908, lon.=26.132473, Alt.=156.392700m. Speed=17.459999m/h.</desc>
<speed>4.850000</speed>
</trkpt>
<trkpt lat="55.708942" lon="26.132509">
<ele>156.443481</ele>
<time>2010-07-18T06:43:54Z</time>
<desc>lat.=55.708942, lon.=26.132509, Alt.=156.443481m. Speed=15.660000m/h.</desc>
<speed>4.350000</speed>
</trkpt>
<trkpt lat="55.708977" lon="26.132545">
<ele>156.361450</ele>
<time>2010-07-18T06:43:55Z</time>
<desc>lat.=55.708977, lon.=26.132545, Alt.=156.361450m. Speed=15.300000m/h.</desc>
<speed>4.250000</speed>
</trkpt>
<trkpt lat="55.709023" lon="26.132586">
<ele>157.029419</ele>
<time>2010-07-18T06:43:56Z</time>
<desc>lat.=55.709023, lon.=26.132586, Alt.=157.029419m. Speed=16.200001m/h.</desc>
<speed>4.500000</speed>
</trkpt>
<trkpt lat="55.709064" lon="26.132626">
<ele>156.232544</ele>
<time>2010-07-18T06:43:57Z</time>
<desc>lat.=55.709064, lon.=26.132626, Alt.=156.232544m. Speed=16.740000m/h.</desc>
<speed>4.650000</speed>
</trkpt>
<trkpt lat="55.709103" lon="26.132664">
<ele>156.271606</ele>
<time>2010-07-18T06:43:58Z</time>
<desc>lat.=55.709103, lon.=26.132664, Alt.=156.271606m. Speed=16.164000m/h.</desc>
<speed>4.490000</speed>
</trkpt>
<trkpt lat="55.709145" lon="26.132698">
<ele>156.373169</ele>
<time>2010-07-18T06:43:59Z</time>
<desc>lat.=55.709145, lon.=26.132698, Alt.=156.373169m. Speed=16.740000m/h.</desc>
<speed>4.650000</speed>
</trkpt>
<trkpt lat="55.709175" lon="26.132732">
<ele>156.841919</ele>
<time>2010-07-18T06:44:00Z</time>
<desc>lat.=55.709175, lon.=26.132732, Alt.=156.841919m. Speed=15.912000m/h.</desc>
<speed>4.420000</speed>
</trkpt>
<trkpt lat="55.709209" lon="26.132772">
<ele>156.693481</ele>
<time>2010-07-18T06:44:01Z</time>
<desc>lat.=55.709209, lon.=26.132772, Alt.=156.693481m. Speed=15.408000m/h.</desc>
<speed>4.280000</speed>
</trkpt>
<trkpt lat="55.709244" lon="26.132809">
<ele>156.638794</ele>
<time>2010-07-18T06:44:02Z</time>
<desc>lat.=55.709244, lon.=26.132809, Alt.=156.638794m. Speed=14.940000m/h.</desc>
<speed>4.150000</speed>
</trkpt>
<trkpt lat="55.709278" lon="26.132839">
<ele>156.365356</ele>
<time>2010-07-18T06:44:03Z</time>
<desc>lat.=55.709278, lon.=26.132839, Alt.=156.365356m. Speed=14.400000m/h.</desc>
<speed>4.000000</speed>
</trkpt>
<trkpt lat="55.709316" lon="26.132868">
<ele>156.677856</ele>
<time>2010-07-18T06:44:04Z</time>
<desc>lat.=55.709316, lon.=26.132868, Alt.=156.677856m. Speed=13.932000m/h.</desc>
<speed>3.870000</speed>
</trkpt>
<trkpt lat="55.709351" lon="26.132891">
<ele>156.490356</ele>
<time>2010-07-18T06:44:05Z</time>
<desc>lat.=55.709351, lon.=26.132891, Alt.=156.490356m. Speed=14.112000m/h.</desc>
<speed>3.920000</speed>
</trkpt>
<trkpt lat="55.709385" lon="26.132917">
<ele>156.197388</ele>
<time>2010-07-18T06:44:06Z</time>
<desc>lat.=55.709385, lon.=26.132917, Alt.=156.197388m. Speed=13.932000m/h.</desc>
<speed>3.870000</speed>
</trkpt>
<trkpt lat="55.709419" lon="26.132946">
<ele>156.189575</ele>
<time>2010-07-18T06:44:07Z</time>
<desc>lat.=55.709419, lon.=26.132946, Alt.=156.189575m. Speed=13.752000m/h.</desc>
<speed>3.820000</speed>
</trkpt>
<trkpt lat="55.709454" lon="26.132973">
<ele>155.439575</ele>
<time>2010-07-18T06:44:08Z</time>
<desc>lat.=55.709454, lon.=26.132973, Alt.=155.439575m. Speed=12.168000m/h.</desc>
<speed>3.380000</speed>
</trkpt>
<trkpt lat="55.709496" lon="26.132992">
<ele>155.611450</ele>
<time>2010-07-18T06:44:09Z</time>
<desc>lat.=55.709496, lon.=26.132992, Alt.=155.611450m. Speed=14.364000m/h.</desc>
<speed>3.990000</speed>
</trkpt>
<trkpt lat="55.709522" lon="26.133013">
<ele>156.338013</ele>
<time>2010-07-18T06:44:10Z</time>
<desc>lat.=55.709522, lon.=26.133013, Alt.=156.338013m. Speed=14.472000m/h.</desc>
<speed>4.020000</speed>
</trkpt>
<trkpt lat="55.709557" lon="26.133034">
<ele>156.564575</ele>
<time>2010-07-18T06:44:11Z</time>
<desc>lat.=55.709557, lon.=26.133034, Alt.=156.564575m. Speed=13.932000m/h.</desc>
<speed>3.870000</speed>
</trkpt>
<trkpt lat="55.709591" lon="26.133057">
<ele>156.591919</ele>
<time>2010-07-18T06:44:12Z</time>
<desc>lat.=55.709591, lon.=26.133057, Alt.=156.591919m. Speed=13.932000m/h.</desc>
<speed>3.870000</speed>
</trkpt>
<trkpt lat="55.709637" lon="26.133074">
<ele>156.466919</ele>
<time>2010-07-18T06:44:13Z</time>
<desc>lat.=55.709637, lon.=26.133074, Alt.=156.466919m. Speed=13.644000m/h.</desc>
<speed>3.790000</speed>
</trkpt>
<trkpt lat="55.709671" lon="26.133101">
<ele>156.541138</ele>
<time>2010-07-18T06:44:14Z</time>
<desc>lat.=55.709671, lon.=26.133101, Alt.=156.541138m. Speed=14.040000m/h.</desc>
<speed>3.900000</speed>
</trkpt>
<trkpt lat="55.709702" lon="26.133125">
<ele>156.435669</ele>
<time>2010-07-18T06:44:15Z</time>
<desc>lat.=55.709702, lon.=26.133125, Alt.=156.435669m. Speed=13.572000m/h.</desc>
<speed>3.770000</speed>
</trkpt>
<trkpt lat="55.709740" lon="26.133154">
<ele>156.103638</ele>
<time>2010-07-18T06:44:16Z</time>
<desc>lat.=55.709740, lon.=26.133154, Alt.=156.103638m. Speed=14.364000m/h.</desc>
<speed>3.990000</speed>
</trkpt>
<trkpt lat="55.709778" lon="26.133175">
<ele>156.162231</ele>
<time>2010-07-18T06:44:17Z</time>
<desc>lat.=55.709778, lon.=26.133175, Alt.=156.162231m. Speed=14.256000m/h.</desc>
<speed>3.960000</speed>
</trkpt>
<trkpt lat="55.709812" lon="26.133205">
<ele>155.795044</ele>
<time>2010-07-18T06:44:18Z</time>
<desc>lat.=55.709812, lon.=26.133205, Alt.=155.795044m. Speed=13.716000m/h.</desc>
<speed>3.810000</speed>
</trkpt>
<trkpt lat="55.709850" lon="26.133232">
<ele>155.064575</ele>
<time>2010-07-18T06:44:19Z</time>
<desc>lat.=55.709850, lon.=26.133232, Alt.=155.064575m. Speed=15.012000m/h.</desc>
<speed>4.170000</speed>
</trkpt>
<trkpt lat="55.709881" lon="26.133261">
<ele>155.123169</ele>
<time>2010-07-18T06:44:20Z</time>
<desc>lat.=55.709881, lon.=26.133261, Alt.=155.123169m. Speed=15.120000m/h.</desc>
<speed>4.200000</speed>
</trkpt>
<trkpt lat="55.709919" lon="26.133289">
<ele>155.095825</ele>
<time>2010-07-18T06:44:21Z</time>
<desc>lat.=55.709919, lon.=26.133289, Alt.=155.095825m. Speed=14.400000m/h.</desc>
<speed>4.000000</speed>
</trkpt>
<trkpt lat="55.709942" lon="26.133320">
<ele>155.689575</ele>
<time>2010-07-18T06:44:22Z</time>
<desc>lat.=55.709942, lon.=26.133320, Alt.=155.689575m. Speed=13.824000m/h.</desc>
<speed>3.840000</speed>
</trkpt>
<trkpt lat="55.709976" lon="26.133347">
<ele>155.978638</ele>
<time>2010-07-18T06:44:23Z</time>
<desc>lat.=55.709976, lon.=26.133347, Alt.=155.978638m. Speed=14.580000m/h.</desc>
<speed>4.050000</speed>
</trkpt>
<trkpt lat="55.710007" lon="26.133369">
<ele>156.365356</ele>
<time>2010-07-18T06:44:24Z</time>
<desc>lat.=55.710007, lon.=26.133369, Alt.=156.365356m. Speed=14.832000m/h.</desc>
<speed>4.120000</speed>
</trkpt>
<trkpt lat="55.710041" lon="26.133396">
<ele>156.466919</ele>
<time>2010-07-18T06:44:25Z</time>
<desc>lat.=55.710041, lon.=26.133396, Alt.=156.466919m. Speed=13.788000m/h.</desc>
<speed>3.830000</speed>
</trkpt>
<trkpt lat="55.710075" lon="26.133430">
<ele>156.732544</ele>
<time>2010-07-18T06:44:26Z</time>
<desc>lat.=55.710075, lon.=26.133430, Alt.=156.732544m. Speed=15.516000m/h.</desc>
<speed>4.310000</speed>
</trkpt>
<trkpt lat="55.710110" lon="26.133465">
<ele>156.900513</ele>
<time>2010-07-18T06:44:27Z</time>
<desc>lat.=55.710110, lon.=26.133465, Alt.=156.900513m. Speed=14.832000m/h.</desc>
<speed>4.120000</speed>
</trkpt>
<trkpt lat="55.710144" lon="26.133490">
<ele>157.173950</ele>
<time>2010-07-18T06:44:28Z</time>
<desc>lat.=55.710144, lon.=26.133490, Alt.=157.173950m. Speed=13.104000m/h.</desc>
<speed>3.640000</speed>
</trkpt>
<trkpt lat="55.710178" lon="26.133514">
<ele>157.755981</ele>
<time>2010-07-18T06:44:29Z</time>
<desc>lat.=55.710178, lon.=26.133514, Alt.=157.755981m. Speed=14.688000m/h.</desc>
<speed>4.080000</speed>
</trkpt>
<trkpt lat="55.710209" lon="26.133545">
<ele>158.138794</ele>
<time>2010-07-18T06:44:30Z</time>
<desc>lat.=55.710209, lon.=26.133545, Alt.=158.138794m. Speed=15.372000m/h.</desc>
<speed>4.270000</speed>
</trkpt>
<trkpt lat="55.710239" lon="26.133583">
<ele>158.443481</ele>
<time>2010-07-18T06:44:31Z</time>
<desc>lat.=55.710239, lon.=26.133583, Alt.=158.443481m. Speed=15.408000m/h.</desc>
<speed>4.280000</speed>
</trkpt>
<trkpt lat="55.710270" lon="26.133617">
<ele>158.373169</ele>
<time>2010-07-18T06:44:32Z</time>
<desc>lat.=55.710270, lon.=26.133617, Alt.=158.373169m. Speed=15.156000m/h.</desc>
<speed>4.210000</speed>
</trkpt>
<trkpt lat="55.710297" lon="26.133659">
<ele>158.334106</ele>
<time>2010-07-18T06:44:33Z</time>
<desc>lat.=55.710297, lon.=26.133659, Alt.=158.334106m. Speed=14.508000m/h.</desc>
<speed>4.030000</speed>
</trkpt>
<trkpt lat="55.710339" lon="26.133696">
<ele>158.287231</ele>
<time>2010-07-18T06:44:34Z</time>
<desc>lat.=55.710339, lon.=26.133696, Alt.=158.287231m. Speed=15.012000m/h.</desc>
<speed>4.170000</speed>
</trkpt>
<trkpt lat="55.710369" lon="26.133728">
<ele>158.052856</ele>
<time>2010-07-18T06:44:35Z</time>
<desc>lat.=55.710369, lon.=26.133728, Alt.=158.052856m. Speed=14.112000m/h.</desc>
<speed>3.920000</speed>
</trkpt>
<trkpt lat="55.710403" lon="26.133759">
<ele>157.783325</ele>
<time>2010-07-18T06:44:36Z</time>
<desc>lat.=55.710403, lon.=26.133759, Alt.=157.783325m. Speed=14.436000m/h.</desc>
<speed>4.010000</speed>
</trkpt>
<trkpt lat="55.710434" lon="26.133789">
<ele>157.783325</ele>
<time>2010-07-18T06:44:37Z</time>
<desc>lat.=55.710434, lon.=26.133789, Alt.=157.783325m. Speed=14.256000m/h.</desc>
<speed>3.960000</speed>
</trkpt>
<trkpt lat="55.710464" lon="26.133820">
<ele>158.185669</ele>
<time>2010-07-18T06:44:38Z</time>
<desc>lat.=55.710464, lon.=26.133820, Alt.=158.185669m. Speed=14.976000m/h.</desc>
<speed>4.160000</speed>
</trkpt>
<trkpt lat="55.710495" lon="26.133844">
<ele>157.939575</ele>
<time>2010-07-18T06:44:39Z</time>
<desc>lat.=55.710495, lon.=26.133844, Alt.=157.939575m. Speed=13.104000m/h.</desc>
<speed>3.640000</speed>
</trkpt>
<trkpt lat="55.710526" lon="26.133867">
<ele>157.838013</ele>
<time>2010-07-18T06:44:40Z</time>
<desc>lat.=55.710526, lon.=26.133867, Alt.=157.838013m. Speed=12.564000m/h.</desc>
<speed>3.490000</speed>
</trkpt>
<trkpt lat="55.710552" lon="26.133892">
<ele>157.935669</ele>
<time>2010-07-18T06:44:41Z</time>
<desc>lat.=55.710552, lon.=26.133892, Alt.=157.935669m. Speed=11.736000m/h.</desc>
<speed>3.260000</speed>
</trkpt>
<trkpt lat="55.710575" lon="26.133913">
<ele>157.916138</ele>
<time>2010-07-18T06:44:42Z</time>
<desc>lat.=55.710575, lon.=26.133913, Alt.=157.916138m. Speed=10.548000m/h.</desc>
<speed>2.930000</speed>
</trkpt>
<trkpt lat="55.710598" lon="26.133936">
<ele>158.013794</ele>
<time>2010-07-18T06:44:43Z</time>
<desc>lat.=55.710598, lon.=26.133936, Alt.=158.013794m. Speed=12.384000m/h.</desc>
<speed>3.440000</speed>
</trkpt>
<trkpt lat="55.710629" lon="26.133963">
<ele>157.978638</ele>
<time>2010-07-18T06:44:44Z</time>
<desc>lat.=55.710629, lon.=26.133963, Alt.=157.978638m. Speed=12.816000m/h.</desc>
<speed>3.560000</speed>
</trkpt>
<trkpt lat="55.710651" lon="26.133993">
<ele>158.052856</ele>
<time>2010-07-18T06:44:45Z</time>
<desc>lat.=55.710651, lon.=26.133993, Alt.=158.052856m. Speed=12.816000m/h.</desc>
<speed>3.560000</speed>
</trkpt>
<trkpt lat="55.710682" lon="26.134027">
<ele>158.123169</ele>
<time>2010-07-18T06:44:46Z</time>
<desc>lat.=55.710682, lon.=26.134027, Alt.=158.123169m. Speed=15.264000m/h.</desc>
<speed>4.240000</speed>
</trkpt>
<trkpt lat="55.710712" lon="26.134062">
<ele>158.154419</ele>
<time>2010-07-18T06:44:47Z</time>
<desc>lat.=55.710712, lon.=26.134062, Alt.=158.154419m. Speed=16.091999m/h.</desc>
<speed>4.470000</speed>
</trkpt>
<trkpt lat="55.710747" lon="26.134092">
<ele>157.431763</ele>
<time>2010-07-18T06:44:48Z</time>
<desc>lat.=55.710747, lon.=26.134092, Alt.=157.431763m. Speed=15.732000m/h.</desc>
<speed>4.370000</speed>
</trkpt>
<trkpt lat="55.710781" lon="26.134127">
<ele>157.177856</ele>
<time>2010-07-18T06:44:49Z</time>
<desc>lat.=55.710781, lon.=26.134127, Alt.=157.177856m. Speed=17.820000m/h.</desc>
<speed>4.950000</speed>
</trkpt>
<trkpt lat="55.710827" lon="26.134159">
<ele>156.959106</ele>
<time>2010-07-18T06:44:50Z</time>
<desc>lat.=55.710827, lon.=26.134159, Alt.=156.959106m. Speed=17.856001m/h.</desc>
<speed>4.960000</speed>
</trkpt>
<trkpt lat="55.710865" lon="26.134195">
<ele>156.931763</ele>
<time>2010-07-18T06:44:51Z</time>
<desc>lat.=55.710865, lon.=26.134195, Alt.=156.931763m. Speed=17.243999m/h.</desc>
<speed>4.790000</speed>
</trkpt>
<trkpt lat="55.710896" lon="26.134235">
<ele>156.865356</ele>
<time>2010-07-18T06:44:52Z</time>
<desc>lat.=55.710896, lon.=26.134235, Alt.=156.865356m. Speed=17.532000m/h.</desc>
<speed>4.870000</speed>
</trkpt>
<trkpt lat="55.710934" lon="26.134275">
<ele>156.920044</ele>
<time>2010-07-18T06:44:53Z</time>
<desc>lat.=55.710934, lon.=26.134275, Alt.=156.920044m. Speed=19.944000m/h.</desc>
<speed>5.540000</speed>
</trkpt>
<trkpt lat="55.710976" lon="26.134319">
<ele>156.748169</ele>
<time>2010-07-18T06:44:54Z</time>
<desc>lat.=55.710976, lon.=26.134319, Alt.=156.748169m. Speed=20.124001m/h.</desc>
<speed>5.590000</speed>
</trkpt>
<trkpt lat="55.711021" lon="26.134365">
<ele>156.607544</ele>
<time>2010-07-18T06:44:55Z</time>
<desc>lat.=55.711021, lon.=26.134365, Alt.=156.607544m. Speed=21.384001m/h.</desc>
<speed>5.940000</speed>
</trkpt>
<trkpt lat="55.711067" lon="26.134413">
<ele>156.240356</ele>
<time>2010-07-18T06:44:56Z</time>
<desc>lat.=55.711067, lon.=26.134413, Alt.=156.240356m. Speed=21.888000m/h.</desc>
<speed>6.080000</speed>
</trkpt>
<trkpt lat="55.711121" lon="26.134462">
<ele>155.759888</ele>
<time>2010-07-18T06:44:57Z</time>
<desc>lat.=55.711121, lon.=26.134462, Alt.=155.759888m. Speed=24.191999m/h.</desc>
<speed>6.720000</speed>
</trkpt>
<trkpt lat="55.711178" lon="26.134514">
<ele>155.056763</ele>
<time>2010-07-18T06:44:58Z</time>
<desc>lat.=55.711178, lon.=26.134514, Alt.=155.056763m. Speed=26.172001m/h.</desc>
<speed>7.270000</speed>
</trkpt>
<trkpt lat="55.711235" lon="26.134567">
<ele>154.498169</ele>
<time>2010-07-18T06:44:59Z</time>
<desc>lat.=55.711235, lon.=26.134567, Alt.=154.498169m. Speed=27.468000m/h.</desc>
<speed>7.630000</speed>
</trkpt>
<trkpt lat="55.711300" lon="26.134621">
<ele>153.994263</ele>
<time>2010-07-18T06:45:00Z</time>
<desc>lat.=55.711300, lon.=26.134621, Alt.=153.994263m. Speed=27.827999m/h.</desc>
<speed>7.730000</speed>
</trkpt>
<trkpt lat="55.711365" lon="26.134678">
<ele>153.412231</ele>
<time>2010-07-18T06:45:01Z</time>
<desc>lat.=55.711365, lon.=26.134678, Alt.=153.412231m. Speed=28.080000m/h.</desc>
<speed>7.800000</speed>
</trkpt>
<trkpt lat="55.711426" lon="26.134737">
<ele>152.982544</ele>
<time>2010-07-18T06:45:02Z</time>
<desc>lat.=55.711426, lon.=26.134737, Alt.=152.982544m. Speed=28.296000m/h.</desc>
<speed>7.860000</speed>
</trkpt>
<trkpt lat="55.711487" lon="26.134796">
<ele>152.767700</ele>
<time>2010-07-18T06:45:03Z</time>
<desc>lat.=55.711487, lon.=26.134796, Alt.=152.767700m. Speed=27.900000m/h.</desc>
<speed>7.750000</speed>
</trkpt>
<trkpt lat="55.711544" lon="26.134863">
<ele>152.439575</ele>
<time>2010-07-18T06:45:04Z</time>
<desc>lat.=55.711544, lon.=26.134863, Alt.=152.439575m. Speed=26.639999m/h.</desc>
<speed>7.400000</speed>
</trkpt>
<trkpt lat="55.711597" lon="26.134930">
<ele>152.302856</ele>
<time>2010-07-18T06:45:05Z</time>
<desc>lat.=55.711597, lon.=26.134930, Alt.=152.302856m. Speed=26.892000m/h.</desc>
<speed>7.470000</speed>
</trkpt>
<trkpt lat="55.711643" lon="26.135008">
<ele>152.119263</ele>
<time>2010-07-18T06:45:06Z</time>
<desc>lat.=55.711643, lon.=26.135008, Alt.=152.119263m. Speed=26.459999m/h.</desc>
<speed>7.350000</speed>
</trkpt>
<trkpt lat="55.711685" lon="26.135094">
<ele>151.963013</ele>
<time>2010-07-18T06:45:07Z</time>
<desc>lat.=55.711685, lon.=26.135094, Alt.=151.963013m. Speed=26.676001m/h.</desc>
<speed>7.410000</speed>
</trkpt>
<trkpt lat="55.711712" lon="26.135181">
<ele>151.951294</ele>
<time>2010-07-18T06:45:08Z</time>
<desc>lat.=55.711712, lon.=26.135181, Alt.=151.951294m. Speed=23.868000m/h.</desc>
<speed>6.630000</speed>
</trkpt>
<trkpt lat="55.711746" lon="26.135271">
<ele>151.853638</ele>
<time>2010-07-18T06:45:09Z</time>
<desc>lat.=55.711746, lon.=26.135271, Alt.=151.853638m. Speed=23.472000m/h.</desc>
<speed>6.520000</speed>
</trkpt>
<trkpt lat="55.711761" lon="26.135366">
<ele>152.115356</ele>
<time>2010-07-18T06:45:10Z</time>
<desc>lat.=55.711761, lon.=26.135366, Alt.=152.115356m. Speed=22.608000m/h.</desc>
<speed>6.280000</speed>
</trkpt>
<trkpt lat="55.711777" lon="26.135466">
<ele>152.248169</ele>
<time>2010-07-18T06:45:11Z</time>
<desc>lat.=55.711777, lon.=26.135466, Alt.=152.248169m. Speed=22.968000m/h.</desc>
<speed>6.380000</speed>
</trkpt>
<trkpt lat="55.711796" lon="26.135565">
<ele>151.806763</ele>
<time>2010-07-18T06:45:12Z</time>
<desc>lat.=55.711796, lon.=26.135565, Alt.=151.806763m. Speed=22.608000m/h.</desc>
<speed>6.280000</speed>
</trkpt>
<trkpt lat="55.711807" lon="26.135666">
<ele>151.627075</ele>
<time>2010-07-18T06:45:13Z</time>
<desc>lat.=55.711807, lon.=26.135666, Alt.=151.627075m. Speed=23.832001m/h.</desc>
<speed>6.620000</speed>
</trkpt>
<trkpt lat="55.711819" lon="26.135767">
<ele>151.572388</ele>
<time>2010-07-18T06:45:14Z</time>
<desc>lat.=55.711819, lon.=26.135767, Alt.=151.572388m. Speed=23.219999m/h.</desc>
<speed>6.450000</speed>
</trkpt>
<trkpt lat="55.711819" lon="26.135872">
<ele>151.584106</ele>
<time>2010-07-18T06:45:15Z</time>
<desc>lat.=55.711819, lon.=26.135872, Alt.=151.584106m. Speed=23.148001m/h.</desc>
<speed>6.430000</speed>
</trkpt>
<trkpt lat="55.711819" lon="26.135975">
<ele>151.533325</ele>
<time>2010-07-18T06:45:16Z</time>
<desc>lat.=55.711819, lon.=26.135975, Alt.=151.533325m. Speed=23.507999m/h.</desc>
<speed>6.530000</speed>
</trkpt>
<trkpt lat="55.711811" lon="26.136072">
<ele>151.537231</ele>
<time>2010-07-18T06:45:17Z</time>
<desc>lat.=55.711811, lon.=26.136072, Alt.=151.537231m. Speed=23.040001m/h.</desc>
<speed>6.400000</speed>
</trkpt>
<trkpt lat="55.711811" lon="26.136173">
<ele>151.494263</ele>
<time>2010-07-18T06:45:18Z</time>
<desc>lat.=55.711811, lon.=26.136173, Alt.=151.494263m. Speed=23.219999m/h.</desc>
<speed>6.450000</speed>
</trkpt>
<trkpt lat="55.711803" lon="26.136276">
<ele>151.326294</ele>
<time>2010-07-18T06:45:19Z</time>
<desc>lat.=55.711803, lon.=26.136276, Alt.=151.326294m. Speed=23.184000m/h.</desc>
<speed>6.440000</speed>
</trkpt>
<trkpt lat="55.711788" lon="26.136385">
<ele>151.107544</ele>
<time>2010-07-18T06:45:20Z</time>
<desc>lat.=55.711788, lon.=26.136385, Alt.=151.107544m. Speed=24.336000m/h.</desc>
<speed>6.760000</speed>
</trkpt>
<trkpt lat="55.711777" lon="26.136490">
<ele>150.966919</ele>
<time>2010-07-18T06:45:21Z</time>
<desc>lat.=55.711777, lon.=26.136490, Alt.=150.966919m. Speed=24.120001m/h.</desc>
<speed>6.700000</speed>
</trkpt>
<trkpt lat="55.711765" lon="26.136600">
<ele>150.838013</ele>
<time>2010-07-18T06:45:22Z</time>
<desc>lat.=55.711765, lon.=26.136600, Alt.=150.838013m. Speed=23.184000m/h.</desc>
<speed>6.440000</speed>
</trkpt>
<trkpt lat="55.711761" lon="26.136705">
<ele>150.607544</ele>
<time>2010-07-18T06:45:23Z</time>
<desc>lat.=55.711761, lon.=26.136705, Alt.=150.607544m. Speed=23.580000m/h.</desc>
<speed>6.550000</speed>
</trkpt>
<trkpt lat="55.711761" lon="26.136814">
<ele>150.369263</ele>
<time>2010-07-18T06:45:24Z</time>
<desc>lat.=55.711761, lon.=26.136814, Alt.=150.369263m. Speed=24.804001m/h.</desc>
<speed>6.890000</speed>
</trkpt>
<trkpt lat="55.711773" lon="26.136927">
<ele>150.084106</ele>
<time>2010-07-18T06:45:25Z</time>
<desc>lat.=55.711773, lon.=26.136927, Alt.=150.084106m. Speed=26.100000m/h.</desc>
<speed>7.250000</speed>
</trkpt>
<trkpt lat="55.711781" lon="26.137039">
<ele>149.884888</ele>
<time>2010-07-18T06:45:26Z</time>
<desc>lat.=55.711781, lon.=26.137039, Alt.=149.884888m. Speed=25.955999m/h.</desc>
<speed>7.210000</speed>
</trkpt>
<trkpt lat="55.711792" lon="26.137144">
<ele>149.709106</ele>
<time>2010-07-18T06:45:27Z</time>
<desc>lat.=55.711792, lon.=26.137144, Alt.=149.709106m. Speed=24.480000m/h.</desc>
<speed>6.800000</speed>
</trkpt>
<trkpt lat="55.711815" lon="26.137236">
<ele>149.470825</ele>
<time>2010-07-18T06:45:28Z</time>
<desc>lat.=55.711815, lon.=26.137236, Alt.=149.470825m. Speed=22.716000m/h.</desc>
<speed>6.310000</speed>
</trkpt>
<trkpt lat="55.711826" lon="26.137333">
<ele>149.162231</ele>
<time>2010-07-18T06:45:29Z</time>
<desc>lat.=55.711826, lon.=26.137333, Alt.=149.162231m. Speed=21.851999m/h.</desc>
<speed>6.070000</speed>
</trkpt>
<trkpt lat="55.711834" lon="26.137432">
<ele>148.892700</ele>
<time>2010-07-18T06:45:30Z</time>
<desc>lat.=55.711834, lon.=26.137432, Alt.=148.892700m. Speed=20.052000m/h.</desc>
<speed>5.570000</speed>
</trkpt>
<trkpt lat="55.711853" lon="26.137512">
<ele>148.752075</ele>
<time>2010-07-18T06:45:31Z</time>
<desc>lat.=55.711853, lon.=26.137512, Alt.=148.752075m. Speed=19.980000m/h.</desc>
<speed>5.550000</speed>
</trkpt>
<trkpt lat="55.711876" lon="26.137594">
<ele>148.541138</ele>
<time>2010-07-18T06:45:32Z</time>
<desc>lat.=55.711876, lon.=26.137594, Alt.=148.541138m. Speed=19.044001m/h.</desc>
<speed>5.290000</speed>
</trkpt>
<trkpt lat="55.711906" lon="26.137674">
<ele>148.416138</ele>
<time>2010-07-18T06:45:33Z</time>
<desc>lat.=55.711906, lon.=26.137674, Alt.=148.416138m. Speed=17.063999m/h.</desc>
<speed>4.740000</speed>
</trkpt>
<trkpt lat="55.711933" lon="26.137733">
<ele>148.494263</ele>
<time>2010-07-18T06:45:34Z</time>
<desc>lat.=55.711933, lon.=26.137733, Alt.=148.494263m. Speed=15.552000m/h.</desc>
<speed>4.320000</speed>
</trkpt>
<trkpt lat="55.711956" lon="26.137794">
<ele>148.759888</ele>
<time>2010-07-18T06:45:35Z</time>
<desc>lat.=55.711956, lon.=26.137794, Alt.=148.759888m. Speed=13.320000m/h.</desc>
<speed>3.700000</speed>
</trkpt>
<trkpt lat="55.711983" lon="26.137833">
<ele>148.724731</ele>
<time>2010-07-18T06:45:36Z</time>
<desc>lat.=55.711983, lon.=26.137833, Alt.=148.724731m. Speed=13.032000m/h.</desc>
<speed>3.620000</speed>
</trkpt>
<trkpt lat="55.712017" lon="26.137863">
<ele>148.982544</ele>
<time>2010-07-18T06:45:37Z</time>
<desc>lat.=55.712017, lon.=26.137863, Alt.=148.982544m. Speed=10.080000m/h.</desc>
<speed>2.800000</speed>
</trkpt>
<trkpt lat="55.712044" lon="26.137888">
<ele>148.845825</ele>
<time>2010-07-18T06:45:38Z</time>
<desc>lat.=55.712044, lon.=26.137888, Alt.=148.845825m. Speed=10.656000m/h.</desc>
<speed>2.960000</speed>
</trkpt>
<trkpt lat="55.712090" lon="26.137920">
<ele>149.490356</ele>
<time>2010-07-18T06:45:39Z</time>
<desc>lat.=55.712090, lon.=26.137920, Alt.=149.490356m. Speed=11.268000m/h.</desc>
<speed>3.130000</speed>
</trkpt>
<trkpt lat="55.712132" lon="26.137945">
<ele>149.877075</ele>
<time>2010-07-18T06:45:40Z</time>
<desc>lat.=55.712132, lon.=26.137945, Alt.=149.877075m. Speed=12.564000m/h.</desc>
<speed>3.490000</speed>
</trkpt>
<trkpt lat="55.712162" lon="26.137972">
<ele>149.810669</ele>
<time>2010-07-18T06:45:41Z</time>
<desc>lat.=55.712162, lon.=26.137972, Alt.=149.810669m. Speed=14.724000m/h.</desc>
<speed>4.090000</speed>
</trkpt>
<trkpt lat="55.712189" lon="26.138010">
<ele>149.630981</ele>
<time>2010-07-18T06:45:42Z</time>
<desc>lat.=55.712189, lon.=26.138010, Alt.=149.630981m. Speed=11.520000m/h.</desc>
<speed>3.200000</speed>
</trkpt>
<trkpt lat="55.712212" lon="26.138048">
<ele>149.162231</ele>
<time>2010-07-18T06:45:43Z</time>
<desc>lat.=55.712212, lon.=26.138048, Alt.=149.162231m. Speed=11.556000m/h.</desc>
<speed>3.210000</speed>
</trkpt>
<trkpt lat="55.712242" lon="26.138092">
<ele>148.439575</ele>
<time>2010-07-18T06:45:44Z</time>
<desc>lat.=55.712242, lon.=26.138092, Alt.=148.439575m. Speed=14.940000m/h.</desc>
<speed>4.150000</speed>
</trkpt>
<trkpt lat="55.712276" lon="26.138124">
<ele>148.670044</ele>
<time>2010-07-18T06:45:45Z</time>
<desc>lat.=55.712276, lon.=26.138124, Alt.=148.670044m. Speed=15.948000m/h.</desc>
<speed>4.430000</speed>
</trkpt>
<trkpt lat="55.712311" lon="26.138166">
<ele>148.845825</ele>
<time>2010-07-18T06:45:46Z</time>
<desc>lat.=55.712311, lon.=26.138166, Alt.=148.845825m. Speed=17.316000m/h.</desc>
<speed>4.810000</speed>
</trkpt>
<trkpt lat="55.712341" lon="26.138224">
<ele>148.736450</ele>
<time>2010-07-18T06:45:47Z</time>
<desc>lat.=55.712341, lon.=26.138224, Alt.=148.736450m. Speed=17.280001m/h.</desc>
<speed>4.800000</speed>
</trkpt>
<trkpt lat="55.712376" lon="26.138288">
<ele>148.353638</ele>
<time>2010-07-18T06:45:48Z</time>
<desc>lat.=55.712376, lon.=26.138288, Alt.=148.353638m. Speed=17.136000m/h.</desc>
<speed>4.760000</speed>
</trkpt>
<trkpt lat="55.712410" lon="26.138353">
<ele>148.189575</ele>
<time>2010-07-18T06:45:49Z</time>
<desc>lat.=55.712410, lon.=26.138353, Alt.=148.189575m. Speed=18.180000m/h.</desc>
<speed>5.050000</speed>
</trkpt>
<trkpt lat="55.712440" lon="26.138416">
<ele>147.904419</ele>
<time>2010-07-18T06:45:50Z</time>
<desc>lat.=55.712440, lon.=26.138416, Alt.=147.904419m. Speed=19.007999m/h.</desc>
<speed>5.280000</speed>
</trkpt>
<trkpt lat="55.712471" lon="26.138481">
<ele>147.865356</ele>
<time>2010-07-18T06:45:51Z</time>
<desc>lat.=55.712471, lon.=26.138481, Alt.=147.865356m. Speed=19.368000m/h.</desc>
<speed>5.380000</speed>
</trkpt>
<trkpt lat="55.712509" lon="26.138544">
<ele>148.025513</ele>
<time>2010-07-18T06:45:52Z</time>
<desc>lat.=55.712509, lon.=26.138544, Alt.=148.025513m. Speed=19.476000m/h.</desc>
<speed>5.410000</speed>
</trkpt>
<trkpt lat="55.712543" lon="26.138601">
<ele>147.873169</ele>
<time>2010-07-18T06:45:53Z</time>
<desc>lat.=55.712543, lon.=26.138601, Alt.=147.873169m. Speed=18.035999m/h.</desc>
<speed>5.010000</speed>
</trkpt>
<trkpt lat="55.712578" lon="26.138651">
<ele>147.673950</ele>
<time>2010-07-18T06:45:54Z</time>
<desc>lat.=55.712578, lon.=26.138651, Alt.=147.673950m. Speed=17.280001m/h.</desc>
<speed>4.800000</speed>
</trkpt>
<trkpt lat="55.712605" lon="26.138706">
<ele>147.576294</ele>
<time>2010-07-18T06:45:55Z</time>
<desc>lat.=55.712605, lon.=26.138706, Alt.=147.576294m. Speed=16.308001m/h.</desc>
<speed>4.530000</speed>
</trkpt>
<trkpt lat="55.712631" lon="26.138765">
<ele>147.646606</ele>
<time>2010-07-18T06:45:56Z</time>
<desc>lat.=55.712631, lon.=26.138765, Alt.=147.646606m. Speed=15.264000m/h.</desc>
<speed>4.240000</speed>
</trkpt>
<trkpt lat="55.712662" lon="26.138823">
<ele>147.533325</ele>
<time>2010-07-18T06:45:57Z</time>
<desc>lat.=55.712662, lon.=26.138823, Alt.=147.533325m. Speed=16.236000m/h.</desc>
<speed>4.510000</speed>
</trkpt>
<trkpt lat="55.712711" lon="26.138887">
<ele>148.291138</ele>
<time>2010-07-18T06:45:58Z</time>
<desc>lat.=55.712711, lon.=26.138887, Alt.=148.291138m. Speed=15.768000m/h.</desc>
<speed>4.380000</speed>
</trkpt>
<trkpt lat="55.712749" lon="26.138941">
<ele>149.240356</ele>
<time>2010-07-18T06:45:59Z</time>
<desc>lat.=55.712749, lon.=26.138941, Alt.=149.240356m. Speed=15.228000m/h.</desc>
<speed>4.230000</speed>
</trkpt>
<trkpt lat="55.712780" lon="26.139004">
<ele>149.900513</ele>
<time>2010-07-18T06:46:00Z</time>
<desc>lat.=55.712780, lon.=26.139004, Alt.=149.900513m. Speed=15.516000m/h.</desc>
<speed>4.310000</speed>
</trkpt>
<trkpt lat="55.712814" lon="26.139053">
<ele>150.263794</ele>
<time>2010-07-18T06:46:01Z</time>
<desc>lat.=55.712814, lon.=26.139053, Alt.=150.263794m. Speed=14.400000m/h.</desc>
<speed>4.000000</speed>
</trkpt>
<trkpt lat="55.712841" lon="26.139095">
<ele>150.705200</ele>
<time>2010-07-18T06:46:02Z</time>
<desc>lat.=55.712841, lon.=26.139095, Alt.=150.705200m. Speed=11.052000m/h.</desc>
<speed>3.070000</speed>
</trkpt>
<trkpt lat="55.712860" lon="26.139154">
<ele>150.240356</ele>
<time>2010-07-18T06:46:03Z</time>
<desc>lat.=55.712860, lon.=26.139154, Alt.=150.240356m. Speed=11.520000m/h.</desc>
<speed>3.200000</speed>
</trkpt>
<trkpt lat="55.712879" lon="26.139208">
<ele>150.326294</ele>
<time>2010-07-18T06:46:04Z</time>
<desc>lat.=55.712879, lon.=26.139208, Alt.=150.326294m. Speed=11.592000m/h.</desc>
<speed>3.220000</speed>
</trkpt>
<trkpt lat="55.712894" lon="26.139275">
<ele>150.673950</ele>
<time>2010-07-18T06:46:05Z</time>
<desc>lat.=55.712894, lon.=26.139275, Alt.=150.673950m. Speed=13.284000m/h.</desc>
<speed>3.690000</speed>
</trkpt>
<trkpt lat="55.712925" lon="26.139322">
<ele>150.810669</ele>
<time>2010-07-18T06:46:06Z</time>
<desc>lat.=55.712925, lon.=26.139322, Alt.=150.810669m. Speed=15.588000m/h.</desc>
<speed>4.330000</speed>
</trkpt>
<trkpt lat="55.712955" lon="26.139370">
<ele>151.189575</ele>
<time>2010-07-18T06:46:07Z</time>
<desc>lat.=55.712955, lon.=26.139370, Alt.=151.189575m. Speed=15.984000m/h.</desc>
<speed>4.440000</speed>
</trkpt>
<trkpt lat="55.712986" lon="26.139423">
<ele>151.271606</ele>
<time>2010-07-18T06:46:08Z</time>
<desc>lat.=55.712986, lon.=26.139423, Alt.=151.271606m. Speed=17.172001m/h.</desc>
<speed>4.770000</speed>
</trkpt>
<trkpt lat="55.713013" lon="26.139482">
<ele>151.498169</ele>
<time>2010-07-18T06:46:09Z</time>
<desc>lat.=55.713013, lon.=26.139482, Alt.=151.498169m. Speed=16.416000m/h.</desc>
<speed>4.560000</speed>
</trkpt>
<trkpt lat="55.713036" lon="26.139544">
<ele>152.193481</ele>
<time>2010-07-18T06:46:10Z</time>
<desc>lat.=55.713036, lon.=26.139544, Alt.=152.193481m. Speed=16.416000m/h.</desc>
<speed>4.560000</speed>
</trkpt>
<trkpt lat="55.713058" lon="26.139618">
<ele>150.318481</ele>
<time>2010-07-18T06:46:11Z</time>
<desc>lat.=55.713058, lon.=26.139618, Alt.=150.318481m. Speed=18.684000m/h.</desc>
<speed>5.190000</speed>
</trkpt>
<trkpt lat="55.713085" lon="26.139694">
<ele>149.951294</ele>
<time>2010-07-18T06:46:12Z</time>
<desc>lat.=55.713085, lon.=26.139694, Alt.=149.951294m. Speed=17.568001m/h.</desc>
<speed>4.880000</speed>
</trkpt>
<trkpt lat="55.713116" lon="26.139765">
<ele>149.486450</ele>
<time>2010-07-18T06:46:13Z</time>
<desc>lat.=55.713116, lon.=26.139765, Alt.=149.486450m. Speed=18.612000m/h.</desc>
<speed>5.170000</speed>
</trkpt>
<trkpt lat="55.713154" lon="26.139824">
<ele>149.802856</ele>
<time>2010-07-18T06:46:14Z</time>
<desc>lat.=55.713154, lon.=26.139824, Alt.=149.802856m. Speed=18.252001m/h.</desc>
<speed>5.070000</speed>
</trkpt>
<trkpt lat="55.713184" lon="26.139887">
<ele>149.502075</ele>
<time>2010-07-18T06:46:15Z</time>
<desc>lat.=55.713184, lon.=26.139887, Alt.=149.502075m. Speed=17.639999m/h.</desc>
<speed>4.900000</speed>
</trkpt>
<trkpt lat="55.713211" lon="26.139946">
<ele>149.330200</ele>
<time>2010-07-18T06:46:16Z</time>
<desc>lat.=55.713211, lon.=26.139946, Alt.=149.330200m. Speed=16.812000m/h.</desc>
<speed>4.670000</speed>
</trkpt>
<trkpt lat="55.713242" lon="26.140011">
<ele>149.025513</ele>
<time>2010-07-18T06:46:17Z</time>
<desc>lat.=55.713242, lon.=26.140011, Alt.=149.025513m. Speed=18.792000m/h.</desc>
<speed>5.220000</speed>
</trkpt>
<trkpt lat="55.713280" lon="26.140083">
<ele>148.314575</ele>
<time>2010-07-18T06:46:18Z</time>
<desc>lat.=55.713280, lon.=26.140083, Alt.=148.314575m. Speed=19.511999m/h.</desc>
<speed>5.420000</speed>
</trkpt>
<trkpt lat="55.713314" lon="26.140146">
<ele>148.076294</ele>
<time>2010-07-18T06:46:19Z</time>
<desc>lat.=55.713314, lon.=26.140146, Alt.=148.076294m. Speed=18.864000m/h.</desc>
<speed>5.240000</speed>
</trkpt>
<trkpt lat="55.713352" lon="26.140209">
<ele>148.123169</ele>
<time>2010-07-18T06:46:20Z</time>
<desc>lat.=55.713352, lon.=26.140209, Alt.=148.123169m. Speed=19.799999m/h.</desc>
<speed>5.500000</speed>
</trkpt>
<trkpt lat="55.713387" lon="26.140276">
<ele>148.326294</ele>
<time>2010-07-18T06:46:21Z</time>
<desc>lat.=55.713387, lon.=26.140276, Alt.=148.326294m. Speed=18.719999m/h.</desc>
<speed>5.200000</speed>
</trkpt>
<trkpt lat="55.713413" lon="26.140337">
<ele>148.009888</ele>
<time>2010-07-18T06:46:22Z</time>
<desc>lat.=55.713413, lon.=26.140337, Alt.=148.009888m. Speed=17.820000m/h.</desc>
<speed>4.950000</speed>
</trkpt>
<trkpt lat="55.713444" lon="26.140394">
<ele>148.099731</ele>
<time>2010-07-18T06:46:23Z</time>
<desc>lat.=55.713444, lon.=26.140394, Alt.=148.099731m. Speed=17.316000m/h.</desc>
<speed>4.810000</speed>
</trkpt>
<trkpt lat="55.713474" lon="26.140448">
<ele>147.896606</ele>
<time>2010-07-18T06:46:24Z</time>
<desc>lat.=55.713474, lon.=26.140448, Alt.=147.896606m. Speed=18.288000m/h.</desc>
<speed>5.080000</speed>
</trkpt>
<trkpt lat="55.713512" lon="26.140507">
<ele>148.517700</ele>
<time>2010-07-18T06:46:25Z</time>
<desc>lat.=55.713512, lon.=26.140507, Alt.=148.517700m. Speed=19.152000m/h.</desc>
<speed>5.320000</speed>
</trkpt>
<trkpt lat="55.713551" lon="26.140570">
<ele>148.634888</ele>
<time>2010-07-18T06:46:26Z</time>
<desc>lat.=55.713551, lon.=26.140570, Alt.=148.634888m. Speed=21.059999m/h.</desc>
<speed>5.850000</speed>
</trkpt>
<trkpt lat="55.713589" lon="26.140635">
<ele>149.005981</ele>
<time>2010-07-18T06:46:27Z</time>
<desc>lat.=55.713589, lon.=26.140635, Alt.=149.005981m. Speed=20.879999m/h.</desc>
<speed>5.800000</speed>
</trkpt>
<trkpt lat="55.713631" lon="26.140711">
<ele>148.697388</ele>
<time>2010-07-18T06:46:28Z</time>
<desc>lat.=55.713631, lon.=26.140711, Alt.=148.697388m. Speed=21.348000m/h.</desc>
<speed>5.930000</speed>
</trkpt>
<trkpt lat="55.713673" lon="26.140787">
<ele>149.084106</ele>
<time>2010-07-18T06:46:29Z</time>
<desc>lat.=55.713673, lon.=26.140787, Alt.=149.084106m. Speed=21.420000m/h.</desc>
<speed>5.950000</speed>
</trkpt>
<trkpt lat="55.713715" lon="26.140856">
<ele>148.759888</ele>
<time>2010-07-18T06:46:30Z</time>
<desc>lat.=55.713715, lon.=26.140856, Alt.=148.759888m. Speed=20.879999m/h.</desc>
<speed>5.800000</speed>
</trkpt>
<trkpt lat="55.713760" lon="26.140921">
<ele>148.119263</ele>
<time>2010-07-18T06:46:31Z</time>
<desc>lat.=55.713760, lon.=26.140921, Alt.=148.119263m. Speed=20.844000m/h.</desc>
<speed>5.790000</speed>
</trkpt>
<trkpt lat="55.713802" lon="26.140980">
<ele>148.377075</ele>
<time>2010-07-18T06:46:32Z</time>
<desc>lat.=55.713802, lon.=26.140980, Alt.=148.377075m. Speed=20.268000m/h.</desc>
<speed>5.630000</speed>
</trkpt>
<trkpt lat="55.713848" lon="26.141039">
<ele>147.955200</ele>
<time>2010-07-18T06:46:33Z</time>
<desc>lat.=55.713848, lon.=26.141039, Alt.=147.955200m. Speed=19.368000m/h.</desc>
<speed>5.380000</speed>
</trkpt>
<trkpt lat="55.713882" lon="26.141098">
<ele>148.080200</ele>
<time>2010-07-18T06:46:34Z</time>
<desc>lat.=55.713882, lon.=26.141098, Alt.=148.080200m. Speed=19.691999m/h.</desc>
<speed>5.470000</speed>
</trkpt>
<trkpt lat="55.713917" lon="26.141161">
<ele>148.076294</ele>
<time>2010-07-18T06:46:35Z</time>
<desc>lat.=55.713917, lon.=26.141161, Alt.=148.076294m. Speed=19.620001m/h.</desc>
<speed>5.450000</speed>
</trkpt>
<trkpt lat="55.713955" lon="26.141224">
<ele>147.869263</ele>
<time>2010-07-18T06:46:36Z</time>
<desc>lat.=55.713955, lon.=26.141224, Alt.=147.869263m. Speed=20.483999m/h.</desc>
<speed>5.690000</speed>
</trkpt>
<trkpt lat="55.713997" lon="26.141281">
<ele>148.060669</ele>
<time>2010-07-18T06:46:37Z</time>
<desc>lat.=55.713997, lon.=26.141281, Alt.=148.060669m. Speed=21.312000m/h.</desc>
<speed>5.920000</speed>
</trkpt>
<trkpt lat="55.714039" lon="26.141340">
<ele>148.548950</ele>
<time>2010-07-18T06:46:38Z</time>
<desc>lat.=55.714039, lon.=26.141340, Alt.=148.548950m. Speed=20.520000m/h.</desc>
<speed>5.700000</speed>
</trkpt>
<trkpt lat="55.714069" lon="26.141397">
<ele>148.658325</ele>
<time>2010-07-18T06:46:39Z</time>
<desc>lat.=55.714069, lon.=26.141397, Alt.=148.658325m. Speed=19.224001m/h.</desc>
<speed>5.340000</speed>
</trkpt>
<trkpt lat="55.714104" lon="26.141455">
<ele>148.724731</ele>
<time>2010-07-18T06:46:40Z</time>
<desc>lat.=55.714104, lon.=26.141455, Alt.=148.724731m. Speed=20.808001m/h.</desc>
<speed>5.780000</speed>
</trkpt>
<trkpt lat="55.714149" lon="26.141518">
<ele>148.880981</ele>
<time>2010-07-18T06:46:41Z</time>
<desc>lat.=55.714149, lon.=26.141518, Alt.=148.880981m. Speed=21.816000m/h.</desc>
<speed>6.060000</speed>
</trkpt>
<trkpt lat="55.714191" lon="26.141584">
<ele>149.490356</ele>
<time>2010-07-18T06:46:42Z</time>
<desc>lat.=55.714191, lon.=26.141584, Alt.=149.490356m. Speed=21.275999m/h.</desc>
<speed>5.910000</speed>
</trkpt>
<trkpt lat="55.714237" lon="26.141644">
<ele>149.189575</ele>
<time>2010-07-18T06:46:43Z</time>
<desc>lat.=55.714237, lon.=26.141644, Alt.=149.189575m. Speed=21.600000m/h.</desc>
<speed>6.000000</speed>
</trkpt>
<trkpt lat="55.714283" lon="26.141691">
<ele>149.459106</ele>
<time>2010-07-18T06:46:44Z</time>
<desc>lat.=55.714283, lon.=26.141691, Alt.=149.459106m. Speed=21.888000m/h.</desc>
<speed>6.080000</speed>
</trkpt>
<trkpt lat="55.714329" lon="26.141756">
<ele>149.545044</ele>
<time>2010-07-18T06:46:45Z</time>
<desc>lat.=55.714329, lon.=26.141756, Alt.=149.545044m. Speed=22.896000m/h.</desc>
<speed>6.360000</speed>
</trkpt>
<trkpt lat="55.714375" lon="26.141817">
<ele>149.416138</ele>
<time>2010-07-18T06:46:46Z</time>
<desc>lat.=55.714375, lon.=26.141817, Alt.=149.416138m. Speed=21.636000m/h.</desc>
<speed>6.010000</speed>
</trkpt>
<trkpt lat="55.714417" lon="26.141878">
<ele>149.552856</ele>
<time>2010-07-18T06:46:47Z</time>
<desc>lat.=55.714417, lon.=26.141878, Alt.=149.552856m. Speed=21.096001m/h.</desc>
<speed>5.860000</speed>
</trkpt>
<trkpt lat="55.714458" lon="26.141937">
<ele>149.388794</ele>
<time>2010-07-18T06:46:48Z</time>
<desc>lat.=55.714458, lon.=26.141937, Alt.=149.388794m. Speed=21.816000m/h.</desc>
<speed>6.060000</speed>
</trkpt>
<trkpt lat="55.714508" lon="26.141996">
<ele>149.435669</ele>
<time>2010-07-18T06:46:49Z</time>
<desc>lat.=55.714508, lon.=26.141996, Alt.=149.435669m. Speed=21.492001m/h.</desc>
<speed>5.970000</speed>
</trkpt>
<trkpt lat="55.714550" lon="26.142057">
<ele>149.576294</ele>
<time>2010-07-18T06:46:50Z</time>
<desc>lat.=55.714550, lon.=26.142057, Alt.=149.576294m. Speed=21.851999m/h.</desc>
<speed>6.070000</speed>
</trkpt>
<trkpt lat="55.714592" lon="26.142120">
<ele>149.666138</ele>
<time>2010-07-18T06:46:51Z</time>
<desc>lat.=55.714592, lon.=26.142120, Alt.=149.666138m. Speed=21.743999m/h.</desc>
<speed>6.040000</speed>
</trkpt>
<trkpt lat="55.714634" lon="26.142176">
<ele>149.670044</ele>
<time>2010-07-18T06:46:52Z</time>
<desc>lat.=55.714634, lon.=26.142176, Alt.=149.670044m. Speed=20.844000m/h.</desc>
<speed>5.790000</speed>
</trkpt>
<trkpt lat="55.714680" lon="26.142233">
<ele>149.705200</ele>
<time>2010-07-18T06:46:53Z</time>
<desc>lat.=55.714680, lon.=26.142233, Alt.=149.705200m. Speed=21.780001m/h.</desc>
<speed>6.050000</speed>
</trkpt>
<trkpt lat="55.714718" lon="26.142292">
<ele>149.666138</ele>
<time>2010-07-18T06:46:54Z</time>
<desc>lat.=55.714718, lon.=26.142292, Alt.=149.666138m. Speed=19.368000m/h.</desc>
<speed>5.380000</speed>
</trkpt>
<trkpt lat="55.714752" lon="26.142353">
<ele>149.853638</ele>
<time>2010-07-18T06:46:55Z</time>
<desc>lat.=55.714752, lon.=26.142353, Alt.=149.853638m. Speed=20.412001m/h.</desc>
<speed>5.670000</speed>
</trkpt>
<trkpt lat="55.714794" lon="26.142424">
<ele>149.580200</ele>
<time>2010-07-18T06:46:56Z</time>
<desc>lat.=55.714794, lon.=26.142424, Alt.=149.580200m. Speed=20.664000m/h.</desc>
<speed>5.740000</speed>
</trkpt>
<trkpt lat="55.714840" lon="26.142496">
<ele>149.111450</ele>
<time>2010-07-18T06:46:57Z</time>
<desc>lat.=55.714840, lon.=26.142496, Alt.=149.111450m. Speed=22.320000m/h.</desc>
<speed>6.200000</speed>
</trkpt>
<trkpt lat="55.714886" lon="26.142561">
<ele>149.384888</ele>
<time>2010-07-18T06:46:58Z</time>
<desc>lat.=55.714886, lon.=26.142561, Alt.=149.384888m. Speed=21.348000m/h.</desc>
<speed>5.930000</speed>
</trkpt>
<trkpt lat="55.714931" lon="26.142622">
<ele>149.783325</ele>
<time>2010-07-18T06:46:59Z</time>
<desc>lat.=55.714931, lon.=26.142622, Alt.=149.783325m. Speed=19.332001m/h.</desc>
<speed>5.370000</speed>
</trkpt>
<trkpt lat="55.714970" lon="26.142681">
<ele>150.017700</ele>
<time>2010-07-18T06:47:00Z</time>
<desc>lat.=55.714970, lon.=26.142681, Alt.=150.017700m. Speed=19.080000m/h.</desc>
<speed>5.300000</speed>
</trkpt>
<trkpt lat="55.715000" lon="26.142740">
<ele>150.392700</ele>
<time>2010-07-18T06:47:01Z</time>
<desc>lat.=55.715000, lon.=26.142740, Alt.=150.392700m. Speed=17.351999m/h.</desc>
<speed>4.820000</speed>
</trkpt>
<trkpt lat="55.715027" lon="26.142784">
<ele>150.701294</ele>
<time>2010-07-18T06:47:02Z</time>
<desc>lat.=55.715027, lon.=26.142784, Alt.=150.701294m. Speed=16.308001m/h.</desc>
<speed>4.530000</speed>
</trkpt>
<trkpt lat="55.715054" lon="26.142824">
<ele>151.009888</ele>
<time>2010-07-18T06:47:03Z</time>
<desc>lat.=55.715054, lon.=26.142824, Alt.=151.009888m. Speed=13.464000m/h.</desc>
<speed>3.740000</speed>
</trkpt>
<trkpt lat="55.715080" lon="26.142868">
<ele>151.748169</ele>
<time>2010-07-18T06:47:04Z</time>
<desc>lat.=55.715080, lon.=26.142868, Alt.=151.748169m. Speed=14.652000m/h.</desc>
<speed>4.070000</speed>
</trkpt>
<trkpt lat="55.715103" lon="26.142920">
<ele>151.845825</ele>
<time>2010-07-18T06:47:05Z</time>
<desc>lat.=55.715103, lon.=26.142920, Alt.=151.845825m. Speed=14.256000m/h.</desc>
<speed>3.960000</speed>
</trkpt>
<trkpt lat="55.715126" lon="26.142969">
<ele>152.252075</ele>
<time>2010-07-18T06:47:06Z</time>
<desc>lat.=55.715126, lon.=26.142969, Alt.=152.252075m. Speed=14.940000m/h.</desc>
<speed>4.150000</speed>
</trkpt>
<trkpt lat="55.715149" lon="26.143028">
<ele>152.326294</ele>
<time>2010-07-18T06:47:07Z</time>
<desc>lat.=55.715149, lon.=26.143028, Alt.=152.326294m. Speed=14.652000m/h.</desc>
<speed>4.070000</speed>
</trkpt>
<trkpt lat="55.715172" lon="26.143082">
<ele>152.662231</ele>
<time>2010-07-18T06:47:08Z</time>
<desc>lat.=55.715172, lon.=26.143082, Alt.=152.662231m. Speed=13.392000m/h.</desc>
<speed>3.720000</speed>
</trkpt>
<trkpt lat="55.715199" lon="26.143127">
<ele>153.084106</ele>
<time>2010-07-18T06:47:09Z</time>
<desc>lat.=55.715199, lon.=26.143127, Alt.=153.084106m. Speed=12.708000m/h.</desc>
<speed>3.530000</speed>
</trkpt>
<trkpt lat="55.715214" lon="26.143188">
<ele>152.861450</ele>
<time>2010-07-18T06:47:10Z</time>
<desc>lat.=55.715214, lon.=26.143188, Alt.=152.861450m. Speed=11.304000m/h.</desc>
<speed>3.140000</speed>
</trkpt>
<trkpt lat="55.715225" lon="26.143238">
<ele>152.990356</ele>
<time>2010-07-18T06:47:11Z</time>
<desc>lat.=55.715225, lon.=26.143238, Alt.=152.990356m. Speed=12.312000m/h.</desc>
<speed>3.420000</speed>
</trkpt>
<trkpt lat="55.715244" lon="26.143293">
<ele>152.970825</ele>
<time>2010-07-18T06:47:12Z</time>
<desc>lat.=55.715244, lon.=26.143293, Alt.=152.970825m. Speed=13.644000m/h.</desc>
<speed>3.790000</speed>
</trkpt>
<trkpt lat="55.715263" lon="26.143351">
<ele>152.869263</ele>
<time>2010-07-18T06:47:13Z</time>
<desc>lat.=55.715263, lon.=26.143351, Alt.=152.869263m. Speed=13.320000m/h.</desc>
<speed>3.700000</speed>
</trkpt>
<trkpt lat="55.715279" lon="26.143402">
<ele>152.900513</ele>
<time>2010-07-18T06:47:14Z</time>
<desc>lat.=55.715279, lon.=26.143402, Alt.=152.900513m. Speed=12.960000m/h.</desc>
<speed>3.600000</speed>
</trkpt>
<trkpt lat="55.715298" lon="26.143457">
<ele>152.873169</ele>
<time>2010-07-18T06:47:15Z</time>
<desc>lat.=55.715298, lon.=26.143457, Alt.=152.873169m. Speed=13.716000m/h.</desc>
<speed>3.810000</speed>
</trkpt>
<trkpt lat="55.715317" lon="26.143509">
<ele>152.740356</ele>
<time>2010-07-18T06:47:16Z</time>
<desc>lat.=55.715317, lon.=26.143509, Alt.=152.740356m. Speed=13.176000m/h.</desc>
<speed>3.660000</speed>
</trkpt>
<trkpt lat="55.715332" lon="26.143562">
<ele>152.666138</ele>
<time>2010-07-18T06:47:17Z</time>
<desc>lat.=55.715332, lon.=26.143562, Alt.=152.666138m. Speed=12.924000m/h.</desc>
<speed>3.590000</speed>
</trkpt>
<trkpt lat="55.715347" lon="26.143618">
<ele>152.670044</ele>
<time>2010-07-18T06:47:18Z</time>
<desc>lat.=55.715347, lon.=26.143618, Alt.=152.670044m. Speed=13.680000m/h.</desc>
<speed>3.800000</speed>
</trkpt>
<trkpt lat="55.715363" lon="26.143671">
<ele>152.634888</ele>
<time>2010-07-18T06:47:19Z</time>
<desc>lat.=55.715363, lon.=26.143671, Alt.=152.634888m. Speed=13.572000m/h.</desc>
<speed>3.770000</speed>
</trkpt>
<trkpt lat="55.715382" lon="26.143723">
<ele>152.384888</ele>
<time>2010-07-18T06:47:20Z</time>
<desc>lat.=55.715382, lon.=26.143723, Alt.=152.384888m. Speed=13.536000m/h.</desc>
<speed>3.760000</speed>
</trkpt>
<trkpt lat="55.715401" lon="26.143776">
<ele>152.302856</ele>
<time>2010-07-18T06:47:21Z</time>
<desc>lat.=55.715401, lon.=26.143776, Alt.=152.302856m. Speed=14.112000m/h.</desc>
<speed>3.920000</speed>
</trkpt>
<trkpt lat="55.715420" lon="26.143843">
<ele>152.275513</ele>
<time>2010-07-18T06:47:22Z</time>
<desc>lat.=55.715420, lon.=26.143843, Alt.=152.275513m. Speed=14.580000m/h.</desc>
<speed>4.050000</speed>
</trkpt>
<trkpt lat="55.715443" lon="26.143909">
<ele>152.306763</ele>
<time>2010-07-18T06:47:23Z</time>
<desc>lat.=55.715443, lon.=26.143909, Alt.=152.306763m. Speed=15.624000m/h.</desc>
<speed>4.340000</speed>
</trkpt>
<trkpt lat="55.715466" lon="26.143969">
<ele>152.064575</ele>
<time>2010-07-18T06:47:24Z</time>
<desc>lat.=55.715466, lon.=26.143969, Alt.=152.064575m. Speed=15.660000m/h.</desc>
<speed>4.350000</speed>
</trkpt>
<trkpt lat="55.715485" lon="26.144032">
<ele>151.877075</ele>
<time>2010-07-18T06:47:25Z</time>
<desc>lat.=55.715485, lon.=26.144032, Alt.=151.877075m. Speed=15.444000m/h.</desc>
<speed>4.290000</speed>
</trkpt>
<trkpt lat="55.715511" lon="26.144089">
<ele>151.810669</ele>
<time>2010-07-18T06:47:26Z</time>
<desc>lat.=55.715511, lon.=26.144089, Alt.=151.810669m. Speed=14.976000m/h.</desc>
<speed>4.160000</speed>
</trkpt>
<trkpt lat="55.715534" lon="26.144146">
<ele>152.392700</ele>
<time>2010-07-18T06:47:27Z</time>
<desc>lat.=55.715534, lon.=26.144146, Alt.=152.392700m. Speed=15.588000m/h.</desc>
<speed>4.330000</speed>
</trkpt>
<trkpt lat="55.715561" lon="26.144203">
<ele>152.896606</ele>
<time>2010-07-18T06:47:28Z</time>
<desc>lat.=55.715561, lon.=26.144203, Alt.=152.896606m. Speed=15.408000m/h.</desc>
<speed>4.280000</speed>
</trkpt>
<trkpt lat="55.715588" lon="26.144266">
<ele>153.560669</ele>
<time>2010-07-18T06:47:29Z</time>
<desc>lat.=55.715588, lon.=26.144266, Alt.=153.560669m. Speed=15.120000m/h.</desc>
<speed>4.200000</speed>
</trkpt>
<trkpt lat="55.715607" lon="26.144320">
<ele>153.509888</ele>
<time>2010-07-18T06:47:30Z</time>
<desc>lat.=55.715607, lon.=26.144320, Alt.=153.509888m. Speed=14.436000m/h.</desc>
<speed>4.010000</speed>
</trkpt>
<trkpt lat="55.715622" lon="26.144382">
<ele>153.560669</ele>
<time>2010-07-18T06:47:31Z</time>
<desc>lat.=55.715622, lon.=26.144382, Alt.=153.560669m. Speed=14.976000m/h.</desc>
<speed>4.160000</speed>
</trkpt>
<trkpt lat="55.715641" lon="26.144442">
<ele>153.892700</ele>
<time>2010-07-18T06:47:32Z</time>
<desc>lat.=55.715641, lon.=26.144442, Alt.=153.892700m. Speed=15.192000m/h.</desc>
<speed>4.220000</speed>
</trkpt>
<trkpt lat="55.715672" lon="26.144503">
<ele>152.451294</ele>
<time>2010-07-18T06:47:33Z</time>
<desc>lat.=55.715672, lon.=26.144503, Alt.=152.451294m. Speed=15.336000m/h.</desc>
<speed>4.260000</speed>
</trkpt>
<trkpt lat="55.715694" lon="26.144562">
<ele>152.505981</ele>
<time>2010-07-18T06:47:34Z</time>
<desc>lat.=55.715694, lon.=26.144562, Alt.=152.505981m. Speed=15.048000m/h.</desc>
<speed>4.180000</speed>
</trkpt>
<trkpt lat="55.715717" lon="26.144619">
<ele>152.427856</ele>
<time>2010-07-18T06:47:35Z</time>
<desc>lat.=55.715717, lon.=26.144619, Alt.=152.427856m. Speed=14.904000m/h.</desc>
<speed>4.140000</speed>
</trkpt>
<trkpt lat="55.715736" lon="26.144676">
<ele>152.693481</ele>
<time>2010-07-18T06:47:36Z</time>
<desc>lat.=55.715736, lon.=26.144676, Alt.=152.693481m. Speed=14.940000m/h.</desc>
<speed>4.150000</speed>
</trkpt>
<trkpt lat="55.715755" lon="26.144735">
<ele>152.466919</ele>
<time>2010-07-18T06:47:37Z</time>
<desc>lat.=55.715755, lon.=26.144735, Alt.=152.466919m. Speed=15.084000m/h.</desc>
<speed>4.190000</speed>
</trkpt>
<trkpt lat="55.715771" lon="26.144800">
<ele>152.255981</ele>
<time>2010-07-18T06:47:38Z</time>
<desc>lat.=55.715771, lon.=26.144800, Alt.=152.255981m. Speed=15.480000m/h.</desc>
<speed>4.300000</speed>
</trkpt>
<trkpt lat="55.715801" lon="26.144869">
<ele>152.298950</ele>
<time>2010-07-18T06:47:39Z</time>
<desc>lat.=55.715801, lon.=26.144869, Alt.=152.298950m. Speed=15.948000m/h.</desc>
<speed>4.430000</speed>
</trkpt>
<trkpt lat="55.715824" lon="26.144938">
<ele>153.705200</ele>
<time>2010-07-18T06:47:40Z</time>
<desc>lat.=55.715824, lon.=26.144938, Alt.=153.705200m. Speed=16.704000m/h.</desc>
<speed>4.640000</speed>
</trkpt>
<trkpt lat="55.715855" lon="26.144999">
<ele>153.783325</ele>
<time>2010-07-18T06:47:41Z</time>
<desc>lat.=55.715855, lon.=26.144999, Alt.=153.783325m. Speed=16.452000m/h.</desc>
<speed>4.570000</speed>
</trkpt>
<trkpt lat="55.715881" lon="26.145056">
<ele>153.548950</ele>
<time>2010-07-18T06:47:42Z</time>
<desc>lat.=55.715881, lon.=26.145056, Alt.=153.548950m. Speed=16.740000m/h.</desc>
<speed>4.650000</speed>
</trkpt>
<trkpt lat="55.715900" lon="26.145117">
<ele>153.080200</ele>
<time>2010-07-18T06:47:43Z</time>
<desc>lat.=55.715900, lon.=26.145117, Alt.=153.080200m. Speed=17.388000m/h.</desc>
<speed>4.830000</speed>
</trkpt>
<trkpt lat="55.715927" lon="26.145180">
<ele>152.802856</ele>
<time>2010-07-18T06:47:44Z</time>
<desc>lat.=55.715927, lon.=26.145180, Alt.=152.802856m. Speed=17.784000m/h.</desc>
<speed>4.940000</speed>
</trkpt>
<trkpt lat="55.715946" lon="26.145254">
<ele>152.365356</ele>
<time>2010-07-18T06:47:45Z</time>
<desc>lat.=55.715946, lon.=26.145254, Alt.=152.365356m. Speed=18.000000m/h.</desc>
<speed>5.000000</speed>
</trkpt>
<trkpt lat="55.715973" lon="26.145325">
<ele>151.904419</ele>
<time>2010-07-18T06:47:46Z</time>
<desc>lat.=55.715973, lon.=26.145325, Alt.=151.904419m. Speed=17.136000m/h.</desc>
<speed>4.760000</speed>
</trkpt>
<trkpt lat="55.715996" lon="26.145386">
<ele>150.947388</ele>
<time>2010-07-18T06:47:47Z</time>
<desc>lat.=55.715996, lon.=26.145386, Alt.=150.947388m. Speed=15.984000m/h.</desc>
<speed>4.440000</speed>
</trkpt>
<trkpt lat="55.716019" lon="26.145445">
<ele>151.099731</ele>
<time>2010-07-18T06:47:48Z</time>
<desc>lat.=55.716019, lon.=26.145445, Alt.=151.099731m. Speed=15.552000m/h.</desc>
<speed>4.320000</speed>
</trkpt>
<trkpt lat="55.716057" lon="26.145496">
<ele>148.111450</ele>
<time>2010-07-18T06:47:49Z</time>
<desc>lat.=55.716057, lon.=26.145496, Alt.=148.111450m. Speed=14.544000m/h.</desc>
<speed>4.040000</speed>
</trkpt>
<trkpt lat="55.716076" lon="26.145552">
<ele>148.291138</ele>
<time>2010-07-18T06:47:50Z</time>
<desc>lat.=55.716076, lon.=26.145552, Alt.=148.291138m. Speed=14.760000m/h.</desc>
<speed>4.100000</speed>
</trkpt>
<trkpt lat="55.716091" lon="26.145603">
<ele>148.189575</ele>
<time>2010-07-18T06:47:51Z</time>
<desc>lat.=55.716091, lon.=26.145603, Alt.=148.189575m. Speed=14.184000m/h.</desc>
<speed>3.940000</speed>
</trkpt>
<trkpt lat="55.716110" lon="26.145655">
<ele>147.951294</ele>
<time>2010-07-18T06:47:52Z</time>
<desc>lat.=55.716110, lon.=26.145655, Alt.=147.951294m. Speed=13.356000m/h.</desc>
<speed>3.710000</speed>
</trkpt>
<trkpt lat="55.716129" lon="26.145708">
<ele>148.588013</ele>
<time>2010-07-18T06:47:53Z</time>
<desc>lat.=55.716129, lon.=26.145708, Alt.=148.588013m. Speed=12.960000m/h.</desc>
<speed>3.600000</speed>
</trkpt>
<trkpt lat="55.716145" lon="26.145750">
<ele>149.338013</ele>
<time>2010-07-18T06:47:54Z</time>
<desc>lat.=55.716145, lon.=26.145750, Alt.=149.338013m. Speed=11.520000m/h.</desc>
<speed>3.200000</speed>
</trkpt>
<trkpt lat="55.716164" lon="26.145790">
<ele>149.130981</ele>
<time>2010-07-18T06:47:55Z</time>
<desc>lat.=55.716164, lon.=26.145790, Alt.=149.130981m. Speed=11.520000m/h.</desc>
<speed>3.200000</speed>
</trkpt>
<trkpt lat="55.716183" lon="26.145834">
<ele>148.857544</ele>
<time>2010-07-18T06:47:56Z</time>
<desc>lat.=55.716183, lon.=26.145834, Alt.=148.857544m. Speed=11.772000m/h.</desc>
<speed>3.270000</speed>
</trkpt>
<trkpt lat="55.716202" lon="26.145880">
<ele>149.595825</ele>
<time>2010-07-18T06:47:57Z</time>
<desc>lat.=55.716202, lon.=26.145880, Alt.=149.595825m. Speed=11.052000m/h.</desc>
<speed>3.070000</speed>
</trkpt>
<trkpt lat="55.716217" lon="26.145914">
<ele>149.595825</ele>
<time>2010-07-18T06:47:58Z</time>
<desc>lat.=55.716217, lon.=26.145914, Alt.=149.595825m. Speed=9.972000m/h.</desc>
<speed>2.770000</speed>
</trkpt>
<trkpt lat="55.716232" lon="26.145937">
<ele>149.345825</ele>
<time>2010-07-18T06:47:59Z</time>
<desc>lat.=55.716232, lon.=26.145937, Alt.=149.345825m. Speed=8.532000m/h.</desc>
<speed>2.370000</speed>
</trkpt>
<trkpt lat="55.716240" lon="26.145962">
<ele>149.392700</ele>
<time>2010-07-18T06:48:00Z</time>
<desc>lat.=55.716240, lon.=26.145962, Alt.=149.392700m. Speed=7.992000m/h.</desc>
<speed>2.220000</speed>
</trkpt>
<trkpt lat="55.716240" lon="26.145990">
<ele>149.853638</ele>
<time>2010-07-18T06:48:01Z</time>
<desc>lat.=55.716240, lon.=26.145990, Alt.=149.853638m. Speed=6.480000m/h.</desc>
<speed>1.800000</speed>
</trkpt>
<trkpt lat="55.716244" lon="26.146002">
<ele>149.224731</ele>
<time>2010-07-18T06:48:02Z</time>
<desc>lat.=55.716244, lon.=26.146002, Alt.=149.224731m. Speed=2.484000m/h.</desc>
<speed>0.690000</speed>
</trkpt>
<trkpt lat="55.716244" lon="26.146006">
<ele>149.525513</ele>
<time>2010-07-18T06:48:03Z</time>
<desc>lat.=55.716244, lon.=26.146006, Alt.=149.525513m. Speed=1.692000m/h.</desc>
<speed>0.470000</speed>
</trkpt>
<trkpt lat="55.716248" lon="26.146008">
<ele>149.537231</ele>
<time>2010-07-18T06:48:04Z</time>
<desc>lat.=55.716248, lon.=26.146008, Alt.=149.537231m. Speed=1.224000m/h.</desc>
<speed>0.340000</speed>
</trkpt>
<trkpt lat="55.716251" lon="26.146004">
<ele>149.728638</ele>
<time>2010-07-18T06:48:05Z</time>
<desc>lat.=55.716251, lon.=26.146004, Alt.=149.728638m. Speed=1.260000m/h.</desc>
<speed>0.350000</speed>
</trkpt>
<trkpt lat="55.716255" lon="26.146006">
<ele>149.763794</ele>
<time>2010-07-18T06:48:06Z</time>
<desc>lat.=55.716255, lon.=26.146006, Alt.=149.763794m. Speed=0.612000m/h.</desc>
<speed>0.170000</speed>
</trkpt>
<trkpt lat="55.716255" lon="26.146008">
<ele>149.795044</ele>
<time>2010-07-18T06:48:07Z</time>
<desc>lat.=55.716255, lon.=26.146008, Alt.=149.795044m. Speed=0.360000m/h.</desc>
<speed>0.100000</speed>
</trkpt>
<trkpt lat="55.716255" lon="26.146009">
<ele>149.810669</ele>
<time>2010-07-18T06:48:08Z</time>
<desc>lat.=55.716255, lon.=26.146009, Alt.=149.810669m. Speed=0.000000m/h.</desc>
<speed>0.000000</speed>
</trkpt>
<trkpt lat="55.716255" lon="26.146009">
<ele>149.826294</ele>
<time>2010-07-18T06:48:09Z</time>
<desc>lat.=55.716255, lon.=26.146009, Alt.=149.826294m. Speed=0.252000m/h.</desc>
<speed>0.070000</speed>
</trkpt>
<trkpt lat="55.716255" lon="26.146009">
<ele>149.834106</ele>
<time>2010-07-18T06:48:10Z</time>
<desc>lat.=55.716255, lon.=26.146009, Alt.=149.834106m. Speed=0.252000m/h.</desc>
<speed>0.070000</speed>
</trkpt>
<trkpt lat="55.716255" lon="26.146008">
<ele>149.857544</ele>
<time>2010-07-18T06:48:11Z</time>
<desc>lat.=55.716255, lon.=26.146008, Alt.=149.857544m. Speed=0.180000m/h.</desc>
<speed>0.050000</speed>
</trkpt>
<trkpt lat="55.716255" lon="26.146008">
<ele>149.888794</ele>
<time>2010-07-18T06:48:12Z</time>
<desc>lat.=55.716255, lon.=26.146008, Alt.=149.888794m. Speed=0.216000m/h.</desc>
<speed>0.060000</speed>
</trkpt>
<trkpt lat="55.716255" lon="26.146006">
<ele>149.904419</ele>
<time>2010-07-18T06:48:13Z</time>
<desc>lat.=55.716255, lon.=26.146006, Alt.=149.904419m. Speed=0.180000m/h.</desc>
<speed>0.050000</speed>
</trkpt>
<trkpt lat="55.716255" lon="26.146008">
<ele>149.927856</ele>
<time>2010-07-18T06:48:14Z</time>
<desc>lat.=55.716255, lon.=26.146008, Alt.=149.927856m. Speed=0.396000m/h.</desc>
<speed>0.110000</speed>
</trkpt>
<trkpt lat="55.716255" lon="26.146008">
<ele>149.931763</ele>
<time>2010-07-18T06:48:15Z</time>
<desc>lat.=55.716255, lon.=26.146008, Alt.=149.931763m. Speed=0.108000m/h.</desc>
<speed>0.030000</speed>
</trkpt>
<trkpt lat="55.716255" lon="26.146008">
<ele>149.931763</ele>
<time>2010-07-18T06:48:16Z</time>
<desc>lat.=55.716255, lon.=26.146008, Alt.=149.931763m. Speed=0.216000m/h.</desc>
<speed>0.060000</speed>
</trkpt>
<trkpt lat="55.716255" lon="26.146008">
<ele>149.931763</ele>
<time>2010-07-18T06:48:17Z</time>
<desc>lat.=55.716255, lon.=26.146008, Alt.=149.931763m. Speed=0.684000m/h.</desc>
<speed>0.190000</speed>
</trkpt>
<trkpt lat="55.716255" lon="26.146006">
<ele>149.947388</ele>
<time>2010-07-18T06:48:18Z</time>
<desc>lat.=55.716255, lon.=26.146006, Alt.=149.947388m. Speed=0.540000m/h.</desc>
<speed>0.150000</speed>
</trkpt>
<trkpt lat="55.716255" lon="26.146006">
<ele>149.947388</ele>
<time>2010-07-18T06:48:19Z</time>
<desc>lat.=55.716255, lon.=26.146006, Alt.=149.947388m. Speed=0.432000m/h.</desc>
<speed>0.120000</speed>
</trkpt>
<trkpt lat="55.716259" lon="26.146006">
<ele>149.959106</ele>
<time>2010-07-18T06:48:20Z</time>
<desc>lat.=55.716259, lon.=26.146006, Alt.=149.959106m. Speed=0.324000m/h.</desc>
<speed>0.090000</speed>
</trkpt>
<trkpt lat="55.716255" lon="26.146006">
<ele>149.974731</ele>
<time>2010-07-18T06:48:21Z</time>
<desc>lat.=55.716255, lon.=26.146006, Alt.=149.974731m. Speed=0.396000m/h.</desc>
<speed>0.110000</speed>
</trkpt>
<trkpt lat="55.716255" lon="26.146006">
<ele>149.978638</ele>
<time>2010-07-18T06:48:22Z</time>
<desc>lat.=55.716255, lon.=26.146006, Alt.=149.978638m. Speed=0.216000m/h.</desc>
<speed>0.060000</speed>
</trkpt>
<trkpt lat="55.716255" lon="26.146008">
<ele>149.986450</ele>
<time>2010-07-18T06:48:23Z</time>
<desc>lat.=55.716255, lon.=26.146008, Alt.=149.986450m. Speed=0.180000m/h.</desc>
<speed>0.050000</speed>
</trkpt>
<trkpt lat="55.716255" lon="26.146006">
<ele>149.982544</ele>
<time>2010-07-18T06:48:24Z</time>
<desc>lat.=55.716255, lon.=26.146006, Alt.=149.982544m. Speed=0.180000m/h.</desc>
<speed>0.050000</speed>
</trkpt>
<trkpt lat="55.716255" lon="26.146006">
<ele>149.986450</ele>
<time>2010-07-18T06:48:25Z</time>
<desc>lat.=55.716255, lon.=26.146006, Alt.=149.986450m. Speed=0.252000m/h.</desc>
<speed>0.070000</speed>
</trkpt>
<trkpt lat="55.716255" lon="26.146006">
<ele>149.986450</ele>
<time>2010-07-18T06:48:26Z</time>
<desc>lat.=55.716255, lon.=26.146006, Alt.=149.986450m. Speed=0.216000m/h.</desc>
<speed>0.060000</speed>
</trkpt>
<trkpt lat="55.716251" lon="26.146006">
<ele>149.990356</ele>
<time>2010-07-18T06:48:27Z</time>
<desc>lat.=55.716251, lon.=26.146006, Alt.=149.990356m. Speed=0.504000m/h.</desc>
<speed>0.140000</speed>
</trkpt>
<trkpt lat="55.716251" lon="26.146006">
<ele>150.002075</ele>
<time>2010-07-18T06:48:28Z</time>
<desc>lat.=55.716251, lon.=26.146006, Alt.=150.002075m. Speed=0.720000m/h.</desc>
<speed>0.200000</speed>
</trkpt>
<trkpt lat="55.716251" lon="26.146004">
<ele>150.021606</ele>
<time>2010-07-18T06:48:29Z</time>
<desc>lat.=55.716251, lon.=26.146004, Alt.=150.021606m. Speed=0.684000m/h.</desc>
<speed>0.190000</speed>
</trkpt>
<trkpt lat="55.716248" lon="26.146002">
<ele>150.048950</ele>
<time>2010-07-18T06:48:30Z</time>
<desc>lat.=55.716248, lon.=26.146002, Alt.=150.048950m. Speed=0.576000m/h.</desc>
<speed>0.160000</speed>
</trkpt>
<trkpt lat="55.716248" lon="26.146002">
<ele>150.072388</ele>
<time>2010-07-18T06:48:31Z</time>
<desc>lat.=55.716248, lon.=26.146002, Alt.=150.072388m. Speed=0.432000m/h.</desc>
<speed>0.120000</speed>
</trkpt>
<trkpt lat="55.716248" lon="26.146000">
<ele>150.095825</ele>
<time>2010-07-18T06:48:32Z</time>
<desc>lat.=55.716248, lon.=26.146000, Alt.=150.095825m. Speed=0.468000m/h.</desc>
<speed>0.130000</speed>
</trkpt>
<trkpt lat="55.716244" lon="26.146000">
<ele>150.111450</ele>
<time>2010-07-18T06:48:33Z</time>
<desc>lat.=55.716244, lon.=26.146000, Alt.=150.111450m. Speed=0.180000m/h.</desc>
<speed>0.050000</speed>
</trkpt>
<trkpt lat="55.716244" lon="26.146000">
<ele>150.123169</ele>
<time>2010-07-18T06:48:34Z</time>
<desc>lat.=55.716244, lon.=26.146000, Alt.=150.123169m. Speed=0.036000m/h.</desc>
<speed>0.010000</speed>
</trkpt>
<trkpt lat="55.716244" lon="26.146000">
<ele>150.127075</ele>
<time>2010-07-18T06:48:35Z</time>
<desc>lat.=55.716244, lon.=26.146000, Alt.=150.127075m. Speed=0.108000m/h.</desc>
<speed>0.030000</speed>
</trkpt>
<trkpt lat="55.716244" lon="26.146000">
<ele>150.130981</ele>
<time>2010-07-18T06:48:36Z</time>
<desc>lat.=55.716244, lon.=26.146000, Alt.=150.130981m. Speed=0.108000m/h.</desc>
<speed>0.030000</speed>
</trkpt>
<trkpt lat="55.716244" lon="26.146000">
<ele>150.134888</ele>
<time>2010-07-18T06:48:37Z</time>
<desc>lat.=55.716244, lon.=26.146000, Alt.=150.134888m. Speed=0.072000m/h.</desc>
<speed>0.020000</speed>
</trkpt>
<trkpt lat="55.716244" lon="26.146000">
<ele>150.138794</ele>
<time>2010-07-18T06:48:38Z</time>
<desc>lat.=55.716244, lon.=26.146000, Alt.=150.138794m. Speed=0.180000m/h.</desc>
<speed>0.050000</speed>
</trkpt>
<trkpt lat="55.716244" lon="26.145998">
<ele>150.154419</ele>
<time>2010-07-18T06:48:39Z</time>
<desc>lat.=55.716244, lon.=26.145998, Alt.=150.154419m. Speed=0.504000m/h.</desc>
<speed>0.140000</speed>
</trkpt>
<trkpt lat="55.716244" lon="26.145998">
<ele>150.166138</ele>
<time>2010-07-18T06:48:40Z</time>
<desc>lat.=55.716244, lon.=26.145998, Alt.=150.166138m. Speed=0.468000m/h.</desc>
<speed>0.130000</speed>
</trkpt>
<trkpt lat="55.716240" lon="26.145998">
<ele>150.170044</ele>
<time>2010-07-18T06:48:41Z</time>
<desc>lat.=55.716240, lon.=26.145998, Alt.=150.170044m. Speed=0.288000m/h.</desc>
<speed>0.080000</speed>
</trkpt>
<trkpt lat="55.716240" lon="26.145998">
<ele>150.173950</ele>
<time>2010-07-18T06:48:42Z</time>
<desc>lat.=55.716240, lon.=26.145998, Alt.=150.173950m. Speed=0.432000m/h.</desc>
<speed>0.120000</speed>
</trkpt>
<trkpt lat="55.716240" lon="26.145998">
<ele>150.173950</ele>
<time>2010-07-18T06:48:43Z</time>
<desc>lat.=55.716240, lon.=26.145998, Alt.=150.173950m. Speed=0.324000m/h.</desc>
<speed>0.090000</speed>
</trkpt>
<trkpt lat="55.716240" lon="26.145996">
<ele>150.166138</ele>
<time>2010-07-18T06:48:44Z</time>
<desc>lat.=55.716240, lon.=26.145996, Alt.=150.166138m. Speed=0.180000m/h.</desc>
<speed>0.050000</speed>
</trkpt>
<trkpt lat="55.716240" lon="26.145996">
<ele>150.170044</ele>
<time>2010-07-18T06:48:45Z</time>
<desc>lat.=55.716240, lon.=26.145996, Alt.=150.170044m. Speed=0.144000m/h.</desc>
<speed>0.040000</speed>
</trkpt>
<trkpt lat="55.716236" lon="26.145996">
<ele>150.173950</ele>
<time>2010-07-18T06:48:46Z</time>
<desc>lat.=55.716236, lon.=26.145996, Alt.=150.173950m. Speed=0.216000m/h.</desc>
<speed>0.060000</speed>
</trkpt>
<trkpt lat="55.716240" lon="26.145996">
<ele>150.181763</ele>
<time>2010-07-18T06:48:47Z</time>
<desc>lat.=55.716240, lon.=26.145996, Alt.=150.181763m. Speed=0.252000m/h.</desc>
<speed>0.070000</speed>
</trkpt>
<trkpt lat="55.716240" lon="26.145994">
<ele>150.193481</ele>
<time>2010-07-18T06:48:48Z</time>
<desc>lat.=55.716240, lon.=26.145994, Alt.=150.193481m. Speed=0.252000m/h.</desc>
<speed>0.070000</speed>
</trkpt>
<trkpt lat="55.716240" lon="26.145996">
<ele>150.201294</ele>
<time>2010-07-18T06:48:49Z</time>
<desc>lat.=55.716240, lon.=26.145996, Alt.=150.201294m. Speed=0.504000m/h.</desc>
<speed>0.140000</speed>
</trkpt>
<trkpt lat="55.716240" lon="26.145996">
<ele>150.205200</ele>
<time>2010-07-18T06:48:50Z</time>
<desc>lat.=55.716240, lon.=26.145996, Alt.=150.205200m. Speed=0.360000m/h.</desc>
<speed>0.100000</speed>
</trkpt>
<trkpt lat="55.716240" lon="26.145998">
<ele>150.209106</ele>
<time>2010-07-18T06:48:51Z</time>
<desc>lat.=55.716240, lon.=26.145998, Alt.=150.209106m. Speed=0.360000m/h.</desc>
<speed>0.100000</speed>
</trkpt>
<trkpt lat="55.716240" lon="26.145996">
<ele>150.213013</ele>
<time>2010-07-18T06:48:52Z</time>
<desc>lat.=55.716240, lon.=26.145996, Alt.=150.213013m. Speed=0.360000m/h.</desc>
<speed>0.100000</speed>
</trkpt>
<trkpt lat="55.716240" lon="26.145996">
<ele>150.216919</ele>
<time>2010-07-18T06:48:53Z</time>
<desc>lat.=55.716240, lon.=26.145996, Alt.=150.216919m. Speed=0.216000m/h.</desc>
<speed>0.060000</speed>
</trkpt>
<trkpt lat="55.716240" lon="26.145996">
<ele>150.228638</ele>
<time>2010-07-18T06:48:54Z</time>
<desc>lat.=55.716240, lon.=26.145996, Alt.=150.228638m. Speed=0.072000m/h.</desc>
<speed>0.020000</speed>
</trkpt>
<trkpt lat="55.716240" lon="26.145996">
<ele>150.240356</ele>
<time>2010-07-18T06:48:55Z</time>
<desc>lat.=55.716240, lon.=26.145996, Alt.=150.240356m. Speed=0.288000m/h.</desc>
<speed>0.080000</speed>
</trkpt>
<trkpt lat="55.716240" lon="26.145994">
<ele>150.248169</ele>
<time>2010-07-18T06:48:56Z</time>
<desc>lat.=55.716240, lon.=26.145994, Alt.=150.248169m. Speed=0.324000m/h.</desc>
<speed>0.090000</speed>
</trkpt>
<trkpt lat="55.716240" lon="26.145994">
<ele>150.255981</ele>
<time>2010-07-18T06:48:57Z</time>
<desc>lat.=55.716240, lon.=26.145994, Alt.=150.255981m. Speed=0.360000m/h.</desc>
<speed>0.100000</speed>
</trkpt>
<trkpt lat="55.716236" lon="26.145994">
<ele>150.259888</ele>
<time>2010-07-18T06:48:58Z</time>
<desc>lat.=55.716236, lon.=26.145994, Alt.=150.259888m. Speed=0.072000m/h.</desc>
<speed>0.020000</speed>
</trkpt>
<trkpt lat="55.716236" lon="26.145994">
<ele>150.263794</ele>
<time>2010-07-18T06:48:59Z</time>
<desc>lat.=55.716236, lon.=26.145994, Alt.=150.263794m. Speed=0.108000m/h.</desc>
<speed>0.030000</speed>
</trkpt>
<trkpt lat="55.716236" lon="26.145992">
<ele>150.267700</ele>
<time>2010-07-18T06:49:00Z</time>
<desc>lat.=55.716236, lon.=26.145992, Alt.=150.267700m. Speed=0.504000m/h.</desc>
<speed>0.140000</speed>
</trkpt>
<trkpt lat="55.716240" lon="26.145992">
<ele>150.271606</ele>
<time>2010-07-18T06:49:01Z</time>
<desc>lat.=55.716240, lon.=26.145992, Alt.=150.271606m. Speed=0.684000m/h.</desc>
<speed>0.190000</speed>
</trkpt>
<trkpt lat="55.716240" lon="26.145992">
<ele>150.275513</ele>
<time>2010-07-18T06:49:02Z</time>
<desc>lat.=55.716240, lon.=26.145992, Alt.=150.275513m. Speed=0.612000m/h.</desc>
<speed>0.170000</speed>
</trkpt>
<trkpt lat="55.716244" lon="26.145992">
<ele>150.279419</ele>
<time>2010-07-18T06:49:03Z</time>
<desc>lat.=55.716244, lon.=26.145992, Alt.=150.279419m. Speed=0.288000m/h.</desc>
<speed>0.080000</speed>
</trkpt>
<trkpt lat="55.716244" lon="26.145992">
<ele>150.283325</ele>
<time>2010-07-18T06:49:04Z</time>
<desc>lat.=55.716244, lon.=26.145992, Alt.=150.283325m. Speed=0.432000m/h.</desc>
<speed>0.120000</speed>
</trkpt>
<trkpt lat="55.716240" lon="26.145990">
<ele>150.279419</ele>
<time>2010-07-18T06:49:05Z</time>
<desc>lat.=55.716240, lon.=26.145990, Alt.=150.279419m. Speed=0.756000m/h.</desc>
<speed>0.210000</speed>
</trkpt>
<trkpt lat="55.716240" lon="26.145988">
<ele>150.279419</ele>
<time>2010-07-18T06:49:06Z</time>
<desc>lat.=55.716240, lon.=26.145988, Alt.=150.279419m. Speed=0.792000m/h.</desc>
<speed>0.220000</speed>
</trkpt>
<trkpt lat="55.716236" lon="26.145988">
<ele>150.279419</ele>
<time>2010-07-18T06:49:07Z</time>
<desc>lat.=55.716236, lon.=26.145988, Alt.=150.279419m. Speed=0.972000m/h.</desc>
<speed>0.270000</speed>
</trkpt>
<trkpt lat="55.716236" lon="26.145987">
<ele>150.271606</ele>
<time>2010-07-18T06:49:08Z</time>
<desc>lat.=55.716236, lon.=26.145987, Alt.=150.271606m. Speed=0.144000m/h.</desc>
<speed>0.040000</speed>
</trkpt>
<trkpt lat="55.716236" lon="26.145988">
<ele>150.267700</ele>
<time>2010-07-18T06:49:09Z</time>
<desc>lat.=55.716236, lon.=26.145988, Alt.=150.267700m. Speed=0.504000m/h.</desc>
<speed>0.140000</speed>
</trkpt>
<trkpt lat="55.716236" lon="26.145990">
<ele>150.271606</ele>
<time>2010-07-18T06:49:10Z</time>
<desc>lat.=55.716236, lon.=26.145990, Alt.=150.271606m. Speed=0.108000m/h.</desc>
<speed>0.030000</speed>
</trkpt>
<trkpt lat="55.716236" lon="26.145990">
<ele>150.271606</ele>
<time>2010-07-18T06:49:11Z</time>
<desc>lat.=55.716236, lon.=26.145990, Alt.=150.271606m. Speed=0.396000m/h.</desc>
<speed>0.110000</speed>
</trkpt>
<trkpt lat="55.716236" lon="26.145990">
<ele>150.271606</ele>
<time>2010-07-18T06:49:12Z</time>
<desc>lat.=55.716236, lon.=26.145990, Alt.=150.271606m. Speed=0.324000m/h.</desc>
<speed>0.090000</speed>
</trkpt>
<trkpt lat="55.716236" lon="26.145990">
<ele>150.275513</ele>
<time>2010-07-18T06:49:13Z</time>
<desc>lat.=55.716236, lon.=26.145990, Alt.=150.275513m. Speed=0.144000m/h.</desc>
<speed>0.040000</speed>
</trkpt>
<trkpt lat="55.716236" lon="26.145990">
<ele>150.279419</ele>
<time>2010-07-18T06:49:14Z</time>
<desc>lat.=55.716236, lon.=26.145990, Alt.=150.279419m. Speed=0.360000m/h.</desc>
<speed>0.100000</speed>
</trkpt>
<trkpt lat="55.716236" lon="26.145992">
<ele>150.279419</ele>
<time>2010-07-18T06:49:15Z</time>
<desc>lat.=55.716236, lon.=26.145992, Alt.=150.279419m. Speed=0.576000m/h.</desc>
<speed>0.160000</speed>
</trkpt>
<trkpt lat="55.716236" lon="26.145994">
<ele>150.283325</ele>
<time>2010-07-18T06:49:16Z</time>
<desc>lat.=55.716236, lon.=26.145994, Alt.=150.283325m. Speed=1.656000m/h.</desc>
<speed>0.460000</speed>
</trkpt>
<trkpt lat="55.716240" lon="26.146002">
<ele>150.287231</ele>
<time>2010-07-18T06:49:17Z</time>
<desc>lat.=55.716240, lon.=26.146002, Alt.=150.287231m. Speed=3.492000m/h.</desc>
<speed>0.970000</speed>
</trkpt>
<trkpt lat="55.716240" lon="26.146017">
<ele>150.295044</ele>
<time>2010-07-18T06:49:18Z</time>
<desc>lat.=55.716240, lon.=26.146017, Alt.=150.295044m. Speed=4.968000m/h.</desc>
<speed>1.380000</speed>
</trkpt>
<trkpt lat="55.716244" lon="26.146061">
<ele>150.021606</ele>
<time>2010-07-18T06:49:19Z</time>
<desc>lat.=55.716244, lon.=26.146061, Alt.=150.021606m. Speed=6.552000m/h.</desc>
<speed>1.820000</speed>
</trkpt>
<trkpt lat="55.716251" lon="26.146105">
<ele>150.013794</ele>
<time>2010-07-18T06:49:20Z</time>
<desc>lat.=55.716251, lon.=26.146105, Alt.=150.013794m. Speed=11.880000m/h.</desc>
<speed>3.300000</speed>
</trkpt>
<trkpt lat="55.716267" lon="26.146160">
<ele>150.275513</ele>
<time>2010-07-18T06:49:21Z</time>
<desc>lat.=55.716267, lon.=26.146160, Alt.=150.275513m. Speed=14.436000m/h.</desc>
<speed>4.010000</speed>
</trkpt>
<trkpt lat="55.716293" lon="26.146212">
<ele>150.388794</ele>
<time>2010-07-18T06:49:22Z</time>
<desc>lat.=55.716293, lon.=26.146212, Alt.=150.388794m. Speed=15.768000m/h.</desc>
<speed>4.380000</speed>
</trkpt>
<trkpt lat="55.716320" lon="26.146269">
<ele>150.380981</ele>
<time>2010-07-18T06:49:23Z</time>
<desc>lat.=55.716320, lon.=26.146269, Alt.=150.380981m. Speed=17.639999m/h.</desc>
<speed>4.900000</speed>
</trkpt>
<trkpt lat="55.716347" lon="26.146334">
<ele>150.291138</ele>
<time>2010-07-18T06:49:24Z</time>
<desc>lat.=55.716347, lon.=26.146334, Alt.=150.291138m. Speed=18.180000m/h.</desc>
<speed>5.050000</speed>
</trkpt>
<trkpt lat="55.716373" lon="26.146404">
<ele>150.127075</ele>
<time>2010-07-18T06:49:25Z</time>
<desc>lat.=55.716373, lon.=26.146404, Alt.=150.127075m. Speed=20.232000m/h.</desc>
<speed>5.620000</speed>
</trkpt>
<trkpt lat="55.716412" lon="26.146484">
<ele>150.134888</ele>
<time>2010-07-18T06:49:26Z</time>
<desc>lat.=55.716412, lon.=26.146484, Alt.=150.134888m. Speed=21.636000m/h.</desc>
<speed>6.010000</speed>
</trkpt>
<trkpt lat="55.716442" lon="26.146566">
<ele>149.951294</ele>
<time>2010-07-18T06:49:27Z</time>
<desc>lat.=55.716442, lon.=26.146566, Alt.=149.951294m. Speed=22.320000m/h.</desc>
<speed>6.200000</speed>
</trkpt>
<trkpt lat="55.716476" lon="26.146656">
<ele>149.673950</ele>
<time>2010-07-18T06:49:28Z</time>
<desc>lat.=55.716476, lon.=26.146656, Alt.=149.673950m. Speed=23.832001m/h.</desc>
<speed>6.620000</speed>
</trkpt>
<trkpt lat="55.716511" lon="26.146751">
<ele>149.584106</ele>
<time>2010-07-18T06:49:29Z</time>
<desc>lat.=55.716511, lon.=26.146751, Alt.=149.584106m. Speed=26.063999m/h.</desc>
<speed>7.240000</speed>
</trkpt>
<trkpt lat="55.716553" lon="26.146852">
<ele>149.349731</ele>
<time>2010-07-18T06:49:30Z</time>
<desc>lat.=55.716553, lon.=26.146852, Alt.=149.349731m. Speed=28.440001m/h.</desc>
<speed>7.900000</speed>
</trkpt>
<trkpt lat="55.716599" lon="26.146969">
<ele>149.072388</ele>
<time>2010-07-18T06:49:31Z</time>
<desc>lat.=55.716599, lon.=26.146969, Alt.=149.072388m. Speed=29.771999m/h.</desc>
<speed>8.270000</speed>
</trkpt>
<trkpt lat="55.716637" lon="26.147089">
<ele>148.697388</ele>
<time>2010-07-18T06:49:32Z</time>
<desc>lat.=55.716637, lon.=26.147089, Alt.=148.697388m. Speed=29.591999m/h.</desc>
<speed>8.220000</speed>
</trkpt>
<trkpt lat="55.716663" lon="26.147209">
<ele>148.298950</ele>
<time>2010-07-18T06:49:33Z</time>
<desc>lat.=55.716663, lon.=26.147209, Alt.=148.298950m. Speed=29.232000m/h.</desc>
<speed>8.120000</speed>
</trkpt>
<trkpt lat="55.716698" lon="26.147331">
<ele>147.791138</ele>
<time>2010-07-18T06:49:34Z</time>
<desc>lat.=55.716698, lon.=26.147331, Alt.=147.791138m. Speed=30.059999m/h.</desc>
<speed>8.350000</speed>
</trkpt>
<trkpt lat="55.716721" lon="26.147459">
<ele>147.713013</ele>
<time>2010-07-18T06:49:35Z</time>
<desc>lat.=55.716721, lon.=26.147459, Alt.=147.713013m. Speed=30.096001m/h.</desc>
<speed>8.360000</speed>
</trkpt>
<trkpt lat="55.716740" lon="26.147585">
<ele>147.455200</ele>
<time>2010-07-18T06:49:36Z</time>
<desc>lat.=55.716740, lon.=26.147585, Alt.=147.455200m. Speed=27.504000m/h.</desc>
<speed>7.640000</speed>
</trkpt>
<trkpt lat="55.716759" lon="26.147703">
<ele>147.373169</ele>
<time>2010-07-18T06:49:37Z</time>
<desc>lat.=55.716759, lon.=26.147703, Alt.=147.373169m. Speed=27.540001m/h.</desc>
<speed>7.650000</speed>
</trkpt>
<trkpt lat="55.716778" lon="26.147814">
<ele>147.088013</ele>
<time>2010-07-18T06:49:38Z</time>
<desc>lat.=55.716778, lon.=26.147814, Alt.=147.088013m. Speed=26.388000m/h.</desc>
<speed>7.330000</speed>
</trkpt>
<trkpt lat="55.716805" lon="26.147926">
<ele>147.459106</ele>
<time>2010-07-18T06:49:39Z</time>
<desc>lat.=55.716805, lon.=26.147926, Alt.=147.459106m. Speed=25.992001m/h.</desc>
<speed>7.220000</speed>
</trkpt>
<trkpt lat="55.716827" lon="26.148033">
<ele>147.779419</ele>
<time>2010-07-18T06:49:40Z</time>
<desc>lat.=55.716827, lon.=26.148033, Alt.=147.779419m. Speed=25.308001m/h.</desc>
<speed>7.030000</speed>
</trkpt>
<trkpt lat="55.716858" lon="26.148146">
<ele>147.588013</ele>
<time>2010-07-18T06:49:41Z</time>
<desc>lat.=55.716858, lon.=26.148146, Alt.=147.588013m. Speed=26.063999m/h.</desc>
<speed>7.240000</speed>
</trkpt>
<trkpt lat="55.716873" lon="26.148260">
<ele>147.384888</ele>
<time>2010-07-18T06:49:42Z</time>
<desc>lat.=55.716873, lon.=26.148260, Alt.=147.384888m. Speed=25.379999m/h.</desc>
<speed>7.050000</speed>
</trkpt>
<trkpt lat="55.716904" lon="26.148365">
<ele>147.798950</ele>
<time>2010-07-18T06:49:43Z</time>
<desc>lat.=55.716904, lon.=26.148365, Alt.=147.798950m. Speed=24.480000m/h.</desc>
<speed>6.800000</speed>
</trkpt>
<trkpt lat="55.716938" lon="26.148468">
<ele>149.150513</ele>
<time>2010-07-18T06:49:44Z</time>
<desc>lat.=55.716938, lon.=26.148468, Alt.=149.150513m. Speed=23.400000m/h.</desc>
<speed>6.500000</speed>
</trkpt>
<trkpt lat="55.716980" lon="26.148561">
<ele>150.783325</ele>
<time>2010-07-18T06:49:45Z</time>
<desc>lat.=55.716980, lon.=26.148561, Alt.=150.783325m. Speed=21.924000m/h.</desc>
<speed>6.090000</speed>
</trkpt>
<trkpt lat="55.717010" lon="26.148651">
<ele>152.322388</ele>
<time>2010-07-18T06:49:46Z</time>
<desc>lat.=55.717010, lon.=26.148651, Alt.=152.322388m. Speed=20.879999m/h.</desc>
<speed>5.800000</speed>
</trkpt>
<trkpt lat="55.717037" lon="26.148741">
<ele>153.033325</ele>
<time>2010-07-18T06:49:47Z</time>
<desc>lat.=55.717037, lon.=26.148741, Alt.=153.033325m. Speed=20.879999m/h.</desc>
<speed>5.800000</speed>
</trkpt>
<trkpt lat="55.717064" lon="26.148815">
<ele>152.822388</ele>
<time>2010-07-18T06:49:48Z</time>
<desc>lat.=55.717064, lon.=26.148815, Alt.=152.822388m. Speed=19.115999m/h.</desc>
<speed>5.310000</speed>
</trkpt>
<trkpt lat="55.717091" lon="26.148888">
<ele>153.642700</ele>
<time>2010-07-18T06:49:49Z</time>
<desc>lat.=55.717091, lon.=26.148888, Alt.=153.642700m. Speed=18.360001m/h.</desc>
<speed>5.100000</speed>
</trkpt>
<trkpt lat="55.717121" lon="26.148952">
<ele>153.970825</ele>
<time>2010-07-18T06:49:50Z</time>
<desc>lat.=55.717121, lon.=26.148952, Alt.=153.970825m. Speed=18.684000m/h.</desc>
<speed>5.190000</speed>
</trkpt>
<trkpt lat="55.717148" lon="26.149014">
<ele>154.209106</ele>
<time>2010-07-18T06:49:51Z</time>
<desc>lat.=55.717148, lon.=26.149014, Alt.=154.209106m. Speed=18.504000m/h.</desc>
<speed>5.140000</speed>
</trkpt>
<trkpt lat="55.717178" lon="26.149080">
<ele>153.662231</ele>
<time>2010-07-18T06:49:52Z</time>
<desc>lat.=55.717178, lon.=26.149080, Alt.=153.662231m. Speed=18.431999m/h.</desc>
<speed>5.120000</speed>
</trkpt>
<trkpt lat="55.717205" lon="26.149153">
<ele>153.318481</ele>
<time>2010-07-18T06:49:53Z</time>
<desc>lat.=55.717205, lon.=26.149153, Alt.=153.318481m. Speed=19.511999m/h.</desc>
<speed>5.420000</speed>
</trkpt>
<trkpt lat="55.717239" lon="26.149218">
<ele>154.240356</ele>
<time>2010-07-18T06:49:54Z</time>
<desc>lat.=55.717239, lon.=26.149218, Alt.=154.240356m. Speed=19.728001m/h.</desc>
<speed>5.480000</speed>
</trkpt>
<trkpt lat="55.717274" lon="26.149282">
<ele>154.615356</ele>
<time>2010-07-18T06:49:55Z</time>
<desc>lat.=55.717274, lon.=26.149282, Alt.=154.615356m. Speed=19.764000m/h.</desc>
<speed>5.490000</speed>
</trkpt>
<trkpt lat="55.717304" lon="26.149353">
<ele>154.959106</ele>
<time>2010-07-18T06:49:56Z</time>
<desc>lat.=55.717304, lon.=26.149353, Alt.=154.959106m. Speed=18.756001m/h.</desc>
<speed>5.210000</speed>
</trkpt>
<trkpt lat="55.717335" lon="26.149416">
<ele>155.763794</ele>
<time>2010-07-18T06:49:57Z</time>
<desc>lat.=55.717335, lon.=26.149416, Alt.=155.763794m. Speed=18.972000m/h.</desc>
<speed>5.270000</speed>
</trkpt>
<trkpt lat="55.717365" lon="26.149479">
<ele>155.334106</ele>
<time>2010-07-18T06:49:58Z</time>
<desc>lat.=55.717365, lon.=26.149479, Alt.=155.334106m. Speed=18.072001m/h.</desc>
<speed>5.020000</speed>
</trkpt>
<trkpt lat="55.717396" lon="26.149532">
<ele>155.189575</ele>
<time>2010-07-18T06:49:59Z</time>
<desc>lat.=55.717396, lon.=26.149532, Alt.=155.189575m. Speed=15.588000m/h.</desc>
<speed>4.330000</speed>
</trkpt>
<trkpt lat="55.717415" lon="26.149584">
<ele>155.166138</ele>
<time>2010-07-18T06:50:00Z</time>
<desc>lat.=55.717415, lon.=26.149584, Alt.=155.166138m. Speed=14.364000m/h.</desc>
<speed>3.990000</speed>
</trkpt>
<trkpt lat="55.717438" lon="26.149635">
<ele>155.771606</ele>
<time>2010-07-18T06:50:01Z</time>
<desc>lat.=55.717438, lon.=26.149635, Alt.=155.771606m. Speed=13.392000m/h.</desc>
<speed>3.720000</speed>
</trkpt>
<trkpt lat="55.717453" lon="26.149685">
<ele>156.275513</ele>
<time>2010-07-18T06:50:02Z</time>
<desc>lat.=55.717453, lon.=26.149685, Alt.=156.275513m. Speed=10.908000m/h.</desc>
<speed>3.030000</speed>
</trkpt>
<trkpt lat="55.717468" lon="26.149725">
<ele>156.380981</ele>
<time>2010-07-18T06:50:03Z</time>
<desc>lat.=55.717468, lon.=26.149725, Alt.=156.380981m. Speed=10.476000m/h.</desc>
<speed>2.910000</speed>
</trkpt>
<trkpt lat="55.717484" lon="26.149765">
<ele>157.365356</ele>
<time>2010-07-18T06:50:04Z</time>
<desc>lat.=55.717484, lon.=26.149765, Alt.=157.365356m. Speed=9.432000m/h.</desc>
<speed>2.620000</speed>
</trkpt>
<trkpt lat="55.717491" lon="26.149792">
<ele>157.509888</ele>
<time>2010-07-18T06:50:05Z</time>
<desc>lat.=55.717491, lon.=26.149792, Alt.=157.509888m. Speed=7.344000m/h.</desc>
<speed>2.040000</speed>
</trkpt>
<trkpt lat="55.717503" lon="26.149818">
<ele>157.830200</ele>
<time>2010-07-18T06:50:06Z</time>
<desc>lat.=55.717503, lon.=26.149818, Alt.=157.830200m. Speed=7.524000m/h.</desc>
<speed>2.090000</speed>
</trkpt>
<trkpt lat="55.717514" lon="26.149851">
<ele>158.181763</ele>
<time>2010-07-18T06:50:07Z</time>
<desc>lat.=55.717514, lon.=26.149851, Alt.=158.181763m. Speed=8.496000m/h.</desc>
<speed>2.360000</speed>
</trkpt>
<trkpt lat="55.717529" lon="26.149887">
<ele>158.205200</ele>
<time>2010-07-18T06:50:08Z</time>
<desc>lat.=55.717529, lon.=26.149887, Alt.=158.205200m. Speed=9.360000m/h.</desc>
<speed>2.600000</speed>
</trkpt>
<trkpt lat="55.717548" lon="26.149921">
<ele>158.134888</ele>
<time>2010-07-18T06:50:09Z</time>
<desc>lat.=55.717548, lon.=26.149921, Alt.=158.134888m. Speed=9.072000m/h.</desc>
<speed>2.520000</speed>
</trkpt>
<trkpt lat="55.717564" lon="26.149956">
<ele>157.802856</ele>
<time>2010-07-18T06:50:10Z</time>
<desc>lat.=55.717564, lon.=26.149956, Alt.=157.802856m. Speed=8.712000m/h.</desc>
<speed>2.420000</speed>
</trkpt>
<trkpt lat="55.717579" lon="26.149990">
<ele>157.138794</ele>
<time>2010-07-18T06:50:11Z</time>
<desc>lat.=55.717579, lon.=26.149990, Alt.=157.138794m. Speed=9.684000m/h.</desc>
<speed>2.690000</speed>
</trkpt>
<trkpt lat="55.717598" lon="26.150024">
<ele>157.666138</ele>
<time>2010-07-18T06:50:12Z</time>
<desc>lat.=55.717598, lon.=26.150024, Alt.=157.666138m. Speed=11.556000m/h.</desc>
<speed>3.210000</speed>
</trkpt>
<trkpt lat="55.717621" lon="26.150061">
<ele>156.720825</ele>
<time>2010-07-18T06:50:13Z</time>
<desc>lat.=55.717621, lon.=26.150061, Alt.=156.720825m. Speed=9.432000m/h.</desc>
<speed>2.620000</speed>
</trkpt>
<trkpt lat="55.717640" lon="26.150091">
<ele>156.451294</ele>
<time>2010-07-18T06:50:14Z</time>
<desc>lat.=55.717640, lon.=26.150091, Alt.=156.451294m. Speed=8.316000m/h.</desc>
<speed>2.310000</speed>
</trkpt>
<trkpt lat="55.717651" lon="26.150110">
<ele>156.349731</ele>
<time>2010-07-18T06:50:15Z</time>
<desc>lat.=55.717651, lon.=26.150110, Alt.=156.349731m. Speed=6.516000m/h.</desc>
<speed>1.810000</speed>
</trkpt>
<trkpt lat="55.717659" lon="26.150133">
<ele>156.404419</ele>
<time>2010-07-18T06:50:16Z</time>
<desc>lat.=55.717659, lon.=26.150133, Alt.=156.404419m. Speed=6.336000m/h.</desc>
<speed>1.760000</speed>
</trkpt>
<trkpt lat="55.717674" lon="26.150162">
<ele>156.931763</ele>
<time>2010-07-18T06:50:17Z</time>
<desc>lat.=55.717674, lon.=26.150162, Alt.=156.931763m. Speed=8.712000m/h.</desc>
<speed>2.420000</speed>
</trkpt>
<trkpt lat="55.717686" lon="26.150198">
<ele>156.755981</ele>
<time>2010-07-18T06:50:18Z</time>
<desc>lat.=55.717686, lon.=26.150198, Alt.=156.755981m. Speed=10.764000m/h.</desc>
<speed>2.990000</speed>
</trkpt>
<trkpt lat="55.717701" lon="26.150242">
<ele>155.732544</ele>
<time>2010-07-18T06:50:19Z</time>
<desc>lat.=55.717701, lon.=26.150242, Alt.=155.732544m. Speed=12.780000m/h.</desc>
<speed>3.550000</speed>
</trkpt>
<trkpt lat="55.717720" lon="26.150295">
<ele>156.068481</ele>
<time>2010-07-18T06:50:20Z</time>
<desc>lat.=55.717720, lon.=26.150295, Alt.=156.068481m. Speed=13.248000m/h.</desc>
<speed>3.680000</speed>
</trkpt>
<trkpt lat="55.717743" lon="26.150352">
<ele>155.658325</ele>
<time>2010-07-18T06:50:21Z</time>
<desc>lat.=55.717743, lon.=26.150352, Alt.=155.658325m. Speed=14.364000m/h.</desc>
<speed>3.990000</speed>
</trkpt>
<trkpt lat="55.717758" lon="26.150415">
<ele>155.451294</ele>
<time>2010-07-18T06:50:22Z</time>
<desc>lat.=55.717758, lon.=26.150415, Alt.=155.451294m. Speed=15.264000m/h.</desc>
<speed>4.240000</speed>
</trkpt>
<trkpt lat="55.717777" lon="26.150475">
<ele>154.986450</ele>
<time>2010-07-18T06:50:23Z</time>
<desc>lat.=55.717777, lon.=26.150475, Alt.=154.986450m. Speed=16.200001m/h.</desc>
<speed>4.500000</speed>
</trkpt>
<trkpt lat="55.717800" lon="26.150534">
<ele>154.740356</ele>
<time>2010-07-18T06:50:24Z</time>
<desc>lat.=55.717800, lon.=26.150534, Alt.=154.740356m. Speed=15.588000m/h.</desc>
<speed>4.330000</speed>
</trkpt>
<trkpt lat="55.717819" lon="26.150595">
<ele>154.849731</ele>
<time>2010-07-18T06:50:25Z</time>
<desc>lat.=55.717819, lon.=26.150595, Alt.=154.849731m. Speed=17.424000m/h.</desc>
<speed>4.840000</speed>
</trkpt>
<trkpt lat="55.717842" lon="26.150660">
<ele>154.900513</ele>
<time>2010-07-18T06:50:26Z</time>
<desc>lat.=55.717842, lon.=26.150660, Alt.=154.900513m. Speed=17.747999m/h.</desc>
<speed>4.930000</speed>
</trkpt>
<trkpt lat="55.717865" lon="26.150726">
<ele>155.701294</ele>
<time>2010-07-18T06:50:27Z</time>
<desc>lat.=55.717865, lon.=26.150726, Alt.=155.701294m. Speed=17.351999m/h.</desc>
<speed>4.820000</speed>
</trkpt>
<trkpt lat="55.717892" lon="26.150793">
<ele>156.486450</ele>
<time>2010-07-18T06:50:28Z</time>
<desc>lat.=55.717892, lon.=26.150793, Alt.=156.486450m. Speed=16.452000m/h.</desc>
<speed>4.570000</speed>
</trkpt>
<trkpt lat="55.717911" lon="26.150856">
<ele>156.752075</ele>
<time>2010-07-18T06:50:29Z</time>
<desc>lat.=55.717911, lon.=26.150856, Alt.=156.752075m. Speed=16.308001m/h.</desc>
<speed>4.530000</speed>
</trkpt>
<trkpt lat="55.717937" lon="26.150917">
<ele>156.525513</ele>
<time>2010-07-18T06:50:30Z</time>
<desc>lat.=55.717937, lon.=26.150917, Alt.=156.525513m. Speed=16.020000m/h.</desc>
<speed>4.450000</speed>
</trkpt>
<trkpt lat="55.717960" lon="26.150980">
<ele>156.959106</ele>
<time>2010-07-18T06:50:31Z</time>
<desc>lat.=55.717960, lon.=26.150980, Alt.=156.959106m. Speed=15.012000m/h.</desc>
<speed>4.170000</speed>
</trkpt>
<trkpt lat="55.717979" lon="26.151037">
<ele>156.834106</ele>
<time>2010-07-18T06:50:32Z</time>
<desc>lat.=55.717979, lon.=26.151037, Alt.=156.834106m. Speed=15.948000m/h.</desc>
<speed>4.430000</speed>
</trkpt>
<trkpt lat="55.717995" lon="26.151104">
<ele>156.060669</ele>
<time>2010-07-18T06:50:33Z</time>
<desc>lat.=55.717995, lon.=26.151104, Alt.=156.060669m. Speed=16.271999m/h.</desc>
<speed>4.520000</speed>
</trkpt>
<trkpt lat="55.718018" lon="26.151167">
<ele>156.037231</ele>
<time>2010-07-18T06:50:34Z</time>
<desc>lat.=55.718018, lon.=26.151167, Alt.=156.037231m. Speed=17.243999m/h.</desc>
<speed>4.790000</speed>
</trkpt>
<trkpt lat="55.718044" lon="26.151230">
<ele>156.064575</ele>
<time>2010-07-18T06:50:35Z</time>
<desc>lat.=55.718044, lon.=26.151230, Alt.=156.064575m. Speed=18.540001m/h.</desc>
<speed>5.150000</speed>
</trkpt>
<trkpt lat="55.718067" lon="26.151299">
<ele>155.814575</ele>
<time>2010-07-18T06:50:36Z</time>
<desc>lat.=55.718067, lon.=26.151299, Alt.=155.814575m. Speed=18.035999m/h.</desc>
<speed>5.010000</speed>
</trkpt>
<trkpt lat="55.718098" lon="26.151365">
<ele>155.873169</ele>
<time>2010-07-18T06:50:37Z</time>
<desc>lat.=55.718098, lon.=26.151365, Alt.=155.873169m. Speed=18.576000m/h.</desc>
<speed>5.160000</speed>
</trkpt>
<trkpt lat="55.718124" lon="26.151432">
<ele>155.853638</ele>
<time>2010-07-18T06:50:38Z</time>
<desc>lat.=55.718124, lon.=26.151432, Alt.=155.853638m. Speed=18.396000m/h.</desc>
<speed>5.110000</speed>
</trkpt>
<trkpt lat="55.718155" lon="26.151508">
<ele>155.943481</ele>
<time>2010-07-18T06:50:39Z</time>
<desc>lat.=55.718155, lon.=26.151508, Alt.=155.943481m. Speed=20.628000m/h.</desc>
<speed>5.730000</speed>
</trkpt>
<trkpt lat="55.718182" lon="26.151585">
<ele>155.865356</ele>
<time>2010-07-18T06:50:40Z</time>
<desc>lat.=55.718182, lon.=26.151585, Alt.=155.865356m. Speed=20.268000m/h.</desc>
<speed>5.630000</speed>
</trkpt>
<trkpt lat="55.718208" lon="26.151657">
<ele>155.693481</ele>
<time>2010-07-18T06:50:41Z</time>
<desc>lat.=55.718208, lon.=26.151657, Alt.=155.693481m. Speed=19.115999m/h.</desc>
<speed>5.310000</speed>
</trkpt>
<trkpt lat="55.718231" lon="26.151730">
<ele>155.884888</ele>
<time>2010-07-18T06:50:42Z</time>
<desc>lat.=55.718231, lon.=26.151730, Alt.=155.884888m. Speed=18.756001m/h.</desc>
<speed>5.210000</speed>
</trkpt>
<trkpt lat="55.718246" lon="26.151800">
<ele>156.607544</ele>
<time>2010-07-18T06:50:43Z</time>
<desc>lat.=55.718246, lon.=26.151800, Alt.=156.607544m. Speed=18.360001m/h.</desc>
<speed>5.100000</speed>
</trkpt>
<trkpt lat="55.718266" lon="26.151865">
<ele>155.963013</ele>
<time>2010-07-18T06:50:44Z</time>
<desc>lat.=55.718266, lon.=26.151865, Alt.=155.963013m. Speed=18.827999m/h.</desc>
<speed>5.230000</speed>
</trkpt>
<trkpt lat="55.718292" lon="26.151932">
<ele>155.959106</ele>
<time>2010-07-18T06:50:45Z</time>
<desc>lat.=55.718292, lon.=26.151932, Alt.=155.959106m. Speed=19.260000m/h.</desc>
<speed>5.350000</speed>
</trkpt>
<trkpt lat="55.718315" lon="26.152004">
<ele>156.455200</ele>
<time>2010-07-18T06:50:46Z</time>
<desc>lat.=55.718315, lon.=26.152004, Alt.=156.455200m. Speed=18.719999m/h.</desc>
<speed>5.200000</speed>
</trkpt>
<trkpt lat="55.718342" lon="26.152079">
<ele>155.584106</ele>
<time>2010-07-18T06:50:47Z</time>
<desc>lat.=55.718342, lon.=26.152079, Alt.=155.584106m. Speed=18.827999m/h.</desc>
<speed>5.230000</speed>
</trkpt>
<trkpt lat="55.718369" lon="26.152151">
<ele>155.564575</ele>
<time>2010-07-18T06:50:48Z</time>
<desc>lat.=55.718369, lon.=26.152151, Alt.=155.564575m. Speed=19.007999m/h.</desc>
<speed>5.280000</speed>
</trkpt>
<trkpt lat="55.718395" lon="26.152222">
<ele>156.205200</ele>
<time>2010-07-18T06:50:49Z</time>
<desc>lat.=55.718395, lon.=26.152222, Alt.=156.205200m. Speed=19.620001m/h.</desc>
<speed>5.450000</speed>
</trkpt>
<trkpt lat="55.718426" lon="26.152296">
<ele>156.244263</ele>
<time>2010-07-18T06:50:50Z</time>
<desc>lat.=55.718426, lon.=26.152296, Alt.=156.244263m. Speed=20.916000m/h.</desc>
<speed>5.810000</speed>
</trkpt>
<trkpt lat="55.718452" lon="26.152372">
<ele>157.173950</ele>
<time>2010-07-18T06:50:51Z</time>
<desc>lat.=55.718452, lon.=26.152372, Alt.=157.173950m. Speed=21.563999m/h.</desc>
<speed>5.990000</speed>
</trkpt>
<trkpt lat="55.718483" lon="26.152452">
<ele>158.279419</ele>
<time>2010-07-18T06:50:52Z</time>
<desc>lat.=55.718483, lon.=26.152452, Alt.=158.279419m. Speed=21.384001m/h.</desc>
<speed>5.940000</speed>
</trkpt>
<trkpt lat="55.718513" lon="26.152529">
<ele>159.252075</ele>
<time>2010-07-18T06:50:53Z</time>
<desc>lat.=55.718513, lon.=26.152529, Alt.=159.252075m. Speed=21.059999m/h.</desc>
<speed>5.850000</speed>
</trkpt>
<trkpt lat="55.718536" lon="26.152607">
<ele>159.533325</ele>
<time>2010-07-18T06:50:54Z</time>
<desc>lat.=55.718536, lon.=26.152607, Alt.=159.533325m. Speed=18.936001m/h.</desc>
<speed>5.260000</speed>
</trkpt>
<trkpt lat="55.718567" lon="26.152685">
<ele>158.646606</ele>
<time>2010-07-18T06:50:55Z</time>
<desc>lat.=55.718567, lon.=26.152685, Alt.=158.646606m. Speed=19.584000m/h.</desc>
<speed>5.440000</speed>
</trkpt>
<trkpt lat="55.718590" lon="26.152765">
<ele>158.459106</ele>
<time>2010-07-18T06:50:56Z</time>
<desc>lat.=55.718590, lon.=26.152765, Alt.=158.459106m. Speed=19.836000m/h.</desc>
<speed>5.510000</speed>
</trkpt>
<trkpt lat="55.718620" lon="26.152845">
<ele>158.220825</ele>
<time>2010-07-18T06:50:57Z</time>
<desc>lat.=55.718620, lon.=26.152845, Alt.=158.220825m. Speed=20.916000m/h.</desc>
<speed>5.810000</speed>
</trkpt>
<trkpt lat="55.718655" lon="26.152920">
<ele>158.392700</ele>
<time>2010-07-18T06:50:58Z</time>
<desc>lat.=55.718655, lon.=26.152920, Alt.=158.392700m. Speed=21.528000m/h.</desc>
<speed>5.980000</speed>
</trkpt>
<trkpt lat="55.718681" lon="26.153011">
<ele>158.084106</ele>
<time>2010-07-18T06:50:59Z</time>
<desc>lat.=55.718681, lon.=26.153011, Alt.=158.084106m. Speed=22.176001m/h.</desc>
<speed>6.160000</speed>
</trkpt>
<trkpt lat="55.718712" lon="26.153097">
<ele>158.787231</ele>
<time>2010-07-18T06:51:00Z</time>
<desc>lat.=55.718712, lon.=26.153097, Alt.=158.787231m. Speed=22.572001m/h.</desc>
<speed>6.270000</speed>
</trkpt>
<trkpt lat="55.718742" lon="26.153185">
<ele>158.771606</ele>
<time>2010-07-18T06:51:01Z</time>
<desc>lat.=55.718742, lon.=26.153185, Alt.=158.771606m. Speed=24.660000m/h.</desc>
<speed>6.850000</speed>
</trkpt>
<trkpt lat="55.718781" lon="26.153275">
<ele>158.408325</ele>
<time>2010-07-18T06:51:02Z</time>
<desc>lat.=55.718781, lon.=26.153275, Alt.=158.408325m. Speed=24.587999m/h.</desc>
<speed>6.830000</speed>
</trkpt>
<trkpt lat="55.718815" lon="26.153360">
<ele>157.802856</ele>
<time>2010-07-18T06:51:03Z</time>
<desc>lat.=55.718815, lon.=26.153360, Alt.=157.802856m. Speed=24.768000m/h.</desc>
<speed>6.880000</speed>
</trkpt>
<trkpt lat="55.718849" lon="26.153450">
<ele>157.740356</ele>
<time>2010-07-18T06:51:04Z</time>
<desc>lat.=55.718849, lon.=26.153450, Alt.=157.740356m. Speed=24.516001m/h.</desc>
<speed>6.810000</speed>
</trkpt>
<trkpt lat="55.718876" lon="26.153538">
<ele>158.189575</ele>
<time>2010-07-18T06:51:05Z</time>
<desc>lat.=55.718876, lon.=26.153538, Alt.=158.189575m. Speed=23.040001m/h.</desc>
<speed>6.400000</speed>
</trkpt>
<trkpt lat="55.718903" lon="26.153614">
<ele>156.998169</ele>
<time>2010-07-18T06:51:06Z</time>
<desc>lat.=55.718903, lon.=26.153614, Alt.=156.998169m. Speed=22.032000m/h.</desc>
<speed>6.120000</speed>
</trkpt>
<trkpt lat="55.718933" lon="26.153692">
<ele>156.173950</ele>
<time>2010-07-18T06:51:07Z</time>
<desc>lat.=55.718933, lon.=26.153692, Alt.=156.173950m. Speed=22.608000m/h.</desc>
<speed>6.280000</speed>
</trkpt>
<trkpt lat="55.718960" lon="26.153770">
<ele>157.224731</ele>
<time>2010-07-18T06:51:08Z</time>
<desc>lat.=55.718960, lon.=26.153770, Alt.=157.224731m. Speed=21.924000m/h.</desc>
<speed>6.090000</speed>
</trkpt>
<trkpt lat="55.718990" lon="26.153851">
<ele>157.755981</ele>
<time>2010-07-18T06:51:09Z</time>
<desc>lat.=55.718990, lon.=26.153851, Alt.=157.755981m. Speed=20.160000m/h.</desc>
<speed>5.600000</speed>
</trkpt>
<trkpt lat="55.719017" lon="26.153934">
<ele>158.076294</ele>
<time>2010-07-18T06:51:10Z</time>
<desc>lat.=55.719017, lon.=26.153934, Alt.=158.076294m. Speed=19.799999m/h.</desc>
<speed>5.500000</speed>
</trkpt>
<trkpt lat="55.719044" lon="26.154007">
<ele>158.216919</ele>
<time>2010-07-18T06:51:11Z</time>
<desc>lat.=55.719044, lon.=26.154007, Alt.=158.216919m. Speed=18.900000m/h.</desc>
<speed>5.250000</speed>
</trkpt>
<trkpt lat="55.719067" lon="26.154079">
<ele>157.880981</ele>
<time>2010-07-18T06:51:12Z</time>
<desc>lat.=55.719067, lon.=26.154079, Alt.=157.880981m. Speed=18.072001m/h.</desc>
<speed>5.020000</speed>
</trkpt>
<trkpt lat="55.719090" lon="26.154150">
<ele>157.806763</ele>
<time>2010-07-18T06:51:13Z</time>
<desc>lat.=55.719090, lon.=26.154150, Alt.=157.806763m. Speed=19.188000m/h.</desc>
<speed>5.330000</speed>
</trkpt>
<trkpt lat="55.719120" lon="26.154217">
<ele>158.025513</ele>
<time>2010-07-18T06:51:14Z</time>
<desc>lat.=55.719120, lon.=26.154217, Alt.=158.025513m. Speed=18.864000m/h.</desc>
<speed>5.240000</speed>
</trkpt>
<trkpt lat="55.719139" lon="26.154291">
<ele>158.283325</ele>
<time>2010-07-18T06:51:15Z</time>
<desc>lat.=55.719139, lon.=26.154291, Alt.=158.283325m. Speed=18.827999m/h.</desc>
<speed>5.230000</speed>
</trkpt>
<trkpt lat="55.719162" lon="26.154371">
<ele>158.548950</ele>
<time>2010-07-18T06:51:16Z</time>
<desc>lat.=55.719162, lon.=26.154371, Alt.=158.548950m. Speed=19.728001m/h.</desc>
<speed>5.480000</speed>
</trkpt>
<trkpt lat="55.719193" lon="26.154451">
<ele>157.752075</ele>
<time>2010-07-18T06:51:17Z</time>
<desc>lat.=55.719193, lon.=26.154451, Alt.=157.752075m. Speed=20.556000m/h.</desc>
<speed>5.710000</speed>
</trkpt>
<trkpt lat="55.719212" lon="26.154537">
<ele>157.173950</ele>
<time>2010-07-18T06:51:18Z</time>
<desc>lat.=55.719212, lon.=26.154537, Alt.=157.173950m. Speed=20.808001m/h.</desc>
<speed>5.780000</speed>
</trkpt>
<trkpt lat="55.719231" lon="26.154633">
<ele>157.193481</ele>
<time>2010-07-18T06:51:19Z</time>
<desc>lat.=55.719231, lon.=26.154633, Alt.=157.193481m. Speed=23.148001m/h.</desc>
<speed>6.430000</speed>
</trkpt>
<trkpt lat="55.719254" lon="26.154730">
<ele>156.822388</ele>
<time>2010-07-18T06:51:20Z</time>
<desc>lat.=55.719254, lon.=26.154730, Alt.=156.822388m. Speed=22.680000m/h.</desc>
<speed>6.300000</speed>
</trkpt>
<trkpt lat="55.719273" lon="26.154827">
<ele>158.720825</ele>
<time>2010-07-18T06:51:21Z</time>
<desc>lat.=55.719273, lon.=26.154827, Alt.=158.720825m. Speed=22.284000m/h.</desc>
<speed>6.190000</speed>
</trkpt>
<trkpt lat="55.719288" lon="26.154926">
<ele>158.482544</ele>
<time>2010-07-18T06:51:22Z</time>
<desc>lat.=55.719288, lon.=26.154926, Alt.=158.482544m. Speed=21.024000m/h.</desc>
<speed>5.840000</speed>
</trkpt>
<trkpt lat="55.719303" lon="26.155010">
<ele>158.728638</ele>
<time>2010-07-18T06:51:23Z</time>
<desc>lat.=55.719303, lon.=26.155010, Alt.=158.728638m. Speed=20.304001m/h.</desc>
<speed>5.640000</speed>
</trkpt>
<trkpt lat="55.719318" lon="26.155092">
<ele>159.002075</ele>
<time>2010-07-18T06:51:24Z</time>
<desc>lat.=55.719318, lon.=26.155092, Alt.=159.002075m. Speed=19.080000m/h.</desc>
<speed>5.300000</speed>
</trkpt>
<trkpt lat="55.719341" lon="26.155165">
<ele>159.884888</ele>
<time>2010-07-18T06:51:25Z</time>
<desc>lat.=55.719341, lon.=26.155165, Alt.=159.884888m. Speed=18.323999m/h.</desc>
<speed>5.090000</speed>
</trkpt>
<trkpt lat="55.719360" lon="26.155239">
<ele>160.693481</ele>
<time>2010-07-18T06:51:26Z</time>
<desc>lat.=55.719360, lon.=26.155239, Alt.=160.693481m. Speed=19.620001m/h.</desc>
<speed>5.450000</speed>
</trkpt>
<trkpt lat="55.719383" lon="26.155315">
<ele>161.615356</ele>
<time>2010-07-18T06:51:27Z</time>
<desc>lat.=55.719383, lon.=26.155315, Alt.=161.615356m. Speed=19.944000m/h.</desc>
<speed>5.540000</speed>
</trkpt>
<trkpt lat="55.719402" lon="26.155397">
<ele>162.002075</ele>
<time>2010-07-18T06:51:28Z</time>
<desc>lat.=55.719402, lon.=26.155397, Alt.=162.002075m. Speed=19.691999m/h.</desc>
<speed>5.470000</speed>
</trkpt>
<trkpt lat="55.719425" lon="26.155472">
<ele>162.646606</ele>
<time>2010-07-18T06:51:29Z</time>
<desc>lat.=55.719425, lon.=26.155472, Alt.=162.646606m. Speed=18.827999m/h.</desc>
<speed>5.230000</speed>
</trkpt>
<trkpt lat="55.719444" lon="26.155539">
<ele>162.677856</ele>
<time>2010-07-18T06:51:30Z</time>
<desc>lat.=55.719444, lon.=26.155539, Alt.=162.677856m. Speed=16.271999m/h.</desc>
<speed>4.520000</speed>
</trkpt>
<trkpt lat="55.719463" lon="26.155603">
<ele>162.869263</ele>
<time>2010-07-18T06:51:31Z</time>
<desc>lat.=55.719463, lon.=26.155603, Alt.=162.869263m. Speed=16.164000m/h.</desc>
<speed>4.490000</speed>
</trkpt>
<trkpt lat="55.719479" lon="26.155666">
<ele>163.697388</ele>
<time>2010-07-18T06:51:32Z</time>
<desc>lat.=55.719479, lon.=26.155666, Alt.=163.697388m. Speed=14.436000m/h.</desc>
<speed>4.010000</speed>
</trkpt>
<trkpt lat="55.719494" lon="26.155731">
<ele>164.048950</ele>
<time>2010-07-18T06:51:33Z</time>
<desc>lat.=55.719494, lon.=26.155731, Alt.=164.048950m. Speed=15.480000m/h.</desc>
<speed>4.300000</speed>
</trkpt>
<trkpt lat="55.719505" lon="26.155790">
<ele>164.119263</ele>
<time>2010-07-18T06:51:34Z</time>
<desc>lat.=55.719505, lon.=26.155790, Alt.=164.119263m. Speed=11.376000m/h.</desc>
<speed>3.160000</speed>
</trkpt>
<trkpt lat="55.719536" lon="26.155863">
<ele>164.744263</ele>
<time>2010-07-18T06:51:35Z</time>
<desc>lat.=55.719536, lon.=26.155863, Alt.=164.744263m. Speed=17.172001m/h.</desc>
<speed>4.770000</speed>
</trkpt>
<trkpt lat="55.719563" lon="26.155935">
<ele>164.826294</ele>
<time>2010-07-18T06:51:36Z</time>
<desc>lat.=55.719563, lon.=26.155935, Alt.=164.826294m. Speed=16.740000m/h.</desc>
<speed>4.650000</speed>
</trkpt>
<trkpt lat="55.719585" lon="26.156015">
<ele>164.255981</ele>
<time>2010-07-18T06:51:37Z</time>
<desc>lat.=55.719585, lon.=26.156015, Alt.=164.255981m. Speed=17.028000m/h.</desc>
<speed>4.730000</speed>
</trkpt>
<trkpt lat="55.719608" lon="26.156090">
<ele>163.232544</ele>
<time>2010-07-18T06:51:38Z</time>
<desc>lat.=55.719608, lon.=26.156090, Alt.=163.232544m. Speed=14.472000m/h.</desc>
<speed>4.020000</speed>
</trkpt>
<trkpt lat="55.719631" lon="26.156160">
<ele>163.701294</ele>
<time>2010-07-18T06:51:39Z</time>
<desc>lat.=55.719631, lon.=26.156160, Alt.=163.701294m. Speed=16.271999m/h.</desc>
<speed>4.520000</speed>
</trkpt>
<trkpt lat="55.719662" lon="26.156237">
<ele>162.658325</ele>
<time>2010-07-18T06:51:40Z</time>
<desc>lat.=55.719662, lon.=26.156237, Alt.=162.658325m. Speed=16.344000m/h.</desc>
<speed>4.540000</speed>
</trkpt>
<trkpt lat="55.719677" lon="26.156300">
<ele>162.822388</ele>
<time>2010-07-18T06:51:41Z</time>
<desc>lat.=55.719677, lon.=26.156300, Alt.=162.822388m. Speed=13.464000m/h.</desc>
<speed>3.740000</speed>
</trkpt>
<trkpt lat="55.719681" lon="26.156378">
<ele>162.853638</ele>
<time>2010-07-18T06:51:42Z</time>
<desc>lat.=55.719681, lon.=26.156378, Alt.=162.853638m. Speed=15.228000m/h.</desc>
<speed>4.230000</speed>
</trkpt>
<trkpt lat="55.719692" lon="26.156452">
<ele>163.345825</ele>
<time>2010-07-18T06:51:43Z</time>
<desc>lat.=55.719692, lon.=26.156452, Alt.=163.345825m. Speed=16.344000m/h.</desc>
<speed>4.540000</speed>
</trkpt>
<trkpt lat="55.719707" lon="26.156521">
<ele>164.291138</ele>
<time>2010-07-18T06:51:44Z</time>
<desc>lat.=55.719707, lon.=26.156521, Alt.=164.291138m. Speed=13.968000m/h.</desc>
<speed>3.880000</speed>
</trkpt>
<trkpt lat="55.719723" lon="26.156584">
<ele>165.150513</ele>
<time>2010-07-18T06:51:45Z</time>
<desc>lat.=55.719723, lon.=26.156584, Alt.=165.150513m. Speed=14.112000m/h.</desc>
<speed>3.920000</speed>
</trkpt>
<trkpt lat="55.719738" lon="26.156643">
<ele>165.576294</ele>
<time>2010-07-18T06:51:46Z</time>
<desc>lat.=55.719738, lon.=26.156643, Alt.=165.576294m. Speed=13.608000m/h.</desc>
<speed>3.780000</speed>
</trkpt>
<trkpt lat="55.719753" lon="26.156698">
<ele>165.880981</ele>
<time>2010-07-18T06:51:47Z</time>
<desc>lat.=55.719753, lon.=26.156698, Alt.=165.880981m. Speed=12.024000m/h.</desc>
<speed>3.340000</speed>
</trkpt>
<trkpt lat="55.719765" lon="26.156769">
<ele>167.021606</ele>
<time>2010-07-18T06:51:48Z</time>
<desc>lat.=55.719765, lon.=26.156769, Alt.=167.021606m. Speed=12.096000m/h.</desc>
<speed>3.360000</speed>
</trkpt>
<trkpt lat="55.719791" lon="26.156836">
<ele>166.103638</ele>
<time>2010-07-18T06:51:49Z</time>
<desc>lat.=55.719791, lon.=26.156836, Alt.=166.103638m. Speed=13.140000m/h.</desc>
<speed>3.650000</speed>
</trkpt>
<trkpt lat="55.719810" lon="26.156900">
<ele>166.283325</ele>
<time>2010-07-18T06:51:50Z</time>
<desc>lat.=55.719810, lon.=26.156900, Alt.=166.283325m. Speed=13.860000m/h.</desc>
<speed>3.850000</speed>
</trkpt>
<trkpt lat="55.719830" lon="26.156971">
<ele>166.970825</ele>
<time>2010-07-18T06:51:51Z</time>
<desc>lat.=55.719830, lon.=26.156971, Alt.=166.970825m. Speed=14.400000m/h.</desc>
<speed>4.000000</speed>
</trkpt>
<trkpt lat="55.719868" lon="26.157042">
<ele>161.857544</ele>
<time>2010-07-18T06:51:52Z</time>
<desc>lat.=55.719868, lon.=26.157042, Alt.=161.857544m. Speed=14.652000m/h.</desc>
<speed>4.070000</speed>
</trkpt>
<trkpt lat="55.719887" lon="26.157104">
<ele>161.752075</ele>
<time>2010-07-18T06:51:53Z</time>
<desc>lat.=55.719887, lon.=26.157104, Alt.=161.752075m. Speed=14.580000m/h.</desc>
<speed>4.050000</speed>
</trkpt>
<trkpt lat="55.719906" lon="26.157158">
<ele>161.787231</ele>
<time>2010-07-18T06:51:54Z</time>
<desc>lat.=55.719906, lon.=26.157158, Alt.=161.787231m. Speed=12.780000m/h.</desc>
<speed>3.550000</speed>
</trkpt>
<trkpt lat="55.719944" lon="26.157213">
<ele>157.502075</ele>
<time>2010-07-18T06:51:55Z</time>
<desc>lat.=55.719944, lon.=26.157213, Alt.=157.502075m. Speed=12.528000m/h.</desc>
<speed>3.480000</speed>
</trkpt>
<trkpt lat="55.719986" lon="26.157263">
<ele>156.045044</ele>
<time>2010-07-18T06:51:56Z</time>
<desc>lat.=55.719986, lon.=26.157263, Alt.=156.045044m. Speed=11.988000m/h.</desc>
<speed>3.330000</speed>
</trkpt>
<trkpt lat="55.720013" lon="26.157322">
<ele>155.505981</ele>
<time>2010-07-18T06:51:57Z</time>
<desc>lat.=55.720013, lon.=26.157322, Alt.=155.505981m. Speed=11.160000m/h.</desc>
<speed>3.100000</speed>
</trkpt>
<trkpt lat="55.720028" lon="26.157364">
<ele>155.314575</ele>
<time>2010-07-18T06:51:58Z</time>
<desc>lat.=55.720028, lon.=26.157364, Alt.=155.314575m. Speed=10.908000m/h.</desc>
<speed>3.030000</speed>
</trkpt>
<trkpt lat="55.720051" lon="26.157398">
<ele>155.884888</ele>
<time>2010-07-18T06:51:59Z</time>
<desc>lat.=55.720051, lon.=26.157398, Alt.=155.884888m. Speed=9.972000m/h.</desc>
<speed>2.770000</speed>
</trkpt>
<trkpt lat="55.720078" lon="26.157431">
<ele>156.681763</ele>
<time>2010-07-18T06:52:00Z</time>
<desc>lat.=55.720078, lon.=26.157431, Alt.=156.681763m. Speed=10.584000m/h.</desc>
<speed>2.940000</speed>
</trkpt>
<trkpt lat="55.720093" lon="26.157469">
<ele>157.345825</ele>
<time>2010-07-18T06:52:01Z</time>
<desc>lat.=55.720093, lon.=26.157469, Alt.=157.345825m. Speed=8.748000m/h.</desc>
<speed>2.430000</speed>
</trkpt>
<trkpt lat="55.720108" lon="26.157509">
<ele>157.841919</ele>
<time>2010-07-18T06:52:02Z</time>
<desc>lat.=55.720108, lon.=26.157509, Alt.=157.841919m. Speed=9.324000m/h.</desc>
<speed>2.590000</speed>
</trkpt>
<trkpt lat="55.720127" lon="26.157551">
<ele>158.103638</ele>
<time>2010-07-18T06:52:03Z</time>
<desc>lat.=55.720127, lon.=26.157551, Alt.=158.103638m. Speed=8.820000m/h.</desc>
<speed>2.450000</speed>
</trkpt>
<trkpt lat="55.720142" lon="26.157587">
<ele>158.931763</ele>
<time>2010-07-18T06:52:04Z</time>
<desc>lat.=55.720142, lon.=26.157587, Alt.=158.931763m. Speed=9.576000m/h.</desc>
<speed>2.660000</speed>
</trkpt>
<trkpt lat="55.720161" lon="26.157621">
<ele>158.673950</ele>
<time>2010-07-18T06:52:05Z</time>
<desc>lat.=55.720161, lon.=26.157621, Alt.=158.673950m. Speed=10.548000m/h.</desc>
<speed>2.930000</speed>
</trkpt>
<trkpt lat="55.720181" lon="26.157661">
<ele>158.982544</ele>
<time>2010-07-18T06:52:06Z</time>
<desc>lat.=55.720181, lon.=26.157661, Alt.=158.982544m. Speed=12.636000m/h.</desc>
<speed>3.510000</speed>
</trkpt>
<trkpt lat="55.720207" lon="26.157703">
<ele>158.736450</ele>
<time>2010-07-18T06:52:07Z</time>
<desc>lat.=55.720207, lon.=26.157703, Alt.=158.736450m. Speed=13.176000m/h.</desc>
<speed>3.660000</speed>
</trkpt>
<trkpt lat="55.720230" lon="26.157759">
<ele>158.451294</ele>
<time>2010-07-18T06:52:08Z</time>
<desc>lat.=55.720230, lon.=26.157759, Alt.=158.451294m. Speed=16.524000m/h.</desc>
<speed>4.590000</speed>
</trkpt>
<trkpt lat="55.720253" lon="26.157829">
<ele>158.189575</ele>
<time>2010-07-18T06:52:09Z</time>
<desc>lat.=55.720253, lon.=26.157829, Alt.=158.189575m. Speed=19.368000m/h.</desc>
<speed>5.380000</speed>
</trkpt>
<trkpt lat="55.720280" lon="26.157909">
<ele>157.888794</ele>
<time>2010-07-18T06:52:10Z</time>
<desc>lat.=55.720280, lon.=26.157909, Alt.=157.888794m. Speed=20.844000m/h.</desc>
<speed>5.790000</speed>
</trkpt>
<trkpt lat="55.720306" lon="26.157991">
<ele>157.439575</ele>
<time>2010-07-18T06:52:11Z</time>
<desc>lat.=55.720306, lon.=26.157991, Alt.=157.439575m. Speed=21.240000m/h.</desc>
<speed>5.900000</speed>
</trkpt>
<trkpt lat="55.720337" lon="26.158075">
<ele>157.095825</ele>
<time>2010-07-18T06:52:12Z</time>
<desc>lat.=55.720337, lon.=26.158075, Alt.=157.095825m. Speed=22.284000m/h.</desc>
<speed>6.190000</speed>
</trkpt>
<trkpt lat="55.720367" lon="26.158165">
<ele>156.763794</ele>
<time>2010-07-18T06:52:13Z</time>
<desc>lat.=55.720367, lon.=26.158165, Alt.=156.763794m. Speed=22.139999m/h.</desc>
<speed>6.150000</speed>
</trkpt>
<trkpt lat="55.720394" lon="26.158253">
<ele>156.673950</ele>
<time>2010-07-18T06:52:14Z</time>
<desc>lat.=55.720394, lon.=26.158253, Alt.=156.673950m. Speed=21.996000m/h.</desc>
<speed>6.110000</speed>
</trkpt>
<trkpt lat="55.720417" lon="26.158337">
<ele>156.830200</ele>
<time>2010-07-18T06:52:15Z</time>
<desc>lat.=55.720417, lon.=26.158337, Alt.=156.830200m. Speed=21.888000m/h.</desc>
<speed>6.080000</speed>
</trkpt>
<trkpt lat="55.720436" lon="26.158421">
<ele>156.392700</ele>
<time>2010-07-18T06:52:16Z</time>
<desc>lat.=55.720436, lon.=26.158421, Alt.=156.392700m. Speed=21.348000m/h.</desc>
<speed>5.930000</speed>
</trkpt>
<trkpt lat="55.720455" lon="26.158508">
<ele>155.439575</ele>
<time>2010-07-18T06:52:17Z</time>
<desc>lat.=55.720455, lon.=26.158508, Alt.=155.439575m. Speed=20.952000m/h.</desc>
<speed>5.820000</speed>
</trkpt>
<trkpt lat="55.720474" lon="26.158590">
<ele>154.459106</ele>
<time>2010-07-18T06:52:18Z</time>
<desc>lat.=55.720474, lon.=26.158590, Alt.=154.459106m. Speed=20.268000m/h.</desc>
<speed>5.630000</speed>
</trkpt>
<trkpt lat="55.720490" lon="26.158672">
<ele>154.197388</ele>
<time>2010-07-18T06:52:19Z</time>
<desc>lat.=55.720490, lon.=26.158672, Alt.=154.197388m. Speed=19.440001m/h.</desc>
<speed>5.400000</speed>
</trkpt>
<trkpt lat="55.720512" lon="26.158758">
<ele>154.849731</ele>
<time>2010-07-18T06:52:20Z</time>
<desc>lat.=55.720512, lon.=26.158758, Alt.=154.849731m. Speed=18.540001m/h.</desc>
<speed>5.150000</speed>
</trkpt>
<trkpt lat="55.720531" lon="26.158838">
<ele>155.916138</ele>
<time>2010-07-18T06:52:21Z</time>
<desc>lat.=55.720531, lon.=26.158838, Alt.=155.916138m. Speed=18.000000m/h.</desc>
<speed>5.000000</speed>
</trkpt>
<trkpt lat="55.720539" lon="26.158913">
<ele>154.599731</ele>
<time>2010-07-18T06:52:22Z</time>
<desc>lat.=55.720539, lon.=26.158913, Alt.=154.599731m. Speed=17.136000m/h.</desc>
<speed>4.760000</speed>
</trkpt>
<trkpt lat="55.720551" lon="26.158983">
<ele>154.314575</ele>
<time>2010-07-18T06:52:23Z</time>
<desc>lat.=55.720551, lon.=26.158983, Alt.=154.314575m. Speed=16.488001m/h.</desc>
<speed>4.580000</speed>
</trkpt>
<trkpt lat="55.720570" lon="26.159058">
<ele>154.341919</ele>
<time>2010-07-18T06:52:24Z</time>
<desc>lat.=55.720570, lon.=26.159058, Alt.=154.341919m. Speed=17.316000m/h.</desc>
<speed>4.810000</speed>
</trkpt>
<trkpt lat="55.720581" lon="26.159132">
<ele>153.466919</ele>
<time>2010-07-18T06:52:25Z</time>
<desc>lat.=55.720581, lon.=26.159132, Alt.=153.466919m. Speed=17.424000m/h.</desc>
<speed>4.840000</speed>
</trkpt>
<trkpt lat="55.720596" lon="26.159208">
<ele>153.154419</ele>
<time>2010-07-18T06:52:26Z</time>
<desc>lat.=55.720596, lon.=26.159208, Alt.=153.154419m. Speed=17.820000m/h.</desc>
<speed>4.950000</speed>
</trkpt>
<trkpt lat="55.720612" lon="26.159286">
<ele>153.509888</ele>
<time>2010-07-18T06:52:27Z</time>
<desc>lat.=55.720612, lon.=26.159286, Alt.=153.509888m. Speed=17.604000m/h.</desc>
<speed>4.890000</speed>
</trkpt>
<trkpt lat="55.720627" lon="26.159365">
<ele>153.806763</ele>
<time>2010-07-18T06:52:28Z</time>
<desc>lat.=55.720627, lon.=26.159365, Alt.=153.806763m. Speed=17.712000m/h.</desc>
<speed>4.920000</speed>
</trkpt>
<trkpt lat="55.720642" lon="26.159443">
<ele>153.634888</ele>
<time>2010-07-18T06:52:29Z</time>
<desc>lat.=55.720642, lon.=26.159443, Alt.=153.634888m. Speed=18.000000m/h.</desc>
<speed>5.000000</speed>
</trkpt>
<trkpt lat="55.720654" lon="26.159529">
<ele>152.974731</ele>
<time>2010-07-18T06:52:30Z</time>
<desc>lat.=55.720654, lon.=26.159529, Alt.=152.974731m. Speed=19.872000m/h.</desc>
<speed>5.520000</speed>
</trkpt>
<trkpt lat="55.720665" lon="26.159620">
<ele>153.591919</ele>
<time>2010-07-18T06:52:31Z</time>
<desc>lat.=55.720665, lon.=26.159620, Alt.=153.591919m. Speed=19.440001m/h.</desc>
<speed>5.400000</speed>
</trkpt>
<trkpt lat="55.720676" lon="26.159702">
<ele>153.752075</ele>
<time>2010-07-18T06:52:32Z</time>
<desc>lat.=55.720676, lon.=26.159702, Alt.=153.752075m. Speed=18.684000m/h.</desc>
<speed>5.190000</speed>
</trkpt>
<trkpt lat="55.720695" lon="26.159781">
<ele>153.423950</ele>
<time>2010-07-18T06:52:33Z</time>
<desc>lat.=55.720695, lon.=26.159781, Alt.=153.423950m. Speed=18.035999m/h.</desc>
<speed>5.010000</speed>
</trkpt>
<trkpt lat="55.720711" lon="26.159857">
<ele>153.763794</ele>
<time>2010-07-18T06:52:34Z</time>
<desc>lat.=55.720711, lon.=26.159857, Alt.=153.763794m. Speed=18.684000m/h.</desc>
<speed>5.190000</speed>
</trkpt>
<trkpt lat="55.720726" lon="26.159941">
<ele>153.517700</ele>
<time>2010-07-18T06:52:35Z</time>
<desc>lat.=55.720726, lon.=26.159941, Alt.=153.517700m. Speed=19.728001m/h.</desc>
<speed>5.480000</speed>
</trkpt>
<trkpt lat="55.720745" lon="26.160025">
<ele>153.564575</ele>
<time>2010-07-18T06:52:36Z</time>
<desc>lat.=55.720745, lon.=26.160025, Alt.=153.564575m. Speed=20.808001m/h.</desc>
<speed>5.780000</speed>
</trkpt>
<trkpt lat="55.720760" lon="26.160114">
<ele>153.318481</ele>
<time>2010-07-18T06:52:37Z</time>
<desc>lat.=55.720760, lon.=26.160114, Alt.=153.318481m. Speed=20.988001m/h.</desc>
<speed>5.830000</speed>
</trkpt>
<trkpt lat="55.720779" lon="26.160200">
<ele>152.752075</ele>
<time>2010-07-18T06:52:38Z</time>
<desc>lat.=55.720779, lon.=26.160200, Alt.=152.752075m. Speed=20.879999m/h.</desc>
<speed>5.800000</speed>
</trkpt>
<trkpt lat="55.720798" lon="26.160284">
<ele>152.435669</ele>
<time>2010-07-18T06:52:39Z</time>
<desc>lat.=55.720798, lon.=26.160284, Alt.=152.435669m. Speed=20.952000m/h.</desc>
<speed>5.820000</speed>
</trkpt>
<trkpt lat="55.720825" lon="26.160362">
<ele>153.255981</ele>
<time>2010-07-18T06:52:40Z</time>
<desc>lat.=55.720825, lon.=26.160362, Alt.=153.255981m. Speed=20.483999m/h.</desc>
<speed>5.690000</speed>
</trkpt>
<trkpt lat="55.720852" lon="26.160442">
<ele>153.443481</ele>
<time>2010-07-18T06:52:41Z</time>
<desc>lat.=55.720852, lon.=26.160442, Alt.=153.443481m. Speed=19.368000m/h.</desc>
<speed>5.380000</speed>
</trkpt>
<trkpt lat="55.720879" lon="26.160515">
<ele>154.353638</ele>
<time>2010-07-18T06:52:42Z</time>
<desc>lat.=55.720879, lon.=26.160515, Alt.=154.353638m. Speed=18.288000m/h.</desc>
<speed>5.080000</speed>
</trkpt>
<trkpt lat="55.720905" lon="26.160582">
<ele>153.857544</ele>
<time>2010-07-18T06:52:43Z</time>
<desc>lat.=55.720905, lon.=26.160582, Alt.=153.857544m. Speed=18.000000m/h.</desc>
<speed>5.000000</speed>
</trkpt>
<trkpt lat="55.720932" lon="26.160639">
<ele>153.416138</ele>
<time>2010-07-18T06:52:44Z</time>
<desc>lat.=55.720932, lon.=26.160639, Alt.=153.416138m. Speed=18.252001m/h.</desc>
<speed>5.070000</speed>
</trkpt>
<trkpt lat="55.720970" lon="26.160698">
<ele>152.826294</ele>
<time>2010-07-18T06:52:45Z</time>
<desc>lat.=55.720970, lon.=26.160698, Alt.=152.826294m. Speed=19.115999m/h.</desc>
<speed>5.310000</speed>
</trkpt>
<trkpt lat="55.721004" lon="26.160753">
<ele>152.806763</ele>
<time>2010-07-18T06:52:46Z</time>
<desc>lat.=55.721004, lon.=26.160753, Alt.=152.806763m. Speed=18.827999m/h.</desc>
<speed>5.230000</speed>
</trkpt>
<trkpt lat="55.721035" lon="26.160814">
<ele>152.849731</ele>
<time>2010-07-18T06:52:47Z</time>
<desc>lat.=55.721035, lon.=26.160814, Alt.=152.849731m. Speed=18.035999m/h.</desc>
<speed>5.010000</speed>
</trkpt>
<trkpt lat="55.721066" lon="26.160872">
<ele>152.716919</ele>
<time>2010-07-18T06:52:48Z</time>
<desc>lat.=55.721066, lon.=26.160872, Alt.=152.716919m. Speed=17.208000m/h.</desc>
<speed>4.780000</speed>
</trkpt>
<trkpt lat="55.721104" lon="26.160915">
<ele>152.713013</ele>
<time>2010-07-18T06:52:49Z</time>
<desc>lat.=55.721104, lon.=26.160915, Alt.=152.713013m. Speed=16.992001m/h.</desc>
<speed>4.720000</speed>
</trkpt>
<trkpt lat="55.721142" lon="26.160948">
<ele>152.548950</ele>
<time>2010-07-18T06:52:50Z</time>
<desc>lat.=55.721142, lon.=26.160948, Alt.=152.548950m. Speed=16.632000m/h.</desc>
<speed>4.620000</speed>
</trkpt>
<trkpt lat="55.721180" lon="26.160975">
<ele>152.138794</ele>
<time>2010-07-18T06:52:51Z</time>
<desc>lat.=55.721180, lon.=26.160975, Alt.=152.138794m. Speed=16.308001m/h.</desc>
<speed>4.530000</speed>
</trkpt>
<trkpt lat="55.721214" lon="26.161005">
<ele>152.138794</ele>
<time>2010-07-18T06:52:52Z</time>
<desc>lat.=55.721214, lon.=26.161005, Alt.=152.138794m. Speed=16.308001m/h.</desc>
<speed>4.530000</speed>
</trkpt>
<trkpt lat="55.721249" lon="26.161036">
<ele>152.498169</ele>
<time>2010-07-18T06:52:53Z</time>
<desc>lat.=55.721249, lon.=26.161036, Alt.=152.498169m. Speed=15.804000m/h.</desc>
<speed>4.390000</speed>
</trkpt>
<trkpt lat="55.721279" lon="26.161064">
<ele>152.388794</ele>
<time>2010-07-18T06:52:54Z</time>
<desc>lat.=55.721279, lon.=26.161064, Alt.=152.388794m. Speed=14.904000m/h.</desc>
<speed>4.140000</speed>
</trkpt>
<trkpt lat="55.721317" lon="26.161091">
<ele>152.357544</ele>
<time>2010-07-18T06:52:55Z</time>
<desc>lat.=55.721317, lon.=26.161091, Alt.=152.357544m. Speed=16.236000m/h.</desc>
<speed>4.510000</speed>
</trkpt>
<trkpt lat="55.721355" lon="26.161121">
<ele>152.283325</ele>
<time>2010-07-18T06:52:56Z</time>
<desc>lat.=55.721355, lon.=26.161121, Alt.=152.283325m. Speed=16.812000m/h.</desc>
<speed>4.670000</speed>
</trkpt>
<trkpt lat="55.721390" lon="26.161146">
<ele>152.158325</ele>
<time>2010-07-18T06:52:57Z</time>
<desc>lat.=55.721390, lon.=26.161146, Alt.=152.158325m. Speed=16.416000m/h.</desc>
<speed>4.560000</speed>
</trkpt>
<trkpt lat="55.721432" lon="26.161169">
<ele>152.142700</ele>
<time>2010-07-18T06:52:58Z</time>
<desc>lat.=55.721432, lon.=26.161169, Alt.=152.142700m. Speed=17.172001m/h.</desc>
<speed>4.770000</speed>
</trkpt>
<trkpt lat="55.721470" lon="26.161200">
<ele>152.080200</ele>
<time>2010-07-18T06:52:59Z</time>
<desc>lat.=55.721470, lon.=26.161200, Alt.=152.080200m. Speed=18.288000m/h.</desc>
<speed>5.080000</speed>
</trkpt>
<trkpt lat="55.721512" lon="26.161224">
<ele>152.021606</ele>
<time>2010-07-18T06:53:00Z</time>
<desc>lat.=55.721512, lon.=26.161224, Alt.=152.021606m. Speed=17.747999m/h.</desc>
<speed>4.930000</speed>
</trkpt>
<trkpt lat="55.721554" lon="26.161245">
<ele>152.013794</ele>
<time>2010-07-18T06:53:01Z</time>
<desc>lat.=55.721554, lon.=26.161245, Alt.=152.013794m. Speed=17.388000m/h.</desc>
<speed>4.830000</speed>
</trkpt>
<trkpt lat="55.721592" lon="26.161266">
<ele>152.615356</ele>
<time>2010-07-18T06:53:02Z</time>
<desc>lat.=55.721592, lon.=26.161266, Alt.=152.615356m. Speed=17.712000m/h.</desc>
<speed>4.920000</speed>
</trkpt>
<trkpt lat="55.721634" lon="26.161285">
<ele>152.502075</ele>
<time>2010-07-18T06:53:03Z</time>
<desc>lat.=55.721634, lon.=26.161285, Alt.=152.502075m. Speed=16.775999m/h.</desc>
<speed>4.660000</speed>
</trkpt>
<trkpt lat="55.721676" lon="26.161303">
<ele>153.002075</ele>
<time>2010-07-18T06:53:04Z</time>
<desc>lat.=55.721676, lon.=26.161303, Alt.=153.002075m. Speed=16.416000m/h.</desc>
<speed>4.560000</speed>
</trkpt>
<trkpt lat="55.721722" lon="26.161316">
<ele>153.388794</ele>
<time>2010-07-18T06:53:05Z</time>
<desc>lat.=55.721722, lon.=26.161316, Alt.=153.388794m. Speed=16.452000m/h.</desc>
<speed>4.570000</speed>
</trkpt>
<trkpt lat="55.721760" lon="26.161327">
<ele>153.677856</ele>
<time>2010-07-18T06:53:06Z</time>
<desc>lat.=55.721760, lon.=26.161327, Alt.=153.677856m. Speed=15.336000m/h.</desc>
<speed>4.260000</speed>
</trkpt>
<trkpt lat="55.721798" lon="26.161345">
<ele>154.041138</ele>
<time>2010-07-18T06:53:07Z</time>
<desc>lat.=55.721798, lon.=26.161345, Alt.=154.041138m. Speed=15.588000m/h.</desc>
<speed>4.330000</speed>
</trkpt>
<trkpt lat="55.721836" lon="26.161362">
<ele>154.396606</ele>
<time>2010-07-18T06:53:08Z</time>
<desc>lat.=55.721836, lon.=26.161362, Alt.=154.396606m. Speed=15.624000m/h.</desc>
<speed>4.340000</speed>
</trkpt>
<trkpt lat="55.721882" lon="26.161379">
<ele>154.838013</ele>
<time>2010-07-18T06:53:09Z</time>
<desc>lat.=55.721882, lon.=26.161379, Alt.=154.838013m. Speed=16.920000m/h.</desc>
<speed>4.700000</speed>
</trkpt>
<trkpt lat="55.721920" lon="26.161398">
<ele>155.400513</ele>
<time>2010-07-18T06:53:10Z</time>
<desc>lat.=55.721920, lon.=26.161398, Alt.=155.400513m. Speed=17.496000m/h.</desc>
<speed>4.860000</speed>
</trkpt>
<trkpt lat="55.721966" lon="26.161413">
<ele>155.330200</ele>
<time>2010-07-18T06:53:11Z</time>
<desc>lat.=55.721966, lon.=26.161413, Alt.=155.330200m. Speed=18.072001m/h.</desc>
<speed>5.020000</speed>
</trkpt>
<trkpt lat="55.722008" lon="26.161434">
<ele>155.150513</ele>
<time>2010-07-18T06:53:12Z</time>
<desc>lat.=55.722008, lon.=26.161434, Alt.=155.150513m. Speed=18.216000m/h.</desc>
<speed>5.060000</speed>
</trkpt>
<trkpt lat="55.722054" lon="26.161455">
<ele>155.170044</ele>
<time>2010-07-18T06:53:13Z</time>
<desc>lat.=55.722054, lon.=26.161455, Alt.=155.170044m. Speed=18.684000m/h.</desc>
<speed>5.190000</speed>
</trkpt>
<trkpt lat="55.722099" lon="26.161478">
<ele>155.322388</ele>
<time>2010-07-18T06:53:14Z</time>
<desc>lat.=55.722099, lon.=26.161478, Alt.=155.322388m. Speed=18.000000m/h.</desc>
<speed>5.000000</speed>
</trkpt>
<trkpt lat="55.722149" lon="26.161499">
<ele>155.396606</ele>
<time>2010-07-18T06:53:15Z</time>
<desc>lat.=55.722149, lon.=26.161499, Alt.=155.396606m. Speed=19.115999m/h.</desc>
<speed>5.310000</speed>
</trkpt>
<trkpt lat="55.722195" lon="26.161520">
<ele>155.377075</ele>
<time>2010-07-18T06:53:16Z</time>
<desc>lat.=55.722195, lon.=26.161520, Alt.=155.377075m. Speed=18.756001m/h.</desc>
<speed>5.210000</speed>
</trkpt>
<trkpt lat="55.722240" lon="26.161541">
<ele>155.478638</ele>
<time>2010-07-18T06:53:17Z</time>
<desc>lat.=55.722240, lon.=26.161541, Alt.=155.478638m. Speed=19.260000m/h.</desc>
<speed>5.350000</speed>
</trkpt>
<trkpt lat="55.722290" lon="26.161566">
<ele>155.705200</ele>
<time>2010-07-18T06:53:18Z</time>
<desc>lat.=55.722290, lon.=26.161566, Alt.=155.705200m. Speed=19.080000m/h.</desc>
<speed>5.300000</speed>
</trkpt>
<trkpt lat="55.722332" lon="26.161589">
<ele>156.013794</ele>
<time>2010-07-18T06:53:19Z</time>
<desc>lat.=55.722332, lon.=26.161589, Alt.=156.013794m. Speed=18.323999m/h.</desc>
<speed>5.090000</speed>
</trkpt>
<trkpt lat="55.722378" lon="26.161615">
<ele>156.494263</ele>
<time>2010-07-18T06:53:20Z</time>
<desc>lat.=55.722378, lon.=26.161615, Alt.=156.494263m. Speed=16.020000m/h.</desc>
<speed>4.450000</speed>
</trkpt>
<trkpt lat="55.722412" lon="26.161634">
<ele>156.849731</ele>
<time>2010-07-18T06:53:21Z</time>
<desc>lat.=55.722412, lon.=26.161634, Alt.=156.849731m. Speed=17.532000m/h.</desc>
<speed>4.870000</speed>
</trkpt>
<trkpt lat="55.722450" lon="26.161655">
<ele>157.002075</ele>
<time>2010-07-18T06:53:22Z</time>
<desc>lat.=55.722450, lon.=26.161655, Alt.=157.002075m. Speed=17.747999m/h.</desc>
<speed>4.930000</speed>
</trkpt>
<trkpt lat="55.722488" lon="26.161676">
<ele>157.556763</ele>
<time>2010-07-18T06:53:23Z</time>
<desc>lat.=55.722488, lon.=26.161676, Alt.=157.556763m. Speed=18.288000m/h.</desc>
<speed>5.080000</speed>
</trkpt>
<trkpt lat="55.722530" lon="26.161705">
<ele>157.103638</ele>
<time>2010-07-18T06:53:24Z</time>
<desc>lat.=55.722530, lon.=26.161705, Alt.=157.103638m. Speed=17.063999m/h.</desc>
<speed>4.740000</speed>
</trkpt>
<trkpt lat="55.722572" lon="26.161726">
<ele>156.931763</ele>
<time>2010-07-18T06:53:25Z</time>
<desc>lat.=55.722572, lon.=26.161726, Alt.=156.931763m. Speed=17.028000m/h.</desc>
<speed>4.730000</speed>
</trkpt>
<trkpt lat="55.722614" lon="26.161751">
<ele>156.978638</ele>
<time>2010-07-18T06:53:26Z</time>
<desc>lat.=55.722614, lon.=26.161751, Alt.=156.978638m. Speed=17.243999m/h.</desc>
<speed>4.790000</speed>
</trkpt>
<trkpt lat="55.722656" lon="26.161777">
<ele>157.341919</ele>
<time>2010-07-18T06:53:27Z</time>
<desc>lat.=55.722656, lon.=26.161777, Alt.=157.341919m. Speed=17.136000m/h.</desc>
<speed>4.760000</speed>
</trkpt>
<trkpt lat="55.722694" lon="26.161800">
<ele>157.646606</ele>
<time>2010-07-18T06:53:28Z</time>
<desc>lat.=55.722694, lon.=26.161800, Alt.=157.646606m. Speed=16.308001m/h.</desc>
<speed>4.530000</speed>
</trkpt>
<trkpt lat="55.722736" lon="26.161821">
<ele>157.877075</ele>
<time>2010-07-18T06:53:29Z</time>
<desc>lat.=55.722736, lon.=26.161821, Alt.=157.877075m. Speed=14.328000m/h.</desc>
<speed>3.980000</speed>
</trkpt>
<trkpt lat="55.722767" lon="26.161842">
<ele>158.158325</ele>
<time>2010-07-18T06:53:30Z</time>
<desc>lat.=55.722767, lon.=26.161842, Alt.=158.158325m. Speed=12.672000m/h.</desc>
<speed>3.520000</speed>
</trkpt>
<trkpt lat="55.722797" lon="26.161861">
<ele>158.295044</ele>
<time>2010-07-18T06:53:31Z</time>
<desc>lat.=55.722797, lon.=26.161861, Alt.=158.295044m. Speed=13.176000m/h.</desc>
<speed>3.660000</speed>
</trkpt>
<trkpt lat="55.722828" lon="26.161879">
<ele>158.650513</ele>
<time>2010-07-18T06:53:32Z</time>
<desc>lat.=55.722828, lon.=26.161879, Alt.=158.650513m. Speed=12.600000m/h.</desc>
<speed>3.500000</speed>
</trkpt>
<trkpt lat="55.722851" lon="26.161905">
<ele>158.127075</ele>
<time>2010-07-18T06:53:33Z</time>
<desc>lat.=55.722851, lon.=26.161905, Alt.=158.127075m. Speed=10.044000m/h.</desc>
<speed>2.790000</speed>
</trkpt>
<trkpt lat="55.722870" lon="26.161921">
<ele>159.349731</ele>
<time>2010-07-18T06:53:34Z</time>
<desc>lat.=55.722870, lon.=26.161921, Alt.=159.349731m. Speed=12.384000m/h.</desc>
<speed>3.440000</speed>
</trkpt>
<trkpt lat="55.722900" lon="26.161942">
<ele>159.646606</ele>
<time>2010-07-18T06:53:35Z</time>
<desc>lat.=55.722900, lon.=26.161942, Alt.=159.646606m. Speed=13.068000m/h.</desc>
<speed>3.630000</speed>
</trkpt>
<trkpt lat="55.722931" lon="26.161961">
<ele>159.896606</ele>
<time>2010-07-18T06:53:36Z</time>
<desc>lat.=55.722931, lon.=26.161961, Alt.=159.896606m. Speed=12.312000m/h.</desc>
<speed>3.420000</speed>
</trkpt>
<trkpt lat="55.722961" lon="26.161976">
<ele>159.982544</ele>
<time>2010-07-18T06:53:37Z</time>
<desc>lat.=55.722961, lon.=26.161976, Alt.=159.982544m. Speed=12.996000m/h.</desc>
<speed>3.610000</speed>
</trkpt>
<trkpt lat="55.722992" lon="26.161987">
<ele>160.357544</ele>
<time>2010-07-18T06:53:38Z</time>
<desc>lat.=55.722992, lon.=26.161987, Alt.=160.357544m. Speed=12.420000m/h.</desc>
<speed>3.450000</speed>
</trkpt>
<trkpt lat="55.723022" lon="26.162003">
<ele>160.654419</ele>
<time>2010-07-18T06:53:39Z</time>
<desc>lat.=55.723022, lon.=26.162003, Alt.=160.654419m. Speed=13.356000m/h.</desc>
<speed>3.710000</speed>
</trkpt>
<trkpt lat="55.723053" lon="26.162012">
<ele>161.365356</ele>
<time>2010-07-18T06:53:40Z</time>
<desc>lat.=55.723053, lon.=26.162012, Alt.=161.365356m. Speed=13.824000m/h.</desc>
<speed>3.840000</speed>
</trkpt>
<trkpt lat="55.723083" lon="26.162029">
<ele>160.603638</ele>
<time>2010-07-18T06:53:41Z</time>
<desc>lat.=55.723083, lon.=26.162029, Alt.=160.603638m. Speed=13.716000m/h.</desc>
<speed>3.810000</speed>
</trkpt>
<trkpt lat="55.723118" lon="26.162046">
<ele>160.416138</ele>
<time>2010-07-18T06:53:42Z</time>
<desc>lat.=55.723118, lon.=26.162046, Alt.=160.416138m. Speed=13.788000m/h.</desc>
<speed>3.830000</speed>
</trkpt>
<trkpt lat="55.723148" lon="26.162066">
<ele>161.072388</ele>
<time>2010-07-18T06:53:43Z</time>
<desc>lat.=55.723148, lon.=26.162066, Alt.=161.072388m. Speed=13.428000m/h.</desc>
<speed>3.730000</speed>
</trkpt>
<trkpt lat="55.723175" lon="26.162088">
<ele>161.517700</ele>
<time>2010-07-18T06:53:44Z</time>
<desc>lat.=55.723175, lon.=26.162088, Alt.=161.517700m. Speed=14.112000m/h.</desc>
<speed>3.920000</speed>
</trkpt>
<trkpt lat="55.723202" lon="26.162107">
<ele>162.021606</ele>
<time>2010-07-18T06:53:45Z</time>
<desc>lat.=55.723202, lon.=26.162107, Alt.=162.021606m. Speed=13.608000m/h.</desc>
<speed>3.780000</speed>
</trkpt>
<trkpt lat="55.723232" lon="26.162121">
<ele>162.392700</ele>
<time>2010-07-18T06:53:46Z</time>
<desc>lat.=55.723232, lon.=26.162121, Alt.=162.392700m. Speed=13.356000m/h.</desc>
<speed>3.710000</speed>
</trkpt>
<trkpt lat="55.723263" lon="26.162140">
<ele>162.095825</ele>
<time>2010-07-18T06:53:47Z</time>
<desc>lat.=55.723263, lon.=26.162140, Alt.=162.095825m. Speed=13.248000m/h.</desc>
<speed>3.680000</speed>
</trkpt>
<trkpt lat="55.723293" lon="26.162153">
<ele>161.959106</ele>
<time>2010-07-18T06:53:48Z</time>
<desc>lat.=55.723293, lon.=26.162153, Alt.=161.959106m. Speed=13.140000m/h.</desc>
<speed>3.650000</speed>
</trkpt>
<trkpt lat="55.723324" lon="26.162176">
<ele>163.310669</ele>
<time>2010-07-18T06:53:49Z</time>
<desc>lat.=55.723324, lon.=26.162176, Alt.=163.310669m. Speed=13.320000m/h.</desc>
<speed>3.700000</speed>
</trkpt>
<trkpt lat="55.723362" lon="26.162191">
<ele>163.755981</ele>
<time>2010-07-18T06:53:50Z</time>
<desc>lat.=55.723362, lon.=26.162191, Alt.=163.755981m. Speed=14.472000m/h.</desc>
<speed>4.020000</speed>
</trkpt>
<trkpt lat="55.723400" lon="26.162207">
<ele>163.216919</ele>
<time>2010-07-18T06:53:51Z</time>
<desc>lat.=55.723400, lon.=26.162207, Alt.=163.216919m. Speed=15.444000m/h.</desc>
<speed>4.290000</speed>
</trkpt>
<trkpt lat="55.723442" lon="26.162220">
<ele>163.185669</ele>
<time>2010-07-18T06:53:52Z</time>
<desc>lat.=55.723442, lon.=26.162220, Alt.=163.185669m. Speed=16.920000m/h.</desc>
<speed>4.700000</speed>
</trkpt>
<trkpt lat="55.723480" lon="26.162241">
<ele>162.959106</ele>
<time>2010-07-18T06:53:53Z</time>
<desc>lat.=55.723480, lon.=26.162241, Alt.=162.959106m. Speed=17.063999m/h.</desc>
<speed>4.740000</speed>
</trkpt>
<trkpt lat="55.723526" lon="26.162262">
<ele>162.400513</ele>
<time>2010-07-18T06:53:54Z</time>
<desc>lat.=55.723526, lon.=26.162262, Alt.=162.400513m. Speed=18.000000m/h.</desc>
<speed>5.000000</speed>
</trkpt>
<trkpt lat="55.723572" lon="26.162279">
<ele>161.255981</ele>
<time>2010-07-18T06:53:55Z</time>
<desc>lat.=55.723572, lon.=26.162279, Alt.=161.255981m. Speed=18.756001m/h.</desc>
<speed>5.210000</speed>
</trkpt>
<trkpt lat="55.723614" lon="26.162294">
<ele>160.732544</ele>
<time>2010-07-18T06:53:56Z</time>
<desc>lat.=55.723614, lon.=26.162294, Alt.=160.732544m. Speed=18.252001m/h.</desc>
<speed>5.070000</speed>
</trkpt>
<trkpt lat="55.723660" lon="26.162302">
<ele>160.377075</ele>
<time>2010-07-18T06:53:57Z</time>
<desc>lat.=55.723660, lon.=26.162302, Alt.=160.377075m. Speed=18.288000m/h.</desc>
<speed>5.080000</speed>
</trkpt>
<trkpt lat="55.723709" lon="26.162317">
<ele>159.423950</ele>
<time>2010-07-18T06:53:58Z</time>
<desc>lat.=55.723709, lon.=26.162317, Alt.=159.423950m. Speed=19.007999m/h.</desc>
<speed>5.280000</speed>
</trkpt>
<trkpt lat="55.723759" lon="26.162340">
<ele>159.380981</ele>
<time>2010-07-18T06:53:59Z</time>
<desc>lat.=55.723759, lon.=26.162340, Alt.=159.380981m. Speed=20.124001m/h.</desc>
<speed>5.590000</speed>
</trkpt>
<trkpt lat="55.723816" lon="26.162359">
<ele>159.193481</ele>
<time>2010-07-18T06:54:00Z</time>
<desc>lat.=55.723816, lon.=26.162359, Alt.=159.193481m. Speed=20.087999m/h.</desc>
<speed>5.580000</speed>
</trkpt>
<trkpt lat="55.723869" lon="26.162374">
<ele>159.732544</ele>
<time>2010-07-18T06:54:01Z</time>
<desc>lat.=55.723869, lon.=26.162374, Alt.=159.732544m. Speed=20.087999m/h.</desc>
<speed>5.580000</speed>
</trkpt>
<trkpt lat="55.723923" lon="26.162392">
<ele>159.763794</ele>
<time>2010-07-18T06:54:02Z</time>
<desc>lat.=55.723923, lon.=26.162392, Alt.=159.763794m. Speed=20.268000m/h.</desc>
<speed>5.630000</speed>
</trkpt>
<trkpt lat="55.723972" lon="26.162407">
<ele>159.845825</ele>
<time>2010-07-18T06:54:03Z</time>
<desc>lat.=55.723972, lon.=26.162407, Alt.=159.845825m. Speed=21.096001m/h.</desc>
<speed>5.860000</speed>
</trkpt>
<trkpt lat="55.724026" lon="26.162422">
<ele>159.439575</ele>
<time>2010-07-18T06:54:04Z</time>
<desc>lat.=55.724026, lon.=26.162422, Alt.=159.439575m. Speed=20.952000m/h.</desc>
<speed>5.820000</speed>
</trkpt>
<trkpt lat="55.724079" lon="26.162436">
<ele>158.127075</ele>
<time>2010-07-18T06:54:05Z</time>
<desc>lat.=55.724079, lon.=26.162436, Alt.=158.127075m. Speed=20.916000m/h.</desc>
<speed>5.810000</speed>
</trkpt>
<trkpt lat="55.724133" lon="26.162451">
<ele>157.959106</ele>
<time>2010-07-18T06:54:06Z</time>
<desc>lat.=55.724133, lon.=26.162451, Alt.=157.959106m. Speed=20.879999m/h.</desc>
<speed>5.800000</speed>
</trkpt>
<trkpt lat="55.724190" lon="26.162462">
<ele>158.154419</ele>
<time>2010-07-18T06:54:07Z</time>
<desc>lat.=55.724190, lon.=26.162462, Alt.=158.154419m. Speed=21.600000m/h.</desc>
<speed>6.000000</speed>
</trkpt>
<trkpt lat="55.724247" lon="26.162472">
<ele>157.892700</ele>
<time>2010-07-18T06:54:08Z</time>
<desc>lat.=55.724247, lon.=26.162472, Alt.=157.892700m. Speed=22.104000m/h.</desc>
<speed>6.140000</speed>
</trkpt>
<trkpt lat="55.724300" lon="26.162479">
<ele>157.990356</ele>
<time>2010-07-18T06:54:09Z</time>
<desc>lat.=55.724300, lon.=26.162479, Alt.=157.990356m. Speed=21.096001m/h.</desc>
<speed>5.860000</speed>
</trkpt>
<trkpt lat="55.724354" lon="26.162485">
<ele>158.627075</ele>
<time>2010-07-18T06:54:10Z</time>
<desc>lat.=55.724354, lon.=26.162485, Alt.=158.627075m. Speed=21.528000m/h.</desc>
<speed>5.980000</speed>
</trkpt>
<trkpt lat="55.724411" lon="26.162493">
<ele>158.326294</ele>
<time>2010-07-18T06:54:11Z</time>
<desc>lat.=55.724411, lon.=26.162493, Alt.=158.326294m. Speed=21.275999m/h.</desc>
<speed>5.910000</speed>
</trkpt>
<trkpt lat="55.724464" lon="26.162498">
<ele>158.420044</ele>
<time>2010-07-18T06:54:12Z</time>
<desc>lat.=55.724464, lon.=26.162498, Alt.=158.420044m. Speed=20.771999m/h.</desc>
<speed>5.770000</speed>
</trkpt>
<trkpt lat="55.724518" lon="26.162498">
<ele>158.123169</ele>
<time>2010-07-18T06:54:13Z</time>
<desc>lat.=55.724518, lon.=26.162498, Alt.=158.123169m. Speed=20.232000m/h.</desc>
<speed>5.620000</speed>
</trkpt>
<trkpt lat="55.724571" lon="26.162500">
<ele>157.369263</ele>
<time>2010-07-18T06:54:14Z</time>
<desc>lat.=55.724571, lon.=26.162500, Alt.=157.369263m. Speed=19.584000m/h.</desc>
<speed>5.440000</speed>
</trkpt>
<trkpt lat="55.724621" lon="26.162502">
<ele>157.181763</ele>
<time>2010-07-18T06:54:15Z</time>
<desc>lat.=55.724621, lon.=26.162502, Alt.=157.181763m. Speed=19.799999m/h.</desc>
<speed>5.500000</speed>
</trkpt>
<trkpt lat="55.724674" lon="26.162500">
<ele>156.138794</ele>
<time>2010-07-18T06:54:16Z</time>
<desc>lat.=55.724674, lon.=26.162500, Alt.=156.138794m. Speed=19.511999m/h.</desc>
<speed>5.420000</speed>
</trkpt>
<trkpt lat="55.724724" lon="26.162500">
<ele>155.498169</ele>
<time>2010-07-18T06:54:17Z</time>
<desc>lat.=55.724724, lon.=26.162500, Alt.=155.498169m. Speed=19.332001m/h.</desc>
<speed>5.370000</speed>
</trkpt>
<trkpt lat="55.724770" lon="26.162498">
<ele>155.505981</ele>
<time>2010-07-18T06:54:18Z</time>
<desc>lat.=55.724770, lon.=26.162498, Alt.=155.505981m. Speed=19.656000m/h.</desc>
<speed>5.460000</speed>
</trkpt>
<trkpt lat="55.724819" lon="26.162497">
<ele>155.373169</ele>
<time>2010-07-18T06:54:19Z</time>
<desc>lat.=55.724819, lon.=26.162497, Alt.=155.373169m. Speed=20.556000m/h.</desc>
<speed>5.710000</speed>
</trkpt>
<trkpt lat="55.724865" lon="26.162495">
<ele>154.970825</ele>
<time>2010-07-18T06:54:20Z</time>
<desc>lat.=55.724865, lon.=26.162495, Alt.=154.970825m. Speed=20.232000m/h.</desc>
<speed>5.620000</speed>
</trkpt>
<trkpt lat="55.724915" lon="26.162493">
<ele>154.752075</ele>
<time>2010-07-18T06:54:21Z</time>
<desc>lat.=55.724915, lon.=26.162493, Alt.=154.752075m. Speed=19.188000m/h.</desc>
<speed>5.330000</speed>
</trkpt>
<trkpt lat="55.724968" lon="26.162495">
<ele>153.982544</ele>
<time>2010-07-18T06:54:22Z</time>
<desc>lat.=55.724968, lon.=26.162495, Alt.=153.982544m. Speed=19.403999m/h.</desc>
<speed>5.390000</speed>
</trkpt>
<trkpt lat="55.725014" lon="26.162493">
<ele>153.834106</ele>
<time>2010-07-18T06:54:23Z</time>
<desc>lat.=55.725014, lon.=26.162493, Alt.=153.834106m. Speed=19.656000m/h.</desc>
<speed>5.460000</speed>
</trkpt>
<trkpt lat="55.725063" lon="26.162489">
<ele>154.072388</ele>
<time>2010-07-18T06:54:24Z</time>
<desc>lat.=55.725063, lon.=26.162489, Alt.=154.072388m. Speed=19.691999m/h.</desc>
<speed>5.470000</speed>
</trkpt>
<trkpt lat="55.725109" lon="26.162491">
<ele>154.181763</ele>
<time>2010-07-18T06:54:25Z</time>
<desc>lat.=55.725109, lon.=26.162491, Alt.=154.181763m. Speed=19.332001m/h.</desc>
<speed>5.370000</speed>
</trkpt>
<trkpt lat="55.725155" lon="26.162493">
<ele>154.576294</ele>
<time>2010-07-18T06:54:26Z</time>
<desc>lat.=55.725155, lon.=26.162493, Alt.=154.576294m. Speed=20.520000m/h.</desc>
<speed>5.700000</speed>
</trkpt>
<trkpt lat="55.725208" lon="26.162491">
<ele>154.607544</ele>
<time>2010-07-18T06:54:27Z</time>
<desc>lat.=55.725208, lon.=26.162491, Alt.=154.607544m. Speed=20.052000m/h.</desc>
<speed>5.570000</speed>
</trkpt>
<trkpt lat="55.725262" lon="26.162491">
<ele>154.259888</ele>
<time>2010-07-18T06:54:28Z</time>
<desc>lat.=55.725262, lon.=26.162491, Alt.=154.259888m. Speed=20.124001m/h.</desc>
<speed>5.590000</speed>
</trkpt>
<trkpt lat="55.725304" lon="26.162498">
<ele>154.466919</ele>
<time>2010-07-18T06:54:29Z</time>
<desc>lat.=55.725304, lon.=26.162498, Alt.=154.466919m. Speed=17.820000m/h.</desc>
<speed>4.950000</speed>
</trkpt>
<trkpt lat="55.725353" lon="26.162500">
<ele>154.509888</ele>
<time>2010-07-18T06:54:30Z</time>
<desc>lat.=55.725353, lon.=26.162500, Alt.=154.509888m. Speed=17.208000m/h.</desc>
<speed>4.780000</speed>
</trkpt>
<trkpt lat="55.725399" lon="26.162506">
<ele>154.545044</ele>
<time>2010-07-18T06:54:31Z</time>
<desc>lat.=55.725399, lon.=26.162506, Alt.=154.545044m. Speed=18.792000m/h.</desc>
<speed>5.220000</speed>
</trkpt>
<trkpt lat="55.725441" lon="26.162508">
<ele>154.443481</ele>
<time>2010-07-18T06:54:32Z</time>
<desc>lat.=55.725441, lon.=26.162508, Alt.=154.443481m. Speed=18.396000m/h.</desc>
<speed>5.110000</speed>
</trkpt>
<trkpt lat="55.725491" lon="26.162512">
<ele>154.533325</ele>
<time>2010-07-18T06:54:33Z</time>
<desc>lat.=55.725491, lon.=26.162512, Alt.=154.533325m. Speed=19.152000m/h.</desc>
<speed>5.320000</speed>
</trkpt>
<trkpt lat="55.725536" lon="26.162516">
<ele>154.720825</ele>
<time>2010-07-18T06:54:34Z</time>
<desc>lat.=55.725536, lon.=26.162516, Alt.=154.720825m. Speed=16.775999m/h.</desc>
<speed>4.660000</speed>
</trkpt>
<trkpt lat="55.725582" lon="26.162514">
<ele>154.673950</ele>
<time>2010-07-18T06:54:35Z</time>
<desc>lat.=55.725582, lon.=26.162514, Alt.=154.673950m. Speed=18.108000m/h.</desc>
<speed>5.030000</speed>
</trkpt>
<trkpt lat="55.725624" lon="26.162514">
<ele>155.412231</ele>
<time>2010-07-18T06:54:36Z</time>
<desc>lat.=55.725624, lon.=26.162514, Alt.=155.412231m. Speed=17.639999m/h.</desc>
<speed>4.900000</speed>
</trkpt>
<trkpt lat="55.725666" lon="26.162512">
<ele>155.509888</ele>
<time>2010-07-18T06:54:37Z</time>
<desc>lat.=55.725666, lon.=26.162512, Alt.=155.509888m. Speed=16.740000m/h.</desc>
<speed>4.650000</speed>
</trkpt>
<trkpt lat="55.725708" lon="26.162506">
<ele>155.580200</ele>
<time>2010-07-18T06:54:38Z</time>
<desc>lat.=55.725708, lon.=26.162506, Alt.=155.580200m. Speed=17.496000m/h.</desc>
<speed>4.860000</speed>
</trkpt>
<trkpt lat="55.725754" lon="26.162498">
<ele>156.357544</ele>
<time>2010-07-18T06:54:39Z</time>
<desc>lat.=55.725754, lon.=26.162498, Alt.=156.357544m. Speed=18.576000m/h.</desc>
<speed>5.160000</speed>
</trkpt>
<trkpt lat="55.725803" lon="26.162493">
<ele>157.177856</ele>
<time>2010-07-18T06:54:40Z</time>
<desc>lat.=55.725803, lon.=26.162493, Alt.=157.177856m. Speed=17.820000m/h.</desc>
<speed>4.950000</speed>
</trkpt>
<trkpt lat="55.725849" lon="26.162493">
<ele>157.162231</ele>
<time>2010-07-18T06:54:41Z</time>
<desc>lat.=55.725849, lon.=26.162493, Alt.=157.162231m. Speed=18.719999m/h.</desc>
<speed>5.200000</speed>
</trkpt>
<trkpt lat="55.725899" lon="26.162493">
<ele>156.767700</ele>
<time>2010-07-18T06:54:42Z</time>
<desc>lat.=55.725899, lon.=26.162493, Alt.=156.767700m. Speed=20.556000m/h.</desc>
<speed>5.710000</speed>
</trkpt>
<trkpt lat="55.725952" lon="26.162493">
<ele>156.427856</ele>
<time>2010-07-18T06:54:43Z</time>
<desc>lat.=55.725952, lon.=26.162493, Alt.=156.427856m. Speed=21.492001m/h.</desc>
<speed>5.970000</speed>
</trkpt>
<trkpt lat="55.726006" lon="26.162489">
<ele>157.048950</ele>
<time>2010-07-18T06:54:44Z</time>
<desc>lat.=55.726006, lon.=26.162489, Alt.=157.048950m. Speed=22.716000m/h.</desc>
<speed>6.310000</speed>
</trkpt>
<trkpt lat="55.726063" lon="26.162479">
<ele>157.451294</ele>
<time>2010-07-18T06:54:45Z</time>
<desc>lat.=55.726063, lon.=26.162479, Alt.=157.451294m. Speed=22.968000m/h.</desc>
<speed>6.380000</speed>
</trkpt>
<trkpt lat="55.726116" lon="26.162472">
<ele>157.771606</ele>
<time>2010-07-18T06:54:46Z</time>
<desc>lat.=55.726116, lon.=26.162472, Alt.=157.771606m. Speed=23.400000m/h.</desc>
<speed>6.500000</speed>
</trkpt>
<trkpt lat="55.726173" lon="26.162472">
<ele>158.763794</ele>
<time>2010-07-18T06:54:47Z</time>
<desc>lat.=55.726173, lon.=26.162472, Alt.=158.763794m. Speed=22.643999m/h.</desc>
<speed>6.290000</speed>
</trkpt>
<trkpt lat="55.726234" lon="26.162472">
<ele>158.455200</ele>
<time>2010-07-18T06:54:48Z</time>
<desc>lat.=55.726234, lon.=26.162472, Alt.=158.455200m. Speed=22.139999m/h.</desc>
<speed>6.150000</speed>
</trkpt>
<trkpt lat="55.726288" lon="26.162470">
<ele>159.427856</ele>
<time>2010-07-18T06:54:49Z</time>
<desc>lat.=55.726288, lon.=26.162470, Alt.=159.427856m. Speed=21.996000m/h.</desc>
<speed>6.110000</speed>
</trkpt>
<trkpt lat="55.726345" lon="26.162472">
<ele>160.232544</ele>
<time>2010-07-18T06:54:50Z</time>
<desc>lat.=55.726345, lon.=26.162472, Alt.=160.232544m. Speed=21.024000m/h.</desc>
<speed>5.840000</speed>
</trkpt>
<trkpt lat="55.726395" lon="26.162470">
<ele>160.603638</ele>
<time>2010-07-18T06:54:51Z</time>
<desc>lat.=55.726395, lon.=26.162470, Alt.=160.603638m. Speed=20.340000m/h.</desc>
<speed>5.650000</speed>
</trkpt>
<trkpt lat="55.726440" lon="26.162470">
<ele>160.244263</ele>
<time>2010-07-18T06:54:52Z</time>
<desc>lat.=55.726440, lon.=26.162470, Alt.=160.244263m. Speed=17.459999m/h.</desc>
<speed>4.850000</speed>
</trkpt>
<trkpt lat="55.726482" lon="26.162477">
<ele>160.099731</ele>
<time>2010-07-18T06:54:53Z</time>
<desc>lat.=55.726482, lon.=26.162477, Alt.=160.099731m. Speed=17.243999m/h.</desc>
<speed>4.790000</speed>
</trkpt>
<trkpt lat="55.726528" lon="26.162481">
<ele>160.341919</ele>
<time>2010-07-18T06:54:54Z</time>
<desc>lat.=55.726528, lon.=26.162481, Alt.=160.341919m. Speed=15.840000m/h.</desc>
<speed>4.400000</speed>
</trkpt>
<trkpt lat="55.726574" lon="26.162477">
<ele>158.443481</ele>
<time>2010-07-18T06:54:55Z</time>
<desc>lat.=55.726574, lon.=26.162477, Alt.=158.443481m. Speed=15.732000m/h.</desc>
<speed>4.370000</speed>
</trkpt>
<trkpt lat="55.726608" lon="26.162474">
<ele>158.701294</ele>
<time>2010-07-18T06:54:56Z</time>
<desc>lat.=55.726608, lon.=26.162474, Alt.=158.701294m. Speed=15.156000m/h.</desc>
<speed>4.210000</speed>
</trkpt>
<trkpt lat="55.726646" lon="26.162483">
<ele>158.138794</ele>
<time>2010-07-18T06:54:57Z</time>
<desc>lat.=55.726646, lon.=26.162483, Alt.=158.138794m. Speed=13.716000m/h.</desc>
<speed>3.810000</speed>
</trkpt>
<trkpt lat="55.726681" lon="26.162487">
<ele>158.130981</ele>
<time>2010-07-18T06:54:58Z</time>
<desc>lat.=55.726681, lon.=26.162487, Alt.=158.130981m. Speed=14.184000m/h.</desc>
<speed>3.940000</speed>
</trkpt>
<trkpt lat="55.726715" lon="26.162493">
<ele>158.494263</ele>
<time>2010-07-18T06:54:59Z</time>
<desc>lat.=55.726715, lon.=26.162493, Alt.=158.494263m. Speed=15.588000m/h.</desc>
<speed>4.330000</speed>
</trkpt>
<trkpt lat="55.726753" lon="26.162502">
<ele>158.646606</ele>
<time>2010-07-18T06:55:00Z</time>
<desc>lat.=55.726753, lon.=26.162502, Alt.=158.646606m. Speed=16.704000m/h.</desc>
<speed>4.640000</speed>
</trkpt>
<trkpt lat="55.726791" lon="26.162510">
<ele>158.888794</ele>
<time>2010-07-18T06:55:01Z</time>
<desc>lat.=55.726791, lon.=26.162510, Alt.=158.888794m. Speed=17.100000m/h.</desc>
<speed>4.750000</speed>
</trkpt>
<trkpt lat="55.726833" lon="26.162519">
<ele>159.088013</ele>
<time>2010-07-18T06:55:02Z</time>
<desc>lat.=55.726833, lon.=26.162519, Alt.=159.088013m. Speed=18.035999m/h.</desc>
<speed>5.010000</speed>
</trkpt>
<trkpt lat="55.726879" lon="26.162525">
<ele>159.384888</ele>
<time>2010-07-18T06:55:03Z</time>
<desc>lat.=55.726879, lon.=26.162525, Alt.=159.384888m. Speed=19.403999m/h.</desc>
<speed>5.390000</speed>
</trkpt>
<trkpt lat="55.726933" lon="26.162531">
<ele>159.548950</ele>
<time>2010-07-18T06:55:04Z</time>
<desc>lat.=55.726933, lon.=26.162531, Alt.=159.548950m. Speed=20.195999m/h.</desc>
<speed>5.610000</speed>
</trkpt>
<trkpt lat="55.726982" lon="26.162540">
<ele>159.154419</ele>
<time>2010-07-18T06:55:05Z</time>
<desc>lat.=55.726982, lon.=26.162540, Alt.=159.154419m. Speed=19.944000m/h.</desc>
<speed>5.540000</speed>
</trkpt>
<trkpt lat="55.727032" lon="26.162554">
<ele>159.197388</ele>
<time>2010-07-18T06:55:06Z</time>
<desc>lat.=55.727032, lon.=26.162554, Alt.=159.197388m. Speed=19.620001m/h.</desc>
<speed>5.450000</speed>
</trkpt>
<trkpt lat="55.727077" lon="26.162567">
<ele>159.138794</ele>
<time>2010-07-18T06:55:07Z</time>
<desc>lat.=55.727077, lon.=26.162567, Alt.=159.138794m. Speed=19.080000m/h.</desc>
<speed>5.300000</speed>
</trkpt>
<trkpt lat="55.727123" lon="26.162584">
<ele>159.310669</ele>
<time>2010-07-18T06:55:08Z</time>
<desc>lat.=55.727123, lon.=26.162584, Alt.=159.310669m. Speed=19.152000m/h.</desc>
<speed>5.320000</speed>
</trkpt>
<trkpt lat="55.727173" lon="26.162601">
<ele>159.533325</ele>
<time>2010-07-18T06:55:09Z</time>
<desc>lat.=55.727173, lon.=26.162601, Alt.=159.533325m. Speed=19.332001m/h.</desc>
<speed>5.370000</speed>
</trkpt>
<trkpt lat="55.727219" lon="26.162617">
<ele>159.259888</ele>
<time>2010-07-18T06:55:10Z</time>
<desc>lat.=55.727219, lon.=26.162617, Alt.=159.259888m. Speed=18.900000m/h.</desc>
<speed>5.250000</speed>
</trkpt>
<trkpt lat="55.727264" lon="26.162638">
<ele>159.349731</ele>
<time>2010-07-18T06:55:11Z</time>
<desc>lat.=55.727264, lon.=26.162638, Alt.=159.349731m. Speed=18.360001m/h.</desc>
<speed>5.100000</speed>
</trkpt>
<trkpt lat="55.727310" lon="26.162661">
<ele>159.224731</ele>
<time>2010-07-18T06:55:12Z</time>
<desc>lat.=55.727310, lon.=26.162661, Alt.=159.224731m. Speed=18.180000m/h.</desc>
<speed>5.050000</speed>
</trkpt>
<trkpt lat="55.727352" lon="26.162687">
<ele>159.236450</ele>
<time>2010-07-18T06:55:13Z</time>
<desc>lat.=55.727352, lon.=26.162687, Alt.=159.236450m. Speed=17.532000m/h.</desc>
<speed>4.870000</speed>
</trkpt>
<trkpt lat="55.727386" lon="26.162716">
<ele>160.091919</ele>
<time>2010-07-18T06:55:14Z</time>
<desc>lat.=55.727386, lon.=26.162716, Alt.=160.091919m. Speed=16.308001m/h.</desc>
<speed>4.530000</speed>
</trkpt>
<trkpt lat="55.727421" lon="26.162756">
<ele>160.130981</ele>
<time>2010-07-18T06:55:15Z</time>
<desc>lat.=55.727421, lon.=26.162756, Alt.=160.130981m. Speed=15.480000m/h.</desc>
<speed>4.300000</speed>
</trkpt>
<trkpt lat="55.727451" lon="26.162786">
<ele>160.013794</ele>
<time>2010-07-18T06:55:16Z</time>
<desc>lat.=55.727451, lon.=26.162786, Alt.=160.013794m. Speed=12.636000m/h.</desc>
<speed>3.510000</speed>
</trkpt>
<trkpt lat="55.727474" lon="26.162813">
<ele>160.548950</ele>
<time>2010-07-18T06:55:17Z</time>
<desc>lat.=55.727474, lon.=26.162813, Alt.=160.548950m. Speed=11.448000m/h.</desc>
<speed>3.180000</speed>
</trkpt>
<trkpt lat="55.727493" lon="26.162842">
<ele>160.795044</ele>
<time>2010-07-18T06:55:18Z</time>
<desc>lat.=55.727493, lon.=26.162842, Alt.=160.795044m. Speed=10.332000m/h.</desc>
<speed>2.870000</speed>
</trkpt>
<trkpt lat="55.727516" lon="26.162865">
<ele>161.021606</ele>
<time>2010-07-18T06:55:19Z</time>
<desc>lat.=55.727516, lon.=26.162865, Alt.=161.021606m. Speed=9.252000m/h.</desc>
<speed>2.570000</speed>
</trkpt>
<trkpt lat="55.727535" lon="26.162882">
<ele>161.271606</ele>
<time>2010-07-18T06:55:20Z</time>
<desc>lat.=55.727535, lon.=26.162882, Alt.=161.271606m. Speed=8.820000m/h.</desc>
<speed>2.450000</speed>
</trkpt>
<trkpt lat="55.727554" lon="26.162897">
<ele>161.463013</ele>
<time>2010-07-18T06:55:21Z</time>
<desc>lat.=55.727554, lon.=26.162897, Alt.=161.463013m. Speed=7.416000m/h.</desc>
<speed>2.060000</speed>
</trkpt>
<trkpt lat="55.727570" lon="26.162910">
<ele>161.627075</ele>
<time>2010-07-18T06:55:22Z</time>
<desc>lat.=55.727570, lon.=26.162910, Alt.=161.627075m. Speed=6.948000m/h.</desc>
<speed>1.930000</speed>
</trkpt>
<trkpt lat="55.727581" lon="26.162931">
<ele>161.857544</ele>
<time>2010-07-18T06:55:23Z</time>
<desc>lat.=55.727581, lon.=26.162931, Alt.=161.857544m. Speed=6.948000m/h.</desc>
<speed>1.930000</speed>
</trkpt>
<trkpt lat="55.727589" lon="26.162954">
<ele>162.017700</ele>
<time>2010-07-18T06:55:24Z</time>
<desc>lat.=55.727589, lon.=26.162954, Alt.=162.017700m. Speed=6.948000m/h.</desc>
<speed>1.930000</speed>
</trkpt>
<trkpt lat="55.727604" lon="26.162973">
<ele>162.134888</ele>
<time>2010-07-18T06:55:25Z</time>
<desc>lat.=55.727604, lon.=26.162973, Alt.=162.134888m. Speed=6.480000m/h.</desc>
<speed>1.800000</speed>
</trkpt>
<trkpt lat="55.727619" lon="26.162987">
<ele>162.275513</ele>
<time>2010-07-18T06:55:26Z</time>
<desc>lat.=55.727619, lon.=26.162987, Alt.=162.275513m. Speed=6.876000m/h.</desc>
<speed>1.910000</speed>
</trkpt>
<trkpt lat="55.727631" lon="26.163004">
<ele>162.525513</ele>
<time>2010-07-18T06:55:27Z</time>
<desc>lat.=55.727631, lon.=26.163004, Alt.=162.525513m. Speed=7.236000m/h.</desc>
<speed>2.010000</speed>
</trkpt>
<trkpt lat="55.727646" lon="26.163021">
<ele>162.607544</ele>
<time>2010-07-18T06:55:28Z</time>
<desc>lat.=55.727646, lon.=26.163021, Alt.=162.607544m. Speed=7.200000m/h.</desc>
<speed>2.000000</speed>
</trkpt>
<trkpt lat="55.727657" lon="26.163036">
<ele>163.193481</ele>
<time>2010-07-18T06:55:29Z</time>
<desc>lat.=55.727657, lon.=26.163036, Alt.=163.193481m. Speed=7.524000m/h.</desc>
<speed>2.090000</speed>
</trkpt>
<trkpt lat="55.727669" lon="26.163054">
<ele>163.255981</ele>
<time>2010-07-18T06:55:30Z</time>
<desc>lat.=55.727669, lon.=26.163054, Alt.=163.255981m. Speed=7.740000m/h.</desc>
<speed>2.150000</speed>
</trkpt>
<trkpt lat="55.727688" lon="26.163076">
<ele>163.447388</ele>
<time>2010-07-18T06:55:31Z</time>
<desc>lat.=55.727688, lon.=26.163076, Alt.=163.447388m. Speed=7.920000m/h.</desc>
<speed>2.200000</speed>
</trkpt>
<trkpt lat="55.727703" lon="26.163099">
<ele>163.670044</ele>
<time>2010-07-18T06:55:32Z</time>
<desc>lat.=55.727703, lon.=26.163099, Alt.=163.670044m. Speed=7.200000m/h.</desc>
<speed>2.000000</speed>
</trkpt>
<trkpt lat="55.727715" lon="26.163115">
<ele>163.857544</ele>
<time>2010-07-18T06:55:33Z</time>
<desc>lat.=55.727715, lon.=26.163115, Alt.=163.857544m. Speed=6.912000m/h.</desc>
<speed>1.920000</speed>
</trkpt>
<trkpt lat="55.727726" lon="26.163132">
<ele>164.220825</ele>
<time>2010-07-18T06:55:34Z</time>
<desc>lat.=55.727726, lon.=26.163132, Alt.=164.220825m. Speed=7.236000m/h.</desc>
<speed>2.010000</speed>
</trkpt>
<trkpt lat="55.727741" lon="26.163153">
<ele>164.377075</ele>
<time>2010-07-18T06:55:35Z</time>
<desc>lat.=55.727741, lon.=26.163153, Alt.=164.377075m. Speed=6.804000m/h.</desc>
<speed>1.890000</speed>
</trkpt>
<trkpt lat="55.727753" lon="26.163172">
<ele>164.552856</ele>
<time>2010-07-18T06:55:36Z</time>
<desc>lat.=55.727753, lon.=26.163172, Alt.=164.552856m. Speed=7.560000m/h.</desc>
<speed>2.100000</speed>
</trkpt>
<trkpt lat="55.727764" lon="26.163195">
<ele>164.713013</ele>
<time>2010-07-18T06:55:37Z</time>
<desc>lat.=55.727764, lon.=26.163195, Alt.=164.713013m. Speed=7.560000m/h.</desc>
<speed>2.100000</speed>
</trkpt>
<trkpt lat="55.727779" lon="26.163219">
<ele>164.865356</ele>
<time>2010-07-18T06:55:38Z</time>
<desc>lat.=55.727779, lon.=26.163219, Alt.=164.865356m. Speed=7.668000m/h.</desc>
<speed>2.130000</speed>
</trkpt>
<trkpt lat="55.727791" lon="26.163244">
<ele>165.021606</ele>
<time>2010-07-18T06:55:39Z</time>
<desc>lat.=55.727791, lon.=26.163244, Alt.=165.021606m. Speed=7.884000m/h.</desc>
<speed>2.190000</speed>
</trkpt>
<trkpt lat="55.727806" lon="26.163273">
<ele>165.037231</ele>
<time>2010-07-18T06:55:40Z</time>
<desc>lat.=55.727806, lon.=26.163273, Alt.=165.037231m. Speed=8.028000m/h.</desc>
<speed>2.230000</speed>
</trkpt>
<trkpt lat="55.727821" lon="26.163307">
<ele>164.670044</ele>
<time>2010-07-18T06:55:41Z</time>
<desc>lat.=55.727821, lon.=26.163307, Alt.=164.670044m. Speed=8.640000m/h.</desc>
<speed>2.400000</speed>
</trkpt>
<trkpt lat="55.727833" lon="26.163336">
<ele>164.416138</ele>
<time>2010-07-18T06:55:42Z</time>
<desc>lat.=55.727833, lon.=26.163336, Alt.=164.416138m. Speed=7.884000m/h.</desc>
<speed>2.190000</speed>
</trkpt>
<trkpt lat="55.727844" lon="26.163363">
<ele>164.572388</ele>
<time>2010-07-18T06:55:43Z</time>
<desc>lat.=55.727844, lon.=26.163363, Alt.=164.572388m. Speed=8.172000m/h.</desc>
<speed>2.270000</speed>
</trkpt>
<trkpt lat="55.727856" lon="26.163391">
<ele>164.666138</ele>
<time>2010-07-18T06:55:44Z</time>
<desc>lat.=55.727856, lon.=26.163391, Alt.=164.666138m. Speed=8.028000m/h.</desc>
<speed>2.230000</speed>
</trkpt>
<trkpt lat="55.727867" lon="26.163420">
<ele>165.013794</ele>
<time>2010-07-18T06:55:45Z</time>
<desc>lat.=55.727867, lon.=26.163420, Alt.=165.013794m. Speed=7.884000m/h.</desc>
<speed>2.190000</speed>
</trkpt>
<trkpt lat="55.727875" lon="26.163446">
<ele>165.330200</ele>
<time>2010-07-18T06:55:46Z</time>
<desc>lat.=55.727875, lon.=26.163446, Alt.=165.330200m. Speed=7.704000m/h.</desc>
<speed>2.140000</speed>
</trkpt>
<trkpt lat="55.727890" lon="26.163475">
<ele>165.845825</ele>
<time>2010-07-18T06:55:47Z</time>
<desc>lat.=55.727890, lon.=26.163475, Alt.=165.845825m. Speed=8.208000m/h.</desc>
<speed>2.280000</speed>
</trkpt>
<trkpt lat="55.727905" lon="26.163502">
<ele>165.818481</ele>
<time>2010-07-18T06:55:48Z</time>
<desc>lat.=55.727905, lon.=26.163502, Alt.=165.818481m. Speed=7.632000m/h.</desc>
<speed>2.120000</speed>
</trkpt>
<trkpt lat="55.727917" lon="26.163525">
<ele>166.127075</ele>
<time>2010-07-18T06:55:49Z</time>
<desc>lat.=55.727917, lon.=26.163525, Alt.=166.127075m. Speed=8.604000m/h.</desc>
<speed>2.390000</speed>
</trkpt>
<trkpt lat="55.727928" lon="26.163553">
<ele>166.408325</ele>
<time>2010-07-18T06:55:50Z</time>
<desc>lat.=55.727928, lon.=26.163553, Alt.=166.408325m. Speed=8.532000m/h.</desc>
<speed>2.370000</speed>
</trkpt>
<trkpt lat="55.727947" lon="26.163580">
<ele>166.392700</ele>
<time>2010-07-18T06:55:51Z</time>
<desc>lat.=55.727947, lon.=26.163580, Alt.=166.392700m. Speed=8.460000m/h.</desc>
<speed>2.350000</speed>
</trkpt>
<trkpt lat="55.727959" lon="26.163605">
<ele>166.338013</ele>
<time>2010-07-18T06:55:52Z</time>
<desc>lat.=55.727959, lon.=26.163605, Alt.=166.338013m. Speed=7.704000m/h.</desc>
<speed>2.140000</speed>
</trkpt>
<trkpt lat="55.727974" lon="26.163631">
<ele>166.205200</ele>
<time>2010-07-18T06:55:53Z</time>
<desc>lat.=55.727974, lon.=26.163631, Alt.=166.205200m. Speed=7.200000m/h.</desc>
<speed>2.000000</speed>
</trkpt>
<trkpt lat="55.727989" lon="26.163652">
<ele>166.923950</ele>
<time>2010-07-18T06:55:54Z</time>
<desc>lat.=55.727989, lon.=26.163652, Alt.=166.923950m. Speed=6.696000m/h.</desc>
<speed>1.860000</speed>
</trkpt>
<trkpt lat="55.728001" lon="26.163677">
<ele>166.689575</ele>
<time>2010-07-18T06:55:55Z</time>
<desc>lat.=55.728001, lon.=26.163677, Alt.=166.689575m. Speed=7.092000m/h.</desc>
<speed>1.970000</speed>
</trkpt>
<trkpt lat="55.728012" lon="26.163700">
<ele>166.951294</ele>
<time>2010-07-18T06:55:56Z</time>
<desc>lat.=55.728012, lon.=26.163700, Alt.=166.951294m. Speed=6.228000m/h.</desc>
<speed>1.730000</speed>
</trkpt>
<trkpt lat="55.728020" lon="26.163723">
<ele>167.252075</ele>
<time>2010-07-18T06:55:57Z</time>
<desc>lat.=55.728020, lon.=26.163723, Alt.=167.252075m. Speed=5.904000m/h.</desc>
<speed>1.640000</speed>
</trkpt>
<trkpt lat="55.728027" lon="26.163746">
<ele>167.252075</ele>
<time>2010-07-18T06:55:58Z</time>
<desc>lat.=55.728027, lon.=26.163746, Alt.=167.252075m. Speed=6.264000m/h.</desc>
<speed>1.740000</speed>
</trkpt>
<trkpt lat="55.728039" lon="26.163765">
<ele>167.466919</ele>
<time>2010-07-18T06:55:59Z</time>
<desc>lat.=55.728039, lon.=26.163765, Alt.=167.466919m. Speed=6.336000m/h.</desc>
<speed>1.760000</speed>
</trkpt>
<trkpt lat="55.728046" lon="26.163790">
<ele>167.603638</ele>
<time>2010-07-18T06:56:00Z</time>
<desc>lat.=55.728046, lon.=26.163790, Alt.=167.603638m. Speed=6.588000m/h.</desc>
<speed>1.830000</speed>
</trkpt>
<trkpt lat="55.728058" lon="26.163811">
<ele>167.416138</ele>
<time>2010-07-18T06:56:01Z</time>
<desc>lat.=55.728058, lon.=26.163811, Alt.=167.416138m. Speed=6.480000m/h.</desc>
<speed>1.800000</speed>
</trkpt>
<trkpt lat="55.728065" lon="26.163832">
<ele>167.287231</ele>
<time>2010-07-18T06:56:02Z</time>
<desc>lat.=55.728065, lon.=26.163832, Alt.=167.287231m. Speed=6.336000m/h.</desc>
<speed>1.760000</speed>
</trkpt>
<trkpt lat="55.728077" lon="26.163853">
<ele>167.177856</ele>
<time>2010-07-18T06:56:03Z</time>
<desc>lat.=55.728077, lon.=26.163853, Alt.=167.177856m. Speed=6.336000m/h.</desc>
<speed>1.760000</speed>
</trkpt>
<trkpt lat="55.728085" lon="26.163876">
<ele>167.400513</ele>
<time>2010-07-18T06:56:04Z</time>
<desc>lat.=55.728085, lon.=26.163876, Alt.=167.400513m. Speed=6.588000m/h.</desc>
<speed>1.830000</speed>
</trkpt>
<trkpt lat="55.728100" lon="26.163897">
<ele>167.447388</ele>
<time>2010-07-18T06:56:05Z</time>
<desc>lat.=55.728100, lon.=26.163897, Alt.=167.447388m. Speed=7.128000m/h.</desc>
<speed>1.980000</speed>
</trkpt>
<trkpt lat="55.728107" lon="26.163927">
<ele>167.931763</ele>
<time>2010-07-18T06:56:06Z</time>
<desc>lat.=55.728107, lon.=26.163927, Alt.=167.931763m. Speed=7.128000m/h.</desc>
<speed>1.980000</speed>
</trkpt>
<trkpt lat="55.728115" lon="26.163952">
<ele>168.002075</ele>
<time>2010-07-18T06:56:07Z</time>
<desc>lat.=55.728115, lon.=26.163952, Alt.=168.002075m. Speed=6.768000m/h.</desc>
<speed>1.880000</speed>
</trkpt>
<trkpt lat="55.728127" lon="26.163975">
<ele>168.130981</ele>
<time>2010-07-18T06:56:08Z</time>
<desc>lat.=55.728127, lon.=26.163975, Alt.=168.130981m. Speed=6.768000m/h.</desc>
<speed>1.880000</speed>
</trkpt>
<trkpt lat="55.728138" lon="26.164000">
<ele>168.041138</ele>
<time>2010-07-18T06:56:09Z</time>
<desc>lat.=55.728138, lon.=26.164000, Alt.=168.041138m. Speed=7.452000m/h.</desc>
<speed>2.070000</speed>
</trkpt>
<trkpt lat="55.728149" lon="26.164024">
<ele>168.088013</ele>
<time>2010-07-18T06:56:10Z</time>
<desc>lat.=55.728149, lon.=26.164024, Alt.=168.088013m. Speed=7.992000m/h.</desc>
<speed>2.220000</speed>
</trkpt>
<trkpt lat="55.728161" lon="26.164051">
<ele>168.580200</ele>
<time>2010-07-18T06:56:11Z</time>
<desc>lat.=55.728161, lon.=26.164051, Alt.=168.580200m. Speed=8.352000m/h.</desc>
<speed>2.320000</speed>
</trkpt>
<trkpt lat="55.728176" lon="26.164078">
<ele>168.603638</ele>
<time>2010-07-18T06:56:12Z</time>
<desc>lat.=55.728176, lon.=26.164078, Alt.=168.603638m. Speed=8.820000m/h.</desc>
<speed>2.450000</speed>
</trkpt>
<trkpt lat="55.728188" lon="26.164101">
<ele>168.330200</ele>
<time>2010-07-18T06:56:13Z</time>
<desc>lat.=55.728188, lon.=26.164101, Alt.=168.330200m. Speed=8.172000m/h.</desc>
<speed>2.270000</speed>
</trkpt>
<trkpt lat="55.728199" lon="26.164124">
<ele>168.209106</ele>
<time>2010-07-18T06:56:14Z</time>
<desc>lat.=55.728199, lon.=26.164124, Alt.=168.209106m. Speed=7.056000m/h.</desc>
<speed>1.960000</speed>
</trkpt>
<trkpt lat="55.728210" lon="26.164145">
<ele>168.244263</ele>
<time>2010-07-18T06:56:15Z</time>
<desc>lat.=55.728210, lon.=26.164145, Alt.=168.244263m. Speed=6.012000m/h.</desc>
<speed>1.670000</speed>
</trkpt>
<trkpt lat="55.728218" lon="26.164162">
<ele>168.427856</ele>
<time>2010-07-18T06:56:16Z</time>
<desc>lat.=55.728218, lon.=26.164162, Alt.=168.427856m. Speed=6.012000m/h.</desc>
<speed>1.670000</speed>
</trkpt>
<trkpt lat="55.728226" lon="26.164183">
<ele>168.517700</ele>
<time>2010-07-18T06:56:17Z</time>
<desc>lat.=55.728226, lon.=26.164183, Alt.=168.517700m. Speed=7.056000m/h.</desc>
<speed>1.960000</speed>
</trkpt>
<trkpt lat="55.728241" lon="26.164200">
<ele>168.482544</ele>
<time>2010-07-18T06:56:18Z</time>
<desc>lat.=55.728241, lon.=26.164200, Alt.=168.482544m. Speed=7.992000m/h.</desc>
<speed>2.220000</speed>
</trkpt>
<trkpt lat="55.728256" lon="26.164227">
<ele>168.763794</ele>
<time>2010-07-18T06:56:19Z</time>
<desc>lat.=55.728256, lon.=26.164227, Alt.=168.763794m. Speed=8.820000m/h.</desc>
<speed>2.450000</speed>
</trkpt>
<trkpt lat="55.728271" lon="26.164257">
<ele>168.709106</ele>
<time>2010-07-18T06:56:20Z</time>
<desc>lat.=55.728271, lon.=26.164257, Alt.=168.709106m. Speed=9.648000m/h.</desc>
<speed>2.680000</speed>
</trkpt>
<trkpt lat="55.728287" lon="26.164291">
<ele>168.275513</ele>
<time>2010-07-18T06:56:21Z</time>
<desc>lat.=55.728287, lon.=26.164291, Alt.=168.275513m. Speed=10.368000m/h.</desc>
<speed>2.880000</speed>
</trkpt>
<trkpt lat="55.728302" lon="26.164330">
<ele>168.345825</ele>
<time>2010-07-18T06:56:22Z</time>
<desc>lat.=55.728302, lon.=26.164330, Alt.=168.345825m. Speed=10.800000m/h.</desc>
<speed>3.000000</speed>
</trkpt>
<trkpt lat="55.728321" lon="26.164370">
<ele>167.986450</ele>
<time>2010-07-18T06:56:23Z</time>
<desc>lat.=55.728321, lon.=26.164370, Alt.=167.986450m. Speed=11.520000m/h.</desc>
<speed>3.200000</speed>
</trkpt>
<trkpt lat="55.728344" lon="26.164410">
<ele>167.884888</ele>
<time>2010-07-18T06:56:24Z</time>
<desc>lat.=55.728344, lon.=26.164410, Alt.=167.884888m. Speed=12.600000m/h.</desc>
<speed>3.500000</speed>
</trkpt>
<trkpt lat="55.728367" lon="26.164454">
<ele>167.927856</ele>
<time>2010-07-18T06:56:25Z</time>
<desc>lat.=55.728367, lon.=26.164454, Alt.=167.927856m. Speed=13.536000m/h.</desc>
<speed>3.760000</speed>
</trkpt>
<trkpt lat="55.728390" lon="26.164503">
<ele>167.986450</ele>
<time>2010-07-18T06:56:26Z</time>
<desc>lat.=55.728390, lon.=26.164503, Alt.=167.986450m. Speed=15.012000m/h.</desc>
<speed>4.170000</speed>
</trkpt>
<trkpt lat="55.728413" lon="26.164558">
<ele>167.470825</ele>
<time>2010-07-18T06:56:27Z</time>
<desc>lat.=55.728413, lon.=26.164558, Alt.=167.470825m. Speed=15.372000m/h.</desc>
<speed>4.270000</speed>
</trkpt>
<trkpt lat="55.728436" lon="26.164610">
<ele>166.740356</ele>
<time>2010-07-18T06:56:28Z</time>
<desc>lat.=55.728436, lon.=26.164610, Alt.=166.740356m. Speed=16.452000m/h.</desc>
<speed>4.570000</speed>
</trkpt>
<trkpt lat="55.728462" lon="26.164667">
<ele>166.588013</ele>
<time>2010-07-18T06:56:29Z</time>
<desc>lat.=55.728462, lon.=26.164667, Alt.=166.588013m. Speed=17.784000m/h.</desc>
<speed>4.940000</speed>
</trkpt>
<trkpt lat="55.728497" lon="26.164724">
<ele>165.396606</ele>
<time>2010-07-18T06:56:30Z</time>
<desc>lat.=55.728497, lon.=26.164724, Alt.=165.396606m. Speed=18.792000m/h.</desc>
<speed>5.220000</speed>
</trkpt>
<trkpt lat="55.728527" lon="26.164789">
<ele>164.830200</ele>
<time>2010-07-18T06:56:31Z</time>
<desc>lat.=55.728527, lon.=26.164789, Alt.=164.830200m. Speed=20.160000m/h.</desc>
<speed>5.600000</speed>
</trkpt>
<trkpt lat="55.728561" lon="26.164854">
<ele>164.466919</ele>
<time>2010-07-18T06:56:32Z</time>
<desc>lat.=55.728561, lon.=26.164854, Alt.=164.466919m. Speed=20.268000m/h.</desc>
<speed>5.630000</speed>
</trkpt>
<trkpt lat="55.728596" lon="26.164923">
<ele>163.865356</ele>
<time>2010-07-18T06:56:33Z</time>
<desc>lat.=55.728596, lon.=26.164923, Alt.=163.865356m. Speed=21.743999m/h.</desc>
<speed>6.040000</speed>
</trkpt>
<trkpt lat="55.728634" lon="26.164991">
<ele>163.127075</ele>
<time>2010-07-18T06:56:34Z</time>
<desc>lat.=55.728634, lon.=26.164991, Alt.=163.127075m. Speed=21.780001m/h.</desc>
<speed>6.050000</speed>
</trkpt>
<trkpt lat="55.728672" lon="26.165062">
<ele>162.326294</ele>
<time>2010-07-18T06:56:35Z</time>
<desc>lat.=55.728672, lon.=26.165062, Alt.=162.326294m. Speed=21.167999m/h.</desc>
<speed>5.880000</speed>
</trkpt>
<trkpt lat="55.728710" lon="26.165131">
<ele>161.861450</ele>
<time>2010-07-18T06:56:36Z</time>
<desc>lat.=55.728710, lon.=26.165131, Alt.=161.861450m. Speed=20.700001m/h.</desc>
<speed>5.750000</speed>
</trkpt>
<trkpt lat="55.728748" lon="26.165197">
<ele>161.201294</ele>
<time>2010-07-18T06:56:37Z</time>
<desc>lat.=55.728748, lon.=26.165197, Alt.=161.201294m. Speed=21.348000m/h.</desc>
<speed>5.930000</speed>
</trkpt>
<trkpt lat="55.728786" lon="26.165268">
<ele>160.763794</ele>
<time>2010-07-18T06:56:38Z</time>
<desc>lat.=55.728786, lon.=26.165268, Alt.=160.763794m. Speed=21.492001m/h.</desc>
<speed>5.970000</speed>
</trkpt>
<trkpt lat="55.728828" lon="26.165342">
<ele>160.584106</ele>
<time>2010-07-18T06:56:39Z</time>
<desc>lat.=55.728828, lon.=26.165342, Alt.=160.584106m. Speed=22.068001m/h.</desc>
<speed>6.130000</speed>
</trkpt>
<trkpt lat="55.728867" lon="26.165415">
<ele>159.724731</ele>
<time>2010-07-18T06:56:40Z</time>
<desc>lat.=55.728867, lon.=26.165415, Alt.=159.724731m. Speed=22.788000m/h.</desc>
<speed>6.330000</speed>
</trkpt>
<trkpt lat="55.728916" lon="26.165497">
<ele>159.654419</ele>
<time>2010-07-18T06:56:41Z</time>
<desc>lat.=55.728916, lon.=26.165497, Alt.=159.654419m. Speed=24.587999m/h.</desc>
<speed>6.830000</speed>
</trkpt>
<trkpt lat="55.728958" lon="26.165590">
<ele>159.295044</ele>
<time>2010-07-18T06:56:42Z</time>
<desc>lat.=55.728958, lon.=26.165590, Alt.=159.295044m. Speed=26.243999m/h.</desc>
<speed>7.290000</speed>
</trkpt>
<trkpt lat="55.729000" lon="26.165680">
<ele>158.615356</ele>
<time>2010-07-18T06:56:43Z</time>
<desc>lat.=55.729000, lon.=26.165680, Alt.=158.615356m. Speed=26.892000m/h.</desc>
<speed>7.470000</speed>
</trkpt>
<trkpt lat="55.729050" lon="26.165756">
<ele>157.603638</ele>
<time>2010-07-18T06:56:44Z</time>
<desc>lat.=55.729050, lon.=26.165756, Alt.=157.603638m. Speed=26.063999m/h.</desc>
<speed>7.240000</speed>
</trkpt>
<trkpt lat="55.729103" lon="26.165838">
<ele>157.713013</ele>
<time>2010-07-18T06:56:45Z</time>
<desc>lat.=55.729103, lon.=26.165838, Alt.=157.713013m. Speed=27.072001m/h.</desc>
<speed>7.520000</speed>
</trkpt>
<trkpt lat="55.729160" lon="26.165915">
<ele>157.716919</ele>
<time>2010-07-18T06:56:46Z</time>
<desc>lat.=55.729160, lon.=26.165915, Alt.=157.716919m. Speed=27.431999m/h.</desc>
<speed>7.620000</speed>
</trkpt>
<trkpt lat="55.729214" lon="26.165987">
<ele>157.525513</ele>
<time>2010-07-18T06:56:47Z</time>
<desc>lat.=55.729214, lon.=26.165987, Alt.=157.525513m. Speed=27.000000m/h.</desc>
<speed>7.500000</speed>
</trkpt>
<trkpt lat="55.729275" lon="26.166059">
<ele>157.002075</ele>
<time>2010-07-18T06:56:48Z</time>
<desc>lat.=55.729275, lon.=26.166059, Alt.=157.002075m. Speed=27.431999m/h.</desc>
<speed>7.620000</speed>
</trkpt>
<trkpt lat="55.729324" lon="26.166140">
<ele>156.728638</ele>
<time>2010-07-18T06:56:49Z</time>
<desc>lat.=55.729324, lon.=26.166140, Alt.=156.728638m. Speed=26.784000m/h.</desc>
<speed>7.440000</speed>
</trkpt>
<trkpt lat="55.729378" lon="26.166218">
<ele>156.627075</ele>
<time>2010-07-18T06:56:50Z</time>
<desc>lat.=55.729378, lon.=26.166218, Alt.=156.627075m. Speed=27.792000m/h.</desc>
<speed>7.720000</speed>
</trkpt>
<trkpt lat="55.729431" lon="26.166298">
<ele>155.908325</ele>
<time>2010-07-18T06:56:51Z</time>
<desc>lat.=55.729431, lon.=26.166298, Alt.=155.908325m. Speed=28.764000m/h.</desc>
<speed>7.990000</speed>
</trkpt>
<trkpt lat="55.729485" lon="26.166370">
<ele>155.435669</ele>
<time>2010-07-18T06:56:52Z</time>
<desc>lat.=55.729485, lon.=26.166370, Alt.=155.435669m. Speed=27.756001m/h.</desc>
<speed>7.710000</speed>
</trkpt>
<trkpt lat="55.729538" lon="26.166439">
<ele>154.880981</ele>
<time>2010-07-18T06:56:53Z</time>
<desc>lat.=55.729538, lon.=26.166439, Alt.=154.880981m. Speed=26.280001m/h.</desc>
<speed>7.300000</speed>
</trkpt>
<trkpt lat="55.729591" lon="26.166496">
<ele>154.064575</ele>
<time>2010-07-18T06:56:54Z</time>
<desc>lat.=55.729591, lon.=26.166496, Alt.=154.064575m. Speed=24.840000m/h.</desc>
<speed>6.900000</speed>
</trkpt>
<trkpt lat="55.729649" lon="26.166552">
<ele>154.146606</ele>
<time>2010-07-18T06:56:55Z</time>
<desc>lat.=55.729649, lon.=26.166552, Alt.=154.146606m. Speed=25.056000m/h.</desc>
<speed>6.960000</speed>
</trkpt>
<trkpt lat="55.729698" lon="26.166605">
<ele>153.966919</ele>
<time>2010-07-18T06:56:56Z</time>
<desc>lat.=55.729698, lon.=26.166605, Alt.=153.966919m. Speed=23.903999m/h.</desc>
<speed>6.640000</speed>
</trkpt>
<trkpt lat="55.729755" lon="26.166649">
<ele>153.912231</ele>
<time>2010-07-18T06:56:57Z</time>
<desc>lat.=55.729755, lon.=26.166649, Alt.=153.912231m. Speed=24.264000m/h.</desc>
<speed>6.740000</speed>
</trkpt>
<trkpt lat="55.729805" lon="26.166695">
<ele>153.404419</ele>
<time>2010-07-18T06:56:58Z</time>
<desc>lat.=55.729805, lon.=26.166695, Alt.=153.404419m. Speed=23.112000m/h.</desc>
<speed>6.420000</speed>
</trkpt>
<trkpt lat="55.729855" lon="26.166740">
<ele>153.158325</ele>
<time>2010-07-18T06:56:59Z</time>
<desc>lat.=55.729855, lon.=26.166740, Alt.=153.158325m. Speed=21.455999m/h.</desc>
<speed>5.960000</speed>
</trkpt>
<trkpt lat="55.729904" lon="26.166784">
<ele>153.005981</ele>
<time>2010-07-18T06:57:00Z</time>
<desc>lat.=55.729904, lon.=26.166784, Alt.=153.005981m. Speed=20.916000m/h.</desc>
<speed>5.810000</speed>
</trkpt>
<trkpt lat="55.729946" lon="26.166828">
<ele>153.130981</ele>
<time>2010-07-18T06:57:01Z</time>
<desc>lat.=55.729946, lon.=26.166828, Alt.=153.130981m. Speed=18.900000m/h.</desc>
<speed>5.250000</speed>
</trkpt>
<trkpt lat="55.729992" lon="26.166876">
<ele>153.310669</ele>
<time>2010-07-18T06:57:02Z</time>
<desc>lat.=55.729992, lon.=26.166876, Alt.=153.310669m. Speed=18.576000m/h.</desc>
<speed>5.160000</speed>
</trkpt>
<trkpt lat="55.730019" lon="26.166935">
<ele>153.267700</ele>
<time>2010-07-18T06:57:03Z</time>
<desc>lat.=55.730019, lon.=26.166935, Alt.=153.267700m. Speed=17.964001m/h.</desc>
<speed>4.990000</speed>
</trkpt>
<trkpt lat="55.730042" lon="26.166994">
<ele>152.783325</ele>
<time>2010-07-18T06:57:04Z</time>
<desc>lat.=55.730042, lon.=26.166994, Alt.=152.783325m. Speed=16.524000m/h.</desc>
<speed>4.590000</speed>
</trkpt>
<trkpt lat="55.730068" lon="26.167053">
<ele>152.697388</ele>
<time>2010-07-18T06:57:05Z</time>
<desc>lat.=55.730068, lon.=26.167053, Alt.=152.697388m. Speed=15.660000m/h.</desc>
<speed>4.350000</speed>
</trkpt>
<trkpt lat="55.730080" lon="26.167116">
<ele>152.838013</ele>
<time>2010-07-18T06:57:06Z</time>
<desc>lat.=55.730080, lon.=26.167116, Alt.=152.838013m. Speed=15.264000m/h.</desc>
<speed>4.240000</speed>
</trkpt>
<trkpt lat="55.730087" lon="26.167189">
<ele>151.740356</ele>
<time>2010-07-18T06:57:07Z</time>
<desc>lat.=55.730087, lon.=26.167189, Alt.=151.740356m. Speed=15.228000m/h.</desc>
<speed>4.230000</speed>
</trkpt>
<trkpt lat="55.730099" lon="26.167253">
<ele>151.455200</ele>
<time>2010-07-18T06:57:08Z</time>
<desc>lat.=55.730099, lon.=26.167253, Alt.=151.455200m. Speed=14.940000m/h.</desc>
<speed>4.150000</speed>
</trkpt>
<trkpt lat="55.730110" lon="26.167315">
<ele>151.377075</ele>
<time>2010-07-18T06:57:09Z</time>
<desc>lat.=55.730110, lon.=26.167315, Alt.=151.377075m. Speed=14.400000m/h.</desc>
<speed>4.000000</speed>
</trkpt>
<trkpt lat="55.730122" lon="26.167379">
<ele>151.373169</ele>
<time>2010-07-18T06:57:10Z</time>
<desc>lat.=55.730122, lon.=26.167379, Alt.=151.373169m. Speed=13.932000m/h.</desc>
<speed>3.870000</speed>
</trkpt>
<trkpt lat="55.730133" lon="26.167440">
<ele>151.252075</ele>
<time>2010-07-18T06:57:11Z</time>
<desc>lat.=55.730133, lon.=26.167440, Alt.=151.252075m. Speed=14.112000m/h.</desc>
<speed>3.920000</speed>
</trkpt>
<trkpt lat="55.730145" lon="26.167501">
<ele>151.775513</ele>
<time>2010-07-18T06:57:12Z</time>
<desc>lat.=55.730145, lon.=26.167501, Alt.=151.775513m. Speed=13.716000m/h.</desc>
<speed>3.810000</speed>
</trkpt>
<trkpt lat="55.730156" lon="26.167559">
<ele>152.517700</ele>
<time>2010-07-18T06:57:13Z</time>
<desc>lat.=55.730156, lon.=26.167559, Alt.=152.517700m. Speed=14.652000m/h.</desc>
<speed>4.070000</speed>
</trkpt>
<trkpt lat="55.730164" lon="26.167629">
<ele>152.416138</ele>
<time>2010-07-18T06:57:14Z</time>
<desc>lat.=55.730164, lon.=26.167629, Alt.=152.416138m. Speed=15.444000m/h.</desc>
<speed>4.290000</speed>
</trkpt>
<trkpt lat="55.730171" lon="26.167702">
<ele>152.576294</ele>
<time>2010-07-18T06:57:15Z</time>
<desc>lat.=55.730171, lon.=26.167702, Alt.=152.576294m. Speed=15.228000m/h.</desc>
<speed>4.230000</speed>
</trkpt>
<trkpt lat="55.730186" lon="26.167763">
<ele>152.689575</ele>
<time>2010-07-18T06:57:16Z</time>
<desc>lat.=55.730186, lon.=26.167763, Alt.=152.689575m. Speed=15.660000m/h.</desc>
<speed>4.350000</speed>
</trkpt>
<trkpt lat="55.730202" lon="26.167824">
<ele>152.224731</ele>
<time>2010-07-18T06:57:17Z</time>
<desc>lat.=55.730202, lon.=26.167824, Alt.=152.224731m. Speed=15.048000m/h.</desc>
<speed>4.180000</speed>
</trkpt>
<trkpt lat="55.730217" lon="26.167885">
<ele>152.017700</ele>
<time>2010-07-18T06:57:18Z</time>
<desc>lat.=55.730217, lon.=26.167885, Alt.=152.017700m. Speed=14.976000m/h.</desc>
<speed>4.160000</speed>
</trkpt>
<trkpt lat="55.730228" lon="26.167953">
<ele>152.009888</ele>
<time>2010-07-18T06:57:19Z</time>
<desc>lat.=55.730228, lon.=26.167953, Alt.=152.009888m. Speed=15.156000m/h.</desc>
<speed>4.210000</speed>
</trkpt>
<trkpt lat="55.730247" lon="26.168018">
<ele>151.959106</ele>
<time>2010-07-18T06:57:20Z</time>
<desc>lat.=55.730247, lon.=26.168018, Alt.=151.959106m. Speed=14.760000m/h.</desc>
<speed>4.100000</speed>
</trkpt>
<trkpt lat="55.730259" lon="26.168081">
<ele>151.877075</ele>
<time>2010-07-18T06:57:21Z</time>
<desc>lat.=55.730259, lon.=26.168081, Alt.=151.877075m. Speed=15.228000m/h.</desc>
<speed>4.230000</speed>
</trkpt>
<trkpt lat="55.730274" lon="26.168146">
<ele>151.920044</ele>
<time>2010-07-18T06:57:22Z</time>
<desc>lat.=55.730274, lon.=26.168146, Alt.=151.920044m. Speed=15.516000m/h.</desc>
<speed>4.310000</speed>
</trkpt>
<trkpt lat="55.730293" lon="26.168211">
<ele>152.197388</ele>
<time>2010-07-18T06:57:23Z</time>
<desc>lat.=55.730293, lon.=26.168211, Alt.=152.197388m. Speed=16.091999m/h.</desc>
<speed>4.470000</speed>
</trkpt>
<trkpt lat="55.730309" lon="26.168278">
<ele>151.947388</ele>
<time>2010-07-18T06:57:24Z</time>
<desc>lat.=55.730309, lon.=26.168278, Alt.=151.947388m. Speed=16.596001m/h.</desc>
<speed>4.610000</speed>
</trkpt>
<trkpt lat="55.730324" lon="26.168344">
<ele>151.783325</ele>
<time>2010-07-18T06:57:25Z</time>
<desc>lat.=55.730324, lon.=26.168344, Alt.=151.783325m. Speed=17.388000m/h.</desc>
<speed>4.830000</speed>
</trkpt>
<trkpt lat="55.730343" lon="26.168413">
<ele>151.705200</ele>
<time>2010-07-18T06:57:26Z</time>
<desc>lat.=55.730343, lon.=26.168413, Alt.=151.705200m. Speed=17.604000m/h.</desc>
<speed>4.890000</speed>
</trkpt>
<trkpt lat="55.730366" lon="26.168488">
<ele>151.787231</ele>
<time>2010-07-18T06:57:27Z</time>
<desc>lat.=55.730366, lon.=26.168488, Alt.=151.787231m. Speed=17.639999m/h.</desc>
<speed>4.900000</speed>
</trkpt>
<trkpt lat="55.730389" lon="26.168560">
<ele>151.767700</ele>
<time>2010-07-18T06:57:28Z</time>
<desc>lat.=55.730389, lon.=26.168560, Alt.=151.767700m. Speed=17.243999m/h.</desc>
<speed>4.790000</speed>
</trkpt>
<trkpt lat="55.730408" lon="26.168629">
<ele>152.466919</ele>
<time>2010-07-18T06:57:29Z</time>
<desc>lat.=55.730408, lon.=26.168629, Alt.=152.466919m. Speed=17.351999m/h.</desc>
<speed>4.820000</speed>
</trkpt>
<trkpt lat="55.730431" lon="26.168699">
<ele>153.052856</ele>
<time>2010-07-18T06:57:30Z</time>
<desc>lat.=55.730431, lon.=26.168699, Alt.=153.052856m. Speed=16.955999m/h.</desc>
<speed>4.710000</speed>
</trkpt>
<trkpt lat="55.730453" lon="26.168768">
<ele>153.052856</ele>
<time>2010-07-18T06:57:31Z</time>
<desc>lat.=55.730453, lon.=26.168768, Alt.=153.052856m. Speed=17.208000m/h.</desc>
<speed>4.780000</speed>
</trkpt>
<trkpt lat="55.730476" lon="26.168833">
<ele>152.974731</ele>
<time>2010-07-18T06:57:32Z</time>
<desc>lat.=55.730476, lon.=26.168833, Alt.=152.974731m. Speed=17.028000m/h.</desc>
<speed>4.730000</speed>
</trkpt>
<trkpt lat="55.730499" lon="26.168896">
<ele>153.150513</ele>
<time>2010-07-18T06:57:33Z</time>
<desc>lat.=55.730499, lon.=26.168896, Alt.=153.150513m. Speed=16.884001m/h.</desc>
<speed>4.690000</speed>
</trkpt>
<trkpt lat="55.730522" lon="26.168959">
<ele>153.048950</ele>
<time>2010-07-18T06:57:34Z</time>
<desc>lat.=55.730522, lon.=26.168959, Alt.=153.048950m. Speed=17.280001m/h.</desc>
<speed>4.800000</speed>
</trkpt>
<trkpt lat="55.730545" lon="26.169022">
<ele>152.853638</ele>
<time>2010-07-18T06:57:35Z</time>
<desc>lat.=55.730545, lon.=26.169022, Alt.=152.853638m. Speed=18.143999m/h.</desc>
<speed>5.040000</speed>
</trkpt>
<trkpt lat="55.730568" lon="26.169085">
<ele>152.759888</ele>
<time>2010-07-18T06:57:36Z</time>
<desc>lat.=55.730568, lon.=26.169085, Alt.=152.759888m. Speed=18.143999m/h.</desc>
<speed>5.040000</speed>
</trkpt>
<trkpt lat="55.730595" lon="26.169153">
<ele>152.689575</ele>
<time>2010-07-18T06:57:37Z</time>
<desc>lat.=55.730595, lon.=26.169153, Alt.=152.689575m. Speed=19.080000m/h.</desc>
<speed>5.300000</speed>
</trkpt>
<trkpt lat="55.730621" lon="26.169222">
<ele>152.349731</ele>
<time>2010-07-18T06:57:38Z</time>
<desc>lat.=55.730621, lon.=26.169222, Alt.=152.349731m. Speed=19.368000m/h.</desc>
<speed>5.380000</speed>
</trkpt>
<trkpt lat="55.730644" lon="26.169296">
<ele>152.068481</ele>
<time>2010-07-18T06:57:39Z</time>
<desc>lat.=55.730644, lon.=26.169296, Alt.=152.068481m. Speed=19.260000m/h.</desc>
<speed>5.350000</speed>
</trkpt>
<trkpt lat="55.730675" lon="26.169373">
<ele>152.091919</ele>
<time>2010-07-18T06:57:40Z</time>
<desc>lat.=55.730675, lon.=26.169373, Alt.=152.091919m. Speed=19.188000m/h.</desc>
<speed>5.330000</speed>
</trkpt>
<trkpt lat="55.730698" lon="26.169449">
<ele>151.923950</ele>
<time>2010-07-18T06:57:41Z</time>
<desc>lat.=55.730698, lon.=26.169449, Alt.=151.923950m. Speed=21.132000m/h.</desc>
<speed>5.870000</speed>
</trkpt>
<trkpt lat="55.730732" lon="26.169527">
<ele>151.966919</ele>
<time>2010-07-18T06:57:42Z</time>
<desc>lat.=55.730732, lon.=26.169527, Alt.=151.966919m. Speed=21.816000m/h.</desc>
<speed>6.060000</speed>
</trkpt>
<trkpt lat="55.730762" lon="26.169607">
<ele>151.998169</ele>
<time>2010-07-18T06:57:43Z</time>
<desc>lat.=55.730762, lon.=26.169607, Alt.=151.998169m. Speed=23.219999m/h.</desc>
<speed>6.450000</speed>
</trkpt>
<trkpt lat="55.730797" lon="26.169697">
<ele>152.166138</ele>
<time>2010-07-18T06:57:44Z</time>
<desc>lat.=55.730797, lon.=26.169697, Alt.=152.166138m. Speed=24.804001m/h.</desc>
<speed>6.890000</speed>
</trkpt>
<trkpt lat="55.730835" lon="26.169796">
<ele>152.209106</ele>
<time>2010-07-18T06:57:45Z</time>
<desc>lat.=55.730835, lon.=26.169796, Alt.=152.209106m. Speed=26.351999m/h.</desc>
<speed>7.320000</speed>
</trkpt>
<trkpt lat="55.730877" lon="26.169895">
<ele>152.994263</ele>
<time>2010-07-18T06:57:46Z</time>
<desc>lat.=55.730877, lon.=26.169895, Alt.=152.994263m. Speed=26.172001m/h.</desc>
<speed>7.270000</speed>
</trkpt>
<trkpt lat="55.730915" lon="26.169991">
<ele>153.318481</ele>
<time>2010-07-18T06:57:47Z</time>
<desc>lat.=55.730915, lon.=26.169991, Alt.=153.318481m. Speed=25.884001m/h.</desc>
<speed>7.190000</speed>
</trkpt>
<trkpt lat="55.730957" lon="26.170082">
<ele>153.904419</ele>
<time>2010-07-18T06:57:48Z</time>
<desc>lat.=55.730957, lon.=26.170082, Alt.=153.904419m. Speed=25.596001m/h.</desc>
<speed>7.110000</speed>
</trkpt>
<trkpt lat="55.730995" lon="26.170176">
<ele>154.154419</ele>
<time>2010-07-18T06:57:49Z</time>
<desc>lat.=55.730995, lon.=26.170176, Alt.=154.154419m. Speed=25.236000m/h.</desc>
<speed>7.010000</speed>
</trkpt>
<trkpt lat="55.731037" lon="26.170271">
<ele>154.990356</ele>
<time>2010-07-18T06:57:50Z</time>
<desc>lat.=55.731037, lon.=26.170271, Alt.=154.990356m. Speed=25.056000m/h.</desc>
<speed>6.960000</speed>
</trkpt>
<trkpt lat="55.731075" lon="26.170362">
<ele>155.443481</ele>
<time>2010-07-18T06:57:51Z</time>
<desc>lat.=55.731075, lon.=26.170362, Alt.=155.443481m. Speed=24.804001m/h.</desc>
<speed>6.890000</speed>
</trkpt>
<trkpt lat="55.731117" lon="26.170452">
<ele>156.201294</ele>
<time>2010-07-18T06:57:52Z</time>
<desc>lat.=55.731117, lon.=26.170452, Alt.=156.201294m. Speed=24.444000m/h.</desc>
<speed>6.790000</speed>
</trkpt>
<trkpt lat="55.731152" lon="26.170542">
<ele>156.830200</ele>
<time>2010-07-18T06:57:53Z</time>
<desc>lat.=55.731152, lon.=26.170542, Alt.=156.830200m. Speed=24.048000m/h.</desc>
<speed>6.680000</speed>
</trkpt>
<trkpt lat="55.731186" lon="26.170628">
<ele>157.189575</ele>
<time>2010-07-18T06:57:54Z</time>
<desc>lat.=55.731186, lon.=26.170628, Alt.=157.189575m. Speed=23.472000m/h.</desc>
<speed>6.520000</speed>
</trkpt>
<trkpt lat="55.731220" lon="26.170710">
<ele>157.548950</ele>
<time>2010-07-18T06:57:55Z</time>
<desc>lat.=55.731220, lon.=26.170710, Alt.=157.548950m. Speed=22.860001m/h.</desc>
<speed>6.350000</speed>
</trkpt>
<trkpt lat="55.731251" lon="26.170790">
<ele>157.834106</ele>
<time>2010-07-18T06:57:56Z</time>
<desc>lat.=55.731251, lon.=26.170790, Alt.=157.834106m. Speed=22.104000m/h.</desc>
<speed>6.140000</speed>
</trkpt>
<trkpt lat="55.731281" lon="26.170870">
<ele>157.959106</ele>
<time>2010-07-18T06:57:57Z</time>
<desc>lat.=55.731281, lon.=26.170870, Alt.=157.959106m. Speed=21.492001m/h.</desc>
<speed>5.970000</speed>
</trkpt>
<trkpt lat="55.731312" lon="26.170940">
<ele>157.935669</ele>
<time>2010-07-18T06:57:58Z</time>
<desc>lat.=55.731312, lon.=26.170940, Alt.=157.935669m. Speed=20.664000m/h.</desc>
<speed>5.740000</speed>
</trkpt>
<trkpt lat="55.731342" lon="26.171013">
<ele>158.123169</ele>
<time>2010-07-18T06:57:59Z</time>
<desc>lat.=55.731342, lon.=26.171013, Alt.=158.123169m. Speed=19.799999m/h.</desc>
<speed>5.500000</speed>
</trkpt>
<trkpt lat="55.731373" lon="26.171080">
<ele>158.345825</ele>
<time>2010-07-18T06:58:00Z</time>
<desc>lat.=55.731373, lon.=26.171080, Alt.=158.345825m. Speed=19.115999m/h.</desc>
<speed>5.310000</speed>
</trkpt>
<trkpt lat="55.731396" lon="26.171144">
<ele>158.048950</ele>
<time>2010-07-18T06:58:01Z</time>
<desc>lat.=55.731396, lon.=26.171144, Alt.=158.048950m. Speed=19.403999m/h.</desc>
<speed>5.390000</speed>
</trkpt>
<trkpt lat="55.731426" lon="26.171211">
<ele>157.892700</ele>
<time>2010-07-18T06:58:02Z</time>
<desc>lat.=55.731426, lon.=26.171211, Alt.=157.892700m. Speed=19.799999m/h.</desc>
<speed>5.500000</speed>
</trkpt>
<trkpt lat="55.731449" lon="26.171274">
<ele>156.361450</ele>
<time>2010-07-18T06:58:03Z</time>
<desc>lat.=55.731449, lon.=26.171274, Alt.=156.361450m. Speed=20.124001m/h.</desc>
<speed>5.590000</speed>
</trkpt>
<trkpt lat="55.731472" lon="26.171349">
<ele>156.134888</ele>
<time>2010-07-18T06:58:04Z</time>
<desc>lat.=55.731472, lon.=26.171349, Alt.=156.134888m. Speed=20.628000m/h.</desc>
<speed>5.730000</speed>
</trkpt>
<trkpt lat="55.731503" lon="26.171421">
<ele>156.130981</ele>
<time>2010-07-18T06:58:05Z</time>
<desc>lat.=55.731503, lon.=26.171421, Alt.=156.130981m. Speed=19.296000m/h.</desc>
<speed>5.360000</speed>
</trkpt>
<trkpt lat="55.731514" lon="26.171474">
<ele>153.060669</ele>
<time>2010-07-18T06:58:06Z</time>
<desc>lat.=55.731514, lon.=26.171474, Alt.=153.060669m. Speed=17.784000m/h.</desc>
<speed>4.940000</speed>
</trkpt>
<trkpt lat="55.731537" lon="26.171534">
<ele>152.197388</ele>
<time>2010-07-18T06:58:07Z</time>
<desc>lat.=55.731537, lon.=26.171534, Alt.=152.197388m. Speed=17.424000m/h.</desc>
<speed>4.840000</speed>
</trkpt>
<trkpt lat="55.731564" lon="26.171585">
<ele>151.349731</ele>
<time>2010-07-18T06:58:08Z</time>
<desc>lat.=55.731564, lon.=26.171585, Alt.=151.349731m. Speed=17.100000m/h.</desc>
<speed>4.750000</speed>
</trkpt>
<trkpt lat="55.731586" lon="26.171638">
<ele>150.701294</ele>
<time>2010-07-18T06:58:09Z</time>
<desc>lat.=55.731586, lon.=26.171638, Alt.=150.701294m. Speed=15.840000m/h.</desc>
<speed>4.400000</speed>
</trkpt>
<trkpt lat="55.731606" lon="26.171696">
<ele>150.252075</ele>
<time>2010-07-18T06:58:10Z</time>
<desc>lat.=55.731606, lon.=26.171696, Alt.=150.252075m. Speed=15.588000m/h.</desc>
<speed>4.330000</speed>
</trkpt>
<trkpt lat="55.731621" lon="26.171755">
<ele>150.380981</ele>
<time>2010-07-18T06:58:11Z</time>
<desc>lat.=55.731621, lon.=26.171755, Alt.=150.380981m. Speed=14.904000m/h.</desc>
<speed>4.140000</speed>
</trkpt>
<trkpt lat="55.731640" lon="26.171810">
<ele>150.138794</ele>
<time>2010-07-18T06:58:12Z</time>
<desc>lat.=55.731640, lon.=26.171810, Alt.=150.138794m. Speed=15.444000m/h.</desc>
<speed>4.290000</speed>
</trkpt>
<trkpt lat="55.731659" lon="26.171865">
<ele>150.556763</ele>
<time>2010-07-18T06:58:13Z</time>
<desc>lat.=55.731659, lon.=26.171865, Alt.=150.556763m. Speed=14.292000m/h.</desc>
<speed>3.970000</speed>
</trkpt>
<trkpt lat="55.731674" lon="26.171913">
<ele>150.095825</ele>
<time>2010-07-18T06:58:14Z</time>
<desc>lat.=55.731674, lon.=26.171913, Alt.=150.095825m. Speed=14.688000m/h.</desc>
<speed>4.080000</speed>
</trkpt>
<trkpt lat="55.731693" lon="26.171968">
<ele>149.646606</ele>
<time>2010-07-18T06:58:15Z</time>
<desc>lat.=55.731693, lon.=26.171968, Alt.=149.646606m. Speed=14.292000m/h.</desc>
<speed>3.970000</speed>
</trkpt>
<trkpt lat="55.731712" lon="26.172026">
<ele>149.259888</ele>
<time>2010-07-18T06:58:16Z</time>
<desc>lat.=55.731712, lon.=26.172026, Alt.=149.259888m. Speed=14.148000m/h.</desc>
<speed>3.930000</speed>
</trkpt>
<trkpt lat="55.731731" lon="26.172083">
<ele>149.244263</ele>
<time>2010-07-18T06:58:17Z</time>
<desc>lat.=55.731731, lon.=26.172083, Alt.=149.244263m. Speed=13.824000m/h.</desc>
<speed>3.840000</speed>
</trkpt>
<trkpt lat="55.731750" lon="26.172134">
<ele>148.916138</ele>
<time>2010-07-18T06:58:18Z</time>
<desc>lat.=55.731750, lon.=26.172134, Alt.=148.916138m. Speed=14.112000m/h.</desc>
<speed>3.920000</speed>
</trkpt>
<trkpt lat="55.731770" lon="26.172190">
<ele>149.220825</ele>
<time>2010-07-18T06:58:19Z</time>
<desc>lat.=55.731770, lon.=26.172190, Alt.=149.220825m. Speed=13.896000m/h.</desc>
<speed>3.860000</speed>
</trkpt>
<trkpt lat="55.731792" lon="26.172237">
<ele>149.466919</ele>
<time>2010-07-18T06:58:20Z</time>
<desc>lat.=55.731792, lon.=26.172237, Alt.=149.466919m. Speed=13.644000m/h.</desc>
<speed>3.790000</speed>
</trkpt>
<trkpt lat="55.731815" lon="26.172287">
<ele>149.755981</ele>
<time>2010-07-18T06:58:21Z</time>
<desc>lat.=55.731815, lon.=26.172287, Alt.=149.755981m. Speed=13.428000m/h.</desc>
<speed>3.730000</speed>
</trkpt>
<trkpt lat="55.731827" lon="26.172342">
<ele>149.490356</ele>
<time>2010-07-18T06:58:22Z</time>
<desc>lat.=55.731827, lon.=26.172342, Alt.=149.490356m. Speed=14.076000m/h.</desc>
<speed>3.910000</speed>
</trkpt>
<trkpt lat="55.731846" lon="26.172392">
<ele>149.306763</ele>
<time>2010-07-18T06:58:23Z</time>
<desc>lat.=55.731846, lon.=26.172392, Alt.=149.306763m. Speed=12.708000m/h.</desc>
<speed>3.530000</speed>
</trkpt>
<trkpt lat="55.731861" lon="26.172445">
<ele>149.384888</ele>
<time>2010-07-18T06:58:24Z</time>
<desc>lat.=55.731861, lon.=26.172445, Alt.=149.384888m. Speed=14.004000m/h.</desc>
<speed>3.890000</speed>
</trkpt>
<trkpt lat="55.731876" lon="26.172503">
<ele>149.423950</ele>
<time>2010-07-18T06:58:25Z</time>
<desc>lat.=55.731876, lon.=26.172503, Alt.=149.423950m. Speed=14.760000m/h.</desc>
<speed>4.100000</speed>
</trkpt>
<trkpt lat="55.731895" lon="26.172564">
<ele>149.599731</ele>
<time>2010-07-18T06:58:26Z</time>
<desc>lat.=55.731895, lon.=26.172564, Alt.=149.599731m. Speed=14.328000m/h.</desc>
<speed>3.980000</speed>
</trkpt>
<trkpt lat="55.731918" lon="26.172632">
<ele>151.134888</ele>
<time>2010-07-18T06:58:27Z</time>
<desc>lat.=55.731918, lon.=26.172632, Alt.=151.134888m. Speed=15.372000m/h.</desc>
<speed>4.270000</speed>
</trkpt>
<trkpt lat="55.731937" lon="26.172686">
<ele>151.576294</ele>
<time>2010-07-18T06:58:28Z</time>
<desc>lat.=55.731937, lon.=26.172686, Alt.=151.576294m. Speed=13.068000m/h.</desc>
<speed>3.630000</speed>
</trkpt>
<trkpt lat="55.731956" lon="26.172741">
<ele>151.447388</ele>
<time>2010-07-18T06:58:29Z</time>
<desc>lat.=55.731956, lon.=26.172741, Alt.=151.447388m. Speed=13.428000m/h.</desc>
<speed>3.730000</speed>
</trkpt>
<trkpt lat="55.731976" lon="26.172792">
<ele>151.775513</ele>
<time>2010-07-18T06:58:30Z</time>
<desc>lat.=55.731976, lon.=26.172792, Alt.=151.775513m. Speed=12.420000m/h.</desc>
<speed>3.450000</speed>
</trkpt>
<trkpt lat="55.731991" lon="26.172836">
<ele>151.888794</ele>
<time>2010-07-18T06:58:31Z</time>
<desc>lat.=55.731991, lon.=26.172836, Alt.=151.888794m. Speed=11.628000m/h.</desc>
<speed>3.230000</speed>
</trkpt>
<trkpt lat="55.732006" lon="26.172878">
<ele>151.974731</ele>
<time>2010-07-18T06:58:32Z</time>
<desc>lat.=55.732006, lon.=26.172878, Alt.=151.974731m. Speed=12.096000m/h.</desc>
<speed>3.360000</speed>
</trkpt>
<trkpt lat="55.732021" lon="26.172916">
<ele>152.298950</ele>
<time>2010-07-18T06:58:33Z</time>
<desc>lat.=55.732021, lon.=26.172916, Alt.=152.298950m. Speed=9.720000m/h.</desc>
<speed>2.700000</speed>
</trkpt>
<trkpt lat="55.732044" lon="26.172953">
<ele>152.763794</ele>
<time>2010-07-18T06:58:34Z</time>
<desc>lat.=55.732044, lon.=26.172953, Alt.=152.763794m. Speed=8.820000m/h.</desc>
<speed>2.450000</speed>
</trkpt>
<trkpt lat="55.732079" lon="26.172998">
<ele>154.045044</ele>
<time>2010-07-18T06:58:35Z</time>
<desc>lat.=55.732079, lon.=26.172998, Alt.=154.045044m. Speed=11.232000m/h.</desc>
<speed>3.120000</speed>
</trkpt>
<trkpt lat="55.732109" lon="26.173037">
<ele>153.728638</ele>
<time>2010-07-18T06:58:36Z</time>
<desc>lat.=55.732109, lon.=26.173037, Alt.=153.728638m. Speed=11.052000m/h.</desc>
<speed>3.070000</speed>
</trkpt>
<trkpt lat="55.732132" lon="26.173082">
<ele>153.861450</ele>
<time>2010-07-18T06:58:37Z</time>
<desc>lat.=55.732132, lon.=26.173082, Alt.=153.861450m. Speed=10.584000m/h.</desc>
<speed>2.940000</speed>
</trkpt>
<trkpt lat="55.732170" lon="26.173151">
<ele>155.677856</ele>
<time>2010-07-18T06:58:38Z</time>
<desc>lat.=55.732170, lon.=26.173151, Alt.=155.677856m. Speed=11.412000m/h.</desc>
<speed>3.170000</speed>
</trkpt>
<trkpt lat="55.732197" lon="26.173199">
<ele>156.775513</ele>
<time>2010-07-18T06:58:39Z</time>
<desc>lat.=55.732197, lon.=26.173199, Alt.=156.775513m. Speed=12.600000m/h.</desc>
<speed>3.500000</speed>
</trkpt>
<trkpt lat="55.732235" lon="26.173252">
<ele>157.013794</ele>
<time>2010-07-18T06:58:40Z</time>
<desc>lat.=55.732235, lon.=26.173252, Alt.=157.013794m. Speed=14.760000m/h.</desc>
<speed>4.100000</speed>
</trkpt>
<trkpt lat="55.732273" lon="26.173302">
<ele>157.533325</ele>
<time>2010-07-18T06:58:41Z</time>
<desc>lat.=55.732273, lon.=26.173302, Alt.=157.533325m. Speed=16.056000m/h.</desc>
<speed>4.460000</speed>
</trkpt>
<trkpt lat="55.732285" lon="26.173388">
<ele>158.283325</ele>
<time>2010-07-18T06:58:42Z</time>
<desc>lat.=55.732285, lon.=26.173388, Alt.=158.283325m. Speed=15.876000m/h.</desc>
<speed>4.410000</speed>
</trkpt>
<trkpt lat="55.732315" lon="26.173445">
<ele>160.052856</ele>
<time>2010-07-18T06:58:43Z</time>
<desc>lat.=55.732315, lon.=26.173445, Alt.=160.052856m. Speed=14.328000m/h.</desc>
<speed>3.980000</speed>
</trkpt>
<trkpt lat="55.732342" lon="26.173500">
<ele>161.384888</ele>
<time>2010-07-18T06:58:44Z</time>
<desc>lat.=55.732342, lon.=26.173500, Alt.=161.384888m. Speed=15.804000m/h.</desc>
<speed>4.390000</speed>
</trkpt>
<trkpt lat="55.732349" lon="26.173582">
<ele>161.646606</ele>
<time>2010-07-18T06:58:45Z</time>
<desc>lat.=55.732349, lon.=26.173582, Alt.=161.646606m. Speed=16.128000m/h.</desc>
<speed>4.480000</speed>
</trkpt>
<trkpt lat="55.732376" lon="26.173653">
<ele>161.459106</ele>
<time>2010-07-18T06:58:46Z</time>
<desc>lat.=55.732376, lon.=26.173653, Alt.=161.459106m. Speed=16.488001m/h.</desc>
<speed>4.580000</speed>
</trkpt>
<trkpt lat="55.732414" lon="26.173719">
<ele>162.673950</ele>
<time>2010-07-18T06:58:47Z</time>
<desc>lat.=55.732414, lon.=26.173719, Alt.=162.673950m. Speed=15.732000m/h.</desc>
<speed>4.370000</speed>
</trkpt>
<trkpt lat="55.732433" lon="26.173777">
<ele>162.689575</ele>
<time>2010-07-18T06:58:48Z</time>
<desc>lat.=55.732433, lon.=26.173777, Alt.=162.689575m. Speed=15.048000m/h.</desc>
<speed>4.180000</speed>
</trkpt>
<trkpt lat="55.732460" lon="26.173838">
<ele>162.904419</ele>
<time>2010-07-18T06:58:49Z</time>
<desc>lat.=55.732460, lon.=26.173838, Alt.=162.904419m. Speed=16.596001m/h.</desc>
<speed>4.610000</speed>
</trkpt>
<trkpt lat="55.732491" lon="26.173903">
<ele>163.205200</ele>
<time>2010-07-18T06:58:50Z</time>
<desc>lat.=55.732491, lon.=26.173903, Alt.=163.205200m. Speed=16.884001m/h.</desc>
<speed>4.690000</speed>
</trkpt>
<trkpt lat="55.732525" lon="26.173962">
<ele>164.560669</ele>
<time>2010-07-18T06:58:51Z</time>
<desc>lat.=55.732525, lon.=26.173962, Alt.=164.560669m. Speed=17.208000m/h.</desc>
<speed>4.780000</speed>
</trkpt>
<trkpt lat="55.732548" lon="26.174036">
<ele>164.970825</ele>
<time>2010-07-18T06:58:52Z</time>
<desc>lat.=55.732548, lon.=26.174036, Alt.=164.970825m. Speed=16.812000m/h.</desc>
<speed>4.670000</speed>
</trkpt>
<trkpt lat="55.732563" lon="26.174126">
<ele>164.783325</ele>
<time>2010-07-18T06:58:53Z</time>
<desc>lat.=55.732563, lon.=26.174126, Alt.=164.783325m. Speed=17.388000m/h.</desc>
<speed>4.830000</speed>
</trkpt>
<trkpt lat="55.732586" lon="26.174183">
<ele>165.076294</ele>
<time>2010-07-18T06:58:54Z</time>
<desc>lat.=55.732586, lon.=26.174183, Alt.=165.076294m. Speed=15.264000m/h.</desc>
<speed>4.240000</speed>
</trkpt>
<trkpt lat="55.732620" lon="26.174238">
<ele>165.275513</ele>
<time>2010-07-18T06:58:55Z</time>
<desc>lat.=55.732620, lon.=26.174238, Alt.=165.275513m. Speed=15.480000m/h.</desc>
<speed>4.300000</speed>
</trkpt>
<trkpt lat="55.732655" lon="26.174295">
<ele>165.923950</ele>
<time>2010-07-18T06:58:56Z</time>
<desc>lat.=55.732655, lon.=26.174295, Alt.=165.923950m. Speed=17.280001m/h.</desc>
<speed>4.800000</speed>
</trkpt>
<trkpt lat="55.732677" lon="26.174358">
<ele>166.521606</ele>
<time>2010-07-18T06:58:57Z</time>
<desc>lat.=55.732677, lon.=26.174358, Alt.=166.521606m. Speed=15.336000m/h.</desc>
<speed>4.260000</speed>
</trkpt>
<trkpt lat="55.732689" lon="26.174429">
<ele>166.521606</ele>
<time>2010-07-18T06:58:58Z</time>
<desc>lat.=55.732689, lon.=26.174429, Alt.=166.521606m. Speed=16.775999m/h.</desc>
<speed>4.660000</speed>
</trkpt>
<trkpt lat="55.732700" lon="26.174515">
<ele>166.263794</ele>
<time>2010-07-18T06:58:59Z</time>
<desc>lat.=55.732700, lon.=26.174515, Alt.=166.263794m. Speed=16.704000m/h.</desc>
<speed>4.640000</speed>
</trkpt>
<trkpt lat="55.732716" lon="26.174587">
<ele>166.084106</ele>
<time>2010-07-18T06:59:00Z</time>
<desc>lat.=55.732716, lon.=26.174587, Alt.=166.084106m. Speed=16.128000m/h.</desc>
<speed>4.480000</speed>
</trkpt>
<trkpt lat="55.732731" lon="26.174665">
<ele>165.560669</ele>
<time>2010-07-18T06:59:01Z</time>
<desc>lat.=55.732731, lon.=26.174665, Alt.=165.560669m. Speed=15.696000m/h.</desc>
<speed>4.360000</speed>
</trkpt>
<trkpt lat="55.732742" lon="26.174728">
<ele>165.201294</ele>
<time>2010-07-18T06:59:02Z</time>
<desc>lat.=55.732742, lon.=26.174728, Alt.=165.201294m. Speed=15.588000m/h.</desc>
<speed>4.330000</speed>
</trkpt>
<trkpt lat="55.732758" lon="26.174805">
<ele>164.627075</ele>
<time>2010-07-18T06:59:03Z</time>
<desc>lat.=55.732758, lon.=26.174805, Alt.=164.627075m. Speed=16.884001m/h.</desc>
<speed>4.690000</speed>
</trkpt>
<trkpt lat="55.732777" lon="26.174871">
<ele>165.111450</ele>
<time>2010-07-18T06:59:04Z</time>
<desc>lat.=55.732777, lon.=26.174871, Alt.=165.111450m. Speed=18.035999m/h.</desc>
<speed>5.010000</speed>
</trkpt>
<trkpt lat="55.732780" lon="26.174959">
<ele>164.388794</ele>
<time>2010-07-18T06:59:05Z</time>
<desc>lat.=55.732780, lon.=26.174959, Alt.=164.388794m. Speed=17.459999m/h.</desc>
<speed>4.850000</speed>
</trkpt>
<trkpt lat="55.732780" lon="26.175051">
<ele>163.521606</ele>
<time>2010-07-18T06:59:06Z</time>
<desc>lat.=55.732780, lon.=26.175051, Alt.=163.521606m. Speed=17.424000m/h.</desc>
<speed>4.840000</speed>
</trkpt>
<trkpt lat="55.732777" lon="26.175150">
<ele>162.818481</ele>
<time>2010-07-18T06:59:07Z</time>
<desc>lat.=55.732777, lon.=26.175150, Alt.=162.818481m. Speed=16.775999m/h.</desc>
<speed>4.660000</speed>
</trkpt>
<trkpt lat="55.732780" lon="26.175228">
<ele>162.568481</ele>
<time>2010-07-18T06:59:08Z</time>
<desc>lat.=55.732780, lon.=26.175228, Alt.=162.568481m. Speed=17.136000m/h.</desc>
<speed>4.760000</speed>
</trkpt>
<trkpt lat="55.732796" lon="26.175308">
<ele>162.744263</ele>
<time>2010-07-18T06:59:09Z</time>
<desc>lat.=55.732796, lon.=26.175308, Alt.=162.744263m. Speed=18.468000m/h.</desc>
<speed>5.130000</speed>
</trkpt>
<trkpt lat="55.732815" lon="26.175392">
<ele>162.466919</ele>
<time>2010-07-18T06:59:10Z</time>
<desc>lat.=55.732815, lon.=26.175392, Alt.=162.466919m. Speed=18.936001m/h.</desc>
<speed>5.260000</speed>
</trkpt>
<trkpt lat="55.732834" lon="26.175476">
<ele>162.494263</ele>
<time>2010-07-18T06:59:11Z</time>
<desc>lat.=55.732834, lon.=26.175476, Alt.=162.494263m. Speed=19.368000m/h.</desc>
<speed>5.380000</speed>
</trkpt>
<trkpt lat="55.732845" lon="26.175579">
<ele>161.670044</ele>
<time>2010-07-18T06:59:12Z</time>
<desc>lat.=55.732845, lon.=26.175579, Alt.=161.670044m. Speed=18.936001m/h.</desc>
<speed>5.260000</speed>
</trkpt>
<trkpt lat="55.732861" lon="26.175665">
<ele>161.298950</ele>
<time>2010-07-18T06:59:13Z</time>
<desc>lat.=55.732861, lon.=26.175665, Alt.=161.298950m. Speed=18.288000m/h.</desc>
<speed>5.080000</speed>
</trkpt>
<trkpt lat="55.732876" lon="26.175755">
<ele>161.490356</ele>
<time>2010-07-18T06:59:14Z</time>
<desc>lat.=55.732876, lon.=26.175755, Alt.=161.490356m. Speed=16.740000m/h.</desc>
<speed>4.650000</speed>
</trkpt>
<trkpt lat="55.732895" lon="26.175829">
<ele>161.752075</ele>
<time>2010-07-18T06:59:15Z</time>
<desc>lat.=55.732895, lon.=26.175829, Alt.=161.752075m. Speed=16.379999m/h.</desc>
<speed>4.550000</speed>
</trkpt>
<trkpt lat="55.732910" lon="26.175903">
<ele>161.173950</ele>
<time>2010-07-18T06:59:16Z</time>
<desc>lat.=55.732910, lon.=26.175903, Alt.=161.173950m. Speed=16.271999m/h.</desc>
<speed>4.520000</speed>
</trkpt>
<trkpt lat="55.732929" lon="26.175985">
<ele>160.252075</ele>
<time>2010-07-18T06:59:17Z</time>
<desc>lat.=55.732929, lon.=26.175985, Alt.=160.252075m. Speed=17.316000m/h.</desc>
<speed>4.810000</speed>
</trkpt>
<trkpt lat="55.732952" lon="26.176077">
<ele>159.830200</ele>
<time>2010-07-18T06:59:18Z</time>
<desc>lat.=55.732952, lon.=26.176077, Alt.=159.830200m. Speed=19.440001m/h.</desc>
<speed>5.400000</speed>
</trkpt>
<trkpt lat="55.732967" lon="26.176168">
<ele>159.416138</ele>
<time>2010-07-18T06:59:19Z</time>
<desc>lat.=55.732967, lon.=26.176168, Alt.=159.416138m. Speed=19.188000m/h.</desc>
<speed>5.330000</speed>
</trkpt>
<trkpt lat="55.732986" lon="26.176252">
<ele>158.943481</ele>
<time>2010-07-18T06:59:20Z</time>
<desc>lat.=55.732986, lon.=26.176252, Alt.=158.943481m. Speed=19.007999m/h.</desc>
<speed>5.280000</speed>
</trkpt>
<trkpt lat="55.733002" lon="26.176336">
<ele>158.154419</ele>
<time>2010-07-18T06:59:21Z</time>
<desc>lat.=55.733002, lon.=26.176336, Alt.=158.154419m. Speed=19.115999m/h.</desc>
<speed>5.310000</speed>
</trkpt>
<trkpt lat="55.733028" lon="26.176418">
<ele>157.709106</ele>
<time>2010-07-18T06:59:22Z</time>
<desc>lat.=55.733028, lon.=26.176418, Alt.=157.709106m. Speed=19.548000m/h.</desc>
<speed>5.430000</speed>
</trkpt>
<trkpt lat="55.733036" lon="26.176512">
<ele>157.478638</ele>
<time>2010-07-18T06:59:23Z</time>
<desc>lat.=55.733036, lon.=26.176512, Alt.=157.478638m. Speed=20.124001m/h.</desc>
<speed>5.590000</speed>
</trkpt>
<trkpt lat="55.733047" lon="26.176603">
<ele>157.130981</ele>
<time>2010-07-18T06:59:24Z</time>
<desc>lat.=55.733047, lon.=26.176603, Alt.=157.130981m. Speed=20.916000m/h.</desc>
<speed>5.810000</speed>
</trkpt>
<trkpt lat="55.733055" lon="26.176704">
<ele>156.888794</ele>
<time>2010-07-18T06:59:25Z</time>
<desc>lat.=55.733055, lon.=26.176704, Alt.=156.888794m. Speed=21.455999m/h.</desc>
<speed>5.960000</speed>
</trkpt>
<trkpt lat="55.733070" lon="26.176800">
<ele>156.595825</ele>
<time>2010-07-18T06:59:26Z</time>
<desc>lat.=55.733070, lon.=26.176800, Alt.=156.595825m. Speed=23.184000m/h.</desc>
<speed>6.440000</speed>
</trkpt>
<trkpt lat="55.733089" lon="26.176907">
<ele>155.826294</ele>
<time>2010-07-18T06:59:27Z</time>
<desc>lat.=55.733089, lon.=26.176907, Alt.=155.826294m. Speed=23.832001m/h.</desc>
<speed>6.620000</speed>
</trkpt>
<trkpt lat="55.733105" lon="26.177013">
<ele>155.025513</ele>
<time>2010-07-18T06:59:28Z</time>
<desc>lat.=55.733105, lon.=26.177013, Alt.=155.025513m. Speed=24.552000m/h.</desc>
<speed>6.820000</speed>
</trkpt>
<trkpt lat="55.733120" lon="26.177126">
<ele>154.607544</ele>
<time>2010-07-18T06:59:29Z</time>
<desc>lat.=55.733120, lon.=26.177126, Alt.=154.607544m. Speed=25.200001m/h.</desc>
<speed>7.000000</speed>
</trkpt>
<trkpt lat="55.733135" lon="26.177244">
<ele>153.607544</ele>
<time>2010-07-18T06:59:30Z</time>
<desc>lat.=55.733135, lon.=26.177244, Alt.=153.607544m. Speed=26.172001m/h.</desc>
<speed>7.270000</speed>
</trkpt>
<trkpt lat="55.733158" lon="26.177366">
<ele>152.588013</ele>
<time>2010-07-18T06:59:31Z</time>
<desc>lat.=55.733158, lon.=26.177366, Alt.=152.588013m. Speed=27.719999m/h.</desc>
<speed>7.700000</speed>
</trkpt>
<trkpt lat="55.733181" lon="26.177479">
<ele>152.048950</ele>
<time>2010-07-18T06:59:32Z</time>
<desc>lat.=55.733181, lon.=26.177479, Alt.=152.048950m. Speed=27.035999m/h.</desc>
<speed>7.510000</speed>
</trkpt>
<trkpt lat="55.733200" lon="26.177588">
<ele>151.400513</ele>
<time>2010-07-18T06:59:33Z</time>
<desc>lat.=55.733200, lon.=26.177588, Alt.=151.400513m. Speed=26.639999m/h.</desc>
<speed>7.400000</speed>
</trkpt>
<trkpt lat="55.733219" lon="26.177706">
<ele>151.521606</ele>
<time>2010-07-18T06:59:34Z</time>
<desc>lat.=55.733219, lon.=26.177706, Alt.=151.521606m. Speed=27.108000m/h.</desc>
<speed>7.530000</speed>
</trkpt>
<trkpt lat="55.733234" lon="26.177818">
<ele>151.377075</ele>
<time>2010-07-18T06:59:35Z</time>
<desc>lat.=55.733234, lon.=26.177818, Alt.=151.377075m. Speed=26.388000m/h.</desc>
<speed>7.330000</speed>
</trkpt>
<trkpt lat="55.733250" lon="26.177925">
<ele>150.978638</ele>
<time>2010-07-18T06:59:36Z</time>
<desc>lat.=55.733250, lon.=26.177925, Alt.=150.978638m. Speed=25.596001m/h.</desc>
<speed>7.110000</speed>
</trkpt>
<trkpt lat="55.733265" lon="26.178032">
<ele>151.119263</ele>
<time>2010-07-18T06:59:37Z</time>
<desc>lat.=55.733265, lon.=26.178032, Alt.=151.119263m. Speed=25.667999m/h.</desc>
<speed>7.130000</speed>
</trkpt>
<trkpt lat="55.733284" lon="26.178139">
<ele>150.771606</ele>
<time>2010-07-18T06:59:38Z</time>
<desc>lat.=55.733284, lon.=26.178139, Alt.=150.771606m. Speed=25.596001m/h.</desc>
<speed>7.110000</speed>
</trkpt>
<trkpt lat="55.733303" lon="26.178255">
<ele>151.255981</ele>
<time>2010-07-18T06:59:39Z</time>
<desc>lat.=55.733303, lon.=26.178255, Alt.=151.255981m. Speed=25.667999m/h.</desc>
<speed>7.130000</speed>
</trkpt>
<trkpt lat="55.733322" lon="26.178362">
<ele>150.873169</ele>
<time>2010-07-18T06:59:40Z</time>
<desc>lat.=55.733322, lon.=26.178362, Alt.=150.873169m. Speed=25.128000m/h.</desc>
<speed>6.980000</speed>
</trkpt>
<trkpt lat="55.733341" lon="26.178469">
<ele>150.611450</ele>
<time>2010-07-18T06:59:41Z</time>
<desc>lat.=55.733341, lon.=26.178469, Alt.=150.611450m. Speed=24.660000m/h.</desc>
<speed>6.850000</speed>
</trkpt>
<trkpt lat="55.733356" lon="26.178572">
<ele>150.189575</ele>
<time>2010-07-18T06:59:42Z</time>
<desc>lat.=55.733356, lon.=26.178572, Alt.=150.189575m. Speed=23.796000m/h.</desc>
<speed>6.610000</speed>
</trkpt>
<trkpt lat="55.733379" lon="26.178671">
<ele>150.162231</ele>
<time>2010-07-18T06:59:43Z</time>
<desc>lat.=55.733379, lon.=26.178671, Alt.=150.162231m. Speed=22.788000m/h.</desc>
<speed>6.330000</speed>
</trkpt>
<trkpt lat="55.733398" lon="26.178770">
<ele>150.463013</ele>
<time>2010-07-18T06:59:44Z</time>
<desc>lat.=55.733398, lon.=26.178770, Alt.=150.463013m. Speed=21.888000m/h.</desc>
<speed>6.080000</speed>
</trkpt>
<trkpt lat="55.733418" lon="26.178867">
<ele>149.908325</ele>
<time>2010-07-18T06:59:45Z</time>
<desc>lat.=55.733418, lon.=26.178867, Alt.=149.908325m. Speed=22.788000m/h.</desc>
<speed>6.330000</speed>
</trkpt>
<trkpt lat="55.733433" lon="26.178965">
<ele>150.545044</ele>
<time>2010-07-18T06:59:46Z</time>
<desc>lat.=55.733433, lon.=26.178965, Alt.=150.545044m. Speed=22.356001m/h.</desc>
<speed>6.210000</speed>
</trkpt>
<trkpt lat="55.733448" lon="26.179058">
<ele>150.255981</ele>
<time>2010-07-18T06:59:47Z</time>
<desc>lat.=55.733448, lon.=26.179058, Alt.=150.255981m. Speed=22.284000m/h.</desc>
<speed>6.190000</speed>
</trkpt>
<trkpt lat="55.733463" lon="26.179152">
<ele>149.642700</ele>
<time>2010-07-18T06:59:48Z</time>
<desc>lat.=55.733463, lon.=26.179152, Alt.=149.642700m. Speed=22.572001m/h.</desc>
<speed>6.270000</speed>
</trkpt>
<trkpt lat="55.733475" lon="26.179247">
<ele>148.845825</ele>
<time>2010-07-18T06:59:49Z</time>
<desc>lat.=55.733475, lon.=26.179247, Alt.=148.845825m. Speed=22.284000m/h.</desc>
<speed>6.190000</speed>
</trkpt>
<trkpt lat="55.733486" lon="26.179342">
<ele>149.048950</ele>
<time>2010-07-18T06:59:50Z</time>
<desc>lat.=55.733486, lon.=26.179342, Alt.=149.048950m. Speed=22.176001m/h.</desc>
<speed>6.160000</speed>
</trkpt>
<trkpt lat="55.733494" lon="26.179441">
<ele>149.115356</ele>
<time>2010-07-18T06:59:51Z</time>
<desc>lat.=55.733494, lon.=26.179441, Alt.=149.115356m. Speed=22.212000m/h.</desc>
<speed>6.170000</speed>
</trkpt>
<trkpt lat="55.733498" lon="26.179539">
<ele>148.966919</ele>
<time>2010-07-18T06:59:52Z</time>
<desc>lat.=55.733498, lon.=26.179539, Alt.=148.966919m. Speed=21.636000m/h.</desc>
<speed>6.010000</speed>
</trkpt>
<trkpt lat="55.733501" lon="26.179634">
<ele>149.341919</ele>
<time>2010-07-18T06:59:53Z</time>
<desc>lat.=55.733501, lon.=26.179634, Alt.=149.341919m. Speed=22.392000m/h.</desc>
<speed>6.220000</speed>
</trkpt>
<trkpt lat="55.733509" lon="26.179729">
<ele>149.232544</ele>
<time>2010-07-18T06:59:54Z</time>
<desc>lat.=55.733509, lon.=26.179729, Alt.=149.232544m. Speed=21.780001m/h.</desc>
<speed>6.050000</speed>
</trkpt>
<trkpt lat="55.733513" lon="26.179821">
<ele>149.197388</ele>
<time>2010-07-18T06:59:55Z</time>
<desc>lat.=55.733513, lon.=26.179821, Alt.=149.197388m. Speed=21.708000m/h.</desc>
<speed>6.030000</speed>
</trkpt>
<trkpt lat="55.733505" lon="26.179913">
<ele>149.588013</ele>
<time>2010-07-18T06:59:56Z</time>
<desc>lat.=55.733505, lon.=26.179913, Alt.=149.588013m. Speed=20.483999m/h.</desc>
<speed>5.690000</speed>
</trkpt>
<trkpt lat="55.733513" lon="26.180002">
<ele>149.798950</ele>
<time>2010-07-18T06:59:57Z</time>
<desc>lat.=55.733513, lon.=26.180002, Alt.=149.798950m. Speed=20.232000m/h.</desc>
<speed>5.620000</speed>
</trkpt>
<trkpt lat="55.733513" lon="26.180092">
<ele>150.513794</ele>
<time>2010-07-18T06:59:58Z</time>
<desc>lat.=55.733513, lon.=26.180092, Alt.=150.513794m. Speed=19.152000m/h.</desc>
<speed>5.320000</speed>
</trkpt>
<trkpt lat="55.733517" lon="26.180178">
<ele>150.209106</ele>
<time>2010-07-18T06:59:59Z</time>
<desc>lat.=55.733517, lon.=26.180178, Alt.=150.209106m. Speed=19.368000m/h.</desc>
<speed>5.380000</speed>
</trkpt>
<trkpt lat="55.733521" lon="26.180260">
<ele>150.283325</ele>
<time>2010-07-18T07:00:00Z</time>
<desc>lat.=55.733521, lon.=26.180260, Alt.=150.283325m. Speed=19.224001m/h.</desc>
<speed>5.340000</speed>
</trkpt>
<trkpt lat="55.733521" lon="26.180346">
<ele>150.232544</ele>
<time>2010-07-18T07:00:01Z</time>
<desc>lat.=55.733521, lon.=26.180346, Alt.=150.232544m. Speed=19.980000m/h.</desc>
<speed>5.550000</speed>
</trkpt>
<trkpt lat="55.733524" lon="26.180428">
<ele>150.384888</ele>
<time>2010-07-18T07:00:02Z</time>
<desc>lat.=55.733524, lon.=26.180428, Alt.=150.384888m. Speed=19.728001m/h.</desc>
<speed>5.480000</speed>
</trkpt>
<trkpt lat="55.733521" lon="26.180515">
<ele>149.841919</ele>
<time>2010-07-18T07:00:03Z</time>
<desc>lat.=55.733521, lon.=26.180515, Alt.=149.841919m. Speed=20.591999m/h.</desc>
<speed>5.720000</speed>
</trkpt>
<trkpt lat="55.733524" lon="26.180607">
<ele>149.845825</ele>
<time>2010-07-18T07:00:04Z</time>
<desc>lat.=55.733524, lon.=26.180607, Alt.=149.845825m. Speed=20.736000m/h.</desc>
<speed>5.760000</speed>
</trkpt>
<trkpt lat="55.733528" lon="26.180700">
<ele>149.673950</ele>
<time>2010-07-18T07:00:05Z</time>
<desc>lat.=55.733528, lon.=26.180700, Alt.=149.673950m. Speed=21.204000m/h.</desc>
<speed>5.890000</speed>
</trkpt>
<trkpt lat="55.733532" lon="26.180801">
<ele>149.861450</ele>
<time>2010-07-18T07:00:06Z</time>
<desc>lat.=55.733532, lon.=26.180801, Alt.=149.861450m. Speed=21.959999m/h.</desc>
<speed>6.100000</speed>
</trkpt>
<trkpt lat="55.733528" lon="26.180902">
<ele>150.263794</ele>
<time>2010-07-18T07:00:07Z</time>
<desc>lat.=55.733528, lon.=26.180902, Alt.=150.263794m. Speed=22.247999m/h.</desc>
<speed>6.180000</speed>
</trkpt>
<trkpt lat="55.733524" lon="26.181004">
<ele>150.463013</ele>
<time>2010-07-18T07:00:08Z</time>
<desc>lat.=55.733524, lon.=26.181004, Alt.=150.463013m. Speed=22.104000m/h.</desc>
<speed>6.140000</speed>
</trkpt>
<trkpt lat="55.733524" lon="26.181103">
<ele>150.509888</ele>
<time>2010-07-18T07:00:09Z</time>
<desc>lat.=55.733524, lon.=26.181103, Alt.=150.509888m. Speed=21.636000m/h.</desc>
<speed>6.010000</speed>
</trkpt>
<trkpt lat="55.733524" lon="26.181200">
<ele>150.595825</ele>
<time>2010-07-18T07:00:10Z</time>
<desc>lat.=55.733524, lon.=26.181200, Alt.=150.595825m. Speed=21.384001m/h.</desc>
<speed>5.940000</speed>
</trkpt>
<trkpt lat="55.733524" lon="26.181295">
<ele>150.474731</ele>
<time>2010-07-18T07:00:11Z</time>
<desc>lat.=55.733524, lon.=26.181295, Alt.=150.474731m. Speed=21.275999m/h.</desc>
<speed>5.910000</speed>
</trkpt>
<trkpt lat="55.733521" lon="26.181391">
<ele>150.166138</ele>
<time>2010-07-18T07:00:12Z</time>
<desc>lat.=55.733521, lon.=26.181391, Alt.=150.166138m. Speed=20.700001m/h.</desc>
<speed>5.750000</speed>
</trkpt>
<trkpt lat="55.733524" lon="26.181484">
<ele>149.912231</ele>
<time>2010-07-18T07:00:13Z</time>
<desc>lat.=55.733524, lon.=26.181484, Alt.=149.912231m. Speed=20.591999m/h.</desc>
<speed>5.720000</speed>
</trkpt>
<trkpt lat="55.733521" lon="26.181576">
<ele>149.955200</ele>
<time>2010-07-18T07:00:14Z</time>
<desc>lat.=55.733521, lon.=26.181576, Alt.=149.955200m. Speed=19.368000m/h.</desc>
<speed>5.380000</speed>
</trkpt>
<trkpt lat="55.733517" lon="26.181664">
<ele>150.009888</ele>
<time>2010-07-18T07:00:15Z</time>
<desc>lat.=55.733517, lon.=26.181664, Alt.=150.009888m. Speed=19.440001m/h.</desc>
<speed>5.400000</speed>
</trkpt>
<trkpt lat="55.733517" lon="26.181749">
<ele>150.033325</ele>
<time>2010-07-18T07:00:16Z</time>
<desc>lat.=55.733517, lon.=26.181749, Alt.=150.033325m. Speed=18.684000m/h.</desc>
<speed>5.190000</speed>
</trkpt>
<trkpt lat="55.733505" lon="26.181833">
<ele>149.341919</ele>
<time>2010-07-18T07:00:17Z</time>
<desc>lat.=55.733505, lon.=26.181833, Alt.=149.341919m. Speed=18.612000m/h.</desc>
<speed>5.170000</speed>
</trkpt>
<trkpt lat="55.733494" lon="26.181915">
<ele>149.150513</ele>
<time>2010-07-18T07:00:18Z</time>
<desc>lat.=55.733494, lon.=26.181915, Alt.=149.150513m. Speed=18.468000m/h.</desc>
<speed>5.130000</speed>
</trkpt>
<trkpt lat="55.733494" lon="26.182003">
<ele>149.146606</ele>
<time>2010-07-18T07:00:19Z</time>
<desc>lat.=55.733494, lon.=26.182003, Alt.=149.146606m. Speed=19.332001m/h.</desc>
<speed>5.370000</speed>
</trkpt>
<trkpt lat="55.733490" lon="26.182093">
<ele>148.588013</ele>
<time>2010-07-18T07:00:20Z</time>
<desc>lat.=55.733490, lon.=26.182093, Alt.=148.588013m. Speed=19.656000m/h.</desc>
<speed>5.460000</speed>
</trkpt>
<trkpt lat="55.733482" lon="26.182188">
<ele>148.255981</ele>
<time>2010-07-18T07:00:21Z</time>
<desc>lat.=55.733482, lon.=26.182188, Alt.=148.255981m. Speed=20.124001m/h.</desc>
<speed>5.590000</speed>
</trkpt>
<trkpt lat="55.733482" lon="26.182285">
<ele>148.154419</ele>
<time>2010-07-18T07:00:22Z</time>
<desc>lat.=55.733482, lon.=26.182285, Alt.=148.154419m. Speed=20.736000m/h.</desc>
<speed>5.760000</speed>
</trkpt>
<trkpt lat="55.733479" lon="26.182379">
<ele>147.908325</ele>
<time>2010-07-18T07:00:23Z</time>
<desc>lat.=55.733479, lon.=26.182379, Alt.=147.908325m. Speed=19.691999m/h.</desc>
<speed>5.470000</speed>
</trkpt>
<trkpt lat="55.733475" lon="26.182461">
<ele>147.830200</ele>
<time>2010-07-18T07:00:24Z</time>
<desc>lat.=55.733475, lon.=26.182461, Alt.=147.830200m. Speed=17.604000m/h.</desc>
<speed>4.890000</speed>
</trkpt>
<trkpt lat="55.733467" lon="26.182535">
<ele>147.654419</ele>
<time>2010-07-18T07:00:25Z</time>
<desc>lat.=55.733467, lon.=26.182535, Alt.=147.654419m. Speed=17.136000m/h.</desc>
<speed>4.760000</speed>
</trkpt>
<trkpt lat="55.733463" lon="26.182608">
<ele>147.408325</ele>
<time>2010-07-18T07:00:26Z</time>
<desc>lat.=55.733463, lon.=26.182608, Alt.=147.408325m. Speed=16.524000m/h.</desc>
<speed>4.590000</speed>
</trkpt>
<trkpt lat="55.733459" lon="26.182684">
<ele>147.170044</ele>
<time>2010-07-18T07:00:27Z</time>
<desc>lat.=55.733459, lon.=26.182684, Alt.=147.170044m. Speed=16.271999m/h.</desc>
<speed>4.520000</speed>
</trkpt>
<trkpt lat="55.733456" lon="26.182755">
<ele>147.072388</ele>
<time>2010-07-18T07:00:28Z</time>
<desc>lat.=55.733456, lon.=26.182755, Alt.=147.072388m. Speed=15.516000m/h.</desc>
<speed>4.310000</speed>
</trkpt>
<trkpt lat="55.733452" lon="26.182825">
<ele>146.697388</ele>
<time>2010-07-18T07:00:29Z</time>
<desc>lat.=55.733452, lon.=26.182825, Alt.=146.697388m. Speed=15.084000m/h.</desc>
<speed>4.190000</speed>
</trkpt>
<trkpt lat="55.733444" lon="26.182899">
<ele>146.423950</ele>
<time>2010-07-18T07:00:30Z</time>
<desc>lat.=55.733444, lon.=26.182899, Alt.=146.423950m. Speed=17.604000m/h.</desc>
<speed>4.890000</speed>
</trkpt>
<trkpt lat="55.733440" lon="26.182980">
<ele>146.197388</ele>
<time>2010-07-18T07:00:31Z</time>
<desc>lat.=55.733440, lon.=26.182980, Alt.=146.197388m. Speed=17.964001m/h.</desc>
<speed>4.990000</speed>
</trkpt>
<trkpt lat="55.733433" lon="26.183062">
<ele>145.935669</ele>
<time>2010-07-18T07:00:32Z</time>
<desc>lat.=55.733433, lon.=26.183062, Alt.=145.935669m. Speed=19.691999m/h.</desc>
<speed>5.470000</speed>
</trkpt>
<trkpt lat="55.733425" lon="26.183149">
<ele>145.283325</ele>
<time>2010-07-18T07:00:33Z</time>
<desc>lat.=55.733425, lon.=26.183149, Alt.=145.283325m. Speed=18.827999m/h.</desc>
<speed>5.230000</speed>
</trkpt>
<trkpt lat="55.733414" lon="26.183245">
<ele>144.759888</ele>
<time>2010-07-18T07:00:34Z</time>
<desc>lat.=55.733414, lon.=26.183245, Alt.=144.759888m. Speed=20.412001m/h.</desc>
<speed>5.670000</speed>
</trkpt>
<trkpt lat="55.733421" lon="26.183338">
<ele>144.545044</ele>
<time>2010-07-18T07:00:35Z</time>
<desc>lat.=55.733421, lon.=26.183338, Alt.=144.545044m. Speed=19.296000m/h.</desc>
<speed>5.360000</speed>
</trkpt>
<trkpt lat="55.733421" lon="26.183432">
<ele>144.447388</ele>
<time>2010-07-18T07:00:36Z</time>
<desc>lat.=55.733421, lon.=26.183432, Alt.=144.447388m. Speed=20.160000m/h.</desc>
<speed>5.600000</speed>
</trkpt>
<trkpt lat="55.733433" lon="26.183550">
<ele>145.619263</ele>
<time>2010-07-18T07:00:37Z</time>
<desc>lat.=55.733433, lon.=26.183550, Alt.=145.619263m. Speed=22.896000m/h.</desc>
<speed>6.360000</speed>
</trkpt>
<trkpt lat="55.733440" lon="26.183666">
<ele>145.787231</ele>
<time>2010-07-18T07:00:38Z</time>
<desc>lat.=55.733440, lon.=26.183666, Alt.=145.787231m. Speed=24.191999m/h.</desc>
<speed>6.720000</speed>
</trkpt>
<trkpt lat="55.733433" lon="26.183786">
<ele>144.716919</ele>
<time>2010-07-18T07:00:39Z</time>
<desc>lat.=55.733433, lon.=26.183786, Alt.=144.716919m. Speed=25.559999m/h.</desc>
<speed>7.100000</speed>
</trkpt>
<trkpt lat="55.733429" lon="26.183899">
<ele>143.201294</ele>
<time>2010-07-18T07:00:40Z</time>
<desc>lat.=55.733429, lon.=26.183899, Alt.=143.201294m. Speed=25.667999m/h.</desc>
<speed>7.130000</speed>
</trkpt>
<trkpt lat="55.733433" lon="26.184013">
<ele>142.013794</ele>
<time>2010-07-18T07:00:41Z</time>
<desc>lat.=55.733433, lon.=26.184013, Alt.=142.013794m. Speed=25.379999m/h.</desc>
<speed>7.050000</speed>
</trkpt>
<trkpt lat="55.733429" lon="26.184124">
<ele>140.330200</ele>
<time>2010-07-18T07:00:42Z</time>
<desc>lat.=55.733429, lon.=26.184124, Alt.=140.330200m. Speed=24.408001m/h.</desc>
<speed>6.780000</speed>
</trkpt>
<trkpt lat="55.733437" lon="26.184229">
<ele>140.884888</ele>
<time>2010-07-18T07:00:43Z</time>
<desc>lat.=55.733437, lon.=26.184229, Alt.=140.884888m. Speed=23.544001m/h.</desc>
<speed>6.540000</speed>
</trkpt>
<trkpt lat="55.733437" lon="26.184338">
<ele>140.935669</ele>
<time>2010-07-18T07:00:44Z</time>
<desc>lat.=55.733437, lon.=26.184338, Alt.=140.935669m. Speed=23.219999m/h.</desc>
<speed>6.450000</speed>
</trkpt>
<trkpt lat="55.733444" lon="26.184439">
<ele>140.689575</ele>
<time>2010-07-18T07:00:45Z</time>
<desc>lat.=55.733444, lon.=26.184439, Alt.=140.689575m. Speed=21.924000m/h.</desc>
<speed>6.090000</speed>
</trkpt>
<trkpt lat="55.733448" lon="26.184538">
<ele>140.306763</ele>
<time>2010-07-18T07:00:46Z</time>
<desc>lat.=55.733448, lon.=26.184538, Alt.=140.306763m. Speed=19.872000m/h.</desc>
<speed>5.520000</speed>
</trkpt>
<trkpt lat="55.733456" lon="26.184624">
<ele>140.248169</ele>
<time>2010-07-18T07:00:47Z</time>
<desc>lat.=55.733456, lon.=26.184624, Alt.=140.248169m. Speed=19.799999m/h.</desc>
<speed>5.500000</speed>
</trkpt>
<trkpt lat="55.733467" lon="26.184723">
<ele>140.408325</ele>
<time>2010-07-18T07:00:48Z</time>
<desc>lat.=55.733467, lon.=26.184723, Alt.=140.408325m. Speed=19.188000m/h.</desc>
<speed>5.330000</speed>
</trkpt>
<trkpt lat="55.733482" lon="26.184830">
<ele>141.369263</ele>
<time>2010-07-18T07:00:49Z</time>
<desc>lat.=55.733482, lon.=26.184830, Alt.=141.369263m. Speed=18.612000m/h.</desc>
<speed>5.170000</speed>
</trkpt>
<trkpt lat="55.733501" lon="26.184917">
<ele>142.595825</ele>
<time>2010-07-18T07:00:50Z</time>
<desc>lat.=55.733501, lon.=26.184917, Alt.=142.595825m. Speed=17.208000m/h.</desc>
<speed>4.780000</speed>
</trkpt>
<trkpt lat="55.733505" lon="26.184998">
<ele>143.146606</ele>
<time>2010-07-18T07:00:51Z</time>
<desc>lat.=55.733505, lon.=26.184998, Alt.=143.146606m. Speed=16.884001m/h.</desc>
<speed>4.690000</speed>
</trkpt>
<trkpt lat="55.733509" lon="26.185081">
<ele>143.603638</ele>
<time>2010-07-18T07:00:52Z</time>
<desc>lat.=55.733509, lon.=26.185081, Alt.=143.603638m. Speed=17.100000m/h.</desc>
<speed>4.750000</speed>
</trkpt>
<trkpt lat="55.733517" lon="26.185162">
<ele>144.025513</ele>
<time>2010-07-18T07:00:53Z</time>
<desc>lat.=55.733517, lon.=26.185162, Alt.=144.025513m. Speed=16.524000m/h.</desc>
<speed>4.590000</speed>
</trkpt>
<trkpt lat="55.733517" lon="26.185240">
<ele>144.095825</ele>
<time>2010-07-18T07:00:54Z</time>
<desc>lat.=55.733517, lon.=26.185240, Alt.=144.095825m. Speed=15.840000m/h.</desc>
<speed>4.400000</speed>
</trkpt>
<trkpt lat="55.733532" lon="26.185320">
<ele>145.259888</ele>
<time>2010-07-18T07:00:55Z</time>
<desc>lat.=55.733532, lon.=26.185320, Alt.=145.259888m. Speed=15.912000m/h.</desc>
<speed>4.420000</speed>
</trkpt>
<trkpt lat="55.733555" lon="26.185408">
<ele>147.537231</ele>
<time>2010-07-18T07:00:56Z</time>
<desc>lat.=55.733555, lon.=26.185408, Alt.=147.537231m. Speed=14.904000m/h.</desc>
<speed>4.140000</speed>
</trkpt>
<trkpt lat="55.733566" lon="26.185472">
<ele>147.642700</ele>
<time>2010-07-18T07:00:57Z</time>
<desc>lat.=55.733566, lon.=26.185472, Alt.=147.642700m. Speed=14.832000m/h.</desc>
<speed>4.120000</speed>
</trkpt>
<trkpt lat="55.733570" lon="26.185541">
<ele>147.923950</ele>
<time>2010-07-18T07:00:58Z</time>
<desc>lat.=55.733570, lon.=26.185541, Alt.=147.923950m. Speed=16.308001m/h.</desc>
<speed>4.530000</speed>
</trkpt>
<trkpt lat="55.733578" lon="26.185627">
<ele>147.677856</ele>
<time>2010-07-18T07:00:59Z</time>
<desc>lat.=55.733578, lon.=26.185627, Alt.=147.677856m. Speed=14.796000m/h.</desc>
<speed>4.110000</speed>
</trkpt>
<trkpt lat="55.733589" lon="26.185696">
<ele>147.509888</ele>
<time>2010-07-18T07:01:00Z</time>
<desc>lat.=55.733589, lon.=26.185696, Alt.=147.509888m. Speed=14.760000m/h.</desc>
<speed>4.100000</speed>
</trkpt>
<trkpt lat="55.733608" lon="26.185762">
<ele>147.755981</ele>
<time>2010-07-18T07:01:01Z</time>
<desc>lat.=55.733608, lon.=26.185762, Alt.=147.755981m. Speed=15.948000m/h.</desc>
<speed>4.430000</speed>
</trkpt>
<trkpt lat="55.733624" lon="26.185833">
<ele>147.638794</ele>
<time>2010-07-18T07:01:02Z</time>
<desc>lat.=55.733624, lon.=26.185833, Alt.=147.638794m. Speed=15.408000m/h.</desc>
<speed>4.280000</speed>
</trkpt>
<trkpt lat="55.733631" lon="26.185900">
<ele>147.900513</ele>
<time>2010-07-18T07:01:03Z</time>
<desc>lat.=55.733631, lon.=26.185900, Alt.=147.900513m. Speed=15.804000m/h.</desc>
<speed>4.390000</speed>
</trkpt>
<trkpt lat="55.733650" lon="26.185965">
<ele>148.451294</ele>
<time>2010-07-18T07:01:04Z</time>
<desc>lat.=55.733650, lon.=26.185965, Alt.=148.451294m. Speed=15.876000m/h.</desc>
<speed>4.410000</speed>
</trkpt>
<trkpt lat="55.733665" lon="26.186020">
<ele>149.255981</ele>
<time>2010-07-18T07:01:05Z</time>
<desc>lat.=55.733665, lon.=26.186020, Alt.=149.255981m. Speed=15.228000m/h.</desc>
<speed>4.230000</speed>
</trkpt>
<trkpt lat="55.733685" lon="26.186085">
<ele>149.849731</ele>
<time>2010-07-18T07:01:06Z</time>
<desc>lat.=55.733685, lon.=26.186085, Alt.=149.849731m. Speed=17.028000m/h.</desc>
<speed>4.730000</speed>
</trkpt>
<trkpt lat="55.733704" lon="26.186153">
<ele>149.912231</ele>
<time>2010-07-18T07:01:07Z</time>
<desc>lat.=55.733704, lon.=26.186153, Alt.=149.912231m. Speed=17.280001m/h.</desc>
<speed>4.800000</speed>
</trkpt>
<trkpt lat="55.733727" lon="26.186228">
<ele>149.720825</ele>
<time>2010-07-18T07:01:08Z</time>
<desc>lat.=55.733727, lon.=26.186228, Alt.=149.720825m. Speed=18.936001m/h.</desc>
<speed>5.260000</speed>
</trkpt>
<trkpt lat="55.733746" lon="26.186302">
<ele>150.259888</ele>
<time>2010-07-18T07:01:09Z</time>
<desc>lat.=55.733746, lon.=26.186302, Alt.=150.259888m. Speed=18.504000m/h.</desc>
<speed>5.140000</speed>
</trkpt>
<trkpt lat="55.733761" lon="26.186378">
<ele>150.880981</ele>
<time>2010-07-18T07:01:10Z</time>
<desc>lat.=55.733761, lon.=26.186378, Alt.=150.880981m. Speed=18.360001m/h.</desc>
<speed>5.100000</speed>
</trkpt>
<trkpt lat="55.733780" lon="26.186451">
<ele>151.537231</ele>
<time>2010-07-18T07:01:11Z</time>
<desc>lat.=55.733780, lon.=26.186451, Alt.=151.537231m. Speed=18.252001m/h.</desc>
<speed>5.070000</speed>
</trkpt>
<trkpt lat="55.733803" lon="26.186525">
<ele>152.224731</ele>
<time>2010-07-18T07:01:12Z</time>
<desc>lat.=55.733803, lon.=26.186525, Alt.=152.224731m. Speed=18.288000m/h.</desc>
<speed>5.080000</speed>
</trkpt>
<trkpt lat="55.733822" lon="26.186592">
<ele>151.220825</ele>
<time>2010-07-18T07:01:13Z</time>
<desc>lat.=55.733822, lon.=26.186592, Alt.=151.220825m. Speed=17.136000m/h.</desc>
<speed>4.760000</speed>
</trkpt>
<trkpt lat="55.733841" lon="26.186657">
<ele>150.505981</ele>
<time>2010-07-18T07:01:14Z</time>
<desc>lat.=55.733841, lon.=26.186657, Alt.=150.505981m. Speed=16.488001m/h.</desc>
<speed>4.580000</speed>
</trkpt>
<trkpt lat="55.733860" lon="26.186726">
<ele>150.119263</ele>
<time>2010-07-18T07:01:15Z</time>
<desc>lat.=55.733860, lon.=26.186726, Alt.=150.119263m. Speed=17.208000m/h.</desc>
<speed>4.780000</speed>
</trkpt>
<trkpt lat="55.733879" lon="26.186794">
<ele>149.709106</ele>
<time>2010-07-18T07:01:16Z</time>
<desc>lat.=55.733879, lon.=26.186794, Alt.=149.709106m. Speed=16.920000m/h.</desc>
<speed>4.700000</speed>
</trkpt>
<trkpt lat="55.733902" lon="26.186863">
<ele>149.322388</ele>
<time>2010-07-18T07:01:17Z</time>
<desc>lat.=55.733902, lon.=26.186863, Alt.=149.322388m. Speed=17.496000m/h.</desc>
<speed>4.860000</speed>
</trkpt>
<trkpt lat="55.733921" lon="26.186935">
<ele>149.213013</ele>
<time>2010-07-18T07:01:18Z</time>
<desc>lat.=55.733921, lon.=26.186935, Alt.=149.213013m. Speed=17.927999m/h.</desc>
<speed>4.980000</speed>
</trkpt>
<trkpt lat="55.733940" lon="26.187006">
<ele>149.025513</ele>
<time>2010-07-18T07:01:19Z</time>
<desc>lat.=55.733940, lon.=26.187006, Alt.=149.025513m. Speed=18.396000m/h.</desc>
<speed>5.110000</speed>
</trkpt>
<trkpt lat="55.733967" lon="26.187067">
<ele>147.439575</ele>
<time>2010-07-18T07:01:20Z</time>
<desc>lat.=55.733967, lon.=26.187067, Alt.=147.439575m. Speed=18.216000m/h.</desc>
<speed>5.060000</speed>
</trkpt>
<trkpt lat="55.733994" lon="26.187132">
<ele>146.002075</ele>
<time>2010-07-18T07:01:21Z</time>
<desc>lat.=55.733994, lon.=26.187132, Alt.=146.002075m. Speed=17.424000m/h.</desc>
<speed>4.840000</speed>
</trkpt>
<trkpt lat="55.734013" lon="26.187202">
<ele>145.380981</ele>
<time>2010-07-18T07:01:22Z</time>
<desc>lat.=55.734013, lon.=26.187202, Alt.=145.380981m. Speed=17.243999m/h.</desc>
<speed>4.790000</speed>
</trkpt>
<trkpt lat="55.734032" lon="26.187273">
<ele>145.838013</ele>
<time>2010-07-18T07:01:23Z</time>
<desc>lat.=55.734032, lon.=26.187273, Alt.=145.838013m. Speed=17.856001m/h.</desc>
<speed>4.960000</speed>
</trkpt>
<trkpt lat="55.734055" lon="26.187344">
<ele>146.080200</ele>
<time>2010-07-18T07:01:24Z</time>
<desc>lat.=55.734055, lon.=26.187344, Alt.=146.080200m. Speed=18.180000m/h.</desc>
<speed>5.050000</speed>
</trkpt>
<trkpt lat="55.734070" lon="26.187416">
<ele>145.990356</ele>
<time>2010-07-18T07:01:25Z</time>
<desc>lat.=55.734070, lon.=26.187416, Alt.=145.990356m. Speed=17.747999m/h.</desc>
<speed>4.930000</speed>
</trkpt>
<trkpt lat="55.734089" lon="26.187487">
<ele>145.076294</ele>
<time>2010-07-18T07:01:26Z</time>
<desc>lat.=55.734089, lon.=26.187487, Alt.=145.076294m. Speed=17.568001m/h.</desc>
<speed>4.880000</speed>
</trkpt>
<trkpt lat="55.734104" lon="26.187559">
<ele>145.295044</ele>
<time>2010-07-18T07:01:27Z</time>
<desc>lat.=55.734104, lon.=26.187559, Alt.=145.295044m. Speed=18.360001m/h.</desc>
<speed>5.100000</speed>
</trkpt>
<trkpt lat="55.734127" lon="26.187628">
<ele>145.216919</ele>
<time>2010-07-18T07:01:28Z</time>
<desc>lat.=55.734127, lon.=26.187628, Alt.=145.216919m. Speed=18.252001m/h.</desc>
<speed>5.070000</speed>
</trkpt>
<trkpt lat="55.734146" lon="26.187698">
<ele>145.060669</ele>
<time>2010-07-18T07:01:29Z</time>
<desc>lat.=55.734146, lon.=26.187698, Alt.=145.060669m. Speed=18.108000m/h.</desc>
<speed>5.030000</speed>
</trkpt>
<trkpt lat="55.734169" lon="26.187767">
<ele>145.127075</ele>
<time>2010-07-18T07:01:30Z</time>
<desc>lat.=55.734169, lon.=26.187767, Alt.=145.127075m. Speed=18.072001m/h.</desc>
<speed>5.020000</speed>
</trkpt>
<trkpt lat="55.734188" lon="26.187836">
<ele>145.166138</ele>
<time>2010-07-18T07:01:31Z</time>
<desc>lat.=55.734188, lon.=26.187836, Alt.=145.166138m. Speed=17.784000m/h.</desc>
<speed>4.940000</speed>
</trkpt>
<trkpt lat="55.734207" lon="26.187904">
<ele>144.888794</ele>
<time>2010-07-18T07:01:32Z</time>
<desc>lat.=55.734207, lon.=26.187904, Alt.=144.888794m. Speed=17.964001m/h.</desc>
<speed>4.990000</speed>
</trkpt>
<trkpt lat="55.734230" lon="26.187973">
<ele>144.630981</ele>
<time>2010-07-18T07:01:33Z</time>
<desc>lat.=55.734230, lon.=26.187973, Alt.=144.630981m. Speed=18.035999m/h.</desc>
<speed>5.010000</speed>
</trkpt>
<trkpt lat="55.734249" lon="26.188044">
<ele>144.361450</ele>
<time>2010-07-18T07:01:34Z</time>
<desc>lat.=55.734249, lon.=26.188044, Alt.=144.361450m. Speed=18.180000m/h.</desc>
<speed>5.050000</speed>
</trkpt>
<trkpt lat="55.734268" lon="26.188116">
<ele>143.896606</ele>
<time>2010-07-18T07:01:35Z</time>
<desc>lat.=55.734268, lon.=26.188116, Alt.=143.896606m. Speed=18.323999m/h.</desc>
<speed>5.090000</speed>
</trkpt>
<trkpt lat="55.734287" lon="26.188192">
<ele>143.404419</ele>
<time>2010-07-18T07:01:36Z</time>
<desc>lat.=55.734287, lon.=26.188192, Alt.=143.404419m. Speed=18.143999m/h.</desc>
<speed>5.040000</speed>
</trkpt>
<trkpt lat="55.734306" lon="26.188267">
<ele>143.412231</ele>
<time>2010-07-18T07:01:37Z</time>
<desc>lat.=55.734306, lon.=26.188267, Alt.=143.412231m. Speed=18.431999m/h.</desc>
<speed>5.120000</speed>
</trkpt>
<trkpt lat="55.734322" lon="26.188343">
<ele>142.904419</ele>
<time>2010-07-18T07:01:38Z</time>
<desc>lat.=55.734322, lon.=26.188343, Alt.=142.904419m. Speed=18.396000m/h.</desc>
<speed>5.110000</speed>
</trkpt>
<trkpt lat="55.734341" lon="26.188419">
<ele>143.033325</ele>
<time>2010-07-18T07:01:39Z</time>
<desc>lat.=55.734341, lon.=26.188419, Alt.=143.033325m. Speed=18.035999m/h.</desc>
<speed>5.010000</speed>
</trkpt>
<trkpt lat="55.734360" lon="26.188490">
<ele>142.744263</ele>
<time>2010-07-18T07:01:40Z</time>
<desc>lat.=55.734360, lon.=26.188490, Alt.=142.744263m. Speed=17.747999m/h.</desc>
<speed>4.930000</speed>
</trkpt>
<trkpt lat="55.734379" lon="26.188578">
<ele>144.521606</ele>
<time>2010-07-18T07:01:41Z</time>
<desc>lat.=55.734379, lon.=26.188578, Alt.=144.521606m. Speed=18.252001m/h.</desc>
<speed>5.070000</speed>
</trkpt>
<trkpt lat="55.734398" lon="26.188662">
<ele>146.201294</ele>
<time>2010-07-18T07:01:42Z</time>
<desc>lat.=55.734398, lon.=26.188662, Alt.=146.201294m. Speed=18.936001m/h.</desc>
<speed>5.260000</speed>
</trkpt>
<trkpt lat="55.734413" lon="26.188738">
<ele>146.900513</ele>
<time>2010-07-18T07:01:43Z</time>
<desc>lat.=55.734413, lon.=26.188738, Alt.=146.900513m. Speed=18.035999m/h.</desc>
<speed>5.010000</speed>
</trkpt>
<trkpt lat="55.734425" lon="26.188812">
<ele>146.681763</ele>
<time>2010-07-18T07:01:44Z</time>
<desc>lat.=55.734425, lon.=26.188812, Alt.=146.681763m. Speed=17.820000m/h.</desc>
<speed>4.950000</speed>
</trkpt>
<trkpt lat="55.734440" lon="26.188890">
<ele>146.990356</ele>
<time>2010-07-18T07:01:45Z</time>
<desc>lat.=55.734440, lon.=26.188890, Alt.=146.990356m. Speed=17.496000m/h.</desc>
<speed>4.860000</speed>
</trkpt>
<trkpt lat="55.734451" lon="26.188959">
<ele>147.255981</ele>
<time>2010-07-18T07:01:46Z</time>
<desc>lat.=55.734451, lon.=26.188959, Alt.=147.255981m. Speed=17.208000m/h.</desc>
<speed>4.780000</speed>
</trkpt>
<trkpt lat="55.734467" lon="26.189032">
<ele>147.427856</ele>
<time>2010-07-18T07:01:47Z</time>
<desc>lat.=55.734467, lon.=26.189032, Alt.=147.427856m. Speed=17.028000m/h.</desc>
<speed>4.730000</speed>
</trkpt>
<trkpt lat="55.734478" lon="26.189114">
<ele>147.916138</ele>
<time>2010-07-18T07:01:48Z</time>
<desc>lat.=55.734478, lon.=26.189114, Alt.=147.916138m. Speed=17.208000m/h.</desc>
<speed>4.780000</speed>
</trkpt>
<trkpt lat="55.734493" lon="26.189190">
<ele>147.552856</ele>
<time>2010-07-18T07:01:49Z</time>
<desc>lat.=55.734493, lon.=26.189190, Alt.=147.552856m. Speed=17.568001m/h.</desc>
<speed>4.880000</speed>
</trkpt>
<trkpt lat="55.734512" lon="26.189266">
<ele>147.295044</ele>
<time>2010-07-18T07:01:50Z</time>
<desc>lat.=55.734512, lon.=26.189266, Alt.=147.295044m. Speed=18.288000m/h.</desc>
<speed>5.080000</speed>
</trkpt>
<trkpt lat="55.734535" lon="26.189350">
<ele>149.095825</ele>
<time>2010-07-18T07:01:51Z</time>
<desc>lat.=55.734535, lon.=26.189350, Alt.=149.095825m. Speed=18.396000m/h.</desc>
<speed>5.110000</speed>
</trkpt>
<trkpt lat="55.734558" lon="26.189432">
<ele>150.986450</ele>
<time>2010-07-18T07:01:52Z</time>
<desc>lat.=55.734558, lon.=26.189432, Alt.=150.986450m. Speed=18.252001m/h.</desc>
<speed>5.070000</speed>
</trkpt>
<trkpt lat="55.734577" lon="26.189501">
<ele>151.119263</ele>
<time>2010-07-18T07:01:53Z</time>
<desc>lat.=55.734577, lon.=26.189501, Alt.=151.119263m. Speed=18.216000m/h.</desc>
<speed>5.060000</speed>
</trkpt>
<trkpt lat="55.734592" lon="26.189569">
<ele>150.095825</ele>
<time>2010-07-18T07:01:54Z</time>
<desc>lat.=55.734592, lon.=26.189569, Alt.=150.095825m. Speed=18.216000m/h.</desc>
<speed>5.060000</speed>
</trkpt>
<trkpt lat="55.734612" lon="26.189646">
<ele>150.857544</ele>
<time>2010-07-18T07:01:55Z</time>
<desc>lat.=55.734612, lon.=26.189646, Alt.=150.857544m. Speed=18.431999m/h.</desc>
<speed>5.120000</speed>
</trkpt>
<trkpt lat="55.734631" lon="26.189726">
<ele>151.849731</ele>
<time>2010-07-18T07:01:56Z</time>
<desc>lat.=55.734631, lon.=26.189726, Alt.=151.849731m. Speed=18.648001m/h.</desc>
<speed>5.180000</speed>
</trkpt>
<trkpt lat="55.734650" lon="26.189798">
<ele>151.377075</ele>
<time>2010-07-18T07:01:57Z</time>
<desc>lat.=55.734650, lon.=26.189798, Alt.=151.377075m. Speed=18.864000m/h.</desc>
<speed>5.240000</speed>
</trkpt>
<trkpt lat="55.734665" lon="26.189871">
<ele>151.013794</ele>
<time>2010-07-18T07:01:58Z</time>
<desc>lat.=55.734665, lon.=26.189871, Alt.=151.013794m. Speed=19.115999m/h.</desc>
<speed>5.310000</speed>
</trkpt>
<trkpt lat="55.734688" lon="26.189955">
<ele>152.283325</ele>
<time>2010-07-18T07:01:59Z</time>
<desc>lat.=55.734688, lon.=26.189955, Alt.=152.283325m. Speed=19.260000m/h.</desc>
<speed>5.350000</speed>
</trkpt>
<trkpt lat="55.734703" lon="26.190042">
<ele>152.927856</ele>
<time>2010-07-18T07:02:00Z</time>
<desc>lat.=55.734703, lon.=26.190042, Alt.=152.927856m. Speed=20.160000m/h.</desc>
<speed>5.600000</speed>
</trkpt>
<trkpt lat="55.734718" lon="26.190128">
<ele>152.865356</ele>
<time>2010-07-18T07:02:01Z</time>
<desc>lat.=55.734718, lon.=26.190128, Alt.=152.865356m. Speed=20.268000m/h.</desc>
<speed>5.630000</speed>
</trkpt>
<trkpt lat="55.734730" lon="26.190214">
<ele>152.673950</ele>
<time>2010-07-18T07:02:02Z</time>
<desc>lat.=55.734730, lon.=26.190214, Alt.=152.673950m. Speed=20.087999m/h.</desc>
<speed>5.580000</speed>
</trkpt>
<trkpt lat="55.734749" lon="26.190296">
<ele>152.173950</ele>
<time>2010-07-18T07:02:03Z</time>
<desc>lat.=55.734749, lon.=26.190296, Alt.=152.173950m. Speed=19.908001m/h.</desc>
<speed>5.530000</speed>
</trkpt>
<trkpt lat="55.734760" lon="26.190384">
<ele>151.752075</ele>
<time>2010-07-18T07:02:04Z</time>
<desc>lat.=55.734760, lon.=26.190384, Alt.=151.752075m. Speed=20.520000m/h.</desc>
<speed>5.700000</speed>
</trkpt>
<trkpt lat="55.734776" lon="26.190472">
<ele>151.431763</ele>
<time>2010-07-18T07:02:05Z</time>
<desc>lat.=55.734776, lon.=26.190472, Alt.=151.431763m. Speed=20.412001m/h.</desc>
<speed>5.670000</speed>
</trkpt>
<trkpt lat="55.734791" lon="26.190557">
<ele>151.013794</ele>
<time>2010-07-18T07:02:06Z</time>
<desc>lat.=55.734791, lon.=26.190557, Alt.=151.013794m. Speed=20.375999m/h.</desc>
<speed>5.660000</speed>
</trkpt>
<trkpt lat="55.734806" lon="26.190647">
<ele>150.814575</ele>
<time>2010-07-18T07:02:07Z</time>
<desc>lat.=55.734806, lon.=26.190647, Alt.=150.814575m. Speed=20.700001m/h.</desc>
<speed>5.750000</speed>
</trkpt>
<trkpt lat="55.734821" lon="26.190733">
<ele>150.548950</ele>
<time>2010-07-18T07:02:08Z</time>
<desc>lat.=55.734821, lon.=26.190733, Alt.=150.548950m. Speed=20.736000m/h.</desc>
<speed>5.760000</speed>
</trkpt>
<trkpt lat="55.734840" lon="26.190813">
<ele>150.427856</ele>
<time>2010-07-18T07:02:09Z</time>
<desc>lat.=55.734840, lon.=26.190813, Alt.=150.427856m. Speed=19.908001m/h.</desc>
<speed>5.530000</speed>
</trkpt>
<trkpt lat="55.734856" lon="26.190893">
<ele>150.420044</ele>
<time>2010-07-18T07:02:10Z</time>
<desc>lat.=55.734856, lon.=26.190893, Alt.=150.420044m. Speed=19.728001m/h.</desc>
<speed>5.480000</speed>
</trkpt>
<trkpt lat="55.734875" lon="26.190975">
<ele>150.193481</ele>
<time>2010-07-18T07:02:11Z</time>
<desc>lat.=55.734875, lon.=26.190975, Alt.=150.193481m. Speed=20.268000m/h.</desc>
<speed>5.630000</speed>
</trkpt>
<trkpt lat="55.734894" lon="26.191061">
<ele>150.072388</ele>
<time>2010-07-18T07:02:12Z</time>
<desc>lat.=55.734894, lon.=26.191061, Alt.=150.072388m. Speed=19.980000m/h.</desc>
<speed>5.550000</speed>
</trkpt>
<trkpt lat="55.734913" lon="26.191151">
<ele>150.310669</ele>
<time>2010-07-18T07:02:13Z</time>
<desc>lat.=55.734913, lon.=26.191151, Alt.=150.310669m. Speed=19.728001m/h.</desc>
<speed>5.480000</speed>
</trkpt>
<trkpt lat="55.734928" lon="26.191231">
<ele>150.111450</ele>
<time>2010-07-18T07:02:14Z</time>
<desc>lat.=55.734928, lon.=26.191231, Alt.=150.111450m. Speed=19.403999m/h.</desc>
<speed>5.390000</speed>
</trkpt>
<trkpt lat="55.734951" lon="26.191313">
<ele>150.502075</ele>
<time>2010-07-18T07:02:15Z</time>
<desc>lat.=55.734951, lon.=26.191313, Alt.=150.502075m. Speed=19.260000m/h.</desc>
<speed>5.350000</speed>
</trkpt>
<trkpt lat="55.734966" lon="26.191389">
<ele>150.408325</ele>
<time>2010-07-18T07:02:16Z</time>
<desc>lat.=55.734966, lon.=26.191389, Alt.=150.408325m. Speed=19.368000m/h.</desc>
<speed>5.380000</speed>
</trkpt>
<trkpt lat="55.734985" lon="26.191467">
<ele>150.158325</ele>
<time>2010-07-18T07:02:17Z</time>
<desc>lat.=55.734985, lon.=26.191467, Alt.=150.158325m. Speed=19.403999m/h.</desc>
<speed>5.390000</speed>
</trkpt>
<trkpt lat="55.735001" lon="26.191547">
<ele>149.791138</ele>
<time>2010-07-18T07:02:18Z</time>
<desc>lat.=55.735001, lon.=26.191547, Alt.=149.791138m. Speed=19.080000m/h.</desc>
<speed>5.300000</speed>
</trkpt>
<trkpt lat="55.735027" lon="26.191626">
<ele>149.900513</ele>
<time>2010-07-18T07:02:19Z</time>
<desc>lat.=55.735027, lon.=26.191626, Alt.=149.900513m. Speed=19.799999m/h.</desc>
<speed>5.500000</speed>
</trkpt>
<trkpt lat="55.735043" lon="26.191702">
<ele>148.994263</ele>
<time>2010-07-18T07:02:20Z</time>
<desc>lat.=55.735043, lon.=26.191702, Alt.=148.994263m. Speed=20.232000m/h.</desc>
<speed>5.620000</speed>
</trkpt>
<trkpt lat="55.735065" lon="26.191782">
<ele>148.560669</ele>
<time>2010-07-18T07:02:21Z</time>
<desc>lat.=55.735065, lon.=26.191782, Alt.=148.560669m. Speed=21.096001m/h.</desc>
<speed>5.860000</speed>
</trkpt>
<trkpt lat="55.735092" lon="26.191866">
<ele>148.849731</ele>
<time>2010-07-18T07:02:22Z</time>
<desc>lat.=55.735092, lon.=26.191866, Alt.=148.849731m. Speed=21.672001m/h.</desc>
<speed>6.020000</speed>
</trkpt>
<trkpt lat="55.735111" lon="26.191952">
<ele>147.974731</ele>
<time>2010-07-18T07:02:23Z</time>
<desc>lat.=55.735111, lon.=26.191952, Alt.=147.974731m. Speed=21.888000m/h.</desc>
<speed>6.080000</speed>
</trkpt>
<trkpt lat="55.735134" lon="26.192038">
<ele>147.478638</ele>
<time>2010-07-18T07:02:24Z</time>
<desc>lat.=55.735134, lon.=26.192038, Alt.=147.478638m. Speed=21.312000m/h.</desc>
<speed>5.920000</speed>
</trkpt>
<trkpt lat="55.735153" lon="26.192125">
<ele>146.998169</ele>
<time>2010-07-18T07:02:25Z</time>
<desc>lat.=55.735153, lon.=26.192125, Alt.=146.998169m. Speed=20.916000m/h.</desc>
<speed>5.810000</speed>
</trkpt>
<trkpt lat="55.735176" lon="26.192211">
<ele>146.545044</ele>
<time>2010-07-18T07:02:26Z</time>
<desc>lat.=55.735176, lon.=26.192211, Alt.=146.545044m. Speed=20.412001m/h.</desc>
<speed>5.670000</speed>
</trkpt>
<trkpt lat="55.735191" lon="26.192291">
<ele>145.357544</ele>
<time>2010-07-18T07:02:27Z</time>
<desc>lat.=55.735191, lon.=26.192291, Alt.=145.357544m. Speed=20.412001m/h.</desc>
<speed>5.670000</speed>
</trkpt>
<trkpt lat="55.735210" lon="26.192369">
<ele>143.795044</ele>
<time>2010-07-18T07:02:28Z</time>
<desc>lat.=55.735210, lon.=26.192369, Alt.=143.795044m. Speed=21.059999m/h.</desc>
<speed>5.850000</speed>
</trkpt>
<trkpt lat="55.735241" lon="26.192450">
<ele>140.841919</ele>
<time>2010-07-18T07:02:29Z</time>
<desc>lat.=55.735241, lon.=26.192450, Alt.=140.841919m. Speed=22.212000m/h.</desc>
<speed>6.170000</speed>
</trkpt>
<trkpt lat="55.735260" lon="26.192549">
<ele>140.552856</ele>
<time>2010-07-18T07:02:30Z</time>
<desc>lat.=55.735260, lon.=26.192549, Alt.=140.552856m. Speed=24.120001m/h.</desc>
<speed>6.700000</speed>
</trkpt>
<trkpt lat="55.735287" lon="26.192654">
<ele>140.228638</ele>
<time>2010-07-18T07:02:31Z</time>
<desc>lat.=55.735287, lon.=26.192654, Alt.=140.228638m. Speed=25.884001m/h.</desc>
<speed>7.190000</speed>
</trkpt>
<trkpt lat="55.735313" lon="26.192770">
<ele>140.154419</ele>
<time>2010-07-18T07:02:32Z</time>
<desc>lat.=55.735313, lon.=26.192770, Alt.=140.154419m. Speed=27.504000m/h.</desc>
<speed>7.640000</speed>
</trkpt>
<trkpt lat="55.735340" lon="26.192884">
<ele>139.927856</ele>
<time>2010-07-18T07:02:33Z</time>
<desc>lat.=55.735340, lon.=26.192884, Alt.=139.927856m. Speed=26.820000m/h.</desc>
<speed>7.450000</speed>
</trkpt>
<trkpt lat="55.735363" lon="26.192995">
<ele>139.236450</ele>
<time>2010-07-18T07:02:34Z</time>
<desc>lat.=55.735363, lon.=26.192995, Alt.=139.236450m. Speed=26.639999m/h.</desc>
<speed>7.400000</speed>
</trkpt>
<trkpt lat="55.735382" lon="26.193119">
<ele>139.291138</ele>
<time>2010-07-18T07:02:35Z</time>
<desc>lat.=55.735382, lon.=26.193119, Alt.=139.291138m. Speed=27.360001m/h.</desc>
<speed>7.600000</speed>
</trkpt>
<trkpt lat="55.735405" lon="26.193243">
<ele>138.724731</ele>
<time>2010-07-18T07:02:36Z</time>
<desc>lat.=55.735405, lon.=26.193243, Alt.=138.724731m. Speed=27.936001m/h.</desc>
<speed>7.760000</speed>
</trkpt>
<trkpt lat="55.735428" lon="26.193361">
<ele>138.267700</ele>
<time>2010-07-18T07:02:37Z</time>
<desc>lat.=55.735428, lon.=26.193361, Alt.=138.267700m. Speed=27.648001m/h.</desc>
<speed>7.680000</speed>
</trkpt>
<trkpt lat="55.735455" lon="26.193480">
<ele>137.599731</ele>
<time>2010-07-18T07:02:38Z</time>
<desc>lat.=55.735455, lon.=26.193480, Alt.=137.599731m. Speed=28.332001m/h.</desc>
<speed>7.870000</speed>
</trkpt>
<trkpt lat="55.735470" lon="26.193607">
<ele>136.767700</ele>
<time>2010-07-18T07:02:39Z</time>
<desc>lat.=55.735470, lon.=26.193607, Alt.=136.767700m. Speed=30.059999m/h.</desc>
<speed>8.350000</speed>
</trkpt>
<trkpt lat="55.735493" lon="26.193745">
<ele>137.088013</ele>
<time>2010-07-18T07:02:40Z</time>
<desc>lat.=55.735493, lon.=26.193745, Alt.=137.088013m. Speed=30.708000m/h.</desc>
<speed>8.530000</speed>
</trkpt>
<trkpt lat="55.735508" lon="26.193880">
<ele>136.357544</ele>
<time>2010-07-18T07:02:41Z</time>
<desc>lat.=55.735508, lon.=26.193880, Alt.=136.357544m. Speed=30.672001m/h.</desc>
<speed>8.520000</speed>
</trkpt>
<trkpt lat="55.735523" lon="26.194016">
<ele>135.716919</ele>
<time>2010-07-18T07:02:42Z</time>
<desc>lat.=55.735523, lon.=26.194016, Alt.=135.716919m. Speed=31.247999m/h.</desc>
<speed>8.680000</speed>
</trkpt>
<trkpt lat="55.735542" lon="26.194155">
<ele>135.525513</ele>
<time>2010-07-18T07:02:43Z</time>
<desc>lat.=55.735542, lon.=26.194155, Alt.=135.525513m. Speed=31.104000m/h.</desc>
<speed>8.640000</speed>
</trkpt>
<trkpt lat="55.735554" lon="26.194290">
<ele>135.345825</ele>
<time>2010-07-18T07:02:44Z</time>
<desc>lat.=55.735554, lon.=26.194290, Alt.=135.345825m. Speed=30.888000m/h.</desc>
<speed>8.580000</speed>
</trkpt>
<trkpt lat="55.735569" lon="26.194424">
<ele>135.056763</ele>
<time>2010-07-18T07:02:45Z</time>
<desc>lat.=55.735569, lon.=26.194424, Alt.=135.056763m. Speed=31.139999m/h.</desc>
<speed>8.650000</speed>
</trkpt>
<trkpt lat="55.735592" lon="26.194563">
<ele>135.470825</ele>
<time>2010-07-18T07:02:46Z</time>
<desc>lat.=55.735592, lon.=26.194563, Alt.=135.470825m. Speed=30.672001m/h.</desc>
<speed>8.520000</speed>
</trkpt>
<trkpt lat="55.735603" lon="26.194696">
<ele>135.709106</ele>
<time>2010-07-18T07:02:47Z</time>
<desc>lat.=55.735603, lon.=26.194696, Alt.=135.709106m. Speed=29.628000m/h.</desc>
<speed>8.230000</speed>
</trkpt>
<trkpt lat="55.735611" lon="26.194828">
<ele>136.197388</ele>
<time>2010-07-18T07:02:48Z</time>
<desc>lat.=55.735611, lon.=26.194828, Alt.=136.197388m. Speed=29.520000m/h.</desc>
<speed>8.200000</speed>
</trkpt>
<trkpt lat="55.735615" lon="26.194958">
<ele>136.474731</ele>
<time>2010-07-18T07:02:49Z</time>
<desc>lat.=55.735615, lon.=26.194958, Alt.=136.474731m. Speed=28.511999m/h.</desc>
<speed>7.920000</speed>
</trkpt>
<trkpt lat="55.735622" lon="26.195078">
<ele>136.322388</ele>
<time>2010-07-18T07:02:50Z</time>
<desc>lat.=55.735622, lon.=26.195078, Alt.=136.322388m. Speed=27.504000m/h.</desc>
<speed>7.640000</speed>
</trkpt>
<trkpt lat="55.735630" lon="26.195192">
<ele>136.380981</ele>
<time>2010-07-18T07:02:51Z</time>
<desc>lat.=55.735630, lon.=26.195192, Alt.=136.380981m. Speed=26.784000m/h.</desc>
<speed>7.440000</speed>
</trkpt>
<trkpt lat="55.735630" lon="26.195305">
<ele>136.736450</ele>
<time>2010-07-18T07:02:52Z</time>
<desc>lat.=55.735630, lon.=26.195305, Alt.=136.736450m. Speed=26.424000m/h.</desc>
<speed>7.340000</speed>
</trkpt>
<trkpt lat="55.735630" lon="26.195421">
<ele>136.744263</ele>
<time>2010-07-18T07:02:53Z</time>
<desc>lat.=55.735630, lon.=26.195421, Alt.=136.744263m. Speed=25.848000m/h.</desc>
<speed>7.180000</speed>
</trkpt>
<trkpt lat="55.735634" lon="26.195538">
<ele>136.498169</ele>
<time>2010-07-18T07:02:54Z</time>
<desc>lat.=55.735634, lon.=26.195538, Alt.=136.498169m. Speed=25.524000m/h.</desc>
<speed>7.090000</speed>
</trkpt>
<trkpt lat="55.735638" lon="26.195648">
<ele>136.244263</ele>
<time>2010-07-18T07:02:55Z</time>
<desc>lat.=55.735638, lon.=26.195648, Alt.=136.244263m. Speed=24.408001m/h.</desc>
<speed>6.780000</speed>
</trkpt>
<trkpt lat="55.735641" lon="26.195753">
<ele>136.185669</ele>
<time>2010-07-18T07:02:56Z</time>
<desc>lat.=55.735641, lon.=26.195753, Alt.=136.185669m. Speed=22.860001m/h.</desc>
<speed>6.350000</speed>
</trkpt>
<trkpt lat="55.735645" lon="26.195854">
<ele>136.361450</ele>
<time>2010-07-18T07:02:57Z</time>
<desc>lat.=55.735645, lon.=26.195854, Alt.=136.361450m. Speed=20.952000m/h.</desc>
<speed>5.820000</speed>
</trkpt>
<trkpt lat="55.735645" lon="26.195950">
<ele>136.994263</ele>
<time>2010-07-18T07:02:58Z</time>
<desc>lat.=55.735645, lon.=26.195950, Alt.=136.994263m. Speed=20.664000m/h.</desc>
<speed>5.740000</speed>
</trkpt>
<trkpt lat="55.735645" lon="26.196047">
<ele>136.861450</ele>
<time>2010-07-18T07:02:59Z</time>
<desc>lat.=55.735645, lon.=26.196047, Alt.=136.861450m. Speed=19.080000m/h.</desc>
<speed>5.300000</speed>
</trkpt>
<trkpt lat="55.735645" lon="26.196129">
<ele>136.427856</ele>
<time>2010-07-18T07:03:00Z</time>
<desc>lat.=55.735645, lon.=26.196129, Alt.=136.427856m. Speed=17.208000m/h.</desc>
<speed>4.780000</speed>
</trkpt>
<trkpt lat="55.735649" lon="26.196203">
<ele>136.021606</ele>
<time>2010-07-18T07:03:01Z</time>
<desc>lat.=55.735649, lon.=26.196203, Alt.=136.021606m. Speed=17.496000m/h.</desc>
<speed>4.860000</speed>
</trkpt>
<trkpt lat="55.735649" lon="26.196274">
<ele>135.959106</ele>
<time>2010-07-18T07:03:02Z</time>
<desc>lat.=55.735649, lon.=26.196274, Alt.=135.959106m. Speed=15.660000m/h.</desc>
<speed>4.350000</speed>
</trkpt>
<trkpt lat="55.735653" lon="26.196342">
<ele>136.568481</ele>
<time>2010-07-18T07:03:03Z</time>
<desc>lat.=55.735653, lon.=26.196342, Alt.=136.568481m. Speed=14.940000m/h.</desc>
<speed>4.150000</speed>
</trkpt>
<trkpt lat="55.735657" lon="26.196411">
<ele>136.970825</ele>
<time>2010-07-18T07:03:04Z</time>
<desc>lat.=55.735657, lon.=26.196411, Alt.=136.970825m. Speed=14.904000m/h.</desc>
<speed>4.140000</speed>
</trkpt>
<trkpt lat="55.735661" lon="26.196474">
<ele>137.197388</ele>
<time>2010-07-18T07:03:05Z</time>
<desc>lat.=55.735661, lon.=26.196474, Alt.=137.197388m. Speed=14.940000m/h.</desc>
<speed>4.150000</speed>
</trkpt>
<trkpt lat="55.735661" lon="26.196529">
<ele>137.181763</ele>
<time>2010-07-18T07:03:06Z</time>
<desc>lat.=55.735661, lon.=26.196529, Alt.=137.181763m. Speed=14.904000m/h.</desc>
<speed>4.140000</speed>
</trkpt>
<trkpt lat="55.735668" lon="26.196598">
<ele>137.517700</ele>
<time>2010-07-18T07:03:07Z</time>
<desc>lat.=55.735668, lon.=26.196598, Alt.=137.517700m. Speed=15.264000m/h.</desc>
<speed>4.240000</speed>
</trkpt>
<trkpt lat="55.735676" lon="26.196665">
<ele>138.052856</ele>
<time>2010-07-18T07:03:08Z</time>
<desc>lat.=55.735676, lon.=26.196665, Alt.=138.052856m. Speed=13.788000m/h.</desc>
<speed>3.830000</speed>
</trkpt>
<trkpt lat="55.735680" lon="26.196726">
<ele>137.755981</ele>
<time>2010-07-18T07:03:09Z</time>
<desc>lat.=55.735680, lon.=26.196726, Alt.=137.755981m. Speed=13.500000m/h.</desc>
<speed>3.750000</speed>
</trkpt>
<trkpt lat="55.735683" lon="26.196787">
<ele>138.228638</ele>
<time>2010-07-18T07:03:10Z</time>
<desc>lat.=55.735683, lon.=26.196787, Alt.=138.228638m. Speed=13.176000m/h.</desc>
<speed>3.660000</speed>
</trkpt>
<trkpt lat="55.735680" lon="26.196848">
<ele>138.306763</ele>
<time>2010-07-18T07:03:11Z</time>
<desc>lat.=55.735680, lon.=26.196848, Alt.=138.306763m. Speed=12.168000m/h.</desc>
<speed>3.380000</speed>
</trkpt>
<trkpt lat="55.735683" lon="26.196901">
<ele>138.447388</ele>
<time>2010-07-18T07:03:12Z</time>
<desc>lat.=55.735683, lon.=26.196901, Alt.=138.447388m. Speed=11.880000m/h.</desc>
<speed>3.300000</speed>
</trkpt>
<trkpt lat="55.735683" lon="26.196955">
<ele>138.400513</ele>
<time>2010-07-18T07:03:13Z</time>
<desc>lat.=55.735683, lon.=26.196955, Alt.=138.400513m. Speed=12.348000m/h.</desc>
<speed>3.430000</speed>
</trkpt>
<trkpt lat="55.735687" lon="26.197004">
<ele>138.423950</ele>
<time>2010-07-18T07:03:14Z</time>
<desc>lat.=55.735687, lon.=26.197004, Alt.=138.423950m. Speed=10.944000m/h.</desc>
<speed>3.040000</speed>
</trkpt>
<trkpt lat="55.735691" lon="26.197046">
<ele>138.228638</ele>
<time>2010-07-18T07:03:15Z</time>
<desc>lat.=55.735691, lon.=26.197046, Alt.=138.228638m. Speed=10.800000m/h.</desc>
<speed>3.000000</speed>
</trkpt>
<trkpt lat="55.735695" lon="26.197092">
<ele>137.841919</ele>
<time>2010-07-18T07:03:16Z</time>
<desc>lat.=55.735695, lon.=26.197092, Alt.=137.841919m. Speed=9.576000m/h.</desc>
<speed>2.660000</speed>
</trkpt>
<trkpt lat="55.735695" lon="26.197140">
<ele>138.193481</ele>
<time>2010-07-18T07:03:17Z</time>
<desc>lat.=55.735695, lon.=26.197140, Alt.=138.193481m. Speed=10.224000m/h.</desc>
<speed>2.840000</speed>
</trkpt>
<trkpt lat="55.735695" lon="26.197180">
<ele>138.423950</ele>
<time>2010-07-18T07:03:18Z</time>
<desc>lat.=55.735695, lon.=26.197180, Alt.=138.423950m. Speed=8.316000m/h.</desc>
<speed>2.310000</speed>
</trkpt>
<trkpt lat="55.735695" lon="26.197212">
<ele>138.588013</ele>
<time>2010-07-18T07:03:19Z</time>
<desc>lat.=55.735695, lon.=26.197212, Alt.=138.588013m. Speed=7.344000m/h.</desc>
<speed>2.040000</speed>
</trkpt>
<trkpt lat="55.735695" lon="26.197243">
<ele>138.373169</ele>
<time>2010-07-18T07:03:20Z</time>
<desc>lat.=55.735695, lon.=26.197243, Alt.=138.373169m. Speed=6.876000m/h.</desc>
<speed>1.910000</speed>
</trkpt>
<trkpt lat="55.735691" lon="26.197271">
<ele>138.638794</ele>
<time>2010-07-18T07:03:21Z</time>
<desc>lat.=55.735691, lon.=26.197271, Alt.=138.638794m. Speed=6.084000m/h.</desc>
<speed>1.690000</speed>
</trkpt>
<trkpt lat="55.735699" lon="26.197302">
<ele>139.013794</ele>
<time>2010-07-18T07:03:22Z</time>
<desc>lat.=55.735699, lon.=26.197302, Alt.=139.013794m. Speed=6.480000m/h.</desc>
<speed>1.800000</speed>
</trkpt>
<trkpt lat="55.735703" lon="26.197332">
<ele>139.724731</ele>
<time>2010-07-18T07:03:23Z</time>
<desc>lat.=55.735703, lon.=26.197332, Alt.=139.724731m. Speed=7.020000m/h.</desc>
<speed>1.950000</speed>
</trkpt>
<trkpt lat="55.735699" lon="26.197365">
<ele>139.935669</ele>
<time>2010-07-18T07:03:24Z</time>
<desc>lat.=55.735699, lon.=26.197365, Alt.=139.935669m. Speed=7.020000m/h.</desc>
<speed>1.950000</speed>
</trkpt>
<trkpt lat="55.735695" lon="26.197403">
<ele>140.123169</ele>
<time>2010-07-18T07:03:25Z</time>
<desc>lat.=55.735695, lon.=26.197403, Alt.=140.123169m. Speed=8.100000m/h.</desc>
<speed>2.250000</speed>
</trkpt>
<trkpt lat="55.735683" lon="26.197443">
<ele>140.689575</ele>
<time>2010-07-18T07:03:26Z</time>
<desc>lat.=55.735683, lon.=26.197443, Alt.=140.689575m. Speed=8.568000m/h.</desc>
<speed>2.380000</speed>
</trkpt>
<trkpt lat="55.735687" lon="26.197483">
<ele>140.927856</ele>
<time>2010-07-18T07:03:27Z</time>
<desc>lat.=55.735687, lon.=26.197483, Alt.=140.927856m. Speed=8.748000m/h.</desc>
<speed>2.430000</speed>
</trkpt>
<trkpt lat="55.735687" lon="26.197527">
<ele>141.349731</ele>
<time>2010-07-18T07:03:28Z</time>
<desc>lat.=55.735687, lon.=26.197527, Alt.=141.349731m. Speed=9.144000m/h.</desc>
<speed>2.540000</speed>
</trkpt>
<trkpt lat="55.735695" lon="26.197582">
<ele>141.170044</ele>
<time>2010-07-18T07:03:29Z</time>
<desc>lat.=55.735695, lon.=26.197582, Alt.=141.170044m. Speed=10.152000m/h.</desc>
<speed>2.820000</speed>
</trkpt>
<trkpt lat="55.735699" lon="26.197628">
<ele>141.541138</ele>
<time>2010-07-18T07:03:30Z</time>
<desc>lat.=55.735699, lon.=26.197628, Alt.=141.541138m. Speed=8.352000m/h.</desc>
<speed>2.320000</speed>
</trkpt>
<trkpt lat="55.735695" lon="26.197660">
<ele>141.736450</ele>
<time>2010-07-18T07:03:31Z</time>
<desc>lat.=55.735695, lon.=26.197660, Alt.=141.736450m. Speed=6.948000m/h.</desc>
<speed>1.930000</speed>
</trkpt>
<trkpt lat="55.735706" lon="26.197708">
<ele>141.814575</ele>
<time>2010-07-18T07:03:32Z</time>
<desc>lat.=55.735706, lon.=26.197708, Alt.=141.814575m. Speed=8.352000m/h.</desc>
<speed>2.320000</speed>
</trkpt>
<trkpt lat="55.735695" lon="26.197742">
<ele>142.185669</ele>
<time>2010-07-18T07:03:33Z</time>
<desc>lat.=55.735695, lon.=26.197742, Alt.=142.185669m. Speed=8.136000m/h.</desc>
<speed>2.260000</speed>
</trkpt>
<trkpt lat="55.735710" lon="26.197792">
<ele>141.857544</ele>
<time>2010-07-18T07:03:34Z</time>
<desc>lat.=55.735710, lon.=26.197792, Alt.=141.857544m. Speed=8.208000m/h.</desc>
<speed>2.280000</speed>
</trkpt>
<trkpt lat="55.735710" lon="26.197838">
<ele>142.099731</ele>
<time>2010-07-18T07:03:35Z</time>
<desc>lat.=55.735710, lon.=26.197838, Alt.=142.099731m. Speed=7.920000m/h.</desc>
<speed>2.200000</speed>
</trkpt>
<trkpt lat="55.735710" lon="26.197876">
<ele>142.459106</ele>
<time>2010-07-18T07:03:36Z</time>
<desc>lat.=55.735710, lon.=26.197876, Alt.=142.459106m. Speed=7.992000m/h.</desc>
<speed>2.220000</speed>
</trkpt>
<trkpt lat="55.735714" lon="26.197918">
<ele>143.275513</ele>
<time>2010-07-18T07:03:37Z</time>
<desc>lat.=55.735714, lon.=26.197918, Alt.=143.275513m. Speed=8.532000m/h.</desc>
<speed>2.370000</speed>
</trkpt>
<trkpt lat="55.735722" lon="26.197966">
<ele>144.201294</ele>
<time>2010-07-18T07:03:38Z</time>
<desc>lat.=55.735722, lon.=26.197966, Alt.=144.201294m. Speed=7.524000m/h.</desc>
<speed>2.090000</speed>
</trkpt>
<trkpt lat="55.735741" lon="26.198011">
<ele>144.697388</ele>
<time>2010-07-18T07:03:39Z</time>
<desc>lat.=55.735741, lon.=26.198011, Alt.=144.697388m. Speed=8.892000m/h.</desc>
<speed>2.470000</speed>
</trkpt>
<trkpt lat="55.735741" lon="26.198055">
<ele>144.431763</ele>
<time>2010-07-18T07:03:40Z</time>
<desc>lat.=55.735741, lon.=26.198055, Alt.=144.431763m. Speed=7.920000m/h.</desc>
<speed>2.200000</speed>
</trkpt>
<trkpt lat="55.735741" lon="26.198112">
<ele>144.048950</ele>
<time>2010-07-18T07:03:41Z</time>
<desc>lat.=55.735741, lon.=26.198112, Alt.=144.048950m. Speed=9.252000m/h.</desc>
<speed>2.570000</speed>
</trkpt>
<trkpt lat="55.735760" lon="26.198158">
<ele>143.716919</ele>
<time>2010-07-18T07:03:42Z</time>
<desc>lat.=55.735760, lon.=26.198158, Alt.=143.716919m. Speed=7.488000m/h.</desc>
<speed>2.080000</speed>
</trkpt>
<trkpt lat="55.735764" lon="26.198189">
<ele>143.888794</ele>
<time>2010-07-18T07:03:43Z</time>
<desc>lat.=55.735764, lon.=26.198189, Alt.=143.888794m. Speed=8.136000m/h.</desc>
<speed>2.260000</speed>
</trkpt>
<trkpt lat="55.735741" lon="26.198244">
<ele>143.693481</ele>
<time>2010-07-18T07:03:44Z</time>
<desc>lat.=55.735741, lon.=26.198244, Alt.=143.693481m. Speed=7.776000m/h.</desc>
<speed>2.160000</speed>
</trkpt>
<trkpt lat="55.735729" lon="26.198290">
<ele>143.517700</ele>
<time>2010-07-18T07:03:45Z</time>
<desc>lat.=55.735729, lon.=26.198290, Alt.=143.517700m. Speed=8.280000m/h.</desc>
<speed>2.300000</speed>
</trkpt>
<trkpt lat="55.735737" lon="26.198330">
<ele>143.873169</ele>
<time>2010-07-18T07:03:46Z</time>
<desc>lat.=55.735737, lon.=26.198330, Alt.=143.873169m. Speed=8.568000m/h.</desc>
<speed>2.380000</speed>
</trkpt>
<trkpt lat="55.735737" lon="26.198364">
<ele>142.994263</ele>
<time>2010-07-18T07:03:47Z</time>
<desc>lat.=55.735737, lon.=26.198364, Alt.=142.994263m. Speed=6.660000m/h.</desc>
<speed>1.850000</speed>
</trkpt>
<trkpt lat="55.735744" lon="26.198389">
<ele>143.224731</ele>
<time>2010-07-18T07:03:48Z</time>
<desc>lat.=55.735744, lon.=26.198389, Alt.=143.224731m. Speed=5.400000m/h.</desc>
<speed>1.500000</speed>
</trkpt>
<trkpt lat="55.735748" lon="26.198410">
<ele>143.556763</ele>
<time>2010-07-18T07:03:49Z</time>
<desc>lat.=55.735748, lon.=26.198410, Alt.=143.556763m. Speed=6.660000m/h.</desc>
<speed>1.850000</speed>
</trkpt>
<trkpt lat="55.735756" lon="26.198439">
<ele>144.037231</ele>
<time>2010-07-18T07:03:50Z</time>
<desc>lat.=55.735756, lon.=26.198439, Alt.=144.037231m. Speed=6.480000m/h.</desc>
<speed>1.800000</speed>
</trkpt>
<trkpt lat="55.735767" lon="26.198477">
<ele>144.748169</ele>
<time>2010-07-18T07:03:51Z</time>
<desc>lat.=55.735767, lon.=26.198477, Alt.=144.748169m. Speed=7.740000m/h.</desc>
<speed>2.150000</speed>
</trkpt>
<trkpt lat="55.735779" lon="26.198523">
<ele>145.920044</ele>
<time>2010-07-18T07:03:52Z</time>
<desc>lat.=55.735779, lon.=26.198523, Alt.=145.920044m. Speed=8.388000m/h.</desc>
<speed>2.330000</speed>
</trkpt>
<trkpt lat="55.735779" lon="26.198559">
<ele>145.865356</ele>
<time>2010-07-18T07:03:53Z</time>
<desc>lat.=55.735779, lon.=26.198559, Alt.=145.865356m. Speed=7.596000m/h.</desc>
<speed>2.110000</speed>
</trkpt>
<trkpt lat="55.735783" lon="26.198597">
<ele>145.705200</ele>
<time>2010-07-18T07:03:54Z</time>
<desc>lat.=55.735783, lon.=26.198597, Alt.=145.705200m. Speed=7.776000m/h.</desc>
<speed>2.160000</speed>
</trkpt>
<trkpt lat="55.735779" lon="26.198652">
<ele>145.517700</ele>
<time>2010-07-18T07:03:55Z</time>
<desc>lat.=55.735779, lon.=26.198652, Alt.=145.517700m. Speed=7.668000m/h.</desc>
<speed>2.130000</speed>
</trkpt>
<trkpt lat="55.735794" lon="26.198685">
<ele>146.033325</ele>
<time>2010-07-18T07:03:56Z</time>
<desc>lat.=55.735794, lon.=26.198685, Alt.=146.033325m. Speed=6.840000m/h.</desc>
<speed>1.900000</speed>
</trkpt>
<trkpt lat="55.735802" lon="26.198719">
<ele>146.349731</ele>
<time>2010-07-18T07:03:57Z</time>
<desc>lat.=55.735802, lon.=26.198719, Alt.=146.349731m. Speed=5.796000m/h.</desc>
<speed>1.610000</speed>
</trkpt>
<trkpt lat="55.735802" lon="26.198748">
<ele>146.298950</ele>
<time>2010-07-18T07:03:58Z</time>
<desc>lat.=55.735802, lon.=26.198748, Alt.=146.298950m. Speed=4.968000m/h.</desc>
<speed>1.380000</speed>
</trkpt>
<trkpt lat="55.735813" lon="26.198774">
<ele>146.291138</ele>
<time>2010-07-18T07:03:59Z</time>
<desc>lat.=55.735813, lon.=26.198774, Alt.=146.291138m. Speed=6.444000m/h.</desc>
<speed>1.790000</speed>
</trkpt>
<trkpt lat="55.735817" lon="26.198803">
<ele>147.154419</ele>
<time>2010-07-18T07:04:00Z</time>
<desc>lat.=55.735817, lon.=26.198803, Alt.=147.154419m. Speed=6.120000m/h.</desc>
<speed>1.700000</speed>
</trkpt>
<trkpt lat="55.735825" lon="26.198851">
<ele>147.435669</ele>
<time>2010-07-18T07:04:01Z</time>
<desc>lat.=55.735825, lon.=26.198851, Alt.=147.435669m. Speed=6.228000m/h.</desc>
<speed>1.730000</speed>
</trkpt>
<trkpt lat="55.735828" lon="26.198893">
<ele>147.517700</ele>
<time>2010-07-18T07:04:02Z</time>
<desc>lat.=55.735828, lon.=26.198893, Alt.=147.517700m. Speed=7.596000m/h.</desc>
<speed>2.110000</speed>
</trkpt>
<trkpt lat="55.735832" lon="26.198952">
<ele>148.103638</ele>
<time>2010-07-18T07:04:03Z</time>
<desc>lat.=55.735832, lon.=26.198952, Alt.=148.103638m. Speed=6.408000m/h.</desc>
<speed>1.780000</speed>
</trkpt>
<trkpt lat="55.735828" lon="26.198999">
<ele>148.154419</ele>
<time>2010-07-18T07:04:04Z</time>
<desc>lat.=55.735828, lon.=26.198999, Alt.=148.154419m. Speed=7.092000m/h.</desc>
<speed>1.970000</speed>
</trkpt>
<trkpt lat="55.735836" lon="26.199051">
<ele>148.763794</ele>
<time>2010-07-18T07:04:05Z</time>
<desc>lat.=55.735836, lon.=26.199051, Alt.=148.763794m. Speed=6.228000m/h.</desc>
<speed>1.730000</speed>
</trkpt>
<trkpt lat="55.735847" lon="26.199100">
<ele>148.685669</ele>
<time>2010-07-18T07:04:06Z</time>
<desc>lat.=55.735847, lon.=26.199100, Alt.=148.685669m. Speed=7.596000m/h.</desc>
<speed>2.110000</speed>
</trkpt>
<trkpt lat="55.735863" lon="26.199146">
<ele>149.326294</ele>
<time>2010-07-18T07:04:07Z</time>
<desc>lat.=55.735863, lon.=26.199146, Alt.=149.326294m. Speed=8.496000m/h.</desc>
<speed>2.360000</speed>
</trkpt>
<trkpt lat="55.735878" lon="26.199192">
<ele>149.615356</ele>
<time>2010-07-18T07:04:08Z</time>
<desc>lat.=55.735878, lon.=26.199192, Alt.=149.615356m. Speed=7.344000m/h.</desc>
<speed>2.040000</speed>
</trkpt>
<trkpt lat="55.735886" lon="26.199226">
<ele>149.619263</ele>
<time>2010-07-18T07:04:09Z</time>
<desc>lat.=55.735886, lon.=26.199226, Alt.=149.619263m. Speed=6.444000m/h.</desc>
<speed>1.790000</speed>
</trkpt>
<trkpt lat="55.735897" lon="26.199259">
<ele>149.959106</ele>
<time>2010-07-18T07:04:10Z</time>
<desc>lat.=55.735897, lon.=26.199259, Alt.=149.959106m. Speed=7.128000m/h.</desc>
<speed>1.980000</speed>
</trkpt>
<trkpt lat="55.735905" lon="26.199293">
<ele>150.244263</ele>
<time>2010-07-18T07:04:11Z</time>
<desc>lat.=55.735905, lon.=26.199293, Alt.=150.244263m. Speed=6.588000m/h.</desc>
<speed>1.830000</speed>
</trkpt>
<trkpt lat="55.735909" lon="26.199326">
<ele>150.240356</ele>
<time>2010-07-18T07:04:12Z</time>
<desc>lat.=55.735909, lon.=26.199326, Alt.=150.240356m. Speed=6.732000m/h.</desc>
<speed>1.870000</speed>
</trkpt>
<trkpt lat="55.735916" lon="26.199354">
<ele>150.572388</ele>
<time>2010-07-18T07:04:13Z</time>
<desc>lat.=55.735916, lon.=26.199354, Alt.=150.572388m. Speed=5.760000m/h.</desc>
<speed>1.600000</speed>
</trkpt>
<trkpt lat="55.735924" lon="26.199389">
<ele>150.423950</ele>
<time>2010-07-18T07:04:14Z</time>
<desc>lat.=55.735924, lon.=26.199389, Alt.=150.423950m. Speed=7.740000m/h.</desc>
<speed>2.150000</speed>
</trkpt>
<trkpt lat="55.735939" lon="26.199421">
<ele>150.505981</ele>
<time>2010-07-18T07:04:15Z</time>
<desc>lat.=55.735939, lon.=26.199421, Alt.=150.505981m. Speed=7.848000m/h.</desc>
<speed>2.180000</speed>
</trkpt>
<trkpt lat="55.735947" lon="26.199453">
<ele>150.670044</ele>
<time>2010-07-18T07:04:16Z</time>
<desc>lat.=55.735947, lon.=26.199453, Alt.=150.670044m. Speed=7.776000m/h.</desc>
<speed>2.160000</speed>
</trkpt>
<trkpt lat="55.735947" lon="26.199505">
<ele>151.435669</ele>
<time>2010-07-18T07:04:17Z</time>
<desc>lat.=55.735947, lon.=26.199505, Alt.=151.435669m. Speed=8.352000m/h.</desc>
<speed>2.320000</speed>
</trkpt>
<trkpt lat="55.735962" lon="26.199547">
<ele>151.568481</ele>
<time>2010-07-18T07:04:18Z</time>
<desc>lat.=55.735962, lon.=26.199547, Alt.=151.568481m. Speed=10.620000m/h.</desc>
<speed>2.950000</speed>
</trkpt>
<trkpt lat="55.735981" lon="26.199587">
<ele>151.205200</ele>
<time>2010-07-18T07:04:19Z</time>
<desc>lat.=55.735981, lon.=26.199587, Alt.=151.205200m. Speed=9.360000m/h.</desc>
<speed>2.600000</speed>
</trkpt>
<trkpt lat="55.735989" lon="26.199638">
<ele>151.595825</ele>
<time>2010-07-18T07:04:20Z</time>
<desc>lat.=55.735989, lon.=26.199638, Alt.=151.595825m. Speed=9.180000m/h.</desc>
<speed>2.550000</speed>
</trkpt>
<trkpt lat="55.735992" lon="26.199694">
<ele>151.806763</ele>
<time>2010-07-18T07:04:21Z</time>
<desc>lat.=55.735992, lon.=26.199694, Alt.=151.806763m. Speed=8.964000m/h.</desc>
<speed>2.490000</speed>
</trkpt>
<trkpt lat="55.736000" lon="26.199745">
<ele>151.716919</ele>
<time>2010-07-18T07:04:22Z</time>
<desc>lat.=55.736000, lon.=26.199745, Alt.=151.716919m. Speed=9.864000m/h.</desc>
<speed>2.740000</speed>
</trkpt>
<trkpt lat="55.736000" lon="26.199806">
<ele>151.275513</ele>
<time>2010-07-18T07:04:23Z</time>
<desc>lat.=55.736000, lon.=26.199806, Alt.=151.275513m. Speed=10.008000m/h.</desc>
<speed>2.780000</speed>
</trkpt>
<trkpt lat="55.736015" lon="26.199858">
<ele>151.552856</ele>
<time>2010-07-18T07:04:24Z</time>
<desc>lat.=55.736015, lon.=26.199858, Alt.=151.552856m. Speed=10.476000m/h.</desc>
<speed>2.910000</speed>
</trkpt>
<trkpt lat="55.736023" lon="26.199907">
<ele>151.240356</ele>
<time>2010-07-18T07:04:25Z</time>
<desc>lat.=55.736023, lon.=26.199907, Alt.=151.240356m. Speed=11.448000m/h.</desc>
<speed>3.180000</speed>
</trkpt>
<trkpt lat="55.736023" lon="26.199957">
<ele>151.213013</ele>
<time>2010-07-18T07:04:26Z</time>
<desc>lat.=55.736023, lon.=26.199957, Alt.=151.213013m. Speed=9.900000m/h.</desc>
<speed>2.750000</speed>
</trkpt>
<trkpt lat="55.736031" lon="26.200003">
<ele>151.099731</ele>
<time>2010-07-18T07:04:27Z</time>
<desc>lat.=55.736031, lon.=26.200003, Alt.=151.099731m. Speed=10.476000m/h.</desc>
<speed>2.910000</speed>
</trkpt>
<trkpt lat="55.736042" lon="26.200062">
<ele>151.896606</ele>
<time>2010-07-18T07:04:28Z</time>
<desc>lat.=55.736042, lon.=26.200062, Alt.=151.896606m. Speed=13.716000m/h.</desc>
<speed>3.810000</speed>
</trkpt>
<trkpt lat="55.736065" lon="26.200111">
<ele>152.779419</ele>
<time>2010-07-18T07:04:29Z</time>
<desc>lat.=55.736065, lon.=26.200111, Alt.=152.779419m. Speed=11.340000m/h.</desc>
<speed>3.150000</speed>
</trkpt>
<trkpt lat="55.736088" lon="26.200165">
<ele>153.935669</ele>
<time>2010-07-18T07:04:30Z</time>
<desc>lat.=55.736088, lon.=26.200165, Alt.=153.935669m. Speed=13.644000m/h.</desc>
<speed>3.790000</speed>
</trkpt>
<trkpt lat="55.736111" lon="26.200222">
<ele>155.455200</ele>
<time>2010-07-18T07:04:31Z</time>
<desc>lat.=55.736111, lon.=26.200222, Alt.=155.455200m. Speed=13.068000m/h.</desc>
<speed>3.630000</speed>
</trkpt>
<trkpt lat="55.736130" lon="26.200283">
<ele>156.830200</ele>
<time>2010-07-18T07:04:32Z</time>
<desc>lat.=55.736130, lon.=26.200283, Alt.=156.830200m. Speed=12.132000m/h.</desc>
<speed>3.370000</speed>
</trkpt>
<trkpt lat="55.736126" lon="26.200344">
<ele>157.275513</ele>
<time>2010-07-18T07:04:33Z</time>
<desc>lat.=55.736126, lon.=26.200344, Alt.=157.275513m. Speed=12.924000m/h.</desc>
<speed>3.590000</speed>
</trkpt>
<trkpt lat="55.736111" lon="26.200415">
<ele>157.263794</ele>
<time>2010-07-18T07:04:34Z</time>
<desc>lat.=55.736111, lon.=26.200415, Alt.=157.263794m. Speed=11.016000m/h.</desc>
<speed>3.060000</speed>
</trkpt>
<trkpt lat="55.736095" lon="26.200481">
<ele>156.974731</ele>
<time>2010-07-18T07:04:35Z</time>
<desc>lat.=55.736095, lon.=26.200481, Alt.=156.974731m. Speed=11.772000m/h.</desc>
<speed>3.270000</speed>
</trkpt>
<trkpt lat="55.736088" lon="26.200560">
<ele>156.662231</ele>
<time>2010-07-18T07:04:36Z</time>
<desc>lat.=55.736088, lon.=26.200560, Alt.=156.662231m. Speed=14.616000m/h.</desc>
<speed>4.060000</speed>
</trkpt>
<trkpt lat="55.736092" lon="26.200655">
<ele>156.595825</ele>
<time>2010-07-18T07:04:37Z</time>
<desc>lat.=55.736092, lon.=26.200655, Alt.=156.595825m. Speed=15.372000m/h.</desc>
<speed>4.270000</speed>
</trkpt>
<trkpt lat="55.736088" lon="26.200733">
<ele>156.431763</ele>
<time>2010-07-18T07:04:38Z</time>
<desc>lat.=55.736088, lon.=26.200733, Alt.=156.431763m. Speed=15.264000m/h.</desc>
<speed>4.240000</speed>
</trkpt>
<trkpt lat="55.736084" lon="26.200840">
<ele>155.220825</ele>
<time>2010-07-18T07:04:39Z</time>
<desc>lat.=55.736084, lon.=26.200840, Alt.=155.220825m. Speed=17.532000m/h.</desc>
<speed>4.870000</speed>
</trkpt>
<trkpt lat="55.736069" lon="26.200928">
<ele>153.189575</ele>
<time>2010-07-18T07:04:40Z</time>
<desc>lat.=55.736069, lon.=26.200928, Alt.=153.189575m. Speed=15.480000m/h.</desc>
<speed>4.300000</speed>
</trkpt>
<trkpt lat="55.736053" lon="26.200998">
<ele>151.498169</ele>
<time>2010-07-18T07:04:41Z</time>
<desc>lat.=55.736053, lon.=26.200998, Alt.=151.498169m. Speed=14.400000m/h.</desc>
<speed>4.000000</speed>
</trkpt>
<trkpt lat="55.736053" lon="26.201080">
<ele>150.177856</ele>
<time>2010-07-18T07:04:42Z</time>
<desc>lat.=55.736053, lon.=26.201080, Alt.=150.177856m. Speed=15.408000m/h.</desc>
<speed>4.280000</speed>
</trkpt>
<trkpt lat="55.736069" lon="26.201166">
<ele>150.088013</ele>
<time>2010-07-18T07:04:43Z</time>
<desc>lat.=55.736069, lon.=26.201166, Alt.=150.088013m. Speed=16.848000m/h.</desc>
<speed>4.680000</speed>
</trkpt>
<trkpt lat="55.736065" lon="26.201241">
<ele>149.650513</ele>
<time>2010-07-18T07:04:44Z</time>
<desc>lat.=55.736065, lon.=26.201241, Alt.=149.650513m. Speed=15.948000m/h.</desc>
<speed>4.430000</speed>
</trkpt>
<trkpt lat="55.736076" lon="26.201313">
<ele>149.521606</ele>
<time>2010-07-18T07:04:45Z</time>
<desc>lat.=55.736076, lon.=26.201313, Alt.=149.521606m. Speed=16.128000m/h.</desc>
<speed>4.480000</speed>
</trkpt>
<trkpt lat="55.736076" lon="26.201387">
<ele>149.193481</ele>
<time>2010-07-18T07:04:46Z</time>
<desc>lat.=55.736076, lon.=26.201387, Alt.=149.193481m. Speed=17.280001m/h.</desc>
<speed>4.800000</speed>
</trkpt>
<trkpt lat="55.736080" lon="26.201471">
<ele>149.205200</ele>
<time>2010-07-18T07:04:47Z</time>
<desc>lat.=55.736080, lon.=26.201471, Alt.=149.205200m. Speed=16.632000m/h.</desc>
<speed>4.620000</speed>
</trkpt>
<trkpt lat="55.736103" lon="26.201567">
<ele>149.209106</ele>
<time>2010-07-18T07:04:48Z</time>
<desc>lat.=55.736103, lon.=26.201567, Alt.=149.209106m. Speed=14.976000m/h.</desc>
<speed>4.160000</speed>
</trkpt>
<trkpt lat="55.736111" lon="26.201647">
<ele>149.431763</ele>
<time>2010-07-18T07:04:49Z</time>
<desc>lat.=55.736111, lon.=26.201647, Alt.=149.431763m. Speed=14.220000m/h.</desc>
<speed>3.950000</speed>
</trkpt>
<trkpt lat="55.736107" lon="26.201717">
<ele>149.076294</ele>
<time>2010-07-18T07:04:50Z</time>
<desc>lat.=55.736107, lon.=26.201717, Alt.=149.076294m. Speed=14.076000m/h.</desc>
<speed>3.910000</speed>
</trkpt>
<trkpt lat="55.736099" lon="26.201790">
<ele>148.396606</ele>
<time>2010-07-18T07:04:51Z</time>
<desc>lat.=55.736099, lon.=26.201790, Alt.=148.396606m. Speed=14.760000m/h.</desc>
<speed>4.100000</speed>
</trkpt>
<trkpt lat="55.736092" lon="26.201860">
<ele>148.041138</ele>
<time>2010-07-18T07:04:52Z</time>
<desc>lat.=55.736092, lon.=26.201860, Alt.=148.041138m. Speed=14.292000m/h.</desc>
<speed>3.970000</speed>
</trkpt>
<trkpt lat="55.736092" lon="26.201933">
<ele>148.310669</ele>
<time>2010-07-18T07:04:53Z</time>
<desc>lat.=55.736092, lon.=26.201933, Alt.=148.310669m. Speed=13.644000m/h.</desc>
<speed>3.790000</speed>
</trkpt>
<trkpt lat="55.736080" lon="26.202011">
<ele>147.830200</ele>
<time>2010-07-18T07:04:54Z</time>
<desc>lat.=55.736080, lon.=26.202011, Alt.=147.830200m. Speed=14.076000m/h.</desc>
<speed>3.910000</speed>
</trkpt>
<trkpt lat="55.736084" lon="26.202099">
<ele>147.127075</ele>
<time>2010-07-18T07:04:55Z</time>
<desc>lat.=55.736084, lon.=26.202099, Alt.=147.127075m. Speed=15.444000m/h.</desc>
<speed>4.290000</speed>
</trkpt>
<trkpt lat="55.736084" lon="26.202183">
<ele>146.095825</ele>
<time>2010-07-18T07:04:56Z</time>
<desc>lat.=55.736084, lon.=26.202183, Alt.=146.095825m. Speed=13.356000m/h.</desc>
<speed>3.710000</speed>
</trkpt>
<trkpt lat="55.736084" lon="26.202248">
<ele>146.025513</ele>
<time>2010-07-18T07:04:57Z</time>
<desc>lat.=55.736084, lon.=26.202248, Alt.=146.025513m. Speed=12.168000m/h.</desc>
<speed>3.380000</speed>
</trkpt>
<trkpt lat="55.736076" lon="26.202314">
<ele>145.080200</ele>
<time>2010-07-18T07:04:58Z</time>
<desc>lat.=55.736076, lon.=26.202314, Alt.=145.080200m. Speed=13.968000m/h.</desc>
<speed>3.880000</speed>
</trkpt>
<trkpt lat="55.736073" lon="26.202383">
<ele>143.541138</ele>
<time>2010-07-18T07:04:59Z</time>
<desc>lat.=55.736073, lon.=26.202383, Alt.=143.541138m. Speed=13.896000m/h.</desc>
<speed>3.860000</speed>
</trkpt>
<trkpt lat="55.736053" lon="26.202448">
<ele>141.447388</ele>
<time>2010-07-18T07:05:00Z</time>
<desc>lat.=55.736053, lon.=26.202448, Alt.=141.447388m. Speed=12.960000m/h.</desc>
<speed>3.600000</speed>
</trkpt>
<trkpt lat="55.736046" lon="26.202515">
<ele>140.478638</ele>
<time>2010-07-18T07:05:01Z</time>
<desc>lat.=55.736046, lon.=26.202515, Alt.=140.478638m. Speed=13.104000m/h.</desc>
<speed>3.640000</speed>
</trkpt>
<trkpt lat="55.736046" lon="26.202583">
<ele>139.802856</ele>
<time>2010-07-18T07:05:02Z</time>
<desc>lat.=55.736046, lon.=26.202583, Alt.=139.802856m. Speed=13.716000m/h.</desc>
<speed>3.810000</speed>
</trkpt>
<trkpt lat="55.736050" lon="26.202650">
<ele>139.189575</ele>
<time>2010-07-18T07:05:03Z</time>
<desc>lat.=55.736050, lon.=26.202650, Alt.=139.189575m. Speed=12.708000m/h.</desc>
<speed>3.530000</speed>
</trkpt>
<trkpt lat="55.736050" lon="26.202723">
<ele>138.810669</ele>
<time>2010-07-18T07:05:04Z</time>
<desc>lat.=55.736050, lon.=26.202723, Alt.=138.810669m. Speed=13.392000m/h.</desc>
<speed>3.720000</speed>
</trkpt>
<trkpt lat="55.736046" lon="26.202789">
<ele>138.029419</ele>
<time>2010-07-18T07:05:05Z</time>
<desc>lat.=55.736046, lon.=26.202789, Alt.=138.029419m. Speed=13.032000m/h.</desc>
<speed>3.620000</speed>
</trkpt>
<trkpt lat="55.736050" lon="26.202858">
<ele>137.338013</ele>
<time>2010-07-18T07:05:06Z</time>
<desc>lat.=55.736050, lon.=26.202858, Alt.=137.338013m. Speed=14.040000m/h.</desc>
<speed>3.900000</speed>
</trkpt>
<trkpt lat="55.736050" lon="26.202934">
<ele>137.435669</ele>
<time>2010-07-18T07:05:07Z</time>
<desc>lat.=55.736050, lon.=26.202934, Alt.=137.435669m. Speed=13.824000m/h.</desc>
<speed>3.840000</speed>
</trkpt>
<trkpt lat="55.736042" lon="26.203020">
<ele>137.162231</ele>
<time>2010-07-18T07:05:08Z</time>
<desc>lat.=55.736042, lon.=26.203020, Alt.=137.162231m. Speed=15.012000m/h.</desc>
<speed>4.170000</speed>
</trkpt>
<trkpt lat="55.736057" lon="26.203100">
<ele>136.130981</ele>
<time>2010-07-18T07:05:09Z</time>
<desc>lat.=55.736057, lon.=26.203100, Alt.=136.130981m. Speed=14.508000m/h.</desc>
<speed>4.030000</speed>
</trkpt>
<trkpt lat="55.736069" lon="26.203190">
<ele>135.443481</ele>
<time>2010-07-18T07:05:10Z</time>
<desc>lat.=55.736069, lon.=26.203190, Alt.=135.443481m. Speed=18.288000m/h.</desc>
<speed>5.080000</speed>
</trkpt>
<trkpt lat="55.736080" lon="26.203278">
<ele>135.447388</ele>
<time>2010-07-18T07:05:11Z</time>
<desc>lat.=55.736080, lon.=26.203278, Alt.=135.447388m. Speed=18.756001m/h.</desc>
<speed>5.210000</speed>
</trkpt>
<trkpt lat="55.736080" lon="26.203373">
<ele>135.435669</ele>
<time>2010-07-18T07:05:12Z</time>
<desc>lat.=55.736080, lon.=26.203373, Alt.=135.435669m. Speed=19.296000m/h.</desc>
<speed>5.360000</speed>
</trkpt>
<trkpt lat="55.736076" lon="26.203474">
<ele>135.103638</ele>
<time>2010-07-18T07:05:13Z</time>
<desc>lat.=55.736076, lon.=26.203474, Alt.=135.103638m. Speed=20.124001m/h.</desc>
<speed>5.590000</speed>
</trkpt>
<trkpt lat="55.736076" lon="26.203573">
<ele>135.513794</ele>
<time>2010-07-18T07:05:14Z</time>
<desc>lat.=55.736076, lon.=26.203573, Alt.=135.513794m. Speed=20.412001m/h.</desc>
<speed>5.670000</speed>
</trkpt>
<trkpt lat="55.736076" lon="26.203669">
<ele>135.896606</ele>
<time>2010-07-18T07:05:15Z</time>
<desc>lat.=55.736076, lon.=26.203669, Alt.=135.896606m. Speed=19.476000m/h.</desc>
<speed>5.410000</speed>
</trkpt>
<trkpt lat="55.736080" lon="26.203773">
<ele>135.990356</ele>
<time>2010-07-18T07:05:16Z</time>
<desc>lat.=55.736080, lon.=26.203773, Alt.=135.990356m. Speed=21.492001m/h.</desc>
<speed>5.970000</speed>
</trkpt>
<trkpt lat="55.736080" lon="26.203875">
<ele>136.287231</ele>
<time>2010-07-18T07:05:17Z</time>
<desc>lat.=55.736080, lon.=26.203875, Alt.=136.287231m. Speed=21.384001m/h.</desc>
<speed>5.940000</speed>
</trkpt>
<trkpt lat="55.736080" lon="26.203983">
<ele>136.509888</ele>
<time>2010-07-18T07:05:18Z</time>
<desc>lat.=55.736080, lon.=26.203983, Alt.=136.509888m. Speed=22.931999m/h.</desc>
<speed>6.370000</speed>
</trkpt>
<trkpt lat="55.736076" lon="26.204098">
<ele>136.420044</ele>
<time>2010-07-18T07:05:19Z</time>
<desc>lat.=55.736076, lon.=26.204098, Alt.=136.420044m. Speed=24.768000m/h.</desc>
<speed>6.880000</speed>
</trkpt>
<trkpt lat="55.736076" lon="26.204212">
<ele>136.416138</ele>
<time>2010-07-18T07:05:20Z</time>
<desc>lat.=55.736076, lon.=26.204212, Alt.=136.416138m. Speed=25.452000m/h.</desc>
<speed>7.070000</speed>
</trkpt>
<trkpt lat="55.736076" lon="26.204336">
<ele>136.349731</ele>
<time>2010-07-18T07:05:21Z</time>
<desc>lat.=55.736076, lon.=26.204336, Alt.=136.349731m. Speed=26.424000m/h.</desc>
<speed>7.340000</speed>
</trkpt>
<trkpt lat="55.736088" lon="26.204458">
<ele>134.963013</ele>
<time>2010-07-18T07:05:22Z</time>
<desc>lat.=55.736088, lon.=26.204458, Alt.=134.963013m. Speed=26.639999m/h.</desc>
<speed>7.400000</speed>
</trkpt>
<trkpt lat="55.736099" lon="26.204582">
<ele>134.576294</ele>
<time>2010-07-18T07:05:23Z</time>
<desc>lat.=55.736099, lon.=26.204582, Alt.=134.576294m. Speed=27.431999m/h.</desc>
<speed>7.620000</speed>
</trkpt>
<trkpt lat="55.736095" lon="26.204710">
<ele>134.201294</ele>
<time>2010-07-18T07:05:24Z</time>
<desc>lat.=55.736095, lon.=26.204710, Alt.=134.201294m. Speed=28.152000m/h.</desc>
<speed>7.820000</speed>
</trkpt>
<trkpt lat="55.736103" lon="26.204847">
<ele>135.330200</ele>
<time>2010-07-18T07:05:25Z</time>
<desc>lat.=55.736103, lon.=26.204847, Alt.=135.330200m. Speed=29.340000m/h.</desc>
<speed>8.150000</speed>
</trkpt>
<trkpt lat="55.736099" lon="26.204985">
<ele>135.826294</ele>
<time>2010-07-18T07:05:26Z</time>
<desc>lat.=55.736099, lon.=26.204985, Alt.=135.826294m. Speed=29.808001m/h.</desc>
<speed>8.280000</speed>
</trkpt>
<trkpt lat="55.736095" lon="26.205120">
<ele>136.103638</ele>
<time>2010-07-18T07:05:27Z</time>
<desc>lat.=55.736095, lon.=26.205120, Alt.=136.103638m. Speed=30.275999m/h.</desc>
<speed>8.410000</speed>
</trkpt>
<trkpt lat="55.736095" lon="26.205259">
<ele>136.201294</ele>
<time>2010-07-18T07:05:28Z</time>
<desc>lat.=55.736095, lon.=26.205259, Alt.=136.201294m. Speed=30.420000m/h.</desc>
<speed>8.450000</speed>
</trkpt>
<trkpt lat="55.736088" lon="26.205397">
<ele>135.818481</ele>
<time>2010-07-18T07:05:29Z</time>
<desc>lat.=55.736088, lon.=26.205397, Alt.=135.818481m. Speed=30.672001m/h.</desc>
<speed>8.520000</speed>
</trkpt>
<trkpt lat="55.736080" lon="26.205536">
<ele>135.591919</ele>
<time>2010-07-18T07:05:30Z</time>
<desc>lat.=55.736080, lon.=26.205536, Alt.=135.591919m. Speed=30.240000m/h.</desc>
<speed>8.400000</speed>
</trkpt>
<trkpt lat="55.736069" lon="26.205671">
<ele>134.857544</ele>
<time>2010-07-18T07:05:31Z</time>
<desc>lat.=55.736069, lon.=26.205671, Alt.=134.857544m. Speed=30.384001m/h.</desc>
<speed>8.440000</speed>
</trkpt>
<trkpt lat="55.736069" lon="26.205812">
<ele>134.947388</ele>
<time>2010-07-18T07:05:32Z</time>
<desc>lat.=55.736069, lon.=26.205812, Alt.=134.947388m. Speed=30.240000m/h.</desc>
<speed>8.400000</speed>
</trkpt>
<trkpt lat="55.736061" lon="26.205948">
<ele>134.537231</ele>
<time>2010-07-18T07:05:33Z</time>
<desc>lat.=55.736061, lon.=26.205948, Alt.=134.537231m. Speed=30.240000m/h.</desc>
<speed>8.400000</speed>
</trkpt>
<trkpt lat="55.736061" lon="26.206089">
<ele>134.709106</ele>
<time>2010-07-18T07:05:34Z</time>
<desc>lat.=55.736061, lon.=26.206089, Alt.=134.709106m. Speed=30.312000m/h.</desc>
<speed>8.420000</speed>
</trkpt>
<trkpt lat="55.736050" lon="26.206226">
<ele>134.029419</ele>
<time>2010-07-18T07:05:35Z</time>
<desc>lat.=55.736050, lon.=26.206226, Alt.=134.029419m. Speed=30.492001m/h.</desc>
<speed>8.470000</speed>
</trkpt>
<trkpt lat="55.736046" lon="26.206362">
<ele>133.595825</ele>
<time>2010-07-18T07:05:36Z</time>
<desc>lat.=55.736046, lon.=26.206362, Alt.=133.595825m. Speed=30.455999m/h.</desc>
<speed>8.460000</speed>
</trkpt>
<trkpt lat="55.736042" lon="26.206499">
<ele>133.021606</ele>
<time>2010-07-18T07:05:37Z</time>
<desc>lat.=55.736042, lon.=26.206499, Alt.=133.021606m. Speed=29.844000m/h.</desc>
<speed>8.290000</speed>
</trkpt>
<trkpt lat="55.736038" lon="26.206631">
<ele>133.060669</ele>
<time>2010-07-18T07:05:38Z</time>
<desc>lat.=55.736038, lon.=26.206631, Alt.=133.060669m. Speed=28.836000m/h.</desc>
<speed>8.010000</speed>
</trkpt>
<trkpt lat="55.736034" lon="26.206760">
<ele>132.904419</ele>
<time>2010-07-18T07:05:39Z</time>
<desc>lat.=55.736034, lon.=26.206760, Alt.=132.904419m. Speed=28.548000m/h.</desc>
<speed>7.930000</speed>
</trkpt>
<trkpt lat="55.736034" lon="26.206890">
<ele>132.763794</ele>
<time>2010-07-18T07:05:40Z</time>
<desc>lat.=55.736034, lon.=26.206890, Alt.=132.763794m. Speed=28.584000m/h.</desc>
<speed>7.940000</speed>
</trkpt>
<trkpt lat="55.736034" lon="26.207018">
<ele>132.689575</ele>
<time>2010-07-18T07:05:41Z</time>
<desc>lat.=55.736034, lon.=26.207018, Alt.=132.689575m. Speed=28.728001m/h.</desc>
<speed>7.980000</speed>
</trkpt>
<trkpt lat="55.736038" lon="26.207146">
<ele>133.025513</ele>
<time>2010-07-18T07:05:42Z</time>
<desc>lat.=55.736038, lon.=26.207146, Alt.=133.025513m. Speed=28.044001m/h.</desc>
<speed>7.790000</speed>
</trkpt>
<trkpt lat="55.736042" lon="26.207283">
<ele>133.701294</ele>
<time>2010-07-18T07:05:43Z</time>
<desc>lat.=55.736042, lon.=26.207283, Alt.=133.701294m. Speed=27.827999m/h.</desc>
<speed>7.730000</speed>
</trkpt>
<trkpt lat="55.736042" lon="26.207407">
<ele>133.494263</ele>
<time>2010-07-18T07:05:44Z</time>
<desc>lat.=55.736042, lon.=26.207407, Alt.=133.494263m. Speed=28.115999m/h.</desc>
<speed>7.810000</speed>
</trkpt>
<trkpt lat="55.736042" lon="26.207542">
<ele>133.888794</ele>
<time>2010-07-18T07:05:45Z</time>
<desc>lat.=55.736042, lon.=26.207542, Alt.=133.888794m. Speed=28.224001m/h.</desc>
<speed>7.840000</speed>
</trkpt>
<trkpt lat="55.736038" lon="26.207674">
<ele>133.787231</ele>
<time>2010-07-18T07:05:46Z</time>
<desc>lat.=55.736038, lon.=26.207674, Alt.=133.787231m. Speed=28.368000m/h.</desc>
<speed>7.880000</speed>
</trkpt>
<trkpt lat="55.736034" lon="26.207796">
<ele>133.502075</ele>
<time>2010-07-18T07:05:47Z</time>
<desc>lat.=55.736034, lon.=26.207796, Alt.=133.502075m. Speed=27.864000m/h.</desc>
<speed>7.740000</speed>
</trkpt>
<trkpt lat="55.736034" lon="26.207916">
<ele>132.779419</ele>
<time>2010-07-18T07:05:48Z</time>
<desc>lat.=55.736034, lon.=26.207916, Alt.=132.779419m. Speed=27.719999m/h.</desc>
<speed>7.700000</speed>
</trkpt>
<trkpt lat="55.736034" lon="26.208044">
<ele>132.654419</ele>
<time>2010-07-18T07:05:49Z</time>
<desc>lat.=55.736034, lon.=26.208044, Alt.=132.654419m. Speed=29.232000m/h.</desc>
<speed>8.120000</speed>
</trkpt>
<trkpt lat="55.736038" lon="26.208179">
<ele>132.537231</ele>
<time>2010-07-18T07:05:50Z</time>
<desc>lat.=55.736038, lon.=26.208179, Alt.=132.537231m. Speed=30.851999m/h.</desc>
<speed>8.570000</speed>
</trkpt>
<trkpt lat="55.736046" lon="26.208319">
<ele>132.357544</ele>
<time>2010-07-18T07:05:51Z</time>
<desc>lat.=55.736046, lon.=26.208319, Alt.=132.357544m. Speed=31.464001m/h.</desc>
<speed>8.740000</speed>
</trkpt>
<trkpt lat="55.736053" lon="26.208464">
<ele>132.095825</ele>
<time>2010-07-18T07:05:52Z</time>
<desc>lat.=55.736053, lon.=26.208464, Alt.=132.095825m. Speed=31.320000m/h.</desc>
<speed>8.700000</speed>
</trkpt>
<trkpt lat="55.736061" lon="26.208601">
<ele>131.853638</ele>
<time>2010-07-18T07:05:53Z</time>
<desc>lat.=55.736061, lon.=26.208601, Alt.=131.853638m. Speed=31.752001m/h.</desc>
<speed>8.820000</speed>
</trkpt>
<trkpt lat="55.736065" lon="26.208746">
<ele>131.767700</ele>
<time>2010-07-18T07:05:54Z</time>
<desc>lat.=55.736065, lon.=26.208746, Alt.=131.767700m. Speed=33.228001m/h.</desc>
<speed>9.230000</speed>
</trkpt>
<trkpt lat="55.736065" lon="26.208897">
<ele>131.630981</ele>
<time>2010-07-18T07:05:55Z</time>
<desc>lat.=55.736065, lon.=26.208897, Alt.=131.630981m. Speed=34.307999m/h.</desc>
<speed>9.530000</speed>
</trkpt>
<trkpt lat="55.736076" lon="26.209053">
<ele>131.689575</ele>
<time>2010-07-18T07:05:56Z</time>
<desc>lat.=55.736076, lon.=26.209053, Alt.=131.689575m. Speed=34.992001m/h.</desc>
<speed>9.720000</speed>
</trkpt>
<trkpt lat="55.736088" lon="26.209209">
<ele>131.353638</ele>
<time>2010-07-18T07:05:57Z</time>
<desc>lat.=55.736088, lon.=26.209209, Alt.=131.353638m. Speed=34.776001m/h.</desc>
<speed>9.660000</speed>
</trkpt>
<trkpt lat="55.736103" lon="26.209358">
<ele>131.084106</ele>
<time>2010-07-18T07:05:58Z</time>
<desc>lat.=55.736103, lon.=26.209358, Alt.=131.084106m. Speed=33.911999m/h.</desc>
<speed>9.420000</speed>
</trkpt>
<trkpt lat="55.736118" lon="26.209507">
<ele>130.880981</ele>
<time>2010-07-18T07:05:59Z</time>
<desc>lat.=55.736118, lon.=26.209507, Alt.=130.880981m. Speed=33.119999m/h.</desc>
<speed>9.200000</speed>
</trkpt>
<trkpt lat="55.736134" lon="26.209650">
<ele>130.795044</ele>
<time>2010-07-18T07:06:00Z</time>
<desc>lat.=55.736134, lon.=26.209650, Alt.=130.795044m. Speed=32.363998m/h.</desc>
<speed>8.990000</speed>
</trkpt>
<trkpt lat="55.736153" lon="26.209795">
<ele>131.130981</ele>
<time>2010-07-18T07:06:01Z</time>
<desc>lat.=55.736153, lon.=26.209795, Alt.=131.130981m. Speed=31.643999m/h.</desc>
<speed>8.790000</speed>
</trkpt>
<trkpt lat="55.736172" lon="26.209934">
<ele>131.877075</ele>
<time>2010-07-18T07:06:02Z</time>
<desc>lat.=55.736172, lon.=26.209934, Alt.=131.877075m. Speed=31.068001m/h.</desc>
<speed>8.630000</speed>
</trkpt>
<trkpt lat="55.736187" lon="26.210070">
<ele>131.974731</ele>
<time>2010-07-18T07:06:03Z</time>
<desc>lat.=55.736187, lon.=26.210070, Alt.=131.974731m. Speed=30.167999m/h.</desc>
<speed>8.380000</speed>
</trkpt>
<trkpt lat="55.736202" lon="26.210203">
<ele>131.834106</ele>
<time>2010-07-18T07:06:04Z</time>
<desc>lat.=55.736202, lon.=26.210203, Alt.=131.834106m. Speed=29.771999m/h.</desc>
<speed>8.270000</speed>
</trkpt>
<trkpt lat="55.736217" lon="26.210333">
<ele>131.865356</ele>
<time>2010-07-18T07:06:05Z</time>
<desc>lat.=55.736217, lon.=26.210333, Alt.=131.865356m. Speed=29.916000m/h.</desc>
<speed>8.310000</speed>
</trkpt>
<trkpt lat="55.736233" lon="26.210466">
<ele>132.033325</ele>
<time>2010-07-18T07:06:06Z</time>
<desc>lat.=55.736233, lon.=26.210466, Alt.=132.033325m. Speed=30.204000m/h.</desc>
<speed>8.390000</speed>
</trkpt>
<trkpt lat="55.736252" lon="26.210594">
<ele>131.877075</ele>
<time>2010-07-18T07:06:07Z</time>
<desc>lat.=55.736252, lon.=26.210594, Alt.=131.877075m. Speed=30.348000m/h.</desc>
<speed>8.430000</speed>
</trkpt>
<trkpt lat="55.736267" lon="26.210728">
<ele>132.154419</ele>
<time>2010-07-18T07:06:08Z</time>
<desc>lat.=55.736267, lon.=26.210728, Alt.=132.154419m. Speed=30.636000m/h.</desc>
<speed>8.510000</speed>
</trkpt>
<trkpt lat="55.736290" lon="26.210859">
<ele>132.099731</ele>
<time>2010-07-18T07:06:09Z</time>
<desc>lat.=55.736290, lon.=26.210859, Alt.=132.099731m. Speed=30.420000m/h.</desc>
<speed>8.450000</speed>
</trkpt>
<trkpt lat="55.736301" lon="26.210993">
<ele>132.646606</ele>
<time>2010-07-18T07:06:10Z</time>
<desc>lat.=55.736301, lon.=26.210993, Alt.=132.646606m. Speed=29.700001m/h.</desc>
<speed>8.250000</speed>
</trkpt>
<trkpt lat="55.736317" lon="26.211121">
<ele>132.752075</ele>
<time>2010-07-18T07:06:11Z</time>
<desc>lat.=55.736317, lon.=26.211121, Alt.=132.752075m. Speed=28.836000m/h.</desc>
<speed>8.010000</speed>
</trkpt>
<trkpt lat="55.736332" lon="26.211241">
<ele>132.775513</ele>
<time>2010-07-18T07:06:12Z</time>
<desc>lat.=55.736332, lon.=26.211241, Alt.=132.775513m. Speed=28.007999m/h.</desc>
<speed>7.780000</speed>
</trkpt>
<trkpt lat="55.736347" lon="26.211363">
<ele>133.138794</ele>
<time>2010-07-18T07:06:13Z</time>
<desc>lat.=55.736347, lon.=26.211363, Alt.=133.138794m. Speed=27.288000m/h.</desc>
<speed>7.580000</speed>
</trkpt>
<trkpt lat="55.736366" lon="26.211481">
<ele>133.353638</ele>
<time>2010-07-18T07:06:14Z</time>
<desc>lat.=55.736366, lon.=26.211481, Alt.=133.353638m. Speed=26.532000m/h.</desc>
<speed>7.370000</speed>
</trkpt>
<trkpt lat="55.736378" lon="26.211596">
<ele>133.349731</ele>
<time>2010-07-18T07:06:15Z</time>
<desc>lat.=55.736378, lon.=26.211596, Alt.=133.349731m. Speed=26.316000m/h.</desc>
<speed>7.310000</speed>
</trkpt>
<trkpt lat="55.736397" lon="26.211708">
<ele>133.416138</ele>
<time>2010-07-18T07:06:16Z</time>
<desc>lat.=55.736397, lon.=26.211708, Alt.=133.416138m. Speed=26.532000m/h.</desc>
<speed>7.370000</speed>
</trkpt>
<trkpt lat="55.736412" lon="26.211823">
<ele>133.373169</ele>
<time>2010-07-18T07:06:17Z</time>
<desc>lat.=55.736412, lon.=26.211823, Alt.=133.373169m. Speed=26.459999m/h.</desc>
<speed>7.350000</speed>
</trkpt>
<trkpt lat="55.736427" lon="26.211935">
<ele>132.990356</ele>
<time>2010-07-18T07:06:18Z</time>
<desc>lat.=55.736427, lon.=26.211935, Alt.=132.990356m. Speed=26.532000m/h.</desc>
<speed>7.370000</speed>
</trkpt>
<trkpt lat="55.736443" lon="26.212051">
<ele>133.060669</ele>
<time>2010-07-18T07:06:19Z</time>
<desc>lat.=55.736443, lon.=26.212051, Alt.=133.060669m. Speed=26.459999m/h.</desc>
<speed>7.350000</speed>
</trkpt>
<trkpt lat="55.736462" lon="26.212166">
<ele>133.048950</ele>
<time>2010-07-18T07:06:20Z</time>
<desc>lat.=55.736462, lon.=26.212166, Alt.=133.048950m. Speed=26.243999m/h.</desc>
<speed>7.290000</speed>
</trkpt>
<trkpt lat="55.736477" lon="26.212280">
<ele>133.431763</ele>
<time>2010-07-18T07:06:21Z</time>
<desc>lat.=55.736477, lon.=26.212280, Alt.=133.431763m. Speed=26.208000m/h.</desc>
<speed>7.280000</speed>
</trkpt>
<trkpt lat="55.736488" lon="26.212393">
<ele>133.162231</ele>
<time>2010-07-18T07:06:22Z</time>
<desc>lat.=55.736488, lon.=26.212393, Alt.=133.162231m. Speed=26.208000m/h.</desc>
<speed>7.280000</speed>
</trkpt>
<trkpt lat="55.736504" lon="26.212505">
<ele>132.892700</ele>
<time>2010-07-18T07:06:23Z</time>
<desc>lat.=55.736504, lon.=26.212505, Alt.=132.892700m. Speed=26.243999m/h.</desc>
<speed>7.290000</speed>
</trkpt>
<trkpt lat="55.736511" lon="26.212614">
<ele>131.904419</ele>
<time>2010-07-18T07:06:24Z</time>
<desc>lat.=55.736511, lon.=26.212614, Alt.=131.904419m. Speed=26.351999m/h.</desc>
<speed>7.320000</speed>
</trkpt>
<trkpt lat="55.736526" lon="26.212721">
<ele>130.865356</ele>
<time>2010-07-18T07:06:25Z</time>
<desc>lat.=55.736526, lon.=26.212721, Alt.=130.865356m. Speed=26.388000m/h.</desc>
<speed>7.330000</speed>
</trkpt>
<trkpt lat="55.736538" lon="26.212828">
<ele>129.767700</ele>
<time>2010-07-18T07:06:26Z</time>
<desc>lat.=55.736538, lon.=26.212828, Alt.=129.767700m. Speed=26.280001m/h.</desc>
<speed>7.300000</speed>
</trkpt>
<trkpt lat="55.736549" lon="26.212938">
<ele>128.990356</ele>
<time>2010-07-18T07:06:27Z</time>
<desc>lat.=55.736549, lon.=26.212938, Alt.=128.990356m. Speed=26.604000m/h.</desc>
<speed>7.390000</speed>
</trkpt>
<trkpt lat="55.736565" lon="26.213053">
<ele>128.314575</ele>
<time>2010-07-18T07:06:28Z</time>
<desc>lat.=55.736565, lon.=26.213053, Alt.=128.314575m. Speed=26.927999m/h.</desc>
<speed>7.480000</speed>
</trkpt>
<trkpt lat="55.736580" lon="26.213169">
<ele>127.317444</ele>
<time>2010-07-18T07:06:29Z</time>
<desc>lat.=55.736580, lon.=26.213169, Alt.=127.317444m. Speed=27.360001m/h.</desc>
<speed>7.600000</speed>
</trkpt>
<trkpt lat="55.736595" lon="26.213291">
<ele>128.392700</ele>
<time>2010-07-18T07:06:30Z</time>
<desc>lat.=55.736595, lon.=26.213291, Alt.=128.392700m. Speed=27.540001m/h.</desc>
<speed>7.650000</speed>
</trkpt>
<trkpt lat="55.736610" lon="26.213413">
<ele>128.478638</ele>
<time>2010-07-18T07:06:31Z</time>
<desc>lat.=55.736610, lon.=26.213413, Alt.=128.478638m. Speed=27.540001m/h.</desc>
<speed>7.650000</speed>
</trkpt>
<trkpt lat="55.736622" lon="26.213533">
<ele>128.314575</ele>
<time>2010-07-18T07:06:32Z</time>
<desc>lat.=55.736622, lon.=26.213533, Alt.=128.314575m. Speed=27.396000m/h.</desc>
<speed>7.610000</speed>
</trkpt>
<trkpt lat="55.736641" lon="26.213652">
<ele>128.392700</ele>
<time>2010-07-18T07:06:33Z</time>
<desc>lat.=55.736641, lon.=26.213652, Alt.=128.392700m. Speed=26.927999m/h.</desc>
<speed>7.480000</speed>
</trkpt>
<trkpt lat="55.736656" lon="26.213768">
<ele>128.541138</ele>
<time>2010-07-18T07:06:34Z</time>
<desc>lat.=55.736656, lon.=26.213768, Alt.=128.541138m. Speed=26.063999m/h.</desc>
<speed>7.240000</speed>
</trkpt>
<trkpt lat="55.736671" lon="26.213879">
<ele>128.697388</ele>
<time>2010-07-18T07:06:35Z</time>
<desc>lat.=55.736671, lon.=26.213879, Alt.=128.697388m. Speed=25.379999m/h.</desc>
<speed>7.050000</speed>
</trkpt>
<trkpt lat="55.736687" lon="26.213987">
<ele>129.318481</ele>
<time>2010-07-18T07:06:36Z</time>
<desc>lat.=55.736687, lon.=26.213987, Alt.=129.318481m. Speed=24.660000m/h.</desc>
<speed>6.850000</speed>
</trkpt>
<trkpt lat="55.736698" lon="26.214094">
<ele>129.736450</ele>
<time>2010-07-18T07:06:37Z</time>
<desc>lat.=55.736698, lon.=26.214094, Alt.=129.736450m. Speed=23.724001m/h.</desc>
<speed>6.590000</speed>
</trkpt>
<trkpt lat="55.736713" lon="26.214195">
<ele>129.838013</ele>
<time>2010-07-18T07:06:38Z</time>
<desc>lat.=55.736713, lon.=26.214195, Alt.=129.838013m. Speed=22.500000m/h.</desc>
<speed>6.250000</speed>
</trkpt>
<trkpt lat="55.736729" lon="26.214294">
<ele>130.287231</ele>
<time>2010-07-18T07:06:39Z</time>
<desc>lat.=55.736729, lon.=26.214294, Alt.=130.287231m. Speed=22.680000m/h.</desc>
<speed>6.300000</speed>
</trkpt>
<trkpt lat="55.736740" lon="26.214397">
<ele>131.248169</ele>
<time>2010-07-18T07:06:40Z</time>
<desc>lat.=55.736740, lon.=26.214397, Alt.=131.248169m. Speed=22.931999m/h.</desc>
<speed>6.370000</speed>
</trkpt>
<trkpt lat="55.736755" lon="26.214500">
<ele>131.880981</ele>
<time>2010-07-18T07:06:41Z</time>
<desc>lat.=55.736755, lon.=26.214500, Alt.=131.880981m. Speed=22.896000m/h.</desc>
<speed>6.360000</speed>
</trkpt>
<trkpt lat="55.736774" lon="26.214598">
<ele>132.146606</ele>
<time>2010-07-18T07:06:42Z</time>
<desc>lat.=55.736774, lon.=26.214598, Alt.=132.146606m. Speed=22.716000m/h.</desc>
<speed>6.310000</speed>
</trkpt>
<trkpt lat="55.736794" lon="26.214689">
<ele>131.427856</ele>
<time>2010-07-18T07:06:43Z</time>
<desc>lat.=55.736794, lon.=26.214689, Alt.=131.427856m. Speed=22.572001m/h.</desc>
<speed>6.270000</speed>
</trkpt>
<trkpt lat="55.736813" lon="26.214787">
<ele>131.400513</ele>
<time>2010-07-18T07:06:44Z</time>
<desc>lat.=55.736813, lon.=26.214787, Alt.=131.400513m. Speed=22.680000m/h.</desc>
<speed>6.300000</speed>
</trkpt>
<trkpt lat="55.736828" lon="26.214880">
<ele>131.505981</ele>
<time>2010-07-18T07:06:45Z</time>
<desc>lat.=55.736828, lon.=26.214880, Alt.=131.505981m. Speed=21.708000m/h.</desc>
<speed>6.030000</speed>
</trkpt>
<trkpt lat="55.736843" lon="26.214970">
<ele>131.037231</ele>
<time>2010-07-18T07:06:46Z</time>
<desc>lat.=55.736843, lon.=26.214970, Alt.=131.037231m. Speed=21.420000m/h.</desc>
<speed>5.950000</speed>
</trkpt>
<trkpt lat="55.736862" lon="26.215061">
<ele>131.072388</ele>
<time>2010-07-18T07:06:47Z</time>
<desc>lat.=55.736862, lon.=26.215061, Alt.=131.072388m. Speed=20.879999m/h.</desc>
<speed>5.800000</speed>
</trkpt>
<trkpt lat="55.736881" lon="26.215147">
<ele>131.412231</ele>
<time>2010-07-18T07:06:48Z</time>
<desc>lat.=55.736881, lon.=26.215147, Alt.=131.412231m. Speed=20.520000m/h.</desc>
<speed>5.700000</speed>
</trkpt>
<trkpt lat="55.736900" lon="26.215229">
<ele>130.916138</ele>
<time>2010-07-18T07:06:49Z</time>
<desc>lat.=55.736900, lon.=26.215229, Alt.=130.916138m. Speed=20.087999m/h.</desc>
<speed>5.580000</speed>
</trkpt>
<trkpt lat="55.736919" lon="26.215305">
<ele>130.634888</ele>
<time>2010-07-18T07:06:50Z</time>
<desc>lat.=55.736919, lon.=26.215305, Alt.=130.634888m. Speed=19.440001m/h.</desc>
<speed>5.400000</speed>
</trkpt>
<trkpt lat="55.736935" lon="26.215382">
<ele>130.400513</ele>
<time>2010-07-18T07:06:51Z</time>
<desc>lat.=55.736935, lon.=26.215382, Alt.=130.400513m. Speed=18.576000m/h.</desc>
<speed>5.160000</speed>
</trkpt>
<trkpt lat="55.736954" lon="26.215454">
<ele>130.650513</ele>
<time>2010-07-18T07:06:52Z</time>
<desc>lat.=55.736954, lon.=26.215454, Alt.=130.650513m. Speed=18.108000m/h.</desc>
<speed>5.030000</speed>
</trkpt>
<trkpt lat="55.736977" lon="26.215523">
<ele>130.463013</ele>
<time>2010-07-18T07:06:53Z</time>
<desc>lat.=55.736977, lon.=26.215523, Alt.=130.463013m. Speed=18.108000m/h.</desc>
<speed>5.030000</speed>
</trkpt>
<trkpt lat="55.737003" lon="26.215595">
<ele>130.548950</ele>
<time>2010-07-18T07:06:54Z</time>
<desc>lat.=55.737003, lon.=26.215595, Alt.=130.548950m. Speed=18.504000m/h.</desc>
<speed>5.140000</speed>
</trkpt>
<trkpt lat="55.737022" lon="26.215666">
<ele>130.220825</ele>
<time>2010-07-18T07:06:55Z</time>
<desc>lat.=55.737022, lon.=26.215666, Alt.=130.220825m. Speed=18.576000m/h.</desc>
<speed>5.160000</speed>
</trkpt>
<trkpt lat="55.737045" lon="26.215738">
<ele>130.505981</ele>
<time>2010-07-18T07:06:56Z</time>
<desc>lat.=55.737045, lon.=26.215738, Alt.=130.505981m. Speed=18.468000m/h.</desc>
<speed>5.130000</speed>
</trkpt>
<trkpt lat="55.737061" lon="26.215813">
<ele>129.947388</ele>
<time>2010-07-18T07:06:57Z</time>
<desc>lat.=55.737061, lon.=26.215813, Alt.=129.947388m. Speed=18.431999m/h.</desc>
<speed>5.120000</speed>
</trkpt>
<trkpt lat="55.737083" lon="26.215889">
<ele>129.912231</ele>
<time>2010-07-18T07:06:58Z</time>
<desc>lat.=55.737083, lon.=26.215889, Alt.=129.912231m. Speed=17.424000m/h.</desc>
<speed>4.840000</speed>
</trkpt>
<trkpt lat="55.737106" lon="26.215954">
<ele>130.115356</ele>
<time>2010-07-18T07:06:59Z</time>
<desc>lat.=55.737106, lon.=26.215954, Alt.=130.115356m. Speed=16.344000m/h.</desc>
<speed>4.540000</speed>
</trkpt>
<trkpt lat="55.737125" lon="26.216015">
<ele>130.252075</ele>
<time>2010-07-18T07:07:00Z</time>
<desc>lat.=55.737125, lon.=26.216015, Alt.=130.252075m. Speed=16.128000m/h.</desc>
<speed>4.480000</speed>
</trkpt>
<trkpt lat="55.737148" lon="26.216078">
<ele>130.662231</ele>
<time>2010-07-18T07:07:01Z</time>
<desc>lat.=55.737148, lon.=26.216078, Alt.=130.662231m. Speed=14.328000m/h.</desc>
<speed>3.980000</speed>
</trkpt>
<trkpt lat="55.737160" lon="26.216139">
<ele>130.701294</ele>
<time>2010-07-18T07:07:02Z</time>
<desc>lat.=55.737160, lon.=26.216139, Alt.=130.701294m. Speed=12.636000m/h.</desc>
<speed>3.510000</speed>
</trkpt>
<trkpt lat="55.737175" lon="26.216185">
<ele>130.830200</ele>
<time>2010-07-18T07:07:03Z</time>
<desc>lat.=55.737175, lon.=26.216185, Alt.=130.830200m. Speed=11.808000m/h.</desc>
<speed>3.280000</speed>
</trkpt>
<trkpt lat="55.737194" lon="26.216225">
<ele>130.787231</ele>
<time>2010-07-18T07:07:04Z</time>
<desc>lat.=55.737194, lon.=26.216225, Alt.=130.787231m. Speed=10.620000m/h.</desc>
<speed>2.950000</speed>
</trkpt>
<trkpt lat="55.737209" lon="26.216257">
<ele>130.920044</ele>
<time>2010-07-18T07:07:05Z</time>
<desc>lat.=55.737209, lon.=26.216257, Alt.=130.920044m. Speed=8.424000m/h.</desc>
<speed>2.340000</speed>
</trkpt>
<trkpt lat="55.737209" lon="26.216282">
<ele>129.912231</ele>
<time>2010-07-18T07:07:06Z</time>
<desc>lat.=55.737209, lon.=26.216282, Alt.=129.912231m. Speed=7.740000m/h.</desc>
<speed>2.150000</speed>
</trkpt>
<trkpt lat="55.737217" lon="26.216311">
<ele>129.689575</ele>
<time>2010-07-18T07:07:07Z</time>
<desc>lat.=55.737217, lon.=26.216311, Alt.=129.689575m. Speed=6.300000m/h.</desc>
<speed>1.750000</speed>
</trkpt>
<trkpt lat="55.737225" lon="26.216330">
<ele>129.783325</ele>
<time>2010-07-18T07:07:08Z</time>
<desc>lat.=55.737225, lon.=26.216330, Alt.=129.783325m. Speed=4.500000m/h.</desc>
<speed>1.250000</speed>
</trkpt>
<trkpt lat="55.737225" lon="26.216331">
<ele>129.338013</ele>
<time>2010-07-18T07:07:09Z</time>
<desc>lat.=55.737225, lon.=26.216331, Alt.=129.338013m. Speed=1.836000m/h.</desc>
<speed>0.510000</speed>
</trkpt>
<trkpt lat="55.737228" lon="26.216330">
<ele>129.412231</ele>
<time>2010-07-18T07:07:10Z</time>
<desc>lat.=55.737228, lon.=26.216330, Alt.=129.412231m. Speed=0.468000m/h.</desc>
<speed>0.130000</speed>
</trkpt>
<trkpt lat="55.737232" lon="26.216318">
<ele>129.818481</ele>
<time>2010-07-18T07:07:11Z</time>
<desc>lat.=55.737232, lon.=26.216318, Alt.=129.818481m. Speed=0.252000m/h.</desc>
<speed>0.070000</speed>
</trkpt>
<trkpt lat="55.737236" lon="26.216309">
<ele>130.013794</ele>
<time>2010-07-18T07:07:12Z</time>
<desc>lat.=55.737236, lon.=26.216309, Alt.=130.013794m. Speed=0.432000m/h.</desc>
<speed>0.120000</speed>
</trkpt>
<trkpt lat="55.737236" lon="26.216307">
<ele>129.986450</ele>
<time>2010-07-18T07:07:13Z</time>
<desc>lat.=55.737236, lon.=26.216307, Alt.=129.986450m. Speed=0.072000m/h.</desc>
<speed>0.020000</speed>
</trkpt>
<trkpt lat="55.737236" lon="26.216307">
<ele>129.966919</ele>
<time>2010-07-18T07:07:14Z</time>
<desc>lat.=55.737236, lon.=26.216307, Alt.=129.966919m. Speed=1.368000m/h.</desc>
<speed>0.380000</speed>
</trkpt>
<trkpt lat="55.737240" lon="26.216311">
<ele>129.947388</ele>
<time>2010-07-18T07:07:15Z</time>
<desc>lat.=55.737240, lon.=26.216311, Alt.=129.947388m. Speed=2.088000m/h.</desc>
<speed>0.580000</speed>
</trkpt>
<trkpt lat="55.737244" lon="26.216318">
<ele>129.931763</ele>
<time>2010-07-18T07:07:16Z</time>
<desc>lat.=55.737244, lon.=26.216318, Alt.=129.931763m. Speed=2.844000m/h.</desc>
<speed>0.790000</speed>
</trkpt>
<trkpt lat="55.737244" lon="26.216330">
<ele>129.912231</ele>
<time>2010-07-18T07:07:17Z</time>
<desc>lat.=55.737244, lon.=26.216330, Alt.=129.912231m. Speed=4.608000m/h.</desc>
<speed>1.280000</speed>
</trkpt>
<trkpt lat="55.737247" lon="26.216356">
<ele>130.138794</ele>
<time>2010-07-18T07:07:18Z</time>
<desc>lat.=55.737247, lon.=26.216356, Alt.=130.138794m. Speed=5.364000m/h.</desc>
<speed>1.490000</speed>
</trkpt>
<trkpt lat="55.737247" lon="26.216385">
<ele>130.127075</ele>
<time>2010-07-18T07:07:19Z</time>
<desc>lat.=55.737247, lon.=26.216385, Alt.=130.127075m. Speed=6.624000m/h.</desc>
<speed>1.840000</speed>
</trkpt>
<trkpt lat="55.737255" lon="26.216410">
<ele>130.177856</ele>
<time>2010-07-18T07:07:20Z</time>
<desc>lat.=55.737255, lon.=26.216410, Alt.=130.177856m. Speed=6.696000m/h.</desc>
<speed>1.860000</speed>
</trkpt>
<trkpt lat="55.737251" lon="26.216444">
<ele>130.314575</ele>
<time>2010-07-18T07:07:21Z</time>
<desc>lat.=55.737251, lon.=26.216444, Alt.=130.314575m. Speed=7.632000m/h.</desc>
<speed>2.120000</speed>
</trkpt>
<trkpt lat="55.737244" lon="26.216476">
<ele>130.439575</ele>
<time>2010-07-18T07:07:22Z</time>
<desc>lat.=55.737244, lon.=26.216476, Alt.=130.439575m. Speed=9.288000m/h.</desc>
<speed>2.580000</speed>
</trkpt>
<trkpt lat="55.737228" lon="26.216516">
<ele>130.611450</ele>
<time>2010-07-18T07:07:23Z</time>
<desc>lat.=55.737228, lon.=26.216516, Alt.=130.611450m. Speed=10.512000m/h.</desc>
<speed>2.920000</speed>
</trkpt>
<trkpt lat="55.737217" lon="26.216578">
<ele>131.302856</ele>
<time>2010-07-18T07:07:24Z</time>
<desc>lat.=55.737217, lon.=26.216578, Alt.=131.302856m. Speed=11.628000m/h.</desc>
<speed>3.230000</speed>
</trkpt>
<trkpt lat="55.737206" lon="26.216629">
<ele>131.322388</ele>
<time>2010-07-18T07:07:25Z</time>
<desc>lat.=55.737206, lon.=26.216629, Alt.=131.322388m. Speed=10.692000m/h.</desc>
<speed>2.970000</speed>
</trkpt>
<trkpt lat="55.737202" lon="26.216681">
<ele>130.857544</ele>
<time>2010-07-18T07:07:26Z</time>
<desc>lat.=55.737202, lon.=26.216681, Alt.=130.857544m. Speed=12.240000m/h.</desc>
<speed>3.400000</speed>
</trkpt>
<trkpt lat="55.737194" lon="26.216732">
<ele>131.009888</ele>
<time>2010-07-18T07:07:27Z</time>
<desc>lat.=55.737194, lon.=26.216732, Alt.=131.009888m. Speed=12.996000m/h.</desc>
<speed>3.610000</speed>
</trkpt>
<trkpt lat="55.737175" lon="26.216787">
<ele>130.482544</ele>
<time>2010-07-18T07:07:28Z</time>
<desc>lat.=55.737175, lon.=26.216787, Alt.=130.482544m. Speed=12.240000m/h.</desc>
<speed>3.400000</speed>
</trkpt>
<trkpt lat="55.737164" lon="26.216845">
<ele>130.755981</ele>
<time>2010-07-18T07:07:29Z</time>
<desc>lat.=55.737164, lon.=26.216845, Alt.=130.755981m. Speed=12.204000m/h.</desc>
<speed>3.390000</speed>
</trkpt>
<trkpt lat="55.737148" lon="26.216896">
<ele>130.693481</ele>
<time>2010-07-18T07:07:30Z</time>
<desc>lat.=55.737148, lon.=26.216896, Alt.=130.693481m. Speed=13.932000m/h.</desc>
<speed>3.870000</speed>
</trkpt>
<trkpt lat="55.737133" lon="26.216957">
<ele>130.474731</ele>
<time>2010-07-18T07:07:31Z</time>
<desc>lat.=55.737133, lon.=26.216957, Alt.=130.474731m. Speed=15.768000m/h.</desc>
<speed>4.380000</speed>
</trkpt>
<trkpt lat="55.737122" lon="26.217030">
<ele>130.666138</ele>
<time>2010-07-18T07:07:32Z</time>
<desc>lat.=55.737122, lon.=26.217030, Alt.=130.666138m. Speed=16.271999m/h.</desc>
<speed>4.520000</speed>
</trkpt>
<trkpt lat="55.737106" lon="26.217096">
<ele>130.189575</ele>
<time>2010-07-18T07:07:33Z</time>
<desc>lat.=55.737106, lon.=26.217096, Alt.=130.189575m. Speed=15.696000m/h.</desc>
<speed>4.360000</speed>
</trkpt>
<trkpt lat="55.737095" lon="26.217165">
<ele>130.627075</ele>
<time>2010-07-18T07:07:34Z</time>
<desc>lat.=55.737095, lon.=26.217165, Alt.=130.627075m. Speed=15.300000m/h.</desc>
<speed>4.250000</speed>
</trkpt>
<trkpt lat="55.737080" lon="26.217228">
<ele>130.486450</ele>
<time>2010-07-18T07:07:35Z</time>
<desc>lat.=55.737080, lon.=26.217228, Alt.=130.486450m. Speed=15.804000m/h.</desc>
<speed>4.390000</speed>
</trkpt>
<trkpt lat="55.737064" lon="26.217297">
<ele>130.275513</ele>
<time>2010-07-18T07:07:36Z</time>
<desc>lat.=55.737064, lon.=26.217297, Alt.=130.275513m. Speed=16.884001m/h.</desc>
<speed>4.690000</speed>
</trkpt>
<trkpt lat="55.737049" lon="26.217371">
<ele>129.947388</ele>
<time>2010-07-18T07:07:37Z</time>
<desc>lat.=55.737049, lon.=26.217371, Alt.=129.947388m. Speed=16.775999m/h.</desc>
<speed>4.660000</speed>
</trkpt>
<trkpt lat="55.737038" lon="26.217442">
<ele>129.947388</ele>
<time>2010-07-18T07:07:38Z</time>
<desc>lat.=55.737038, lon.=26.217442, Alt.=129.947388m. Speed=17.568001m/h.</desc>
<speed>4.880000</speed>
</trkpt>
<trkpt lat="55.737022" lon="26.217514">
<ele>129.713013</ele>
<time>2010-07-18T07:07:39Z</time>
<desc>lat.=55.737022, lon.=26.217514, Alt.=129.713013m. Speed=17.028000m/h.</desc>
<speed>4.730000</speed>
</trkpt>
<trkpt lat="55.737007" lon="26.217583">
<ele>129.513794</ele>
<time>2010-07-18T07:07:40Z</time>
<desc>lat.=55.737007, lon.=26.217583, Alt.=129.513794m. Speed=16.667999m/h.</desc>
<speed>4.630000</speed>
</trkpt>
<trkpt lat="55.736996" lon="26.217653">
<ele>129.400513</ele>
<time>2010-07-18T07:07:41Z</time>
<desc>lat.=55.736996, lon.=26.217653, Alt.=129.400513m. Speed=16.091999m/h.</desc>
<speed>4.470000</speed>
</trkpt>
<trkpt lat="55.736984" lon="26.217720">
<ele>129.189575</ele>
<time>2010-07-18T07:07:42Z</time>
<desc>lat.=55.736984, lon.=26.217720, Alt.=129.189575m. Speed=15.120000m/h.</desc>
<speed>4.200000</speed>
</trkpt>
<trkpt lat="55.736973" lon="26.217783">
<ele>128.404419</ele>
<time>2010-07-18T07:07:43Z</time>
<desc>lat.=55.736973, lon.=26.217783, Alt.=128.404419m. Speed=14.796000m/h.</desc>
<speed>4.110000</speed>
</trkpt>
<trkpt lat="55.736958" lon="26.217842">
<ele>128.181763</ele>
<time>2010-07-18T07:07:44Z</time>
<desc>lat.=55.736958, lon.=26.217842, Alt.=128.181763m. Speed=14.076000m/h.</desc>
<speed>3.910000</speed>
</trkpt>
<trkpt lat="55.736946" lon="26.217903">
<ele>127.922913</ele>
<time>2010-07-18T07:07:45Z</time>
<desc>lat.=55.736946, lon.=26.217903, Alt.=127.922913m. Speed=13.392000m/h.</desc>
<speed>3.720000</speed>
</trkpt>
<trkpt lat="55.736935" lon="26.217957">
<ele>128.060669</ele>
<time>2010-07-18T07:07:46Z</time>
<desc>lat.=55.736935, lon.=26.217957, Alt.=128.060669m. Speed=12.420000m/h.</desc>
<speed>3.450000</speed>
</trkpt>
<trkpt lat="55.736931" lon="26.218004">
<ele>128.029419</ele>
<time>2010-07-18T07:07:47Z</time>
<desc>lat.=55.736931, lon.=26.218004, Alt.=128.029419m. Speed=10.980000m/h.</desc>
<speed>3.050000</speed>
</trkpt>
<trkpt lat="55.736919" lon="26.218050">
<ele>128.224731</ele>
<time>2010-07-18T07:07:48Z</time>
<desc>lat.=55.736919, lon.=26.218050, Alt.=128.224731m. Speed=10.836000m/h.</desc>
<speed>3.010000</speed>
</trkpt>
<trkpt lat="55.736912" lon="26.218096">
<ele>128.345825</ele>
<time>2010-07-18T07:07:49Z</time>
<desc>lat.=55.736912, lon.=26.218096, Alt.=128.345825m. Speed=10.584000m/h.</desc>
<speed>2.940000</speed>
</trkpt>
<trkpt lat="55.736900" lon="26.218142">
<ele>128.670044</ele>
<time>2010-07-18T07:07:50Z</time>
<desc>lat.=55.736900, lon.=26.218142, Alt.=128.670044m. Speed=12.312000m/h.</desc>
<speed>3.420000</speed>
</trkpt>
<trkpt lat="55.736885" lon="26.218195">
<ele>128.728638</ele>
<time>2010-07-18T07:07:51Z</time>
<desc>lat.=55.736885, lon.=26.218195, Alt.=128.728638m. Speed=12.960000m/h.</desc>
<speed>3.600000</speed>
</trkpt>
<trkpt lat="55.736874" lon="26.218248">
<ele>128.341919</ele>
<time>2010-07-18T07:07:52Z</time>
<desc>lat.=55.736874, lon.=26.218248, Alt.=128.341919m. Speed=13.716000m/h.</desc>
<speed>3.810000</speed>
</trkpt>
<trkpt lat="55.736862" lon="26.218307">
<ele>128.338013</ele>
<time>2010-07-18T07:07:53Z</time>
<desc>lat.=55.736862, lon.=26.218307, Alt.=128.338013m. Speed=14.076000m/h.</desc>
<speed>3.910000</speed>
</trkpt>
<trkpt lat="55.736847" lon="26.218367">
<ele>128.045044</ele>
<time>2010-07-18T07:07:54Z</time>
<desc>lat.=55.736847, lon.=26.218367, Alt.=128.045044m. Speed=14.940000m/h.</desc>
<speed>4.150000</speed>
</trkpt>
<trkpt lat="55.736828" lon="26.218430">
<ele>127.794006</ele>
<time>2010-07-18T07:07:55Z</time>
<desc>lat.=55.736828, lon.=26.218430, Alt.=127.794006m. Speed=16.200001m/h.</desc>
<speed>4.500000</speed>
</trkpt>
<trkpt lat="55.736813" lon="26.218496">
<ele>127.616272</ele>
<time>2010-07-18T07:07:56Z</time>
<desc>lat.=55.736813, lon.=26.218496, Alt.=127.616272m. Speed=16.775999m/h.</desc>
<speed>4.660000</speed>
</trkpt>
<trkpt lat="55.736801" lon="26.218567">
<ele>127.512756</ele>
<time>2010-07-18T07:07:57Z</time>
<desc>lat.=55.736801, lon.=26.218567, Alt.=127.512756m. Speed=15.336000m/h.</desc>
<speed>4.260000</speed>
</trkpt>
<trkpt lat="55.736790" lon="26.218628">
<ele>127.331116</ele>
<time>2010-07-18T07:07:58Z</time>
<desc>lat.=55.736790, lon.=26.218628, Alt.=127.331116m. Speed=15.084000m/h.</desc>
<speed>4.190000</speed>
</trkpt>
<trkpt lat="55.736778" lon="26.218685">
<ele>127.317444</ele>
<time>2010-07-18T07:07:59Z</time>
<desc>lat.=55.736778, lon.=26.218685, Alt.=127.317444m. Speed=12.600000m/h.</desc>
<speed>3.500000</speed>
</trkpt>
<trkpt lat="55.736771" lon="26.218727">
<ele>127.372131</ele>
<time>2010-07-18T07:08:00Z</time>
<desc>lat.=55.736771, lon.=26.218727, Alt.=127.372131m. Speed=8.748000m/h.</desc>
<speed>2.430000</speed>
</trkpt>
<trkpt lat="55.736759" lon="26.218758">
<ele>127.329163</ele>
<time>2010-07-18T07:08:01Z</time>
<desc>lat.=55.736759, lon.=26.218758, Alt.=127.329163m. Speed=9.576000m/h.</desc>
<speed>2.660000</speed>
</trkpt>
<trkpt lat="55.736748" lon="26.218779">
<ele>128.021606</ele>
<time>2010-07-18T07:08:02Z</time>
<desc>lat.=55.736748, lon.=26.218779, Alt.=128.021606m. Speed=4.464000m/h.</desc>
<speed>1.240000</speed>
</trkpt>
<trkpt lat="55.736744" lon="26.218790">
<ele>128.181763</ele>
<time>2010-07-18T07:08:03Z</time>
<desc>lat.=55.736744, lon.=26.218790, Alt.=128.181763m. Speed=2.124000m/h.</desc>
<speed>0.590000</speed>
</trkpt>
<trkpt lat="55.736748" lon="26.218796">
<ele>128.388794</ele>
<time>2010-07-18T07:08:04Z</time>
<desc>lat.=55.736748, lon.=26.218796, Alt.=128.388794m. Speed=1.692000m/h.</desc>
<speed>0.470000</speed>
</trkpt>
<trkpt lat="55.736748" lon="26.218800">
<ele>128.494263</ele>
<time>2010-07-18T07:08:05Z</time>
<desc>lat.=55.736748, lon.=26.218800, Alt.=128.494263m. Speed=0.792000m/h.</desc>
<speed>0.220000</speed>
</trkpt>
<trkpt lat="55.736748" lon="26.218809">
<ele>128.904419</ele>
<time>2010-07-18T07:08:06Z</time>
<desc>lat.=55.736748, lon.=26.218809, Alt.=128.904419m. Speed=0.432000m/h.</desc>
<speed>0.120000</speed>
</trkpt>
<trkpt lat="55.736748" lon="26.218809">
<ele>128.959106</ele>
<time>2010-07-18T07:08:07Z</time>
<desc>lat.=55.736748, lon.=26.218809, Alt.=128.959106m. Speed=0.504000m/h.</desc>
<speed>0.140000</speed>
</trkpt>
<trkpt lat="55.736744" lon="26.218809">
<ele>129.005981</ele>
<time>2010-07-18T07:08:08Z</time>
<desc>lat.=55.736744, lon.=26.218809, Alt.=129.005981m. Speed=0.324000m/h.</desc>
<speed>0.090000</speed>
</trkpt>
<trkpt lat="55.736744" lon="26.218811">
<ele>129.048950</ele>
<time>2010-07-18T07:08:09Z</time>
<desc>lat.=55.736744, lon.=26.218811, Alt.=129.048950m. Speed=0.036000m/h.</desc>
<speed>0.010000</speed>
</trkpt>
<trkpt lat="55.736744" lon="26.218809">
<ele>129.076294</ele>
<time>2010-07-18T07:08:10Z</time>
<desc>lat.=55.736744, lon.=26.218809, Alt.=129.076294m. Speed=0.216000m/h.</desc>
<speed>0.060000</speed>
</trkpt>
<trkpt lat="55.736744" lon="26.218809">
<ele>129.095825</ele>
<time>2010-07-18T07:08:11Z</time>
<desc>lat.=55.736744, lon.=26.218809, Alt.=129.095825m. Speed=0.432000m/h.</desc>
<speed>0.120000</speed>
</trkpt>
<trkpt lat="55.736744" lon="26.218807">
<ele>129.123169</ele>
<time>2010-07-18T07:08:12Z</time>
<desc>lat.=55.736744, lon.=26.218807, Alt.=129.123169m. Speed=0.540000m/h.</desc>
<speed>0.150000</speed>
</trkpt>
<trkpt lat="55.736744" lon="26.218811">
<ele>129.138794</ele>
<time>2010-07-18T07:08:13Z</time>
<desc>lat.=55.736744, lon.=26.218811, Alt.=129.138794m. Speed=1.260000m/h.</desc>
<speed>0.350000</speed>
</trkpt>
<trkpt lat="55.736744" lon="26.218815">
<ele>129.154419</ele>
<time>2010-07-18T07:08:14Z</time>
<desc>lat.=55.736744, lon.=26.218815, Alt.=129.154419m. Speed=0.216000m/h.</desc>
<speed>0.060000</speed>
</trkpt>
<trkpt lat="55.736744" lon="26.218817">
<ele>129.173950</ele>
<time>2010-07-18T07:08:15Z</time>
<desc>lat.=55.736744, lon.=26.218817, Alt.=129.173950m. Speed=0.216000m/h.</desc>
<speed>0.060000</speed>
</trkpt>
<trkpt lat="55.736744" lon="26.218815">
<ele>129.185669</ele>
<time>2010-07-18T07:08:16Z</time>
<desc>lat.=55.736744, lon.=26.218815, Alt.=129.185669m. Speed=0.108000m/h.</desc>
<speed>0.030000</speed>
</trkpt>
<trkpt lat="55.736744" lon="26.218815">
<ele>129.201294</ele>
<time>2010-07-18T07:08:17Z</time>
<desc>lat.=55.736744, lon.=26.218815, Alt.=129.201294m. Speed=0.540000m/h.</desc>
<speed>0.150000</speed>
</trkpt>
<trkpt lat="55.736744" lon="26.218813">
<ele>129.213013</ele>
<time>2010-07-18T07:08:18Z</time>
<desc>lat.=55.736744, lon.=26.218813, Alt.=129.213013m. Speed=1.368000m/h.</desc>
<speed>0.380000</speed>
</trkpt>
<trkpt lat="55.736744" lon="26.218805">
<ele>129.228638</ele>
<time>2010-07-18T07:08:19Z</time>
<desc>lat.=55.736744, lon.=26.218805, Alt.=129.228638m. Speed=3.132000m/h.</desc>
<speed>0.870000</speed>
</trkpt>
<trkpt lat="55.736748" lon="26.218794">
<ele>129.248169</ele>
<time>2010-07-18T07:08:20Z</time>
<desc>lat.=55.736748, lon.=26.218794, Alt.=129.248169m. Speed=2.592000m/h.</desc>
<speed>0.720000</speed>
</trkpt>
<trkpt lat="55.736752" lon="26.218786">
<ele>129.267700</ele>
<time>2010-07-18T07:08:21Z</time>
<desc>lat.=55.736752, lon.=26.218786, Alt.=129.267700m. Speed=1.800000m/h.</desc>
<speed>0.500000</speed>
</trkpt>
<trkpt lat="55.736755" lon="26.218781">
<ele>129.295044</ele>
<time>2010-07-18T07:08:22Z</time>
<desc>lat.=55.736755, lon.=26.218781, Alt.=129.295044m. Speed=1.476000m/h.</desc>
<speed>0.410000</speed>
</trkpt>
<trkpt lat="55.736759" lon="26.218775">
<ele>129.341919</ele>
<time>2010-07-18T07:08:23Z</time>
<desc>lat.=55.736759, lon.=26.218775, Alt.=129.341919m. Speed=2.628000m/h.</desc>
<speed>0.730000</speed>
</trkpt>
<trkpt lat="55.736759" lon="26.218763">
<ele>129.400513</ele>
<time>2010-07-18T07:08:24Z</time>
<desc>lat.=55.736759, lon.=26.218763, Alt.=129.400513m. Speed=2.448000m/h.</desc>
<speed>0.680000</speed>
</trkpt>
<trkpt lat="55.736759" lon="26.218752">
<ele>129.459106</ele>
<time>2010-07-18T07:08:25Z</time>
<desc>lat.=55.736759, lon.=26.218752, Alt.=129.459106m. Speed=2.700000m/h.</desc>
<speed>0.750000</speed>
</trkpt>
<trkpt lat="55.736759" lon="26.218740">
<ele>129.521606</ele>
<time>2010-07-18T07:08:26Z</time>
<desc>lat.=55.736759, lon.=26.218740, Alt.=129.521606m. Speed=2.844000m/h.</desc>
<speed>0.790000</speed>
</trkpt>
<trkpt lat="55.736755" lon="26.218729">
<ele>129.580200</ele>
<time>2010-07-18T07:08:27Z</time>
<desc>lat.=55.736755, lon.=26.218729, Alt.=129.580200m. Speed=2.556000m/h.</desc>
<speed>0.710000</speed>
</trkpt>
<trkpt lat="55.736752" lon="26.218719">
<ele>129.638794</ele>
<time>2010-07-18T07:08:28Z</time>
<desc>lat.=55.736752, lon.=26.218719, Alt.=129.638794m. Speed=2.484000m/h.</desc>
<speed>0.690000</speed>
</trkpt>
<trkpt lat="55.736752" lon="26.218708">
<ele>129.697388</ele>
<time>2010-07-18T07:08:29Z</time>
<desc>lat.=55.736752, lon.=26.218708, Alt.=129.697388m. Speed=2.160000m/h.</desc>
<speed>0.600000</speed>
</trkpt>
<trkpt lat="55.736748" lon="26.218700">
<ele>129.755981</ele>
<time>2010-07-18T07:08:30Z</time>
<desc>lat.=55.736748, lon.=26.218700, Alt.=129.755981m. Speed=0.648000m/h.</desc>
<speed>0.180000</speed>
</trkpt>
<trkpt lat="55.736748" lon="26.218699">
<ele>129.822388</ele>
<time>2010-07-18T07:08:31Z</time>
<desc>lat.=55.736748, lon.=26.218699, Alt.=129.822388m. Speed=0.396000m/h.</desc>
<speed>0.110000</speed>
</trkpt>
<trkpt lat="55.736748" lon="26.218699">
<ele>129.880981</ele>
<time>2010-07-18T07:08:32Z</time>
<desc>lat.=55.736748, lon.=26.218699, Alt.=129.880981m. Speed=0.576000m/h.</desc>
<speed>0.160000</speed>
</trkpt>
<trkpt lat="55.736748" lon="26.218695">
<ele>129.923950</ele>
<time>2010-07-18T07:08:33Z</time>
<desc>lat.=55.736748, lon.=26.218695, Alt.=129.923950m. Speed=0.828000m/h.</desc>
<speed>0.230000</speed>
</trkpt>
<trkpt lat="55.736752" lon="26.218693">
<ele>129.959106</ele>
<time>2010-07-18T07:08:34Z</time>
<desc>lat.=55.736752, lon.=26.218693, Alt.=129.959106m. Speed=0.540000m/h.</desc>
<speed>0.150000</speed>
</trkpt>
<trkpt lat="55.736748" lon="26.218691">
<ele>129.982544</ele>
<time>2010-07-18T07:08:35Z</time>
<desc>lat.=55.736748, lon.=26.218691, Alt.=129.982544m. Speed=0.252000m/h.</desc>
<speed>0.070000</speed>
</trkpt>
<trkpt lat="55.736748" lon="26.218691">
<ele>130.009888</ele>
<time>2010-07-18T07:08:36Z</time>
<desc>lat.=55.736748, lon.=26.218691, Alt.=130.009888m. Speed=0.432000m/h.</desc>
<speed>0.120000</speed>
</trkpt>
<trkpt lat="55.736748" lon="26.218693">
<ele>130.029419</ele>
<time>2010-07-18T07:08:37Z</time>
<desc>lat.=55.736748, lon.=26.218693, Alt.=130.029419m. Speed=0.324000m/h.</desc>
<speed>0.090000</speed>
</trkpt>
<trkpt lat="55.736748" lon="26.218695">
<ele>130.045044</ele>
<time>2010-07-18T07:08:38Z</time>
<desc>lat.=55.736748, lon.=26.218695, Alt.=130.045044m. Speed=0.648000m/h.</desc>
<speed>0.180000</speed>
</trkpt>
<trkpt lat="55.736752" lon="26.218693">
<ele>130.056763</ele>
<time>2010-07-18T07:08:39Z</time>
<desc>lat.=55.736752, lon.=26.218693, Alt.=130.056763m. Speed=0.360000m/h.</desc>
<speed>0.100000</speed>
</trkpt>
<trkpt lat="55.736752" lon="26.218695">
<ele>130.088013</ele>
<time>2010-07-18T07:08:40Z</time>
<desc>lat.=55.736752, lon.=26.218695, Alt.=130.088013m. Speed=0.216000m/h.</desc>
<speed>0.060000</speed>
</trkpt>
<trkpt lat="55.736752" lon="26.218695">
<ele>130.111450</ele>
<time>2010-07-18T07:08:41Z</time>
<desc>lat.=55.736752, lon.=26.218695, Alt.=130.111450m. Speed=0.108000m/h.</desc>
<speed>0.030000</speed>
</trkpt>
<trkpt lat="55.736752" lon="26.218695">
<ele>130.130981</ele>
<time>2010-07-18T07:08:42Z</time>
<desc>lat.=55.736752, lon.=26.218695, Alt.=130.130981m. Speed=0.144000m/h.</desc>
<speed>0.040000</speed>
</trkpt>
<trkpt lat="55.736752" lon="26.218695">
<ele>130.150513</ele>
<time>2010-07-18T07:08:43Z</time>
<desc>lat.=55.736752, lon.=26.218695, Alt.=130.150513m. Speed=0.432000m/h.</desc>
<speed>0.120000</speed>
</trkpt>
<trkpt lat="55.736752" lon="26.218693">
<ele>130.170044</ele>
<time>2010-07-18T07:08:44Z</time>
<desc>lat.=55.736752, lon.=26.218693, Alt.=130.170044m. Speed=0.684000m/h.</desc>
<speed>0.190000</speed>
</trkpt>
<trkpt lat="55.736755" lon="26.218689">
<ele>130.189575</ele>
<time>2010-07-18T07:08:45Z</time>
<desc>lat.=55.736755, lon.=26.218689, Alt.=130.189575m. Speed=0.648000m/h.</desc>
<speed>0.180000</speed>
</trkpt>
<trkpt lat="55.736755" lon="26.218687">
<ele>130.201294</ele>
<time>2010-07-18T07:08:46Z</time>
<desc>lat.=55.736755, lon.=26.218687, Alt.=130.201294m. Speed=0.468000m/h.</desc>
<speed>0.130000</speed>
</trkpt>
<trkpt lat="55.736755" lon="26.218685">
<ele>130.216919</ele>
<time>2010-07-18T07:08:47Z</time>
<desc>lat.=55.736755, lon.=26.218685, Alt.=130.216919m. Speed=0.792000m/h.</desc>
<speed>0.220000</speed>
</trkpt>
<trkpt lat="55.736755" lon="26.218681">
<ele>130.224731</ele>
<time>2010-07-18T07:08:48Z</time>
<desc>lat.=55.736755, lon.=26.218681, Alt.=130.224731m. Speed=0.900000m/h.</desc>
<speed>0.250000</speed>
</trkpt>
<trkpt lat="55.736755" lon="26.218678">
<ele>130.236450</ele>
<time>2010-07-18T07:08:49Z</time>
<desc>lat.=55.736755, lon.=26.218678, Alt.=130.236450m. Speed=0.468000m/h.</desc>
<speed>0.130000</speed>
</trkpt>
<trkpt lat="55.736755" lon="26.218676">
<ele>130.244263</ele>
<time>2010-07-18T07:08:50Z</time>
<desc>lat.=55.736755, lon.=26.218676, Alt.=130.244263m. Speed=0.324000m/h.</desc>
<speed>0.090000</speed>
</trkpt>
<trkpt lat="55.736755" lon="26.218674">
<ele>130.248169</ele>
<time>2010-07-18T07:08:51Z</time>
<desc>lat.=55.736755, lon.=26.218674, Alt.=130.248169m. Speed=0.540000m/h.</desc>
<speed>0.150000</speed>
</trkpt>
<trkpt lat="55.736759" lon="26.218672">
<ele>130.252075</ele>
<time>2010-07-18T07:08:52Z</time>
<desc>lat.=55.736759, lon.=26.218672, Alt.=130.252075m. Speed=0.756000m/h.</desc>
<speed>0.210000</speed>
</trkpt>
<trkpt lat="55.736759" lon="26.218672">
<ele>130.255981</ele>
<time>2010-07-18T07:08:53Z</time>
<desc>lat.=55.736759, lon.=26.218672, Alt.=130.255981m. Speed=0.504000m/h.</desc>
<speed>0.140000</speed>
</trkpt>
<trkpt lat="55.736763" lon="26.218670">
<ele>130.263794</ele>
<time>2010-07-18T07:08:54Z</time>
<desc>lat.=55.736763, lon.=26.218670, Alt.=130.263794m. Speed=0.288000m/h.</desc>
<speed>0.080000</speed>
</trkpt>
<trkpt lat="55.736763" lon="26.218672">
<ele>130.267700</ele>
<time>2010-07-18T07:08:55Z</time>
<desc>lat.=55.736763, lon.=26.218672, Alt.=130.267700m. Speed=0.540000m/h.</desc>
<speed>0.150000</speed>
</trkpt>
<trkpt lat="55.736763" lon="26.218674">
<ele>130.271606</ele>
<time>2010-07-18T07:08:56Z</time>
<desc>lat.=55.736763, lon.=26.218674, Alt.=130.271606m. Speed=0.612000m/h.</desc>
<speed>0.170000</speed>
</trkpt>
<trkpt lat="55.736763" lon="26.218676">
<ele>130.275513</ele>
<time>2010-07-18T07:08:57Z</time>
<desc>lat.=55.736763, lon.=26.218676, Alt.=130.275513m. Speed=0.648000m/h.</desc>
<speed>0.180000</speed>
</trkpt>
<trkpt lat="55.736763" lon="26.218678">
<ele>130.283325</ele>
<time>2010-07-18T07:08:58Z</time>
<desc>lat.=55.736763, lon.=26.218678, Alt.=130.283325m. Speed=0.720000m/h.</desc>
<speed>0.200000</speed>
</trkpt>
<trkpt lat="55.736767" lon="26.218681">
<ele>130.287231</ele>
<time>2010-07-18T07:08:59Z</time>
<desc>lat.=55.736767, lon.=26.218681, Alt.=130.287231m. Speed=0.612000m/h.</desc>
<speed>0.170000</speed>
</trkpt>
<trkpt lat="55.736767" lon="26.218683">
<ele>130.287231</ele>
<time>2010-07-18T07:09:00Z</time>
<desc>lat.=55.736767, lon.=26.218683, Alt.=130.287231m. Speed=0.648000m/h.</desc>
<speed>0.180000</speed>
</trkpt>
<trkpt lat="55.736767" lon="26.218685">
<ele>130.291138</ele>
<time>2010-07-18T07:09:01Z</time>
<desc>lat.=55.736767, lon.=26.218685, Alt.=130.291138m. Speed=0.612000m/h.</desc>
<speed>0.170000</speed>
</trkpt>
<trkpt lat="55.736771" lon="26.218685">
<ele>130.295044</ele>
<time>2010-07-18T07:09:02Z</time>
<desc>lat.=55.736771, lon.=26.218685, Alt.=130.295044m. Speed=0.396000m/h.</desc>
<speed>0.110000</speed>
</trkpt>
<trkpt lat="55.736771" lon="26.218685">
<ele>130.298950</ele>
<time>2010-07-18T07:09:03Z</time>
<desc>lat.=55.736771, lon.=26.218685, Alt.=130.298950m. Speed=0.360000m/h.</desc>
<speed>0.100000</speed>
</trkpt>
<trkpt lat="55.736771" lon="26.218683">
<ele>130.302856</ele>
<time>2010-07-18T07:09:04Z</time>
<desc>lat.=55.736771, lon.=26.218683, Alt.=130.302856m. Speed=0.540000m/h.</desc>
<speed>0.150000</speed>
</trkpt>
<trkpt lat="55.736774" lon="26.218685">
<ele>130.306763</ele>
<time>2010-07-18T07:09:05Z</time>
<desc>lat.=55.736774, lon.=26.218685, Alt.=130.306763m. Speed=0.720000m/h.</desc>
<speed>0.200000</speed>
</trkpt>
<trkpt lat="55.736774" lon="26.218687">
<ele>130.310669</ele>
<time>2010-07-18T07:09:06Z</time>
<desc>lat.=55.736774, lon.=26.218687, Alt.=130.310669m. Speed=0.612000m/h.</desc>
<speed>0.170000</speed>
</trkpt>
<trkpt lat="55.736774" lon="26.218687">
<ele>130.314575</ele>
<time>2010-07-18T07:09:07Z</time>
<desc>lat.=55.736774, lon.=26.218687, Alt.=130.314575m. Speed=0.432000m/h.</desc>
<speed>0.120000</speed>
</trkpt>
<trkpt lat="55.736778" lon="26.218687">
<ele>130.314575</ele>
<time>2010-07-18T07:09:08Z</time>
<desc>lat.=55.736778, lon.=26.218687, Alt.=130.314575m. Speed=0.072000m/h.</desc>
<speed>0.020000</speed>
</trkpt>
<trkpt lat="55.736778" lon="26.218687">
<ele>130.318481</ele>
<time>2010-07-18T07:09:09Z</time>
<desc>lat.=55.736778, lon.=26.218687, Alt.=130.318481m. Speed=0.216000m/h.</desc>
<speed>0.060000</speed>
</trkpt>
<trkpt lat="55.736778" lon="26.218687">
<ele>130.326294</ele>
<time>2010-07-18T07:09:10Z</time>
<desc>lat.=55.736778, lon.=26.218687, Alt.=130.326294m. Speed=0.288000m/h.</desc>
<speed>0.080000</speed>
</trkpt>
<trkpt lat="55.736778" lon="26.218687">
<ele>130.341919</ele>
<time>2010-07-18T07:09:11Z</time>
<desc>lat.=55.736778, lon.=26.218687, Alt.=130.341919m. Speed=0.324000m/h.</desc>
<speed>0.090000</speed>
</trkpt>
<trkpt lat="55.736778" lon="26.218689">
<ele>130.357544</ele>
<time>2010-07-18T07:09:12Z</time>
<desc>lat.=55.736778, lon.=26.218689, Alt.=130.357544m. Speed=0.180000m/h.</desc>
<speed>0.050000</speed>
</trkpt>
<trkpt lat="55.736778" lon="26.218689">
<ele>130.377075</ele>
<time>2010-07-18T07:09:13Z</time>
<desc>lat.=55.736778, lon.=26.218689, Alt.=130.377075m. Speed=0.396000m/h.</desc>
<speed>0.110000</speed>
</trkpt>
<trkpt lat="55.736778" lon="26.218687">
<ele>130.392700</ele>
<time>2010-07-18T07:09:14Z</time>
<desc>lat.=55.736778, lon.=26.218687, Alt.=130.392700m. Speed=1.224000m/h.</desc>
<speed>0.340000</speed>
</trkpt>
<trkpt lat="55.736782" lon="26.218685">
<ele>130.380981</ele>
<time>2010-07-18T07:09:15Z</time>
<desc>lat.=55.736782, lon.=26.218685, Alt.=130.380981m. Speed=1.404000m/h.</desc>
<speed>0.390000</speed>
</trkpt>
<trkpt lat="55.736786" lon="26.218683">
<ele>130.373169</ele>
<time>2010-07-18T07:09:16Z</time>
<desc>lat.=55.736786, lon.=26.218683, Alt.=130.373169m. Speed=1.260000m/h.</desc>
<speed>0.350000</speed>
</trkpt>
<trkpt lat="55.736786" lon="26.218681">
<ele>130.361450</ele>
<time>2010-07-18T07:09:17Z</time>
<desc>lat.=55.736786, lon.=26.218681, Alt.=130.361450m. Speed=1.044000m/h.</desc>
<speed>0.290000</speed>
</trkpt>
<trkpt lat="55.736790" lon="26.218678">
<ele>130.357544</ele>
<time>2010-07-18T07:09:18Z</time>
<desc>lat.=55.736790, lon.=26.218678, Alt.=130.357544m. Speed=0.900000m/h.</desc>
<speed>0.250000</speed>
</trkpt>
<trkpt lat="55.736790" lon="26.218676">
<ele>130.361450</ele>
<time>2010-07-18T07:09:19Z</time>
<desc>lat.=55.736790, lon.=26.218676, Alt.=130.361450m. Speed=0.504000m/h.</desc>
<speed>0.140000</speed>
</trkpt>
<trkpt lat="55.736794" lon="26.218678">
<ele>130.373169</ele>
<time>2010-07-18T07:09:20Z</time>
<desc>lat.=55.736794, lon.=26.218678, Alt.=130.373169m. Speed=0.108000m/h.</desc>
<speed>0.030000</speed>
</trkpt>
<trkpt lat="55.736790" lon="26.218678">
<ele>130.392700</ele>
<time>2010-07-18T07:09:21Z</time>
<desc>lat.=55.736790, lon.=26.218678, Alt.=130.392700m. Speed=0.216000m/h.</desc>
<speed>0.060000</speed>
</trkpt>
<trkpt lat="55.736794" lon="26.218678">
<ele>130.404419</ele>
<time>2010-07-18T07:09:22Z</time>
<desc>lat.=55.736794, lon.=26.218678, Alt.=130.404419m. Speed=0.072000m/h.</desc>
<speed>0.020000</speed>
</trkpt>
<trkpt lat="55.736794" lon="26.218678">
<ele>130.420044</ele>
<time>2010-07-18T07:09:23Z</time>
<desc>lat.=55.736794, lon.=26.218678, Alt.=130.420044m. Speed=0.324000m/h.</desc>
<speed>0.090000</speed>
</trkpt>
<trkpt lat="55.736794" lon="26.218676">
<ele>130.431763</ele>
<time>2010-07-18T07:09:24Z</time>
<desc>lat.=55.736794, lon.=26.218676, Alt.=130.431763m. Speed=0.504000m/h.</desc>
<speed>0.140000</speed>
</trkpt>
<trkpt lat="55.736794" lon="26.218676">
<ele>130.447388</ele>
<time>2010-07-18T07:09:25Z</time>
<desc>lat.=55.736794, lon.=26.218676, Alt.=130.447388m. Speed=0.360000m/h.</desc>
<speed>0.100000</speed>
</trkpt>
<trkpt lat="55.736794" lon="26.218676">
<ele>130.459106</ele>
<time>2010-07-18T07:09:26Z</time>
<desc>lat.=55.736794, lon.=26.218676, Alt.=130.459106m. Speed=0.216000m/h.</desc>
<speed>0.060000</speed>
</trkpt>
<trkpt lat="55.736794" lon="26.218676">
<ele>130.470825</ele>
<time>2010-07-18T07:09:27Z</time>
<desc>lat.=55.736794, lon.=26.218676, Alt.=130.470825m. Speed=0.468000m/h.</desc>
<speed>0.130000</speed>
</trkpt>
<trkpt lat="55.736797" lon="26.218672">
<ele>130.478638</ele>
<time>2010-07-18T07:09:28Z</time>
<desc>lat.=55.736797, lon.=26.218672, Alt.=130.478638m. Speed=0.360000m/h.</desc>
<speed>0.100000</speed>
</trkpt>
<trkpt lat="55.736797" lon="26.218672">
<ele>130.490356</ele>
<time>2010-07-18T07:09:29Z</time>
<desc>lat.=55.736797, lon.=26.218672, Alt.=130.490356m. Speed=0.108000m/h.</desc>
<speed>0.030000</speed>
</trkpt>
<trkpt lat="55.736797" lon="26.218672">
<ele>130.505981</ele>
<time>2010-07-18T07:09:30Z</time>
<desc>lat.=55.736797, lon.=26.218672, Alt.=130.505981m. Speed=0.000000m/h.</desc>
<speed>0.000000</speed>
</trkpt>
<trkpt lat="55.736797" lon="26.218672">
<ele>130.525513</ele>
<time>2010-07-18T07:09:31Z</time>
<desc>lat.=55.736797, lon.=26.218672, Alt.=130.525513m. Speed=0.108000m/h.</desc>
<speed>0.030000</speed>
</trkpt>
<trkpt lat="55.736797" lon="26.218672">
<ele>130.545044</ele>
<time>2010-07-18T07:09:32Z</time>
<desc>lat.=55.736797, lon.=26.218672, Alt.=130.545044m. Speed=0.360000m/h.</desc>
<speed>0.100000</speed>
</trkpt>
<trkpt lat="55.736794" lon="26.218672">
<ele>130.564575</ele>
<time>2010-07-18T07:09:33Z</time>
<desc>lat.=55.736794, lon.=26.218672, Alt.=130.564575m. Speed=0.036000m/h.</desc>
<speed>0.010000</speed>
</trkpt>
<trkpt lat="55.736794" lon="26.218672">
<ele>130.568481</ele>
<time>2010-07-18T07:09:34Z</time>
<desc>lat.=55.736794, lon.=26.218672, Alt.=130.568481m. Speed=0.000000m/h.</desc>
<speed>0.000000</speed>
</trkpt>
<trkpt lat="55.736794" lon="26.218672">
<ele>130.572388</ele>
<time>2010-07-18T07:09:35Z</time>
<desc>lat.=55.736794, lon.=26.218672, Alt.=130.572388m. Speed=0.108000m/h.</desc>
<speed>0.030000</speed>
</trkpt>
<trkpt lat="55.736797" lon="26.218672">
<ele>130.572388</ele>
<time>2010-07-18T07:09:36Z</time>
<desc>lat.=55.736797, lon.=26.218672, Alt.=130.572388m. Speed=0.144000m/h.</desc>
<speed>0.040000</speed>
</trkpt>
<trkpt lat="55.736797" lon="26.218672">
<ele>130.568481</ele>
<time>2010-07-18T07:09:37Z</time>
<desc>lat.=55.736797, lon.=26.218672, Alt.=130.568481m. Speed=0.180000m/h.</desc>
<speed>0.050000</speed>
</trkpt>
<trkpt lat="55.736797" lon="26.218672">
<ele>130.564575</ele>
<time>2010-07-18T07:09:38Z</time>
<desc>lat.=55.736797, lon.=26.218672, Alt.=130.564575m. Speed=0.000000m/h.</desc>
<speed>0.000000</speed>
</trkpt>
<trkpt lat="55.736797" lon="26.218672">
<ele>130.560669</ele>
<time>2010-07-18T07:09:39Z</time>
<desc>lat.=55.736797, lon.=26.218672, Alt.=130.560669m. Speed=0.036000m/h.</desc>
<speed>0.010000</speed>
</trkpt>
<trkpt lat="55.736797" lon="26.218672">
<ele>130.556763</ele>
<time>2010-07-18T07:09:40Z</time>
<desc>lat.=55.736797, lon.=26.218672, Alt.=130.556763m. Speed=0.000000m/h.</desc>
<speed>0.000000</speed>
</trkpt>
<trkpt lat="55.736797" lon="26.218672">
<ele>130.556763</ele>
<time>2010-07-18T07:09:41Z</time>
<desc>lat.=55.736797, lon.=26.218672, Alt.=130.556763m. Speed=0.036000m/h.</desc>
<speed>0.010000</speed>
</trkpt>
<trkpt lat="55.736797" lon="26.218672">
<ele>130.552856</ele>
<time>2010-07-18T07:09:42Z</time>
<desc>lat.=55.736797, lon.=26.218672, Alt.=130.552856m. Speed=0.000000m/h.</desc>
<speed>0.000000</speed>
</trkpt>
<trkpt lat="55.736797" lon="26.218672">
<ele>130.552856</ele>
<time>2010-07-18T07:09:43Z</time>
<desc>lat.=55.736797, lon.=26.218672, Alt.=130.552856m. Speed=0.036000m/h.</desc>
<speed>0.010000</speed>
</trkpt>
<trkpt lat="55.736797" lon="26.218672">
<ele>130.552856</ele>
<time>2010-07-18T07:09:44Z</time>
<desc>lat.=55.736797, lon.=26.218672, Alt.=130.552856m. Speed=0.072000m/h.</desc>
<speed>0.020000</speed>
</trkpt>
<trkpt lat="55.736797" lon="26.218672">
<ele>130.552856</ele>
<time>2010-07-18T07:09:45Z</time>
<desc>lat.=55.736797, lon.=26.218672, Alt.=130.552856m. Speed=0.036000m/h.</desc>
<speed>0.010000</speed>
</trkpt>
<trkpt lat="55.736797" lon="26.218672">
<ele>130.548950</ele>
<time>2010-07-18T07:09:46Z</time>
<desc>lat.=55.736797, lon.=26.218672, Alt.=130.548950m. Speed=0.000000m/h.</desc>
<speed>0.000000</speed>
</trkpt>
<trkpt lat="55.736797" lon="26.218672">
<ele>130.545044</ele>
<time>2010-07-18T07:09:47Z</time>
<desc>lat.=55.736797, lon.=26.218672, Alt.=130.545044m. Speed=0.000000m/h.</desc>
<speed>0.000000</speed>
</trkpt>
<trkpt lat="55.736797" lon="26.218672">
<ele>130.545044</ele>
<time>2010-07-18T07:09:48Z</time>
<desc>lat.=55.736797, lon.=26.218672, Alt.=130.545044m. Speed=0.000000m/h.</desc>
<speed>0.000000</speed>
</trkpt>
<trkpt lat="55.736797" lon="26.218672">
<ele>130.548950</ele>
<time>2010-07-18T07:09:49Z</time>
<desc>lat.=55.736797, lon.=26.218672, Alt.=130.548950m. Speed=0.036000m/h.</desc>
<speed>0.010000</speed>
</trkpt>
<trkpt lat="55.736797" lon="26.218672">
<ele>130.548950</ele>
<time>2010-07-18T07:09:50Z</time>
<desc>lat.=55.736797, lon.=26.218672, Alt.=130.548950m. Speed=0.036000m/h.</desc>
<speed>0.010000</speed>
</trkpt>
<trkpt lat="55.736797" lon="26.218672">
<ele>130.556763</ele>
<time>2010-07-18T07:09:51Z</time>
<desc>lat.=55.736797, lon.=26.218672, Alt.=130.556763m. Speed=0.000000m/h.</desc>
<speed>0.000000</speed>
</trkpt>
<trkpt lat="55.736797" lon="26.218672">
<ele>130.552856</ele>
<time>2010-07-18T07:09:52Z</time>
<desc>lat.=55.736797, lon.=26.218672, Alt.=130.552856m. Speed=0.000000m/h.</desc>
<speed>0.000000</speed>
</trkpt>
<trkpt lat="55.736797" lon="26.218672">
<ele>130.560669</ele>
<time>2010-07-18T07:09:53Z</time>
<desc>lat.=55.736797, lon.=26.218672, Alt.=130.560669m. Speed=0.000000m/h.</desc>
<speed>0.000000</speed>
</trkpt>
<trkpt lat="55.736797" lon="26.218672">
<ele>130.560669</ele>
<time>2010-07-18T07:09:54Z</time>
<desc>lat.=55.736797, lon.=26.218672, Alt.=130.560669m. Speed=0.072000m/h.</desc>
<speed>0.020000</speed>
</trkpt>
<trkpt lat="55.736797" lon="26.218672">
<ele>130.556763</ele>
<time>2010-07-18T07:09:55Z</time>
<desc>lat.=55.736797, lon.=26.218672, Alt.=130.556763m. Speed=0.000000m/h.</desc>
<speed>0.000000</speed>
</trkpt>
<trkpt lat="55.736797" lon="26.218672">
<ele>130.548950</ele>
<time>2010-07-18T07:09:56Z</time>
<desc>lat.=55.736797, lon.=26.218672, Alt.=130.548950m. Speed=0.036000m/h.</desc>
<speed>0.010000</speed>
</trkpt>
<trkpt lat="55.736797" lon="26.218672">
<ele>130.545044</ele>
<time>2010-07-18T07:09:57Z</time>
<desc>lat.=55.736797, lon.=26.218672, Alt.=130.545044m. Speed=0.036000m/h.</desc>
<speed>0.010000</speed>
</trkpt>
<trkpt lat="55.736797" lon="26.218672">
<ele>130.545044</ele>
<time>2010-07-18T07:09:58Z</time>
<desc>lat.=55.736797, lon.=26.218672, Alt.=130.545044m. Speed=0.000000m/h.</desc>
<speed>0.000000</speed>
</trkpt>
<trkpt lat="55.736797" lon="26.218672">
<ele>130.545044</ele>
<time>2010-07-18T07:09:59Z</time>
<desc>lat.=55.736797, lon.=26.218672, Alt.=130.545044m. Speed=0.000000m/h.</desc>
<speed>0.000000</speed>
</trkpt>
<trkpt lat="55.736797" lon="26.218672">
<ele>130.545044</ele>
<time>2010-07-18T07:10:00Z</time>
<desc>lat.=55.736797, lon.=26.218672, Alt.=130.545044m. Speed=0.000000m/h.</desc>
<speed>0.000000</speed>
</trkpt>
<trkpt lat="55.736797" lon="26.218672">
<ele>130.545044</ele>
<time>2010-07-18T07:10:01Z</time>
<desc>lat.=55.736797, lon.=26.218672, Alt.=130.545044m. Speed=0.000000m/h.</desc>
<speed>0.000000</speed>
</trkpt>
<trkpt lat="55.736797" lon="26.218672">
<ele>130.541138</ele>
<time>2010-07-18T07:10:02Z</time>
<desc>lat.=55.736797, lon.=26.218672, Alt.=130.541138m. Speed=0.540000m/h.</desc>
<speed>0.150000</speed>
</trkpt>
<trkpt lat="55.736797" lon="26.218672">
<ele>130.529419</ele>
<time>2010-07-18T07:10:03Z</time>
<desc>lat.=55.736797, lon.=26.218672, Alt.=130.529419m. Speed=0.036000m/h.</desc>
<speed>0.010000</speed>
</trkpt>
<trkpt lat="55.736797" lon="26.218672">
<ele>130.529419</ele>
<time>2010-07-18T07:10:04Z</time>
<desc>lat.=55.736797, lon.=26.218672, Alt.=130.529419m. Speed=0.000000m/h.</desc>
<speed>0.000000</speed>
</trkpt>
<trkpt lat="55.736797" lon="26.218672">
<ele>130.533325</ele>
<time>2010-07-18T07:10:05Z</time>
<desc>lat.=55.736797, lon.=26.218672, Alt.=130.533325m. Speed=0.036000m/h.</desc>
<speed>0.010000</speed>
</trkpt>
<trkpt lat="55.736797" lon="26.218672">
<ele>130.537231</ele>
<time>2010-07-18T07:10:06Z</time>
<desc>lat.=55.736797, lon.=26.218672, Alt.=130.537231m. Speed=0.036000m/h.</desc>
<speed>0.010000</speed>
</trkpt>
<trkpt lat="55.736797" lon="26.218672">
<ele>130.541138</ele>
<time>2010-07-18T07:10:07Z</time>
<desc>lat.=55.736797, lon.=26.218672, Alt.=130.541138m. Speed=0.000000m/h.</desc>
<speed>0.000000</speed>
</trkpt>
<trkpt lat="55.736797" lon="26.218672">
<ele>130.548950</ele>
<time>2010-07-18T07:10:08Z</time>
<desc>lat.=55.736797, lon.=26.218672, Alt.=130.548950m. Speed=0.036000m/h.</desc>
<speed>0.010000</speed>
</trkpt>
<trkpt lat="55.736797" lon="26.218672">
<ele>130.552856</ele>
<time>2010-07-18T07:10:09Z</time>
<desc>lat.=55.736797, lon.=26.218672, Alt.=130.552856m. Speed=0.000000m/h.</desc>
<speed>0.000000</speed>
</trkpt>
<trkpt lat="55.736797" lon="26.218672">
<ele>130.548950</ele>
<time>2010-07-18T07:10:10Z</time>
<desc>lat.=55.736797, lon.=26.218672, Alt.=130.548950m. Speed=0.000000m/h.</desc>
<speed>0.000000</speed>
</trkpt>
<trkpt lat="55.736797" lon="26.218672">
<ele>130.552856</ele>
<time>2010-07-18T07:10:11Z</time>
<desc>lat.=55.736797, lon.=26.218672, Alt.=130.552856m. Speed=0.000000m/h.</desc>
<speed>0.000000</speed>
</trkpt>
<trkpt lat="55.736797" lon="26.218672">
<ele>130.548950</ele>
<time>2010-07-18T07:10:12Z</time>
<desc>lat.=55.736797, lon.=26.218672, Alt.=130.548950m. Speed=0.000000m/h.</desc>
<speed>0.000000</speed>
</trkpt>
<trkpt lat="55.736797" lon="26.218672">
<ele>130.545044</ele>
<time>2010-07-18T07:10:13Z</time>
<desc>lat.=55.736797, lon.=26.218672, Alt.=130.545044m. Speed=0.000000m/h.</desc>
<speed>0.000000</speed>
</trkpt>
<trkpt lat="55.736797" lon="26.218672">
<ele>130.545044</ele>
<time>2010-07-18T07:10:14Z</time>
<desc>lat.=55.736797, lon.=26.218672, Alt.=130.545044m. Speed=0.000000m/h.</desc>
<speed>0.000000</speed>
</trkpt>
<trkpt lat="55.736797" lon="26.218672">
<ele>130.545044</ele>
<time>2010-07-18T07:10:15Z</time>
<desc>lat.=55.736797, lon.=26.218672, Alt.=130.545044m. Speed=0.108000m/h.</desc>
<speed>0.030000</speed>
</trkpt>
<trkpt lat="55.736797" lon="26.218672">
<ele>130.545044</ele>
<time>2010-07-18T07:10:16Z</time>
<desc>lat.=55.736797, lon.=26.218672, Alt.=130.545044m. Speed=0.108000m/h.</desc>
<speed>0.030000</speed>
</trkpt>
<trkpt lat="55.736797" lon="26.218672">
<ele>130.545044</ele>
<time>2010-07-18T07:10:17Z</time>
<desc>lat.=55.736797, lon.=26.218672, Alt.=130.545044m. Speed=0.000000m/h.</desc>
<speed>0.000000</speed>
</trkpt>
<trkpt lat="55.736797" lon="26.218672">
<ele>130.545044</ele>
<time>2010-07-18T07:10:18Z</time>
<desc>lat.=55.736797, lon.=26.218672, Alt.=130.545044m. Speed=0.000000m/h.</desc>
<speed>0.000000</speed>
</trkpt>
<trkpt lat="55.736797" lon="26.218672">
<ele>130.537231</ele>
<time>2010-07-18T07:10:19Z</time>
<desc>lat.=55.736797, lon.=26.218672, Alt.=130.537231m. Speed=0.036000m/h.</desc>
<speed>0.010000</speed>
</trkpt>
<trkpt lat="55.736797" lon="26.218672">
<ele>130.537231</ele>
<time>2010-07-18T07:10:20Z</time>
<desc>lat.=55.736797, lon.=26.218672, Alt.=130.537231m. Speed=0.036000m/h.</desc>
<speed>0.010000</speed>
</trkpt>
<trkpt lat="55.736797" lon="26.218672">
<ele>130.529419</ele>
<time>2010-07-18T07:10:21Z</time>
<desc>lat.=55.736797, lon.=26.218672, Alt.=130.529419m. Speed=0.036000m/h.</desc>
<speed>0.010000</speed>
</trkpt>
<trkpt lat="55.736797" lon="26.218672">
<ele>130.525513</ele>
<time>2010-07-18T07:10:22Z</time>
<desc>lat.=55.736797, lon.=26.218672, Alt.=130.525513m. Speed=0.000000m/h.</desc>
<speed>0.000000</speed>
</trkpt>
<trkpt lat="55.736797" lon="26.218672">
<ele>130.517700</ele>
<time>2010-07-18T07:10:23Z</time>
<desc>lat.=55.736797, lon.=26.218672, Alt.=130.517700m. Speed=0.000000m/h.</desc>
<speed>0.000000</speed>
</trkpt>
<trkpt lat="55.736797" lon="26.218672">
<ele>130.513794</ele>
<time>2010-07-18T07:10:24Z</time>
<desc>lat.=55.736797, lon.=26.218672, Alt.=130.513794m. Speed=0.000000m/h.</desc>
<speed>0.000000</speed>
</trkpt>
<trkpt lat="55.736797" lon="26.218672">
<ele>130.509888</ele>
<time>2010-07-18T07:10:25Z</time>
<desc>lat.=55.736797, lon.=26.218672, Alt.=130.509888m. Speed=0.000000m/h.</desc>
<speed>0.000000</speed>
</trkpt>
<trkpt lat="55.736797" lon="26.218672">
<ele>130.505981</ele>
<time>2010-07-18T07:10:26Z</time>
<desc>lat.=55.736797, lon.=26.218672, Alt.=130.505981m. Speed=0.000000m/h.</desc>
<speed>0.000000</speed>
</trkpt>
<trkpt lat="55.736797" lon="26.218672">
<ele>130.498169</ele>
<time>2010-07-18T07:10:27Z</time>
<desc>lat.=55.736797, lon.=26.218672, Alt.=130.498169m. Speed=0.036000m/h.</desc>
<speed>0.010000</speed>
</trkpt>
<trkpt lat="55.736797" lon="26.218672">
<ele>130.494263</ele>
<time>2010-07-18T07:10:28Z</time>
<desc>lat.=55.736797, lon.=26.218672, Alt.=130.494263m. Speed=0.036000m/h.</desc>
<speed>0.010000</speed>
</trkpt>
<trkpt lat="55.736797" lon="26.218672">
<ele>130.494263</ele>
<time>2010-07-18T07:10:29Z</time>
<desc>lat.=55.736797, lon.=26.218672, Alt.=130.494263m. Speed=0.036000m/h.</desc>
<speed>0.010000</speed>
</trkpt>
<trkpt lat="55.736797" lon="26.218672">
<ele>130.494263</ele>
<time>2010-07-18T07:10:30Z</time>
<desc>lat.=55.736797, lon.=26.218672, Alt.=130.494263m. Speed=0.000000m/h.</desc>
<speed>0.000000</speed>
</trkpt>
<trkpt lat="55.736797" lon="26.218672">
<ele>130.486450</ele>
<time>2010-07-18T07:10:31Z</time>
<desc>lat.=55.736797, lon.=26.218672, Alt.=130.486450m. Speed=0.000000m/h.</desc>
<speed>0.000000</speed>
</trkpt>
<trkpt lat="55.736797" lon="26.218672">
<ele>130.482544</ele>
<time>2010-07-18T07:10:32Z</time>
<desc>lat.=55.736797, lon.=26.218672, Alt.=130.482544m. Speed=0.036000m/h.</desc>
<speed>0.010000</speed>
</trkpt>
<trkpt lat="55.736797" lon="26.218672">
<ele>130.478638</ele>
<time>2010-07-18T07:10:33Z</time>
<desc>lat.=55.736797, lon.=26.218672, Alt.=130.478638m. Speed=0.000000m/h.</desc>
<speed>0.000000</speed>
</trkpt>
<trkpt lat="55.736797" lon="26.218672">
<ele>130.474731</ele>
<time>2010-07-18T07:10:34Z</time>
<desc>lat.=55.736797, lon.=26.218672, Alt.=130.474731m. Speed=0.000000m/h.</desc>
<speed>0.000000</speed>
</trkpt>
<trkpt lat="55.736797" lon="26.218672">
<ele>130.466919</ele>
<time>2010-07-18T07:10:35Z</time>
<desc>lat.=55.736797, lon.=26.218672, Alt.=130.466919m. Speed=0.000000m/h.</desc>
<speed>0.000000</speed>
</trkpt>
<trkpt lat="55.736797" lon="26.218672">
<ele>130.463013</ele>
<time>2010-07-18T07:10:36Z</time>
<desc>lat.=55.736797, lon.=26.218672, Alt.=130.463013m. Speed=0.000000m/h.</desc>
<speed>0.000000</speed>
</trkpt>
<trkpt lat="55.736797" lon="26.218672">
<ele>130.459106</ele>
<time>2010-07-18T07:10:37Z</time>
<desc>lat.=55.736797, lon.=26.218672, Alt.=130.459106m. Speed=0.000000m/h.</desc>
<speed>0.000000</speed>
</trkpt>
<trkpt lat="55.736797" lon="26.218672">
<ele>130.455200</ele>
<time>2010-07-18T07:10:38Z</time>
<desc>lat.=55.736797, lon.=26.218672, Alt.=130.455200m. Speed=0.036000m/h.</desc>
<speed>0.010000</speed>
</trkpt>
<trkpt lat="55.736797" lon="26.218672">
<ele>130.455200</ele>
<time>2010-07-18T07:10:39Z</time>
<desc>lat.=55.736797, lon.=26.218672, Alt.=130.455200m. Speed=0.000000m/h.</desc>
<speed>0.000000</speed>
</trkpt>
<trkpt lat="55.736797" lon="26.218672">
<ele>130.451294</ele>
<time>2010-07-18T07:10:40Z</time>
<desc>lat.=55.736797, lon.=26.218672, Alt.=130.451294m. Speed=0.000000m/h.</desc>
<speed>0.000000</speed>
</trkpt>
<trkpt lat="55.736797" lon="26.218672">
<ele>130.447388</ele>
<time>2010-07-18T07:10:41Z</time>
<desc>lat.=55.736797, lon.=26.218672, Alt.=130.447388m. Speed=0.000000m/h.</desc>
<speed>0.000000</speed>
</trkpt>
<trkpt lat="55.736797" lon="26.218672">
<ele>130.443481</ele>
<time>2010-07-18T07:10:42Z</time>
<desc>lat.=55.736797, lon.=26.218672, Alt.=130.443481m. Speed=0.000000m/h.</desc>
<speed>0.000000</speed>
</trkpt>
<trkpt lat="55.736797" lon="26.218672">
<ele>130.443481</ele>
<time>2010-07-18T07:10:43Z</time>
<desc>lat.=55.736797, lon.=26.218672, Alt.=130.443481m. Speed=0.000000m/h.</desc>
<speed>0.000000</speed>
</trkpt>
<trkpt lat="55.736797" lon="26.218672">
<ele>130.439575</ele>
<time>2010-07-18T07:10:44Z</time>
<desc>lat.=55.736797, lon.=26.218672, Alt.=130.439575m. Speed=0.000000m/h.</desc>
<speed>0.000000</speed>
</trkpt>
<trkpt lat="55.736797" lon="26.218672">
<ele>130.435669</ele>
<time>2010-07-18T07:10:45Z</time>
<desc>lat.=55.736797, lon.=26.218672, Alt.=130.435669m. Speed=0.036000m/h.</desc>
<speed>0.010000</speed>
</trkpt>
<trkpt lat="55.736797" lon="26.218672">
<ele>130.431763</ele>
<time>2010-07-18T07:10:46Z</time>
<desc>lat.=55.736797, lon.=26.218672, Alt.=130.431763m. Speed=0.000000m/h.</desc>
<speed>0.000000</speed>
</trkpt>
<trkpt lat="55.736797" lon="26.218672">
<ele>130.423950</ele>
<time>2010-07-18T07:10:47Z</time>
<desc>lat.=55.736797, lon.=26.218672, Alt.=130.423950m. Speed=0.000000m/h.</desc>
<speed>0.000000</speed>
</trkpt>
<trkpt lat="55.736797" lon="26.218672">
<ele>130.420044</ele>
<time>2010-07-18T07:10:48Z</time>
<desc>lat.=55.736797, lon.=26.218672, Alt.=130.420044m. Speed=0.000000m/h.</desc>
<speed>0.000000</speed>
</trkpt>
<trkpt lat="55.736797" lon="26.218672">
<ele>130.416138</ele>
<time>2010-07-18T07:10:49Z</time>
<desc>lat.=55.736797, lon.=26.218672, Alt.=130.416138m. Speed=0.000000m/h.</desc>
<speed>0.000000</speed>
</trkpt>
<trkpt lat="55.736797" lon="26.218672">
<ele>130.416138</ele>
<time>2010-07-18T07:10:50Z</time>
<desc>lat.=55.736797, lon.=26.218672, Alt.=130.416138m. Speed=0.000000m/h.</desc>
<speed>0.000000</speed>
</trkpt>
<trkpt lat="55.736797" lon="26.218672">
<ele>130.412231</ele>
<time>2010-07-18T07:10:51Z</time>
<desc>lat.=55.736797, lon.=26.218672, Alt.=130.412231m. Speed=0.000000m/h.</desc>
<speed>0.000000</speed>
</trkpt>
<trkpt lat="55.736797" lon="26.218672">
<ele>130.408325</ele>
<time>2010-07-18T07:10:52Z</time>
<desc>lat.=55.736797, lon.=26.218672, Alt.=130.408325m. Speed=0.000000m/h.</desc>
<speed>0.000000</speed>
</trkpt>
<trkpt lat="55.736797" lon="26.218672">
<ele>130.408325</ele>
<time>2010-07-18T07:10:53Z</time>
<desc>lat.=55.736797, lon.=26.218672, Alt.=130.408325m. Speed=0.000000m/h.</desc>
<speed>0.000000</speed>
</trkpt>
<trkpt lat="55.736797" lon="26.218672">
<ele>130.404419</ele>
<time>2010-07-18T07:10:54Z</time>
<desc>lat.=55.736797, lon.=26.218672, Alt.=130.404419m. Speed=0.000000m/h.</desc>
<speed>0.000000</speed>
</trkpt>
<trkpt lat="55.736797" lon="26.218672">
<ele>130.404419</ele>
<time>2010-07-18T07:10:55Z</time>
<desc>lat.=55.736797, lon.=26.218672, Alt.=130.404419m. Speed=0.000000m/h.</desc>
<speed>0.000000</speed>
</trkpt>
<trkpt lat="55.736797" lon="26.218672">
<ele>130.400513</ele>
<time>2010-07-18T07:10:56Z</time>
<desc>lat.=55.736797, lon.=26.218672, Alt.=130.400513m. Speed=0.000000m/h.</desc>
<speed>0.000000</speed>
</trkpt>
<trkpt lat="55.736797" lon="26.218672">
<ele>130.400513</ele>
<time>2010-07-18T07:10:57Z</time>
<desc>lat.=55.736797, lon.=26.218672, Alt.=130.400513m. Speed=0.036000m/h.</desc>
<speed>0.010000</speed>
</trkpt>
<trkpt lat="55.736797" lon="26.218672">
<ele>130.396606</ele>
<time>2010-07-18T07:10:58Z</time>
<desc>lat.=55.736797, lon.=26.218672, Alt.=130.396606m. Speed=0.000000m/h.</desc>
<speed>0.000000</speed>
</trkpt>
<trkpt lat="55.736797" lon="26.218672">
<ele>130.392700</ele>
<time>2010-07-18T07:10:59Z</time>
<desc>lat.=55.736797, lon.=26.218672, Alt.=130.392700m. Speed=0.000000m/h.</desc>
<speed>0.000000</speed>
</trkpt>
<trkpt lat="55.736797" lon="26.218672">
<ele>130.396606</ele>
<time>2010-07-18T07:11:00Z</time>
<desc>lat.=55.736797, lon.=26.218672, Alt.=130.396606m. Speed=0.000000m/h.</desc>
<speed>0.000000</speed>
</trkpt>
<trkpt lat="55.736797" lon="26.218672">
<ele>130.396606</ele>
<time>2010-07-18T07:11:01Z</time>
<desc>lat.=55.736797, lon.=26.218672, Alt.=130.396606m. Speed=0.000000m/h.</desc>
<speed>0.000000</speed>
</trkpt>
<trkpt lat="55.736797" lon="26.218672">
<ele>130.400513</ele>
<time>2010-07-18T07:11:02Z</time>
<desc>lat.=55.736797, lon.=26.218672, Alt.=130.400513m. Speed=0.000000m/h.</desc>
<speed>0.000000</speed>
</trkpt>
<trkpt lat="55.736797" lon="26.218672">
<ele>130.400513</ele>
<time>2010-07-18T07:11:03Z</time>
<desc>lat.=55.736797, lon.=26.218672, Alt.=130.400513m. Speed=0.000000m/h.</desc>
<speed>0.000000</speed>
</trkpt>
<trkpt lat="55.736797" lon="26.218672">
<ele>130.400513</ele>
<time>2010-07-18T07:11:04Z</time>
<desc>lat.=55.736797, lon.=26.218672, Alt.=130.400513m. Speed=0.000000m/h.</desc>
<speed>0.000000</speed>
</trkpt>
<trkpt lat="55.736797" lon="26.218672">
<ele>130.404419</ele>
<time>2010-07-18T07:11:05Z</time>
<desc>lat.=55.736797, lon.=26.218672, Alt.=130.404419m. Speed=0.036000m/h.</desc>
<speed>0.010000</speed>
</trkpt>
<trkpt lat="55.736797" lon="26.218672">
<ele>130.400513</ele>
<time>2010-07-18T07:11:06Z</time>
<desc>lat.=55.736797, lon.=26.218672, Alt.=130.400513m. Speed=0.000000m/h.</desc>
<speed>0.000000</speed>
</trkpt>
<trkpt lat="55.736797" lon="26.218672">
<ele>130.400513</ele>
<time>2010-07-18T07:11:07Z</time>
<desc>lat.=55.736797, lon.=26.218672, Alt.=130.400513m. Speed=0.000000m/h.</desc>
<speed>0.000000</speed>
</trkpt>
<trkpt lat="55.736797" lon="26.218672">
<ele>130.400513</ele>
<time>2010-07-18T07:11:08Z</time>
<desc>lat.=55.736797, lon.=26.218672, Alt.=130.400513m. Speed=0.000000m/h.</desc>
<speed>0.000000</speed>
</trkpt>
<trkpt lat="55.736797" lon="26.218672">
<ele>130.404419</ele>
<time>2010-07-18T07:11:09Z</time>
<desc>lat.=55.736797, lon.=26.218672, Alt.=130.404419m. Speed=0.000000m/h.</desc>
<speed>0.000000</speed>
</trkpt>
<trkpt lat="55.736797" lon="26.218672">
<ele>130.408325</ele>
<time>2010-07-18T07:11:10Z</time>
<desc>lat.=55.736797, lon.=26.218672, Alt.=130.408325m. Speed=0.000000m/h.</desc>
<speed>0.000000</speed>
</trkpt>
<trkpt lat="55.736797" lon="26.218674">
<ele>130.412231</ele>
<time>2010-07-18T07:11:11Z</time>
<desc>lat.=55.736797, lon.=26.218674, Alt.=130.412231m. Speed=0.000000m/h.</desc>
<speed>0.000000</speed>
</trkpt>
<trkpt lat="55.736797" lon="26.218674">
<ele>130.412231</ele>
<time>2010-07-18T07:11:12Z</time>
<desc>lat.=55.736797, lon.=26.218674, Alt.=130.412231m. Speed=0.000000m/h.</desc>
<speed>0.000000</speed>
</trkpt>
<trkpt lat="55.736797" lon="26.218674">
<ele>130.408325</ele>
<time>2010-07-18T07:11:13Z</time>
<desc>lat.=55.736797, lon.=26.218674, Alt.=130.408325m. Speed=0.000000m/h.</desc>
<speed>0.000000</speed>
</trkpt>
<trkpt lat="55.736797" lon="26.218672">
<ele>130.408325</ele>
<time>2010-07-18T07:11:14Z</time>
<desc>lat.=55.736797, lon.=26.218672, Alt.=130.408325m. Speed=0.000000m/h.</desc>
<speed>0.000000</speed>
</trkpt>
<trkpt lat="55.736797" lon="26.218674">
<ele>130.404419</ele>
<time>2010-07-18T07:11:15Z</time>
<desc>lat.=55.736797, lon.=26.218674, Alt.=130.404419m. Speed=0.000000m/h.</desc>
<speed>0.000000</speed>
</trkpt>
<trkpt lat="55.736797" lon="26.218674">
<ele>130.404419</ele>
<time>2010-07-18T07:11:16Z</time>
<desc>lat.=55.736797, lon.=26.218674, Alt.=130.404419m. Speed=0.000000m/h.</desc>
<speed>0.000000</speed>
</trkpt>
<trkpt lat="55.736797" lon="26.218672">
<ele>130.404419</ele>
<time>2010-07-18T07:11:17Z</time>
<desc>lat.=55.736797, lon.=26.218672, Alt.=130.404419m. Speed=0.000000m/h.</desc>
<speed>0.000000</speed>
</trkpt>
<trkpt lat="55.736797" lon="26.218672">
<ele>130.404419</ele>
<time>2010-07-18T07:11:18Z</time>
<desc>lat.=55.736797, lon.=26.218672, Alt.=130.404419m. Speed=0.036000m/h.</desc>
<speed>0.010000</speed>
</trkpt>
<trkpt lat="55.736797" lon="26.218672">
<ele>130.408325</ele>
<time>2010-07-18T07:11:19Z</time>
<desc>lat.=55.736797, lon.=26.218672, Alt.=130.408325m. Speed=0.000000m/h.</desc>
<speed>0.000000</speed>
</trkpt>
<trkpt lat="55.736797" lon="26.218672">
<ele>130.408325</ele>
<time>2010-07-18T07:11:20Z</time>
<desc>lat.=55.736797, lon.=26.218672, Alt.=130.408325m. Speed=0.000000m/h.</desc>
<speed>0.000000</speed>
</trkpt>
<trkpt lat="55.736797" lon="26.218672">
<ele>130.404419</ele>
<time>2010-07-18T07:11:21Z</time>
<desc>lat.=55.736797, lon.=26.218672, Alt.=130.404419m. Speed=0.000000m/h.</desc>
<speed>0.000000</speed>
</trkpt>
<trkpt lat="55.736797" lon="26.218672">
<ele>130.408325</ele>
<time>2010-07-18T07:11:22Z</time>
<desc>lat.=55.736797, lon.=26.218672, Alt.=130.408325m. Speed=0.000000m/h.</desc>
<speed>0.000000</speed>
</trkpt>
<trkpt lat="55.736797" lon="26.218672">
<ele>130.408325</ele>
<time>2010-07-18T07:11:23Z</time>
<desc>lat.=55.736797, lon.=26.218672, Alt.=130.408325m. Speed=0.000000m/h.</desc>
<speed>0.000000</speed>
</trkpt>
<trkpt lat="55.736797" lon="26.218672">
<ele>130.408325</ele>
<time>2010-07-18T07:11:24Z</time>
<desc>lat.=55.736797, lon.=26.218672, Alt.=130.408325m. Speed=0.000000m/h.</desc>
<speed>0.000000</speed>
</trkpt>
<trkpt lat="55.736797" lon="26.218672">
<ele>130.408325</ele>
<time>2010-07-18T07:11:25Z</time>
<desc>lat.=55.736797, lon.=26.218672, Alt.=130.408325m. Speed=0.036000m/h.</desc>
<speed>0.010000</speed>
</trkpt>
<trkpt lat="55.736797" lon="26.218672">
<ele>130.408325</ele>
<time>2010-07-18T07:11:26Z</time>
<desc>lat.=55.736797, lon.=26.218672, Alt.=130.408325m. Speed=0.036000m/h.</desc>
<speed>0.010000</speed>
</trkpt>
<trkpt lat="55.736797" lon="26.218672">
<ele>130.408325</ele>
<time>2010-07-18T07:11:27Z</time>
<desc>lat.=55.736797, lon.=26.218672, Alt.=130.408325m. Speed=0.036000m/h.</desc>
<speed>0.010000</speed>
</trkpt>
<trkpt lat="55.736797" lon="26.218672">
<ele>130.408325</ele>
<time>2010-07-18T07:11:28Z</time>
<desc>lat.=55.736797, lon.=26.218672, Alt.=130.408325m. Speed=0.000000m/h.</desc>
<speed>0.000000</speed>
</trkpt>
<trkpt lat="55.736797" lon="26.218672">
<ele>130.408325</ele>
<time>2010-07-18T07:11:29Z</time>
<desc>lat.=55.736797, lon.=26.218672, Alt.=130.408325m. Speed=0.000000m/h.</desc>
<speed>0.000000</speed>
</trkpt>
<trkpt lat="55.736797" lon="26.218672">
<ele>130.412231</ele>
<time>2010-07-18T07:11:30Z</time>
<desc>lat.=55.736797, lon.=26.218672, Alt.=130.412231m. Speed=0.036000m/h.</desc>
<speed>0.010000</speed>
</trkpt>
<trkpt lat="55.736797" lon="26.218672">
<ele>130.408325</ele>
<time>2010-07-18T07:11:31Z</time>
<desc>lat.=55.736797, lon.=26.218672, Alt.=130.408325m. Speed=0.072000m/h.</desc>
<speed>0.020000</speed>
</trkpt>
<trkpt lat="55.736797" lon="26.218672">
<ele>130.412231</ele>
<time>2010-07-18T07:11:32Z</time>
<desc>lat.=55.736797, lon.=26.218672, Alt.=130.412231m. Speed=0.000000m/h.</desc>
<speed>0.000000</speed>
</trkpt>
<trkpt lat="55.736797" lon="26.218672">
<ele>130.412231</ele>
<time>2010-07-18T07:11:33Z</time>
<desc>lat.=55.736797, lon.=26.218672, Alt.=130.412231m. Speed=0.108000m/h.</desc>
<speed>0.030000</speed>
</trkpt>
<trkpt lat="55.736797" lon="26.218672">
<ele>130.412231</ele>
<time>2010-07-18T07:11:34Z</time>
<desc>lat.=55.736797, lon.=26.218672, Alt.=130.412231m. Speed=0.000000m/h.</desc>
<speed>0.000000</speed>
</trkpt>
<trkpt lat="55.736797" lon="26.218672">
<ele>130.412231</ele>
<time>2010-07-18T07:11:35Z</time>
<desc>lat.=55.736797, lon.=26.218672, Alt.=130.412231m. Speed=0.000000m/h.</desc>
<speed>0.000000</speed>
</trkpt>
<trkpt lat="55.736797" lon="26.218672">
<ele>130.416138</ele>
<time>2010-07-18T07:11:36Z</time>
<desc>lat.=55.736797, lon.=26.218672, Alt.=130.416138m. Speed=0.036000m/h.</desc>
<speed>0.010000</speed>
</trkpt>
<trkpt lat="55.736797" lon="26.218672">
<ele>130.412231</ele>
<time>2010-07-18T07:11:37Z</time>
<desc>lat.=55.736797, lon.=26.218672, Alt.=130.412231m. Speed=0.036000m/h.</desc>
<speed>0.010000</speed>
</trkpt>
<trkpt lat="55.736797" lon="26.218672">
<ele>130.416138</ele>
<time>2010-07-18T07:11:38Z</time>
<desc>lat.=55.736797, lon.=26.218672, Alt.=130.416138m. Speed=0.000000m/h.</desc>
<speed>0.000000</speed>
</trkpt>
<trkpt lat="55.736797" lon="26.218672">
<ele>130.416138</ele>
<time>2010-07-18T07:11:39Z</time>
<desc>lat.=55.736797, lon.=26.218672, Alt.=130.416138m. Speed=0.000000m/h.</desc>
<speed>0.000000</speed>
</trkpt>
<trkpt lat="55.736797" lon="26.218672">
<ele>130.416138</ele>
<time>2010-07-18T07:11:40Z</time>
<desc>lat.=55.736797, lon.=26.218672, Alt.=130.416138m. Speed=0.000000m/h.</desc>
<speed>0.000000</speed>
</trkpt>
<trkpt lat="55.736797" lon="26.218672">
<ele>130.416138</ele>
<time>2010-07-18T07:11:41Z</time>
<desc>lat.=55.736797, lon.=26.218672, Alt.=130.416138m. Speed=0.000000m/h.</desc>
<speed>0.000000</speed>
</trkpt>
<trkpt lat="55.736797" lon="26.218672">
<ele>130.416138</ele>
<time>2010-07-18T07:11:42Z</time>
<desc>lat.=55.736797, lon.=26.218672, Alt.=130.416138m. Speed=0.000000m/h.</desc>
<speed>0.000000</speed>
</trkpt>
<trkpt lat="55.736797" lon="26.218672">
<ele>130.408325</ele>
<time>2010-07-18T07:11:43Z</time>
<desc>lat.=55.736797, lon.=26.218672, Alt.=130.408325m. Speed=0.540000m/h.</desc>
<speed>0.150000</speed>
</trkpt>
<trkpt lat="55.736797" lon="26.218674">
<ele>130.400513</ele>
<time>2010-07-18T07:11:44Z</time>
<desc>lat.=55.736797, lon.=26.218674, Alt.=130.400513m. Speed=0.288000m/h.</desc>
<speed>0.080000</speed>
</trkpt>
<trkpt lat="55.736797" lon="26.218674">
<ele>130.396606</ele>
<time>2010-07-18T07:11:45Z</time>
<desc>lat.=55.736797, lon.=26.218674, Alt.=130.396606m. Speed=0.000000m/h.</desc>
<speed>0.000000</speed>
</trkpt>
<trkpt lat="55.736797" lon="26.218674">
<ele>130.396606</ele>
<time>2010-07-18T07:11:46Z</time>
<desc>lat.=55.736797, lon.=26.218674, Alt.=130.396606m. Speed=0.000000m/h.</desc>
<speed>0.000000</speed>
</trkpt>
<trkpt lat="55.736797" lon="26.218674">
<ele>130.396606</ele>
<time>2010-07-18T07:11:47Z</time>
<desc>lat.=55.736797, lon.=26.218674, Alt.=130.396606m. Speed=0.000000m/h.</desc>
<speed>0.000000</speed>
</trkpt>
<trkpt lat="55.736797" lon="26.218674">
<ele>130.396606</ele>
<time>2010-07-18T07:11:48Z</time>
<desc>lat.=55.736797, lon.=26.218674, Alt.=130.396606m. Speed=0.000000m/h.</desc>
<speed>0.000000</speed>
</trkpt>
<trkpt lat="55.736797" lon="26.218674">
<ele>130.396606</ele>
<time>2010-07-18T07:11:49Z</time>
<desc>lat.=55.736797, lon.=26.218674, Alt.=130.396606m. Speed=0.000000m/h.</desc>
<speed>0.000000</speed>
</trkpt>
<trkpt lat="55.736797" lon="26.218674">
<ele>130.396606</ele>
<time>2010-07-18T07:11:50Z</time>
<desc>lat.=55.736797, lon.=26.218674, Alt.=130.396606m. Speed=0.000000m/h.</desc>
<speed>0.000000</speed>
</trkpt>
<trkpt lat="55.736797" lon="26.218674">
<ele>130.396606</ele>
<time>2010-07-18T07:11:51Z</time>
<desc>lat.=55.736797, lon.=26.218674, Alt.=130.396606m. Speed=0.000000m/h.</desc>
<speed>0.000000</speed>
</trkpt>
<trkpt lat="55.736797" lon="26.218674">
<ele>130.396606</ele>
<time>2010-07-18T07:11:52Z</time>
<desc>lat.=55.736797, lon.=26.218674, Alt.=130.396606m. Speed=0.000000m/h.</desc>
<speed>0.000000</speed>
</trkpt>
<trkpt lat="55.736797" lon="26.218674">
<ele>130.400513</ele>
<time>2010-07-18T07:11:53Z</time>
<desc>lat.=55.736797, lon.=26.218674, Alt.=130.400513m. Speed=0.000000m/h.</desc>
<speed>0.000000</speed>
</trkpt>
<trkpt lat="55.736797" lon="26.218672">
<ele>130.400513</ele>
<time>2010-07-18T07:11:54Z</time>
<desc>lat.=55.736797, lon.=26.218672, Alt.=130.400513m. Speed=0.000000m/h.</desc>
<speed>0.000000</speed>
</trkpt>
<trkpt lat="55.736797" lon="26.218672">
<ele>130.396606</ele>
<time>2010-07-18T07:11:55Z</time>
<desc>lat.=55.736797, lon.=26.218672, Alt.=130.396606m. Speed=0.000000m/h.</desc>
<speed>0.000000</speed>
</trkpt>
<trkpt lat="55.736797" lon="26.218672">
<ele>130.400513</ele>
<time>2010-07-18T07:11:56Z</time>
<desc>lat.=55.736797, lon.=26.218672, Alt.=130.400513m. Speed=0.000000m/h.</desc>
<speed>0.000000</speed>
</trkpt>
<trkpt lat="55.736797" lon="26.218672">
<ele>130.400513</ele>
<time>2010-07-18T07:11:57Z</time>
<desc>lat.=55.736797, lon.=26.218672, Alt.=130.400513m. Speed=0.000000m/h.</desc>
<speed>0.000000</speed>
</trkpt>
<trkpt lat="55.736797" lon="26.218672">
<ele>130.400513</ele>
<time>2010-07-18T07:11:58Z</time>
<desc>lat.=55.736797, lon.=26.218672, Alt.=130.400513m. Speed=0.036000m/h.</desc>
<speed>0.010000</speed>
</trkpt>
<trkpt lat="55.736797" lon="26.218672">
<ele>130.404419</ele>
<time>2010-07-18T07:11:59Z</time>
<desc>lat.=55.736797, lon.=26.218672, Alt.=130.404419m. Speed=0.000000m/h.</desc>
<speed>0.000000</speed>
</trkpt>
<trkpt lat="55.736797" lon="26.218672">
<ele>130.400513</ele>
<time>2010-07-18T07:12:00Z</time>
<desc>lat.=55.736797, lon.=26.218672, Alt.=130.400513m. Speed=0.036000m/h.</desc>
<speed>0.010000</speed>
</trkpt>
<trkpt lat="55.736797" lon="26.218672">
<ele>130.400513</ele>
<time>2010-07-18T07:12:01Z</time>
<desc>lat.=55.736797, lon.=26.218672, Alt.=130.400513m. Speed=0.036000m/h.</desc>
<speed>0.010000</speed>
</trkpt>
<trkpt lat="55.736797" lon="26.218672">
<ele>130.400513</ele>
<time>2010-07-18T07:12:02Z</time>
<desc>lat.=55.736797, lon.=26.218672, Alt.=130.400513m. Speed=0.000000m/h.</desc>
<speed>0.000000</speed>
</trkpt>
<trkpt lat="55.736797" lon="26.218672">
<ele>130.396606</ele>
<time>2010-07-18T07:12:03Z</time>
<desc>lat.=55.736797, lon.=26.218672, Alt.=130.396606m. Speed=0.000000m/h.</desc>
<speed>0.000000</speed>
</trkpt>
<trkpt lat="55.736797" lon="26.218672">
<ele>130.392700</ele>
<time>2010-07-18T07:12:04Z</time>
<desc>lat.=55.736797, lon.=26.218672, Alt.=130.392700m. Speed=0.000000m/h.</desc>
<speed>0.000000</speed>
</trkpt>
<trkpt lat="55.736797" lon="26.218672">
<ele>130.392700</ele>
<time>2010-07-18T07:12:05Z</time>
<desc>lat.=55.736797, lon.=26.218672, Alt.=130.392700m. Speed=0.036000m/h.</desc>
<speed>0.010000</speed>
</trkpt>
<trkpt lat="55.736797" lon="26.218672">
<ele>130.392700</ele>
<time>2010-07-18T07:12:06Z</time>
<desc>lat.=55.736797, lon.=26.218672, Alt.=130.392700m. Speed=0.000000m/h.</desc>
<speed>0.000000</speed>
</trkpt>
<trkpt lat="55.736797" lon="26.218672">
<ele>130.388794</ele>
<time>2010-07-18T07:12:07Z</time>
<desc>lat.=55.736797, lon.=26.218672, Alt.=130.388794m. Speed=0.036000m/h.</desc>
<speed>0.010000</speed>
</trkpt>
<trkpt lat="55.736797" lon="26.218672">
<ele>130.388794</ele>
<time>2010-07-18T07:12:08Z</time>
<desc>lat.=55.736797, lon.=26.218672, Alt.=130.388794m. Speed=0.000000m/h.</desc>
<speed>0.000000</speed>
</trkpt>
<trkpt lat="55.736797" lon="26.218672">
<ele>130.388794</ele>
<time>2010-07-18T07:12:09Z</time>
<desc>lat.=55.736797, lon.=26.218672, Alt.=130.388794m. Speed=0.036000m/h.</desc>
<speed>0.010000</speed>
</trkpt>
<trkpt lat="55.736797" lon="26.218672">
<ele>130.388794</ele>
<time>2010-07-18T07:12:10Z</time>
<desc>lat.=55.736797, lon.=26.218672, Alt.=130.388794m. Speed=0.000000m/h.</desc>
<speed>0.000000</speed>
</trkpt>
<trkpt lat="55.736797" lon="26.218672">
<ele>130.388794</ele>
<time>2010-07-18T07:12:11Z</time>
<desc>lat.=55.736797, lon.=26.218672, Alt.=130.388794m. Speed=0.000000m/h.</desc>
<speed>0.000000</speed>
</trkpt>
<trkpt lat="55.736797" lon="26.218672">
<ele>130.396606</ele>
<time>2010-07-18T07:12:12Z</time>
<desc>lat.=55.736797, lon.=26.218672, Alt.=130.396606m. Speed=0.756000m/h.</desc>
<speed>0.210000</speed>
</trkpt>
<trkpt lat="55.736797" lon="26.218672">
<ele>130.400513</ele>
<time>2010-07-18T07:12:13Z</time>
<desc>lat.=55.736797, lon.=26.218672, Alt.=130.400513m. Speed=0.036000m/h.</desc>
<speed>0.010000</speed>
</trkpt>
<trkpt lat="55.736797" lon="26.218672">
<ele>130.400513</ele>
<time>2010-07-18T07:12:14Z</time>
<desc>lat.=55.736797, lon.=26.218672, Alt.=130.400513m. Speed=0.036000m/h.</desc>
<speed>0.010000</speed>
</trkpt>
<trkpt lat="55.736797" lon="26.218672">
<ele>130.400513</ele>
<time>2010-07-18T07:12:15Z</time>
<desc>lat.=55.736797, lon.=26.218672, Alt.=130.400513m. Speed=0.000000m/h.</desc>
<speed>0.000000</speed>
</trkpt>
<trkpt lat="55.736797" lon="26.218672">
<ele>130.400513</ele>
<time>2010-07-18T07:12:16Z</time>
<desc>lat.=55.736797, lon.=26.218672, Alt.=130.400513m. Speed=0.000000m/h.</desc>
<speed>0.000000</speed>
</trkpt>
<trkpt lat="55.736797" lon="26.218672">
<ele>130.396606</ele>
<time>2010-07-18T07:12:17Z</time>
<desc>lat.=55.736797, lon.=26.218672, Alt.=130.396606m. Speed=0.000000m/h.</desc>
<speed>0.000000</speed>
</trkpt>
<trkpt lat="55.736797" lon="26.218672">
<ele>130.396606</ele>
<time>2010-07-18T07:12:18Z</time>
<desc>lat.=55.736797, lon.=26.218672, Alt.=130.396606m. Speed=0.000000m/h.</desc>
<speed>0.000000</speed>
</trkpt>
<trkpt lat="55.736797" lon="26.218670">
<ele>130.396606</ele>
<time>2010-07-18T07:12:19Z</time>
<desc>lat.=55.736797, lon.=26.218670, Alt.=130.396606m. Speed=0.036000m/h.</desc>
<speed>0.010000</speed>
</trkpt>
<trkpt lat="55.736797" lon="26.218670">
<ele>130.392700</ele>
<time>2010-07-18T07:12:20Z</time>
<desc>lat.=55.736797, lon.=26.218670, Alt.=130.392700m. Speed=0.000000m/h.</desc>
<speed>0.000000</speed>
</trkpt>
<trkpt lat="55.736797" lon="26.218670">
<ele>130.388794</ele>
<time>2010-07-18T07:12:21Z</time>
<desc>lat.=55.736797, lon.=26.218670, Alt.=130.388794m. Speed=0.000000m/h.</desc>
<speed>0.000000</speed>
</trkpt>
<trkpt lat="55.736797" lon="26.218670">
<ele>130.392700</ele>
<time>2010-07-18T07:12:22Z</time>
<desc>lat.=55.736797, lon.=26.218670, Alt.=130.392700m. Speed=0.000000m/h.</desc>
<speed>0.000000</speed>
</trkpt>
<trkpt lat="55.736797" lon="26.218670">
<ele>130.388794</ele>
<time>2010-07-18T07:12:23Z</time>
<desc>lat.=55.736797, lon.=26.218670, Alt.=130.388794m. Speed=0.036000m/h.</desc>
<speed>0.010000</speed>
</trkpt>
<trkpt lat="55.736797" lon="26.218670">
<ele>130.388794</ele>
<time>2010-07-18T07:12:24Z</time>
<desc>lat.=55.736797, lon.=26.218670, Alt.=130.388794m. Speed=0.036000m/h.</desc>
<speed>0.010000</speed>
</trkpt>
<trkpt lat="55.736797" lon="26.218670">
<ele>130.384888</ele>
<time>2010-07-18T07:12:25Z</time>
<desc>lat.=55.736797, lon.=26.218670, Alt.=130.384888m. Speed=0.000000m/h.</desc>
<speed>0.000000</speed>
</trkpt>
<trkpt lat="55.736797" lon="26.218670">
<ele>130.384888</ele>
<time>2010-07-18T07:12:26Z</time>
<desc>lat.=55.736797, lon.=26.218670, Alt.=130.384888m. Speed=0.036000m/h.</desc>
<speed>0.010000</speed>
</trkpt>
<trkpt lat="55.736797" lon="26.218670">
<ele>130.380981</ele>
<time>2010-07-18T07:12:27Z</time>
<desc>lat.=55.736797, lon.=26.218670, Alt.=130.380981m. Speed=0.072000m/h.</desc>
<speed>0.020000</speed>
</trkpt>
<trkpt lat="55.736797" lon="26.218670">
<ele>130.377075</ele>
<time>2010-07-18T07:12:28Z</time>
<desc>lat.=55.736797, lon.=26.218670, Alt.=130.377075m. Speed=0.036000m/h.</desc>
<speed>0.010000</speed>
</trkpt>
<trkpt lat="55.736797" lon="26.218670">
<ele>130.373169</ele>
<time>2010-07-18T07:12:29Z</time>
<desc>lat.=55.736797, lon.=26.218670, Alt.=130.373169m. Speed=0.000000m/h.</desc>
<speed>0.000000</speed>
</trkpt>
<trkpt lat="55.736797" lon="26.218670">
<ele>130.369263</ele>
<time>2010-07-18T07:12:30Z</time>
<desc>lat.=55.736797, lon.=26.218670, Alt.=130.369263m. Speed=0.000000m/h.</desc>
<speed>0.000000</speed>
</trkpt>
<trkpt lat="55.736797" lon="26.218670">
<ele>130.365356</ele>
<time>2010-07-18T07:12:31Z</time>
<desc>lat.=55.736797, lon.=26.218670, Alt.=130.365356m. Speed=0.000000m/h.</desc>
<speed>0.000000</speed>
</trkpt>
<trkpt lat="55.736797" lon="26.218670">
<ele>130.365356</ele>
<time>2010-07-18T07:12:32Z</time>
<desc>lat.=55.736797, lon.=26.218670, Alt.=130.365356m. Speed=0.000000m/h.</desc>
<speed>0.000000</speed>
</trkpt>
<trkpt lat="55.736797" lon="26.218670">
<ele>130.361450</ele>
<time>2010-07-18T07:12:33Z</time>
<desc>lat.=55.736797, lon.=26.218670, Alt.=130.361450m. Speed=0.000000m/h.</desc>
<speed>0.000000</speed>
</trkpt>
<trkpt lat="55.736797" lon="26.218670">
<ele>130.361450</ele>
<time>2010-07-18T07:12:34Z</time>
<desc>lat.=55.736797, lon.=26.218670, Alt.=130.361450m. Speed=0.000000m/h.</desc>
<speed>0.000000</speed>
</trkpt>
<trkpt lat="55.736797" lon="26.218670">
<ele>130.357544</ele>
<time>2010-07-18T07:12:35Z</time>
<desc>lat.=55.736797, lon.=26.218670, Alt.=130.357544m. Speed=0.000000m/h.</desc>
<speed>0.000000</speed>
</trkpt>
<trkpt lat="55.736797" lon="26.218670">
<ele>130.353638</ele>
<time>2010-07-18T07:12:36Z</time>
<desc>lat.=55.736797, lon.=26.218670, Alt.=130.353638m. Speed=0.000000m/h.</desc>
<speed>0.000000</speed>
</trkpt>
<trkpt lat="55.736797" lon="26.218670">
<ele>130.349731</ele>
<time>2010-07-18T07:12:37Z</time>
<desc>lat.=55.736797, lon.=26.218670, Alt.=130.349731m. Speed=0.000000m/h.</desc>
<speed>0.000000</speed>
</trkpt>
<trkpt lat="55.736797" lon="26.218670">
<ele>130.349731</ele>
<time>2010-07-18T07:12:38Z</time>
<desc>lat.=55.736797, lon.=26.218670, Alt.=130.349731m. Speed=0.000000m/h.</desc>
<speed>0.000000</speed>
</trkpt>
<trkpt lat="55.736797" lon="26.218670">
<ele>130.349731</ele>
<time>2010-07-18T07:12:39Z</time>
<desc>lat.=55.736797, lon.=26.218670, Alt.=130.349731m. Speed=0.864000m/h.</desc>
<speed>0.240000</speed>
</trkpt>
<trkpt lat="55.736797" lon="26.218670">
<ele>130.353638</ele>
<time>2010-07-18T07:12:40Z</time>
<desc>lat.=55.736797, lon.=26.218670, Alt.=130.353638m. Speed=0.000000m/h.</desc>
<speed>0.000000</speed>
</trkpt>
<trkpt lat="55.736797" lon="26.218670">
<ele>130.353638</ele>
<time>2010-07-18T07:12:41Z</time>
<desc>lat.=55.736797, lon.=26.218670, Alt.=130.353638m. Speed=0.000000m/h.</desc>
<speed>0.000000</speed>
</trkpt>
<trkpt lat="55.736797" lon="26.218670">
<ele>130.353638</ele>
<time>2010-07-18T07:12:42Z</time>
<desc>lat.=55.736797, lon.=26.218670, Alt.=130.353638m. Speed=0.000000m/h.</desc>
<speed>0.000000</speed>
</trkpt>
<trkpt lat="55.736797" lon="26.218670">
<ele>130.353638</ele>
<time>2010-07-18T07:12:43Z</time>
<desc>lat.=55.736797, lon.=26.218670, Alt.=130.353638m. Speed=0.000000m/h.</desc>
<speed>0.000000</speed>
</trkpt>
<trkpt lat="55.736797" lon="26.218670">
<ele>130.349731</ele>
<time>2010-07-18T07:12:44Z</time>
<desc>lat.=55.736797, lon.=26.218670, Alt.=130.349731m. Speed=0.036000m/h.</desc>
<speed>0.010000</speed>
</trkpt>
<trkpt lat="55.736797" lon="26.218670">
<ele>130.349731</ele>
<time>2010-07-18T07:12:45Z</time>
<desc>lat.=55.736797, lon.=26.218670, Alt.=130.349731m. Speed=0.000000m/h.</desc>
<speed>0.000000</speed>
</trkpt>
<trkpt lat="55.736797" lon="26.218670">
<ele>130.345825</ele>
<time>2010-07-18T07:12:46Z</time>
<desc>lat.=55.736797, lon.=26.218670, Alt.=130.345825m. Speed=0.000000m/h.</desc>
<speed>0.000000</speed>
</trkpt>
<trkpt lat="55.736797" lon="26.218670">
<ele>130.345825</ele>
<time>2010-07-18T07:12:47Z</time>
<desc>lat.=55.736797, lon.=26.218670, Alt.=130.345825m. Speed=0.000000m/h.</desc>
<speed>0.000000</speed>
</trkpt>
<trkpt lat="55.736797" lon="26.218670">
<ele>130.345825</ele>
<time>2010-07-18T07:12:48Z</time>
<desc>lat.=55.736797, lon.=26.218670, Alt.=130.345825m. Speed=0.000000m/h.</desc>
<speed>0.000000</speed>
</trkpt>
<trkpt lat="55.736797" lon="26.218670">
<ele>130.345825</ele>
<time>2010-07-18T07:12:49Z</time>
<desc>lat.=55.736797, lon.=26.218670, Alt.=130.345825m. Speed=0.000000m/h.</desc>
<speed>0.000000</speed>
</trkpt>
<trkpt lat="55.736797" lon="26.218670">
<ele>130.341919</ele>
<time>2010-07-18T07:12:50Z</time>
<desc>lat.=55.736797, lon.=26.218670, Alt.=130.341919m. Speed=0.000000m/h.</desc>
<speed>0.000000</speed>
</trkpt>
<trkpt lat="55.736797" lon="26.218670">
<ele>130.338013</ele>
<time>2010-07-18T07:12:51Z</time>
<desc>lat.=55.736797, lon.=26.218670, Alt.=130.338013m. Speed=0.000000m/h.</desc>
<speed>0.000000</speed>
</trkpt>
<trkpt lat="55.736797" lon="26.218670">
<ele>130.334106</ele>
<time>2010-07-18T07:12:52Z</time>
<desc>lat.=55.736797, lon.=26.218670, Alt.=130.334106m. Speed=0.000000m/h.</desc>
<speed>0.000000</speed>
</trkpt>
<trkpt lat="55.736797" lon="26.218670">
<ele>130.330200</ele>
<time>2010-07-18T07:12:53Z</time>
<desc>lat.=55.736797, lon.=26.218670, Alt.=130.330200m. Speed=0.036000m/h.</desc>
<speed>0.010000</speed>
</trkpt>
<trkpt lat="55.736797" lon="26.218670">
<ele>130.330200</ele>
<time>2010-07-18T07:12:54Z</time>
<desc>lat.=55.736797, lon.=26.218670, Alt.=130.330200m. Speed=0.000000m/h.</desc>
<speed>0.000000</speed>
</trkpt>
<trkpt lat="55.736797" lon="26.218670">
<ele>130.330200</ele>
<time>2010-07-18T07:12:55Z</time>
<desc>lat.=55.736797, lon.=26.218670, Alt.=130.330200m. Speed=0.000000m/h.</desc>
<speed>0.000000</speed>
</trkpt>
<trkpt lat="55.736797" lon="26.218670">
<ele>130.326294</ele>
<time>2010-07-18T07:12:56Z</time>
<desc>lat.=55.736797, lon.=26.218670, Alt.=130.326294m. Speed=0.000000m/h.</desc>
<speed>0.000000</speed>
</trkpt>
<trkpt lat="55.736797" lon="26.218670">
<ele>130.322388</ele>
<time>2010-07-18T07:12:57Z</time>
<desc>lat.=55.736797, lon.=26.218670, Alt.=130.322388m. Speed=0.036000m/h.</desc>
<speed>0.010000</speed>
</trkpt>
<trkpt lat="55.736797" lon="26.218670">
<ele>130.322388</ele>
<time>2010-07-18T07:12:58Z</time>
<desc>lat.=55.736797, lon.=26.218670, Alt.=130.322388m. Speed=0.000000m/h.</desc>
<speed>0.000000</speed>
</trkpt>
<trkpt lat="55.736797" lon="26.218670">
<ele>130.322388</ele>
<time>2010-07-18T07:12:59Z</time>
<desc>lat.=55.736797, lon.=26.218670, Alt.=130.322388m. Speed=0.000000m/h.</desc>
<speed>0.000000</speed>
</trkpt>
<trkpt lat="55.736797" lon="26.218670">
<ele>130.322388</ele>
<time>2010-07-18T07:13:00Z</time>
<desc>lat.=55.736797, lon.=26.218670, Alt.=130.322388m. Speed=0.000000m/h.</desc>
<speed>0.000000</speed>
</trkpt>
<trkpt lat="55.736797" lon="26.218670">
<ele>130.318481</ele>
<time>2010-07-18T07:13:01Z</time>
<desc>lat.=55.736797, lon.=26.218670, Alt.=130.318481m. Speed=0.000000m/h.</desc>
<speed>0.000000</speed>
</trkpt>
<trkpt lat="55.736797" lon="26.218670">
<ele>130.318481</ele>
<time>2010-07-18T07:13:02Z</time>
<desc>lat.=55.736797, lon.=26.218670, Alt.=130.318481m. Speed=0.000000m/h.</desc>
<speed>0.000000</speed>
</trkpt>
<trkpt lat="55.736797" lon="26.218670">
<ele>130.318481</ele>
<time>2010-07-18T07:13:03Z</time>
<desc>lat.=55.736797, lon.=26.218670, Alt.=130.318481m. Speed=0.000000m/h.</desc>
<speed>0.000000</speed>
</trkpt>
<trkpt lat="55.736797" lon="26.218670">
<ele>130.318481</ele>
<time>2010-07-18T07:13:04Z</time>
<desc>lat.=55.736797, lon.=26.218670, Alt.=130.318481m. Speed=0.036000m/h.</desc>
<speed>0.010000</speed>
</trkpt>
<trkpt lat="55.736797" lon="26.218670">
<ele>130.314575</ele>
<time>2010-07-18T07:13:05Z</time>
<desc>lat.=55.736797, lon.=26.218670, Alt.=130.314575m. Speed=0.000000m/h.</desc>
<speed>0.000000</speed>
</trkpt>
<trkpt lat="55.736797" lon="26.218670">
<ele>130.314575</ele>
<time>2010-07-18T07:13:06Z</time>
<desc>lat.=55.736797, lon.=26.218670, Alt.=130.314575m. Speed=0.000000m/h.</desc>
<speed>0.000000</speed>
</trkpt>
<trkpt lat="55.736797" lon="26.218670">
<ele>130.314575</ele>
<time>2010-07-18T07:13:07Z</time>
<desc>lat.=55.736797, lon.=26.218670, Alt.=130.314575m. Speed=0.000000m/h.</desc>
<speed>0.000000</speed>
</trkpt>
<trkpt lat="55.736797" lon="26.218670">
<ele>130.310669</ele>
<time>2010-07-18T07:13:08Z</time>
<desc>lat.=55.736797, lon.=26.218670, Alt.=130.310669m. Speed=0.036000m/h.</desc>
<speed>0.010000</speed>
</trkpt>
<trkpt lat="55.736797" lon="26.218670">
<ele>130.314575</ele>
<time>2010-07-18T07:13:09Z</time>
<desc>lat.=55.736797, lon.=26.218670, Alt.=130.314575m. Speed=0.036000m/h.</desc>
<speed>0.010000</speed>
</trkpt>
<trkpt lat="55.736797" lon="26.218670">
<ele>130.310669</ele>
<time>2010-07-18T07:13:10Z</time>
<desc>lat.=55.736797, lon.=26.218670, Alt.=130.310669m. Speed=0.000000m/h.</desc>
<speed>0.000000</speed>
</trkpt>
<trkpt lat="55.736797" lon="26.218670">
<ele>130.306763</ele>
<time>2010-07-18T07:13:11Z</time>
<desc>lat.=55.736797, lon.=26.218670, Alt.=130.306763m. Speed=0.000000m/h.</desc>
<speed>0.000000</speed>
</trkpt>
<trkpt lat="55.736797" lon="26.218670">
<ele>130.306763</ele>
<time>2010-07-18T07:13:12Z</time>
<desc>lat.=55.736797, lon.=26.218670, Alt.=130.306763m. Speed=0.000000m/h.</desc>
<speed>0.000000</speed>
</trkpt>
<trkpt lat="55.736797" lon="26.218670">
<ele>130.306763</ele>
<time>2010-07-18T07:13:13Z</time>
<desc>lat.=55.736797, lon.=26.218670, Alt.=130.306763m. Speed=0.000000m/h.</desc>
<speed>0.000000</speed>
</trkpt>
<trkpt lat="55.736797" lon="26.218670">
<ele>130.306763</ele>
<time>2010-07-18T07:13:14Z</time>
<desc>lat.=55.736797, lon.=26.218670, Alt.=130.306763m. Speed=0.000000m/h.</desc>
<speed>0.000000</speed>
</trkpt>
<trkpt lat="55.736797" lon="26.218670">
<ele>130.302856</ele>
<time>2010-07-18T07:13:15Z</time>
<desc>lat.=55.736797, lon.=26.218670, Alt.=130.302856m. Speed=0.036000m/h.</desc>
<speed>0.010000</speed>
</trkpt>
<trkpt lat="55.736797" lon="26.218670">
<ele>130.302856</ele>
<time>2010-07-18T07:13:16Z</time>
<desc>lat.=55.736797, lon.=26.218670, Alt.=130.302856m. Speed=0.000000m/h.</desc>
<speed>0.000000</speed>
</trkpt>
<trkpt lat="55.736797" lon="26.218670">
<ele>130.302856</ele>
<time>2010-07-18T07:13:17Z</time>
<desc>lat.=55.736797, lon.=26.218670, Alt.=130.302856m. Speed=0.000000m/h.</desc>
<speed>0.000000</speed>
</trkpt>
<trkpt lat="55.736797" lon="26.218670">
<ele>130.302856</ele>
<time>2010-07-18T07:13:18Z</time>
<desc>lat.=55.736797, lon.=26.218670, Alt.=130.302856m. Speed=0.000000m/h.</desc>
<speed>0.000000</speed>
</trkpt>
<trkpt lat="55.736797" lon="26.218670">
<ele>130.302856</ele>
<time>2010-07-18T07:13:19Z</time>
<desc>lat.=55.736797, lon.=26.218670, Alt.=130.302856m. Speed=0.000000m/h.</desc>
<speed>0.000000</speed>
</trkpt>
<trkpt lat="55.736797" lon="26.218670">
<ele>130.298950</ele>
<time>2010-07-18T07:13:20Z</time>
<desc>lat.=55.736797, lon.=26.218670, Alt.=130.298950m. Speed=0.000000m/h.</desc>
<speed>0.000000</speed>
</trkpt>
<trkpt lat="55.736797" lon="26.218670">
<ele>130.298950</ele>
<time>2010-07-18T07:13:21Z</time>
<desc>lat.=55.736797, lon.=26.218670, Alt.=130.298950m. Speed=0.000000m/h.</desc>
<speed>0.000000</speed>
</trkpt>
<trkpt lat="55.736797" lon="26.218670">
<ele>130.295044</ele>
<time>2010-07-18T07:13:22Z</time>
<desc>lat.=55.736797, lon.=26.218670, Alt.=130.295044m. Speed=0.036000m/h.</desc>
<speed>0.010000</speed>
</trkpt>
<trkpt lat="55.736797" lon="26.218670">
<ele>130.295044</ele>
<time>2010-07-18T07:13:23Z</time>
<desc>lat.=55.736797, lon.=26.218670, Alt.=130.295044m. Speed=0.000000m/h.</desc>
<speed>0.000000</speed>
</trkpt>
<trkpt lat="55.736797" lon="26.218670">
<ele>130.295044</ele>
<time>2010-07-18T07:13:24Z</time>
<desc>lat.=55.736797, lon.=26.218670, Alt.=130.295044m. Speed=0.000000m/h.</desc>
<speed>0.000000</speed>
</trkpt>
<trkpt lat="55.736797" lon="26.218670">
<ele>130.295044</ele>
<time>2010-07-18T07:13:25Z</time>
<desc>lat.=55.736797, lon.=26.218670, Alt.=130.295044m. Speed=0.000000m/h.</desc>
<speed>0.000000</speed>
</trkpt>
<trkpt lat="55.736797" lon="26.218670">
<ele>130.291138</ele>
<time>2010-07-18T07:13:26Z</time>
<desc>lat.=55.736797, lon.=26.218670, Alt.=130.291138m. Speed=0.036000m/h.</desc>
<speed>0.010000</speed>
</trkpt>
<trkpt lat="55.736797" lon="26.218670">
<ele>130.287231</ele>
<time>2010-07-18T07:13:27Z</time>
<desc>lat.=55.736797, lon.=26.218670, Alt.=130.287231m. Speed=0.036000m/h.</desc>
<speed>0.010000</speed>
</trkpt>
<trkpt lat="55.736797" lon="26.218670">
<ele>130.283325</ele>
<time>2010-07-18T07:13:28Z</time>
<desc>lat.=55.736797, lon.=26.218670, Alt.=130.283325m. Speed=0.000000m/h.</desc>
<speed>0.000000</speed>
</trkpt>
<trkpt lat="55.736797" lon="26.218670">
<ele>130.283325</ele>
<time>2010-07-18T07:13:29Z</time>
<desc>lat.=55.736797, lon.=26.218670, Alt.=130.283325m. Speed=0.000000m/h.</desc>
<speed>0.000000</speed>
</trkpt>
<trkpt lat="55.736797" lon="26.218670">
<ele>130.283325</ele>
<time>2010-07-18T07:13:30Z</time>
<desc>lat.=55.736797, lon.=26.218670, Alt.=130.283325m. Speed=0.000000m/h.</desc>
<speed>0.000000</speed>
</trkpt>
<trkpt lat="55.736797" lon="26.218670">
<ele>130.283325</ele>
<time>2010-07-18T07:13:31Z</time>
<desc>lat.=55.736797, lon.=26.218670, Alt.=130.283325m. Speed=0.000000m/h.</desc>
<speed>0.000000</speed>
</trkpt>
<trkpt lat="55.736797" lon="26.218670">
<ele>130.279419</ele>
<time>2010-07-18T07:13:32Z</time>
<desc>lat.=55.736797, lon.=26.218670, Alt.=130.279419m. Speed=0.036000m/h.</desc>
<speed>0.010000</speed>
</trkpt>
<trkpt lat="55.736797" lon="26.218670">
<ele>130.279419</ele>
<time>2010-07-18T07:13:33Z</time>
<desc>lat.=55.736797, lon.=26.218670, Alt.=130.279419m. Speed=0.000000m/h.</desc>
<speed>0.000000</speed>
</trkpt>
<trkpt lat="55.736797" lon="26.218670">
<ele>130.275513</ele>
<time>2010-07-18T07:13:34Z</time>
<desc>lat.=55.736797, lon.=26.218670, Alt.=130.275513m. Speed=0.000000m/h.</desc>
<speed>0.000000</speed>
</trkpt>
<trkpt lat="55.736797" lon="26.218670">
<ele>130.271606</ele>
<time>2010-07-18T07:13:35Z</time>
<desc>lat.=55.736797, lon.=26.218670, Alt.=130.271606m. Speed=0.000000m/h.</desc>
<speed>0.000000</speed>
</trkpt>
<trkpt lat="55.736797" lon="26.218670">
<ele>130.267700</ele>
<time>2010-07-18T07:13:36Z</time>
<desc>lat.=55.736797, lon.=26.218670, Alt.=130.267700m. Speed=0.000000m/h.</desc>
<speed>0.000000</speed>
</trkpt>
<trkpt lat="55.736797" lon="26.218670">
<ele>130.267700</ele>
<time>2010-07-18T07:13:37Z</time>
<desc>lat.=55.736797, lon.=26.218670, Alt.=130.267700m. Speed=0.036000m/h.</desc>
<speed>0.010000</speed>
</trkpt>
<trkpt lat="55.736797" lon="26.218670">
<ele>130.259888</ele>
<time>2010-07-18T07:13:38Z</time>
<desc>lat.=55.736797, lon.=26.218670, Alt.=130.259888m. Speed=0.000000m/h.</desc>
<speed>0.000000</speed>
</trkpt>
<trkpt lat="55.736797" lon="26.218670">
<ele>130.252075</ele>
<time>2010-07-18T07:13:39Z</time>
<desc>lat.=55.736797, lon.=26.218670, Alt.=130.252075m. Speed=0.000000m/h.</desc>
<speed>0.000000</speed>
</trkpt>
<trkpt lat="55.736797" lon="26.218670">
<ele>130.248169</ele>
<time>2010-07-18T07:13:40Z</time>
<desc>lat.=55.736797, lon.=26.218670, Alt.=130.248169m. Speed=0.000000m/h.</desc>
<speed>0.000000</speed>
</trkpt>
<trkpt lat="55.736797" lon="26.218670">
<ele>130.240356</ele>
<time>2010-07-18T07:13:41Z</time>
<desc>lat.=55.736797, lon.=26.218670, Alt.=130.240356m. Speed=0.036000m/h.</desc>
<speed>0.010000</speed>
</trkpt>
<trkpt lat="55.736797" lon="26.218670">
<ele>130.236450</ele>
<time>2010-07-18T07:13:42Z</time>
<desc>lat.=55.736797, lon.=26.218670, Alt.=130.236450m. Speed=0.000000m/h.</desc>
<speed>0.000000</speed>
</trkpt>
<trkpt lat="55.736797" lon="26.218670">
<ele>130.232544</ele>
<time>2010-07-18T07:13:43Z</time>
<desc>lat.=55.736797, lon.=26.218670, Alt.=130.232544m. Speed=0.000000m/h.</desc>
<speed>0.000000</speed>
</trkpt>
<trkpt lat="55.736797" lon="26.218670">
<ele>130.228638</ele>
<time>2010-07-18T07:13:44Z</time>
<desc>lat.=55.736797, lon.=26.218670, Alt.=130.228638m. Speed=0.000000m/h.</desc>
<speed>0.000000</speed>
</trkpt>
<trkpt lat="55.736797" lon="26.218670">
<ele>130.224731</ele>
<time>2010-07-18T07:13:45Z</time>
<desc>lat.=55.736797, lon.=26.218670, Alt.=130.224731m. Speed=0.036000m/h.</desc>
<speed>0.010000</speed>
</trkpt>
<trkpt lat="55.736797" lon="26.218670">
<ele>130.220825</ele>
<time>2010-07-18T07:13:46Z</time>
<desc>lat.=55.736797, lon.=26.218670, Alt.=130.220825m. Speed=0.000000m/h.</desc>
<speed>0.000000</speed>
</trkpt>
<trkpt lat="55.736797" lon="26.218670">
<ele>130.220825</ele>
<time>2010-07-18T07:13:47Z</time>
<desc>lat.=55.736797, lon.=26.218670, Alt.=130.220825m. Speed=0.000000m/h.</desc>
<speed>0.000000</speed>
</trkpt>
<trkpt lat="55.736797" lon="26.218670">
<ele>130.216919</ele>
<time>2010-07-18T07:13:48Z</time>
<desc>lat.=55.736797, lon.=26.218670, Alt.=130.216919m. Speed=0.036000m/h.</desc>
<speed>0.010000</speed>
</trkpt>
<trkpt lat="55.736797" lon="26.218670">
<ele>130.213013</ele>
<time>2010-07-18T07:13:49Z</time>
<desc>lat.=55.736797, lon.=26.218670, Alt.=130.213013m. Speed=0.036000m/h.</desc>
<speed>0.010000</speed>
</trkpt>
<trkpt lat="55.736797" lon="26.218670">
<ele>130.209106</ele>
<time>2010-07-18T07:13:50Z</time>
<desc>lat.=55.736797, lon.=26.218670, Alt.=130.209106m. Speed=0.072000m/h.</desc>
<speed>0.020000</speed>
</trkpt>
<trkpt lat="55.736797" lon="26.218670">
<ele>130.209106</ele>
<time>2010-07-18T07:13:51Z</time>
<desc>lat.=55.736797, lon.=26.218670, Alt.=130.209106m. Speed=0.036000m/h.</desc>
<speed>0.010000</speed>
</trkpt>
<trkpt lat="55.736797" lon="26.218670">
<ele>130.205200</ele>
<time>2010-07-18T07:13:52Z</time>
<desc>lat.=55.736797, lon.=26.218670, Alt.=130.205200m. Speed=0.000000m/h.</desc>
<speed>0.000000</speed>
</trkpt>
<trkpt lat="55.736797" lon="26.218670">
<ele>130.201294</ele>
<time>2010-07-18T07:13:53Z</time>
<desc>lat.=55.736797, lon.=26.218670, Alt.=130.201294m. Speed=0.000000m/h.</desc>
<speed>0.000000</speed>
</trkpt>
<trkpt lat="55.736797" lon="26.218670">
<ele>130.201294</ele>
<time>2010-07-18T07:13:54Z</time>
<desc>lat.=55.736797, lon.=26.218670, Alt.=130.201294m. Speed=0.000000m/h.</desc>
<speed>0.000000</speed>
</trkpt>
<trkpt lat="55.736797" lon="26.218670">
<ele>130.201294</ele>
<time>2010-07-18T07:13:55Z</time>
<desc>lat.=55.736797, lon.=26.218670, Alt.=130.201294m. Speed=0.000000m/h.</desc>
<speed>0.000000</speed>
</trkpt>
<trkpt lat="55.736797" lon="26.218670">
<ele>130.197388</ele>
<time>2010-07-18T07:13:56Z</time>
<desc>lat.=55.736797, lon.=26.218670, Alt.=130.197388m. Speed=0.036000m/h.</desc>
<speed>0.010000</speed>
</trkpt>
<trkpt lat="55.736797" lon="26.218670">
<ele>130.197388</ele>
<time>2010-07-18T07:13:57Z</time>
<desc>lat.=55.736797, lon.=26.218670, Alt.=130.197388m. Speed=0.000000m/h.</desc>
<speed>0.000000</speed>
</trkpt>
<trkpt lat="55.736797" lon="26.218670">
<ele>130.197388</ele>
<time>2010-07-18T07:13:58Z</time>
<desc>lat.=55.736797, lon.=26.218670, Alt.=130.197388m. Speed=0.036000m/h.</desc>
<speed>0.010000</speed>
</trkpt>
<trkpt lat="55.736797" lon="26.218670">
<ele>130.193481</ele>
<time>2010-07-18T07:13:59Z</time>
<desc>lat.=55.736797, lon.=26.218670, Alt.=130.193481m. Speed=0.000000m/h.</desc>
<speed>0.000000</speed>
</trkpt>
<trkpt lat="55.736797" lon="26.218670">
<ele>130.189575</ele>
<time>2010-07-18T07:14:00Z</time>
<desc>lat.=55.736797, lon.=26.218670, Alt.=130.189575m. Speed=0.000000m/h.</desc>
<speed>0.000000</speed>
</trkpt>
<trkpt lat="55.736797" lon="26.218670">
<ele>130.189575</ele>
<time>2010-07-18T07:14:01Z</time>
<desc>lat.=55.736797, lon.=26.218670, Alt.=130.189575m. Speed=0.000000m/h.</desc>
<speed>0.000000</speed>
</trkpt>
<trkpt lat="55.736797" lon="26.218670">
<ele>130.189575</ele>
<time>2010-07-18T07:14:02Z</time>
<desc>lat.=55.736797, lon.=26.218670, Alt.=130.189575m. Speed=0.000000m/h.</desc>
<speed>0.000000</speed>
</trkpt>
<trkpt lat="55.736797" lon="26.218670">
<ele>130.185669</ele>
<time>2010-07-18T07:14:03Z</time>
<desc>lat.=55.736797, lon.=26.218670, Alt.=130.185669m. Speed=0.000000m/h.</desc>
<speed>0.000000</speed>
</trkpt>
<trkpt lat="55.736797" lon="26.218670">
<ele>130.185669</ele>
<time>2010-07-18T07:14:04Z</time>
<desc>lat.=55.736797, lon.=26.218670, Alt.=130.185669m. Speed=0.000000m/h.</desc>
<speed>0.000000</speed>
</trkpt>
<trkpt lat="55.736797" lon="26.218670">
<ele>130.181763</ele>
<time>2010-07-18T07:14:05Z</time>
<desc>lat.=55.736797, lon.=26.218670, Alt.=130.181763m. Speed=0.000000m/h.</desc>
<speed>0.000000</speed>
</trkpt>
<trkpt lat="55.736797" lon="26.218670">
<ele>130.181763</ele>
<time>2010-07-18T07:14:06Z</time>
<desc>lat.=55.736797, lon.=26.218670, Alt.=130.181763m. Speed=0.000000m/h.</desc>
<speed>0.000000</speed>
</trkpt>
<trkpt lat="55.736797" lon="26.218670">
<ele>130.185669</ele>
<time>2010-07-18T07:14:07Z</time>
<desc>lat.=55.736797, lon.=26.218670, Alt.=130.185669m. Speed=0.000000m/h.</desc>
<speed>0.000000</speed>
</trkpt>
<trkpt lat="55.736797" lon="26.218670">
<ele>130.185669</ele>
<time>2010-07-18T07:14:08Z</time>
<desc>lat.=55.736797, lon.=26.218670, Alt.=130.185669m. Speed=0.000000m/h.</desc>
<speed>0.000000</speed>
</trkpt>
<trkpt lat="55.736797" lon="26.218670">
<ele>130.181763</ele>
<time>2010-07-18T07:14:09Z</time>
<desc>lat.=55.736797, lon.=26.218670, Alt.=130.181763m. Speed=0.000000m/h.</desc>
<speed>0.000000</speed>
</trkpt>
<trkpt lat="55.736797" lon="26.218670">
<ele>130.177856</ele>
<time>2010-07-18T07:14:10Z</time>
<desc>lat.=55.736797, lon.=26.218670, Alt.=130.177856m. Speed=0.036000m/h.</desc>
<speed>0.010000</speed>
</trkpt>
<trkpt lat="55.736797" lon="26.218670">
<ele>130.181763</ele>
<time>2010-07-18T07:14:11Z</time>
<desc>lat.=55.736797, lon.=26.218670, Alt.=130.181763m. Speed=0.036000m/h.</desc>
<speed>0.010000</speed>
</trkpt>
<trkpt lat="55.736797" lon="26.218670">
<ele>130.177856</ele>
<time>2010-07-18T07:14:12Z</time>
<desc>lat.=55.736797, lon.=26.218670, Alt.=130.177856m. Speed=0.000000m/h.</desc>
<speed>0.000000</speed>
</trkpt>
<trkpt lat="55.736797" lon="26.218670">
<ele>130.173950</ele>
<time>2010-07-18T07:14:13Z</time>
<desc>lat.=55.736797, lon.=26.218670, Alt.=130.173950m. Speed=0.000000m/h.</desc>
<speed>0.000000</speed>
</trkpt>
<trkpt lat="55.736797" lon="26.218670">
<ele>130.173950</ele>
<time>2010-07-18T07:14:14Z</time>
<desc>lat.=55.736797, lon.=26.218670, Alt.=130.173950m. Speed=0.000000m/h.</desc>
<speed>0.000000</speed>
</trkpt>
<trkpt lat="55.736797" lon="26.218670">
<ele>130.170044</ele>
<time>2010-07-18T07:14:15Z</time>
<desc>lat.=55.736797, lon.=26.218670, Alt.=130.170044m. Speed=0.000000m/h.</desc>
<speed>0.000000</speed>
</trkpt>
<trkpt lat="55.736797" lon="26.218670">
<ele>130.170044</ele>
<time>2010-07-18T07:14:16Z</time>
<desc>lat.=55.736797, lon.=26.218670, Alt.=130.170044m. Speed=0.000000m/h.</desc>
<speed>0.000000</speed>
</trkpt>
<trkpt lat="55.736797" lon="26.218670">
<ele>130.173950</ele>
<time>2010-07-18T07:14:17Z</time>
<desc>lat.=55.736797, lon.=26.218670, Alt.=130.173950m. Speed=0.000000m/h.</desc>
<speed>0.000000</speed>
</trkpt>
<trkpt lat="55.736797" lon="26.218670">
<ele>130.173950</ele>
<time>2010-07-18T07:14:18Z</time>
<desc>lat.=55.736797, lon.=26.218670, Alt.=130.173950m. Speed=0.000000m/h.</desc>
<speed>0.000000</speed>
</trkpt>
<trkpt lat="55.736797" lon="26.218670">
<ele>130.173950</ele>
<time>2010-07-18T07:14:19Z</time>
<desc>lat.=55.736797, lon.=26.218670, Alt.=130.173950m. Speed=0.000000m/h.</desc>
<speed>0.000000</speed>
</trkpt>
<trkpt lat="55.736797" lon="26.218670">
<ele>130.173950</ele>
<time>2010-07-18T07:14:20Z</time>
<desc>lat.=55.736797, lon.=26.218670, Alt.=130.173950m. Speed=0.000000m/h.</desc>
<speed>0.000000</speed>
</trkpt>
<trkpt lat="55.736797" lon="26.218672">
<ele>130.173950</ele>
<time>2010-07-18T07:14:21Z</time>
<desc>lat.=55.736797, lon.=26.218672, Alt.=130.173950m. Speed=0.000000m/h.</desc>
<speed>0.000000</speed>
</trkpt>
<trkpt lat="55.736797" lon="26.218672">
<ele>130.173950</ele>
<time>2010-07-18T07:14:22Z</time>
<desc>lat.=55.736797, lon.=26.218672, Alt.=130.173950m. Speed=0.000000m/h.</desc>
<speed>0.000000</speed>
</trkpt>
<trkpt lat="55.736797" lon="26.218672">
<ele>130.170044</ele>
<time>2010-07-18T07:14:23Z</time>
<desc>lat.=55.736797, lon.=26.218672, Alt.=130.170044m. Speed=0.000000m/h.</desc>
<speed>0.000000</speed>
</trkpt>
<trkpt lat="55.736797" lon="26.218672">
<ele>130.170044</ele>
<time>2010-07-18T07:14:24Z</time>
<desc>lat.=55.736797, lon.=26.218672, Alt.=130.170044m. Speed=0.036000m/h.</desc>
<speed>0.010000</speed>
</trkpt>
<trkpt lat="55.736797" lon="26.218672">
<ele>130.166138</ele>
<time>2010-07-18T07:14:25Z</time>
<desc>lat.=55.736797, lon.=26.218672, Alt.=130.166138m. Speed=0.000000m/h.</desc>
<speed>0.000000</speed>
</trkpt>
<trkpt lat="55.736797" lon="26.218672">
<ele>130.166138</ele>
<time>2010-07-18T07:14:26Z</time>
<desc>lat.=55.736797, lon.=26.218672, Alt.=130.166138m. Speed=0.000000m/h.</desc>
<speed>0.000000</speed>
</trkpt>
<trkpt lat="55.736797" lon="26.218672">
<ele>130.166138</ele>
<time>2010-07-18T07:14:27Z</time>
<desc>lat.=55.736797, lon.=26.218672, Alt.=130.166138m. Speed=0.000000m/h.</desc>
<speed>0.000000</speed>
</trkpt>
<trkpt lat="55.736797" lon="26.218672">
<ele>130.166138</ele>
<time>2010-07-18T07:14:28Z</time>
<desc>lat.=55.736797, lon.=26.218672, Alt.=130.166138m. Speed=0.000000m/h.</desc>
<speed>0.000000</speed>
</trkpt>
<trkpt lat="55.736797" lon="26.218672">
<ele>130.166138</ele>
<time>2010-07-18T07:14:29Z</time>
<desc>lat.=55.736797, lon.=26.218672, Alt.=130.166138m. Speed=0.000000m/h.</desc>
<speed>0.000000</speed>
</trkpt>
<trkpt lat="55.736797" lon="26.218672">
<ele>130.170044</ele>
<time>2010-07-18T07:14:30Z</time>
<desc>lat.=55.736797, lon.=26.218672, Alt.=130.170044m. Speed=0.000000m/h.</desc>
<speed>0.000000</speed>
</trkpt>
<trkpt lat="55.736797" lon="26.218672">
<ele>130.166138</ele>
<time>2010-07-18T07:14:31Z</time>
<desc>lat.=55.736797, lon.=26.218672, Alt.=130.166138m. Speed=0.000000m/h.</desc>
<speed>0.000000</speed>
</trkpt>
<trkpt lat="55.736797" lon="26.218672">
<ele>130.166138</ele>
<time>2010-07-18T07:14:32Z</time>
<desc>lat.=55.736797, lon.=26.218672, Alt.=130.166138m. Speed=0.000000m/h.</desc>
<speed>0.000000</speed>
</trkpt>
<trkpt lat="55.736797" lon="26.218672">
<ele>130.166138</ele>
<time>2010-07-18T07:14:33Z</time>
<desc>lat.=55.736797, lon.=26.218672, Alt.=130.166138m. Speed=0.000000m/h.</desc>
<speed>0.000000</speed>
</trkpt>
<trkpt lat="55.736797" lon="26.218672">
<ele>130.170044</ele>
<time>2010-07-18T07:14:34Z</time>
<desc>lat.=55.736797, lon.=26.218672, Alt.=130.170044m. Speed=0.036000m/h.</desc>
<speed>0.010000</speed>
</trkpt>
<trkpt lat="55.736797" lon="26.218672">
<ele>130.170044</ele>
<time>2010-07-18T07:14:35Z</time>
<desc>lat.=55.736797, lon.=26.218672, Alt.=130.170044m. Speed=0.000000m/h.</desc>
<speed>0.000000</speed>
</trkpt>
<trkpt lat="55.736797" lon="26.218672">
<ele>130.170044</ele>
<time>2010-07-18T07:14:36Z</time>
<desc>lat.=55.736797, lon.=26.218672, Alt.=130.170044m. Speed=0.000000m/h.</desc>
<speed>0.000000</speed>
</trkpt>
<trkpt lat="55.736797" lon="26.218672">
<ele>130.170044</ele>
<time>2010-07-18T07:14:37Z</time>
<desc>lat.=55.736797, lon.=26.218672, Alt.=130.170044m. Speed=0.000000m/h.</desc>
<speed>0.000000</speed>
</trkpt>
<trkpt lat="55.736797" lon="26.218672">
<ele>130.170044</ele>
<time>2010-07-18T07:14:38Z</time>
<desc>lat.=55.736797, lon.=26.218672, Alt.=130.170044m. Speed=0.000000m/h.</desc>
<speed>0.000000</speed>
</trkpt>
<trkpt lat="55.736797" lon="26.218672">
<ele>130.170044</ele>
<time>2010-07-18T07:14:39Z</time>
<desc>lat.=55.736797, lon.=26.218672, Alt.=130.170044m. Speed=0.000000m/h.</desc>
<speed>0.000000</speed>
</trkpt>
<trkpt lat="55.736797" lon="26.218672">
<ele>130.170044</ele>
<time>2010-07-18T07:14:40Z</time>
<desc>lat.=55.736797, lon.=26.218672, Alt.=130.170044m. Speed=0.000000m/h.</desc>
<speed>0.000000</speed>
</trkpt>
<trkpt lat="55.736797" lon="26.218672">
<ele>130.170044</ele>
<time>2010-07-18T07:14:41Z</time>
<desc>lat.=55.736797, lon.=26.218672, Alt.=130.170044m. Speed=0.036000m/h.</desc>
<speed>0.010000</speed>
</trkpt>
<trkpt lat="55.736797" lon="26.218672">
<ele>130.166138</ele>
<time>2010-07-18T07:14:42Z</time>
<desc>lat.=55.736797, lon.=26.218672, Alt.=130.166138m. Speed=0.000000m/h.</desc>
<speed>0.000000</speed>
</trkpt>
<trkpt lat="55.736797" lon="26.218672">
<ele>130.166138</ele>
<time>2010-07-18T07:14:43Z</time>
<desc>lat.=55.736797, lon.=26.218672, Alt.=130.166138m. Speed=0.036000m/h.</desc>
<speed>0.010000</speed>
</trkpt>
<trkpt lat="55.736797" lon="26.218672">
<ele>130.162231</ele>
<time>2010-07-18T07:14:44Z</time>
<desc>lat.=55.736797, lon.=26.218672, Alt.=130.162231m. Speed=0.000000m/h.</desc>
<speed>0.000000</speed>
</trkpt>
<trkpt lat="55.736797" lon="26.218672">
<ele>130.162231</ele>
<time>2010-07-18T07:14:45Z</time>
<desc>lat.=55.736797, lon.=26.218672, Alt.=130.162231m. Speed=0.000000m/h.</desc>
<speed>0.000000</speed>
</trkpt>
<trkpt lat="55.736797" lon="26.218672">
<ele>130.162231</ele>
<time>2010-07-18T07:14:46Z</time>
<desc>lat.=55.736797, lon.=26.218672, Alt.=130.162231m. Speed=0.036000m/h.</desc>
<speed>0.010000</speed>
</trkpt>
<trkpt lat="55.736797" lon="26.218672">
<ele>130.162231</ele>
<time>2010-07-18T07:14:47Z</time>
<desc>lat.=55.736797, lon.=26.218672, Alt.=130.162231m. Speed=0.000000m/h.</desc>
<speed>0.000000</speed>
</trkpt>
<trkpt lat="55.736797" lon="26.218672">
<ele>130.158325</ele>
<time>2010-07-18T07:14:48Z</time>
<desc>lat.=55.736797, lon.=26.218672, Alt.=130.158325m. Speed=0.036000m/h.</desc>
<speed>0.010000</speed>
</trkpt>
<trkpt lat="55.736797" lon="26.218672">
<ele>130.158325</ele>
<time>2010-07-18T07:14:49Z</time>
<desc>lat.=55.736797, lon.=26.218672, Alt.=130.158325m. Speed=0.000000m/h.</desc>
<speed>0.000000</speed>
</trkpt>
<trkpt lat="55.736797" lon="26.218672">
<ele>130.154419</ele>
<time>2010-07-18T07:14:50Z</time>
<desc>lat.=55.736797, lon.=26.218672, Alt.=130.154419m. Speed=0.000000m/h.</desc>
<speed>0.000000</speed>
</trkpt>
<trkpt lat="55.736797" lon="26.218672">
<ele>130.150513</ele>
<time>2010-07-18T07:14:51Z</time>
<desc>lat.=55.736797, lon.=26.218672, Alt.=130.150513m. Speed=0.036000m/h.</desc>
<speed>0.010000</speed>
</trkpt>
<trkpt lat="55.736797" lon="26.218672">
<ele>130.150513</ele>
<time>2010-07-18T07:14:52Z</time>
<desc>lat.=55.736797, lon.=26.218672, Alt.=130.150513m. Speed=0.000000m/h.</desc>
<speed>0.000000</speed>
</trkpt>
<trkpt lat="55.736797" lon="26.218672">
<ele>130.146606</ele>
<time>2010-07-18T07:14:53Z</time>
<desc>lat.=55.736797, lon.=26.218672, Alt.=130.146606m. Speed=0.000000m/h.</desc>
<speed>0.000000</speed>
</trkpt>
<trkpt lat="55.736797" lon="26.218672">
<ele>130.146606</ele>
<time>2010-07-18T07:14:54Z</time>
<desc>lat.=55.736797, lon.=26.218672, Alt.=130.146606m. Speed=0.000000m/h.</desc>
<speed>0.000000</speed>
</trkpt>
<trkpt lat="55.736797" lon="26.218672">
<ele>130.146606</ele>
<time>2010-07-18T07:14:55Z</time>
<desc>lat.=55.736797, lon.=26.218672, Alt.=130.146606m. Speed=0.000000m/h.</desc>
<speed>0.000000</speed>
</trkpt>
<trkpt lat="55.736797" lon="26.218672">
<ele>130.142700</ele>
<time>2010-07-18T07:14:56Z</time>
<desc>lat.=55.736797, lon.=26.218672, Alt.=130.142700m. Speed=0.000000m/h.</desc>
<speed>0.000000</speed>
</trkpt>
<trkpt lat="55.736797" lon="26.218672">
<ele>130.146606</ele>
<time>2010-07-18T07:14:57Z</time>
<desc>lat.=55.736797, lon.=26.218672, Alt.=130.146606m. Speed=0.000000m/h.</desc>
<speed>0.000000</speed>
</trkpt>
<trkpt lat="55.736797" lon="26.218672">
<ele>130.146606</ele>
<time>2010-07-18T07:14:58Z</time>
<desc>lat.=55.736797, lon.=26.218672, Alt.=130.146606m. Speed=0.000000m/h.</desc>
<speed>0.000000</speed>
</trkpt>
<trkpt lat="55.736797" lon="26.218672">
<ele>130.146606</ele>
<time>2010-07-18T07:14:59Z</time>
<desc>lat.=55.736797, lon.=26.218672, Alt.=130.146606m. Speed=0.000000m/h.</desc>
<speed>0.000000</speed>
</trkpt>
<trkpt lat="55.736797" lon="26.218672">
<ele>130.146606</ele>
<time>2010-07-18T07:15:00Z</time>
<desc>lat.=55.736797, lon.=26.218672, Alt.=130.146606m. Speed=0.000000m/h.</desc>
<speed>0.000000</speed>
</trkpt>
<trkpt lat="55.736797" lon="26.218672">
<ele>130.146606</ele>
<time>2010-07-18T07:15:01Z</time>
<desc>lat.=55.736797, lon.=26.218672, Alt.=130.146606m. Speed=0.000000m/h.</desc>
<speed>0.000000</speed>
</trkpt>
<trkpt lat="55.736797" lon="26.218672">
<ele>130.150513</ele>
<time>2010-07-18T07:15:02Z</time>
<desc>lat.=55.736797, lon.=26.218672, Alt.=130.150513m. Speed=0.000000m/h.</desc>
<speed>0.000000</speed>
</trkpt>
<trkpt lat="55.736797" lon="26.218672">
<ele>130.158325</ele>
<time>2010-07-18T07:15:03Z</time>
<desc>lat.=55.736797, lon.=26.218672, Alt.=130.158325m. Speed=0.000000m/h.</desc>
<speed>0.000000</speed>
</trkpt>
<trkpt lat="55.736797" lon="26.218672">
<ele>130.162231</ele>
<time>2010-07-18T07:15:04Z</time>
<desc>lat.=55.736797, lon.=26.218672, Alt.=130.162231m. Speed=0.000000m/h.</desc>
<speed>0.000000</speed>
</trkpt>
<trkpt lat="55.736797" lon="26.218672">
<ele>130.166138</ele>
<time>2010-07-18T07:15:05Z</time>
<desc>lat.=55.736797, lon.=26.218672, Alt.=130.166138m. Speed=0.000000m/h.</desc>
<speed>0.000000</speed>
</trkpt>
<trkpt lat="55.736797" lon="26.218672">
<ele>130.170044</ele>
<time>2010-07-18T07:15:06Z</time>
<desc>lat.=55.736797, lon.=26.218672, Alt.=130.170044m. Speed=0.000000m/h.</desc>
<speed>0.000000</speed>
</trkpt>
<trkpt lat="55.736797" lon="26.218672">
<ele>130.173950</ele>
<time>2010-07-18T07:15:07Z</time>
<desc>lat.=55.736797, lon.=26.218672, Alt.=130.173950m. Speed=0.000000m/h.</desc>
<speed>0.000000</speed>
</trkpt>
<trkpt lat="55.736797" lon="26.218672">
<ele>130.173950</ele>
<time>2010-07-18T07:15:08Z</time>
<desc>lat.=55.736797, lon.=26.218672, Alt.=130.173950m. Speed=0.000000m/h.</desc>
<speed>0.000000</speed>
</trkpt>
<trkpt lat="55.736797" lon="26.218672">
<ele>130.181763</ele>
<time>2010-07-18T07:15:09Z</time>
<desc>lat.=55.736797, lon.=26.218672, Alt.=130.181763m. Speed=0.000000m/h.</desc>
<speed>0.000000</speed>
</trkpt>
<trkpt lat="55.736797" lon="26.218672">
<ele>130.181763</ele>
<time>2010-07-18T07:15:10Z</time>
<desc>lat.=55.736797, lon.=26.218672, Alt.=130.181763m. Speed=0.000000m/h.</desc>
<speed>0.000000</speed>
</trkpt>
<trkpt lat="55.736797" lon="26.218672">
<ele>130.185669</ele>
<time>2010-07-18T07:15:11Z</time>
<desc>lat.=55.736797, lon.=26.218672, Alt.=130.185669m. Speed=0.000000m/h.</desc>
<speed>0.000000</speed>
</trkpt>
<trkpt lat="55.736797" lon="26.218672">
<ele>130.193481</ele>
<time>2010-07-18T07:15:12Z</time>
<desc>lat.=55.736797, lon.=26.218672, Alt.=130.193481m. Speed=0.000000m/h.</desc>
<speed>0.000000</speed>
</trkpt>
<trkpt lat="55.736797" lon="26.218672">
<ele>130.197388</ele>
<time>2010-07-18T07:15:13Z</time>
<desc>lat.=55.736797, lon.=26.218672, Alt.=130.197388m. Speed=0.000000m/h.</desc>
<speed>0.000000</speed>
</trkpt>
<trkpt lat="55.736797" lon="26.218672">
<ele>130.201294</ele>
<time>2010-07-18T07:15:14Z</time>
<desc>lat.=55.736797, lon.=26.218672, Alt.=130.201294m. Speed=0.000000m/h.</desc>
<speed>0.000000</speed>
</trkpt>
<trkpt lat="55.736797" lon="26.218672">
<ele>130.205200</ele>
<time>2010-07-18T07:15:15Z</time>
<desc>lat.=55.736797, lon.=26.218672, Alt.=130.205200m. Speed=0.000000m/h.</desc>
<speed>0.000000</speed>
</trkpt>
<trkpt lat="55.736797" lon="26.218672">
<ele>130.209106</ele>
<time>2010-07-18T07:15:16Z</time>
<desc>lat.=55.736797, lon.=26.218672, Alt.=130.209106m. Speed=0.000000m/h.</desc>
<speed>0.000000</speed>
</trkpt>
<trkpt lat="55.736797" lon="26.218672">
<ele>130.213013</ele>
<time>2010-07-18T07:15:17Z</time>
<desc>lat.=55.736797, lon.=26.218672, Alt.=130.213013m. Speed=0.000000m/h.</desc>
<speed>0.000000</speed>
</trkpt>
<trkpt lat="55.736797" lon="26.218672">
<ele>130.216919</ele>
<time>2010-07-18T07:15:18Z</time>
<desc>lat.=55.736797, lon.=26.218672, Alt.=130.216919m. Speed=0.000000m/h.</desc>
<speed>0.000000</speed>
</trkpt>
<trkpt lat="55.736797" lon="26.218672">
<ele>130.224731</ele>
<time>2010-07-18T07:15:19Z</time>
<desc>lat.=55.736797, lon.=26.218672, Alt.=130.224731m. Speed=0.000000m/h.</desc>
<speed>0.000000</speed>
</trkpt>
<trkpt lat="55.736797" lon="26.218672">
<ele>130.224731</ele>
<time>2010-07-18T07:15:20Z</time>
<desc>lat.=55.736797, lon.=26.218672, Alt.=130.224731m. Speed=0.000000m/h.</desc>
<speed>0.000000</speed>
</trkpt>
<trkpt lat="55.736797" lon="26.218672">
<ele>130.232544</ele>
<time>2010-07-18T07:15:21Z</time>
<desc>lat.=55.736797, lon.=26.218672, Alt.=130.232544m. Speed=0.000000m/h.</desc>
<speed>0.000000</speed>
</trkpt>
<trkpt lat="55.736797" lon="26.218672">
<ele>130.232544</ele>
<time>2010-07-18T07:15:22Z</time>
<desc>lat.=55.736797, lon.=26.218672, Alt.=130.232544m. Speed=0.000000m/h.</desc>
<speed>0.000000</speed>
</trkpt>
<trkpt lat="55.736797" lon="26.218672">
<ele>130.236450</ele>
<time>2010-07-18T07:15:23Z</time>
<desc>lat.=55.736797, lon.=26.218672, Alt.=130.236450m. Speed=0.000000m/h.</desc>
<speed>0.000000</speed>
</trkpt>
<trkpt lat="55.736797" lon="26.218672">
<ele>130.236450</ele>
<time>2010-07-18T07:15:24Z</time>
<desc>lat.=55.736797, lon.=26.218672, Alt.=130.236450m. Speed=0.000000m/h.</desc>
<speed>0.000000</speed>
</trkpt>
<trkpt lat="55.736797" lon="26.218672">
<ele>130.240356</ele>
<time>2010-07-18T07:15:25Z</time>
<desc>lat.=55.736797, lon.=26.218672, Alt.=130.240356m. Speed=0.000000m/h.</desc>
<speed>0.000000</speed>
</trkpt>
<trkpt lat="55.736797" lon="26.218672">
<ele>130.240356</ele>
<time>2010-07-18T07:15:26Z</time>
<desc>lat.=55.736797, lon.=26.218672, Alt.=130.240356m. Speed=0.000000m/h.</desc>
<speed>0.000000</speed>
</trkpt>
<trkpt lat="55.736797" lon="26.218672">
<ele>130.240356</ele>
<time>2010-07-18T07:15:27Z</time>
<desc>lat.=55.736797, lon.=26.218672, Alt.=130.240356m. Speed=0.000000m/h.</desc>
<speed>0.000000</speed>
</trkpt>
<trkpt lat="55.736797" lon="26.218674">
<ele>130.240356</ele>
<time>2010-07-18T07:15:28Z</time>
<desc>lat.=55.736797, lon.=26.218674, Alt.=130.240356m. Speed=0.000000m/h.</desc>
<speed>0.000000</speed>
</trkpt>
<trkpt lat="55.736797" lon="26.218674">
<ele>130.236450</ele>
<time>2010-07-18T07:15:29Z</time>
<desc>lat.=55.736797, lon.=26.218674, Alt.=130.236450m. Speed=0.000000m/h.</desc>
<speed>0.000000</speed>
</trkpt>
<trkpt lat="55.736797" lon="26.218674">
<ele>130.240356</ele>
<time>2010-07-18T07:15:30Z</time>
<desc>lat.=55.736797, lon.=26.218674, Alt.=130.240356m. Speed=0.000000m/h.</desc>
<speed>0.000000</speed>
</trkpt>
<trkpt lat="55.736797" lon="26.218674">
<ele>130.240356</ele>
<time>2010-07-18T07:15:31Z</time>
<desc>lat.=55.736797, lon.=26.218674, Alt.=130.240356m. Speed=0.000000m/h.</desc>
<speed>0.000000</speed>
</trkpt>
<trkpt lat="55.736797" lon="26.218674">
<ele>130.244263</ele>
<time>2010-07-18T07:15:32Z</time>
<desc>lat.=55.736797, lon.=26.218674, Alt.=130.244263m. Speed=0.000000m/h.</desc>
<speed>0.000000</speed>
</trkpt>
<trkpt lat="55.736797" lon="26.218674">
<ele>130.240356</ele>
<time>2010-07-18T07:15:33Z</time>
<desc>lat.=55.736797, lon.=26.218674, Alt.=130.240356m. Speed=0.000000m/h.</desc>
<speed>0.000000</speed>
</trkpt>
<trkpt lat="55.736797" lon="26.218674">
<ele>130.244263</ele>
<time>2010-07-18T07:15:34Z</time>
<desc>lat.=55.736797, lon.=26.218674, Alt.=130.244263m. Speed=0.000000m/h.</desc>
<speed>0.000000</speed>
</trkpt>
<trkpt lat="55.736797" lon="26.218674">
<ele>130.244263</ele>
<time>2010-07-18T07:15:35Z</time>
<desc>lat.=55.736797, lon.=26.218674, Alt.=130.244263m. Speed=0.000000m/h.</desc>
<speed>0.000000</speed>
</trkpt>
<trkpt lat="55.736797" lon="26.218674">
<ele>130.244263</ele>
<time>2010-07-18T07:15:36Z</time>
<desc>lat.=55.736797, lon.=26.218674, Alt.=130.244263m. Speed=0.000000m/h.</desc>
<speed>0.000000</speed>
</trkpt>
<trkpt lat="55.736797" lon="26.218674">
<ele>130.248169</ele>
<time>2010-07-18T07:15:37Z</time>
<desc>lat.=55.736797, lon.=26.218674, Alt.=130.248169m. Speed=0.000000m/h.</desc>
<speed>0.000000</speed>
</trkpt>
<trkpt lat="55.736797" lon="26.218674">
<ele>130.248169</ele>
<time>2010-07-18T07:15:38Z</time>
<desc>lat.=55.736797, lon.=26.218674, Alt.=130.248169m. Speed=0.000000m/h.</desc>
<speed>0.000000</speed>
</trkpt>
<trkpt lat="55.736797" lon="26.218674">
<ele>130.255981</ele>
<time>2010-07-18T07:15:39Z</time>
<desc>lat.=55.736797, lon.=26.218674, Alt.=130.255981m. Speed=0.000000m/h.</desc>
<speed>0.000000</speed>
</trkpt>
<trkpt lat="55.736797" lon="26.218674">
<ele>130.252075</ele>
<time>2010-07-18T07:15:40Z</time>
<desc>lat.=55.736797, lon.=26.218674, Alt.=130.252075m. Speed=0.000000m/h.</desc>
<speed>0.000000</speed>
</trkpt>
<trkpt lat="55.736797" lon="26.218674">
<ele>130.255981</ele>
<time>2010-07-18T07:15:41Z</time>
<desc>lat.=55.736797, lon.=26.218674, Alt.=130.255981m. Speed=0.000000m/h.</desc>
<speed>0.000000</speed>
</trkpt>
<trkpt lat="55.736797" lon="26.218674">
<ele>130.255981</ele>
<time>2010-07-18T07:15:42Z</time>
<desc>lat.=55.736797, lon.=26.218674, Alt.=130.255981m. Speed=0.000000m/h.</desc>
<speed>0.000000</speed>
</trkpt>
<trkpt lat="55.736797" lon="26.218674">
<ele>130.255981</ele>
<time>2010-07-18T07:15:43Z</time>
<desc>lat.=55.736797, lon.=26.218674, Alt.=130.255981m. Speed=0.000000m/h.</desc>
<speed>0.000000</speed>
</trkpt>
<trkpt lat="55.736797" lon="26.218674">
<ele>130.255981</ele>
<time>2010-07-18T07:15:44Z</time>
<desc>lat.=55.736797, lon.=26.218674, Alt.=130.255981m. Speed=0.000000m/h.</desc>
<speed>0.000000</speed>
</trkpt>
<trkpt lat="55.736797" lon="26.218674">
<ele>130.255981</ele>
<time>2010-07-18T07:15:45Z</time>
<desc>lat.=55.736797, lon.=26.218674, Alt.=130.255981m. Speed=0.000000m/h.</desc>
<speed>0.000000</speed>
</trkpt>
<trkpt lat="55.736797" lon="26.218674">
<ele>130.255981</ele>
<time>2010-07-18T07:15:46Z</time>
<desc>lat.=55.736797, lon.=26.218674, Alt.=130.255981m. Speed=0.000000m/h.</desc>
<speed>0.000000</speed>
</trkpt>
<trkpt lat="55.736797" lon="26.218674">
<ele>130.255981</ele>
<time>2010-07-18T07:15:47Z</time>
<desc>lat.=55.736797, lon.=26.218674, Alt.=130.255981m. Speed=0.000000m/h.</desc>
<speed>0.000000</speed>
</trkpt>
<trkpt lat="55.736797" lon="26.218674">
<ele>130.255981</ele>
<time>2010-07-18T07:15:48Z</time>
<desc>lat.=55.736797, lon.=26.218674, Alt.=130.255981m. Speed=0.000000m/h.</desc>
<speed>0.000000</speed>
</trkpt>
<trkpt lat="55.736797" lon="26.218674">
<ele>130.255981</ele>
<time>2010-07-18T07:15:49Z</time>
<desc>lat.=55.736797, lon.=26.218674, Alt.=130.255981m. Speed=0.000000m/h.</desc>
<speed>0.000000</speed>
</trkpt>
<trkpt lat="55.736797" lon="26.218674">
<ele>130.255981</ele>
<time>2010-07-18T07:15:50Z</time>
<desc>lat.=55.736797, lon.=26.218674, Alt.=130.255981m. Speed=0.000000m/h.</desc>
<speed>0.000000</speed>
</trkpt>
<trkpt lat="55.736797" lon="26.218674">
<ele>130.255981</ele>
<time>2010-07-18T07:15:51Z</time>
<desc>lat.=55.736797, lon.=26.218674, Alt.=130.255981m. Speed=0.000000m/h.</desc>
<speed>0.000000</speed>
</trkpt>
<trkpt lat="55.736797" lon="26.218674">
<ele>130.255981</ele>
<time>2010-07-18T07:15:52Z</time>
<desc>lat.=55.736797, lon.=26.218674, Alt.=130.255981m. Speed=0.000000m/h.</desc>
<speed>0.000000</speed>
</trkpt>
<trkpt lat="55.736797" lon="26.218674">
<ele>130.259888</ele>
<time>2010-07-18T07:15:53Z</time>
<desc>lat.=55.736797, lon.=26.218674, Alt.=130.259888m. Speed=0.000000m/h.</desc>
<speed>0.000000</speed>
</trkpt>
<trkpt lat="55.736797" lon="26.218674">
<ele>130.259888</ele>
<time>2010-07-18T07:15:54Z</time>
<desc>lat.=55.736797, lon.=26.218674, Alt.=130.259888m. Speed=0.000000m/h.</desc>
<speed>0.000000</speed>
</trkpt>
<trkpt lat="55.736797" lon="26.218674">
<ele>130.259888</ele>
<time>2010-07-18T07:15:55Z</time>
<desc>lat.=55.736797, lon.=26.218674, Alt.=130.259888m. Speed=0.000000m/h.</desc>
<speed>0.000000</speed>
</trkpt>
<trkpt lat="55.736797" lon="26.218674">
<ele>130.255981</ele>
<time>2010-07-18T07:15:56Z</time>
<desc>lat.=55.736797, lon.=26.218674, Alt.=130.255981m. Speed=0.000000m/h.</desc>
<speed>0.000000</speed>
</trkpt>
<trkpt lat="55.736797" lon="26.218674">
<ele>130.255981</ele>
<time>2010-07-18T07:15:57Z</time>
<desc>lat.=55.736797, lon.=26.218674, Alt.=130.255981m. Speed=0.036000m/h.</desc>
<speed>0.010000</speed>
</trkpt>
<trkpt lat="55.736797" lon="26.218674">
<ele>130.259888</ele>
<time>2010-07-18T07:15:58Z</time>
<desc>lat.=55.736797, lon.=26.218674, Alt.=130.259888m. Speed=0.000000m/h.</desc>
<speed>0.000000</speed>
</trkpt>
<trkpt lat="55.736797" lon="26.218674">
<ele>130.259888</ele>
<time>2010-07-18T07:15:59Z</time>
<desc>lat.=55.736797, lon.=26.218674, Alt.=130.259888m. Speed=0.000000m/h.</desc>
<speed>0.000000</speed>
</trkpt>
<trkpt lat="55.736797" lon="26.218674">
<ele>130.263794</ele>
<time>2010-07-18T07:16:00Z</time>
<desc>lat.=55.736797, lon.=26.218674, Alt.=130.263794m. Speed=0.000000m/h.</desc>
<speed>0.000000</speed>
</trkpt>
<trkpt lat="55.736797" lon="26.218674">
<ele>130.259888</ele>
<time>2010-07-18T07:16:01Z</time>
<desc>lat.=55.736797, lon.=26.218674, Alt.=130.259888m. Speed=0.000000m/h.</desc>
<speed>0.000000</speed>
</trkpt>
<trkpt lat="55.736797" lon="26.218674">
<ele>130.259888</ele>
<time>2010-07-18T07:16:02Z</time>
<desc>lat.=55.736797, lon.=26.218674, Alt.=130.259888m. Speed=0.000000m/h.</desc>
<speed>0.000000</speed>
</trkpt>
<trkpt lat="55.736797" lon="26.218674">
<ele>130.259888</ele>
<time>2010-07-18T07:16:03Z</time>
<desc>lat.=55.736797, lon.=26.218674, Alt.=130.259888m. Speed=0.000000m/h.</desc>
<speed>0.000000</speed>
</trkpt>
<trkpt lat="55.736797" lon="26.218674">
<ele>130.263794</ele>
<time>2010-07-18T07:16:04Z</time>
<desc>lat.=55.736797, lon.=26.218674, Alt.=130.263794m. Speed=0.000000m/h.</desc>
<speed>0.000000</speed>
</trkpt>
<trkpt lat="55.736797" lon="26.218674">
<ele>130.263794</ele>
<time>2010-07-18T07:16:05Z</time>
<desc>lat.=55.736797, lon.=26.218674, Alt.=130.263794m. Speed=0.000000m/h.</desc>
<speed>0.000000</speed>
</trkpt>
<trkpt lat="55.736797" lon="26.218674">
<ele>130.263794</ele>
<time>2010-07-18T07:16:06Z</time>
<desc>lat.=55.736797, lon.=26.218674, Alt.=130.263794m. Speed=0.000000m/h.</desc>
<speed>0.000000</speed>
</trkpt>
<trkpt lat="55.736797" lon="26.218674">
<ele>130.263794</ele>
<time>2010-07-18T07:16:07Z</time>
<desc>lat.=55.736797, lon.=26.218674, Alt.=130.263794m. Speed=0.000000m/h.</desc>
<speed>0.000000</speed>
</trkpt>
<trkpt lat="55.736797" lon="26.218674">
<ele>130.259888</ele>
<time>2010-07-18T07:16:08Z</time>
<desc>lat.=55.736797, lon.=26.218674, Alt.=130.259888m. Speed=0.000000m/h.</desc>
<speed>0.000000</speed>
</trkpt>
<trkpt lat="55.736797" lon="26.218674">
<ele>130.259888</ele>
<time>2010-07-18T07:16:09Z</time>
<desc>lat.=55.736797, lon.=26.218674, Alt.=130.259888m. Speed=0.000000m/h.</desc>
<speed>0.000000</speed>
</trkpt>
<trkpt lat="55.736797" lon="26.218674">
<ele>130.259888</ele>
<time>2010-07-18T07:16:10Z</time>
<desc>lat.=55.736797, lon.=26.218674, Alt.=130.259888m. Speed=0.000000m/h.</desc>
<speed>0.000000</speed>
</trkpt>
<trkpt lat="55.736797" lon="26.218674">
<ele>130.255981</ele>
<time>2010-07-18T07:16:11Z</time>
<desc>lat.=55.736797, lon.=26.218674, Alt.=130.255981m. Speed=0.000000m/h.</desc>
<speed>0.000000</speed>
</trkpt>
<trkpt lat="55.736794" lon="26.218674">
<ele>130.255981</ele>
<time>2010-07-18T07:16:12Z</time>
<desc>lat.=55.736794, lon.=26.218674, Alt.=130.255981m. Speed=0.000000m/h.</desc>
<speed>0.000000</speed>
</trkpt>
<trkpt lat="55.736794" lon="26.218674">
<ele>130.255981</ele>
<time>2010-07-18T07:16:13Z</time>
<desc>lat.=55.736794, lon.=26.218674, Alt.=130.255981m. Speed=0.000000m/h.</desc>
<speed>0.000000</speed>
</trkpt>
<trkpt lat="55.736794" lon="26.218674">
<ele>130.255981</ele>
<time>2010-07-18T07:16:14Z</time>
<desc>lat.=55.736794, lon.=26.218674, Alt.=130.255981m. Speed=0.000000m/h.</desc>
<speed>0.000000</speed>
</trkpt>
<trkpt lat="55.736794" lon="26.218674">
<ele>130.259888</ele>
<time>2010-07-18T07:16:15Z</time>
<desc>lat.=55.736794, lon.=26.218674, Alt.=130.259888m. Speed=0.000000m/h.</desc>
<speed>0.000000</speed>
</trkpt>
<trkpt lat="55.736794" lon="26.218674">
<ele>130.255981</ele>
<time>2010-07-18T07:16:16Z</time>
<desc>lat.=55.736794, lon.=26.218674, Alt.=130.255981m. Speed=0.000000m/h.</desc>
<speed>0.000000</speed>
</trkpt>
<trkpt lat="55.736794" lon="26.218674">
<ele>130.255981</ele>
<time>2010-07-18T07:16:17Z</time>
<desc>lat.=55.736794, lon.=26.218674, Alt.=130.255981m. Speed=0.000000m/h.</desc>
<speed>0.000000</speed>
</trkpt>
<trkpt lat="55.736794" lon="26.218674">
<ele>130.259888</ele>
<time>2010-07-18T07:16:18Z</time>
<desc>lat.=55.736794, lon.=26.218674, Alt.=130.259888m. Speed=0.000000m/h.</desc>
<speed>0.000000</speed>
</trkpt>
<trkpt lat="55.736794" lon="26.218674">
<ele>130.259888</ele>
<time>2010-07-18T07:16:19Z</time>
<desc>lat.=55.736794, lon.=26.218674, Alt.=130.259888m. Speed=0.000000m/h.</desc>
<speed>0.000000</speed>
</trkpt>
<trkpt lat="55.736794" lon="26.218674">
<ele>130.259888</ele>
<time>2010-07-18T07:16:20Z</time>
<desc>lat.=55.736794, lon.=26.218674, Alt.=130.259888m. Speed=0.000000m/h.</desc>
<speed>0.000000</speed>
</trkpt>
<trkpt lat="55.736794" lon="26.218674">
<ele>130.259888</ele>
<time>2010-07-18T07:16:21Z</time>
<desc>lat.=55.736794, lon.=26.218674, Alt.=130.259888m. Speed=0.000000m/h.</desc>
<speed>0.000000</speed>
</trkpt>
<trkpt lat="55.736794" lon="26.218674">
<ele>130.259888</ele>
<time>2010-07-18T07:16:22Z</time>
<desc>lat.=55.736794, lon.=26.218674, Alt.=130.259888m. Speed=0.000000m/h.</desc>
<speed>0.000000</speed>
</trkpt>
<trkpt lat="55.736794" lon="26.218674">
<ele>130.259888</ele>
<time>2010-07-18T07:16:23Z</time>
<desc>lat.=55.736794, lon.=26.218674, Alt.=130.259888m. Speed=0.000000m/h.</desc>
<speed>0.000000</speed>
</trkpt>
<trkpt lat="55.736794" lon="26.218674">
<ele>130.259888</ele>
<time>2010-07-18T07:16:24Z</time>
<desc>lat.=55.736794, lon.=26.218674, Alt.=130.259888m. Speed=0.000000m/h.</desc>
<speed>0.000000</speed>
</trkpt>
<trkpt lat="55.736794" lon="26.218674">
<ele>130.259888</ele>
<time>2010-07-18T07:16:25Z</time>
<desc>lat.=55.736794, lon.=26.218674, Alt.=130.259888m. Speed=0.000000m/h.</desc>
<speed>0.000000</speed>
</trkpt>
<trkpt lat="55.736794" lon="26.218674">
<ele>130.259888</ele>
<time>2010-07-18T07:16:26Z</time>
<desc>lat.=55.736794, lon.=26.218674, Alt.=130.259888m. Speed=0.000000m/h.</desc>
<speed>0.000000</speed>
</trkpt>
<trkpt lat="55.736794" lon="26.218674">
<ele>130.259888</ele>
<time>2010-07-18T07:16:27Z</time>
<desc>lat.=55.736794, lon.=26.218674, Alt.=130.259888m. Speed=0.000000m/h.</desc>
<speed>0.000000</speed>
</trkpt>
<trkpt lat="55.736794" lon="26.218674">
<ele>130.259888</ele>
<time>2010-07-18T07:16:28Z</time>
<desc>lat.=55.736794, lon.=26.218674, Alt.=130.259888m. Speed=0.000000m/h.</desc>
<speed>0.000000</speed>
</trkpt>
<trkpt lat="55.736794" lon="26.218674">
<ele>130.255981</ele>
<time>2010-07-18T07:16:29Z</time>
<desc>lat.=55.736794, lon.=26.218674, Alt.=130.255981m. Speed=0.000000m/h.</desc>
<speed>0.000000</speed>
</trkpt>
<trkpt lat="55.736794" lon="26.218674">
<ele>130.259888</ele>
<time>2010-07-18T07:16:30Z</time>
<desc>lat.=55.736794, lon.=26.218674, Alt.=130.259888m. Speed=0.000000m/h.</desc>
<speed>0.000000</speed>
</trkpt>
<trkpt lat="55.736794" lon="26.218674">
<ele>130.259888</ele>
<time>2010-07-18T07:16:31Z</time>
<desc>lat.=55.736794, lon.=26.218674, Alt.=130.259888m. Speed=0.000000m/h.</desc>
<speed>0.000000</speed>
</trkpt>
<trkpt lat="55.736794" lon="26.218674">
<ele>130.252075</ele>
<time>2010-07-18T07:16:32Z</time>
<desc>lat.=55.736794, lon.=26.218674, Alt.=130.252075m. Speed=0.000000m/h.</desc>
<speed>0.000000</speed>
</trkpt>
<trkpt lat="55.736794" lon="26.218672">
<ele>130.248169</ele>
<time>2010-07-18T07:16:33Z</time>
<desc>lat.=55.736794, lon.=26.218672, Alt.=130.248169m. Speed=0.000000m/h.</desc>
<speed>0.000000</speed>
</trkpt>
<trkpt lat="55.736794" lon="26.218672">
<ele>130.244263</ele>
<time>2010-07-18T07:16:34Z</time>
<desc>lat.=55.736794, lon.=26.218672, Alt.=130.244263m. Speed=0.000000m/h.</desc>
<speed>0.000000</speed>
</trkpt>
<trkpt lat="55.736794" lon="26.218672">
<ele>130.240356</ele>
<time>2010-07-18T07:16:35Z</time>
<desc>lat.=55.736794, lon.=26.218672, Alt.=130.240356m. Speed=0.000000m/h.</desc>
<speed>0.000000</speed>
</trkpt>
<trkpt lat="55.736794" lon="26.218672">
<ele>130.240356</ele>
<time>2010-07-18T07:16:36Z</time>
<desc>lat.=55.736794, lon.=26.218672, Alt.=130.240356m. Speed=0.000000m/h.</desc>
<speed>0.000000</speed>
</trkpt>
<trkpt lat="55.736794" lon="26.218672">
<ele>130.240356</ele>
<time>2010-07-18T07:16:37Z</time>
<desc>lat.=55.736794, lon.=26.218672, Alt.=130.240356m. Speed=0.000000m/h.</desc>
<speed>0.000000</speed>
</trkpt>
<trkpt lat="55.736794" lon="26.218672">
<ele>130.236450</ele>
<time>2010-07-18T07:16:38Z</time>
<desc>lat.=55.736794, lon.=26.218672, Alt.=130.236450m. Speed=0.000000m/h.</desc>
<speed>0.000000</speed>
</trkpt>
<trkpt lat="55.736794" lon="26.218672">
<ele>130.236450</ele>
<time>2010-07-18T07:16:39Z</time>
<desc>lat.=55.736794, lon.=26.218672, Alt.=130.236450m. Speed=0.000000m/h.</desc>
<speed>0.000000</speed>
</trkpt>
<trkpt lat="55.736794" lon="26.218672">
<ele>130.232544</ele>
<time>2010-07-18T07:16:40Z</time>
<desc>lat.=55.736794, lon.=26.218672, Alt.=130.232544m. Speed=0.036000m/h.</desc>
<speed>0.010000</speed>
</trkpt>
<trkpt lat="55.736794" lon="26.218672">
<ele>130.228638</ele>
<time>2010-07-18T07:16:41Z</time>
<desc>lat.=55.736794, lon.=26.218672, Alt.=130.228638m. Speed=0.000000m/h.</desc>
<speed>0.000000</speed>
</trkpt>
<trkpt lat="55.736794" lon="26.218672">
<ele>130.224731</ele>
<time>2010-07-18T07:16:42Z</time>
<desc>lat.=55.736794, lon.=26.218672, Alt.=130.224731m. Speed=0.000000m/h.</desc>
<speed>0.000000</speed>
</trkpt>
<trkpt lat="55.736794" lon="26.218672">
<ele>130.224731</ele>
<time>2010-07-18T07:16:43Z</time>
<desc>lat.=55.736794, lon.=26.218672, Alt.=130.224731m. Speed=0.000000m/h.</desc>
<speed>0.000000</speed>
</trkpt>
<trkpt lat="55.736794" lon="26.218672">
<ele>130.220825</ele>
<time>2010-07-18T07:16:44Z</time>
<desc>lat.=55.736794, lon.=26.218672, Alt.=130.220825m. Speed=0.000000m/h.</desc>
<speed>0.000000</speed>
</trkpt>
<trkpt lat="55.736794" lon="26.218672">
<ele>130.220825</ele>
<time>2010-07-18T07:16:45Z</time>
<desc>lat.=55.736794, lon.=26.218672, Alt.=130.220825m. Speed=0.000000m/h.</desc>
<speed>0.000000</speed>
</trkpt>
<trkpt lat="55.736794" lon="26.218672">
<ele>130.216919</ele>
<time>2010-07-18T07:16:46Z</time>
<desc>lat.=55.736794, lon.=26.218672, Alt.=130.216919m. Speed=0.000000m/h.</desc>
<speed>0.000000</speed>
</trkpt>
<trkpt lat="55.736794" lon="26.218672">
<ele>130.216919</ele>
<time>2010-07-18T07:16:47Z</time>
<desc>lat.=55.736794, lon.=26.218672, Alt.=130.216919m. Speed=0.000000m/h.</desc>
<speed>0.000000</speed>
</trkpt>
<trkpt lat="55.736794" lon="26.218672">
<ele>130.213013</ele>
<time>2010-07-18T07:16:48Z</time>
<desc>lat.=55.736794, lon.=26.218672, Alt.=130.213013m. Speed=0.000000m/h.</desc>
<speed>0.000000</speed>
</trkpt>
<trkpt lat="55.736794" lon="26.218672">
<ele>130.213013</ele>
<time>2010-07-18T07:16:49Z</time>
<desc>lat.=55.736794, lon.=26.218672, Alt.=130.213013m. Speed=0.000000m/h.</desc>
<speed>0.000000</speed>
</trkpt>
<trkpt lat="55.736794" lon="26.218672">
<ele>130.209106</ele>
<time>2010-07-18T07:16:50Z</time>
<desc>lat.=55.736794, lon.=26.218672, Alt.=130.209106m. Speed=0.000000m/h.</desc>
<speed>0.000000</speed>
</trkpt>
<trkpt lat="55.736794" lon="26.218672">
<ele>130.209106</ele>
<time>2010-07-18T07:16:51Z</time>
<desc>lat.=55.736794, lon.=26.218672, Alt.=130.209106m. Speed=0.000000m/h.</desc>
<speed>0.000000</speed>
</trkpt>
<trkpt lat="55.736794" lon="26.218672">
<ele>130.205200</ele>
<time>2010-07-18T07:16:52Z</time>
<desc>lat.=55.736794, lon.=26.218672, Alt.=130.205200m. Speed=0.000000m/h.</desc>
<speed>0.000000</speed>
</trkpt>
<trkpt lat="55.736794" lon="26.218672">
<ele>130.209106</ele>
<time>2010-07-18T07:16:53Z</time>
<desc>lat.=55.736794, lon.=26.218672, Alt.=130.209106m. Speed=0.000000m/h.</desc>
<speed>0.000000</speed>
</trkpt>
<trkpt lat="55.736794" lon="26.218672">
<ele>130.209106</ele>
<time>2010-07-18T07:16:54Z</time>
<desc>lat.=55.736794, lon.=26.218672, Alt.=130.209106m. Speed=0.000000m/h.</desc>
<speed>0.000000</speed>
</trkpt>
<trkpt lat="55.736794" lon="26.218672">
<ele>130.209106</ele>
<time>2010-07-18T07:16:55Z</time>
<desc>lat.=55.736794, lon.=26.218672, Alt.=130.209106m. Speed=0.000000m/h.</desc>
<speed>0.000000</speed>
</trkpt>
<trkpt lat="55.736794" lon="26.218672">
<ele>130.209106</ele>
<time>2010-07-18T07:16:56Z</time>
<desc>lat.=55.736794, lon.=26.218672, Alt.=130.209106m. Speed=0.000000m/h.</desc>
<speed>0.000000</speed>
</trkpt>
<trkpt lat="55.736794" lon="26.218672">
<ele>130.205200</ele>
<time>2010-07-18T07:16:57Z</time>
<desc>lat.=55.736794, lon.=26.218672, Alt.=130.205200m. Speed=0.000000m/h.</desc>
<speed>0.000000</speed>
</trkpt>
<trkpt lat="55.736794" lon="26.218672">
<ele>130.205200</ele>
<time>2010-07-18T07:16:58Z</time>
<desc>lat.=55.736794, lon.=26.218672, Alt.=130.205200m. Speed=0.000000m/h.</desc>
<speed>0.000000</speed>
</trkpt>
<trkpt lat="55.736794" lon="26.218672">
<ele>130.205200</ele>
<time>2010-07-18T07:16:59Z</time>
<desc>lat.=55.736794, lon.=26.218672, Alt.=130.205200m. Speed=0.000000m/h.</desc>
<speed>0.000000</speed>
</trkpt>
<trkpt lat="55.736794" lon="26.218672">
<ele>130.205200</ele>
<time>2010-07-18T07:17:00Z</time>
<desc>lat.=55.736794, lon.=26.218672, Alt.=130.205200m. Speed=0.000000m/h.</desc>
<speed>0.000000</speed>
</trkpt>
<trkpt lat="55.736794" lon="26.218672">
<ele>130.205200</ele>
<time>2010-07-18T07:17:01Z</time>
<desc>lat.=55.736794, lon.=26.218672, Alt.=130.205200m. Speed=0.000000m/h.</desc>
<speed>0.000000</speed>
</trkpt>
<trkpt lat="55.736794" lon="26.218672">
<ele>130.205200</ele>
<time>2010-07-18T07:17:02Z</time>
<desc>lat.=55.736794, lon.=26.218672, Alt.=130.205200m. Speed=0.000000m/h.</desc>
<speed>0.000000</speed>
</trkpt>
<trkpt lat="55.736794" lon="26.218672">
<ele>130.201294</ele>
<time>2010-07-18T07:17:03Z</time>
<desc>lat.=55.736794, lon.=26.218672, Alt.=130.201294m. Speed=0.000000m/h.</desc>
<speed>0.000000</speed>
</trkpt>
<trkpt lat="55.736794" lon="26.218672">
<ele>130.205200</ele>
<time>2010-07-18T07:17:04Z</time>
<desc>lat.=55.736794, lon.=26.218672, Alt.=130.205200m. Speed=0.000000m/h.</desc>
<speed>0.000000</speed>
</trkpt>
<trkpt lat="55.736794" lon="26.218672">
<ele>130.205200</ele>
<time>2010-07-18T07:17:05Z</time>
<desc>lat.=55.736794, lon.=26.218672, Alt.=130.205200m. Speed=0.000000m/h.</desc>
<speed>0.000000</speed>
</trkpt>
<trkpt lat="55.736794" lon="26.218672">
<ele>130.205200</ele>
<time>2010-07-18T07:17:06Z</time>
<desc>lat.=55.736794, lon.=26.218672, Alt.=130.205200m. Speed=0.000000m/h.</desc>
<speed>0.000000</speed>
</trkpt>
<trkpt lat="55.736794" lon="26.218672">
<ele>130.205200</ele>
<time>2010-07-18T07:17:07Z</time>
<desc>lat.=55.736794, lon.=26.218672, Alt.=130.205200m. Speed=0.000000m/h.</desc>
<speed>0.000000</speed>
</trkpt>
<trkpt lat="55.736794" lon="26.218672">
<ele>130.205200</ele>
<time>2010-07-18T07:17:08Z</time>
<desc>lat.=55.736794, lon.=26.218672, Alt.=130.205200m. Speed=0.000000m/h.</desc>
<speed>0.000000</speed>
</trkpt>
<trkpt lat="55.736794" lon="26.218672">
<ele>130.201294</ele>
<time>2010-07-18T07:17:09Z</time>
<desc>lat.=55.736794, lon.=26.218672, Alt.=130.201294m. Speed=0.000000m/h.</desc>
<speed>0.000000</speed>
</trkpt>
<trkpt lat="55.736794" lon="26.218672">
<ele>130.205200</ele>
<time>2010-07-18T07:17:10Z</time>
<desc>lat.=55.736794, lon.=26.218672, Alt.=130.205200m. Speed=0.000000m/h.</desc>
<speed>0.000000</speed>
</trkpt>
<trkpt lat="55.736794" lon="26.218672">
<ele>130.201294</ele>
<time>2010-07-18T07:17:11Z</time>
<desc>lat.=55.736794, lon.=26.218672, Alt.=130.201294m. Speed=0.000000m/h.</desc>
<speed>0.000000</speed>
</trkpt>
<trkpt lat="55.736794" lon="26.218672">
<ele>130.201294</ele>
<time>2010-07-18T07:17:12Z</time>
<desc>lat.=55.736794, lon.=26.218672, Alt.=130.201294m. Speed=0.000000m/h.</desc>
<speed>0.000000</speed>
</trkpt>
<trkpt lat="55.736794" lon="26.218672">
<ele>130.201294</ele>
<time>2010-07-18T07:17:13Z</time>
<desc>lat.=55.736794, lon.=26.218672, Alt.=130.201294m. Speed=0.036000m/h.</desc>
<speed>0.010000</speed>
</trkpt>
<trkpt lat="55.736794" lon="26.218672">
<ele>130.205200</ele>
<time>2010-07-18T07:17:14Z</time>
<desc>lat.=55.736794, lon.=26.218672, Alt.=130.205200m. Speed=0.000000m/h.</desc>
<speed>0.000000</speed>
</trkpt>
<trkpt lat="55.736794" lon="26.218672">
<ele>130.201294</ele>
<time>2010-07-18T07:17:15Z</time>
<desc>lat.=55.736794, lon.=26.218672, Alt.=130.201294m. Speed=0.000000m/h.</desc>
<speed>0.000000</speed>
</trkpt>
<trkpt lat="55.736794" lon="26.218672">
<ele>130.201294</ele>
<time>2010-07-18T07:17:16Z</time>
<desc>lat.=55.736794, lon.=26.218672, Alt.=130.201294m. Speed=0.000000m/h.</desc>
<speed>0.000000</speed>
</trkpt>
<trkpt lat="55.736794" lon="26.218672">
<ele>130.201294</ele>
<time>2010-07-18T07:17:17Z</time>
<desc>lat.=55.736794, lon.=26.218672, Alt.=130.201294m. Speed=0.000000m/h.</desc>
<speed>0.000000</speed>
</trkpt>
<trkpt lat="55.736794" lon="26.218672">
<ele>130.201294</ele>
<time>2010-07-18T07:17:18Z</time>
<desc>lat.=55.736794, lon.=26.218672, Alt.=130.201294m. Speed=0.000000m/h.</desc>
<speed>0.000000</speed>
</trkpt>
<trkpt lat="55.736794" lon="26.218672">
<ele>130.201294</ele>
<time>2010-07-18T07:17:19Z</time>
<desc>lat.=55.736794, lon.=26.218672, Alt.=130.201294m. Speed=0.000000m/h.</desc>
<speed>0.000000</speed>
</trkpt>
<trkpt lat="55.736794" lon="26.218672">
<ele>130.197388</ele>
<time>2010-07-18T07:17:20Z</time>
<desc>lat.=55.736794, lon.=26.218672, Alt.=130.197388m. Speed=0.000000m/h.</desc>
<speed>0.000000</speed>
</trkpt>
<trkpt lat="55.736794" lon="26.218672">
<ele>130.197388</ele>
<time>2010-07-18T07:17:21Z</time>
<desc>lat.=55.736794, lon.=26.218672, Alt.=130.197388m. Speed=0.000000m/h.</desc>
<speed>0.000000</speed>
</trkpt>
<trkpt lat="55.736794" lon="26.218672">
<ele>130.197388</ele>
<time>2010-07-18T07:17:22Z</time>
<desc>lat.=55.736794, lon.=26.218672, Alt.=130.197388m. Speed=0.000000m/h.</desc>
<speed>0.000000</speed>
</trkpt>
<trkpt lat="55.736794" lon="26.218672">
<ele>130.197388</ele>
<time>2010-07-18T07:17:23Z</time>
<desc>lat.=55.736794, lon.=26.218672, Alt.=130.197388m. Speed=0.000000m/h.</desc>
<speed>0.000000</speed>
</trkpt>
<trkpt lat="55.736794" lon="26.218672">
<ele>130.197388</ele>
<time>2010-07-18T07:17:24Z</time>
<desc>lat.=55.736794, lon.=26.218672, Alt.=130.197388m. Speed=0.000000m/h.</desc>
<speed>0.000000</speed>
</trkpt>
<trkpt lat="55.736794" lon="26.218672">
<ele>130.197388</ele>
<time>2010-07-18T07:17:25Z</time>
<desc>lat.=55.736794, lon.=26.218672, Alt.=130.197388m. Speed=0.000000m/h.</desc>
<speed>0.000000</speed>
</trkpt>
<trkpt lat="55.736794" lon="26.218672">
<ele>130.197388</ele>
<time>2010-07-18T07:17:26Z</time>
<desc>lat.=55.736794, lon.=26.218672, Alt.=130.197388m. Speed=0.000000m/h.</desc>
<speed>0.000000</speed>
</trkpt>
<trkpt lat="55.736794" lon="26.218672">
<ele>130.197388</ele>
<time>2010-07-18T07:17:27Z</time>
<desc>lat.=55.736794, lon.=26.218672, Alt.=130.197388m. Speed=0.000000m/h.</desc>
<speed>0.000000</speed>
</trkpt>
<trkpt lat="55.736794" lon="26.218672">
<ele>130.193481</ele>
<time>2010-07-18T07:17:28Z</time>
<desc>lat.=55.736794, lon.=26.218672, Alt.=130.193481m. Speed=0.000000m/h.</desc>
<speed>0.000000</speed>
</trkpt>
<trkpt lat="55.736794" lon="26.218672">
<ele>130.193481</ele>
<time>2010-07-18T07:17:29Z</time>
<desc>lat.=55.736794, lon.=26.218672, Alt.=130.193481m. Speed=0.000000m/h.</desc>
<speed>0.000000</speed>
</trkpt>
<trkpt lat="55.736794" lon="26.218672">
<ele>130.193481</ele>
<time>2010-07-18T07:17:30Z</time>
<desc>lat.=55.736794, lon.=26.218672, Alt.=130.193481m. Speed=0.000000m/h.</desc>
<speed>0.000000</speed>
</trkpt>
<trkpt lat="55.736794" lon="26.218672">
<ele>130.189575</ele>
<time>2010-07-18T07:17:31Z</time>
<desc>lat.=55.736794, lon.=26.218672, Alt.=130.189575m. Speed=0.000000m/h.</desc>
<speed>0.000000</speed>
</trkpt>
<trkpt lat="55.736794" lon="26.218672">
<ele>130.185669</ele>
<time>2010-07-18T07:17:32Z</time>
<desc>lat.=55.736794, lon.=26.218672, Alt.=130.185669m. Speed=0.000000m/h.</desc>
<speed>0.000000</speed>
</trkpt>
<trkpt lat="55.736794" lon="26.218672">
<ele>130.185669</ele>
<time>2010-07-18T07:17:33Z</time>
<desc>lat.=55.736794, lon.=26.218672, Alt.=130.185669m. Speed=0.000000m/h.</desc>
<speed>0.000000</speed>
</trkpt>
<trkpt lat="55.736794" lon="26.218672">
<ele>130.185669</ele>
<time>2010-07-18T07:17:34Z</time>
<desc>lat.=55.736794, lon.=26.218672, Alt.=130.185669m. Speed=0.000000m/h.</desc>
<speed>0.000000</speed>
</trkpt>
<trkpt lat="55.736794" lon="26.218672">
<ele>130.185669</ele>
<time>2010-07-18T07:17:35Z</time>
<desc>lat.=55.736794, lon.=26.218672, Alt.=130.185669m. Speed=0.000000m/h.</desc>
<speed>0.000000</speed>
</trkpt>
<trkpt lat="55.736794" lon="26.218672">
<ele>130.185669</ele>
<time>2010-07-18T07:17:36Z</time>
<desc>lat.=55.736794, lon.=26.218672, Alt.=130.185669m. Speed=0.000000m/h.</desc>
<speed>0.000000</speed>
</trkpt>
<trkpt lat="55.736794" lon="26.218672">
<ele>130.181763</ele>
<time>2010-07-18T07:17:37Z</time>
<desc>lat.=55.736794, lon.=26.218672, Alt.=130.181763m. Speed=0.036000m/h.</desc>
<speed>0.010000</speed>
</trkpt>
<trkpt lat="55.736794" lon="26.218672">
<ele>130.181763</ele>
<time>2010-07-18T07:17:38Z</time>
<desc>lat.=55.736794, lon.=26.218672, Alt.=130.181763m. Speed=0.000000m/h.</desc>
<speed>0.000000</speed>
</trkpt>
<trkpt lat="55.736794" lon="26.218672">
<ele>130.181763</ele>
<time>2010-07-18T07:17:39Z</time>
<desc>lat.=55.736794, lon.=26.218672, Alt.=130.181763m. Speed=0.036000m/h.</desc>
<speed>0.010000</speed>
</trkpt>
<trkpt lat="55.736794" lon="26.218672">
<ele>130.181763</ele>
<time>2010-07-18T07:17:40Z</time>
<desc>lat.=55.736794, lon.=26.218672, Alt.=130.181763m. Speed=0.000000m/h.</desc>
<speed>0.000000</speed>
</trkpt>
<trkpt lat="55.736794" lon="26.218672">
<ele>130.177856</ele>
<time>2010-07-18T07:17:41Z</time>
<desc>lat.=55.736794, lon.=26.218672, Alt.=130.177856m. Speed=0.000000m/h.</desc>
<speed>0.000000</speed>
</trkpt>
<trkpt lat="55.736794" lon="26.218672">
<ele>130.177856</ele>
<time>2010-07-18T07:17:42Z</time>
<desc>lat.=55.736794, lon.=26.218672, Alt.=130.177856m. Speed=0.036000m/h.</desc>
<speed>0.010000</speed>
</trkpt>
<trkpt lat="55.736794" lon="26.218672">
<ele>130.177856</ele>
<time>2010-07-18T07:17:43Z</time>
<desc>lat.=55.736794, lon.=26.218672, Alt.=130.177856m. Speed=0.000000m/h.</desc>
<speed>0.000000</speed>
</trkpt>
<trkpt lat="55.736794" lon="26.218672">
<ele>130.177856</ele>
<time>2010-07-18T07:17:44Z</time>
<desc>lat.=55.736794, lon.=26.218672, Alt.=130.177856m. Speed=0.000000m/h.</desc>
<speed>0.000000</speed>
</trkpt>
<trkpt lat="55.736794" lon="26.218672">
<ele>130.177856</ele>
<time>2010-07-18T07:17:45Z</time>
<desc>lat.=55.736794, lon.=26.218672, Alt.=130.177856m. Speed=0.000000m/h.</desc>
<speed>0.000000</speed>
</trkpt>
<trkpt lat="55.736794" lon="26.218672">
<ele>130.177856</ele>
<time>2010-07-18T07:17:46Z</time>
<desc>lat.=55.736794, lon.=26.218672, Alt.=130.177856m. Speed=0.000000m/h.</desc>
<speed>0.000000</speed>
</trkpt>
<trkpt lat="55.736794" lon="26.218672">
<ele>130.177856</ele>
<time>2010-07-18T07:17:47Z</time>
<desc>lat.=55.736794, lon.=26.218672, Alt.=130.177856m. Speed=0.000000m/h.</desc>
<speed>0.000000</speed>
</trkpt>
<trkpt lat="55.736794" lon="26.218672">
<ele>130.177856</ele>
<time>2010-07-18T07:17:48Z</time>
<desc>lat.=55.736794, lon.=26.218672, Alt.=130.177856m. Speed=0.000000m/h.</desc>
<speed>0.000000</speed>
</trkpt>
<trkpt lat="55.736794" lon="26.218672">
<ele>130.177856</ele>
<time>2010-07-18T07:17:49Z</time>
<desc>lat.=55.736794, lon.=26.218672, Alt.=130.177856m. Speed=0.000000m/h.</desc>
<speed>0.000000</speed>
</trkpt>
<trkpt lat="55.736794" lon="26.218672">
<ele>130.177856</ele>
<time>2010-07-18T07:17:50Z</time>
<desc>lat.=55.736794, lon.=26.218672, Alt.=130.177856m. Speed=0.000000m/h.</desc>
<speed>0.000000</speed>
</trkpt>
<trkpt lat="55.736794" lon="26.218672">
<ele>130.173950</ele>
<time>2010-07-18T07:17:51Z</time>
<desc>lat.=55.736794, lon.=26.218672, Alt.=130.173950m. Speed=0.000000m/h.</desc>
<speed>0.000000</speed>
</trkpt>
<trkpt lat="55.736794" lon="26.218672">
<ele>130.173950</ele>
<time>2010-07-18T07:17:52Z</time>
<desc>lat.=55.736794, lon.=26.218672, Alt.=130.173950m. Speed=0.036000m/h.</desc>
<speed>0.010000</speed>
</trkpt>
<trkpt lat="55.736794" lon="26.218672">
<ele>130.173950</ele>
<time>2010-07-18T07:17:53Z</time>
<desc>lat.=55.736794, lon.=26.218672, Alt.=130.173950m. Speed=0.000000m/h.</desc>
<speed>0.000000</speed>
</trkpt>
<trkpt lat="55.736794" lon="26.218672">
<ele>130.177856</ele>
<time>2010-07-18T07:17:54Z</time>
<desc>lat.=55.736794, lon.=26.218672, Alt.=130.177856m. Speed=0.036000m/h.</desc>
<speed>0.010000</speed>
</trkpt>
<trkpt lat="55.736790" lon="26.218672">
<ele>130.173950</ele>
<time>2010-07-18T07:17:55Z</time>
<desc>lat.=55.736790, lon.=26.218672, Alt.=130.173950m. Speed=0.000000m/h.</desc>
<speed>0.000000</speed>
</trkpt>
<trkpt lat="55.736790" lon="26.218672">
<ele>130.177856</ele>
<time>2010-07-18T07:17:56Z</time>
<desc>lat.=55.736790, lon.=26.218672, Alt.=130.177856m. Speed=0.000000m/h.</desc>
<speed>0.000000</speed>
</trkpt>
<trkpt lat="55.736790" lon="26.218672">
<ele>130.177856</ele>
<time>2010-07-18T07:17:57Z</time>
<desc>lat.=55.736790, lon.=26.218672, Alt.=130.177856m. Speed=0.000000m/h.</desc>
<speed>0.000000</speed>
</trkpt>
<trkpt lat="55.736790" lon="26.218672">
<ele>130.177856</ele>
<time>2010-07-18T07:17:58Z</time>
<desc>lat.=55.736790, lon.=26.218672, Alt.=130.177856m. Speed=0.000000m/h.</desc>
<speed>0.000000</speed>
</trkpt>
<trkpt lat="55.736790" lon="26.218672">
<ele>130.181763</ele>
<time>2010-07-18T07:17:59Z</time>
<desc>lat.=55.736790, lon.=26.218672, Alt.=130.181763m. Speed=0.000000m/h.</desc>
<speed>0.000000</speed>
</trkpt>
<trkpt lat="55.736790" lon="26.218672">
<ele>130.181763</ele>
<time>2010-07-18T07:18:00Z</time>
<desc>lat.=55.736790, lon.=26.218672, Alt.=130.181763m. Speed=0.000000m/h.</desc>
<speed>0.000000</speed>
</trkpt>
<trkpt lat="55.736790" lon="26.218672">
<ele>130.181763</ele>
<time>2010-07-18T07:18:01Z</time>
<desc>lat.=55.736790, lon.=26.218672, Alt.=130.181763m. Speed=0.000000m/h.</desc>
<speed>0.000000</speed>
</trkpt>
<trkpt lat="55.736790" lon="26.218672">
<ele>130.181763</ele>
<time>2010-07-18T07:18:02Z</time>
<desc>lat.=55.736790, lon.=26.218672, Alt.=130.181763m. Speed=0.000000m/h.</desc>
<speed>0.000000</speed>
</trkpt>
<trkpt lat="55.736790" lon="26.218672">
<ele>130.181763</ele>
<time>2010-07-18T07:18:03Z</time>
<desc>lat.=55.736790, lon.=26.218672, Alt.=130.181763m. Speed=0.000000m/h.</desc>
<speed>0.000000</speed>
</trkpt>
<trkpt lat="55.736790" lon="26.218672">
<ele>130.185669</ele>
<time>2010-07-18T07:18:04Z</time>
<desc>lat.=55.736790, lon.=26.218672, Alt.=130.185669m. Speed=0.000000m/h.</desc>
<speed>0.000000</speed>
</trkpt>
<trkpt lat="55.736790" lon="26.218672">
<ele>130.185669</ele>
<time>2010-07-18T07:18:05Z</time>
<desc>lat.=55.736790, lon.=26.218672, Alt.=130.185669m. Speed=0.000000m/h.</desc>
<speed>0.000000</speed>
</trkpt>
<trkpt lat="55.736790" lon="26.218672">
<ele>130.189575</ele>
<time>2010-07-18T07:18:06Z</time>
<desc>lat.=55.736790, lon.=26.218672, Alt.=130.189575m. Speed=0.000000m/h.</desc>
<speed>0.000000</speed>
</trkpt>
<trkpt lat="55.736790" lon="26.218672">
<ele>130.193481</ele>
<time>2010-07-18T07:18:07Z</time>
<desc>lat.=55.736790, lon.=26.218672, Alt.=130.193481m. Speed=0.000000m/h.</desc>
<speed>0.000000</speed>
</trkpt>
<trkpt lat="55.736790" lon="26.218672">
<ele>130.193481</ele>
<time>2010-07-18T07:18:08Z</time>
<desc>lat.=55.736790, lon.=26.218672, Alt.=130.193481m. Speed=0.000000m/h.</desc>
<speed>0.000000</speed>
</trkpt>
<trkpt lat="55.736790" lon="26.218670">
<ele>130.193481</ele>
<time>2010-07-18T07:18:09Z</time>
<desc>lat.=55.736790, lon.=26.218670, Alt.=130.193481m. Speed=0.000000m/h.</desc>
<speed>0.000000</speed>
</trkpt>
<trkpt lat="55.736790" lon="26.218670">
<ele>130.197388</ele>
<time>2010-07-18T07:18:10Z</time>
<desc>lat.=55.736790, lon.=26.218670, Alt.=130.197388m. Speed=0.000000m/h.</desc>
<speed>0.000000</speed>
</trkpt>
<trkpt lat="55.736790" lon="26.218670">
<ele>130.197388</ele>
<time>2010-07-18T07:18:11Z</time>
<desc>lat.=55.736790, lon.=26.218670, Alt.=130.197388m. Speed=0.000000m/h.</desc>
<speed>0.000000</speed>
</trkpt>
<trkpt lat="55.736790" lon="26.218672">
<ele>130.201294</ele>
<time>2010-07-18T07:18:12Z</time>
<desc>lat.=55.736790, lon.=26.218672, Alt.=130.201294m. Speed=0.000000m/h.</desc>
<speed>0.000000</speed>
</trkpt>
<trkpt lat="55.736790" lon="26.218672">
<ele>130.201294</ele>
<time>2010-07-18T07:18:13Z</time>
<desc>lat.=55.736790, lon.=26.218672, Alt.=130.201294m. Speed=0.000000m/h.</desc>
<speed>0.000000</speed>
</trkpt>
<trkpt lat="55.736790" lon="26.218672">
<ele>130.205200</ele>
<time>2010-07-18T07:18:14Z</time>
<desc>lat.=55.736790, lon.=26.218672, Alt.=130.205200m. Speed=0.000000m/h.</desc>
<speed>0.000000</speed>
</trkpt>
<trkpt lat="55.736790" lon="26.218672">
<ele>130.205200</ele>
<time>2010-07-18T07:18:15Z</time>
<desc>lat.=55.736790, lon.=26.218672, Alt.=130.205200m. Speed=0.000000m/h.</desc>
<speed>0.000000</speed>
</trkpt>
<trkpt lat="55.736790" lon="26.218672">
<ele>130.209106</ele>
<time>2010-07-18T07:18:16Z</time>
<desc>lat.=55.736790, lon.=26.218672, Alt.=130.209106m. Speed=0.000000m/h.</desc>
<speed>0.000000</speed>
</trkpt>
<trkpt lat="55.736790" lon="26.218670">
<ele>130.209106</ele>
<time>2010-07-18T07:18:17Z</time>
<desc>lat.=55.736790, lon.=26.218670, Alt.=130.209106m. Speed=0.036000m/h.</desc>
<speed>0.010000</speed>
</trkpt>
<trkpt lat="55.736790" lon="26.218670">
<ele>130.213013</ele>
<time>2010-07-18T07:18:18Z</time>
<desc>lat.=55.736790, lon.=26.218670, Alt.=130.213013m. Speed=0.000000m/h.</desc>
<speed>0.000000</speed>
</trkpt>
<trkpt lat="55.736790" lon="26.218670">
<ele>130.213013</ele>
<time>2010-07-18T07:18:19Z</time>
<desc>lat.=55.736790, lon.=26.218670, Alt.=130.213013m. Speed=0.000000m/h.</desc>
<speed>0.000000</speed>
</trkpt>
<trkpt lat="55.736790" lon="26.218670">
<ele>130.213013</ele>
<time>2010-07-18T07:18:20Z</time>
<desc>lat.=55.736790, lon.=26.218670, Alt.=130.213013m. Speed=0.000000m/h.</desc>
<speed>0.000000</speed>
</trkpt>
<trkpt lat="55.736790" lon="26.218670">
<ele>130.213013</ele>
<time>2010-07-18T07:18:21Z</time>
<desc>lat.=55.736790, lon.=26.218670, Alt.=130.213013m. Speed=0.036000m/h.</desc>
<speed>0.010000</speed>
</trkpt>
<trkpt lat="55.736790" lon="26.218670">
<ele>130.216919</ele>
<time>2010-07-18T07:18:22Z</time>
<desc>lat.=55.736790, lon.=26.218670, Alt.=130.216919m. Speed=0.000000m/h.</desc>
<speed>0.000000</speed>
</trkpt>
<trkpt lat="55.736790" lon="26.218670">
<ele>130.216919</ele>
<time>2010-07-18T07:18:23Z</time>
<desc>lat.=55.736790, lon.=26.218670, Alt.=130.216919m. Speed=0.000000m/h.</desc>
<speed>0.000000</speed>
</trkpt>
<trkpt lat="55.736790" lon="26.218670">
<ele>130.216919</ele>
<time>2010-07-18T07:18:24Z</time>
<desc>lat.=55.736790, lon.=26.218670, Alt.=130.216919m. Speed=0.000000m/h.</desc>
<speed>0.000000</speed>
</trkpt>
<trkpt lat="55.736790" lon="26.218670">
<ele>130.220825</ele>
<time>2010-07-18T07:18:25Z</time>
<desc>lat.=55.736790, lon.=26.218670, Alt.=130.220825m. Speed=0.000000m/h.</desc>
<speed>0.000000</speed>
</trkpt>
<trkpt lat="55.736790" lon="26.218670">
<ele>130.220825</ele>
<time>2010-07-18T07:18:26Z</time>
<desc>lat.=55.736790, lon.=26.218670, Alt.=130.220825m. Speed=0.000000m/h.</desc>
<speed>0.000000</speed>
</trkpt>
<trkpt lat="55.736790" lon="26.218670">
<ele>130.220825</ele>
<time>2010-07-18T07:18:27Z</time>
<desc>lat.=55.736790, lon.=26.218670, Alt.=130.220825m. Speed=0.000000m/h.</desc>
<speed>0.000000</speed>
</trkpt>
<trkpt lat="55.736790" lon="26.218670">
<ele>130.224731</ele>
<time>2010-07-18T07:18:28Z</time>
<desc>lat.=55.736790, lon.=26.218670, Alt.=130.224731m. Speed=0.000000m/h.</desc>
<speed>0.000000</speed>
</trkpt>
<trkpt lat="55.736790" lon="26.218670">
<ele>130.228638</ele>
<time>2010-07-18T07:18:29Z</time>
<desc>lat.=55.736790, lon.=26.218670, Alt.=130.228638m. Speed=0.000000m/h.</desc>
<speed>0.000000</speed>
</trkpt>
<trkpt lat="55.736790" lon="26.218670">
<ele>130.228638</ele>
<time>2010-07-18T07:18:30Z</time>
<desc>lat.=55.736790, lon.=26.218670, Alt.=130.228638m. Speed=0.000000m/h.</desc>
<speed>0.000000</speed>
</trkpt>
<trkpt lat="55.736790" lon="26.218670">
<ele>130.232544</ele>
<time>2010-07-18T07:18:31Z</time>
<desc>lat.=55.736790, lon.=26.218670, Alt.=130.232544m. Speed=0.000000m/h.</desc>
<speed>0.000000</speed>
</trkpt>
<trkpt lat="55.736790" lon="26.218670">
<ele>130.232544</ele>
<time>2010-07-18T07:18:32Z</time>
<desc>lat.=55.736790, lon.=26.218670, Alt.=130.232544m. Speed=0.000000m/h.</desc>
<speed>0.000000</speed>
</trkpt>
<trkpt lat="55.736790" lon="26.218670">
<ele>130.232544</ele>
<time>2010-07-18T07:18:33Z</time>
<desc>lat.=55.736790, lon.=26.218670, Alt.=130.232544m. Speed=0.036000m/h.</desc>
<speed>0.010000</speed>
</trkpt>
<trkpt lat="55.736790" lon="26.218670">
<ele>130.232544</ele>
<time>2010-07-18T07:18:34Z</time>
<desc>lat.=55.736790, lon.=26.218670, Alt.=130.232544m. Speed=0.000000m/h.</desc>
<speed>0.000000</speed>
</trkpt>
<trkpt lat="55.736790" lon="26.218670">
<ele>130.232544</ele>
<time>2010-07-18T07:18:35Z</time>
<desc>lat.=55.736790, lon.=26.218670, Alt.=130.232544m. Speed=0.000000m/h.</desc>
<speed>0.000000</speed>
</trkpt>
<trkpt lat="55.736790" lon="26.218670">
<ele>130.232544</ele>
<time>2010-07-18T07:18:36Z</time>
<desc>lat.=55.736790, lon.=26.218670, Alt.=130.232544m. Speed=0.000000m/h.</desc>
<speed>0.000000</speed>
</trkpt>
<trkpt lat="55.736790" lon="26.218670">
<ele>130.236450</ele>
<time>2010-07-18T07:18:37Z</time>
<desc>lat.=55.736790, lon.=26.218670, Alt.=130.236450m. Speed=0.000000m/h.</desc>
<speed>0.000000</speed>
</trkpt>
<trkpt lat="55.736790" lon="26.218670">
<ele>130.232544</ele>
<time>2010-07-18T07:18:38Z</time>
<desc>lat.=55.736790, lon.=26.218670, Alt.=130.232544m. Speed=0.000000m/h.</desc>
<speed>0.000000</speed>
</trkpt>
<trkpt lat="55.736790" lon="26.218670">
<ele>130.236450</ele>
<time>2010-07-18T07:18:39Z</time>
<desc>lat.=55.736790, lon.=26.218670, Alt.=130.236450m. Speed=0.000000m/h.</desc>
<speed>0.000000</speed>
</trkpt>
<trkpt lat="55.736790" lon="26.218670">
<ele>130.236450</ele>
<time>2010-07-18T07:18:40Z</time>
<desc>lat.=55.736790, lon.=26.218670, Alt.=130.236450m. Speed=0.000000m/h.</desc>
<speed>0.000000</speed>
</trkpt>
<trkpt lat="55.736790" lon="26.218670">
<ele>130.236450</ele>
<time>2010-07-18T07:18:41Z</time>
<desc>lat.=55.736790, lon.=26.218670, Alt.=130.236450m. Speed=0.000000m/h.</desc>
<speed>0.000000</speed>
</trkpt>
<trkpt lat="55.736790" lon="26.218670">
<ele>130.236450</ele>
<time>2010-07-18T07:18:42Z</time>
<desc>lat.=55.736790, lon.=26.218670, Alt.=130.236450m. Speed=0.000000m/h.</desc>
<speed>0.000000</speed>
</trkpt>
<trkpt lat="55.736790" lon="26.218670">
<ele>130.236450</ele>
<time>2010-07-18T07:18:43Z</time>
<desc>lat.=55.736790, lon.=26.218670, Alt.=130.236450m. Speed=0.000000m/h.</desc>
<speed>0.000000</speed>
</trkpt>
<trkpt lat="55.736790" lon="26.218670">
<ele>130.236450</ele>
<time>2010-07-18T07:18:44Z</time>
<desc>lat.=55.736790, lon.=26.218670, Alt.=130.236450m. Speed=0.000000m/h.</desc>
<speed>0.000000</speed>
</trkpt>
<trkpt lat="55.736790" lon="26.218670">
<ele>130.240356</ele>
<time>2010-07-18T07:18:45Z</time>
<desc>lat.=55.736790, lon.=26.218670, Alt.=130.240356m. Speed=0.000000m/h.</desc>
<speed>0.000000</speed>
</trkpt>
<trkpt lat="55.736790" lon="26.218670">
<ele>130.240356</ele>
<time>2010-07-18T07:18:46Z</time>
<desc>lat.=55.736790, lon.=26.218670, Alt.=130.240356m. Speed=0.000000m/h.</desc>
<speed>0.000000</speed>
</trkpt>
<trkpt lat="55.736790" lon="26.218670">
<ele>130.240356</ele>
<time>2010-07-18T07:18:47Z</time>
<desc>lat.=55.736790, lon.=26.218670, Alt.=130.240356m. Speed=0.000000m/h.</desc>
<speed>0.000000</speed>
</trkpt>
<trkpt lat="55.736790" lon="26.218670">
<ele>130.240356</ele>
<time>2010-07-18T07:18:48Z</time>
<desc>lat.=55.736790, lon.=26.218670, Alt.=130.240356m. Speed=0.000000m/h.</desc>
<speed>0.000000</speed>
</trkpt>
<trkpt lat="55.736790" lon="26.218670">
<ele>130.240356</ele>
<time>2010-07-18T07:18:49Z</time>
<desc>lat.=55.736790, lon.=26.218670, Alt.=130.240356m. Speed=0.000000m/h.</desc>
<speed>0.000000</speed>
</trkpt>
<trkpt lat="55.736790" lon="26.218670">
<ele>130.240356</ele>
<time>2010-07-18T07:18:50Z</time>
<desc>lat.=55.736790, lon.=26.218670, Alt.=130.240356m. Speed=0.036000m/h.</desc>
<speed>0.010000</speed>
</trkpt>
<trkpt lat="55.736790" lon="26.218670">
<ele>130.240356</ele>
<time>2010-07-18T07:18:51Z</time>
<desc>lat.=55.736790, lon.=26.218670, Alt.=130.240356m. Speed=0.000000m/h.</desc>
<speed>0.000000</speed>
</trkpt>
<trkpt lat="55.736790" lon="26.218670">
<ele>130.240356</ele>
<time>2010-07-18T07:18:52Z</time>
<desc>lat.=55.736790, lon.=26.218670, Alt.=130.240356m. Speed=0.000000m/h.</desc>
<speed>0.000000</speed>
</trkpt>
<trkpt lat="55.736790" lon="26.218670">
<ele>130.240356</ele>
<time>2010-07-18T07:18:53Z</time>
<desc>lat.=55.736790, lon.=26.218670, Alt.=130.240356m. Speed=0.000000m/h.</desc>
<speed>0.000000</speed>
</trkpt>
<trkpt lat="55.736790" lon="26.218670">
<ele>130.240356</ele>
<time>2010-07-18T07:18:54Z</time>
<desc>lat.=55.736790, lon.=26.218670, Alt.=130.240356m. Speed=0.000000m/h.</desc>
<speed>0.000000</speed>
</trkpt>
<trkpt lat="55.736790" lon="26.218670">
<ele>130.240356</ele>
<time>2010-07-18T07:18:55Z</time>
<desc>lat.=55.736790, lon.=26.218670, Alt.=130.240356m. Speed=0.000000m/h.</desc>
<speed>0.000000</speed>
</trkpt>
<trkpt lat="55.736790" lon="26.218670">
<ele>130.240356</ele>
<time>2010-07-18T07:18:56Z</time>
<desc>lat.=55.736790, lon.=26.218670, Alt.=130.240356m. Speed=0.000000m/h.</desc>
<speed>0.000000</speed>
</trkpt>
<trkpt lat="55.736790" lon="26.218670">
<ele>130.240356</ele>
<time>2010-07-18T07:18:57Z</time>
<desc>lat.=55.736790, lon.=26.218670, Alt.=130.240356m. Speed=0.000000m/h.</desc>
<speed>0.000000</speed>
</trkpt>
<trkpt lat="55.736790" lon="26.218670">
<ele>130.240356</ele>
<time>2010-07-18T07:18:58Z</time>
<desc>lat.=55.736790, lon.=26.218670, Alt.=130.240356m. Speed=0.000000m/h.</desc>
<speed>0.000000</speed>
</trkpt>
<trkpt lat="55.736790" lon="26.218670">
<ele>130.240356</ele>
<time>2010-07-18T07:18:59Z</time>
<desc>lat.=55.736790, lon.=26.218670, Alt.=130.240356m. Speed=0.000000m/h.</desc>
<speed>0.000000</speed>
</trkpt>
<trkpt lat="55.736790" lon="26.218670">
<ele>130.244263</ele>
<time>2010-07-18T07:19:00Z</time>
<desc>lat.=55.736790, lon.=26.218670, Alt.=130.244263m. Speed=0.000000m/h.</desc>
<speed>0.000000</speed>
</trkpt>
<trkpt lat="55.736790" lon="26.218670">
<ele>130.244263</ele>
<time>2010-07-18T07:19:01Z</time>
<desc>lat.=55.736790, lon.=26.218670, Alt.=130.244263m. Speed=0.000000m/h.</desc>
<speed>0.000000</speed>
</trkpt>
<trkpt lat="55.736790" lon="26.218670">
<ele>130.244263</ele>
<time>2010-07-18T07:19:02Z</time>
<desc>lat.=55.736790, lon.=26.218670, Alt.=130.244263m. Speed=0.000000m/h.</desc>
<speed>0.000000</speed>
</trkpt>
<trkpt lat="55.736790" lon="26.218670">
<ele>130.244263</ele>
<time>2010-07-18T07:19:03Z</time>
<desc>lat.=55.736790, lon.=26.218670, Alt.=130.244263m. Speed=0.000000m/h.</desc>
<speed>0.000000</speed>
</trkpt>
<trkpt lat="55.736790" lon="26.218670">
<ele>130.244263</ele>
<time>2010-07-18T07:19:04Z</time>
<desc>lat.=55.736790, lon.=26.218670, Alt.=130.244263m. Speed=0.000000m/h.</desc>
<speed>0.000000</speed>
</trkpt>
<trkpt lat="55.736790" lon="26.218670">
<ele>130.248169</ele>
<time>2010-07-18T07:19:05Z</time>
<desc>lat.=55.736790, lon.=26.218670, Alt.=130.248169m. Speed=0.000000m/h.</desc>
<speed>0.000000</speed>
</trkpt>
<trkpt lat="55.736790" lon="26.218670">
<ele>130.244263</ele>
<time>2010-07-18T07:19:06Z</time>
<desc>lat.=55.736790, lon.=26.218670, Alt.=130.244263m. Speed=0.000000m/h.</desc>
<speed>0.000000</speed>
</trkpt>
<trkpt lat="55.736790" lon="26.218670">
<ele>130.248169</ele>
<time>2010-07-18T07:19:07Z</time>
<desc>lat.=55.736790, lon.=26.218670, Alt.=130.248169m. Speed=0.000000m/h.</desc>
<speed>0.000000</speed>
</trkpt>
<trkpt lat="55.736790" lon="26.218670">
<ele>130.244263</ele>
<time>2010-07-18T07:19:08Z</time>
<desc>lat.=55.736790, lon.=26.218670, Alt.=130.244263m. Speed=0.000000m/h.</desc>
<speed>0.000000</speed>
</trkpt>
<trkpt lat="55.736790" lon="26.218670">
<ele>130.248169</ele>
<time>2010-07-18T07:19:09Z</time>
<desc>lat.=55.736790, lon.=26.218670, Alt.=130.248169m. Speed=0.000000m/h.</desc>
<speed>0.000000</speed>
</trkpt>
<trkpt lat="55.736790" lon="26.218670">
<ele>130.244263</ele>
<time>2010-07-18T07:19:10Z</time>
<desc>lat.=55.736790, lon.=26.218670, Alt.=130.244263m. Speed=0.000000m/h.</desc>
<speed>0.000000</speed>
</trkpt>
<trkpt lat="55.736790" lon="26.218670">
<ele>130.248169</ele>
<time>2010-07-18T07:19:11Z</time>
<desc>lat.=55.736790, lon.=26.218670, Alt.=130.248169m. Speed=0.000000m/h.</desc>
<speed>0.000000</speed>
</trkpt>
<trkpt lat="55.736790" lon="26.218670">
<ele>130.248169</ele>
<time>2010-07-18T07:19:12Z</time>
<desc>lat.=55.736790, lon.=26.218670, Alt.=130.248169m. Speed=0.000000m/h.</desc>
<speed>0.000000</speed>
</trkpt>
<trkpt lat="55.736790" lon="26.218670">
<ele>130.248169</ele>
<time>2010-07-18T07:19:13Z</time>
<desc>lat.=55.736790, lon.=26.218670, Alt.=130.248169m. Speed=0.000000m/h.</desc>
<speed>0.000000</speed>
</trkpt>
<trkpt lat="55.736790" lon="26.218670">
<ele>130.248169</ele>
<time>2010-07-18T07:19:14Z</time>
<desc>lat.=55.736790, lon.=26.218670, Alt.=130.248169m. Speed=0.036000m/h.</desc>
<speed>0.010000</speed>
</trkpt>
<trkpt lat="55.736790" lon="26.218670">
<ele>130.252075</ele>
<time>2010-07-18T07:19:15Z</time>
<desc>lat.=55.736790, lon.=26.218670, Alt.=130.252075m. Speed=0.000000m/h.</desc>
<speed>0.000000</speed>
</trkpt>
<trkpt lat="55.736790" lon="26.218670">
<ele>130.248169</ele>
<time>2010-07-18T07:19:16Z</time>
<desc>lat.=55.736790, lon.=26.218670, Alt.=130.248169m. Speed=0.000000m/h.</desc>
<speed>0.000000</speed>
</trkpt>
<trkpt lat="55.736790" lon="26.218670">
<ele>130.252075</ele>
<time>2010-07-18T07:19:17Z</time>
<desc>lat.=55.736790, lon.=26.218670, Alt.=130.252075m. Speed=0.036000m/h.</desc>
<speed>0.010000</speed>
</trkpt>
<trkpt lat="55.736790" lon="26.218670">
<ele>130.252075</ele>
<time>2010-07-18T07:19:18Z</time>
<desc>lat.=55.736790, lon.=26.218670, Alt.=130.252075m. Speed=0.000000m/h.</desc>
<speed>0.000000</speed>
</trkpt>
<trkpt lat="55.736790" lon="26.218670">
<ele>130.252075</ele>
<time>2010-07-18T07:19:19Z</time>
<desc>lat.=55.736790, lon.=26.218670, Alt.=130.252075m. Speed=0.036000m/h.</desc>
<speed>0.010000</speed>
</trkpt>
<trkpt lat="55.736790" lon="26.218670">
<ele>130.252075</ele>
<time>2010-07-18T07:19:20Z</time>
<desc>lat.=55.736790, lon.=26.218670, Alt.=130.252075m. Speed=0.000000m/h.</desc>
<speed>0.000000</speed>
</trkpt>
<trkpt lat="55.736790" lon="26.218670">
<ele>130.252075</ele>
<time>2010-07-18T07:19:21Z</time>
<desc>lat.=55.736790, lon.=26.218670, Alt.=130.252075m. Speed=0.000000m/h.</desc>
<speed>0.000000</speed>
</trkpt>
<trkpt lat="55.736790" lon="26.218670">
<ele>130.252075</ele>
<time>2010-07-18T07:19:22Z</time>
<desc>lat.=55.736790, lon.=26.218670, Alt.=130.252075m. Speed=0.000000m/h.</desc>
<speed>0.000000</speed>
</trkpt>
<trkpt lat="55.736790" lon="26.218670">
<ele>130.248169</ele>
<time>2010-07-18T07:19:23Z</time>
<desc>lat.=55.736790, lon.=26.218670, Alt.=130.248169m. Speed=0.000000m/h.</desc>
<speed>0.000000</speed>
</trkpt>
<trkpt lat="55.736790" lon="26.218670">
<ele>130.252075</ele>
<time>2010-07-18T07:19:24Z</time>
<desc>lat.=55.736790, lon.=26.218670, Alt.=130.252075m. Speed=0.000000m/h.</desc>
<speed>0.000000</speed>
</trkpt>
<trkpt lat="55.736790" lon="26.218670">
<ele>130.248169</ele>
<time>2010-07-18T07:19:25Z</time>
<desc>lat.=55.736790, lon.=26.218670, Alt.=130.248169m. Speed=0.000000m/h.</desc>
<speed>0.000000</speed>
</trkpt>
<trkpt lat="55.736790" lon="26.218670">
<ele>130.248169</ele>
<time>2010-07-18T07:19:26Z</time>
<desc>lat.=55.736790, lon.=26.218670, Alt.=130.248169m. Speed=0.036000m/h.</desc>
<speed>0.010000</speed>
</trkpt>
<trkpt lat="55.736790" lon="26.218670">
<ele>130.248169</ele>
<time>2010-07-18T07:19:27Z</time>
<desc>lat.=55.736790, lon.=26.218670, Alt.=130.248169m. Speed=0.036000m/h.</desc>
<speed>0.010000</speed>
</trkpt>
<trkpt lat="55.736790" lon="26.218670">
<ele>130.252075</ele>
<time>2010-07-18T07:19:28Z</time>
<desc>lat.=55.736790, lon.=26.218670, Alt.=130.252075m. Speed=0.000000m/h.</desc>
<speed>0.000000</speed>
</trkpt>
<trkpt lat="55.736790" lon="26.218668">
<ele>130.252075</ele>
<time>2010-07-18T07:19:29Z</time>
<desc>lat.=55.736790, lon.=26.218668, Alt.=130.252075m. Speed=0.036000m/h.</desc>
<speed>0.010000</speed>
</trkpt>
<trkpt lat="55.736790" lon="26.218668">
<ele>130.252075</ele>
<time>2010-07-18T07:19:30Z</time>
<desc>lat.=55.736790, lon.=26.218668, Alt.=130.252075m. Speed=0.000000m/h.</desc>
<speed>0.000000</speed>
</trkpt>
<trkpt lat="55.736790" lon="26.218668">
<ele>130.248169</ele>
<time>2010-07-18T07:19:31Z</time>
<desc>lat.=55.736790, lon.=26.218668, Alt.=130.248169m. Speed=0.000000m/h.</desc>
<speed>0.000000</speed>
</trkpt>
<trkpt lat="55.736790" lon="26.218668">
<ele>130.252075</ele>
<time>2010-07-18T07:19:32Z</time>
<desc>lat.=55.736790, lon.=26.218668, Alt.=130.252075m. Speed=0.000000m/h.</desc>
<speed>0.000000</speed>
</trkpt>
<trkpt lat="55.736790" lon="26.218668">
<ele>130.248169</ele>
<time>2010-07-18T07:19:33Z</time>
<desc>lat.=55.736790, lon.=26.218668, Alt.=130.248169m. Speed=0.000000m/h.</desc>
<speed>0.000000</speed>
</trkpt>
<trkpt lat="55.736790" lon="26.218668">
<ele>130.248169</ele>
<time>2010-07-18T07:19:34Z</time>
<desc>lat.=55.736790, lon.=26.218668, Alt.=130.248169m. Speed=0.000000m/h.</desc>
<speed>0.000000</speed>
</trkpt>
<trkpt lat="55.736790" lon="26.218668">
<ele>130.248169</ele>
<time>2010-07-18T07:19:35Z</time>
<desc>lat.=55.736790, lon.=26.218668, Alt.=130.248169m. Speed=0.000000m/h.</desc>
<speed>0.000000</speed>
</trkpt>
<trkpt lat="55.736790" lon="26.218668">
<ele>130.248169</ele>
<time>2010-07-18T07:19:36Z</time>
<desc>lat.=55.736790, lon.=26.218668, Alt.=130.248169m. Speed=0.000000m/h.</desc>
<speed>0.000000</speed>
</trkpt>
<trkpt lat="55.736790" lon="26.218668">
<ele>130.248169</ele>
<time>2010-07-18T07:19:37Z</time>
<desc>lat.=55.736790, lon.=26.218668, Alt.=130.248169m. Speed=0.000000m/h.</desc>
<speed>0.000000</speed>
</trkpt>
<trkpt lat="55.736790" lon="26.218668">
<ele>130.248169</ele>
<time>2010-07-18T07:19:38Z</time>
<desc>lat.=55.736790, lon.=26.218668, Alt.=130.248169m. Speed=0.036000m/h.</desc>
<speed>0.010000</speed>
</trkpt>
<trkpt lat="55.736790" lon="26.218668">
<ele>130.248169</ele>
<time>2010-07-18T07:19:39Z</time>
<desc>lat.=55.736790, lon.=26.218668, Alt.=130.248169m. Speed=0.000000m/h.</desc>
<speed>0.000000</speed>
</trkpt>
<trkpt lat="55.736790" lon="26.218668">
<ele>130.248169</ele>
<time>2010-07-18T07:19:40Z</time>
<desc>lat.=55.736790, lon.=26.218668, Alt.=130.248169m. Speed=0.000000m/h.</desc>
<speed>0.000000</speed>
</trkpt>
<trkpt lat="55.736790" lon="26.218668">
<ele>130.248169</ele>
<time>2010-07-18T07:19:41Z</time>
<desc>lat.=55.736790, lon.=26.218668, Alt.=130.248169m. Speed=0.036000m/h.</desc>
<speed>0.010000</speed>
</trkpt>
<trkpt lat="55.736790" lon="26.218668">
<ele>130.244263</ele>
<time>2010-07-18T07:19:42Z</time>
<desc>lat.=55.736790, lon.=26.218668, Alt.=130.244263m. Speed=0.036000m/h.</desc>
<speed>0.010000</speed>
</trkpt>
<trkpt lat="55.736790" lon="26.218668">
<ele>130.244263</ele>
<time>2010-07-18T07:19:43Z</time>
<desc>lat.=55.736790, lon.=26.218668, Alt.=130.244263m. Speed=0.000000m/h.</desc>
<speed>0.000000</speed>
</trkpt>
<trkpt lat="55.736790" lon="26.218668">
<ele>130.244263</ele>
<time>2010-07-18T07:19:44Z</time>
<desc>lat.=55.736790, lon.=26.218668, Alt.=130.244263m. Speed=0.036000m/h.</desc>
<speed>0.010000</speed>
</trkpt>
<trkpt lat="55.736790" lon="26.218668">
<ele>130.248169</ele>
<time>2010-07-18T07:19:45Z</time>
<desc>lat.=55.736790, lon.=26.218668, Alt.=130.248169m. Speed=0.000000m/h.</desc>
<speed>0.000000</speed>
</trkpt>
<trkpt lat="55.736790" lon="26.218668">
<ele>130.244263</ele>
<time>2010-07-18T07:19:46Z</time>
<desc>lat.=55.736790, lon.=26.218668, Alt.=130.244263m. Speed=0.000000m/h.</desc>
<speed>0.000000</speed>
</trkpt>
<trkpt lat="55.736790" lon="26.218668">
<ele>130.244263</ele>
<time>2010-07-18T07:19:47Z</time>
<desc>lat.=55.736790, lon.=26.218668, Alt.=130.244263m. Speed=0.000000m/h.</desc>
<speed>0.000000</speed>
</trkpt>
<trkpt lat="55.736790" lon="26.218668">
<ele>130.244263</ele>
<time>2010-07-18T07:19:48Z</time>
<desc>lat.=55.736790, lon.=26.218668, Alt.=130.244263m. Speed=0.036000m/h.</desc>
<speed>0.010000</speed>
</trkpt>
<trkpt lat="55.736790" lon="26.218668">
<ele>130.244263</ele>
<time>2010-07-18T07:19:49Z</time>
<desc>lat.=55.736790, lon.=26.218668, Alt.=130.244263m. Speed=0.000000m/h.</desc>
<speed>0.000000</speed>
</trkpt>
<trkpt lat="55.736790" lon="26.218668">
<ele>130.244263</ele>
<time>2010-07-18T07:19:50Z</time>
<desc>lat.=55.736790, lon.=26.218668, Alt.=130.244263m. Speed=0.036000m/h.</desc>
<speed>0.010000</speed>
</trkpt>
<trkpt lat="55.736790" lon="26.218668">
<ele>130.240356</ele>
<time>2010-07-18T07:19:51Z</time>
<desc>lat.=55.736790, lon.=26.218668, Alt.=130.240356m. Speed=0.000000m/h.</desc>
<speed>0.000000</speed>
</trkpt>
<trkpt lat="55.736790" lon="26.218668">
<ele>130.240356</ele>
<time>2010-07-18T07:19:52Z</time>
<desc>lat.=55.736790, lon.=26.218668, Alt.=130.240356m. Speed=0.000000m/h.</desc>
<speed>0.000000</speed>
</trkpt>
<trkpt lat="55.736790" lon="26.218668">
<ele>130.240356</ele>
<time>2010-07-18T07:19:53Z</time>
<desc>lat.=55.736790, lon.=26.218668, Alt.=130.240356m. Speed=0.036000m/h.</desc>
<speed>0.010000</speed>
</trkpt>
<trkpt lat="55.736790" lon="26.218668">
<ele>130.240356</ele>
<time>2010-07-18T07:19:54Z</time>
<desc>lat.=55.736790, lon.=26.218668, Alt.=130.240356m. Speed=0.000000m/h.</desc>
<speed>0.000000</speed>
</trkpt>
<trkpt lat="55.736790" lon="26.218668">
<ele>130.240356</ele>
<time>2010-07-18T07:19:55Z</time>
<desc>lat.=55.736790, lon.=26.218668, Alt.=130.240356m. Speed=0.000000m/h.</desc>
<speed>0.000000</speed>
</trkpt>
<trkpt lat="55.736790" lon="26.218668">
<ele>130.240356</ele>
<time>2010-07-18T07:19:56Z</time>
<desc>lat.=55.736790, lon.=26.218668, Alt.=130.240356m. Speed=0.000000m/h.</desc>
<speed>0.000000</speed>
</trkpt>
<trkpt lat="55.736790" lon="26.218668">
<ele>130.244263</ele>
<time>2010-07-18T07:19:57Z</time>
<desc>lat.=55.736790, lon.=26.218668, Alt.=130.244263m. Speed=0.000000m/h.</desc>
<speed>0.000000</speed>
</trkpt>
<trkpt lat="55.736790" lon="26.218668">
<ele>130.244263</ele>
<time>2010-07-18T07:19:58Z</time>
<desc>lat.=55.736790, lon.=26.218668, Alt.=130.244263m. Speed=0.072000m/h.</desc>
<speed>0.020000</speed>
</trkpt>
<trkpt lat="55.736790" lon="26.218668">
<ele>130.244263</ele>
<time>2010-07-18T07:19:59Z</time>
<desc>lat.=55.736790, lon.=26.218668, Alt.=130.244263m. Speed=0.036000m/h.</desc>
<speed>0.010000</speed>
</trkpt>
<trkpt lat="55.736790" lon="26.218668">
<ele>130.248169</ele>
<time>2010-07-18T07:20:00Z</time>
<desc>lat.=55.736790, lon.=26.218668, Alt.=130.248169m. Speed=0.000000m/h.</desc>
<speed>0.000000</speed>
</trkpt>
<trkpt lat="55.736790" lon="26.218668">
<ele>130.248169</ele>
<time>2010-07-18T07:20:01Z</time>
<desc>lat.=55.736790, lon.=26.218668, Alt.=130.248169m. Speed=0.000000m/h.</desc>
<speed>0.000000</speed>
</trkpt>
<trkpt lat="55.736790" lon="26.218668">
<ele>130.244263</ele>
<time>2010-07-18T07:20:02Z</time>
<desc>lat.=55.736790, lon.=26.218668, Alt.=130.244263m. Speed=0.000000m/h.</desc>
<speed>0.000000</speed>
</trkpt>
<trkpt lat="55.736790" lon="26.218668">
<ele>130.244263</ele>
<time>2010-07-18T07:20:03Z</time>
<desc>lat.=55.736790, lon.=26.218668, Alt.=130.244263m. Speed=0.072000m/h.</desc>
<speed>0.020000</speed>
</trkpt>
<trkpt lat="55.736790" lon="26.218668">
<ele>130.240356</ele>
<time>2010-07-18T07:20:04Z</time>
<desc>lat.=55.736790, lon.=26.218668, Alt.=130.240356m. Speed=0.000000m/h.</desc>
<speed>0.000000</speed>
</trkpt>
<trkpt lat="55.736790" lon="26.218668">
<ele>130.240356</ele>
<time>2010-07-18T07:20:05Z</time>
<desc>lat.=55.736790, lon.=26.218668, Alt.=130.240356m. Speed=0.000000m/h.</desc>
<speed>0.000000</speed>
</trkpt>
<trkpt lat="55.736790" lon="26.218668">
<ele>130.240356</ele>
<time>2010-07-18T07:20:06Z</time>
<desc>lat.=55.736790, lon.=26.218668, Alt.=130.240356m. Speed=0.036000m/h.</desc>
<speed>0.010000</speed>
</trkpt>
<trkpt lat="55.736790" lon="26.218668">
<ele>130.240356</ele>
<time>2010-07-18T07:20:07Z</time>
<desc>lat.=55.736790, lon.=26.218668, Alt.=130.240356m. Speed=0.000000m/h.</desc>
<speed>0.000000</speed>
</trkpt>
<trkpt lat="55.736790" lon="26.218668">
<ele>130.240356</ele>
<time>2010-07-18T07:20:08Z</time>
<desc>lat.=55.736790, lon.=26.218668, Alt.=130.240356m. Speed=0.000000m/h.</desc>
<speed>0.000000</speed>
</trkpt>
<trkpt lat="55.736790" lon="26.218668">
<ele>130.240356</ele>
<time>2010-07-18T07:20:09Z</time>
<desc>lat.=55.736790, lon.=26.218668, Alt.=130.240356m. Speed=0.000000m/h.</desc>
<speed>0.000000</speed>
</trkpt>
<trkpt lat="55.736790" lon="26.218668">
<ele>130.240356</ele>
<time>2010-07-18T07:20:10Z</time>
<desc>lat.=55.736790, lon.=26.218668, Alt.=130.240356m. Speed=0.000000m/h.</desc>
<speed>0.000000</speed>
</trkpt>
<trkpt lat="55.736790" lon="26.218668">
<ele>130.244263</ele>
<time>2010-07-18T07:20:11Z</time>
<desc>lat.=55.736790, lon.=26.218668, Alt.=130.244263m. Speed=0.036000m/h.</desc>
<speed>0.010000</speed>
</trkpt>
<trkpt lat="55.736790" lon="26.218668">
<ele>130.240356</ele>
<time>2010-07-18T07:20:12Z</time>
<desc>lat.=55.736790, lon.=26.218668, Alt.=130.240356m. Speed=0.000000m/h.</desc>
<speed>0.000000</speed>
</trkpt>
<trkpt lat="55.736790" lon="26.218668">
<ele>130.240356</ele>
<time>2010-07-18T07:20:13Z</time>
<desc>lat.=55.736790, lon.=26.218668, Alt.=130.240356m. Speed=0.036000m/h.</desc>
<speed>0.010000</speed>
</trkpt>
<trkpt lat="55.736790" lon="26.218668">
<ele>130.236450</ele>
<time>2010-07-18T07:20:14Z</time>
<desc>lat.=55.736790, lon.=26.218668, Alt.=130.236450m. Speed=0.000000m/h.</desc>
<speed>0.000000</speed>
</trkpt>
<trkpt lat="55.736790" lon="26.218668">
<ele>130.236450</ele>
<time>2010-07-18T07:20:15Z</time>
<desc>lat.=55.736790, lon.=26.218668, Alt.=130.236450m. Speed=0.000000m/h.</desc>
<speed>0.000000</speed>
</trkpt>
<trkpt lat="55.736790" lon="26.218668">
<ele>130.236450</ele>
<time>2010-07-18T07:20:16Z</time>
<desc>lat.=55.736790, lon.=26.218668, Alt.=130.236450m. Speed=0.000000m/h.</desc>
<speed>0.000000</speed>
</trkpt>
<trkpt lat="55.736790" lon="26.218668">
<ele>130.236450</ele>
<time>2010-07-18T07:20:17Z</time>
<desc>lat.=55.736790, lon.=26.218668, Alt.=130.236450m. Speed=0.072000m/h.</desc>
<speed>0.020000</speed>
</trkpt>
<trkpt lat="55.736790" lon="26.218668">
<ele>130.236450</ele>
<time>2010-07-18T07:20:18Z</time>
<desc>lat.=55.736790, lon.=26.218668, Alt.=130.236450m. Speed=0.000000m/h.</desc>
<speed>0.000000</speed>
</trkpt>
<trkpt lat="55.736790" lon="26.218668">
<ele>130.236450</ele>
<time>2010-07-18T07:20:19Z</time>
<desc>lat.=55.736790, lon.=26.218668, Alt.=130.236450m. Speed=0.000000m/h.</desc>
<speed>0.000000</speed>
</trkpt>
<trkpt lat="55.736790" lon="26.218668">
<ele>130.236450</ele>
<time>2010-07-18T07:20:20Z</time>
<desc>lat.=55.736790, lon.=26.218668, Alt.=130.236450m. Speed=0.000000m/h.</desc>
<speed>0.000000</speed>
</trkpt>
<trkpt lat="55.736790" lon="26.218668">
<ele>130.236450</ele>
<time>2010-07-18T07:20:21Z</time>
<desc>lat.=55.736790, lon.=26.218668, Alt.=130.236450m. Speed=0.000000m/h.</desc>
<speed>0.000000</speed>
</trkpt>
<trkpt lat="55.736790" lon="26.218668">
<ele>130.236450</ele>
<time>2010-07-18T07:20:22Z</time>
<desc>lat.=55.736790, lon.=26.218668, Alt.=130.236450m. Speed=0.000000m/h.</desc>
<speed>0.000000</speed>
</trkpt>
<trkpt lat="55.736790" lon="26.218668">
<ele>130.236450</ele>
<time>2010-07-18T07:20:23Z</time>
<desc>lat.=55.736790, lon.=26.218668, Alt.=130.236450m. Speed=0.000000m/h.</desc>
<speed>0.000000</speed>
</trkpt>
<trkpt lat="55.736790" lon="26.218668">
<ele>130.236450</ele>
<time>2010-07-18T07:20:24Z</time>
<desc>lat.=55.736790, lon.=26.218668, Alt.=130.236450m. Speed=0.000000m/h.</desc>
<speed>0.000000</speed>
</trkpt>
<trkpt lat="55.736790" lon="26.218668">
<ele>130.236450</ele>
<time>2010-07-18T07:20:25Z</time>
<desc>lat.=55.736790, lon.=26.218668, Alt.=130.236450m. Speed=0.036000m/h.</desc>
<speed>0.010000</speed>
</trkpt>
<trkpt lat="55.736790" lon="26.218668">
<ele>130.236450</ele>
<time>2010-07-18T07:20:26Z</time>
<desc>lat.=55.736790, lon.=26.218668, Alt.=130.236450m. Speed=0.036000m/h.</desc>
<speed>0.010000</speed>
</trkpt>
<trkpt lat="55.736790" lon="26.218668">
<ele>130.236450</ele>
<time>2010-07-18T07:20:27Z</time>
<desc>lat.=55.736790, lon.=26.218668, Alt.=130.236450m. Speed=0.000000m/h.</desc>
<speed>0.000000</speed>
</trkpt>
<trkpt lat="55.736790" lon="26.218668">
<ele>130.236450</ele>
<time>2010-07-18T07:20:28Z</time>
<desc>lat.=55.736790, lon.=26.218668, Alt.=130.236450m. Speed=0.000000m/h.</desc>
<speed>0.000000</speed>
</trkpt>
<trkpt lat="55.736790" lon="26.218668">
<ele>130.236450</ele>
<time>2010-07-18T07:20:29Z</time>
<desc>lat.=55.736790, lon.=26.218668, Alt.=130.236450m. Speed=0.000000m/h.</desc>
<speed>0.000000</speed>
</trkpt>
<trkpt lat="55.736790" lon="26.218666">
<ele>130.236450</ele>
<time>2010-07-18T07:20:30Z</time>
<desc>lat.=55.736790, lon.=26.218666, Alt.=130.236450m. Speed=0.000000m/h.</desc>
<speed>0.000000</speed>
</trkpt>
<trkpt lat="55.736790" lon="26.218666">
<ele>130.236450</ele>
<time>2010-07-18T07:20:31Z</time>
<desc>lat.=55.736790, lon.=26.218666, Alt.=130.236450m. Speed=0.000000m/h.</desc>
<speed>0.000000</speed>
</trkpt>
<trkpt lat="55.736790" lon="26.218666">
<ele>130.236450</ele>
<time>2010-07-18T07:20:32Z</time>
<desc>lat.=55.736790, lon.=26.218666, Alt.=130.236450m. Speed=0.000000m/h.</desc>
<speed>0.000000</speed>
</trkpt>
<trkpt lat="55.736790" lon="26.218666">
<ele>130.236450</ele>
<time>2010-07-18T07:20:33Z</time>
<desc>lat.=55.736790, lon.=26.218666, Alt.=130.236450m. Speed=0.000000m/h.</desc>
<speed>0.000000</speed>
</trkpt>
<trkpt lat="55.736790" lon="26.218668">
<ele>130.236450</ele>
<time>2010-07-18T07:20:34Z</time>
<desc>lat.=55.736790, lon.=26.218668, Alt.=130.236450m. Speed=0.000000m/h.</desc>
<speed>0.000000</speed>
</trkpt>
<trkpt lat="55.736790" lon="26.218666">
<ele>130.232544</ele>
<time>2010-07-18T07:20:35Z</time>
<desc>lat.=55.736790, lon.=26.218666, Alt.=130.232544m. Speed=0.000000m/h.</desc>
<speed>0.000000</speed>
</trkpt>
<trkpt lat="55.736790" lon="26.218666">
<ele>130.232544</ele>
<time>2010-07-18T07:20:36Z</time>
<desc>lat.=55.736790, lon.=26.218666, Alt.=130.232544m. Speed=0.000000m/h.</desc>
<speed>0.000000</speed>
</trkpt>
<trkpt lat="55.736790" lon="26.218666">
<ele>130.232544</ele>
<time>2010-07-18T07:20:37Z</time>
<desc>lat.=55.736790, lon.=26.218666, Alt.=130.232544m. Speed=0.000000m/h.</desc>
<speed>0.000000</speed>
</trkpt>
<trkpt lat="55.736790" lon="26.218666">
<ele>130.228638</ele>
<time>2010-07-18T07:20:38Z</time>
<desc>lat.=55.736790, lon.=26.218666, Alt.=130.228638m. Speed=0.036000m/h.</desc>
<speed>0.010000</speed>
</trkpt>
<trkpt lat="55.736790" lon="26.218666">
<ele>130.228638</ele>
<time>2010-07-18T07:20:39Z</time>
<desc>lat.=55.736790, lon.=26.218666, Alt.=130.228638m. Speed=0.000000m/h.</desc>
<speed>0.000000</speed>
</trkpt>
<trkpt lat="55.736790" lon="26.218666">
<ele>130.228638</ele>
<time>2010-07-18T07:20:40Z</time>
<desc>lat.=55.736790, lon.=26.218666, Alt.=130.228638m. Speed=0.000000m/h.</desc>
<speed>0.000000</speed>
</trkpt>
<trkpt lat="55.736790" lon="26.218666">
<ele>130.224731</ele>
<time>2010-07-18T07:20:41Z</time>
<desc>lat.=55.736790, lon.=26.218666, Alt.=130.224731m. Speed=0.000000m/h.</desc>
<speed>0.000000</speed>
</trkpt>
<trkpt lat="55.736790" lon="26.218666">
<ele>130.224731</ele>
<time>2010-07-18T07:20:42Z</time>
<desc>lat.=55.736790, lon.=26.218666, Alt.=130.224731m. Speed=0.000000m/h.</desc>
<speed>0.000000</speed>
</trkpt>
<trkpt lat="55.736790" lon="26.218666">
<ele>130.224731</ele>
<time>2010-07-18T07:20:43Z</time>
<desc>lat.=55.736790, lon.=26.218666, Alt.=130.224731m. Speed=0.036000m/h.</desc>
<speed>0.010000</speed>
</trkpt>
<trkpt lat="55.736790" lon="26.218666">
<ele>130.220825</ele>
<time>2010-07-18T07:20:44Z</time>
<desc>lat.=55.736790, lon.=26.218666, Alt.=130.220825m. Speed=0.000000m/h.</desc>
<speed>0.000000</speed>
</trkpt>
<trkpt lat="55.736790" lon="26.218666">
<ele>130.220825</ele>
<time>2010-07-18T07:20:45Z</time>
<desc>lat.=55.736790, lon.=26.218666, Alt.=130.220825m. Speed=0.000000m/h.</desc>
<speed>0.000000</speed>
</trkpt>
<trkpt lat="55.736790" lon="26.218666">
<ele>130.220825</ele>
<time>2010-07-18T07:20:46Z</time>
<desc>lat.=55.736790, lon.=26.218666, Alt.=130.220825m. Speed=0.036000m/h.</desc>
<speed>0.010000</speed>
</trkpt>
<trkpt lat="55.736790" lon="26.218666">
<ele>130.220825</ele>
<time>2010-07-18T07:20:47Z</time>
<desc>lat.=55.736790, lon.=26.218666, Alt.=130.220825m. Speed=0.000000m/h.</desc>
<speed>0.000000</speed>
</trkpt>
<trkpt lat="55.736790" lon="26.218666">
<ele>130.220825</ele>
<time>2010-07-18T07:20:48Z</time>
<desc>lat.=55.736790, lon.=26.218666, Alt.=130.220825m. Speed=0.000000m/h.</desc>
<speed>0.000000</speed>
</trkpt>
<trkpt lat="55.736790" lon="26.218666">
<ele>130.220825</ele>
<time>2010-07-18T07:20:49Z</time>
<desc>lat.=55.736790, lon.=26.218666, Alt.=130.220825m. Speed=0.036000m/h.</desc>
<speed>0.010000</speed>
</trkpt>
<trkpt lat="55.736790" lon="26.218666">
<ele>130.220825</ele>
<time>2010-07-18T07:20:50Z</time>
<desc>lat.=55.736790, lon.=26.218666, Alt.=130.220825m. Speed=0.000000m/h.</desc>
<speed>0.000000</speed>
</trkpt>
<trkpt lat="55.736790" lon="26.218666">
<ele>130.220825</ele>
<time>2010-07-18T07:20:51Z</time>
<desc>lat.=55.736790, lon.=26.218666, Alt.=130.220825m. Speed=0.000000m/h.</desc>
<speed>0.000000</speed>
</trkpt>
<trkpt lat="55.736790" lon="26.218666">
<ele>130.220825</ele>
<time>2010-07-18T07:20:52Z</time>
<desc>lat.=55.736790, lon.=26.218666, Alt.=130.220825m. Speed=0.000000m/h.</desc>
<speed>0.000000</speed>
</trkpt>
<trkpt lat="55.736790" lon="26.218666">
<ele>130.220825</ele>
<time>2010-07-18T07:20:53Z</time>
<desc>lat.=55.736790, lon.=26.218666, Alt.=130.220825m. Speed=0.000000m/h.</desc>
<speed>0.000000</speed>
</trkpt>
<trkpt lat="55.736790" lon="26.218666">
<ele>130.220825</ele>
<time>2010-07-18T07:20:54Z</time>
<desc>lat.=55.736790, lon.=26.218666, Alt.=130.220825m. Speed=0.000000m/h.</desc>
<speed>0.000000</speed>
</trkpt>
<trkpt lat="55.736790" lon="26.218666">
<ele>130.220825</ele>
<time>2010-07-18T07:20:55Z</time>
<desc>lat.=55.736790, lon.=26.218666, Alt.=130.220825m. Speed=0.000000m/h.</desc>
<speed>0.000000</speed>
</trkpt>
<trkpt lat="55.736790" lon="26.218666">
<ele>130.220825</ele>
<time>2010-07-18T07:20:56Z</time>
<desc>lat.=55.736790, lon.=26.218666, Alt.=130.220825m. Speed=0.000000m/h.</desc>
<speed>0.000000</speed>
</trkpt>
<trkpt lat="55.736790" lon="26.218666">
<ele>130.220825</ele>
<time>2010-07-18T07:20:57Z</time>
<desc>lat.=55.736790, lon.=26.218666, Alt.=130.220825m. Speed=0.036000m/h.</desc>
<speed>0.010000</speed>
</trkpt>
<trkpt lat="55.736790" lon="26.218666">
<ele>130.220825</ele>
<time>2010-07-18T07:20:58Z</time>
<desc>lat.=55.736790, lon.=26.218666, Alt.=130.220825m. Speed=0.000000m/h.</desc>
<speed>0.000000</speed>
</trkpt>
<trkpt lat="55.736790" lon="26.218666">
<ele>130.220825</ele>
<time>2010-07-18T07:20:59Z</time>
<desc>lat.=55.736790, lon.=26.218666, Alt.=130.220825m. Speed=0.036000m/h.</desc>
<speed>0.010000</speed>
</trkpt>
<trkpt lat="55.736790" lon="26.218666">
<ele>130.220825</ele>
<time>2010-07-18T07:21:00Z</time>
<desc>lat.=55.736790, lon.=26.218666, Alt.=130.220825m. Speed=0.000000m/h.</desc>
<speed>0.000000</speed>
</trkpt>
<trkpt lat="55.736790" lon="26.218666">
<ele>130.220825</ele>
<time>2010-07-18T07:21:01Z</time>
<desc>lat.=55.736790, lon.=26.218666, Alt.=130.220825m. Speed=0.000000m/h.</desc>
<speed>0.000000</speed>
</trkpt>
<trkpt lat="55.736790" lon="26.218666">
<ele>130.216919</ele>
<time>2010-07-18T07:21:02Z</time>
<desc>lat.=55.736790, lon.=26.218666, Alt.=130.216919m. Speed=0.000000m/h.</desc>
<speed>0.000000</speed>
</trkpt>
<trkpt lat="55.736790" lon="26.218668">
<ele>130.216919</ele>
<time>2010-07-18T07:21:03Z</time>
<desc>lat.=55.736790, lon.=26.218668, Alt.=130.216919m. Speed=0.000000m/h.</desc>
<speed>0.000000</speed>
</trkpt>
<trkpt lat="55.736790" lon="26.218666">
<ele>130.216919</ele>
<time>2010-07-18T07:21:04Z</time>
<desc>lat.=55.736790, lon.=26.218666, Alt.=130.216919m. Speed=0.000000m/h.</desc>
<speed>0.000000</speed>
</trkpt>
<trkpt lat="55.736790" lon="26.218668">
<ele>130.216919</ele>
<time>2010-07-18T07:21:05Z</time>
<desc>lat.=55.736790, lon.=26.218668, Alt.=130.216919m. Speed=0.000000m/h.</desc>
<speed>0.000000</speed>
</trkpt>
<trkpt lat="55.736790" lon="26.218668">
<ele>130.216919</ele>
<time>2010-07-18T07:21:06Z</time>
<desc>lat.=55.736790, lon.=26.218668, Alt.=130.216919m. Speed=0.036000m/h.</desc>
<speed>0.010000</speed>
</trkpt>
<trkpt lat="55.736794" lon="26.218668">
<ele>130.213013</ele>
<time>2010-07-18T07:21:07Z</time>
<desc>lat.=55.736794, lon.=26.218668, Alt.=130.213013m. Speed=0.036000m/h.</desc>
<speed>0.010000</speed>
</trkpt>
<trkpt lat="55.736794" lon="26.218668">
<ele>130.213013</ele>
<time>2010-07-18T07:21:08Z</time>
<desc>lat.=55.736794, lon.=26.218668, Alt.=130.213013m. Speed=0.000000m/h.</desc>
<speed>0.000000</speed>
</trkpt>
<trkpt lat="55.736794" lon="26.218668">
<ele>130.213013</ele>
<time>2010-07-18T07:21:09Z</time>
<desc>lat.=55.736794, lon.=26.218668, Alt.=130.213013m. Speed=0.000000m/h.</desc>
<speed>0.000000</speed>
</trkpt>
<trkpt lat="55.736794" lon="26.218668">
<ele>130.213013</ele>
<time>2010-07-18T07:21:10Z</time>
<desc>lat.=55.736794, lon.=26.218668, Alt.=130.213013m. Speed=0.000000m/h.</desc>
<speed>0.000000</speed>
</trkpt>
<trkpt lat="55.736794" lon="26.218668">
<ele>130.213013</ele>
<time>2010-07-18T07:21:11Z</time>
<desc>lat.=55.736794, lon.=26.218668, Alt.=130.213013m. Speed=0.000000m/h.</desc>
<speed>0.000000</speed>
</trkpt>
<trkpt lat="55.736794" lon="26.218668">
<ele>130.209106</ele>
<time>2010-07-18T07:21:12Z</time>
<desc>lat.=55.736794, lon.=26.218668, Alt.=130.209106m. Speed=0.000000m/h.</desc>
<speed>0.000000</speed>
</trkpt>
<trkpt lat="55.736794" lon="26.218668">
<ele>130.209106</ele>
<time>2010-07-18T07:21:13Z</time>
<desc>lat.=55.736794, lon.=26.218668, Alt.=130.209106m. Speed=0.000000m/h.</desc>
<speed>0.000000</speed>
</trkpt>
<trkpt lat="55.736794" lon="26.218668">
<ele>130.205200</ele>
<time>2010-07-18T07:21:14Z</time>
<desc>lat.=55.736794, lon.=26.218668, Alt.=130.205200m. Speed=0.000000m/h.</desc>
<speed>0.000000</speed>
</trkpt>
<trkpt lat="55.736794" lon="26.218668">
<ele>130.205200</ele>
<time>2010-07-18T07:21:15Z</time>
<desc>lat.=55.736794, lon.=26.218668, Alt.=130.205200m. Speed=0.036000m/h.</desc>
<speed>0.010000</speed>
</trkpt>
<trkpt lat="55.736794" lon="26.218668">
<ele>130.201294</ele>
<time>2010-07-18T07:21:16Z</time>
<desc>lat.=55.736794, lon.=26.218668, Alt.=130.201294m. Speed=0.000000m/h.</desc>
<speed>0.000000</speed>
</trkpt>
<trkpt lat="55.736794" lon="26.218668">
<ele>130.201294</ele>
<time>2010-07-18T07:21:17Z</time>
<desc>lat.=55.736794, lon.=26.218668, Alt.=130.201294m. Speed=0.000000m/h.</desc>
<speed>0.000000</speed>
</trkpt>
<trkpt lat="55.736794" lon="26.218668">
<ele>130.201294</ele>
<time>2010-07-18T07:21:18Z</time>
<desc>lat.=55.736794, lon.=26.218668, Alt.=130.201294m. Speed=0.000000m/h.</desc>
<speed>0.000000</speed>
</trkpt>
<trkpt lat="55.736794" lon="26.218668">
<ele>130.197388</ele>
<time>2010-07-18T07:21:19Z</time>
<desc>lat.=55.736794, lon.=26.218668, Alt.=130.197388m. Speed=0.000000m/h.</desc>
<speed>0.000000</speed>
</trkpt>
<trkpt lat="55.736794" lon="26.218668">
<ele>130.193481</ele>
<time>2010-07-18T07:21:20Z</time>
<desc>lat.=55.736794, lon.=26.218668, Alt.=130.193481m. Speed=0.000000m/h.</desc>
<speed>0.000000</speed>
</trkpt>
<trkpt lat="55.736794" lon="26.218668">
<ele>130.193481</ele>
<time>2010-07-18T07:21:21Z</time>
<desc>lat.=55.736794, lon.=26.218668, Alt.=130.193481m. Speed=0.000000m/h.</desc>
<speed>0.000000</speed>
</trkpt>
<trkpt lat="55.736794" lon="26.218668">
<ele>130.189575</ele>
<time>2010-07-18T07:21:22Z</time>
<desc>lat.=55.736794, lon.=26.218668, Alt.=130.189575m. Speed=0.000000m/h.</desc>
<speed>0.000000</speed>
</trkpt>
<trkpt lat="55.736794" lon="26.218668">
<ele>130.189575</ele>
<time>2010-07-18T07:21:23Z</time>
<desc>lat.=55.736794, lon.=26.218668, Alt.=130.189575m. Speed=0.000000m/h.</desc>
<speed>0.000000</speed>
</trkpt>
<trkpt lat="55.736794" lon="26.218668">
<ele>130.185669</ele>
<time>2010-07-18T07:21:24Z</time>
<desc>lat.=55.736794, lon.=26.218668, Alt.=130.185669m. Speed=0.036000m/h.</desc>
<speed>0.010000</speed>
</trkpt>
<trkpt lat="55.736794" lon="26.218668">
<ele>130.185669</ele>
<time>2010-07-18T07:21:25Z</time>
<desc>lat.=55.736794, lon.=26.218668, Alt.=130.185669m. Speed=0.000000m/h.</desc>
<speed>0.000000</speed>
</trkpt>
<trkpt lat="55.736794" lon="26.218668">
<ele>130.181763</ele>
<time>2010-07-18T07:21:26Z</time>
<desc>lat.=55.736794, lon.=26.218668, Alt.=130.181763m. Speed=0.000000m/h.</desc>
<speed>0.000000</speed>
</trkpt>
<trkpt lat="55.736794" lon="26.218668">
<ele>130.181763</ele>
<time>2010-07-18T07:21:27Z</time>
<desc>lat.=55.736794, lon.=26.218668, Alt.=130.181763m. Speed=0.000000m/h.</desc>
<speed>0.000000</speed>
</trkpt>
<trkpt lat="55.736794" lon="26.218668">
<ele>130.181763</ele>
<time>2010-07-18T07:21:28Z</time>
<desc>lat.=55.736794, lon.=26.218668, Alt.=130.181763m. Speed=0.000000m/h.</desc>
<speed>0.000000</speed>
</trkpt>
<trkpt lat="55.736794" lon="26.218668">
<ele>130.177856</ele>
<time>2010-07-18T07:21:29Z</time>
<desc>lat.=55.736794, lon.=26.218668, Alt.=130.177856m. Speed=0.000000m/h.</desc>
<speed>0.000000</speed>
</trkpt>
<trkpt lat="55.736794" lon="26.218668">
<ele>130.173950</ele>
<time>2010-07-18T07:21:30Z</time>
<desc>lat.=55.736794, lon.=26.218668, Alt.=130.173950m. Speed=0.000000m/h.</desc>
<speed>0.000000</speed>
</trkpt>
<trkpt lat="55.736794" lon="26.218668">
<ele>130.173950</ele>
<time>2010-07-18T07:21:31Z</time>
<desc>lat.=55.736794, lon.=26.218668, Alt.=130.173950m. Speed=0.000000m/h.</desc>
<speed>0.000000</speed>
</trkpt>
<trkpt lat="55.736794" lon="26.218668">
<ele>130.170044</ele>
<time>2010-07-18T07:21:32Z</time>
<desc>lat.=55.736794, lon.=26.218668, Alt.=130.170044m. Speed=0.000000m/h.</desc>
<speed>0.000000</speed>
</trkpt>
<trkpt lat="55.736794" lon="26.218668">
<ele>130.162231</ele>
<time>2010-07-18T07:21:33Z</time>
<desc>lat.=55.736794, lon.=26.218668, Alt.=130.162231m. Speed=0.000000m/h.</desc>
<speed>0.000000</speed>
</trkpt>
<trkpt lat="55.736794" lon="26.218668">
<ele>130.162231</ele>
<time>2010-07-18T07:21:34Z</time>
<desc>lat.=55.736794, lon.=26.218668, Alt.=130.162231m. Speed=0.000000m/h.</desc>
<speed>0.000000</speed>
</trkpt>
<trkpt lat="55.736794" lon="26.218668">
<ele>130.162231</ele>
<time>2010-07-18T07:21:35Z</time>
<desc>lat.=55.736794, lon.=26.218668, Alt.=130.162231m. Speed=0.000000m/h.</desc>
<speed>0.000000</speed>
</trkpt>
<trkpt lat="55.736794" lon="26.218668">
<ele>130.158325</ele>
<time>2010-07-18T07:21:36Z</time>
<desc>lat.=55.736794, lon.=26.218668, Alt.=130.158325m. Speed=0.000000m/h.</desc>
<speed>0.000000</speed>
</trkpt>
<trkpt lat="55.736794" lon="26.218668">
<ele>130.154419</ele>
<time>2010-07-18T07:21:37Z</time>
<desc>lat.=55.736794, lon.=26.218668, Alt.=130.154419m. Speed=0.000000m/h.</desc>
<speed>0.000000</speed>
</trkpt>
<trkpt lat="55.736794" lon="26.218668">
<ele>130.150513</ele>
<time>2010-07-18T07:21:38Z</time>
<desc>lat.=55.736794, lon.=26.218668, Alt.=130.150513m. Speed=0.000000m/h.</desc>
<speed>0.000000</speed>
</trkpt>
<trkpt lat="55.736794" lon="26.218668">
<ele>130.154419</ele>
<time>2010-07-18T07:21:39Z</time>
<desc>lat.=55.736794, lon.=26.218668, Alt.=130.154419m. Speed=0.000000m/h.</desc>
<speed>0.000000</speed>
</trkpt>
<trkpt lat="55.736794" lon="26.218668">
<ele>130.150513</ele>
<time>2010-07-18T07:21:40Z</time>
<desc>lat.=55.736794, lon.=26.218668, Alt.=130.150513m. Speed=0.000000m/h.</desc>
<speed>0.000000</speed>
</trkpt>
<trkpt lat="55.736794" lon="26.218668">
<ele>130.146606</ele>
<time>2010-07-18T07:21:41Z</time>
<desc>lat.=55.736794, lon.=26.218668, Alt.=130.146606m. Speed=0.000000m/h.</desc>
<speed>0.000000</speed>
</trkpt>
<trkpt lat="55.736794" lon="26.218668">
<ele>130.146606</ele>
<time>2010-07-18T07:21:42Z</time>
<desc>lat.=55.736794, lon.=26.218668, Alt.=130.146606m. Speed=0.000000m/h.</desc>
<speed>0.000000</speed>
</trkpt>
<trkpt lat="55.736794" lon="26.218668">
<ele>130.142700</ele>
<time>2010-07-18T07:21:43Z</time>
<desc>lat.=55.736794, lon.=26.218668, Alt.=130.142700m. Speed=0.000000m/h.</desc>
<speed>0.000000</speed>
</trkpt>
<trkpt lat="55.736794" lon="26.218668">
<ele>130.138794</ele>
<time>2010-07-18T07:21:44Z</time>
<desc>lat.=55.736794, lon.=26.218668, Alt.=130.138794m. Speed=0.000000m/h.</desc>
<speed>0.000000</speed>
</trkpt>
<trkpt lat="55.736794" lon="26.218668">
<ele>130.134888</ele>
<time>2010-07-18T07:21:45Z</time>
<desc>lat.=55.736794, lon.=26.218668, Alt.=130.134888m. Speed=0.000000m/h.</desc>
<speed>0.000000</speed>
</trkpt>
<trkpt lat="55.736794" lon="26.218668">
<ele>130.134888</ele>
<time>2010-07-18T07:21:46Z</time>
<desc>lat.=55.736794, lon.=26.218668, Alt.=130.134888m. Speed=0.000000m/h.</desc>
<speed>0.000000</speed>
</trkpt>
<trkpt lat="55.736794" lon="26.218668">
<ele>130.134888</ele>
<time>2010-07-18T07:21:47Z</time>
<desc>lat.=55.736794, lon.=26.218668, Alt.=130.134888m. Speed=0.000000m/h.</desc>
<speed>0.000000</speed>
</trkpt>
<trkpt lat="55.736794" lon="26.218668">
<ele>130.130981</ele>
<time>2010-07-18T07:21:48Z</time>
<desc>lat.=55.736794, lon.=26.218668, Alt.=130.130981m. Speed=0.000000m/h.</desc>
<speed>0.000000</speed>
</trkpt>
<trkpt lat="55.736794" lon="26.218668">
<ele>130.130981</ele>
<time>2010-07-18T07:21:49Z</time>
<desc>lat.=55.736794, lon.=26.218668, Alt.=130.130981m. Speed=0.000000m/h.</desc>
<speed>0.000000</speed>
</trkpt>
<trkpt lat="55.736794" lon="26.218668">
<ele>130.127075</ele>
<time>2010-07-18T07:21:50Z</time>
<desc>lat.=55.736794, lon.=26.218668, Alt.=130.127075m. Speed=0.000000m/h.</desc>
<speed>0.000000</speed>
</trkpt>
<trkpt lat="55.736794" lon="26.218668">
<ele>130.127075</ele>
<time>2010-07-18T07:21:51Z</time>
<desc>lat.=55.736794, lon.=26.218668, Alt.=130.127075m. Speed=0.000000m/h.</desc>
<speed>0.000000</speed>
</trkpt>
<trkpt lat="55.736794" lon="26.218668">
<ele>130.127075</ele>
<time>2010-07-18T07:21:52Z</time>
<desc>lat.=55.736794, lon.=26.218668, Alt.=130.127075m. Speed=0.000000m/h.</desc>
<speed>0.000000</speed>
</trkpt>
<trkpt lat="55.736794" lon="26.218666">
<ele>130.123169</ele>
<time>2010-07-18T07:21:53Z</time>
<desc>lat.=55.736794, lon.=26.218666, Alt.=130.123169m. Speed=0.000000m/h.</desc>
<speed>0.000000</speed>
</trkpt>
<trkpt lat="55.736794" lon="26.218666">
<ele>130.119263</ele>
<time>2010-07-18T07:21:54Z</time>
<desc>lat.=55.736794, lon.=26.218666, Alt.=130.119263m. Speed=0.000000m/h.</desc>
<speed>0.000000</speed>
</trkpt>
<trkpt lat="55.736794" lon="26.218666">
<ele>130.123169</ele>
<time>2010-07-18T07:21:55Z</time>
<desc>lat.=55.736794, lon.=26.218666, Alt.=130.123169m. Speed=0.000000m/h.</desc>
<speed>0.000000</speed>
</trkpt>
<trkpt lat="55.736794" lon="26.218666">
<ele>130.123169</ele>
<time>2010-07-18T07:21:56Z</time>
<desc>lat.=55.736794, lon.=26.218666, Alt.=130.123169m. Speed=0.000000m/h.</desc>
<speed>0.000000</speed>
</trkpt>
<trkpt lat="55.736794" lon="26.218666">
<ele>130.119263</ele>
<time>2010-07-18T07:21:57Z</time>
<desc>lat.=55.736794, lon.=26.218666, Alt.=130.119263m. Speed=0.000000m/h.</desc>
<speed>0.000000</speed>
</trkpt>
<trkpt lat="55.736794" lon="26.218666">
<ele>130.119263</ele>
<time>2010-07-18T07:21:58Z</time>
<desc>lat.=55.736794, lon.=26.218666, Alt.=130.119263m. Speed=0.000000m/h.</desc>
<speed>0.000000</speed>
</trkpt>
<trkpt lat="55.736794" lon="26.218666">
<ele>130.123169</ele>
<time>2010-07-18T07:21:59Z</time>
<desc>lat.=55.736794, lon.=26.218666, Alt.=130.123169m. Speed=0.000000m/h.</desc>
<speed>0.000000</speed>
</trkpt>
<trkpt lat="55.736794" lon="26.218666">
<ele>130.123169</ele>
<time>2010-07-18T07:22:00Z</time>
<desc>lat.=55.736794, lon.=26.218666, Alt.=130.123169m. Speed=0.000000m/h.</desc>
<speed>0.000000</speed>
</trkpt>
<trkpt lat="55.736794" lon="26.218666">
<ele>130.119263</ele>
<time>2010-07-18T07:22:01Z</time>
<desc>lat.=55.736794, lon.=26.218666, Alt.=130.119263m. Speed=0.000000m/h.</desc>
<speed>0.000000</speed>
</trkpt>
<trkpt lat="55.736794" lon="26.218666">
<ele>130.115356</ele>
<time>2010-07-18T07:22:02Z</time>
<desc>lat.=55.736794, lon.=26.218666, Alt.=130.115356m. Speed=0.000000m/h.</desc>
<speed>0.000000</speed>
</trkpt>
<trkpt lat="55.736794" lon="26.218666">
<ele>130.115356</ele>
<time>2010-07-18T07:22:03Z</time>
<desc>lat.=55.736794, lon.=26.218666, Alt.=130.115356m. Speed=0.000000m/h.</desc>
<speed>0.000000</speed>
</trkpt>
<trkpt lat="55.736794" lon="26.218666">
<ele>130.115356</ele>
<time>2010-07-18T07:22:04Z</time>
<desc>lat.=55.736794, lon.=26.218666, Alt.=130.115356m. Speed=0.000000m/h.</desc>
<speed>0.000000</speed>
</trkpt>
<trkpt lat="55.736794" lon="26.218666">
<ele>130.115356</ele>
<time>2010-07-18T07:22:05Z</time>
<desc>lat.=55.736794, lon.=26.218666, Alt.=130.115356m. Speed=0.000000m/h.</desc>
<speed>0.000000</speed>
</trkpt>
<trkpt lat="55.736794" lon="26.218666">
<ele>130.115356</ele>
<time>2010-07-18T07:22:06Z</time>
<desc>lat.=55.736794, lon.=26.218666, Alt.=130.115356m. Speed=0.036000m/h.</desc>
<speed>0.010000</speed>
</trkpt>
<trkpt lat="55.736794" lon="26.218666">
<ele>130.115356</ele>
<time>2010-07-18T07:22:07Z</time>
<desc>lat.=55.736794, lon.=26.218666, Alt.=130.115356m. Speed=0.036000m/h.</desc>
<speed>0.010000</speed>
</trkpt>
<trkpt lat="55.736794" lon="26.218666">
<ele>130.115356</ele>
<time>2010-07-18T07:22:08Z</time>
<desc>lat.=55.736794, lon.=26.218666, Alt.=130.115356m. Speed=0.000000m/h.</desc>
<speed>0.000000</speed>
</trkpt>
<trkpt lat="55.736794" lon="26.218666">
<ele>130.115356</ele>
<time>2010-07-18T07:22:09Z</time>
<desc>lat.=55.736794, lon.=26.218666, Alt.=130.115356m. Speed=0.000000m/h.</desc>
<speed>0.000000</speed>
</trkpt>
<trkpt lat="55.736794" lon="26.218666">
<ele>130.115356</ele>
<time>2010-07-18T07:22:10Z</time>
<desc>lat.=55.736794, lon.=26.218666, Alt.=130.115356m. Speed=0.000000m/h.</desc>
<speed>0.000000</speed>
</trkpt>
<trkpt lat="55.736794" lon="26.218666">
<ele>130.111450</ele>
<time>2010-07-18T07:22:11Z</time>
<desc>lat.=55.736794, lon.=26.218666, Alt.=130.111450m. Speed=0.000000m/h.</desc>
<speed>0.000000</speed>
</trkpt>
<trkpt lat="55.736794" lon="26.218666">
<ele>130.111450</ele>
<time>2010-07-18T07:22:12Z</time>
<desc>lat.=55.736794, lon.=26.218666, Alt.=130.111450m. Speed=0.000000m/h.</desc>
<speed>0.000000</speed>
</trkpt>
<trkpt lat="55.736794" lon="26.218666">
<ele>130.115356</ele>
<time>2010-07-18T07:22:13Z</time>
<desc>lat.=55.736794, lon.=26.218666, Alt.=130.115356m. Speed=0.000000m/h.</desc>
<speed>0.000000</speed>
</trkpt>
<trkpt lat="55.736794" lon="26.218666">
<ele>130.115356</ele>
<time>2010-07-18T07:22:14Z</time>
<desc>lat.=55.736794, lon.=26.218666, Alt.=130.115356m. Speed=0.000000m/h.</desc>
<speed>0.000000</speed>
</trkpt>
<trkpt lat="55.736794" lon="26.218666">
<ele>130.115356</ele>
<time>2010-07-18T07:22:15Z</time>
<desc>lat.=55.736794, lon.=26.218666, Alt.=130.115356m. Speed=0.000000m/h.</desc>
<speed>0.000000</speed>
</trkpt>
<trkpt lat="55.736794" lon="26.218666">
<ele>130.115356</ele>
<time>2010-07-18T07:22:16Z</time>
<desc>lat.=55.736794, lon.=26.218666, Alt.=130.115356m. Speed=0.000000m/h.</desc>
<speed>0.000000</speed>
</trkpt>
<trkpt lat="55.736794" lon="26.218666">
<ele>130.115356</ele>
<time>2010-07-18T07:22:17Z</time>
<desc>lat.=55.736794, lon.=26.218666, Alt.=130.115356m. Speed=0.000000m/h.</desc>
<speed>0.000000</speed>
</trkpt>
<trkpt lat="55.736794" lon="26.218666">
<ele>130.115356</ele>
<time>2010-07-18T07:22:18Z</time>
<desc>lat.=55.736794, lon.=26.218666, Alt.=130.115356m. Speed=0.000000m/h.</desc>
<speed>0.000000</speed>
</trkpt>
<trkpt lat="55.736794" lon="26.218666">
<ele>130.115356</ele>
<time>2010-07-18T07:22:19Z</time>
<desc>lat.=55.736794, lon.=26.218666, Alt.=130.115356m. Speed=0.036000m/h.</desc>
<speed>0.010000</speed>
</trkpt>
<trkpt lat="55.736794" lon="26.218666">
<ele>130.115356</ele>
<time>2010-07-18T07:22:20Z</time>
<desc>lat.=55.736794, lon.=26.218666, Alt.=130.115356m. Speed=0.000000m/h.</desc>
<speed>0.000000</speed>
</trkpt>
<trkpt lat="55.736794" lon="26.218666">
<ele>130.115356</ele>
<time>2010-07-18T07:22:21Z</time>
<desc>lat.=55.736794, lon.=26.218666, Alt.=130.115356m. Speed=0.000000m/h.</desc>
<speed>0.000000</speed>
</trkpt>
<trkpt lat="55.736794" lon="26.218666">
<ele>130.119263</ele>
<time>2010-07-18T07:22:22Z</time>
<desc>lat.=55.736794, lon.=26.218666, Alt.=130.119263m. Speed=0.000000m/h.</desc>
<speed>0.000000</speed>
</trkpt>
<trkpt lat="55.736794" lon="26.218666">
<ele>130.119263</ele>
<time>2010-07-18T07:22:23Z</time>
<desc>lat.=55.736794, lon.=26.218666, Alt.=130.119263m. Speed=0.000000m/h.</desc>
<speed>0.000000</speed>
</trkpt>
<trkpt lat="55.736794" lon="26.218666">
<ele>130.119263</ele>
<time>2010-07-18T07:22:24Z</time>
<desc>lat.=55.736794, lon.=26.218666, Alt.=130.119263m. Speed=0.000000m/h.</desc>
<speed>0.000000</speed>
</trkpt>
<trkpt lat="55.736794" lon="26.218666">
<ele>130.119263</ele>
<time>2010-07-18T07:22:25Z</time>
<desc>lat.=55.736794, lon.=26.218666, Alt.=130.119263m. Speed=0.000000m/h.</desc>
<speed>0.000000</speed>
</trkpt>
<trkpt lat="55.736794" lon="26.218666">
<ele>130.119263</ele>
<time>2010-07-18T07:22:26Z</time>
<desc>lat.=55.736794, lon.=26.218666, Alt.=130.119263m. Speed=0.036000m/h.</desc>
<speed>0.010000</speed>
</trkpt>
<trkpt lat="55.736794" lon="26.218666">
<ele>130.119263</ele>
<time>2010-07-18T07:22:27Z</time>
<desc>lat.=55.736794, lon.=26.218666, Alt.=130.119263m. Speed=0.000000m/h.</desc>
<speed>0.000000</speed>
</trkpt>
<trkpt lat="55.736794" lon="26.218666">
<ele>130.119263</ele>
<time>2010-07-18T07:22:28Z</time>
<desc>lat.=55.736794, lon.=26.218666, Alt.=130.119263m. Speed=0.000000m/h.</desc>
<speed>0.000000</speed>
</trkpt>
<trkpt lat="55.736794" lon="26.218666">
<ele>130.119263</ele>
<time>2010-07-18T07:22:29Z</time>
<desc>lat.=55.736794, lon.=26.218666, Alt.=130.119263m. Speed=0.000000m/h.</desc>
<speed>0.000000</speed>
</trkpt>
<trkpt lat="55.736794" lon="26.218666">
<ele>130.115356</ele>
<time>2010-07-18T07:22:30Z</time>
<desc>lat.=55.736794, lon.=26.218666, Alt.=130.115356m. Speed=0.000000m/h.</desc>
<speed>0.000000</speed>
</trkpt>
<trkpt lat="55.736794" lon="26.218666">
<ele>130.115356</ele>
<time>2010-07-18T07:22:31Z</time>
<desc>lat.=55.736794, lon.=26.218666, Alt.=130.115356m. Speed=0.000000m/h.</desc>
<speed>0.000000</speed>
</trkpt>
<trkpt lat="55.736794" lon="26.218666">
<ele>130.115356</ele>
<time>2010-07-18T07:22:32Z</time>
<desc>lat.=55.736794, lon.=26.218666, Alt.=130.115356m. Speed=0.000000m/h.</desc>
<speed>0.000000</speed>
</trkpt>
<trkpt lat="55.736794" lon="26.218666">
<ele>130.115356</ele>
<time>2010-07-18T07:22:33Z</time>
<desc>lat.=55.736794, lon.=26.218666, Alt.=130.115356m. Speed=0.000000m/h.</desc>
<speed>0.000000</speed>
</trkpt>
<trkpt lat="55.736794" lon="26.218666">
<ele>130.115356</ele>
<time>2010-07-18T07:22:34Z</time>
<desc>lat.=55.736794, lon.=26.218666, Alt.=130.115356m. Speed=0.000000m/h.</desc>
<speed>0.000000</speed>
</trkpt>
<trkpt lat="55.736794" lon="26.218666">
<ele>130.111450</ele>
<time>2010-07-18T07:22:35Z</time>
<desc>lat.=55.736794, lon.=26.218666, Alt.=130.111450m. Speed=0.000000m/h.</desc>
<speed>0.000000</speed>
</trkpt>
<trkpt lat="55.736794" lon="26.218666">
<ele>130.111450</ele>
<time>2010-07-18T07:22:36Z</time>
<desc>lat.=55.736794, lon.=26.218666, Alt.=130.111450m. Speed=0.000000m/h.</desc>
<speed>0.000000</speed>
</trkpt>
<trkpt lat="55.736794" lon="26.218666">
<ele>130.111450</ele>
<time>2010-07-18T07:22:37Z</time>
<desc>lat.=55.736794, lon.=26.218666, Alt.=130.111450m. Speed=0.036000m/h.</desc>
<speed>0.010000</speed>
</trkpt>
<trkpt lat="55.736794" lon="26.218666">
<ele>130.115356</ele>
<time>2010-07-18T07:22:38Z</time>
<desc>lat.=55.736794, lon.=26.218666, Alt.=130.115356m. Speed=0.000000m/h.</desc>
<speed>0.000000</speed>
</trkpt>
<trkpt lat="55.736794" lon="26.218666">
<ele>130.115356</ele>
<time>2010-07-18T07:22:39Z</time>
<desc>lat.=55.736794, lon.=26.218666, Alt.=130.115356m. Speed=0.000000m/h.</desc>
<speed>0.000000</speed>
</trkpt>
<trkpt lat="55.736794" lon="26.218666">
<ele>130.115356</ele>
<time>2010-07-18T07:22:40Z</time>
<desc>lat.=55.736794, lon.=26.218666, Alt.=130.115356m. Speed=0.000000m/h.</desc>
<speed>0.000000</speed>
</trkpt>
<trkpt lat="55.736794" lon="26.218666">
<ele>130.115356</ele>
<time>2010-07-18T07:22:41Z</time>
<desc>lat.=55.736794, lon.=26.218666, Alt.=130.115356m. Speed=0.000000m/h.</desc>
<speed>0.000000</speed>
</trkpt>
<trkpt lat="55.736794" lon="26.218666">
<ele>130.111450</ele>
<time>2010-07-18T07:22:42Z</time>
<desc>lat.=55.736794, lon.=26.218666, Alt.=130.111450m. Speed=0.000000m/h.</desc>
<speed>0.000000</speed>
</trkpt>
<trkpt lat="55.736794" lon="26.218666">
<ele>130.111450</ele>
<time>2010-07-18T07:22:43Z</time>
<desc>lat.=55.736794, lon.=26.218666, Alt.=130.111450m. Speed=0.000000m/h.</desc>
<speed>0.000000</speed>
</trkpt>
<trkpt lat="55.736794" lon="26.218666">
<ele>130.111450</ele>
<time>2010-07-18T07:22:44Z</time>
<desc>lat.=55.736794, lon.=26.218666, Alt.=130.111450m. Speed=0.000000m/h.</desc>
<speed>0.000000</speed>
</trkpt>
<trkpt lat="55.736794" lon="26.218666">
<ele>130.115356</ele>
<time>2010-07-18T07:22:45Z</time>
<desc>lat.=55.736794, lon.=26.218666, Alt.=130.115356m. Speed=0.000000m/h.</desc>
<speed>0.000000</speed>
</trkpt>
<trkpt lat="55.736794" lon="26.218666">
<ele>130.115356</ele>
<time>2010-07-18T07:22:46Z</time>
<desc>lat.=55.736794, lon.=26.218666, Alt.=130.115356m. Speed=0.036000m/h.</desc>
<speed>0.010000</speed>
</trkpt>
<trkpt lat="55.736794" lon="26.218666">
<ele>130.111450</ele>
<time>2010-07-18T07:22:47Z</time>
<desc>lat.=55.736794, lon.=26.218666, Alt.=130.111450m. Speed=0.000000m/h.</desc>
<speed>0.000000</speed>
</trkpt>
<trkpt lat="55.736794" lon="26.218666">
<ele>130.107544</ele>
<time>2010-07-18T07:22:48Z</time>
<desc>lat.=55.736794, lon.=26.218666, Alt.=130.107544m. Speed=0.000000m/h.</desc>
<speed>0.000000</speed>
</trkpt>
<trkpt lat="55.736794" lon="26.218666">
<ele>130.107544</ele>
<time>2010-07-18T07:22:49Z</time>
<desc>lat.=55.736794, lon.=26.218666, Alt.=130.107544m. Speed=0.000000m/h.</desc>
<speed>0.000000</speed>
</trkpt>
<trkpt lat="55.736794" lon="26.218666">
<ele>130.107544</ele>
<time>2010-07-18T07:22:50Z</time>
<desc>lat.=55.736794, lon.=26.218666, Alt.=130.107544m. Speed=0.000000m/h.</desc>
<speed>0.000000</speed>
</trkpt>
<trkpt lat="55.736790" lon="26.218666">
<ele>130.107544</ele>
<time>2010-07-18T07:22:51Z</time>
<desc>lat.=55.736790, lon.=26.218666, Alt.=130.107544m. Speed=0.000000m/h.</desc>
<speed>0.000000</speed>
</trkpt>
<trkpt lat="55.736790" lon="26.218666">
<ele>130.111450</ele>
<time>2010-07-18T07:22:52Z</time>
<desc>lat.=55.736790, lon.=26.218666, Alt.=130.111450m. Speed=0.000000m/h.</desc>
<speed>0.000000</speed>
</trkpt>
<trkpt lat="55.736790" lon="26.218666">
<ele>130.111450</ele>
<time>2010-07-18T07:22:53Z</time>
<desc>lat.=55.736790, lon.=26.218666, Alt.=130.111450m. Speed=0.000000m/h.</desc>
<speed>0.000000</speed>
</trkpt>
<trkpt lat="55.736790" lon="26.218666">
<ele>130.107544</ele>
<time>2010-07-18T07:22:54Z</time>
<desc>lat.=55.736790, lon.=26.218666, Alt.=130.107544m. Speed=0.000000m/h.</desc>
<speed>0.000000</speed>
</trkpt>
<trkpt lat="55.736790" lon="26.218666">
<ele>130.107544</ele>
<time>2010-07-18T07:22:55Z</time>
<desc>lat.=55.736790, lon.=26.218666, Alt.=130.107544m. Speed=0.000000m/h.</desc>
<speed>0.000000</speed>
</trkpt>
<trkpt lat="55.736790" lon="26.218666">
<ele>130.107544</ele>
<time>2010-07-18T07:22:56Z</time>
<desc>lat.=55.736790, lon.=26.218666, Alt.=130.107544m. Speed=0.000000m/h.</desc>
<speed>0.000000</speed>
</trkpt>
<trkpt lat="55.736790" lon="26.218666">
<ele>130.107544</ele>
<time>2010-07-18T07:22:57Z</time>
<desc>lat.=55.736790, lon.=26.218666, Alt.=130.107544m. Speed=0.000000m/h.</desc>
<speed>0.000000</speed>
</trkpt>
<trkpt lat="55.736790" lon="26.218666">
<ele>130.107544</ele>
<time>2010-07-18T07:22:58Z</time>
<desc>lat.=55.736790, lon.=26.218666, Alt.=130.107544m. Speed=0.000000m/h.</desc>
<speed>0.000000</speed>
</trkpt>
<trkpt lat="55.736790" lon="26.218666">
<ele>130.107544</ele>
<time>2010-07-18T07:22:59Z</time>
<desc>lat.=55.736790, lon.=26.218666, Alt.=130.107544m. Speed=0.000000m/h.</desc>
<speed>0.000000</speed>
</trkpt>
<trkpt lat="55.736790" lon="26.218666">
<ele>130.107544</ele>
<time>2010-07-18T07:23:00Z</time>
<desc>lat.=55.736790, lon.=26.218666, Alt.=130.107544m. Speed=0.000000m/h.</desc>
<speed>0.000000</speed>
</trkpt>
<trkpt lat="55.736790" lon="26.218666">
<ele>130.107544</ele>
<time>2010-07-18T07:23:01Z</time>
<desc>lat.=55.736790, lon.=26.218666, Alt.=130.107544m. Speed=0.000000m/h.</desc>
<speed>0.000000</speed>
</trkpt>
<trkpt lat="55.736790" lon="26.218666">
<ele>130.107544</ele>
<time>2010-07-18T07:23:02Z</time>
<desc>lat.=55.736790, lon.=26.218666, Alt.=130.107544m. Speed=0.000000m/h.</desc>
<speed>0.000000</speed>
</trkpt>
<trkpt lat="55.736790" lon="26.218666">
<ele>130.107544</ele>
<time>2010-07-18T07:23:03Z</time>
<desc>lat.=55.736790, lon.=26.218666, Alt.=130.107544m. Speed=0.000000m/h.</desc>
<speed>0.000000</speed>
</trkpt>
<trkpt lat="55.736790" lon="26.218666">
<ele>130.103638</ele>
<time>2010-07-18T07:23:04Z</time>
<desc>lat.=55.736790, lon.=26.218666, Alt.=130.103638m. Speed=0.000000m/h.</desc>
<speed>0.000000</speed>
</trkpt>
<trkpt lat="55.736790" lon="26.218666">
<ele>130.103638</ele>
<time>2010-07-18T07:23:05Z</time>
<desc>lat.=55.736790, lon.=26.218666, Alt.=130.103638m. Speed=0.036000m/h.</desc>
<speed>0.010000</speed>
</trkpt>
<trkpt lat="55.736790" lon="26.218666">
<ele>130.103638</ele>
<time>2010-07-18T07:23:06Z</time>
<desc>lat.=55.736790, lon.=26.218666, Alt.=130.103638m. Speed=0.000000m/h.</desc>
<speed>0.000000</speed>
</trkpt>
<trkpt lat="55.736790" lon="26.218666">
<ele>130.103638</ele>
<time>2010-07-18T07:23:07Z</time>
<desc>lat.=55.736790, lon.=26.218666, Alt.=130.103638m. Speed=0.000000m/h.</desc>
<speed>0.000000</speed>
</trkpt>
<trkpt lat="55.736790" lon="26.218666">
<ele>130.103638</ele>
<time>2010-07-18T07:23:08Z</time>
<desc>lat.=55.736790, lon.=26.218666, Alt.=130.103638m. Speed=0.000000m/h.</desc>
<speed>0.000000</speed>
</trkpt>
<trkpt lat="55.736790" lon="26.218666">
<ele>130.103638</ele>
<time>2010-07-18T07:23:09Z</time>
<desc>lat.=55.736790, lon.=26.218666, Alt.=130.103638m. Speed=0.000000m/h.</desc>
<speed>0.000000</speed>
</trkpt>
<trkpt lat="55.736790" lon="26.218666">
<ele>130.107544</ele>
<time>2010-07-18T07:23:10Z</time>
<desc>lat.=55.736790, lon.=26.218666, Alt.=130.107544m. Speed=0.036000m/h.</desc>
<speed>0.010000</speed>
</trkpt>
<trkpt lat="55.736790" lon="26.218666">
<ele>130.107544</ele>
<time>2010-07-18T07:23:11Z</time>
<desc>lat.=55.736790, lon.=26.218666, Alt.=130.107544m. Speed=0.000000m/h.</desc>
<speed>0.000000</speed>
</trkpt>
<trkpt lat="55.736790" lon="26.218666">
<ele>130.107544</ele>
<time>2010-07-18T07:23:12Z</time>
<desc>lat.=55.736790, lon.=26.218666, Alt.=130.107544m. Speed=0.000000m/h.</desc>
<speed>0.000000</speed>
</trkpt>
<trkpt lat="55.736790" lon="26.218666">
<ele>130.111450</ele>
<time>2010-07-18T07:23:13Z</time>
<desc>lat.=55.736790, lon.=26.218666, Alt.=130.111450m. Speed=0.036000m/h.</desc>
<speed>0.010000</speed>
</trkpt>
<trkpt lat="55.736790" lon="26.218666">
<ele>130.111450</ele>
<time>2010-07-18T07:23:14Z</time>
<desc>lat.=55.736790, lon.=26.218666, Alt.=130.111450m. Speed=0.036000m/h.</desc>
<speed>0.010000</speed>
</trkpt>
<trkpt lat="55.736790" lon="26.218666">
<ele>130.111450</ele>
<time>2010-07-18T07:23:15Z</time>
<desc>lat.=55.736790, lon.=26.218666, Alt.=130.111450m. Speed=0.000000m/h.</desc>
<speed>0.000000</speed>
</trkpt>
<trkpt lat="55.736790" lon="26.218666">
<ele>130.111450</ele>
<time>2010-07-18T07:23:16Z</time>
<desc>lat.=55.736790, lon.=26.218666, Alt.=130.111450m. Speed=0.000000m/h.</desc>
<speed>0.000000</speed>
</trkpt>
<trkpt lat="55.736790" lon="26.218666">
<ele>130.111450</ele>
<time>2010-07-18T07:23:17Z</time>
<desc>lat.=55.736790, lon.=26.218666, Alt.=130.111450m. Speed=0.000000m/h.</desc>
<speed>0.000000</speed>
</trkpt>
<trkpt lat="55.736790" lon="26.218666">
<ele>130.115356</ele>
<time>2010-07-18T07:23:18Z</time>
<desc>lat.=55.736790, lon.=26.218666, Alt.=130.115356m. Speed=0.000000m/h.</desc>
<speed>0.000000</speed>
</trkpt>
<trkpt lat="55.736790" lon="26.218666">
<ele>130.119263</ele>
<time>2010-07-18T07:23:19Z</time>
<desc>lat.=55.736790, lon.=26.218666, Alt.=130.119263m. Speed=0.000000m/h.</desc>
<speed>0.000000</speed>
</trkpt>
<trkpt lat="55.736790" lon="26.218666">
<ele>130.119263</ele>
<time>2010-07-18T07:23:20Z</time>
<desc>lat.=55.736790, lon.=26.218666, Alt.=130.119263m. Speed=0.000000m/h.</desc>
<speed>0.000000</speed>
</trkpt>
<trkpt lat="55.736790" lon="26.218666">
<ele>130.123169</ele>
<time>2010-07-18T07:23:21Z</time>
<desc>lat.=55.736790, lon.=26.218666, Alt.=130.123169m. Speed=0.000000m/h.</desc>
<speed>0.000000</speed>
</trkpt>
<trkpt lat="55.736790" lon="26.218666">
<ele>130.123169</ele>
<time>2010-07-18T07:23:22Z</time>
<desc>lat.=55.736790, lon.=26.218666, Alt.=130.123169m. Speed=0.000000m/h.</desc>
<speed>0.000000</speed>
</trkpt>
<trkpt lat="55.736790" lon="26.218666">
<ele>130.123169</ele>
<time>2010-07-18T07:23:23Z</time>
<desc>lat.=55.736790, lon.=26.218666, Alt.=130.123169m. Speed=0.000000m/h.</desc>
<speed>0.000000</speed>
</trkpt>
<trkpt lat="55.736790" lon="26.218666">
<ele>130.127075</ele>
<time>2010-07-18T07:23:24Z</time>
<desc>lat.=55.736790, lon.=26.218666, Alt.=130.127075m. Speed=0.000000m/h.</desc>
<speed>0.000000</speed>
</trkpt>
<trkpt lat="55.736790" lon="26.218664">
<ele>130.127075</ele>
<time>2010-07-18T07:23:25Z</time>
<desc>lat.=55.736790, lon.=26.218664, Alt.=130.127075m. Speed=0.000000m/h.</desc>
<speed>0.000000</speed>
</trkpt>
<trkpt lat="55.736790" lon="26.218664">
<ele>130.127075</ele>
<time>2010-07-18T07:23:26Z</time>
<desc>lat.=55.736790, lon.=26.218664, Alt.=130.127075m. Speed=0.000000m/h.</desc>
<speed>0.000000</speed>
</trkpt>
<trkpt lat="55.736790" lon="26.218664">
<ele>130.130981</ele>
<time>2010-07-18T07:23:27Z</time>
<desc>lat.=55.736790, lon.=26.218664, Alt.=130.130981m. Speed=0.000000m/h.</desc>
<speed>0.000000</speed>
</trkpt>
<trkpt lat="55.736790" lon="26.218664">
<ele>130.130981</ele>
<time>2010-07-18T07:23:28Z</time>
<desc>lat.=55.736790, lon.=26.218664, Alt.=130.130981m. Speed=0.000000m/h.</desc>
<speed>0.000000</speed>
</trkpt>
<trkpt lat="55.736790" lon="26.218664">
<ele>130.134888</ele>
<time>2010-07-18T07:23:29Z</time>
<desc>lat.=55.736790, lon.=26.218664, Alt.=130.134888m. Speed=0.000000m/h.</desc>
<speed>0.000000</speed>
</trkpt>
<trkpt lat="55.736790" lon="26.218664">
<ele>130.134888</ele>
<time>2010-07-18T07:23:30Z</time>
<desc>lat.=55.736790, lon.=26.218664, Alt.=130.134888m. Speed=0.000000m/h.</desc>
<speed>0.000000</speed>
</trkpt>
<trkpt lat="55.736790" lon="26.218664">
<ele>130.134888</ele>
<time>2010-07-18T07:23:31Z</time>
<desc>lat.=55.736790, lon.=26.218664, Alt.=130.134888m. Speed=0.000000m/h.</desc>
<speed>0.000000</speed>
</trkpt>
<trkpt lat="55.736790" lon="26.218664">
<ele>130.134888</ele>
<time>2010-07-18T07:23:32Z</time>
<desc>lat.=55.736790, lon.=26.218664, Alt.=130.134888m. Speed=0.000000m/h.</desc>
<speed>0.000000</speed>
</trkpt>
<trkpt lat="55.736790" lon="26.218664">
<ele>130.138794</ele>
<time>2010-07-18T07:23:33Z</time>
<desc>lat.=55.736790, lon.=26.218664, Alt.=130.138794m. Speed=0.000000m/h.</desc>
<speed>0.000000</speed>
</trkpt>
<trkpt lat="55.736790" lon="26.218664">
<ele>130.138794</ele>
<time>2010-07-18T07:23:34Z</time>
<desc>lat.=55.736790, lon.=26.218664, Alt.=130.138794m. Speed=0.000000m/h.</desc>
<speed>0.000000</speed>
</trkpt>
<trkpt lat="55.736790" lon="26.218664">
<ele>130.138794</ele>
<time>2010-07-18T07:23:35Z</time>
<desc>lat.=55.736790, lon.=26.218664, Alt.=130.138794m. Speed=0.000000m/h.</desc>
<speed>0.000000</speed>
</trkpt>
<trkpt lat="55.736790" lon="26.218664">
<ele>130.138794</ele>
<time>2010-07-18T07:23:36Z</time>
<desc>lat.=55.736790, lon.=26.218664, Alt.=130.138794m. Speed=0.000000m/h.</desc>
<speed>0.000000</speed>
</trkpt>
<trkpt lat="55.736790" lon="26.218664">
<ele>130.138794</ele>
<time>2010-07-18T07:23:37Z</time>
<desc>lat.=55.736790, lon.=26.218664, Alt.=130.138794m. Speed=0.000000m/h.</desc>
<speed>0.000000</speed>
</trkpt>
<trkpt lat="55.736790" lon="26.218664">
<ele>130.138794</ele>
<time>2010-07-18T07:23:38Z</time>
<desc>lat.=55.736790, lon.=26.218664, Alt.=130.138794m. Speed=0.000000m/h.</desc>
<speed>0.000000</speed>
</trkpt>
<trkpt lat="55.736790" lon="26.218664">
<ele>130.138794</ele>
<time>2010-07-18T07:23:39Z</time>
<desc>lat.=55.736790, lon.=26.218664, Alt.=130.138794m. Speed=0.000000m/h.</desc>
<speed>0.000000</speed>
</trkpt>
<trkpt lat="55.736790" lon="26.218664">
<ele>130.134888</ele>
<time>2010-07-18T07:23:40Z</time>
<desc>lat.=55.736790, lon.=26.218664, Alt.=130.134888m. Speed=0.000000m/h.</desc>
<speed>0.000000</speed>
</trkpt>
<trkpt lat="55.736790" lon="26.218664">
<ele>130.134888</ele>
<time>2010-07-18T07:23:41Z</time>
<desc>lat.=55.736790, lon.=26.218664, Alt.=130.134888m. Speed=0.000000m/h.</desc>
<speed>0.000000</speed>
</trkpt>
<trkpt lat="55.736790" lon="26.218664">
<ele>130.134888</ele>
<time>2010-07-18T07:23:42Z</time>
<desc>lat.=55.736790, lon.=26.218664, Alt.=130.134888m. Speed=0.036000m/h.</desc>
<speed>0.010000</speed>
</trkpt>
<trkpt lat="55.736790" lon="26.218664">
<ele>130.130981</ele>
<time>2010-07-18T07:23:43Z</time>
<desc>lat.=55.736790, lon.=26.218664, Alt.=130.130981m. Speed=0.000000m/h.</desc>
<speed>0.000000</speed>
</trkpt>
<trkpt lat="55.736790" lon="26.218664">
<ele>130.130981</ele>
<time>2010-07-18T07:23:44Z</time>
<desc>lat.=55.736790, lon.=26.218664, Alt.=130.130981m. Speed=0.000000m/h.</desc>
<speed>0.000000</speed>
</trkpt>
<trkpt lat="55.736790" lon="26.218664">
<ele>130.130981</ele>
<time>2010-07-18T07:23:45Z</time>
<desc>lat.=55.736790, lon.=26.218664, Alt.=130.130981m. Speed=0.000000m/h.</desc>
<speed>0.000000</speed>
</trkpt>
<trkpt lat="55.736790" lon="26.218664">
<ele>130.130981</ele>
<time>2010-07-18T07:23:46Z</time>
<desc>lat.=55.736790, lon.=26.218664, Alt.=130.130981m. Speed=0.000000m/h.</desc>
<speed>0.000000</speed>
</trkpt>
<trkpt lat="55.736790" lon="26.218664">
<ele>130.127075</ele>
<time>2010-07-18T07:23:47Z</time>
<desc>lat.=55.736790, lon.=26.218664, Alt.=130.127075m. Speed=0.036000m/h.</desc>
<speed>0.010000</speed>
</trkpt>
<trkpt lat="55.736790" lon="26.218664">
<ele>130.127075</ele>
<time>2010-07-18T07:23:48Z</time>
<desc>lat.=55.736790, lon.=26.218664, Alt.=130.127075m. Speed=0.000000m/h.</desc>
<speed>0.000000</speed>
</trkpt>
<trkpt lat="55.736790" lon="26.218664">
<ele>130.127075</ele>
<time>2010-07-18T07:23:49Z</time>
<desc>lat.=55.736790, lon.=26.218664, Alt.=130.127075m. Speed=0.000000m/h.</desc>
<speed>0.000000</speed>
</trkpt>
<trkpt lat="55.736790" lon="26.218664">
<ele>130.127075</ele>
<time>2010-07-18T07:23:50Z</time>
<desc>lat.=55.736790, lon.=26.218664, Alt.=130.127075m. Speed=0.000000m/h.</desc>
<speed>0.000000</speed>
</trkpt>
<trkpt lat="55.736790" lon="26.218664">
<ele>130.123169</ele>
<time>2010-07-18T07:23:51Z</time>
<desc>lat.=55.736790, lon.=26.218664, Alt.=130.123169m. Speed=0.000000m/h.</desc>
<speed>0.000000</speed>
</trkpt>
<trkpt lat="55.736790" lon="26.218664">
<ele>130.123169</ele>
<time>2010-07-18T07:23:52Z</time>
<desc>lat.=55.736790, lon.=26.218664, Alt.=130.123169m. Speed=0.000000m/h.</desc>
<speed>0.000000</speed>
</trkpt>
<trkpt lat="55.736790" lon="26.218664">
<ele>130.123169</ele>
<time>2010-07-18T07:23:53Z</time>
<desc>lat.=55.736790, lon.=26.218664, Alt.=130.123169m. Speed=0.000000m/h.</desc>
<speed>0.000000</speed>
</trkpt>
<trkpt lat="55.736790" lon="26.218664">
<ele>130.123169</ele>
<time>2010-07-18T07:23:54Z</time>
<desc>lat.=55.736790, lon.=26.218664, Alt.=130.123169m. Speed=0.000000m/h.</desc>
<speed>0.000000</speed>
</trkpt>
<trkpt lat="55.736790" lon="26.218664">
<ele>130.123169</ele>
<time>2010-07-18T07:23:55Z</time>
<desc>lat.=55.736790, lon.=26.218664, Alt.=130.123169m. Speed=0.000000m/h.</desc>
<speed>0.000000</speed>
</trkpt>
<trkpt lat="55.736790" lon="26.218664">
<ele>130.123169</ele>
<time>2010-07-18T07:23:56Z</time>
<desc>lat.=55.736790, lon.=26.218664, Alt.=130.123169m. Speed=0.000000m/h.</desc>
<speed>0.000000</speed>
</trkpt>
<trkpt lat="55.736790" lon="26.218664">
<ele>130.123169</ele>
<time>2010-07-18T07:23:57Z</time>
<desc>lat.=55.736790, lon.=26.218664, Alt.=130.123169m. Speed=0.000000m/h.</desc>
<speed>0.000000</speed>
</trkpt>
<trkpt lat="55.736790" lon="26.218664">
<ele>130.123169</ele>
<time>2010-07-18T07:23:58Z</time>
<desc>lat.=55.736790, lon.=26.218664, Alt.=130.123169m. Speed=0.000000m/h.</desc>
<speed>0.000000</speed>
</trkpt>
<trkpt lat="55.736790" lon="26.218664">
<ele>130.123169</ele>
<time>2010-07-18T07:23:59Z</time>
<desc>lat.=55.736790, lon.=26.218664, Alt.=130.123169m. Speed=0.000000m/h.</desc>
<speed>0.000000</speed>
</trkpt>
<trkpt lat="55.736790" lon="26.218664">
<ele>130.123169</ele>
<time>2010-07-18T07:24:00Z</time>
<desc>lat.=55.736790, lon.=26.218664, Alt.=130.123169m. Speed=0.000000m/h.</desc>
<speed>0.000000</speed>
</trkpt>
<trkpt lat="55.736790" lon="26.218664">
<ele>130.123169</ele>
<time>2010-07-18T07:24:01Z</time>
<desc>lat.=55.736790, lon.=26.218664, Alt.=130.123169m. Speed=0.000000m/h.</desc>
<speed>0.000000</speed>
</trkpt>
<trkpt lat="55.736790" lon="26.218664">
<ele>130.123169</ele>
<time>2010-07-18T07:24:02Z</time>
<desc>lat.=55.736790, lon.=26.218664, Alt.=130.123169m. Speed=0.000000m/h.</desc>
<speed>0.000000</speed>
</trkpt>
<trkpt lat="55.736790" lon="26.218664">
<ele>130.123169</ele>
<time>2010-07-18T07:24:03Z</time>
<desc>lat.=55.736790, lon.=26.218664, Alt.=130.123169m. Speed=0.000000m/h.</desc>
<speed>0.000000</speed>
</trkpt>
<trkpt lat="55.736790" lon="26.218664">
<ele>130.123169</ele>
<time>2010-07-18T07:24:04Z</time>
<desc>lat.=55.736790, lon.=26.218664, Alt.=130.123169m. Speed=0.000000m/h.</desc>
<speed>0.000000</speed>
</trkpt>
<trkpt lat="55.736790" lon="26.218664">
<ele>130.119263</ele>
<time>2010-07-18T07:24:05Z</time>
<desc>lat.=55.736790, lon.=26.218664, Alt.=130.119263m. Speed=0.000000m/h.</desc>
<speed>0.000000</speed>
</trkpt>
<trkpt lat="55.736790" lon="26.218664">
<ele>130.119263</ele>
<time>2010-07-18T07:24:06Z</time>
<desc>lat.=55.736790, lon.=26.218664, Alt.=130.119263m. Speed=0.000000m/h.</desc>
<speed>0.000000</speed>
</trkpt>
<trkpt lat="55.736790" lon="26.218664">
<ele>130.119263</ele>
<time>2010-07-18T07:24:07Z</time>
<desc>lat.=55.736790, lon.=26.218664, Alt.=130.119263m. Speed=0.000000m/h.</desc>
<speed>0.000000</speed>
</trkpt>
<trkpt lat="55.736790" lon="26.218664">
<ele>130.119263</ele>
<time>2010-07-18T07:24:08Z</time>
<desc>lat.=55.736790, lon.=26.218664, Alt.=130.119263m. Speed=0.000000m/h.</desc>
<speed>0.000000</speed>
</trkpt>
<trkpt lat="55.736790" lon="26.218664">
<ele>130.119263</ele>
<time>2010-07-18T07:24:09Z</time>
<desc>lat.=55.736790, lon.=26.218664, Alt.=130.119263m. Speed=0.000000m/h.</desc>
<speed>0.000000</speed>
</trkpt>
<trkpt lat="55.736790" lon="26.218664">
<ele>130.119263</ele>
<time>2010-07-18T07:24:10Z</time>
<desc>lat.=55.736790, lon.=26.218664, Alt.=130.119263m. Speed=0.000000m/h.</desc>
<speed>0.000000</speed>
</trkpt>
<trkpt lat="55.736790" lon="26.218664">
<ele>130.119263</ele>
<time>2010-07-18T07:24:11Z</time>
<desc>lat.=55.736790, lon.=26.218664, Alt.=130.119263m. Speed=0.000000m/h.</desc>
<speed>0.000000</speed>
</trkpt>
<trkpt lat="55.736790" lon="26.218664">
<ele>130.119263</ele>
<time>2010-07-18T07:24:12Z</time>
<desc>lat.=55.736790, lon.=26.218664, Alt.=130.119263m. Speed=0.000000m/h.</desc>
<speed>0.000000</speed>
</trkpt>
<trkpt lat="55.736790" lon="26.218664">
<ele>130.119263</ele>
<time>2010-07-18T07:24:13Z</time>
<desc>lat.=55.736790, lon.=26.218664, Alt.=130.119263m. Speed=0.000000m/h.</desc>
<speed>0.000000</speed>
</trkpt>
<trkpt lat="55.736790" lon="26.218664">
<ele>130.119263</ele>
<time>2010-07-18T07:24:14Z</time>
<desc>lat.=55.736790, lon.=26.218664, Alt.=130.119263m. Speed=0.000000m/h.</desc>
<speed>0.000000</speed>
</trkpt>
<trkpt lat="55.736790" lon="26.218664">
<ele>130.119263</ele>
<time>2010-07-18T07:24:15Z</time>
<desc>lat.=55.736790, lon.=26.218664, Alt.=130.119263m. Speed=0.000000m/h.</desc>
<speed>0.000000</speed>
</trkpt>
<trkpt lat="55.736790" lon="26.218664">
<ele>130.123169</ele>
<time>2010-07-18T07:24:16Z</time>
<desc>lat.=55.736790, lon.=26.218664, Alt.=130.123169m. Speed=0.000000m/h.</desc>
<speed>0.000000</speed>
</trkpt>
<trkpt lat="55.736790" lon="26.218664">
<ele>130.123169</ele>
<time>2010-07-18T07:24:17Z</time>
<desc>lat.=55.736790, lon.=26.218664, Alt.=130.123169m. Speed=0.036000m/h.</desc>
<speed>0.010000</speed>
</trkpt>
<trkpt lat="55.736790" lon="26.218664">
<ele>130.123169</ele>
<time>2010-07-18T07:24:18Z</time>
<desc>lat.=55.736790, lon.=26.218664, Alt.=130.123169m. Speed=0.000000m/h.</desc>
<speed>0.000000</speed>
</trkpt>
<trkpt lat="55.736790" lon="26.218664">
<ele>130.123169</ele>
<time>2010-07-18T07:24:19Z</time>
<desc>lat.=55.736790, lon.=26.218664, Alt.=130.123169m. Speed=0.000000m/h.</desc>
<speed>0.000000</speed>
</trkpt>
<trkpt lat="55.736790" lon="26.218664">
<ele>130.123169</ele>
<time>2010-07-18T07:24:20Z</time>
<desc>lat.=55.736790, lon.=26.218664, Alt.=130.123169m. Speed=0.000000m/h.</desc>
<speed>0.000000</speed>
</trkpt>
<trkpt lat="55.736790" lon="26.218664">
<ele>130.123169</ele>
<time>2010-07-18T07:24:21Z</time>
<desc>lat.=55.736790, lon.=26.218664, Alt.=130.123169m. Speed=0.000000m/h.</desc>
<speed>0.000000</speed>
</trkpt>
<trkpt lat="55.736790" lon="26.218664">
<ele>130.119263</ele>
<time>2010-07-18T07:24:22Z</time>
<desc>lat.=55.736790, lon.=26.218664, Alt.=130.119263m. Speed=0.000000m/h.</desc>
<speed>0.000000</speed>
</trkpt>
<trkpt lat="55.736790" lon="26.218664">
<ele>130.119263</ele>
<time>2010-07-18T07:24:23Z</time>
<desc>lat.=55.736790, lon.=26.218664, Alt.=130.119263m. Speed=0.036000m/h.</desc>
<speed>0.010000</speed>
</trkpt>
<trkpt lat="55.736790" lon="26.218664">
<ele>130.119263</ele>
<time>2010-07-18T07:24:24Z</time>
<desc>lat.=55.736790, lon.=26.218664, Alt.=130.119263m. Speed=0.000000m/h.</desc>
<speed>0.000000</speed>
</trkpt>
<trkpt lat="55.736790" lon="26.218664">
<ele>130.115356</ele>
<time>2010-07-18T07:24:25Z</time>
<desc>lat.=55.736790, lon.=26.218664, Alt.=130.115356m. Speed=0.000000m/h.</desc>
<speed>0.000000</speed>
</trkpt>
<trkpt lat="55.736790" lon="26.218664">
<ele>130.115356</ele>
<time>2010-07-18T07:24:26Z</time>
<desc>lat.=55.736790, lon.=26.218664, Alt.=130.115356m. Speed=0.000000m/h.</desc>
<speed>0.000000</speed>
</trkpt>
<trkpt lat="55.736790" lon="26.218664">
<ele>130.111450</ele>
<time>2010-07-18T07:24:27Z</time>
<desc>lat.=55.736790, lon.=26.218664, Alt.=130.111450m. Speed=0.036000m/h.</desc>
<speed>0.010000</speed>
</trkpt>
<trkpt lat="55.736790" lon="26.218664">
<ele>130.107544</ele>
<time>2010-07-18T07:24:28Z</time>
<desc>lat.=55.736790, lon.=26.218664, Alt.=130.107544m. Speed=0.000000m/h.</desc>
<speed>0.000000</speed>
</trkpt>
<trkpt lat="55.736790" lon="26.218664">
<ele>130.107544</ele>
<time>2010-07-18T07:24:29Z</time>
<desc>lat.=55.736790, lon.=26.218664, Alt.=130.107544m. Speed=0.000000m/h.</desc>
<speed>0.000000</speed>
</trkpt>
<trkpt lat="55.736790" lon="26.218664">
<ele>130.107544</ele>
<time>2010-07-18T07:24:30Z</time>
<desc>lat.=55.736790, lon.=26.218664, Alt.=130.107544m. Speed=0.000000m/h.</desc>
<speed>0.000000</speed>
</trkpt>
<trkpt lat="55.736790" lon="26.218664">
<ele>130.107544</ele>
<time>2010-07-18T07:24:31Z</time>
<desc>lat.=55.736790, lon.=26.218664, Alt.=130.107544m. Speed=0.000000m/h.</desc>
<speed>0.000000</speed>
</trkpt>
<trkpt lat="55.736790" lon="26.218664">
<ele>130.107544</ele>
<time>2010-07-18T07:24:32Z</time>
<desc>lat.=55.736790, lon.=26.218664, Alt.=130.107544m. Speed=0.000000m/h.</desc>
<speed>0.000000</speed>
</trkpt>
<trkpt lat="55.736790" lon="26.218664">
<ele>130.107544</ele>
<time>2010-07-18T07:24:33Z</time>
<desc>lat.=55.736790, lon.=26.218664, Alt.=130.107544m. Speed=0.000000m/h.</desc>
<speed>0.000000</speed>
</trkpt>
<trkpt lat="55.736790" lon="26.218664">
<ele>130.103638</ele>
<time>2010-07-18T07:24:34Z</time>
<desc>lat.=55.736790, lon.=26.218664, Alt.=130.103638m. Speed=0.000000m/h.</desc>
<speed>0.000000</speed>
</trkpt>
<trkpt lat="55.736790" lon="26.218664">
<ele>130.107544</ele>
<time>2010-07-18T07:24:35Z</time>
<desc>lat.=55.736790, lon.=26.218664, Alt.=130.107544m. Speed=0.000000m/h.</desc>
<speed>0.000000</speed>
</trkpt>
<trkpt lat="55.736790" lon="26.218664">
<ele>130.107544</ele>
<time>2010-07-18T07:24:36Z</time>
<desc>lat.=55.736790, lon.=26.218664, Alt.=130.107544m. Speed=0.000000m/h.</desc>
<speed>0.000000</speed>
</trkpt>
<trkpt lat="55.736790" lon="26.218664">
<ele>130.107544</ele>
<time>2010-07-18T07:24:37Z</time>
<desc>lat.=55.736790, lon.=26.218664, Alt.=130.107544m. Speed=0.000000m/h.</desc>
<speed>0.000000</speed>
</trkpt>
<trkpt lat="55.736790" lon="26.218664">
<ele>130.103638</ele>
<time>2010-07-18T07:24:38Z</time>
<desc>lat.=55.736790, lon.=26.218664, Alt.=130.103638m. Speed=0.000000m/h.</desc>
<speed>0.000000</speed>
</trkpt>
<trkpt lat="55.736790" lon="26.218664">
<ele>130.103638</ele>
<time>2010-07-18T07:24:39Z</time>
<desc>lat.=55.736790, lon.=26.218664, Alt.=130.103638m. Speed=0.000000m/h.</desc>
<speed>0.000000</speed>
</trkpt>
<trkpt lat="55.736790" lon="26.218664">
<ele>130.099731</ele>
<time>2010-07-18T07:24:40Z</time>
<desc>lat.=55.736790, lon.=26.218664, Alt.=130.099731m. Speed=0.000000m/h.</desc>
<speed>0.000000</speed>
</trkpt>
<trkpt lat="55.736790" lon="26.218664">
<ele>130.099731</ele>
<time>2010-07-18T07:24:41Z</time>
<desc>lat.=55.736790, lon.=26.218664, Alt.=130.099731m. Speed=0.000000m/h.</desc>
<speed>0.000000</speed>
</trkpt>
<trkpt lat="55.736790" lon="26.218664">
<ele>130.099731</ele>
<time>2010-07-18T07:24:42Z</time>
<desc>lat.=55.736790, lon.=26.218664, Alt.=130.099731m. Speed=0.000000m/h.</desc>
<speed>0.000000</speed>
</trkpt>
<trkpt lat="55.736790" lon="26.218664">
<ele>130.099731</ele>
<time>2010-07-18T07:24:43Z</time>
<desc>lat.=55.736790, lon.=26.218664, Alt.=130.099731m. Speed=0.000000m/h.</desc>
<speed>0.000000</speed>
</trkpt>
<trkpt lat="55.736790" lon="26.218664">
<ele>130.099731</ele>
<time>2010-07-18T07:24:44Z</time>
<desc>lat.=55.736790, lon.=26.218664, Alt.=130.099731m. Speed=0.036000m/h.</desc>
<speed>0.010000</speed>
</trkpt>
<trkpt lat="55.736790" lon="26.218664">
<ele>130.095825</ele>
<time>2010-07-18T07:24:45Z</time>
<desc>lat.=55.736790, lon.=26.218664, Alt.=130.095825m. Speed=0.000000m/h.</desc>
<speed>0.000000</speed>
</trkpt>
<trkpt lat="55.736790" lon="26.218664">
<ele>130.095825</ele>
<time>2010-07-18T07:24:46Z</time>
<desc>lat.=55.736790, lon.=26.218664, Alt.=130.095825m. Speed=0.000000m/h.</desc>
<speed>0.000000</speed>
</trkpt>
<trkpt lat="55.736790" lon="26.218664">
<ele>130.095825</ele>
<time>2010-07-18T07:24:47Z</time>
<desc>lat.=55.736790, lon.=26.218664, Alt.=130.095825m. Speed=0.000000m/h.</desc>
<speed>0.000000</speed>
</trkpt>
<trkpt lat="55.736790" lon="26.218664">
<ele>130.095825</ele>
<time>2010-07-18T07:24:48Z</time>
<desc>lat.=55.736790, lon.=26.218664, Alt.=130.095825m. Speed=0.000000m/h.</desc>
<speed>0.000000</speed>
</trkpt>
<trkpt lat="55.736790" lon="26.218664">
<ele>130.095825</ele>
<time>2010-07-18T07:24:49Z</time>
<desc>lat.=55.736790, lon.=26.218664, Alt.=130.095825m. Speed=0.000000m/h.</desc>
<speed>0.000000</speed>
</trkpt>
<trkpt lat="55.736790" lon="26.218664">
<ele>130.095825</ele>
<time>2010-07-18T07:24:50Z</time>
<desc>lat.=55.736790, lon.=26.218664, Alt.=130.095825m. Speed=0.000000m/h.</desc>
<speed>0.000000</speed>
</trkpt>
<trkpt lat="55.736790" lon="26.218664">
<ele>130.095825</ele>
<time>2010-07-18T07:24:51Z</time>
<desc>lat.=55.736790, lon.=26.218664, Alt.=130.095825m. Speed=0.036000m/h.</desc>
<speed>0.010000</speed>
</trkpt>
<trkpt lat="55.736790" lon="26.218664">
<ele>130.091919</ele>
<time>2010-07-18T07:24:52Z</time>
<desc>lat.=55.736790, lon.=26.218664, Alt.=130.091919m. Speed=0.000000m/h.</desc>
<speed>0.000000</speed>
</trkpt>
<trkpt lat="55.736790" lon="26.218664">
<ele>130.091919</ele>
<time>2010-07-18T07:24:53Z</time>
<desc>lat.=55.736790, lon.=26.218664, Alt.=130.091919m. Speed=0.000000m/h.</desc>
<speed>0.000000</speed>
</trkpt>
<trkpt lat="55.736790" lon="26.218664">
<ele>130.091919</ele>
<time>2010-07-18T07:24:54Z</time>
<desc>lat.=55.736790, lon.=26.218664, Alt.=130.091919m. Speed=0.000000m/h.</desc>
<speed>0.000000</speed>
</trkpt>
<trkpt lat="55.736790" lon="26.218664">
<ele>130.091919</ele>
<time>2010-07-18T07:24:55Z</time>
<desc>lat.=55.736790, lon.=26.218664, Alt.=130.091919m. Speed=0.000000m/h.</desc>
<speed>0.000000</speed>
</trkpt>
<trkpt lat="55.736790" lon="26.218664">
<ele>130.088013</ele>
<time>2010-07-18T07:24:56Z</time>
<desc>lat.=55.736790, lon.=26.218664, Alt.=130.088013m. Speed=0.000000m/h.</desc>
<speed>0.000000</speed>
</trkpt>
<trkpt lat="55.736790" lon="26.218664">
<ele>130.088013</ele>
<time>2010-07-18T07:24:57Z</time>
<desc>lat.=55.736790, lon.=26.218664, Alt.=130.088013m. Speed=0.000000m/h.</desc>
<speed>0.000000</speed>
</trkpt>
<trkpt lat="55.736790" lon="26.218664">
<ele>130.091919</ele>
<time>2010-07-18T07:24:58Z</time>
<desc>lat.=55.736790, lon.=26.218664, Alt.=130.091919m. Speed=0.000000m/h.</desc>
<speed>0.000000</speed>
</trkpt>
<trkpt lat="55.736790" lon="26.218664">
<ele>130.088013</ele>
<time>2010-07-18T07:24:59Z</time>
<desc>lat.=55.736790, lon.=26.218664, Alt.=130.088013m. Speed=0.000000m/h.</desc>
<speed>0.000000</speed>
</trkpt>
<trkpt lat="55.736790" lon="26.218664">
<ele>130.091919</ele>
<time>2010-07-18T07:25:00Z</time>
<desc>lat.=55.736790, lon.=26.218664, Alt.=130.091919m. Speed=0.000000m/h.</desc>
<speed>0.000000</speed>
</trkpt>
<trkpt lat="55.736790" lon="26.218664">
<ele>130.091919</ele>
<time>2010-07-18T07:25:01Z</time>
<desc>lat.=55.736790, lon.=26.218664, Alt.=130.091919m. Speed=0.000000m/h.</desc>
<speed>0.000000</speed>
</trkpt>
<trkpt lat="55.736790" lon="26.218666">
<ele>130.091919</ele>
<time>2010-07-18T07:25:02Z</time>
<desc>lat.=55.736790, lon.=26.218666, Alt.=130.091919m. Speed=0.000000m/h.</desc>
<speed>0.000000</speed>
</trkpt>
<trkpt lat="55.736790" lon="26.218664">
<ele>130.095825</ele>
<time>2010-07-18T07:25:03Z</time>
<desc>lat.=55.736790, lon.=26.218664, Alt.=130.095825m. Speed=0.000000m/h.</desc>
<speed>0.000000</speed>
</trkpt>
<trkpt lat="55.736790" lon="26.218664">
<ele>130.095825</ele>
<time>2010-07-18T07:25:04Z</time>
<desc>lat.=55.736790, lon.=26.218664, Alt.=130.095825m. Speed=0.000000m/h.</desc>
<speed>0.000000</speed>
</trkpt>
<trkpt lat="55.736790" lon="26.218664">
<ele>130.099731</ele>
<time>2010-07-18T07:25:05Z</time>
<desc>lat.=55.736790, lon.=26.218664, Alt.=130.099731m. Speed=0.036000m/h.</desc>
<speed>0.010000</speed>
</trkpt>
<trkpt lat="55.736790" lon="26.218664">
<ele>130.103638</ele>
<time>2010-07-18T07:25:06Z</time>
<desc>lat.=55.736790, lon.=26.218664, Alt.=130.103638m. Speed=0.036000m/h.</desc>
<speed>0.010000</speed>
</trkpt>
<trkpt lat="55.736790" lon="26.218664">
<ele>130.103638</ele>
<time>2010-07-18T07:25:07Z</time>
<desc>lat.=55.736790, lon.=26.218664, Alt.=130.103638m. Speed=0.000000m/h.</desc>
<speed>0.000000</speed>
</trkpt>
<trkpt lat="55.736790" lon="26.218664">
<ele>130.107544</ele>
<time>2010-07-18T07:25:08Z</time>
<desc>lat.=55.736790, lon.=26.218664, Alt.=130.107544m. Speed=0.000000m/h.</desc>
<speed>0.000000</speed>
</trkpt>
<trkpt lat="55.736790" lon="26.218664">
<ele>130.111450</ele>
<time>2010-07-18T07:25:09Z</time>
<desc>lat.=55.736790, lon.=26.218664, Alt.=130.111450m. Speed=0.000000m/h.</desc>
<speed>0.000000</speed>
</trkpt>
<trkpt lat="55.736790" lon="26.218664">
<ele>130.115356</ele>
<time>2010-07-18T07:25:10Z</time>
<desc>lat.=55.736790, lon.=26.218664, Alt.=130.115356m. Speed=0.000000m/h.</desc>
<speed>0.000000</speed>
</trkpt>
<trkpt lat="55.736790" lon="26.218664">
<ele>130.119263</ele>
<time>2010-07-18T07:25:11Z</time>
<desc>lat.=55.736790, lon.=26.218664, Alt.=130.119263m. Speed=0.000000m/h.</desc>
<speed>0.000000</speed>
</trkpt>
<trkpt lat="55.736790" lon="26.218664">
<ele>130.119263</ele>
<time>2010-07-18T07:25:12Z</time>
<desc>lat.=55.736790, lon.=26.218664, Alt.=130.119263m. Speed=0.000000m/h.</desc>
<speed>0.000000</speed>
</trkpt>
<trkpt lat="55.736790" lon="26.218664">
<ele>130.123169</ele>
<time>2010-07-18T07:25:13Z</time>
<desc>lat.=55.736790, lon.=26.218664, Alt.=130.123169m. Speed=0.000000m/h.</desc>
<speed>0.000000</speed>
</trkpt>
<trkpt lat="55.736790" lon="26.218664">
<ele>130.123169</ele>
<time>2010-07-18T07:25:14Z</time>
<desc>lat.=55.736790, lon.=26.218664, Alt.=130.123169m. Speed=0.000000m/h.</desc>
<speed>0.000000</speed>
</trkpt>
<trkpt lat="55.736790" lon="26.218664">
<ele>130.127075</ele>
<time>2010-07-18T07:25:15Z</time>
<desc>lat.=55.736790, lon.=26.218664, Alt.=130.127075m. Speed=0.000000m/h.</desc>
<speed>0.000000</speed>
</trkpt>
<trkpt lat="55.736790" lon="26.218664">
<ele>130.127075</ele>
<time>2010-07-18T07:25:16Z</time>
<desc>lat.=55.736790, lon.=26.218664, Alt.=130.127075m. Speed=0.000000m/h.</desc>
<speed>0.000000</speed>
</trkpt>
<trkpt lat="55.736790" lon="26.218664">
<ele>130.123169</ele>
<time>2010-07-18T07:25:17Z</time>
<desc>lat.=55.736790, lon.=26.218664, Alt.=130.123169m. Speed=0.000000m/h.</desc>
<speed>0.000000</speed>
</trkpt>
<trkpt lat="55.736790" lon="26.218664">
<ele>130.119263</ele>
<time>2010-07-18T07:25:18Z</time>
<desc>lat.=55.736790, lon.=26.218664, Alt.=130.119263m. Speed=0.000000m/h.</desc>
<speed>0.000000</speed>
</trkpt>
<trkpt lat="55.736790" lon="26.218664">
<ele>130.119263</ele>
<time>2010-07-18T07:25:19Z</time>
<desc>lat.=55.736790, lon.=26.218664, Alt.=130.119263m. Speed=0.000000m/h.</desc>
<speed>0.000000</speed>
</trkpt>
<trkpt lat="55.736790" lon="26.218664">
<ele>130.115356</ele>
<time>2010-07-18T07:25:20Z</time>
<desc>lat.=55.736790, lon.=26.218664, Alt.=130.115356m. Speed=0.000000m/h.</desc>
<speed>0.000000</speed>
</trkpt>
<trkpt lat="55.736790" lon="26.218664">
<ele>130.111450</ele>
<time>2010-07-18T07:25:21Z</time>
<desc>lat.=55.736790, lon.=26.218664, Alt.=130.111450m. Speed=0.000000m/h.</desc>
<speed>0.000000</speed>
</trkpt>
<trkpt lat="55.736790" lon="26.218664">
<ele>130.107544</ele>
<time>2010-07-18T07:25:22Z</time>
<desc>lat.=55.736790, lon.=26.218664, Alt.=130.107544m. Speed=0.000000m/h.</desc>
<speed>0.000000</speed>
</trkpt>
<trkpt lat="55.736790" lon="26.218664">
<ele>130.107544</ele>
<time>2010-07-18T07:25:23Z</time>
<desc>lat.=55.736790, lon.=26.218664, Alt.=130.107544m. Speed=0.000000m/h.</desc>
<speed>0.000000</speed>
</trkpt>
<trkpt lat="55.736790" lon="26.218664">
<ele>130.111450</ele>
<time>2010-07-18T07:25:24Z</time>
<desc>lat.=55.736790, lon.=26.218664, Alt.=130.111450m. Speed=0.000000m/h.</desc>
<speed>0.000000</speed>
</trkpt>
<trkpt lat="55.736790" lon="26.218664">
<ele>130.111450</ele>
<time>2010-07-18T07:25:25Z</time>
<desc>lat.=55.736790, lon.=26.218664, Alt.=130.111450m. Speed=0.000000m/h.</desc>
<speed>0.000000</speed>
</trkpt>
<trkpt lat="55.736790" lon="26.218664">
<ele>130.111450</ele>
<time>2010-07-18T07:25:26Z</time>
<desc>lat.=55.736790, lon.=26.218664, Alt.=130.111450m. Speed=0.000000m/h.</desc>
<speed>0.000000</speed>
</trkpt>
<trkpt lat="55.736790" lon="26.218664">
<ele>130.115356</ele>
<time>2010-07-18T07:25:27Z</time>
<desc>lat.=55.736790, lon.=26.218664, Alt.=130.115356m. Speed=0.000000m/h.</desc>
<speed>0.000000</speed>
</trkpt>
<trkpt lat="55.736790" lon="26.218664">
<ele>130.119263</ele>
<time>2010-07-18T07:25:28Z</time>
<desc>lat.=55.736790, lon.=26.218664, Alt.=130.119263m. Speed=0.000000m/h.</desc>
<speed>0.000000</speed>
</trkpt>
<trkpt lat="55.736790" lon="26.218664">
<ele>130.123169</ele>
<time>2010-07-18T07:25:29Z</time>
<desc>lat.=55.736790, lon.=26.218664, Alt.=130.123169m. Speed=0.000000m/h.</desc>
<speed>0.000000</speed>
</trkpt>
<trkpt lat="55.736790" lon="26.218664">
<ele>130.123169</ele>
<time>2010-07-18T07:25:30Z</time>
<desc>lat.=55.736790, lon.=26.218664, Alt.=130.123169m. Speed=0.000000m/h.</desc>
<speed>0.000000</speed>
</trkpt>
<trkpt lat="55.736790" lon="26.218664">
<ele>130.123169</ele>
<time>2010-07-18T07:25:31Z</time>
<desc>lat.=55.736790, lon.=26.218664, Alt.=130.123169m. Speed=0.000000m/h.</desc>
<speed>0.000000</speed>
</trkpt>
<trkpt lat="55.736790" lon="26.218664">
<ele>130.123169</ele>
<time>2010-07-18T07:25:32Z</time>
<desc>lat.=55.736790, lon.=26.218664, Alt.=130.123169m. Speed=0.000000m/h.</desc>
<speed>0.000000</speed>
</trkpt>
<trkpt lat="55.736790" lon="26.218664">
<ele>130.119263</ele>
<time>2010-07-18T07:25:33Z</time>
<desc>lat.=55.736790, lon.=26.218664, Alt.=130.119263m. Speed=0.000000m/h.</desc>
<speed>0.000000</speed>
</trkpt>
<trkpt lat="55.736790" lon="26.218664">
<ele>130.119263</ele>
<time>2010-07-18T07:25:34Z</time>
<desc>lat.=55.736790, lon.=26.218664, Alt.=130.119263m. Speed=0.036000m/h.</desc>
<speed>0.010000</speed>
</trkpt>
<trkpt lat="55.736790" lon="26.218664">
<ele>130.115356</ele>
<time>2010-07-18T07:25:35Z</time>
<desc>lat.=55.736790, lon.=26.218664, Alt.=130.115356m. Speed=0.000000m/h.</desc>
<speed>0.000000</speed>
</trkpt>
<trkpt lat="55.736790" lon="26.218664">
<ele>130.115356</ele>
<time>2010-07-18T07:25:36Z</time>
<desc>lat.=55.736790, lon.=26.218664, Alt.=130.115356m. Speed=0.000000m/h.</desc>
<speed>0.000000</speed>
</trkpt>
<trkpt lat="55.736790" lon="26.218664">
<ele>130.115356</ele>
<time>2010-07-18T07:25:37Z</time>
<desc>lat.=55.736790, lon.=26.218664, Alt.=130.115356m. Speed=0.000000m/h.</desc>
<speed>0.000000</speed>
</trkpt>
<trkpt lat="55.736790" lon="26.218664">
<ele>130.111450</ele>
<time>2010-07-18T07:25:38Z</time>
<desc>lat.=55.736790, lon.=26.218664, Alt.=130.111450m. Speed=0.000000m/h.</desc>
<speed>0.000000</speed>
</trkpt>
<trkpt lat="55.736790" lon="26.218664">
<ele>130.115356</ele>
<time>2010-07-18T07:25:39Z</time>
<desc>lat.=55.736790, lon.=26.218664, Alt.=130.115356m. Speed=0.036000m/h.</desc>
<speed>0.010000</speed>
</trkpt>
<trkpt lat="55.736790" lon="26.218664">
<ele>130.111450</ele>
<time>2010-07-18T07:25:40Z</time>
<desc>lat.=55.736790, lon.=26.218664, Alt.=130.111450m. Speed=0.000000m/h.</desc>
<speed>0.000000</speed>
</trkpt>
<trkpt lat="55.736790" lon="26.218664">
<ele>130.115356</ele>
<time>2010-07-18T07:25:41Z</time>
<desc>lat.=55.736790, lon.=26.218664, Alt.=130.115356m. Speed=0.000000m/h.</desc>
<speed>0.000000</speed>
</trkpt>
<trkpt lat="55.736790" lon="26.218664">
<ele>130.111450</ele>
<time>2010-07-18T07:25:42Z</time>
<desc>lat.=55.736790, lon.=26.218664, Alt.=130.111450m. Speed=0.000000m/h.</desc>
<speed>0.000000</speed>
</trkpt>
<trkpt lat="55.736790" lon="26.218664">
<ele>130.111450</ele>
<time>2010-07-18T07:25:43Z</time>
<desc>lat.=55.736790, lon.=26.218664, Alt.=130.111450m. Speed=0.000000m/h.</desc>
<speed>0.000000</speed>
</trkpt>
<trkpt lat="55.736790" lon="26.218664">
<ele>130.111450</ele>
<time>2010-07-18T07:25:44Z</time>
<desc>lat.=55.736790, lon.=26.218664, Alt.=130.111450m. Speed=0.000000m/h.</desc>
<speed>0.000000</speed>
</trkpt>
<trkpt lat="55.736790" lon="26.218664">
<ele>130.107544</ele>
<time>2010-07-18T07:25:45Z</time>
<desc>lat.=55.736790, lon.=26.218664, Alt.=130.107544m. Speed=0.036000m/h.</desc>
<speed>0.010000</speed>
</trkpt>
<trkpt lat="55.736790" lon="26.218664">
<ele>130.103638</ele>
<time>2010-07-18T07:25:46Z</time>
<desc>lat.=55.736790, lon.=26.218664, Alt.=130.103638m. Speed=0.000000m/h.</desc>
<speed>0.000000</speed>
</trkpt>
<trkpt lat="55.736790" lon="26.218664">
<ele>130.099731</ele>
<time>2010-07-18T07:25:47Z</time>
<desc>lat.=55.736790, lon.=26.218664, Alt.=130.099731m. Speed=0.000000m/h.</desc>
<speed>0.000000</speed>
</trkpt>
<trkpt lat="55.736790" lon="26.218664">
<ele>130.095825</ele>
<time>2010-07-18T07:25:48Z</time>
<desc>lat.=55.736790, lon.=26.218664, Alt.=130.095825m. Speed=0.000000m/h.</desc>
<speed>0.000000</speed>
</trkpt>
<trkpt lat="55.736790" lon="26.218664">
<ele>130.095825</ele>
<time>2010-07-18T07:25:49Z</time>
<desc>lat.=55.736790, lon.=26.218664, Alt.=130.095825m. Speed=0.000000m/h.</desc>
<speed>0.000000</speed>
</trkpt>
<trkpt lat="55.736790" lon="26.218664">
<ele>130.091919</ele>
<time>2010-07-18T07:25:50Z</time>
<desc>lat.=55.736790, lon.=26.218664, Alt.=130.091919m. Speed=0.000000m/h.</desc>
<speed>0.000000</speed>
</trkpt>
<trkpt lat="55.736790" lon="26.218664">
<ele>130.088013</ele>
<time>2010-07-18T07:25:51Z</time>
<desc>lat.=55.736790, lon.=26.218664, Alt.=130.088013m. Speed=0.000000m/h.</desc>
<speed>0.000000</speed>
</trkpt>
<trkpt lat="55.736790" lon="26.218664">
<ele>130.084106</ele>
<time>2010-07-18T07:25:52Z</time>
<desc>lat.=55.736790, lon.=26.218664, Alt.=130.084106m. Speed=0.036000m/h.</desc>
<speed>0.010000</speed>
</trkpt>
<trkpt lat="55.736790" lon="26.218664">
<ele>130.084106</ele>
<time>2010-07-18T07:25:53Z</time>
<desc>lat.=55.736790, lon.=26.218664, Alt.=130.084106m. Speed=0.036000m/h.</desc>
<speed>0.010000</speed>
</trkpt>
<trkpt lat="55.736790" lon="26.218664">
<ele>130.080200</ele>
<time>2010-07-18T07:25:54Z</time>
<desc>lat.=55.736790, lon.=26.218664, Alt.=130.080200m. Speed=0.000000m/h.</desc>
<speed>0.000000</speed>
</trkpt>
<trkpt lat="55.736790" lon="26.218664">
<ele>130.072388</ele>
<time>2010-07-18T07:25:55Z</time>
<desc>lat.=55.736790, lon.=26.218664, Alt.=130.072388m. Speed=0.000000m/h.</desc>
<speed>0.000000</speed>
</trkpt>
<trkpt lat="55.736790" lon="26.218664">
<ele>130.072388</ele>
<time>2010-07-18T07:25:56Z</time>
<desc>lat.=55.736790, lon.=26.218664, Alt.=130.072388m. Speed=0.000000m/h.</desc>
<speed>0.000000</speed>
</trkpt>
<trkpt lat="55.736790" lon="26.218664">
<ele>130.068481</ele>
<time>2010-07-18T07:25:57Z</time>
<desc>lat.=55.736790, lon.=26.218664, Alt.=130.068481m. Speed=0.000000m/h.</desc>
<speed>0.000000</speed>
</trkpt>
<trkpt lat="55.736790" lon="26.218664">
<ele>130.064575</ele>
<time>2010-07-18T07:25:58Z</time>
<desc>lat.=55.736790, lon.=26.218664, Alt.=130.064575m. Speed=0.036000m/h.</desc>
<speed>0.010000</speed>
</trkpt>
<trkpt lat="55.736790" lon="26.218664">
<ele>130.060669</ele>
<time>2010-07-18T07:25:59Z</time>
<desc>lat.=55.736790, lon.=26.218664, Alt.=130.060669m. Speed=0.000000m/h.</desc>
<speed>0.000000</speed>
</trkpt>
<trkpt lat="55.736790" lon="26.218664">
<ele>130.056763</ele>
<time>2010-07-18T07:26:00Z</time>
<desc>lat.=55.736790, lon.=26.218664, Alt.=130.056763m. Speed=0.036000m/h.</desc>
<speed>0.010000</speed>
</trkpt>
<trkpt lat="55.736790" lon="26.218664">
<ele>130.056763</ele>
<time>2010-07-18T07:26:01Z</time>
<desc>lat.=55.736790, lon.=26.218664, Alt.=130.056763m. Speed=0.000000m/h.</desc>
<speed>0.000000</speed>
</trkpt>
<trkpt lat="55.736790" lon="26.218662">
<ele>130.052856</ele>
<time>2010-07-18T07:26:02Z</time>
<desc>lat.=55.736790, lon.=26.218662, Alt.=130.052856m. Speed=0.000000m/h.</desc>
<speed>0.000000</speed>
</trkpt>
<trkpt lat="55.736790" lon="26.218662">
<ele>130.052856</ele>
<time>2010-07-18T07:26:03Z</time>
<desc>lat.=55.736790, lon.=26.218662, Alt.=130.052856m. Speed=0.000000m/h.</desc>
<speed>0.000000</speed>
</trkpt>
<trkpt lat="55.736790" lon="26.218662">
<ele>130.048950</ele>
<time>2010-07-18T07:26:04Z</time>
<desc>lat.=55.736790, lon.=26.218662, Alt.=130.048950m. Speed=0.000000m/h.</desc>
<speed>0.000000</speed>
</trkpt>
<trkpt lat="55.736790" lon="26.218662">
<ele>130.045044</ele>
<time>2010-07-18T07:26:05Z</time>
<desc>lat.=55.736790, lon.=26.218662, Alt.=130.045044m. Speed=0.000000m/h.</desc>
<speed>0.000000</speed>
</trkpt>
<trkpt lat="55.736790" lon="26.218662">
<ele>130.041138</ele>
<time>2010-07-18T07:26:06Z</time>
<desc>lat.=55.736790, lon.=26.218662, Alt.=130.041138m. Speed=0.000000m/h.</desc>
<speed>0.000000</speed>
</trkpt>
<trkpt lat="55.736790" lon="26.218662">
<ele>130.037231</ele>
<time>2010-07-18T07:26:07Z</time>
<desc>lat.=55.736790, lon.=26.218662, Alt.=130.037231m. Speed=0.000000m/h.</desc>
<speed>0.000000</speed>
</trkpt>
<trkpt lat="55.736790" lon="26.218662">
<ele>130.037231</ele>
<time>2010-07-18T07:26:08Z</time>
<desc>lat.=55.736790, lon.=26.218662, Alt.=130.037231m. Speed=0.000000m/h.</desc>
<speed>0.000000</speed>
</trkpt>
<trkpt lat="55.736790" lon="26.218662">
<ele>130.033325</ele>
<time>2010-07-18T07:26:09Z</time>
<desc>lat.=55.736790, lon.=26.218662, Alt.=130.033325m. Speed=0.000000m/h.</desc>
<speed>0.000000</speed>
</trkpt>
<trkpt lat="55.736790" lon="26.218662">
<ele>130.033325</ele>
<time>2010-07-18T07:26:10Z</time>
<desc>lat.=55.736790, lon.=26.218662, Alt.=130.033325m. Speed=0.000000m/h.</desc>
<speed>0.000000</speed>
</trkpt>
<trkpt lat="55.736790" lon="26.218662">
<ele>130.029419</ele>
<time>2010-07-18T07:26:11Z</time>
<desc>lat.=55.736790, lon.=26.218662, Alt.=130.029419m. Speed=0.000000m/h.</desc>
<speed>0.000000</speed>
</trkpt>
<trkpt lat="55.736790" lon="26.218662">
<ele>130.025513</ele>
<time>2010-07-18T07:26:12Z</time>
<desc>lat.=55.736790, lon.=26.218662, Alt.=130.025513m. Speed=0.000000m/h.</desc>
<speed>0.000000</speed>
</trkpt>
<trkpt lat="55.736790" lon="26.218662">
<ele>130.025513</ele>
<time>2010-07-18T07:26:13Z</time>
<desc>lat.=55.736790, lon.=26.218662, Alt.=130.025513m. Speed=0.000000m/h.</desc>
<speed>0.000000</speed>
</trkpt>
<trkpt lat="55.736790" lon="26.218662">
<ele>130.021606</ele>
<time>2010-07-18T07:26:14Z</time>
<desc>lat.=55.736790, lon.=26.218662, Alt.=130.021606m. Speed=0.000000m/h.</desc>
<speed>0.000000</speed>
</trkpt>
<trkpt lat="55.736790" lon="26.218662">
<ele>130.021606</ele>
<time>2010-07-18T07:26:15Z</time>
<desc>lat.=55.736790, lon.=26.218662, Alt.=130.021606m. Speed=0.000000m/h.</desc>
<speed>0.000000</speed>
</trkpt>
<trkpt lat="55.736790" lon="26.218662">
<ele>130.017700</ele>
<time>2010-07-18T07:26:16Z</time>
<desc>lat.=55.736790, lon.=26.218662, Alt.=130.017700m. Speed=0.000000m/h.</desc>
<speed>0.000000</speed>
</trkpt>
<trkpt lat="55.736790" lon="26.218662">
<ele>130.017700</ele>
<time>2010-07-18T07:26:17Z</time>
<desc>lat.=55.736790, lon.=26.218662, Alt.=130.017700m. Speed=0.036000m/h.</desc>
<speed>0.010000</speed>
</trkpt>
<trkpt lat="55.736790" lon="26.218662">
<ele>130.021606</ele>
<time>2010-07-18T07:26:18Z</time>
<desc>lat.=55.736790, lon.=26.218662, Alt.=130.021606m. Speed=0.000000m/h.</desc>
<speed>0.000000</speed>
</trkpt>
<trkpt lat="55.736790" lon="26.218662">
<ele>130.017700</ele>
<time>2010-07-18T07:26:19Z</time>
<desc>lat.=55.736790, lon.=26.218662, Alt.=130.017700m. Speed=0.000000m/h.</desc>
<speed>0.000000</speed>
</trkpt>
<trkpt lat="55.736790" lon="26.218662">
<ele>130.017700</ele>
<time>2010-07-18T07:26:20Z</time>
<desc>lat.=55.736790, lon.=26.218662, Alt.=130.017700m. Speed=0.000000m/h.</desc>
<speed>0.000000</speed>
</trkpt>
<trkpt lat="55.736790" lon="26.218662">
<ele>130.017700</ele>
<time>2010-07-18T07:26:21Z</time>
<desc>lat.=55.736790, lon.=26.218662, Alt.=130.017700m. Speed=0.000000m/h.</desc>
<speed>0.000000</speed>
</trkpt>
<trkpt lat="55.736790" lon="26.218662">
<ele>130.017700</ele>
<time>2010-07-18T07:26:22Z</time>
<desc>lat.=55.736790, lon.=26.218662, Alt.=130.017700m. Speed=0.000000m/h.</desc>
<speed>0.000000</speed>
</trkpt>
<trkpt lat="55.736790" lon="26.218662">
<ele>130.013794</ele>
<time>2010-07-18T07:26:23Z</time>
<desc>lat.=55.736790, lon.=26.218662, Alt.=130.013794m. Speed=0.036000m/h.</desc>
<speed>0.010000</speed>
</trkpt>
<trkpt lat="55.736790" lon="26.218662">
<ele>130.013794</ele>
<time>2010-07-18T07:26:24Z</time>
<desc>lat.=55.736790, lon.=26.218662, Alt.=130.013794m. Speed=0.000000m/h.</desc>
<speed>0.000000</speed>
</trkpt>
<trkpt lat="55.736790" lon="26.218662">
<ele>130.013794</ele>
<time>2010-07-18T07:26:25Z</time>
<desc>lat.=55.736790, lon.=26.218662, Alt.=130.013794m. Speed=0.000000m/h.</desc>
<speed>0.000000</speed>
</trkpt>
<trkpt lat="55.736790" lon="26.218662">
<ele>130.013794</ele>
<time>2010-07-18T07:26:26Z</time>
<desc>lat.=55.736790, lon.=26.218662, Alt.=130.013794m. Speed=0.036000m/h.</desc>
<speed>0.010000</speed>
</trkpt>
<trkpt lat="55.736790" lon="26.218662">
<ele>130.013794</ele>
<time>2010-07-18T07:26:27Z</time>
<desc>lat.=55.736790, lon.=26.218662, Alt.=130.013794m. Speed=0.000000m/h.</desc>
<speed>0.000000</speed>
</trkpt>
<trkpt lat="55.736790" lon="26.218662">
<ele>130.009888</ele>
<time>2010-07-18T07:26:28Z</time>
<desc>lat.=55.736790, lon.=26.218662, Alt.=130.009888m. Speed=0.000000m/h.</desc>
<speed>0.000000</speed>
</trkpt>
<trkpt lat="55.736790" lon="26.218662">
<ele>130.013794</ele>
<time>2010-07-18T07:26:29Z</time>
<desc>lat.=55.736790, lon.=26.218662, Alt.=130.013794m. Speed=0.000000m/h.</desc>
<speed>0.000000</speed>
</trkpt>
<trkpt lat="55.736790" lon="26.218662">
<ele>130.013794</ele>
<time>2010-07-18T07:26:30Z</time>
<desc>lat.=55.736790, lon.=26.218662, Alt.=130.013794m. Speed=0.000000m/h.</desc>
<speed>0.000000</speed>
</trkpt>
<trkpt lat="55.736790" lon="26.218662">
<ele>130.013794</ele>
<time>2010-07-18T07:26:31Z</time>
<desc>lat.=55.736790, lon.=26.218662, Alt.=130.013794m. Speed=0.036000m/h.</desc>
<speed>0.010000</speed>
</trkpt>
<trkpt lat="55.736790" lon="26.218662">
<ele>130.017700</ele>
<time>2010-07-18T07:26:32Z</time>
<desc>lat.=55.736790, lon.=26.218662, Alt.=130.017700m. Speed=0.036000m/h.</desc>
<speed>0.010000</speed>
</trkpt>
<trkpt lat="55.736790" lon="26.218662">
<ele>130.013794</ele>
<time>2010-07-18T07:26:33Z</time>
<desc>lat.=55.736790, lon.=26.218662, Alt.=130.013794m. Speed=0.000000m/h.</desc>
<speed>0.000000</speed>
</trkpt>
<trkpt lat="55.736790" lon="26.218662">
<ele>130.017700</ele>
<time>2010-07-18T07:26:34Z</time>
<desc>lat.=55.736790, lon.=26.218662, Alt.=130.017700m. Speed=0.000000m/h.</desc>
<speed>0.000000</speed>
</trkpt>
<trkpt lat="55.736790" lon="26.218662">
<ele>130.017700</ele>
<time>2010-07-18T07:26:35Z</time>
<desc>lat.=55.736790, lon.=26.218662, Alt.=130.017700m. Speed=0.000000m/h.</desc>
<speed>0.000000</speed>
</trkpt>
<trkpt lat="55.736790" lon="26.218662">
<ele>130.017700</ele>
<time>2010-07-18T07:26:36Z</time>
<desc>lat.=55.736790, lon.=26.218662, Alt.=130.017700m. Speed=0.000000m/h.</desc>
<speed>0.000000</speed>
</trkpt>
<trkpt lat="55.736790" lon="26.218662">
<ele>130.017700</ele>
<time>2010-07-18T07:26:37Z</time>
<desc>lat.=55.736790, lon.=26.218662, Alt.=130.017700m. Speed=0.000000m/h.</desc>
<speed>0.000000</speed>
</trkpt>
<trkpt lat="55.736790" lon="26.218662">
<ele>130.021606</ele>
<time>2010-07-18T07:26:38Z</time>
<desc>lat.=55.736790, lon.=26.218662, Alt.=130.021606m. Speed=0.000000m/h.</desc>
<speed>0.000000</speed>
</trkpt>
<trkpt lat="55.736790" lon="26.218662">
<ele>130.021606</ele>
<time>2010-07-18T07:26:39Z</time>
<desc>lat.=55.736790, lon.=26.218662, Alt.=130.021606m. Speed=0.000000m/h.</desc>
<speed>0.000000</speed>
</trkpt>
<trkpt lat="55.736790" lon="26.218662">
<ele>130.021606</ele>
<time>2010-07-18T07:26:40Z</time>
<desc>lat.=55.736790, lon.=26.218662, Alt.=130.021606m. Speed=0.000000m/h.</desc>
<speed>0.000000</speed>
</trkpt>
<trkpt lat="55.736790" lon="26.218662">
<ele>130.021606</ele>
<time>2010-07-18T07:26:41Z</time>
<desc>lat.=55.736790, lon.=26.218662, Alt.=130.021606m. Speed=0.036000m/h.</desc>
<speed>0.010000</speed>
</trkpt>
<trkpt lat="55.736790" lon="26.218662">
<ele>130.021606</ele>
<time>2010-07-18T07:26:42Z</time>
<desc>lat.=55.736790, lon.=26.218662, Alt.=130.021606m. Speed=0.036000m/h.</desc>
<speed>0.010000</speed>
</trkpt>
<trkpt lat="55.736790" lon="26.218662">
<ele>130.021606</ele>
<time>2010-07-18T07:26:43Z</time>
<desc>lat.=55.736790, lon.=26.218662, Alt.=130.021606m. Speed=0.000000m/h.</desc>
<speed>0.000000</speed>
</trkpt>
<trkpt lat="55.736790" lon="26.218662">
<ele>130.025513</ele>
<time>2010-07-18T07:26:44Z</time>
<desc>lat.=55.736790, lon.=26.218662, Alt.=130.025513m. Speed=0.000000m/h.</desc>
<speed>0.000000</speed>
</trkpt>
<trkpt lat="55.736790" lon="26.218662">
<ele>130.025513</ele>
<time>2010-07-18T07:26:45Z</time>
<desc>lat.=55.736790, lon.=26.218662, Alt.=130.025513m. Speed=0.000000m/h.</desc>
<speed>0.000000</speed>
</trkpt>
<trkpt lat="55.736790" lon="26.218662">
<ele>130.025513</ele>
<time>2010-07-18T07:26:46Z</time>
<desc>lat.=55.736790, lon.=26.218662, Alt.=130.025513m. Speed=0.000000m/h.</desc>
<speed>0.000000</speed>
</trkpt>
<trkpt lat="55.736790" lon="26.218662">
<ele>130.025513</ele>
<time>2010-07-18T07:26:47Z</time>
<desc>lat.=55.736790, lon.=26.218662, Alt.=130.025513m. Speed=0.000000m/h.</desc>
<speed>0.000000</speed>
</trkpt>
<trkpt lat="55.736790" lon="26.218662">
<ele>130.025513</ele>
<time>2010-07-18T07:26:48Z</time>
<desc>lat.=55.736790, lon.=26.218662, Alt.=130.025513m. Speed=0.036000m/h.</desc>
<speed>0.010000</speed>
</trkpt>
<trkpt lat="55.736790" lon="26.218662">
<ele>130.025513</ele>
<time>2010-07-18T07:26:49Z</time>
<desc>lat.=55.736790, lon.=26.218662, Alt.=130.025513m. Speed=0.000000m/h.</desc>
<speed>0.000000</speed>
</trkpt>
<trkpt lat="55.736790" lon="26.218662">
<ele>130.025513</ele>
<time>2010-07-18T07:26:50Z</time>
<desc>lat.=55.736790, lon.=26.218662, Alt.=130.025513m. Speed=0.000000m/h.</desc>
<speed>0.000000</speed>
</trkpt>
<trkpt lat="55.736790" lon="26.218662">
<ele>130.025513</ele>
<time>2010-07-18T07:26:51Z</time>
<desc>lat.=55.736790, lon.=26.218662, Alt.=130.025513m. Speed=0.000000m/h.</desc>
<speed>0.000000</speed>
</trkpt>
<trkpt lat="55.736790" lon="26.218662">
<ele>130.025513</ele>
<time>2010-07-18T07:26:52Z</time>
<desc>lat.=55.736790, lon.=26.218662, Alt.=130.025513m. Speed=0.000000m/h.</desc>
<speed>0.000000</speed>
</trkpt>
<trkpt lat="55.736790" lon="26.218662">
<ele>130.025513</ele>
<time>2010-07-18T07:26:53Z</time>
<desc>lat.=55.736790, lon.=26.218662, Alt.=130.025513m. Speed=0.036000m/h.</desc>
<speed>0.010000</speed>
</trkpt>
<trkpt lat="55.736790" lon="26.218662">
<ele>130.021606</ele>
<time>2010-07-18T07:26:54Z</time>
<desc>lat.=55.736790, lon.=26.218662, Alt.=130.021606m. Speed=0.000000m/h.</desc>
<speed>0.000000</speed>
</trkpt>
<trkpt lat="55.736790" lon="26.218662">
<ele>130.021606</ele>
<time>2010-07-18T07:26:55Z</time>
<desc>lat.=55.736790, lon.=26.218662, Alt.=130.021606m. Speed=0.000000m/h.</desc>
<speed>0.000000</speed>
</trkpt>
<trkpt lat="55.736790" lon="26.218662">
<ele>130.021606</ele>
<time>2010-07-18T07:26:56Z</time>
<desc>lat.=55.736790, lon.=26.218662, Alt.=130.021606m. Speed=0.000000m/h.</desc>
<speed>0.000000</speed>
</trkpt>
<trkpt lat="55.736790" lon="26.218662">
<ele>130.021606</ele>
<time>2010-07-18T07:26:57Z</time>
<desc>lat.=55.736790, lon.=26.218662, Alt.=130.021606m. Speed=0.036000m/h.</desc>
<speed>0.010000</speed>
</trkpt>
<trkpt lat="55.736790" lon="26.218662">
<ele>130.017700</ele>
<time>2010-07-18T07:26:58Z</time>
<desc>lat.=55.736790, lon.=26.218662, Alt.=130.017700m. Speed=0.000000m/h.</desc>
<speed>0.000000</speed>
</trkpt>
<trkpt lat="55.736790" lon="26.218662">
<ele>130.017700</ele>
<time>2010-07-18T07:26:59Z</time>
<desc>lat.=55.736790, lon.=26.218662, Alt.=130.017700m. Speed=0.000000m/h.</desc>
<speed>0.000000</speed>
</trkpt>
<trkpt lat="55.736790" lon="26.218662">
<ele>130.021606</ele>
<time>2010-07-18T07:27:00Z</time>
<desc>lat.=55.736790, lon.=26.218662, Alt.=130.021606m. Speed=0.000000m/h.</desc>
<speed>0.000000</speed>
</trkpt>
<trkpt lat="55.736790" lon="26.218662">
<ele>130.021606</ele>
<time>2010-07-18T07:27:01Z</time>
<desc>lat.=55.736790, lon.=26.218662, Alt.=130.021606m. Speed=0.000000m/h.</desc>
<speed>0.000000</speed>
</trkpt>
<trkpt lat="55.736790" lon="26.218662">
<ele>130.021606</ele>
<time>2010-07-18T07:27:02Z</time>
<desc>lat.=55.736790, lon.=26.218662, Alt.=130.021606m. Speed=0.000000m/h.</desc>
<speed>0.000000</speed>
</trkpt>
<trkpt lat="55.736790" lon="26.218662">
<ele>130.021606</ele>
<time>2010-07-18T07:27:03Z</time>
<desc>lat.=55.736790, lon.=26.218662, Alt.=130.021606m. Speed=0.000000m/h.</desc>
<speed>0.000000</speed>
</trkpt>
<trkpt lat="55.736790" lon="26.218662">
<ele>130.021606</ele>
<time>2010-07-18T07:27:04Z</time>
<desc>lat.=55.736790, lon.=26.218662, Alt.=130.021606m. Speed=0.000000m/h.</desc>
<speed>0.000000</speed>
</trkpt>
<trkpt lat="55.736790" lon="26.218662">
<ele>130.021606</ele>
<time>2010-07-18T07:27:05Z</time>
<desc>lat.=55.736790, lon.=26.218662, Alt.=130.021606m. Speed=0.000000m/h.</desc>
<speed>0.000000</speed>
</trkpt>
<trkpt lat="55.736790" lon="26.218662">
<ele>130.017700</ele>
<time>2010-07-18T07:27:06Z</time>
<desc>lat.=55.736790, lon.=26.218662, Alt.=130.017700m. Speed=0.000000m/h.</desc>
<speed>0.000000</speed>
</trkpt>
<trkpt lat="55.736790" lon="26.218662">
<ele>130.017700</ele>
<time>2010-07-18T07:27:07Z</time>
<desc>lat.=55.736790, lon.=26.218662, Alt.=130.017700m. Speed=0.000000m/h.</desc>
<speed>0.000000</speed>
</trkpt>
<trkpt lat="55.736790" lon="26.218662">
<ele>130.017700</ele>
<time>2010-07-18T07:27:08Z</time>
<desc>lat.=55.736790, lon.=26.218662, Alt.=130.017700m. Speed=0.000000m/h.</desc>
<speed>0.000000</speed>
</trkpt>
<trkpt lat="55.736790" lon="26.218662">
<ele>130.017700</ele>
<time>2010-07-18T07:27:09Z</time>
<desc>lat.=55.736790, lon.=26.218662, Alt.=130.017700m. Speed=0.000000m/h.</desc>
<speed>0.000000</speed>
</trkpt>
<trkpt lat="55.736790" lon="26.218662">
<ele>130.021606</ele>
<time>2010-07-18T07:27:10Z</time>
<desc>lat.=55.736790, lon.=26.218662, Alt.=130.021606m. Speed=0.000000m/h.</desc>
<speed>0.000000</speed>
</trkpt>
<trkpt lat="55.736790" lon="26.218662">
<ele>130.017700</ele>
<time>2010-07-18T07:27:11Z</time>
<desc>lat.=55.736790, lon.=26.218662, Alt.=130.017700m. Speed=0.000000m/h.</desc>
<speed>0.000000</speed>
</trkpt>
<trkpt lat="55.736790" lon="26.218662">
<ele>130.017700</ele>
<time>2010-07-18T07:27:12Z</time>
<desc>lat.=55.736790, lon.=26.218662, Alt.=130.017700m. Speed=0.000000m/h.</desc>
<speed>0.000000</speed>
</trkpt>
<trkpt lat="55.736790" lon="26.218662">
<ele>130.021606</ele>
<time>2010-07-18T07:27:13Z</time>
<desc>lat.=55.736790, lon.=26.218662, Alt.=130.021606m. Speed=0.036000m/h.</desc>
<speed>0.010000</speed>
</trkpt>
<trkpt lat="55.736790" lon="26.218662">
<ele>130.021606</ele>
<time>2010-07-18T07:27:14Z</time>
<desc>lat.=55.736790, lon.=26.218662, Alt.=130.021606m. Speed=0.036000m/h.</desc>
<speed>0.010000</speed>
</trkpt>
<trkpt lat="55.736790" lon="26.218662">
<ele>130.021606</ele>
<time>2010-07-18T07:27:15Z</time>
<desc>lat.=55.736790, lon.=26.218662, Alt.=130.021606m. Speed=0.000000m/h.</desc>
<speed>0.000000</speed>
</trkpt>
<trkpt lat="55.736790" lon="26.218662">
<ele>130.021606</ele>
<time>2010-07-18T07:27:16Z</time>
<desc>lat.=55.736790, lon.=26.218662, Alt.=130.021606m. Speed=0.000000m/h.</desc>
<speed>0.000000</speed>
</trkpt>
<trkpt lat="55.736790" lon="26.218662">
<ele>130.021606</ele>
<time>2010-07-18T07:27:17Z</time>
<desc>lat.=55.736790, lon.=26.218662, Alt.=130.021606m. Speed=0.000000m/h.</desc>
<speed>0.000000</speed>
</trkpt>
<trkpt lat="55.736790" lon="26.218662">
<ele>130.021606</ele>
<time>2010-07-18T07:27:18Z</time>
<desc>lat.=55.736790, lon.=26.218662, Alt.=130.021606m. Speed=0.036000m/h.</desc>
<speed>0.010000</speed>
</trkpt>
<trkpt lat="55.736790" lon="26.218662">
<ele>130.021606</ele>
<time>2010-07-18T07:27:19Z</time>
<desc>lat.=55.736790, lon.=26.218662, Alt.=130.021606m. Speed=0.000000m/h.</desc>
<speed>0.000000</speed>
</trkpt>
<trkpt lat="55.736790" lon="26.218662">
<ele>130.021606</ele>
<time>2010-07-18T07:27:20Z</time>
<desc>lat.=55.736790, lon.=26.218662, Alt.=130.021606m. Speed=0.000000m/h.</desc>
<speed>0.000000</speed>
</trkpt>
<trkpt lat="55.736790" lon="26.218662">
<ele>130.025513</ele>
<time>2010-07-18T07:27:21Z</time>
<desc>lat.=55.736790, lon.=26.218662, Alt.=130.025513m. Speed=0.000000m/h.</desc>
<speed>0.000000</speed>
</trkpt>
<trkpt lat="55.736790" lon="26.218662">
<ele>130.025513</ele>
<time>2010-07-18T07:27:22Z</time>
<desc>lat.=55.736790, lon.=26.218662, Alt.=130.025513m. Speed=0.000000m/h.</desc>
<speed>0.000000</speed>
</trkpt>
<trkpt lat="55.736790" lon="26.218662">
<ele>130.025513</ele>
<time>2010-07-18T07:27:23Z</time>
<desc>lat.=55.736790, lon.=26.218662, Alt.=130.025513m. Speed=0.000000m/h.</desc>
<speed>0.000000</speed>
</trkpt>
<trkpt lat="55.736790" lon="26.218662">
<ele>130.029419</ele>
<time>2010-07-18T07:27:24Z</time>
<desc>lat.=55.736790, lon.=26.218662, Alt.=130.029419m. Speed=0.000000m/h.</desc>
<speed>0.000000</speed>
</trkpt>
<trkpt lat="55.736790" lon="26.218662">
<ele>130.029419</ele>
<time>2010-07-18T07:27:25Z</time>
<desc>lat.=55.736790, lon.=26.218662, Alt.=130.029419m. Speed=0.000000m/h.</desc>
<speed>0.000000</speed>
</trkpt>
<trkpt lat="55.736790" lon="26.218662">
<ele>130.029419</ele>
<time>2010-07-18T07:27:26Z</time>
<desc>lat.=55.736790, lon.=26.218662, Alt.=130.029419m. Speed=0.000000m/h.</desc>
<speed>0.000000</speed>
</trkpt>
<trkpt lat="55.736790" lon="26.218662">
<ele>130.033325</ele>
<time>2010-07-18T07:27:27Z</time>
<desc>lat.=55.736790, lon.=26.218662, Alt.=130.033325m. Speed=0.000000m/h.</desc>
<speed>0.000000</speed>
</trkpt>
<trkpt lat="55.736790" lon="26.218662">
<ele>130.033325</ele>
<time>2010-07-18T07:27:28Z</time>
<desc>lat.=55.736790, lon.=26.218662, Alt.=130.033325m. Speed=0.000000m/h.</desc>
<speed>0.000000</speed>
</trkpt>
<trkpt lat="55.736790" lon="26.218662">
<ele>130.033325</ele>
<time>2010-07-18T07:27:29Z</time>
<desc>lat.=55.736790, lon.=26.218662, Alt.=130.033325m. Speed=0.000000m/h.</desc>
<speed>0.000000</speed>
</trkpt>
<trkpt lat="55.736790" lon="26.218662">
<ele>130.037231</ele>
<time>2010-07-18T07:27:30Z</time>
<desc>lat.=55.736790, lon.=26.218662, Alt.=130.037231m. Speed=0.000000m/h.</desc>
<speed>0.000000</speed>
</trkpt>
<trkpt lat="55.736790" lon="26.218662">
<ele>130.041138</ele>
<time>2010-07-18T07:27:31Z</time>
<desc>lat.=55.736790, lon.=26.218662, Alt.=130.041138m. Speed=0.000000m/h.</desc>
<speed>0.000000</speed>
</trkpt>
<trkpt lat="55.736790" lon="26.218662">
<ele>130.041138</ele>
<time>2010-07-18T07:27:32Z</time>
<desc>lat.=55.736790, lon.=26.218662, Alt.=130.041138m. Speed=0.000000m/h.</desc>
<speed>0.000000</speed>
</trkpt>
<trkpt lat="55.736790" lon="26.218662">
<ele>130.041138</ele>
<time>2010-07-18T07:27:33Z</time>
<desc>lat.=55.736790, lon.=26.218662, Alt.=130.041138m. Speed=0.036000m/h.</desc>
<speed>0.010000</speed>
</trkpt>
<trkpt lat="55.736790" lon="26.218662">
<ele>130.045044</ele>
<time>2010-07-18T07:27:34Z</time>
<desc>lat.=55.736790, lon.=26.218662, Alt.=130.045044m. Speed=0.000000m/h.</desc>
<speed>0.000000</speed>
</trkpt>
<trkpt lat="55.736790" lon="26.218662">
<ele>130.048950</ele>
<time>2010-07-18T07:27:35Z</time>
<desc>lat.=55.736790, lon.=26.218662, Alt.=130.048950m. Speed=0.000000m/h.</desc>
<speed>0.000000</speed>
</trkpt>
<trkpt lat="55.736790" lon="26.218662">
<ele>130.048950</ele>
<time>2010-07-18T07:27:36Z</time>
<desc>lat.=55.736790, lon.=26.218662, Alt.=130.048950m. Speed=0.000000m/h.</desc>
<speed>0.000000</speed>
</trkpt>
<trkpt lat="55.736790" lon="26.218662">
<ele>130.048950</ele>
<time>2010-07-18T07:27:37Z</time>
<desc>lat.=55.736790, lon.=26.218662, Alt.=130.048950m. Speed=0.000000m/h.</desc>
<speed>0.000000</speed>
</trkpt>
<trkpt lat="55.736790" lon="26.218662">
<ele>130.052856</ele>
<time>2010-07-18T07:27:38Z</time>
<desc>lat.=55.736790, lon.=26.218662, Alt.=130.052856m. Speed=0.000000m/h.</desc>
<speed>0.000000</speed>
</trkpt>
<trkpt lat="55.736790" lon="26.218662">
<ele>130.052856</ele>
<time>2010-07-18T07:27:39Z</time>
<desc>lat.=55.736790, lon.=26.218662, Alt.=130.052856m. Speed=0.000000m/h.</desc>
<speed>0.000000</speed>
</trkpt>
<trkpt lat="55.736790" lon="26.218662">
<ele>130.052856</ele>
<time>2010-07-18T07:27:40Z</time>
<desc>lat.=55.736790, lon.=26.218662, Alt.=130.052856m. Speed=0.000000m/h.</desc>
<speed>0.000000</speed>
</trkpt>
<trkpt lat="55.736790" lon="26.218662">
<ele>130.056763</ele>
<time>2010-07-18T07:27:41Z</time>
<desc>lat.=55.736790, lon.=26.218662, Alt.=130.056763m. Speed=0.000000m/h.</desc>
<speed>0.000000</speed>
</trkpt>
<trkpt lat="55.736790" lon="26.218662">
<ele>130.056763</ele>
<time>2010-07-18T07:27:42Z</time>
<desc>lat.=55.736790, lon.=26.218662, Alt.=130.056763m. Speed=0.000000m/h.</desc>
<speed>0.000000</speed>
</trkpt>
<trkpt lat="55.736790" lon="26.218662">
<ele>130.056763</ele>
<time>2010-07-18T07:27:43Z</time>
<desc>lat.=55.736790, lon.=26.218662, Alt.=130.056763m. Speed=0.000000m/h.</desc>
<speed>0.000000</speed>
</trkpt>
<trkpt lat="55.736790" lon="26.218662">
<ele>130.056763</ele>
<time>2010-07-18T07:27:44Z</time>
<desc>lat.=55.736790, lon.=26.218662, Alt.=130.056763m. Speed=0.000000m/h.</desc>
<speed>0.000000</speed>
</trkpt>
<trkpt lat="55.736790" lon="26.218662">
<ele>130.056763</ele>
<time>2010-07-18T07:27:45Z</time>
<desc>lat.=55.736790, lon.=26.218662, Alt.=130.056763m. Speed=0.036000m/h.</desc>
<speed>0.010000</speed>
</trkpt>
<trkpt lat="55.736790" lon="26.218662">
<ele>130.060669</ele>
<time>2010-07-18T07:27:46Z</time>
<desc>lat.=55.736790, lon.=26.218662, Alt.=130.060669m. Speed=0.000000m/h.</desc>
<speed>0.000000</speed>
</trkpt>
<trkpt lat="55.736790" lon="26.218662">
<ele>130.060669</ele>
<time>2010-07-18T07:27:47Z</time>
<desc>lat.=55.736790, lon.=26.218662, Alt.=130.060669m. Speed=0.000000m/h.</desc>
<speed>0.000000</speed>
</trkpt>
<trkpt lat="55.736790" lon="26.218662">
<ele>130.060669</ele>
<time>2010-07-18T07:27:48Z</time>
<desc>lat.=55.736790, lon.=26.218662, Alt.=130.060669m. Speed=0.000000m/h.</desc>
<speed>0.000000</speed>
</trkpt>
<trkpt lat="55.736790" lon="26.218662">
<ele>130.064575</ele>
<time>2010-07-18T07:27:49Z</time>
<desc>lat.=55.736790, lon.=26.218662, Alt.=130.064575m. Speed=0.000000m/h.</desc>
<speed>0.000000</speed>
</trkpt>
<trkpt lat="55.736790" lon="26.218662">
<ele>130.064575</ele>
<time>2010-07-18T07:27:50Z</time>
<desc>lat.=55.736790, lon.=26.218662, Alt.=130.064575m. Speed=0.000000m/h.</desc>
<speed>0.000000</speed>
</trkpt>
<trkpt lat="55.736790" lon="26.218662">
<ele>130.064575</ele>
<time>2010-07-18T07:27:51Z</time>
<desc>lat.=55.736790, lon.=26.218662, Alt.=130.064575m. Speed=0.000000m/h.</desc>
<speed>0.000000</speed>
</trkpt>
<trkpt lat="55.736790" lon="26.218662">
<ele>130.068481</ele>
<time>2010-07-18T07:27:52Z</time>
<desc>lat.=55.736790, lon.=26.218662, Alt.=130.068481m. Speed=0.000000m/h.</desc>
<speed>0.000000</speed>
</trkpt>
<trkpt lat="55.736790" lon="26.218662">
<ele>130.068481</ele>
<time>2010-07-18T07:27:53Z</time>
<desc>lat.=55.736790, lon.=26.218662, Alt.=130.068481m. Speed=0.000000m/h.</desc>
<speed>0.000000</speed>
</trkpt>
<trkpt lat="55.736790" lon="26.218662">
<ele>130.068481</ele>
<time>2010-07-18T07:27:54Z</time>
<desc>lat.=55.736790, lon.=26.218662, Alt.=130.068481m. Speed=0.036000m/h.</desc>
<speed>0.010000</speed>
</trkpt>
<trkpt lat="55.736790" lon="26.218662">
<ele>130.068481</ele>
<time>2010-07-18T07:27:55Z</time>
<desc>lat.=55.736790, lon.=26.218662, Alt.=130.068481m. Speed=0.000000m/h.</desc>
<speed>0.000000</speed>
</trkpt>
<trkpt lat="55.736790" lon="26.218662">
<ele>130.068481</ele>
<time>2010-07-18T07:27:56Z</time>
<desc>lat.=55.736790, lon.=26.218662, Alt.=130.068481m. Speed=0.000000m/h.</desc>
<speed>0.000000</speed>
</trkpt>
<trkpt lat="55.736790" lon="26.218664">
<ele>130.068481</ele>
<time>2010-07-18T07:27:57Z</time>
<desc>lat.=55.736790, lon.=26.218664, Alt.=130.068481m. Speed=0.000000m/h.</desc>
<speed>0.000000</speed>
</trkpt>
<trkpt lat="55.736790" lon="26.218664">
<ele>130.068481</ele>
<time>2010-07-18T07:27:58Z</time>
<desc>lat.=55.736790, lon.=26.218664, Alt.=130.068481m. Speed=0.000000m/h.</desc>
<speed>0.000000</speed>
</trkpt>
<trkpt lat="55.736790" lon="26.218664">
<ele>130.064575</ele>
<time>2010-07-18T07:27:59Z</time>
<desc>lat.=55.736790, lon.=26.218664, Alt.=130.064575m. Speed=0.000000m/h.</desc>
<speed>0.000000</speed>
</trkpt>
<trkpt lat="55.736790" lon="26.218664">
<ele>130.064575</ele>
<time>2010-07-18T07:28:00Z</time>
<desc>lat.=55.736790, lon.=26.218664, Alt.=130.064575m. Speed=0.000000m/h.</desc>
<speed>0.000000</speed>
</trkpt>
<trkpt lat="55.736790" lon="26.218662">
<ele>130.064575</ele>
<time>2010-07-18T07:28:01Z</time>
<desc>lat.=55.736790, lon.=26.218662, Alt.=130.064575m. Speed=0.000000m/h.</desc>
<speed>0.000000</speed>
</trkpt>
<trkpt lat="55.736790" lon="26.218662">
<ele>130.064575</ele>
<time>2010-07-18T07:28:02Z</time>
<desc>lat.=55.736790, lon.=26.218662, Alt.=130.064575m. Speed=0.000000m/h.</desc>
<speed>0.000000</speed>
</trkpt>
<trkpt lat="55.736790" lon="26.218662">
<ele>130.064575</ele>
<time>2010-07-18T07:28:03Z</time>
<desc>lat.=55.736790, lon.=26.218662, Alt.=130.064575m. Speed=0.000000m/h.</desc>
<speed>0.000000</speed>
</trkpt>
<trkpt lat="55.736790" lon="26.218662">
<ele>130.064575</ele>
<time>2010-07-18T07:28:04Z</time>
<desc>lat.=55.736790, lon.=26.218662, Alt.=130.064575m. Speed=0.000000m/h.</desc>
<speed>0.000000</speed>
</trkpt>
<trkpt lat="55.736790" lon="26.218662">
<ele>130.060669</ele>
<time>2010-07-18T07:28:05Z</time>
<desc>lat.=55.736790, lon.=26.218662, Alt.=130.060669m. Speed=0.036000m/h.</desc>
<speed>0.010000</speed>
</trkpt>
<trkpt lat="55.736790" lon="26.218662">
<ele>130.060669</ele>
<time>2010-07-18T07:28:06Z</time>
<desc>lat.=55.736790, lon.=26.218662, Alt.=130.060669m. Speed=0.072000m/h.</desc>
<speed>0.020000</speed>
</trkpt>
<trkpt lat="55.736790" lon="26.218662">
<ele>130.060669</ele>
<time>2010-07-18T07:28:07Z</time>
<desc>lat.=55.736790, lon.=26.218662, Alt.=130.060669m. Speed=0.072000m/h.</desc>
<speed>0.020000</speed>
</trkpt>
<trkpt lat="55.736790" lon="26.218662">
<ele>130.060669</ele>
<time>2010-07-18T07:28:08Z</time>
<desc>lat.=55.736790, lon.=26.218662, Alt.=130.060669m. Speed=0.072000m/h.</desc>
<speed>0.020000</speed>
</trkpt>
<trkpt lat="55.736790" lon="26.218662">
<ele>130.060669</ele>
<time>2010-07-18T07:28:09Z</time>
<desc>lat.=55.736790, lon.=26.218662, Alt.=130.060669m. Speed=0.144000m/h.</desc>
<speed>0.040000</speed>
</trkpt>
<trkpt lat="55.736790" lon="26.218662">
<ele>130.060669</ele>
<time>2010-07-18T07:28:10Z</time>
<desc>lat.=55.736790, lon.=26.218662, Alt.=130.060669m. Speed=0.000000m/h.</desc>
<speed>0.000000</speed>
</trkpt>
<trkpt lat="55.736790" lon="26.218662">
<ele>130.060669</ele>
<time>2010-07-18T07:28:11Z</time>
<desc>lat.=55.736790, lon.=26.218662, Alt.=130.060669m. Speed=0.000000m/h.</desc>
<speed>0.000000</speed>
</trkpt>
<trkpt lat="55.736790" lon="26.218662">
<ele>130.060669</ele>
<time>2010-07-18T07:28:12Z</time>
<desc>lat.=55.736790, lon.=26.218662, Alt.=130.060669m. Speed=0.036000m/h.</desc>
<speed>0.010000</speed>
</trkpt>
<trkpt lat="55.736790" lon="26.218662">
<ele>130.064575</ele>
<time>2010-07-18T07:28:13Z</time>
<desc>lat.=55.736790, lon.=26.218662, Alt.=130.064575m. Speed=0.000000m/h.</desc>
<speed>0.000000</speed>
</trkpt>
<trkpt lat="55.736790" lon="26.218662">
<ele>130.064575</ele>
<time>2010-07-18T07:28:14Z</time>
<desc>lat.=55.736790, lon.=26.218662, Alt.=130.064575m. Speed=0.000000m/h.</desc>
<speed>0.000000</speed>
</trkpt>
<trkpt lat="55.736790" lon="26.218662">
<ele>130.064575</ele>
<time>2010-07-18T07:28:15Z</time>
<desc>lat.=55.736790, lon.=26.218662, Alt.=130.064575m. Speed=0.036000m/h.</desc>
<speed>0.010000</speed>
</trkpt>
<trkpt lat="55.736790" lon="26.218662">
<ele>130.068481</ele>
<time>2010-07-18T07:28:16Z</time>
<desc>lat.=55.736790, lon.=26.218662, Alt.=130.068481m. Speed=0.000000m/h.</desc>
<speed>0.000000</speed>
</trkpt>
<trkpt lat="55.736790" lon="26.218662">
<ele>130.068481</ele>
<time>2010-07-18T07:28:17Z</time>
<desc>lat.=55.736790, lon.=26.218662, Alt.=130.068481m. Speed=0.000000m/h.</desc>
<speed>0.000000</speed>
</trkpt>
<trkpt lat="55.736790" lon="26.218662">
<ele>130.072388</ele>
<time>2010-07-18T07:28:18Z</time>
<desc>lat.=55.736790, lon.=26.218662, Alt.=130.072388m. Speed=0.000000m/h.</desc>
<speed>0.000000</speed>
</trkpt>
<trkpt lat="55.736790" lon="26.218662">
<ele>130.072388</ele>
<time>2010-07-18T07:28:19Z</time>
<desc>lat.=55.736790, lon.=26.218662, Alt.=130.072388m. Speed=0.000000m/h.</desc>
<speed>0.000000</speed>
</trkpt>
<trkpt lat="55.736790" lon="26.218662">
<ele>130.072388</ele>
<time>2010-07-18T07:28:20Z</time>
<desc>lat.=55.736790, lon.=26.218662, Alt.=130.072388m. Speed=0.072000m/h.</desc>
<speed>0.020000</speed>
</trkpt>
<trkpt lat="55.736790" lon="26.218662">
<ele>130.072388</ele>
<time>2010-07-18T07:28:21Z</time>
<desc>lat.=55.736790, lon.=26.218662, Alt.=130.072388m. Speed=0.000000m/h.</desc>
<speed>0.000000</speed>
</trkpt>
<trkpt lat="55.736790" lon="26.218662">
<ele>130.076294</ele>
<time>2010-07-18T07:28:22Z</time>
<desc>lat.=55.736790, lon.=26.218662, Alt.=130.076294m. Speed=0.000000m/h.</desc>
<speed>0.000000</speed>
</trkpt>
<trkpt lat="55.736790" lon="26.218662">
<ele>130.076294</ele>
<time>2010-07-18T07:28:23Z</time>
<desc>lat.=55.736790, lon.=26.218662, Alt.=130.076294m. Speed=0.000000m/h.</desc>
<speed>0.000000</speed>
</trkpt>
<trkpt lat="55.736790" lon="26.218662">
<ele>130.076294</ele>
<time>2010-07-18T07:28:24Z</time>
<desc>lat.=55.736790, lon.=26.218662, Alt.=130.076294m. Speed=0.000000m/h.</desc>
<speed>0.000000</speed>
</trkpt>
<trkpt lat="55.736790" lon="26.218662">
<ele>130.076294</ele>
<time>2010-07-18T07:28:25Z</time>
<desc>lat.=55.736790, lon.=26.218662, Alt.=130.076294m. Speed=0.000000m/h.</desc>
<speed>0.000000</speed>
</trkpt>
<trkpt lat="55.736790" lon="26.218662">
<ele>130.076294</ele>
<time>2010-07-18T07:28:26Z</time>
<desc>lat.=55.736790, lon.=26.218662, Alt.=130.076294m. Speed=0.036000m/h.</desc>
<speed>0.010000</speed>
</trkpt>
<trkpt lat="55.736790" lon="26.218662">
<ele>130.076294</ele>
<time>2010-07-18T07:28:27Z</time>
<desc>lat.=55.736790, lon.=26.218662, Alt.=130.076294m. Speed=0.036000m/h.</desc>
<speed>0.010000</speed>
</trkpt>
<trkpt lat="55.736790" lon="26.218662">
<ele>130.076294</ele>
<time>2010-07-18T07:28:28Z</time>
<desc>lat.=55.736790, lon.=26.218662, Alt.=130.076294m. Speed=0.000000m/h.</desc>
<speed>0.000000</speed>
</trkpt>
<trkpt lat="55.736790" lon="26.218662">
<ele>130.072388</ele>
<time>2010-07-18T07:28:29Z</time>
<desc>lat.=55.736790, lon.=26.218662, Alt.=130.072388m. Speed=0.036000m/h.</desc>
<speed>0.010000</speed>
</trkpt>
<trkpt lat="55.736790" lon="26.218662">
<ele>130.072388</ele>
<time>2010-07-18T07:28:30Z</time>
<desc>lat.=55.736790, lon.=26.218662, Alt.=130.072388m. Speed=0.036000m/h.</desc>
<speed>0.010000</speed>
</trkpt>
<trkpt lat="55.736790" lon="26.218662">
<ele>130.068481</ele>
<time>2010-07-18T07:28:31Z</time>
<desc>lat.=55.736790, lon.=26.218662, Alt.=130.068481m. Speed=0.036000m/h.</desc>
<speed>0.010000</speed>
</trkpt>
<trkpt lat="55.736790" lon="26.218662">
<ele>130.060669</ele>
<time>2010-07-18T07:28:32Z</time>
<desc>lat.=55.736790, lon.=26.218662, Alt.=130.060669m. Speed=0.324000m/h.</desc>
<speed>0.090000</speed>
</trkpt>
<trkpt lat="55.736790" lon="26.218662">
<ele>130.056763</ele>
<time>2010-07-18T07:28:33Z</time>
<desc>lat.=55.736790, lon.=26.218662, Alt.=130.056763m. Speed=0.072000m/h.</desc>
<speed>0.020000</speed>
</trkpt>
<trkpt lat="55.736790" lon="26.218662">
<ele>130.052856</ele>
<time>2010-07-18T07:28:34Z</time>
<desc>lat.=55.736790, lon.=26.218662, Alt.=130.052856m. Speed=0.036000m/h.</desc>
<speed>0.010000</speed>
</trkpt>
<trkpt lat="55.736790" lon="26.218662">
<ele>130.048950</ele>
<time>2010-07-18T07:28:35Z</time>
<desc>lat.=55.736790, lon.=26.218662, Alt.=130.048950m. Speed=0.000000m/h.</desc>
<speed>0.000000</speed>
</trkpt>
<trkpt lat="55.736790" lon="26.218660">
<ele>130.045044</ele>
<time>2010-07-18T07:28:36Z</time>
<desc>lat.=55.736790, lon.=26.218660, Alt.=130.045044m. Speed=0.036000m/h.</desc>
<speed>0.010000</speed>
</trkpt>
<trkpt lat="55.736790" lon="26.218660">
<ele>130.041138</ele>
<time>2010-07-18T07:28:37Z</time>
<desc>lat.=55.736790, lon.=26.218660, Alt.=130.041138m. Speed=0.000000m/h.</desc>
<speed>0.000000</speed>
</trkpt>
<trkpt lat="55.736790" lon="26.218660">
<ele>130.041138</ele>
<time>2010-07-18T07:28:38Z</time>
<desc>lat.=55.736790, lon.=26.218660, Alt.=130.041138m. Speed=0.000000m/h.</desc>
<speed>0.000000</speed>
</trkpt>
<trkpt lat="55.736790" lon="26.218660">
<ele>130.041138</ele>
<time>2010-07-18T07:28:39Z</time>
<desc>lat.=55.736790, lon.=26.218660, Alt.=130.041138m. Speed=0.000000m/h.</desc>
<speed>0.000000</speed>
</trkpt>
<trkpt lat="55.736790" lon="26.218660">
<ele>130.037231</ele>
<time>2010-07-18T07:28:40Z</time>
<desc>lat.=55.736790, lon.=26.218660, Alt.=130.037231m. Speed=0.000000m/h.</desc>
<speed>0.000000</speed>
</trkpt>
<trkpt lat="55.736790" lon="26.218660">
<ele>130.033325</ele>
<time>2010-07-18T07:28:41Z</time>
<desc>lat.=55.736790, lon.=26.218660, Alt.=130.033325m. Speed=0.000000m/h.</desc>
<speed>0.000000</speed>
</trkpt>
<trkpt lat="55.736790" lon="26.218660">
<ele>130.033325</ele>
<time>2010-07-18T07:28:42Z</time>
<desc>lat.=55.736790, lon.=26.218660, Alt.=130.033325m. Speed=0.000000m/h.</desc>
<speed>0.000000</speed>
</trkpt>
<trkpt lat="55.736790" lon="26.218660">
<ele>130.029419</ele>
<time>2010-07-18T07:28:43Z</time>
<desc>lat.=55.736790, lon.=26.218660, Alt.=130.029419m. Speed=0.000000m/h.</desc>
<speed>0.000000</speed>
</trkpt>
<trkpt lat="55.736790" lon="26.218660">
<ele>130.029419</ele>
<time>2010-07-18T07:28:44Z</time>
<desc>lat.=55.736790, lon.=26.218660, Alt.=130.029419m. Speed=0.036000m/h.</desc>
<speed>0.010000</speed>
</trkpt>
<trkpt lat="55.736790" lon="26.218660">
<ele>130.025513</ele>
<time>2010-07-18T07:28:45Z</time>
<desc>lat.=55.736790, lon.=26.218660, Alt.=130.025513m. Speed=0.000000m/h.</desc>
<speed>0.000000</speed>
</trkpt>
<trkpt lat="55.736790" lon="26.218660">
<ele>130.021606</ele>
<time>2010-07-18T07:28:46Z</time>
<desc>lat.=55.736790, lon.=26.218660, Alt.=130.021606m. Speed=0.000000m/h.</desc>
<speed>0.000000</speed>
</trkpt>
<trkpt lat="55.736790" lon="26.218660">
<ele>130.021606</ele>
<time>2010-07-18T07:28:47Z</time>
<desc>lat.=55.736790, lon.=26.218660, Alt.=130.021606m. Speed=0.036000m/h.</desc>
<speed>0.010000</speed>
</trkpt>
<trkpt lat="55.736790" lon="26.218660">
<ele>130.017700</ele>
<time>2010-07-18T07:28:48Z</time>
<desc>lat.=55.736790, lon.=26.218660, Alt.=130.017700m. Speed=0.000000m/h.</desc>
<speed>0.000000</speed>
</trkpt>
<trkpt lat="55.736790" lon="26.218660">
<ele>130.017700</ele>
<time>2010-07-18T07:28:49Z</time>
<desc>lat.=55.736790, lon.=26.218660, Alt.=130.017700m. Speed=0.000000m/h.</desc>
<speed>0.000000</speed>
</trkpt>
<trkpt lat="55.736790" lon="26.218660">
<ele>130.017700</ele>
<time>2010-07-18T07:28:50Z</time>
<desc>lat.=55.736790, lon.=26.218660, Alt.=130.017700m. Speed=0.000000m/h.</desc>
<speed>0.000000</speed>
</trkpt>
<trkpt lat="55.736790" lon="26.218660">
<ele>130.013794</ele>
<time>2010-07-18T07:28:51Z</time>
<desc>lat.=55.736790, lon.=26.218660, Alt.=130.013794m. Speed=0.036000m/h.</desc>
<speed>0.010000</speed>
</trkpt>
<trkpt lat="55.736790" lon="26.218660">
<ele>130.009888</ele>
<time>2010-07-18T07:28:52Z</time>
<desc>lat.=55.736790, lon.=26.218660, Alt.=130.009888m. Speed=0.000000m/h.</desc>
<speed>0.000000</speed>
</trkpt>
<trkpt lat="55.736790" lon="26.218660">
<ele>130.005981</ele>
<time>2010-07-18T07:28:53Z</time>
<desc>lat.=55.736790, lon.=26.218660, Alt.=130.005981m. Speed=0.000000m/h.</desc>
<speed>0.000000</speed>
</trkpt>
<trkpt lat="55.736790" lon="26.218660">
<ele>130.005981</ele>
<time>2010-07-18T07:28:54Z</time>
<desc>lat.=55.736790, lon.=26.218660, Alt.=130.005981m. Speed=0.036000m/h.</desc>
<speed>0.010000</speed>
</trkpt>
<trkpt lat="55.736790" lon="26.218660">
<ele>130.002075</ele>
<time>2010-07-18T07:28:55Z</time>
<desc>lat.=55.736790, lon.=26.218660, Alt.=130.002075m. Speed=0.000000m/h.</desc>
<speed>0.000000</speed>
</trkpt>
<trkpt lat="55.736790" lon="26.218660">
<ele>130.002075</ele>
<time>2010-07-18T07:28:56Z</time>
<desc>lat.=55.736790, lon.=26.218660, Alt.=130.002075m. Speed=0.000000m/h.</desc>
<speed>0.000000</speed>
</trkpt>
<trkpt lat="55.736790" lon="26.218660">
<ele>129.998169</ele>
<time>2010-07-18T07:28:57Z</time>
<desc>lat.=55.736790, lon.=26.218660, Alt.=129.998169m. Speed=0.000000m/h.</desc>
<speed>0.000000</speed>
</trkpt>
<trkpt lat="55.736790" lon="26.218660">
<ele>129.994263</ele>
<time>2010-07-18T07:28:58Z</time>
<desc>lat.=55.736790, lon.=26.218660, Alt.=129.994263m. Speed=0.036000m/h.</desc>
<speed>0.010000</speed>
</trkpt>
<trkpt lat="55.736790" lon="26.218660">
<ele>129.990356</ele>
<time>2010-07-18T07:28:59Z</time>
<desc>lat.=55.736790, lon.=26.218660, Alt.=129.990356m. Speed=0.000000m/h.</desc>
<speed>0.000000</speed>
</trkpt>
<trkpt lat="55.736790" lon="26.218660">
<ele>129.990356</ele>
<time>2010-07-18T07:29:00Z</time>
<desc>lat.=55.736790, lon.=26.218660, Alt.=129.990356m. Speed=0.036000m/h.</desc>
<speed>0.010000</speed>
</trkpt>
<trkpt lat="55.736790" lon="26.218660">
<ele>129.986450</ele>
<time>2010-07-18T07:29:01Z</time>
<desc>lat.=55.736790, lon.=26.218660, Alt.=129.986450m. Speed=0.036000m/h.</desc>
<speed>0.010000</speed>
</trkpt>
<trkpt lat="55.736790" lon="26.218660">
<ele>129.982544</ele>
<time>2010-07-18T07:29:02Z</time>
<desc>lat.=55.736790, lon.=26.218660, Alt.=129.982544m. Speed=0.036000m/h.</desc>
<speed>0.010000</speed>
</trkpt>
<trkpt lat="55.736790" lon="26.218660">
<ele>129.982544</ele>
<time>2010-07-18T07:29:03Z</time>
<desc>lat.=55.736790, lon.=26.218660, Alt.=129.982544m. Speed=0.036000m/h.</desc>
<speed>0.010000</speed>
</trkpt>
<trkpt lat="55.736790" lon="26.218660">
<ele>129.978638</ele>
<time>2010-07-18T07:29:04Z</time>
<desc>lat.=55.736790, lon.=26.218660, Alt.=129.978638m. Speed=0.036000m/h.</desc>
<speed>0.010000</speed>
</trkpt>
<trkpt lat="55.736790" lon="26.218660">
<ele>129.974731</ele>
<time>2010-07-18T07:29:05Z</time>
<desc>lat.=55.736790, lon.=26.218660, Alt.=129.974731m. Speed=0.036000m/h.</desc>
<speed>0.010000</speed>
</trkpt>
<trkpt lat="55.736790" lon="26.218660">
<ele>129.974731</ele>
<time>2010-07-18T07:29:06Z</time>
<desc>lat.=55.736790, lon.=26.218660, Alt.=129.974731m. Speed=0.000000m/h.</desc>
<speed>0.000000</speed>
</trkpt>
<trkpt lat="55.736790" lon="26.218660">
<ele>129.970825</ele>
<time>2010-07-18T07:29:07Z</time>
<desc>lat.=55.736790, lon.=26.218660, Alt.=129.970825m. Speed=0.000000m/h.</desc>
<speed>0.000000</speed>
</trkpt>
<trkpt lat="55.736790" lon="26.218660">
<ele>129.966919</ele>
<time>2010-07-18T07:29:08Z</time>
<desc>lat.=55.736790, lon.=26.218660, Alt.=129.966919m. Speed=0.000000m/h.</desc>
<speed>0.000000</speed>
</trkpt>
<trkpt lat="55.736790" lon="26.218660">
<ele>129.963013</ele>
<time>2010-07-18T07:29:09Z</time>
<desc>lat.=55.736790, lon.=26.218660, Alt.=129.963013m. Speed=0.036000m/h.</desc>
<speed>0.010000</speed>
</trkpt>
<trkpt lat="55.736790" lon="26.218660">
<ele>129.959106</ele>
<time>2010-07-18T07:29:10Z</time>
<desc>lat.=55.736790, lon.=26.218660, Alt.=129.959106m. Speed=0.000000m/h.</desc>
<speed>0.000000</speed>
</trkpt>
<trkpt lat="55.736790" lon="26.218660">
<ele>129.955200</ele>
<time>2010-07-18T07:29:11Z</time>
<desc>lat.=55.736790, lon.=26.218660, Alt.=129.955200m. Speed=0.036000m/h.</desc>
<speed>0.010000</speed>
</trkpt>
<trkpt lat="55.736790" lon="26.218660">
<ele>129.955200</ele>
<time>2010-07-18T07:29:12Z</time>
<desc>lat.=55.736790, lon.=26.218660, Alt.=129.955200m. Speed=0.000000m/h.</desc>
<speed>0.000000</speed>
</trkpt>
<trkpt lat="55.736790" lon="26.218660">
<ele>129.951294</ele>
<time>2010-07-18T07:29:13Z</time>
<desc>lat.=55.736790, lon.=26.218660, Alt.=129.951294m. Speed=0.000000m/h.</desc>
<speed>0.000000</speed>
</trkpt>
<trkpt lat="55.736790" lon="26.218660">
<ele>129.943481</ele>
<time>2010-07-18T07:29:14Z</time>
<desc>lat.=55.736790, lon.=26.218660, Alt.=129.943481m. Speed=0.000000m/h.</desc>
<speed>0.000000</speed>
</trkpt>
<trkpt lat="55.736786" lon="26.218660">
<ele>129.943481</ele>
<time>2010-07-18T07:29:15Z</time>
<desc>lat.=55.736786, lon.=26.218660, Alt.=129.943481m. Speed=0.036000m/h.</desc>
<speed>0.010000</speed>
</trkpt>
<trkpt lat="55.736786" lon="26.218660">
<ele>129.939575</ele>
<time>2010-07-18T07:29:16Z</time>
<desc>lat.=55.736786, lon.=26.218660, Alt.=129.939575m. Speed=0.000000m/h.</desc>
<speed>0.000000</speed>
</trkpt>
<trkpt lat="55.736786" lon="26.218660">
<ele>129.935669</ele>
<time>2010-07-18T07:29:17Z</time>
<desc>lat.=55.736786, lon.=26.218660, Alt.=129.935669m. Speed=0.000000m/h.</desc>
<speed>0.000000</speed>
</trkpt>
<trkpt lat="55.736786" lon="26.218660">
<ele>129.931763</ele>
<time>2010-07-18T07:29:18Z</time>
<desc>lat.=55.736786, lon.=26.218660, Alt.=129.931763m. Speed=0.036000m/h.</desc>
<speed>0.010000</speed>
</trkpt>
<trkpt lat="55.736786" lon="26.218660">
<ele>129.927856</ele>
<time>2010-07-18T07:29:19Z</time>
<desc>lat.=55.736786, lon.=26.218660, Alt.=129.927856m. Speed=0.036000m/h.</desc>
<speed>0.010000</speed>
</trkpt>
<trkpt lat="55.736786" lon="26.218660">
<ele>129.923950</ele>
<time>2010-07-18T07:29:20Z</time>
<desc>lat.=55.736786, lon.=26.218660, Alt.=129.923950m. Speed=0.036000m/h.</desc>
<speed>0.010000</speed>
</trkpt>
<trkpt lat="55.736786" lon="26.218660">
<ele>129.920044</ele>
<time>2010-07-18T07:29:21Z</time>
<desc>lat.=55.736786, lon.=26.218660, Alt.=129.920044m. Speed=0.036000m/h.</desc>
<speed>0.010000</speed>
</trkpt>
<trkpt lat="55.736786" lon="26.218660">
<ele>129.920044</ele>
<time>2010-07-18T07:29:22Z</time>
<desc>lat.=55.736786, lon.=26.218660, Alt.=129.920044m. Speed=0.000000m/h.</desc>
<speed>0.000000</speed>
</trkpt>
<trkpt lat="55.736786" lon="26.218660">
<ele>129.912231</ele>
<time>2010-07-18T07:29:23Z</time>
<desc>lat.=55.736786, lon.=26.218660, Alt.=129.912231m. Speed=0.072000m/h.</desc>
<speed>0.020000</speed>
</trkpt>
<trkpt lat="55.736786" lon="26.218660">
<ele>129.912231</ele>
<time>2010-07-18T07:29:24Z</time>
<desc>lat.=55.736786, lon.=26.218660, Alt.=129.912231m. Speed=0.000000m/h.</desc>
<speed>0.000000</speed>
</trkpt>
<trkpt lat="55.736786" lon="26.218660">
<ele>129.908325</ele>
<time>2010-07-18T07:29:25Z</time>
<desc>lat.=55.736786, lon.=26.218660, Alt.=129.908325m. Speed=0.000000m/h.</desc>
<speed>0.000000</speed>
</trkpt>
<trkpt lat="55.736786" lon="26.218660">
<ele>129.904419</ele>
<time>2010-07-18T07:29:26Z</time>
<desc>lat.=55.736786, lon.=26.218660, Alt.=129.904419m. Speed=0.000000m/h.</desc>
<speed>0.000000</speed>
</trkpt>
<trkpt lat="55.736786" lon="26.218660">
<ele>129.900513</ele>
<time>2010-07-18T07:29:27Z</time>
<desc>lat.=55.736786, lon.=26.218660, Alt.=129.900513m. Speed=0.036000m/h.</desc>
<speed>0.010000</speed>
</trkpt>
<trkpt lat="55.736786" lon="26.218660">
<ele>129.896606</ele>
<time>2010-07-18T07:29:28Z</time>
<desc>lat.=55.736786, lon.=26.218660, Alt.=129.896606m. Speed=0.000000m/h.</desc>
<speed>0.000000</speed>
</trkpt>
<trkpt lat="55.736786" lon="26.218660">
<ele>129.892700</ele>
<time>2010-07-18T07:29:29Z</time>
<desc>lat.=55.736786, lon.=26.218660, Alt.=129.892700m. Speed=0.000000m/h.</desc>
<speed>0.000000</speed>
</trkpt>
<trkpt lat="55.736786" lon="26.218660">
<ele>129.888794</ele>
<time>2010-07-18T07:29:30Z</time>
<desc>lat.=55.736786, lon.=26.218660, Alt.=129.888794m. Speed=0.000000m/h.</desc>
<speed>0.000000</speed>
</trkpt>
<trkpt lat="55.736786" lon="26.218660">
<ele>129.884888</ele>
<time>2010-07-18T07:29:31Z</time>
<desc>lat.=55.736786, lon.=26.218660, Alt.=129.884888m. Speed=0.000000m/h.</desc>
<speed>0.000000</speed>
</trkpt>
<trkpt lat="55.736786" lon="26.218660">
<ele>129.884888</ele>
<time>2010-07-18T07:29:32Z</time>
<desc>lat.=55.736786, lon.=26.218660, Alt.=129.884888m. Speed=0.000000m/h.</desc>
<speed>0.000000</speed>
</trkpt>
<trkpt lat="55.736786" lon="26.218660">
<ele>129.880981</ele>
<time>2010-07-18T07:29:33Z</time>
<desc>lat.=55.736786, lon.=26.218660, Alt.=129.880981m. Speed=0.000000m/h.</desc>
<speed>0.000000</speed>
</trkpt>
<trkpt lat="55.736786" lon="26.218660">
<ele>129.877075</ele>
<time>2010-07-18T07:29:34Z</time>
<desc>lat.=55.736786, lon.=26.218660, Alt.=129.877075m. Speed=0.000000m/h.</desc>
<speed>0.000000</speed>
</trkpt>
<trkpt lat="55.736786" lon="26.218660">
<ele>129.873169</ele>
<time>2010-07-18T07:29:35Z</time>
<desc>lat.=55.736786, lon.=26.218660, Alt.=129.873169m. Speed=0.000000m/h.</desc>
<speed>0.000000</speed>
</trkpt>
<trkpt lat="55.736786" lon="26.218660">
<ele>129.869263</ele>
<time>2010-07-18T07:29:36Z</time>
<desc>lat.=55.736786, lon.=26.218660, Alt.=129.869263m. Speed=0.000000m/h.</desc>
<speed>0.000000</speed>
</trkpt>
<trkpt lat="55.736786" lon="26.218660">
<ele>129.865356</ele>
<time>2010-07-18T07:29:37Z</time>
<desc>lat.=55.736786, lon.=26.218660, Alt.=129.865356m. Speed=0.000000m/h.</desc>
<speed>0.000000</speed>
</trkpt>
<trkpt lat="55.736786" lon="26.218660">
<ele>129.861450</ele>
<time>2010-07-18T07:29:38Z</time>
<desc>lat.=55.736786, lon.=26.218660, Alt.=129.861450m. Speed=0.000000m/h.</desc>
<speed>0.000000</speed>
</trkpt>
<trkpt lat="55.736786" lon="26.218660">
<ele>129.861450</ele>
<time>2010-07-18T07:29:39Z</time>
<desc>lat.=55.736786, lon.=26.218660, Alt.=129.861450m. Speed=0.000000m/h.</desc>
<speed>0.000000</speed>
</trkpt>
<trkpt lat="55.736786" lon="26.218660">
<ele>129.857544</ele>
<time>2010-07-18T07:29:40Z</time>
<desc>lat.=55.736786, lon.=26.218660, Alt.=129.857544m. Speed=0.000000m/h.</desc>
<speed>0.000000</speed>
</trkpt>
<trkpt lat="55.736786" lon="26.218660">
<ele>129.853638</ele>
<time>2010-07-18T07:29:41Z</time>
<desc>lat.=55.736786, lon.=26.218660, Alt.=129.853638m. Speed=0.000000m/h.</desc>
<speed>0.000000</speed>
</trkpt>
<trkpt lat="55.736786" lon="26.218660">
<ele>129.853638</ele>
<time>2010-07-18T07:29:42Z</time>
<desc>lat.=55.736786, lon.=26.218660, Alt.=129.853638m. Speed=0.000000m/h.</desc>
<speed>0.000000</speed>
</trkpt>
<trkpt lat="55.736786" lon="26.218660">
<ele>129.849731</ele>
<time>2010-07-18T07:29:43Z</time>
<desc>lat.=55.736786, lon.=26.218660, Alt.=129.849731m. Speed=0.000000m/h.</desc>
<speed>0.000000</speed>
</trkpt>
<trkpt lat="55.736786" lon="26.218660">
<ele>129.849731</ele>
<time>2010-07-18T07:29:44Z</time>
<desc>lat.=55.736786, lon.=26.218660, Alt.=129.849731m. Speed=0.000000m/h.</desc>
<speed>0.000000</speed>
</trkpt>
<trkpt lat="55.736786" lon="26.218660">
<ele>129.845825</ele>
<time>2010-07-18T07:29:45Z</time>
<desc>lat.=55.736786, lon.=26.218660, Alt.=129.845825m. Speed=0.000000m/h.</desc>
<speed>0.000000</speed>
</trkpt>
<trkpt lat="55.736786" lon="26.218660">
<ele>129.841919</ele>
<time>2010-07-18T07:29:46Z</time>
<desc>lat.=55.736786, lon.=26.218660, Alt.=129.841919m. Speed=0.000000m/h.</desc>
<speed>0.000000</speed>
</trkpt>
<trkpt lat="55.736786" lon="26.218660">
<ele>129.841919</ele>
<time>2010-07-18T07:29:47Z</time>
<desc>lat.=55.736786, lon.=26.218660, Alt.=129.841919m. Speed=0.000000m/h.</desc>
<speed>0.000000</speed>
</trkpt>
<trkpt lat="55.736786" lon="26.218660">
<ele>129.838013</ele>
<time>2010-07-18T07:29:48Z</time>
<desc>lat.=55.736786, lon.=26.218660, Alt.=129.838013m. Speed=0.000000m/h.</desc>
<speed>0.000000</speed>
</trkpt>
<trkpt lat="55.736786" lon="26.218660">
<ele>129.834106</ele>
<time>2010-07-18T07:29:49Z</time>
<desc>lat.=55.736786, lon.=26.218660, Alt.=129.834106m. Speed=0.000000m/h.</desc>
<speed>0.000000</speed>
</trkpt>
<trkpt lat="55.736786" lon="26.218660">
<ele>129.834106</ele>
<time>2010-07-18T07:29:50Z</time>
<desc>lat.=55.736786, lon.=26.218660, Alt.=129.834106m. Speed=0.036000m/h.</desc>
<speed>0.010000</speed>
</trkpt>
<trkpt lat="55.736786" lon="26.218660">
<ele>129.834106</ele>
<time>2010-07-18T07:29:51Z</time>
<desc>lat.=55.736786, lon.=26.218660, Alt.=129.834106m. Speed=0.000000m/h.</desc>
<speed>0.000000</speed>
</trkpt>
<trkpt lat="55.736786" lon="26.218660">
<ele>129.830200</ele>
<time>2010-07-18T07:29:52Z</time>
<desc>lat.=55.736786, lon.=26.218660, Alt.=129.830200m. Speed=0.000000m/h.</desc>
<speed>0.000000</speed>
</trkpt>
<trkpt lat="55.736786" lon="26.218660">
<ele>129.830200</ele>
<time>2010-07-18T07:29:53Z</time>
<desc>lat.=55.736786, lon.=26.218660, Alt.=129.830200m. Speed=0.000000m/h.</desc>
<speed>0.000000</speed>
</trkpt>
<trkpt lat="55.736786" lon="26.218660">
<ele>129.826294</ele>
<time>2010-07-18T07:29:54Z</time>
<desc>lat.=55.736786, lon.=26.218660, Alt.=129.826294m. Speed=0.000000m/h.</desc>
<speed>0.000000</speed>
</trkpt>
<trkpt lat="55.736786" lon="26.218660">
<ele>129.822388</ele>
<time>2010-07-18T07:29:55Z</time>
<desc>lat.=55.736786, lon.=26.218660, Alt.=129.822388m. Speed=0.000000m/h.</desc>
<speed>0.000000</speed>
</trkpt>
<trkpt lat="55.736786" lon="26.218660">
<ele>129.818481</ele>
<time>2010-07-18T07:29:56Z</time>
<desc>lat.=55.736786, lon.=26.218660, Alt.=129.818481m. Speed=0.036000m/h.</desc>
<speed>0.010000</speed>
</trkpt>
<trkpt lat="55.736786" lon="26.218660">
<ele>129.818481</ele>
<time>2010-07-18T07:29:57Z</time>
<desc>lat.=55.736786, lon.=26.218660, Alt.=129.818481m. Speed=0.000000m/h.</desc>
<speed>0.000000</speed>
</trkpt>
<trkpt lat="55.736786" lon="26.218660">
<ele>129.818481</ele>
<time>2010-07-18T07:29:58Z</time>
<desc>lat.=55.736786, lon.=26.218660, Alt.=129.818481m. Speed=0.036000m/h.</desc>
<speed>0.010000</speed>
</trkpt>
<trkpt lat="55.736786" lon="26.218660">
<ele>129.814575</ele>
<time>2010-07-18T07:29:59Z</time>
<desc>lat.=55.736786, lon.=26.218660, Alt.=129.814575m. Speed=0.036000m/h.</desc>
<speed>0.010000</speed>
</trkpt>
<trkpt lat="55.736786" lon="26.218660">
<ele>129.810669</ele>
<time>2010-07-18T07:30:00Z</time>
<desc>lat.=55.736786, lon.=26.218660, Alt.=129.810669m. Speed=0.000000m/h.</desc>
<speed>0.000000</speed>
</trkpt>
<trkpt lat="55.736786" lon="26.218660">
<ele>129.806763</ele>
<time>2010-07-18T07:30:01Z</time>
<desc>lat.=55.736786, lon.=26.218660, Alt.=129.806763m. Speed=0.000000m/h.</desc>
<speed>0.000000</speed>
</trkpt>
<trkpt lat="55.736786" lon="26.218660">
<ele>129.802856</ele>
<time>2010-07-18T07:30:02Z</time>
<desc>lat.=55.736786, lon.=26.218660, Alt.=129.802856m. Speed=0.000000m/h.</desc>
<speed>0.000000</speed>
</trkpt>
<trkpt lat="55.736786" lon="26.218660">
<ele>129.798950</ele>
<time>2010-07-18T07:30:03Z</time>
<desc>lat.=55.736786, lon.=26.218660, Alt.=129.798950m. Speed=0.000000m/h.</desc>
<speed>0.000000</speed>
</trkpt>
<trkpt lat="55.736786" lon="26.218660">
<ele>129.798950</ele>
<time>2010-07-18T07:30:04Z</time>
<desc>lat.=55.736786, lon.=26.218660, Alt.=129.798950m. Speed=0.000000m/h.</desc>
<speed>0.000000</speed>
</trkpt>
<trkpt lat="55.736786" lon="26.218660">
<ele>129.795044</ele>
<time>2010-07-18T07:30:05Z</time>
<desc>lat.=55.736786, lon.=26.218660, Alt.=129.795044m. Speed=0.000000m/h.</desc>
<speed>0.000000</speed>
</trkpt>
<trkpt lat="55.736786" lon="26.218660">
<ele>129.791138</ele>
<time>2010-07-18T07:30:06Z</time>
<desc>lat.=55.736786, lon.=26.218660, Alt.=129.791138m. Speed=0.000000m/h.</desc>
<speed>0.000000</speed>
</trkpt>
<trkpt lat="55.736786" lon="26.218660">
<ele>129.791138</ele>
<time>2010-07-18T07:30:07Z</time>
<desc>lat.=55.736786, lon.=26.218660, Alt.=129.791138m. Speed=0.000000m/h.</desc>
<speed>0.000000</speed>
</trkpt>
<trkpt lat="55.736786" lon="26.218660">
<ele>129.787231</ele>
<time>2010-07-18T07:30:08Z</time>
<desc>lat.=55.736786, lon.=26.218660, Alt.=129.787231m. Speed=0.000000m/h.</desc>
<speed>0.000000</speed>
</trkpt>
<trkpt lat="55.736786" lon="26.218660">
<ele>129.783325</ele>
<time>2010-07-18T07:30:09Z</time>
<desc>lat.=55.736786, lon.=26.218660, Alt.=129.783325m. Speed=0.000000m/h.</desc>
<speed>0.000000</speed>
</trkpt>
<trkpt lat="55.736786" lon="26.218660">
<ele>129.783325</ele>
<time>2010-07-18T07:30:10Z</time>
<desc>lat.=55.736786, lon.=26.218660, Alt.=129.783325m. Speed=0.000000m/h.</desc>
<speed>0.000000</speed>
</trkpt>
<trkpt lat="55.736786" lon="26.218660">
<ele>129.779419</ele>
<time>2010-07-18T07:30:11Z</time>
<desc>lat.=55.736786, lon.=26.218660, Alt.=129.779419m. Speed=0.000000m/h.</desc>
<speed>0.000000</speed>
</trkpt>
<trkpt lat="55.736786" lon="26.218660">
<ele>129.779419</ele>
<time>2010-07-18T07:30:12Z</time>
<desc>lat.=55.736786, lon.=26.218660, Alt.=129.779419m. Speed=0.036000m/h.</desc>
<speed>0.010000</speed>
</trkpt>
<trkpt lat="55.736786" lon="26.218660">
<ele>129.775513</ele>
<time>2010-07-18T07:30:13Z</time>
<desc>lat.=55.736786, lon.=26.218660, Alt.=129.775513m. Speed=0.000000m/h.</desc>
<speed>0.000000</speed>
</trkpt>
<trkpt lat="55.736786" lon="26.218660">
<ele>129.775513</ele>
<time>2010-07-18T07:30:14Z</time>
<desc>lat.=55.736786, lon.=26.218660, Alt.=129.775513m. Speed=0.000000m/h.</desc>
<speed>0.000000</speed>
</trkpt>
<trkpt lat="55.736786" lon="26.218660">
<ele>129.775513</ele>
<time>2010-07-18T07:30:15Z</time>
<desc>lat.=55.736786, lon.=26.218660, Alt.=129.775513m. Speed=0.000000m/h.</desc>
<speed>0.000000</speed>
</trkpt>
<trkpt lat="55.736786" lon="26.218660">
<ele>129.771606</ele>
<time>2010-07-18T07:30:16Z</time>
<desc>lat.=55.736786, lon.=26.218660, Alt.=129.771606m. Speed=0.000000m/h.</desc>
<speed>0.000000</speed>
</trkpt>
<trkpt lat="55.736786" lon="26.218660">
<ele>129.767700</ele>
<time>2010-07-18T07:30:17Z</time>
<desc>lat.=55.736786, lon.=26.218660, Alt.=129.767700m. Speed=0.000000m/h.</desc>
<speed>0.000000</speed>
</trkpt>
<trkpt lat="55.736786" lon="26.218660">
<ele>129.767700</ele>
<time>2010-07-18T07:30:18Z</time>
<desc>lat.=55.736786, lon.=26.218660, Alt.=129.767700m. Speed=0.000000m/h.</desc>
<speed>0.000000</speed>
</trkpt>
<trkpt lat="55.736786" lon="26.218660">
<ele>129.767700</ele>
<time>2010-07-18T07:30:19Z</time>
<desc>lat.=55.736786, lon.=26.218660, Alt.=129.767700m. Speed=0.000000m/h.</desc>
<speed>0.000000</speed>
</trkpt>
<trkpt lat="55.736786" lon="26.218660">
<ele>129.763794</ele>
<time>2010-07-18T07:30:20Z</time>
<desc>lat.=55.736786, lon.=26.218660, Alt.=129.763794m. Speed=0.000000m/h.</desc>
<speed>0.000000</speed>
</trkpt>
<trkpt lat="55.736786" lon="26.218660">
<ele>129.763794</ele>
<time>2010-07-18T07:30:21Z</time>
<desc>lat.=55.736786, lon.=26.218660, Alt.=129.763794m. Speed=0.000000m/h.</desc>
<speed>0.000000</speed>
</trkpt>
<trkpt lat="55.736786" lon="26.218660">
<ele>129.759888</ele>
<time>2010-07-18T07:30:22Z</time>
<desc>lat.=55.736786, lon.=26.218660, Alt.=129.759888m. Speed=0.000000m/h.</desc>
<speed>0.000000</speed>
</trkpt>
<trkpt lat="55.736786" lon="26.218660">
<ele>129.759888</ele>
<time>2010-07-18T07:30:23Z</time>
<desc>lat.=55.736786, lon.=26.218660, Alt.=129.759888m. Speed=0.000000m/h.</desc>
<speed>0.000000</speed>
</trkpt>
<trkpt lat="55.736786" lon="26.218660">
<ele>129.752075</ele>
<time>2010-07-18T07:30:24Z</time>
<desc>lat.=55.736786, lon.=26.218660, Alt.=129.752075m. Speed=0.000000m/h.</desc>
<speed>0.000000</speed>
</trkpt>
<trkpt lat="55.736786" lon="26.218660">
<ele>129.748169</ele>
<time>2010-07-18T07:30:25Z</time>
<desc>lat.=55.736786, lon.=26.218660, Alt.=129.748169m. Speed=0.000000m/h.</desc>
<speed>0.000000</speed>
</trkpt>
<trkpt lat="55.736786" lon="26.218660">
<ele>129.744263</ele>
<time>2010-07-18T07:30:26Z</time>
<desc>lat.=55.736786, lon.=26.218660, Alt.=129.744263m. Speed=0.036000m/h.</desc>
<speed>0.010000</speed>
</trkpt>
<trkpt lat="55.736786" lon="26.218660">
<ele>129.744263</ele>
<time>2010-07-18T07:30:27Z</time>
<desc>lat.=55.736786, lon.=26.218660, Alt.=129.744263m. Speed=0.000000m/h.</desc>
<speed>0.000000</speed>
</trkpt>
<trkpt lat="55.736786" lon="26.218660">
<ele>129.740356</ele>
<time>2010-07-18T07:30:28Z</time>
<desc>lat.=55.736786, lon.=26.218660, Alt.=129.740356m. Speed=0.036000m/h.</desc>
<speed>0.010000</speed>
</trkpt>
<trkpt lat="55.736786" lon="26.218660">
<ele>129.736450</ele>
<time>2010-07-18T07:30:29Z</time>
<desc>lat.=55.736786, lon.=26.218660, Alt.=129.736450m. Speed=0.036000m/h.</desc>
<speed>0.010000</speed>
</trkpt>
<trkpt lat="55.736786" lon="26.218660">
<ele>129.732544</ele>
<time>2010-07-18T07:30:30Z</time>
<desc>lat.=55.736786, lon.=26.218660, Alt.=129.732544m. Speed=0.036000m/h.</desc>
<speed>0.010000</speed>
</trkpt>
<trkpt lat="55.736786" lon="26.218660">
<ele>129.732544</ele>
<time>2010-07-18T07:30:31Z</time>
<desc>lat.=55.736786, lon.=26.218660, Alt.=129.732544m. Speed=0.036000m/h.</desc>
<speed>0.010000</speed>
</trkpt>
<trkpt lat="55.736786" lon="26.218660">
<ele>129.728638</ele>
<time>2010-07-18T07:30:32Z</time>
<desc>lat.=55.736786, lon.=26.218660, Alt.=129.728638m. Speed=0.000000m/h.</desc>
<speed>0.000000</speed>
</trkpt>
<trkpt lat="55.736786" lon="26.218660">
<ele>129.728638</ele>
<time>2010-07-18T07:30:33Z</time>
<desc>lat.=55.736786, lon.=26.218660, Alt.=129.728638m. Speed=0.000000m/h.</desc>
<speed>0.000000</speed>
</trkpt>
<trkpt lat="55.736786" lon="26.218660">
<ele>129.724731</ele>
<time>2010-07-18T07:30:34Z</time>
<desc>lat.=55.736786, lon.=26.218660, Alt.=129.724731m. Speed=0.000000m/h.</desc>
<speed>0.000000</speed>
</trkpt>
<trkpt lat="55.736786" lon="26.218660">
<ele>129.724731</ele>
<time>2010-07-18T07:30:35Z</time>
<desc>lat.=55.736786, lon.=26.218660, Alt.=129.724731m. Speed=0.036000m/h.</desc>
<speed>0.010000</speed>
</trkpt>
<trkpt lat="55.736786" lon="26.218660">
<ele>129.720825</ele>
<time>2010-07-18T07:30:36Z</time>
<desc>lat.=55.736786, lon.=26.218660, Alt.=129.720825m. Speed=0.000000m/h.</desc>
<speed>0.000000</speed>
</trkpt>
<trkpt lat="55.736786" lon="26.218660">
<ele>129.716919</ele>
<time>2010-07-18T07:30:37Z</time>
<desc>lat.=55.736786, lon.=26.218660, Alt.=129.716919m. Speed=0.072000m/h.</desc>
<speed>0.020000</speed>
</trkpt>
<trkpt lat="55.736786" lon="26.218660">
<ele>129.716919</ele>
<time>2010-07-18T07:30:38Z</time>
<desc>lat.=55.736786, lon.=26.218660, Alt.=129.716919m. Speed=0.036000m/h.</desc>
<speed>0.010000</speed>
</trkpt>
<trkpt lat="55.736786" lon="26.218660">
<ele>129.713013</ele>
<time>2010-07-18T07:30:39Z</time>
<desc>lat.=55.736786, lon.=26.218660, Alt.=129.713013m. Speed=0.036000m/h.</desc>
<speed>0.010000</speed>
</trkpt>
<trkpt lat="55.736786" lon="26.218660">
<ele>129.716919</ele>
<time>2010-07-18T07:30:40Z</time>
<desc>lat.=55.736786, lon.=26.218660, Alt.=129.716919m. Speed=0.360000m/h.</desc>
<speed>0.100000</speed>
</trkpt>
<trkpt lat="55.736786" lon="26.218660">
<ele>129.720825</ele>
<time>2010-07-18T07:30:41Z</time>
<desc>lat.=55.736786, lon.=26.218660, Alt.=129.720825m. Speed=0.252000m/h.</desc>
<speed>0.070000</speed>
</trkpt>
<trkpt lat="55.736786" lon="26.218660">
<ele>129.798950</ele>
<time>2010-07-18T07:30:42Z</time>
<desc>lat.=55.736786, lon.=26.218660, Alt.=129.798950m. Speed=0.072000m/h.</desc>
<speed>0.020000</speed>
</trkpt>
<trkpt lat="55.736786" lon="26.218660">
<ele>129.802856</ele>
<time>2010-07-18T07:30:43Z</time>
<desc>lat.=55.736786, lon.=26.218660, Alt.=129.802856m. Speed=0.000000m/h.</desc>
<speed>0.000000</speed>
</trkpt>
<trkpt lat="55.736786" lon="26.218660">
<ele>129.798950</ele>
<time>2010-07-18T07:30:44Z</time>
<desc>lat.=55.736786, lon.=26.218660, Alt.=129.798950m. Speed=0.036000m/h.</desc>
<speed>0.010000</speed>
</trkpt>
<trkpt lat="55.736786" lon="26.218660">
<ele>129.795044</ele>
<time>2010-07-18T07:30:45Z</time>
<desc>lat.=55.736786, lon.=26.218660, Alt.=129.795044m. Speed=0.036000m/h.</desc>
<speed>0.010000</speed>
</trkpt>
<trkpt lat="55.736786" lon="26.218660">
<ele>129.791138</ele>
<time>2010-07-18T07:30:46Z</time>
<desc>lat.=55.736786, lon.=26.218660, Alt.=129.791138m. Speed=0.000000m/h.</desc>
<speed>0.000000</speed>
</trkpt>
<trkpt lat="55.736786" lon="26.218660">
<ele>129.783325</ele>
<time>2010-07-18T07:30:47Z</time>
<desc>lat.=55.736786, lon.=26.218660, Alt.=129.783325m. Speed=0.000000m/h.</desc>
<speed>0.000000</speed>
</trkpt>
<trkpt lat="55.736786" lon="26.218660">
<ele>129.783325</ele>
<time>2010-07-18T07:30:48Z</time>
<desc>lat.=55.736786, lon.=26.218660, Alt.=129.783325m. Speed=0.000000m/h.</desc>
<speed>0.000000</speed>
</trkpt>
<trkpt lat="55.736786" lon="26.218660">
<ele>129.779419</ele>
<time>2010-07-18T07:30:49Z</time>
<desc>lat.=55.736786, lon.=26.218660, Alt.=129.779419m. Speed=0.000000m/h.</desc>
<speed>0.000000</speed>
</trkpt>
<trkpt lat="55.736786" lon="26.218660">
<ele>129.779419</ele>
<time>2010-07-18T07:30:50Z</time>
<desc>lat.=55.736786, lon.=26.218660, Alt.=129.779419m. Speed=0.000000m/h.</desc>
<speed>0.000000</speed>
</trkpt>
<trkpt lat="55.736786" lon="26.218660">
<ele>129.775513</ele>
<time>2010-07-18T07:30:51Z</time>
<desc>lat.=55.736786, lon.=26.218660, Alt.=129.775513m. Speed=0.000000m/h.</desc>
<speed>0.000000</speed>
</trkpt>
<trkpt lat="55.736786" lon="26.218660">
<ele>129.771606</ele>
<time>2010-07-18T07:30:52Z</time>
<desc>lat.=55.736786, lon.=26.218660, Alt.=129.771606m. Speed=0.036000m/h.</desc>
<speed>0.010000</speed>
</trkpt>
<trkpt lat="55.736786" lon="26.218660">
<ele>129.771606</ele>
<time>2010-07-18T07:30:53Z</time>
<desc>lat.=55.736786, lon.=26.218660, Alt.=129.771606m. Speed=0.000000m/h.</desc>
<speed>0.000000</speed>
</trkpt>
<trkpt lat="55.736786" lon="26.218660">
<ele>129.767700</ele>
<time>2010-07-18T07:30:54Z</time>
<desc>lat.=55.736786, lon.=26.218660, Alt.=129.767700m. Speed=0.000000m/h.</desc>
<speed>0.000000</speed>
</trkpt>
<trkpt lat="55.736786" lon="26.218660">
<ele>129.763794</ele>
<time>2010-07-18T07:30:55Z</time>
<desc>lat.=55.736786, lon.=26.218660, Alt.=129.763794m. Speed=0.000000m/h.</desc>
<speed>0.000000</speed>
</trkpt>
<trkpt lat="55.736786" lon="26.218660">
<ele>129.763794</ele>
<time>2010-07-18T07:30:56Z</time>
<desc>lat.=55.736786, lon.=26.218660, Alt.=129.763794m. Speed=0.000000m/h.</desc>
<speed>0.000000</speed>
</trkpt>
<trkpt lat="55.736786" lon="26.218660">
<ele>129.759888</ele>
<time>2010-07-18T07:30:57Z</time>
<desc>lat.=55.736786, lon.=26.218660, Alt.=129.759888m. Speed=0.000000m/h.</desc>
<speed>0.000000</speed>
</trkpt>
<trkpt lat="55.736786" lon="26.218660">
<ele>129.759888</ele>
<time>2010-07-18T07:30:58Z</time>
<desc>lat.=55.736786, lon.=26.218660, Alt.=129.759888m. Speed=0.000000m/h.</desc>
<speed>0.000000</speed>
</trkpt>
<trkpt lat="55.736786" lon="26.218660">
<ele>129.755981</ele>
<time>2010-07-18T07:30:59Z</time>
<desc>lat.=55.736786, lon.=26.218660, Alt.=129.755981m. Speed=0.000000m/h.</desc>
<speed>0.000000</speed>
</trkpt>
<trkpt lat="55.736786" lon="26.218660">
<ele>129.755981</ele>
<time>2010-07-18T07:31:00Z</time>
<desc>lat.=55.736786, lon.=26.218660, Alt.=129.755981m. Speed=0.000000m/h.</desc>
<speed>0.000000</speed>
</trkpt>
<trkpt lat="55.736786" lon="26.218660">
<ele>129.755981</ele>
<time>2010-07-18T07:31:01Z</time>
<desc>lat.=55.736786, lon.=26.218660, Alt.=129.755981m. Speed=0.000000m/h.</desc>
<speed>0.000000</speed>
</trkpt>
<trkpt lat="55.736786" lon="26.218660">
<ele>129.755981</ele>
<time>2010-07-18T07:31:02Z</time>
<desc>lat.=55.736786, lon.=26.218660, Alt.=129.755981m. Speed=0.000000m/h.</desc>
<speed>0.000000</speed>
</trkpt>
<trkpt lat="55.736786" lon="26.218660">
<ele>129.755981</ele>
<time>2010-07-18T07:31:03Z</time>
<desc>lat.=55.736786, lon.=26.218660, Alt.=129.755981m. Speed=0.000000m/h.</desc>
<speed>0.000000</speed>
</trkpt>
<trkpt lat="55.736786" lon="26.218660">
<ele>129.759888</ele>
<time>2010-07-18T07:31:04Z</time>
<desc>lat.=55.736786, lon.=26.218660, Alt.=129.759888m. Speed=0.000000m/h.</desc>
<speed>0.000000</speed>
</trkpt>
<trkpt lat="55.736786" lon="26.218660">
<ele>129.759888</ele>
<time>2010-07-18T07:31:05Z</time>
<desc>lat.=55.736786, lon.=26.218660, Alt.=129.759888m. Speed=0.000000m/h.</desc>
<speed>0.000000</speed>
</trkpt>
<trkpt lat="55.736786" lon="26.218660">
<ele>129.759888</ele>
<time>2010-07-18T07:31:06Z</time>
<desc>lat.=55.736786, lon.=26.218660, Alt.=129.759888m. Speed=0.000000m/h.</desc>
<speed>0.000000</speed>
</trkpt>
<trkpt lat="55.736786" lon="26.218660">
<ele>129.763794</ele>
<time>2010-07-18T07:31:07Z</time>
<desc>lat.=55.736786, lon.=26.218660, Alt.=129.763794m. Speed=0.036000m/h.</desc>
<speed>0.010000</speed>
</trkpt>
<trkpt lat="55.736786" lon="26.218660">
<ele>129.763794</ele>
<time>2010-07-18T07:31:08Z</time>
<desc>lat.=55.736786, lon.=26.218660, Alt.=129.763794m. Speed=0.000000m/h.</desc>
<speed>0.000000</speed>
</trkpt>
<trkpt lat="55.736786" lon="26.218660">
<ele>129.763794</ele>
<time>2010-07-18T07:31:09Z</time>
<desc>lat.=55.736786, lon.=26.218660, Alt.=129.763794m. Speed=0.000000m/h.</desc>
<speed>0.000000</speed>
</trkpt>
<trkpt lat="55.736786" lon="26.218660">
<ele>129.763794</ele>
<time>2010-07-18T07:31:10Z</time>
<desc>lat.=55.736786, lon.=26.218660, Alt.=129.763794m. Speed=0.000000m/h.</desc>
<speed>0.000000</speed>
</trkpt>
<trkpt lat="55.736786" lon="26.218660">
<ele>129.763794</ele>
<time>2010-07-18T07:31:11Z</time>
<desc>lat.=55.736786, lon.=26.218660, Alt.=129.763794m. Speed=0.000000m/h.</desc>
<speed>0.000000</speed>
</trkpt>
<trkpt lat="55.736786" lon="26.218660">
<ele>129.763794</ele>
<time>2010-07-18T07:31:12Z</time>
<desc>lat.=55.736786, lon.=26.218660, Alt.=129.763794m. Speed=0.000000m/h.</desc>
<speed>0.000000</speed>
</trkpt>
<trkpt lat="55.736786" lon="26.218660">
<ele>129.759888</ele>
<time>2010-07-18T07:31:13Z</time>
<desc>lat.=55.736786, lon.=26.218660, Alt.=129.759888m. Speed=0.000000m/h.</desc>
<speed>0.000000</speed>
</trkpt>
<trkpt lat="55.736782" lon="26.218660">
<ele>129.763794</ele>
<time>2010-07-18T07:31:14Z</time>
<desc>lat.=55.736782, lon.=26.218660, Alt.=129.763794m. Speed=0.000000m/h.</desc>
<speed>0.000000</speed>
</trkpt>
<trkpt lat="55.736782" lon="26.218660">
<ele>129.763794</ele>
<time>2010-07-18T07:31:15Z</time>
<desc>lat.=55.736782, lon.=26.218660, Alt.=129.763794m. Speed=0.000000m/h.</desc>
<speed>0.000000</speed>
</trkpt>
<trkpt lat="55.736782" lon="26.218660">
<ele>129.763794</ele>
<time>2010-07-18T07:31:16Z</time>
<desc>lat.=55.736782, lon.=26.218660, Alt.=129.763794m. Speed=0.000000m/h.</desc>
<speed>0.000000</speed>
</trkpt>
<trkpt lat="55.736782" lon="26.218660">
<ele>129.763794</ele>
<time>2010-07-18T07:31:17Z</time>
<desc>lat.=55.736782, lon.=26.218660, Alt.=129.763794m. Speed=0.000000m/h.</desc>
<speed>0.000000</speed>
</trkpt>
<trkpt lat="55.736782" lon="26.218660">
<ele>129.767700</ele>
<time>2010-07-18T07:31:18Z</time>
<desc>lat.=55.736782, lon.=26.218660, Alt.=129.767700m. Speed=0.000000m/h.</desc>
<speed>0.000000</speed>
</trkpt>
<trkpt lat="55.736782" lon="26.218660">
<ele>129.767700</ele>
<time>2010-07-18T07:31:19Z</time>
<desc>lat.=55.736782, lon.=26.218660, Alt.=129.767700m. Speed=0.000000m/h.</desc>
<speed>0.000000</speed>
</trkpt>
<trkpt lat="55.736782" lon="26.218660">
<ele>129.767700</ele>
<time>2010-07-18T07:31:20Z</time>
<desc>lat.=55.736782, lon.=26.218660, Alt.=129.767700m. Speed=0.000000m/h.</desc>
<speed>0.000000</speed>
</trkpt>
<trkpt lat="55.736782" lon="26.218660">
<ele>129.771606</ele>
<time>2010-07-18T07:31:21Z</time>
<desc>lat.=55.736782, lon.=26.218660, Alt.=129.771606m. Speed=0.000000m/h.</desc>
<speed>0.000000</speed>
</trkpt>
<trkpt lat="55.736782" lon="26.218660">
<ele>129.775513</ele>
<time>2010-07-18T07:31:22Z</time>
<desc>lat.=55.736782, lon.=26.218660, Alt.=129.775513m. Speed=0.072000m/h.</desc>
<speed>0.020000</speed>
</trkpt>
<trkpt lat="55.736782" lon="26.218660">
<ele>129.779419</ele>
<time>2010-07-18T07:31:23Z</time>
<desc>lat.=55.736782, lon.=26.218660, Alt.=129.779419m. Speed=0.000000m/h.</desc>
<speed>0.000000</speed>
</trkpt>
<trkpt lat="55.736782" lon="26.218660">
<ele>129.779419</ele>
<time>2010-07-18T07:31:24Z</time>
<desc>lat.=55.736782, lon.=26.218660, Alt.=129.779419m. Speed=0.000000m/h.</desc>
<speed>0.000000</speed>
</trkpt>
<trkpt lat="55.736782" lon="26.218660">
<ele>129.779419</ele>
<time>2010-07-18T07:31:25Z</time>
<desc>lat.=55.736782, lon.=26.218660, Alt.=129.779419m. Speed=0.036000m/h.</desc>
<speed>0.010000</speed>
</trkpt>
<trkpt lat="55.736782" lon="26.218660">
<ele>129.783325</ele>
<time>2010-07-18T07:31:26Z</time>
<desc>lat.=55.736782, lon.=26.218660, Alt.=129.783325m. Speed=0.000000m/h.</desc>
<speed>0.000000</speed>
</trkpt>
<trkpt lat="55.736782" lon="26.218660">
<ele>129.783325</ele>
<time>2010-07-18T07:31:27Z</time>
<desc>lat.=55.736782, lon.=26.218660, Alt.=129.783325m. Speed=0.036000m/h.</desc>
<speed>0.010000</speed>
</trkpt>
<trkpt lat="55.736782" lon="26.218660">
<ele>129.783325</ele>
<time>2010-07-18T07:31:28Z</time>
<desc>lat.=55.736782, lon.=26.218660, Alt.=129.783325m. Speed=0.072000m/h.</desc>
<speed>0.020000</speed>
</trkpt>
<trkpt lat="55.736782" lon="26.218660">
<ele>129.783325</ele>
<time>2010-07-18T07:31:29Z</time>
<desc>lat.=55.736782, lon.=26.218660, Alt.=129.783325m. Speed=0.036000m/h.</desc>
<speed>0.010000</speed>
</trkpt>
<trkpt lat="55.736782" lon="26.218660">
<ele>129.783325</ele>
<time>2010-07-18T07:31:30Z</time>
<desc>lat.=55.736782, lon.=26.218660, Alt.=129.783325m. Speed=0.036000m/h.</desc>
<speed>0.010000</speed>
</trkpt>
<trkpt lat="55.736782" lon="26.218660">
<ele>129.783325</ele>
<time>2010-07-18T07:31:31Z</time>
<desc>lat.=55.736782, lon.=26.218660, Alt.=129.783325m. Speed=0.036000m/h.</desc>
<speed>0.010000</speed>
</trkpt>
<trkpt lat="55.736782" lon="26.218660">
<ele>129.783325</ele>
<time>2010-07-18T07:31:32Z</time>
<desc>lat.=55.736782, lon.=26.218660, Alt.=129.783325m. Speed=0.000000m/h.</desc>
<speed>0.000000</speed>
</trkpt>
<trkpt lat="55.736782" lon="26.218660">
<ele>129.783325</ele>
<time>2010-07-18T07:31:33Z</time>
<desc>lat.=55.736782, lon.=26.218660, Alt.=129.783325m. Speed=0.036000m/h.</desc>
<speed>0.010000</speed>
</trkpt>
<trkpt lat="55.736782" lon="26.218662">
<ele>129.783325</ele>
<time>2010-07-18T07:31:34Z</time>
<desc>lat.=55.736782, lon.=26.218662, Alt.=129.783325m. Speed=0.000000m/h.</desc>
<speed>0.000000</speed>
</trkpt>
<trkpt lat="55.736782" lon="26.218662">
<ele>129.779419</ele>
<time>2010-07-18T07:31:35Z</time>
<desc>lat.=55.736782, lon.=26.218662, Alt.=129.779419m. Speed=0.000000m/h.</desc>
<speed>0.000000</speed>
</trkpt>
<trkpt lat="55.736782" lon="26.218662">
<ele>129.779419</ele>
<time>2010-07-18T07:31:36Z</time>
<desc>lat.=55.736782, lon.=26.218662, Alt.=129.779419m. Speed=0.000000m/h.</desc>
<speed>0.000000</speed>
</trkpt>
<trkpt lat="55.736782" lon="26.218662">
<ele>129.779419</ele>
<time>2010-07-18T07:31:37Z</time>
<desc>lat.=55.736782, lon.=26.218662, Alt.=129.779419m. Speed=0.000000m/h.</desc>
<speed>0.000000</speed>
</trkpt>
<trkpt lat="55.736782" lon="26.218662">
<ele>129.779419</ele>
<time>2010-07-18T07:31:38Z</time>
<desc>lat.=55.736782, lon.=26.218662, Alt.=129.779419m. Speed=0.000000m/h.</desc>
<speed>0.000000</speed>
</trkpt>
<trkpt lat="55.736782" lon="26.218662">
<ele>129.779419</ele>
<time>2010-07-18T07:31:39Z</time>
<desc>lat.=55.736782, lon.=26.218662, Alt.=129.779419m. Speed=0.000000m/h.</desc>
<speed>0.000000</speed>
</trkpt>
<trkpt lat="55.736782" lon="26.218662">
<ele>129.779419</ele>
<time>2010-07-18T07:31:40Z</time>
<desc>lat.=55.736782, lon.=26.218662, Alt.=129.779419m. Speed=0.000000m/h.</desc>
<speed>0.000000</speed>
</trkpt>
<trkpt lat="55.736782" lon="26.218662">
<ele>129.779419</ele>
<time>2010-07-18T07:31:41Z</time>
<desc>lat.=55.736782, lon.=26.218662, Alt.=129.779419m. Speed=0.000000m/h.</desc>
<speed>0.000000</speed>
</trkpt>
<trkpt lat="55.736782" lon="26.218662">
<ele>129.779419</ele>
<time>2010-07-18T07:31:42Z</time>
<desc>lat.=55.736782, lon.=26.218662, Alt.=129.779419m. Speed=0.000000m/h.</desc>
<speed>0.000000</speed>
</trkpt>
<trkpt lat="55.736782" lon="26.218662">
<ele>129.779419</ele>
<time>2010-07-18T07:31:43Z</time>
<desc>lat.=55.736782, lon.=26.218662, Alt.=129.779419m. Speed=0.000000m/h.</desc>
<speed>0.000000</speed>
</trkpt>
<trkpt lat="55.736782" lon="26.218662">
<ele>129.783325</ele>
<time>2010-07-18T07:31:44Z</time>
<desc>lat.=55.736782, lon.=26.218662, Alt.=129.783325m. Speed=0.000000m/h.</desc>
<speed>0.000000</speed>
</trkpt>
<trkpt lat="55.736782" lon="26.218662">
<ele>129.783325</ele>
<time>2010-07-18T07:31:45Z</time>
<desc>lat.=55.736782, lon.=26.218662, Alt.=129.783325m. Speed=0.000000m/h.</desc>
<speed>0.000000</speed>
</trkpt>
<trkpt lat="55.736782" lon="26.218662">
<ele>129.783325</ele>
<time>2010-07-18T07:31:46Z</time>
<desc>lat.=55.736782, lon.=26.218662, Alt.=129.783325m. Speed=0.000000m/h.</desc>
<speed>0.000000</speed>
</trkpt>
<trkpt lat="55.736782" lon="26.218662">
<ele>129.783325</ele>
<time>2010-07-18T07:31:47Z</time>
<desc>lat.=55.736782, lon.=26.218662, Alt.=129.783325m. Speed=0.000000m/h.</desc>
<speed>0.000000</speed>
</trkpt>
<trkpt lat="55.736782" lon="26.218662">
<ele>129.783325</ele>
<time>2010-07-18T07:31:48Z</time>
<desc>lat.=55.736782, lon.=26.218662, Alt.=129.783325m. Speed=0.000000m/h.</desc>
<speed>0.000000</speed>
</trkpt>
<trkpt lat="55.736782" lon="26.218662">
<ele>129.783325</ele>
<time>2010-07-18T07:31:49Z</time>
<desc>lat.=55.736782, lon.=26.218662, Alt.=129.783325m. Speed=0.036000m/h.</desc>
<speed>0.010000</speed>
</trkpt>
<trkpt lat="55.736782" lon="26.218662">
<ele>129.783325</ele>
<time>2010-07-18T07:31:50Z</time>
<desc>lat.=55.736782, lon.=26.218662, Alt.=129.783325m. Speed=0.036000m/h.</desc>
<speed>0.010000</speed>
</trkpt>
<trkpt lat="55.736782" lon="26.218662">
<ele>129.783325</ele>
<time>2010-07-18T07:31:51Z</time>
<desc>lat.=55.736782, lon.=26.218662, Alt.=129.783325m. Speed=0.000000m/h.</desc>
<speed>0.000000</speed>
</trkpt>
<trkpt lat="55.736782" lon="26.218662">
<ele>129.787231</ele>
<time>2010-07-18T07:31:52Z</time>
<desc>lat.=55.736782, lon.=26.218662, Alt.=129.787231m. Speed=0.000000m/h.</desc>
<speed>0.000000</speed>
</trkpt>
<trkpt lat="55.736782" lon="26.218662">
<ele>129.787231</ele>
<time>2010-07-18T07:31:53Z</time>
<desc>lat.=55.736782, lon.=26.218662, Alt.=129.787231m. Speed=0.000000m/h.</desc>
<speed>0.000000</speed>
</trkpt>
<trkpt lat="55.736782" lon="26.218662">
<ele>129.791138</ele>
<time>2010-07-18T07:31:54Z</time>
<desc>lat.=55.736782, lon.=26.218662, Alt.=129.791138m. Speed=0.000000m/h.</desc>
<speed>0.000000</speed>
</trkpt>
<trkpt lat="55.736782" lon="26.218662">
<ele>129.795044</ele>
<time>2010-07-18T07:31:55Z</time>
<desc>lat.=55.736782, lon.=26.218662, Alt.=129.795044m. Speed=0.036000m/h.</desc>
<speed>0.010000</speed>
</trkpt>
<trkpt lat="55.736782" lon="26.218662">
<ele>129.795044</ele>
<time>2010-07-18T07:31:56Z</time>
<desc>lat.=55.736782, lon.=26.218662, Alt.=129.795044m. Speed=0.000000m/h.</desc>
<speed>0.000000</speed>
</trkpt>
<trkpt lat="55.736782" lon="26.218662">
<ele>129.798950</ele>
<time>2010-07-18T07:31:57Z</time>
<desc>lat.=55.736782, lon.=26.218662, Alt.=129.798950m. Speed=0.000000m/h.</desc>
<speed>0.000000</speed>
</trkpt>
<trkpt lat="55.736782" lon="26.218662">
<ele>129.798950</ele>
<time>2010-07-18T07:31:58Z</time>
<desc>lat.=55.736782, lon.=26.218662, Alt.=129.798950m. Speed=0.000000m/h.</desc>
<speed>0.000000</speed>
</trkpt>
<trkpt lat="55.736782" lon="26.218662">
<ele>129.802856</ele>
<time>2010-07-18T07:31:59Z</time>
<desc>lat.=55.736782, lon.=26.218662, Alt.=129.802856m. Speed=0.000000m/h.</desc>
<speed>0.000000</speed>
</trkpt>
<trkpt lat="55.736782" lon="26.218662">
<ele>129.802856</ele>
<time>2010-07-18T07:32:00Z</time>
<desc>lat.=55.736782, lon.=26.218662, Alt.=129.802856m. Speed=0.000000m/h.</desc>
<speed>0.000000</speed>
</trkpt>
<trkpt lat="55.736782" lon="26.218662">
<ele>129.806763</ele>
<time>2010-07-18T07:32:01Z</time>
<desc>lat.=55.736782, lon.=26.218662, Alt.=129.806763m. Speed=0.000000m/h.</desc>
<speed>0.000000</speed>
</trkpt>
<trkpt lat="55.736782" lon="26.218662">
<ele>129.810669</ele>
<time>2010-07-18T07:32:02Z</time>
<desc>lat.=55.736782, lon.=26.218662, Alt.=129.810669m. Speed=0.036000m/h.</desc>
<speed>0.010000</speed>
</trkpt>
<trkpt lat="55.736782" lon="26.218662">
<ele>129.810669</ele>
<time>2010-07-18T07:32:03Z</time>
<desc>lat.=55.736782, lon.=26.218662, Alt.=129.810669m. Speed=0.000000m/h.</desc>
<speed>0.000000</speed>
</trkpt>
<trkpt lat="55.736782" lon="26.218662">
<ele>129.814575</ele>
<time>2010-07-18T07:32:04Z</time>
<desc>lat.=55.736782, lon.=26.218662, Alt.=129.814575m. Speed=0.000000m/h.</desc>
<speed>0.000000</speed>
</trkpt>
<trkpt lat="55.736782" lon="26.218662">
<ele>129.818481</ele>
<time>2010-07-18T07:32:05Z</time>
<desc>lat.=55.736782, lon.=26.218662, Alt.=129.818481m. Speed=0.000000m/h.</desc>
<speed>0.000000</speed>
</trkpt>
<trkpt lat="55.736782" lon="26.218662">
<ele>129.814575</ele>
<time>2010-07-18T07:32:06Z</time>
<desc>lat.=55.736782, lon.=26.218662, Alt.=129.814575m. Speed=0.000000m/h.</desc>
<speed>0.000000</speed>
</trkpt>
<trkpt lat="55.736782" lon="26.218662">
<ele>129.818481</ele>
<time>2010-07-18T07:32:07Z</time>
<desc>lat.=55.736782, lon.=26.218662, Alt.=129.818481m. Speed=0.000000m/h.</desc>
<speed>0.000000</speed>
</trkpt>
<trkpt lat="55.736782" lon="26.218662">
<ele>129.818481</ele>
<time>2010-07-18T07:32:08Z</time>
<desc>lat.=55.736782, lon.=26.218662, Alt.=129.818481m. Speed=0.036000m/h.</desc>
<speed>0.010000</speed>
</trkpt>
<trkpt lat="55.736782" lon="26.218664">
<ele>129.818481</ele>
<time>2010-07-18T07:32:09Z</time>
<desc>lat.=55.736782, lon.=26.218664, Alt.=129.818481m. Speed=0.036000m/h.</desc>
<speed>0.010000</speed>
</trkpt>
<trkpt lat="55.736782" lon="26.218664">
<ele>129.822388</ele>
<time>2010-07-18T07:32:10Z</time>
<desc>lat.=55.736782, lon.=26.218664, Alt.=129.822388m. Speed=0.036000m/h.</desc>
<speed>0.010000</speed>
</trkpt>
<trkpt lat="55.736782" lon="26.218664">
<ele>129.826294</ele>
<time>2010-07-18T07:32:11Z</time>
<desc>lat.=55.736782, lon.=26.218664, Alt.=129.826294m. Speed=0.000000m/h.</desc>
<speed>0.000000</speed>
</trkpt>
<trkpt lat="55.736782" lon="26.218664">
<ele>129.826294</ele>
<time>2010-07-18T07:32:12Z</time>
<desc>lat.=55.736782, lon.=26.218664, Alt.=129.826294m. Speed=0.000000m/h.</desc>
<speed>0.000000</speed>
</trkpt>
<trkpt lat="55.736782" lon="26.218664">
<ele>129.830200</ele>
<time>2010-07-18T07:32:13Z</time>
<desc>lat.=55.736782, lon.=26.218664, Alt.=129.830200m. Speed=0.000000m/h.</desc>
<speed>0.000000</speed>
</trkpt>
<trkpt lat="55.736782" lon="26.218664">
<ele>129.834106</ele>
<time>2010-07-18T07:32:14Z</time>
<desc>lat.=55.736782, lon.=26.218664, Alt.=129.834106m. Speed=0.000000m/h.</desc>
<speed>0.000000</speed>
</trkpt>
<trkpt lat="55.736782" lon="26.218664">
<ele>129.834106</ele>
<time>2010-07-18T07:32:15Z</time>
<desc>lat.=55.736782, lon.=26.218664, Alt.=129.834106m. Speed=0.000000m/h.</desc>
<speed>0.000000</speed>
</trkpt>
<trkpt lat="55.736782" lon="26.218664">
<ele>129.838013</ele>
<time>2010-07-18T07:32:16Z</time>
<desc>lat.=55.736782, lon.=26.218664, Alt.=129.838013m. Speed=0.000000m/h.</desc>
<speed>0.000000</speed>
</trkpt>
<trkpt lat="55.736782" lon="26.218664">
<ele>129.838013</ele>
<time>2010-07-18T07:32:17Z</time>
<desc>lat.=55.736782, lon.=26.218664, Alt.=129.838013m. Speed=0.036000m/h.</desc>
<speed>0.010000</speed>
</trkpt>
<trkpt lat="55.736782" lon="26.218664">
<ele>129.838013</ele>
<time>2010-07-18T07:32:18Z</time>
<desc>lat.=55.736782, lon.=26.218664, Alt.=129.838013m. Speed=0.000000m/h.</desc>
<speed>0.000000</speed>
</trkpt>
<trkpt lat="55.736782" lon="26.218664">
<ele>129.841919</ele>
<time>2010-07-18T07:32:19Z</time>
<desc>lat.=55.736782, lon.=26.218664, Alt.=129.841919m. Speed=0.000000m/h.</desc>
<speed>0.000000</speed>
</trkpt>
<trkpt lat="55.736782" lon="26.218664">
<ele>129.841919</ele>
<time>2010-07-18T07:32:20Z</time>
<desc>lat.=55.736782, lon.=26.218664, Alt.=129.841919m. Speed=0.000000m/h.</desc>
<speed>0.000000</speed>
</trkpt>
<trkpt lat="55.736782" lon="26.218664">
<ele>129.841919</ele>
<time>2010-07-18T07:32:21Z</time>
<desc>lat.=55.736782, lon.=26.218664, Alt.=129.841919m. Speed=0.000000m/h.</desc>
<speed>0.000000</speed>
</trkpt>
<trkpt lat="55.736782" lon="26.218664">
<ele>129.841919</ele>
<time>2010-07-18T07:32:22Z</time>
<desc>lat.=55.736782, lon.=26.218664, Alt.=129.841919m. Speed=0.000000m/h.</desc>
<speed>0.000000</speed>
</trkpt>
<trkpt lat="55.736782" lon="26.218664">
<ele>129.841919</ele>
<time>2010-07-18T07:32:23Z</time>
<desc>lat.=55.736782, lon.=26.218664, Alt.=129.841919m. Speed=0.000000m/h.</desc>
<speed>0.000000</speed>
</trkpt>
<trkpt lat="55.736782" lon="26.218664">
<ele>129.845825</ele>
<time>2010-07-18T07:32:24Z</time>
<desc>lat.=55.736782, lon.=26.218664, Alt.=129.845825m. Speed=0.000000m/h.</desc>
<speed>0.000000</speed>
</trkpt>
<trkpt lat="55.736782" lon="26.218664">
<ele>129.845825</ele>
<time>2010-07-18T07:32:25Z</time>
<desc>lat.=55.736782, lon.=26.218664, Alt.=129.845825m. Speed=0.000000m/h.</desc>
<speed>0.000000</speed>
</trkpt>
<trkpt lat="55.736782" lon="26.218664">
<ele>129.845825</ele>
<time>2010-07-18T07:32:26Z</time>
<desc>lat.=55.736782, lon.=26.218664, Alt.=129.845825m. Speed=0.000000m/h.</desc>
<speed>0.000000</speed>
</trkpt>
<trkpt lat="55.736782" lon="26.218664">
<ele>129.849731</ele>
<time>2010-07-18T07:32:27Z</time>
<desc>lat.=55.736782, lon.=26.218664, Alt.=129.849731m. Speed=0.000000m/h.</desc>
<speed>0.000000</speed>
</trkpt>
<trkpt lat="55.736782" lon="26.218664">
<ele>129.853638</ele>
<time>2010-07-18T07:32:28Z</time>
<desc>lat.=55.736782, lon.=26.218664, Alt.=129.853638m. Speed=0.000000m/h.</desc>
<speed>0.000000</speed>
</trkpt>
<trkpt lat="55.736782" lon="26.218664">
<ele>129.853638</ele>
<time>2010-07-18T07:32:29Z</time>
<desc>lat.=55.736782, lon.=26.218664, Alt.=129.853638m. Speed=0.000000m/h.</desc>
<speed>0.000000</speed>
</trkpt>
<trkpt lat="55.736782" lon="26.218664">
<ele>129.857544</ele>
<time>2010-07-18T07:32:30Z</time>
<desc>lat.=55.736782, lon.=26.218664, Alt.=129.857544m. Speed=0.000000m/h.</desc>
<speed>0.000000</speed>
</trkpt>
<trkpt lat="55.736782" lon="26.218664">
<ele>129.861450</ele>
<time>2010-07-18T07:32:31Z</time>
<desc>lat.=55.736782, lon.=26.218664, Alt.=129.861450m. Speed=0.000000m/h.</desc>
<speed>0.000000</speed>
</trkpt>
<trkpt lat="55.736782" lon="26.218664">
<ele>129.861450</ele>
<time>2010-07-18T07:32:32Z</time>
<desc>lat.=55.736782, lon.=26.218664, Alt.=129.861450m. Speed=0.000000m/h.</desc>
<speed>0.000000</speed>
</trkpt>
<trkpt lat="55.736782" lon="26.218664">
<ele>129.861450</ele>
<time>2010-07-18T07:32:33Z</time>
<desc>lat.=55.736782, lon.=26.218664, Alt.=129.861450m. Speed=0.000000m/h.</desc>
<speed>0.000000</speed>
</trkpt>
<trkpt lat="55.736782" lon="26.218664">
<ele>129.861450</ele>
<time>2010-07-18T07:32:34Z</time>
<desc>lat.=55.736782, lon.=26.218664, Alt.=129.861450m. Speed=0.000000m/h.</desc>
<speed>0.000000</speed>
</trkpt>
<trkpt lat="55.736782" lon="26.218664">
<ele>129.865356</ele>
<time>2010-07-18T07:32:35Z</time>
<desc>lat.=55.736782, lon.=26.218664, Alt.=129.865356m. Speed=0.000000m/h.</desc>
<speed>0.000000</speed>
</trkpt>
<trkpt lat="55.736782" lon="26.218664">
<ele>129.865356</ele>
<time>2010-07-18T07:32:36Z</time>
<desc>lat.=55.736782, lon.=26.218664, Alt.=129.865356m. Speed=0.000000m/h.</desc>
<speed>0.000000</speed>
</trkpt>
<trkpt lat="55.736782" lon="26.218664">
<ele>129.865356</ele>
<time>2010-07-18T07:32:37Z</time>
<desc>lat.=55.736782, lon.=26.218664, Alt.=129.865356m. Speed=0.000000m/h.</desc>
<speed>0.000000</speed>
</trkpt>
<trkpt lat="55.736782" lon="26.218664">
<ele>129.865356</ele>
<time>2010-07-18T07:32:38Z</time>
<desc>lat.=55.736782, lon.=26.218664, Alt.=129.865356m. Speed=0.000000m/h.</desc>
<speed>0.000000</speed>
</trkpt>
<trkpt lat="55.736782" lon="26.218664">
<ele>129.865356</ele>
<time>2010-07-18T07:32:39Z</time>
<desc>lat.=55.736782, lon.=26.218664, Alt.=129.865356m. Speed=0.000000m/h.</desc>
<speed>0.000000</speed>
</trkpt>
<trkpt lat="55.736782" lon="26.218664">
<ele>129.865356</ele>
<time>2010-07-18T07:32:40Z</time>
<desc>lat.=55.736782, lon.=26.218664, Alt.=129.865356m. Speed=0.000000m/h.</desc>
<speed>0.000000</speed>
</trkpt>
<trkpt lat="55.736782" lon="26.218664">
<ele>129.869263</ele>
<time>2010-07-18T07:32:41Z</time>
<desc>lat.=55.736782, lon.=26.218664, Alt.=129.869263m. Speed=0.000000m/h.</desc>
<speed>0.000000</speed>
</trkpt>
<trkpt lat="55.736782" lon="26.218664">
<ele>129.869263</ele>
<time>2010-07-18T07:32:42Z</time>
<desc>lat.=55.736782, lon.=26.218664, Alt.=129.869263m. Speed=0.000000m/h.</desc>
<speed>0.000000</speed>
</trkpt>
<trkpt lat="55.736782" lon="26.218664">
<ele>129.869263</ele>
<time>2010-07-18T07:32:43Z</time>
<desc>lat.=55.736782, lon.=26.218664, Alt.=129.869263m. Speed=0.000000m/h.</desc>
<speed>0.000000</speed>
</trkpt>
<trkpt lat="55.736782" lon="26.218664">
<ele>129.873169</ele>
<time>2010-07-18T07:32:44Z</time>
<desc>lat.=55.736782, lon.=26.218664, Alt.=129.873169m. Speed=0.000000m/h.</desc>
<speed>0.000000</speed>
</trkpt>
<trkpt lat="55.736782" lon="26.218664">
<ele>129.873169</ele>
<time>2010-07-18T07:32:45Z</time>
<desc>lat.=55.736782, lon.=26.218664, Alt.=129.873169m. Speed=0.000000m/h.</desc>
<speed>0.000000</speed>
</trkpt>
<trkpt lat="55.736782" lon="26.218664">
<ele>129.873169</ele>
<time>2010-07-18T07:32:46Z</time>
<desc>lat.=55.736782, lon.=26.218664, Alt.=129.873169m. Speed=0.000000m/h.</desc>
<speed>0.000000</speed>
</trkpt>
<trkpt lat="55.736782" lon="26.218664">
<ele>129.873169</ele>
<time>2010-07-18T07:32:47Z</time>
<desc>lat.=55.736782, lon.=26.218664, Alt.=129.873169m. Speed=0.000000m/h.</desc>
<speed>0.000000</speed>
</trkpt>
<trkpt lat="55.736782" lon="26.218664">
<ele>129.877075</ele>
<time>2010-07-18T07:32:48Z</time>
<desc>lat.=55.736782, lon.=26.218664, Alt.=129.877075m. Speed=0.000000m/h.</desc>
<speed>0.000000</speed>
</trkpt>
<trkpt lat="55.736782" lon="26.218664">
<ele>129.877075</ele>
<time>2010-07-18T07:32:49Z</time>
<desc>lat.=55.736782, lon.=26.218664, Alt.=129.877075m. Speed=0.000000m/h.</desc>
<speed>0.000000</speed>
</trkpt>
<trkpt lat="55.736782" lon="26.218662">
<ele>129.877075</ele>
<time>2010-07-18T07:32:50Z</time>
<desc>lat.=55.736782, lon.=26.218662, Alt.=129.877075m. Speed=0.000000m/h.</desc>
<speed>0.000000</speed>
</trkpt>
<trkpt lat="55.736782" lon="26.218662">
<ele>129.877075</ele>
<time>2010-07-18T07:32:51Z</time>
<desc>lat.=55.736782, lon.=26.218662, Alt.=129.877075m. Speed=0.000000m/h.</desc>
<speed>0.000000</speed>
</trkpt>
<trkpt lat="55.736782" lon="26.218662">
<ele>129.877075</ele>
<time>2010-07-18T07:32:52Z</time>
<desc>lat.=55.736782, lon.=26.218662, Alt.=129.877075m. Speed=0.000000m/h.</desc>
<speed>0.000000</speed>
</trkpt>
<trkpt lat="55.736782" lon="26.218662">
<ele>129.880981</ele>
<time>2010-07-18T07:32:53Z</time>
<desc>lat.=55.736782, lon.=26.218662, Alt.=129.880981m. Speed=0.000000m/h.</desc>
<speed>0.000000</speed>
</trkpt>
<trkpt lat="55.736782" lon="26.218662">
<ele>129.880981</ele>
<time>2010-07-18T07:32:54Z</time>
<desc>lat.=55.736782, lon.=26.218662, Alt.=129.880981m. Speed=0.000000m/h.</desc>
<speed>0.000000</speed>
</trkpt>
<trkpt lat="55.736782" lon="26.218662">
<ele>129.880981</ele>
<time>2010-07-18T07:32:55Z</time>
<desc>lat.=55.736782, lon.=26.218662, Alt.=129.880981m. Speed=0.000000m/h.</desc>
<speed>0.000000</speed>
</trkpt>
<trkpt lat="55.736782" lon="26.218664">
<ele>129.880981</ele>
<time>2010-07-18T07:32:56Z</time>
<desc>lat.=55.736782, lon.=26.218664, Alt.=129.880981m. Speed=0.036000m/h.</desc>
<speed>0.010000</speed>
</trkpt>
<trkpt lat="55.736782" lon="26.218664">
<ele>129.884888</ele>
<time>2010-07-18T07:32:57Z</time>
<desc>lat.=55.736782, lon.=26.218664, Alt.=129.884888m. Speed=0.000000m/h.</desc>
<speed>0.000000</speed>
</trkpt>
<trkpt lat="55.736782" lon="26.218664">
<ele>129.888794</ele>
<time>2010-07-18T07:32:58Z</time>
<desc>lat.=55.736782, lon.=26.218664, Alt.=129.888794m. Speed=0.000000m/h.</desc>
<speed>0.000000</speed>
</trkpt>
<trkpt lat="55.736782" lon="26.218664">
<ele>129.888794</ele>
<time>2010-07-18T07:32:59Z</time>
<desc>lat.=55.736782, lon.=26.218664, Alt.=129.888794m. Speed=0.000000m/h.</desc>
<speed>0.000000</speed>
</trkpt>
<trkpt lat="55.736782" lon="26.218664">
<ele>129.884888</ele>
<time>2010-07-18T07:33:00Z</time>
<desc>lat.=55.736782, lon.=26.218664, Alt.=129.884888m. Speed=0.000000m/h.</desc>
<speed>0.000000</speed>
</trkpt>
<trkpt lat="55.736782" lon="26.218664">
<ele>129.884888</ele>
<time>2010-07-18T07:33:01Z</time>
<desc>lat.=55.736782, lon.=26.218664, Alt.=129.884888m. Speed=0.000000m/h.</desc>
<speed>0.000000</speed>
</trkpt>
<trkpt lat="55.736782" lon="26.218664">
<ele>129.884888</ele>
<time>2010-07-18T07:33:02Z</time>
<desc>lat.=55.736782, lon.=26.218664, Alt.=129.884888m. Speed=0.000000m/h.</desc>
<speed>0.000000</speed>
</trkpt>
<trkpt lat="55.736782" lon="26.218664">
<ele>129.884888</ele>
<time>2010-07-18T07:33:03Z</time>
<desc>lat.=55.736782, lon.=26.218664, Alt.=129.884888m. Speed=0.000000m/h.</desc>
<speed>0.000000</speed>
</trkpt>
<trkpt lat="55.736782" lon="26.218664">
<ele>129.888794</ele>
<time>2010-07-18T07:33:04Z</time>
<desc>lat.=55.736782, lon.=26.218664, Alt.=129.888794m. Speed=0.000000m/h.</desc>
<speed>0.000000</speed>
</trkpt>
<trkpt lat="55.736782" lon="26.218664">
<ele>129.888794</ele>
<time>2010-07-18T07:33:05Z</time>
<desc>lat.=55.736782, lon.=26.218664, Alt.=129.888794m. Speed=0.000000m/h.</desc>
<speed>0.000000</speed>
</trkpt>
<trkpt lat="55.736782" lon="26.218664">
<ele>129.888794</ele>
<time>2010-07-18T07:33:06Z</time>
<desc>lat.=55.736782, lon.=26.218664, Alt.=129.888794m. Speed=0.000000m/h.</desc>
<speed>0.000000</speed>
</trkpt>
<trkpt lat="55.736782" lon="26.218662">
<ele>129.888794</ele>
<time>2010-07-18T07:33:07Z</time>
<desc>lat.=55.736782, lon.=26.218662, Alt.=129.888794m. Speed=0.000000m/h.</desc>
<speed>0.000000</speed>
</trkpt>
<trkpt lat="55.736782" lon="26.218662">
<ele>129.888794</ele>
<time>2010-07-18T07:33:08Z</time>
<desc>lat.=55.736782, lon.=26.218662, Alt.=129.888794m. Speed=0.000000m/h.</desc>
<speed>0.000000</speed>
</trkpt>
<trkpt lat="55.736782" lon="26.218662">
<ele>129.888794</ele>
<time>2010-07-18T07:33:09Z</time>
<desc>lat.=55.736782, lon.=26.218662, Alt.=129.888794m. Speed=0.000000m/h.</desc>
<speed>0.000000</speed>
</trkpt>
<trkpt lat="55.736782" lon="26.218662">
<ele>129.888794</ele>
<time>2010-07-18T07:33:10Z</time>
<desc>lat.=55.736782, lon.=26.218662, Alt.=129.888794m. Speed=0.000000m/h.</desc>
<speed>0.000000</speed>
</trkpt>
<trkpt lat="55.736782" lon="26.218662">
<ele>129.888794</ele>
<time>2010-07-18T07:33:11Z</time>
<desc>lat.=55.736782, lon.=26.218662, Alt.=129.888794m. Speed=0.000000m/h.</desc>
<speed>0.000000</speed>
</trkpt>
<trkpt lat="55.736782" lon="26.218662">
<ele>129.888794</ele>
<time>2010-07-18T07:33:12Z</time>
<desc>lat.=55.736782, lon.=26.218662, Alt.=129.888794m. Speed=0.000000m/h.</desc>
<speed>0.000000</speed>
</trkpt>
<trkpt lat="55.736782" lon="26.218662">
<ele>129.888794</ele>
<time>2010-07-18T07:33:13Z</time>
<desc>lat.=55.736782, lon.=26.218662, Alt.=129.888794m. Speed=0.000000m/h.</desc>
<speed>0.000000</speed>
</trkpt>
<trkpt lat="55.736782" lon="26.218662">
<ele>129.888794</ele>
<time>2010-07-18T07:33:14Z</time>
<desc>lat.=55.736782, lon.=26.218662, Alt.=129.888794m. Speed=0.000000m/h.</desc>
<speed>0.000000</speed>
</trkpt>
<trkpt lat="55.736782" lon="26.218662">
<ele>129.884888</ele>
<time>2010-07-18T07:33:15Z</time>
<desc>lat.=55.736782, lon.=26.218662, Alt.=129.884888m. Speed=0.036000m/h.</desc>
<speed>0.010000</speed>
</trkpt>
<trkpt lat="55.736782" lon="26.218662">
<ele>129.880981</ele>
<time>2010-07-18T07:33:16Z</time>
<desc>lat.=55.736782, lon.=26.218662, Alt.=129.880981m. Speed=0.000000m/h.</desc>
<speed>0.000000</speed>
</trkpt>
<trkpt lat="55.736782" lon="26.218662">
<ele>129.880981</ele>
<time>2010-07-18T07:33:17Z</time>
<desc>lat.=55.736782, lon.=26.218662, Alt.=129.880981m. Speed=0.000000m/h.</desc>
<speed>0.000000</speed>
</trkpt>
<trkpt lat="55.736782" lon="26.218662">
<ele>129.880981</ele>
<time>2010-07-18T07:33:18Z</time>
<desc>lat.=55.736782, lon.=26.218662, Alt.=129.880981m. Speed=0.000000m/h.</desc>
<speed>0.000000</speed>
</trkpt>
<trkpt lat="55.736782" lon="26.218662">
<ele>129.877075</ele>
<time>2010-07-18T07:33:19Z</time>
<desc>lat.=55.736782, lon.=26.218662, Alt.=129.877075m. Speed=0.000000m/h.</desc>
<speed>0.000000</speed>
</trkpt>
<trkpt lat="55.736782" lon="26.218662">
<ele>129.877075</ele>
<time>2010-07-18T07:33:20Z</time>
<desc>lat.=55.736782, lon.=26.218662, Alt.=129.877075m. Speed=0.000000m/h.</desc>
<speed>0.000000</speed>
</trkpt>
<trkpt lat="55.736782" lon="26.218662">
<ele>129.873169</ele>
<time>2010-07-18T07:33:21Z</time>
<desc>lat.=55.736782, lon.=26.218662, Alt.=129.873169m. Speed=0.000000m/h.</desc>
<speed>0.000000</speed>
</trkpt>
<trkpt lat="55.736782" lon="26.218662">
<ele>129.873169</ele>
<time>2010-07-18T07:33:22Z</time>
<desc>lat.=55.736782, lon.=26.218662, Alt.=129.873169m. Speed=0.000000m/h.</desc>
<speed>0.000000</speed>
</trkpt>
<trkpt lat="55.736782" lon="26.218662">
<ele>129.873169</ele>
<time>2010-07-18T07:33:23Z</time>
<desc>lat.=55.736782, lon.=26.218662, Alt.=129.873169m. Speed=0.000000m/h.</desc>
<speed>0.000000</speed>
</trkpt>
<trkpt lat="55.736782" lon="26.218662">
<ele>129.869263</ele>
<time>2010-07-18T07:33:24Z</time>
<desc>lat.=55.736782, lon.=26.218662, Alt.=129.869263m. Speed=0.000000m/h.</desc>
<speed>0.000000</speed>
</trkpt>
<trkpt lat="55.736782" lon="26.218662">
<ele>129.869263</ele>
<time>2010-07-18T07:33:25Z</time>
<desc>lat.=55.736782, lon.=26.218662, Alt.=129.869263m. Speed=0.000000m/h.</desc>
<speed>0.000000</speed>
</trkpt>
<trkpt lat="55.736782" lon="26.218662">
<ele>129.865356</ele>
<time>2010-07-18T07:33:26Z</time>
<desc>lat.=55.736782, lon.=26.218662, Alt.=129.865356m. Speed=0.000000m/h.</desc>
<speed>0.000000</speed>
</trkpt>
<trkpt lat="55.736782" lon="26.218662">
<ele>129.865356</ele>
<time>2010-07-18T07:33:27Z</time>
<desc>lat.=55.736782, lon.=26.218662, Alt.=129.865356m. Speed=0.000000m/h.</desc>
<speed>0.000000</speed>
</trkpt>
<trkpt lat="55.736782" lon="26.218662">
<ele>129.861450</ele>
<time>2010-07-18T07:33:28Z</time>
<desc>lat.=55.736782, lon.=26.218662, Alt.=129.861450m. Speed=0.000000m/h.</desc>
<speed>0.000000</speed>
</trkpt>
<trkpt lat="55.736782" lon="26.218662">
<ele>129.861450</ele>
<time>2010-07-18T07:33:29Z</time>
<desc>lat.=55.736782, lon.=26.218662, Alt.=129.861450m. Speed=0.072000m/h.</desc>
<speed>0.020000</speed>
</trkpt>
<trkpt lat="55.736782" lon="26.218662">
<ele>129.861450</ele>
<time>2010-07-18T07:33:30Z</time>
<desc>lat.=55.736782, lon.=26.218662, Alt.=129.861450m. Speed=0.036000m/h.</desc>
<speed>0.010000</speed>
</trkpt>
<trkpt lat="55.736782" lon="26.218662">
<ele>129.857544</ele>
<time>2010-07-18T07:33:31Z</time>
<desc>lat.=55.736782, lon.=26.218662, Alt.=129.857544m. Speed=0.036000m/h.</desc>
<speed>0.010000</speed>
</trkpt>
<trkpt lat="55.736782" lon="26.218662">
<ele>129.857544</ele>
<time>2010-07-18T07:33:32Z</time>
<desc>lat.=55.736782, lon.=26.218662, Alt.=129.857544m. Speed=0.000000m/h.</desc>
<speed>0.000000</speed>
</trkpt>
<trkpt lat="55.736782" lon="26.218662">
<ele>129.853638</ele>
<time>2010-07-18T07:33:33Z</time>
<desc>lat.=55.736782, lon.=26.218662, Alt.=129.853638m. Speed=0.000000m/h.</desc>
<speed>0.000000</speed>
</trkpt>
<trkpt lat="55.736782" lon="26.218662">
<ele>129.853638</ele>
<time>2010-07-18T07:33:34Z</time>
<desc>lat.=55.736782, lon.=26.218662, Alt.=129.853638m. Speed=0.000000m/h.</desc>
<speed>0.000000</speed>
</trkpt>
<trkpt lat="55.736782" lon="26.218662">
<ele>129.853638</ele>
<time>2010-07-18T07:33:35Z</time>
<desc>lat.=55.736782, lon.=26.218662, Alt.=129.853638m. Speed=0.000000m/h.</desc>
<speed>0.000000</speed>
</trkpt>
<trkpt lat="55.736782" lon="26.218662">
<ele>129.849731</ele>
<time>2010-07-18T07:33:36Z</time>
<desc>lat.=55.736782, lon.=26.218662, Alt.=129.849731m. Speed=0.000000m/h.</desc>
<speed>0.000000</speed>
</trkpt>
<trkpt lat="55.736782" lon="26.218662">
<ele>129.845825</ele>
<time>2010-07-18T07:33:37Z</time>
<desc>lat.=55.736782, lon.=26.218662, Alt.=129.845825m. Speed=0.000000m/h.</desc>
<speed>0.000000</speed>
</trkpt>
<trkpt lat="55.736782" lon="26.218662">
<ele>129.845825</ele>
<time>2010-07-18T07:33:38Z</time>
<desc>lat.=55.736782, lon.=26.218662, Alt.=129.845825m. Speed=0.036000m/h.</desc>
<speed>0.010000</speed>
</trkpt>
<trkpt lat="55.736782" lon="26.218662">
<ele>129.845825</ele>
<time>2010-07-18T07:33:39Z</time>
<desc>lat.=55.736782, lon.=26.218662, Alt.=129.845825m. Speed=0.000000m/h.</desc>
<speed>0.000000</speed>
</trkpt>
<trkpt lat="55.736782" lon="26.218662">
<ele>129.841919</ele>
<time>2010-07-18T07:33:40Z</time>
<desc>lat.=55.736782, lon.=26.218662, Alt.=129.841919m. Speed=0.036000m/h.</desc>
<speed>0.010000</speed>
</trkpt>
<trkpt lat="55.736782" lon="26.218662">
<ele>129.841919</ele>
<time>2010-07-18T07:33:41Z</time>
<desc>lat.=55.736782, lon.=26.218662, Alt.=129.841919m. Speed=0.000000m/h.</desc>
<speed>0.000000</speed>
</trkpt>
<trkpt lat="55.736782" lon="26.218662">
<ele>129.838013</ele>
<time>2010-07-18T07:33:42Z</time>
<desc>lat.=55.736782, lon.=26.218662, Alt.=129.838013m. Speed=0.000000m/h.</desc>
<speed>0.000000</speed>
</trkpt>
<trkpt lat="55.736782" lon="26.218662">
<ele>129.834106</ele>
<time>2010-07-18T07:33:43Z</time>
<desc>lat.=55.736782, lon.=26.218662, Alt.=129.834106m. Speed=0.000000m/h.</desc>
<speed>0.000000</speed>
</trkpt>
<trkpt lat="55.736782" lon="26.218662">
<ele>129.830200</ele>
<time>2010-07-18T07:33:44Z</time>
<desc>lat.=55.736782, lon.=26.218662, Alt.=129.830200m. Speed=0.000000m/h.</desc>
<speed>0.000000</speed>
</trkpt>
<trkpt lat="55.736782" lon="26.218662">
<ele>129.826294</ele>
<time>2010-07-18T07:33:45Z</time>
<desc>lat.=55.736782, lon.=26.218662, Alt.=129.826294m. Speed=0.000000m/h.</desc>
<speed>0.000000</speed>
</trkpt>
<trkpt lat="55.736782" lon="26.218662">
<ele>129.826294</ele>
<time>2010-07-18T07:33:46Z</time>
<desc>lat.=55.736782, lon.=26.218662, Alt.=129.826294m. Speed=0.036000m/h.</desc>
<speed>0.010000</speed>
</trkpt>
<trkpt lat="55.736782" lon="26.218660">
<ele>129.822388</ele>
<time>2010-07-18T07:33:47Z</time>
<desc>lat.=55.736782, lon.=26.218660, Alt.=129.822388m. Speed=0.000000m/h.</desc>
<speed>0.000000</speed>
</trkpt>
<trkpt lat="55.736778" lon="26.218660">
<ele>129.822388</ele>
<time>2010-07-18T07:33:48Z</time>
<desc>lat.=55.736778, lon.=26.218660, Alt.=129.822388m. Speed=0.000000m/h.</desc>
<speed>0.000000</speed>
</trkpt>
<trkpt lat="55.736778" lon="26.218660">
<ele>129.818481</ele>
<time>2010-07-18T07:33:49Z</time>
<desc>lat.=55.736778, lon.=26.218660, Alt.=129.818481m. Speed=0.000000m/h.</desc>
<speed>0.000000</speed>
</trkpt>
<trkpt lat="55.736778" lon="26.218660">
<ele>129.814575</ele>
<time>2010-07-18T07:33:50Z</time>
<desc>lat.=55.736778, lon.=26.218660, Alt.=129.814575m. Speed=0.000000m/h.</desc>
<speed>0.000000</speed>
</trkpt>
<trkpt lat="55.736778" lon="26.218660">
<ele>129.810669</ele>
<time>2010-07-18T07:33:51Z</time>
<desc>lat.=55.736778, lon.=26.218660, Alt.=129.810669m. Speed=0.000000m/h.</desc>
<speed>0.000000</speed>
</trkpt>
<trkpt lat="55.736778" lon="26.218660">
<ele>129.806763</ele>
<time>2010-07-18T07:33:52Z</time>
<desc>lat.=55.736778, lon.=26.218660, Alt.=129.806763m. Speed=0.000000m/h.</desc>
<speed>0.000000</speed>
</trkpt>
<trkpt lat="55.736778" lon="26.218660">
<ele>129.802856</ele>
<time>2010-07-18T07:33:53Z</time>
<desc>lat.=55.736778, lon.=26.218660, Alt.=129.802856m. Speed=0.000000m/h.</desc>
<speed>0.000000</speed>
</trkpt>
<trkpt lat="55.736778" lon="26.218660">
<ele>129.798950</ele>
<time>2010-07-18T07:33:54Z</time>
<desc>lat.=55.736778, lon.=26.218660, Alt.=129.798950m. Speed=0.000000m/h.</desc>
<speed>0.000000</speed>
</trkpt>
<trkpt lat="55.736778" lon="26.218660">
<ele>129.795044</ele>
<time>2010-07-18T07:33:55Z</time>
<desc>lat.=55.736778, lon.=26.218660, Alt.=129.795044m. Speed=0.072000m/h.</desc>
<speed>0.020000</speed>
</trkpt>
<trkpt lat="55.736778" lon="26.218660">
<ele>129.787231</ele>
<time>2010-07-18T07:33:56Z</time>
<desc>lat.=55.736778, lon.=26.218660, Alt.=129.787231m. Speed=0.036000m/h.</desc>
<speed>0.010000</speed>
</trkpt>
<trkpt lat="55.736778" lon="26.218660">
<ele>129.787231</ele>
<time>2010-07-18T07:33:57Z</time>
<desc>lat.=55.736778, lon.=26.218660, Alt.=129.787231m. Speed=0.000000m/h.</desc>
<speed>0.000000</speed>
</trkpt>
<trkpt lat="55.736778" lon="26.218660">
<ele>129.779419</ele>
<time>2010-07-18T07:33:58Z</time>
<desc>lat.=55.736778, lon.=26.218660, Alt.=129.779419m. Speed=0.036000m/h.</desc>
<speed>0.010000</speed>
</trkpt>
<trkpt lat="55.736778" lon="26.218660">
<ele>129.775513</ele>
<time>2010-07-18T07:33:59Z</time>
<desc>lat.=55.736778, lon.=26.218660, Alt.=129.775513m. Speed=0.000000m/h.</desc>
<speed>0.000000</speed>
</trkpt>
<trkpt lat="55.736778" lon="26.218660">
<ele>129.767700</ele>
<time>2010-07-18T07:34:00Z</time>
<desc>lat.=55.736778, lon.=26.218660, Alt.=129.767700m. Speed=0.072000m/h.</desc>
<speed>0.020000</speed>
</trkpt>
<trkpt lat="55.736778" lon="26.218660">
<ele>129.763794</ele>
<time>2010-07-18T07:34:01Z</time>
<desc>lat.=55.736778, lon.=26.218660, Alt.=129.763794m. Speed=0.072000m/h.</desc>
<speed>0.020000</speed>
</trkpt>
<trkpt lat="55.736778" lon="26.218660">
<ele>129.759888</ele>
<time>2010-07-18T07:34:02Z</time>
<desc>lat.=55.736778, lon.=26.218660, Alt.=129.759888m. Speed=0.072000m/h.</desc>
<speed>0.020000</speed>
</trkpt>
<trkpt lat="55.736778" lon="26.218660">
<ele>129.755981</ele>
<time>2010-07-18T07:34:03Z</time>
<desc>lat.=55.736778, lon.=26.218660, Alt.=129.755981m. Speed=0.000000m/h.</desc>
<speed>0.000000</speed>
</trkpt>
<trkpt lat="55.736778" lon="26.218660">
<ele>129.748169</ele>
<time>2010-07-18T07:34:04Z</time>
<desc>lat.=55.736778, lon.=26.218660, Alt.=129.748169m. Speed=0.000000m/h.</desc>
<speed>0.000000</speed>
</trkpt>
<trkpt lat="55.736778" lon="26.218660">
<ele>129.748169</ele>
<time>2010-07-18T07:34:05Z</time>
<desc>lat.=55.736778, lon.=26.218660, Alt.=129.748169m. Speed=0.000000m/h.</desc>
<speed>0.000000</speed>
</trkpt>
<trkpt lat="55.736778" lon="26.218660">
<ele>129.744263</ele>
<time>2010-07-18T07:34:06Z</time>
<desc>lat.=55.736778, lon.=26.218660, Alt.=129.744263m. Speed=0.000000m/h.</desc>
<speed>0.000000</speed>
</trkpt>
<trkpt lat="55.736778" lon="26.218660">
<ele>129.740356</ele>
<time>2010-07-18T07:34:07Z</time>
<desc>lat.=55.736778, lon.=26.218660, Alt.=129.740356m. Speed=0.000000m/h.</desc>
<speed>0.000000</speed>
</trkpt>
<trkpt lat="55.736778" lon="26.218660">
<ele>129.736450</ele>
<time>2010-07-18T07:34:08Z</time>
<desc>lat.=55.736778, lon.=26.218660, Alt.=129.736450m. Speed=0.000000m/h.</desc>
<speed>0.000000</speed>
</trkpt>
<trkpt lat="55.736778" lon="26.218660">
<ele>129.732544</ele>
<time>2010-07-18T07:34:09Z</time>
<desc>lat.=55.736778, lon.=26.218660, Alt.=129.732544m. Speed=0.000000m/h.</desc>
<speed>0.000000</speed>
</trkpt>
<trkpt lat="55.736778" lon="26.218660">
<ele>129.732544</ele>
<time>2010-07-18T07:34:10Z</time>
<desc>lat.=55.736778, lon.=26.218660, Alt.=129.732544m. Speed=0.000000m/h.</desc>
<speed>0.000000</speed>
</trkpt>
<trkpt lat="55.736778" lon="26.218660">
<ele>129.724731</ele>
<time>2010-07-18T07:34:11Z</time>
<desc>lat.=55.736778, lon.=26.218660, Alt.=129.724731m. Speed=0.036000m/h.</desc>
<speed>0.010000</speed>
</trkpt>
<trkpt lat="55.736778" lon="26.218660">
<ele>129.720825</ele>
<time>2010-07-18T07:34:12Z</time>
<desc>lat.=55.736778, lon.=26.218660, Alt.=129.720825m. Speed=0.000000m/h.</desc>
<speed>0.000000</speed>
</trkpt>
<trkpt lat="55.736778" lon="26.218660">
<ele>129.720825</ele>
<time>2010-07-18T07:34:13Z</time>
<desc>lat.=55.736778, lon.=26.218660, Alt.=129.720825m. Speed=0.000000m/h.</desc>
<speed>0.000000</speed>
</trkpt>
<trkpt lat="55.736778" lon="26.218660">
<ele>129.716919</ele>
<time>2010-07-18T07:34:14Z</time>
<desc>lat.=55.736778, lon.=26.218660, Alt.=129.716919m. Speed=0.000000m/h.</desc>
<speed>0.000000</speed>
</trkpt>
<trkpt lat="55.736778" lon="26.218660">
<ele>129.716919</ele>
<time>2010-07-18T07:34:15Z</time>
<desc>lat.=55.736778, lon.=26.218660, Alt.=129.716919m. Speed=0.000000m/h.</desc>
<speed>0.000000</speed>
</trkpt>
<trkpt lat="55.736778" lon="26.218660">
<ele>129.713013</ele>
<time>2010-07-18T07:34:16Z</time>
<desc>lat.=55.736778, lon.=26.218660, Alt.=129.713013m. Speed=0.000000m/h.</desc>
<speed>0.000000</speed>
</trkpt>
<trkpt lat="55.736778" lon="26.218660">
<ele>129.713013</ele>
<time>2010-07-18T07:34:17Z</time>
<desc>lat.=55.736778, lon.=26.218660, Alt.=129.713013m. Speed=0.000000m/h.</desc>
<speed>0.000000</speed>
</trkpt>
<trkpt lat="55.736778" lon="26.218660">
<ele>129.709106</ele>
<time>2010-07-18T07:34:18Z</time>
<desc>lat.=55.736778, lon.=26.218660, Alt.=129.709106m. Speed=0.000000m/h.</desc>
<speed>0.000000</speed>
</trkpt>
<trkpt lat="55.736778" lon="26.218660">
<ele>129.705200</ele>
<time>2010-07-18T07:34:19Z</time>
<desc>lat.=55.736778, lon.=26.218660, Alt.=129.705200m. Speed=0.000000m/h.</desc>
<speed>0.000000</speed>
</trkpt>
<trkpt lat="55.736778" lon="26.218660">
<ele>129.701294</ele>
<time>2010-07-18T07:34:20Z</time>
<desc>lat.=55.736778, lon.=26.218660, Alt.=129.701294m. Speed=0.000000m/h.</desc>
<speed>0.000000</speed>
</trkpt>
<trkpt lat="55.736778" lon="26.218660">
<ele>129.697388</ele>
<time>2010-07-18T07:34:21Z</time>
<desc>lat.=55.736778, lon.=26.218660, Alt.=129.697388m. Speed=0.000000m/h.</desc>
<speed>0.000000</speed>
</trkpt>
<trkpt lat="55.736778" lon="26.218660">
<ele>129.697388</ele>
<time>2010-07-18T07:34:22Z</time>
<desc>lat.=55.736778, lon.=26.218660, Alt.=129.697388m. Speed=0.000000m/h.</desc>
<speed>0.000000</speed>
</trkpt>
<trkpt lat="55.736778" lon="26.218660">
<ele>129.693481</ele>
<time>2010-07-18T07:34:23Z</time>
<desc>lat.=55.736778, lon.=26.218660, Alt.=129.693481m. Speed=0.000000m/h.</desc>
<speed>0.000000</speed>
</trkpt>
<trkpt lat="55.736778" lon="26.218660">
<ele>129.689575</ele>
<time>2010-07-18T07:34:24Z</time>
<desc>lat.=55.736778, lon.=26.218660, Alt.=129.689575m. Speed=0.036000m/h.</desc>
<speed>0.010000</speed>
</trkpt>
<trkpt lat="55.736778" lon="26.218660">
<ele>129.689575</ele>
<time>2010-07-18T07:34:25Z</time>
<desc>lat.=55.736778, lon.=26.218660, Alt.=129.689575m. Speed=0.036000m/h.</desc>
<speed>0.010000</speed>
</trkpt>
<trkpt lat="55.736778" lon="26.218658">
<ele>129.685669</ele>
<time>2010-07-18T07:34:26Z</time>
<desc>lat.=55.736778, lon.=26.218658, Alt.=129.685669m. Speed=0.000000m/h.</desc>
<speed>0.000000</speed>
</trkpt>
<trkpt lat="55.736778" lon="26.218658">
<ele>129.681763</ele>
<time>2010-07-18T07:34:27Z</time>
<desc>lat.=55.736778, lon.=26.218658, Alt.=129.681763m. Speed=0.000000m/h.</desc>
<speed>0.000000</speed>
</trkpt>
<trkpt lat="55.736778" lon="26.218658">
<ele>129.681763</ele>
<time>2010-07-18T07:34:28Z</time>
<desc>lat.=55.736778, lon.=26.218658, Alt.=129.681763m. Speed=0.000000m/h.</desc>
<speed>0.000000</speed>
</trkpt>
<trkpt lat="55.736778" lon="26.218658">
<ele>129.681763</ele>
<time>2010-07-18T07:34:29Z</time>
<desc>lat.=55.736778, lon.=26.218658, Alt.=129.681763m. Speed=0.000000m/h.</desc>
<speed>0.000000</speed>
</trkpt>
<trkpt lat="55.736778" lon="26.218658">
<ele>129.677856</ele>
<time>2010-07-18T07:34:30Z</time>
<desc>lat.=55.736778, lon.=26.218658, Alt.=129.677856m. Speed=0.000000m/h.</desc>
<speed>0.000000</speed>
</trkpt>
<trkpt lat="55.736778" lon="26.218658">
<ele>129.677856</ele>
<time>2010-07-18T07:34:31Z</time>
<desc>lat.=55.736778, lon.=26.218658, Alt.=129.677856m. Speed=0.000000m/h.</desc>
<speed>0.000000</speed>
</trkpt>
<trkpt lat="55.736778" lon="26.218658">
<ele>129.677856</ele>
<time>2010-07-18T07:34:32Z</time>
<desc>lat.=55.736778, lon.=26.218658, Alt.=129.677856m. Speed=0.000000m/h.</desc>
<speed>0.000000</speed>
</trkpt>
<trkpt lat="55.736778" lon="26.218658">
<ele>129.677856</ele>
<time>2010-07-18T07:34:33Z</time>
<desc>lat.=55.736778, lon.=26.218658, Alt.=129.677856m. Speed=0.000000m/h.</desc>
<speed>0.000000</speed>
</trkpt>
<trkpt lat="55.736778" lon="26.218658">
<ele>129.677856</ele>
<time>2010-07-18T07:34:34Z</time>
<desc>lat.=55.736778, lon.=26.218658, Alt.=129.677856m. Speed=0.000000m/h.</desc>
<speed>0.000000</speed>
</trkpt>
<trkpt lat="55.736778" lon="26.218658">
<ele>129.677856</ele>
<time>2010-07-18T07:34:35Z</time>
<desc>lat.=55.736778, lon.=26.218658, Alt.=129.677856m. Speed=0.000000m/h.</desc>
<speed>0.000000</speed>
</trkpt>
<trkpt lat="55.736778" lon="26.218658">
<ele>129.677856</ele>
<time>2010-07-18T07:34:36Z</time>
<desc>lat.=55.736778, lon.=26.218658, Alt.=129.677856m. Speed=0.000000m/h.</desc>
<speed>0.000000</speed>
</trkpt>
<trkpt lat="55.736778" lon="26.218658">
<ele>129.673950</ele>
<time>2010-07-18T07:34:37Z</time>
<desc>lat.=55.736778, lon.=26.218658, Alt.=129.673950m. Speed=0.000000m/h.</desc>
<speed>0.000000</speed>
</trkpt>
<trkpt lat="55.736778" lon="26.218658">
<ele>129.673950</ele>
<time>2010-07-18T07:34:38Z</time>
<desc>lat.=55.736778, lon.=26.218658, Alt.=129.673950m. Speed=0.000000m/h.</desc>
<speed>0.000000</speed>
</trkpt>
<trkpt lat="55.736778" lon="26.218658">
<ele>129.673950</ele>
<time>2010-07-18T07:34:39Z</time>
<desc>lat.=55.736778, lon.=26.218658, Alt.=129.673950m. Speed=0.036000m/h.</desc>
<speed>0.010000</speed>
</trkpt>
<trkpt lat="55.736778" lon="26.218658">
<ele>129.673950</ele>
<time>2010-07-18T07:34:40Z</time>
<desc>lat.=55.736778, lon.=26.218658, Alt.=129.673950m. Speed=0.000000m/h.</desc>
<speed>0.000000</speed>
</trkpt>
<trkpt lat="55.736778" lon="26.218658">
<ele>129.670044</ele>
<time>2010-07-18T07:34:41Z</time>
<desc>lat.=55.736778, lon.=26.218658, Alt.=129.670044m. Speed=0.000000m/h.</desc>
<speed>0.000000</speed>
</trkpt>
<trkpt lat="55.736778" lon="26.218658">
<ele>129.670044</ele>
<time>2010-07-18T07:34:42Z</time>
<desc>lat.=55.736778, lon.=26.218658, Alt.=129.670044m. Speed=0.036000m/h.</desc>
<speed>0.010000</speed>
</trkpt>
<trkpt lat="55.736778" lon="26.218658">
<ele>129.670044</ele>
<time>2010-07-18T07:34:43Z</time>
<desc>lat.=55.736778, lon.=26.218658, Alt.=129.670044m. Speed=0.000000m/h.</desc>
<speed>0.000000</speed>
</trkpt>
<trkpt lat="55.736778" lon="26.218658">
<ele>129.670044</ele>
<time>2010-07-18T07:34:44Z</time>
<desc>lat.=55.736778, lon.=26.218658, Alt.=129.670044m. Speed=0.000000m/h.</desc>
<speed>0.000000</speed>
</trkpt>
<trkpt lat="55.736778" lon="26.218657">
<ele>129.670044</ele>
<time>2010-07-18T07:34:45Z</time>
<desc>lat.=55.736778, lon.=26.218657, Alt.=129.670044m. Speed=0.000000m/h.</desc>
<speed>0.000000</speed>
</trkpt>
<trkpt lat="55.736778" lon="26.218657">
<ele>129.670044</ele>
<time>2010-07-18T07:34:46Z</time>
<desc>lat.=55.736778, lon.=26.218657, Alt.=129.670044m. Speed=0.000000m/h.</desc>
<speed>0.000000</speed>
</trkpt>
<trkpt lat="55.736778" lon="26.218657">
<ele>129.670044</ele>
<time>2010-07-18T07:34:47Z</time>
<desc>lat.=55.736778, lon.=26.218657, Alt.=129.670044m. Speed=0.000000m/h.</desc>
<speed>0.000000</speed>
</trkpt>
<trkpt lat="55.736778" lon="26.218657">
<ele>129.670044</ele>
<time>2010-07-18T07:34:48Z</time>
<desc>lat.=55.736778, lon.=26.218657, Alt.=129.670044m. Speed=0.000000m/h.</desc>
<speed>0.000000</speed>
</trkpt>
<trkpt lat="55.736778" lon="26.218657">
<ele>129.670044</ele>
<time>2010-07-18T07:34:49Z</time>
<desc>lat.=55.736778, lon.=26.218657, Alt.=129.670044m. Speed=0.000000m/h.</desc>
<speed>0.000000</speed>
</trkpt>
<trkpt lat="55.736778" lon="26.218657">
<ele>129.670044</ele>
<time>2010-07-18T07:34:50Z</time>
<desc>lat.=55.736778, lon.=26.218657, Alt.=129.670044m. Speed=0.000000m/h.</desc>
<speed>0.000000</speed>
</trkpt>
<trkpt lat="55.736778" lon="26.218657">
<ele>129.673950</ele>
<time>2010-07-18T07:34:51Z</time>
<desc>lat.=55.736778, lon.=26.218657, Alt.=129.673950m. Speed=0.000000m/h.</desc>
<speed>0.000000</speed>
</trkpt>
<trkpt lat="55.736778" lon="26.218657">
<ele>129.670044</ele>
<time>2010-07-18T07:34:52Z</time>
<desc>lat.=55.736778, lon.=26.218657, Alt.=129.670044m. Speed=0.000000m/h.</desc>
<speed>0.000000</speed>
</trkpt>
<trkpt lat="55.736778" lon="26.218657">
<ele>129.670044</ele>
<time>2010-07-18T07:34:53Z</time>
<desc>lat.=55.736778, lon.=26.218657, Alt.=129.670044m. Speed=0.000000m/h.</desc>
<speed>0.000000</speed>
</trkpt>
<trkpt lat="55.736778" lon="26.218657">
<ele>129.670044</ele>
<time>2010-07-18T07:34:54Z</time>
<desc>lat.=55.736778, lon.=26.218657, Alt.=129.670044m. Speed=0.036000m/h.</desc>
<speed>0.010000</speed>
</trkpt>
<trkpt lat="55.736778" lon="26.218657">
<ele>129.670044</ele>
<time>2010-07-18T07:34:55Z</time>
<desc>lat.=55.736778, lon.=26.218657, Alt.=129.670044m. Speed=0.000000m/h.</desc>
<speed>0.000000</speed>
</trkpt>
<trkpt lat="55.736778" lon="26.218657">
<ele>129.670044</ele>
<time>2010-07-18T07:34:56Z</time>
<desc>lat.=55.736778, lon.=26.218657, Alt.=129.670044m. Speed=0.000000m/h.</desc>
<speed>0.000000</speed>
</trkpt>
<trkpt lat="55.736778" lon="26.218657">
<ele>129.670044</ele>
<time>2010-07-18T07:34:57Z</time>
<desc>lat.=55.736778, lon.=26.218657, Alt.=129.670044m. Speed=0.036000m/h.</desc>
<speed>0.010000</speed>
</trkpt>
<trkpt lat="55.736778" lon="26.218657">
<ele>129.670044</ele>
<time>2010-07-18T07:34:58Z</time>
<desc>lat.=55.736778, lon.=26.218657, Alt.=129.670044m. Speed=0.036000m/h.</desc>
<speed>0.010000</speed>
</trkpt>
<trkpt lat="55.736778" lon="26.218657">
<ele>129.670044</ele>
<time>2010-07-18T07:34:59Z</time>
<desc>lat.=55.736778, lon.=26.218657, Alt.=129.670044m. Speed=0.036000m/h.</desc>
<speed>0.010000</speed>
</trkpt>
<trkpt lat="55.736778" lon="26.218657">
<ele>129.670044</ele>
<time>2010-07-18T07:35:00Z</time>
<desc>lat.=55.736778, lon.=26.218657, Alt.=129.670044m. Speed=0.036000m/h.</desc>
<speed>0.010000</speed>
</trkpt>
<trkpt lat="55.736778" lon="26.218657">
<ele>129.670044</ele>
<time>2010-07-18T07:35:01Z</time>
<desc>lat.=55.736778, lon.=26.218657, Alt.=129.670044m. Speed=0.000000m/h.</desc>
<speed>0.000000</speed>
</trkpt>
<trkpt lat="55.736778" lon="26.218657">
<ele>129.670044</ele>
<time>2010-07-18T07:35:02Z</time>
<desc>lat.=55.736778, lon.=26.218657, Alt.=129.670044m. Speed=0.108000m/h.</desc>
<speed>0.030000</speed>
</trkpt>
<trkpt lat="55.736778" lon="26.218657">
<ele>129.673950</ele>
<time>2010-07-18T07:35:03Z</time>
<desc>lat.=55.736778, lon.=26.218657, Alt.=129.673950m. Speed=0.000000m/h.</desc>
<speed>0.000000</speed>
</trkpt>
<trkpt lat="55.736778" lon="26.218657">
<ele>129.673950</ele>
<time>2010-07-18T07:35:04Z</time>
<desc>lat.=55.736778, lon.=26.218657, Alt.=129.673950m. Speed=0.036000m/h.</desc>
<speed>0.010000</speed>
</trkpt>
<trkpt lat="55.736778" lon="26.218657">
<ele>129.670044</ele>
<time>2010-07-18T07:35:05Z</time>
<desc>lat.=55.736778, lon.=26.218657, Alt.=129.670044m. Speed=0.036000m/h.</desc>
<speed>0.010000</speed>
</trkpt>
<trkpt lat="55.736778" lon="26.218657">
<ele>129.670044</ele>
<time>2010-07-18T07:35:06Z</time>
<desc>lat.=55.736778, lon.=26.218657, Alt.=129.670044m. Speed=0.000000m/h.</desc>
<speed>0.000000</speed>
</trkpt>
<trkpt lat="55.736778" lon="26.218657">
<ele>129.670044</ele>
<time>2010-07-18T07:35:07Z</time>
<desc>lat.=55.736778, lon.=26.218657, Alt.=129.670044m. Speed=0.072000m/h.</desc>
<speed>0.020000</speed>
</trkpt>
<trkpt lat="55.736778" lon="26.218657">
<ele>129.670044</ele>
<time>2010-07-18T07:35:08Z</time>
<desc>lat.=55.736778, lon.=26.218657, Alt.=129.670044m. Speed=0.324000m/h.</desc>
<speed>0.090000</speed>
</trkpt>
<trkpt lat="55.736778" lon="26.218657">
<ele>129.666138</ele>
<time>2010-07-18T07:35:09Z</time>
<desc>lat.=55.736778, lon.=26.218657, Alt.=129.666138m. Speed=0.180000m/h.</desc>
<speed>0.050000</speed>
</trkpt>
<trkpt lat="55.736778" lon="26.218657">
<ele>129.615356</ele>
<time>2010-07-18T07:35:10Z</time>
<desc>lat.=55.736778, lon.=26.218657, Alt.=129.615356m. Speed=0.180000m/h.</desc>
<speed>0.050000</speed>
</trkpt>
<trkpt lat="55.736778" lon="26.218657">
<ele>129.607544</ele>
<time>2010-07-18T07:35:11Z</time>
<desc>lat.=55.736778, lon.=26.218657, Alt.=129.607544m. Speed=0.108000m/h.</desc>
<speed>0.030000</speed>
</trkpt>
<trkpt lat="55.736778" lon="26.218657">
<ele>129.611450</ele>
<time>2010-07-18T07:35:12Z</time>
<desc>lat.=55.736778, lon.=26.218657, Alt.=129.611450m. Speed=0.180000m/h.</desc>
<speed>0.050000</speed>
</trkpt>
<trkpt lat="55.736778" lon="26.218657">
<ele>129.611450</ele>
<time>2010-07-18T07:35:13Z</time>
<desc>lat.=55.736778, lon.=26.218657, Alt.=129.611450m. Speed=0.108000m/h.</desc>
<speed>0.030000</speed>
</trkpt>
<trkpt lat="55.736778" lon="26.218657">
<ele>129.611450</ele>
<time>2010-07-18T07:35:14Z</time>
<desc>lat.=55.736778, lon.=26.218657, Alt.=129.611450m. Speed=0.108000m/h.</desc>
<speed>0.030000</speed>
</trkpt>
<trkpt lat="55.736778" lon="26.218657">
<ele>129.611450</ele>
<time>2010-07-18T07:35:15Z</time>
<desc>lat.=55.736778, lon.=26.218657, Alt.=129.611450m. Speed=0.072000m/h.</desc>
<speed>0.020000</speed>
</trkpt>
<trkpt lat="55.736778" lon="26.218657">
<ele>129.615356</ele>
<time>2010-07-18T07:35:16Z</time>
<desc>lat.=55.736778, lon.=26.218657, Alt.=129.615356m. Speed=0.180000m/h.</desc>
<speed>0.050000</speed>
</trkpt>
<trkpt lat="55.736778" lon="26.218657">
<ele>129.615356</ele>
<time>2010-07-18T07:35:17Z</time>
<desc>lat.=55.736778, lon.=26.218657, Alt.=129.615356m. Speed=0.000000m/h.</desc>
<speed>0.000000</speed>
</trkpt>
<trkpt lat="55.736778" lon="26.218657">
<ele>129.615356</ele>
<time>2010-07-18T07:35:18Z</time>
<desc>lat.=55.736778, lon.=26.218657, Alt.=129.615356m. Speed=0.036000m/h.</desc>
<speed>0.010000</speed>
</trkpt>
<trkpt lat="55.736778" lon="26.218657">
<ele>129.619263</ele>
<time>2010-07-18T07:35:19Z</time>
<desc>lat.=55.736778, lon.=26.218657, Alt.=129.619263m. Speed=0.036000m/h.</desc>
<speed>0.010000</speed>
</trkpt>
<trkpt lat="55.736778" lon="26.218657">
<ele>129.627075</ele>
<time>2010-07-18T07:35:20Z</time>
<desc>lat.=55.736778, lon.=26.218657, Alt.=129.627075m. Speed=0.000000m/h.</desc>
<speed>0.000000</speed>
</trkpt>
<trkpt lat="55.736778" lon="26.218657">
<ele>129.630981</ele>
<time>2010-07-18T07:35:21Z</time>
<desc>lat.=55.736778, lon.=26.218657, Alt.=129.630981m. Speed=0.108000m/h.</desc>
<speed>0.030000</speed>
</trkpt>
<trkpt lat="55.736778" lon="26.218657">
<ele>129.630981</ele>
<time>2010-07-18T07:35:22Z</time>
<desc>lat.=55.736778, lon.=26.218657, Alt.=129.630981m. Speed=0.108000m/h.</desc>
<speed>0.030000</speed>
</trkpt>
<trkpt lat="55.736778" lon="26.218657">
<ele>129.634888</ele>
<time>2010-07-18T07:35:23Z</time>
<desc>lat.=55.736778, lon.=26.218657, Alt.=129.634888m. Speed=0.108000m/h.</desc>
<speed>0.030000</speed>
</trkpt>
<trkpt lat="55.736778" lon="26.218655">
<ele>129.646606</ele>
<time>2010-07-18T07:35:24Z</time>
<desc>lat.=55.736778, lon.=26.218655, Alt.=129.646606m. Speed=0.072000m/h.</desc>
<speed>0.020000</speed>
</trkpt>
<trkpt lat="55.736778" lon="26.218655">
<ele>129.646606</ele>
<time>2010-07-18T07:35:25Z</time>
<desc>lat.=55.736778, lon.=26.218655, Alt.=129.646606m. Speed=0.108000m/h.</desc>
<speed>0.030000</speed>
</trkpt>
<trkpt lat="55.736774" lon="26.218655">
<ele>129.642700</ele>
<time>2010-07-18T07:35:26Z</time>
<desc>lat.=55.736774, lon.=26.218655, Alt.=129.642700m. Speed=0.180000m/h.</desc>
<speed>0.050000</speed>
</trkpt>
<trkpt lat="55.736774" lon="26.218655">
<ele>129.642700</ele>
<time>2010-07-18T07:35:27Z</time>
<desc>lat.=55.736774, lon.=26.218655, Alt.=129.642700m. Speed=0.144000m/h.</desc>
<speed>0.040000</speed>
</trkpt>
<trkpt lat="55.736774" lon="26.218655">
<ele>129.642700</ele>
<time>2010-07-18T07:35:28Z</time>
<desc>lat.=55.736774, lon.=26.218655, Alt.=129.642700m. Speed=0.072000m/h.</desc>
<speed>0.020000</speed>
</trkpt>
<trkpt lat="55.736774" lon="26.218655">
<ele>129.642700</ele>
<time>2010-07-18T07:35:29Z</time>
<desc>lat.=55.736774, lon.=26.218655, Alt.=129.642700m. Speed=0.108000m/h.</desc>
<speed>0.030000</speed>
</trkpt>
<trkpt lat="55.736774" lon="26.218655">
<ele>129.638794</ele>
<time>2010-07-18T07:35:30Z</time>
<desc>lat.=55.736774, lon.=26.218655, Alt.=129.638794m. Speed=0.108000m/h.</desc>
<speed>0.030000</speed>
</trkpt>
<trkpt lat="55.736774" lon="26.218655">
<ele>129.638794</ele>
<time>2010-07-18T07:35:31Z</time>
<desc>lat.=55.736774, lon.=26.218655, Alt.=129.638794m. Speed=0.036000m/h.</desc>
<speed>0.010000</speed>
</trkpt>
<trkpt lat="55.736774" lon="26.218655">
<ele>129.642700</ele>
<time>2010-07-18T07:35:32Z</time>
<desc>lat.=55.736774, lon.=26.218655, Alt.=129.642700m. Speed=0.108000m/h.</desc>
<speed>0.030000</speed>
</trkpt>
<trkpt lat="55.736774" lon="26.218655">
<ele>129.638794</ele>
<time>2010-07-18T07:35:33Z</time>
<desc>lat.=55.736774, lon.=26.218655, Alt.=129.638794m. Speed=0.108000m/h.</desc>
<speed>0.030000</speed>
</trkpt>
<trkpt lat="55.736774" lon="26.218655">
<ele>129.638794</ele>
<time>2010-07-18T07:35:34Z</time>
<desc>lat.=55.736774, lon.=26.218655, Alt.=129.638794m. Speed=0.108000m/h.</desc>
<speed>0.030000</speed>
</trkpt>
<trkpt lat="55.736774" lon="26.218655">
<ele>129.638794</ele>
<time>2010-07-18T07:35:35Z</time>
<desc>lat.=55.736774, lon.=26.218655, Alt.=129.638794m. Speed=0.108000m/h.</desc>
<speed>0.030000</speed>
</trkpt>
<trkpt lat="55.736774" lon="26.218655">
<ele>129.638794</ele>
<time>2010-07-18T07:35:36Z</time>
<desc>lat.=55.736774, lon.=26.218655, Alt.=129.638794m. Speed=0.108000m/h.</desc>
<speed>0.030000</speed>
</trkpt>
<trkpt lat="55.736774" lon="26.218655">
<ele>129.642700</ele>
<time>2010-07-18T07:35:37Z</time>
<desc>lat.=55.736774, lon.=26.218655, Alt.=129.642700m. Speed=0.108000m/h.</desc>
<speed>0.030000</speed>
</trkpt>
<trkpt lat="55.736774" lon="26.218655">
<ele>129.646606</ele>
<time>2010-07-18T07:35:38Z</time>
<desc>lat.=55.736774, lon.=26.218655, Alt.=129.646606m. Speed=0.108000m/h.</desc>
<speed>0.030000</speed>
</trkpt>
<trkpt lat="55.736774" lon="26.218655">
<ele>129.654419</ele>
<time>2010-07-18T07:35:39Z</time>
<desc>lat.=55.736774, lon.=26.218655, Alt.=129.654419m. Speed=0.072000m/h.</desc>
<speed>0.020000</speed>
</trkpt>
<trkpt lat="55.736774" lon="26.218655">
<ele>129.658325</ele>
<time>2010-07-18T07:35:40Z</time>
<desc>lat.=55.736774, lon.=26.218655, Alt.=129.658325m. Speed=0.144000m/h.</desc>
<speed>0.040000</speed>
</trkpt>
<trkpt lat="55.736774" lon="26.218655">
<ele>129.658325</ele>
<time>2010-07-18T07:35:41Z</time>
<desc>lat.=55.736774, lon.=26.218655, Alt.=129.658325m. Speed=0.216000m/h.</desc>
<speed>0.060000</speed>
</trkpt>
<trkpt lat="55.736774" lon="26.218655">
<ele>129.654419</ele>
<time>2010-07-18T07:35:42Z</time>
<desc>lat.=55.736774, lon.=26.218655, Alt.=129.654419m. Speed=0.072000m/h.</desc>
<speed>0.020000</speed>
</trkpt>
<trkpt lat="55.736774" lon="26.218657">
<ele>129.650513</ele>
<time>2010-07-18T07:35:43Z</time>
<desc>lat.=55.736774, lon.=26.218657, Alt.=129.650513m. Speed=0.108000m/h.</desc>
<speed>0.030000</speed>
</trkpt>
<trkpt lat="55.736774" lon="26.218657">
<ele>129.650513</ele>
<time>2010-07-18T07:35:44Z</time>
<desc>lat.=55.736774, lon.=26.218657, Alt.=129.650513m. Speed=0.000000m/h.</desc>
<speed>0.000000</speed>
</trkpt>
<trkpt lat="55.736774" lon="26.218657">
<ele>129.650513</ele>
<time>2010-07-18T07:35:45Z</time>
<desc>lat.=55.736774, lon.=26.218657, Alt.=129.650513m. Speed=0.000000m/h.</desc>
<speed>0.000000</speed>
</trkpt>
<trkpt lat="55.736774" lon="26.218657">
<ele>129.646606</ele>
<time>2010-07-18T07:35:46Z</time>
<desc>lat.=55.736774, lon.=26.218657, Alt.=129.646606m. Speed=0.000000m/h.</desc>
<speed>0.000000</speed>
</trkpt>
<trkpt lat="55.736774" lon="26.218657">
<ele>129.646606</ele>
<time>2010-07-18T07:35:47Z</time>
<desc>lat.=55.736774, lon.=26.218657, Alt.=129.646606m. Speed=0.072000m/h.</desc>
<speed>0.020000</speed>
</trkpt>
<trkpt lat="55.736774" lon="26.218657">
<ele>129.646606</ele>
<time>2010-07-18T07:35:48Z</time>
<desc>lat.=55.736774, lon.=26.218657, Alt.=129.646606m. Speed=0.036000m/h.</desc>
<speed>0.010000</speed>
</trkpt>
<trkpt lat="55.736774" lon="26.218657">
<ele>129.642700</ele>
<time>2010-07-18T07:35:49Z</time>
<desc>lat.=55.736774, lon.=26.218657, Alt.=129.642700m. Speed=0.036000m/h.</desc>
<speed>0.010000</speed>
</trkpt>
<trkpt lat="55.736774" lon="26.218657">
<ele>129.638794</ele>
<time>2010-07-18T07:35:50Z</time>
<desc>lat.=55.736774, lon.=26.218657, Alt.=129.638794m. Speed=0.072000m/h.</desc>
<speed>0.020000</speed>
</trkpt>
<trkpt lat="55.736774" lon="26.218657">
<ele>129.638794</ele>
<time>2010-07-18T07:35:51Z</time>
<desc>lat.=55.736774, lon.=26.218657, Alt.=129.638794m. Speed=0.000000m/h.</desc>
<speed>0.000000</speed>
</trkpt>
<trkpt lat="55.736774" lon="26.218657">
<ele>129.634888</ele>
<time>2010-07-18T07:35:52Z</time>
<desc>lat.=55.736774, lon.=26.218657, Alt.=129.634888m. Speed=0.072000m/h.</desc>
<speed>0.020000</speed>
</trkpt>
<trkpt lat="55.736774" lon="26.218657">
<ele>129.630981</ele>
<time>2010-07-18T07:35:53Z</time>
<desc>lat.=55.736774, lon.=26.218657, Alt.=129.630981m. Speed=0.108000m/h.</desc>
<speed>0.030000</speed>
</trkpt>
<trkpt lat="55.736774" lon="26.218657">
<ele>129.623169</ele>
<time>2010-07-18T07:35:54Z</time>
<desc>lat.=55.736774, lon.=26.218657, Alt.=129.623169m. Speed=0.036000m/h.</desc>
<speed>0.010000</speed>
</trkpt>
<trkpt lat="55.736774" lon="26.218657">
<ele>129.615356</ele>
<time>2010-07-18T07:35:55Z</time>
<desc>lat.=55.736774, lon.=26.218657, Alt.=129.615356m. Speed=0.144000m/h.</desc>
<speed>0.040000</speed>
</trkpt>
<trkpt lat="55.736774" lon="26.218657">
<ele>129.615356</ele>
<time>2010-07-18T07:35:56Z</time>
<desc>lat.=55.736774, lon.=26.218657, Alt.=129.615356m. Speed=0.072000m/h.</desc>
<speed>0.020000</speed>
</trkpt>
<trkpt lat="55.736774" lon="26.218658">
<ele>129.615356</ele>
<time>2010-07-18T07:35:57Z</time>
<desc>lat.=55.736774, lon.=26.218658, Alt.=129.615356m. Speed=0.144000m/h.</desc>
<speed>0.040000</speed>
</trkpt>
<trkpt lat="55.736774" lon="26.218658">
<ele>129.615356</ele>
<time>2010-07-18T07:35:58Z</time>
<desc>lat.=55.736774, lon.=26.218658, Alt.=129.615356m. Speed=0.108000m/h.</desc>
<speed>0.030000</speed>
</trkpt>
<trkpt lat="55.736774" lon="26.218658">
<ele>129.615356</ele>
<time>2010-07-18T07:35:59Z</time>
<desc>lat.=55.736774, lon.=26.218658, Alt.=129.615356m. Speed=0.036000m/h.</desc>
<speed>0.010000</speed>
</trkpt>
<trkpt lat="55.736774" lon="26.218658">
<ele>129.615356</ele>
<time>2010-07-18T07:36:00Z</time>
<desc>lat.=55.736774, lon.=26.218658, Alt.=129.615356m. Speed=0.036000m/h.</desc>
<speed>0.010000</speed>
</trkpt>
<trkpt lat="55.736774" lon="26.218658">
<ele>129.611450</ele>
<time>2010-07-18T07:36:01Z</time>
<desc>lat.=55.736774, lon.=26.218658, Alt.=129.611450m. Speed=0.000000m/h.</desc>
<speed>0.000000</speed>
</trkpt>
<trkpt lat="55.736774" lon="26.218658">
<ele>129.615356</ele>
<time>2010-07-18T07:36:02Z</time>
<desc>lat.=55.736774, lon.=26.218658, Alt.=129.615356m. Speed=0.036000m/h.</desc>
<speed>0.010000</speed>
</trkpt>
<trkpt lat="55.736774" lon="26.218658">
<ele>129.611450</ele>
<time>2010-07-18T07:36:03Z</time>
<desc>lat.=55.736774, lon.=26.218658, Alt.=129.611450m. Speed=0.000000m/h.</desc>
<speed>0.000000</speed>
</trkpt>
<trkpt lat="55.736774" lon="26.218658">
<ele>129.611450</ele>
<time>2010-07-18T07:36:04Z</time>
<desc>lat.=55.736774, lon.=26.218658, Alt.=129.611450m. Speed=0.000000m/h.</desc>
<speed>0.000000</speed>
</trkpt>
<trkpt lat="55.736774" lon="26.218658">
<ele>129.611450</ele>
<time>2010-07-18T07:36:05Z</time>
<desc>lat.=55.736774, lon.=26.218658, Alt.=129.611450m. Speed=0.036000m/h.</desc>
<speed>0.010000</speed>
</trkpt>
<trkpt lat="55.736774" lon="26.218658">
<ele>129.607544</ele>
<time>2010-07-18T07:36:06Z</time>
<desc>lat.=55.736774, lon.=26.218658, Alt.=129.607544m. Speed=0.108000m/h.</desc>
<speed>0.030000</speed>
</trkpt>
<trkpt lat="55.736774" lon="26.218658">
<ele>129.611450</ele>
<time>2010-07-18T07:36:07Z</time>
<desc>lat.=55.736774, lon.=26.218658, Alt.=129.611450m. Speed=0.072000m/h.</desc>
<speed>0.020000</speed>
</trkpt>
<trkpt lat="55.736774" lon="26.218658">
<ele>129.615356</ele>
<time>2010-07-18T07:36:08Z</time>
<desc>lat.=55.736774, lon.=26.218658, Alt.=129.615356m. Speed=0.144000m/h.</desc>
<speed>0.040000</speed>
</trkpt>
<trkpt lat="55.736774" lon="26.218658">
<ele>129.619263</ele>
<time>2010-07-18T07:36:09Z</time>
<desc>lat.=55.736774, lon.=26.218658, Alt.=129.619263m. Speed=0.144000m/h.</desc>
<speed>0.040000</speed>
</trkpt>
<trkpt lat="55.736774" lon="26.218660">
<ele>129.623169</ele>
<time>2010-07-18T07:36:10Z</time>
<desc>lat.=55.736774, lon.=26.218660, Alt.=129.623169m. Speed=0.216000m/h.</desc>
<speed>0.060000</speed>
</trkpt>
<trkpt lat="55.736774" lon="26.218660">
<ele>129.627075</ele>
<time>2010-07-18T07:36:11Z</time>
<desc>lat.=55.736774, lon.=26.218660, Alt.=129.627075m. Speed=0.072000m/h.</desc>
<speed>0.020000</speed>
</trkpt>
<trkpt lat="55.736774" lon="26.218660">
<ele>129.634888</ele>
<time>2010-07-18T07:36:12Z</time>
<desc>lat.=55.736774, lon.=26.218660, Alt.=129.634888m. Speed=0.180000m/h.</desc>
<speed>0.050000</speed>
</trkpt>
<trkpt lat="55.736774" lon="26.218660">
<ele>129.638794</ele>
<time>2010-07-18T07:36:13Z</time>
<desc>lat.=55.736774, lon.=26.218660, Alt.=129.638794m. Speed=0.144000m/h.</desc>
<speed>0.040000</speed>
</trkpt>
<trkpt lat="55.736774" lon="26.218660">
<ele>129.638794</ele>
<time>2010-07-18T07:36:14Z</time>
<desc>lat.=55.736774, lon.=26.218660, Alt.=129.638794m. Speed=0.180000m/h.</desc>
<speed>0.050000</speed>
</trkpt>
<trkpt lat="55.736774" lon="26.218660">
<ele>129.630981</ele>
<time>2010-07-18T07:36:15Z</time>
<desc>lat.=55.736774, lon.=26.218660, Alt.=129.630981m. Speed=0.108000m/h.</desc>
<speed>0.030000</speed>
</trkpt>
<trkpt lat="55.736774" lon="26.218660">
<ele>129.634888</ele>
<time>2010-07-18T07:36:16Z</time>
<desc>lat.=55.736774, lon.=26.218660, Alt.=129.634888m. Speed=0.036000m/h.</desc>
<speed>0.010000</speed>
</trkpt>
<trkpt lat="55.736774" lon="26.218662">
<ele>129.630981</ele>
<time>2010-07-18T07:36:17Z</time>
<desc>lat.=55.736774, lon.=26.218662, Alt.=129.630981m. Speed=0.144000m/h.</desc>
<speed>0.040000</speed>
</trkpt>
<trkpt lat="55.736774" lon="26.218662">
<ele>129.634888</ele>
<time>2010-07-18T07:36:18Z</time>
<desc>lat.=55.736774, lon.=26.218662, Alt.=129.634888m. Speed=0.072000m/h.</desc>
<speed>0.020000</speed>
</trkpt>
<trkpt lat="55.736774" lon="26.218662">
<ele>129.650513</ele>
<time>2010-07-18T07:36:19Z</time>
<desc>lat.=55.736774, lon.=26.218662, Alt.=129.650513m. Speed=0.072000m/h.</desc>
<speed>0.020000</speed>
</trkpt>
<trkpt lat="55.736774" lon="26.218662">
<ele>129.658325</ele>
<time>2010-07-18T07:36:20Z</time>
<desc>lat.=55.736774, lon.=26.218662, Alt.=129.658325m. Speed=0.144000m/h.</desc>
<speed>0.040000</speed>
</trkpt>
<trkpt lat="55.736774" lon="26.218662">
<ele>129.677856</ele>
<time>2010-07-18T07:36:21Z</time>
<desc>lat.=55.736774, lon.=26.218662, Alt.=129.677856m. Speed=0.072000m/h.</desc>
<speed>0.020000</speed>
</trkpt>
<trkpt lat="55.736774" lon="26.218662">
<ele>129.701294</ele>
<time>2010-07-18T07:36:22Z</time>
<desc>lat.=55.736774, lon.=26.218662, Alt.=129.701294m. Speed=0.072000m/h.</desc>
<speed>0.020000</speed>
</trkpt>
<trkpt lat="55.736774" lon="26.218662">
<ele>129.709106</ele>
<time>2010-07-18T07:36:23Z</time>
<desc>lat.=55.736774, lon.=26.218662, Alt.=129.709106m. Speed=0.036000m/h.</desc>
<speed>0.010000</speed>
</trkpt>
<trkpt lat="55.736774" lon="26.218662">
<ele>129.709106</ele>
<time>2010-07-18T07:36:24Z</time>
<desc>lat.=55.736774, lon.=26.218662, Alt.=129.709106m. Speed=0.000000m/h.</desc>
<speed>0.000000</speed>
</trkpt>
<trkpt lat="55.736774" lon="26.218662">
<ele>129.713013</ele>
<time>2010-07-18T07:36:25Z</time>
<desc>lat.=55.736774, lon.=26.218662, Alt.=129.713013m. Speed=0.000000m/h.</desc>
<speed>0.000000</speed>
</trkpt>
<trkpt lat="55.736774" lon="26.218662">
<ele>129.713013</ele>
<time>2010-07-18T07:36:26Z</time>
<desc>lat.=55.736774, lon.=26.218662, Alt.=129.713013m. Speed=0.036000m/h.</desc>
<speed>0.010000</speed>
</trkpt>
<trkpt lat="55.736774" lon="26.218664">
<ele>129.709106</ele>
<time>2010-07-18T07:36:27Z</time>
<desc>lat.=55.736774, lon.=26.218664, Alt.=129.709106m. Speed=0.036000m/h.</desc>
<speed>0.010000</speed>
</trkpt>
<trkpt lat="55.736774" lon="26.218664">
<ele>129.709106</ele>
<time>2010-07-18T07:36:28Z</time>
<desc>lat.=55.736774, lon.=26.218664, Alt.=129.709106m. Speed=0.144000m/h.</desc>
<speed>0.040000</speed>
</trkpt>
<trkpt lat="55.736774" lon="26.218664">
<ele>129.709106</ele>
<time>2010-07-18T07:36:29Z</time>
<desc>lat.=55.736774, lon.=26.218664, Alt.=129.709106m. Speed=0.072000m/h.</desc>
<speed>0.020000</speed>
</trkpt>
<trkpt lat="55.736774" lon="26.218664">
<ele>129.709106</ele>
<time>2010-07-18T07:36:30Z</time>
<desc>lat.=55.736774, lon.=26.218664, Alt.=129.709106m. Speed=0.036000m/h.</desc>
<speed>0.010000</speed>
</trkpt>
<trkpt lat="55.736774" lon="26.218664">
<ele>129.713013</ele>
<time>2010-07-18T07:36:31Z</time>
<desc>lat.=55.736774, lon.=26.218664, Alt.=129.713013m. Speed=0.108000m/h.</desc>
<speed>0.030000</speed>
</trkpt>
<trkpt lat="55.736774" lon="26.218664">
<ele>129.713013</ele>
<time>2010-07-18T07:36:32Z</time>
<desc>lat.=55.736774, lon.=26.218664, Alt.=129.713013m. Speed=0.000000m/h.</desc>
<speed>0.000000</speed>
</trkpt>
<trkpt lat="55.736774" lon="26.218664">
<ele>129.720825</ele>
<time>2010-07-18T07:36:33Z</time>
<desc>lat.=55.736774, lon.=26.218664, Alt.=129.720825m. Speed=0.108000m/h.</desc>
<speed>0.030000</speed>
</trkpt>
<trkpt lat="55.736774" lon="26.218664">
<ele>129.732544</ele>
<time>2010-07-18T07:36:34Z</time>
<desc>lat.=55.736774, lon.=26.218664, Alt.=129.732544m. Speed=0.144000m/h.</desc>
<speed>0.040000</speed>
</trkpt>
<trkpt lat="55.736774" lon="26.218666">
<ele>129.740356</ele>
<time>2010-07-18T07:36:35Z</time>
<desc>lat.=55.736774, lon.=26.218666, Alt.=129.740356m. Speed=0.144000m/h.</desc>
<speed>0.040000</speed>
</trkpt>
<trkpt lat="55.736774" lon="26.218666">
<ele>129.748169</ele>
<time>2010-07-18T07:36:36Z</time>
<desc>lat.=55.736774, lon.=26.218666, Alt.=129.748169m. Speed=0.108000m/h.</desc>
<speed>0.030000</speed>
</trkpt>
<trkpt lat="55.736774" lon="26.218666">
<ele>129.759888</ele>
<time>2010-07-18T07:36:37Z</time>
<desc>lat.=55.736774, lon.=26.218666, Alt.=129.759888m. Speed=0.108000m/h.</desc>
<speed>0.030000</speed>
</trkpt>
<trkpt lat="55.736774" lon="26.218666">
<ele>129.763794</ele>
<time>2010-07-18T07:36:38Z</time>
<desc>lat.=55.736774, lon.=26.218666, Alt.=129.763794m. Speed=0.036000m/h.</desc>
<speed>0.010000</speed>
</trkpt>
<trkpt lat="55.736774" lon="26.218666">
<ele>129.767700</ele>
<time>2010-07-18T07:36:39Z</time>
<desc>lat.=55.736774, lon.=26.218666, Alt.=129.767700m. Speed=0.108000m/h.</desc>
<speed>0.030000</speed>
</trkpt>
<trkpt lat="55.736774" lon="26.218666">
<ele>129.775513</ele>
<time>2010-07-18T07:36:40Z</time>
<desc>lat.=55.736774, lon.=26.218666, Alt.=129.775513m. Speed=0.108000m/h.</desc>
<speed>0.030000</speed>
</trkpt>
<trkpt lat="55.736774" lon="26.218666">
<ele>129.787231</ele>
<time>2010-07-18T07:36:41Z</time>
<desc>lat.=55.736774, lon.=26.218666, Alt.=129.787231m. Speed=0.000000m/h.</desc>
<speed>0.000000</speed>
</trkpt>
<trkpt lat="55.736774" lon="26.218666">
<ele>129.791138</ele>
<time>2010-07-18T07:36:42Z</time>
<desc>lat.=55.736774, lon.=26.218666, Alt.=129.791138m. Speed=0.036000m/h.</desc>
<speed>0.010000</speed>
</trkpt>
<trkpt lat="55.736774" lon="26.218666">
<ele>129.798950</ele>
<time>2010-07-18T07:36:43Z</time>
<desc>lat.=55.736774, lon.=26.218666, Alt.=129.798950m. Speed=0.036000m/h.</desc>
<speed>0.010000</speed>
</trkpt>
<trkpt lat="55.736774" lon="26.218666">
<ele>129.806763</ele>
<time>2010-07-18T07:36:44Z</time>
<desc>lat.=55.736774, lon.=26.218666, Alt.=129.806763m. Speed=0.036000m/h.</desc>
<speed>0.010000</speed>
</trkpt>
<trkpt lat="55.736774" lon="26.218666">
<ele>129.806763</ele>
<time>2010-07-18T07:36:45Z</time>
<desc>lat.=55.736774, lon.=26.218666, Alt.=129.806763m. Speed=0.108000m/h.</desc>
<speed>0.030000</speed>
</trkpt>
<trkpt lat="55.736774" lon="26.218668">
<ele>129.806763</ele>
<time>2010-07-18T07:36:46Z</time>
<desc>lat.=55.736774, lon.=26.218668, Alt.=129.806763m. Speed=0.036000m/h.</desc>
<speed>0.010000</speed>
</trkpt>
<trkpt lat="55.736774" lon="26.218668">
<ele>129.814575</ele>
<time>2010-07-18T07:36:47Z</time>
<desc>lat.=55.736774, lon.=26.218668, Alt.=129.814575m. Speed=0.144000m/h.</desc>
<speed>0.040000</speed>
</trkpt>
<trkpt lat="55.736774" lon="26.218668">
<ele>129.818481</ele>
<time>2010-07-18T07:36:48Z</time>
<desc>lat.=55.736774, lon.=26.218668, Alt.=129.818481m. Speed=0.000000m/h.</desc>
<speed>0.000000</speed>
</trkpt>
<trkpt lat="55.736774" lon="26.218668">
<ele>129.826294</ele>
<time>2010-07-18T07:36:49Z</time>
<desc>lat.=55.736774, lon.=26.218668, Alt.=129.826294m. Speed=0.036000m/h.</desc>
<speed>0.010000</speed>
</trkpt>
<trkpt lat="55.736774" lon="26.218668">
<ele>129.830200</ele>
<time>2010-07-18T07:36:50Z</time>
<desc>lat.=55.736774, lon.=26.218668, Alt.=129.830200m. Speed=0.036000m/h.</desc>
<speed>0.010000</speed>
</trkpt>
<trkpt lat="55.736771" lon="26.218668">
<ele>129.838013</ele>
<time>2010-07-18T07:36:51Z</time>
<desc>lat.=55.736771, lon.=26.218668, Alt.=129.838013m. Speed=0.108000m/h.</desc>
<speed>0.030000</speed>
</trkpt>
<trkpt lat="55.736771" lon="26.218668">
<ele>129.841919</ele>
<time>2010-07-18T07:36:52Z</time>
<desc>lat.=55.736771, lon.=26.218668, Alt.=129.841919m. Speed=0.072000m/h.</desc>
<speed>0.020000</speed>
</trkpt>
<trkpt lat="55.736771" lon="26.218668">
<ele>129.849731</ele>
<time>2010-07-18T07:36:53Z</time>
<desc>lat.=55.736771, lon.=26.218668, Alt.=129.849731m. Speed=0.036000m/h.</desc>
<speed>0.010000</speed>
</trkpt>
<trkpt lat="55.736771" lon="26.218668">
<ele>129.849731</ele>
<time>2010-07-18T07:36:54Z</time>
<desc>lat.=55.736771, lon.=26.218668, Alt.=129.849731m. Speed=0.036000m/h.</desc>
<speed>0.010000</speed>
</trkpt>
<trkpt lat="55.736771" lon="26.218668">
<ele>129.853638</ele>
<time>2010-07-18T07:36:55Z</time>
<desc>lat.=55.736771, lon.=26.218668, Alt.=129.853638m. Speed=0.108000m/h.</desc>
<speed>0.030000</speed>
</trkpt>
<trkpt lat="55.736771" lon="26.218668">
<ele>129.849731</ele>
<time>2010-07-18T07:36:56Z</time>
<desc>lat.=55.736771, lon.=26.218668, Alt.=129.849731m. Speed=0.072000m/h.</desc>
<speed>0.020000</speed>
</trkpt>
<trkpt lat="55.736771" lon="26.218668">
<ele>129.853638</ele>
<time>2010-07-18T07:36:57Z</time>
<desc>lat.=55.736771, lon.=26.218668, Alt.=129.853638m. Speed=0.108000m/h.</desc>
<speed>0.030000</speed>
</trkpt>
<trkpt lat="55.736771" lon="26.218668">
<ele>129.853638</ele>
<time>2010-07-18T07:36:58Z</time>
<desc>lat.=55.736771, lon.=26.218668, Alt.=129.853638m. Speed=0.036000m/h.</desc>
<speed>0.010000</speed>
</trkpt>
<trkpt lat="55.736771" lon="26.218668">
<ele>129.849731</ele>
<time>2010-07-18T07:36:59Z</time>
<desc>lat.=55.736771, lon.=26.218668, Alt.=129.849731m. Speed=0.144000m/h.</desc>
<speed>0.040000</speed>
</trkpt>
<trkpt lat="55.736771" lon="26.218668">
<ele>129.845825</ele>
<time>2010-07-18T07:37:00Z</time>
<desc>lat.=55.736771, lon.=26.218668, Alt.=129.845825m. Speed=0.108000m/h.</desc>
<speed>0.030000</speed>
</trkpt>
<trkpt lat="55.736771" lon="26.218668">
<ele>129.845825</ele>
<time>2010-07-18T07:37:01Z</time>
<desc>lat.=55.736771, lon.=26.218668, Alt.=129.845825m. Speed=0.036000m/h.</desc>
<speed>0.010000</speed>
</trkpt>
<trkpt lat="55.736771" lon="26.218668">
<ele>129.838013</ele>
<time>2010-07-18T07:37:02Z</time>
<desc>lat.=55.736771, lon.=26.218668, Alt.=129.838013m. Speed=0.108000m/h.</desc>
<speed>0.030000</speed>
</trkpt>
<trkpt lat="55.736771" lon="26.218668">
<ele>129.838013</ele>
<time>2010-07-18T07:37:03Z</time>
<desc>lat.=55.736771, lon.=26.218668, Alt.=129.838013m. Speed=0.072000m/h.</desc>
<speed>0.020000</speed>
</trkpt>
<trkpt lat="55.736771" lon="26.218668">
<ele>129.834106</ele>
<time>2010-07-18T07:37:04Z</time>
<desc>lat.=55.736771, lon.=26.218668, Alt.=129.834106m. Speed=0.036000m/h.</desc>
<speed>0.010000</speed>
</trkpt>
<trkpt lat="55.736771" lon="26.218668">
<ele>129.838013</ele>
<time>2010-07-18T07:37:05Z</time>
<desc>lat.=55.736771, lon.=26.218668, Alt.=129.838013m. Speed=0.072000m/h.</desc>
<speed>0.020000</speed>
</trkpt>
<trkpt lat="55.736771" lon="26.218670">
<ele>129.841919</ele>
<time>2010-07-18T07:37:06Z</time>
<desc>lat.=55.736771, lon.=26.218670, Alt.=129.841919m. Speed=0.108000m/h.</desc>
<speed>0.030000</speed>
</trkpt>
<trkpt lat="55.736771" lon="26.218670">
<ele>129.838013</ele>
<time>2010-07-18T07:37:07Z</time>
<desc>lat.=55.736771, lon.=26.218670, Alt.=129.838013m. Speed=0.072000m/h.</desc>
<speed>0.020000</speed>
</trkpt>
<trkpt lat="55.736771" lon="26.218670">
<ele>129.834106</ele>
<time>2010-07-18T07:37:08Z</time>
<desc>lat.=55.736771, lon.=26.218670, Alt.=129.834106m. Speed=0.072000m/h.</desc>
<speed>0.020000</speed>
</trkpt>
<trkpt lat="55.736771" lon="26.218670">
<ele>129.834106</ele>
<time>2010-07-18T07:37:09Z</time>
<desc>lat.=55.736771, lon.=26.218670, Alt.=129.834106m. Speed=0.072000m/h.</desc>
<speed>0.020000</speed>
</trkpt>
<trkpt lat="55.736771" lon="26.218670">
<ele>129.834106</ele>
<time>2010-07-18T07:37:10Z</time>
<desc>lat.=55.736771, lon.=26.218670, Alt.=129.834106m. Speed=0.000000m/h.</desc>
<speed>0.000000</speed>
</trkpt>
<trkpt lat="55.736771" lon="26.218670">
<ele>129.838013</ele>
<time>2010-07-18T07:37:11Z</time>
<desc>lat.=55.736771, lon.=26.218670, Alt.=129.838013m. Speed=0.000000m/h.</desc>
<speed>0.000000</speed>
</trkpt>
<trkpt lat="55.736771" lon="26.218670">
<ele>129.838013</ele>
<time>2010-07-18T07:37:12Z</time>
<desc>lat.=55.736771, lon.=26.218670, Alt.=129.838013m. Speed=0.072000m/h.</desc>
<speed>0.020000</speed>
</trkpt>
<trkpt lat="55.736771" lon="26.218670">
<ele>129.841919</ele>
<time>2010-07-18T07:37:13Z</time>
<desc>lat.=55.736771, lon.=26.218670, Alt.=129.841919m. Speed=0.144000m/h.</desc>
<speed>0.040000</speed>
</trkpt>
<trkpt lat="55.736771" lon="26.218670">
<ele>129.841919</ele>
<time>2010-07-18T07:37:14Z</time>
<desc>lat.=55.736771, lon.=26.218670, Alt.=129.841919m. Speed=0.036000m/h.</desc>
<speed>0.010000</speed>
</trkpt>
<trkpt lat="55.736771" lon="26.218670">
<ele>129.845825</ele>
<time>2010-07-18T07:37:15Z</time>
<desc>lat.=55.736771, lon.=26.218670, Alt.=129.845825m. Speed=0.072000m/h.</desc>
<speed>0.020000</speed>
</trkpt>
<trkpt lat="55.736771" lon="26.218670">
<ele>129.841919</ele>
<time>2010-07-18T07:37:16Z</time>
<desc>lat.=55.736771, lon.=26.218670, Alt.=129.841919m. Speed=0.036000m/h.</desc>
<speed>0.010000</speed>
</trkpt>
<trkpt lat="55.736771" lon="26.218670">
<ele>129.841919</ele>
<time>2010-07-18T07:37:17Z</time>
<desc>lat.=55.736771, lon.=26.218670, Alt.=129.841919m. Speed=0.036000m/h.</desc>
<speed>0.010000</speed>
</trkpt>
<trkpt lat="55.736771" lon="26.218670">
<ele>129.841919</ele>
<time>2010-07-18T07:37:18Z</time>
<desc>lat.=55.736771, lon.=26.218670, Alt.=129.841919m. Speed=0.072000m/h.</desc>
<speed>0.020000</speed>
</trkpt>
<trkpt lat="55.736771" lon="26.218672">
<ele>129.841919</ele>
<time>2010-07-18T07:37:19Z</time>
<desc>lat.=55.736771, lon.=26.218672, Alt.=129.841919m. Speed=0.072000m/h.</desc>
<speed>0.020000</speed>
</trkpt>
<trkpt lat="55.736771" lon="26.218672">
<ele>129.841919</ele>
<time>2010-07-18T07:37:20Z</time>
<desc>lat.=55.736771, lon.=26.218672, Alt.=129.841919m. Speed=0.072000m/h.</desc>
<speed>0.020000</speed>
</trkpt>
<trkpt lat="55.736771" lon="26.218672">
<ele>129.845825</ele>
<time>2010-07-18T07:37:21Z</time>
<desc>lat.=55.736771, lon.=26.218672, Alt.=129.845825m. Speed=0.216000m/h.</desc>
<speed>0.060000</speed>
</trkpt>
<trkpt lat="55.736771" lon="26.218672">
<ele>129.845825</ele>
<time>2010-07-18T07:37:22Z</time>
<desc>lat.=55.736771, lon.=26.218672, Alt.=129.845825m. Speed=0.108000m/h.</desc>
<speed>0.030000</speed>
</trkpt>
<trkpt lat="55.736771" lon="26.218672">
<ele>129.845825</ele>
<time>2010-07-18T07:37:23Z</time>
<desc>lat.=55.736771, lon.=26.218672, Alt.=129.845825m. Speed=0.000000m/h.</desc>
<speed>0.000000</speed>
</trkpt>
<trkpt lat="55.736771" lon="26.218672">
<ele>129.849731</ele>
<time>2010-07-18T07:37:24Z</time>
<desc>lat.=55.736771, lon.=26.218672, Alt.=129.849731m. Speed=0.036000m/h.</desc>
<speed>0.010000</speed>
</trkpt>
<trkpt lat="55.736771" lon="26.218672">
<ele>129.857544</ele>
<time>2010-07-18T07:37:25Z</time>
<desc>lat.=55.736771, lon.=26.218672, Alt.=129.857544m. Speed=0.036000m/h.</desc>
<speed>0.010000</speed>
</trkpt>
<trkpt lat="55.736771" lon="26.218672">
<ele>129.857544</ele>
<time>2010-07-18T07:37:26Z</time>
<desc>lat.=55.736771, lon.=26.218672, Alt.=129.857544m. Speed=0.072000m/h.</desc>
<speed>0.020000</speed>
</trkpt>
<trkpt lat="55.736771" lon="26.218672">
<ele>129.857544</ele>
<time>2010-07-18T07:37:27Z</time>
<desc>lat.=55.736771, lon.=26.218672, Alt.=129.857544m. Speed=0.252000m/h.</desc>
<speed>0.070000</speed>
</trkpt>
<trkpt lat="55.736771" lon="26.218672">
<ele>129.857544</ele>
<time>2010-07-18T07:37:28Z</time>
<desc>lat.=55.736771, lon.=26.218672, Alt.=129.857544m. Speed=0.036000m/h.</desc>
<speed>0.010000</speed>
</trkpt>
<trkpt lat="55.736771" lon="26.218672">
<ele>129.861450</ele>
<time>2010-07-18T07:37:29Z</time>
<desc>lat.=55.736771, lon.=26.218672, Alt.=129.861450m. Speed=0.000000m/h.</desc>
<speed>0.000000</speed>
</trkpt>
<trkpt lat="55.736771" lon="26.218672">
<ele>129.857544</ele>
<time>2010-07-18T07:37:30Z</time>
<desc>lat.=55.736771, lon.=26.218672, Alt.=129.857544m. Speed=0.000000m/h.</desc>
<speed>0.000000</speed>
</trkpt>
<trkpt lat="55.736771" lon="26.218672">
<ele>129.853638</ele>
<time>2010-07-18T07:37:31Z</time>
<desc>lat.=55.736771, lon.=26.218672, Alt.=129.853638m. Speed=0.000000m/h.</desc>
<speed>0.000000</speed>
</trkpt>
<trkpt lat="55.736771" lon="26.218672">
<ele>129.853638</ele>
<time>2010-07-18T07:37:32Z</time>
<desc>lat.=55.736771, lon.=26.218672, Alt.=129.853638m. Speed=0.000000m/h.</desc>
<speed>0.000000</speed>
</trkpt>
<trkpt lat="55.736771" lon="26.218672">
<ele>129.853638</ele>
<time>2010-07-18T07:37:33Z</time>
<desc>lat.=55.736771, lon.=26.218672, Alt.=129.853638m. Speed=0.072000m/h.</desc>
<speed>0.020000</speed>
</trkpt>
<trkpt lat="55.736771" lon="26.218672">
<ele>129.853638</ele>
<time>2010-07-18T07:37:34Z</time>
<desc>lat.=55.736771, lon.=26.218672, Alt.=129.853638m. Speed=0.108000m/h.</desc>
<speed>0.030000</speed>
</trkpt>
<trkpt lat="55.736771" lon="26.218674">
<ele>129.853638</ele>
<time>2010-07-18T07:37:35Z</time>
<desc>lat.=55.736771, lon.=26.218674, Alt.=129.853638m. Speed=0.396000m/h.</desc>
<speed>0.110000</speed>
</trkpt>
<trkpt lat="55.736771" lon="26.218676">
<ele>129.849731</ele>
<time>2010-07-18T07:37:36Z</time>
<desc>lat.=55.736771, lon.=26.218676, Alt.=129.849731m. Speed=0.648000m/h.</desc>
<speed>0.180000</speed>
</trkpt>
<trkpt lat="55.736771" lon="26.218678">
<ele>129.849731</ele>
<time>2010-07-18T07:37:37Z</time>
<desc>lat.=55.736771, lon.=26.218678, Alt.=129.849731m. Speed=1.980000m/h.</desc>
<speed>0.550000</speed>
</trkpt>
<trkpt lat="55.736774" lon="26.218706">
<ele>129.888794</ele>
<time>2010-07-18T07:37:38Z</time>
<desc>lat.=55.736774, lon.=26.218706, Alt.=129.888794m. Speed=3.096000m/h.</desc>
<speed>0.860000</speed>
</trkpt>
<trkpt lat="55.736786" lon="26.218716">
<ele>129.986450</ele>
<time>2010-07-18T07:37:39Z</time>
<desc>lat.=55.736786, lon.=26.218716, Alt.=129.986450m. Speed=4.752000m/h.</desc>
<speed>1.320000</speed>
</trkpt>
<trkpt lat="55.736813" lon="26.218725">
<ele>129.705200</ele>
<time>2010-07-18T07:37:40Z</time>
<desc>lat.=55.736813, lon.=26.218725, Alt.=129.705200m. Speed=7.308000m/h.</desc>
<speed>2.030000</speed>
</trkpt>
<trkpt lat="55.736832" lon="26.218706">
<ele>129.482544</ele>
<time>2010-07-18T07:37:41Z</time>
<desc>lat.=55.736832, lon.=26.218706, Alt.=129.482544m. Speed=7.848000m/h.</desc>
<speed>2.180000</speed>
</trkpt>
<trkpt lat="55.736843" lon="26.218683">
<ele>129.439575</ele>
<time>2010-07-18T07:37:42Z</time>
<desc>lat.=55.736843, lon.=26.218683, Alt.=129.439575m. Speed=6.624000m/h.</desc>
<speed>1.840000</speed>
</trkpt>
<trkpt lat="55.736843" lon="26.218660">
<ele>129.470825</ele>
<time>2010-07-18T07:37:43Z</time>
<desc>lat.=55.736843, lon.=26.218660, Alt.=129.470825m. Speed=5.364000m/h.</desc>
<speed>1.490000</speed>
</trkpt>
<trkpt lat="55.736839" lon="26.218645">
<ele>129.615356</ele>
<time>2010-07-18T07:37:44Z</time>
<desc>lat.=55.736839, lon.=26.218645, Alt.=129.615356m. Speed=4.572000m/h.</desc>
<speed>1.270000</speed>
</trkpt>
<trkpt lat="55.736839" lon="26.218628">
<ele>129.752075</ele>
<time>2010-07-18T07:37:45Z</time>
<desc>lat.=55.736839, lon.=26.218628, Alt.=129.752075m. Speed=6.300000m/h.</desc>
<speed>1.750000</speed>
</trkpt>
<trkpt lat="55.736843" lon="26.218603">
<ele>129.857544</ele>
<time>2010-07-18T07:37:46Z</time>
<desc>lat.=55.736843, lon.=26.218603, Alt.=129.857544m. Speed=7.056000m/h.</desc>
<speed>1.960000</speed>
</trkpt>
<trkpt lat="55.736855" lon="26.218573">
<ele>129.943481</ele>
<time>2010-07-18T07:37:47Z</time>
<desc>lat.=55.736855, lon.=26.218573, Alt.=129.943481m. Speed=8.964000m/h.</desc>
<speed>2.490000</speed>
</trkpt>
<trkpt lat="55.736866" lon="26.218546">
<ele>130.045044</ele>
<time>2010-07-18T07:37:48Z</time>
<desc>lat.=55.736866, lon.=26.218546, Alt.=130.045044m. Speed=7.776000m/h.</desc>
<speed>2.160000</speed>
</trkpt>
<trkpt lat="55.736874" lon="26.218513">
<ele>130.431763</ele>
<time>2010-07-18T07:37:49Z</time>
<desc>lat.=55.736874, lon.=26.218513, Alt.=130.431763m. Speed=9.504000m/h.</desc>
<speed>2.640000</speed>
</trkpt>
<trkpt lat="55.736874" lon="26.218473">
<ele>130.595825</ele>
<time>2010-07-18T07:37:50Z</time>
<desc>lat.=55.736874, lon.=26.218473, Alt.=130.595825m. Speed=10.116000m/h.</desc>
<speed>2.810000</speed>
</trkpt>
<trkpt lat="55.736870" lon="26.218431">
<ele>130.963013</ele>
<time>2010-07-18T07:37:51Z</time>
<desc>lat.=55.736870, lon.=26.218431, Alt.=130.963013m. Speed=12.204000m/h.</desc>
<speed>3.390000</speed>
</trkpt>
<trkpt lat="55.736870" lon="26.218386">
<ele>131.275513</ele>
<time>2010-07-18T07:37:52Z</time>
<desc>lat.=55.736870, lon.=26.218386, Alt.=131.275513m. Speed=12.024000m/h.</desc>
<speed>3.340000</speed>
</trkpt>
<trkpt lat="55.736874" lon="26.218340">
<ele>131.486450</ele>
<time>2010-07-18T07:37:53Z</time>
<desc>lat.=55.736874, lon.=26.218340, Alt.=131.486450m. Speed=10.908000m/h.</desc>
<speed>3.030000</speed>
</trkpt>
<trkpt lat="55.736881" lon="26.218296">
<ele>131.548950</ele>
<time>2010-07-18T07:37:54Z</time>
<desc>lat.=55.736881, lon.=26.218296, Alt.=131.548950m. Speed=10.908000m/h.</desc>
<speed>3.030000</speed>
</trkpt>
<trkpt lat="55.736889" lon="26.218256">
<ele>131.654419</ele>
<time>2010-07-18T07:37:55Z</time>
<desc>lat.=55.736889, lon.=26.218256, Alt.=131.654419m. Speed=10.296000m/h.</desc>
<speed>2.860000</speed>
</trkpt>
<trkpt lat="55.736900" lon="26.218210">
<ele>132.123169</ele>
<time>2010-07-18T07:37:56Z</time>
<desc>lat.=55.736900, lon.=26.218210, Alt.=132.123169m. Speed=11.952000m/h.</desc>
<speed>3.320000</speed>
</trkpt>
<trkpt lat="55.736904" lon="26.218155">
<ele>132.353638</ele>
<time>2010-07-18T07:37:57Z</time>
<desc>lat.=55.736904, lon.=26.218155, Alt.=132.353638m. Speed=12.744000m/h.</desc>
<speed>3.540000</speed>
</trkpt>
<trkpt lat="55.736916" lon="26.218098">
<ele>132.525513</ele>
<time>2010-07-18T07:37:58Z</time>
<desc>lat.=55.736916, lon.=26.218098, Alt.=132.525513m. Speed=12.384000m/h.</desc>
<speed>3.440000</speed>
</trkpt>
<trkpt lat="55.736927" lon="26.218039">
<ele>132.505981</ele>
<time>2010-07-18T07:37:59Z</time>
<desc>lat.=55.736927, lon.=26.218039, Alt.=132.505981m. Speed=12.744000m/h.</desc>
<speed>3.540000</speed>
</trkpt>
<trkpt lat="55.736938" lon="26.217983">
<ele>132.677856</ele>
<time>2010-07-18T07:38:00Z</time>
<desc>lat.=55.736938, lon.=26.217983, Alt.=132.677856m. Speed=13.536000m/h.</desc>
<speed>3.760000</speed>
</trkpt>
<trkpt lat="55.736954" lon="26.217926">
<ele>132.982544</ele>
<time>2010-07-18T07:38:01Z</time>
<desc>lat.=55.736954, lon.=26.217926, Alt.=132.982544m. Speed=14.472000m/h.</desc>
<speed>4.020000</speed>
</trkpt>
<trkpt lat="55.736965" lon="26.217873">
<ele>133.107544</ele>
<time>2010-07-18T07:38:02Z</time>
<desc>lat.=55.736965, lon.=26.217873, Alt.=133.107544m. Speed=14.436000m/h.</desc>
<speed>4.010000</speed>
</trkpt>
<trkpt lat="55.736977" lon="26.217810">
<ele>133.166138</ele>
<time>2010-07-18T07:38:03Z</time>
<desc>lat.=55.736977, lon.=26.217810, Alt.=133.166138m. Speed=14.040000m/h.</desc>
<speed>3.900000</speed>
</trkpt>
<trkpt lat="55.736992" lon="26.217751">
<ele>133.568481</ele>
<time>2010-07-18T07:38:04Z</time>
<desc>lat.=55.736992, lon.=26.217751, Alt.=133.568481m. Speed=13.536000m/h.</desc>
<speed>3.760000</speed>
</trkpt>
<trkpt lat="55.737003" lon="26.217697">
<ele>134.025513</ele>
<time>2010-07-18T07:38:05Z</time>
<desc>lat.=55.737003, lon.=26.217697, Alt.=134.025513m. Speed=12.024000m/h.</desc>
<speed>3.340000</speed>
</trkpt>
<trkpt lat="55.737019" lon="26.217651">
<ele>134.193481</ele>
<time>2010-07-18T07:38:06Z</time>
<desc>lat.=55.737019, lon.=26.217651, Alt.=134.193481m. Speed=10.944000m/h.</desc>
<speed>3.040000</speed>
</trkpt>
<trkpt lat="55.737030" lon="26.217606">
<ele>134.658325</ele>
<time>2010-07-18T07:38:07Z</time>
<desc>lat.=55.737030, lon.=26.217606, Alt.=134.658325m. Speed=12.312000m/h.</desc>
<speed>3.420000</speed>
</trkpt>
<trkpt lat="55.737041" lon="26.217550">
<ele>134.931763</ele>
<time>2010-07-18T07:38:08Z</time>
<desc>lat.=55.737041, lon.=26.217550, Alt.=134.931763m. Speed=12.672000m/h.</desc>
<speed>3.520000</speed>
</trkpt>
<trkpt lat="55.737049" lon="26.217493">
<ele>134.709106</ele>
<time>2010-07-18T07:38:09Z</time>
<desc>lat.=55.737049, lon.=26.217493, Alt.=134.709106m. Speed=14.112000m/h.</desc>
<speed>3.920000</speed>
</trkpt>
<trkpt lat="55.737057" lon="26.217430">
<ele>134.240356</ele>
<time>2010-07-18T07:38:10Z</time>
<desc>lat.=55.737057, lon.=26.217430, Alt.=134.240356m. Speed=14.184000m/h.</desc>
<speed>3.940000</speed>
</trkpt>
<trkpt lat="55.737064" lon="26.217377">
<ele>134.478638</ele>
<time>2010-07-18T07:38:11Z</time>
<desc>lat.=55.737064, lon.=26.217377, Alt.=134.478638m. Speed=12.420000m/h.</desc>
<speed>3.450000</speed>
</trkpt>
<trkpt lat="55.737076" lon="26.217323">
<ele>134.970825</ele>
<time>2010-07-18T07:38:12Z</time>
<desc>lat.=55.737076, lon.=26.217323, Alt.=134.970825m. Speed=11.520000m/h.</desc>
<speed>3.200000</speed>
</trkpt>
<trkpt lat="55.737087" lon="26.217279">
<ele>134.892700</ele>
<time>2010-07-18T07:38:13Z</time>
<desc>lat.=55.737087, lon.=26.217279, Alt.=134.892700m. Speed=10.368000m/h.</desc>
<speed>2.880000</speed>
</trkpt>
<trkpt lat="55.737091" lon="26.217232">
<ele>134.806763</ele>
<time>2010-07-18T07:38:14Z</time>
<desc>lat.=55.737091, lon.=26.217232, Alt.=134.806763m. Speed=10.764000m/h.</desc>
<speed>2.990000</speed>
</trkpt>
<trkpt lat="55.737099" lon="26.217194">
<ele>133.537231</ele>
<time>2010-07-18T07:38:15Z</time>
<desc>lat.=55.737099, lon.=26.217194, Alt.=133.537231m. Speed=10.296000m/h.</desc>
<speed>2.860000</speed>
</trkpt>
<trkpt lat="55.737110" lon="26.217152">
<ele>132.959106</ele>
<time>2010-07-18T07:38:16Z</time>
<desc>lat.=55.737110, lon.=26.217152, Alt.=132.959106m. Speed=10.224000m/h.</desc>
<speed>2.840000</speed>
</trkpt>
<trkpt lat="55.737122" lon="26.217110">
<ele>132.365356</ele>
<time>2010-07-18T07:38:17Z</time>
<desc>lat.=55.737122, lon.=26.217110, Alt.=132.365356m. Speed=9.972000m/h.</desc>
<speed>2.770000</speed>
</trkpt>
<trkpt lat="55.737133" lon="26.217068">
<ele>132.271606</ele>
<time>2010-07-18T07:38:18Z</time>
<desc>lat.=55.737133, lon.=26.217068, Alt.=132.271606m. Speed=10.620000m/h.</desc>
<speed>2.950000</speed>
</trkpt>
<trkpt lat="55.737141" lon="26.217026">
<ele>132.306763</ele>
<time>2010-07-18T07:38:19Z</time>
<desc>lat.=55.737141, lon.=26.217026, Alt.=132.306763m. Speed=10.512000m/h.</desc>
<speed>2.920000</speed>
</trkpt>
<trkpt lat="55.737148" lon="26.216980">
<ele>132.130981</ele>
<time>2010-07-18T07:38:20Z</time>
<desc>lat.=55.737148, lon.=26.216980, Alt.=132.130981m. Speed=10.080000m/h.</desc>
<speed>2.800000</speed>
</trkpt>
<trkpt lat="55.737156" lon="26.216942">
<ele>131.755981</ele>
<time>2010-07-18T07:38:21Z</time>
<desc>lat.=55.737156, lon.=26.216942, Alt.=131.755981m. Speed=9.288000m/h.</desc>
<speed>2.580000</speed>
</trkpt>
<trkpt lat="55.737164" lon="26.216906">
<ele>131.541138</ele>
<time>2010-07-18T07:38:22Z</time>
<desc>lat.=55.737164, lon.=26.216906, Alt.=131.541138m. Speed=8.496000m/h.</desc>
<speed>2.360000</speed>
</trkpt>
<trkpt lat="55.737171" lon="26.216871">
<ele>131.236450</ele>
<time>2010-07-18T07:38:23Z</time>
<desc>lat.=55.737171, lon.=26.216871, Alt.=131.236450m. Speed=8.172000m/h.</desc>
<speed>2.270000</speed>
</trkpt>
<trkpt lat="55.737183" lon="26.216839">
<ele>131.365356</ele>
<time>2010-07-18T07:38:24Z</time>
<desc>lat.=55.737183, lon.=26.216839, Alt.=131.365356m. Speed=8.172000m/h.</desc>
<speed>2.270000</speed>
</trkpt>
<trkpt lat="55.737190" lon="26.216808">
<ele>131.287231</ele>
<time>2010-07-18T07:38:25Z</time>
<desc>lat.=55.737190, lon.=26.216808, Alt.=131.287231m. Speed=6.948000m/h.</desc>
<speed>1.930000</speed>
</trkpt>
<trkpt lat="55.737194" lon="26.216780">
<ele>131.248169</ele>
<time>2010-07-18T07:38:26Z</time>
<desc>lat.=55.737194, lon.=26.216780, Alt.=131.248169m. Speed=7.488000m/h.</desc>
<speed>2.080000</speed>
</trkpt>
<trkpt lat="55.737206" lon="26.216745">
<ele>131.091919</ele>
<time>2010-07-18T07:38:27Z</time>
<desc>lat.=55.737206, lon.=26.216745, Alt.=131.091919m. Speed=9.540000m/h.</desc>
<speed>2.650000</speed>
</trkpt>
<trkpt lat="55.737209" lon="26.216702">
<ele>130.591919</ele>
<time>2010-07-18T07:38:28Z</time>
<desc>lat.=55.737209, lon.=26.216702, Alt.=130.591919m. Speed=10.476000m/h.</desc>
<speed>2.910000</speed>
</trkpt>
<trkpt lat="55.737217" lon="26.216658">
<ele>130.728638</ele>
<time>2010-07-18T07:38:29Z</time>
<desc>lat.=55.737217, lon.=26.216658, Alt.=130.728638m. Speed=9.108000m/h.</desc>
<speed>2.530000</speed>
</trkpt>
<trkpt lat="55.737225" lon="26.216625">
<ele>130.802856</ele>
<time>2010-07-18T07:38:30Z</time>
<desc>lat.=55.737225, lon.=26.216625, Alt.=130.802856m. Speed=6.768000m/h.</desc>
<speed>1.880000</speed>
</trkpt>
<trkpt lat="55.737228" lon="26.216600">
<ele>130.912231</ele>
<time>2010-07-18T07:38:31Z</time>
<desc>lat.=55.737228, lon.=26.216600, Alt.=130.912231m. Speed=8.280000m/h.</desc>
<speed>2.300000</speed>
</trkpt>
<trkpt lat="55.737240" lon="26.216566">
<ele>130.884888</ele>
<time>2010-07-18T07:38:32Z</time>
<desc>lat.=55.737240, lon.=26.216566, Alt.=130.884888m. Speed=7.776000m/h.</desc>
<speed>2.160000</speed>
</trkpt>
<trkpt lat="55.737251" lon="26.216537">
<ele>130.849731</ele>
<time>2010-07-18T07:38:33Z</time>
<desc>lat.=55.737251, lon.=26.216537, Alt.=130.849731m. Speed=8.424000m/h.</desc>
<speed>2.340000</speed>
</trkpt>
<trkpt lat="55.737263" lon="26.216520">
<ele>130.662231</ele>
<time>2010-07-18T07:38:34Z</time>
<desc>lat.=55.737263, lon.=26.216520, Alt.=130.662231m. Speed=7.056000m/h.</desc>
<speed>1.960000</speed>
</trkpt>
<trkpt lat="55.737274" lon="26.216499">
<ele>130.568481</ele>
<time>2010-07-18T07:38:35Z</time>
<desc>lat.=55.737274, lon.=26.216499, Alt.=130.568481m. Speed=5.076000m/h.</desc>
<speed>1.410000</speed>
</trkpt>
<trkpt lat="55.737286" lon="26.216496">
<ele>130.982544</ele>
<time>2010-07-18T07:38:36Z</time>
<desc>lat.=55.737286, lon.=26.216496, Alt.=130.982544m. Speed=3.636000m/h.</desc>
<speed>1.010000</speed>
</trkpt>
<trkpt lat="55.737297" lon="26.216496">
<ele>130.654419</ele>
<time>2010-07-18T07:38:37Z</time>
<desc>lat.=55.737297, lon.=26.216496, Alt.=130.654419m. Speed=5.220000m/h.</desc>
<speed>1.450000</speed>
</trkpt>
<trkpt lat="55.737312" lon="26.216503">
<ele>130.740356</ele>
<time>2010-07-18T07:38:38Z</time>
<desc>lat.=55.737312, lon.=26.216503, Alt.=130.740356m. Speed=6.192000m/h.</desc>
<speed>1.720000</speed>
</trkpt>
<trkpt lat="55.737328" lon="26.216518">
<ele>132.494263</ele>
<time>2010-07-18T07:38:39Z</time>
<desc>lat.=55.737328, lon.=26.216518, Alt.=132.494263m. Speed=6.912000m/h.</desc>
<speed>1.920000</speed>
</trkpt>
<trkpt lat="55.737347" lon="26.216539">
<ele>132.275513</ele>
<time>2010-07-18T07:38:40Z</time>
<desc>lat.=55.737347, lon.=26.216539, Alt.=132.275513m. Speed=8.892000m/h.</desc>
<speed>2.470000</speed>
</trkpt>
<trkpt lat="55.737366" lon="26.216570">
<ele>132.341919</ele>
<time>2010-07-18T07:38:41Z</time>
<desc>lat.=55.737366, lon.=26.216570, Alt.=132.341919m. Speed=9.432000m/h.</desc>
<speed>2.620000</speed>
</trkpt>
<trkpt lat="55.737381" lon="26.216599">
<ele>132.709106</ele>
<time>2010-07-18T07:38:42Z</time>
<desc>lat.=55.737381, lon.=26.216599, Alt.=132.709106m. Speed=10.116000m/h.</desc>
<speed>2.810000</speed>
</trkpt>
<trkpt lat="55.737396" lon="26.216633">
<ele>133.033325</ele>
<time>2010-07-18T07:38:43Z</time>
<desc>lat.=55.737396, lon.=26.216633, Alt.=133.033325m. Speed=10.368000m/h.</desc>
<speed>2.880000</speed>
</trkpt>
<trkpt lat="55.737415" lon="26.216663">
<ele>132.963013</ele>
<time>2010-07-18T07:38:44Z</time>
<desc>lat.=55.737415, lon.=26.216663, Alt.=132.963013m. Speed=10.548000m/h.</desc>
<speed>2.930000</speed>
</trkpt>
<trkpt lat="55.737442" lon="26.216692">
<ele>133.232544</ele>
<time>2010-07-18T07:38:45Z</time>
<desc>lat.=55.737442, lon.=26.216692, Alt.=133.232544m. Speed=9.612000m/h.</desc>
<speed>2.670000</speed>
</trkpt>
<trkpt lat="55.737461" lon="26.216722">
<ele>133.513794</ele>
<time>2010-07-18T07:38:46Z</time>
<desc>lat.=55.737461, lon.=26.216722, Alt.=133.513794m. Speed=10.584000m/h.</desc>
<speed>2.940000</speed>
</trkpt>
<trkpt lat="55.737480" lon="26.216751">
<ele>133.709106</ele>
<time>2010-07-18T07:38:47Z</time>
<desc>lat.=55.737480, lon.=26.216751, Alt.=133.709106m. Speed=10.188000m/h.</desc>
<speed>2.830000</speed>
</trkpt>
<trkpt lat="55.737499" lon="26.216784">
<ele>133.724731</ele>
<time>2010-07-18T07:38:48Z</time>
<desc>lat.=55.737499, lon.=26.216784, Alt.=133.724731m. Speed=9.864000m/h.</desc>
<speed>2.740000</speed>
</trkpt>
<trkpt lat="55.737514" lon="26.216814">
<ele>133.791138</ele>
<time>2010-07-18T07:38:49Z</time>
<desc>lat.=55.737514, lon.=26.216814, Alt.=133.791138m. Speed=8.856000m/h.</desc>
<speed>2.460000</speed>
</trkpt>
<trkpt lat="55.737530" lon="26.216839">
<ele>134.052856</ele>
<time>2010-07-18T07:38:50Z</time>
<desc>lat.=55.737530, lon.=26.216839, Alt.=134.052856m. Speed=8.604000m/h.</desc>
<speed>2.390000</speed>
</trkpt>
<trkpt lat="55.737541" lon="26.216869">
<ele>134.177856</ele>
<time>2010-07-18T07:38:51Z</time>
<desc>lat.=55.737541, lon.=26.216869, Alt.=134.177856m. Speed=8.640000m/h.</desc>
<speed>2.400000</speed>
</trkpt>
<trkpt lat="55.737556" lon="26.216894">
<ele>134.463013</ele>
<time>2010-07-18T07:38:52Z</time>
<desc>lat.=55.737556, lon.=26.216894, Alt.=134.463013m. Speed=7.776000m/h.</desc>
<speed>2.160000</speed>
</trkpt>
<trkpt lat="55.737572" lon="26.216919">
<ele>134.310669</ele>
<time>2010-07-18T07:38:53Z</time>
<desc>lat.=55.737572, lon.=26.216919, Alt.=134.310669m. Speed=9.540000m/h.</desc>
<speed>2.650000</speed>
</trkpt>
<trkpt lat="55.737591" lon="26.216944">
<ele>134.361450</ele>
<time>2010-07-18T07:38:54Z</time>
<desc>lat.=55.737591, lon.=26.216944, Alt.=134.361450m. Speed=9.252000m/h.</desc>
<speed>2.570000</speed>
</trkpt>
<trkpt lat="55.737610" lon="26.216969">
<ele>134.193481</ele>
<time>2010-07-18T07:38:55Z</time>
<desc>lat.=55.737610, lon.=26.216969, Alt.=134.193481m. Speed=9.432000m/h.</desc>
<speed>2.620000</speed>
</trkpt>
<trkpt lat="55.737625" lon="26.216991">
<ele>134.162231</ele>
<time>2010-07-18T07:38:56Z</time>
<desc>lat.=55.737625, lon.=26.216991, Alt.=134.162231m. Speed=8.676000m/h.</desc>
<speed>2.410000</speed>
</trkpt>
<trkpt lat="55.737640" lon="26.217014">
<ele>134.244263</ele>
<time>2010-07-18T07:38:57Z</time>
<desc>lat.=55.737640, lon.=26.217014, Alt.=134.244263m. Speed=7.740000m/h.</desc>
<speed>2.150000</speed>
</trkpt>
<trkpt lat="55.737656" lon="26.217039">
<ele>134.466919</ele>
<time>2010-07-18T07:38:58Z</time>
<desc>lat.=55.737656, lon.=26.217039, Alt.=134.466919m. Speed=9.612000m/h.</desc>
<speed>2.670000</speed>
</trkpt>
<trkpt lat="55.737675" lon="26.217066">
<ele>134.513794</ele>
<time>2010-07-18T07:38:59Z</time>
<desc>lat.=55.737675, lon.=26.217066, Alt.=134.513794m. Speed=8.208000m/h.</desc>
<speed>2.280000</speed>
</trkpt>
<trkpt lat="55.737690" lon="26.217098">
<ele>134.490356</ele>
<time>2010-07-18T07:39:00Z</time>
<desc>lat.=55.737690, lon.=26.217098, Alt.=134.490356m. Speed=8.820000m/h.</desc>
<speed>2.450000</speed>
</trkpt>
<trkpt lat="55.737705" lon="26.217125">
<ele>134.732544</ele>
<time>2010-07-18T07:39:01Z</time>
<desc>lat.=55.737705, lon.=26.217125, Alt.=134.732544m. Speed=8.208000m/h.</desc>
<speed>2.280000</speed>
</trkpt>
<trkpt lat="55.737724" lon="26.217152">
<ele>134.841919</ele>
<time>2010-07-18T07:39:02Z</time>
<desc>lat.=55.737724, lon.=26.217152, Alt.=134.841919m. Speed=8.820000m/h.</desc>
<speed>2.450000</speed>
</trkpt>
<trkpt lat="55.737740" lon="26.217184">
<ele>134.986450</ele>
<time>2010-07-18T07:39:03Z</time>
<desc>lat.=55.737740, lon.=26.217184, Alt.=134.986450m. Speed=8.964000m/h.</desc>
<speed>2.490000</speed>
</trkpt>
<trkpt lat="55.737755" lon="26.217209">
<ele>135.041138</ele>
<time>2010-07-18T07:39:04Z</time>
<desc>lat.=55.737755, lon.=26.217209, Alt.=135.041138m. Speed=9.720000m/h.</desc>
<speed>2.700000</speed>
</trkpt>
<trkpt lat="55.737774" lon="26.217232">
<ele>134.697388</ele>
<time>2010-07-18T07:39:05Z</time>
<desc>lat.=55.737774, lon.=26.217232, Alt.=134.697388m. Speed=9.396000m/h.</desc>
<speed>2.610000</speed>
</trkpt>
<trkpt lat="55.737789" lon="26.217257">
<ele>134.701294</ele>
<time>2010-07-18T07:39:06Z</time>
<desc>lat.=55.737789, lon.=26.217257, Alt.=134.701294m. Speed=10.296000m/h.</desc>
<speed>2.860000</speed>
</trkpt>
<trkpt lat="55.737812" lon="26.217283">
<ele>134.802856</ele>
<time>2010-07-18T07:39:07Z</time>
<desc>lat.=55.737812, lon.=26.217283, Alt.=134.802856m. Speed=10.620000m/h.</desc>
<speed>2.950000</speed>
</trkpt>
<trkpt lat="55.737831" lon="26.217310">
<ele>134.834106</ele>
<time>2010-07-18T07:39:08Z</time>
<desc>lat.=55.737831, lon.=26.217310, Alt.=134.834106m. Speed=10.044000m/h.</desc>
<speed>2.790000</speed>
</trkpt>
<trkpt lat="55.737850" lon="26.217340">
<ele>134.716919</ele>
<time>2010-07-18T07:39:09Z</time>
<desc>lat.=55.737850, lon.=26.217340, Alt.=134.716919m. Speed=10.368000m/h.</desc>
<speed>2.880000</speed>
</trkpt>
<trkpt lat="55.737873" lon="26.217367">
<ele>134.709106</ele>
<time>2010-07-18T07:39:10Z</time>
<desc>lat.=55.737873, lon.=26.217367, Alt.=134.709106m. Speed=10.692000m/h.</desc>
<speed>2.970000</speed>
</trkpt>
<trkpt lat="55.737896" lon="26.217394">
<ele>134.431763</ele>
<time>2010-07-18T07:39:11Z</time>
<desc>lat.=55.737896, lon.=26.217394, Alt.=134.431763m. Speed=10.548000m/h.</desc>
<speed>2.930000</speed>
</trkpt>
<trkpt lat="55.737915" lon="26.217422">
<ele>134.447388</ele>
<time>2010-07-18T07:39:12Z</time>
<desc>lat.=55.737915, lon.=26.217422, Alt.=134.447388m. Speed=10.368000m/h.</desc>
<speed>2.880000</speed>
</trkpt>
<trkpt lat="55.737938" lon="26.217443">
<ele>134.244263</ele>
<time>2010-07-18T07:39:13Z</time>
<desc>lat.=55.737938, lon.=26.217443, Alt.=134.244263m. Speed=9.504000m/h.</desc>
<speed>2.640000</speed>
</trkpt>
<trkpt lat="55.737957" lon="26.217470">
<ele>134.259888</ele>
<time>2010-07-18T07:39:14Z</time>
<desc>lat.=55.737957, lon.=26.217470, Alt.=134.259888m. Speed=10.188000m/h.</desc>
<speed>2.830000</speed>
</trkpt>
<trkpt lat="55.737976" lon="26.217503">
<ele>134.099731</ele>
<time>2010-07-18T07:39:15Z</time>
<desc>lat.=55.737976, lon.=26.217503, Alt.=134.099731m. Speed=9.540000m/h.</desc>
<speed>2.650000</speed>
</trkpt>
<trkpt lat="55.737999" lon="26.217533">
<ele>133.916138</ele>
<time>2010-07-18T07:39:16Z</time>
<desc>lat.=55.737999, lon.=26.217533, Alt.=133.916138m. Speed=11.304000m/h.</desc>
<speed>3.140000</speed>
</trkpt>
<trkpt lat="55.738026" lon="26.217562">
<ele>133.693481</ele>
<time>2010-07-18T07:39:17Z</time>
<desc>lat.=55.738026, lon.=26.217562, Alt.=133.693481m. Speed=10.764000m/h.</desc>
<speed>2.990000</speed>
</trkpt>
<trkpt lat="55.738049" lon="26.217594">
<ele>133.701294</ele>
<time>2010-07-18T07:39:18Z</time>
<desc>lat.=55.738049, lon.=26.217594, Alt.=133.701294m. Speed=11.052000m/h.</desc>
<speed>3.070000</speed>
</trkpt>
<trkpt lat="55.738071" lon="26.217625">
<ele>133.873169</ele>
<time>2010-07-18T07:39:19Z</time>
<desc>lat.=55.738071, lon.=26.217625, Alt.=133.873169m. Speed=11.412000m/h.</desc>
<speed>3.170000</speed>
</trkpt>
<trkpt lat="55.738094" lon="26.217663">
<ele>133.947388</ele>
<time>2010-07-18T07:39:20Z</time>
<desc>lat.=55.738094, lon.=26.217663, Alt.=133.947388m. Speed=12.276000m/h.</desc>
<speed>3.410000</speed>
</trkpt>
<trkpt lat="55.738117" lon="26.217695">
<ele>133.873169</ele>
<time>2010-07-18T07:39:21Z</time>
<desc>lat.=55.738117, lon.=26.217695, Alt.=133.873169m. Speed=13.716000m/h.</desc>
<speed>3.810000</speed>
</trkpt>
<trkpt lat="55.738144" lon="26.217726">
<ele>133.619263</ele>
<time>2010-07-18T07:39:22Z</time>
<desc>lat.=55.738144, lon.=26.217726, Alt.=133.619263m. Speed=12.420000m/h.</desc>
<speed>3.450000</speed>
</trkpt>
<trkpt lat="55.738159" lon="26.217754">
<ele>133.541138</ele>
<time>2010-07-18T07:39:23Z</time>
<desc>lat.=55.738159, lon.=26.217754, Alt.=133.541138m. Speed=10.332000m/h.</desc>
<speed>2.870000</speed>
</trkpt>
<trkpt lat="55.738171" lon="26.217787">
<ele>133.705200</ele>
<time>2010-07-18T07:39:24Z</time>
<desc>lat.=55.738171, lon.=26.217787, Alt.=133.705200m. Speed=10.584000m/h.</desc>
<speed>2.940000</speed>
</trkpt>
<trkpt lat="55.738190" lon="26.217817">
<ele>133.713013</ele>
<time>2010-07-18T07:39:25Z</time>
<desc>lat.=55.738190, lon.=26.217817, Alt.=133.713013m. Speed=8.856000m/h.</desc>
<speed>2.460000</speed>
</trkpt>
<trkpt lat="55.738201" lon="26.217840">
<ele>133.615356</ele>
<time>2010-07-18T07:39:26Z</time>
<desc>lat.=55.738201, lon.=26.217840, Alt.=133.615356m. Speed=7.596000m/h.</desc>
<speed>2.110000</speed>
</trkpt>
<trkpt lat="55.738213" lon="26.217854">
<ele>133.607544</ele>
<time>2010-07-18T07:39:27Z</time>
<desc>lat.=55.738213, lon.=26.217854, Alt.=133.607544m. Speed=4.068000m/h.</desc>
<speed>1.130000</speed>
</trkpt>
<trkpt lat="55.738220" lon="26.217861">
<ele>133.818481</ele>
<time>2010-07-18T07:39:28Z</time>
<desc>lat.=55.738220, lon.=26.217861, Alt.=133.818481m. Speed=2.952000m/h.</desc>
<speed>0.820000</speed>
</trkpt>
<trkpt lat="55.738228" lon="26.217865">
<ele>133.916138</ele>
<time>2010-07-18T07:39:29Z</time>
<desc>lat.=55.738228, lon.=26.217865, Alt.=133.916138m. Speed=2.448000m/h.</desc>
<speed>0.680000</speed>
</trkpt>
<trkpt lat="55.738243" lon="26.217878">
<ele>134.041138</ele>
<time>2010-07-18T07:39:30Z</time>
<desc>lat.=55.738243, lon.=26.217878, Alt.=134.041138m. Speed=3.168000m/h.</desc>
<speed>0.880000</speed>
</trkpt>
<trkpt lat="55.738251" lon="26.217892">
<ele>134.130981</ele>
<time>2010-07-18T07:39:31Z</time>
<desc>lat.=55.738251, lon.=26.217892, Alt.=134.130981m. Speed=5.292000m/h.</desc>
<speed>1.470000</speed>
</trkpt>
<trkpt lat="55.738266" lon="26.217915">
<ele>134.041138</ele>
<time>2010-07-18T07:39:32Z</time>
<desc>lat.=55.738266, lon.=26.217915, Alt.=134.041138m. Speed=8.352000m/h.</desc>
<speed>2.320000</speed>
</trkpt>
<trkpt lat="55.738281" lon="26.217932">
<ele>134.291138</ele>
<time>2010-07-18T07:39:33Z</time>
<desc>lat.=55.738281, lon.=26.217932, Alt.=134.291138m. Speed=7.884000m/h.</desc>
<speed>2.190000</speed>
</trkpt>
<trkpt lat="55.738289" lon="26.217953">
<ele>134.482544</ele>
<time>2010-07-18T07:39:34Z</time>
<desc>lat.=55.738289, lon.=26.217953, Alt.=134.482544m. Speed=8.064000m/h.</desc>
<speed>2.240000</speed>
</trkpt>
<trkpt lat="55.738304" lon="26.217974">
<ele>134.650513</ele>
<time>2010-07-18T07:39:35Z</time>
<desc>lat.=55.738304, lon.=26.217974, Alt.=134.650513m. Speed=8.388000m/h.</desc>
<speed>2.330000</speed>
</trkpt>
<trkpt lat="55.738323" lon="26.217997">
<ele>134.642700</ele>
<time>2010-07-18T07:39:36Z</time>
<desc>lat.=55.738323, lon.=26.217997, Alt.=134.642700m. Speed=8.928000m/h.</desc>
<speed>2.480000</speed>
</trkpt>
<trkpt lat="55.738335" lon="26.218019">
<ele>134.830200</ele>
<time>2010-07-18T07:39:37Z</time>
<desc>lat.=55.738335, lon.=26.218019, Alt.=134.830200m. Speed=9.540000m/h.</desc>
<speed>2.650000</speed>
</trkpt>
<trkpt lat="55.738354" lon="26.218044">
<ele>134.904419</ele>
<time>2010-07-18T07:39:38Z</time>
<desc>lat.=55.738354, lon.=26.218044, Alt.=134.904419m. Speed=11.268000m/h.</desc>
<speed>3.130000</speed>
</trkpt>
<trkpt lat="55.738380" lon="26.218077">
<ele>135.060669</ele>
<time>2010-07-18T07:39:39Z</time>
<desc>lat.=55.738380, lon.=26.218077, Alt.=135.060669m. Speed=12.492000m/h.</desc>
<speed>3.470000</speed>
</trkpt>
<trkpt lat="55.738407" lon="26.218111">
<ele>135.146606</ele>
<time>2010-07-18T07:39:40Z</time>
<desc>lat.=55.738407, lon.=26.218111, Alt.=135.146606m. Speed=13.176000m/h.</desc>
<speed>3.660000</speed>
</trkpt>
<trkpt lat="55.738434" lon="26.218142">
<ele>134.986450</ele>
<time>2010-07-18T07:39:41Z</time>
<desc>lat.=55.738434, lon.=26.218142, Alt.=134.986450m. Speed=12.348000m/h.</desc>
<speed>3.430000</speed>
</trkpt>
<trkpt lat="55.738461" lon="26.218176">
<ele>135.197388</ele>
<time>2010-07-18T07:39:42Z</time>
<desc>lat.=55.738461, lon.=26.218176, Alt.=135.197388m. Speed=14.796000m/h.</desc>
<speed>4.110000</speed>
</trkpt>
<trkpt lat="55.738487" lon="26.218212">
<ele>135.529419</ele>
<time>2010-07-18T07:39:43Z</time>
<desc>lat.=55.738487, lon.=26.218212, Alt.=135.529419m. Speed=13.788000m/h.</desc>
<speed>3.830000</speed>
</trkpt>
<trkpt lat="55.738514" lon="26.218252">
<ele>135.783325</ele>
<time>2010-07-18T07:39:44Z</time>
<desc>lat.=55.738514, lon.=26.218252, Alt.=135.783325m. Speed=15.264000m/h.</desc>
<speed>4.240000</speed>
</trkpt>
<trkpt lat="55.738544" lon="26.218292">
<ele>135.970825</ele>
<time>2010-07-18T07:39:45Z</time>
<desc>lat.=55.738544, lon.=26.218292, Alt.=135.970825m. Speed=15.156000m/h.</desc>
<speed>4.210000</speed>
</trkpt>
<trkpt lat="55.738575" lon="26.218330">
<ele>136.490356</ele>
<time>2010-07-18T07:39:46Z</time>
<desc>lat.=55.738575, lon.=26.218330, Alt.=136.490356m. Speed=15.084000m/h.</desc>
<speed>4.190000</speed>
</trkpt>
<trkpt lat="55.738602" lon="26.218374">
<ele>136.525513</ele>
<time>2010-07-18T07:39:47Z</time>
<desc>lat.=55.738602, lon.=26.218374, Alt.=136.525513m. Speed=13.824000m/h.</desc>
<speed>3.840000</speed>
</trkpt>
<trkpt lat="55.738632" lon="26.218420">
<ele>136.416138</ele>
<time>2010-07-18T07:39:48Z</time>
<desc>lat.=55.738632, lon.=26.218420, Alt.=136.416138m. Speed=16.236000m/h.</desc>
<speed>4.510000</speed>
</trkpt>
<trkpt lat="55.738663" lon="26.218470">
<ele>136.619263</ele>
<time>2010-07-18T07:39:49Z</time>
<desc>lat.=55.738663, lon.=26.218470, Alt.=136.619263m. Speed=16.667999m/h.</desc>
<speed>4.630000</speed>
</trkpt>
<trkpt lat="55.738693" lon="26.218513">
<ele>136.677856</ele>
<time>2010-07-18T07:39:50Z</time>
<desc>lat.=55.738693, lon.=26.218513, Alt.=136.677856m. Speed=15.876000m/h.</desc>
<speed>4.410000</speed>
</trkpt>
<trkpt lat="55.738724" lon="26.218546">
<ele>136.252075</ele>
<time>2010-07-18T07:39:51Z</time>
<desc>lat.=55.738724, lon.=26.218546, Alt.=136.252075m. Speed=14.292000m/h.</desc>
<speed>3.970000</speed>
</trkpt>
<trkpt lat="55.738750" lon="26.218578">
<ele>136.283325</ele>
<time>2010-07-18T07:39:52Z</time>
<desc>lat.=55.738750, lon.=26.218578, Alt.=136.283325m. Speed=12.168000m/h.</desc>
<speed>3.380000</speed>
</trkpt>
<trkpt lat="55.738777" lon="26.218611">
<ele>136.314575</ele>
<time>2010-07-18T07:39:53Z</time>
<desc>lat.=55.738777, lon.=26.218611, Alt.=136.314575m. Speed=13.572000m/h.</desc>
<speed>3.770000</speed>
</trkpt>
<trkpt lat="55.738808" lon="26.218645">
<ele>136.556763</ele>
<time>2010-07-18T07:39:54Z</time>
<desc>lat.=55.738808, lon.=26.218645, Alt.=136.556763m. Speed=14.436000m/h.</desc>
<speed>4.010000</speed>
</trkpt>
<trkpt lat="55.738834" lon="26.218687">
<ele>136.509888</ele>
<time>2010-07-18T07:39:55Z</time>
<desc>lat.=55.738834, lon.=26.218687, Alt.=136.509888m. Speed=14.544000m/h.</desc>
<speed>4.040000</speed>
</trkpt>
<trkpt lat="55.738861" lon="26.218729">
<ele>136.650513</ele>
<time>2010-07-18T07:39:56Z</time>
<desc>lat.=55.738861, lon.=26.218729, Alt.=136.650513m. Speed=14.220000m/h.</desc>
<speed>3.950000</speed>
</trkpt>
<trkpt lat="55.738895" lon="26.218773">
<ele>136.482544</ele>
<time>2010-07-18T07:39:57Z</time>
<desc>lat.=55.738895, lon.=26.218773, Alt.=136.482544m. Speed=14.508000m/h.</desc>
<speed>4.030000</speed>
</trkpt>
<trkpt lat="55.738926" lon="26.218815">
<ele>135.732544</ele>
<time>2010-07-18T07:39:58Z</time>
<desc>lat.=55.738926, lon.=26.218815, Alt.=135.732544m. Speed=16.056000m/h.</desc>
<speed>4.460000</speed>
</trkpt>
<trkpt lat="55.738956" lon="26.218861">
<ele>135.713013</ele>
<time>2010-07-18T07:39:59Z</time>
<desc>lat.=55.738956, lon.=26.218861, Alt.=135.713013m. Speed=15.732000m/h.</desc>
<speed>4.370000</speed>
</trkpt>
<trkpt lat="55.738995" lon="26.218912">
<ele>136.123169</ele>
<time>2010-07-18T07:40:00Z</time>
<desc>lat.=55.738995, lon.=26.218912, Alt.=136.123169m. Speed=17.856001m/h.</desc>
<speed>4.960000</speed>
</trkpt>
<trkpt lat="55.739025" lon="26.218960">
<ele>136.127075</ele>
<time>2010-07-18T07:40:01Z</time>
<desc>lat.=55.739025, lon.=26.218960, Alt.=136.127075m. Speed=17.856001m/h.</desc>
<speed>4.960000</speed>
</trkpt>
<trkpt lat="55.739063" lon="26.219009">
<ele>135.935669</ele>
<time>2010-07-18T07:40:02Z</time>
<desc>lat.=55.739063, lon.=26.219009, Alt.=135.935669m. Speed=18.684000m/h.</desc>
<speed>5.190000</speed>
</trkpt>
<trkpt lat="55.739101" lon="26.219063">
<ele>135.970825</ele>
<time>2010-07-18T07:40:03Z</time>
<desc>lat.=55.739101, lon.=26.219063, Alt.=135.970825m. Speed=20.556000m/h.</desc>
<speed>5.710000</speed>
</trkpt>
<trkpt lat="55.739147" lon="26.219122">
<ele>135.505981</ele>
<time>2010-07-18T07:40:04Z</time>
<desc>lat.=55.739147, lon.=26.219122, Alt.=135.505981m. Speed=20.808001m/h.</desc>
<speed>5.780000</speed>
</trkpt>
<trkpt lat="55.739193" lon="26.219183">
<ele>135.318481</ele>
<time>2010-07-18T07:40:05Z</time>
<desc>lat.=55.739193, lon.=26.219183, Alt.=135.318481m. Speed=22.572001m/h.</desc>
<speed>6.270000</speed>
</trkpt>
<trkpt lat="55.739239" lon="26.219246">
<ele>135.275513</ele>
<time>2010-07-18T07:40:06Z</time>
<desc>lat.=55.739239, lon.=26.219246, Alt.=135.275513m. Speed=23.076000m/h.</desc>
<speed>6.410000</speed>
</trkpt>
<trkpt lat="55.739285" lon="26.219311">
<ele>135.267700</ele>
<time>2010-07-18T07:40:07Z</time>
<desc>lat.=55.739285, lon.=26.219311, Alt.=135.267700m. Speed=23.796000m/h.</desc>
<speed>6.610000</speed>
</trkpt>
<trkpt lat="55.739334" lon="26.219376">
<ele>135.080200</ele>
<time>2010-07-18T07:40:08Z</time>
<desc>lat.=55.739334, lon.=26.219376, Alt.=135.080200m. Speed=24.587999m/h.</desc>
<speed>6.830000</speed>
</trkpt>
<trkpt lat="55.739384" lon="26.219444">
<ele>135.197388</ele>
<time>2010-07-18T07:40:09Z</time>
<desc>lat.=55.739384, lon.=26.219444, Alt.=135.197388m. Speed=23.580000m/h.</desc>
<speed>6.550000</speed>
</trkpt>
<trkpt lat="55.739433" lon="26.219517">
<ele>135.310669</ele>
<time>2010-07-18T07:40:10Z</time>
<desc>lat.=55.739433, lon.=26.219517, Alt.=135.310669m. Speed=23.868000m/h.</desc>
<speed>6.630000</speed>
</trkpt>
<trkpt lat="55.739483" lon="26.219584">
<ele>135.029419</ele>
<time>2010-07-18T07:40:11Z</time>
<desc>lat.=55.739483, lon.=26.219584, Alt.=135.029419m. Speed=22.680000m/h.</desc>
<speed>6.300000</speed>
</trkpt>
<trkpt lat="55.739532" lon="26.219652">
<ele>134.806763</ele>
<time>2010-07-18T07:40:12Z</time>
<desc>lat.=55.739532, lon.=26.219652, Alt.=134.806763m. Speed=23.580000m/h.</desc>
<speed>6.550000</speed>
</trkpt>
<trkpt lat="55.739578" lon="26.219719">
<ele>134.845825</ele>
<time>2010-07-18T07:40:13Z</time>
<desc>lat.=55.739578, lon.=26.219719, Alt.=134.845825m. Speed=23.184000m/h.</desc>
<speed>6.440000</speed>
</trkpt>
<trkpt lat="55.739624" lon="26.219784">
<ele>135.056763</ele>
<time>2010-07-18T07:40:14Z</time>
<desc>lat.=55.739624, lon.=26.219784, Alt.=135.056763m. Speed=23.472000m/h.</desc>
<speed>6.520000</speed>
</trkpt>
<trkpt lat="55.739670" lon="26.219854">
<ele>135.130981</ele>
<time>2010-07-18T07:40:15Z</time>
<desc>lat.=55.739670, lon.=26.219854, Alt.=135.130981m. Speed=23.868000m/h.</desc>
<speed>6.630000</speed>
</trkpt>
<trkpt lat="55.739719" lon="26.219923">
<ele>135.334106</ele>
<time>2010-07-18T07:40:16Z</time>
<desc>lat.=55.739719, lon.=26.219923, Alt.=135.334106m. Speed=24.372000m/h.</desc>
<speed>6.770000</speed>
</trkpt>
<trkpt lat="55.739761" lon="26.219995">
<ele>135.494263</ele>
<time>2010-07-18T07:40:17Z</time>
<desc>lat.=55.739761, lon.=26.219995, Alt.=135.494263m. Speed=22.680000m/h.</desc>
<speed>6.300000</speed>
</trkpt>
<trkpt lat="55.739803" lon="26.220068">
<ele>135.615356</ele>
<time>2010-07-18T07:40:18Z</time>
<desc>lat.=55.739803, lon.=26.220068, Alt.=135.615356m. Speed=22.968000m/h.</desc>
<speed>6.380000</speed>
</trkpt>
<trkpt lat="55.739845" lon="26.220139">
<ele>135.892700</ele>
<time>2010-07-18T07:40:19Z</time>
<desc>lat.=55.739845, lon.=26.220139, Alt.=135.892700m. Speed=23.436001m/h.</desc>
<speed>6.510000</speed>
</trkpt>
<trkpt lat="55.739883" lon="26.220209">
<ele>136.314575</ele>
<time>2010-07-18T07:40:20Z</time>
<desc>lat.=55.739883, lon.=26.220209, Alt.=136.314575m. Speed=23.400000m/h.</desc>
<speed>6.500000</speed>
</trkpt>
<trkpt lat="55.739929" lon="26.220282">
<ele>136.365356</ele>
<time>2010-07-18T07:40:21Z</time>
<desc>lat.=55.739929, lon.=26.220282, Alt.=136.365356m. Speed=23.507999m/h.</desc>
<speed>6.530000</speed>
</trkpt>
<trkpt lat="55.739971" lon="26.220360">
<ele>136.142700</ele>
<time>2010-07-18T07:40:22Z</time>
<desc>lat.=55.739971, lon.=26.220360, Alt.=136.142700m. Speed=23.868000m/h.</desc>
<speed>6.630000</speed>
</trkpt>
<trkpt lat="55.740013" lon="26.220438">
<ele>136.123169</ele>
<time>2010-07-18T07:40:23Z</time>
<desc>lat.=55.740013, lon.=26.220438, Alt.=136.123169m. Speed=24.480000m/h.</desc>
<speed>6.800000</speed>
</trkpt>
<trkpt lat="55.740051" lon="26.220516">
<ele>136.091919</ele>
<time>2010-07-18T07:40:24Z</time>
<desc>lat.=55.740051, lon.=26.220516, Alt.=136.091919m. Speed=25.020000m/h.</desc>
<speed>6.950000</speed>
</trkpt>
<trkpt lat="55.740097" lon="26.220596">
<ele>136.119263</ele>
<time>2010-07-18T07:40:25Z</time>
<desc>lat.=55.740097, lon.=26.220596, Alt.=136.119263m. Speed=24.660000m/h.</desc>
<speed>6.850000</speed>
</trkpt>
<trkpt lat="55.740139" lon="26.220678">
<ele>136.052856</ele>
<time>2010-07-18T07:40:26Z</time>
<desc>lat.=55.740139, lon.=26.220678, Alt.=136.052856m. Speed=23.760000m/h.</desc>
<speed>6.600000</speed>
</trkpt>
<trkpt lat="55.740177" lon="26.220758">
<ele>136.091919</ele>
<time>2010-07-18T07:40:27Z</time>
<desc>lat.=55.740177, lon.=26.220758, Alt.=136.091919m. Speed=22.104000m/h.</desc>
<speed>6.140000</speed>
</trkpt>
<trkpt lat="55.740211" lon="26.220835">
<ele>136.279419</ele>
<time>2010-07-18T07:40:28Z</time>
<desc>lat.=55.740211, lon.=26.220835, Alt.=136.279419m. Speed=22.068001m/h.</desc>
<speed>6.130000</speed>
</trkpt>
<trkpt lat="55.740246" lon="26.220907">
<ele>136.576294</ele>
<time>2010-07-18T07:40:29Z</time>
<desc>lat.=55.740246, lon.=26.220907, Alt.=136.576294m. Speed=21.059999m/h.</desc>
<speed>5.850000</speed>
</trkpt>
<trkpt lat="55.740280" lon="26.220978">
<ele>136.447388</ele>
<time>2010-07-18T07:40:30Z</time>
<desc>lat.=55.740280, lon.=26.220978, Alt.=136.447388m. Speed=20.736000m/h.</desc>
<speed>5.760000</speed>
</trkpt>
<trkpt lat="55.740311" lon="26.221050">
<ele>136.709106</ele>
<time>2010-07-18T07:40:31Z</time>
<desc>lat.=55.740311, lon.=26.221050, Alt.=136.709106m. Speed=20.664000m/h.</desc>
<speed>5.740000</speed>
</trkpt>
<trkpt lat="55.740337" lon="26.221119">
<ele>136.666138</ele>
<time>2010-07-18T07:40:32Z</time>
<desc>lat.=55.740337, lon.=26.221119, Alt.=136.666138m. Speed=20.340000m/h.</desc>
<speed>5.650000</speed>
</trkpt>
<trkpt lat="55.740368" lon="26.221189">
<ele>136.939575</ele>
<time>2010-07-18T07:40:33Z</time>
<desc>lat.=55.740368, lon.=26.221189, Alt.=136.939575m. Speed=19.080000m/h.</desc>
<speed>5.300000</speed>
</trkpt>
<trkpt lat="55.740398" lon="26.221256">
<ele>137.017700</ele>
<time>2010-07-18T07:40:34Z</time>
<desc>lat.=55.740398, lon.=26.221256, Alt.=137.017700m. Speed=17.892000m/h.</desc>
<speed>4.970000</speed>
</trkpt>
<trkpt lat="55.740425" lon="26.221327">
<ele>137.912231</ele>
<time>2010-07-18T07:40:35Z</time>
<desc>lat.=55.740425, lon.=26.221327, Alt.=137.912231m. Speed=19.691999m/h.</desc>
<speed>5.470000</speed>
</trkpt>
<trkpt lat="55.740452" lon="26.221403">
<ele>138.369263</ele>
<time>2010-07-18T07:40:36Z</time>
<desc>lat.=55.740452, lon.=26.221403, Alt.=138.369263m. Speed=19.260000m/h.</desc>
<speed>5.350000</speed>
</trkpt>
<trkpt lat="55.740479" lon="26.221472">
<ele>138.607544</ele>
<time>2010-07-18T07:40:37Z</time>
<desc>lat.=55.740479, lon.=26.221472, Alt.=138.607544m. Speed=18.360001m/h.</desc>
<speed>5.100000</speed>
</trkpt>
<trkpt lat="55.740505" lon="26.221542">
<ele>138.588013</ele>
<time>2010-07-18T07:40:38Z</time>
<desc>lat.=55.740505, lon.=26.221542, Alt.=138.588013m. Speed=18.684000m/h.</desc>
<speed>5.190000</speed>
</trkpt>
<trkpt lat="55.740536" lon="26.221617">
<ele>139.447388</ele>
<time>2010-07-18T07:40:39Z</time>
<desc>lat.=55.740536, lon.=26.221617, Alt.=139.447388m. Speed=18.684000m/h.</desc>
<speed>5.190000</speed>
</trkpt>
<trkpt lat="55.740559" lon="26.221691">
<ele>140.306763</ele>
<time>2010-07-18T07:40:40Z</time>
<desc>lat.=55.740559, lon.=26.221691, Alt.=140.306763m. Speed=18.827999m/h.</desc>
<speed>5.230000</speed>
</trkpt>
<trkpt lat="55.740582" lon="26.221764">
<ele>140.709106</ele>
<time>2010-07-18T07:40:41Z</time>
<desc>lat.=55.740582, lon.=26.221764, Alt.=140.709106m. Speed=18.576000m/h.</desc>
<speed>5.160000</speed>
</trkpt>
<trkpt lat="55.740608" lon="26.221830">
<ele>140.220825</ele>
<time>2010-07-18T07:40:42Z</time>
<desc>lat.=55.740608, lon.=26.221830, Alt.=140.220825m. Speed=18.864000m/h.</desc>
<speed>5.240000</speed>
</trkpt>
<trkpt lat="55.740635" lon="26.221899">
<ele>140.377075</ele>
<time>2010-07-18T07:40:43Z</time>
<desc>lat.=55.740635, lon.=26.221899, Alt.=140.377075m. Speed=18.900000m/h.</desc>
<speed>5.250000</speed>
</trkpt>
<trkpt lat="55.740658" lon="26.221968">
<ele>140.349731</ele>
<time>2010-07-18T07:40:44Z</time>
<desc>lat.=55.740658, lon.=26.221968, Alt.=140.349731m. Speed=18.792000m/h.</desc>
<speed>5.220000</speed>
</trkpt>
<trkpt lat="55.740685" lon="26.222040">
<ele>141.220825</ele>
<time>2010-07-18T07:40:45Z</time>
<desc>lat.=55.740685, lon.=26.222040, Alt.=141.220825m. Speed=19.944000m/h.</desc>
<speed>5.540000</speed>
</trkpt>
<trkpt lat="55.740715" lon="26.222115">
<ele>141.920044</ele>
<time>2010-07-18T07:40:46Z</time>
<desc>lat.=55.740715, lon.=26.222115, Alt.=141.920044m. Speed=19.260000m/h.</desc>
<speed>5.350000</speed>
</trkpt>
<trkpt lat="55.740738" lon="26.222187">
<ele>142.201294</ele>
<time>2010-07-18T07:40:47Z</time>
<desc>lat.=55.740738, lon.=26.222187, Alt.=142.201294m. Speed=18.216000m/h.</desc>
<speed>5.060000</speed>
</trkpt>
<trkpt lat="55.740761" lon="26.222254">
<ele>142.345825</ele>
<time>2010-07-18T07:40:48Z</time>
<desc>lat.=55.740761, lon.=26.222254, Alt.=142.345825m. Speed=18.000000m/h.</desc>
<speed>5.000000</speed>
</trkpt>
<trkpt lat="55.740784" lon="26.222321">
<ele>142.525513</ele>
<time>2010-07-18T07:40:49Z</time>
<desc>lat.=55.740784, lon.=26.222321, Alt.=142.525513m. Speed=17.568001m/h.</desc>
<speed>4.880000</speed>
</trkpt>
<trkpt lat="55.740807" lon="26.222382">
<ele>141.849731</ele>
<time>2010-07-18T07:40:50Z</time>
<desc>lat.=55.740807, lon.=26.222382, Alt.=141.849731m. Speed=16.452000m/h.</desc>
<speed>4.570000</speed>
</trkpt>
<trkpt lat="55.740822" lon="26.222437">
<ele>141.806763</ele>
<time>2010-07-18T07:40:51Z</time>
<desc>lat.=55.740822, lon.=26.222437, Alt.=141.806763m. Speed=15.120000m/h.</desc>
<speed>4.200000</speed>
</trkpt>
<trkpt lat="55.740837" lon="26.222498">
<ele>141.435669</ele>
<time>2010-07-18T07:40:52Z</time>
<desc>lat.=55.740837, lon.=26.222498, Alt.=141.435669m. Speed=15.372000m/h.</desc>
<speed>4.270000</speed>
</trkpt>
<trkpt lat="55.740852" lon="26.222565">
<ele>142.752075</ele>
<time>2010-07-18T07:40:53Z</time>
<desc>lat.=55.740852, lon.=26.222565, Alt.=142.752075m. Speed=14.760000m/h.</desc>
<speed>4.100000</speed>
</trkpt>
<trkpt lat="55.740868" lon="26.222626">
<ele>142.439575</ele>
<time>2010-07-18T07:40:54Z</time>
<desc>lat.=55.740868, lon.=26.222626, Alt.=142.439575m. Speed=15.408000m/h.</desc>
<speed>4.280000</speed>
</trkpt>
<trkpt lat="55.740883" lon="26.222689">
<ele>142.298950</ele>
<time>2010-07-18T07:40:55Z</time>
<desc>lat.=55.740883, lon.=26.222689, Alt.=142.298950m. Speed=15.660000m/h.</desc>
<speed>4.350000</speed>
</trkpt>
<trkpt lat="55.740898" lon="26.222754">
<ele>142.498169</ele>
<time>2010-07-18T07:40:56Z</time>
<desc>lat.=55.740898, lon.=26.222754, Alt.=142.498169m. Speed=16.667999m/h.</desc>
<speed>4.630000</speed>
</trkpt>
<trkpt lat="55.740917" lon="26.222824">
<ele>142.591919</ele>
<time>2010-07-18T07:40:57Z</time>
<desc>lat.=55.740917, lon.=26.222824, Alt.=142.591919m. Speed=17.892000m/h.</desc>
<speed>4.970000</speed>
</trkpt>
<trkpt lat="55.740932" lon="26.222897">
<ele>142.548950</ele>
<time>2010-07-18T07:40:58Z</time>
<desc>lat.=55.740932, lon.=26.222897, Alt.=142.548950m. Speed=18.180000m/h.</desc>
<speed>5.050000</speed>
</trkpt>
<trkpt lat="55.740952" lon="26.222973">
<ele>142.802856</ele>
<time>2010-07-18T07:40:59Z</time>
<desc>lat.=55.740952, lon.=26.222973, Alt.=142.802856m. Speed=18.972000m/h.</desc>
<speed>5.270000</speed>
</trkpt>
<trkpt lat="55.740967" lon="26.223055">
<ele>143.279419</ele>
<time>2010-07-18T07:41:00Z</time>
<desc>lat.=55.740967, lon.=26.223055, Alt.=143.279419m. Speed=18.900000m/h.</desc>
<speed>5.250000</speed>
</trkpt>
<trkpt lat="55.740982" lon="26.223133">
<ele>143.267700</ele>
<time>2010-07-18T07:41:01Z</time>
<desc>lat.=55.740982, lon.=26.223133, Alt.=143.267700m. Speed=18.684000m/h.</desc>
<speed>5.190000</speed>
</trkpt>
<trkpt lat="55.741001" lon="26.223211">
<ele>143.127075</ele>
<time>2010-07-18T07:41:02Z</time>
<desc>lat.=55.741001, lon.=26.223211, Alt.=143.127075m. Speed=19.476000m/h.</desc>
<speed>5.410000</speed>
</trkpt>
<trkpt lat="55.741020" lon="26.223293">
<ele>143.287231</ele>
<time>2010-07-18T07:41:03Z</time>
<desc>lat.=55.741020, lon.=26.223293, Alt.=143.287231m. Speed=19.764000m/h.</desc>
<speed>5.490000</speed>
</trkpt>
<trkpt lat="55.741035" lon="26.223387">
<ele>143.189575</ele>
<time>2010-07-18T07:41:04Z</time>
<desc>lat.=55.741035, lon.=26.223387, Alt.=143.189575m. Speed=20.340000m/h.</desc>
<speed>5.650000</speed>
</trkpt>
<trkpt lat="55.741051" lon="26.223476">
<ele>143.158325</ele>
<time>2010-07-18T07:41:05Z</time>
<desc>lat.=55.741051, lon.=26.223476, Alt.=143.158325m. Speed=20.412001m/h.</desc>
<speed>5.670000</speed>
</trkpt>
<trkpt lat="55.741070" lon="26.223562">
<ele>143.533325</ele>
<time>2010-07-18T07:41:06Z</time>
<desc>lat.=55.741070, lon.=26.223562, Alt.=143.533325m. Speed=20.771999m/h.</desc>
<speed>5.770000</speed>
</trkpt>
<trkpt lat="55.741089" lon="26.223648">
<ele>143.373169</ele>
<time>2010-07-18T07:41:07Z</time>
<desc>lat.=55.741089, lon.=26.223648, Alt.=143.373169m. Speed=20.304001m/h.</desc>
<speed>5.640000</speed>
</trkpt>
<trkpt lat="55.741108" lon="26.223730">
<ele>143.595825</ele>
<time>2010-07-18T07:41:08Z</time>
<desc>lat.=55.741108, lon.=26.223730, Alt.=143.595825m. Speed=19.728001m/h.</desc>
<speed>5.480000</speed>
</trkpt>
<trkpt lat="55.741127" lon="26.223806">
<ele>145.099731</ele>
<time>2010-07-18T07:41:09Z</time>
<desc>lat.=55.741127, lon.=26.223806, Alt.=145.099731m. Speed=18.431999m/h.</desc>
<speed>5.120000</speed>
</trkpt>
<trkpt lat="55.741146" lon="26.223877">
<ele>145.119263</ele>
<time>2010-07-18T07:41:10Z</time>
<desc>lat.=55.741146, lon.=26.223877, Alt.=145.119263m. Speed=18.827999m/h.</desc>
<speed>5.230000</speed>
</trkpt>
<trkpt lat="55.741165" lon="26.223959">
<ele>145.021606</ele>
<time>2010-07-18T07:41:11Z</time>
<desc>lat.=55.741165, lon.=26.223959, Alt.=145.021606m. Speed=17.388000m/h.</desc>
<speed>4.830000</speed>
</trkpt>
<trkpt lat="55.741184" lon="26.224030">
<ele>145.369263</ele>
<time>2010-07-18T07:41:12Z</time>
<desc>lat.=55.741184, lon.=26.224030, Alt.=145.369263m. Speed=16.452000m/h.</desc>
<speed>4.570000</speed>
</trkpt>
<trkpt lat="55.741199" lon="26.224098">
<ele>143.802856</ele>
<time>2010-07-18T07:41:13Z</time>
<desc>lat.=55.741199, lon.=26.224098, Alt.=143.802856m. Speed=15.192000m/h.</desc>
<speed>4.220000</speed>
</trkpt>
<trkpt lat="55.741211" lon="26.224155">
<ele>143.939575</ele>
<time>2010-07-18T07:41:14Z</time>
<desc>lat.=55.741211, lon.=26.224155, Alt.=143.939575m. Speed=13.968000m/h.</desc>
<speed>3.880000</speed>
</trkpt>
<trkpt lat="55.741226" lon="26.224213">
<ele>143.935669</ele>
<time>2010-07-18T07:41:15Z</time>
<desc>lat.=55.741226, lon.=26.224213, Alt.=143.935669m. Speed=14.652000m/h.</desc>
<speed>4.070000</speed>
</trkpt>
<trkpt lat="55.741241" lon="26.224272">
<ele>143.724731</ele>
<time>2010-07-18T07:41:16Z</time>
<desc>lat.=55.741241, lon.=26.224272, Alt.=143.724731m. Speed=13.644000m/h.</desc>
<speed>3.790000</speed>
</trkpt>
<trkpt lat="55.741257" lon="26.224331">
<ele>143.353638</ele>
<time>2010-07-18T07:41:17Z</time>
<desc>lat.=55.741257, lon.=26.224331, Alt.=143.353638m. Speed=13.716000m/h.</desc>
<speed>3.810000</speed>
</trkpt>
<trkpt lat="55.741276" lon="26.224379">
<ele>143.091919</ele>
<time>2010-07-18T07:41:18Z</time>
<desc>lat.=55.741276, lon.=26.224379, Alt.=143.091919m. Speed=13.392000m/h.</desc>
<speed>3.720000</speed>
</trkpt>
<trkpt lat="55.741295" lon="26.224440">
<ele>142.939575</ele>
<time>2010-07-18T07:41:19Z</time>
<desc>lat.=55.741295, lon.=26.224440, Alt.=142.939575m. Speed=14.292000m/h.</desc>
<speed>3.970000</speed>
</trkpt>
<trkpt lat="55.741314" lon="26.224503">
<ele>142.896606</ele>
<time>2010-07-18T07:41:20Z</time>
<desc>lat.=55.741314, lon.=26.224503, Alt.=142.896606m. Speed=14.868000m/h.</desc>
<speed>4.130000</speed>
</trkpt>
<trkpt lat="55.741329" lon="26.224556">
<ele>142.873169</ele>
<time>2010-07-18T07:41:21Z</time>
<desc>lat.=55.741329, lon.=26.224556, Alt.=142.873169m. Speed=14.760000m/h.</desc>
<speed>4.100000</speed>
</trkpt>
<trkpt lat="55.741348" lon="26.224613">
<ele>142.834106</ele>
<time>2010-07-18T07:41:22Z</time>
<desc>lat.=55.741348, lon.=26.224613, Alt.=142.834106m. Speed=14.796000m/h.</desc>
<speed>4.110000</speed>
</trkpt>
<trkpt lat="55.741367" lon="26.224670">
<ele>142.763794</ele>
<time>2010-07-18T07:41:23Z</time>
<desc>lat.=55.741367, lon.=26.224670, Alt.=142.763794m. Speed=15.480000m/h.</desc>
<speed>4.300000</speed>
</trkpt>
<trkpt lat="55.741383" lon="26.224745">
<ele>143.455200</ele>
<time>2010-07-18T07:41:24Z</time>
<desc>lat.=55.741383, lon.=26.224745, Alt.=143.455200m. Speed=16.128000m/h.</desc>
<speed>4.480000</speed>
</trkpt>
<trkpt lat="55.741402" lon="26.224815">
<ele>143.978638</ele>
<time>2010-07-18T07:41:25Z</time>
<desc>lat.=55.741402, lon.=26.224815, Alt.=143.978638m. Speed=15.588000m/h.</desc>
<speed>4.330000</speed>
</trkpt>
<trkpt lat="55.741421" lon="26.224873">
<ele>144.146606</ele>
<time>2010-07-18T07:41:26Z</time>
<desc>lat.=55.741421, lon.=26.224873, Alt.=144.146606m. Speed=14.976000m/h.</desc>
<speed>4.160000</speed>
</trkpt>
<trkpt lat="55.741440" lon="26.224926">
<ele>143.994263</ele>
<time>2010-07-18T07:41:27Z</time>
<desc>lat.=55.741440, lon.=26.224926, Alt.=143.994263m. Speed=14.184000m/h.</desc>
<speed>3.940000</speed>
</trkpt>
<trkpt lat="55.741463" lon="26.224972">
<ele>143.654419</ele>
<time>2010-07-18T07:41:28Z</time>
<desc>lat.=55.741463, lon.=26.224972, Alt.=143.654419m. Speed=15.840000m/h.</desc>
<speed>4.400000</speed>
</trkpt>
<trkpt lat="55.741489" lon="26.225029">
<ele>143.588013</ele>
<time>2010-07-18T07:41:29Z</time>
<desc>lat.=55.741489, lon.=26.225029, Alt.=143.588013m. Speed=15.948000m/h.</desc>
<speed>4.430000</speed>
</trkpt>
<trkpt lat="55.741508" lon="26.225086">
<ele>143.334106</ele>
<time>2010-07-18T07:41:30Z</time>
<desc>lat.=55.741508, lon.=26.225086, Alt.=143.334106m. Speed=15.696000m/h.</desc>
<speed>4.360000</speed>
</trkpt>
<trkpt lat="55.741531" lon="26.225145">
<ele>143.377075</ele>
<time>2010-07-18T07:41:31Z</time>
<desc>lat.=55.741531, lon.=26.225145, Alt.=143.377075m. Speed=16.488001m/h.</desc>
<speed>4.580000</speed>
</trkpt>
<trkpt lat="55.741554" lon="26.225204">
<ele>142.978638</ele>
<time>2010-07-18T07:41:32Z</time>
<desc>lat.=55.741554, lon.=26.225204, Alt.=142.978638m. Speed=17.063999m/h.</desc>
<speed>4.740000</speed>
</trkpt>
<trkpt lat="55.741581" lon="26.225266">
<ele>142.884888</ele>
<time>2010-07-18T07:41:33Z</time>
<desc>lat.=55.741581, lon.=26.225266, Alt.=142.884888m. Speed=16.632000m/h.</desc>
<speed>4.620000</speed>
</trkpt>
<trkpt lat="55.741604" lon="26.225323">
<ele>142.951294</ele>
<time>2010-07-18T07:41:34Z</time>
<desc>lat.=55.741604, lon.=26.225323, Alt.=142.951294m. Speed=16.344000m/h.</desc>
<speed>4.540000</speed>
</trkpt>
<trkpt lat="55.741631" lon="26.225380">
<ele>143.037231</ele>
<time>2010-07-18T07:41:35Z</time>
<desc>lat.=55.741631, lon.=26.225380, Alt.=143.037231m. Speed=16.308001m/h.</desc>
<speed>4.530000</speed>
</trkpt>
<trkpt lat="55.741657" lon="26.225433">
<ele>142.947388</ele>
<time>2010-07-18T07:41:36Z</time>
<desc>lat.=55.741657, lon.=26.225433, Alt.=142.947388m. Speed=15.120000m/h.</desc>
<speed>4.200000</speed>
</trkpt>
<trkpt lat="55.741680" lon="26.225483">
<ele>142.974731</ele>
<time>2010-07-18T07:41:37Z</time>
<desc>lat.=55.741680, lon.=26.225483, Alt.=142.974731m. Speed=14.436000m/h.</desc>
<speed>4.010000</speed>
</trkpt>
<trkpt lat="55.741699" lon="26.225531">
<ele>142.607544</ele>
<time>2010-07-18T07:41:38Z</time>
<desc>lat.=55.741699, lon.=26.225531, Alt.=142.607544m. Speed=14.040000m/h.</desc>
<speed>3.900000</speed>
</trkpt>
<trkpt lat="55.741726" lon="26.225580">
<ele>142.783325</ele>
<time>2010-07-18T07:41:39Z</time>
<desc>lat.=55.741726, lon.=26.225580, Alt.=142.783325m. Speed=13.608000m/h.</desc>
<speed>3.780000</speed>
</trkpt>
<trkpt lat="55.741745" lon="26.225622">
<ele>142.607544</ele>
<time>2010-07-18T07:41:40Z</time>
<desc>lat.=55.741745, lon.=26.225622, Alt.=142.607544m. Speed=13.392000m/h.</desc>
<speed>3.720000</speed>
</trkpt>
<trkpt lat="55.741768" lon="26.225666">
<ele>142.271606</ele>
<time>2010-07-18T07:41:41Z</time>
<desc>lat.=55.741768, lon.=26.225666, Alt.=142.271606m. Speed=13.464000m/h.</desc>
<speed>3.740000</speed>
</trkpt>
<trkpt lat="55.741791" lon="26.225716">
<ele>141.986450</ele>
<time>2010-07-18T07:41:42Z</time>
<desc>lat.=55.741791, lon.=26.225716, Alt.=141.986450m. Speed=13.896000m/h.</desc>
<speed>3.860000</speed>
</trkpt>
<trkpt lat="55.741810" lon="26.225769">
<ele>142.033325</ele>
<time>2010-07-18T07:41:43Z</time>
<desc>lat.=55.741810, lon.=26.225769, Alt.=142.033325m. Speed=15.480000m/h.</desc>
<speed>4.300000</speed>
</trkpt>
<trkpt lat="55.741837" lon="26.225826">
<ele>141.900513</ele>
<time>2010-07-18T07:41:44Z</time>
<desc>lat.=55.741837, lon.=26.225826, Alt.=141.900513m. Speed=16.740000m/h.</desc>
<speed>4.650000</speed>
</trkpt>
<trkpt lat="55.741867" lon="26.225883">
<ele>141.634888</ele>
<time>2010-07-18T07:41:45Z</time>
<desc>lat.=55.741867, lon.=26.225883, Alt.=141.634888m. Speed=17.496000m/h.</desc>
<speed>4.860000</speed>
</trkpt>
<trkpt lat="55.741898" lon="26.225943">
<ele>141.345825</ele>
<time>2010-07-18T07:41:46Z</time>
<desc>lat.=55.741898, lon.=26.225943, Alt.=141.345825m. Speed=18.936001m/h.</desc>
<speed>5.260000</speed>
</trkpt>
<trkpt lat="55.741932" lon="26.226007">
<ele>141.127075</ele>
<time>2010-07-18T07:41:47Z</time>
<desc>lat.=55.741932, lon.=26.226007, Alt.=141.127075m. Speed=20.808001m/h.</desc>
<speed>5.780000</speed>
</trkpt>
<trkpt lat="55.741962" lon="26.226080">
<ele>140.287231</ele>
<time>2010-07-18T07:41:48Z</time>
<desc>lat.=55.741962, lon.=26.226080, Alt.=140.287231m. Speed=21.275999m/h.</desc>
<speed>5.910000</speed>
</trkpt>
<trkpt lat="55.741997" lon="26.226160">
<ele>139.873169</ele>
<time>2010-07-18T07:41:49Z</time>
<desc>lat.=55.741997, lon.=26.226160, Alt.=139.873169m. Speed=23.400000m/h.</desc>
<speed>6.500000</speed>
</trkpt>
<trkpt lat="55.742035" lon="26.226242">
<ele>139.451294</ele>
<time>2010-07-18T07:41:50Z</time>
<desc>lat.=55.742035, lon.=26.226242, Alt.=139.451294m. Speed=23.940001m/h.</desc>
<speed>6.650000</speed>
</trkpt>
<trkpt lat="55.742073" lon="26.226330">
<ele>139.041138</ele>
<time>2010-07-18T07:41:51Z</time>
<desc>lat.=55.742073, lon.=26.226330, Alt.=139.041138m. Speed=25.775999m/h.</desc>
<speed>7.160000</speed>
</trkpt>
<trkpt lat="55.742111" lon="26.226427">
<ele>138.591919</ele>
<time>2010-07-18T07:41:52Z</time>
<desc>lat.=55.742111, lon.=26.226427, Alt.=138.591919m. Speed=27.504000m/h.</desc>
<speed>7.640000</speed>
</trkpt>
<trkpt lat="55.742153" lon="26.226534">
<ele>138.025513</ele>
<time>2010-07-18T07:41:53Z</time>
<desc>lat.=55.742153, lon.=26.226534, Alt.=138.025513m. Speed=29.520000m/h.</desc>
<speed>8.200000</speed>
</trkpt>
<trkpt lat="55.742199" lon="26.226643">
<ele>137.404419</ele>
<time>2010-07-18T07:41:54Z</time>
<desc>lat.=55.742199, lon.=26.226643, Alt.=137.404419m. Speed=31.356001m/h.</desc>
<speed>8.710000</speed>
</trkpt>
<trkpt lat="55.742249" lon="26.226757">
<ele>136.908325</ele>
<time>2010-07-18T07:41:55Z</time>
<desc>lat.=55.742249, lon.=26.226757, Alt.=136.908325m. Speed=33.048000m/h.</desc>
<speed>9.180000</speed>
</trkpt>
<trkpt lat="55.742302" lon="26.226881">
<ele>136.201294</ele>
<time>2010-07-18T07:41:56Z</time>
<desc>lat.=55.742302, lon.=26.226881, Alt.=136.201294m. Speed=34.487999m/h.</desc>
<speed>9.580000</speed>
</trkpt>
<trkpt lat="55.742352" lon="26.227015">
<ele>135.400513</ele>
<time>2010-07-18T07:41:57Z</time>
<desc>lat.=55.742352, lon.=26.227015, Alt.=135.400513m. Speed=35.928001m/h.</desc>
<speed>9.980000</speed>
</trkpt>
<trkpt lat="55.742397" lon="26.227152">
<ele>134.642700</ele>
<time>2010-07-18T07:41:58Z</time>
<desc>lat.=55.742397, lon.=26.227152, Alt.=134.642700m. Speed=36.431999m/h.</desc>
<speed>10.120000</speed>
</trkpt>
<trkpt lat="55.742443" lon="26.227303">
<ele>133.963013</ele>
<time>2010-07-18T07:41:59Z</time>
<desc>lat.=55.742443, lon.=26.227303, Alt.=133.963013m. Speed=38.124001m/h.</desc>
<speed>10.590000</speed>
</trkpt>
<trkpt lat="55.742477" lon="26.227461">
<ele>133.513794</ele>
<time>2010-07-18T07:42:00Z</time>
<desc>lat.=55.742477, lon.=26.227461, Alt.=133.513794m. Speed=38.520000m/h.</desc>
<speed>10.700000</speed>
</trkpt>
<trkpt lat="55.742512" lon="26.227617">
<ele>132.955200</ele>
<time>2010-07-18T07:42:01Z</time>
<desc>lat.=55.742512, lon.=26.227617, Alt.=132.955200m. Speed=38.520000m/h.</desc>
<speed>10.700000</speed>
</trkpt>
<trkpt lat="55.742542" lon="26.227781">
<ele>132.525513</ele>
<time>2010-07-18T07:42:02Z</time>
<desc>lat.=55.742542, lon.=26.227781, Alt.=132.525513m. Speed=39.528000m/h.</desc>
<speed>10.980000</speed>
</trkpt>
<trkpt lat="55.742577" lon="26.227951">
<ele>132.107544</ele>
<time>2010-07-18T07:42:03Z</time>
<desc>lat.=55.742577, lon.=26.227951, Alt.=132.107544m. Speed=40.355999m/h.</desc>
<speed>11.210000</speed>
</trkpt>
<trkpt lat="55.742615" lon="26.228128">
<ele>131.267700</ele>
<time>2010-07-18T07:42:04Z</time>
<desc>lat.=55.742615, lon.=26.228128, Alt.=131.267700m. Speed=41.796001m/h.</desc>
<speed>11.610000</speed>
</trkpt>
<trkpt lat="55.742645" lon="26.228308">
<ele>130.638794</ele>
<time>2010-07-18T07:42:05Z</time>
<desc>lat.=55.742645, lon.=26.228308, Alt.=130.638794m. Speed=42.408001m/h.</desc>
<speed>11.780000</speed>
</trkpt>
<trkpt lat="55.742672" lon="26.228493">
<ele>129.927856</ele>
<time>2010-07-18T07:42:06Z</time>
<desc>lat.=55.742672, lon.=26.228493, Alt.=129.927856m. Speed=41.976002m/h.</desc>
<speed>11.660000</speed>
</trkpt>
<trkpt lat="55.742695" lon="26.228678">
<ele>129.138794</ele>
<time>2010-07-18T07:42:07Z</time>
<desc>lat.=55.742695, lon.=26.228678, Alt.=129.138794m. Speed=42.084000m/h.</desc>
<speed>11.690000</speed>
</trkpt>
<trkpt lat="55.742722" lon="26.228857">
<ele>128.611450</ele>
<time>2010-07-18T07:42:08Z</time>
<desc>lat.=55.742722, lon.=26.228857, Alt.=128.611450m. Speed=41.832001m/h.</desc>
<speed>11.620000</speed>
</trkpt>
<trkpt lat="55.742744" lon="26.229036">
<ele>128.091919</ele>
<time>2010-07-18T07:42:09Z</time>
<desc>lat.=55.742744, lon.=26.229036, Alt.=128.091919m. Speed=41.147999m/h.</desc>
<speed>11.430000</speed>
</trkpt>
<trkpt lat="55.742771" lon="26.229210">
<ele>127.588928</ele>
<time>2010-07-18T07:42:10Z</time>
<desc>lat.=55.742771, lon.=26.229210, Alt.=127.588928m. Speed=41.220001m/h.</desc>
<speed>11.450000</speed>
</trkpt>
<trkpt lat="55.742794" lon="26.229382">
<ele>127.167053</ele>
<time>2010-07-18T07:42:11Z</time>
<desc>lat.=55.742794, lon.=26.229382, Alt.=127.167053m. Speed=40.787998m/h.</desc>
<speed>11.329999</speed>
</trkpt>
<trkpt lat="55.742821" lon="26.229548">
<ele>126.852600</ele>
<time>2010-07-18T07:42:12Z</time>
<desc>lat.=55.742821, lon.=26.229548, Alt.=126.852600m. Speed=38.844002m/h.</desc>
<speed>10.790000</speed>
</trkpt>
<trkpt lat="55.742847" lon="26.229717">
<ele>126.821350</ele>
<time>2010-07-18T07:42:13Z</time>
<desc>lat.=55.742847, lon.=26.229717, Alt.=126.821350m. Speed=38.916000m/h.</desc>
<speed>10.810000</speed>
</trkpt>
<trkpt lat="55.742878" lon="26.229883">
<ele>126.922913</ele>
<time>2010-07-18T07:42:14Z</time>
<desc>lat.=55.742878, lon.=26.229883, Alt.=126.922913m. Speed=37.476002m/h.</desc>
<speed>10.410000</speed>
</trkpt>
<trkpt lat="55.742908" lon="26.230038">
<ele>129.045044</ele>
<time>2010-07-18T07:42:15Z</time>
<desc>lat.=55.742908, lon.=26.230038, Alt.=129.045044m. Speed=39.023998m/h.</desc>
<speed>10.840000</speed>
</trkpt>
<trkpt lat="55.742943" lon="26.230192">
<ele>129.209106</ele>
<time>2010-07-18T07:42:16Z</time>
<desc>lat.=55.742943, lon.=26.230192, Alt.=129.209106m. Speed=36.972000m/h.</desc>
<speed>10.270000</speed>
</trkpt>
<trkpt lat="55.742973" lon="26.230339">
<ele>129.423950</ele>
<time>2010-07-18T07:42:17Z</time>
<desc>lat.=55.742973, lon.=26.230339, Alt.=129.423950m. Speed=36.251999m/h.</desc>
<speed>10.070000</speed>
</trkpt>
<trkpt lat="55.743011" lon="26.230478">
<ele>129.478638</ele>
<time>2010-07-18T07:42:18Z</time>
<desc>lat.=55.743011, lon.=26.230478, Alt.=129.478638m. Speed=35.495998m/h.</desc>
<speed>9.860000</speed>
</trkpt>
<trkpt lat="55.743042" lon="26.230616">
<ele>129.619263</ele>
<time>2010-07-18T07:42:19Z</time>
<desc>lat.=55.743042, lon.=26.230616, Alt.=129.619263m. Speed=33.804001m/h.</desc>
<speed>9.390000</speed>
</trkpt>
<trkpt lat="55.743069" lon="26.230755">
<ele>129.896606</ele>
<time>2010-07-18T07:42:20Z</time>
<desc>lat.=55.743069, lon.=26.230755, Alt.=129.896606m. Speed=33.119999m/h.</desc>
<speed>9.200000</speed>
</trkpt>
<trkpt lat="55.743095" lon="26.230883">
<ele>130.310669</ele>
<time>2010-07-18T07:42:21Z</time>
<desc>lat.=55.743095, lon.=26.230883, Alt.=130.310669m. Speed=31.680000m/h.</desc>
<speed>8.800000</speed>
</trkpt>
<trkpt lat="55.743126" lon="26.231003">
<ele>131.826294</ele>
<time>2010-07-18T07:42:22Z</time>
<desc>lat.=55.743126, lon.=26.231003, Alt.=131.826294m. Speed=28.799999m/h.</desc>
<speed>8.000000</speed>
</trkpt>
<trkpt lat="55.743149" lon="26.231119">
<ele>132.189575</ele>
<time>2010-07-18T07:42:23Z</time>
<desc>lat.=55.743149, lon.=26.231119, Alt.=132.189575m. Speed=27.612000m/h.</desc>
<speed>7.670000</speed>
</trkpt>
<trkpt lat="55.743172" lon="26.231224">
<ele>132.716919</ele>
<time>2010-07-18T07:42:24Z</time>
<desc>lat.=55.743172, lon.=26.231224, Alt.=132.716919m. Speed=26.028000m/h.</desc>
<speed>7.230000</speed>
</trkpt>
<trkpt lat="55.743195" lon="26.231319">
<ele>133.236450</ele>
<time>2010-07-18T07:42:25Z</time>
<desc>lat.=55.743195, lon.=26.231319, Alt.=133.236450m. Speed=23.004000m/h.</desc>
<speed>6.390000</speed>
</trkpt>
<trkpt lat="55.743214" lon="26.231411">
<ele>133.513794</ele>
<time>2010-07-18T07:42:26Z</time>
<desc>lat.=55.743214, lon.=26.231411, Alt.=133.513794m. Speed=20.483999m/h.</desc>
<speed>5.690000</speed>
</trkpt>
<trkpt lat="55.743233" lon="26.231493">
<ele>133.795044</ele>
<time>2010-07-18T07:42:27Z</time>
<desc>lat.=55.743233, lon.=26.231493, Alt.=133.795044m. Speed=18.288000m/h.</desc>
<speed>5.080000</speed>
</trkpt>
<trkpt lat="55.743252" lon="26.231564">
<ele>134.599731</ele>
<time>2010-07-18T07:42:28Z</time>
<desc>lat.=55.743252, lon.=26.231564, Alt.=134.599731m. Speed=17.028000m/h.</desc>
<speed>4.730000</speed>
</trkpt>
<trkpt lat="55.743263" lon="26.231627">
<ele>135.244263</ele>
<time>2010-07-18T07:42:29Z</time>
<desc>lat.=55.743263, lon.=26.231627, Alt.=135.244263m. Speed=15.300000m/h.</desc>
<speed>4.250000</speed>
</trkpt>
<trkpt lat="55.743275" lon="26.231693">
<ele>135.627075</ele>
<time>2010-07-18T07:42:30Z</time>
<desc>lat.=55.743275, lon.=26.231693, Alt.=135.627075m. Speed=14.004000m/h.</desc>
<speed>3.890000</speed>
</trkpt>
<trkpt lat="55.743286" lon="26.231750">
<ele>136.146606</ele>
<time>2010-07-18T07:42:31Z</time>
<desc>lat.=55.743286, lon.=26.231750, Alt.=136.146606m. Speed=12.924000m/h.</desc>
<speed>3.590000</speed>
</trkpt>
<trkpt lat="55.743298" lon="26.231800">
<ele>136.709106</ele>
<time>2010-07-18T07:42:32Z</time>
<desc>lat.=55.743298, lon.=26.231800, Alt.=136.709106m. Speed=11.700000m/h.</desc>
<speed>3.250000</speed>
</trkpt>
<trkpt lat="55.743305" lon="26.231844">
<ele>137.490356</ele>
<time>2010-07-18T07:42:33Z</time>
<desc>lat.=55.743305, lon.=26.231844, Alt.=137.490356m. Speed=10.836000m/h.</desc>
<speed>3.010000</speed>
</trkpt>
<trkpt lat="55.743313" lon="26.231886">
<ele>137.736450</ele>
<time>2010-07-18T07:42:34Z</time>
<desc>lat.=55.743313, lon.=26.231886, Alt.=137.736450m. Speed=9.828000m/h.</desc>
<speed>2.730000</speed>
</trkpt>
<trkpt lat="55.743320" lon="26.231918">
<ele>138.154419</ele>
<time>2010-07-18T07:42:35Z</time>
<desc>lat.=55.743320, lon.=26.231918, Alt.=138.154419m. Speed=9.036000m/h.</desc>
<speed>2.510000</speed>
</trkpt>
<trkpt lat="55.743324" lon="26.231951">
<ele>138.427856</ele>
<time>2010-07-18T07:42:36Z</time>
<desc>lat.=55.743324, lon.=26.231951, Alt.=138.427856m. Speed=7.128000m/h.</desc>
<speed>1.980000</speed>
</trkpt>
<trkpt lat="55.743324" lon="26.231974">
<ele>138.654419</ele>
<time>2010-07-18T07:42:37Z</time>
<desc>lat.=55.743324, lon.=26.231974, Alt.=138.654419m. Speed=4.320000m/h.</desc>
<speed>1.200000</speed>
</trkpt>
<trkpt lat="55.743328" lon="26.231995">
<ele>138.666138</ele>
<time>2010-07-18T07:42:38Z</time>
<desc>lat.=55.743328, lon.=26.231995, Alt.=138.666138m. Speed=4.032000m/h.</desc>
<speed>1.120000</speed>
</trkpt>
<trkpt lat="55.743328" lon="26.232010">
<ele>138.611450</ele>
<time>2010-07-18T07:42:39Z</time>
<desc>lat.=55.743328, lon.=26.232010, Alt.=138.611450m. Speed=4.428000m/h.</desc>
<speed>1.230000</speed>
</trkpt>
<trkpt lat="55.743336" lon="26.232033">
<ele>138.806763</ele>
<time>2010-07-18T07:42:40Z</time>
<desc>lat.=55.743336, lon.=26.232033, Alt.=138.806763m. Speed=5.832000m/h.</desc>
<speed>1.620000</speed>
</trkpt>
<trkpt lat="55.743343" lon="26.232054">
<ele>139.021606</ele>
<time>2010-07-18T07:42:41Z</time>
<desc>lat.=55.743343, lon.=26.232054, Alt.=139.021606m. Speed=5.652000m/h.</desc>
<speed>1.570000</speed>
</trkpt>
<trkpt lat="55.743347" lon="26.232100">
<ele>139.306763</ele>
<time>2010-07-18T07:42:42Z</time>
<desc>lat.=55.743347, lon.=26.232100, Alt.=139.306763m. Speed=6.840000m/h.</desc>
<speed>1.900000</speed>
</trkpt>
<trkpt lat="55.743351" lon="26.232134">
<ele>139.459106</ele>
<time>2010-07-18T07:42:43Z</time>
<desc>lat.=55.743351, lon.=26.232134, Alt.=139.459106m. Speed=7.740000m/h.</desc>
<speed>2.150000</speed>
</trkpt>
<trkpt lat="55.743359" lon="26.232164">
<ele>139.650513</ele>
<time>2010-07-18T07:42:44Z</time>
<desc>lat.=55.743359, lon.=26.232164, Alt.=139.650513m. Speed=7.632000m/h.</desc>
<speed>2.120000</speed>
</trkpt>
<trkpt lat="55.743370" lon="26.232182">
<ele>139.533325</ele>
<time>2010-07-18T07:42:45Z</time>
<desc>lat.=55.743370, lon.=26.232182, Alt.=139.533325m. Speed=7.272000m/h.</desc>
<speed>2.020000</speed>
</trkpt>
<trkpt lat="55.743378" lon="26.232214">
<ele>139.701294</ele>
<time>2010-07-18T07:42:46Z</time>
<desc>lat.=55.743378, lon.=26.232214, Alt.=139.701294m. Speed=8.568000m/h.</desc>
<speed>2.380000</speed>
</trkpt>
<trkpt lat="55.743385" lon="26.232254">
<ele>139.923950</ele>
<time>2010-07-18T07:42:47Z</time>
<desc>lat.=55.743385, lon.=26.232254, Alt.=139.923950m. Speed=8.964000m/h.</desc>
<speed>2.490000</speed>
</trkpt>
<trkpt lat="55.743393" lon="26.232296">
<ele>140.177856</ele>
<time>2010-07-18T07:42:48Z</time>
<desc>lat.=55.743393, lon.=26.232296, Alt.=140.177856m. Speed=9.648000m/h.</desc>
<speed>2.680000</speed>
</trkpt>
<trkpt lat="55.743397" lon="26.232344">
<ele>140.380981</ele>
<time>2010-07-18T07:42:49Z</time>
<desc>lat.=55.743397, lon.=26.232344, Alt.=140.380981m. Speed=9.144000m/h.</desc>
<speed>2.540000</speed>
</trkpt>
<trkpt lat="55.743397" lon="26.232378">
<ele>140.693481</ele>
<time>2010-07-18T07:42:50Z</time>
<desc>lat.=55.743397, lon.=26.232378, Alt.=140.693481m. Speed=8.496000m/h.</desc>
<speed>2.360000</speed>
</trkpt>
<trkpt lat="55.743404" lon="26.232414">
<ele>141.076294</ele>
<time>2010-07-18T07:42:51Z</time>
<desc>lat.=55.743404, lon.=26.232414, Alt.=141.076294m. Speed=9.468000m/h.</desc>
<speed>2.630000</speed>
</trkpt>
<trkpt lat="55.743412" lon="26.232452">
<ele>141.330200</ele>
<time>2010-07-18T07:42:52Z</time>
<desc>lat.=55.743412, lon.=26.232452, Alt.=141.330200m. Speed=8.748000m/h.</desc>
<speed>2.430000</speed>
</trkpt>
<trkpt lat="55.743420" lon="26.232485">
<ele>141.572388</ele>
<time>2010-07-18T07:42:53Z</time>
<desc>lat.=55.743420, lon.=26.232485, Alt.=141.572388m. Speed=7.380000m/h.</desc>
<speed>2.050000</speed>
</trkpt>
<trkpt lat="55.743423" lon="26.232513">
<ele>141.791138</ele>
<time>2010-07-18T07:42:54Z</time>
<desc>lat.=55.743423, lon.=26.232513, Alt.=141.791138m. Speed=7.344000m/h.</desc>
<speed>2.040000</speed>
</trkpt>
<trkpt lat="55.743435" lon="26.232548">
<ele>142.068481</ele>
<time>2010-07-18T07:42:55Z</time>
<desc>lat.=55.743435, lon.=26.232548, Alt.=142.068481m. Speed=7.812000m/h.</desc>
<speed>2.170000</speed>
</trkpt>
<trkpt lat="55.743446" lon="26.232584">
<ele>142.353638</ele>
<time>2010-07-18T07:42:56Z</time>
<desc>lat.=55.743446, lon.=26.232584, Alt.=142.353638m. Speed=7.740000m/h.</desc>
<speed>2.150000</speed>
</trkpt>
<trkpt lat="55.743454" lon="26.232620">
<ele>142.560669</ele>
<time>2010-07-18T07:42:57Z</time>
<desc>lat.=55.743454, lon.=26.232620, Alt.=142.560669m. Speed=8.460000m/h.</desc>
<speed>2.350000</speed>
</trkpt>
<trkpt lat="55.743462" lon="26.232662">
<ele>142.775513</ele>
<time>2010-07-18T07:42:58Z</time>
<desc>lat.=55.743462, lon.=26.232662, Alt.=142.775513m. Speed=8.244000m/h.</desc>
<speed>2.290000</speed>
</trkpt>
<trkpt lat="55.743484" lon="26.232695">
<ele>143.252075</ele>
<time>2010-07-18T07:42:59Z</time>
<desc>lat.=55.743484, lon.=26.232695, Alt.=143.252075m. Speed=8.928000m/h.</desc>
<speed>2.480000</speed>
</trkpt>
<trkpt lat="55.743492" lon="26.232725">
<ele>143.494263</ele>
<time>2010-07-18T07:43:00Z</time>
<desc>lat.=55.743492, lon.=26.232725, Alt.=143.494263m. Speed=7.164000m/h.</desc>
<speed>1.990000</speed>
</trkpt>
<trkpt lat="55.743500" lon="26.232754">
<ele>143.681763</ele>
<time>2010-07-18T07:43:01Z</time>
<desc>lat.=55.743500, lon.=26.232754, Alt.=143.681763m. Speed=7.524000m/h.</desc>
<speed>2.090000</speed>
</trkpt>
<trkpt lat="55.743504" lon="26.232792">
<ele>143.884888</ele>
<time>2010-07-18T07:43:02Z</time>
<desc>lat.=55.743504, lon.=26.232792, Alt.=143.884888m. Speed=9.612000m/h.</desc>
<speed>2.670000</speed>
</trkpt>
<trkpt lat="55.743511" lon="26.232826">
<ele>144.064575</ele>
<time>2010-07-18T07:43:03Z</time>
<desc>lat.=55.743511, lon.=26.232826, Alt.=144.064575m. Speed=8.280000m/h.</desc>
<speed>2.300000</speed>
</trkpt>
<trkpt lat="55.743515" lon="26.232862">
<ele>144.267700</ele>
<time>2010-07-18T07:43:04Z</time>
<desc>lat.=55.743515, lon.=26.232862, Alt.=144.267700m. Speed=8.784000m/h.</desc>
<speed>2.440000</speed>
</trkpt>
<trkpt lat="55.743523" lon="26.232899">
<ele>144.478638</ele>
<time>2010-07-18T07:43:05Z</time>
<desc>lat.=55.743523, lon.=26.232899, Alt.=144.478638m. Speed=8.460000m/h.</desc>
<speed>2.350000</speed>
</trkpt>
<trkpt lat="55.743526" lon="26.232933">
<ele>144.673950</ele>
<time>2010-07-18T07:43:06Z</time>
<desc>lat.=55.743526, lon.=26.232933, Alt.=144.673950m. Speed=8.064000m/h.</desc>
<speed>2.240000</speed>
</trkpt>
<trkpt lat="55.743530" lon="26.232965">
<ele>144.880981</ele>
<time>2010-07-18T07:43:07Z</time>
<desc>lat.=55.743530, lon.=26.232965, Alt.=144.880981m. Speed=7.560000m/h.</desc>
<speed>2.100000</speed>
</trkpt>
<trkpt lat="55.743538" lon="26.232998">
<ele>145.197388</ele>
<time>2010-07-18T07:43:08Z</time>
<desc>lat.=55.743538, lon.=26.232998, Alt.=145.197388m. Speed=10.044000m/h.</desc>
<speed>2.790000</speed>
</trkpt>
<trkpt lat="55.743549" lon="26.233013">
<ele>145.248169</ele>
<time>2010-07-18T07:43:09Z</time>
<desc>lat.=55.743549, lon.=26.233013, Alt.=145.248169m. Speed=8.640000m/h.</desc>
<speed>2.400000</speed>
</trkpt>
<trkpt lat="55.743557" lon="26.233044">
<ele>145.556763</ele>
<time>2010-07-18T07:43:10Z</time>
<desc>lat.=55.743557, lon.=26.233044, Alt.=145.556763m. Speed=8.172000m/h.</desc>
<speed>2.270000</speed>
</trkpt>
<trkpt lat="55.743561" lon="26.233072">
<ele>145.763794</ele>
<time>2010-07-18T07:43:11Z</time>
<desc>lat.=55.743561, lon.=26.233072, Alt.=145.763794m. Speed=7.308000m/h.</desc>
<speed>2.030000</speed>
</trkpt>
<trkpt lat="55.743561" lon="26.233093">
<ele>145.955200</ele>
<time>2010-07-18T07:43:12Z</time>
<desc>lat.=55.743561, lon.=26.233093, Alt.=145.955200m. Speed=7.056000m/h.</desc>
<speed>1.960000</speed>
</trkpt>
<trkpt lat="55.743565" lon="26.233116">
<ele>146.189575</ele>
<time>2010-07-18T07:43:13Z</time>
<desc>lat.=55.743565, lon.=26.233116, Alt.=146.189575m. Speed=6.876000m/h.</desc>
<speed>1.910000</speed>
</trkpt>
<trkpt lat="55.743572" lon="26.233154">
<ele>146.396606</ele>
<time>2010-07-18T07:43:14Z</time>
<desc>lat.=55.743572, lon.=26.233154, Alt.=146.396606m. Speed=8.064000m/h.</desc>
<speed>2.240000</speed>
</trkpt>
<trkpt lat="55.743576" lon="26.233189">
<ele>146.572388</ele>
<time>2010-07-18T07:43:15Z</time>
<desc>lat.=55.743576, lon.=26.233189, Alt.=146.572388m. Speed=7.164000m/h.</desc>
<speed>1.990000</speed>
</trkpt>
<trkpt lat="55.743580" lon="26.233227">
<ele>146.806763</ele>
<time>2010-07-18T07:43:16Z</time>
<desc>lat.=55.743580, lon.=26.233227, Alt.=146.806763m. Speed=6.120000m/h.</desc>
<speed>1.700000</speed>
</trkpt>
<trkpt lat="55.743587" lon="26.233257">
<ele>146.959106</ele>
<time>2010-07-18T07:43:17Z</time>
<desc>lat.=55.743587, lon.=26.233257, Alt.=146.959106m. Speed=7.524000m/h.</desc>
<speed>2.090000</speed>
</trkpt>
<trkpt lat="55.743599" lon="26.233292">
<ele>147.146606</ele>
<time>2010-07-18T07:43:18Z</time>
<desc>lat.=55.743599, lon.=26.233292, Alt.=147.146606m. Speed=7.956000m/h.</desc>
<speed>2.210000</speed>
</trkpt>
<trkpt lat="55.743614" lon="26.233324">
<ele>147.345825</ele>
<time>2010-07-18T07:43:19Z</time>
<desc>lat.=55.743614, lon.=26.233324, Alt.=147.345825m. Speed=8.172000m/h.</desc>
<speed>2.270000</speed>
</trkpt>
<trkpt lat="55.743626" lon="26.233351">
<ele>147.474731</ele>
<time>2010-07-18T07:43:20Z</time>
<desc>lat.=55.743626, lon.=26.233351, Alt.=147.474731m. Speed=6.876000m/h.</desc>
<speed>1.910000</speed>
</trkpt>
<trkpt lat="55.743633" lon="26.233387">
<ele>147.693481</ele>
<time>2010-07-18T07:43:21Z</time>
<desc>lat.=55.743633, lon.=26.233387, Alt.=147.693481m. Speed=7.344000m/h.</desc>
<speed>2.040000</speed>
</trkpt>
<trkpt lat="55.743641" lon="26.233421">
<ele>147.986450</ele>
<time>2010-07-18T07:43:22Z</time>
<desc>lat.=55.743641, lon.=26.233421, Alt.=147.986450m. Speed=7.524000m/h.</desc>
<speed>2.090000</speed>
</trkpt>
<trkpt lat="55.743641" lon="26.233448">
<ele>147.931763</ele>
<time>2010-07-18T07:43:23Z</time>
<desc>lat.=55.743641, lon.=26.233448, Alt.=147.931763m. Speed=6.408000m/h.</desc>
<speed>1.780000</speed>
</trkpt>
<trkpt lat="55.743649" lon="26.233479">
<ele>148.189575</ele>
<time>2010-07-18T07:43:24Z</time>
<desc>lat.=55.743649, lon.=26.233479, Alt.=148.189575m. Speed=8.388000m/h.</desc>
<speed>2.330000</speed>
</trkpt>
<trkpt lat="55.743652" lon="26.233517">
<ele>148.209106</ele>
<time>2010-07-18T07:43:25Z</time>
<desc>lat.=55.743652, lon.=26.233517, Alt.=148.209106m. Speed=7.488000m/h.</desc>
<speed>2.080000</speed>
</trkpt>
<trkpt lat="55.743652" lon="26.233557">
<ele>148.798950</ele>
<time>2010-07-18T07:43:26Z</time>
<desc>lat.=55.743652, lon.=26.233557, Alt.=148.798950m. Speed=7.596000m/h.</desc>
<speed>2.110000</speed>
</trkpt>
<trkpt lat="55.743649" lon="26.233610">
<ele>149.146606</ele>
<time>2010-07-18T07:43:27Z</time>
<desc>lat.=55.743649, lon.=26.233610, Alt.=149.146606m. Speed=9.828000m/h.</desc>
<speed>2.730000</speed>
</trkpt>
<trkpt lat="55.743645" lon="26.233656">
<ele>149.427856</ele>
<time>2010-07-18T07:43:28Z</time>
<desc>lat.=55.743645, lon.=26.233656, Alt.=149.427856m. Speed=8.424000m/h.</desc>
<speed>2.340000</speed>
</trkpt>
<trkpt lat="55.743645" lon="26.233700">
<ele>149.517700</ele>
<time>2010-07-18T07:43:29Z</time>
<desc>lat.=55.743645, lon.=26.233700, Alt.=149.517700m. Speed=6.300000m/h.</desc>
<speed>1.750000</speed>
</trkpt>
<trkpt lat="55.743637" lon="26.233738">
<ele>149.384888</ele>
<time>2010-07-18T07:43:30Z</time>
<desc>lat.=55.743637, lon.=26.233738, Alt.=149.384888m. Speed=6.768000m/h.</desc>
<speed>1.880000</speed>
</trkpt>
<trkpt lat="55.743629" lon="26.233814">
<ele>148.498169</ele>
<time>2010-07-18T07:43:31Z</time>
<desc>lat.=55.743629, lon.=26.233814, Alt.=148.498169m. Speed=8.460000m/h.</desc>
<speed>2.350000</speed>
</trkpt>
<trkpt lat="55.743622" lon="26.233856">
<ele>148.560669</ele>
<time>2010-07-18T07:43:32Z</time>
<desc>lat.=55.743622, lon.=26.233856, Alt.=148.560669m. Speed=9.576000m/h.</desc>
<speed>2.660000</speed>
</trkpt>
<trkpt lat="55.743610" lon="26.233894">
<ele>148.818481</ele>
<time>2010-07-18T07:43:33Z</time>
<desc>lat.=55.743610, lon.=26.233894, Alt.=148.818481m. Speed=8.352000m/h.</desc>
<speed>2.320000</speed>
</trkpt>
<trkpt lat="55.743595" lon="26.233946">
<ele>148.013794</ele>
<time>2010-07-18T07:43:34Z</time>
<desc>lat.=55.743595, lon.=26.233946, Alt.=148.013794m. Speed=9.504000m/h.</desc>
<speed>2.640000</speed>
</trkpt>
<trkpt lat="55.743576" lon="26.233990">
<ele>147.720825</ele>
<time>2010-07-18T07:43:35Z</time>
<desc>lat.=55.743576, lon.=26.233990, Alt.=147.720825m. Speed=9.972000m/h.</desc>
<speed>2.770000</speed>
</trkpt>
<trkpt lat="55.743565" lon="26.234020">
<ele>147.295044</ele>
<time>2010-07-18T07:43:36Z</time>
<desc>lat.=55.743565, lon.=26.234020, Alt.=147.295044m. Speed=7.812000m/h.</desc>
<speed>2.170000</speed>
</trkpt>
<trkpt lat="55.743546" lon="26.234049">
<ele>147.095825</ele>
<time>2010-07-18T07:43:37Z</time>
<desc>lat.=55.743546, lon.=26.234049, Alt.=147.095825m. Speed=9.576000m/h.</desc>
<speed>2.660000</speed>
</trkpt>
<trkpt lat="55.743526" lon="26.234072">
<ele>147.068481</ele>
<time>2010-07-18T07:43:38Z</time>
<desc>lat.=55.743526, lon.=26.234072, Alt.=147.068481m. Speed=8.640000m/h.</desc>
<speed>2.400000</speed>
</trkpt>
<trkpt lat="55.743504" lon="26.234108">
<ele>147.228638</ele>
<time>2010-07-18T07:43:39Z</time>
<desc>lat.=55.743504, lon.=26.234108, Alt.=147.228638m. Speed=10.404000m/h.</desc>
<speed>2.890000</speed>
</trkpt>
<trkpt lat="55.743488" lon="26.234135">
<ele>147.537231</ele>
<time>2010-07-18T07:43:40Z</time>
<desc>lat.=55.743488, lon.=26.234135, Alt.=147.537231m. Speed=8.784000m/h.</desc>
<speed>2.440000</speed>
</trkpt>
<trkpt lat="55.743473" lon="26.234163">
<ele>147.556763</ele>
<time>2010-07-18T07:43:41Z</time>
<desc>lat.=55.743473, lon.=26.234163, Alt.=147.556763m. Speed=8.532000m/h.</desc>
<speed>2.370000</speed>
</trkpt>
<trkpt lat="55.743462" lon="26.234207">
<ele>147.697388</ele>
<time>2010-07-18T07:43:42Z</time>
<desc>lat.=55.743462, lon.=26.234207, Alt.=147.697388m. Speed=8.172000m/h.</desc>
<speed>2.270000</speed>
</trkpt>
<trkpt lat="55.743443" lon="26.234232">
<ele>148.302856</ele>
<time>2010-07-18T07:43:43Z</time>
<desc>lat.=55.743443, lon.=26.234232, Alt.=148.302856m. Speed=7.740000m/h.</desc>
<speed>2.150000</speed>
</trkpt>
<trkpt lat="55.743431" lon="26.234261">
<ele>148.709106</ele>
<time>2010-07-18T07:43:44Z</time>
<desc>lat.=55.743431, lon.=26.234261, Alt.=148.709106m. Speed=7.524000m/h.</desc>
<speed>2.090000</speed>
</trkpt>
<trkpt lat="55.743427" lon="26.234287">
<ele>148.912231</ele>
<time>2010-07-18T07:43:45Z</time>
<desc>lat.=55.743427, lon.=26.234287, Alt.=148.912231m. Speed=6.768000m/h.</desc>
<speed>1.880000</speed>
</trkpt>
<trkpt lat="55.743408" lon="26.234324">
<ele>148.869263</ele>
<time>2010-07-18T07:43:46Z</time>
<desc>lat.=55.743408, lon.=26.234324, Alt.=148.869263m. Speed=8.460000m/h.</desc>
<speed>2.350000</speed>
</trkpt>
<trkpt lat="55.743385" lon="26.234364">
<ele>148.084106</ele>
<time>2010-07-18T07:43:47Z</time>
<desc>lat.=55.743385, lon.=26.234364, Alt.=148.084106m. Speed=9.072000m/h.</desc>
<speed>2.520000</speed>
</trkpt>
<trkpt lat="55.743366" lon="26.234400">
<ele>147.767700</ele>
<time>2010-07-18T07:43:48Z</time>
<desc>lat.=55.743366, lon.=26.234400, Alt.=147.767700m. Speed=9.900000m/h.</desc>
<speed>2.750000</speed>
</trkpt>
<trkpt lat="55.743347" lon="26.234436">
<ele>147.521606</ele>
<time>2010-07-18T07:43:49Z</time>
<desc>lat.=55.743347, lon.=26.234436, Alt.=147.521606m. Speed=11.088000m/h.</desc>
<speed>3.080000</speed>
</trkpt>
<trkpt lat="55.743324" lon="26.234474">
<ele>147.052856</ele>
<time>2010-07-18T07:43:50Z</time>
<desc>lat.=55.743324, lon.=26.234474, Alt.=147.052856m. Speed=9.936000m/h.</desc>
<speed>2.760000</speed>
</trkpt>
<trkpt lat="55.743301" lon="26.234516">
<ele>146.775513</ele>
<time>2010-07-18T07:43:51Z</time>
<desc>lat.=55.743301, lon.=26.234516, Alt.=146.775513m. Speed=10.872000m/h.</desc>
<speed>3.020000</speed>
</trkpt>
<trkpt lat="55.743275" lon="26.234568">
<ele>146.634888</ele>
<time>2010-07-18T07:43:52Z</time>
<desc>lat.=55.743275, lon.=26.234568, Alt.=146.634888m. Speed=11.844000m/h.</desc>
<speed>3.290000</speed>
</trkpt>
<trkpt lat="55.743259" lon="26.234613">
<ele>146.771606</ele>
<time>2010-07-18T07:43:53Z</time>
<desc>lat.=55.743259, lon.=26.234613, Alt.=146.771606m. Speed=10.548000m/h.</desc>
<speed>2.930000</speed>
</trkpt>
<trkpt lat="55.743244" lon="26.234653">
<ele>146.740356</ele>
<time>2010-07-18T07:43:54Z</time>
<desc>lat.=55.743244, lon.=26.234653, Alt.=146.740356m. Speed=11.700000m/h.</desc>
<speed>3.250000</speed>
</trkpt>
<trkpt lat="55.743221" lon="26.234694">
<ele>146.509888</ele>
<time>2010-07-18T07:43:55Z</time>
<desc>lat.=55.743221, lon.=26.234694, Alt.=146.509888m. Speed=11.196000m/h.</desc>
<speed>3.110000</speed>
</trkpt>
<trkpt lat="55.743202" lon="26.234739">
<ele>146.357544</ele>
<time>2010-07-18T07:43:56Z</time>
<desc>lat.=55.743202, lon.=26.234739, Alt.=146.357544m. Speed=11.808000m/h.</desc>
<speed>3.280000</speed>
</trkpt>
<trkpt lat="55.743183" lon="26.234783">
<ele>146.298950</ele>
<time>2010-07-18T07:43:57Z</time>
<desc>lat.=55.743183, lon.=26.234783, Alt.=146.298950m. Speed=12.060000m/h.</desc>
<speed>3.350000</speed>
</trkpt>
<trkpt lat="55.743164" lon="26.234829">
<ele>146.095825</ele>
<time>2010-07-18T07:43:58Z</time>
<desc>lat.=55.743164, lon.=26.234829, Alt.=146.095825m. Speed=10.260000m/h.</desc>
<speed>2.850000</speed>
</trkpt>
<trkpt lat="55.743149" lon="26.234863">
<ele>146.252075</ele>
<time>2010-07-18T07:43:59Z</time>
<desc>lat.=55.743149, lon.=26.234863, Alt.=146.252075m. Speed=11.304000m/h.</desc>
<speed>3.140000</speed>
</trkpt>
<trkpt lat="55.743134" lon="26.234913">
<ele>145.865356</ele>
<time>2010-07-18T07:44:00Z</time>
<desc>lat.=55.743134, lon.=26.234913, Alt.=145.865356m. Speed=12.600000m/h.</desc>
<speed>3.500000</speed>
</trkpt>
<trkpt lat="55.743118" lon="26.234966">
<ele>145.099731</ele>
<time>2010-07-18T07:44:01Z</time>
<desc>lat.=55.743118, lon.=26.234966, Alt.=145.099731m. Speed=12.744000m/h.</desc>
<speed>3.540000</speed>
</trkpt>
<trkpt lat="55.743099" lon="26.235014">
<ele>144.853638</ele>
<time>2010-07-18T07:44:02Z</time>
<desc>lat.=55.743099, lon.=26.235014, Alt.=144.853638m. Speed=12.492000m/h.</desc>
<speed>3.470000</speed>
</trkpt>
<trkpt lat="55.743084" lon="26.235056">
<ele>144.619263</ele>
<time>2010-07-18T07:44:03Z</time>
<desc>lat.=55.743084, lon.=26.235056, Alt.=144.619263m. Speed=11.952000m/h.</desc>
<speed>3.320000</speed>
</trkpt>
<trkpt lat="55.743069" lon="26.235096">
<ele>144.338013</ele>
<time>2010-07-18T07:44:04Z</time>
<desc>lat.=55.743069, lon.=26.235096, Alt.=144.338013m. Speed=10.836000m/h.</desc>
<speed>3.010000</speed>
</trkpt>
<trkpt lat="55.743053" lon="26.235136">
<ele>144.154419</ele>
<time>2010-07-18T07:44:05Z</time>
<desc>lat.=55.743053, lon.=26.235136, Alt.=144.154419m. Speed=11.304000m/h.</desc>
<speed>3.140000</speed>
</trkpt>
<trkpt lat="55.743034" lon="26.235170">
<ele>144.017700</ele>
<time>2010-07-18T07:44:06Z</time>
<desc>lat.=55.743034, lon.=26.235170, Alt.=144.017700m. Speed=10.044000m/h.</desc>
<speed>2.790000</speed>
</trkpt>
<trkpt lat="55.743019" lon="26.235209">
<ele>143.486450</ele>
<time>2010-07-18T07:44:07Z</time>
<desc>lat.=55.743019, lon.=26.235209, Alt.=143.486450m. Speed=10.224000m/h.</desc>
<speed>2.840000</speed>
</trkpt>
<trkpt lat="55.743000" lon="26.235245">
<ele>143.009888</ele>
<time>2010-07-18T07:44:08Z</time>
<desc>lat.=55.743000, lon.=26.235245, Alt.=143.009888m. Speed=11.196000m/h.</desc>
<speed>3.110000</speed>
</trkpt>
<trkpt lat="55.742989" lon="26.235277">
<ele>142.658325</ele>
<time>2010-07-18T07:44:09Z</time>
<desc>lat.=55.742989, lon.=26.235277, Alt.=142.658325m. Speed=10.404000m/h.</desc>
<speed>2.890000</speed>
</trkpt>
<trkpt lat="55.742977" lon="26.235310">
<ele>142.400513</ele>
<time>2010-07-18T07:44:10Z</time>
<desc>lat.=55.742977, lon.=26.235310, Alt.=142.400513m. Speed=9.828000m/h.</desc>
<speed>2.730000</speed>
</trkpt>
<trkpt lat="55.742950" lon="26.235367">
<ele>140.861450</ele>
<time>2010-07-18T07:44:11Z</time>
<desc>lat.=55.742950, lon.=26.235367, Alt.=140.861450m. Speed=10.620000m/h.</desc>
<speed>2.950000</speed>
</trkpt>
<trkpt lat="55.742931" lon="26.235405">
<ele>139.955200</ele>
<time>2010-07-18T07:44:12Z</time>
<desc>lat.=55.742931, lon.=26.235405, Alt.=139.955200m. Speed=10.836000m/h.</desc>
<speed>3.010000</speed>
</trkpt>
<trkpt lat="55.742901" lon="26.235456">
<ele>139.322388</ele>
<time>2010-07-18T07:44:13Z</time>
<desc>lat.=55.742901, lon.=26.235456, Alt.=139.322388m. Speed=7.092000m/h.</desc>
<speed>1.970000</speed>
</trkpt>
<trkpt lat="55.742886" lon="26.235485">
<ele>139.408325</ele>
<time>2010-07-18T07:44:14Z</time>
<desc>lat.=55.742886, lon.=26.235485, Alt.=139.408325m. Speed=5.220000m/h.</desc>
<speed>1.450000</speed>
</trkpt>
<trkpt lat="55.742874" lon="26.235519">
<ele>138.853638</ele>
<time>2010-07-18T07:44:15Z</time>
<desc>lat.=55.742874, lon.=26.235519, Alt.=138.853638m. Speed=8.604000m/h.</desc>
<speed>2.390000</speed>
</trkpt>
<trkpt lat="55.742859" lon="26.235544">
<ele>138.752075</ele>
<time>2010-07-18T07:44:16Z</time>
<desc>lat.=55.742859, lon.=26.235544, Alt.=138.752075m. Speed=7.344000m/h.</desc>
<speed>2.040000</speed>
</trkpt>
<trkpt lat="55.742844" lon="26.235571">
<ele>138.666138</ele>
<time>2010-07-18T07:44:17Z</time>
<desc>lat.=55.742844, lon.=26.235571, Alt.=138.666138m. Speed=9.000000m/h.</desc>
<speed>2.500000</speed>
</trkpt>
<trkpt lat="55.742828" lon="26.235600">
<ele>137.884888</ele>
<time>2010-07-18T07:44:18Z</time>
<desc>lat.=55.742828, lon.=26.235600, Alt.=137.884888m. Speed=9.108000m/h.</desc>
<speed>2.530000</speed>
</trkpt>
<trkpt lat="55.742813" lon="26.235651">
<ele>137.861450</ele>
<time>2010-07-18T07:44:19Z</time>
<desc>lat.=55.742813, lon.=26.235651, Alt.=137.861450m. Speed=9.864000m/h.</desc>
<speed>2.740000</speed>
</trkpt>
<trkpt lat="55.742783" lon="26.235714">
<ele>136.830200</ele>
<time>2010-07-18T07:44:20Z</time>
<desc>lat.=55.742783, lon.=26.235714, Alt.=136.830200m. Speed=10.620000m/h.</desc>
<speed>2.950000</speed>
</trkpt>
<trkpt lat="55.742764" lon="26.235752">
<ele>136.361450</ele>
<time>2010-07-18T07:44:21Z</time>
<desc>lat.=55.742764, lon.=26.235752, Alt.=136.361450m. Speed=9.576000m/h.</desc>
<speed>2.660000</speed>
</trkpt>
<trkpt lat="55.742748" lon="26.235783">
<ele>136.162231</ele>
<time>2010-07-18T07:44:22Z</time>
<desc>lat.=55.742748, lon.=26.235783, Alt.=136.162231m. Speed=8.064000m/h.</desc>
<speed>2.240000</speed>
</trkpt>
<trkpt lat="55.742729" lon="26.235819">
<ele>136.334106</ele>
<time>2010-07-18T07:44:23Z</time>
<desc>lat.=55.742729, lon.=26.235819, Alt.=136.334106m. Speed=9.756000m/h.</desc>
<speed>2.710000</speed>
</trkpt>
<trkpt lat="55.742695" lon="26.235889">
<ele>136.877075</ele>
<time>2010-07-18T07:44:24Z</time>
<desc>lat.=55.742695, lon.=26.235889, Alt.=136.877075m. Speed=12.528000m/h.</desc>
<speed>3.480000</speed>
</trkpt>
<trkpt lat="55.742676" lon="26.235931">
<ele>136.494263</ele>
<time>2010-07-18T07:44:25Z</time>
<desc>lat.=55.742676, lon.=26.235931, Alt.=136.494263m. Speed=12.456000m/h.</desc>
<speed>3.460000</speed>
</trkpt>
<trkpt lat="55.742645" lon="26.235985">
<ele>135.435669</ele>
<time>2010-07-18T07:44:26Z</time>
<desc>lat.=55.742645, lon.=26.235985, Alt.=135.435669m. Speed=11.988000m/h.</desc>
<speed>3.330000</speed>
</trkpt>
<trkpt lat="55.742615" lon="26.236044">
<ele>134.779419</ele>
<time>2010-07-18T07:44:27Z</time>
<desc>lat.=55.742615, lon.=26.236044, Alt.=134.779419m. Speed=14.148000m/h.</desc>
<speed>3.930000</speed>
</trkpt>
<trkpt lat="55.742588" lon="26.236103">
<ele>134.560669</ele>
<time>2010-07-18T07:44:28Z</time>
<desc>lat.=55.742588, lon.=26.236103, Alt.=134.560669m. Speed=15.516000m/h.</desc>
<speed>4.310000</speed>
</trkpt>
<trkpt lat="55.742565" lon="26.236158">
<ele>134.275513</ele>
<time>2010-07-18T07:44:29Z</time>
<desc>lat.=55.742565, lon.=26.236158, Alt.=134.275513m. Speed=13.860000m/h.</desc>
<speed>3.850000</speed>
</trkpt>
<trkpt lat="55.742542" lon="26.236206">
<ele>133.841919</ele>
<time>2010-07-18T07:44:30Z</time>
<desc>lat.=55.742542, lon.=26.236206, Alt.=133.841919m. Speed=11.952000m/h.</desc>
<speed>3.320000</speed>
</trkpt>
<trkpt lat="55.742527" lon="26.236250">
<ele>133.427856</ele>
<time>2010-07-18T07:44:31Z</time>
<desc>lat.=55.742527, lon.=26.236250, Alt.=133.427856m. Speed=10.944000m/h.</desc>
<speed>3.040000</speed>
</trkpt>
<trkpt lat="55.742504" lon="26.236296">
<ele>133.576294</ele>
<time>2010-07-18T07:44:32Z</time>
<desc>lat.=55.742504, lon.=26.236296, Alt.=133.576294m. Speed=12.528000m/h.</desc>
<speed>3.480000</speed>
</trkpt>
<trkpt lat="55.742481" lon="26.236349">
<ele>133.017700</ele>
<time>2010-07-18T07:44:33Z</time>
<desc>lat.=55.742481, lon.=26.236349, Alt.=133.017700m. Speed=13.356000m/h.</desc>
<speed>3.710000</speed>
</trkpt>
<trkpt lat="55.742458" lon="26.236391">
<ele>133.045044</ele>
<time>2010-07-18T07:44:34Z</time>
<desc>lat.=55.742458, lon.=26.236391, Alt.=133.045044m. Speed=11.088000m/h.</desc>
<speed>3.080000</speed>
</trkpt>
<trkpt lat="55.742451" lon="26.236427">
<ele>133.232544</ele>
<time>2010-07-18T07:44:35Z</time>
<desc>lat.=55.742451, lon.=26.236427, Alt.=133.232544m. Speed=7.344000m/h.</desc>
<speed>2.040000</speed>
</trkpt>
<trkpt lat="55.742428" lon="26.236502">
<ele>135.295044</ele>
<time>2010-07-18T07:44:36Z</time>
<desc>lat.=55.742428, lon.=26.236502, Alt.=135.295044m. Speed=11.196000m/h.</desc>
<speed>3.110000</speed>
</trkpt>
<trkpt lat="55.742413" lon="26.236540">
<ele>135.486450</ele>
<time>2010-07-18T07:44:37Z</time>
<desc>lat.=55.742413, lon.=26.236540, Alt.=135.486450m. Speed=10.368000m/h.</desc>
<speed>2.880000</speed>
</trkpt>
<trkpt lat="55.742393" lon="26.236582">
<ele>136.607544</ele>
<time>2010-07-18T07:44:38Z</time>
<desc>lat.=55.742393, lon.=26.236582, Alt.=136.607544m. Speed=11.304000m/h.</desc>
<speed>3.140000</speed>
</trkpt>
<trkpt lat="55.742378" lon="26.236614">
<ele>137.357544</ele>
<time>2010-07-18T07:44:39Z</time>
<desc>lat.=55.742378, lon.=26.236614, Alt.=137.357544m. Speed=8.964000m/h.</desc>
<speed>2.490000</speed>
</trkpt>
<trkpt lat="55.742352" lon="26.236658">
<ele>136.673950</ele>
<time>2010-07-18T07:44:40Z</time>
<desc>lat.=55.742352, lon.=26.236658, Alt.=136.673950m. Speed=10.116000m/h.</desc>
<speed>2.810000</speed>
</trkpt>
<trkpt lat="55.742329" lon="26.236702">
<ele>136.216919</ele>
<time>2010-07-18T07:44:41Z</time>
<desc>lat.=55.742329, lon.=26.236702, Alt.=136.216919m. Speed=12.924000m/h.</desc>
<speed>3.590000</speed>
</trkpt>
<trkpt lat="55.742310" lon="26.236761">
<ele>135.611450</ele>
<time>2010-07-18T07:44:42Z</time>
<desc>lat.=55.742310, lon.=26.236761, Alt.=135.611450m. Speed=12.924000m/h.</desc>
<speed>3.590000</speed>
</trkpt>
<trkpt lat="55.742287" lon="26.236822">
<ele>134.806763</ele>
<time>2010-07-18T07:44:43Z</time>
<desc>lat.=55.742287, lon.=26.236822, Alt.=134.806763m. Speed=12.888000m/h.</desc>
<speed>3.580000</speed>
</trkpt>
<trkpt lat="55.742268" lon="26.236872">
<ele>134.673950</ele>
<time>2010-07-18T07:44:44Z</time>
<desc>lat.=55.742268, lon.=26.236872, Alt.=134.673950m. Speed=9.360000m/h.</desc>
<speed>2.600000</speed>
</trkpt>
<trkpt lat="55.742252" lon="26.236906">
<ele>133.990356</ele>
<time>2010-07-18T07:44:45Z</time>
<desc>lat.=55.742252, lon.=26.236906, Alt.=133.990356m. Speed=9.216000m/h.</desc>
<speed>2.560000</speed>
</trkpt>
<trkpt lat="55.742233" lon="26.236938">
<ele>131.623169</ele>
<time>2010-07-18T07:44:46Z</time>
<desc>lat.=55.742233, lon.=26.236938, Alt.=131.623169m. Speed=9.864000m/h.</desc>
<speed>2.740000</speed>
</trkpt>
<trkpt lat="55.742218" lon="26.236994">
<ele>131.412231</ele>
<time>2010-07-18T07:44:47Z</time>
<desc>lat.=55.742218, lon.=26.236994, Alt.=131.412231m. Speed=11.412000m/h.</desc>
<speed>3.170000</speed>
</trkpt>
<trkpt lat="55.742191" lon="26.237076">
<ele>132.412231</ele>
<time>2010-07-18T07:44:48Z</time>
<desc>lat.=55.742191, lon.=26.237076, Alt.=132.412231m. Speed=14.292000m/h.</desc>
<speed>3.970000</speed>
</trkpt>
<trkpt lat="55.742172" lon="26.237137">
<ele>132.572388</ele>
<time>2010-07-18T07:44:49Z</time>
<desc>lat.=55.742172, lon.=26.237137, Alt.=132.572388m. Speed=12.816000m/h.</desc>
<speed>3.560000</speed>
</trkpt>
<trkpt lat="55.742149" lon="26.237207">
<ele>133.025513</ele>
<time>2010-07-18T07:44:50Z</time>
<desc>lat.=55.742149, lon.=26.237207, Alt.=133.025513m. Speed=12.996000m/h.</desc>
<speed>3.610000</speed>
</trkpt>
<trkpt lat="55.742134" lon="26.237255">
<ele>132.748169</ele>
<time>2010-07-18T07:44:51Z</time>
<desc>lat.=55.742134, lon.=26.237255, Alt.=132.748169m. Speed=12.420000m/h.</desc>
<speed>3.450000</speed>
</trkpt>
<trkpt lat="55.742111" lon="26.237366">
<ele>135.466919</ele>
<time>2010-07-18T07:44:52Z</time>
<desc>lat.=55.742111, lon.=26.237366, Alt.=135.466919m. Speed=10.476000m/h.</desc>
<speed>2.910000</speed>
</trkpt>
<trkpt lat="55.742096" lon="26.237434">
<ele>137.025513</ele>
<time>2010-07-18T07:44:53Z</time>
<desc>lat.=55.742096, lon.=26.237434, Alt.=137.025513m. Speed=8.568000m/h.</desc>
<speed>2.380000</speed>
</trkpt>
<trkpt lat="55.742085" lon="26.237503">
<ele>139.138794</ele>
<time>2010-07-18T07:44:54Z</time>
<desc>lat.=55.742085, lon.=26.237503, Alt.=139.138794m. Speed=8.892000m/h.</desc>
<speed>2.470000</speed>
</trkpt>
<trkpt lat="55.742073" lon="26.237539">
<ele>139.748169</ele>
<time>2010-07-18T07:44:55Z</time>
<desc>lat.=55.742073, lon.=26.237539, Alt.=139.748169m. Speed=7.524000m/h.</desc>
<speed>2.090000</speed>
</trkpt>
<trkpt lat="55.742058" lon="26.237591">
<ele>141.084106</ele>
<time>2010-07-18T07:44:56Z</time>
<desc>lat.=55.742058, lon.=26.237591, Alt.=141.084106m. Speed=8.784000m/h.</desc>
<speed>2.440000</speed>
</trkpt>
<trkpt lat="55.742043" lon="26.237644">
<ele>141.795044</ele>
<time>2010-07-18T07:44:57Z</time>
<desc>lat.=55.742043, lon.=26.237644, Alt.=141.795044m. Speed=10.116000m/h.</desc>
<speed>2.810000</speed>
</trkpt>
<trkpt lat="55.742020" lon="26.237701">
<ele>142.013794</ele>
<time>2010-07-18T07:44:58Z</time>
<desc>lat.=55.742020, lon.=26.237701, Alt.=142.013794m. Speed=13.428000m/h.</desc>
<speed>3.730000</speed>
</trkpt>
<trkpt lat="55.741997" lon="26.237753">
<ele>141.978638</ele>
<time>2010-07-18T07:44:59Z</time>
<desc>lat.=55.741997, lon.=26.237753, Alt.=141.978638m. Speed=12.276000m/h.</desc>
<speed>3.410000</speed>
</trkpt>
<trkpt lat="55.741978" lon="26.237799">
<ele>141.326294</ele>
<time>2010-07-18T07:45:00Z</time>
<desc>lat.=55.741978, lon.=26.237799, Alt.=141.326294m. Speed=12.564000m/h.</desc>
<speed>3.490000</speed>
</trkpt>
<trkpt lat="55.741955" lon="26.237850">
<ele>140.431763</ele>
<time>2010-07-18T07:45:01Z</time>
<desc>lat.=55.741955, lon.=26.237850, Alt.=140.431763m. Speed=11.916000m/h.</desc>
<speed>3.310000</speed>
</trkpt>
<trkpt lat="55.741936" lon="26.237907">
<ele>139.755981</ele>
<time>2010-07-18T07:45:02Z</time>
<desc>lat.=55.741936, lon.=26.237907, Alt.=139.755981m. Speed=13.140000m/h.</desc>
<speed>3.650000</speed>
</trkpt>
<trkpt lat="55.741920" lon="26.237982">
<ele>138.091919</ele>
<time>2010-07-18T07:45:03Z</time>
<desc>lat.=55.741920, lon.=26.237982, Alt.=138.091919m. Speed=14.076000m/h.</desc>
<speed>3.910000</speed>
</trkpt>
<trkpt lat="55.741905" lon="26.238035">
<ele>136.951294</ele>
<time>2010-07-18T07:45:04Z</time>
<desc>lat.=55.741905, lon.=26.238035, Alt.=136.951294m. Speed=13.248000m/h.</desc>
<speed>3.680000</speed>
</trkpt>
<trkpt lat="55.741886" lon="26.238085">
<ele>136.900513</ele>
<time>2010-07-18T07:45:05Z</time>
<desc>lat.=55.741886, lon.=26.238085, Alt.=136.900513m. Speed=11.556000m/h.</desc>
<speed>3.210000</speed>
</trkpt>
<trkpt lat="55.741871" lon="26.238140">
<ele>137.306763</ele>
<time>2010-07-18T07:45:06Z</time>
<desc>lat.=55.741871, lon.=26.238140, Alt.=137.306763m. Speed=11.340000m/h.</desc>
<speed>3.150000</speed>
</trkpt>
<trkpt lat="55.741848" lon="26.238194">
<ele>137.517700</ele>
<time>2010-07-18T07:45:07Z</time>
<desc>lat.=55.741848, lon.=26.238194, Alt.=137.517700m. Speed=13.176000m/h.</desc>
<speed>3.660000</speed>
</trkpt>
<trkpt lat="55.741825" lon="26.238249">
<ele>137.388794</ele>
<time>2010-07-18T07:45:08Z</time>
<desc>lat.=55.741825, lon.=26.238249, Alt.=137.388794m. Speed=11.844000m/h.</desc>
<speed>3.290000</speed>
</trkpt>
<trkpt lat="55.741810" lon="26.238327">
<ele>138.068481</ele>
<time>2010-07-18T07:45:09Z</time>
<desc>lat.=55.741810, lon.=26.238327, Alt.=138.068481m. Speed=15.300000m/h.</desc>
<speed>4.250000</speed>
</trkpt>
<trkpt lat="55.741791" lon="26.238396">
<ele>138.408325</ele>
<time>2010-07-18T07:45:10Z</time>
<desc>lat.=55.741791, lon.=26.238396, Alt.=138.408325m. Speed=15.696000m/h.</desc>
<speed>4.360000</speed>
</trkpt>
<trkpt lat="55.741764" lon="26.238474">
<ele>137.834106</ele>
<time>2010-07-18T07:45:11Z</time>
<desc>lat.=55.741764, lon.=26.238474, Alt.=137.834106m. Speed=16.559999m/h.</desc>
<speed>4.600000</speed>
</trkpt>
<trkpt lat="55.741741" lon="26.238544">
<ele>138.599731</ele>
<time>2010-07-18T07:45:12Z</time>
<desc>lat.=55.741741, lon.=26.238544, Alt.=138.599731m. Speed=15.048000m/h.</desc>
<speed>4.180000</speed>
</trkpt>
<trkpt lat="55.741726" lon="26.238615">
<ele>138.548950</ele>
<time>2010-07-18T07:45:13Z</time>
<desc>lat.=55.741726, lon.=26.238615, Alt.=138.548950m. Speed=13.788000m/h.</desc>
<speed>3.830000</speed>
</trkpt>
<trkpt lat="55.741699" lon="26.238686">
<ele>138.779419</ele>
<time>2010-07-18T07:45:14Z</time>
<desc>lat.=55.741699, lon.=26.238686, Alt.=138.779419m. Speed=15.228000m/h.</desc>
<speed>4.230000</speed>
</trkpt>
<trkpt lat="55.741680" lon="26.238739">
<ele>139.130981</ele>
<time>2010-07-18T07:45:15Z</time>
<desc>lat.=55.741680, lon.=26.238739, Alt.=139.130981m. Speed=12.888000m/h.</desc>
<speed>3.580000</speed>
</trkpt>
<trkpt lat="55.741653" lon="26.238800">
<ele>139.017700</ele>
<time>2010-07-18T07:45:16Z</time>
<desc>lat.=55.741653, lon.=26.238800, Alt.=139.017700m. Speed=16.164000m/h.</desc>
<speed>4.490000</speed>
</trkpt>
<trkpt lat="55.741631" lon="26.238857">
<ele>139.470825</ele>
<time>2010-07-18T07:45:17Z</time>
<desc>lat.=55.741631, lon.=26.238857, Alt.=139.470825m. Speed=14.400000m/h.</desc>
<speed>4.000000</speed>
</trkpt>
<trkpt lat="55.741596" lon="26.238914">
<ele>138.490356</ele>
<time>2010-07-18T07:45:18Z</time>
<desc>lat.=55.741596, lon.=26.238914, Alt.=138.490356m. Speed=16.416000m/h.</desc>
<speed>4.560000</speed>
</trkpt>
<trkpt lat="55.741573" lon="26.238962">
<ele>137.845825</ele>
<time>2010-07-18T07:45:19Z</time>
<desc>lat.=55.741573, lon.=26.238962, Alt.=137.845825m. Speed=14.832000m/h.</desc>
<speed>4.120000</speed>
</trkpt>
<trkpt lat="55.741550" lon="26.239014">
<ele>136.584106</ele>
<time>2010-07-18T07:45:20Z</time>
<desc>lat.=55.741550, lon.=26.239014, Alt.=136.584106m. Speed=15.948000m/h.</desc>
<speed>4.430000</speed>
</trkpt>
<trkpt lat="55.741524" lon="26.239065">
<ele>135.775513</ele>
<time>2010-07-18T07:45:21Z</time>
<desc>lat.=55.741524, lon.=26.239065, Alt.=135.775513m. Speed=14.040000m/h.</desc>
<speed>3.900000</speed>
</trkpt>
<trkpt lat="55.741493" lon="26.239126">
<ele>135.568481</ele>
<time>2010-07-18T07:45:22Z</time>
<desc>lat.=55.741493, lon.=26.239126, Alt.=135.568481m. Speed=14.940000m/h.</desc>
<speed>4.150000</speed>
</trkpt>
<trkpt lat="55.741470" lon="26.239183">
<ele>135.404419</ele>
<time>2010-07-18T07:45:23Z</time>
<desc>lat.=55.741470, lon.=26.239183, Alt.=135.404419m. Speed=13.356000m/h.</desc>
<speed>3.710000</speed>
</trkpt>
<trkpt lat="55.741451" lon="26.239241">
<ele>134.923950</ele>
<time>2010-07-18T07:45:24Z</time>
<desc>lat.=55.741451, lon.=26.239241, Alt.=134.923950m. Speed=14.040000m/h.</desc>
<speed>3.900000</speed>
</trkpt>
<trkpt lat="55.741436" lon="26.239305">
<ele>135.091919</ele>
<time>2010-07-18T07:45:25Z</time>
<desc>lat.=55.741436, lon.=26.239305, Alt.=135.091919m. Speed=14.364000m/h.</desc>
<speed>3.990000</speed>
</trkpt>
<trkpt lat="55.741417" lon="26.239367">
<ele>135.111450</ele>
<time>2010-07-18T07:45:26Z</time>
<desc>lat.=55.741417, lon.=26.239367, Alt.=135.111450m. Speed=13.752000m/h.</desc>
<speed>3.820000</speed>
</trkpt>
<trkpt lat="55.741398" lon="26.239429">
<ele>135.263794</ele>
<time>2010-07-18T07:45:27Z</time>
<desc>lat.=55.741398, lon.=26.239429, Alt.=135.263794m. Speed=14.076000m/h.</desc>
<speed>3.910000</speed>
</trkpt>
<trkpt lat="55.741383" lon="26.239496">
<ele>136.041138</ele>
<time>2010-07-18T07:45:28Z</time>
<desc>lat.=55.741383, lon.=26.239496, Alt.=136.041138m. Speed=13.608000m/h.</desc>
<speed>3.780000</speed>
</trkpt>
<trkpt lat="55.741375" lon="26.239565">
<ele>135.861450</ele>
<time>2010-07-18T07:45:29Z</time>
<desc>lat.=55.741375, lon.=26.239565, Alt.=135.861450m. Speed=12.420000m/h.</desc>
<speed>3.450000</speed>
</trkpt>
<trkpt lat="55.741356" lon="26.239628">
<ele>135.119263</ele>
<time>2010-07-18T07:45:30Z</time>
<desc>lat.=55.741356, lon.=26.239628, Alt.=135.119263m. Speed=13.716000m/h.</desc>
<speed>3.810000</speed>
</trkpt>
<trkpt lat="55.741322" lon="26.239716">
<ele>135.611450</ele>
<time>2010-07-18T07:45:31Z</time>
<desc>lat.=55.741322, lon.=26.239716, Alt.=135.611450m. Speed=14.832000m/h.</desc>
<speed>4.120000</speed>
</trkpt>
<trkpt lat="55.741299" lon="26.239786">
<ele>136.115356</ele>
<time>2010-07-18T07:45:32Z</time>
<desc>lat.=55.741299, lon.=26.239786, Alt.=136.115356m. Speed=16.488001m/h.</desc>
<speed>4.580000</speed>
</trkpt>
<trkpt lat="55.741276" lon="26.239861">
<ele>136.888794</ele>
<time>2010-07-18T07:45:33Z</time>
<desc>lat.=55.741276, lon.=26.239861, Alt.=136.888794m. Speed=15.804000m/h.</desc>
<speed>4.390000</speed>
</trkpt>
<trkpt lat="55.741257" lon="26.239933">
<ele>137.224731</ele>
<time>2010-07-18T07:45:34Z</time>
<desc>lat.=55.741257, lon.=26.239933, Alt.=137.224731m. Speed=14.220000m/h.</desc>
<speed>3.950000</speed>
</trkpt>
<trkpt lat="55.741238" lon="26.240000">
<ele>135.912231</ele>
<time>2010-07-18T07:45:35Z</time>
<desc>lat.=55.741238, lon.=26.240000, Alt.=135.912231m. Speed=15.264000m/h.</desc>
<speed>4.240000</speed>
</trkpt>
<trkpt lat="55.741211" lon="26.240074">
<ele>136.037231</ele>
<time>2010-07-18T07:45:36Z</time>
<desc>lat.=55.741211, lon.=26.240074, Alt.=136.037231m. Speed=17.784000m/h.</desc>
<speed>4.940000</speed>
</trkpt>
<trkpt lat="55.741173" lon="26.240187">
<ele>137.369263</ele>
<time>2010-07-18T07:45:37Z</time>
<desc>lat.=55.741173, lon.=26.240187, Alt.=137.369263m. Speed=18.468000m/h.</desc>
<speed>5.130000</speed>
</trkpt>
<trkpt lat="55.741142" lon="26.240284">
<ele>138.295044</ele>
<time>2010-07-18T07:45:38Z</time>
<desc>lat.=55.741142, lon.=26.240284, Alt.=138.295044m. Speed=18.180000m/h.</desc>
<speed>5.050000</speed>
</trkpt>
<trkpt lat="55.741123" lon="26.240366">
<ele>138.189575</ele>
<time>2010-07-18T07:45:39Z</time>
<desc>lat.=55.741123, lon.=26.240366, Alt.=138.189575m. Speed=17.532000m/h.</desc>
<speed>4.870000</speed>
</trkpt>
<trkpt lat="55.741100" lon="26.240435">
<ele>137.931763</ele>
<time>2010-07-18T07:45:40Z</time>
<desc>lat.=55.741100, lon.=26.240435, Alt.=137.931763m. Speed=15.912000m/h.</desc>
<speed>4.420000</speed>
</trkpt>
<trkpt lat="55.741077" lon="26.240498">
<ele>138.170044</ele>
<time>2010-07-18T07:45:41Z</time>
<desc>lat.=55.741077, lon.=26.240498, Alt.=138.170044m. Speed=16.236000m/h.</desc>
<speed>4.510000</speed>
</trkpt>
<trkpt lat="55.741058" lon="26.240561">
<ele>138.119263</ele>
<time>2010-07-18T07:45:42Z</time>
<desc>lat.=55.741058, lon.=26.240561, Alt.=138.119263m. Speed=17.136000m/h.</desc>
<speed>4.760000</speed>
</trkpt>
<trkpt lat="55.741035" lon="26.240622">
<ele>137.435669</ele>
<time>2010-07-18T07:45:43Z</time>
<desc>lat.=55.741035, lon.=26.240622, Alt.=137.435669m. Speed=17.604000m/h.</desc>
<speed>4.890000</speed>
</trkpt>
<trkpt lat="55.741013" lon="26.240692">
<ele>137.084106</ele>
<time>2010-07-18T07:45:44Z</time>
<desc>lat.=55.741013, lon.=26.240692, Alt.=137.084106m. Speed=17.747999m/h.</desc>
<speed>4.930000</speed>
</trkpt>
<trkpt lat="55.740990" lon="26.240757">
<ele>136.838013</ele>
<time>2010-07-18T07:45:45Z</time>
<desc>lat.=55.740990, lon.=26.240757, Alt.=136.838013m. Speed=16.416000m/h.</desc>
<speed>4.560000</speed>
</trkpt>
<trkpt lat="55.740967" lon="26.240833">
<ele>136.384888</ele>
<time>2010-07-18T07:45:46Z</time>
<desc>lat.=55.740967, lon.=26.240833, Alt.=136.384888m. Speed=18.612000m/h.</desc>
<speed>5.170000</speed>
</trkpt>
<trkpt lat="55.740948" lon="26.240913">
<ele>135.834106</ele>
<time>2010-07-18T07:45:47Z</time>
<desc>lat.=55.740948, lon.=26.240913, Alt.=135.834106m. Speed=19.044001m/h.</desc>
<speed>5.290000</speed>
</trkpt>
<trkpt lat="55.740921" lon="26.240986">
<ele>135.673950</ele>
<time>2010-07-18T07:45:48Z</time>
<desc>lat.=55.740921, lon.=26.240986, Alt.=135.673950m. Speed=20.232000m/h.</desc>
<speed>5.620000</speed>
</trkpt>
<trkpt lat="55.740894" lon="26.241060">
<ele>135.959106</ele>
<time>2010-07-18T07:45:49Z</time>
<desc>lat.=55.740894, lon.=26.241060, Alt.=135.959106m. Speed=18.143999m/h.</desc>
<speed>5.040000</speed>
</trkpt>
<trkpt lat="55.740871" lon="26.241137">
<ele>135.759888</ele>
<time>2010-07-18T07:45:50Z</time>
<desc>lat.=55.740871, lon.=26.241137, Alt.=135.759888m. Speed=18.360001m/h.</desc>
<speed>5.100000</speed>
</trkpt>
<trkpt lat="55.740845" lon="26.241194">
<ele>135.213013</ele>
<time>2010-07-18T07:45:51Z</time>
<desc>lat.=55.740845, lon.=26.241194, Alt.=135.213013m. Speed=16.667999m/h.</desc>
<speed>4.630000</speed>
</trkpt>
<trkpt lat="55.740818" lon="26.241241">
<ele>133.963013</ele>
<time>2010-07-18T07:45:52Z</time>
<desc>lat.=55.740818, lon.=26.241241, Alt.=133.963013m. Speed=16.667999m/h.</desc>
<speed>4.630000</speed>
</trkpt>
<trkpt lat="55.740784" lon="26.241312">
<ele>133.853638</ele>
<time>2010-07-18T07:45:53Z</time>
<desc>lat.=55.740784, lon.=26.241312, Alt.=133.853638m. Speed=19.764000m/h.</desc>
<speed>5.490000</speed>
</trkpt>
<trkpt lat="55.740738" lon="26.241390">
<ele>134.033325</ele>
<time>2010-07-18T07:45:54Z</time>
<desc>lat.=55.740738, lon.=26.241390, Alt.=134.033325m. Speed=19.799999m/h.</desc>
<speed>5.500000</speed>
</trkpt>
<trkpt lat="55.740696" lon="26.241478">
<ele>134.943481</ele>
<time>2010-07-18T07:45:55Z</time>
<desc>lat.=55.740696, lon.=26.241478, Alt.=134.943481m. Speed=18.719999m/h.</desc>
<speed>5.200000</speed>
</trkpt>
<trkpt lat="55.740650" lon="26.241547">
<ele>135.349731</ele>
<time>2010-07-18T07:45:56Z</time>
<desc>lat.=55.740650, lon.=26.241547, Alt.=135.349731m. Speed=19.980000m/h.</desc>
<speed>5.550000</speed>
</trkpt>
<trkpt lat="55.740601" lon="26.241619">
<ele>136.177856</ele>
<time>2010-07-18T07:45:57Z</time>
<desc>lat.=55.740601, lon.=26.241619, Alt.=136.177856m. Speed=20.628000m/h.</desc>
<speed>5.730000</speed>
</trkpt>
<trkpt lat="55.740555" lon="26.241682">
<ele>135.892700</ele>
<time>2010-07-18T07:45:58Z</time>
<desc>lat.=55.740555, lon.=26.241682, Alt.=135.892700m. Speed=20.879999m/h.</desc>
<speed>5.800000</speed>
</trkpt>
<trkpt lat="55.740513" lon="26.241728">
<ele>135.119263</ele>
<time>2010-07-18T07:45:59Z</time>
<desc>lat.=55.740513, lon.=26.241728, Alt.=135.119263m. Speed=19.260000m/h.</desc>
<speed>5.350000</speed>
</trkpt>
<trkpt lat="55.740467" lon="26.241783">
<ele>135.185669</ele>
<time>2010-07-18T07:46:00Z</time>
<desc>lat.=55.740467, lon.=26.241783, Alt.=135.185669m. Speed=20.124001m/h.</desc>
<speed>5.590000</speed>
</trkpt>
<trkpt lat="55.740429" lon="26.241838">
<ele>135.998169</ele>
<time>2010-07-18T07:46:01Z</time>
<desc>lat.=55.740429, lon.=26.241838, Alt.=135.998169m. Speed=18.936001m/h.</desc>
<speed>5.260000</speed>
</trkpt>
<trkpt lat="55.740387" lon="26.241888">
<ele>137.529419</ele>
<time>2010-07-18T07:46:02Z</time>
<desc>lat.=55.740387, lon.=26.241888, Alt.=137.529419m. Speed=17.388000m/h.</desc>
<speed>4.830000</speed>
</trkpt>
<trkpt lat="55.740349" lon="26.241934">
<ele>138.795044</ele>
<time>2010-07-18T07:46:03Z</time>
<desc>lat.=55.740349, lon.=26.241934, Alt.=138.795044m. Speed=18.216000m/h.</desc>
<speed>5.060000</speed>
</trkpt>
<trkpt lat="55.740307" lon="26.241978">
<ele>139.814575</ele>
<time>2010-07-18T07:46:04Z</time>
<desc>lat.=55.740307, lon.=26.241978, Alt.=139.814575m. Speed=17.927999m/h.</desc>
<speed>4.980000</speed>
</trkpt>
<trkpt lat="55.740273" lon="26.242018">
<ele>140.154419</ele>
<time>2010-07-18T07:46:05Z</time>
<desc>lat.=55.740273, lon.=26.242018, Alt.=140.154419m. Speed=17.172001m/h.</desc>
<speed>4.770000</speed>
</trkpt>
<trkpt lat="55.740234" lon="26.242050">
<ele>140.072388</ele>
<time>2010-07-18T07:46:06Z</time>
<desc>lat.=55.740234, lon.=26.242050, Alt.=140.072388m. Speed=16.884001m/h.</desc>
<speed>4.690000</speed>
</trkpt>
<trkpt lat="55.740200" lon="26.242088">
<ele>140.720825</ele>
<time>2010-07-18T07:46:07Z</time>
<desc>lat.=55.740200, lon.=26.242088, Alt.=140.720825m. Speed=15.300000m/h.</desc>
<speed>4.250000</speed>
</trkpt>
<trkpt lat="55.740170" lon="26.242132">
<ele>141.041138</ele>
<time>2010-07-18T07:46:08Z</time>
<desc>lat.=55.740170, lon.=26.242132, Alt.=141.041138m. Speed=14.364000m/h.</desc>
<speed>3.990000</speed>
</trkpt>
<trkpt lat="55.740131" lon="26.242167">
<ele>141.029419</ele>
<time>2010-07-18T07:46:09Z</time>
<desc>lat.=55.740131, lon.=26.242167, Alt.=141.029419m. Speed=17.388000m/h.</desc>
<speed>4.830000</speed>
</trkpt>
<trkpt lat="55.740097" lon="26.242212">
<ele>140.572388</ele>
<time>2010-07-18T07:46:10Z</time>
<desc>lat.=55.740097, lon.=26.242212, Alt.=140.572388m. Speed=15.192000m/h.</desc>
<speed>4.220000</speed>
</trkpt>
<trkpt lat="55.740067" lon="26.242247">
<ele>140.744263</ele>
<time>2010-07-18T07:46:11Z</time>
<desc>lat.=55.740067, lon.=26.242247, Alt.=140.744263m. Speed=14.040000m/h.</desc>
<speed>3.900000</speed>
</trkpt>
<trkpt lat="55.740044" lon="26.242275">
<ele>141.287231</ele>
<time>2010-07-18T07:46:12Z</time>
<desc>lat.=55.740044, lon.=26.242275, Alt.=141.287231m. Speed=10.872000m/h.</desc>
<speed>3.020000</speed>
</trkpt>
<trkpt lat="55.740013" lon="26.242311">
<ele>142.713013</ele>
<time>2010-07-18T07:46:13Z</time>
<desc>lat.=55.740013, lon.=26.242311, Alt.=142.713013m. Speed=13.860000m/h.</desc>
<speed>3.850000</speed>
</trkpt>
<trkpt lat="55.739983" lon="26.242340">
<ele>143.677856</ele>
<time>2010-07-18T07:46:14Z</time>
<desc>lat.=55.739983, lon.=26.242340, Alt.=143.677856m. Speed=14.004000m/h.</desc>
<speed>3.890000</speed>
</trkpt>
<trkpt lat="55.739948" lon="26.242376">
<ele>144.068481</ele>
<time>2010-07-18T07:46:15Z</time>
<desc>lat.=55.739948, lon.=26.242376, Alt.=144.068481m. Speed=15.948000m/h.</desc>
<speed>4.430000</speed>
</trkpt>
<trkpt lat="55.739918" lon="26.242420">
<ele>144.630981</ele>
<time>2010-07-18T07:46:16Z</time>
<desc>lat.=55.739918, lon.=26.242420, Alt.=144.630981m. Speed=12.960000m/h.</desc>
<speed>3.600000</speed>
</trkpt>
<trkpt lat="55.739883" lon="26.242455">
<ele>144.177856</ele>
<time>2010-07-18T07:46:17Z</time>
<desc>lat.=55.739883, lon.=26.242455, Alt.=144.177856m. Speed=14.364000m/h.</desc>
<speed>3.990000</speed>
</trkpt>
<trkpt lat="55.739849" lon="26.242487">
<ele>144.115356</ele>
<time>2010-07-18T07:46:18Z</time>
<desc>lat.=55.739849, lon.=26.242487, Alt.=144.115356m. Speed=14.724000m/h.</desc>
<speed>4.090000</speed>
</trkpt>
<trkpt lat="55.739819" lon="26.242519">
<ele>144.818481</ele>
<time>2010-07-18T07:46:19Z</time>
<desc>lat.=55.739819, lon.=26.242519, Alt.=144.818481m. Speed=14.472000m/h.</desc>
<speed>4.020000</speed>
</trkpt>
<trkpt lat="55.739788" lon="26.242556">
<ele>145.576294</ele>
<time>2010-07-18T07:46:20Z</time>
<desc>lat.=55.739788, lon.=26.242556, Alt.=145.576294m. Speed=14.076000m/h.</desc>
<speed>3.910000</speed>
</trkpt>
<trkpt lat="55.739761" lon="26.242594">
<ele>146.580200</ele>
<time>2010-07-18T07:46:21Z</time>
<desc>lat.=55.739761, lon.=26.242594, Alt.=146.580200m. Speed=13.464000m/h.</desc>
<speed>3.740000</speed>
</trkpt>
<trkpt lat="55.739735" lon="26.242624">
<ele>146.517700</ele>
<time>2010-07-18T07:46:22Z</time>
<desc>lat.=55.739735, lon.=26.242624, Alt.=146.517700m. Speed=12.816000m/h.</desc>
<speed>3.560000</speed>
</trkpt>
<trkpt lat="55.739704" lon="26.242655">
<ele>147.134888</ele>
<time>2010-07-18T07:46:23Z</time>
<desc>lat.=55.739704, lon.=26.242655, Alt.=147.134888m. Speed=14.832000m/h.</desc>
<speed>4.120000</speed>
</trkpt>
<trkpt lat="55.739666" lon="26.242693">
<ele>146.744263</ele>
<time>2010-07-18T07:46:24Z</time>
<desc>lat.=55.739666, lon.=26.242693, Alt.=146.744263m. Speed=15.516000m/h.</desc>
<speed>4.310000</speed>
</trkpt>
<trkpt lat="55.739639" lon="26.242729">
<ele>147.119263</ele>
<time>2010-07-18T07:46:25Z</time>
<desc>lat.=55.739639, lon.=26.242729, Alt.=147.119263m. Speed=14.472000m/h.</desc>
<speed>4.020000</speed>
</trkpt>
<trkpt lat="55.739609" lon="26.242771">
<ele>147.513794</ele>
<time>2010-07-18T07:46:26Z</time>
<desc>lat.=55.739609, lon.=26.242771, Alt.=147.513794m. Speed=12.276000m/h.</desc>
<speed>3.410000</speed>
</trkpt>
<trkpt lat="55.739574" lon="26.242800">
<ele>147.119263</ele>
<time>2010-07-18T07:46:27Z</time>
<desc>lat.=55.739574, lon.=26.242800, Alt.=147.119263m. Speed=11.520000m/h.</desc>
<speed>3.200000</speed>
</trkpt>
<trkpt lat="55.739548" lon="26.242825">
<ele>147.341919</ele>
<time>2010-07-18T07:46:28Z</time>
<desc>lat.=55.739548, lon.=26.242825, Alt.=147.341919m. Speed=12.060000m/h.</desc>
<speed>3.350000</speed>
</trkpt>
<trkpt lat="55.739513" lon="26.242853">
<ele>147.767700</ele>
<time>2010-07-18T07:46:29Z</time>
<desc>lat.=55.739513, lon.=26.242853, Alt.=147.767700m. Speed=13.716000m/h.</desc>
<speed>3.810000</speed>
</trkpt>
<trkpt lat="55.739483" lon="26.242889">
<ele>148.541138</ele>
<time>2010-07-18T07:46:30Z</time>
<desc>lat.=55.739483, lon.=26.242889, Alt.=148.541138m. Speed=13.644000m/h.</desc>
<speed>3.790000</speed>
</trkpt>
<trkpt lat="55.739452" lon="26.242924">
<ele>148.130981</ele>
<time>2010-07-18T07:46:31Z</time>
<desc>lat.=55.739452, lon.=26.242924, Alt.=148.130981m. Speed=15.660000m/h.</desc>
<speed>4.350000</speed>
</trkpt>
<trkpt lat="55.739418" lon="26.242956">
<ele>147.459106</ele>
<time>2010-07-18T07:46:32Z</time>
<desc>lat.=55.739418, lon.=26.242956, Alt.=147.459106m. Speed=14.472000m/h.</desc>
<speed>4.020000</speed>
</trkpt>
<trkpt lat="55.739384" lon="26.242987">
<ele>147.791138</ele>
<time>2010-07-18T07:46:33Z</time>
<desc>lat.=55.739384, lon.=26.242987, Alt.=147.791138m. Speed=14.148000m/h.</desc>
<speed>3.930000</speed>
</trkpt>
<trkpt lat="55.739353" lon="26.243010">
<ele>147.482544</ele>
<time>2010-07-18T07:46:34Z</time>
<desc>lat.=55.739353, lon.=26.243010, Alt.=147.482544m. Speed=13.248000m/h.</desc>
<speed>3.680000</speed>
</trkpt>
<trkpt lat="55.739323" lon="26.243048">
<ele>147.752075</ele>
<time>2010-07-18T07:46:35Z</time>
<desc>lat.=55.739323, lon.=26.243048, Alt.=147.752075m. Speed=13.392000m/h.</desc>
<speed>3.720000</speed>
</trkpt>
<trkpt lat="55.739292" lon="26.243080">
<ele>147.588013</ele>
<time>2010-07-18T07:46:36Z</time>
<desc>lat.=55.739292, lon.=26.243080, Alt.=147.588013m. Speed=12.924000m/h.</desc>
<speed>3.590000</speed>
</trkpt>
<trkpt lat="55.739262" lon="26.243116">
<ele>148.283325</ele>
<time>2010-07-18T07:46:37Z</time>
<desc>lat.=55.739262, lon.=26.243116, Alt.=148.283325m. Speed=13.284000m/h.</desc>
<speed>3.690000</speed>
</trkpt>
<trkpt lat="55.739227" lon="26.243151">
<ele>147.306763</ele>
<time>2010-07-18T07:46:38Z</time>
<desc>lat.=55.739227, lon.=26.243151, Alt.=147.306763m. Speed=12.420000m/h.</desc>
<speed>3.450000</speed>
</trkpt>
<trkpt lat="55.739201" lon="26.243177">
<ele>147.588013</ele>
<time>2010-07-18T07:46:39Z</time>
<desc>lat.=55.739201, lon.=26.243177, Alt.=147.588013m. Speed=12.348000m/h.</desc>
<speed>3.430000</speed>
</trkpt>
<trkpt lat="55.739174" lon="26.243200">
<ele>147.654419</ele>
<time>2010-07-18T07:46:40Z</time>
<desc>lat.=55.739174, lon.=26.243200, Alt.=147.654419m. Speed=12.744000m/h.</desc>
<speed>3.540000</speed>
</trkpt>
<trkpt lat="55.739143" lon="26.243225">
<ele>147.771606</ele>
<time>2010-07-18T07:46:41Z</time>
<desc>lat.=55.739143, lon.=26.243225, Alt.=147.771606m. Speed=12.240000m/h.</desc>
<speed>3.400000</speed>
</trkpt>
<trkpt lat="55.739109" lon="26.243254">
<ele>148.607544</ele>
<time>2010-07-18T07:46:42Z</time>
<desc>lat.=55.739109, lon.=26.243254, Alt.=148.607544m. Speed=14.364000m/h.</desc>
<speed>3.990000</speed>
</trkpt>
<trkpt lat="55.739079" lon="26.243284">
<ele>149.392700</ele>
<time>2010-07-18T07:46:43Z</time>
<desc>lat.=55.739079, lon.=26.243284, Alt.=149.392700m. Speed=13.716000m/h.</desc>
<speed>3.810000</speed>
</trkpt>
<trkpt lat="55.739048" lon="26.243309">
<ele>149.170044</ele>
<time>2010-07-18T07:46:44Z</time>
<desc>lat.=55.739048, lon.=26.243309, Alt.=149.170044m. Speed=11.412000m/h.</desc>
<speed>3.170000</speed>
</trkpt>
<trkpt lat="55.739025" lon="26.243336">
<ele>149.173950</ele>
<time>2010-07-18T07:46:45Z</time>
<desc>lat.=55.739025, lon.=26.243336, Alt.=149.173950m. Speed=10.224000m/h.</desc>
<speed>2.840000</speed>
</trkpt>
<trkpt lat="55.738998" lon="26.243380">
<ele>149.470825</ele>
<time>2010-07-18T07:46:46Z</time>
<desc>lat.=55.738998, lon.=26.243380, Alt.=149.470825m. Speed=14.256000m/h.</desc>
<speed>3.960000</speed>
</trkpt>
<trkpt lat="55.738960" lon="26.243433">
<ele>149.373169</ele>
<time>2010-07-18T07:46:47Z</time>
<desc>lat.=55.738960, lon.=26.243433, Alt.=149.373169m. Speed=16.559999m/h.</desc>
<speed>4.600000</speed>
</trkpt>
<trkpt lat="55.738930" lon="26.243483">
<ele>149.763794</ele>
<time>2010-07-18T07:46:48Z</time>
<desc>lat.=55.738930, lon.=26.243483, Alt.=149.763794m. Speed=14.724000m/h.</desc>
<speed>4.090000</speed>
</trkpt>
<trkpt lat="55.738895" lon="26.243519">
<ele>149.677856</ele>
<time>2010-07-18T07:46:49Z</time>
<desc>lat.=55.738895, lon.=26.243519, Alt.=149.677856m. Speed=14.112000m/h.</desc>
<speed>3.920000</speed>
</trkpt>
<trkpt lat="55.738869" lon="26.243544">
<ele>149.767700</ele>
<time>2010-07-18T07:46:50Z</time>
<desc>lat.=55.738869, lon.=26.243544, Alt.=149.767700m. Speed=11.808000m/h.</desc>
<speed>3.280000</speed>
</trkpt>
<trkpt lat="55.738834" lon="26.243584">
<ele>149.838013</ele>
<time>2010-07-18T07:46:51Z</time>
<desc>lat.=55.738834, lon.=26.243584, Alt.=149.838013m. Speed=14.040000m/h.</desc>
<speed>3.900000</speed>
</trkpt>
<trkpt lat="55.738804" lon="26.243626">
<ele>150.146606</ele>
<time>2010-07-18T07:46:52Z</time>
<desc>lat.=55.738804, lon.=26.243626, Alt.=150.146606m. Speed=13.320000m/h.</desc>
<speed>3.700000</speed>
</trkpt>
<trkpt lat="55.738773" lon="26.243658">
<ele>150.037231</ele>
<time>2010-07-18T07:46:53Z</time>
<desc>lat.=55.738773, lon.=26.243658, Alt.=150.037231m. Speed=12.492000m/h.</desc>
<speed>3.470000</speed>
</trkpt>
<trkpt lat="55.738747" lon="26.243690">
<ele>150.037231</ele>
<time>2010-07-18T07:46:54Z</time>
<desc>lat.=55.738747, lon.=26.243690, Alt.=150.037231m. Speed=10.404000m/h.</desc>
<speed>2.890000</speed>
</trkpt>
<trkpt lat="55.738720" lon="26.243725">
<ele>150.552856</ele>
<time>2010-07-18T07:46:55Z</time>
<desc>lat.=55.738720, lon.=26.243725, Alt.=150.552856m. Speed=12.924000m/h.</desc>
<speed>3.590000</speed>
</trkpt>
<trkpt lat="55.738686" lon="26.243753">
<ele>149.088013</ele>
<time>2010-07-18T07:46:56Z</time>
<desc>lat.=55.738686, lon.=26.243753, Alt.=149.088013m. Speed=13.104000m/h.</desc>
<speed>3.640000</speed>
</trkpt>
<trkpt lat="55.738651" lon="26.243790">
<ele>149.021606</ele>
<time>2010-07-18T07:46:57Z</time>
<desc>lat.=55.738651, lon.=26.243790, Alt.=149.021606m. Speed=13.320000m/h.</desc>
<speed>3.700000</speed>
</trkpt>
<trkpt lat="55.738625" lon="26.243811">
<ele>149.490356</ele>
<time>2010-07-18T07:46:58Z</time>
<desc>lat.=55.738625, lon.=26.243811, Alt.=149.490356m. Speed=9.504000m/h.</desc>
<speed>2.640000</speed>
</trkpt>
<trkpt lat="55.738602" lon="26.243835">
<ele>150.021606</ele>
<time>2010-07-18T07:46:59Z</time>
<desc>lat.=55.738602, lon.=26.243835, Alt.=150.021606m. Speed=11.916000m/h.</desc>
<speed>3.310000</speed>
</trkpt>
<trkpt lat="55.738567" lon="26.243872">
<ele>150.439575</ele>
<time>2010-07-18T07:47:00Z</time>
<desc>lat.=55.738567, lon.=26.243872, Alt.=150.439575m. Speed=14.832000m/h.</desc>
<speed>4.120000</speed>
</trkpt>
<trkpt lat="55.738522" lon="26.243933">
<ele>150.283325</ele>
<time>2010-07-18T07:47:01Z</time>
<desc>lat.=55.738522, lon.=26.243933, Alt.=150.283325m. Speed=15.732000m/h.</desc>
<speed>4.370000</speed>
</trkpt>
<trkpt lat="55.738483" lon="26.243973">
<ele>150.252075</ele>
<time>2010-07-18T07:47:02Z</time>
<desc>lat.=55.738483, lon.=26.243973, Alt.=150.252075m. Speed=14.796000m/h.</desc>
<speed>4.110000</speed>
</trkpt>
<trkpt lat="55.738449" lon="26.244005">
<ele>150.662231</ele>
<time>2010-07-18T07:47:03Z</time>
<desc>lat.=55.738449, lon.=26.244005, Alt.=150.662231m. Speed=13.788000m/h.</desc>
<speed>3.830000</speed>
</trkpt>
<trkpt lat="55.738419" lon="26.244034">
<ele>151.779419</ele>
<time>2010-07-18T07:47:04Z</time>
<desc>lat.=55.738419, lon.=26.244034, Alt.=151.779419m. Speed=12.816000m/h.</desc>
<speed>3.560000</speed>
</trkpt>
<trkpt lat="55.738392" lon="26.244074">
<ele>153.443481</ele>
<time>2010-07-18T07:47:05Z</time>
<desc>lat.=55.738392, lon.=26.244074, Alt.=153.443481m. Speed=12.348000m/h.</desc>
<speed>3.430000</speed>
</trkpt>
<trkpt lat="55.738358" lon="26.244110">
<ele>154.490356</ele>
<time>2010-07-18T07:47:06Z</time>
<desc>lat.=55.738358, lon.=26.244110, Alt.=154.490356m. Speed=12.348000m/h.</desc>
<speed>3.430000</speed>
</trkpt>
<trkpt lat="55.738327" lon="26.244141">
<ele>155.533325</ele>
<time>2010-07-18T07:47:07Z</time>
<desc>lat.=55.738327, lon.=26.244141, Alt.=155.533325m. Speed=14.184000m/h.</desc>
<speed>3.940000</speed>
</trkpt>
<trkpt lat="55.738293" lon="26.244167">
<ele>156.060669</ele>
<time>2010-07-18T07:47:08Z</time>
<desc>lat.=55.738293, lon.=26.244167, Alt.=156.060669m. Speed=13.572000m/h.</desc>
<speed>3.770000</speed>
</trkpt>
<trkpt lat="55.738258" lon="26.244190">
<ele>155.509888</ele>
<time>2010-07-18T07:47:09Z</time>
<desc>lat.=55.738258, lon.=26.244190, Alt.=155.509888m. Speed=14.724000m/h.</desc>
<speed>4.090000</speed>
</trkpt>
<trkpt lat="55.738228" lon="26.244213">
<ele>156.279419</ele>
<time>2010-07-18T07:47:10Z</time>
<desc>lat.=55.738228, lon.=26.244213, Alt.=156.279419m. Speed=12.708000m/h.</desc>
<speed>3.530000</speed>
</trkpt>
<trkpt lat="55.738190" lon="26.244221">
<ele>157.912231</ele>
<time>2010-07-18T07:47:11Z</time>
<desc>lat.=55.738190, lon.=26.244221, Alt.=157.912231m. Speed=11.412000m/h.</desc>
<speed>3.170000</speed>
</trkpt>
<trkpt lat="55.738159" lon="26.244228">
<ele>157.630981</ele>
<time>2010-07-18T07:47:12Z</time>
<desc>lat.=55.738159, lon.=26.244228, Alt.=157.630981m. Speed=11.952000m/h.</desc>
<speed>3.320000</speed>
</trkpt>
<trkpt lat="55.738125" lon="26.244236">
<ele>157.818481</ele>
<time>2010-07-18T07:47:13Z</time>
<desc>lat.=55.738125, lon.=26.244236, Alt.=157.818481m. Speed=12.276000m/h.</desc>
<speed>3.410000</speed>
</trkpt>
<trkpt lat="55.738087" lon="26.244246">
<ele>159.802856</ele>
<time>2010-07-18T07:47:14Z</time>
<desc>lat.=55.738087, lon.=26.244246, Alt.=159.802856m. Speed=15.300000m/h.</desc>
<speed>4.250000</speed>
</trkpt>
<trkpt lat="55.738049" lon="26.244253">
<ele>160.380981</ele>
<time>2010-07-18T07:47:15Z</time>
<desc>lat.=55.738049, lon.=26.244253, Alt.=160.380981m. Speed=12.492000m/h.</desc>
<speed>3.470000</speed>
</trkpt>
<trkpt lat="55.738010" lon="26.244255">
<ele>160.877075</ele>
<time>2010-07-18T07:47:16Z</time>
<desc>lat.=55.738010, lon.=26.244255, Alt.=160.877075m. Speed=11.916000m/h.</desc>
<speed>3.310000</speed>
</trkpt>
<trkpt lat="55.737976" lon="26.244263">
<ele>162.119263</ele>
<time>2010-07-18T07:47:17Z</time>
<desc>lat.=55.737976, lon.=26.244263, Alt.=162.119263m. Speed=12.024000m/h.</desc>
<speed>3.340000</speed>
</trkpt>
<trkpt lat="55.737942" lon="26.244267">
<ele>162.548950</ele>
<time>2010-07-18T07:47:18Z</time>
<desc>lat.=55.737942, lon.=26.244267, Alt.=162.548950m. Speed=10.260000m/h.</desc>
<speed>2.850000</speed>
</trkpt>
<trkpt lat="55.737907" lon="26.244276">
<ele>162.494263</ele>
<time>2010-07-18T07:47:19Z</time>
<desc>lat.=55.737907, lon.=26.244276, Alt.=162.494263m. Speed=11.196000m/h.</desc>
<speed>3.110000</speed>
</trkpt>
<trkpt lat="55.737869" lon="26.244276">
<ele>161.041138</ele>
<time>2010-07-18T07:47:20Z</time>
<desc>lat.=55.737869, lon.=26.244276, Alt.=161.041138m. Speed=9.900000m/h.</desc>
<speed>2.750000</speed>
</trkpt>
<trkpt lat="55.737843" lon="26.244282">
<ele>160.732544</ele>
<time>2010-07-18T07:47:21Z</time>
<desc>lat.=55.737843, lon.=26.244282, Alt.=160.732544m. Speed=10.476000m/h.</desc>
<speed>2.910000</speed>
</trkpt>
<trkpt lat="55.737816" lon="26.244280">
<ele>160.170044</ele>
<time>2010-07-18T07:47:22Z</time>
<desc>lat.=55.737816, lon.=26.244280, Alt.=160.170044m. Speed=9.504000m/h.</desc>
<speed>2.640000</speed>
</trkpt>
<trkpt lat="55.737782" lon="26.244289">
<ele>159.783325</ele>
<time>2010-07-18T07:47:23Z</time>
<desc>lat.=55.737782, lon.=26.244289, Alt.=159.783325m. Speed=12.564000m/h.</desc>
<speed>3.490000</speed>
</trkpt>
<trkpt lat="55.737755" lon="26.244286">
<ele>160.181763</ele>
<time>2010-07-18T07:47:24Z</time>
<desc>lat.=55.737755, lon.=26.244286, Alt.=160.181763m. Speed=10.152000m/h.</desc>
<speed>2.820000</speed>
</trkpt>
<trkpt lat="55.737732" lon="26.244284">
<ele>159.943481</ele>
<time>2010-07-18T07:47:25Z</time>
<desc>lat.=55.737732, lon.=26.244284, Alt.=159.943481m. Speed=11.232000m/h.</desc>
<speed>3.120000</speed>
</trkpt>
<trkpt lat="55.737698" lon="26.244293">
<ele>159.681763</ele>
<time>2010-07-18T07:47:26Z</time>
<desc>lat.=55.737698, lon.=26.244293, Alt.=159.681763m. Speed=13.788000m/h.</desc>
<speed>3.830000</speed>
</trkpt>
<trkpt lat="55.737663" lon="26.244308">
<ele>160.216919</ele>
<time>2010-07-18T07:47:27Z</time>
<desc>lat.=55.737663, lon.=26.244308, Alt.=160.216919m. Speed=13.320000m/h.</desc>
<speed>3.700000</speed>
</trkpt>
<trkpt lat="55.737633" lon="26.244318">
<ele>160.259888</ele>
<time>2010-07-18T07:47:28Z</time>
<desc>lat.=55.737633, lon.=26.244318, Alt.=160.259888m. Speed=14.976000m/h.</desc>
<speed>4.160000</speed>
</trkpt>
<trkpt lat="55.737595" lon="26.244326">
<ele>160.505981</ele>
<time>2010-07-18T07:47:29Z</time>
<desc>lat.=55.737595, lon.=26.244326, Alt.=160.505981m. Speed=13.392000m/h.</desc>
<speed>3.720000</speed>
</trkpt>
<trkpt lat="55.737560" lon="26.244329">
<ele>160.455200</ele>
<time>2010-07-18T07:47:30Z</time>
<desc>lat.=55.737560, lon.=26.244329, Alt.=160.455200m. Speed=13.140000m/h.</desc>
<speed>3.650000</speed>
</trkpt>
<trkpt lat="55.737522" lon="26.244331">
<ele>160.463013</ele>
<time>2010-07-18T07:47:31Z</time>
<desc>lat.=55.737522, lon.=26.244331, Alt.=160.463013m. Speed=15.840000m/h.</desc>
<speed>4.400000</speed>
</trkpt>
<trkpt lat="55.737480" lon="26.244341">
<ele>160.123169</ele>
<time>2010-07-18T07:47:32Z</time>
<desc>lat.=55.737480, lon.=26.244341, Alt.=160.123169m. Speed=17.568001m/h.</desc>
<speed>4.880000</speed>
</trkpt>
<trkpt lat="55.737434" lon="26.244349">
<ele>158.818481</ele>
<time>2010-07-18T07:47:33Z</time>
<desc>lat.=55.737434, lon.=26.244349, Alt.=158.818481m. Speed=17.892000m/h.</desc>
<speed>4.970000</speed>
</trkpt>
<trkpt lat="55.737389" lon="26.244358">
<ele>158.732544</ele>
<time>2010-07-18T07:47:34Z</time>
<desc>lat.=55.737389, lon.=26.244358, Alt.=158.732544m. Speed=17.172001m/h.</desc>
<speed>4.770000</speed>
</trkpt>
<trkpt lat="55.737343" lon="26.244360">
<ele>158.095825</ele>
<time>2010-07-18T07:47:35Z</time>
<desc>lat.=55.737343, lon.=26.244360, Alt.=158.095825m. Speed=17.820000m/h.</desc>
<speed>4.950000</speed>
</trkpt>
<trkpt lat="55.737301" lon="26.244358">
<ele>158.099731</ele>
<time>2010-07-18T07:47:36Z</time>
<desc>lat.=55.737301, lon.=26.244358, Alt.=158.099731m. Speed=15.588000m/h.</desc>
<speed>4.330000</speed>
</trkpt>
<trkpt lat="55.737263" lon="26.244362">
<ele>157.728638</ele>
<time>2010-07-18T07:47:37Z</time>
<desc>lat.=55.737263, lon.=26.244362, Alt.=157.728638m. Speed=15.084000m/h.</desc>
<speed>4.190000</speed>
</trkpt>
<trkpt lat="55.737225" lon="26.244371">
<ele>157.412231</ele>
<time>2010-07-18T07:47:38Z</time>
<desc>lat.=55.737225, lon.=26.244371, Alt.=157.412231m. Speed=16.488001m/h.</desc>
<speed>4.580000</speed>
</trkpt>
<trkpt lat="55.737183" lon="26.244375">
<ele>157.240356</ele>
<time>2010-07-18T07:47:39Z</time>
<desc>lat.=55.737183, lon.=26.244375, Alt.=157.240356m. Speed=16.632000m/h.</desc>
<speed>4.620000</speed>
</trkpt>
<trkpt lat="55.737144" lon="26.244381">
<ele>157.115356</ele>
<time>2010-07-18T07:47:40Z</time>
<desc>lat.=55.737144, lon.=26.244381, Alt.=157.115356m. Speed=14.544000m/h.</desc>
<speed>4.040000</speed>
</trkpt>
<trkpt lat="55.737106" lon="26.244383">
<ele>157.002075</ele>
<time>2010-07-18T07:47:41Z</time>
<desc>lat.=55.737106, lon.=26.244383, Alt.=157.002075m. Speed=14.508000m/h.</desc>
<speed>4.030000</speed>
</trkpt>
<trkpt lat="55.737068" lon="26.244387">
<ele>156.693481</ele>
<time>2010-07-18T07:47:42Z</time>
<desc>lat.=55.737068, lon.=26.244387, Alt.=156.693481m. Speed=13.932000m/h.</desc>
<speed>3.870000</speed>
</trkpt>
<trkpt lat="55.737022" lon="26.244394">
<ele>156.470825</ele>
<time>2010-07-18T07:47:43Z</time>
<desc>lat.=55.737022, lon.=26.244394, Alt.=156.470825m. Speed=14.364000m/h.</desc>
<speed>3.990000</speed>
</trkpt>
<trkpt lat="55.736977" lon="26.244392">
<ele>156.623169</ele>
<time>2010-07-18T07:47:44Z</time>
<desc>lat.=55.736977, lon.=26.244392, Alt.=156.623169m. Speed=15.768000m/h.</desc>
<speed>4.380000</speed>
</trkpt>
<trkpt lat="55.736935" lon="26.244396">
<ele>156.705200</ele>
<time>2010-07-18T07:47:45Z</time>
<desc>lat.=55.736935, lon.=26.244396, Alt.=156.705200m. Speed=15.120000m/h.</desc>
<speed>4.200000</speed>
</trkpt>
<trkpt lat="55.736897" lon="26.244396">
<ele>156.779419</ele>
<time>2010-07-18T07:47:46Z</time>
<desc>lat.=55.736897, lon.=26.244396, Alt.=156.779419m. Speed=14.940000m/h.</desc>
<speed>4.150000</speed>
</trkpt>
<trkpt lat="55.736862" lon="26.244389">
<ele>156.455200</ele>
<time>2010-07-18T07:47:47Z</time>
<desc>lat.=55.736862, lon.=26.244389, Alt.=156.455200m. Speed=14.796000m/h.</desc>
<speed>4.110000</speed>
</trkpt>
<trkpt lat="55.736824" lon="26.244392">
<ele>156.193481</ele>
<time>2010-07-18T07:47:48Z</time>
<desc>lat.=55.736824, lon.=26.244392, Alt.=156.193481m. Speed=14.544000m/h.</desc>
<speed>4.040000</speed>
</trkpt>
<trkpt lat="55.736790" lon="26.244394">
<ele>156.009888</ele>
<time>2010-07-18T07:47:49Z</time>
<desc>lat.=55.736790, lon.=26.244394, Alt.=156.009888m. Speed=13.572000m/h.</desc>
<speed>3.770000</speed>
</trkpt>
<trkpt lat="55.736755" lon="26.244390">
<ele>156.162231</ele>
<time>2010-07-18T07:47:50Z</time>
<desc>lat.=55.736755, lon.=26.244390, Alt.=156.162231m. Speed=11.412000m/h.</desc>
<speed>3.170000</speed>
</trkpt>
<trkpt lat="55.736725" lon="26.244392">
<ele>156.138794</ele>
<time>2010-07-18T07:47:51Z</time>
<desc>lat.=55.736725, lon.=26.244392, Alt.=156.138794m. Speed=11.772000m/h.</desc>
<speed>3.270000</speed>
</trkpt>
<trkpt lat="55.736691" lon="26.244389">
<ele>156.287231</ele>
<time>2010-07-18T07:47:52Z</time>
<desc>lat.=55.736691, lon.=26.244389, Alt.=156.287231m. Speed=11.340000m/h.</desc>
<speed>3.150000</speed>
</trkpt>
<trkpt lat="55.736645" lon="26.244389">
<ele>156.650513</ele>
<time>2010-07-18T07:47:53Z</time>
<desc>lat.=55.736645, lon.=26.244389, Alt.=156.650513m. Speed=13.824000m/h.</desc>
<speed>3.840000</speed>
</trkpt>
<trkpt lat="55.736603" lon="26.244394">
<ele>157.185669</ele>
<time>2010-07-18T07:47:54Z</time>
<desc>lat.=55.736603, lon.=26.244394, Alt.=157.185669m. Speed=13.464000m/h.</desc>
<speed>3.740000</speed>
</trkpt>
<trkpt lat="55.736561" lon="26.244408">
<ele>157.884888</ele>
<time>2010-07-18T07:47:55Z</time>
<desc>lat.=55.736561, lon.=26.244408, Alt.=157.884888m. Speed=16.632000m/h.</desc>
<speed>4.620000</speed>
</trkpt>
<trkpt lat="55.736515" lon="26.244413">
<ele>157.916138</ele>
<time>2010-07-18T07:47:56Z</time>
<desc>lat.=55.736515, lon.=26.244413, Alt.=157.916138m. Speed=15.336000m/h.</desc>
<speed>4.260000</speed>
</trkpt>
<trkpt lat="55.736469" lon="26.244423">
<ele>157.627075</ele>
<time>2010-07-18T07:47:57Z</time>
<desc>lat.=55.736469, lon.=26.244423, Alt.=157.627075m. Speed=16.308001m/h.</desc>
<speed>4.530000</speed>
</trkpt>
<trkpt lat="55.736427" lon="26.244429">
<ele>157.435669</ele>
<time>2010-07-18T07:47:58Z</time>
<desc>lat.=55.736427, lon.=26.244429, Alt.=157.435669m. Speed=16.416000m/h.</desc>
<speed>4.560000</speed>
</trkpt>
<trkpt lat="55.736385" lon="26.244434">
<ele>157.310669</ele>
<time>2010-07-18T07:47:59Z</time>
<desc>lat.=55.736385, lon.=26.244434, Alt.=157.310669m. Speed=16.740000m/h.</desc>
<speed>4.650000</speed>
</trkpt>
<trkpt lat="55.736343" lon="26.244446">
<ele>157.123169</ele>
<time>2010-07-18T07:48:00Z</time>
<desc>lat.=55.736343, lon.=26.244446, Alt.=157.123169m. Speed=16.271999m/h.</desc>
<speed>4.520000</speed>
</trkpt>
<trkpt lat="55.736301" lon="26.244453">
<ele>156.818481</ele>
<time>2010-07-18T07:48:01Z</time>
<desc>lat.=55.736301, lon.=26.244453, Alt.=156.818481m. Speed=16.056000m/h.</desc>
<speed>4.460000</speed>
</trkpt>
<trkpt lat="55.736263" lon="26.244452">
<ele>156.677856</ele>
<time>2010-07-18T07:48:02Z</time>
<desc>lat.=55.736263, lon.=26.244452, Alt.=156.677856m. Speed=14.544000m/h.</desc>
<speed>4.040000</speed>
</trkpt>
<trkpt lat="55.736206" lon="26.244455">
<ele>155.693481</ele>
<time>2010-07-18T07:48:03Z</time>
<desc>lat.=55.736206, lon.=26.244455, Alt.=155.693481m. Speed=14.796000m/h.</desc>
<speed>4.110000</speed>
</trkpt>
<trkpt lat="55.736156" lon="26.244467">
<ele>155.666138</ele>
<time>2010-07-18T07:48:04Z</time>
<desc>lat.=55.736156, lon.=26.244467, Alt.=155.666138m. Speed=13.824000m/h.</desc>
<speed>3.840000</speed>
</trkpt>
<trkpt lat="55.736115" lon="26.244507">
<ele>157.189575</ele>
<time>2010-07-18T07:48:05Z</time>
<desc>lat.=55.736115, lon.=26.244507, Alt.=157.189575m. Speed=13.680000m/h.</desc>
<speed>3.800000</speed>
</trkpt>
<trkpt lat="55.736076" lon="26.244516">
<ele>156.904419</ele>
<time>2010-07-18T07:48:06Z</time>
<desc>lat.=55.736076, lon.=26.244516, Alt.=156.904419m. Speed=12.888000m/h.</desc>
<speed>3.580000</speed>
</trkpt>
<trkpt lat="55.736042" lon="26.244532">
<ele>157.384888</ele>
<time>2010-07-18T07:48:07Z</time>
<desc>lat.=55.736042, lon.=26.244532, Alt.=157.384888m. Speed=11.988000m/h.</desc>
<speed>3.330000</speed>
</trkpt>
<trkpt lat="55.736008" lon="26.244520">
<ele>156.826294</ele>
<time>2010-07-18T07:48:08Z</time>
<desc>lat.=55.736008, lon.=26.244520, Alt.=156.826294m. Speed=12.312000m/h.</desc>
<speed>3.420000</speed>
</trkpt>
<trkpt lat="55.735977" lon="26.244520">
<ele>156.920044</ele>
<time>2010-07-18T07:48:09Z</time>
<desc>lat.=55.735977, lon.=26.244520, Alt.=156.920044m. Speed=11.556000m/h.</desc>
<speed>3.210000</speed>
</trkpt>
<trkpt lat="55.735935" lon="26.244522">
<ele>155.673950</ele>
<time>2010-07-18T07:48:10Z</time>
<desc>lat.=55.735935, lon.=26.244522, Alt.=155.673950m. Speed=11.556000m/h.</desc>
<speed>3.210000</speed>
</trkpt>
<trkpt lat="55.735901" lon="26.244539">
<ele>155.814575</ele>
<time>2010-07-18T07:48:11Z</time>
<desc>lat.=55.735901, lon.=26.244539, Alt.=155.814575m. Speed=9.792000m/h.</desc>
<speed>2.720000</speed>
</trkpt>
<trkpt lat="55.735878" lon="26.244541">
<ele>155.607544</ele>
<time>2010-07-18T07:48:12Z</time>
<desc>lat.=55.735878, lon.=26.244541, Alt.=155.607544m. Speed=10.044000m/h.</desc>
<speed>2.790000</speed>
</trkpt>
<trkpt lat="55.735847" lon="26.244539">
<ele>155.525513</ele>
<time>2010-07-18T07:48:13Z</time>
<desc>lat.=55.735847, lon.=26.244539, Alt.=155.525513m. Speed=9.468000m/h.</desc>
<speed>2.630000</speed>
</trkpt>
<trkpt lat="55.735817" lon="26.244534">
<ele>155.427856</ele>
<time>2010-07-18T07:48:14Z</time>
<desc>lat.=55.735817, lon.=26.244534, Alt.=155.427856m. Speed=10.620000m/h.</desc>
<speed>2.950000</speed>
</trkpt>
<trkpt lat="55.735783" lon="26.244534">
<ele>157.228638</ele>
<time>2010-07-18T07:48:15Z</time>
<desc>lat.=55.735783, lon.=26.244534, Alt.=157.228638m. Speed=12.276000m/h.</desc>
<speed>3.410000</speed>
</trkpt>
<trkpt lat="55.735752" lon="26.244549">
<ele>157.244263</ele>
<time>2010-07-18T07:48:16Z</time>
<desc>lat.=55.735752, lon.=26.244549, Alt.=157.244263m. Speed=12.204000m/h.</desc>
<speed>3.390000</speed>
</trkpt>
<trkpt lat="55.735722" lon="26.244570">
<ele>155.384888</ele>
<time>2010-07-18T07:48:17Z</time>
<desc>lat.=55.735722, lon.=26.244570, Alt.=155.384888m. Speed=12.924000m/h.</desc>
<speed>3.590000</speed>
</trkpt>
<trkpt lat="55.735687" lon="26.244591">
<ele>155.013794</ele>
<time>2010-07-18T07:48:18Z</time>
<desc>lat.=55.735687, lon.=26.244591, Alt.=155.013794m. Speed=13.428000m/h.</desc>
<speed>3.730000</speed>
</trkpt>
<trkpt lat="55.735657" lon="26.244606">
<ele>155.185669</ele>
<time>2010-07-18T07:48:19Z</time>
<desc>lat.=55.735657, lon.=26.244606, Alt.=155.185669m. Speed=12.888000m/h.</desc>
<speed>3.580000</speed>
</trkpt>
<trkpt lat="55.735600" lon="26.244608">
<ele>153.552856</ele>
<time>2010-07-18T07:48:20Z</time>
<desc>lat.=55.735600, lon.=26.244608, Alt.=153.552856m. Speed=13.932000m/h.</desc>
<speed>3.870000</speed>
</trkpt>
<trkpt lat="55.735561" lon="26.244602">
<ele>153.170044</ele>
<time>2010-07-18T07:48:21Z</time>
<desc>lat.=55.735561, lon.=26.244602, Alt.=153.170044m. Speed=12.816000m/h.</desc>
<speed>3.560000</speed>
</trkpt>
<trkpt lat="55.735527" lon="26.244610">
<ele>152.923950</ele>
<time>2010-07-18T07:48:22Z</time>
<desc>lat.=55.735527, lon.=26.244610, Alt.=152.923950m. Speed=13.248000m/h.</desc>
<speed>3.680000</speed>
</trkpt>
<trkpt lat="55.735497" lon="26.244612">
<ele>153.068481</ele>
<time>2010-07-18T07:48:23Z</time>
<desc>lat.=55.735497, lon.=26.244612, Alt.=153.068481m. Speed=11.880000m/h.</desc>
<speed>3.300000</speed>
</trkpt>
<trkpt lat="55.735466" lon="26.244621">
<ele>152.795044</ele>
<time>2010-07-18T07:48:24Z</time>
<desc>lat.=55.735466, lon.=26.244621, Alt.=152.795044m. Speed=10.512000m/h.</desc>
<speed>2.920000</speed>
</trkpt>
<trkpt lat="55.735443" lon="26.244623">
<ele>152.545044</ele>
<time>2010-07-18T07:48:25Z</time>
<desc>lat.=55.735443, lon.=26.244623, Alt.=152.545044m. Speed=8.784000m/h.</desc>
<speed>2.440000</speed>
</trkpt>
<trkpt lat="55.735428" lon="26.244619">
<ele>152.806763</ele>
<time>2010-07-18T07:48:26Z</time>
<desc>lat.=55.735428, lon.=26.244619, Alt.=152.806763m. Speed=8.064000m/h.</desc>
<speed>2.240000</speed>
</trkpt>
<trkpt lat="55.735413" lon="26.244616">
<ele>152.408325</ele>
<time>2010-07-18T07:48:27Z</time>
<desc>lat.=55.735413, lon.=26.244616, Alt.=152.408325m. Speed=7.596000m/h.</desc>
<speed>2.110000</speed>
</trkpt>
<trkpt lat="55.735394" lon="26.244596">
<ele>152.916138</ele>
<time>2010-07-18T07:48:28Z</time>
<desc>lat.=55.735394, lon.=26.244596, Alt.=152.916138m. Speed=9.252000m/h.</desc>
<speed>2.570000</speed>
</trkpt>
<trkpt lat="55.735371" lon="26.244596">
<ele>153.572388</ele>
<time>2010-07-18T07:48:29Z</time>
<desc>lat.=55.735371, lon.=26.244596, Alt.=153.572388m. Speed=10.404000m/h.</desc>
<speed>2.890000</speed>
</trkpt>
<trkpt lat="55.735336" lon="26.244625">
<ele>155.338013</ele>
<time>2010-07-18T07:48:30Z</time>
<desc>lat.=55.735336, lon.=26.244625, Alt.=155.338013m. Speed=11.664000m/h.</desc>
<speed>3.240000</speed>
</trkpt>
<trkpt lat="55.735317" lon="26.244638">
<ele>155.119263</ele>
<time>2010-07-18T07:48:31Z</time>
<desc>lat.=55.735317, lon.=26.244638, Alt.=155.119263m. Speed=11.520000m/h.</desc>
<speed>3.200000</speed>
</trkpt>
<trkpt lat="55.735287" lon="26.244648">
<ele>155.439575</ele>
<time>2010-07-18T07:48:32Z</time>
<desc>lat.=55.735287, lon.=26.244648, Alt.=155.439575m. Speed=13.248000m/h.</desc>
<speed>3.680000</speed>
</trkpt>
<trkpt lat="55.735252" lon="26.244650">
<ele>155.970825</ele>
<time>2010-07-18T07:48:33Z</time>
<desc>lat.=55.735252, lon.=26.244650, Alt.=155.970825m. Speed=11.952000m/h.</desc>
<speed>3.320000</speed>
</trkpt>
<trkpt lat="55.735226" lon="26.244656">
<ele>156.396606</ele>
<time>2010-07-18T07:48:34Z</time>
<desc>lat.=55.735226, lon.=26.244656, Alt.=156.396606m. Speed=9.684000m/h.</desc>
<speed>2.690000</speed>
</trkpt>
<trkpt lat="55.735203" lon="26.244671">
<ele>156.588013</ele>
<time>2010-07-18T07:48:35Z</time>
<desc>lat.=55.735203, lon.=26.244671, Alt.=156.588013m. Speed=8.676000m/h.</desc>
<speed>2.410000</speed>
</trkpt>
<trkpt lat="55.735168" lon="26.244709">
<ele>157.072388</ele>
<time>2010-07-18T07:48:36Z</time>
<desc>lat.=55.735168, lon.=26.244709, Alt.=157.072388m. Speed=8.136000m/h.</desc>
<speed>2.260000</speed>
</trkpt>
<trkpt lat="55.735153" lon="26.244732">
<ele>157.654419</ele>
<time>2010-07-18T07:48:37Z</time>
<desc>lat.=55.735153, lon.=26.244732, Alt.=157.654419m. Speed=6.696000m/h.</desc>
<speed>1.860000</speed>
</trkpt>
<trkpt lat="55.735134" lon="26.244741">
<ele>157.857544</ele>
<time>2010-07-18T07:48:38Z</time>
<desc>lat.=55.735134, lon.=26.244741, Alt.=157.857544m. Speed=7.020000m/h.</desc>
<speed>1.950000</speed>
</trkpt>
<trkpt lat="55.735115" lon="26.244743">
<ele>157.759888</ele>
<time>2010-07-18T07:48:39Z</time>
<desc>lat.=55.735115, lon.=26.244743, Alt.=157.759888m. Speed=7.488000m/h.</desc>
<speed>2.080000</speed>
</trkpt>
<trkpt lat="55.735096" lon="26.244736">
<ele>157.857544</ele>
<time>2010-07-18T07:48:40Z</time>
<desc>lat.=55.735096, lon.=26.244736, Alt.=157.857544m. Speed=8.568000m/h.</desc>
<speed>2.380000</speed>
</trkpt>
<trkpt lat="55.735069" lon="26.244732">
<ele>157.931763</ele>
<time>2010-07-18T07:48:41Z</time>
<desc>lat.=55.735069, lon.=26.244732, Alt.=157.931763m. Speed=8.388000m/h.</desc>
<speed>2.330000</speed>
</trkpt>
<trkpt lat="55.735043" lon="26.244728">
<ele>157.892700</ele>
<time>2010-07-18T07:48:42Z</time>
<desc>lat.=55.735043, lon.=26.244728, Alt.=157.892700m. Speed=6.480000m/h.</desc>
<speed>1.800000</speed>
</trkpt>
<trkpt lat="55.735016" lon="26.244732">
<ele>158.693481</ele>
<time>2010-07-18T07:48:43Z</time>
<desc>lat.=55.735016, lon.=26.244732, Alt.=158.693481m. Speed=9.324000m/h.</desc>
<speed>2.590000</speed>
</trkpt>
<trkpt lat="55.734993" lon="26.244732">
<ele>158.744263</ele>
<time>2010-07-18T07:48:44Z</time>
<desc>lat.=55.734993, lon.=26.244732, Alt.=158.744263m. Speed=10.872000m/h.</desc>
<speed>3.020000</speed>
</trkpt>
<trkpt lat="55.734959" lon="26.244730">
<ele>159.099731</ele>
<time>2010-07-18T07:48:45Z</time>
<desc>lat.=55.734959, lon.=26.244730, Alt.=159.099731m. Speed=11.448000m/h.</desc>
<speed>3.180000</speed>
</trkpt>
<trkpt lat="55.734921" lon="26.244732">
<ele>158.873169</ele>
<time>2010-07-18T07:48:46Z</time>
<desc>lat.=55.734921, lon.=26.244732, Alt.=158.873169m. Speed=12.960000m/h.</desc>
<speed>3.600000</speed>
</trkpt>
<trkpt lat="55.734886" lon="26.244734">
<ele>158.755981</ele>
<time>2010-07-18T07:48:47Z</time>
<desc>lat.=55.734886, lon.=26.244734, Alt.=158.755981m. Speed=13.212000m/h.</desc>
<speed>3.670000</speed>
</trkpt>
<trkpt lat="55.734852" lon="26.244736">
<ele>159.447388</ele>
<time>2010-07-18T07:48:48Z</time>
<desc>lat.=55.734852, lon.=26.244736, Alt.=159.447388m. Speed=13.788000m/h.</desc>
<speed>3.830000</speed>
</trkpt>
<trkpt lat="55.734818" lon="26.244740">
<ele>159.306763</ele>
<time>2010-07-18T07:48:49Z</time>
<desc>lat.=55.734818, lon.=26.244740, Alt.=159.306763m. Speed=13.572000m/h.</desc>
<speed>3.770000</speed>
</trkpt>
<trkpt lat="55.734779" lon="26.244741">
<ele>159.158325</ele>
<time>2010-07-18T07:48:50Z</time>
<desc>lat.=55.734779, lon.=26.244741, Alt.=159.158325m. Speed=14.868000m/h.</desc>
<speed>4.130000</speed>
</trkpt>
<trkpt lat="55.734737" lon="26.244745">
<ele>158.466919</ele>
<time>2010-07-18T07:48:51Z</time>
<desc>lat.=55.734737, lon.=26.244745, Alt.=158.466919m. Speed=15.444000m/h.</desc>
<speed>4.290000</speed>
</trkpt>
<trkpt lat="55.734695" lon="26.244757">
<ele>158.216919</ele>
<time>2010-07-18T07:48:52Z</time>
<desc>lat.=55.734695, lon.=26.244757, Alt.=158.216919m. Speed=14.292000m/h.</desc>
<speed>3.970000</speed>
</trkpt>
<trkpt lat="55.734657" lon="26.244753">
<ele>157.978638</ele>
<time>2010-07-18T07:48:53Z</time>
<desc>lat.=55.734657, lon.=26.244753, Alt.=157.978638m. Speed=11.772000m/h.</desc>
<speed>3.270000</speed>
</trkpt>
<trkpt lat="55.734627" lon="26.244747">
<ele>157.353638</ele>
<time>2010-07-18T07:48:54Z</time>
<desc>lat.=55.734627, lon.=26.244747, Alt.=157.353638m. Speed=12.492000m/h.</desc>
<speed>3.470000</speed>
</trkpt>
<trkpt lat="55.734589" lon="26.244743">
<ele>157.443481</ele>
<time>2010-07-18T07:48:55Z</time>
<desc>lat.=55.734589, lon.=26.244743, Alt.=157.443481m. Speed=13.428000m/h.</desc>
<speed>3.730000</speed>
</trkpt>
<trkpt lat="55.734550" lon="26.244751">
<ele>157.310669</ele>
<time>2010-07-18T07:48:56Z</time>
<desc>lat.=55.734550, lon.=26.244751, Alt.=157.310669m. Speed=15.192000m/h.</desc>
<speed>4.220000</speed>
</trkpt>
<trkpt lat="55.734509" lon="26.244755">
<ele>157.697388</ele>
<time>2010-07-18T07:48:57Z</time>
<desc>lat.=55.734509, lon.=26.244755, Alt.=157.697388m. Speed=15.300000m/h.</desc>
<speed>4.250000</speed>
</trkpt>
<trkpt lat="55.734463" lon="26.244759">
<ele>157.291138</ele>
<time>2010-07-18T07:48:58Z</time>
<desc>lat.=55.734463, lon.=26.244759, Alt.=157.291138m. Speed=15.696000m/h.</desc>
<speed>4.360000</speed>
</trkpt>
<trkpt lat="55.734402" lon="26.244764">
<ele>157.005981</ele>
<time>2010-07-18T07:48:59Z</time>
<desc>lat.=55.734402, lon.=26.244764, Alt.=157.005981m. Speed=16.848000m/h.</desc>
<speed>4.680000</speed>
</trkpt>
<trkpt lat="55.734360" lon="26.244762">
<ele>156.888794</ele>
<time>2010-07-18T07:49:00Z</time>
<desc>lat.=55.734360, lon.=26.244762, Alt.=156.888794m. Speed=15.516000m/h.</desc>
<speed>4.310000</speed>
</trkpt>
<trkpt lat="55.734318" lon="26.244770">
<ele>157.572388</ele>
<time>2010-07-18T07:49:01Z</time>
<desc>lat.=55.734318, lon.=26.244770, Alt.=157.572388m. Speed=15.696000m/h.</desc>
<speed>4.360000</speed>
</trkpt>
<trkpt lat="55.734276" lon="26.244783">
<ele>157.775513</ele>
<time>2010-07-18T07:49:02Z</time>
<desc>lat.=55.734276, lon.=26.244783, Alt.=157.775513m. Speed=14.472000m/h.</desc>
<speed>4.020000</speed>
</trkpt>
<trkpt lat="55.734238" lon="26.244770">
<ele>157.892700</ele>
<time>2010-07-18T07:49:03Z</time>
<desc>lat.=55.734238, lon.=26.244770, Alt.=157.892700m. Speed=13.248000m/h.</desc>
<speed>3.680000</speed>
</trkpt>
<trkpt lat="55.734192" lon="26.244766">
<ele>157.443481</ele>
<time>2010-07-18T07:49:04Z</time>
<desc>lat.=55.734192, lon.=26.244766, Alt.=157.443481m. Speed=13.068000m/h.</desc>
<speed>3.630000</speed>
</trkpt>
<trkpt lat="55.734158" lon="26.244766">
<ele>157.255981</ele>
<time>2010-07-18T07:49:05Z</time>
<desc>lat.=55.734158, lon.=26.244766, Alt.=157.255981m. Speed=12.204000m/h.</desc>
<speed>3.390000</speed>
</trkpt>
<trkpt lat="55.734135" lon="26.244780">
<ele>157.377075</ele>
<time>2010-07-18T07:49:06Z</time>
<desc>lat.=55.734135, lon.=26.244780, Alt.=157.377075m. Speed=10.008000m/h.</desc>
<speed>2.780000</speed>
</trkpt>
<trkpt lat="55.734104" lon="26.244795">
<ele>158.134888</ele>
<time>2010-07-18T07:49:07Z</time>
<desc>lat.=55.734104, lon.=26.244795, Alt.=158.134888m. Speed=10.908000m/h.</desc>
<speed>3.030000</speed>
</trkpt>
<trkpt lat="55.734066" lon="26.244801">
<ele>158.763794</ele>
<time>2010-07-18T07:49:08Z</time>
<desc>lat.=55.734066, lon.=26.244801, Alt.=158.763794m. Speed=13.392000m/h.</desc>
<speed>3.720000</speed>
</trkpt>
<trkpt lat="55.734032" lon="26.244801">
<ele>158.056763</ele>
<time>2010-07-18T07:49:09Z</time>
<desc>lat.=55.734032, lon.=26.244801, Alt.=158.056763m. Speed=13.824000m/h.</desc>
<speed>3.840000</speed>
</trkpt>
<trkpt lat="55.733997" lon="26.244804">
<ele>157.849731</ele>
<time>2010-07-18T07:49:10Z</time>
<desc>lat.=55.733997, lon.=26.244804, Alt.=157.849731m. Speed=12.492000m/h.</desc>
<speed>3.470000</speed>
</trkpt>
<trkpt lat="55.733967" lon="26.244808">
<ele>157.775513</ele>
<time>2010-07-18T07:49:11Z</time>
<desc>lat.=55.733967, lon.=26.244808, Alt.=157.775513m. Speed=11.736000m/h.</desc>
<speed>3.260000</speed>
</trkpt>
<trkpt lat="55.733955" lon="26.244837">
<ele>157.291138</ele>
<time>2010-07-18T07:49:12Z</time>
<desc>lat.=55.733955, lon.=26.244837, Alt.=157.291138m. Speed=12.132000m/h.</desc>
<speed>3.370000</speed>
</trkpt>
<trkpt lat="55.733925" lon="26.244841">
<ele>157.080200</ele>
<time>2010-07-18T07:49:13Z</time>
<desc>lat.=55.733925, lon.=26.244841, Alt.=157.080200m. Speed=12.600000m/h.</desc>
<speed>3.500000</speed>
</trkpt>
<trkpt lat="55.733891" lon="26.244841">
<ele>156.755981</ele>
<time>2010-07-18T07:49:14Z</time>
<desc>lat.=55.733891, lon.=26.244841, Alt.=156.755981m. Speed=14.832000m/h.</desc>
<speed>4.120000</speed>
</trkpt>
<trkpt lat="55.733856" lon="26.244848">
<ele>156.529419</ele>
<time>2010-07-18T07:49:15Z</time>
<desc>lat.=55.733856, lon.=26.244848, Alt.=156.529419m. Speed=14.076000m/h.</desc>
<speed>3.910000</speed>
</trkpt>
<trkpt lat="55.733818" lon="26.244862">
<ele>155.767700</ele>
<time>2010-07-18T07:49:16Z</time>
<desc>lat.=55.733818, lon.=26.244862, Alt.=155.767700m. Speed=14.004000m/h.</desc>
<speed>3.890000</speed>
</trkpt>
<trkpt lat="55.733788" lon="26.244871">
<ele>155.689575</ele>
<time>2010-07-18T07:49:17Z</time>
<desc>lat.=55.733788, lon.=26.244871, Alt.=155.689575m. Speed=12.168000m/h.</desc>
<speed>3.380000</speed>
</trkpt>
<trkpt lat="55.733749" lon="26.244877">
<ele>155.400513</ele>
<time>2010-07-18T07:49:18Z</time>
<desc>lat.=55.733749, lon.=26.244877, Alt.=155.400513m. Speed=13.284000m/h.</desc>
<speed>3.690000</speed>
</trkpt>
<trkpt lat="55.733704" lon="26.244884">
<ele>155.056763</ele>
<time>2010-07-18T07:49:19Z</time>
<desc>lat.=55.733704, lon.=26.244884, Alt.=155.056763m. Speed=14.292000m/h.</desc>
<speed>3.970000</speed>
</trkpt>
<trkpt lat="55.733662" lon="26.244888">
<ele>155.142700</ele>
<time>2010-07-18T07:49:20Z</time>
<desc>lat.=55.733662, lon.=26.244888, Alt.=155.142700m. Speed=14.364000m/h.</desc>
<speed>3.990000</speed>
</trkpt>
<trkpt lat="55.733620" lon="26.244896">
<ele>155.255981</ele>
<time>2010-07-18T07:49:21Z</time>
<desc>lat.=55.733620, lon.=26.244896, Alt.=155.255981m. Speed=15.012000m/h.</desc>
<speed>4.170000</speed>
</trkpt>
<trkpt lat="55.733578" lon="26.244902">
<ele>155.162231</ele>
<time>2010-07-18T07:49:22Z</time>
<desc>lat.=55.733578, lon.=26.244902, Alt.=155.162231m. Speed=14.940000m/h.</desc>
<speed>4.150000</speed>
</trkpt>
<trkpt lat="55.733536" lon="26.244904">
<ele>154.787231</ele>
<time>2010-07-18T07:49:23Z</time>
<desc>lat.=55.733536, lon.=26.244904, Alt.=154.787231m. Speed=16.775999m/h.</desc>
<speed>4.660000</speed>
</trkpt>
<trkpt lat="55.733490" lon="26.244902">
<ele>153.849731</ele>
<time>2010-07-18T07:49:24Z</time>
<desc>lat.=55.733490, lon.=26.244902, Alt.=153.849731m. Speed=17.496000m/h.</desc>
<speed>4.860000</speed>
</trkpt>
<trkpt lat="55.733437" lon="26.244904">
<ele>154.029419</ele>
<time>2010-07-18T07:49:25Z</time>
<desc>lat.=55.733437, lon.=26.244904, Alt.=154.029419m. Speed=18.072001m/h.</desc>
<speed>5.020000</speed>
</trkpt>
<trkpt lat="55.733383" lon="26.244909">
<ele>153.463013</ele>
<time>2010-07-18T07:49:26Z</time>
<desc>lat.=55.733383, lon.=26.244909, Alt.=153.463013m. Speed=19.224001m/h.</desc>
<speed>5.340000</speed>
</trkpt>
<trkpt lat="55.733326" lon="26.244911">
<ele>152.877075</ele>
<time>2010-07-18T07:49:27Z</time>
<desc>lat.=55.733326, lon.=26.244911, Alt.=152.877075m. Speed=19.872000m/h.</desc>
<speed>5.520000</speed>
</trkpt>
<trkpt lat="55.733273" lon="26.244913">
<ele>153.513794</ele>
<time>2010-07-18T07:49:28Z</time>
<desc>lat.=55.733273, lon.=26.244913, Alt.=153.513794m. Speed=20.736000m/h.</desc>
<speed>5.760000</speed>
</trkpt>
<trkpt lat="55.733212" lon="26.244904">
<ele>153.072388</ele>
<time>2010-07-18T07:49:29Z</time>
<desc>lat.=55.733212, lon.=26.244904, Alt.=153.072388m. Speed=20.988001m/h.</desc>
<speed>5.830000</speed>
</trkpt>
<trkpt lat="55.733150" lon="26.244900">
<ele>152.869263</ele>
<time>2010-07-18T07:49:30Z</time>
<desc>lat.=55.733150, lon.=26.244900, Alt.=152.869263m. Speed=20.916000m/h.</desc>
<speed>5.810000</speed>
</trkpt>
<trkpt lat="55.733086" lon="26.244877">
<ele>152.361450</ele>
<time>2010-07-18T07:49:31Z</time>
<desc>lat.=55.733086, lon.=26.244877, Alt.=152.361450m. Speed=21.600000m/h.</desc>
<speed>6.000000</speed>
</trkpt>
<trkpt lat="55.733028" lon="26.244886">
<ele>151.470825</ele>
<time>2010-07-18T07:49:32Z</time>
<desc>lat.=55.733028, lon.=26.244886, Alt.=151.470825m. Speed=21.312000m/h.</desc>
<speed>5.920000</speed>
</trkpt>
<trkpt lat="55.732979" lon="26.244892">
<ele>151.017700</ele>
<time>2010-07-18T07:49:33Z</time>
<desc>lat.=55.732979, lon.=26.244892, Alt.=151.017700m. Speed=20.664000m/h.</desc>
<speed>5.740000</speed>
</trkpt>
<trkpt lat="55.732922" lon="26.244896">
<ele>150.752075</ele>
<time>2010-07-18T07:49:34Z</time>
<desc>lat.=55.732922, lon.=26.244896, Alt.=150.752075m. Speed=19.691999m/h.</desc>
<speed>5.470000</speed>
</trkpt>
<trkpt lat="55.732868" lon="26.244898">
<ele>150.838013</ele>
<time>2010-07-18T07:49:35Z</time>
<desc>lat.=55.732868, lon.=26.244898, Alt.=150.838013m. Speed=18.216000m/h.</desc>
<speed>5.060000</speed>
</trkpt>
<trkpt lat="55.732830" lon="26.244904">
<ele>151.455200</ele>
<time>2010-07-18T07:49:36Z</time>
<desc>lat.=55.732830, lon.=26.244904, Alt.=151.455200m. Speed=15.804000m/h.</desc>
<speed>4.390000</speed>
</trkpt>
<trkpt lat="55.732784" lon="26.244936">
<ele>155.439575</ele>
<time>2010-07-18T07:49:37Z</time>
<desc>lat.=55.732784, lon.=26.244936, Alt.=155.439575m. Speed=13.644000m/h.</desc>
<speed>3.790000</speed>
</trkpt>
<trkpt lat="55.732754" lon="26.244944">
<ele>156.033325</ele>
<time>2010-07-18T07:49:38Z</time>
<desc>lat.=55.732754, lon.=26.244944, Alt.=156.033325m. Speed=10.872000m/h.</desc>
<speed>3.020000</speed>
</trkpt>
<trkpt lat="55.732731" lon="26.244942">
<ele>156.072388</ele>
<time>2010-07-18T07:49:39Z</time>
<desc>lat.=55.732731, lon.=26.244942, Alt.=156.072388m. Speed=9.108000m/h.</desc>
<speed>2.530000</speed>
</trkpt>
<trkpt lat="55.732708" lon="26.244949">
<ele>156.005981</ele>
<time>2010-07-18T07:49:40Z</time>
<desc>lat.=55.732708, lon.=26.244949, Alt.=156.005981m. Speed=9.396000m/h.</desc>
<speed>2.610000</speed>
</trkpt>
<trkpt lat="55.732689" lon="26.244957">
<ele>156.099731</ele>
<time>2010-07-18T07:49:41Z</time>
<desc>lat.=55.732689, lon.=26.244957, Alt.=156.099731m. Speed=9.396000m/h.</desc>
<speed>2.610000</speed>
</trkpt>
<trkpt lat="55.732666" lon="26.244963">
<ele>156.220825</ele>
<time>2010-07-18T07:49:42Z</time>
<desc>lat.=55.732666, lon.=26.244963, Alt.=156.220825m. Speed=8.928000m/h.</desc>
<speed>2.480000</speed>
</trkpt>
<trkpt lat="55.732647" lon="26.244963">
<ele>155.927856</ele>
<time>2010-07-18T07:49:43Z</time>
<desc>lat.=55.732647, lon.=26.244963, Alt.=155.927856m. Speed=7.812000m/h.</desc>
<speed>2.170000</speed>
</trkpt>
<trkpt lat="55.732632" lon="26.244957">
<ele>156.834106</ele>
<time>2010-07-18T07:49:44Z</time>
<desc>lat.=55.732632, lon.=26.244957, Alt.=156.834106m. Speed=6.084000m/h.</desc>
<speed>1.690000</speed>
</trkpt>
<trkpt lat="55.732620" lon="26.244972">
<ele>157.072388</ele>
<time>2010-07-18T07:49:45Z</time>
<desc>lat.=55.732620, lon.=26.244972, Alt.=157.072388m. Speed=3.816000m/h.</desc>
<speed>1.060000</speed>
</trkpt>
<trkpt lat="55.732624" lon="26.244970">
<ele>156.658325</ele>
<time>2010-07-18T07:49:46Z</time>
<desc>lat.=55.732624, lon.=26.244970, Alt.=156.658325m. Speed=1.296000m/h.</desc>
<speed>0.360000</speed>
</trkpt>
<trkpt lat="55.732624" lon="26.244989">
<ele>156.404419</ele>
<time>2010-07-18T07:49:47Z</time>
<desc>lat.=55.732624, lon.=26.244989, Alt.=156.404419m. Speed=0.972000m/h.</desc>
<speed>0.270000</speed>
</trkpt>
<trkpt lat="55.732628" lon="26.244987">
<ele>156.880981</ele>
<time>2010-07-18T07:49:48Z</time>
<desc>lat.=55.732628, lon.=26.244987, Alt.=156.880981m. Speed=0.684000m/h.</desc>
<speed>0.190000</speed>
</trkpt>
<trkpt lat="55.732628" lon="26.244989">
<ele>157.240356</ele>
<time>2010-07-18T07:49:49Z</time>
<desc>lat.=55.732628, lon.=26.244989, Alt.=157.240356m. Speed=0.684000m/h.</desc>
<speed>0.190000</speed>
</trkpt>
<trkpt lat="55.732628" lon="26.244989">
<ele>157.271606</ele>
<time>2010-07-18T07:49:50Z</time>
<desc>lat.=55.732628, lon.=26.244989, Alt.=157.271606m. Speed=0.288000m/h.</desc>
<speed>0.080000</speed>
</trkpt>
<trkpt lat="55.732628" lon="26.244987">
<ele>157.291138</ele>
<time>2010-07-18T07:49:51Z</time>
<desc>lat.=55.732628, lon.=26.244987, Alt.=157.291138m. Speed=0.144000m/h.</desc>
<speed>0.040000</speed>
</trkpt>
<trkpt lat="55.732628" lon="26.244987">
<ele>157.306763</ele>
<time>2010-07-18T07:49:52Z</time>
<desc>lat.=55.732628, lon.=26.244987, Alt.=157.306763m. Speed=0.288000m/h.</desc>
<speed>0.080000</speed>
</trkpt>
<trkpt lat="55.732628" lon="26.244986">
<ele>157.322388</ele>
<time>2010-07-18T07:49:53Z</time>
<desc>lat.=55.732628, lon.=26.244986, Alt.=157.322388m. Speed=0.288000m/h.</desc>
<speed>0.080000</speed>
</trkpt>
<trkpt lat="55.732628" lon="26.244986">
<ele>157.334106</ele>
<time>2010-07-18T07:49:54Z</time>
<desc>lat.=55.732628, lon.=26.244986, Alt.=157.334106m. Speed=0.252000m/h.</desc>
<speed>0.070000</speed>
</trkpt>
<trkpt lat="55.732628" lon="26.244986">
<ele>157.341919</ele>
<time>2010-07-18T07:49:55Z</time>
<desc>lat.=55.732628, lon.=26.244986, Alt.=157.341919m. Speed=0.468000m/h.</desc>
<speed>0.130000</speed>
</trkpt>
<trkpt lat="55.732628" lon="26.244986">
<ele>157.349731</ele>
<time>2010-07-18T07:49:56Z</time>
<desc>lat.=55.732628, lon.=26.244986, Alt.=157.349731m. Speed=0.936000m/h.</desc>
<speed>0.260000</speed>
</trkpt>
<trkpt lat="55.732632" lon="26.244986">
<ele>157.357544</ele>
<time>2010-07-18T07:49:57Z</time>
<desc>lat.=55.732632, lon.=26.244986, Alt.=157.357544m. Speed=0.936000m/h.</desc>
<speed>0.260000</speed>
</trkpt>
<trkpt lat="55.732632" lon="26.244987">
<ele>157.365356</ele>
<time>2010-07-18T07:49:58Z</time>
<desc>lat.=55.732632, lon.=26.244987, Alt.=157.365356m. Speed=1.224000m/h.</desc>
<speed>0.340000</speed>
</trkpt>
<trkpt lat="55.732635" lon="26.244991">
<ele>157.377075</ele>
<time>2010-07-18T07:49:59Z</time>
<desc>lat.=55.732635, lon.=26.244991, Alt.=157.377075m. Speed=1.080000m/h.</desc>
<speed>0.300000</speed>
</trkpt>
<trkpt lat="55.732639" lon="26.244995">
<ele>157.388794</ele>
<time>2010-07-18T07:50:00Z</time>
<desc>lat.=55.732639, lon.=26.244995, Alt.=157.388794m. Speed=1.188000m/h.</desc>
<speed>0.330000</speed>
</trkpt>
<trkpt lat="55.732639" lon="26.244999">
<ele>157.400513</ele>
<time>2010-07-18T07:50:01Z</time>
<desc>lat.=55.732639, lon.=26.244999, Alt.=157.400513m. Speed=1.296000m/h.</desc>
<speed>0.360000</speed>
</trkpt>
<trkpt lat="55.732643" lon="26.245005">
<ele>157.412231</ele>
<time>2010-07-18T07:50:02Z</time>
<desc>lat.=55.732643, lon.=26.245005, Alt.=157.412231m. Speed=1.548000m/h.</desc>
<speed>0.430000</speed>
</trkpt>
<trkpt lat="55.732647" lon="26.245007">
<ele>157.427856</ele>
<time>2010-07-18T07:50:03Z</time>
<desc>lat.=55.732647, lon.=26.245007, Alt.=157.427856m. Speed=1.260000m/h.</desc>
<speed>0.350000</speed>
</trkpt>
<trkpt lat="55.732647" lon="26.245008">
<ele>157.443481</ele>
<time>2010-07-18T07:50:04Z</time>
<desc>lat.=55.732647, lon.=26.245008, Alt.=157.443481m. Speed=1.152000m/h.</desc>
<speed>0.320000</speed>
</trkpt>
<trkpt lat="55.732651" lon="26.245010">
<ele>157.459106</ele>
<time>2010-07-18T07:50:05Z</time>
<desc>lat.=55.732651, lon.=26.245010, Alt.=157.459106m. Speed=0.396000m/h.</desc>
<speed>0.110000</speed>
</trkpt>
<trkpt lat="55.732651" lon="26.245012">
<ele>157.482544</ele>
<time>2010-07-18T07:50:06Z</time>
<desc>lat.=55.732651, lon.=26.245012, Alt.=157.482544m. Speed=0.684000m/h.</desc>
<speed>0.190000</speed>
</trkpt>
<trkpt lat="55.732655" lon="26.245014">
<ele>157.498169</ele>
<time>2010-07-18T07:50:07Z</time>
<desc>lat.=55.732655, lon.=26.245014, Alt.=157.498169m. Speed=0.468000m/h.</desc>
<speed>0.130000</speed>
</trkpt>
<trkpt lat="55.732655" lon="26.245016">
<ele>157.517700</ele>
<time>2010-07-18T07:50:08Z</time>
<desc>lat.=55.732655, lon.=26.245016, Alt.=157.517700m. Speed=0.504000m/h.</desc>
<speed>0.140000</speed>
</trkpt>
<trkpt lat="55.732655" lon="26.245018">
<ele>157.529419</ele>
<time>2010-07-18T07:50:09Z</time>
<desc>lat.=55.732655, lon.=26.245018, Alt.=157.529419m. Speed=0.612000m/h.</desc>
<speed>0.170000</speed>
</trkpt>
<trkpt lat="55.732655" lon="26.245020">
<ele>157.545044</ele>
<time>2010-07-18T07:50:10Z</time>
<desc>lat.=55.732655, lon.=26.245020, Alt.=157.545044m. Speed=0.360000m/h.</desc>
<speed>0.100000</speed>
</trkpt>
<trkpt lat="55.732655" lon="26.245022">
<ele>157.552856</ele>
<time>2010-07-18T07:50:11Z</time>
<desc>lat.=55.732655, lon.=26.245022, Alt.=157.552856m. Speed=0.756000m/h.</desc>
<speed>0.210000</speed>
</trkpt>
<trkpt lat="55.732651" lon="26.245024">
<ele>157.564575</ele>
<time>2010-07-18T07:50:12Z</time>
<desc>lat.=55.732651, lon.=26.245024, Alt.=157.564575m. Speed=0.720000m/h.</desc>
<speed>0.200000</speed>
</trkpt>
<trkpt lat="55.732651" lon="26.245026">
<ele>157.576294</ele>
<time>2010-07-18T07:50:13Z</time>
<desc>lat.=55.732651, lon.=26.245026, Alt.=157.576294m. Speed=1.008000m/h.</desc>
<speed>0.280000</speed>
</trkpt>
<trkpt lat="55.732651" lon="26.245031">
<ele>157.591919</ele>
<time>2010-07-18T07:50:14Z</time>
<desc>lat.=55.732651, lon.=26.245031, Alt.=157.591919m. Speed=0.612000m/h.</desc>
<speed>0.170000</speed>
</trkpt>
<trkpt lat="55.732651" lon="26.245033">
<ele>157.603638</ele>
<time>2010-07-18T07:50:15Z</time>
<desc>lat.=55.732651, lon.=26.245033, Alt.=157.603638m. Speed=0.504000m/h.</desc>
<speed>0.140000</speed>
</trkpt>
<trkpt lat="55.732647" lon="26.245035">
<ele>157.623169</ele>
<time>2010-07-18T07:50:16Z</time>
<desc>lat.=55.732647, lon.=26.245035, Alt.=157.623169m. Speed=0.576000m/h.</desc>
<speed>0.160000</speed>
</trkpt>
<trkpt lat="55.732651" lon="26.245039">
<ele>157.650513</ele>
<time>2010-07-18T07:50:17Z</time>
<desc>lat.=55.732651, lon.=26.245039, Alt.=157.650513m. Speed=0.576000m/h.</desc>
<speed>0.160000</speed>
</trkpt>
<trkpt lat="55.732647" lon="26.245041">
<ele>157.670044</ele>
<time>2010-07-18T07:50:18Z</time>
<desc>lat.=55.732647, lon.=26.245041, Alt.=157.670044m. Speed=0.216000m/h.</desc>
<speed>0.060000</speed>
</trkpt>
<trkpt lat="55.732647" lon="26.245041">
<ele>157.685669</ele>
<time>2010-07-18T07:50:19Z</time>
<desc>lat.=55.732647, lon.=26.245041, Alt.=157.685669m. Speed=0.468000m/h.</desc>
<speed>0.130000</speed>
</trkpt>
<trkpt lat="55.732647" lon="26.245043">
<ele>157.701294</ele>
<time>2010-07-18T07:50:20Z</time>
<desc>lat.=55.732647, lon.=26.245043, Alt.=157.701294m. Speed=0.720000m/h.</desc>
<speed>0.200000</speed>
</trkpt>
<trkpt lat="55.732651" lon="26.245047">
<ele>157.716919</ele>
<time>2010-07-18T07:50:21Z</time>
<desc>lat.=55.732651, lon.=26.245047, Alt.=157.716919m. Speed=0.900000m/h.</desc>
<speed>0.250000</speed>
</trkpt>
<trkpt lat="55.732651" lon="26.245050">
<ele>157.728638</ele>
<time>2010-07-18T07:50:22Z</time>
<desc>lat.=55.732651, lon.=26.245050, Alt.=157.728638m. Speed=0.792000m/h.</desc>
<speed>0.220000</speed>
</trkpt>
<trkpt lat="55.732651" lon="26.245054">
<ele>157.740356</ele>
<time>2010-07-18T07:50:23Z</time>
<desc>lat.=55.732651, lon.=26.245054, Alt.=157.740356m. Speed=0.828000m/h.</desc>
<speed>0.230000</speed>
</trkpt>
<trkpt lat="55.732651" lon="26.245056">
<ele>157.748169</ele>
<time>2010-07-18T07:50:24Z</time>
<desc>lat.=55.732651, lon.=26.245056, Alt.=157.748169m. Speed=0.360000m/h.</desc>
<speed>0.100000</speed>
</trkpt>
<trkpt lat="55.732655" lon="26.245058">
<ele>157.759888</ele>
<time>2010-07-18T07:50:25Z</time>
<desc>lat.=55.732655, lon.=26.245058, Alt.=157.759888m. Speed=0.288000m/h.</desc>
<speed>0.080000</speed>
</trkpt>
<trkpt lat="55.732651" lon="26.245058">
<ele>157.763794</ele>
<time>2010-07-18T07:50:26Z</time>
<desc>lat.=55.732651, lon.=26.245058, Alt.=157.763794m. Speed=0.288000m/h.</desc>
<speed>0.080000</speed>
</trkpt>
<trkpt lat="55.732651" lon="26.245058">
<ele>157.779419</ele>
<time>2010-07-18T07:50:27Z</time>
<desc>lat.=55.732651, lon.=26.245058, Alt.=157.779419m. Speed=0.756000m/h.</desc>
<speed>0.210000</speed>
</trkpt>
<trkpt lat="55.732651" lon="26.245058">
<ele>157.787231</ele>
<time>2010-07-18T07:50:28Z</time>
<desc>lat.=55.732651, lon.=26.245058, Alt.=157.787231m. Speed=0.576000m/h.</desc>
<speed>0.160000</speed>
</trkpt>
<trkpt lat="55.732647" lon="26.245058">
<ele>157.787231</ele>
<time>2010-07-18T07:50:29Z</time>
<desc>lat.=55.732647, lon.=26.245058, Alt.=157.787231m. Speed=0.612000m/h.</desc>
<speed>0.170000</speed>
</trkpt>
<trkpt lat="55.732647" lon="26.245058">
<ele>157.791138</ele>
<time>2010-07-18T07:50:30Z</time>
<desc>lat.=55.732647, lon.=26.245058, Alt.=157.791138m. Speed=0.792000m/h.</desc>
<speed>0.220000</speed>
</trkpt>
<trkpt lat="55.732643" lon="26.245056">
<ele>157.798950</ele>
<time>2010-07-18T07:50:31Z</time>
<desc>lat.=55.732643, lon.=26.245056, Alt.=157.798950m. Speed=1.332000m/h.</desc>
<speed>0.370000</speed>
</trkpt>
<trkpt lat="55.732643" lon="26.245052">
<ele>157.814575</ele>
<time>2010-07-18T07:50:32Z</time>
<desc>lat.=55.732643, lon.=26.245052, Alt.=157.814575m. Speed=1.620000m/h.</desc>
<speed>0.450000</speed>
</trkpt>
<trkpt lat="55.732639" lon="26.245045">
<ele>157.830200</ele>
<time>2010-07-18T07:50:33Z</time>
<desc>lat.=55.732639, lon.=26.245045, Alt.=157.830200m. Speed=1.008000m/h.</desc>
<speed>0.280000</speed>
</trkpt>
<trkpt lat="55.732639" lon="26.245041">
<ele>157.838013</ele>
<time>2010-07-18T07:50:34Z</time>
<desc>lat.=55.732639, lon.=26.245041, Alt.=157.838013m. Speed=1.080000m/h.</desc>
<speed>0.300000</speed>
</trkpt>
<trkpt lat="55.732635" lon="26.245039">
<ele>157.845825</ele>
<time>2010-07-18T07:50:35Z</time>
<desc>lat.=55.732635, lon.=26.245039, Alt.=157.845825m. Speed=1.116000m/h.</desc>
<speed>0.310000</speed>
</trkpt>
<trkpt lat="55.732632" lon="26.245037">
<ele>157.865356</ele>
<time>2010-07-18T07:50:36Z</time>
<desc>lat.=55.732632, lon.=26.245037, Alt.=157.865356m. Speed=2.088000m/h.</desc>
<speed>0.580000</speed>
</trkpt>
<trkpt lat="55.732628" lon="26.245035">
<ele>157.877075</ele>
<time>2010-07-18T07:50:37Z</time>
<desc>lat.=55.732628, lon.=26.245035, Alt.=157.877075m. Speed=2.700000m/h.</desc>
<speed>0.750000</speed>
</trkpt>
<trkpt lat="55.732620" lon="26.245031">
<ele>157.888794</ele>
<time>2010-07-18T07:50:38Z</time>
<desc>lat.=55.732620, lon.=26.245031, Alt.=157.888794m. Speed=3.564000m/h.</desc>
<speed>0.990000</speed>
</trkpt>
<trkpt lat="55.732613" lon="26.245026">
<ele>157.904419</ele>
<time>2010-07-18T07:50:39Z</time>
<desc>lat.=55.732613, lon.=26.245026, Alt.=157.904419m. Speed=4.284000m/h.</desc>
<speed>1.190000</speed>
</trkpt>
<trkpt lat="55.732590" lon="26.245016">
<ele>158.466919</ele>
<time>2010-07-18T07:50:40Z</time>
<desc>lat.=55.732590, lon.=26.245016, Alt.=158.466919m. Speed=5.796000m/h.</desc>
<speed>1.610000</speed>
</trkpt>
<trkpt lat="55.732574" lon="26.245005">
<ele>158.623169</ele>
<time>2010-07-18T07:50:41Z</time>
<desc>lat.=55.732574, lon.=26.245005, Alt.=158.623169m. Speed=5.904000m/h.</desc>
<speed>1.640000</speed>
</trkpt>
<trkpt lat="55.732563" lon="26.244980">
<ele>159.185669</ele>
<time>2010-07-18T07:50:42Z</time>
<desc>lat.=55.732563, lon.=26.244980, Alt.=159.185669m. Speed=6.516000m/h.</desc>
<speed>1.810000</speed>
</trkpt>
<trkpt lat="55.732544" lon="26.244949">
<ele>159.334106</ele>
<time>2010-07-18T07:50:43Z</time>
<desc>lat.=55.732544, lon.=26.244949, Alt.=159.334106m. Speed=8.208000m/h.</desc>
<speed>2.280000</speed>
</trkpt>
<trkpt lat="55.732533" lon="26.244898">
<ele>159.068481</ele>
<time>2010-07-18T07:50:44Z</time>
<desc>lat.=55.732533, lon.=26.244898, Alt.=159.068481m. Speed=10.872000m/h.</desc>
<speed>3.020000</speed>
</trkpt>
<trkpt lat="55.732513" lon="26.244850">
<ele>158.642700</ele>
<time>2010-07-18T07:50:45Z</time>
<desc>lat.=55.732513, lon.=26.244850, Alt.=158.642700m. Speed=10.008000m/h.</desc>
<speed>2.780000</speed>
</trkpt>
<trkpt lat="55.732502" lon="26.244810">
<ele>159.209106</ele>
<time>2010-07-18T07:50:46Z</time>
<desc>lat.=55.732502, lon.=26.244810, Alt.=159.209106m. Speed=9.324000m/h.</desc>
<speed>2.590000</speed>
</trkpt>
<trkpt lat="55.732491" lon="26.244785">
<ele>161.072388</ele>
<time>2010-07-18T07:50:47Z</time>
<desc>lat.=55.732491, lon.=26.244785, Alt.=161.072388m. Speed=8.280000m/h.</desc>
<speed>2.300000</speed>
</trkpt>
<trkpt lat="55.732483" lon="26.244741">
<ele>161.482544</ele>
<time>2010-07-18T07:50:48Z</time>
<desc>lat.=55.732483, lon.=26.244741, Alt.=161.482544m. Speed=8.748000m/h.</desc>
<speed>2.430000</speed>
</trkpt>
<trkpt lat="55.732475" lon="26.244665">
<ele>159.255981</ele>
<time>2010-07-18T07:50:49Z</time>
<desc>lat.=55.732475, lon.=26.244665, Alt.=159.255981m. Speed=10.368000m/h.</desc>
<speed>2.880000</speed>
</trkpt>
<trkpt lat="55.732441" lon="26.244610">
<ele>159.060669</ele>
<time>2010-07-18T07:50:50Z</time>
<desc>lat.=55.732441, lon.=26.244610, Alt.=159.060669m. Speed=12.888000m/h.</desc>
<speed>3.580000</speed>
</trkpt>
<trkpt lat="55.732399" lon="26.244560">
<ele>158.927856</ele>
<time>2010-07-18T07:50:51Z</time>
<desc>lat.=55.732399, lon.=26.244560, Alt.=158.927856m. Speed=13.932000m/h.</desc>
<speed>3.870000</speed>
</trkpt>
<trkpt lat="55.732372" lon="26.244505">
<ele>158.697388</ele>
<time>2010-07-18T07:50:52Z</time>
<desc>lat.=55.732372, lon.=26.244505, Alt.=158.697388m. Speed=14.184000m/h.</desc>
<speed>3.940000</speed>
</trkpt>
<trkpt lat="55.732330" lon="26.244473">
<ele>158.216919</ele>
<time>2010-07-18T07:50:53Z</time>
<desc>lat.=55.732330, lon.=26.244473, Alt.=158.216919m. Speed=14.328000m/h.</desc>
<speed>3.980000</speed>
</trkpt>
<trkpt lat="55.732300" lon="26.244436">
<ele>158.009888</ele>
<time>2010-07-18T07:50:54Z</time>
<desc>lat.=55.732300, lon.=26.244436, Alt.=158.009888m. Speed=14.364000m/h.</desc>
<speed>3.990000</speed>
</trkpt>
<trkpt lat="55.732258" lon="26.244400">
<ele>157.963013</ele>
<time>2010-07-18T07:50:55Z</time>
<desc>lat.=55.732258, lon.=26.244400, Alt.=157.963013m. Speed=15.876000m/h.</desc>
<speed>4.410000</speed>
</trkpt>
<trkpt lat="55.732227" lon="26.244373">
<ele>157.767700</ele>
<time>2010-07-18T07:50:56Z</time>
<desc>lat.=55.732227, lon.=26.244373, Alt.=157.767700m. Speed=14.940000m/h.</desc>
<speed>4.150000</speed>
</trkpt>
<trkpt lat="55.732193" lon="26.244352">
<ele>157.556763</ele>
<time>2010-07-18T07:50:57Z</time>
<desc>lat.=55.732193, lon.=26.244352, Alt.=157.556763m. Speed=14.724000m/h.</desc>
<speed>4.090000</speed>
</trkpt>
<trkpt lat="55.732147" lon="26.244328">
<ele>156.380981</ele>
<time>2010-07-18T07:50:58Z</time>
<desc>lat.=55.732147, lon.=26.244328, Alt.=156.380981m. Speed=16.128000m/h.</desc>
<speed>4.480000</speed>
</trkpt>
<trkpt lat="55.732105" lon="26.244303">
<ele>155.158325</ele>
<time>2010-07-18T07:50:59Z</time>
<desc>lat.=55.732105, lon.=26.244303, Alt.=155.158325m. Speed=15.444000m/h.</desc>
<speed>4.290000</speed>
</trkpt>
<trkpt lat="55.732063" lon="26.244295">
<ele>154.877075</ele>
<time>2010-07-18T07:51:00Z</time>
<desc>lat.=55.732063, lon.=26.244295, Alt.=154.877075m. Speed=15.624000m/h.</desc>
<speed>4.340000</speed>
</trkpt>
<trkpt lat="55.732021" lon="26.244299">
<ele>155.814575</ele>
<time>2010-07-18T07:51:01Z</time>
<desc>lat.=55.732021, lon.=26.244299, Alt.=155.814575m. Speed=17.243999m/h.</desc>
<speed>4.790000</speed>
</trkpt>
<trkpt lat="55.731979" lon="26.244297">
<ele>155.720825</ele>
<time>2010-07-18T07:51:02Z</time>
<desc>lat.=55.731979, lon.=26.244297, Alt.=155.720825m. Speed=17.784000m/h.</desc>
<speed>4.940000</speed>
</trkpt>
<trkpt lat="55.731937" lon="26.244301">
<ele>155.783325</ele>
<time>2010-07-18T07:51:03Z</time>
<desc>lat.=55.731937, lon.=26.244301, Alt.=155.783325m. Speed=16.992001m/h.</desc>
<speed>4.720000</speed>
</trkpt>
<trkpt lat="55.731899" lon="26.244310">
<ele>156.095825</ele>
<time>2010-07-18T07:51:04Z</time>
<desc>lat.=55.731899, lon.=26.244310, Alt.=156.095825m. Speed=15.516000m/h.</desc>
<speed>4.310000</speed>
</trkpt>
<trkpt lat="55.731861" lon="26.244320">
<ele>156.365356</ele>
<time>2010-07-18T07:51:05Z</time>
<desc>lat.=55.731861, lon.=26.244320, Alt.=156.365356m. Speed=16.271999m/h.</desc>
<speed>4.520000</speed>
</trkpt>
<trkpt lat="55.731812" lon="26.244335">
<ele>155.521606</ele>
<time>2010-07-18T07:51:06Z</time>
<desc>lat.=55.731812, lon.=26.244335, Alt.=155.521606m. Speed=14.832000m/h.</desc>
<speed>4.120000</speed>
</trkpt>
<trkpt lat="55.731773" lon="26.244352">
<ele>155.392700</ele>
<time>2010-07-18T07:51:07Z</time>
<desc>lat.=55.731773, lon.=26.244352, Alt.=155.392700m. Speed=14.004000m/h.</desc>
<speed>3.890000</speed>
</trkpt>
<trkpt lat="55.731735" lon="26.244379">
<ele>155.525513</ele>
<time>2010-07-18T07:51:08Z</time>
<desc>lat.=55.731735, lon.=26.244379, Alt.=155.525513m. Speed=13.104000m/h.</desc>
<speed>3.640000</speed>
</trkpt>
<trkpt lat="55.731705" lon="26.244400">
<ele>155.002075</ele>
<time>2010-07-18T07:51:09Z</time>
<desc>lat.=55.731705, lon.=26.244400, Alt.=155.002075m. Speed=11.340000m/h.</desc>
<speed>3.150000</speed>
</trkpt>
<trkpt lat="55.731674" lon="26.244410">
<ele>154.755981</ele>
<time>2010-07-18T07:51:10Z</time>
<desc>lat.=55.731674, lon.=26.244410, Alt.=154.755981m. Speed=8.892000m/h.</desc>
<speed>2.470000</speed>
</trkpt>
<trkpt lat="55.731651" lon="26.244429">
<ele>154.892700</ele>
<time>2010-07-18T07:51:11Z</time>
<desc>lat.=55.731651, lon.=26.244429, Alt.=154.892700m. Speed=10.908000m/h.</desc>
<speed>3.030000</speed>
</trkpt>
<trkpt lat="55.731621" lon="26.244459">
<ele>155.130981</ele>
<time>2010-07-18T07:51:12Z</time>
<desc>lat.=55.731621, lon.=26.244459, Alt.=155.130981m. Speed=13.932000m/h.</desc>
<speed>3.870000</speed>
</trkpt>
<trkpt lat="55.731590" lon="26.244486">
<ele>155.599731</ele>
<time>2010-07-18T07:51:13Z</time>
<desc>lat.=55.731590, lon.=26.244486, Alt.=155.599731m. Speed=13.032000m/h.</desc>
<speed>3.620000</speed>
</trkpt>
<trkpt lat="55.731552" lon="26.244514">
<ele>155.427856</ele>
<time>2010-07-18T07:51:14Z</time>
<desc>lat.=55.731552, lon.=26.244514, Alt.=155.427856m. Speed=13.572000m/h.</desc>
<speed>3.770000</speed>
</trkpt>
<trkpt lat="55.731518" lon="26.244524">
<ele>154.400513</ele>
<time>2010-07-18T07:51:15Z</time>
<desc>lat.=55.731518, lon.=26.244524, Alt.=154.400513m. Speed=13.428000m/h.</desc>
<speed>3.730000</speed>
</trkpt>
<trkpt lat="55.731480" lon="26.244545">
<ele>154.170044</ele>
<time>2010-07-18T07:51:16Z</time>
<desc>lat.=55.731480, lon.=26.244545, Alt.=154.170044m. Speed=15.156000m/h.</desc>
<speed>4.210000</speed>
</trkpt>
<trkpt lat="55.731445" lon="26.244577">
<ele>155.701294</ele>
<time>2010-07-18T07:51:17Z</time>
<desc>lat.=55.731445, lon.=26.244577, Alt.=155.701294m. Speed=13.752000m/h.</desc>
<speed>3.820000</speed>
</trkpt>
<trkpt lat="55.731415" lon="26.244598">
<ele>155.505981</ele>
<time>2010-07-18T07:51:18Z</time>
<desc>lat.=55.731415, lon.=26.244598, Alt.=155.505981m. Speed=12.456000m/h.</desc>
<speed>3.460000</speed>
</trkpt>
<trkpt lat="55.731388" lon="26.244614">
<ele>155.662231</ele>
<time>2010-07-18T07:51:19Z</time>
<desc>lat.=55.731388, lon.=26.244614, Alt.=155.662231m. Speed=10.116000m/h.</desc>
<speed>2.810000</speed>
</trkpt>
<trkpt lat="55.731361" lon="26.244629">
<ele>155.748169</ele>
<time>2010-07-18T07:51:20Z</time>
<desc>lat.=55.731361, lon.=26.244629, Alt.=155.748169m. Speed=10.944000m/h.</desc>
<speed>3.040000</speed>
</trkpt>
<trkpt lat="55.731335" lon="26.244654">
<ele>155.951294</ele>
<time>2010-07-18T07:51:21Z</time>
<desc>lat.=55.731335, lon.=26.244654, Alt.=155.951294m. Speed=11.952000m/h.</desc>
<speed>3.320000</speed>
</trkpt>
<trkpt lat="55.731304" lon="26.244678">
<ele>155.720825</ele>
<time>2010-07-18T07:51:22Z</time>
<desc>lat.=55.731304, lon.=26.244678, Alt.=155.720825m. Speed=12.312000m/h.</desc>
<speed>3.420000</speed>
</trkpt>
<trkpt lat="55.731277" lon="26.244711">
<ele>156.330200</ele>
<time>2010-07-18T07:51:23Z</time>
<desc>lat.=55.731277, lon.=26.244711, Alt.=156.330200m. Speed=11.304000m/h.</desc>
<speed>3.140000</speed>
</trkpt>
<trkpt lat="55.731251" lon="26.244749">
<ele>156.252075</ele>
<time>2010-07-18T07:51:24Z</time>
<desc>lat.=55.731251, lon.=26.244749, Alt.=156.252075m. Speed=11.664000m/h.</desc>
<speed>3.240000</speed>
</trkpt>
<trkpt lat="55.731228" lon="26.244772">
<ele>156.849731</ele>
<time>2010-07-18T07:51:25Z</time>
<desc>lat.=55.731228, lon.=26.244772, Alt.=156.849731m. Speed=12.492000m/h.</desc>
<speed>3.470000</speed>
</trkpt>
<trkpt lat="55.731182" lon="26.244783">
<ele>155.990356</ele>
<time>2010-07-18T07:51:26Z</time>
<desc>lat.=55.731182, lon.=26.244783, Alt.=155.990356m. Speed=11.772000m/h.</desc>
<speed>3.270000</speed>
</trkpt>
<trkpt lat="55.731152" lon="26.244814">
<ele>155.720825</ele>
<time>2010-07-18T07:51:27Z</time>
<desc>lat.=55.731152, lon.=26.244814, Alt.=155.720825m. Speed=12.636000m/h.</desc>
<speed>3.510000</speed>
</trkpt>
<trkpt lat="55.731121" lon="26.244856">
<ele>157.732544</ele>
<time>2010-07-18T07:51:28Z</time>
<desc>lat.=55.731121, lon.=26.244856, Alt.=157.732544m. Speed=12.276000m/h.</desc>
<speed>3.410000</speed>
</trkpt>
<trkpt lat="55.731094" lon="26.244890">
<ele>158.638794</ele>
<time>2010-07-18T07:51:29Z</time>
<desc>lat.=55.731094, lon.=26.244890, Alt.=158.638794m. Speed=11.232000m/h.</desc>
<speed>3.120000</speed>
</trkpt>
<trkpt lat="55.731075" lon="26.244917">
<ele>160.181763</ele>
<time>2010-07-18T07:51:30Z</time>
<desc>lat.=55.731075, lon.=26.244917, Alt.=160.181763m. Speed=11.700000m/h.</desc>
<speed>3.250000</speed>
</trkpt>
<trkpt lat="55.731052" lon="26.244940">
<ele>161.072388</ele>
<time>2010-07-18T07:51:31Z</time>
<desc>lat.=55.731052, lon.=26.244940, Alt.=161.072388m. Speed=9.864000m/h.</desc>
<speed>2.740000</speed>
</trkpt>
<trkpt lat="55.731030" lon="26.244953">
<ele>161.005981</ele>
<time>2010-07-18T07:51:32Z</time>
<desc>lat.=55.731030, lon.=26.244953, Alt.=161.005981m. Speed=8.892000m/h.</desc>
<speed>2.470000</speed>
</trkpt>
<trkpt lat="55.731010" lon="26.244959">
<ele>161.025513</ele>
<time>2010-07-18T07:51:33Z</time>
<desc>lat.=55.731010, lon.=26.244959, Alt.=161.025513m. Speed=8.352000m/h.</desc>
<speed>2.320000</speed>
</trkpt>
<trkpt lat="55.730991" lon="26.244959">
<ele>160.224731</ele>
<time>2010-07-18T07:51:34Z</time>
<desc>lat.=55.730991, lon.=26.244959, Alt.=160.224731m. Speed=7.920000m/h.</desc>
<speed>2.200000</speed>
</trkpt>
<trkpt lat="55.730980" lon="26.244946">
<ele>161.267700</ele>
<time>2010-07-18T07:51:35Z</time>
<desc>lat.=55.730980, lon.=26.244946, Alt.=161.267700m. Speed=6.120000m/h.</desc>
<speed>1.700000</speed>
</trkpt>
<trkpt lat="55.730968" lon="26.244934">
<ele>161.666138</ele>
<time>2010-07-18T07:51:36Z</time>
<desc>lat.=55.730968, lon.=26.244934, Alt.=161.666138m. Speed=4.788000m/h.</desc>
<speed>1.330000</speed>
</trkpt>
<trkpt lat="55.730953" lon="26.244928">
<ele>162.361450</ele>
<time>2010-07-18T07:51:37Z</time>
<desc>lat.=55.730953, lon.=26.244928, Alt.=162.361450m. Speed=5.472000m/h.</desc>
<speed>1.520000</speed>
</trkpt>
<trkpt lat="55.730942" lon="26.244915">
<ele>162.716919</ele>
<time>2010-07-18T07:51:38Z</time>
<desc>lat.=55.730942, lon.=26.244915, Alt.=162.716919m. Speed=4.536000m/h.</desc>
<speed>1.260000</speed>
</trkpt>
<trkpt lat="55.730930" lon="26.244904">
<ele>163.076294</ele>
<time>2010-07-18T07:51:39Z</time>
<desc>lat.=55.730930, lon.=26.244904, Alt.=163.076294m. Speed=3.780000m/h.</desc>
<speed>1.050000</speed>
</trkpt>
<trkpt lat="55.730919" lon="26.244896">
<ele>162.755981</ele>
<time>2010-07-18T07:51:40Z</time>
<desc>lat.=55.730919, lon.=26.244896, Alt.=162.755981m. Speed=5.400000m/h.</desc>
<speed>1.500000</speed>
</trkpt>
<trkpt lat="55.730904" lon="26.244877">
<ele>162.728638</ele>
<time>2010-07-18T07:51:41Z</time>
<desc>lat.=55.730904, lon.=26.244877, Alt.=162.728638m. Speed=7.812000m/h.</desc>
<speed>2.170000</speed>
</trkpt>
<trkpt lat="55.730896" lon="26.244846">
<ele>163.005981</ele>
<time>2010-07-18T07:51:42Z</time>
<desc>lat.=55.730896, lon.=26.244846, Alt.=163.005981m. Speed=7.272000m/h.</desc>
<speed>2.020000</speed>
</trkpt>
<trkpt lat="55.730881" lon="26.244808">
<ele>163.072388</ele>
<time>2010-07-18T07:51:43Z</time>
<desc>lat.=55.730881, lon.=26.244808, Alt.=163.072388m. Speed=9.396000m/h.</desc>
<speed>2.610000</speed>
</trkpt>
<trkpt lat="55.730869" lon="26.244772">
<ele>163.482544</ele>
<time>2010-07-18T07:51:44Z</time>
<desc>lat.=55.730869, lon.=26.244772, Alt.=163.482544m. Speed=8.928000m/h.</desc>
<speed>2.480000</speed>
</trkpt>
<trkpt lat="55.730858" lon="26.244732">
<ele>163.810669</ele>
<time>2010-07-18T07:51:45Z</time>
<desc>lat.=55.730858, lon.=26.244732, Alt.=163.810669m. Speed=10.476000m/h.</desc>
<speed>2.910000</speed>
</trkpt>
<trkpt lat="55.730843" lon="26.244678">
<ele>164.267700</ele>
<time>2010-07-18T07:51:46Z</time>
<desc>lat.=55.730843, lon.=26.244678, Alt.=164.267700m. Speed=10.836000m/h.</desc>
<speed>3.010000</speed>
</trkpt>
<trkpt lat="55.730831" lon="26.244640">
<ele>164.588013</ele>
<time>2010-07-18T07:51:47Z</time>
<desc>lat.=55.730831, lon.=26.244640, Alt.=164.588013m. Speed=8.244000m/h.</desc>
<speed>2.290000</speed>
</trkpt>
<trkpt lat="55.730824" lon="26.244614">
<ele>164.838013</ele>
<time>2010-07-18T07:51:48Z</time>
<desc>lat.=55.730824, lon.=26.244614, Alt.=164.838013m. Speed=6.048000m/h.</desc>
<speed>1.680000</speed>
</trkpt>
<trkpt lat="55.730824" lon="26.244591">
<ele>164.724731</ele>
<time>2010-07-18T07:51:49Z</time>
<desc>lat.=55.730824, lon.=26.244591, Alt.=164.724731m. Speed=6.192000m/h.</desc>
<speed>1.720000</speed>
</trkpt>
<trkpt lat="55.730820" lon="26.244574">
<ele>164.982544</ele>
<time>2010-07-18T07:51:50Z</time>
<desc>lat.=55.730820, lon.=26.244574, Alt.=164.982544m. Speed=3.996000m/h.</desc>
<speed>1.110000</speed>
</trkpt>
<trkpt lat="55.730820" lon="26.244530">
<ele>164.545044</ele>
<time>2010-07-18T07:51:51Z</time>
<desc>lat.=55.730820, lon.=26.244530, Alt.=164.545044m. Speed=5.472000m/h.</desc>
<speed>1.520000</speed>
</trkpt>
<trkpt lat="55.730812" lon="26.244499">
<ele>164.509888</ele>
<time>2010-07-18T07:51:52Z</time>
<desc>lat.=55.730812, lon.=26.244499, Alt.=164.509888m. Speed=5.940000m/h.</desc>
<speed>1.650000</speed>
</trkpt>
<trkpt lat="55.730804" lon="26.244421">
<ele>162.755981</ele>
<time>2010-07-18T07:51:53Z</time>
<desc>lat.=55.730804, lon.=26.244421, Alt.=162.755981m. Speed=4.680000m/h.</desc>
<speed>1.300000</speed>
</trkpt>
<trkpt lat="55.730785" lon="26.244400">
<ele>162.795044</ele>
<time>2010-07-18T07:51:54Z</time>
<desc>lat.=55.730785, lon.=26.244400, Alt.=162.795044m. Speed=6.120000m/h.</desc>
<speed>1.700000</speed>
</trkpt>
<trkpt lat="55.730778" lon="26.244368">
<ele>162.908325</ele>
<time>2010-07-18T07:51:55Z</time>
<desc>lat.=55.730778, lon.=26.244368, Alt.=162.908325m. Speed=8.280000m/h.</desc>
<speed>2.300000</speed>
</trkpt>
<trkpt lat="55.730766" lon="26.244341">
<ele>163.095825</ele>
<time>2010-07-18T07:51:56Z</time>
<desc>lat.=55.730766, lon.=26.244341, Alt.=163.095825m. Speed=6.840000m/h.</desc>
<speed>1.900000</speed>
</trkpt>
<trkpt lat="55.730759" lon="26.244307">
<ele>163.224731</ele>
<time>2010-07-18T07:51:57Z</time>
<desc>lat.=55.730759, lon.=26.244307, Alt.=163.224731m. Speed=8.964000m/h.</desc>
<speed>2.490000</speed>
</trkpt>
<trkpt lat="55.730747" lon="26.244265">
<ele>163.361450</ele>
<time>2010-07-18T07:51:58Z</time>
<desc>lat.=55.730747, lon.=26.244265, Alt.=163.361450m. Speed=10.620000m/h.</desc>
<speed>2.950000</speed>
</trkpt>
<trkpt lat="55.730728" lon="26.244217">
<ele>163.017700</ele>
<time>2010-07-18T07:51:59Z</time>
<desc>lat.=55.730728, lon.=26.244217, Alt.=163.017700m. Speed=11.988000m/h.</desc>
<speed>3.330000</speed>
</trkpt>
<trkpt lat="55.730709" lon="26.244173">
<ele>163.111450</ele>
<time>2010-07-18T07:52:00Z</time>
<desc>lat.=55.730709, lon.=26.244173, Alt.=163.111450m. Speed=12.060000m/h.</desc>
<speed>3.350000</speed>
</trkpt>
<trkpt lat="55.730690" lon="26.244131">
<ele>163.154419</ele>
<time>2010-07-18T07:52:01Z</time>
<desc>lat.=55.730690, lon.=26.244131, Alt.=163.154419m. Speed=12.636000m/h.</desc>
<speed>3.510000</speed>
</trkpt>
<trkpt lat="55.730663" lon="26.244087">
<ele>163.088013</ele>
<time>2010-07-18T07:52:02Z</time>
<desc>lat.=55.730663, lon.=26.244087, Alt.=163.088013m. Speed=12.996000m/h.</desc>
<speed>3.610000</speed>
</trkpt>
<trkpt lat="55.730633" lon="26.244041">
<ele>163.267700</ele>
<time>2010-07-18T07:52:03Z</time>
<desc>lat.=55.730633, lon.=26.244041, Alt.=163.267700m. Speed=14.976000m/h.</desc>
<speed>4.160000</speed>
</trkpt>
<trkpt lat="55.730598" lon="26.244005">
<ele>163.513794</ele>
<time>2010-07-18T07:52:04Z</time>
<desc>lat.=55.730598, lon.=26.244005, Alt.=163.513794m. Speed=18.035999m/h.</desc>
<speed>5.010000</speed>
</trkpt>
<trkpt lat="55.730560" lon="26.243973">
<ele>163.709106</ele>
<time>2010-07-18T07:52:05Z</time>
<desc>lat.=55.730560, lon.=26.243973, Alt.=163.709106m. Speed=18.900000m/h.</desc>
<speed>5.250000</speed>
</trkpt>
<trkpt lat="55.730515" lon="26.243946">
<ele>163.853638</ele>
<time>2010-07-18T07:52:06Z</time>
<desc>lat.=55.730515, lon.=26.243946, Alt.=163.853638m. Speed=20.520000m/h.</desc>
<speed>5.700000</speed>
</trkpt>
<trkpt lat="55.730457" lon="26.243919">
<ele>163.310669</ele>
<time>2010-07-18T07:52:07Z</time>
<desc>lat.=55.730457, lon.=26.243919, Alt.=163.310669m. Speed=19.224001m/h.</desc>
<speed>5.340000</speed>
</trkpt>
<trkpt lat="55.730408" lon="26.243898">
<ele>163.259888</ele>
<time>2010-07-18T07:52:08Z</time>
<desc>lat.=55.730408, lon.=26.243898, Alt.=163.259888m. Speed=15.768000m/h.</desc>
<speed>4.380000</speed>
</trkpt>
<trkpt lat="55.730370" lon="26.243881">
<ele>163.291138</ele>
<time>2010-07-18T07:52:09Z</time>
<desc>lat.=55.730370, lon.=26.243881, Alt.=163.291138m. Speed=14.832000m/h.</desc>
<speed>4.120000</speed>
</trkpt>
<trkpt lat="55.730328" lon="26.243868">
<ele>163.013794</ele>
<time>2010-07-18T07:52:10Z</time>
<desc>lat.=55.730328, lon.=26.243868, Alt.=163.013794m. Speed=15.048000m/h.</desc>
<speed>4.180000</speed>
</trkpt>
<trkpt lat="55.730278" lon="26.243868">
<ele>162.685669</ele>
<time>2010-07-18T07:52:11Z</time>
<desc>lat.=55.730278, lon.=26.243868, Alt.=162.685669m. Speed=17.712000m/h.</desc>
<speed>4.920000</speed>
</trkpt>
<trkpt lat="55.730209" lon="26.243900">
<ele>161.955200</ele>
<time>2010-07-18T07:52:12Z</time>
<desc>lat.=55.730209, lon.=26.243900, Alt.=161.955200m. Speed=20.520000m/h.</desc>
<speed>5.700000</speed>
</trkpt>
<trkpt lat="55.730145" lon="26.243942">
<ele>161.494263</ele>
<time>2010-07-18T07:52:13Z</time>
<desc>lat.=55.730145, lon.=26.243942, Alt.=161.494263m. Speed=20.087999m/h.</desc>
<speed>5.580000</speed>
</trkpt>
<trkpt lat="55.730091" lon="26.243969">
<ele>161.173950</ele>
<time>2010-07-18T07:52:14Z</time>
<desc>lat.=55.730091, lon.=26.243969, Alt.=161.173950m. Speed=18.143999m/h.</desc>
<speed>5.040000</speed>
</trkpt>
<trkpt lat="55.730030" lon="26.243984">
<ele>159.607544</ele>
<time>2010-07-18T07:52:15Z</time>
<desc>lat.=55.730030, lon.=26.243984, Alt.=159.607544m. Speed=14.076000m/h.</desc>
<speed>3.910000</speed>
</trkpt>
<trkpt lat="55.729996" lon="26.244003">
<ele>159.576294</ele>
<time>2010-07-18T07:52:16Z</time>
<desc>lat.=55.729996, lon.=26.244003, Alt.=159.576294m. Speed=12.528000m/h.</desc>
<speed>3.480000</speed>
</trkpt>
<trkpt lat="55.729965" lon="26.244017">
<ele>158.767700</ele>
<time>2010-07-18T07:52:17Z</time>
<desc>lat.=55.729965, lon.=26.244017, Alt.=158.767700m. Speed=11.592000m/h.</desc>
<speed>3.220000</speed>
</trkpt>
<trkpt lat="55.729935" lon="26.244028">
<ele>158.552856</ele>
<time>2010-07-18T07:52:18Z</time>
<desc>lat.=55.729935, lon.=26.244028, Alt.=158.552856m. Speed=11.412000m/h.</desc>
<speed>3.170000</speed>
</trkpt>
<trkpt lat="55.729893" lon="26.244019">
<ele>156.283325</ele>
<time>2010-07-18T07:52:19Z</time>
<desc>lat.=55.729893, lon.=26.244019, Alt.=156.283325m. Speed=11.520000m/h.</desc>
<speed>3.200000</speed>
</trkpt>
<trkpt lat="55.729862" lon="26.243980">
<ele>155.166138</ele>
<time>2010-07-18T07:52:20Z</time>
<desc>lat.=55.729862, lon.=26.243980, Alt.=155.166138m. Speed=9.108000m/h.</desc>
<speed>2.530000</speed>
</trkpt>
<trkpt lat="55.729847" lon="26.243952">
<ele>155.541138</ele>
<time>2010-07-18T07:52:21Z</time>
<desc>lat.=55.729847, lon.=26.243952, Alt.=155.541138m. Speed=8.856000m/h.</desc>
<speed>2.460000</speed>
</trkpt>
<trkpt lat="55.729832" lon="26.243925">
<ele>156.537231</ele>
<time>2010-07-18T07:52:22Z</time>
<desc>lat.=55.729832, lon.=26.243925, Alt.=156.537231m. Speed=8.712000m/h.</desc>
<speed>2.420000</speed>
</trkpt>
<trkpt lat="55.729805" lon="26.243889">
<ele>154.630981</ele>
<time>2010-07-18T07:52:23Z</time>
<desc>lat.=55.729805, lon.=26.243889, Alt.=154.630981m. Speed=7.740000m/h.</desc>
<speed>2.150000</speed>
</trkpt>
<trkpt lat="55.729778" lon="26.243856">
<ele>153.232544</ele>
<time>2010-07-18T07:52:24Z</time>
<desc>lat.=55.729778, lon.=26.243856, Alt.=153.232544m. Speed=5.616000m/h.</desc>
<speed>1.560000</speed>
</trkpt>
<trkpt lat="55.729759" lon="26.243828">
<ele>151.966919</ele>
<time>2010-07-18T07:52:25Z</time>
<desc>lat.=55.729759, lon.=26.243828, Alt.=151.966919m. Speed=4.068000m/h.</desc>
<speed>1.130000</speed>
</trkpt>
<trkpt lat="55.729744" lon="26.243784">
<ele>151.314575</ele>
<time>2010-07-18T07:52:26Z</time>
<desc>lat.=55.729744, lon.=26.243784, Alt.=151.314575m. Speed=2.556000m/h.</desc>
<speed>0.710000</speed>
</trkpt>
<trkpt lat="55.729733" lon="26.243753">
<ele>151.045044</ele>
<time>2010-07-18T07:52:27Z</time>
<desc>lat.=55.729733, lon.=26.243753, Alt.=151.045044m. Speed=2.916000m/h.</desc>
<speed>0.810000</speed>
</trkpt>
<trkpt lat="55.729733" lon="26.243729">
<ele>150.970825</ele>
<time>2010-07-18T07:52:28Z</time>
<desc>lat.=55.729733, lon.=26.243729, Alt.=150.970825m. Speed=3.996000m/h.</desc>
<speed>1.110000</speed>
</trkpt>
<trkpt lat="55.729729" lon="26.243710">
<ele>150.666138</ele>
<time>2010-07-18T07:52:29Z</time>
<desc>lat.=55.729729, lon.=26.243710, Alt.=150.666138m. Speed=3.780000m/h.</desc>
<speed>1.050000</speed>
</trkpt>
<trkpt lat="55.729717" lon="26.243690">
<ele>151.283325</ele>
<time>2010-07-18T07:52:30Z</time>
<desc>lat.=55.729717, lon.=26.243690, Alt.=151.283325m. Speed=3.204000m/h.</desc>
<speed>0.890000</speed>
</trkpt>
<trkpt lat="55.729706" lon="26.243677">
<ele>151.373169</ele>
<time>2010-07-18T07:52:31Z</time>
<desc>lat.=55.729706, lon.=26.243677, Alt.=151.373169m. Speed=2.628000m/h.</desc>
<speed>0.730000</speed>
</trkpt>
<trkpt lat="55.729687" lon="26.243675">
<ele>151.330200</ele>
<time>2010-07-18T07:52:32Z</time>
<desc>lat.=55.729687, lon.=26.243675, Alt.=151.330200m. Speed=2.124000m/h.</desc>
<speed>0.590000</speed>
</trkpt>
<trkpt lat="55.729671" lon="26.243668">
<ele>151.302856</ele>
<time>2010-07-18T07:52:33Z</time>
<desc>lat.=55.729671, lon.=26.243668, Alt.=151.302856m. Speed=2.628000m/h.</desc>
<speed>0.730000</speed>
</trkpt>
<trkpt lat="55.729664" lon="26.243666">
<ele>151.349731</ele>
<time>2010-07-18T07:52:34Z</time>
<desc>lat.=55.729664, lon.=26.243666, Alt.=151.349731m. Speed=2.340000m/h.</desc>
<speed>0.650000</speed>
</trkpt>
<trkpt lat="55.729656" lon="26.243666">
<ele>151.392700</ele>
<time>2010-07-18T07:52:35Z</time>
<desc>lat.=55.729656, lon.=26.243666, Alt.=151.392700m. Speed=3.276000m/h.</desc>
<speed>0.910000</speed>
</trkpt>
<trkpt lat="55.729649" lon="26.243666">
<ele>151.439575</ele>
<time>2010-07-18T07:52:36Z</time>
<desc>lat.=55.729649, lon.=26.243666, Alt.=151.439575m. Speed=3.420000m/h.</desc>
<speed>0.950000</speed>
</trkpt>
<trkpt lat="55.729641" lon="26.243668">
<ele>151.486450</ele>
<time>2010-07-18T07:52:37Z</time>
<desc>lat.=55.729641, lon.=26.243668, Alt.=151.486450m. Speed=2.448000m/h.</desc>
<speed>0.680000</speed>
</trkpt>
<trkpt lat="55.729633" lon="26.243666">
<ele>151.525513</ele>
<time>2010-07-18T07:52:38Z</time>
<desc>lat.=55.729633, lon.=26.243666, Alt.=151.525513m. Speed=2.196000m/h.</desc>
<speed>0.610000</speed>
</trkpt>
<trkpt lat="55.729630" lon="26.243670">
<ele>151.564575</ele>
<time>2010-07-18T07:52:39Z</time>
<desc>lat.=55.729630, lon.=26.243670, Alt.=151.564575m. Speed=1.836000m/h.</desc>
<speed>0.510000</speed>
</trkpt>
<trkpt lat="55.729626" lon="26.243671">
<ele>151.611450</ele>
<time>2010-07-18T07:52:40Z</time>
<desc>lat.=55.729626, lon.=26.243671, Alt.=151.611450m. Speed=1.152000m/h.</desc>
<speed>0.320000</speed>
</trkpt>
<trkpt lat="55.729622" lon="26.243677">
<ele>151.654419</ele>
<time>2010-07-18T07:52:41Z</time>
<desc>lat.=55.729622, lon.=26.243677, Alt.=151.654419m. Speed=0.396000m/h.</desc>
<speed>0.110000</speed>
</trkpt>
<trkpt lat="55.729622" lon="26.243679">
<ele>151.681763</ele>
<time>2010-07-18T07:52:42Z</time>
<desc>lat.=55.729622, lon.=26.243679, Alt.=151.681763m. Speed=0.648000m/h.</desc>
<speed>0.180000</speed>
</trkpt>
<trkpt lat="55.729622" lon="26.243681">
<ele>151.720825</ele>
<time>2010-07-18T07:52:43Z</time>
<desc>lat.=55.729622, lon.=26.243681, Alt.=151.720825m. Speed=0.756000m/h.</desc>
<speed>0.210000</speed>
</trkpt>
<trkpt lat="55.729622" lon="26.243685">
<ele>151.748169</ele>
<time>2010-07-18T07:52:44Z</time>
<desc>lat.=55.729622, lon.=26.243685, Alt.=151.748169m. Speed=0.828000m/h.</desc>
<speed>0.230000</speed>
</trkpt>
<trkpt lat="55.729622" lon="26.243689">
<ele>151.775513</ele>
<time>2010-07-18T07:52:45Z</time>
<desc>lat.=55.729622, lon.=26.243689, Alt.=151.775513m. Speed=0.648000m/h.</desc>
<speed>0.180000</speed>
</trkpt>
<trkpt lat="55.729618" lon="26.243690">
<ele>151.791138</ele>
<time>2010-07-18T07:52:46Z</time>
<desc>lat.=55.729618, lon.=26.243690, Alt.=151.791138m. Speed=0.756000m/h.</desc>
<speed>0.210000</speed>
</trkpt>
<trkpt lat="55.729618" lon="26.243692">
<ele>151.810669</ele>
<time>2010-07-18T07:52:47Z</time>
<desc>lat.=55.729618, lon.=26.243692, Alt.=151.810669m. Speed=1.188000m/h.</desc>
<speed>0.330000</speed>
</trkpt>
<trkpt lat="55.729618" lon="26.243698">
<ele>151.830200</ele>
<time>2010-07-18T07:52:48Z</time>
<desc>lat.=55.729618, lon.=26.243698, Alt.=151.830200m. Speed=0.612000m/h.</desc>
<speed>0.170000</speed>
</trkpt>
<trkpt lat="55.729614" lon="26.243700">
<ele>151.841919</ele>
<time>2010-07-18T07:52:49Z</time>
<desc>lat.=55.729614, lon.=26.243700, Alt.=151.841919m. Speed=0.180000m/h.</desc>
<speed>0.050000</speed>
</trkpt>
<trkpt lat="55.729614" lon="26.243700">
<ele>151.853638</ele>
<time>2010-07-18T07:52:50Z</time>
<desc>lat.=55.729614, lon.=26.243700, Alt.=151.853638m. Speed=0.612000m/h.</desc>
<speed>0.170000</speed>
</trkpt>
<trkpt lat="55.729614" lon="26.243704">
<ele>151.865356</ele>
<time>2010-07-18T07:52:51Z</time>
<desc>lat.=55.729614, lon.=26.243704, Alt.=151.865356m. Speed=0.612000m/h.</desc>
<speed>0.170000</speed>
</trkpt>
<trkpt lat="55.729610" lon="26.243704">
<ele>151.869263</ele>
<time>2010-07-18T07:52:52Z</time>
<desc>lat.=55.729610, lon.=26.243704, Alt.=151.869263m. Speed=0.684000m/h.</desc>
<speed>0.190000</speed>
</trkpt>
<trkpt lat="55.729610" lon="26.243706">
<ele>151.873169</ele>
<time>2010-07-18T07:52:53Z</time>
<desc>lat.=55.729610, lon.=26.243706, Alt.=151.873169m. Speed=0.648000m/h.</desc>
<speed>0.180000</speed>
</trkpt>
<trkpt lat="55.729607" lon="26.243706">
<ele>151.900513</ele>
<time>2010-07-18T07:52:54Z</time>
<desc>lat.=55.729607, lon.=26.243706, Alt.=151.900513m. Speed=0.360000m/h.</desc>
<speed>0.100000</speed>
</trkpt>
<trkpt lat="55.729607" lon="26.243706">
<ele>151.912231</ele>
<time>2010-07-18T07:52:55Z</time>
<desc>lat.=55.729607, lon.=26.243706, Alt.=151.912231m. Speed=0.684000m/h.</desc>
<speed>0.190000</speed>
</trkpt>
<trkpt lat="55.729607" lon="26.243708">
<ele>151.927856</ele>
<time>2010-07-18T07:52:56Z</time>
<desc>lat.=55.729607, lon.=26.243708, Alt.=151.927856m. Speed=0.648000m/h.</desc>
<speed>0.180000</speed>
</trkpt>
<trkpt lat="55.729607" lon="26.243710">
<ele>151.939575</ele>
<time>2010-07-18T07:52:57Z</time>
<desc>lat.=55.729607, lon.=26.243710, Alt.=151.939575m. Speed=0.468000m/h.</desc>
<speed>0.130000</speed>
</trkpt>
<trkpt lat="55.729603" lon="26.243711">
<ele>151.935669</ele>
<time>2010-07-18T07:52:58Z</time>
<desc>lat.=55.729603, lon.=26.243711, Alt.=151.935669m. Speed=0.468000m/h.</desc>
<speed>0.130000</speed>
</trkpt>
<trkpt lat="55.729603" lon="26.243713">
<ele>151.935669</ele>
<time>2010-07-18T07:52:59Z</time>
<desc>lat.=55.729603, lon.=26.243713, Alt.=151.935669m. Speed=0.360000m/h.</desc>
<speed>0.100000</speed>
</trkpt>
<trkpt lat="55.729603" lon="26.243713">
<ele>151.935669</ele>
<time>2010-07-18T07:53:00Z</time>
<desc>lat.=55.729603, lon.=26.243713, Alt.=151.935669m. Speed=0.396000m/h.</desc>
<speed>0.110000</speed>
</trkpt>
<trkpt lat="55.729603" lon="26.243713">
<ele>151.935669</ele>
<time>2010-07-18T07:53:01Z</time>
<desc>lat.=55.729603, lon.=26.243713, Alt.=151.935669m. Speed=0.432000m/h.</desc>
<speed>0.120000</speed>
</trkpt>
<trkpt lat="55.729599" lon="26.243713">
<ele>151.935669</ele>
<time>2010-07-18T07:53:02Z</time>
<desc>lat.=55.729599, lon.=26.243713, Alt.=151.935669m. Speed=0.720000m/h.</desc>
<speed>0.200000</speed>
</trkpt>
<trkpt lat="55.729599" lon="26.243710">
<ele>151.927856</ele>
<time>2010-07-18T07:53:03Z</time>
<desc>lat.=55.729599, lon.=26.243710, Alt.=151.927856m. Speed=0.648000m/h.</desc>
<speed>0.180000</speed>
</trkpt>
<trkpt lat="55.729599" lon="26.243708">
<ele>151.927856</ele>
<time>2010-07-18T07:53:04Z</time>
<desc>lat.=55.729599, lon.=26.243708, Alt.=151.927856m. Speed=0.540000m/h.</desc>
<speed>0.150000</speed>
</trkpt>
<trkpt lat="55.729595" lon="26.243710">
<ele>151.931763</ele>
<time>2010-07-18T07:53:05Z</time>
<desc>lat.=55.729595, lon.=26.243710, Alt.=151.931763m. Speed=0.612000m/h.</desc>
<speed>0.170000</speed>
</trkpt>
<trkpt lat="55.729595" lon="26.243710">
<ele>151.935669</ele>
<time>2010-07-18T07:53:06Z</time>
<desc>lat.=55.729595, lon.=26.243710, Alt.=151.935669m. Speed=0.432000m/h.</desc>
<speed>0.120000</speed>
</trkpt>
<trkpt lat="55.729595" lon="26.243711">
<ele>151.943481</ele>
<time>2010-07-18T07:53:07Z</time>
<desc>lat.=55.729595, lon.=26.243711, Alt.=151.943481m. Speed=0.648000m/h.</desc>
<speed>0.180000</speed>
</trkpt>
<trkpt lat="55.729591" lon="26.243715">
<ele>151.955200</ele>
<time>2010-07-18T07:53:08Z</time>
<desc>lat.=55.729591, lon.=26.243715, Alt.=151.955200m. Speed=0.972000m/h.</desc>
<speed>0.270000</speed>
</trkpt>
<trkpt lat="55.729591" lon="26.243717">
<ele>151.963013</ele>
<time>2010-07-18T07:53:09Z</time>
<desc>lat.=55.729591, lon.=26.243717, Alt.=151.963013m. Speed=0.144000m/h.</desc>
<speed>0.040000</speed>
</trkpt>
<trkpt lat="55.729591" lon="26.243717">
<ele>151.978638</ele>
<time>2010-07-18T07:53:10Z</time>
<desc>lat.=55.729591, lon.=26.243717, Alt.=151.978638m. Speed=0.108000m/h.</desc>
<speed>0.030000</speed>
</trkpt>
<trkpt lat="55.729591" lon="26.243717">
<ele>151.998169</ele>
<time>2010-07-18T07:53:11Z</time>
<desc>lat.=55.729591, lon.=26.243717, Alt.=151.998169m. Speed=0.144000m/h.</desc>
<speed>0.040000</speed>
</trkpt>
<trkpt lat="55.729591" lon="26.243717">
<ele>152.009888</ele>
<time>2010-07-18T07:53:12Z</time>
<desc>lat.=55.729591, lon.=26.243717, Alt.=152.009888m. Speed=0.000000m/h.</desc>
<speed>0.000000</speed>
</trkpt>
<trkpt lat="55.729591" lon="26.243717">
<ele>152.021606</ele>
<time>2010-07-18T07:53:13Z</time>
<desc>lat.=55.729591, lon.=26.243717, Alt.=152.021606m. Speed=0.036000m/h.</desc>
<speed>0.010000</speed>
</trkpt>
<trkpt lat="55.729591" lon="26.243717">
<ele>152.033325</ele>
<time>2010-07-18T07:53:14Z</time>
<desc>lat.=55.729591, lon.=26.243717, Alt.=152.033325m. Speed=0.108000m/h.</desc>
<speed>0.030000</speed>
</trkpt>
<trkpt lat="55.729591" lon="26.243717">
<ele>152.025513</ele>
<time>2010-07-18T07:53:15Z</time>
<desc>lat.=55.729591, lon.=26.243717, Alt.=152.025513m. Speed=0.036000m/h.</desc>
<speed>0.010000</speed>
</trkpt>
<trkpt lat="55.729591" lon="26.243717">
<ele>152.021606</ele>
<time>2010-07-18T07:53:16Z</time>
<desc>lat.=55.729591, lon.=26.243717, Alt.=152.021606m. Speed=0.036000m/h.</desc>
<speed>0.010000</speed>
</trkpt>
<trkpt lat="55.729591" lon="26.243717">
<ele>152.017700</ele>
<time>2010-07-18T07:53:17Z</time>
<desc>lat.=55.729591, lon.=26.243717, Alt.=152.017700m. Speed=0.000000m/h.</desc>
<speed>0.000000</speed>
</trkpt>
<trkpt lat="55.729591" lon="26.243717">
<ele>152.017700</ele>
<time>2010-07-18T07:53:18Z</time>
<desc>lat.=55.729591, lon.=26.243717, Alt.=152.017700m. Speed=0.036000m/h.</desc>
<speed>0.010000</speed>
</trkpt>
<trkpt lat="55.729591" lon="26.243717">
<ele>152.017700</ele>
<time>2010-07-18T07:53:19Z</time>
<desc>lat.=55.729591, lon.=26.243717, Alt.=152.017700m. Speed=0.036000m/h.</desc>
<speed>0.010000</speed>
</trkpt>
<trkpt lat="55.729591" lon="26.243717">
<ele>152.013794</ele>
<time>2010-07-18T07:53:20Z</time>
<desc>lat.=55.729591, lon.=26.243717, Alt.=152.013794m. Speed=0.108000m/h.</desc>
<speed>0.030000</speed>
</trkpt>
<trkpt lat="55.729591" lon="26.243717">
<ele>152.017700</ele>
<time>2010-07-18T07:53:21Z</time>
<desc>lat.=55.729591, lon.=26.243717, Alt.=152.017700m. Speed=0.036000m/h.</desc>
<speed>0.010000</speed>
</trkpt>
<trkpt lat="55.729591" lon="26.243717">
<ele>152.025513</ele>
<time>2010-07-18T07:53:22Z</time>
<desc>lat.=55.729591, lon.=26.243717, Alt.=152.025513m. Speed=0.000000m/h.</desc>
<speed>0.000000</speed>
</trkpt>
<trkpt lat="55.729591" lon="26.243717">
<ele>152.029419</ele>
<time>2010-07-18T07:53:23Z</time>
<desc>lat.=55.729591, lon.=26.243717, Alt.=152.029419m. Speed=0.000000m/h.</desc>
<speed>0.000000</speed>
</trkpt>
<trkpt lat="55.729591" lon="26.243717">
<ele>152.033325</ele>
<time>2010-07-18T07:53:24Z</time>
<desc>lat.=55.729591, lon.=26.243717, Alt.=152.033325m. Speed=0.036000m/h.</desc>
<speed>0.010000</speed>
</trkpt>
<trkpt lat="55.729588" lon="26.243719">
<ele>152.041138</ele>
<time>2010-07-18T07:53:25Z</time>
<desc>lat.=55.729588, lon.=26.243719, Alt.=152.041138m. Speed=0.072000m/h.</desc>
<speed>0.020000</speed>
</trkpt>
<trkpt lat="55.729588" lon="26.243719">
<ele>152.052856</ele>
<time>2010-07-18T07:53:26Z</time>
<desc>lat.=55.729588, lon.=26.243719, Alt.=152.052856m. Speed=0.000000m/h.</desc>
<speed>0.000000</speed>
</trkpt>
<trkpt lat="55.729588" lon="26.243719">
<ele>152.060669</ele>
<time>2010-07-18T07:53:27Z</time>
<desc>lat.=55.729588, lon.=26.243719, Alt.=152.060669m. Speed=0.036000m/h.</desc>
<speed>0.010000</speed>
</trkpt>
<trkpt lat="55.729588" lon="26.243719">
<ele>152.072388</ele>
<time>2010-07-18T07:53:28Z</time>
<desc>lat.=55.729588, lon.=26.243719, Alt.=152.072388m. Speed=0.036000m/h.</desc>
<speed>0.010000</speed>
</trkpt>
<trkpt lat="55.729588" lon="26.243719">
<ele>152.076294</ele>
<time>2010-07-18T07:53:29Z</time>
<desc>lat.=55.729588, lon.=26.243719, Alt.=152.076294m. Speed=0.000000m/h.</desc>
<speed>0.000000</speed>
</trkpt>
<trkpt lat="55.729588" lon="26.243719">
<ele>152.088013</ele>
<time>2010-07-18T07:53:30Z</time>
<desc>lat.=55.729588, lon.=26.243719, Alt.=152.088013m. Speed=0.036000m/h.</desc>
<speed>0.010000</speed>
</trkpt>
<trkpt lat="55.729588" lon="26.243719">
<ele>152.099731</ele>
<time>2010-07-18T07:53:31Z</time>
<desc>lat.=55.729588, lon.=26.243719, Alt.=152.099731m. Speed=0.000000m/h.</desc>
<speed>0.000000</speed>
</trkpt>
<trkpt lat="55.729588" lon="26.243719">
<ele>152.107544</ele>
<time>2010-07-18T07:53:32Z</time>
<desc>lat.=55.729588, lon.=26.243719, Alt.=152.107544m. Speed=0.072000m/h.</desc>
<speed>0.020000</speed>
</trkpt>
<trkpt lat="55.729588" lon="26.243721">
<ele>152.123169</ele>
<time>2010-07-18T07:53:33Z</time>
<desc>lat.=55.729588, lon.=26.243721, Alt.=152.123169m. Speed=0.072000m/h.</desc>
<speed>0.020000</speed>
</trkpt>
<trkpt lat="55.729588" lon="26.243721">
<ele>152.127075</ele>
<time>2010-07-18T07:53:34Z</time>
<desc>lat.=55.729588, lon.=26.243721, Alt.=152.127075m. Speed=0.036000m/h.</desc>
<speed>0.010000</speed>
</trkpt>
<trkpt lat="55.729588" lon="26.243721">
<ele>152.130981</ele>
<time>2010-07-18T07:53:35Z</time>
<desc>lat.=55.729588, lon.=26.243721, Alt.=152.130981m. Speed=0.000000m/h.</desc>
<speed>0.000000</speed>
</trkpt>
<trkpt lat="55.729588" lon="26.243721">
<ele>152.142700</ele>
<time>2010-07-18T07:53:36Z</time>
<desc>lat.=55.729588, lon.=26.243721, Alt.=152.142700m. Speed=0.036000m/h.</desc>
<speed>0.010000</speed>
</trkpt>
<trkpt lat="55.729588" lon="26.243721">
<ele>152.146606</ele>
<time>2010-07-18T07:53:37Z</time>
<desc>lat.=55.729588, lon.=26.243721, Alt.=152.146606m. Speed=0.036000m/h.</desc>
<speed>0.010000</speed>
</trkpt>
<trkpt lat="55.729588" lon="26.243721">
<ele>152.150513</ele>
<time>2010-07-18T07:53:38Z</time>
<desc>lat.=55.729588, lon.=26.243721, Alt.=152.150513m. Speed=0.000000m/h.</desc>
<speed>0.000000</speed>
</trkpt>
<trkpt lat="55.729588" lon="26.243721">
<ele>152.162231</ele>
<time>2010-07-18T07:53:39Z</time>
<desc>lat.=55.729588, lon.=26.243721, Alt.=152.162231m. Speed=0.072000m/h.</desc>
<speed>0.020000</speed>
</trkpt>
<trkpt lat="55.729588" lon="26.243721">
<ele>152.170044</ele>
<time>2010-07-18T07:53:40Z</time>
<desc>lat.=55.729588, lon.=26.243721, Alt.=152.170044m. Speed=0.108000m/h.</desc>
<speed>0.030000</speed>
</trkpt>
<trkpt lat="55.729588" lon="26.243721">
<ele>152.170044</ele>
<time>2010-07-18T07:53:41Z</time>
<desc>lat.=55.729588, lon.=26.243721, Alt.=152.170044m. Speed=0.000000m/h.</desc>
<speed>0.000000</speed>
</trkpt>
<trkpt lat="55.729588" lon="26.243721">
<ele>152.166138</ele>
<time>2010-07-18T07:53:42Z</time>
<desc>lat.=55.729588, lon.=26.243721, Alt.=152.166138m. Speed=0.072000m/h.</desc>
<speed>0.020000</speed>
</trkpt>
<trkpt lat="55.729588" lon="26.243721">
<ele>152.166138</ele>
<time>2010-07-18T07:53:43Z</time>
<desc>lat.=55.729588, lon.=26.243721, Alt.=152.166138m. Speed=0.036000m/h.</desc>
<speed>0.010000</speed>
</trkpt>
<trkpt lat="55.729588" lon="26.243721">
<ele>152.166138</ele>
<time>2010-07-18T07:53:44Z</time>
<desc>lat.=55.729588, lon.=26.243721, Alt.=152.166138m. Speed=0.072000m/h.</desc>
<speed>0.020000</speed>
</trkpt>
<trkpt lat="55.729588" lon="26.243721">
<ele>152.170044</ele>
<time>2010-07-18T07:53:45Z</time>
<desc>lat.=55.729588, lon.=26.243721, Alt.=152.170044m. Speed=0.072000m/h.</desc>
<speed>0.020000</speed>
</trkpt>
<trkpt lat="55.729588" lon="26.243721">
<ele>152.173950</ele>
<time>2010-07-18T07:53:46Z</time>
<desc>lat.=55.729588, lon.=26.243721, Alt.=152.173950m. Speed=0.072000m/h.</desc>
<speed>0.020000</speed>
</trkpt>
<trkpt lat="55.729588" lon="26.243721">
<ele>152.181763</ele>
<time>2010-07-18T07:53:47Z</time>
<desc>lat.=55.729588, lon.=26.243721, Alt.=152.181763m. Speed=0.000000m/h.</desc>
<speed>0.000000</speed>
</trkpt>
<trkpt lat="55.729588" lon="26.243721">
<ele>152.193481</ele>
<time>2010-07-18T07:53:48Z</time>
<desc>lat.=55.729588, lon.=26.243721, Alt.=152.193481m. Speed=0.072000m/h.</desc>
<speed>0.020000</speed>
</trkpt>
<trkpt lat="55.729588" lon="26.243723">
<ele>152.209106</ele>
<time>2010-07-18T07:53:49Z</time>
<desc>lat.=55.729588, lon.=26.243723, Alt.=152.209106m. Speed=0.108000m/h.</desc>
<speed>0.030000</speed>
</trkpt>
<trkpt lat="55.729588" lon="26.243723">
<ele>152.224731</ele>
<time>2010-07-18T07:53:50Z</time>
<desc>lat.=55.729588, lon.=26.243723, Alt.=152.224731m. Speed=0.036000m/h.</desc>
<speed>0.010000</speed>
</trkpt>
<trkpt lat="55.729588" lon="26.243723">
<ele>152.232544</ele>
<time>2010-07-18T07:53:51Z</time>
<desc>lat.=55.729588, lon.=26.243723, Alt.=152.232544m. Speed=0.072000m/h.</desc>
<speed>0.020000</speed>
</trkpt>
<trkpt lat="55.729588" lon="26.243723">
<ele>152.244263</ele>
<time>2010-07-18T07:53:52Z</time>
<desc>lat.=55.729588, lon.=26.243723, Alt.=152.244263m. Speed=0.072000m/h.</desc>
<speed>0.020000</speed>
</trkpt>
<trkpt lat="55.729588" lon="26.243723">
<ele>152.252075</ele>
<time>2010-07-18T07:53:53Z</time>
<desc>lat.=55.729588, lon.=26.243723, Alt.=152.252075m. Speed=0.072000m/h.</desc>
<speed>0.020000</speed>
</trkpt>
<trkpt lat="55.729588" lon="26.243723">
<ele>152.263794</ele>
<time>2010-07-18T07:53:54Z</time>
<desc>lat.=55.729588, lon.=26.243723, Alt.=152.263794m. Speed=0.072000m/h.</desc>
<speed>0.020000</speed>
</trkpt>
<trkpt lat="55.729588" lon="26.243723">
<ele>152.275513</ele>
<time>2010-07-18T07:53:55Z</time>
<desc>lat.=55.729588, lon.=26.243723, Alt.=152.275513m. Speed=0.072000m/h.</desc>
<speed>0.020000</speed>
</trkpt>
<trkpt lat="55.729588" lon="26.243723">
<ele>152.283325</ele>
<time>2010-07-18T07:53:56Z</time>
<desc>lat.=55.729588, lon.=26.243723, Alt.=152.283325m. Speed=0.036000m/h.</desc>
<speed>0.010000</speed>
</trkpt>
<trkpt lat="55.729588" lon="26.243723">
<ele>152.287231</ele>
<time>2010-07-18T07:53:57Z</time>
<desc>lat.=55.729588, lon.=26.243723, Alt.=152.287231m. Speed=0.036000m/h.</desc>
<speed>0.010000</speed>
</trkpt>
<trkpt lat="55.729588" lon="26.243723">
<ele>152.291138</ele>
<time>2010-07-18T07:53:58Z</time>
<desc>lat.=55.729588, lon.=26.243723, Alt.=152.291138m. Speed=0.072000m/h.</desc>
<speed>0.020000</speed>
</trkpt>
<trkpt lat="55.729588" lon="26.243725">
<ele>152.295044</ele>
<time>2010-07-18T07:53:59Z</time>
<desc>lat.=55.729588, lon.=26.243725, Alt.=152.295044m. Speed=0.036000m/h.</desc>
<speed>0.010000</speed>
</trkpt>
<trkpt lat="55.729588" lon="26.243725">
<ele>152.298950</ele>
<time>2010-07-18T07:54:00Z</time>
<desc>lat.=55.729588, lon.=26.243725, Alt.=152.298950m. Speed=0.036000m/h.</desc>
<speed>0.010000</speed>
</trkpt>
<trkpt lat="55.729588" lon="26.243725">
<ele>152.302856</ele>
<time>2010-07-18T07:54:01Z</time>
<desc>lat.=55.729588, lon.=26.243725, Alt.=152.302856m. Speed=0.072000m/h.</desc>
<speed>0.020000</speed>
</trkpt>
<trkpt lat="55.729588" lon="26.243725">
<ele>152.310669</ele>
<time>2010-07-18T07:54:02Z</time>
<desc>lat.=55.729588, lon.=26.243725, Alt.=152.310669m. Speed=0.072000m/h.</desc>
<speed>0.020000</speed>
</trkpt>
<trkpt lat="55.729588" lon="26.243725">
<ele>152.322388</ele>
<time>2010-07-18T07:54:03Z</time>
<desc>lat.=55.729588, lon.=26.243725, Alt.=152.322388m. Speed=0.108000m/h.</desc>
<speed>0.030000</speed>
</trkpt>
<trkpt lat="55.729588" lon="26.243727">
<ele>152.338013</ele>
<time>2010-07-18T07:54:04Z</time>
<desc>lat.=55.729588, lon.=26.243727, Alt.=152.338013m. Speed=0.108000m/h.</desc>
<speed>0.030000</speed>
</trkpt>
<trkpt lat="55.729591" lon="26.243727">
<ele>152.349731</ele>
<time>2010-07-18T07:54:05Z</time>
<desc>lat.=55.729591, lon.=26.243727, Alt.=152.349731m. Speed=0.180000m/h.</desc>
<speed>0.050000</speed>
</trkpt>
<trkpt lat="55.729591" lon="26.243729">
<ele>152.369263</ele>
<time>2010-07-18T07:54:06Z</time>
<desc>lat.=55.729591, lon.=26.243729, Alt.=152.369263m. Speed=0.180000m/h.</desc>
<speed>0.050000</speed>
</trkpt>
<trkpt lat="55.729591" lon="26.243729">
<ele>152.388794</ele>
<time>2010-07-18T07:54:07Z</time>
<desc>lat.=55.729591, lon.=26.243729, Alt.=152.388794m. Speed=0.180000m/h.</desc>
<speed>0.050000</speed>
</trkpt>
<trkpt lat="55.729591" lon="26.243731">
<ele>152.408325</ele>
<time>2010-07-18T07:54:08Z</time>
<desc>lat.=55.729591, lon.=26.243731, Alt.=152.408325m. Speed=0.180000m/h.</desc>
<speed>0.050000</speed>
</trkpt>
<trkpt lat="55.729591" lon="26.243731">
<ele>152.431763</ele>
<time>2010-07-18T07:54:09Z</time>
<desc>lat.=55.729591, lon.=26.243731, Alt.=152.431763m. Speed=0.144000m/h.</desc>
<speed>0.040000</speed>
</trkpt>
<trkpt lat="55.729591" lon="26.243731">
<ele>152.463013</ele>
<time>2010-07-18T07:54:10Z</time>
<desc>lat.=55.729591, lon.=26.243731, Alt.=152.463013m. Speed=0.108000m/h.</desc>
<speed>0.030000</speed>
</trkpt>
<trkpt lat="55.729591" lon="26.243732">
<ele>152.498169</ele>
<time>2010-07-18T07:54:11Z</time>
<desc>lat.=55.729591, lon.=26.243732, Alt.=152.498169m. Speed=0.144000m/h.</desc>
<speed>0.040000</speed>
</trkpt>
<trkpt lat="55.729591" lon="26.243732">
<ele>152.541138</ele>
<time>2010-07-18T07:54:12Z</time>
<desc>lat.=55.729591, lon.=26.243732, Alt.=152.541138m. Speed=0.216000m/h.</desc>
<speed>0.060000</speed>
</trkpt>
<trkpt lat="55.729591" lon="26.243734">
<ele>152.584106</ele>
<time>2010-07-18T07:54:13Z</time>
<desc>lat.=55.729591, lon.=26.243734, Alt.=152.584106m. Speed=0.180000m/h.</desc>
<speed>0.050000</speed>
</trkpt>
<trkpt lat="55.729591" lon="26.243734">
<ele>152.627075</ele>
<time>2010-07-18T07:54:14Z</time>
<desc>lat.=55.729591, lon.=26.243734, Alt.=152.627075m. Speed=0.252000m/h.</desc>
<speed>0.070000</speed>
</trkpt>
<trkpt lat="55.729591" lon="26.243736">
<ele>152.670044</ele>
<time>2010-07-18T07:54:15Z</time>
<desc>lat.=55.729591, lon.=26.243736, Alt.=152.670044m. Speed=0.216000m/h.</desc>
<speed>0.060000</speed>
</trkpt>
<trkpt lat="55.729591" lon="26.243738">
<ele>152.716919</ele>
<time>2010-07-18T07:54:16Z</time>
<desc>lat.=55.729591, lon.=26.243738, Alt.=152.716919m. Speed=0.324000m/h.</desc>
<speed>0.090000</speed>
</trkpt>
<trkpt lat="55.729591" lon="26.243738">
<ele>152.767700</ele>
<time>2010-07-18T07:54:17Z</time>
<desc>lat.=55.729591, lon.=26.243738, Alt.=152.767700m. Speed=0.360000m/h.</desc>
<speed>0.100000</speed>
</trkpt>
<trkpt lat="55.729591" lon="26.243740">
<ele>152.822388</ele>
<time>2010-07-18T07:54:18Z</time>
<desc>lat.=55.729591, lon.=26.243740, Alt.=152.822388m. Speed=0.288000m/h.</desc>
<speed>0.080000</speed>
</trkpt>
<trkpt lat="55.729591" lon="26.243742">
<ele>152.877075</ele>
<time>2010-07-18T07:54:19Z</time>
<desc>lat.=55.729591, lon.=26.243742, Alt.=152.877075m. Speed=0.324000m/h.</desc>
<speed>0.090000</speed>
</trkpt>
<trkpt lat="55.729591" lon="26.243744">
<ele>152.927856</ele>
<time>2010-07-18T07:54:20Z</time>
<desc>lat.=55.729591, lon.=26.243744, Alt.=152.927856m. Speed=0.216000m/h.</desc>
<speed>0.060000</speed>
</trkpt>
<trkpt lat="55.729591" lon="26.243744">
<ele>152.982544</ele>
<time>2010-07-18T07:54:21Z</time>
<desc>lat.=55.729591, lon.=26.243744, Alt.=152.982544m. Speed=0.180000m/h.</desc>
<speed>0.050000</speed>
</trkpt>
<trkpt lat="55.729591" lon="26.243746">
<ele>153.037231</ele>
<time>2010-07-18T07:54:22Z</time>
<desc>lat.=55.729591, lon.=26.243746, Alt.=153.037231m. Speed=0.180000m/h.</desc>
<speed>0.050000</speed>
</trkpt>
<trkpt lat="55.729591" lon="26.243746">
<ele>153.095825</ele>
<time>2010-07-18T07:54:23Z</time>
<desc>lat.=55.729591, lon.=26.243746, Alt.=153.095825m. Speed=0.180000m/h.</desc>
<speed>0.050000</speed>
</trkpt>
<trkpt lat="55.729591" lon="26.243748">
<ele>153.154419</ele>
<time>2010-07-18T07:54:24Z</time>
<desc>lat.=55.729591, lon.=26.243748, Alt.=153.154419m. Speed=0.180000m/h.</desc>
<speed>0.050000</speed>
</trkpt>
<trkpt lat="55.729591" lon="26.243750">
<ele>153.209106</ele>
<time>2010-07-18T07:54:25Z</time>
<desc>lat.=55.729591, lon.=26.243750, Alt.=153.209106m. Speed=0.180000m/h.</desc>
<speed>0.050000</speed>
</trkpt>
<trkpt lat="55.729591" lon="26.243750">
<ele>153.263794</ele>
<time>2010-07-18T07:54:26Z</time>
<desc>lat.=55.729591, lon.=26.243750, Alt.=153.263794m. Speed=0.180000m/h.</desc>
<speed>0.050000</speed>
</trkpt>
<trkpt lat="55.729591" lon="26.243750">
<ele>153.318481</ele>
<time>2010-07-18T07:54:27Z</time>
<desc>lat.=55.729591, lon.=26.243750, Alt.=153.318481m. Speed=0.216000m/h.</desc>
<speed>0.060000</speed>
</trkpt>
<trkpt lat="55.729591" lon="26.243752">
<ele>153.384888</ele>
<time>2010-07-18T07:54:28Z</time>
<desc>lat.=55.729591, lon.=26.243752, Alt.=153.384888m. Speed=0.252000m/h.</desc>
<speed>0.070000</speed>
</trkpt>
<trkpt lat="55.729591" lon="26.243753">
<ele>153.447388</ele>
<time>2010-07-18T07:54:29Z</time>
<desc>lat.=55.729591, lon.=26.243753, Alt.=153.447388m. Speed=0.252000m/h.</desc>
<speed>0.070000</speed>
</trkpt>
<trkpt lat="55.729588" lon="26.243753">
<ele>153.509888</ele>
<time>2010-07-18T07:54:30Z</time>
<desc>lat.=55.729588, lon.=26.243753, Alt.=153.509888m. Speed=0.324000m/h.</desc>
<speed>0.090000</speed>
</trkpt>
<trkpt lat="55.729591" lon="26.243755">
<ele>153.572388</ele>
<time>2010-07-18T07:54:31Z</time>
<desc>lat.=55.729591, lon.=26.243755, Alt.=153.572388m. Speed=0.252000m/h.</desc>
<speed>0.070000</speed>
</trkpt>
<trkpt lat="55.729591" lon="26.243757">
<ele>153.642700</ele>
<time>2010-07-18T07:54:32Z</time>
<desc>lat.=55.729591, lon.=26.243757, Alt.=153.642700m. Speed=0.360000m/h.</desc>
<speed>0.100000</speed>
</trkpt>
<trkpt lat="55.729591" lon="26.243759">
<ele>153.709106</ele>
<time>2010-07-18T07:54:33Z</time>
<desc>lat.=55.729591, lon.=26.243759, Alt.=153.709106m. Speed=0.252000m/h.</desc>
<speed>0.070000</speed>
</trkpt>
<trkpt lat="55.729591" lon="26.243759">
<ele>153.787231</ele>
<time>2010-07-18T07:54:34Z</time>
<desc>lat.=55.729591, lon.=26.243759, Alt.=153.787231m. Speed=0.324000m/h.</desc>
<speed>0.090000</speed>
</trkpt>
<trkpt lat="55.729591" lon="26.243761">
<ele>153.865356</ele>
<time>2010-07-18T07:54:35Z</time>
<desc>lat.=55.729591, lon.=26.243761, Alt.=153.865356m. Speed=0.396000m/h.</desc>
<speed>0.110000</speed>
</trkpt>
<trkpt lat="55.729591" lon="26.243763">
<ele>153.939575</ele>
<time>2010-07-18T07:54:36Z</time>
<desc>lat.=55.729591, lon.=26.243763, Alt.=153.939575m. Speed=0.396000m/h.</desc>
<speed>0.110000</speed>
</trkpt>
<trkpt lat="55.729591" lon="26.243765">
<ele>154.017700</ele>
<time>2010-07-18T07:54:37Z</time>
<desc>lat.=55.729591, lon.=26.243765, Alt.=154.017700m. Speed=0.288000m/h.</desc>
<speed>0.080000</speed>
</trkpt>
<trkpt lat="55.729591" lon="26.243767">
<ele>154.095825</ele>
<time>2010-07-18T07:54:38Z</time>
<desc>lat.=55.729591, lon.=26.243767, Alt.=154.095825m. Speed=0.324000m/h.</desc>
<speed>0.090000</speed>
</trkpt>
<trkpt lat="55.729591" lon="26.243769">
<ele>154.181763</ele>
<time>2010-07-18T07:54:39Z</time>
<desc>lat.=55.729591, lon.=26.243769, Alt.=154.181763m. Speed=0.396000m/h.</desc>
<speed>0.110000</speed>
</trkpt>
<trkpt lat="55.729591" lon="26.243771">
<ele>154.295044</ele>
<time>2010-07-18T07:54:40Z</time>
<desc>lat.=55.729591, lon.=26.243771, Alt.=154.295044m. Speed=0.576000m/h.</desc>
<speed>0.160000</speed>
</trkpt>
<trkpt lat="55.729591" lon="26.243774">
<ele>154.416138</ele>
<time>2010-07-18T07:54:41Z</time>
<desc>lat.=55.729591, lon.=26.243774, Alt.=154.416138m. Speed=0.576000m/h.</desc>
<speed>0.160000</speed>
</trkpt>
<trkpt lat="55.729591" lon="26.243776">
<ele>154.541138</ele>
<time>2010-07-18T07:54:42Z</time>
<desc>lat.=55.729591, lon.=26.243776, Alt.=154.541138m. Speed=0.612000m/h.</desc>
<speed>0.170000</speed>
</trkpt>
<trkpt lat="55.729591" lon="26.243778">
<ele>154.666138</ele>
<time>2010-07-18T07:54:43Z</time>
<desc>lat.=55.729591, lon.=26.243778, Alt.=154.666138m. Speed=0.936000m/h.</desc>
<speed>0.260000</speed>
</trkpt>
<trkpt lat="55.729591" lon="26.243784">
<ele>154.861450</ele>
<time>2010-07-18T07:54:44Z</time>
<desc>lat.=55.729591, lon.=26.243784, Alt.=154.861450m. Speed=0.864000m/h.</desc>
<speed>0.240000</speed>
</trkpt>
<trkpt lat="55.729591" lon="26.243788">
<ele>155.045044</ele>
<time>2010-07-18T07:54:45Z</time>
<desc>lat.=55.729591, lon.=26.243788, Alt.=155.045044m. Speed=0.648000m/h.</desc>
<speed>0.180000</speed>
</trkpt>
<trkpt lat="55.729591" lon="26.243790">
<ele>155.173950</ele>
<time>2010-07-18T07:54:46Z</time>
<desc>lat.=55.729591, lon.=26.243790, Alt.=155.173950m. Speed=0.396000m/h.</desc>
<speed>0.110000</speed>
</trkpt>
<trkpt lat="55.729591" lon="26.243792">
<ele>155.287231</ele>
<time>2010-07-18T07:54:47Z</time>
<desc>lat.=55.729591, lon.=26.243792, Alt.=155.287231m. Speed=0.576000m/h.</desc>
<speed>0.160000</speed>
</trkpt>
<trkpt lat="55.729591" lon="26.243793">
<ele>155.361450</ele>
<time>2010-07-18T07:54:48Z</time>
<desc>lat.=55.729591, lon.=26.243793, Alt.=155.361450m. Speed=0.504000m/h.</desc>
<speed>0.140000</speed>
</trkpt>
<trkpt lat="55.729591" lon="26.243797">
<ele>155.427856</ele>
<time>2010-07-18T07:54:49Z</time>
<desc>lat.=55.729591, lon.=26.243797, Alt.=155.427856m. Speed=1.116000m/h.</desc>
<speed>0.310000</speed>
</trkpt>
<trkpt lat="55.729595" lon="26.243801">
<ele>155.478638</ele>
<time>2010-07-18T07:54:50Z</time>
<desc>lat.=55.729595, lon.=26.243801, Alt.=155.478638m. Speed=0.864000m/h.</desc>
<speed>0.240000</speed>
</trkpt>
<trkpt lat="55.729595" lon="26.243805">
<ele>155.537231</ele>
<time>2010-07-18T07:54:51Z</time>
<desc>lat.=55.729595, lon.=26.243805, Alt.=155.537231m. Speed=0.540000m/h.</desc>
<speed>0.150000</speed>
</trkpt>
<trkpt lat="55.729595" lon="26.243807">
<ele>155.584106</ele>
<time>2010-07-18T07:54:52Z</time>
<desc>lat.=55.729595, lon.=26.243807, Alt.=155.584106m. Speed=0.684000m/h.</desc>
<speed>0.190000</speed>
</trkpt>
<trkpt lat="55.729595" lon="26.243811">
<ele>155.630981</ele>
<time>2010-07-18T07:54:53Z</time>
<desc>lat.=55.729595, lon.=26.243811, Alt.=155.630981m. Speed=0.540000m/h.</desc>
<speed>0.150000</speed>
</trkpt>
<trkpt lat="55.729595" lon="26.243813">
<ele>155.677856</ele>
<time>2010-07-18T07:54:54Z</time>
<desc>lat.=55.729595, lon.=26.243813, Alt.=155.677856m. Speed=0.468000m/h.</desc>
<speed>0.130000</speed>
</trkpt>
<trkpt lat="55.729595" lon="26.243814">
<ele>155.724731</ele>
<time>2010-07-18T07:54:55Z</time>
<desc>lat.=55.729595, lon.=26.243814, Alt.=155.724731m. Speed=0.144000m/h.</desc>
<speed>0.040000</speed>
</trkpt>
<trkpt lat="55.729595" lon="26.243814">
<ele>155.775513</ele>
<time>2010-07-18T07:54:56Z</time>
<desc>lat.=55.729595, lon.=26.243814, Alt.=155.775513m. Speed=0.468000m/h.</desc>
<speed>0.130000</speed>
</trkpt>
<trkpt lat="55.729595" lon="26.243816">
<ele>155.814575</ele>
<time>2010-07-18T07:54:57Z</time>
<desc>lat.=55.729595, lon.=26.243816, Alt.=155.814575m. Speed=0.288000m/h.</desc>
<speed>0.080000</speed>
</trkpt>
<trkpt lat="55.729595" lon="26.243818">
<ele>155.834106</ele>
<time>2010-07-18T07:54:58Z</time>
<desc>lat.=55.729595, lon.=26.243818, Alt.=155.834106m. Speed=0.288000m/h.</desc>
<speed>0.080000</speed>
</trkpt>
<trkpt lat="55.729595" lon="26.243820">
<ele>155.877075</ele>
<time>2010-07-18T07:54:59Z</time>
<desc>lat.=55.729595, lon.=26.243820, Alt.=155.877075m. Speed=0.180000m/h.</desc>
<speed>0.050000</speed>
</trkpt>
<trkpt lat="55.729595" lon="26.243820">
<ele>155.920044</ele>
<time>2010-07-18T07:55:00Z</time>
<desc>lat.=55.729595, lon.=26.243820, Alt.=155.920044m. Speed=0.036000m/h.</desc>
<speed>0.010000</speed>
</trkpt>
<trkpt lat="55.729595" lon="26.243822">
<ele>155.947388</ele>
<time>2010-07-18T07:55:01Z</time>
<desc>lat.=55.729595, lon.=26.243822, Alt.=155.947388m. Speed=0.108000m/h.</desc>
<speed>0.030000</speed>
</trkpt>
<trkpt lat="55.729595" lon="26.243822">
<ele>155.970825</ele>
<time>2010-07-18T07:55:02Z</time>
<desc>lat.=55.729595, lon.=26.243822, Alt.=155.970825m. Speed=0.576000m/h.</desc>
<speed>0.160000</speed>
</trkpt>
<trkpt lat="55.729591" lon="26.243824">
<ele>155.966919</ele>
<time>2010-07-18T07:55:03Z</time>
<desc>lat.=55.729591, lon.=26.243824, Alt.=155.966919m. Speed=0.036000m/h.</desc>
<speed>0.010000</speed>
</trkpt>
<trkpt lat="55.729591" lon="26.243824">
<ele>155.963013</ele>
<time>2010-07-18T07:55:04Z</time>
<desc>lat.=55.729591, lon.=26.243824, Alt.=155.963013m. Speed=0.468000m/h.</desc>
<speed>0.130000</speed>
</trkpt>
<trkpt lat="55.729591" lon="26.243826">
<ele>155.982544</ele>
<time>2010-07-18T07:55:05Z</time>
<desc>lat.=55.729591, lon.=26.243826, Alt.=155.982544m. Speed=0.468000m/h.</desc>
<speed>0.130000</speed>
</trkpt>
<trkpt lat="55.729591" lon="26.243828">
<ele>155.994263</ele>
<time>2010-07-18T07:55:06Z</time>
<desc>lat.=55.729591, lon.=26.243828, Alt.=155.994263m. Speed=0.324000m/h.</desc>
<speed>0.090000</speed>
</trkpt>
<trkpt lat="55.729591" lon="26.243830">
<ele>156.005981</ele>
<time>2010-07-18T07:55:07Z</time>
<desc>lat.=55.729591, lon.=26.243830, Alt.=156.005981m. Speed=0.288000m/h.</desc>
<speed>0.080000</speed>
</trkpt>
<trkpt lat="55.729591" lon="26.243830">
<ele>156.013794</ele>
<time>2010-07-18T07:55:08Z</time>
<desc>lat.=55.729591, lon.=26.243830, Alt.=156.013794m. Speed=0.432000m/h.</desc>
<speed>0.120000</speed>
</trkpt>
<trkpt lat="55.729588" lon="26.243832">
<ele>156.013794</ele>
<time>2010-07-18T07:55:09Z</time>
<desc>lat.=55.729588, lon.=26.243832, Alt.=156.013794m. Speed=0.468000m/h.</desc>
<speed>0.130000</speed>
</trkpt>
<trkpt lat="55.729588" lon="26.243834">
<ele>156.017700</ele>
<time>2010-07-18T07:55:10Z</time>
<desc>lat.=55.729588, lon.=26.243834, Alt.=156.017700m. Speed=0.612000m/h.</desc>
<speed>0.170000</speed>
</trkpt>
<trkpt lat="55.729588" lon="26.243835">
<ele>156.029419</ele>
<time>2010-07-18T07:55:11Z</time>
<desc>lat.=55.729588, lon.=26.243835, Alt.=156.029419m. Speed=0.612000m/h.</desc>
<speed>0.170000</speed>
</trkpt>
<trkpt lat="55.729588" lon="26.243837">
<ele>156.045044</ele>
<time>2010-07-18T07:55:12Z</time>
<desc>lat.=55.729588, lon.=26.243837, Alt.=156.045044m. Speed=0.504000m/h.</desc>
<speed>0.140000</speed>
</trkpt>
<trkpt lat="55.729588" lon="26.243839">
<ele>156.060669</ele>
<time>2010-07-18T07:55:13Z</time>
<desc>lat.=55.729588, lon.=26.243839, Alt.=156.060669m. Speed=0.468000m/h.</desc>
<speed>0.130000</speed>
</trkpt>
<trkpt lat="55.729584" lon="26.243841">
<ele>156.068481</ele>
<time>2010-07-18T07:55:14Z</time>
<desc>lat.=55.729584, lon.=26.243841, Alt.=156.068481m. Speed=0.252000m/h.</desc>
<speed>0.070000</speed>
</trkpt>
<trkpt lat="55.729584" lon="26.243841">
<ele>156.072388</ele>
<time>2010-07-18T07:55:15Z</time>
<desc>lat.=55.729584, lon.=26.243841, Alt.=156.072388m. Speed=0.180000m/h.</desc>
<speed>0.050000</speed>
</trkpt>
<trkpt lat="55.729584" lon="26.243843">
<ele>156.080200</ele>
<time>2010-07-18T07:55:16Z</time>
<desc>lat.=55.729584, lon.=26.243843, Alt.=156.080200m. Speed=0.324000m/h.</desc>
<speed>0.090000</speed>
</trkpt>
<trkpt lat="55.729584" lon="26.243845">
<ele>156.095825</ele>
<time>2010-07-18T07:55:17Z</time>
<desc>lat.=55.729584, lon.=26.243845, Alt.=156.095825m. Speed=0.324000m/h.</desc>
<speed>0.090000</speed>
</trkpt>
<trkpt lat="55.729584" lon="26.243845">
<ele>156.107544</ele>
<time>2010-07-18T07:55:18Z</time>
<desc>lat.=55.729584, lon.=26.243845, Alt.=156.107544m. Speed=1.188000m/h.</desc>
<speed>0.330000</speed>
</trkpt>
<trkpt lat="55.729588" lon="26.243849">
<ele>156.072388</ele>
<time>2010-07-18T07:55:19Z</time>
<desc>lat.=55.729588, lon.=26.243849, Alt.=156.072388m. Speed=1.116000m/h.</desc>
<speed>0.310000</speed>
</trkpt>
<trkpt lat="55.729588" lon="26.243853">
<ele>156.041138</ele>
<time>2010-07-18T07:55:20Z</time>
<desc>lat.=55.729588, lon.=26.243853, Alt.=156.041138m. Speed=0.972000m/h.</desc>
<speed>0.270000</speed>
</trkpt>
<trkpt lat="55.729588" lon="26.243856">
<ele>156.017700</ele>
<time>2010-07-18T07:55:21Z</time>
<desc>lat.=55.729588, lon.=26.243856, Alt.=156.017700m. Speed=0.504000m/h.</desc>
<speed>0.140000</speed>
</trkpt>
<trkpt lat="55.729588" lon="26.243858">
<ele>155.994263</ele>
<time>2010-07-18T07:55:22Z</time>
<desc>lat.=55.729588, lon.=26.243858, Alt.=155.994263m. Speed=0.684000m/h.</desc>
<speed>0.190000</speed>
</trkpt>
<trkpt lat="55.729591" lon="26.243862">
<ele>155.986450</ele>
<time>2010-07-18T07:55:23Z</time>
<desc>lat.=55.729591, lon.=26.243862, Alt.=155.986450m. Speed=0.036000m/h.</desc>
<speed>0.010000</speed>
</trkpt>
<trkpt lat="55.729591" lon="26.243862">
<ele>155.990356</ele>
<time>2010-07-18T07:55:24Z</time>
<desc>lat.=55.729591, lon.=26.243862, Alt.=155.990356m. Speed=0.108000m/h.</desc>
<speed>0.030000</speed>
</trkpt>
<trkpt lat="55.729588" lon="26.243862">
<ele>156.002075</ele>
<time>2010-07-18T07:55:25Z</time>
<desc>lat.=55.729588, lon.=26.243862, Alt.=156.002075m. Speed=0.360000m/h.</desc>
<speed>0.100000</speed>
</trkpt>
<trkpt lat="55.729588" lon="26.243864">
<ele>156.013794</ele>
<time>2010-07-18T07:55:26Z</time>
<desc>lat.=55.729588, lon.=26.243864, Alt.=156.013794m. Speed=0.432000m/h.</desc>
<speed>0.120000</speed>
</trkpt>
<trkpt lat="55.729588" lon="26.243866">
<ele>156.037231</ele>
<time>2010-07-18T07:55:27Z</time>
<desc>lat.=55.729588, lon.=26.243866, Alt.=156.037231m. Speed=0.612000m/h.</desc>
<speed>0.170000</speed>
</trkpt>
<trkpt lat="55.729588" lon="26.243868">
<ele>156.060669</ele>
<time>2010-07-18T07:55:28Z</time>
<desc>lat.=55.729588, lon.=26.243868, Alt.=156.060669m. Speed=0.432000m/h.</desc>
<speed>0.120000</speed>
</trkpt>
<trkpt lat="55.729588" lon="26.243870">
<ele>156.084106</ele>
<time>2010-07-18T07:55:29Z</time>
<desc>lat.=55.729588, lon.=26.243870, Alt.=156.084106m. Speed=0.828000m/h.</desc>
<speed>0.230000</speed>
</trkpt>
<trkpt lat="55.729584" lon="26.243872">
<ele>156.099731</ele>
<time>2010-07-18T07:55:30Z</time>
<desc>lat.=55.729584, lon.=26.243872, Alt.=156.099731m. Speed=0.756000m/h.</desc>
<speed>0.210000</speed>
</trkpt>
<trkpt lat="55.729584" lon="26.243876">
<ele>156.123169</ele>
<time>2010-07-18T07:55:31Z</time>
<desc>lat.=55.729584, lon.=26.243876, Alt.=156.123169m. Speed=0.612000m/h.</desc>
<speed>0.170000</speed>
</trkpt>
<trkpt lat="55.729584" lon="26.243877">
<ele>156.146606</ele>
<time>2010-07-18T07:55:32Z</time>
<desc>lat.=55.729584, lon.=26.243877, Alt.=156.146606m. Speed=0.396000m/h.</desc>
<speed>0.110000</speed>
</trkpt>
<trkpt lat="55.729584" lon="26.243879">
<ele>156.162231</ele>
<time>2010-07-18T07:55:33Z</time>
<desc>lat.=55.729584, lon.=26.243879, Alt.=156.162231m. Speed=0.072000m/h.</desc>
<speed>0.020000</speed>
</trkpt>
<trkpt lat="55.729584" lon="26.243879">
<ele>156.177856</ele>
<time>2010-07-18T07:55:34Z</time>
<desc>lat.=55.729584, lon.=26.243879, Alt.=156.177856m. Speed=0.000000m/h.</desc>
<speed>0.000000</speed>
</trkpt>
<trkpt lat="55.729584" lon="26.243879">
<ele>156.189575</ele>
<time>2010-07-18T07:55:35Z</time>
<desc>lat.=55.729584, lon.=26.243879, Alt.=156.189575m. Speed=0.144000m/h.</desc>
<speed>0.040000</speed>
</trkpt>
<trkpt lat="55.729584" lon="26.243877">
<ele>156.205200</ele>
<time>2010-07-18T07:55:36Z</time>
<desc>lat.=55.729584, lon.=26.243877, Alt.=156.205200m. Speed=0.432000m/h.</desc>
<speed>0.120000</speed>
</trkpt>
<trkpt lat="55.729580" lon="26.243877">
<ele>156.224731</ele>
<time>2010-07-18T07:55:37Z</time>
<desc>lat.=55.729580, lon.=26.243877, Alt.=156.224731m. Speed=0.324000m/h.</desc>
<speed>0.090000</speed>
</trkpt>
<trkpt lat="55.729580" lon="26.243876">
<ele>156.236450</ele>
<time>2010-07-18T07:55:38Z</time>
<desc>lat.=55.729580, lon.=26.243876, Alt.=156.236450m. Speed=0.144000m/h.</desc>
<speed>0.040000</speed>
</trkpt>
<trkpt lat="55.729580" lon="26.243876">
<ele>156.252075</ele>
<time>2010-07-18T07:55:39Z</time>
<desc>lat.=55.729580, lon.=26.243876, Alt.=156.252075m. Speed=0.432000m/h.</desc>
<speed>0.120000</speed>
</trkpt>
<trkpt lat="55.729580" lon="26.243876">
<ele>156.255981</ele>
<time>2010-07-18T07:55:40Z</time>
<desc>lat.=55.729580, lon.=26.243876, Alt.=156.255981m. Speed=0.360000m/h.</desc>
<speed>0.100000</speed>
</trkpt>
<trkpt lat="55.729580" lon="26.243877">
<ele>156.255981</ele>
<time>2010-07-18T07:55:41Z</time>
<desc>lat.=55.729580, lon.=26.243877, Alt.=156.255981m. Speed=0.792000m/h.</desc>
<speed>0.220000</speed>
</trkpt>
<trkpt lat="55.729576" lon="26.243879">
<ele>156.263794</ele>
<time>2010-07-18T07:55:42Z</time>
<desc>lat.=55.729576, lon.=26.243879, Alt.=156.263794m. Speed=0.324000m/h.</desc>
<speed>0.090000</speed>
</trkpt>
<trkpt lat="55.729576" lon="26.243881">
<ele>156.279419</ele>
<time>2010-07-18T07:55:43Z</time>
<desc>lat.=55.729576, lon.=26.243881, Alt.=156.279419m. Speed=0.360000m/h.</desc>
<speed>0.100000</speed>
</trkpt>
<trkpt lat="55.729576" lon="26.243879">
<ele>156.291138</ele>
<time>2010-07-18T07:55:44Z</time>
<desc>lat.=55.729576, lon.=26.243879, Alt.=156.291138m. Speed=0.324000m/h.</desc>
<speed>0.090000</speed>
</trkpt>
<trkpt lat="55.729576" lon="26.243877">
<ele>156.295044</ele>
<time>2010-07-18T07:55:45Z</time>
<desc>lat.=55.729576, lon.=26.243877, Alt.=156.295044m. Speed=0.396000m/h.</desc>
<speed>0.110000</speed>
</trkpt>
<trkpt lat="55.729576" lon="26.243877">
<ele>156.295044</ele>
<time>2010-07-18T07:55:46Z</time>
<desc>lat.=55.729576, lon.=26.243877, Alt.=156.295044m. Speed=0.252000m/h.</desc>
<speed>0.070000</speed>
</trkpt>
<trkpt lat="55.729576" lon="26.243877">
<ele>156.295044</ele>
<time>2010-07-18T07:55:47Z</time>
<desc>lat.=55.729576, lon.=26.243877, Alt.=156.295044m. Speed=0.216000m/h.</desc>
<speed>0.060000</speed>
</trkpt>
<trkpt lat="55.729576" lon="26.243877">
<ele>156.291138</ele>
<time>2010-07-18T07:55:48Z</time>
<desc>lat.=55.729576, lon.=26.243877, Alt.=156.291138m. Speed=0.324000m/h.</desc>
<speed>0.090000</speed>
</trkpt>
<trkpt lat="55.729572" lon="26.243877">
<ele>156.298950</ele>
<time>2010-07-18T07:55:49Z</time>
<desc>lat.=55.729572, lon.=26.243877, Alt.=156.298950m. Speed=0.504000m/h.</desc>
<speed>0.140000</speed>
</trkpt>
<trkpt lat="55.729572" lon="26.243879">
<ele>156.298950</ele>
<time>2010-07-18T07:55:50Z</time>
<desc>lat.=55.729572, lon.=26.243879, Alt.=156.298950m. Speed=0.648000m/h.</desc>
<speed>0.180000</speed>
</trkpt>
<trkpt lat="55.729572" lon="26.243881">
<ele>156.302856</ele>
<time>2010-07-18T07:55:51Z</time>
<desc>lat.=55.729572, lon.=26.243881, Alt.=156.302856m. Speed=0.648000m/h.</desc>
<speed>0.180000</speed>
</trkpt>
<trkpt lat="55.729568" lon="26.243883">
<ele>156.310669</ele>
<time>2010-07-18T07:55:52Z</time>
<desc>lat.=55.729568, lon.=26.243883, Alt.=156.310669m. Speed=0.360000m/h.</desc>
<speed>0.100000</speed>
</trkpt>
<trkpt lat="55.729568" lon="26.243883">
<ele>156.302856</ele>
<time>2010-07-18T07:55:53Z</time>
<desc>lat.=55.729568, lon.=26.243883, Alt.=156.302856m. Speed=0.288000m/h.</desc>
<speed>0.080000</speed>
</trkpt>
<trkpt lat="55.729568" lon="26.243883">
<ele>156.298950</ele>
<time>2010-07-18T07:55:54Z</time>
<desc>lat.=55.729568, lon.=26.243883, Alt.=156.298950m. Speed=0.180000m/h.</desc>
<speed>0.050000</speed>
</trkpt>
<trkpt lat="55.729568" lon="26.243883">
<ele>156.295044</ele>
<time>2010-07-18T07:55:55Z</time>
<desc>lat.=55.729568, lon.=26.243883, Alt.=156.295044m. Speed=0.072000m/h.</desc>
<speed>0.020000</speed>
</trkpt>
<trkpt lat="55.729568" lon="26.243883">
<ele>156.302856</ele>
<time>2010-07-18T07:55:56Z</time>
<desc>lat.=55.729568, lon.=26.243883, Alt.=156.302856m. Speed=0.216000m/h.</desc>
<speed>0.060000</speed>
</trkpt>
<trkpt lat="55.729568" lon="26.243883">
<ele>156.298950</ele>
<time>2010-07-18T07:55:57Z</time>
<desc>lat.=55.729568, lon.=26.243883, Alt.=156.298950m. Speed=0.180000m/h.</desc>
<speed>0.050000</speed>
</trkpt>
<trkpt lat="55.729565" lon="26.243883">
<ele>156.295044</ele>
<time>2010-07-18T07:55:58Z</time>
<desc>lat.=55.729565, lon.=26.243883, Alt.=156.295044m. Speed=0.036000m/h.</desc>
<speed>0.010000</speed>
</trkpt>
<trkpt lat="55.729565" lon="26.243881">
<ele>156.295044</ele>
<time>2010-07-18T07:55:59Z</time>
<desc>lat.=55.729565, lon.=26.243881, Alt.=156.295044m. Speed=0.252000m/h.</desc>
<speed>0.070000</speed>
</trkpt>
<trkpt lat="55.729565" lon="26.243881">
<ele>156.287231</ele>
<time>2010-07-18T07:56:00Z</time>
<desc>lat.=55.729565, lon.=26.243881, Alt.=156.287231m. Speed=0.180000m/h.</desc>
<speed>0.050000</speed>
</trkpt>
<trkpt lat="55.729565" lon="26.243881">
<ele>156.287231</ele>
<time>2010-07-18T07:56:01Z</time>
<desc>lat.=55.729565, lon.=26.243881, Alt.=156.287231m. Speed=0.504000m/h.</desc>
<speed>0.140000</speed>
</trkpt>
<trkpt lat="55.729565" lon="26.243879">
<ele>156.295044</ele>
<time>2010-07-18T07:56:02Z</time>
<desc>lat.=55.729565, lon.=26.243879, Alt.=156.295044m. Speed=0.288000m/h.</desc>
<speed>0.080000</speed>
</trkpt>
<trkpt lat="55.729565" lon="26.243877">
<ele>156.302856</ele>
<time>2010-07-18T07:56:03Z</time>
<desc>lat.=55.729565, lon.=26.243877, Alt.=156.302856m. Speed=0.360000m/h.</desc>
<speed>0.100000</speed>
</trkpt>
<trkpt lat="55.729565" lon="26.243877">
<ele>156.310669</ele>
<time>2010-07-18T07:56:04Z</time>
<desc>lat.=55.729565, lon.=26.243877, Alt.=156.310669m. Speed=0.144000m/h.</desc>
<speed>0.040000</speed>
</trkpt>
<trkpt lat="55.729565" lon="26.243877">
<ele>156.314575</ele>
<time>2010-07-18T07:56:05Z</time>
<desc>lat.=55.729565, lon.=26.243877, Alt.=156.314575m. Speed=0.144000m/h.</desc>
<speed>0.040000</speed>
</trkpt>
<trkpt lat="55.729565" lon="26.243877">
<ele>156.322388</ele>
<time>2010-07-18T07:56:06Z</time>
<desc>lat.=55.729565, lon.=26.243877, Alt.=156.322388m. Speed=0.252000m/h.</desc>
<speed>0.070000</speed>
</trkpt>
<trkpt lat="55.729565" lon="26.243876">
<ele>156.334106</ele>
<time>2010-07-18T07:56:07Z</time>
<desc>lat.=55.729565, lon.=26.243876, Alt.=156.334106m. Speed=0.432000m/h.</desc>
<speed>0.120000</speed>
</trkpt>
<trkpt lat="55.729565" lon="26.243874">
<ele>156.338013</ele>
<time>2010-07-18T07:56:08Z</time>
<desc>lat.=55.729565, lon.=26.243874, Alt.=156.338013m. Speed=0.504000m/h.</desc>
<speed>0.140000</speed>
</trkpt>
<trkpt lat="55.729561" lon="26.243874">
<ele>156.338013</ele>
<time>2010-07-18T07:56:09Z</time>
<desc>lat.=55.729561, lon.=26.243874, Alt.=156.338013m. Speed=0.324000m/h.</desc>
<speed>0.090000</speed>
</trkpt>
<trkpt lat="55.729561" lon="26.243872">
<ele>156.338013</ele>
<time>2010-07-18T07:56:10Z</time>
<desc>lat.=55.729561, lon.=26.243872, Alt.=156.338013m. Speed=0.432000m/h.</desc>
<speed>0.120000</speed>
</trkpt>
<trkpt lat="55.729561" lon="26.243870">
<ele>156.334106</ele>
<time>2010-07-18T07:56:11Z</time>
<desc>lat.=55.729561, lon.=26.243870, Alt.=156.334106m. Speed=0.000000m/h.</desc>
<speed>0.000000</speed>
</trkpt>
<trkpt lat="55.729561" lon="26.243870">
<ele>156.334106</ele>
<time>2010-07-18T07:56:12Z</time>
<desc>lat.=55.729561, lon.=26.243870, Alt.=156.334106m. Speed=0.180000m/h.</desc>
<speed>0.050000</speed>
</trkpt>
<trkpt lat="55.729561" lon="26.243872">
<ele>156.334106</ele>
<time>2010-07-18T07:56:13Z</time>
<desc>lat.=55.729561, lon.=26.243872, Alt.=156.334106m. Speed=0.108000m/h.</desc>
<speed>0.030000</speed>
</trkpt>
<trkpt lat="55.729561" lon="26.243872">
<ele>156.322388</ele>
<time>2010-07-18T07:56:14Z</time>
<desc>lat.=55.729561, lon.=26.243872, Alt.=156.322388m. Speed=0.324000m/h.</desc>
<speed>0.090000</speed>
</trkpt>
<trkpt lat="55.729561" lon="26.243872">
<ele>156.318481</ele>
<time>2010-07-18T07:56:15Z</time>
<desc>lat.=55.729561, lon.=26.243872, Alt.=156.318481m. Speed=0.324000m/h.</desc>
<speed>0.090000</speed>
</trkpt>
<trkpt lat="55.729561" lon="26.243872">
<ele>156.302856</ele>
<time>2010-07-18T07:56:16Z</time>
<desc>lat.=55.729561, lon.=26.243872, Alt.=156.302856m. Speed=0.540000m/h.</desc>
<speed>0.150000</speed>
</trkpt>
<trkpt lat="55.729561" lon="26.243874">
<ele>156.283325</ele>
<time>2010-07-18T07:56:17Z</time>
<desc>lat.=55.729561, lon.=26.243874, Alt.=156.283325m. Speed=0.648000m/h.</desc>
<speed>0.180000</speed>
</trkpt>
<trkpt lat="55.729565" lon="26.243876">
<ele>156.275513</ele>
<time>2010-07-18T07:56:18Z</time>
<desc>lat.=55.729565, lon.=26.243876, Alt.=156.275513m. Speed=0.180000m/h.</desc>
<speed>0.050000</speed>
</trkpt>
<trkpt lat="55.729565" lon="26.243876">
<ele>156.263794</ele>
<time>2010-07-18T07:56:19Z</time>
<desc>lat.=55.729565, lon.=26.243876, Alt.=156.263794m. Speed=0.324000m/h.</desc>
<speed>0.090000</speed>
</trkpt>
<trkpt lat="55.729565" lon="26.243877">
<ele>156.255981</ele>
<time>2010-07-18T07:56:20Z</time>
<desc>lat.=55.729565, lon.=26.243877, Alt.=156.255981m. Speed=0.108000m/h.</desc>
<speed>0.030000</speed>
</trkpt>
<trkpt lat="55.729565" lon="26.243877">
<ele>156.255981</ele>
<time>2010-07-18T07:56:21Z</time>
<desc>lat.=55.729565, lon.=26.243877, Alt.=156.255981m. Speed=0.108000m/h.</desc>
<speed>0.030000</speed>
</trkpt>
<trkpt lat="55.729565" lon="26.243877">
<ele>156.252075</ele>
<time>2010-07-18T07:56:22Z</time>
<desc>lat.=55.729565, lon.=26.243877, Alt.=156.252075m. Speed=0.252000m/h.</desc>
<speed>0.070000</speed>
</trkpt>
<trkpt lat="55.729565" lon="26.243879">
<ele>156.259888</ele>
<time>2010-07-18T07:56:23Z</time>
<desc>lat.=55.729565, lon.=26.243879, Alt.=156.259888m. Speed=0.468000m/h.</desc>
<speed>0.130000</speed>
</trkpt>
<trkpt lat="55.729561" lon="26.243879">
<ele>156.271606</ele>
<time>2010-07-18T07:56:24Z</time>
<desc>lat.=55.729561, lon.=26.243879, Alt.=156.271606m. Speed=0.180000m/h.</desc>
<speed>0.050000</speed>
</trkpt>
<trkpt lat="55.729561" lon="26.243879">
<ele>156.279419</ele>
<time>2010-07-18T07:56:25Z</time>
<desc>lat.=55.729561, lon.=26.243879, Alt.=156.279419m. Speed=0.324000m/h.</desc>
<speed>0.090000</speed>
</trkpt>
<trkpt lat="55.729561" lon="26.243877">
<ele>156.287231</ele>
<time>2010-07-18T07:56:26Z</time>
<desc>lat.=55.729561, lon.=26.243877, Alt.=156.287231m. Speed=0.288000m/h.</desc>
<speed>0.080000</speed>
</trkpt>
<trkpt lat="55.729561" lon="26.243877">
<ele>156.310669</ele>
<time>2010-07-18T07:56:27Z</time>
<desc>lat.=55.729561, lon.=26.243877, Alt.=156.310669m. Speed=0.396000m/h.</desc>
<speed>0.110000</speed>
</trkpt>
<trkpt lat="55.729561" lon="26.243877">
<ele>156.330200</ele>
<time>2010-07-18T07:56:28Z</time>
<desc>lat.=55.729561, lon.=26.243877, Alt.=156.330200m. Speed=0.036000m/h.</desc>
<speed>0.010000</speed>
</trkpt>
<trkpt lat="55.729561" lon="26.243877">
<ele>156.357544</ele>
<time>2010-07-18T07:56:29Z</time>
<desc>lat.=55.729561, lon.=26.243877, Alt.=156.357544m. Speed=0.360000m/h.</desc>
<speed>0.100000</speed>
</trkpt>
<trkpt lat="55.729561" lon="26.243879">
<ele>156.384888</ele>
<time>2010-07-18T07:56:30Z</time>
<desc>lat.=55.729561, lon.=26.243879, Alt.=156.384888m. Speed=0.324000m/h.</desc>
<speed>0.090000</speed>
</trkpt>
<trkpt lat="55.729561" lon="26.243881">
<ele>156.408325</ele>
<time>2010-07-18T07:56:31Z</time>
<desc>lat.=55.729561, lon.=26.243881, Alt.=156.408325m. Speed=0.576000m/h.</desc>
<speed>0.160000</speed>
</trkpt>
<trkpt lat="55.729561" lon="26.243883">
<ele>156.427856</ele>
<time>2010-07-18T07:56:32Z</time>
<desc>lat.=55.729561, lon.=26.243883, Alt.=156.427856m. Speed=0.144000m/h.</desc>
<speed>0.040000</speed>
</trkpt>
<trkpt lat="55.729561" lon="26.243883">
<ele>156.443481</ele>
<time>2010-07-18T07:56:33Z</time>
<desc>lat.=55.729561, lon.=26.243883, Alt.=156.443481m. Speed=0.000000m/h.</desc>
<speed>0.000000</speed>
</trkpt>
<trkpt lat="55.729561" lon="26.243883">
<ele>156.455200</ele>
<time>2010-07-18T07:56:34Z</time>
<desc>lat.=55.729561, lon.=26.243883, Alt.=156.455200m. Speed=0.252000m/h.</desc>
<speed>0.070000</speed>
</trkpt>
<trkpt lat="55.729557" lon="26.243883">
<ele>156.466919</ele>
<time>2010-07-18T07:56:35Z</time>
<desc>lat.=55.729557, lon.=26.243883, Alt.=156.466919m. Speed=0.072000m/h.</desc>
<speed>0.020000</speed>
</trkpt>
<trkpt lat="55.729557" lon="26.243883">
<ele>156.482544</ele>
<time>2010-07-18T07:56:36Z</time>
<desc>lat.=55.729557, lon.=26.243883, Alt.=156.482544m. Speed=0.468000m/h.</desc>
<speed>0.130000</speed>
</trkpt>
<trkpt lat="55.729561" lon="26.243885">
<ele>156.505981</ele>
<time>2010-07-18T07:56:37Z</time>
<desc>lat.=55.729561, lon.=26.243885, Alt.=156.505981m. Speed=0.252000m/h.</desc>
<speed>0.070000</speed>
</trkpt>
<trkpt lat="55.729561" lon="26.243887">
<ele>156.517700</ele>
<time>2010-07-18T07:56:38Z</time>
<desc>lat.=55.729561, lon.=26.243887, Alt.=156.517700m. Speed=0.792000m/h.</desc>
<speed>0.220000</speed>
</trkpt>
<trkpt lat="55.729561" lon="26.243891">
<ele>156.529419</ele>
<time>2010-07-18T07:56:39Z</time>
<desc>lat.=55.729561, lon.=26.243891, Alt.=156.529419m. Speed=0.612000m/h.</desc>
<speed>0.170000</speed>
</trkpt>
<trkpt lat="55.729561" lon="26.243893">
<ele>156.545044</ele>
<time>2010-07-18T07:56:40Z</time>
<desc>lat.=55.729561, lon.=26.243893, Alt.=156.545044m. Speed=0.576000m/h.</desc>
<speed>0.160000</speed>
</trkpt>
<trkpt lat="55.729561" lon="26.243895">
<ele>156.560669</ele>
<time>2010-07-18T07:56:41Z</time>
<desc>lat.=55.729561, lon.=26.243895, Alt.=156.560669m. Speed=0.612000m/h.</desc>
<speed>0.170000</speed>
</trkpt>
<trkpt lat="55.729561" lon="26.243898">
<ele>156.576294</ele>
<time>2010-07-18T07:56:42Z</time>
<desc>lat.=55.729561, lon.=26.243898, Alt.=156.576294m. Speed=0.828000m/h.</desc>
<speed>0.230000</speed>
</trkpt>
<trkpt lat="55.729565" lon="26.243900">
<ele>156.591919</ele>
<time>2010-07-18T07:56:43Z</time>
<desc>lat.=55.729565, lon.=26.243900, Alt.=156.591919m. Speed=0.972000m/h.</desc>
<speed>0.270000</speed>
</trkpt>
<trkpt lat="55.729565" lon="26.243904">
<ele>156.611450</ele>
<time>2010-07-18T07:56:44Z</time>
<desc>lat.=55.729565, lon.=26.243904, Alt.=156.611450m. Speed=1.044000m/h.</desc>
<speed>0.290000</speed>
</trkpt>
<trkpt lat="55.729568" lon="26.243908">
<ele>156.638794</ele>
<time>2010-07-18T07:56:45Z</time>
<desc>lat.=55.729568, lon.=26.243908, Alt.=156.638794m. Speed=0.684000m/h.</desc>
<speed>0.190000</speed>
</trkpt>
<trkpt lat="55.729568" lon="26.243910">
<ele>156.666138</ele>
<time>2010-07-18T07:56:46Z</time>
<desc>lat.=55.729568, lon.=26.243910, Alt.=156.666138m. Speed=0.504000m/h.</desc>
<speed>0.140000</speed>
</trkpt>
<trkpt lat="55.729568" lon="26.243912">
<ele>156.697388</ele>
<time>2010-07-18T07:56:47Z</time>
<desc>lat.=55.729568, lon.=26.243912, Alt.=156.697388m. Speed=0.036000m/h.</desc>
<speed>0.010000</speed>
</trkpt>
<trkpt lat="55.729568" lon="26.243914">
<ele>156.713013</ele>
<time>2010-07-18T07:56:48Z</time>
<desc>lat.=55.729568, lon.=26.243914, Alt.=156.713013m. Speed=0.288000m/h.</desc>
<speed>0.080000</speed>
</trkpt>
<trkpt lat="55.729568" lon="26.243914">
<ele>156.716919</ele>
<time>2010-07-18T07:56:49Z</time>
<desc>lat.=55.729568, lon.=26.243914, Alt.=156.716919m. Speed=0.576000m/h.</desc>
<speed>0.160000</speed>
</trkpt>
<trkpt lat="55.729568" lon="26.243917">
<ele>156.728638</ele>
<time>2010-07-18T07:56:50Z</time>
<desc>lat.=55.729568, lon.=26.243917, Alt.=156.728638m. Speed=0.504000m/h.</desc>
<speed>0.140000</speed>
</trkpt>
<trkpt lat="55.729572" lon="26.243919">
<ele>156.744263</ele>
<time>2010-07-18T07:56:51Z</time>
<desc>lat.=55.729572, lon.=26.243919, Alt.=156.744263m. Speed=0.360000m/h.</desc>
<speed>0.100000</speed>
</trkpt>
<trkpt lat="55.729572" lon="26.243919">
<ele>156.763794</ele>
<time>2010-07-18T07:56:52Z</time>
<desc>lat.=55.729572, lon.=26.243919, Alt.=156.763794m. Speed=0.180000m/h.</desc>
<speed>0.050000</speed>
</trkpt>
<trkpt lat="55.729572" lon="26.243921">
<ele>156.775513</ele>
<time>2010-07-18T07:56:53Z</time>
<desc>lat.=55.729572, lon.=26.243921, Alt.=156.775513m. Speed=0.144000m/h.</desc>
<speed>0.040000</speed>
</trkpt>
<trkpt lat="55.729572" lon="26.243921">
<ele>156.798950</ele>
<time>2010-07-18T07:56:54Z</time>
<desc>lat.=55.729572, lon.=26.243921, Alt.=156.798950m. Speed=0.180000m/h.</desc>
<speed>0.050000</speed>
</trkpt>
<trkpt lat="55.729572" lon="26.243923">
<ele>156.830200</ele>
<time>2010-07-18T07:56:55Z</time>
<desc>lat.=55.729572, lon.=26.243923, Alt.=156.830200m. Speed=0.144000m/h.</desc>
<speed>0.040000</speed>
</trkpt>
<trkpt lat="55.729572" lon="26.243923">
<ele>156.869263</ele>
<time>2010-07-18T07:56:56Z</time>
<desc>lat.=55.729572, lon.=26.243923, Alt.=156.869263m. Speed=0.180000m/h.</desc>
<speed>0.050000</speed>
</trkpt>
<trkpt lat="55.729572" lon="26.243923">
<ele>156.900513</ele>
<time>2010-07-18T07:56:57Z</time>
<desc>lat.=55.729572, lon.=26.243923, Alt.=156.900513m. Speed=0.072000m/h.</desc>
<speed>0.020000</speed>
</trkpt>
<trkpt lat="55.729572" lon="26.243923">
<ele>156.920044</ele>
<time>2010-07-18T07:56:58Z</time>
<desc>lat.=55.729572, lon.=26.243923, Alt.=156.920044m. Speed=0.684000m/h.</desc>
<speed>0.190000</speed>
</trkpt>
<trkpt lat="55.729568" lon="26.243925">
<ele>156.943481</ele>
<time>2010-07-18T07:56:59Z</time>
<desc>lat.=55.729568, lon.=26.243925, Alt.=156.943481m. Speed=0.144000m/h.</desc>
<speed>0.040000</speed>
</trkpt>
<trkpt lat="55.729568" lon="26.243925">
<ele>156.959106</ele>
<time>2010-07-18T07:57:00Z</time>
<desc>lat.=55.729568, lon.=26.243925, Alt.=156.959106m. Speed=0.288000m/h.</desc>
<speed>0.080000</speed>
</trkpt>
<trkpt lat="55.729568" lon="26.243927">
<ele>156.974731</ele>
<time>2010-07-18T07:57:01Z</time>
<desc>lat.=55.729568, lon.=26.243927, Alt.=156.974731m. Speed=0.252000m/h.</desc>
<speed>0.070000</speed>
</trkpt>
<trkpt lat="55.729568" lon="26.243927">
<ele>156.994263</ele>
<time>2010-07-18T07:57:02Z</time>
<desc>lat.=55.729568, lon.=26.243927, Alt.=156.994263m. Speed=0.072000m/h.</desc>
<speed>0.020000</speed>
</trkpt>
<trkpt lat="55.729568" lon="26.243929">
<ele>157.002075</ele>
<time>2010-07-18T07:57:03Z</time>
<desc>lat.=55.729568, lon.=26.243929, Alt.=157.002075m. Speed=0.216000m/h.</desc>
<speed>0.060000</speed>
</trkpt>
<trkpt lat="55.729568" lon="26.243929">
<ele>157.002075</ele>
<time>2010-07-18T07:57:04Z</time>
<desc>lat.=55.729568, lon.=26.243929, Alt.=157.002075m. Speed=0.288000m/h.</desc>
<speed>0.080000</speed>
</trkpt>
<trkpt lat="55.729565" lon="26.243929">
<ele>157.029419</ele>
<time>2010-07-18T07:57:05Z</time>
<desc>lat.=55.729565, lon.=26.243929, Alt.=157.029419m. Speed=0.324000m/h.</desc>
<speed>0.090000</speed>
</trkpt>
<trkpt lat="55.729565" lon="26.243929">
<ele>157.041138</ele>
<time>2010-07-18T07:57:06Z</time>
<desc>lat.=55.729565, lon.=26.243929, Alt.=157.041138m. Speed=0.036000m/h.</desc>
<speed>0.010000</speed>
</trkpt>
<trkpt lat="55.729565" lon="26.243929">
<ele>157.056763</ele>
<time>2010-07-18T07:57:07Z</time>
<desc>lat.=55.729565, lon.=26.243929, Alt.=157.056763m. Speed=0.756000m/h.</desc>
<speed>0.210000</speed>
</trkpt>
<trkpt lat="55.729568" lon="26.243931">
<ele>157.068481</ele>
<time>2010-07-18T07:57:08Z</time>
<desc>lat.=55.729568, lon.=26.243931, Alt.=157.068481m. Speed=0.504000m/h.</desc>
<speed>0.140000</speed>
</trkpt>
<trkpt lat="55.729568" lon="26.243931">
<ele>157.076294</ele>
<time>2010-07-18T07:57:09Z</time>
<desc>lat.=55.729568, lon.=26.243931, Alt.=157.076294m. Speed=0.432000m/h.</desc>
<speed>0.120000</speed>
</trkpt>
<trkpt lat="55.729568" lon="26.243931">
<ele>157.080200</ele>
<time>2010-07-18T07:57:10Z</time>
<desc>lat.=55.729568, lon.=26.243931, Alt.=157.080200m. Speed=0.324000m/h.</desc>
<speed>0.090000</speed>
</trkpt>
<trkpt lat="55.729568" lon="26.243933">
<ele>157.084106</ele>
<time>2010-07-18T07:57:11Z</time>
<desc>lat.=55.729568, lon.=26.243933, Alt.=157.084106m. Speed=0.252000m/h.</desc>
<speed>0.070000</speed>
</trkpt>
<trkpt lat="55.729568" lon="26.243935">
<ele>157.095825</ele>
<time>2010-07-18T07:57:12Z</time>
<desc>lat.=55.729568, lon.=26.243935, Alt.=157.095825m. Speed=0.252000m/h.</desc>
<speed>0.070000</speed>
</trkpt>
<trkpt lat="55.729568" lon="26.243935">
<ele>157.099731</ele>
<time>2010-07-18T07:57:13Z</time>
<desc>lat.=55.729568, lon.=26.243935, Alt.=157.099731m. Speed=0.252000m/h.</desc>
<speed>0.070000</speed>
</trkpt>
<trkpt lat="55.729568" lon="26.243935">
<ele>157.099731</ele>
<time>2010-07-18T07:57:14Z</time>
<desc>lat.=55.729568, lon.=26.243935, Alt.=157.099731m. Speed=0.216000m/h.</desc>
<speed>0.060000</speed>
</trkpt>
<trkpt lat="55.729568" lon="26.243935">
<ele>157.123169</ele>
<time>2010-07-18T07:57:15Z</time>
<desc>lat.=55.729568, lon.=26.243935, Alt.=157.123169m. Speed=0.504000m/h.</desc>
<speed>0.140000</speed>
</trkpt>
<trkpt lat="55.729565" lon="26.243935">
<ele>157.130981</ele>
<time>2010-07-18T07:57:16Z</time>
<desc>lat.=55.729565, lon.=26.243935, Alt.=157.130981m. Speed=0.360000m/h.</desc>
<speed>0.100000</speed>
</trkpt>
<trkpt lat="55.729565" lon="26.243935">
<ele>157.138794</ele>
<time>2010-07-18T07:57:17Z</time>
<desc>lat.=55.729565, lon.=26.243935, Alt.=157.138794m. Speed=0.324000m/h.</desc>
<speed>0.090000</speed>
</trkpt>
<trkpt lat="55.729565" lon="26.243937">
<ele>157.146606</ele>
<time>2010-07-18T07:57:18Z</time>
<desc>lat.=55.729565, lon.=26.243937, Alt.=157.146606m. Speed=0.360000m/h.</desc>
<speed>0.100000</speed>
</trkpt>
<trkpt lat="55.729561" lon="26.243937">
<ele>157.154419</ele>
<time>2010-07-18T07:57:19Z</time>
<desc>lat.=55.729561, lon.=26.243937, Alt.=157.154419m. Speed=0.540000m/h.</desc>
<speed>0.150000</speed>
</trkpt>
<trkpt lat="55.729561" lon="26.243937">
<ele>157.162231</ele>
<time>2010-07-18T07:57:20Z</time>
<desc>lat.=55.729561, lon.=26.243937, Alt.=157.162231m. Speed=0.504000m/h.</desc>
<speed>0.140000</speed>
</trkpt>
<trkpt lat="55.729561" lon="26.243937">
<ele>157.173950</ele>
<time>2010-07-18T07:57:21Z</time>
<desc>lat.=55.729561, lon.=26.243937, Alt.=157.173950m. Speed=0.144000m/h.</desc>
<speed>0.040000</speed>
</trkpt>
<trkpt lat="55.729561" lon="26.243938">
<ele>157.181763</ele>
<time>2010-07-18T07:57:22Z</time>
<desc>lat.=55.729561, lon.=26.243938, Alt.=157.181763m. Speed=0.144000m/h.</desc>
<speed>0.040000</speed>
</trkpt>
<trkpt lat="55.729561" lon="26.243938">
<ele>157.189575</ele>
<time>2010-07-18T07:57:23Z</time>
<desc>lat.=55.729561, lon.=26.243938, Alt.=157.189575m. Speed=0.288000m/h.</desc>
<speed>0.080000</speed>
</trkpt>
<trkpt lat="55.729561" lon="26.243937">
<ele>157.185669</ele>
<time>2010-07-18T07:57:24Z</time>
<desc>lat.=55.729561, lon.=26.243937, Alt.=157.185669m. Speed=0.324000m/h.</desc>
<speed>0.090000</speed>
</trkpt>
<trkpt lat="55.729561" lon="26.243937">
<ele>157.181763</ele>
<time>2010-07-18T07:57:25Z</time>
<desc>lat.=55.729561, lon.=26.243937, Alt.=157.181763m. Speed=0.072000m/h.</desc>
<speed>0.020000</speed>
</trkpt>
<trkpt lat="55.729561" lon="26.243937">
<ele>157.173950</ele>
<time>2010-07-18T07:57:26Z</time>
<desc>lat.=55.729561, lon.=26.243937, Alt.=157.173950m. Speed=0.864000m/h.</desc>
<speed>0.240000</speed>
</trkpt>
<trkpt lat="55.729565" lon="26.243937">
<ele>157.162231</ele>
<time>2010-07-18T07:57:27Z</time>
<desc>lat.=55.729565, lon.=26.243937, Alt.=157.162231m. Speed=0.396000m/h.</desc>
<speed>0.110000</speed>
</trkpt>
<trkpt lat="55.729565" lon="26.243935">
<ele>157.142700</ele>
<time>2010-07-18T07:57:28Z</time>
<desc>lat.=55.729565, lon.=26.243935, Alt.=157.142700m. Speed=0.396000m/h.</desc>
<speed>0.110000</speed>
</trkpt>
<trkpt lat="55.729565" lon="26.243935">
<ele>157.119263</ele>
<time>2010-07-18T07:57:29Z</time>
<desc>lat.=55.729565, lon.=26.243935, Alt.=157.119263m. Speed=0.360000m/h.</desc>
<speed>0.100000</speed>
</trkpt>
<trkpt lat="55.729565" lon="26.243935">
<ele>157.103638</ele>
<time>2010-07-18T07:57:30Z</time>
<desc>lat.=55.729565, lon.=26.243935, Alt.=157.103638m. Speed=0.180000m/h.</desc>
<speed>0.050000</speed>
</trkpt>
<trkpt lat="55.729565" lon="26.243935">
<ele>157.088013</ele>
<time>2010-07-18T07:57:31Z</time>
<desc>lat.=55.729565, lon.=26.243935, Alt.=157.088013m. Speed=0.036000m/h.</desc>
<speed>0.010000</speed>
</trkpt>
<trkpt lat="55.729565" lon="26.243935">
<ele>157.072388</ele>
<time>2010-07-18T07:57:32Z</time>
<desc>lat.=55.729565, lon.=26.243935, Alt.=157.072388m. Speed=0.144000m/h.</desc>
<speed>0.040000</speed>
</trkpt>
<trkpt lat="55.729565" lon="26.243937">
<ele>157.056763</ele>
<time>2010-07-18T07:57:33Z</time>
<desc>lat.=55.729565, lon.=26.243937, Alt.=157.056763m. Speed=0.396000m/h.</desc>
<speed>0.110000</speed>
</trkpt>
<trkpt lat="55.729565" lon="26.243937">
<ele>157.041138</ele>
<time>2010-07-18T07:57:34Z</time>
<desc>lat.=55.729565, lon.=26.243937, Alt.=157.041138m. Speed=0.540000m/h.</desc>
<speed>0.150000</speed>
</trkpt>
<trkpt lat="55.729565" lon="26.243938">
<ele>157.025513</ele>
<time>2010-07-18T07:57:35Z</time>
<desc>lat.=55.729565, lon.=26.243938, Alt.=157.025513m. Speed=0.468000m/h.</desc>
<speed>0.130000</speed>
</trkpt>
<trkpt lat="55.729565" lon="26.243940">
<ele>157.009888</ele>
<time>2010-07-18T07:57:36Z</time>
<desc>lat.=55.729565, lon.=26.243940, Alt.=157.009888m. Speed=0.252000m/h.</desc>
<speed>0.070000</speed>
</trkpt>
<trkpt lat="55.729565" lon="26.243940">
<ele>156.998169</ele>
<time>2010-07-18T07:57:37Z</time>
<desc>lat.=55.729565, lon.=26.243940, Alt.=156.998169m. Speed=0.432000m/h.</desc>
<speed>0.120000</speed>
</trkpt>
<trkpt lat="55.729561" lon="26.243940">
<ele>156.990356</ele>
<time>2010-07-18T07:57:38Z</time>
<desc>lat.=55.729561, lon.=26.243940, Alt.=156.990356m. Speed=0.504000m/h.</desc>
<speed>0.140000</speed>
</trkpt>
<trkpt lat="55.729561" lon="26.243940">
<ele>156.982544</ele>
<time>2010-07-18T07:57:39Z</time>
<desc>lat.=55.729561, lon.=26.243940, Alt.=156.982544m. Speed=0.216000m/h.</desc>
<speed>0.060000</speed>
</trkpt>
<trkpt lat="55.729561" lon="26.243940">
<ele>156.986450</ele>
<time>2010-07-18T07:57:40Z</time>
<desc>lat.=55.729561, lon.=26.243940, Alt.=156.986450m. Speed=0.252000m/h.</desc>
<speed>0.070000</speed>
</trkpt>
<trkpt lat="55.729561" lon="26.243940">
<ele>156.986450</ele>
<time>2010-07-18T07:57:41Z</time>
<desc>lat.=55.729561, lon.=26.243940, Alt.=156.986450m. Speed=0.144000m/h.</desc>
<speed>0.040000</speed>
</trkpt>
<trkpt lat="55.729561" lon="26.243940">
<ele>156.982544</ele>
<time>2010-07-18T07:57:42Z</time>
<desc>lat.=55.729561, lon.=26.243940, Alt.=156.982544m. Speed=0.216000m/h.</desc>
<speed>0.060000</speed>
</trkpt>
<trkpt lat="55.729561" lon="26.243940">
<ele>156.970825</ele>
<time>2010-07-18T07:57:43Z</time>
<desc>lat.=55.729561, lon.=26.243940, Alt.=156.970825m. Speed=0.216000m/h.</desc>
<speed>0.060000</speed>
</trkpt>
<trkpt lat="55.729561" lon="26.243940">
<ele>156.963013</ele>
<time>2010-07-18T07:57:44Z</time>
<desc>lat.=55.729561, lon.=26.243940, Alt.=156.963013m. Speed=0.180000m/h.</desc>
<speed>0.050000</speed>
</trkpt>
<trkpt lat="55.729561" lon="26.243940">
<ele>156.955200</ele>
<time>2010-07-18T07:57:45Z</time>
<desc>lat.=55.729561, lon.=26.243940, Alt.=156.955200m. Speed=0.000000m/h.</desc>
<speed>0.000000</speed>
</trkpt>
<trkpt lat="55.729561" lon="26.243940">
<ele>156.947388</ele>
<time>2010-07-18T07:57:46Z</time>
<desc>lat.=55.729561, lon.=26.243940, Alt.=156.947388m. Speed=0.252000m/h.</desc>
<speed>0.070000</speed>
</trkpt>
<trkpt lat="55.729561" lon="26.243942">
<ele>156.943481</ele>
<time>2010-07-18T07:57:47Z</time>
<desc>lat.=55.729561, lon.=26.243942, Alt.=156.943481m. Speed=0.504000m/h.</desc>
<speed>0.140000</speed>
</trkpt>
<trkpt lat="55.729561" lon="26.243944">
<ele>156.943481</ele>
<time>2010-07-18T07:57:48Z</time>
<desc>lat.=55.729561, lon.=26.243944, Alt.=156.943481m. Speed=0.432000m/h.</desc>
<speed>0.120000</speed>
</trkpt>
<trkpt lat="55.729561" lon="26.243944">
<ele>156.939575</ele>
<time>2010-07-18T07:57:49Z</time>
<desc>lat.=55.729561, lon.=26.243944, Alt.=156.939575m. Speed=0.324000m/h.</desc>
<speed>0.090000</speed>
</trkpt>
<trkpt lat="55.729557" lon="26.243946">
<ele>156.943481</ele>
<time>2010-07-18T07:57:50Z</time>
<desc>lat.=55.729557, lon.=26.243946, Alt.=156.943481m. Speed=0.612000m/h.</desc>
<speed>0.170000</speed>
</trkpt>
<trkpt lat="55.729557" lon="26.243946">
<ele>156.943481</ele>
<time>2010-07-18T07:57:51Z</time>
<desc>lat.=55.729557, lon.=26.243946, Alt.=156.943481m. Speed=0.576000m/h.</desc>
<speed>0.160000</speed>
</trkpt>
<trkpt lat="55.729553" lon="26.243946">
<ele>156.939575</ele>
<time>2010-07-18T07:57:52Z</time>
<desc>lat.=55.729553, lon.=26.243946, Alt.=156.939575m. Speed=0.288000m/h.</desc>
<speed>0.080000</speed>
</trkpt>
<trkpt lat="55.729553" lon="26.243946">
<ele>156.947388</ele>
<time>2010-07-18T07:57:53Z</time>
<desc>lat.=55.729553, lon.=26.243946, Alt.=156.947388m. Speed=0.360000m/h.</desc>
<speed>0.100000</speed>
</trkpt>
<trkpt lat="55.729553" lon="26.243946">
<ele>156.947388</ele>
<time>2010-07-18T07:57:54Z</time>
<desc>lat.=55.729553, lon.=26.243946, Alt.=156.947388m. Speed=0.072000m/h.</desc>
<speed>0.020000</speed>
</trkpt>
<trkpt lat="55.729553" lon="26.243948">
<ele>156.947388</ele>
<time>2010-07-18T07:57:55Z</time>
<desc>lat.=55.729553, lon.=26.243948, Alt.=156.947388m. Speed=0.288000m/h.</desc>
<speed>0.080000</speed>
</trkpt>
<trkpt lat="55.729553" lon="26.243948">
<ele>156.947388</ele>
<time>2010-07-18T07:57:56Z</time>
<desc>lat.=55.729553, lon.=26.243948, Alt.=156.947388m. Speed=0.360000m/h.</desc>
<speed>0.100000</speed>
</trkpt>
<trkpt lat="55.729549" lon="26.243948">
<ele>156.943481</ele>
<time>2010-07-18T07:57:57Z</time>
<desc>lat.=55.729549, lon.=26.243948, Alt.=156.943481m. Speed=0.756000m/h.</desc>
<speed>0.210000</speed>
</trkpt>
<trkpt lat="55.729549" lon="26.243948">
<ele>156.939575</ele>
<time>2010-07-18T07:57:58Z</time>
<desc>lat.=55.729549, lon.=26.243948, Alt.=156.939575m. Speed=0.612000m/h.</desc>
<speed>0.170000</speed>
</trkpt>
<trkpt lat="55.729549" lon="26.243948">
<ele>156.943481</ele>
<time>2010-07-18T07:57:59Z</time>
<desc>lat.=55.729549, lon.=26.243948, Alt.=156.943481m. Speed=0.072000m/h.</desc>
<speed>0.020000</speed>
</trkpt>
<trkpt lat="55.729549" lon="26.243948">
<ele>156.951294</ele>
<time>2010-07-18T07:58:00Z</time>
<desc>lat.=55.729549, lon.=26.243948, Alt.=156.951294m. Speed=0.072000m/h.</desc>
<speed>0.020000</speed>
</trkpt>
<trkpt lat="55.729546" lon="26.243948">
<ele>156.955200</ele>
<time>2010-07-18T07:58:01Z</time>
<desc>lat.=55.729546, lon.=26.243948, Alt.=156.955200m. Speed=0.072000m/h.</desc>
<speed>0.020000</speed>
</trkpt>
<trkpt lat="55.729546" lon="26.243948">
<ele>156.970825</ele>
<time>2010-07-18T07:58:02Z</time>
<desc>lat.=55.729546, lon.=26.243948, Alt.=156.970825m. Speed=0.072000m/h.</desc>
<speed>0.020000</speed>
</trkpt>
<trkpt lat="55.729546" lon="26.243950">
<ele>156.978638</ele>
<time>2010-07-18T07:58:03Z</time>
<desc>lat.=55.729546, lon.=26.243950, Alt.=156.978638m. Speed=0.036000m/h.</desc>
<speed>0.010000</speed>
</trkpt>
<trkpt lat="55.729546" lon="26.243950">
<ele>157.002075</ele>
<time>2010-07-18T07:58:04Z</time>
<desc>lat.=55.729546, lon.=26.243950, Alt.=157.002075m. Speed=0.036000m/h.</desc>
<speed>0.010000</speed>
</trkpt>
<trkpt lat="55.729546" lon="26.243950">
<ele>157.005981</ele>
<time>2010-07-18T07:58:05Z</time>
<desc>lat.=55.729546, lon.=26.243950, Alt.=157.005981m. Speed=0.036000m/h.</desc>
<speed>0.010000</speed>
</trkpt>
<trkpt lat="55.729546" lon="26.243950">
<ele>157.025513</ele>
<time>2010-07-18T07:58:06Z</time>
<desc>lat.=55.729546, lon.=26.243950, Alt.=157.025513m. Speed=0.108000m/h.</desc>
<speed>0.030000</speed>
</trkpt>
<trkpt lat="55.729546" lon="26.243950">
<ele>157.041138</ele>
<time>2010-07-18T07:58:07Z</time>
<desc>lat.=55.729546, lon.=26.243950, Alt.=157.041138m. Speed=0.036000m/h.</desc>
<speed>0.010000</speed>
</trkpt>
<trkpt lat="55.729546" lon="26.243950">
<ele>157.056763</ele>
<time>2010-07-18T07:58:08Z</time>
<desc>lat.=55.729546, lon.=26.243950, Alt.=157.056763m. Speed=0.072000m/h.</desc>
<speed>0.020000</speed>
</trkpt>
<trkpt lat="55.729546" lon="26.243952">
<ele>157.068481</ele>
<time>2010-07-18T07:58:09Z</time>
<desc>lat.=55.729546, lon.=26.243952, Alt.=157.068481m. Speed=0.324000m/h.</desc>
<speed>0.090000</speed>
</trkpt>
<trkpt lat="55.729546" lon="26.243952">
<ele>157.084106</ele>
<time>2010-07-18T07:58:10Z</time>
<desc>lat.=55.729546, lon.=26.243952, Alt.=157.084106m. Speed=0.072000m/h.</desc>
<speed>0.020000</speed>
</trkpt>
<trkpt lat="55.729546" lon="26.243952">
<ele>157.091919</ele>
<time>2010-07-18T07:58:11Z</time>
<desc>lat.=55.729546, lon.=26.243952, Alt.=157.091919m. Speed=0.036000m/h.</desc>
<speed>0.010000</speed>
</trkpt>
<trkpt lat="55.729546" lon="26.243952">
<ele>157.091919</ele>
<time>2010-07-18T07:58:12Z</time>
<desc>lat.=55.729546, lon.=26.243952, Alt.=157.091919m. Speed=0.000000m/h.</desc>
<speed>0.000000</speed>
</trkpt>
<trkpt lat="55.729546" lon="26.243952">
<ele>157.095825</ele>
<time>2010-07-18T07:58:13Z</time>
<desc>lat.=55.729546, lon.=26.243952, Alt.=157.095825m. Speed=0.072000m/h.</desc>
<speed>0.020000</speed>
</trkpt>
<trkpt lat="55.729546" lon="26.243952">
<ele>157.099731</ele>
<time>2010-07-18T07:58:14Z</time>
<desc>lat.=55.729546, lon.=26.243952, Alt.=157.099731m. Speed=0.036000m/h.</desc>
<speed>0.010000</speed>
</trkpt>
<trkpt lat="55.729546" lon="26.243952">
<ele>157.103638</ele>
<time>2010-07-18T07:58:15Z</time>
<desc>lat.=55.729546, lon.=26.243952, Alt.=157.103638m. Speed=0.000000m/h.</desc>
<speed>0.000000</speed>
</trkpt>
<trkpt lat="55.729546" lon="26.243952">
<ele>157.103638</ele>
<time>2010-07-18T07:58:16Z</time>
<desc>lat.=55.729546, lon.=26.243952, Alt.=157.103638m. Speed=0.000000m/h.</desc>
<speed>0.000000</speed>
</trkpt>
<trkpt lat="55.729546" lon="26.243952">
<ele>157.111450</ele>
<time>2010-07-18T07:58:17Z</time>
<desc>lat.=55.729546, lon.=26.243952, Alt.=157.111450m. Speed=0.000000m/h.</desc>
<speed>0.000000</speed>
</trkpt>
<trkpt lat="55.729546" lon="26.243952">
<ele>157.111450</ele>
<time>2010-07-18T07:58:18Z</time>
<desc>lat.=55.729546, lon.=26.243952, Alt.=157.111450m. Speed=0.036000m/h.</desc>
<speed>0.010000</speed>
</trkpt>
<trkpt lat="55.729546" lon="26.243952">
<ele>157.111450</ele>
<time>2010-07-18T07:58:19Z</time>
<desc>lat.=55.729546, lon.=26.243952, Alt.=157.111450m. Speed=0.072000m/h.</desc>
<speed>0.020000</speed>
</trkpt>
<trkpt lat="55.729546" lon="26.243952">
<ele>157.107544</ele>
<time>2010-07-18T07:58:20Z</time>
<desc>lat.=55.729546, lon.=26.243952, Alt.=157.107544m. Speed=0.036000m/h.</desc>
<speed>0.010000</speed>
</trkpt>
<trkpt lat="55.729546" lon="26.243952">
<ele>157.111450</ele>
<time>2010-07-18T07:58:21Z</time>
<desc>lat.=55.729546, lon.=26.243952, Alt.=157.111450m. Speed=0.000000m/h.</desc>
<speed>0.000000</speed>
</trkpt>
<trkpt lat="55.729546" lon="26.243952">
<ele>157.111450</ele>
<time>2010-07-18T07:58:22Z</time>
<desc>lat.=55.729546, lon.=26.243952, Alt.=157.111450m. Speed=0.036000m/h.</desc>
<speed>0.010000</speed>
</trkpt>
<trkpt lat="55.729546" lon="26.243952">
<ele>157.111450</ele>
<time>2010-07-18T07:58:23Z</time>
<desc>lat.=55.729546, lon.=26.243952, Alt.=157.111450m. Speed=0.036000m/h.</desc>
<speed>0.010000</speed>
</trkpt>
<trkpt lat="55.729546" lon="26.243952">
<ele>157.111450</ele>
<time>2010-07-18T07:58:24Z</time>
<desc>lat.=55.729546, lon.=26.243952, Alt.=157.111450m. Speed=0.000000m/h.</desc>
<speed>0.000000</speed>
</trkpt>
<trkpt lat="55.729546" lon="26.243952">
<ele>157.111450</ele>
<time>2010-07-18T07:58:25Z</time>
<desc>lat.=55.729546, lon.=26.243952, Alt.=157.111450m. Speed=0.000000m/h.</desc>
<speed>0.000000</speed>
</trkpt>
<trkpt lat="55.729546" lon="26.243952">
<ele>157.111450</ele>
<time>2010-07-18T07:58:26Z</time>
<desc>lat.=55.729546, lon.=26.243952, Alt.=157.111450m. Speed=0.000000m/h.</desc>
<speed>0.000000</speed>
</trkpt>
<trkpt lat="55.729546" lon="26.243952">
<ele>157.111450</ele>
<time>2010-07-18T07:58:27Z</time>
<desc>lat.=55.729546, lon.=26.243952, Alt.=157.111450m. Speed=0.000000m/h.</desc>
<speed>0.000000</speed>
</trkpt>
<trkpt lat="55.729546" lon="26.243952">
<ele>157.111450</ele>
<time>2010-07-18T07:58:28Z</time>
<desc>lat.=55.729546, lon.=26.243952, Alt.=157.111450m. Speed=0.000000m/h.</desc>
<speed>0.000000</speed>
</trkpt>
<trkpt lat="55.729546" lon="26.243952">
<ele>157.111450</ele>
<time>2010-07-18T07:58:29Z</time>
<desc>lat.=55.729546, lon.=26.243952, Alt.=157.111450m. Speed=0.000000m/h.</desc>
<speed>0.000000</speed>
</trkpt>
<trkpt lat="55.729546" lon="26.243952">
<ele>157.115356</ele>
<time>2010-07-18T07:58:30Z</time>
<desc>lat.=55.729546, lon.=26.243952, Alt.=157.115356m. Speed=0.000000m/h.</desc>
<speed>0.000000</speed>
</trkpt>
<trkpt lat="55.729546" lon="26.243952">
<ele>157.119263</ele>
<time>2010-07-18T07:58:31Z</time>
<desc>lat.=55.729546, lon.=26.243952, Alt.=157.119263m. Speed=0.000000m/h.</desc>
<speed>0.000000</speed>
</trkpt>
<trkpt lat="55.729546" lon="26.243952">
<ele>157.119263</ele>
<time>2010-07-18T07:58:32Z</time>
<desc>lat.=55.729546, lon.=26.243952, Alt.=157.119263m. Speed=0.036000m/h.</desc>
<speed>0.010000</speed>
</trkpt>
<trkpt lat="55.729546" lon="26.243952">
<ele>157.119263</ele>
<time>2010-07-18T07:58:33Z</time>
<desc>lat.=55.729546, lon.=26.243952, Alt.=157.119263m. Speed=0.000000m/h.</desc>
<speed>0.000000</speed>
</trkpt>
<trkpt lat="55.729546" lon="26.243952">
<ele>157.119263</ele>
<time>2010-07-18T07:58:34Z</time>
<desc>lat.=55.729546, lon.=26.243952, Alt.=157.119263m. Speed=0.000000m/h.</desc>
<speed>0.000000</speed>
</trkpt>
<trkpt lat="55.729546" lon="26.243952">
<ele>157.119263</ele>
<time>2010-07-18T07:58:35Z</time>
<desc>lat.=55.729546, lon.=26.243952, Alt.=157.119263m. Speed=0.000000m/h.</desc>
<speed>0.000000</speed>
</trkpt>
<trkpt lat="55.729546" lon="26.243952">
<ele>157.119263</ele>
<time>2010-07-18T07:58:36Z</time>
<desc>lat.=55.729546, lon.=26.243952, Alt.=157.119263m. Speed=0.000000m/h.</desc>
<speed>0.000000</speed>
</trkpt>
<trkpt lat="55.729546" lon="26.243952">
<ele>157.115356</ele>
<time>2010-07-18T07:58:37Z</time>
<desc>lat.=55.729546, lon.=26.243952, Alt.=157.115356m. Speed=0.036000m/h.</desc>
<speed>0.010000</speed>
</trkpt>
<trkpt lat="55.729546" lon="26.243952">
<ele>157.115356</ele>
<time>2010-07-18T07:58:38Z</time>
<desc>lat.=55.729546, lon.=26.243952, Alt.=157.115356m. Speed=0.036000m/h.</desc>
<speed>0.010000</speed>
</trkpt>
<trkpt lat="55.729546" lon="26.243952">
<ele>157.115356</ele>
<time>2010-07-18T07:58:39Z</time>
<desc>lat.=55.729546, lon.=26.243952, Alt.=157.115356m. Speed=0.108000m/h.</desc>
<speed>0.030000</speed>
</trkpt>
<trkpt lat="55.729546" lon="26.243952">
<ele>157.115356</ele>
<time>2010-07-18T07:58:40Z</time>
<desc>lat.=55.729546, lon.=26.243952, Alt.=157.115356m. Speed=0.000000m/h.</desc>
<speed>0.000000</speed>
</trkpt>
<trkpt lat="55.729546" lon="26.243952">
<ele>157.115356</ele>
<time>2010-07-18T07:58:41Z</time>
<desc>lat.=55.729546, lon.=26.243952, Alt.=157.115356m. Speed=0.000000m/h.</desc>
<speed>0.000000</speed>
</trkpt>
<trkpt lat="55.729546" lon="26.243952">
<ele>157.111450</ele>
<time>2010-07-18T07:58:42Z</time>
<desc>lat.=55.729546, lon.=26.243952, Alt.=157.111450m. Speed=0.000000m/h.</desc>
<speed>0.000000</speed>
</trkpt>
<trkpt lat="55.729546" lon="26.243952">
<ele>157.111450</ele>
<time>2010-07-18T07:58:43Z</time>
<desc>lat.=55.729546, lon.=26.243952, Alt.=157.111450m. Speed=0.036000m/h.</desc>
<speed>0.010000</speed>
</trkpt>
<trkpt lat="55.729546" lon="26.243952">
<ele>157.111450</ele>
<time>2010-07-18T07:58:44Z</time>
<desc>lat.=55.729546, lon.=26.243952, Alt.=157.111450m. Speed=0.000000m/h.</desc>
<speed>0.000000</speed>
</trkpt>
<trkpt lat="55.729546" lon="26.243952">
<ele>157.115356</ele>
<time>2010-07-18T07:58:45Z</time>
<desc>lat.=55.729546, lon.=26.243952, Alt.=157.115356m. Speed=0.072000m/h.</desc>
<speed>0.020000</speed>
</trkpt>
<trkpt lat="55.729546" lon="26.243952">
<ele>157.115356</ele>
<time>2010-07-18T07:58:46Z</time>
<desc>lat.=55.729546, lon.=26.243952, Alt.=157.115356m. Speed=0.036000m/h.</desc>
<speed>0.010000</speed>
</trkpt>
<trkpt lat="55.729546" lon="26.243952">
<ele>157.119263</ele>
<time>2010-07-18T07:58:47Z</time>
<desc>lat.=55.729546, lon.=26.243952, Alt.=157.119263m. Speed=0.000000m/h.</desc>
<speed>0.000000</speed>
</trkpt>
<trkpt lat="55.729546" lon="26.243952">
<ele>157.130981</ele>
<time>2010-07-18T07:58:48Z</time>
<desc>lat.=55.729546, lon.=26.243952, Alt.=157.130981m. Speed=0.000000m/h.</desc>
<speed>0.000000</speed>
</trkpt>
<trkpt lat="55.729546" lon="26.243952">
<ele>157.134888</ele>
<time>2010-07-18T07:58:49Z</time>
<desc>lat.=55.729546, lon.=26.243952, Alt.=157.134888m. Speed=0.000000m/h.</desc>
<speed>0.000000</speed>
</trkpt>
<trkpt lat="55.729546" lon="26.243952">
<ele>157.138794</ele>
<time>2010-07-18T07:58:50Z</time>
<desc>lat.=55.729546, lon.=26.243952, Alt.=157.138794m. Speed=0.000000m/h.</desc>
<speed>0.000000</speed>
</trkpt>
<trkpt lat="55.729546" lon="26.243952">
<ele>157.134888</ele>
<time>2010-07-18T07:58:51Z</time>
<desc>lat.=55.729546, lon.=26.243952, Alt.=157.134888m. Speed=0.000000m/h.</desc>
<speed>0.000000</speed>
</trkpt>
<trkpt lat="55.729546" lon="26.243952">
<ele>157.138794</ele>
<time>2010-07-18T07:58:52Z</time>
<desc>lat.=55.729546, lon.=26.243952, Alt.=157.138794m. Speed=0.036000m/h.</desc>
<speed>0.010000</speed>
</trkpt>
<trkpt lat="55.729546" lon="26.243952">
<ele>157.142700</ele>
<time>2010-07-18T07:58:53Z</time>
<desc>lat.=55.729546, lon.=26.243952, Alt.=157.142700m. Speed=0.000000m/h.</desc>
<speed>0.000000</speed>
</trkpt>
<trkpt lat="55.729546" lon="26.243952">
<ele>157.138794</ele>
<time>2010-07-18T07:58:54Z</time>
<desc>lat.=55.729546, lon.=26.243952, Alt.=157.138794m. Speed=0.000000m/h.</desc>
<speed>0.000000</speed>
</trkpt>
<trkpt lat="55.729546" lon="26.243952">
<ele>157.134888</ele>
<time>2010-07-18T07:58:55Z</time>
<desc>lat.=55.729546, lon.=26.243952, Alt.=157.134888m. Speed=0.036000m/h.</desc>
<speed>0.010000</speed>
</trkpt>
<trkpt lat="55.729546" lon="26.243950">
<ele>157.123169</ele>
<time>2010-07-18T07:58:56Z</time>
<desc>lat.=55.729546, lon.=26.243950, Alt.=157.123169m. Speed=0.036000m/h.</desc>
<speed>0.010000</speed>
</trkpt>
<trkpt lat="55.729546" lon="26.243950">
<ele>157.119263</ele>
<time>2010-07-18T07:58:57Z</time>
<desc>lat.=55.729546, lon.=26.243950, Alt.=157.119263m. Speed=0.036000m/h.</desc>
<speed>0.010000</speed>
</trkpt>
<trkpt lat="55.729546" lon="26.243950">
<ele>157.115356</ele>
<time>2010-07-18T07:58:58Z</time>
<desc>lat.=55.729546, lon.=26.243950, Alt.=157.115356m. Speed=0.072000m/h.</desc>
<speed>0.020000</speed>
</trkpt>
<trkpt lat="55.729546" lon="26.243950">
<ele>157.115356</ele>
<time>2010-07-18T07:58:59Z</time>
<desc>lat.=55.729546, lon.=26.243950, Alt.=157.115356m. Speed=0.036000m/h.</desc>
<speed>0.010000</speed>
</trkpt>
<trkpt lat="55.729546" lon="26.243950">
<ele>157.115356</ele>
<time>2010-07-18T07:59:00Z</time>
<desc>lat.=55.729546, lon.=26.243950, Alt.=157.115356m. Speed=0.000000m/h.</desc>
<speed>0.000000</speed>
</trkpt>
<trkpt lat="55.729546" lon="26.243950">
<ele>157.103638</ele>
<time>2010-07-18T07:59:01Z</time>
<desc>lat.=55.729546, lon.=26.243950, Alt.=157.103638m. Speed=0.072000m/h.</desc>
<speed>0.020000</speed>
</trkpt>
<trkpt lat="55.729546" lon="26.243950">
<ele>157.095825</ele>
<time>2010-07-18T07:59:02Z</time>
<desc>lat.=55.729546, lon.=26.243950, Alt.=157.095825m. Speed=0.072000m/h.</desc>
<speed>0.020000</speed>
</trkpt>
<trkpt lat="55.729546" lon="26.243950">
<ele>157.088013</ele>
<time>2010-07-18T07:59:03Z</time>
<desc>lat.=55.729546, lon.=26.243950, Alt.=157.088013m. Speed=0.072000m/h.</desc>
<speed>0.020000</speed>
</trkpt>
<trkpt lat="55.729546" lon="26.243950">
<ele>157.088013</ele>
<time>2010-07-18T07:59:04Z</time>
<desc>lat.=55.729546, lon.=26.243950, Alt.=157.088013m. Speed=0.072000m/h.</desc>
<speed>0.020000</speed>
</trkpt>
<trkpt lat="55.729546" lon="26.243950">
<ele>157.080200</ele>
<time>2010-07-18T07:59:05Z</time>
<desc>lat.=55.729546, lon.=26.243950, Alt.=157.080200m. Speed=0.072000m/h.</desc>
<speed>0.020000</speed>
</trkpt>
<trkpt lat="55.729546" lon="26.243950">
<ele>157.068481</ele>
<time>2010-07-18T07:59:06Z</time>
<desc>lat.=55.729546, lon.=26.243950, Alt.=157.068481m. Speed=0.072000m/h.</desc>
<speed>0.020000</speed>
</trkpt>
<trkpt lat="55.729546" lon="26.243948">
<ele>157.056763</ele>
<time>2010-07-18T07:59:07Z</time>
<desc>lat.=55.729546, lon.=26.243948, Alt.=157.056763m. Speed=0.072000m/h.</desc>
<speed>0.020000</speed>
</trkpt>
<trkpt lat="55.729546" lon="26.243948">
<ele>157.048950</ele>
<time>2010-07-18T07:59:08Z</time>
<desc>lat.=55.729546, lon.=26.243948, Alt.=157.048950m. Speed=0.072000m/h.</desc>
<speed>0.020000</speed>
</trkpt>
<trkpt lat="55.729546" lon="26.243948">
<ele>157.045044</ele>
<time>2010-07-18T07:59:09Z</time>
<desc>lat.=55.729546, lon.=26.243948, Alt.=157.045044m. Speed=0.072000m/h.</desc>
<speed>0.020000</speed>
</trkpt>
<trkpt lat="55.729546" lon="26.243948">
<ele>157.041138</ele>
<time>2010-07-18T07:59:10Z</time>
<desc>lat.=55.729546, lon.=26.243948, Alt.=157.041138m. Speed=0.036000m/h.</desc>
<speed>0.010000</speed>
</trkpt>
<trkpt lat="55.729546" lon="26.243948">
<ele>157.033325</ele>
<time>2010-07-18T07:59:11Z</time>
<desc>lat.=55.729546, lon.=26.243948, Alt.=157.033325m. Speed=0.072000m/h.</desc>
<speed>0.020000</speed>
</trkpt>
<trkpt lat="55.729546" lon="26.243948">
<ele>157.029419</ele>
<time>2010-07-18T07:59:12Z</time>
<desc>lat.=55.729546, lon.=26.243948, Alt.=157.029419m. Speed=0.072000m/h.</desc>
<speed>0.020000</speed>
</trkpt>
<trkpt lat="55.729546" lon="26.243948">
<ele>157.033325</ele>
<time>2010-07-18T07:59:13Z</time>
<desc>lat.=55.729546, lon.=26.243948, Alt.=157.033325m. Speed=0.072000m/h.</desc>
<speed>0.020000</speed>
</trkpt>
<trkpt lat="55.729546" lon="26.243948">
<ele>157.041138</ele>
<time>2010-07-18T07:59:14Z</time>
<desc>lat.=55.729546, lon.=26.243948, Alt.=157.041138m. Speed=0.072000m/h.</desc>
<speed>0.020000</speed>
</trkpt>
<trkpt lat="55.729546" lon="26.243948">
<ele>157.052856</ele>
<time>2010-07-18T07:59:15Z</time>
<desc>lat.=55.729546, lon.=26.243948, Alt.=157.052856m. Speed=0.036000m/h.</desc>
<speed>0.010000</speed>
</trkpt>
<trkpt lat="55.729546" lon="26.243948">
<ele>157.060669</ele>
<time>2010-07-18T07:59:16Z</time>
<desc>lat.=55.729546, lon.=26.243948, Alt.=157.060669m. Speed=0.144000m/h.</desc>
<speed>0.040000</speed>
</trkpt>
<trkpt lat="55.729546" lon="26.243948">
<ele>157.072388</ele>
<time>2010-07-18T07:59:17Z</time>
<desc>lat.=55.729546, lon.=26.243948, Alt.=157.072388m. Speed=0.108000m/h.</desc>
<speed>0.030000</speed>
</trkpt>
<trkpt lat="55.729546" lon="26.243948">
<ele>157.080200</ele>
<time>2010-07-18T07:59:18Z</time>
<desc>lat.=55.729546, lon.=26.243948, Alt.=157.080200m. Speed=0.036000m/h.</desc>
<speed>0.010000</speed>
</trkpt>
<trkpt lat="55.729546" lon="26.243948">
<ele>157.091919</ele>
<time>2010-07-18T07:59:19Z</time>
<desc>lat.=55.729546, lon.=26.243948, Alt.=157.091919m. Speed=0.000000m/h.</desc>
<speed>0.000000</speed>
</trkpt>
<trkpt lat="55.729546" lon="26.243948">
<ele>157.103638</ele>
<time>2010-07-18T07:59:20Z</time>
<desc>lat.=55.729546, lon.=26.243948, Alt.=157.103638m. Speed=0.072000m/h.</desc>
<speed>0.020000</speed>
</trkpt>
<trkpt lat="55.729546" lon="26.243948">
<ele>157.111450</ele>
<time>2010-07-18T07:59:21Z</time>
<desc>lat.=55.729546, lon.=26.243948, Alt.=157.111450m. Speed=0.036000m/h.</desc>
<speed>0.010000</speed>
</trkpt>
<trkpt lat="55.729546" lon="26.243948">
<ele>157.123169</ele>
<time>2010-07-18T07:59:22Z</time>
<desc>lat.=55.729546, lon.=26.243948, Alt.=157.123169m. Speed=0.036000m/h.</desc>
<speed>0.010000</speed>
</trkpt>
<trkpt lat="55.729546" lon="26.243948">
<ele>157.127075</ele>
<time>2010-07-18T07:59:23Z</time>
<desc>lat.=55.729546, lon.=26.243948, Alt.=157.127075m. Speed=0.036000m/h.</desc>
<speed>0.010000</speed>
</trkpt>
<trkpt lat="55.729546" lon="26.243948">
<ele>157.130981</ele>
<time>2010-07-18T07:59:24Z</time>
<desc>lat.=55.729546, lon.=26.243948, Alt.=157.130981m. Speed=0.108000m/h.</desc>
<speed>0.030000</speed>
</trkpt>
<trkpt lat="55.729546" lon="26.243950">
<ele>157.134888</ele>
<time>2010-07-18T07:59:25Z</time>
<desc>lat.=55.729546, lon.=26.243950, Alt.=157.134888m. Speed=0.108000m/h.</desc>
<speed>0.030000</speed>
</trkpt>
<trkpt lat="55.729546" lon="26.243950">
<ele>157.154419</ele>
<time>2010-07-18T07:59:26Z</time>
<desc>lat.=55.729546, lon.=26.243950, Alt.=157.154419m. Speed=0.036000m/h.</desc>
<speed>0.010000</speed>
</trkpt>
<trkpt lat="55.729546" lon="26.243950">
<ele>157.166138</ele>
<time>2010-07-18T07:59:27Z</time>
<desc>lat.=55.729546, lon.=26.243950, Alt.=157.166138m. Speed=0.036000m/h.</desc>
<speed>0.010000</speed>
</trkpt>
<trkpt lat="55.729546" lon="26.243950">
<ele>157.173950</ele>
<time>2010-07-18T07:59:28Z</time>
<desc>lat.=55.729546, lon.=26.243950, Alt.=157.173950m. Speed=0.000000m/h.</desc>
<speed>0.000000</speed>
</trkpt>
<trkpt lat="55.729546" lon="26.243950">
<ele>157.189575</ele>
<time>2010-07-18T07:59:29Z</time>
<desc>lat.=55.729546, lon.=26.243950, Alt.=157.189575m. Speed=0.036000m/h.</desc>
<speed>0.010000</speed>
</trkpt>
<trkpt lat="55.729546" lon="26.243950">
<ele>157.197388</ele>
<time>2010-07-18T07:59:30Z</time>
<desc>lat.=55.729546, lon.=26.243950, Alt.=157.197388m. Speed=0.072000m/h.</desc>
<speed>0.020000</speed>
</trkpt>
<trkpt lat="55.729546" lon="26.243950">
<ele>157.201294</ele>
<time>2010-07-18T07:59:31Z</time>
<desc>lat.=55.729546, lon.=26.243950, Alt.=157.201294m. Speed=0.072000m/h.</desc>
<speed>0.020000</speed>
</trkpt>
<trkpt lat="55.729546" lon="26.243950">
<ele>157.213013</ele>
<time>2010-07-18T07:59:32Z</time>
<desc>lat.=55.729546, lon.=26.243950, Alt.=157.213013m. Speed=0.144000m/h.</desc>
<speed>0.040000</speed>
</trkpt>
<trkpt lat="55.729546" lon="26.243950">
<ele>157.228638</ele>
<time>2010-07-18T07:59:33Z</time>
<desc>lat.=55.729546, lon.=26.243950, Alt.=157.228638m. Speed=0.072000m/h.</desc>
<speed>0.020000</speed>
</trkpt>
<trkpt lat="55.729546" lon="26.243950">
<ele>157.236450</ele>
<time>2010-07-18T07:59:34Z</time>
<desc>lat.=55.729546, lon.=26.243950, Alt.=157.236450m. Speed=0.036000m/h.</desc>
<speed>0.010000</speed>
</trkpt>
<trkpt lat="55.729546" lon="26.243950">
<ele>157.236450</ele>
<time>2010-07-18T07:59:35Z</time>
<desc>lat.=55.729546, lon.=26.243950, Alt.=157.236450m. Speed=0.000000m/h.</desc>
<speed>0.000000</speed>
</trkpt>
<trkpt lat="55.729546" lon="26.243950">
<ele>157.232544</ele>
<time>2010-07-18T07:59:36Z</time>
<desc>lat.=55.729546, lon.=26.243950, Alt.=157.232544m. Speed=0.036000m/h.</desc>
<speed>0.010000</speed>
</trkpt>
<trkpt lat="55.729546" lon="26.243950">
<ele>157.232544</ele>
<time>2010-07-18T07:59:37Z</time>
<desc>lat.=55.729546, lon.=26.243950, Alt.=157.232544m. Speed=0.072000m/h.</desc>
<speed>0.020000</speed>
</trkpt>
<trkpt lat="55.729546" lon="26.243950">
<ele>157.228638</ele>
<time>2010-07-18T07:59:38Z</time>
<desc>lat.=55.729546, lon.=26.243950, Alt.=157.228638m. Speed=0.036000m/h.</desc>
<speed>0.010000</speed>
</trkpt>
<trkpt lat="55.729546" lon="26.243950">
<ele>157.232544</ele>
<time>2010-07-18T07:59:39Z</time>
<desc>lat.=55.729546, lon.=26.243950, Alt.=157.232544m. Speed=0.036000m/h.</desc>
<speed>0.010000</speed>
</trkpt>
<trkpt lat="55.729546" lon="26.243950">
<ele>157.236450</ele>
<time>2010-07-18T07:59:40Z</time>
<desc>lat.=55.729546, lon.=26.243950, Alt.=157.236450m. Speed=0.072000m/h.</desc>
<speed>0.020000</speed>
</trkpt>
<trkpt lat="55.729546" lon="26.243950">
<ele>157.236450</ele>
<time>2010-07-18T07:59:41Z</time>
<desc>lat.=55.729546, lon.=26.243950, Alt.=157.236450m. Speed=0.072000m/h.</desc>
<speed>0.020000</speed>
</trkpt>
<trkpt lat="55.729546" lon="26.243950">
<ele>157.240356</ele>
<time>2010-07-18T07:59:42Z</time>
<desc>lat.=55.729546, lon.=26.243950, Alt.=157.240356m. Speed=0.000000m/h.</desc>
<speed>0.000000</speed>
</trkpt>
<trkpt lat="55.729546" lon="26.243950">
<ele>157.252075</ele>
<time>2010-07-18T07:59:43Z</time>
<desc>lat.=55.729546, lon.=26.243950, Alt.=157.252075m. Speed=0.000000m/h.</desc>
<speed>0.000000</speed>
</trkpt>
<trkpt lat="55.729546" lon="26.243950">
<ele>157.255981</ele>
<time>2010-07-18T07:59:44Z</time>
<desc>lat.=55.729546, lon.=26.243950, Alt.=157.255981m. Speed=0.036000m/h.</desc>
<speed>0.010000</speed>
</trkpt>
<trkpt lat="55.729546" lon="26.243950">
<ele>157.255981</ele>
<time>2010-07-18T07:59:45Z</time>
<desc>lat.=55.729546, lon.=26.243950, Alt.=157.255981m. Speed=0.000000m/h.</desc>
<speed>0.000000</speed>
</trkpt>
<trkpt lat="55.729546" lon="26.243950">
<ele>157.259888</ele>
<time>2010-07-18T07:59:46Z</time>
<desc>lat.=55.729546, lon.=26.243950, Alt.=157.259888m. Speed=0.072000m/h.</desc>
<speed>0.020000</speed>
</trkpt>
<trkpt lat="55.729546" lon="26.243950">
<ele>157.267700</ele>
<time>2010-07-18T07:59:47Z</time>
<desc>lat.=55.729546, lon.=26.243950, Alt.=157.267700m. Speed=0.036000m/h.</desc>
<speed>0.010000</speed>
</trkpt>
<trkpt lat="55.729546" lon="26.243950">
<ele>157.267700</ele>
<time>2010-07-18T07:59:48Z</time>
<desc>lat.=55.729546, lon.=26.243950, Alt.=157.267700m. Speed=0.036000m/h.</desc>
<speed>0.010000</speed>
</trkpt>
<trkpt lat="55.729546" lon="26.243950">
<ele>157.267700</ele>
<time>2010-07-18T07:59:49Z</time>
<desc>lat.=55.729546, lon.=26.243950, Alt.=157.267700m. Speed=0.000000m/h.</desc>
<speed>0.000000</speed>
</trkpt>
<trkpt lat="55.729546" lon="26.243950">
<ele>157.263794</ele>
<time>2010-07-18T07:59:50Z</time>
<desc>lat.=55.729546, lon.=26.243950, Alt.=157.263794m. Speed=0.036000m/h.</desc>
<speed>0.010000</speed>
</trkpt>
<trkpt lat="55.729546" lon="26.243950">
<ele>157.263794</ele>
<time>2010-07-18T07:59:51Z</time>
<desc>lat.=55.729546, lon.=26.243950, Alt.=157.263794m. Speed=0.000000m/h.</desc>
<speed>0.000000</speed>
</trkpt>
<trkpt lat="55.729546" lon="26.243950">
<ele>157.263794</ele>
<time>2010-07-18T07:59:52Z</time>
<desc>lat.=55.729546, lon.=26.243950, Alt.=157.263794m. Speed=0.036000m/h.</desc>
<speed>0.010000</speed>
</trkpt>
<trkpt lat="55.729546" lon="26.243950">
<ele>157.259888</ele>
<time>2010-07-18T07:59:53Z</time>
<desc>lat.=55.729546, lon.=26.243950, Alt.=157.259888m. Speed=0.108000m/h.</desc>
<speed>0.030000</speed>
</trkpt>
<trkpt lat="55.729546" lon="26.243950">
<ele>157.259888</ele>
<time>2010-07-18T07:59:54Z</time>
<desc>lat.=55.729546, lon.=26.243950, Alt.=157.259888m. Speed=0.108000m/h.</desc>
<speed>0.030000</speed>
</trkpt>
<trkpt lat="55.729546" lon="26.243950">
<ele>157.259888</ele>
<time>2010-07-18T07:59:55Z</time>
<desc>lat.=55.729546, lon.=26.243950, Alt.=157.259888m. Speed=0.216000m/h.</desc>
<speed>0.060000</speed>
</trkpt>
<trkpt lat="55.729546" lon="26.243950">
<ele>157.259888</ele>
<time>2010-07-18T07:59:56Z</time>
<desc>lat.=55.729546, lon.=26.243950, Alt.=157.259888m. Speed=0.108000m/h.</desc>
<speed>0.030000</speed>
</trkpt>
<trkpt lat="55.729546" lon="26.243950">
<ele>157.263794</ele>
<time>2010-07-18T07:59:57Z</time>
<desc>lat.=55.729546, lon.=26.243950, Alt.=157.263794m. Speed=0.072000m/h.</desc>
<speed>0.020000</speed>
</trkpt>
<trkpt lat="55.729546" lon="26.243950">
<ele>157.263794</ele>
<time>2010-07-18T07:59:58Z</time>
<desc>lat.=55.729546, lon.=26.243950, Alt.=157.263794m. Speed=0.036000m/h.</desc>
<speed>0.010000</speed>
</trkpt>
<trkpt lat="55.729546" lon="26.243950">
<ele>157.267700</ele>
<time>2010-07-18T07:59:59Z</time>
<desc>lat.=55.729546, lon.=26.243950, Alt.=157.267700m. Speed=0.000000m/h.</desc>
<speed>0.000000</speed>
</trkpt>
<trkpt lat="55.729546" lon="26.243950">
<ele>157.267700</ele>
<time>2010-07-18T08:00:00Z</time>
<desc>lat.=55.729546, lon.=26.243950, Alt.=157.267700m. Speed=0.036000m/h.</desc>
<speed>0.010000</speed>
</trkpt>
<trkpt lat="55.729546" lon="26.243950">
<ele>157.263794</ele>
<time>2010-07-18T08:00:01Z</time>
<desc>lat.=55.729546, lon.=26.243950, Alt.=157.263794m. Speed=0.036000m/h.</desc>
<speed>0.010000</speed>
</trkpt>
<trkpt lat="55.729546" lon="26.243948">
<ele>157.263794</ele>
<time>2010-07-18T08:00:02Z</time>
<desc>lat.=55.729546, lon.=26.243948, Alt.=157.263794m. Speed=0.000000m/h.</desc>
<speed>0.000000</speed>
</trkpt>
<trkpt lat="55.729546" lon="26.243948">
<ele>157.263794</ele>
<time>2010-07-18T08:00:03Z</time>
<desc>lat.=55.729546, lon.=26.243948, Alt.=157.263794m. Speed=0.000000m/h.</desc>
<speed>0.000000</speed>
</trkpt>
<trkpt lat="55.729546" lon="26.243948">
<ele>157.259888</ele>
<time>2010-07-18T08:00:04Z</time>
<desc>lat.=55.729546, lon.=26.243948, Alt.=157.259888m. Speed=0.108000m/h.</desc>
<speed>0.030000</speed>
</trkpt>
<trkpt lat="55.729546" lon="26.243948">
<ele>157.259888</ele>
<time>2010-07-18T08:00:05Z</time>
<desc>lat.=55.729546, lon.=26.243948, Alt.=157.259888m. Speed=0.108000m/h.</desc>
<speed>0.030000</speed>
</trkpt>
<trkpt lat="55.729549" lon="26.243948">
<ele>157.255981</ele>
<time>2010-07-18T08:00:06Z</time>
<desc>lat.=55.729549, lon.=26.243948, Alt.=157.255981m. Speed=0.072000m/h.</desc>
<speed>0.020000</speed>
</trkpt>
<trkpt lat="55.729546" lon="26.243948">
<ele>157.255981</ele>
<time>2010-07-18T08:00:07Z</time>
<desc>lat.=55.729546, lon.=26.243948, Alt.=157.255981m. Speed=0.000000m/h.</desc>
<speed>0.000000</speed>
</trkpt>
<trkpt lat="55.729549" lon="26.243948">
<ele>157.255981</ele>
<time>2010-07-18T08:00:08Z</time>
<desc>lat.=55.729549, lon.=26.243948, Alt.=157.255981m. Speed=0.108000m/h.</desc>
<speed>0.030000</speed>
</trkpt>
<trkpt lat="55.729549" lon="26.243948">
<ele>157.259888</ele>
<time>2010-07-18T08:00:09Z</time>
<desc>lat.=55.729549, lon.=26.243948, Alt.=157.259888m. Speed=0.000000m/h.</desc>
<speed>0.000000</speed>
</trkpt>
<trkpt lat="55.729549" lon="26.243948">
<ele>157.259888</ele>
<time>2010-07-18T08:00:10Z</time>
<desc>lat.=55.729549, lon.=26.243948, Alt.=157.259888m. Speed=0.108000m/h.</desc>
<speed>0.030000</speed>
</trkpt>
<trkpt lat="55.729549" lon="26.243948">
<ele>157.259888</ele>
<time>2010-07-18T08:00:11Z</time>
<desc>lat.=55.729549, lon.=26.243948, Alt.=157.259888m. Speed=0.180000m/h.</desc>
<speed>0.050000</speed>
</trkpt>
<trkpt lat="55.729549" lon="26.243948">
<ele>157.255981</ele>
<time>2010-07-18T08:00:12Z</time>
<desc>lat.=55.729549, lon.=26.243948, Alt.=157.255981m. Speed=0.108000m/h.</desc>
<speed>0.030000</speed>
</trkpt>
<trkpt lat="55.729549" lon="26.243948">
<ele>157.252075</ele>
<time>2010-07-18T08:00:13Z</time>
<desc>lat.=55.729549, lon.=26.243948, Alt.=157.252075m. Speed=0.072000m/h.</desc>
<speed>0.020000</speed>
</trkpt>
<trkpt lat="55.729549" lon="26.243948">
<ele>157.248169</ele>
<time>2010-07-18T08:00:14Z</time>
<desc>lat.=55.729549, lon.=26.243948, Alt.=157.248169m. Speed=0.180000m/h.</desc>
<speed>0.050000</speed>
</trkpt>
<trkpt lat="55.729549" lon="26.243948">
<ele>157.244263</ele>
<time>2010-07-18T08:00:15Z</time>
<desc>lat.=55.729549, lon.=26.243948, Alt.=157.244263m. Speed=0.216000m/h.</desc>
<speed>0.060000</speed>
</trkpt>
<trkpt lat="55.729549" lon="26.243948">
<ele>157.236450</ele>
<time>2010-07-18T08:00:16Z</time>
<desc>lat.=55.729549, lon.=26.243948, Alt.=157.236450m. Speed=0.180000m/h.</desc>
<speed>0.050000</speed>
</trkpt>
<trkpt lat="55.729549" lon="26.243948">
<ele>157.232544</ele>
<time>2010-07-18T08:00:17Z</time>
<desc>lat.=55.729549, lon.=26.243948, Alt.=157.232544m. Speed=0.216000m/h.</desc>
<speed>0.060000</speed>
</trkpt>
<trkpt lat="55.729549" lon="26.243948">
<ele>157.228638</ele>
<time>2010-07-18T08:00:18Z</time>
<desc>lat.=55.729549, lon.=26.243948, Alt.=157.228638m. Speed=0.216000m/h.</desc>
<speed>0.060000</speed>
</trkpt>
<trkpt lat="55.729549" lon="26.243946">
<ele>157.220825</ele>
<time>2010-07-18T08:00:19Z</time>
<desc>lat.=55.729549, lon.=26.243946, Alt.=157.220825m. Speed=0.180000m/h.</desc>
<speed>0.050000</speed>
</trkpt>
<trkpt lat="55.729549" lon="26.243946">
<ele>157.213013</ele>
<time>2010-07-18T08:00:20Z</time>
<desc>lat.=55.729549, lon.=26.243946, Alt.=157.213013m. Speed=0.108000m/h.</desc>
<speed>0.030000</speed>
</trkpt>
<trkpt lat="55.729549" lon="26.243946">
<ele>157.209106</ele>
<time>2010-07-18T08:00:21Z</time>
<desc>lat.=55.729549, lon.=26.243946, Alt.=157.209106m. Speed=0.036000m/h.</desc>
<speed>0.010000</speed>
</trkpt>
<trkpt lat="55.729549" lon="26.243946">
<ele>157.205200</ele>
<time>2010-07-18T08:00:22Z</time>
<desc>lat.=55.729549, lon.=26.243946, Alt.=157.205200m. Speed=0.036000m/h.</desc>
<speed>0.010000</speed>
</trkpt>
<trkpt lat="55.729549" lon="26.243946">
<ele>157.201294</ele>
<time>2010-07-18T08:00:23Z</time>
<desc>lat.=55.729549, lon.=26.243946, Alt.=157.201294m. Speed=0.072000m/h.</desc>
<speed>0.020000</speed>
</trkpt>
<trkpt lat="55.729549" lon="26.243946">
<ele>157.201294</ele>
<time>2010-07-18T08:00:24Z</time>
<desc>lat.=55.729549, lon.=26.243946, Alt.=157.201294m. Speed=0.144000m/h.</desc>
<speed>0.040000</speed>
</trkpt>
<trkpt lat="55.729549" lon="26.243946">
<ele>157.201294</ele>
<time>2010-07-18T08:00:25Z</time>
<desc>lat.=55.729549, lon.=26.243946, Alt.=157.201294m. Speed=0.216000m/h.</desc>
<speed>0.060000</speed>
</trkpt>
<trkpt lat="55.729549" lon="26.243946">
<ele>157.201294</ele>
<time>2010-07-18T08:00:26Z</time>
<desc>lat.=55.729549, lon.=26.243946, Alt.=157.201294m. Speed=0.180000m/h.</desc>
<speed>0.050000</speed>
</trkpt>
<trkpt lat="55.729549" lon="26.243944">
<ele>157.197388</ele>
<time>2010-07-18T08:00:27Z</time>
<desc>lat.=55.729549, lon.=26.243944, Alt.=157.197388m. Speed=0.144000m/h.</desc>
<speed>0.040000</speed>
</trkpt>
<trkpt lat="55.729549" lon="26.243944">
<ele>157.197388</ele>
<time>2010-07-18T08:00:28Z</time>
<desc>lat.=55.729549, lon.=26.243944, Alt.=157.197388m. Speed=0.000000m/h.</desc>
<speed>0.000000</speed>
</trkpt>
<trkpt lat="55.729549" lon="26.243944">
<ele>157.197388</ele>
<time>2010-07-18T08:00:29Z</time>
<desc>lat.=55.729549, lon.=26.243944, Alt.=157.197388m. Speed=0.000000m/h.</desc>
<speed>0.000000</speed>
</trkpt>
<trkpt lat="55.729549" lon="26.243944">
<ele>157.193481</ele>
<time>2010-07-18T08:00:30Z</time>
<desc>lat.=55.729549, lon.=26.243944, Alt.=157.193481m. Speed=0.000000m/h.</desc>
<speed>0.000000</speed>
</trkpt>
<trkpt lat="55.729549" lon="26.243944">
<ele>157.201294</ele>
<time>2010-07-18T08:00:31Z</time>
<desc>lat.=55.729549, lon.=26.243944, Alt.=157.201294m. Speed=0.072000m/h.</desc>
<speed>0.020000</speed>
</trkpt>
<trkpt lat="55.729549" lon="26.243946">
<ele>157.205200</ele>
<time>2010-07-18T08:00:32Z</time>
<desc>lat.=55.729549, lon.=26.243946, Alt.=157.205200m. Speed=0.072000m/h.</desc>
<speed>0.020000</speed>
</trkpt>
<trkpt lat="55.729549" lon="26.243946">
<ele>157.209106</ele>
<time>2010-07-18T08:00:33Z</time>
<desc>lat.=55.729549, lon.=26.243946, Alt.=157.209106m. Speed=0.072000m/h.</desc>
<speed>0.020000</speed>
</trkpt>
<trkpt lat="55.729549" lon="26.243946">
<ele>157.213013</ele>
<time>2010-07-18T08:00:34Z</time>
<desc>lat.=55.729549, lon.=26.243946, Alt.=157.213013m. Speed=0.108000m/h.</desc>
<speed>0.030000</speed>
</trkpt>
<trkpt lat="55.729549" lon="26.243946">
<ele>157.216919</ele>
<time>2010-07-18T08:00:35Z</time>
<desc>lat.=55.729549, lon.=26.243946, Alt.=157.216919m. Speed=0.072000m/h.</desc>
<speed>0.020000</speed>
</trkpt>
<trkpt lat="55.729549" lon="26.243946">
<ele>157.220825</ele>
<time>2010-07-18T08:00:36Z</time>
<desc>lat.=55.729549, lon.=26.243946, Alt.=157.220825m. Speed=0.108000m/h.</desc>
<speed>0.030000</speed>
</trkpt>
<trkpt lat="55.729549" lon="26.243946">
<ele>157.224731</ele>
<time>2010-07-18T08:00:37Z</time>
<desc>lat.=55.729549, lon.=26.243946, Alt.=157.224731m. Speed=0.108000m/h.</desc>
<speed>0.030000</speed>
</trkpt>
<trkpt lat="55.729549" lon="26.243946">
<ele>157.228638</ele>
<time>2010-07-18T08:00:38Z</time>
<desc>lat.=55.729549, lon.=26.243946, Alt.=157.228638m. Speed=0.072000m/h.</desc>
<speed>0.020000</speed>
</trkpt>
<trkpt lat="55.729549" lon="26.243946">
<ele>157.232544</ele>
<time>2010-07-18T08:00:39Z</time>
<desc>lat.=55.729549, lon.=26.243946, Alt.=157.232544m. Speed=0.072000m/h.</desc>
<speed>0.020000</speed>
</trkpt>
<trkpt lat="55.729549" lon="26.243946">
<ele>157.236450</ele>
<time>2010-07-18T08:00:40Z</time>
<desc>lat.=55.729549, lon.=26.243946, Alt.=157.236450m. Speed=0.036000m/h.</desc>
<speed>0.010000</speed>
</trkpt>
<trkpt lat="55.729549" lon="26.243948">
<ele>157.240356</ele>
<time>2010-07-18T08:00:41Z</time>
<desc>lat.=55.729549, lon.=26.243948, Alt.=157.240356m. Speed=0.036000m/h.</desc>
<speed>0.010000</speed>
</trkpt>
<trkpt lat="55.729549" lon="26.243948">
<ele>157.244263</ele>
<time>2010-07-18T08:00:42Z</time>
<desc>lat.=55.729549, lon.=26.243948, Alt.=157.244263m. Speed=0.036000m/h.</desc>
<speed>0.010000</speed>
</trkpt>
<trkpt lat="55.729549" lon="26.243948">
<ele>157.252075</ele>
<time>2010-07-18T08:00:43Z</time>
<desc>lat.=55.729549, lon.=26.243948, Alt.=157.252075m. Speed=0.036000m/h.</desc>
<speed>0.010000</speed>
</trkpt>
<trkpt lat="55.729549" lon="26.243948">
<ele>157.255981</ele>
<time>2010-07-18T08:00:44Z</time>
<desc>lat.=55.729549, lon.=26.243948, Alt.=157.255981m. Speed=0.036000m/h.</desc>
<speed>0.010000</speed>
</trkpt>
<trkpt lat="55.729549" lon="26.243948">
<ele>157.259888</ele>
<time>2010-07-18T08:00:45Z</time>
<desc>lat.=55.729549, lon.=26.243948, Alt.=157.259888m. Speed=0.036000m/h.</desc>
<speed>0.010000</speed>
</trkpt>
<trkpt lat="55.729549" lon="26.243948">
<ele>157.259888</ele>
<time>2010-07-18T08:00:46Z</time>
<desc>lat.=55.729549, lon.=26.243948, Alt.=157.259888m. Speed=0.108000m/h.</desc>
<speed>0.030000</speed>
</trkpt>
<trkpt lat="55.729549" lon="26.243948">
<ele>157.267700</ele>
<time>2010-07-18T08:00:47Z</time>
<desc>lat.=55.729549, lon.=26.243948, Alt.=157.267700m. Speed=0.108000m/h.</desc>
<speed>0.030000</speed>
</trkpt>
<trkpt lat="55.729549" lon="26.243948">
<ele>157.287231</ele>
<time>2010-07-18T08:00:48Z</time>
<desc>lat.=55.729549, lon.=26.243948, Alt.=157.287231m. Speed=0.000000m/h.</desc>
<speed>0.000000</speed>
</trkpt>
<trkpt lat="55.729549" lon="26.243948">
<ele>157.291138</ele>
<time>2010-07-18T08:00:49Z</time>
<desc>lat.=55.729549, lon.=26.243948, Alt.=157.291138m. Speed=0.072000m/h.</desc>
<speed>0.020000</speed>
</trkpt>
<trkpt lat="55.729549" lon="26.243948">
<ele>157.295044</ele>
<time>2010-07-18T08:00:50Z</time>
<desc>lat.=55.729549, lon.=26.243948, Alt.=157.295044m. Speed=0.144000m/h.</desc>
<speed>0.040000</speed>
</trkpt>
<trkpt lat="55.729549" lon="26.243948">
<ele>157.302856</ele>
<time>2010-07-18T08:00:51Z</time>
<desc>lat.=55.729549, lon.=26.243948, Alt.=157.302856m. Speed=0.144000m/h.</desc>
<speed>0.040000</speed>
</trkpt>
<trkpt lat="55.729549" lon="26.243948">
<ele>157.302856</ele>
<time>2010-07-18T08:00:52Z</time>
<desc>lat.=55.729549, lon.=26.243948, Alt.=157.302856m. Speed=0.072000m/h.</desc>
<speed>0.020000</speed>
</trkpt>
<trkpt lat="55.729549" lon="26.243948">
<ele>157.310669</ele>
<time>2010-07-18T08:00:53Z</time>
<desc>lat.=55.729549, lon.=26.243948, Alt.=157.310669m. Speed=0.108000m/h.</desc>
<speed>0.030000</speed>
</trkpt>
<trkpt lat="55.729549" lon="26.243950">
<ele>157.314575</ele>
<time>2010-07-18T08:00:54Z</time>
<desc>lat.=55.729549, lon.=26.243950, Alt.=157.314575m. Speed=0.108000m/h.</desc>
<speed>0.030000</speed>
</trkpt>
<trkpt lat="55.729549" lon="26.243950">
<ele>157.322388</ele>
<time>2010-07-18T08:00:55Z</time>
<desc>lat.=55.729549, lon.=26.243950, Alt.=157.322388m. Speed=0.108000m/h.</desc>
<speed>0.030000</speed>
</trkpt>
<trkpt lat="55.729549" lon="26.243950">
<ele>157.326294</ele>
<time>2010-07-18T08:00:56Z</time>
<desc>lat.=55.729549, lon.=26.243950, Alt.=157.326294m. Speed=0.072000m/h.</desc>
<speed>0.020000</speed>
</trkpt>
<trkpt lat="55.729549" lon="26.243950">
<ele>157.330200</ele>
<time>2010-07-18T08:00:57Z</time>
<desc>lat.=55.729549, lon.=26.243950, Alt.=157.330200m. Speed=0.036000m/h.</desc>
<speed>0.010000</speed>
</trkpt>
<trkpt lat="55.729549" lon="26.243950">
<ele>157.334106</ele>
<time>2010-07-18T08:00:58Z</time>
<desc>lat.=55.729549, lon.=26.243950, Alt.=157.334106m. Speed=0.072000m/h.</desc>
<speed>0.020000</speed>
</trkpt>
<trkpt lat="55.729549" lon="26.243950">
<ele>157.338013</ele>
<time>2010-07-18T08:00:59Z</time>
<desc>lat.=55.729549, lon.=26.243950, Alt.=157.338013m. Speed=0.072000m/h.</desc>
<speed>0.020000</speed>
</trkpt>
<trkpt lat="55.729549" lon="26.243950">
<ele>157.338013</ele>
<time>2010-07-18T08:01:00Z</time>
<desc>lat.=55.729549, lon.=26.243950, Alt.=157.338013m. Speed=0.072000m/h.</desc>
<speed>0.020000</speed>
</trkpt>
<trkpt lat="55.729549" lon="26.243950">
<ele>157.341919</ele>
<time>2010-07-18T08:01:01Z</time>
<desc>lat.=55.729549, lon.=26.243950, Alt.=157.341919m. Speed=0.108000m/h.</desc>
<speed>0.030000</speed>
</trkpt>
<trkpt lat="55.729549" lon="26.243950">
<ele>157.349731</ele>
<time>2010-07-18T08:01:02Z</time>
<desc>lat.=55.729549, lon.=26.243950, Alt.=157.349731m. Speed=0.072000m/h.</desc>
<speed>0.020000</speed>
</trkpt>
<trkpt lat="55.729549" lon="26.243950">
<ele>157.353638</ele>
<time>2010-07-18T08:01:03Z</time>
<desc>lat.=55.729549, lon.=26.243950, Alt.=157.353638m. Speed=0.072000m/h.</desc>
<speed>0.020000</speed>
</trkpt>
<trkpt lat="55.729549" lon="26.243950">
<ele>157.353638</ele>
<time>2010-07-18T08:01:04Z</time>
<desc>lat.=55.729549, lon.=26.243950, Alt.=157.353638m. Speed=0.036000m/h.</desc>
<speed>0.010000</speed>
</trkpt>
<trkpt lat="55.729549" lon="26.243952">
<ele>157.353638</ele>
<time>2010-07-18T08:01:05Z</time>
<desc>lat.=55.729549, lon.=26.243952, Alt.=157.353638m. Speed=0.036000m/h.</desc>
<speed>0.010000</speed>
</trkpt>
<trkpt lat="55.729549" lon="26.243950">
<ele>157.353638</ele>
<time>2010-07-18T08:01:06Z</time>
<desc>lat.=55.729549, lon.=26.243950, Alt.=157.353638m. Speed=0.108000m/h.</desc>
<speed>0.030000</speed>
</trkpt>
<trkpt lat="55.729549" lon="26.243950">
<ele>157.349731</ele>
<time>2010-07-18T08:01:07Z</time>
<desc>lat.=55.729549, lon.=26.243950, Alt.=157.349731m. Speed=0.072000m/h.</desc>
<speed>0.020000</speed>
</trkpt>
<trkpt lat="55.729549" lon="26.243950">
<ele>157.349731</ele>
<time>2010-07-18T08:01:08Z</time>
<desc>lat.=55.729549, lon.=26.243950, Alt.=157.349731m. Speed=0.036000m/h.</desc>
<speed>0.010000</speed>
</trkpt>
<trkpt lat="55.729549" lon="26.243950">
<ele>157.353638</ele>
<time>2010-07-18T08:01:09Z</time>
<desc>lat.=55.729549, lon.=26.243950, Alt.=157.353638m. Speed=0.036000m/h.</desc>
<speed>0.010000</speed>
</trkpt>
<trkpt lat="55.729549" lon="26.243950">
<ele>157.361450</ele>
<time>2010-07-18T08:01:10Z</time>
<desc>lat.=55.729549, lon.=26.243950, Alt.=157.361450m. Speed=0.036000m/h.</desc>
<speed>0.010000</speed>
</trkpt>
<trkpt lat="55.729549" lon="26.243950">
<ele>157.365356</ele>
<time>2010-07-18T08:01:11Z</time>
<desc>lat.=55.729549, lon.=26.243950, Alt.=157.365356m. Speed=0.072000m/h.</desc>
<speed>0.020000</speed>
</trkpt>
<trkpt lat="55.729549" lon="26.243950">
<ele>157.369263</ele>
<time>2010-07-18T08:01:12Z</time>
<desc>lat.=55.729549, lon.=26.243950, Alt.=157.369263m. Speed=0.036000m/h.</desc>
<speed>0.010000</speed>
</trkpt>
<trkpt lat="55.729549" lon="26.243950">
<ele>157.369263</ele>
<time>2010-07-18T08:01:13Z</time>
<desc>lat.=55.729549, lon.=26.243950, Alt.=157.369263m. Speed=0.000000m/h.</desc>
<speed>0.000000</speed>
</trkpt>
<trkpt lat="55.729549" lon="26.243950">
<ele>157.373169</ele>
<time>2010-07-18T08:01:14Z</time>
<desc>lat.=55.729549, lon.=26.243950, Alt.=157.373169m. Speed=0.072000m/h.</desc>
<speed>0.020000</speed>
</trkpt>
<trkpt lat="55.729549" lon="26.243950">
<ele>157.373169</ele>
<time>2010-07-18T08:01:15Z</time>
<desc>lat.=55.729549, lon.=26.243950, Alt.=157.373169m. Speed=0.036000m/h.</desc>
<speed>0.010000</speed>
</trkpt>
<trkpt lat="55.729549" lon="26.243950">
<ele>157.377075</ele>
<time>2010-07-18T08:01:16Z</time>
<desc>lat.=55.729549, lon.=26.243950, Alt.=157.377075m. Speed=0.072000m/h.</desc>
<speed>0.020000</speed>
</trkpt>
<trkpt lat="55.729549" lon="26.243952">
<ele>157.380981</ele>
<time>2010-07-18T08:01:17Z</time>
<desc>lat.=55.729549, lon.=26.243952, Alt.=157.380981m. Speed=0.072000m/h.</desc>
<speed>0.020000</speed>
</trkpt>
<trkpt lat="55.729549" lon="26.243952">
<ele>157.384888</ele>
<time>2010-07-18T08:01:18Z</time>
<desc>lat.=55.729549, lon.=26.243952, Alt.=157.384888m. Speed=0.108000m/h.</desc>
<speed>0.030000</speed>
</trkpt>
<trkpt lat="55.729553" lon="26.243952">
<ele>157.392700</ele>
<time>2010-07-18T08:01:19Z</time>
<desc>lat.=55.729553, lon.=26.243952, Alt.=157.392700m. Speed=0.108000m/h.</desc>
<speed>0.030000</speed>
</trkpt>
<trkpt lat="55.729553" lon="26.243952">
<ele>157.400513</ele>
<time>2010-07-18T08:01:20Z</time>
<desc>lat.=55.729553, lon.=26.243952, Alt.=157.400513m. Speed=0.252000m/h.</desc>
<speed>0.070000</speed>
</trkpt>
<trkpt lat="55.729553" lon="26.243952">
<ele>157.412231</ele>
<time>2010-07-18T08:01:21Z</time>
<desc>lat.=55.729553, lon.=26.243952, Alt.=157.412231m. Speed=0.288000m/h.</desc>
<speed>0.080000</speed>
</trkpt>
<trkpt lat="55.729553" lon="26.243950">
<ele>157.431763</ele>
<time>2010-07-18T08:01:22Z</time>
<desc>lat.=55.729553, lon.=26.243950, Alt.=157.431763m. Speed=0.468000m/h.</desc>
<speed>0.130000</speed>
</trkpt>
<trkpt lat="55.729553" lon="26.243950">
<ele>157.451294</ele>
<time>2010-07-18T08:01:23Z</time>
<desc>lat.=55.729553, lon.=26.243950, Alt.=157.451294m. Speed=0.612000m/h.</desc>
<speed>0.170000</speed>
</trkpt>
<trkpt lat="55.729557" lon="26.243950">
<ele>157.466919</ele>
<time>2010-07-18T08:01:24Z</time>
<desc>lat.=55.729557, lon.=26.243950, Alt.=157.466919m. Speed=0.684000m/h.</desc>
<speed>0.190000</speed>
</trkpt>
<trkpt lat="55.729557" lon="26.243950">
<ele>157.490356</ele>
<time>2010-07-18T08:01:25Z</time>
<desc>lat.=55.729557, lon.=26.243950, Alt.=157.490356m. Speed=0.720000m/h.</desc>
<speed>0.200000</speed>
</trkpt>
<trkpt lat="55.729561" lon="26.243948">
<ele>157.513794</ele>
<time>2010-07-18T08:01:26Z</time>
<desc>lat.=55.729561, lon.=26.243948, Alt.=157.513794m. Speed=0.684000m/h.</desc>
<speed>0.190000</speed>
</trkpt>
<trkpt lat="55.729561" lon="26.243948">
<ele>157.541138</ele>
<time>2010-07-18T08:01:27Z</time>
<desc>lat.=55.729561, lon.=26.243948, Alt.=157.541138m. Speed=0.720000m/h.</desc>
<speed>0.200000</speed>
</trkpt>
<trkpt lat="55.729565" lon="26.243948">
<ele>157.576294</ele>
<time>2010-07-18T08:01:28Z</time>
<desc>lat.=55.729565, lon.=26.243948, Alt.=157.576294m. Speed=0.684000m/h.</desc>
<speed>0.190000</speed>
</trkpt>
<trkpt lat="55.729565" lon="26.243948">
<ele>157.615356</ele>
<time>2010-07-18T08:01:29Z</time>
<desc>lat.=55.729565, lon.=26.243948, Alt.=157.615356m. Speed=0.540000m/h.</desc>
<speed>0.150000</speed>
</trkpt>
<trkpt lat="55.729568" lon="26.243950">
<ele>157.654419</ele>
<time>2010-07-18T08:01:30Z</time>
<desc>lat.=55.729568, lon.=26.243950, Alt.=157.654419m. Speed=0.504000m/h.</desc>
<speed>0.140000</speed>
</trkpt>
<trkpt lat="55.729568" lon="26.243950">
<ele>157.705200</ele>
<time>2010-07-18T08:01:31Z</time>
<desc>lat.=55.729568, lon.=26.243950, Alt.=157.705200m. Speed=0.504000m/h.</desc>
<speed>0.140000</speed>
</trkpt>
<trkpt lat="55.729568" lon="26.243952">
<ele>157.759888</ele>
<time>2010-07-18T08:01:32Z</time>
<desc>lat.=55.729568, lon.=26.243952, Alt.=157.759888m. Speed=0.468000m/h.</desc>
<speed>0.130000</speed>
</trkpt>
<trkpt lat="55.729572" lon="26.243952">
<ele>157.814575</ele>
<time>2010-07-18T08:01:33Z</time>
<desc>lat.=55.729572, lon.=26.243952, Alt.=157.814575m. Speed=0.432000m/h.</desc>
<speed>0.120000</speed>
</trkpt>
<trkpt lat="55.729572" lon="26.243952">
<ele>157.877075</ele>
<time>2010-07-18T08:01:34Z</time>
<desc>lat.=55.729572, lon.=26.243952, Alt.=157.877075m. Speed=0.288000m/h.</desc>
<speed>0.080000</speed>
</trkpt>
<trkpt lat="55.729572" lon="26.243954">
<ele>157.943481</ele>
<time>2010-07-18T08:01:35Z</time>
<desc>lat.=55.729572, lon.=26.243954, Alt.=157.943481m. Speed=0.288000m/h.</desc>
<speed>0.080000</speed>
</trkpt>
<trkpt lat="55.729572" lon="26.243954">
<ele>158.009888</ele>
<time>2010-07-18T08:01:36Z</time>
<desc>lat.=55.729572, lon.=26.243954, Alt.=158.009888m. Speed=0.216000m/h.</desc>
<speed>0.060000</speed>
</trkpt>
<trkpt lat="55.729572" lon="26.243954">
<ele>158.088013</ele>
<time>2010-07-18T08:01:37Z</time>
<desc>lat.=55.729572, lon.=26.243954, Alt.=158.088013m. Speed=0.216000m/h.</desc>
<speed>0.060000</speed>
</trkpt>
<trkpt lat="55.729572" lon="26.243956">
<ele>158.162231</ele>
<time>2010-07-18T08:01:38Z</time>
<desc>lat.=55.729572, lon.=26.243956, Alt.=158.162231m. Speed=0.216000m/h.</desc>
<speed>0.060000</speed>
</trkpt>
<trkpt lat="55.729572" lon="26.243958">
<ele>158.240356</ele>
<time>2010-07-18T08:01:39Z</time>
<desc>lat.=55.729572, lon.=26.243958, Alt.=158.240356m. Speed=0.216000m/h.</desc>
<speed>0.060000</speed>
</trkpt>
<trkpt lat="55.729572" lon="26.243958">
<ele>158.322388</ele>
<time>2010-07-18T08:01:40Z</time>
<desc>lat.=55.729572, lon.=26.243958, Alt.=158.322388m. Speed=0.216000m/h.</desc>
<speed>0.060000</speed>
</trkpt>
<trkpt lat="55.729572" lon="26.243958">
<ele>158.400513</ele>
<time>2010-07-18T08:01:41Z</time>
<desc>lat.=55.729572, lon.=26.243958, Alt.=158.400513m. Speed=0.216000m/h.</desc>
<speed>0.060000</speed>
</trkpt>
<trkpt lat="55.729572" lon="26.243959">
<ele>158.474731</ele>
<time>2010-07-18T08:01:42Z</time>
<desc>lat.=55.729572, lon.=26.243959, Alt.=158.474731m. Speed=0.288000m/h.</desc>
<speed>0.080000</speed>
</trkpt>
<trkpt lat="55.729572" lon="26.243959">
<ele>158.548950</ele>
<time>2010-07-18T08:01:43Z</time>
<desc>lat.=55.729572, lon.=26.243959, Alt.=158.548950m. Speed=0.252000m/h.</desc>
<speed>0.070000</speed>
</trkpt>
<trkpt lat="55.729572" lon="26.243959">
<ele>158.619263</ele>
<time>2010-07-18T08:01:44Z</time>
<desc>lat.=55.729572, lon.=26.243959, Alt.=158.619263m. Speed=0.324000m/h.</desc>
<speed>0.090000</speed>
</trkpt>
<trkpt lat="55.729568" lon="26.243959">
<ele>158.693481</ele>
<time>2010-07-18T08:01:45Z</time>
<desc>lat.=55.729568, lon.=26.243959, Alt.=158.693481m. Speed=0.360000m/h.</desc>
<speed>0.100000</speed>
</trkpt>
<trkpt lat="55.729568" lon="26.243958">
<ele>158.767700</ele>
<time>2010-07-18T08:01:46Z</time>
<desc>lat.=55.729568, lon.=26.243958, Alt.=158.767700m. Speed=0.360000m/h.</desc>
<speed>0.100000</speed>
</trkpt>
<trkpt lat="55.729568" lon="26.243958">
<ele>158.838013</ele>
<time>2010-07-18T08:01:47Z</time>
<desc>lat.=55.729568, lon.=26.243958, Alt.=158.838013m. Speed=0.288000m/h.</desc>
<speed>0.080000</speed>
</trkpt>
<trkpt lat="55.729568" lon="26.243958">
<ele>158.908325</ele>
<time>2010-07-18T08:01:48Z</time>
<desc>lat.=55.729568, lon.=26.243958, Alt.=158.908325m. Speed=0.216000m/h.</desc>
<speed>0.060000</speed>
</trkpt>
<trkpt lat="55.729568" lon="26.243956">
<ele>158.970825</ele>
<time>2010-07-18T08:01:49Z</time>
<desc>lat.=55.729568, lon.=26.243956, Alt.=158.970825m. Speed=0.180000m/h.</desc>
<speed>0.050000</speed>
</trkpt>
<trkpt lat="55.729568" lon="26.243956">
<ele>159.025513</ele>
<time>2010-07-18T08:01:50Z</time>
<desc>lat.=55.729568, lon.=26.243956, Alt.=159.025513m. Speed=0.180000m/h.</desc>
<speed>0.050000</speed>
</trkpt>
<trkpt lat="55.729568" lon="26.243954">
<ele>159.091919</ele>
<time>2010-07-18T08:01:51Z</time>
<desc>lat.=55.729568, lon.=26.243954, Alt.=159.091919m. Speed=0.288000m/h.</desc>
<speed>0.080000</speed>
</trkpt>
<trkpt lat="55.729568" lon="26.243952">
<ele>159.158325</ele>
<time>2010-07-18T08:01:52Z</time>
<desc>lat.=55.729568, lon.=26.243952, Alt.=159.158325m. Speed=0.360000m/h.</desc>
<speed>0.100000</speed>
</trkpt>
<trkpt lat="55.729568" lon="26.243950">
<ele>159.228638</ele>
<time>2010-07-18T08:01:53Z</time>
<desc>lat.=55.729568, lon.=26.243950, Alt.=159.228638m. Speed=0.468000m/h.</desc>
<speed>0.130000</speed>
</trkpt>
<trkpt lat="55.729568" lon="26.243948">
<ele>159.302856</ele>
<time>2010-07-18T08:01:54Z</time>
<desc>lat.=55.729568, lon.=26.243948, Alt.=159.302856m. Speed=0.396000m/h.</desc>
<speed>0.110000</speed>
</trkpt>
<trkpt lat="55.729568" lon="26.243948">
<ele>159.392700</ele>
<time>2010-07-18T08:01:55Z</time>
<desc>lat.=55.729568, lon.=26.243948, Alt.=159.392700m. Speed=0.216000m/h.</desc>
<speed>0.060000</speed>
</trkpt>
<trkpt lat="55.729568" lon="26.243946">
<ele>159.470825</ele>
<time>2010-07-18T08:01:56Z</time>
<desc>lat.=55.729568, lon.=26.243946, Alt.=159.470825m. Speed=0.216000m/h.</desc>
<speed>0.060000</speed>
</trkpt>
<trkpt lat="55.729568" lon="26.243946">
<ele>159.548950</ele>
<time>2010-07-18T08:01:57Z</time>
<desc>lat.=55.729568, lon.=26.243946, Alt.=159.548950m. Speed=0.180000m/h.</desc>
<speed>0.050000</speed>
</trkpt>
<trkpt lat="55.729568" lon="26.243944">
<ele>159.627075</ele>
<time>2010-07-18T08:01:58Z</time>
<desc>lat.=55.729568, lon.=26.243944, Alt.=159.627075m. Speed=0.144000m/h.</desc>
<speed>0.040000</speed>
</trkpt>
<trkpt lat="55.729568" lon="26.243944">
<ele>159.713013</ele>
<time>2010-07-18T08:01:59Z</time>
<desc>lat.=55.729568, lon.=26.243944, Alt.=159.713013m. Speed=0.072000m/h.</desc>
<speed>0.020000</speed>
</trkpt>
<trkpt lat="55.729568" lon="26.243944">
<ele>159.791138</ele>
<time>2010-07-18T08:02:00Z</time>
<desc>lat.=55.729568, lon.=26.243944, Alt.=159.791138m. Speed=0.072000m/h.</desc>
<speed>0.020000</speed>
</trkpt>
<trkpt lat="55.729568" lon="26.243944">
<ele>159.880981</ele>
<time>2010-07-18T08:02:01Z</time>
<desc>lat.=55.729568, lon.=26.243944, Alt.=159.880981m. Speed=0.000000m/h.</desc>
<speed>0.000000</speed>
</trkpt>
<trkpt lat="55.729568" lon="26.243944">
<ele>159.963013</ele>
<time>2010-07-18T08:02:02Z</time>
<desc>lat.=55.729568, lon.=26.243944, Alt.=159.963013m. Speed=0.036000m/h.</desc>
<speed>0.010000</speed>
</trkpt>
<trkpt lat="55.729568" lon="26.243944">
<ele>160.045044</ele>
<time>2010-07-18T08:02:03Z</time>
<desc>lat.=55.729568, lon.=26.243944, Alt.=160.045044m. Speed=0.036000m/h.</desc>
<speed>0.010000</speed>
</trkpt>
<trkpt lat="55.729568" lon="26.243944">
<ele>160.127075</ele>
<time>2010-07-18T08:02:04Z</time>
<desc>lat.=55.729568, lon.=26.243944, Alt.=160.127075m. Speed=0.072000m/h.</desc>
<speed>0.020000</speed>
</trkpt>
<trkpt lat="55.729568" lon="26.243944">
<ele>160.224731</ele>
<time>2010-07-18T08:02:05Z</time>
<desc>lat.=55.729568, lon.=26.243944, Alt.=160.224731m. Speed=0.072000m/h.</desc>
<speed>0.020000</speed>
</trkpt>
<trkpt lat="55.729568" lon="26.243944">
<ele>160.318481</ele>
<time>2010-07-18T08:02:06Z</time>
<desc>lat.=55.729568, lon.=26.243944, Alt.=160.318481m. Speed=0.360000m/h.</desc>
<speed>0.100000</speed>
</trkpt>
<trkpt lat="55.729568" lon="26.243946">
<ele>160.423950</ele>
<time>2010-07-18T08:02:07Z</time>
<desc>lat.=55.729568, lon.=26.243946, Alt.=160.423950m. Speed=0.288000m/h.</desc>
<speed>0.080000</speed>
</trkpt>
<trkpt lat="55.729568" lon="26.243946">
<ele>160.525513</ele>
<time>2010-07-18T08:02:08Z</time>
<desc>lat.=55.729568, lon.=26.243946, Alt.=160.525513m. Speed=0.288000m/h.</desc>
<speed>0.080000</speed>
</trkpt>
<trkpt lat="55.729568" lon="26.243948">
<ele>160.630981</ele>
<time>2010-07-18T08:02:09Z</time>
<desc>lat.=55.729568, lon.=26.243948, Alt.=160.630981m. Speed=0.288000m/h.</desc>
<speed>0.080000</speed>
</trkpt>
<trkpt lat="55.729568" lon="26.243948">
<ele>160.736450</ele>
<time>2010-07-18T08:02:10Z</time>
<desc>lat.=55.729568, lon.=26.243948, Alt.=160.736450m. Speed=0.324000m/h.</desc>
<speed>0.090000</speed>
</trkpt>
<trkpt lat="55.729572" lon="26.243948">
<ele>160.845825</ele>
<time>2010-07-18T08:02:11Z</time>
<desc>lat.=55.729572, lon.=26.243948, Alt.=160.845825m. Speed=0.288000m/h.</desc>
<speed>0.080000</speed>
</trkpt>
<trkpt lat="55.729572" lon="26.243950">
<ele>160.951294</ele>
<time>2010-07-18T08:02:12Z</time>
<desc>lat.=55.729572, lon.=26.243950, Alt.=160.951294m. Speed=0.216000m/h.</desc>
<speed>0.060000</speed>
</trkpt>
<trkpt lat="55.729572" lon="26.243950">
<ele>161.048950</ele>
<time>2010-07-18T08:02:13Z</time>
<desc>lat.=55.729572, lon.=26.243950, Alt.=161.048950m. Speed=0.180000m/h.</desc>
<speed>0.050000</speed>
</trkpt>
<trkpt lat="55.729572" lon="26.243950">
<ele>161.154419</ele>
<time>2010-07-18T08:02:14Z</time>
<desc>lat.=55.729572, lon.=26.243950, Alt.=161.154419m. Speed=0.180000m/h.</desc>
<speed>0.050000</speed>
</trkpt>
<trkpt lat="55.729572" lon="26.243950">
<ele>161.267700</ele>
<time>2010-07-18T08:02:15Z</time>
<desc>lat.=55.729572, lon.=26.243950, Alt.=161.267700m. Speed=0.180000m/h.</desc>
<speed>0.050000</speed>
</trkpt>
<trkpt lat="55.729572" lon="26.243950">
<ele>161.380981</ele>
<time>2010-07-18T08:02:16Z</time>
<desc>lat.=55.729572, lon.=26.243950, Alt.=161.380981m. Speed=0.144000m/h.</desc>
<speed>0.040000</speed>
</trkpt>
<trkpt lat="55.729572" lon="26.243950">
<ele>161.505981</ele>
<time>2010-07-18T08:02:17Z</time>
<desc>lat.=55.729572, lon.=26.243950, Alt.=161.505981m. Speed=0.144000m/h.</desc>
<speed>0.040000</speed>
</trkpt>
<trkpt lat="55.729572" lon="26.243952">
<ele>161.623169</ele>
<time>2010-07-18T08:02:18Z</time>
<desc>lat.=55.729572, lon.=26.243952, Alt.=161.623169m. Speed=0.216000m/h.</desc>
<speed>0.060000</speed>
</trkpt>
<trkpt lat="55.729576" lon="26.243952">
<ele>161.759888</ele>
<time>2010-07-18T08:02:19Z</time>
<desc>lat.=55.729576, lon.=26.243952, Alt.=161.759888m. Speed=0.216000m/h.</desc>
<speed>0.060000</speed>
</trkpt>
<trkpt lat="55.729576" lon="26.243954">
<ele>161.888794</ele>
<time>2010-07-18T08:02:20Z</time>
<desc>lat.=55.729576, lon.=26.243954, Alt.=161.888794m. Speed=0.180000m/h.</desc>
<speed>0.050000</speed>
</trkpt>
<trkpt lat="55.729576" lon="26.243954">
<ele>162.009888</ele>
<time>2010-07-18T08:02:21Z</time>
<desc>lat.=55.729576, lon.=26.243954, Alt.=162.009888m. Speed=0.144000m/h.</desc>
<speed>0.040000</speed>
</trkpt>
<trkpt lat="55.729576" lon="26.243954">
<ele>162.138794</ele>
<time>2010-07-18T08:02:22Z</time>
<desc>lat.=55.729576, lon.=26.243954, Alt.=162.138794m. Speed=0.072000m/h.</desc>
<speed>0.020000</speed>
</trkpt>
<trkpt lat="55.729576" lon="26.243954">
<ele>162.271606</ele>
<time>2010-07-18T08:02:23Z</time>
<desc>lat.=55.729576, lon.=26.243954, Alt.=162.271606m. Speed=0.072000m/h.</desc>
<speed>0.020000</speed>
</trkpt>
<trkpt lat="55.729576" lon="26.243956">
<ele>162.404419</ele>
<time>2010-07-18T08:02:24Z</time>
<desc>lat.=55.729576, lon.=26.243956, Alt.=162.404419m. Speed=0.036000m/h.</desc>
<speed>0.010000</speed>
</trkpt>
<trkpt lat="55.729576" lon="26.243956">
<ele>162.548950</ele>
<time>2010-07-18T08:02:25Z</time>
<desc>lat.=55.729576, lon.=26.243956, Alt.=162.548950m. Speed=0.036000m/h.</desc>
<speed>0.010000</speed>
</trkpt>
<trkpt lat="55.729576" lon="26.243956">
<ele>162.693481</ele>
<time>2010-07-18T08:02:26Z</time>
<desc>lat.=55.729576, lon.=26.243956, Alt.=162.693481m. Speed=0.072000m/h.</desc>
<speed>0.020000</speed>
</trkpt>
<trkpt lat="55.729576" lon="26.243956">
<ele>162.841919</ele>
<time>2010-07-18T08:02:27Z</time>
<desc>lat.=55.729576, lon.=26.243956, Alt.=162.841919m. Speed=0.108000m/h.</desc>
<speed>0.030000</speed>
</trkpt>
<trkpt lat="55.729576" lon="26.243958">
<ele>163.002075</ele>
<time>2010-07-18T08:02:28Z</time>
<desc>lat.=55.729576, lon.=26.243958, Alt.=163.002075m. Speed=0.144000m/h.</desc>
<speed>0.040000</speed>
</trkpt>
<trkpt lat="55.729576" lon="26.243958">
<ele>163.154419</ele>
<time>2010-07-18T08:02:29Z</time>
<desc>lat.=55.729576, lon.=26.243958, Alt.=163.154419m. Speed=0.252000m/h.</desc>
<speed>0.070000</speed>
</trkpt>
<trkpt lat="55.729576" lon="26.243959">
<ele>163.314575</ele>
<time>2010-07-18T08:02:30Z</time>
<desc>lat.=55.729576, lon.=26.243959, Alt.=163.314575m. Speed=0.396000m/h.</desc>
<speed>0.110000</speed>
</trkpt>
<trkpt lat="55.729576" lon="26.243961">
<ele>163.474731</ele>
<time>2010-07-18T08:02:31Z</time>
<desc>lat.=55.729576, lon.=26.243961, Alt.=163.474731m. Speed=0.468000m/h.</desc>
<speed>0.130000</speed>
</trkpt>
<trkpt lat="55.729572" lon="26.243963">
<ele>163.638794</ele>
<time>2010-07-18T08:02:32Z</time>
<desc>lat.=55.729572, lon.=26.243963, Alt.=163.638794m. Speed=0.252000m/h.</desc>
<speed>0.070000</speed>
</trkpt>
<trkpt lat="55.729572" lon="26.243963">
<ele>163.806763</ele>
<time>2010-07-18T08:02:33Z</time>
<desc>lat.=55.729572, lon.=26.243963, Alt.=163.806763m. Speed=0.324000m/h.</desc>
<speed>0.090000</speed>
</trkpt>
<trkpt lat="55.729572" lon="26.243965">
<ele>163.974731</ele>
<time>2010-07-18T08:02:34Z</time>
<desc>lat.=55.729572, lon.=26.243965, Alt.=163.974731m. Speed=0.432000m/h.</desc>
<speed>0.120000</speed>
</trkpt>
<trkpt lat="55.729572" lon="26.243967">
<ele>164.146606</ele>
<time>2010-07-18T08:02:35Z</time>
<desc>lat.=55.729572, lon.=26.243967, Alt.=164.146606m. Speed=0.252000m/h.</desc>
<speed>0.070000</speed>
</trkpt>
<trkpt lat="55.729572" lon="26.243967">
<ele>164.310669</ele>
<time>2010-07-18T08:02:36Z</time>
<desc>lat.=55.729572, lon.=26.243967, Alt.=164.310669m. Speed=0.108000m/h.</desc>
<speed>0.030000</speed>
</trkpt>
<trkpt lat="55.729572" lon="26.243969">
<ele>164.482544</ele>
<time>2010-07-18T08:02:37Z</time>
<desc>lat.=55.729572, lon.=26.243969, Alt.=164.482544m. Speed=0.288000m/h.</desc>
<speed>0.080000</speed>
</trkpt>
<trkpt lat="55.729572" lon="26.243969">
<ele>164.646606</ele>
<time>2010-07-18T08:02:38Z</time>
<desc>lat.=55.729572, lon.=26.243969, Alt.=164.646606m. Speed=0.360000m/h.</desc>
<speed>0.100000</speed>
</trkpt>
<trkpt lat="55.729572" lon="26.243971">
<ele>164.814575</ele>
<time>2010-07-18T08:02:39Z</time>
<desc>lat.=55.729572, lon.=26.243971, Alt.=164.814575m. Speed=0.144000m/h.</desc>
<speed>0.040000</speed>
</trkpt>
<trkpt lat="55.729572" lon="26.243971">
<ele>164.986450</ele>
<time>2010-07-18T08:02:40Z</time>
<desc>lat.=55.729572, lon.=26.243971, Alt.=164.986450m. Speed=0.252000m/h.</desc>
<speed>0.070000</speed>
</trkpt>
<trkpt lat="55.729572" lon="26.243971">
<ele>165.158325</ele>
<time>2010-07-18T08:02:41Z</time>
<desc>lat.=55.729572, lon.=26.243971, Alt.=165.158325m. Speed=0.288000m/h.</desc>
<speed>0.080000</speed>
</trkpt>
<trkpt lat="55.729572" lon="26.243973">
<ele>165.330200</ele>
<time>2010-07-18T08:02:42Z</time>
<desc>lat.=55.729572, lon.=26.243973, Alt.=165.330200m. Speed=0.216000m/h.</desc>
<speed>0.060000</speed>
</trkpt>
<trkpt lat="55.729572" lon="26.243975">
<ele>165.505981</ele>
<time>2010-07-18T08:02:43Z</time>
<desc>lat.=55.729572, lon.=26.243975, Alt.=165.505981m. Speed=0.180000m/h.</desc>
<speed>0.050000</speed>
</trkpt>
<trkpt lat="55.729572" lon="26.243975">
<ele>165.681763</ele>
<time>2010-07-18T08:02:44Z</time>
<desc>lat.=55.729572, lon.=26.243975, Alt.=165.681763m. Speed=0.540000m/h.</desc>
<speed>0.150000</speed>
</trkpt>
<trkpt lat="55.729572" lon="26.243975">
<ele>165.857544</ele>
<time>2010-07-18T08:02:45Z</time>
<desc>lat.=55.729572, lon.=26.243975, Alt.=165.857544m. Speed=0.540000m/h.</desc>
<speed>0.150000</speed>
</trkpt>
<trkpt lat="55.729576" lon="26.243975">
<ele>166.033325</ele>
<time>2010-07-18T08:02:46Z</time>
<desc>lat.=55.729576, lon.=26.243975, Alt.=166.033325m. Speed=0.108000m/h.</desc>
<speed>0.030000</speed>
</trkpt>
<trkpt lat="55.729576" lon="26.243975">
<ele>166.213013</ele>
<time>2010-07-18T08:02:47Z</time>
<desc>lat.=55.729576, lon.=26.243975, Alt.=166.213013m. Speed=0.036000m/h.</desc>
<speed>0.010000</speed>
</trkpt>
<trkpt lat="55.729576" lon="26.243975">
<ele>166.400513</ele>
<time>2010-07-18T08:02:48Z</time>
<desc>lat.=55.729576, lon.=26.243975, Alt.=166.400513m. Speed=0.072000m/h.</desc>
<speed>0.020000</speed>
</trkpt>
<trkpt lat="55.729576" lon="26.243975">
<ele>166.580200</ele>
<time>2010-07-18T08:02:49Z</time>
<desc>lat.=55.729576, lon.=26.243975, Alt.=166.580200m. Speed=0.072000m/h.</desc>
<speed>0.020000</speed>
</trkpt>
<trkpt lat="55.729576" lon="26.243975">
<ele>166.759888</ele>
<time>2010-07-18T08:02:50Z</time>
<desc>lat.=55.729576, lon.=26.243975, Alt.=166.759888m. Speed=0.000000m/h.</desc>
<speed>0.000000</speed>
</trkpt>
<trkpt lat="55.729576" lon="26.243975">
<ele>166.931763</ele>
<time>2010-07-18T08:02:51Z</time>
<desc>lat.=55.729576, lon.=26.243975, Alt.=166.931763m. Speed=0.216000m/h.</desc>
<speed>0.060000</speed>
</trkpt>
<trkpt lat="55.729576" lon="26.243975">
<ele>167.103638</ele>
<time>2010-07-18T08:02:52Z</time>
<desc>lat.=55.729576, lon.=26.243975, Alt.=167.103638m. Speed=0.180000m/h.</desc>
<speed>0.050000</speed>
</trkpt>
<trkpt lat="55.729576" lon="26.243975">
<ele>167.275513</ele>
<time>2010-07-18T08:02:53Z</time>
<desc>lat.=55.729576, lon.=26.243975, Alt.=167.275513m. Speed=0.180000m/h.</desc>
<speed>0.050000</speed>
</trkpt>
<trkpt lat="55.729576" lon="26.243973">
<ele>167.459106</ele>
<time>2010-07-18T08:02:54Z</time>
<desc>lat.=55.729576, lon.=26.243973, Alt.=167.459106m. Speed=0.180000m/h.</desc>
<speed>0.050000</speed>
</trkpt>
<trkpt lat="55.729576" lon="26.243973">
<ele>167.634888</ele>
<time>2010-07-18T08:02:55Z</time>
<desc>lat.=55.729576, lon.=26.243973, Alt.=167.634888m. Speed=0.252000m/h.</desc>
<speed>0.070000</speed>
</trkpt>
<trkpt lat="55.729576" lon="26.243973">
<ele>167.818481</ele>
<time>2010-07-18T08:02:56Z</time>
<desc>lat.=55.729576, lon.=26.243973, Alt.=167.818481m. Speed=0.072000m/h.</desc>
<speed>0.020000</speed>
</trkpt>
<trkpt lat="55.729576" lon="26.243971">
<ele>167.994263</ele>
<time>2010-07-18T08:02:57Z</time>
<desc>lat.=55.729576, lon.=26.243971, Alt.=167.994263m. Speed=0.072000m/h.</desc>
<speed>0.020000</speed>
</trkpt>
<trkpt lat="55.729576" lon="26.243971">
<ele>168.173950</ele>
<time>2010-07-18T08:02:58Z</time>
<desc>lat.=55.729576, lon.=26.243971, Alt.=168.173950m. Speed=0.072000m/h.</desc>
<speed>0.020000</speed>
</trkpt>
<trkpt lat="55.729576" lon="26.243971">
<ele>168.357544</ele>
<time>2010-07-18T08:02:59Z</time>
<desc>lat.=55.729576, lon.=26.243971, Alt.=168.357544m. Speed=0.180000m/h.</desc>
<speed>0.050000</speed>
</trkpt>
<trkpt lat="55.729572" lon="26.243971">
<ele>168.537231</ele>
<time>2010-07-18T08:03:00Z</time>
<desc>lat.=55.729572, lon.=26.243971, Alt.=168.537231m. Speed=0.072000m/h.</desc>
<speed>0.020000</speed>
</trkpt>
<trkpt lat="55.729572" lon="26.243971">
<ele>168.720825</ele>
<time>2010-07-18T08:03:01Z</time>
<desc>lat.=55.729572, lon.=26.243971, Alt.=168.720825m. Speed=0.072000m/h.</desc>
<speed>0.020000</speed>
</trkpt>
<trkpt lat="55.729572" lon="26.243971">
<ele>168.900513</ele>
<time>2010-07-18T08:03:02Z</time>
<desc>lat.=55.729572, lon.=26.243971, Alt.=168.900513m. Speed=0.216000m/h.</desc>
<speed>0.060000</speed>
</trkpt>
<trkpt lat="55.729572" lon="26.243971">
<ele>169.084106</ele>
<time>2010-07-18T08:03:03Z</time>
<desc>lat.=55.729572, lon.=26.243971, Alt.=169.084106m. Speed=0.036000m/h.</desc>
<speed>0.010000</speed>
</trkpt>
<trkpt lat="55.729572" lon="26.243971">
<ele>169.263794</ele>
<time>2010-07-18T08:03:04Z</time>
<desc>lat.=55.729572, lon.=26.243971, Alt.=169.263794m. Speed=0.072000m/h.</desc>
<speed>0.020000</speed>
</trkpt>
<trkpt lat="55.729572" lon="26.243969">
<ele>169.443481</ele>
<time>2010-07-18T08:03:05Z</time>
<desc>lat.=55.729572, lon.=26.243969, Alt.=169.443481m. Speed=0.108000m/h.</desc>
<speed>0.030000</speed>
</trkpt>
<trkpt lat="55.729572" lon="26.243969">
<ele>169.627075</ele>
<time>2010-07-18T08:03:06Z</time>
<desc>lat.=55.729572, lon.=26.243969, Alt.=169.627075m. Speed=0.000000m/h.</desc>
<speed>0.000000</speed>
</trkpt>
<trkpt lat="55.729572" lon="26.243969">
<ele>169.814575</ele>
<time>2010-07-18T08:03:07Z</time>
<desc>lat.=55.729572, lon.=26.243969, Alt.=169.814575m. Speed=0.252000m/h.</desc>
<speed>0.070000</speed>
</trkpt>
<trkpt lat="55.729572" lon="26.243971">
<ele>169.998169</ele>
<time>2010-07-18T08:03:08Z</time>
<desc>lat.=55.729572, lon.=26.243971, Alt.=169.998169m. Speed=0.072000m/h.</desc>
<speed>0.020000</speed>
</trkpt>
<trkpt lat="55.729572" lon="26.243971">
<ele>170.173950</ele>
<time>2010-07-18T08:03:09Z</time>
<desc>lat.=55.729572, lon.=26.243971, Alt.=170.173950m. Speed=0.072000m/h.</desc>
<speed>0.020000</speed>
</trkpt>
<trkpt lat="55.729572" lon="26.243971">
<ele>170.349731</ele>
<time>2010-07-18T08:03:10Z</time>
<desc>lat.=55.729572, lon.=26.243971, Alt.=170.349731m. Speed=0.072000m/h.</desc>
<speed>0.020000</speed>
</trkpt>
<trkpt lat="55.729572" lon="26.243971">
<ele>170.529419</ele>
<time>2010-07-18T08:03:11Z</time>
<desc>lat.=55.729572, lon.=26.243971, Alt.=170.529419m. Speed=0.144000m/h.</desc>
<speed>0.040000</speed>
</trkpt>
<trkpt lat="55.729572" lon="26.243971">
<ele>170.709106</ele>
<time>2010-07-18T08:03:12Z</time>
<desc>lat.=55.729572, lon.=26.243971, Alt.=170.709106m. Speed=0.072000m/h.</desc>
<speed>0.020000</speed>
</trkpt>
<trkpt lat="55.729572" lon="26.243971">
<ele>170.884888</ele>
<time>2010-07-18T08:03:13Z</time>
<desc>lat.=55.729572, lon.=26.243971, Alt.=170.884888m. Speed=0.108000m/h.</desc>
<speed>0.030000</speed>
</trkpt>
<trkpt lat="55.729572" lon="26.243971">
<ele>171.052856</ele>
<time>2010-07-18T08:03:14Z</time>
<desc>lat.=55.729572, lon.=26.243971, Alt.=171.052856m. Speed=0.072000m/h.</desc>
<speed>0.020000</speed>
</trkpt>
<trkpt lat="55.729572" lon="26.243971">
<ele>171.224731</ele>
<time>2010-07-18T08:03:15Z</time>
<desc>lat.=55.729572, lon.=26.243971, Alt.=171.224731m. Speed=0.360000m/h.</desc>
<speed>0.100000</speed>
</trkpt>
<trkpt lat="55.729572" lon="26.243969">
<ele>171.400513</ele>
<time>2010-07-18T08:03:16Z</time>
<desc>lat.=55.729572, lon.=26.243969, Alt.=171.400513m. Speed=0.360000m/h.</desc>
<speed>0.100000</speed>
</trkpt>
<trkpt lat="55.729572" lon="26.243967">
<ele>171.580200</ele>
<time>2010-07-18T08:03:17Z</time>
<desc>lat.=55.729572, lon.=26.243967, Alt.=171.580200m. Speed=0.360000m/h.</desc>
<speed>0.100000</speed>
</trkpt>
<trkpt lat="55.729572" lon="26.243965">
<ele>171.763794</ele>
<time>2010-07-18T08:03:18Z</time>
<desc>lat.=55.729572, lon.=26.243965, Alt.=171.763794m. Speed=0.360000m/h.</desc>
<speed>0.100000</speed>
</trkpt>
<trkpt lat="55.729572" lon="26.243963">
<ele>171.947388</ele>
<time>2010-07-18T08:03:19Z</time>
<desc>lat.=55.729572, lon.=26.243963, Alt.=171.947388m. Speed=0.432000m/h.</desc>
<speed>0.120000</speed>
</trkpt>
<trkpt lat="55.729572" lon="26.243961">
<ele>172.127075</ele>
<time>2010-07-18T08:03:20Z</time>
<desc>lat.=55.729572, lon.=26.243961, Alt.=172.127075m. Speed=0.540000m/h.</desc>
<speed>0.150000</speed>
</trkpt>
<trkpt lat="55.729572" lon="26.243959">
<ele>172.306763</ele>
<time>2010-07-18T08:03:21Z</time>
<desc>lat.=55.729572, lon.=26.243959, Alt.=172.306763m. Speed=0.540000m/h.</desc>
<speed>0.150000</speed>
</trkpt>
<trkpt lat="55.729572" lon="26.243956">
<ele>172.490356</ele>
<time>2010-07-18T08:03:22Z</time>
<desc>lat.=55.729572, lon.=26.243956, Alt.=172.490356m. Speed=0.540000m/h.</desc>
<speed>0.150000</speed>
</trkpt>
<trkpt lat="55.729572" lon="26.243954">
<ele>172.673950</ele>
<time>2010-07-18T08:03:23Z</time>
<desc>lat.=55.729572, lon.=26.243954, Alt.=172.673950m. Speed=0.432000m/h.</desc>
<speed>0.120000</speed>
</trkpt>
<trkpt lat="55.729572" lon="26.243952">
<ele>172.857544</ele>
<time>2010-07-18T08:03:24Z</time>
<desc>lat.=55.729572, lon.=26.243952, Alt.=172.857544m. Speed=0.468000m/h.</desc>
<speed>0.130000</speed>
</trkpt>
<trkpt lat="55.729572" lon="26.243950">
<ele>173.037231</ele>
<time>2010-07-18T08:03:25Z</time>
<desc>lat.=55.729572, lon.=26.243950, Alt.=173.037231m. Speed=0.432000m/h.</desc>
<speed>0.120000</speed>
</trkpt>
<trkpt lat="55.729572" lon="26.243948">
<ele>173.216919</ele>
<time>2010-07-18T08:03:26Z</time>
<desc>lat.=55.729572, lon.=26.243948, Alt.=173.216919m. Speed=0.360000m/h.</desc>
<speed>0.100000</speed>
</trkpt>
<trkpt lat="55.729572" lon="26.243946">
<ele>173.396606</ele>
<time>2010-07-18T08:03:27Z</time>
<desc>lat.=55.729572, lon.=26.243946, Alt.=173.396606m. Speed=0.396000m/h.</desc>
<speed>0.110000</speed>
</trkpt>
<trkpt lat="55.729572" lon="26.243944">
<ele>173.568481</ele>
<time>2010-07-18T08:03:28Z</time>
<desc>lat.=55.729572, lon.=26.243944, Alt.=173.568481m. Speed=0.432000m/h.</desc>
<speed>0.120000</speed>
</trkpt>
<trkpt lat="55.729568" lon="26.243942">
<ele>173.736450</ele>
<time>2010-07-18T08:03:29Z</time>
<desc>lat.=55.729568, lon.=26.243942, Alt.=173.736450m. Speed=0.432000m/h.</desc>
<speed>0.120000</speed>
</trkpt>
<trkpt lat="55.729568" lon="26.243942">
<ele>173.904419</ele>
<time>2010-07-18T08:03:30Z</time>
<desc>lat.=55.729568, lon.=26.243942, Alt.=173.904419m. Speed=0.252000m/h.</desc>
<speed>0.070000</speed>
</trkpt>
<trkpt lat="55.729568" lon="26.243940">
<ele>174.068481</ele>
<time>2010-07-18T08:03:31Z</time>
<desc>lat.=55.729568, lon.=26.243940, Alt.=174.068481m. Speed=0.252000m/h.</desc>
<speed>0.070000</speed>
</trkpt>
<trkpt lat="55.729568" lon="26.243940">
<ele>174.228638</ele>
<time>2010-07-18T08:03:32Z</time>
<desc>lat.=55.729568, lon.=26.243940, Alt.=174.228638m. Speed=0.216000m/h.</desc>
<speed>0.060000</speed>
</trkpt>
<trkpt lat="55.729568" lon="26.243938">
<ele>174.388794</ele>
<time>2010-07-18T08:03:33Z</time>
<desc>lat.=55.729568, lon.=26.243938, Alt.=174.388794m. Speed=0.324000m/h.</desc>
<speed>0.090000</speed>
</trkpt>
<trkpt lat="55.729568" lon="26.243938">
<ele>174.548950</ele>
<time>2010-07-18T08:03:34Z</time>
<desc>lat.=55.729568, lon.=26.243938, Alt.=174.548950m. Speed=0.144000m/h.</desc>
<speed>0.040000</speed>
</trkpt>
<trkpt lat="55.729568" lon="26.243938">
<ele>174.701294</ele>
<time>2010-07-18T08:03:35Z</time>
<desc>lat.=55.729568, lon.=26.243938, Alt.=174.701294m. Speed=0.144000m/h.</desc>
<speed>0.040000</speed>
</trkpt>
<trkpt lat="55.729568" lon="26.243937">
<ele>174.853638</ele>
<time>2010-07-18T08:03:36Z</time>
<desc>lat.=55.729568, lon.=26.243937, Alt.=174.853638m. Speed=0.252000m/h.</desc>
<speed>0.070000</speed>
</trkpt>
<trkpt lat="55.729565" lon="26.243937">
<ele>174.998169</ele>
<time>2010-07-18T08:03:37Z</time>
<desc>lat.=55.729565, lon.=26.243937, Alt.=174.998169m. Speed=0.144000m/h.</desc>
<speed>0.040000</speed>
</trkpt>
<trkpt lat="55.729565" lon="26.243937">
<ele>175.142700</ele>
<time>2010-07-18T08:03:38Z</time>
<desc>lat.=55.729565, lon.=26.243937, Alt.=175.142700m. Speed=0.144000m/h.</desc>
<speed>0.040000</speed>
</trkpt>
<trkpt lat="55.729565" lon="26.243935">
<ele>175.275513</ele>
<time>2010-07-18T08:03:39Z</time>
<desc>lat.=55.729565, lon.=26.243935, Alt.=175.275513m. Speed=0.144000m/h.</desc>
<speed>0.040000</speed>
</trkpt>
<trkpt lat="55.729565" lon="26.243935">
<ele>175.412231</ele>
<time>2010-07-18T08:03:40Z</time>
<desc>lat.=55.729565, lon.=26.243935, Alt.=175.412231m. Speed=0.144000m/h.</desc>
<speed>0.040000</speed>
</trkpt>
<trkpt lat="55.729565" lon="26.243933">
<ele>175.548950</ele>
<time>2010-07-18T08:03:41Z</time>
<desc>lat.=55.729565, lon.=26.243933, Alt.=175.548950m. Speed=0.252000m/h.</desc>
<speed>0.070000</speed>
</trkpt>
<trkpt lat="55.729565" lon="26.243933">
<ele>175.681763</ele>
<time>2010-07-18T08:03:42Z</time>
<desc>lat.=55.729565, lon.=26.243933, Alt.=175.681763m. Speed=0.324000m/h.</desc>
<speed>0.090000</speed>
</trkpt>
<trkpt lat="55.729565" lon="26.243931">
<ele>175.798950</ele>
<time>2010-07-18T08:03:43Z</time>
<desc>lat.=55.729565, lon.=26.243931, Alt.=175.798950m. Speed=0.324000m/h.</desc>
<speed>0.090000</speed>
</trkpt>
<trkpt lat="55.729565" lon="26.243929">
<ele>175.923950</ele>
<time>2010-07-18T08:03:44Z</time>
<desc>lat.=55.729565, lon.=26.243929, Alt.=175.923950m. Speed=0.288000m/h.</desc>
<speed>0.080000</speed>
</trkpt>
<trkpt lat="55.729565" lon="26.243927">
<ele>176.048950</ele>
<time>2010-07-18T08:03:45Z</time>
<desc>lat.=55.729565, lon.=26.243927, Alt.=176.048950m. Speed=0.288000m/h.</desc>
<speed>0.080000</speed>
</trkpt>
<trkpt lat="55.729565" lon="26.243927">
<ele>176.170044</ele>
<time>2010-07-18T08:03:46Z</time>
<desc>lat.=55.729565, lon.=26.243927, Alt.=176.170044m. Speed=0.288000m/h.</desc>
<speed>0.080000</speed>
</trkpt>
<trkpt lat="55.729565" lon="26.243925">
<ele>176.287231</ele>
<time>2010-07-18T08:03:47Z</time>
<desc>lat.=55.729565, lon.=26.243925, Alt.=176.287231m. Speed=0.288000m/h.</desc>
<speed>0.080000</speed>
</trkpt>
<trkpt lat="55.729565" lon="26.243923">
<ele>176.404419</ele>
<time>2010-07-18T08:03:48Z</time>
<desc>lat.=55.729565, lon.=26.243923, Alt.=176.404419m. Speed=0.288000m/h.</desc>
<speed>0.080000</speed>
</trkpt>
<trkpt lat="55.729565" lon="26.243923">
<ele>176.513794</ele>
<time>2010-07-18T08:03:49Z</time>
<desc>lat.=55.729565, lon.=26.243923, Alt.=176.513794m. Speed=0.252000m/h.</desc>
<speed>0.070000</speed>
</trkpt>
<trkpt lat="55.729565" lon="26.243921">
<ele>176.619263</ele>
<time>2010-07-18T08:03:50Z</time>
<desc>lat.=55.729565, lon.=26.243921, Alt.=176.619263m. Speed=0.216000m/h.</desc>
<speed>0.060000</speed>
</trkpt>
<trkpt lat="55.729565" lon="26.243919">
<ele>176.716919</ele>
<time>2010-07-18T08:03:51Z</time>
<desc>lat.=55.729565, lon.=26.243919, Alt.=176.716919m. Speed=0.288000m/h.</desc>
<speed>0.080000</speed>
</trkpt>
<trkpt lat="55.729565" lon="26.243919">
<ele>176.814575</ele>
<time>2010-07-18T08:03:52Z</time>
<desc>lat.=55.729565, lon.=26.243919, Alt.=176.814575m. Speed=0.216000m/h.</desc>
<speed>0.060000</speed>
</trkpt>
<trkpt lat="55.729565" lon="26.243917">
<ele>176.912231</ele>
<time>2010-07-18T08:03:53Z</time>
<desc>lat.=55.729565, lon.=26.243917, Alt.=176.912231m. Speed=0.108000m/h.</desc>
<speed>0.030000</speed>
</trkpt>
<trkpt lat="55.729565" lon="26.243917">
<ele>177.005981</ele>
<time>2010-07-18T08:03:54Z</time>
<desc>lat.=55.729565, lon.=26.243917, Alt.=177.005981m. Speed=0.072000m/h.</desc>
<speed>0.020000</speed>
</trkpt>
<trkpt lat="55.729565" lon="26.243917">
<ele>177.091919</ele>
<time>2010-07-18T08:03:55Z</time>
<desc>lat.=55.729565, lon.=26.243917, Alt.=177.091919m. Speed=0.252000m/h.</desc>
<speed>0.070000</speed>
</trkpt>
<trkpt lat="55.729565" lon="26.243917">
<ele>177.177856</ele>
<time>2010-07-18T08:03:56Z</time>
<desc>lat.=55.729565, lon.=26.243917, Alt.=177.177856m. Speed=0.036000m/h.</desc>
<speed>0.010000</speed>
</trkpt>
<trkpt lat="55.729565" lon="26.243917">
<ele>177.263794</ele>
<time>2010-07-18T08:03:57Z</time>
<desc>lat.=55.729565, lon.=26.243917, Alt.=177.263794m. Speed=0.000000m/h.</desc>
<speed>0.000000</speed>
</trkpt>
<trkpt lat="55.729561" lon="26.243917">
<ele>177.341919</ele>
<time>2010-07-18T08:03:58Z</time>
<desc>lat.=55.729561, lon.=26.243917, Alt.=177.341919m. Speed=0.072000m/h.</desc>
<speed>0.020000</speed>
</trkpt>
<trkpt lat="55.729561" lon="26.243917">
<ele>177.412231</ele>
<time>2010-07-18T08:03:59Z</time>
<desc>lat.=55.729561, lon.=26.243917, Alt.=177.412231m. Speed=0.144000m/h.</desc>
<speed>0.040000</speed>
</trkpt>
<trkpt lat="55.729565" lon="26.243919">
<ele>177.474731</ele>
<time>2010-07-18T08:04:00Z</time>
<desc>lat.=55.729565, lon.=26.243919, Alt.=177.474731m. Speed=0.180000m/h.</desc>
<speed>0.050000</speed>
</trkpt>
<trkpt lat="55.729565" lon="26.243919">
<ele>177.545044</ele>
<time>2010-07-18T08:04:01Z</time>
<desc>lat.=55.729565, lon.=26.243919, Alt.=177.545044m. Speed=0.180000m/h.</desc>
<speed>0.050000</speed>
</trkpt>
<trkpt lat="55.729565" lon="26.243921">
<ele>177.611450</ele>
<time>2010-07-18T08:04:02Z</time>
<desc>lat.=55.729565, lon.=26.243921, Alt.=177.611450m. Speed=0.360000m/h.</desc>
<speed>0.100000</speed>
</trkpt>
<trkpt lat="55.729561" lon="26.243921">
<ele>177.673950</ele>
<time>2010-07-18T08:04:03Z</time>
<desc>lat.=55.729561, lon.=26.243921, Alt.=177.673950m. Speed=0.360000m/h.</desc>
<speed>0.100000</speed>
</trkpt>
<trkpt lat="55.729561" lon="26.243923">
<ele>177.736450</ele>
<time>2010-07-18T08:04:04Z</time>
<desc>lat.=55.729561, lon.=26.243923, Alt.=177.736450m. Speed=0.432000m/h.</desc>
<speed>0.120000</speed>
</trkpt>
<trkpt lat="55.729561" lon="26.243925">
<ele>177.802856</ele>
<time>2010-07-18T08:04:05Z</time>
<desc>lat.=55.729561, lon.=26.243925, Alt.=177.802856m. Speed=0.468000m/h.</desc>
<speed>0.130000</speed>
</trkpt>
<trkpt lat="55.729561" lon="26.243927">
<ele>177.861450</ele>
<time>2010-07-18T08:04:06Z</time>
<desc>lat.=55.729561, lon.=26.243927, Alt.=177.861450m. Speed=0.468000m/h.</desc>
<speed>0.130000</speed>
</trkpt>
<trkpt lat="55.729561" lon="26.243931">
<ele>177.923950</ele>
<time>2010-07-18T08:04:07Z</time>
<desc>lat.=55.729561, lon.=26.243931, Alt.=177.923950m. Speed=0.576000m/h.</desc>
<speed>0.160000</speed>
</trkpt>
<trkpt lat="55.729565" lon="26.243933">
<ele>177.978638</ele>
<time>2010-07-18T08:04:08Z</time>
<desc>lat.=55.729565, lon.=26.243933, Alt.=177.978638m. Speed=0.540000m/h.</desc>
<speed>0.150000</speed>
</trkpt>
<trkpt lat="55.729565" lon="26.243935">
<ele>178.041138</ele>
<time>2010-07-18T08:04:09Z</time>
<desc>lat.=55.729565, lon.=26.243935, Alt.=178.041138m. Speed=0.576000m/h.</desc>
<speed>0.160000</speed>
</trkpt>
<trkpt lat="55.729565" lon="26.243938">
<ele>178.099731</ele>
<time>2010-07-18T08:04:10Z</time>
<desc>lat.=55.729565, lon.=26.243938, Alt.=178.099731m. Speed=0.612000m/h.</desc>
<speed>0.170000</speed>
</trkpt>
<trkpt lat="55.729565" lon="26.243940">
<ele>178.154419</ele>
<time>2010-07-18T08:04:11Z</time>
<desc>lat.=55.729565, lon.=26.243940, Alt.=178.154419m. Speed=0.612000m/h.</desc>
<speed>0.170000</speed>
</trkpt>
<trkpt lat="55.729565" lon="26.243944">
<ele>178.213013</ele>
<time>2010-07-18T08:04:12Z</time>
<desc>lat.=55.729565, lon.=26.243944, Alt.=178.213013m. Speed=0.684000m/h.</desc>
<speed>0.190000</speed>
</trkpt>
<trkpt lat="55.729565" lon="26.243946">
<ele>178.271606</ele>
<time>2010-07-18T08:04:13Z</time>
<desc>lat.=55.729565, lon.=26.243946, Alt.=178.271606m. Speed=0.756000m/h.</desc>
<speed>0.210000</speed>
</trkpt>
<trkpt lat="55.729565" lon="26.243950">
<ele>178.330200</ele>
<time>2010-07-18T08:04:14Z</time>
<desc>lat.=55.729565, lon.=26.243950, Alt.=178.330200m. Speed=0.756000m/h.</desc>
<speed>0.210000</speed>
</trkpt>
<trkpt lat="55.729565" lon="26.243954">
<ele>178.396606</ele>
<time>2010-07-18T08:04:15Z</time>
<desc>lat.=55.729565, lon.=26.243954, Alt.=178.396606m. Speed=0.756000m/h.</desc>
<speed>0.210000</speed>
</trkpt>
<trkpt lat="55.729565" lon="26.243958">
<ele>178.451294</ele>
<time>2010-07-18T08:04:16Z</time>
<desc>lat.=55.729565, lon.=26.243958, Alt.=178.451294m. Speed=0.828000m/h.</desc>
<speed>0.230000</speed>
</trkpt>
<trkpt lat="55.729565" lon="26.243961">
<ele>178.517700</ele>
<time>2010-07-18T08:04:17Z</time>
<desc>lat.=55.729565, lon.=26.243961, Alt.=178.517700m. Speed=0.864000m/h.</desc>
<speed>0.240000</speed>
</trkpt>
<trkpt lat="55.729565" lon="26.243965">
<ele>178.576294</ele>
<time>2010-07-18T08:04:18Z</time>
<desc>lat.=55.729565, lon.=26.243965, Alt.=178.576294m. Speed=0.864000m/h.</desc>
<speed>0.240000</speed>
</trkpt>
<trkpt lat="55.729565" lon="26.243969">
<ele>178.638794</ele>
<time>2010-07-18T08:04:19Z</time>
<desc>lat.=55.729565, lon.=26.243969, Alt.=178.638794m. Speed=0.828000m/h.</desc>
<speed>0.230000</speed>
</trkpt>
<trkpt lat="55.729565" lon="26.243973">
<ele>178.701294</ele>
<time>2010-07-18T08:04:20Z</time>
<desc>lat.=55.729565, lon.=26.243973, Alt.=178.701294m. Speed=0.864000m/h.</desc>
<speed>0.240000</speed>
</trkpt>
<trkpt lat="55.729565" lon="26.243977">
<ele>178.763794</ele>
<time>2010-07-18T08:04:21Z</time>
<desc>lat.=55.729565, lon.=26.243977, Alt.=178.763794m. Speed=0.864000m/h.</desc>
<speed>0.240000</speed>
</trkpt>
<trkpt lat="55.729565" lon="26.243980">
<ele>178.826294</ele>
<time>2010-07-18T08:04:22Z</time>
<desc>lat.=55.729565, lon.=26.243980, Alt.=178.826294m. Speed=0.900000m/h.</desc>
<speed>0.250000</speed>
</trkpt>
<trkpt lat="55.729565" lon="26.243984">
<ele>178.892700</ele>
<time>2010-07-18T08:04:23Z</time>
<desc>lat.=55.729565, lon.=26.243984, Alt.=178.892700m. Speed=0.972000m/h.</desc>
<speed>0.270000</speed>
</trkpt>
<trkpt lat="55.729565" lon="26.243990">
<ele>178.947388</ele>
<time>2010-07-18T08:04:24Z</time>
<desc>lat.=55.729565, lon.=26.243990, Alt.=178.947388m. Speed=0.972000m/h.</desc>
<speed>0.270000</speed>
</trkpt>
<trkpt lat="55.729565" lon="26.243994">
<ele>178.986450</ele>
<time>2010-07-18T08:04:25Z</time>
<desc>lat.=55.729565, lon.=26.243994, Alt.=178.986450m. Speed=0.756000m/h.</desc>
<speed>0.210000</speed>
</trkpt>
<trkpt lat="55.729568" lon="26.243996">
<ele>179.025513</ele>
<time>2010-07-18T08:04:26Z</time>
<desc>lat.=55.729568, lon.=26.243996, Alt.=179.025513m. Speed=0.684000m/h.</desc>
<speed>0.190000</speed>
</trkpt>
<trkpt lat="55.729568" lon="26.243999">
<ele>179.080200</ele>
<time>2010-07-18T08:04:27Z</time>
<desc>lat.=55.729568, lon.=26.243999, Alt.=179.080200m. Speed=0.432000m/h.</desc>
<speed>0.120000</speed>
</trkpt>
<trkpt lat="55.729568" lon="26.244001">
<ele>179.123169</ele>
<time>2010-07-18T08:04:28Z</time>
<desc>lat.=55.729568, lon.=26.244001, Alt.=179.123169m. Speed=0.576000m/h.</desc>
<speed>0.160000</speed>
</trkpt>
<trkpt lat="55.729568" lon="26.244003">
<ele>179.134888</ele>
<time>2010-07-18T08:04:29Z</time>
<desc>lat.=55.729568, lon.=26.244003, Alt.=179.134888m. Speed=0.072000m/h.</desc>
<speed>0.020000</speed>
</trkpt>
<trkpt lat="55.729568" lon="26.244003">
<ele>179.154419</ele>
<time>2010-07-18T08:04:30Z</time>
<desc>lat.=55.729568, lon.=26.244003, Alt.=179.154419m. Speed=0.108000m/h.</desc>
<speed>0.030000</speed>
</trkpt>
<trkpt lat="55.729568" lon="26.244003">
<ele>179.166138</ele>
<time>2010-07-18T08:04:31Z</time>
<desc>lat.=55.729568, lon.=26.244003, Alt.=179.166138m. Speed=0.180000m/h.</desc>
<speed>0.050000</speed>
</trkpt>
<trkpt lat="55.729568" lon="26.244005">
<ele>179.173950</ele>
<time>2010-07-18T08:04:32Z</time>
<desc>lat.=55.729568, lon.=26.244005, Alt.=179.173950m. Speed=0.072000m/h.</desc>
<speed>0.020000</speed>
</trkpt>
<trkpt lat="55.729568" lon="26.244005">
<ele>179.185669</ele>
<time>2010-07-18T08:04:33Z</time>
<desc>lat.=55.729568, lon.=26.244005, Alt.=179.185669m. Speed=0.144000m/h.</desc>
<speed>0.040000</speed>
</trkpt>
<trkpt lat="55.729568" lon="26.244005">
<ele>179.170044</ele>
<time>2010-07-18T08:04:34Z</time>
<desc>lat.=55.729568, lon.=26.244005, Alt.=179.170044m. Speed=0.504000m/h.</desc>
<speed>0.140000</speed>
</trkpt>
<trkpt lat="55.729565" lon="26.244007">
<ele>179.158325</ele>
<time>2010-07-18T08:04:35Z</time>
<desc>lat.=55.729565, lon.=26.244007, Alt.=179.158325m. Speed=0.144000m/h.</desc>
<speed>0.040000</speed>
</trkpt>
<trkpt lat="55.729565" lon="26.244007">
<ele>179.142700</ele>
<time>2010-07-18T08:04:36Z</time>
<desc>lat.=55.729565, lon.=26.244007, Alt.=179.142700m. Speed=0.072000m/h.</desc>
<speed>0.020000</speed>
</trkpt>
<trkpt lat="55.729565" lon="26.244007">
<ele>179.127075</ele>
<time>2010-07-18T08:04:37Z</time>
<desc>lat.=55.729565, lon.=26.244007, Alt.=179.127075m. Speed=0.324000m/h.</desc>
<speed>0.090000</speed>
</trkpt>
<trkpt lat="55.729565" lon="26.244009">
<ele>179.107544</ele>
<time>2010-07-18T08:04:38Z</time>
<desc>lat.=55.729565, lon.=26.244009, Alt.=179.107544m. Speed=0.432000m/h.</desc>
<speed>0.120000</speed>
</trkpt>
<trkpt lat="55.729565" lon="26.244011">
<ele>179.095825</ele>
<time>2010-07-18T08:04:39Z</time>
<desc>lat.=55.729565, lon.=26.244011, Alt.=179.095825m. Speed=0.360000m/h.</desc>
<speed>0.100000</speed>
</trkpt>
<trkpt lat="55.729565" lon="26.244013">
<ele>179.084106</ele>
<time>2010-07-18T08:04:40Z</time>
<desc>lat.=55.729565, lon.=26.244013, Alt.=179.084106m. Speed=0.180000m/h.</desc>
<speed>0.050000</speed>
</trkpt>
<trkpt lat="55.729565" lon="26.244013">
<ele>179.064575</ele>
<time>2010-07-18T08:04:41Z</time>
<desc>lat.=55.729565, lon.=26.244013, Alt.=179.064575m. Speed=0.540000m/h.</desc>
<speed>0.150000</speed>
</trkpt>
<trkpt lat="55.729565" lon="26.244015">
<ele>179.041138</ele>
<time>2010-07-18T08:04:42Z</time>
<desc>lat.=55.729565, lon.=26.244015, Alt.=179.041138m. Speed=0.252000m/h.</desc>
<speed>0.070000</speed>
</trkpt>
<trkpt lat="55.729565" lon="26.244017">
<ele>179.025513</ele>
<time>2010-07-18T08:04:43Z</time>
<desc>lat.=55.729565, lon.=26.244017, Alt.=179.025513m. Speed=0.324000m/h.</desc>
<speed>0.090000</speed>
</trkpt>
<trkpt lat="55.729565" lon="26.244017">
<ele>179.002075</ele>
<time>2010-07-18T08:04:44Z</time>
<desc>lat.=55.729565, lon.=26.244017, Alt.=179.002075m. Speed=0.252000m/h.</desc>
<speed>0.070000</speed>
</trkpt>
<trkpt lat="55.729565" lon="26.244019">
<ele>178.982544</ele>
<time>2010-07-18T08:04:45Z</time>
<desc>lat.=55.729565, lon.=26.244019, Alt.=178.982544m. Speed=0.468000m/h.</desc>
<speed>0.130000</speed>
</trkpt>
<trkpt lat="55.729565" lon="26.244020">
<ele>178.963013</ele>
<time>2010-07-18T08:04:46Z</time>
<desc>lat.=55.729565, lon.=26.244020, Alt.=178.963013m. Speed=0.360000m/h.</desc>
<speed>0.100000</speed>
</trkpt>
<trkpt lat="55.729565" lon="26.244022">
<ele>178.935669</ele>
<time>2010-07-18T08:04:47Z</time>
<desc>lat.=55.729565, lon.=26.244022, Alt.=178.935669m. Speed=0.324000m/h.</desc>
<speed>0.090000</speed>
</trkpt>
<trkpt lat="55.729565" lon="26.244022">
<ele>178.845825</ele>
<time>2010-07-18T08:04:48Z</time>
<desc>lat.=55.729565, lon.=26.244022, Alt.=178.845825m. Speed=0.144000m/h.</desc>
<speed>0.040000</speed>
</trkpt>
<trkpt lat="55.729565" lon="26.244024">
<ele>178.798950</ele>
<time>2010-07-18T08:04:49Z</time>
<desc>lat.=55.729565, lon.=26.244024, Alt.=178.798950m. Speed=0.144000m/h.</desc>
<speed>0.040000</speed>
</trkpt>
<trkpt lat="55.729565" lon="26.244022">
<ele>178.748169</ele>
<time>2010-07-18T08:04:50Z</time>
<desc>lat.=55.729565, lon.=26.244022, Alt.=178.748169m. Speed=0.252000m/h.</desc>
<speed>0.070000</speed>
</trkpt>
<trkpt lat="55.729565" lon="26.244022">
<ele>178.685669</ele>
<time>2010-07-18T08:04:51Z</time>
<desc>lat.=55.729565, lon.=26.244022, Alt.=178.685669m. Speed=0.144000m/h.</desc>
<speed>0.040000</speed>
</trkpt>
<trkpt lat="55.729565" lon="26.244020">
<ele>178.623169</ele>
<time>2010-07-18T08:04:52Z</time>
<desc>lat.=55.729565, lon.=26.244020, Alt.=178.623169m. Speed=0.108000m/h.</desc>
<speed>0.030000</speed>
</trkpt>
<trkpt lat="55.729565" lon="26.244020">
<ele>178.552856</ele>
<time>2010-07-18T08:04:53Z</time>
<desc>lat.=55.729565, lon.=26.244020, Alt.=178.552856m. Speed=0.468000m/h.</desc>
<speed>0.130000</speed>
</trkpt>
<trkpt lat="55.729565" lon="26.244020">
<ele>178.486450</ele>
<time>2010-07-18T08:04:54Z</time>
<desc>lat.=55.729565, lon.=26.244020, Alt.=178.486450m. Speed=0.504000m/h.</desc>
<speed>0.140000</speed>
</trkpt>
<trkpt lat="55.729561" lon="26.244017">
<ele>178.427856</ele>
<time>2010-07-18T08:04:55Z</time>
<desc>lat.=55.729561, lon.=26.244017, Alt.=178.427856m. Speed=0.360000m/h.</desc>
<speed>0.100000</speed>
</trkpt>
<trkpt lat="55.729561" lon="26.244017">
<ele>178.377075</ele>
<time>2010-07-18T08:04:56Z</time>
<desc>lat.=55.729561, lon.=26.244017, Alt.=178.377075m. Speed=0.288000m/h.</desc>
<speed>0.080000</speed>
</trkpt>
<trkpt lat="55.729561" lon="26.244015">
<ele>178.310669</ele>
<time>2010-07-18T08:04:57Z</time>
<desc>lat.=55.729561, lon.=26.244015, Alt.=178.310669m. Speed=0.396000m/h.</desc>
<speed>0.110000</speed>
</trkpt>
<trkpt lat="55.729561" lon="26.244013">
<ele>178.228638</ele>
<time>2010-07-18T08:04:58Z</time>
<desc>lat.=55.729561, lon.=26.244013, Alt.=178.228638m. Speed=0.180000m/h.</desc>
<speed>0.050000</speed>
</trkpt>
<trkpt lat="55.729561" lon="26.244013">
<ele>178.150513</ele>
<time>2010-07-18T08:04:59Z</time>
<desc>lat.=55.729561, lon.=26.244013, Alt.=178.150513m. Speed=0.216000m/h.</desc>
<speed>0.060000</speed>
</trkpt>
<trkpt lat="55.729561" lon="26.244013">
<ele>178.056763</ele>
<time>2010-07-18T08:05:00Z</time>
<desc>lat.=55.729561, lon.=26.244013, Alt.=178.056763m. Speed=0.252000m/h.</desc>
<speed>0.070000</speed>
</trkpt>
<trkpt lat="55.729561" lon="26.244011">
<ele>177.974731</ele>
<time>2010-07-18T08:05:01Z</time>
<desc>lat.=55.729561, lon.=26.244011, Alt.=177.974731m. Speed=0.216000m/h.</desc>
<speed>0.060000</speed>
</trkpt>
<trkpt lat="55.729561" lon="26.244011">
<ele>177.865356</ele>
<time>2010-07-18T08:05:02Z</time>
<desc>lat.=55.729561, lon.=26.244011, Alt.=177.865356m. Speed=0.216000m/h.</desc>
<speed>0.060000</speed>
</trkpt>
<trkpt lat="55.729557" lon="26.244009">
<ele>177.709106</ele>
<time>2010-07-18T08:05:03Z</time>
<desc>lat.=55.729557, lon.=26.244009, Alt.=177.709106m. Speed=0.252000m/h.</desc>
<speed>0.070000</speed>
</trkpt>
<trkpt lat="55.729557" lon="26.244009">
<ele>177.599731</ele>
<time>2010-07-18T08:05:04Z</time>
<desc>lat.=55.729557, lon.=26.244009, Alt.=177.599731m. Speed=0.324000m/h.</desc>
<speed>0.090000</speed>
</trkpt>
<trkpt lat="55.729557" lon="26.244007">
<ele>177.431763</ele>
<time>2010-07-18T08:05:05Z</time>
<desc>lat.=55.729557, lon.=26.244007, Alt.=177.431763m. Speed=0.324000m/h.</desc>
<speed>0.090000</speed>
</trkpt>
<trkpt lat="55.729557" lon="26.244007">
<ele>177.275513</ele>
<time>2010-07-18T08:05:06Z</time>
<desc>lat.=55.729557, lon.=26.244007, Alt.=177.275513m. Speed=0.180000m/h.</desc>
<speed>0.050000</speed>
</trkpt>
<trkpt lat="55.729557" lon="26.244007">
<ele>177.119263</ele>
<time>2010-07-18T08:05:07Z</time>
<desc>lat.=55.729557, lon.=26.244007, Alt.=177.119263m. Speed=0.432000m/h.</desc>
<speed>0.120000</speed>
</trkpt>
<trkpt lat="55.729557" lon="26.244005">
<ele>176.955200</ele>
<time>2010-07-18T08:05:08Z</time>
<desc>lat.=55.729557, lon.=26.244005, Alt.=176.955200m. Speed=0.540000m/h.</desc>
<speed>0.150000</speed>
</trkpt>
<trkpt lat="55.729557" lon="26.244001">
<ele>176.791138</ele>
<time>2010-07-18T08:05:09Z</time>
<desc>lat.=55.729557, lon.=26.244001, Alt.=176.791138m. Speed=0.540000m/h.</desc>
<speed>0.150000</speed>
</trkpt>
<trkpt lat="55.729557" lon="26.243998">
<ele>176.627075</ele>
<time>2010-07-18T08:05:10Z</time>
<desc>lat.=55.729557, lon.=26.243998, Alt.=176.627075m. Speed=0.540000m/h.</desc>
<speed>0.150000</speed>
</trkpt>
<trkpt lat="55.729557" lon="26.243994">
<ele>176.459106</ele>
<time>2010-07-18T08:05:11Z</time>
<desc>lat.=55.729557, lon.=26.243994, Alt.=176.459106m. Speed=0.576000m/h.</desc>
<speed>0.160000</speed>
</trkpt>
<trkpt lat="55.729557" lon="26.243992">
<ele>176.298950</ele>
<time>2010-07-18T08:05:12Z</time>
<desc>lat.=55.729557, lon.=26.243992, Alt.=176.298950m. Speed=0.612000m/h.</desc>
<speed>0.170000</speed>
</trkpt>
<trkpt lat="55.729557" lon="26.243988">
<ele>176.150513</ele>
<time>2010-07-18T08:05:13Z</time>
<desc>lat.=55.729557, lon.=26.243988, Alt.=176.150513m. Speed=0.360000m/h.</desc>
<speed>0.100000</speed>
</trkpt>
<trkpt lat="55.729557" lon="26.243986">
<ele>176.048950</ele>
<time>2010-07-18T08:05:14Z</time>
<desc>lat.=55.729557, lon.=26.243986, Alt.=176.048950m. Speed=0.324000m/h.</desc>
<speed>0.090000</speed>
</trkpt>
<trkpt lat="55.729553" lon="26.243986">
<ele>175.966919</ele>
<time>2010-07-18T08:05:15Z</time>
<desc>lat.=55.729553, lon.=26.243986, Alt.=175.966919m. Speed=0.288000m/h.</desc>
<speed>0.080000</speed>
</trkpt>
<trkpt lat="55.729553" lon="26.243984">
<ele>175.884888</ele>
<time>2010-07-18T08:05:16Z</time>
<desc>lat.=55.729553, lon.=26.243984, Alt.=175.884888m. Speed=0.252000m/h.</desc>
<speed>0.070000</speed>
</trkpt>
<trkpt lat="55.729553" lon="26.243982">
<ele>175.822388</ele>
<time>2010-07-18T08:05:17Z</time>
<desc>lat.=55.729553, lon.=26.243982, Alt.=175.822388m. Speed=0.216000m/h.</desc>
<speed>0.060000</speed>
</trkpt>
<trkpt lat="55.729553" lon="26.243982">
<ele>175.755981</ele>
<time>2010-07-18T08:05:18Z</time>
<desc>lat.=55.729553, lon.=26.243982, Alt.=175.755981m. Speed=0.216000m/h.</desc>
<speed>0.060000</speed>
</trkpt>
<trkpt lat="55.729553" lon="26.243980">
<ele>175.693481</ele>
<time>2010-07-18T08:05:19Z</time>
<desc>lat.=55.729553, lon.=26.243980, Alt.=175.693481m. Speed=0.684000m/h.</desc>
<speed>0.190000</speed>
</trkpt>
<trkpt lat="55.729557" lon="26.243979">
<ele>175.607544</ele>
<time>2010-07-18T08:05:20Z</time>
<desc>lat.=55.729557, lon.=26.243979, Alt.=175.607544m. Speed=2.916000m/h.</desc>
<speed>0.810000</speed>
</trkpt>
<trkpt lat="55.729565" lon="26.243971">
<ele>175.443481</ele>
<time>2010-07-18T08:05:21Z</time>
<desc>lat.=55.729565, lon.=26.243971, Alt.=175.443481m. Speed=3.852000m/h.</desc>
<speed>1.070000</speed>
</trkpt>
<trkpt lat="55.729568" lon="26.243958">
<ele>174.623169</ele>
<time>2010-07-18T08:05:22Z</time>
<desc>lat.=55.729568, lon.=26.243958, Alt.=174.623169m. Speed=1.908000m/h.</desc>
<speed>0.530000</speed>
</trkpt>
<trkpt lat="55.729572" lon="26.243952">
<ele>174.154419</ele>
<time>2010-07-18T08:05:23Z</time>
<desc>lat.=55.729572, lon.=26.243952, Alt.=174.154419m. Speed=2.736000m/h.</desc>
<speed>0.760000</speed>
</trkpt>
<trkpt lat="55.729576" lon="26.243944">
<ele>173.658325</ele>
<time>2010-07-18T08:05:24Z</time>
<desc>lat.=55.729576, lon.=26.243944, Alt.=173.658325m. Speed=4.212000m/h.</desc>
<speed>1.170000</speed>
</trkpt>
<trkpt lat="55.729580" lon="26.243933">
<ele>173.103638</ele>
<time>2010-07-18T08:05:25Z</time>
<desc>lat.=55.729580, lon.=26.243933, Alt.=173.103638m. Speed=2.808000m/h.</desc>
<speed>0.780000</speed>
</trkpt>
<trkpt lat="55.729584" lon="26.243923">
<ele>172.537231</ele>
<time>2010-07-18T08:05:26Z</time>
<desc>lat.=55.729584, lon.=26.243923, Alt.=172.537231m. Speed=1.116000m/h.</desc>
<speed>0.310000</speed>
</trkpt>
<trkpt lat="55.729584" lon="26.243919">
<ele>172.142700</ele>
<time>2010-07-18T08:05:27Z</time>
<desc>lat.=55.729584, lon.=26.243919, Alt.=172.142700m. Speed=1.872000m/h.</desc>
<speed>0.520000</speed>
</trkpt>
<trkpt lat="55.729591" lon="26.243917">
<ele>171.560669</ele>
<time>2010-07-18T08:05:28Z</time>
<desc>lat.=55.729591, lon.=26.243917, Alt.=171.560669m. Speed=2.772000m/h.</desc>
<speed>0.770000</speed>
</trkpt>
<trkpt lat="55.729607" lon="26.243898">
<ele>171.228638</ele>
<time>2010-07-18T08:05:29Z</time>
<desc>lat.=55.729607, lon.=26.243898, Alt.=171.228638m. Speed=4.752000m/h.</desc>
<speed>1.320000</speed>
</trkpt>
<trkpt lat="55.729618" lon="26.243891">
<ele>170.896606</ele>
<time>2010-07-18T08:05:30Z</time>
<desc>lat.=55.729618, lon.=26.243891, Alt.=170.896606m. Speed=5.004000m/h.</desc>
<speed>1.390000</speed>
</trkpt>
<trkpt lat="55.729630" lon="26.243887">
<ele>170.888794</ele>
<time>2010-07-18T08:05:31Z</time>
<desc>lat.=55.729630, lon.=26.243887, Alt.=170.888794m. Speed=4.788000m/h.</desc>
<speed>1.330000</speed>
</trkpt>
<trkpt lat="55.729645" lon="26.243874">
<ele>169.912231</ele>
<time>2010-07-18T08:05:32Z</time>
<desc>lat.=55.729645, lon.=26.243874, Alt.=169.912231m. Speed=5.868000m/h.</desc>
<speed>1.630000</speed>
</trkpt>
<trkpt lat="55.729656" lon="26.243868">
<ele>169.955200</ele>
<time>2010-07-18T08:05:33Z</time>
<desc>lat.=55.729656, lon.=26.243868, Alt.=169.955200m. Speed=4.572000m/h.</desc>
<speed>1.270000</speed>
</trkpt>
<trkpt lat="55.729664" lon="26.243849">
<ele>168.759888</ele>
<time>2010-07-18T08:05:34Z</time>
<desc>lat.=55.729664, lon.=26.243849, Alt.=168.759888m. Speed=1.872000m/h.</desc>
<speed>0.520000</speed>
</trkpt>
<trkpt lat="55.729664" lon="26.243839">
<ele>168.255981</ele>
<time>2010-07-18T08:05:35Z</time>
<desc>lat.=55.729664, lon.=26.243839, Alt.=168.255981m. Speed=2.196000m/h.</desc>
<speed>0.610000</speed>
</trkpt>
<trkpt lat="55.729668" lon="26.243826">
<ele>167.869263</ele>
<time>2010-07-18T08:05:36Z</time>
<desc>lat.=55.729668, lon.=26.243826, Alt.=167.869263m. Speed=1.404000m/h.</desc>
<speed>0.390000</speed>
</trkpt>
<trkpt lat="55.729664" lon="26.243824">
<ele>167.509888</ele>
<time>2010-07-18T08:05:37Z</time>
<desc>lat.=55.729664, lon.=26.243824, Alt.=167.509888m. Speed=1.224000m/h.</desc>
<speed>0.340000</speed>
</trkpt>
<trkpt lat="55.729664" lon="26.243816">
<ele>167.127075</ele>
<time>2010-07-18T08:05:38Z</time>
<desc>lat.=55.729664, lon.=26.243816, Alt.=167.127075m. Speed=1.332000m/h.</desc>
<speed>0.370000</speed>
</trkpt>
<trkpt lat="55.729660" lon="26.243803">
<ele>166.822388</ele>
<time>2010-07-18T08:05:39Z</time>
<desc>lat.=55.729660, lon.=26.243803, Alt.=166.822388m. Speed=1.260000m/h.</desc>
<speed>0.350000</speed>
</trkpt>
<trkpt lat="55.729660" lon="26.243790">
<ele>166.572388</ele>
<time>2010-07-18T08:05:40Z</time>
<desc>lat.=55.729660, lon.=26.243790, Alt.=166.572388m. Speed=1.584000m/h.</desc>
<speed>0.440000</speed>
</trkpt>
<trkpt lat="55.729660" lon="26.243776">
<ele>166.330200</ele>
<time>2010-07-18T08:05:41Z</time>
<desc>lat.=55.729660, lon.=26.243776, Alt.=166.330200m. Speed=1.908000m/h.</desc>
<speed>0.530000</speed>
</trkpt>
<trkpt lat="55.729649" lon="26.243740">
<ele>166.259888</ele>
<time>2010-07-18T08:05:42Z</time>
<desc>lat.=55.729649, lon.=26.243740, Alt.=166.259888m. Speed=3.348000m/h.</desc>
<speed>0.930000</speed>
</trkpt>
<trkpt lat="55.729652" lon="26.243721">
<ele>166.142700</ele>
<time>2010-07-18T08:05:43Z</time>
<desc>lat.=55.729652, lon.=26.243721, Alt.=166.142700m. Speed=5.112000m/h.</desc>
<speed>1.420000</speed>
</trkpt>
<trkpt lat="55.729649" lon="26.243702">
<ele>165.920044</ele>
<time>2010-07-18T08:05:44Z</time>
<desc>lat.=55.729649, lon.=26.243702, Alt.=165.920044m. Speed=4.032000m/h.</desc>
<speed>1.120000</speed>
</trkpt>
<trkpt lat="55.729649" lon="26.243687">
<ele>165.693481</ele>
<time>2010-07-18T08:05:45Z</time>
<desc>lat.=55.729649, lon.=26.243687, Alt.=165.693481m. Speed=1.980000m/h.</desc>
<speed>0.550000</speed>
</trkpt>
<trkpt lat="55.729630" lon="26.243605">
<ele>163.935669</ele>
<time>2010-07-18T08:05:46Z</time>
<desc>lat.=55.729630, lon.=26.243605, Alt.=163.935669m. Speed=1.152000m/h.</desc>
<speed>0.320000</speed>
</trkpt>
<trkpt lat="55.729637" lon="26.243559">
<ele>161.959106</ele>
<time>2010-07-18T08:05:47Z</time>
<desc>lat.=55.729637, lon.=26.243559, Alt.=161.959106m. Speed=0.864000m/h.</desc>
<speed>0.240000</speed>
</trkpt>
<trkpt lat="55.729630" lon="26.243534">
<ele>161.162231</ele>
<time>2010-07-18T08:05:48Z</time>
<desc>lat.=55.729630, lon.=26.243534, Alt.=161.162231m. Speed=1.656000m/h.</desc>
<speed>0.460000</speed>
</trkpt>
<trkpt lat="55.729633" lon="26.243517">
<ele>160.529419</ele>
<time>2010-07-18T08:05:49Z</time>
<desc>lat.=55.729633, lon.=26.243517, Alt.=160.529419m. Speed=1.188000m/h.</desc>
<speed>0.330000</speed>
</trkpt>
<trkpt lat="55.729637" lon="26.243502">
<ele>159.994263</ele>
<time>2010-07-18T08:05:50Z</time>
<desc>lat.=55.729637, lon.=26.243502, Alt.=159.994263m. Speed=1.260000m/h.</desc>
<speed>0.350000</speed>
</trkpt>
<trkpt lat="55.729637" lon="26.243486">
<ele>159.615356</ele>
<time>2010-07-18T08:05:51Z</time>
<desc>lat.=55.729637, lon.=26.243486, Alt.=159.615356m. Speed=1.044000m/h.</desc>
<speed>0.290000</speed>
</trkpt>
<trkpt lat="55.729630" lon="26.243469">
<ele>159.060669</ele>
<time>2010-07-18T08:05:52Z</time>
<desc>lat.=55.729630, lon.=26.243469, Alt.=159.060669m. Speed=0.828000m/h.</desc>
<speed>0.230000</speed>
</trkpt>
<trkpt lat="55.729633" lon="26.243458">
<ele>158.486450</ele>
<time>2010-07-18T08:05:53Z</time>
<desc>lat.=55.729633, lon.=26.243458, Alt.=158.486450m. Speed=0.900000m/h.</desc>
<speed>0.250000</speed>
</trkpt>
<trkpt lat="55.729645" lon="26.243443">
<ele>157.818481</ele>
<time>2010-07-18T08:05:54Z</time>
<desc>lat.=55.729645, lon.=26.243443, Alt.=157.818481m. Speed=0.972000m/h.</desc>
<speed>0.270000</speed>
</trkpt>
<trkpt lat="55.729645" lon="26.243439">
<ele>157.580200</ele>
<time>2010-07-18T08:05:55Z</time>
<desc>lat.=55.729645, lon.=26.243439, Alt.=157.580200m. Speed=1.008000m/h.</desc>
<speed>0.280000</speed>
</trkpt>
<trkpt lat="55.729645" lon="26.243435">
<ele>157.341919</ele>
<time>2010-07-18T08:05:56Z</time>
<desc>lat.=55.729645, lon.=26.243435, Alt.=157.341919m. Speed=0.900000m/h.</desc>
<speed>0.250000</speed>
</trkpt>
<trkpt lat="55.729649" lon="26.243433">
<ele>157.099731</ele>
<time>2010-07-18T08:05:57Z</time>
<desc>lat.=55.729649, lon.=26.243433, Alt.=157.099731m. Speed=0.576000m/h.</desc>
<speed>0.160000</speed>
</trkpt>
<trkpt lat="55.729649" lon="26.243433">
<ele>156.873169</ele>
<time>2010-07-18T08:05:58Z</time>
<desc>lat.=55.729649, lon.=26.243433, Alt.=156.873169m. Speed=1.080000m/h.</desc>
<speed>0.300000</speed>
</trkpt>
<trkpt lat="55.729656" lon="26.243423">
<ele>156.537231</ele>
<time>2010-07-18T08:05:59Z</time>
<desc>lat.=55.729656, lon.=26.243423, Alt.=156.537231m. Speed=1.152000m/h.</desc>
<speed>0.320000</speed>
</trkpt>
<trkpt lat="55.729614" lon="26.243429">
<ele>155.935669</ele>
<time>2010-07-18T08:06:00Z</time>
<desc>lat.=55.729614, lon.=26.243429, Alt.=155.935669m. Speed=1.008000m/h.</desc>
<speed>0.280000</speed>
</trkpt>
<trkpt lat="55.729618" lon="26.243418">
<ele>155.912231</ele>
<time>2010-07-18T08:06:01Z</time>
<desc>lat.=55.729618, lon.=26.243418, Alt.=155.912231m. Speed=0.936000m/h.</desc>
<speed>0.260000</speed>
</trkpt>
<trkpt lat="55.729622" lon="26.243412">
<ele>155.638794</ele>
<time>2010-07-18T08:06:02Z</time>
<desc>lat.=55.729622, lon.=26.243412, Alt.=155.638794m. Speed=0.936000m/h.</desc>
<speed>0.260000</speed>
</trkpt>
<trkpt lat="55.729622" lon="26.243408">
<ele>155.455200</ele>
<time>2010-07-18T08:06:03Z</time>
<desc>lat.=55.729622, lon.=26.243408, Alt.=155.455200m. Speed=0.756000m/h.</desc>
<speed>0.210000</speed>
</trkpt>
<trkpt lat="55.729622" lon="26.243408">
<ele>155.318481</ele>
<time>2010-07-18T08:06:04Z</time>
<desc>lat.=55.729622, lon.=26.243408, Alt.=155.318481m. Speed=0.864000m/h.</desc>
<speed>0.240000</speed>
</trkpt>
<trkpt lat="55.729618" lon="26.243406">
<ele>155.185669</ele>
<time>2010-07-18T08:06:05Z</time>
<desc>lat.=55.729618, lon.=26.243406, Alt.=155.185669m. Speed=0.828000m/h.</desc>
<speed>0.230000</speed>
</trkpt>
<trkpt lat="55.729618" lon="26.243404">
<ele>155.048950</ele>
<time>2010-07-18T08:06:06Z</time>
<desc>lat.=55.729618, lon.=26.243404, Alt.=155.048950m. Speed=0.936000m/h.</desc>
<speed>0.260000</speed>
</trkpt>
<trkpt lat="55.729614" lon="26.243402">
<ele>154.916138</ele>
<time>2010-07-18T08:06:07Z</time>
<desc>lat.=55.729614, lon.=26.243402, Alt.=154.916138m. Speed=0.972000m/h.</desc>
<speed>0.270000</speed>
</trkpt>
<trkpt lat="55.729614" lon="26.243401">
<ele>154.791138</ele>
<time>2010-07-18T08:06:08Z</time>
<desc>lat.=55.729614, lon.=26.243401, Alt.=154.791138m. Speed=0.936000m/h.</desc>
<speed>0.260000</speed>
</trkpt>
<trkpt lat="55.729610" lon="26.243399">
<ele>154.658325</ele>
<time>2010-07-18T08:06:09Z</time>
<desc>lat.=55.729610, lon.=26.243399, Alt.=154.658325m. Speed=1.008000m/h.</desc>
<speed>0.280000</speed>
</trkpt>
<trkpt lat="55.729607" lon="26.243397">
<ele>154.533325</ele>
<time>2010-07-18T08:06:10Z</time>
<desc>lat.=55.729607, lon.=26.243397, Alt.=154.533325m. Speed=1.080000m/h.</desc>
<speed>0.300000</speed>
</trkpt>
<trkpt lat="55.729607" lon="26.243393">
<ele>154.392700</ele>
<time>2010-07-18T08:06:11Z</time>
<desc>lat.=55.729607, lon.=26.243393, Alt.=154.392700m. Speed=1.116000m/h.</desc>
<speed>0.310000</speed>
</trkpt>
<trkpt lat="55.729610" lon="26.243391">
<ele>154.252075</ele>
<time>2010-07-18T08:06:12Z</time>
<desc>lat.=55.729610, lon.=26.243391, Alt.=154.252075m. Speed=0.972000m/h.</desc>
<speed>0.270000</speed>
</trkpt>
<trkpt lat="55.729610" lon="26.243387">
<ele>154.091919</ele>
<time>2010-07-18T08:06:13Z</time>
<desc>lat.=55.729610, lon.=26.243387, Alt.=154.091919m. Speed=1.008000m/h.</desc>
<speed>0.280000</speed>
</trkpt>
<trkpt lat="55.729610" lon="26.243382">
<ele>153.951294</ele>
<time>2010-07-18T08:06:14Z</time>
<desc>lat.=55.729610, lon.=26.243382, Alt.=153.951294m. Speed=0.972000m/h.</desc>
<speed>0.270000</speed>
</trkpt>
<trkpt lat="55.729614" lon="26.243380">
<ele>153.752075</ele>
<time>2010-07-18T08:06:15Z</time>
<desc>lat.=55.729614, lon.=26.243380, Alt.=153.752075m. Speed=1.008000m/h.</desc>
<speed>0.280000</speed>
</trkpt>
<trkpt lat="55.729610" lon="26.243378">
<ele>153.627075</ele>
<time>2010-07-18T08:06:16Z</time>
<desc>lat.=55.729610, lon.=26.243378, Alt.=153.627075m. Speed=1.008000m/h.</desc>
<speed>0.280000</speed>
</trkpt>
<trkpt lat="55.729607" lon="26.243376">
<ele>153.505981</ele>
<time>2010-07-18T08:06:17Z</time>
<desc>lat.=55.729607, lon.=26.243376, Alt.=153.505981m. Speed=0.792000m/h.</desc>
<speed>0.220000</speed>
</trkpt>
<trkpt lat="55.729607" lon="26.243374">
<ele>153.380981</ele>
<time>2010-07-18T08:06:18Z</time>
<desc>lat.=55.729607, lon.=26.243374, Alt.=153.380981m. Speed=0.792000m/h.</desc>
<speed>0.220000</speed>
</trkpt>
<trkpt lat="55.729607" lon="26.243372">
<ele>153.255981</ele>
<time>2010-07-18T08:06:19Z</time>
<desc>lat.=55.729607, lon.=26.243372, Alt.=153.255981m. Speed=0.936000m/h.</desc>
<speed>0.260000</speed>
</trkpt>
<trkpt lat="55.729603" lon="26.243370">
<ele>153.130981</ele>
<time>2010-07-18T08:06:20Z</time>
<desc>lat.=55.729603, lon.=26.243370, Alt.=153.130981m. Speed=0.936000m/h.</desc>
<speed>0.260000</speed>
</trkpt>
<trkpt lat="55.729603" lon="26.243368">
<ele>153.009888</ele>
<time>2010-07-18T08:06:21Z</time>
<desc>lat.=55.729603, lon.=26.243368, Alt.=153.009888m. Speed=1.044000m/h.</desc>
<speed>0.290000</speed>
</trkpt>
<trkpt lat="55.729599" lon="26.243364">
<ele>152.888794</ele>
<time>2010-07-18T08:06:22Z</time>
<desc>lat.=55.729599, lon.=26.243364, Alt.=152.888794m. Speed=1.044000m/h.</desc>
<speed>0.290000</speed>
</trkpt>
<trkpt lat="55.729595" lon="26.243362">
<ele>152.771606</ele>
<time>2010-07-18T08:06:23Z</time>
<desc>lat.=55.729595, lon.=26.243362, Alt.=152.771606m. Speed=0.864000m/h.</desc>
<speed>0.240000</speed>
</trkpt>
<trkpt lat="55.729595" lon="26.243361">
<ele>152.650513</ele>
<time>2010-07-18T08:06:24Z</time>
<desc>lat.=55.729595, lon.=26.243361, Alt.=152.650513m. Speed=0.900000m/h.</desc>
<speed>0.250000</speed>
</trkpt>
<trkpt lat="55.729591" lon="26.243359">
<ele>152.533325</ele>
<time>2010-07-18T08:06:25Z</time>
<desc>lat.=55.729591, lon.=26.243359, Alt.=152.533325m. Speed=0.900000m/h.</desc>
<speed>0.250000</speed>
</trkpt>
<trkpt lat="55.729591" lon="26.243357">
<ele>152.416138</ele>
<time>2010-07-18T08:06:26Z</time>
<desc>lat.=55.729591, lon.=26.243357, Alt.=152.416138m. Speed=0.792000m/h.</desc>
<speed>0.220000</speed>
</trkpt>
<trkpt lat="55.729588" lon="26.243355">
<ele>152.298950</ele>
<time>2010-07-18T08:06:27Z</time>
<desc>lat.=55.729588, lon.=26.243355, Alt.=152.298950m. Speed=0.720000m/h.</desc>
<speed>0.200000</speed>
</trkpt>
<trkpt lat="55.729588" lon="26.243353">
<ele>152.185669</ele>
<time>2010-07-18T08:06:28Z</time>
<desc>lat.=55.729588, lon.=26.243353, Alt.=152.185669m. Speed=0.936000m/h.</desc>
<speed>0.260000</speed>
</trkpt>
<trkpt lat="55.729588" lon="26.243351">
<ele>152.072388</ele>
<time>2010-07-18T08:06:29Z</time>
<desc>lat.=55.729588, lon.=26.243351, Alt.=152.072388m. Speed=0.828000m/h.</desc>
<speed>0.230000</speed>
</trkpt>
<trkpt lat="55.729584" lon="26.243349">
<ele>151.959106</ele>
<time>2010-07-18T08:06:30Z</time>
<desc>lat.=55.729584, lon.=26.243349, Alt.=151.959106m. Speed=0.648000m/h.</desc>
<speed>0.180000</speed>
</trkpt>
<trkpt lat="55.729584" lon="26.243349">
<ele>151.845825</ele>
<time>2010-07-18T08:06:31Z</time>
<desc>lat.=55.729584, lon.=26.243349, Alt.=151.845825m. Speed=0.648000m/h.</desc>
<speed>0.180000</speed>
</trkpt>
<trkpt lat="55.729580" lon="26.243347">
<ele>151.732544</ele>
<time>2010-07-18T08:06:32Z</time>
<desc>lat.=55.729580, lon.=26.243347, Alt.=151.732544m. Speed=0.684000m/h.</desc>
<speed>0.190000</speed>
</trkpt>
<trkpt lat="55.729580" lon="26.243345">
<ele>151.623169</ele>
<time>2010-07-18T08:06:33Z</time>
<desc>lat.=55.729580, lon.=26.243345, Alt.=151.623169m. Speed=0.720000m/h.</desc>
<speed>0.200000</speed>
</trkpt>
<trkpt lat="55.729580" lon="26.243345">
<ele>151.513794</ele>
<time>2010-07-18T08:06:34Z</time>
<desc>lat.=55.729580, lon.=26.243345, Alt.=151.513794m. Speed=0.612000m/h.</desc>
<speed>0.170000</speed>
</trkpt>
<trkpt lat="55.729576" lon="26.243343">
<ele>151.408325</ele>
<time>2010-07-18T08:06:35Z</time>
<desc>lat.=55.729576, lon.=26.243343, Alt.=151.408325m. Speed=0.648000m/h.</desc>
<speed>0.180000</speed>
</trkpt>
<trkpt lat="55.729576" lon="26.243341">
<ele>151.302856</ele>
<time>2010-07-18T08:06:36Z</time>
<desc>lat.=55.729576, lon.=26.243341, Alt.=151.302856m. Speed=0.576000m/h.</desc>
<speed>0.160000</speed>
</trkpt>
<trkpt lat="55.729572" lon="26.243341">
<ele>151.201294</ele>
<time>2010-07-18T08:06:37Z</time>
<desc>lat.=55.729572, lon.=26.243341, Alt.=151.201294m. Speed=0.540000m/h.</desc>
<speed>0.150000</speed>
</trkpt>
<trkpt lat="55.729572" lon="26.243340">
<ele>151.099731</ele>
<time>2010-07-18T08:06:38Z</time>
<desc>lat.=55.729572, lon.=26.243340, Alt.=151.099731m. Speed=0.468000m/h.</desc>
<speed>0.130000</speed>
</trkpt>
<trkpt lat="55.729572" lon="26.243340">
<ele>151.002075</ele>
<time>2010-07-18T08:06:39Z</time>
<desc>lat.=55.729572, lon.=26.243340, Alt.=151.002075m. Speed=0.432000m/h.</desc>
<speed>0.120000</speed>
</trkpt>
<trkpt lat="55.729572" lon="26.243340">
<ele>150.904419</ele>
<time>2010-07-18T08:06:40Z</time>
<desc>lat.=55.729572, lon.=26.243340, Alt.=150.904419m. Speed=0.396000m/h.</desc>
<speed>0.110000</speed>
</trkpt>
<trkpt lat="55.729568" lon="26.243338">
<ele>150.814575</ele>
<time>2010-07-18T08:06:41Z</time>
<desc>lat.=55.729568, lon.=26.243338, Alt.=150.814575m. Speed=0.360000m/h.</desc>
<speed>0.100000</speed>
</trkpt>
<trkpt lat="55.729568" lon="26.243338">
<ele>150.720825</ele>
<time>2010-07-18T08:06:42Z</time>
<desc>lat.=55.729568, lon.=26.243338, Alt.=150.720825m. Speed=0.288000m/h.</desc>
<speed>0.080000</speed>
</trkpt>
<trkpt lat="55.729568" lon="26.243338">
<ele>150.630981</ele>
<time>2010-07-18T08:06:43Z</time>
<desc>lat.=55.729568, lon.=26.243338, Alt.=150.630981m. Speed=0.360000m/h.</desc>
<speed>0.100000</speed>
</trkpt>
<trkpt lat="55.729568" lon="26.243338">
<ele>150.541138</ele>
<time>2010-07-18T08:06:44Z</time>
<desc>lat.=55.729568, lon.=26.243338, Alt.=150.541138m. Speed=0.252000m/h.</desc>
<speed>0.070000</speed>
</trkpt>
<trkpt lat="55.729568" lon="26.243338">
<ele>150.459106</ele>
<time>2010-07-18T08:06:45Z</time>
<desc>lat.=55.729568, lon.=26.243338, Alt.=150.459106m. Speed=0.360000m/h.</desc>
<speed>0.100000</speed>
</trkpt>
<trkpt lat="55.729565" lon="26.243338">
<ele>150.377075</ele>
<time>2010-07-18T08:06:46Z</time>
<desc>lat.=55.729565, lon.=26.243338, Alt.=150.377075m. Speed=0.288000m/h.</desc>
<speed>0.080000</speed>
</trkpt>
<trkpt lat="55.729565" lon="26.243338">
<ele>150.298950</ele>
<time>2010-07-18T08:06:47Z</time>
<desc>lat.=55.729565, lon.=26.243338, Alt.=150.298950m. Speed=0.180000m/h.</desc>
<speed>0.050000</speed>
</trkpt>
<trkpt lat="55.729565" lon="26.243338">
<ele>150.224731</ele>
<time>2010-07-18T08:06:48Z</time>
<desc>lat.=55.729565, lon.=26.243338, Alt.=150.224731m. Speed=0.252000m/h.</desc>
<speed>0.070000</speed>
</trkpt>
<trkpt lat="55.729565" lon="26.243338">
<ele>150.154419</ele>
<time>2010-07-18T08:06:49Z</time>
<desc>lat.=55.729565, lon.=26.243338, Alt.=150.154419m. Speed=0.180000m/h.</desc>
<speed>0.050000</speed>
</trkpt>
<trkpt lat="55.729565" lon="26.243338">
<ele>150.088013</ele>
<time>2010-07-18T08:06:50Z</time>
<desc>lat.=55.729565, lon.=26.243338, Alt.=150.088013m. Speed=0.180000m/h.</desc>
<speed>0.050000</speed>
</trkpt>
<trkpt lat="55.729565" lon="26.243338">
<ele>150.029419</ele>
<time>2010-07-18T08:06:51Z</time>
<desc>lat.=55.729565, lon.=26.243338, Alt.=150.029419m. Speed=0.180000m/h.</desc>
<speed>0.050000</speed>
</trkpt>
<trkpt lat="55.729565" lon="26.243338">
<ele>149.966919</ele>
<time>2010-07-18T08:06:52Z</time>
<desc>lat.=55.729565, lon.=26.243338, Alt.=149.966919m. Speed=0.144000m/h.</desc>
<speed>0.040000</speed>
</trkpt>
<trkpt lat="55.729565" lon="26.243340">
<ele>149.908325</ele>
<time>2010-07-18T08:06:53Z</time>
<desc>lat.=55.729565, lon.=26.243340, Alt.=149.908325m. Speed=0.288000m/h.</desc>
<speed>0.080000</speed>
</trkpt>
<trkpt lat="55.729565" lon="26.243340">
<ele>149.849731</ele>
<time>2010-07-18T08:06:54Z</time>
<desc>lat.=55.729565, lon.=26.243340, Alt.=149.849731m. Speed=0.180000m/h.</desc>
<speed>0.050000</speed>
</trkpt>
<trkpt lat="55.729565" lon="26.243341">
<ele>149.791138</ele>
<time>2010-07-18T08:06:55Z</time>
<desc>lat.=55.729565, lon.=26.243341, Alt.=149.791138m. Speed=0.144000m/h.</desc>
<speed>0.040000</speed>
</trkpt>
<trkpt lat="55.729565" lon="26.243341">
<ele>149.740356</ele>
<time>2010-07-18T08:06:56Z</time>
<desc>lat.=55.729565, lon.=26.243341, Alt.=149.740356m. Speed=0.252000m/h.</desc>
<speed>0.070000</speed>
</trkpt>
<trkpt lat="55.729565" lon="26.243343">
<ele>149.697388</ele>
<time>2010-07-18T08:06:57Z</time>
<desc>lat.=55.729565, lon.=26.243343, Alt.=149.697388m. Speed=0.180000m/h.</desc>
<speed>0.050000</speed>
</trkpt>
<trkpt lat="55.729565" lon="26.243343">
<ele>149.646606</ele>
<time>2010-07-18T08:06:58Z</time>
<desc>lat.=55.729565, lon.=26.243343, Alt.=149.646606m. Speed=0.180000m/h.</desc>
<speed>0.050000</speed>
</trkpt>
<trkpt lat="55.729565" lon="26.243345">
<ele>149.599731</ele>
<time>2010-07-18T08:06:59Z</time>
<desc>lat.=55.729565, lon.=26.243345, Alt.=149.599731m. Speed=0.216000m/h.</desc>
<speed>0.060000</speed>
</trkpt>
<trkpt lat="55.729565" lon="26.243345">
<ele>149.552856</ele>
<time>2010-07-18T08:07:00Z</time>
<desc>lat.=55.729565, lon.=26.243345, Alt.=149.552856m. Speed=0.216000m/h.</desc>
<speed>0.060000</speed>
</trkpt>
<trkpt lat="55.729565" lon="26.243347">
<ele>149.517700</ele>
<time>2010-07-18T08:07:01Z</time>
<desc>lat.=55.729565, lon.=26.243347, Alt.=149.517700m. Speed=0.180000m/h.</desc>
<speed>0.050000</speed>
</trkpt>
<trkpt lat="55.729565" lon="26.243347">
<ele>149.474731</ele>
<time>2010-07-18T08:07:02Z</time>
<desc>lat.=55.729565, lon.=26.243347, Alt.=149.474731m. Speed=0.108000m/h.</desc>
<speed>0.030000</speed>
</trkpt>
<trkpt lat="55.729565" lon="26.243347">
<ele>149.439575</ele>
<time>2010-07-18T08:07:03Z</time>
<desc>lat.=55.729565, lon.=26.243347, Alt.=149.439575m. Speed=0.108000m/h.</desc>
<speed>0.030000</speed>
</trkpt>
<trkpt lat="55.729565" lon="26.243349">
<ele>149.412231</ele>
<time>2010-07-18T08:07:04Z</time>
<desc>lat.=55.729565, lon.=26.243349, Alt.=149.412231m. Speed=0.036000m/h.</desc>
<speed>0.010000</speed>
</trkpt>
<trkpt lat="55.729565" lon="26.243349">
<ele>149.384888</ele>
<time>2010-07-18T08:07:05Z</time>
<desc>lat.=55.729565, lon.=26.243349, Alt.=149.384888m. Speed=0.108000m/h.</desc>
<speed>0.030000</speed>
</trkpt>
<trkpt lat="55.729565" lon="26.243349">
<ele>149.353638</ele>
<time>2010-07-18T08:07:06Z</time>
<desc>lat.=55.729565, lon.=26.243349, Alt.=149.353638m. Speed=0.108000m/h.</desc>
<speed>0.030000</speed>
</trkpt>
<trkpt lat="55.729565" lon="26.243349">
<ele>149.322388</ele>
<time>2010-07-18T08:07:07Z</time>
<desc>lat.=55.729565, lon.=26.243349, Alt.=149.322388m. Speed=0.144000m/h.</desc>
<speed>0.040000</speed>
</trkpt>
<trkpt lat="55.729565" lon="26.243349">
<ele>149.291138</ele>
<time>2010-07-18T08:07:08Z</time>
<desc>lat.=55.729565, lon.=26.243349, Alt.=149.291138m. Speed=0.216000m/h.</desc>
<speed>0.060000</speed>
</trkpt>
<trkpt lat="55.729565" lon="26.243351">
<ele>149.271606</ele>
<time>2010-07-18T08:07:09Z</time>
<desc>lat.=55.729565, lon.=26.243351, Alt.=149.271606m. Speed=0.252000m/h.</desc>
<speed>0.070000</speed>
</trkpt>
<trkpt lat="55.729565" lon="26.243351">
<ele>149.252075</ele>
<time>2010-07-18T08:07:10Z</time>
<desc>lat.=55.729565, lon.=26.243351, Alt.=149.252075m. Speed=0.252000m/h.</desc>
<speed>0.070000</speed>
</trkpt>
<trkpt lat="55.729565" lon="26.243353">
<ele>149.240356</ele>
<time>2010-07-18T08:07:11Z</time>
<desc>lat.=55.729565, lon.=26.243353, Alt.=149.240356m. Speed=0.216000m/h.</desc>
<speed>0.060000</speed>
</trkpt>
<trkpt lat="55.729565" lon="26.243353">
<ele>149.228638</ele>
<time>2010-07-18T08:07:12Z</time>
<desc>lat.=55.729565, lon.=26.243353, Alt.=149.228638m. Speed=0.108000m/h.</desc>
<speed>0.030000</speed>
</trkpt>
<trkpt lat="55.729565" lon="26.243355">
<ele>149.220825</ele>
<time>2010-07-18T08:07:13Z</time>
<desc>lat.=55.729565, lon.=26.243355, Alt.=149.220825m. Speed=0.216000m/h.</desc>
<speed>0.060000</speed>
</trkpt>
<trkpt lat="55.729568" lon="26.243355">
<ele>149.216919</ele>
<time>2010-07-18T08:07:14Z</time>
<desc>lat.=55.729568, lon.=26.243355, Alt.=149.216919m. Speed=0.180000m/h.</desc>
<speed>0.050000</speed>
</trkpt>
<trkpt lat="55.729568" lon="26.243357">
<ele>149.213013</ele>
<time>2010-07-18T08:07:15Z</time>
<desc>lat.=55.729568, lon.=26.243357, Alt.=149.213013m. Speed=0.036000m/h.</desc>
<speed>0.010000</speed>
</trkpt>
<trkpt lat="55.729568" lon="26.243357">
<ele>149.201294</ele>
<time>2010-07-18T08:07:16Z</time>
<desc>lat.=55.729568, lon.=26.243357, Alt.=149.201294m. Speed=0.144000m/h.</desc>
<speed>0.040000</speed>
</trkpt>
<trkpt lat="55.729568" lon="26.243357">
<ele>149.193481</ele>
<time>2010-07-18T08:07:17Z</time>
<desc>lat.=55.729568, lon.=26.243357, Alt.=149.193481m. Speed=0.180000m/h.</desc>
<speed>0.050000</speed>
</trkpt>
<trkpt lat="55.729568" lon="26.243359">
<ele>149.181763</ele>
<time>2010-07-18T08:07:18Z</time>
<desc>lat.=55.729568, lon.=26.243359, Alt.=149.181763m. Speed=0.108000m/h.</desc>
<speed>0.030000</speed>
</trkpt>
<trkpt lat="55.729568" lon="26.243359">
<ele>149.177856</ele>
<time>2010-07-18T08:07:19Z</time>
<desc>lat.=55.729568, lon.=26.243359, Alt.=149.177856m. Speed=0.072000m/h.</desc>
<speed>0.020000</speed>
</trkpt>
<trkpt lat="55.729568" lon="26.243359">
<ele>149.162231</ele>
<time>2010-07-18T08:07:20Z</time>
<desc>lat.=55.729568, lon.=26.243359, Alt.=149.162231m. Speed=0.108000m/h.</desc>
<speed>0.030000</speed>
</trkpt>
<trkpt lat="55.729568" lon="26.243359">
<ele>149.146606</ele>
<time>2010-07-18T08:07:21Z</time>
<desc>lat.=55.729568, lon.=26.243359, Alt.=149.146606m. Speed=0.108000m/h.</desc>
<speed>0.030000</speed>
</trkpt>
<trkpt lat="55.729568" lon="26.243359">
<ele>149.130981</ele>
<time>2010-07-18T08:07:22Z</time>
<desc>lat.=55.729568, lon.=26.243359, Alt.=149.130981m. Speed=0.108000m/h.</desc>
<speed>0.030000</speed>
</trkpt>
<trkpt lat="55.729568" lon="26.243359">
<ele>149.115356</ele>
<time>2010-07-18T08:07:23Z</time>
<desc>lat.=55.729568, lon.=26.243359, Alt.=149.115356m. Speed=0.108000m/h.</desc>
<speed>0.030000</speed>
</trkpt>
<trkpt lat="55.729568" lon="26.243361">
<ele>149.103638</ele>
<time>2010-07-18T08:07:24Z</time>
<desc>lat.=55.729568, lon.=26.243361, Alt.=149.103638m. Speed=0.144000m/h.</desc>
<speed>0.040000</speed>
</trkpt>
<trkpt lat="55.729568" lon="26.243361">
<ele>149.091919</ele>
<time>2010-07-18T08:07:25Z</time>
<desc>lat.=55.729568, lon.=26.243361, Alt.=149.091919m. Speed=0.108000m/h.</desc>
<speed>0.030000</speed>
</trkpt>
<trkpt lat="55.729568" lon="26.243361">
<ele>149.080200</ele>
<time>2010-07-18T08:07:26Z</time>
<desc>lat.=55.729568, lon.=26.243361, Alt.=149.080200m. Speed=0.036000m/h.</desc>
<speed>0.010000</speed>
</trkpt>
<trkpt lat="55.729568" lon="26.243361">
<ele>149.068481</ele>
<time>2010-07-18T08:07:27Z</time>
<desc>lat.=55.729568, lon.=26.243361, Alt.=149.068481m. Speed=0.072000m/h.</desc>
<speed>0.020000</speed>
</trkpt>
<trkpt lat="55.729568" lon="26.243361">
<ele>149.056763</ele>
<time>2010-07-18T08:07:28Z</time>
<desc>lat.=55.729568, lon.=26.243361, Alt.=149.056763m. Speed=0.000000m/h.</desc>
<speed>0.000000</speed>
</trkpt>
<trkpt lat="55.729568" lon="26.243361">
<ele>149.045044</ele>
<time>2010-07-18T08:07:29Z</time>
<desc>lat.=55.729568, lon.=26.243361, Alt.=149.045044m. Speed=0.072000m/h.</desc>
<speed>0.020000</speed>
</trkpt>
<trkpt lat="55.729568" lon="26.243361">
<ele>149.029419</ele>
<time>2010-07-18T08:07:30Z</time>
<desc>lat.=55.729568, lon.=26.243361, Alt.=149.029419m. Speed=0.108000m/h.</desc>
<speed>0.030000</speed>
</trkpt>
<trkpt lat="55.729568" lon="26.243361">
<ele>149.017700</ele>
<time>2010-07-18T08:07:31Z</time>
<desc>lat.=55.729568, lon.=26.243361, Alt.=149.017700m. Speed=0.036000m/h.</desc>
<speed>0.010000</speed>
</trkpt>
<trkpt lat="55.729568" lon="26.243361">
<ele>149.002075</ele>
<time>2010-07-18T08:07:32Z</time>
<desc>lat.=55.729568, lon.=26.243361, Alt.=149.002075m. Speed=0.072000m/h.</desc>
<speed>0.020000</speed>
</trkpt>
<trkpt lat="55.729568" lon="26.243361">
<ele>148.990356</ele>
<time>2010-07-18T08:07:33Z</time>
<desc>lat.=55.729568, lon.=26.243361, Alt.=148.990356m. Speed=0.072000m/h.</desc>
<speed>0.020000</speed>
</trkpt>
<trkpt lat="55.729568" lon="26.243361">
<ele>148.990356</ele>
<time>2010-07-18T08:07:34Z</time>
<desc>lat.=55.729568, lon.=26.243361, Alt.=148.990356m. Speed=0.144000m/h.</desc>
<speed>0.040000</speed>
</trkpt>
<trkpt lat="55.729568" lon="26.243361">
<ele>148.998169</ele>
<time>2010-07-18T08:07:35Z</time>
<desc>lat.=55.729568, lon.=26.243361, Alt.=148.998169m. Speed=0.036000m/h.</desc>
<speed>0.010000</speed>
</trkpt>
<trkpt lat="55.729568" lon="26.243361">
<ele>149.005981</ele>
<time>2010-07-18T08:07:36Z</time>
<desc>lat.=55.729568, lon.=26.243361, Alt.=149.005981m. Speed=0.072000m/h.</desc>
<speed>0.020000</speed>
</trkpt>
<trkpt lat="55.729572" lon="26.243361">
<ele>149.017700</ele>
<time>2010-07-18T08:07:37Z</time>
<desc>lat.=55.729572, lon.=26.243361, Alt.=149.017700m. Speed=0.108000m/h.</desc>
<speed>0.030000</speed>
</trkpt>
<trkpt lat="55.729572" lon="26.243361">
<ele>149.013794</ele>
<time>2010-07-18T08:07:38Z</time>
<desc>lat.=55.729572, lon.=26.243361, Alt.=149.013794m. Speed=0.108000m/h.</desc>
<speed>0.030000</speed>
</trkpt>
<trkpt lat="55.729572" lon="26.243361">
<ele>149.013794</ele>
<time>2010-07-18T08:07:39Z</time>
<desc>lat.=55.729572, lon.=26.243361, Alt.=149.013794m. Speed=0.000000m/h.</desc>
<speed>0.000000</speed>
</trkpt>
<trkpt lat="55.729572" lon="26.243361">
<ele>149.009888</ele>
<time>2010-07-18T08:07:40Z</time>
<desc>lat.=55.729572, lon.=26.243361, Alt.=149.009888m. Speed=0.072000m/h.</desc>
<speed>0.020000</speed>
</trkpt>
<trkpt lat="55.729572" lon="26.243361">
<ele>149.005981</ele>
<time>2010-07-18T08:07:41Z</time>
<desc>lat.=55.729572, lon.=26.243361, Alt.=149.005981m. Speed=0.036000m/h.</desc>
<speed>0.010000</speed>
</trkpt>
<trkpt lat="55.729572" lon="26.243361">
<ele>149.005981</ele>
<time>2010-07-18T08:07:42Z</time>
<desc>lat.=55.729572, lon.=26.243361, Alt.=149.005981m. Speed=0.072000m/h.</desc>
<speed>0.020000</speed>
</trkpt>
<trkpt lat="55.729572" lon="26.243359">
<ele>149.009888</ele>
<time>2010-07-18T08:07:43Z</time>
<desc>lat.=55.729572, lon.=26.243359, Alt.=149.009888m. Speed=0.072000m/h.</desc>
<speed>0.020000</speed>
</trkpt>
<trkpt lat="55.729572" lon="26.243359">
<ele>149.005981</ele>
<time>2010-07-18T08:07:44Z</time>
<desc>lat.=55.729572, lon.=26.243359, Alt.=149.005981m. Speed=0.072000m/h.</desc>
<speed>0.020000</speed>
</trkpt>
<trkpt lat="55.729572" lon="26.243359">
<ele>149.005981</ele>
<time>2010-07-18T08:07:45Z</time>
<desc>lat.=55.729572, lon.=26.243359, Alt.=149.005981m. Speed=0.108000m/h.</desc>
<speed>0.030000</speed>
</trkpt>
<trkpt lat="55.729572" lon="26.243359">
<ele>149.009888</ele>
<time>2010-07-18T08:07:46Z</time>
<desc>lat.=55.729572, lon.=26.243359, Alt.=149.009888m. Speed=0.108000m/h.</desc>
<speed>0.030000</speed>
</trkpt>
<trkpt lat="55.729572" lon="26.243357">
<ele>149.017700</ele>
<time>2010-07-18T08:07:47Z</time>
<desc>lat.=55.729572, lon.=26.243357, Alt.=149.017700m. Speed=0.144000m/h.</desc>
<speed>0.040000</speed>
</trkpt>
<trkpt lat="55.729572" lon="26.243357">
<ele>149.021606</ele>
<time>2010-07-18T08:07:48Z</time>
<desc>lat.=55.729572, lon.=26.243357, Alt.=149.021606m. Speed=0.072000m/h.</desc>
<speed>0.020000</speed>
</trkpt>
<trkpt lat="55.729572" lon="26.243357">
<ele>149.025513</ele>
<time>2010-07-18T08:07:49Z</time>
<desc>lat.=55.729572, lon.=26.243357, Alt.=149.025513m. Speed=0.144000m/h.</desc>
<speed>0.040000</speed>
</trkpt>
<trkpt lat="55.729572" lon="26.243357">
<ele>149.029419</ele>
<time>2010-07-18T08:07:50Z</time>
<desc>lat.=55.729572, lon.=26.243357, Alt.=149.029419m. Speed=0.180000m/h.</desc>
<speed>0.050000</speed>
</trkpt>
<trkpt lat="55.729572" lon="26.243359">
<ele>149.041138</ele>
<time>2010-07-18T08:07:51Z</time>
<desc>lat.=55.729572, lon.=26.243359, Alt.=149.041138m. Speed=0.180000m/h.</desc>
<speed>0.050000</speed>
</trkpt>
<trkpt lat="55.729572" lon="26.243359">
<ele>149.052856</ele>
<time>2010-07-18T08:07:52Z</time>
<desc>lat.=55.729572, lon.=26.243359, Alt.=149.052856m. Speed=0.216000m/h.</desc>
<speed>0.060000</speed>
</trkpt>
<trkpt lat="55.729572" lon="26.243359">
<ele>149.064575</ele>
<time>2010-07-18T08:07:53Z</time>
<desc>lat.=55.729572, lon.=26.243359, Alt.=149.064575m. Speed=0.108000m/h.</desc>
<speed>0.030000</speed>
</trkpt>
<trkpt lat="55.729572" lon="26.243359">
<ele>149.076294</ele>
<time>2010-07-18T08:07:54Z</time>
<desc>lat.=55.729572, lon.=26.243359, Alt.=149.076294m. Speed=0.108000m/h.</desc>
<speed>0.030000</speed>
</trkpt>
<trkpt lat="55.729572" lon="26.243357">
<ele>149.091919</ele>
<time>2010-07-18T08:07:55Z</time>
<desc>lat.=55.729572, lon.=26.243357, Alt.=149.091919m. Speed=0.108000m/h.</desc>
<speed>0.030000</speed>
</trkpt>
<trkpt lat="55.729572" lon="26.243357">
<ele>149.103638</ele>
<time>2010-07-18T08:07:56Z</time>
<desc>lat.=55.729572, lon.=26.243357, Alt.=149.103638m. Speed=0.180000m/h.</desc>
<speed>0.050000</speed>
</trkpt>
<trkpt lat="55.729572" lon="26.243357">
<ele>149.123169</ele>
<time>2010-07-18T08:07:57Z</time>
<desc>lat.=55.729572, lon.=26.243357, Alt.=149.123169m. Speed=0.036000m/h.</desc>
<speed>0.010000</speed>
</trkpt>
<trkpt lat="55.729572" lon="26.243355">
<ele>149.138794</ele>
<time>2010-07-18T08:07:58Z</time>
<desc>lat.=55.729572, lon.=26.243355, Alt.=149.138794m. Speed=0.144000m/h.</desc>
<speed>0.040000</speed>
</trkpt>
<trkpt lat="55.729572" lon="26.243355">
<ele>149.154419</ele>
<time>2010-07-18T08:07:59Z</time>
<desc>lat.=55.729572, lon.=26.243355, Alt.=149.154419m. Speed=0.036000m/h.</desc>
<speed>0.010000</speed>
</trkpt>
<trkpt lat="55.729576" lon="26.243355">
<ele>149.166138</ele>
<time>2010-07-18T08:08:00Z</time>
<desc>lat.=55.729576, lon.=26.243355, Alt.=149.166138m. Speed=0.108000m/h.</desc>
<speed>0.030000</speed>
</trkpt>
<trkpt lat="55.729576" lon="26.243355">
<ele>149.173950</ele>
<time>2010-07-18T08:08:01Z</time>
<desc>lat.=55.729576, lon.=26.243355, Alt.=149.173950m. Speed=0.108000m/h.</desc>
<speed>0.030000</speed>
</trkpt>
<trkpt lat="55.729576" lon="26.243355">
<ele>149.189575</ele>
<time>2010-07-18T08:08:02Z</time>
<desc>lat.=55.729576, lon.=26.243355, Alt.=149.189575m. Speed=0.252000m/h.</desc>
<speed>0.070000</speed>
</trkpt>
<trkpt lat="55.729576" lon="26.243355">
<ele>149.201294</ele>
<time>2010-07-18T08:08:03Z</time>
<desc>lat.=55.729576, lon.=26.243355, Alt.=149.201294m. Speed=0.216000m/h.</desc>
<speed>0.060000</speed>
</trkpt>
<trkpt lat="55.729576" lon="26.243355">
<ele>149.209106</ele>
<time>2010-07-18T08:08:04Z</time>
<desc>lat.=55.729576, lon.=26.243355, Alt.=149.209106m. Speed=0.000000m/h.</desc>
<speed>0.000000</speed>
</trkpt>
<trkpt lat="55.729576" lon="26.243355">
<ele>149.216919</ele>
<time>2010-07-18T08:08:05Z</time>
<desc>lat.=55.729576, lon.=26.243355, Alt.=149.216919m. Speed=0.108000m/h.</desc>
<speed>0.030000</speed>
</trkpt>
<trkpt lat="55.729576" lon="26.243355">
<ele>149.224731</ele>
<time>2010-07-18T08:08:06Z</time>
<desc>lat.=55.729576, lon.=26.243355, Alt.=149.224731m. Speed=0.072000m/h.</desc>
<speed>0.020000</speed>
</trkpt>
<trkpt lat="55.729576" lon="26.243355">
<ele>149.236450</ele>
<time>2010-07-18T08:08:07Z</time>
<desc>lat.=55.729576, lon.=26.243355, Alt.=149.236450m. Speed=0.072000m/h.</desc>
<speed>0.020000</speed>
</trkpt>
<trkpt lat="55.729576" lon="26.243355">
<ele>149.248169</ele>
<time>2010-07-18T08:08:08Z</time>
<desc>lat.=55.729576, lon.=26.243355, Alt.=149.248169m. Speed=0.000000m/h.</desc>
<speed>0.000000</speed>
</trkpt>
<trkpt lat="55.729576" lon="26.243355">
<ele>149.259888</ele>
<time>2010-07-18T08:08:09Z</time>
<desc>lat.=55.729576, lon.=26.243355, Alt.=149.259888m. Speed=0.036000m/h.</desc>
<speed>0.010000</speed>
</trkpt>
<trkpt lat="55.729576" lon="26.243355">
<ele>149.267700</ele>
<time>2010-07-18T08:08:10Z</time>
<desc>lat.=55.729576, lon.=26.243355, Alt.=149.267700m. Speed=0.072000m/h.</desc>
<speed>0.020000</speed>
</trkpt>
<trkpt lat="55.729576" lon="26.243355">
<ele>149.283325</ele>
<time>2010-07-18T08:08:11Z</time>
<desc>lat.=55.729576, lon.=26.243355, Alt.=149.283325m. Speed=0.180000m/h.</desc>
<speed>0.050000</speed>
</trkpt>
<trkpt lat="55.729576" lon="26.243355">
<ele>149.287231</ele>
<time>2010-07-18T08:08:12Z</time>
<desc>lat.=55.729576, lon.=26.243355, Alt.=149.287231m. Speed=0.144000m/h.</desc>
<speed>0.040000</speed>
</trkpt>
<trkpt lat="55.729580" lon="26.243357">
<ele>149.298950</ele>
<time>2010-07-18T08:08:13Z</time>
<desc>lat.=55.729580, lon.=26.243357, Alt.=149.298950m. Speed=0.072000m/h.</desc>
<speed>0.020000</speed>
</trkpt>
<trkpt lat="55.729580" lon="26.243357">
<ele>149.302856</ele>
<time>2010-07-18T08:08:14Z</time>
<desc>lat.=55.729580, lon.=26.243357, Alt.=149.302856m. Speed=0.108000m/h.</desc>
<speed>0.030000</speed>
</trkpt>
<trkpt lat="55.729580" lon="26.243357">
<ele>149.306763</ele>
<time>2010-07-18T08:08:15Z</time>
<desc>lat.=55.729580, lon.=26.243357, Alt.=149.306763m. Speed=0.108000m/h.</desc>
<speed>0.030000</speed>
</trkpt>
<trkpt lat="55.729580" lon="26.243357">
<ele>149.310669</ele>
<time>2010-07-18T08:08:16Z</time>
<desc>lat.=55.729580, lon.=26.243357, Alt.=149.310669m. Speed=0.144000m/h.</desc>
<speed>0.040000</speed>
</trkpt>
<trkpt lat="55.729580" lon="26.243357">
<ele>149.318481</ele>
<time>2010-07-18T08:08:17Z</time>
<desc>lat.=55.729580, lon.=26.243357, Alt.=149.318481m. Speed=0.108000m/h.</desc>
<speed>0.030000</speed>
</trkpt>
<trkpt lat="55.729580" lon="26.243357">
<ele>149.318481</ele>
<time>2010-07-18T08:08:18Z</time>
<desc>lat.=55.729580, lon.=26.243357, Alt.=149.318481m. Speed=0.144000m/h.</desc>
<speed>0.040000</speed>
</trkpt>
<trkpt lat="55.729580" lon="26.243359">
<ele>149.314575</ele>
<time>2010-07-18T08:08:19Z</time>
<desc>lat.=55.729580, lon.=26.243359, Alt.=149.314575m. Speed=0.036000m/h.</desc>
<speed>0.010000</speed>
</trkpt>
<trkpt lat="55.729580" lon="26.243359">
<ele>149.314575</ele>
<time>2010-07-18T08:08:20Z</time>
<desc>lat.=55.729580, lon.=26.243359, Alt.=149.314575m. Speed=0.036000m/h.</desc>
<speed>0.010000</speed>
</trkpt>
<trkpt lat="55.729580" lon="26.243359">
<ele>149.318481</ele>
<time>2010-07-18T08:08:21Z</time>
<desc>lat.=55.729580, lon.=26.243359, Alt.=149.318481m. Speed=0.072000m/h.</desc>
<speed>0.020000</speed>
</trkpt>
<trkpt lat="55.729580" lon="26.243359">
<ele>149.322388</ele>
<time>2010-07-18T08:08:22Z</time>
<desc>lat.=55.729580, lon.=26.243359, Alt.=149.322388m. Speed=0.144000m/h.</desc>
<speed>0.040000</speed>
</trkpt>
<trkpt lat="55.729580" lon="26.243359">
<ele>149.330200</ele>
<time>2010-07-18T08:08:23Z</time>
<desc>lat.=55.729580, lon.=26.243359, Alt.=149.330200m. Speed=0.144000m/h.</desc>
<speed>0.040000</speed>
</trkpt>
<trkpt lat="55.729580" lon="26.243359">
<ele>149.338013</ele>
<time>2010-07-18T08:08:24Z</time>
<desc>lat.=55.729580, lon.=26.243359, Alt.=149.338013m. Speed=0.216000m/h.</desc>
<speed>0.060000</speed>
</trkpt>
<trkpt lat="55.729584" lon="26.243361">
<ele>149.357544</ele>
<time>2010-07-18T08:08:25Z</time>
<desc>lat.=55.729584, lon.=26.243361, Alt.=149.357544m. Speed=0.252000m/h.</desc>
<speed>0.070000</speed>
</trkpt>
<trkpt lat="55.729584" lon="26.243361">
<ele>149.369263</ele>
<time>2010-07-18T08:08:26Z</time>
<desc>lat.=55.729584, lon.=26.243361, Alt.=149.369263m. Speed=0.288000m/h.</desc>
<speed>0.080000</speed>
</trkpt>
<trkpt lat="55.729584" lon="26.243361">
<ele>149.384888</ele>
<time>2010-07-18T08:08:27Z</time>
<desc>lat.=55.729584, lon.=26.243361, Alt.=149.384888m. Speed=0.360000m/h.</desc>
<speed>0.100000</speed>
</trkpt>
<trkpt lat="55.729584" lon="26.243362">
<ele>149.404419</ele>
<time>2010-07-18T08:08:28Z</time>
<desc>lat.=55.729584, lon.=26.243362, Alt.=149.404419m. Speed=0.540000m/h.</desc>
<speed>0.150000</speed>
</trkpt>
<trkpt lat="55.729584" lon="26.243364">
<ele>149.420044</ele>
<time>2010-07-18T08:08:29Z</time>
<desc>lat.=55.729584, lon.=26.243364, Alt.=149.420044m. Speed=0.540000m/h.</desc>
<speed>0.150000</speed>
</trkpt>
<trkpt lat="55.729588" lon="26.243366">
<ele>149.443481</ele>
<time>2010-07-18T08:08:30Z</time>
<desc>lat.=55.729588, lon.=26.243366, Alt.=149.443481m. Speed=0.432000m/h.</desc>
<speed>0.120000</speed>
</trkpt>
<trkpt lat="55.729588" lon="26.243368">
<ele>149.459106</ele>
<time>2010-07-18T08:08:31Z</time>
<desc>lat.=55.729588, lon.=26.243368, Alt.=149.459106m. Speed=0.432000m/h.</desc>
<speed>0.120000</speed>
</trkpt>
<trkpt lat="55.729588" lon="26.243370">
<ele>149.474731</ele>
<time>2010-07-18T08:08:32Z</time>
<desc>lat.=55.729588, lon.=26.243370, Alt.=149.474731m. Speed=0.396000m/h.</desc>
<speed>0.110000</speed>
</trkpt>
<trkpt lat="55.729588" lon="26.243372">
<ele>149.490356</ele>
<time>2010-07-18T08:08:33Z</time>
<desc>lat.=55.729588, lon.=26.243372, Alt.=149.490356m. Speed=0.288000m/h.</desc>
<speed>0.080000</speed>
</trkpt>
<trkpt lat="55.729591" lon="26.243372">
<ele>149.502075</ele>
<time>2010-07-18T08:08:34Z</time>
<desc>lat.=55.729591, lon.=26.243372, Alt.=149.502075m. Speed=0.216000m/h.</desc>
<speed>0.060000</speed>
</trkpt>
<trkpt lat="55.729591" lon="26.243372">
<ele>149.509888</ele>
<time>2010-07-18T08:08:35Z</time>
<desc>lat.=55.729591, lon.=26.243372, Alt.=149.509888m. Speed=0.180000m/h.</desc>
<speed>0.050000</speed>
</trkpt>
<trkpt lat="55.729591" lon="26.243374">
<ele>149.517700</ele>
<time>2010-07-18T08:08:36Z</time>
<desc>lat.=55.729591, lon.=26.243374, Alt.=149.517700m. Speed=0.180000m/h.</desc>
<speed>0.050000</speed>
</trkpt>
<trkpt lat="55.729591" lon="26.243374">
<ele>149.525513</ele>
<time>2010-07-18T08:08:37Z</time>
<desc>lat.=55.729591, lon.=26.243374, Alt.=149.525513m. Speed=0.108000m/h.</desc>
<speed>0.030000</speed>
</trkpt>
<trkpt lat="55.729591" lon="26.243374">
<ele>149.537231</ele>
<time>2010-07-18T08:08:38Z</time>
<desc>lat.=55.729591, lon.=26.243374, Alt.=149.537231m. Speed=0.072000m/h.</desc>
<speed>0.020000</speed>
</trkpt>
<trkpt lat="55.729591" lon="26.243374">
<ele>149.545044</ele>
<time>2010-07-18T08:08:39Z</time>
<desc>lat.=55.729591, lon.=26.243374, Alt.=149.545044m. Speed=0.072000m/h.</desc>
<speed>0.020000</speed>
</trkpt>
<trkpt lat="55.729591" lon="26.243374">
<ele>149.545044</ele>
<time>2010-07-18T08:08:40Z</time>
<desc>lat.=55.729591, lon.=26.243374, Alt.=149.545044m. Speed=0.180000m/h.</desc>
<speed>0.050000</speed>
</trkpt>
<trkpt lat="55.729591" lon="26.243374">
<ele>149.548950</ele>
<time>2010-07-18T08:08:41Z</time>
<desc>lat.=55.729591, lon.=26.243374, Alt.=149.548950m. Speed=0.216000m/h.</desc>
<speed>0.060000</speed>
</trkpt>
<trkpt lat="55.729591" lon="26.243374">
<ele>149.548950</ele>
<time>2010-07-18T08:08:42Z</time>
<desc>lat.=55.729591, lon.=26.243374, Alt.=149.548950m. Speed=0.108000m/h.</desc>
<speed>0.030000</speed>
</trkpt>
<trkpt lat="55.729591" lon="26.243374">
<ele>149.545044</ele>
<time>2010-07-18T08:08:43Z</time>
<desc>lat.=55.729591, lon.=26.243374, Alt.=149.545044m. Speed=0.144000m/h.</desc>
<speed>0.040000</speed>
</trkpt>
<trkpt lat="55.729591" lon="26.243374">
<ele>149.545044</ele>
<time>2010-07-18T08:08:44Z</time>
<desc>lat.=55.729591, lon.=26.243374, Alt.=149.545044m. Speed=0.360000m/h.</desc>
<speed>0.100000</speed>
</trkpt>
<trkpt lat="55.729591" lon="26.243372">
<ele>149.537231</ele>
<time>2010-07-18T08:08:45Z</time>
<desc>lat.=55.729591, lon.=26.243372, Alt.=149.537231m. Speed=0.612000m/h.</desc>
<speed>0.170000</speed>
</trkpt>
<trkpt lat="55.729591" lon="26.243370">
<ele>149.537231</ele>
<time>2010-07-18T08:08:46Z</time>
<desc>lat.=55.729591, lon.=26.243370, Alt.=149.537231m. Speed=0.540000m/h.</desc>
<speed>0.150000</speed>
</trkpt>
<trkpt lat="55.729591" lon="26.243368">
<ele>149.533325</ele>
<time>2010-07-18T08:08:47Z</time>
<desc>lat.=55.729591, lon.=26.243368, Alt.=149.533325m. Speed=0.504000m/h.</desc>
<speed>0.140000</speed>
</trkpt>
<trkpt lat="55.729591" lon="26.243366">
<ele>149.525513</ele>
<time>2010-07-18T08:08:48Z</time>
<desc>lat.=55.729591, lon.=26.243366, Alt.=149.525513m. Speed=0.576000m/h.</desc>
<speed>0.160000</speed>
</trkpt>
<trkpt lat="55.729588" lon="26.243362">
<ele>149.521606</ele>
<time>2010-07-18T08:08:49Z</time>
<desc>lat.=55.729588, lon.=26.243362, Alt.=149.521606m. Speed=0.540000m/h.</desc>
<speed>0.150000</speed>
</trkpt>
<trkpt lat="55.729588" lon="26.243361">
<ele>149.517700</ele>
<time>2010-07-18T08:08:50Z</time>
<desc>lat.=55.729588, lon.=26.243361, Alt.=149.517700m. Speed=0.396000m/h.</desc>
<speed>0.110000</speed>
</trkpt>
<trkpt lat="55.729588" lon="26.243359">
<ele>149.517700</ele>
<time>2010-07-18T08:08:51Z</time>
<desc>lat.=55.729588, lon.=26.243359, Alt.=149.517700m. Speed=0.288000m/h.</desc>
<speed>0.080000</speed>
</trkpt>
<trkpt lat="55.729588" lon="26.243359">
<ele>149.513794</ele>
<time>2010-07-18T08:08:52Z</time>
<desc>lat.=55.729588, lon.=26.243359, Alt.=149.513794m. Speed=0.216000m/h.</desc>
<speed>0.060000</speed>
</trkpt>
<trkpt lat="55.729588" lon="26.243357">
<ele>149.513794</ele>
<time>2010-07-18T08:08:53Z</time>
<desc>lat.=55.729588, lon.=26.243357, Alt.=149.513794m. Speed=0.144000m/h.</desc>
<speed>0.040000</speed>
</trkpt>
<trkpt lat="55.729588" lon="26.243357">
<ele>149.513794</ele>
<time>2010-07-18T08:08:54Z</time>
<desc>lat.=55.729588, lon.=26.243357, Alt.=149.513794m. Speed=0.180000m/h.</desc>
<speed>0.050000</speed>
</trkpt>
<trkpt lat="55.729588" lon="26.243355">
<ele>149.513794</ele>
<time>2010-07-18T08:08:55Z</time>
<desc>lat.=55.729588, lon.=26.243355, Alt.=149.513794m. Speed=0.252000m/h.</desc>
<speed>0.070000</speed>
</trkpt>
<trkpt lat="55.729588" lon="26.243355">
<ele>149.509888</ele>
<time>2010-07-18T08:08:56Z</time>
<desc>lat.=55.729588, lon.=26.243355, Alt.=149.509888m. Speed=0.252000m/h.</desc>
<speed>0.070000</speed>
</trkpt>
<trkpt lat="55.729588" lon="26.243353">
<ele>149.509888</ele>
<time>2010-07-18T08:08:57Z</time>
<desc>lat.=55.729588, lon.=26.243353, Alt.=149.509888m. Speed=0.396000m/h.</desc>
<speed>0.110000</speed>
</trkpt>
<trkpt lat="55.729588" lon="26.243351">
<ele>149.509888</ele>
<time>2010-07-18T08:08:58Z</time>
<desc>lat.=55.729588, lon.=26.243351, Alt.=149.509888m. Speed=0.468000m/h.</desc>
<speed>0.130000</speed>
</trkpt>
<trkpt lat="55.729588" lon="26.243349">
<ele>149.505981</ele>
<time>2010-07-18T08:08:59Z</time>
<desc>lat.=55.729588, lon.=26.243349, Alt.=149.505981m. Speed=0.432000m/h.</desc>
<speed>0.120000</speed>
</trkpt>
<trkpt lat="55.729584" lon="26.243347">
<ele>149.505981</ele>
<time>2010-07-18T08:09:00Z</time>
<desc>lat.=55.729584, lon.=26.243347, Alt.=149.505981m. Speed=0.432000m/h.</desc>
<speed>0.120000</speed>
</trkpt>
<trkpt lat="55.729584" lon="26.243345">
<ele>149.513794</ele>
<time>2010-07-18T08:09:01Z</time>
<desc>lat.=55.729584, lon.=26.243345, Alt.=149.513794m. Speed=0.504000m/h.</desc>
<speed>0.140000</speed>
</trkpt>
<trkpt lat="55.729584" lon="26.243343">
<ele>149.525513</ele>
<time>2010-07-18T08:09:02Z</time>
<desc>lat.=55.729584, lon.=26.243343, Alt.=149.525513m. Speed=0.396000m/h.</desc>
<speed>0.110000</speed>
</trkpt>
<trkpt lat="55.729584" lon="26.243341">
<ele>149.537231</ele>
<time>2010-07-18T08:09:03Z</time>
<desc>lat.=55.729584, lon.=26.243341, Alt.=149.537231m. Speed=0.432000m/h.</desc>
<speed>0.120000</speed>
</trkpt>
<trkpt lat="55.729584" lon="26.243340">
<ele>149.556763</ele>
<time>2010-07-18T08:09:04Z</time>
<desc>lat.=55.729584, lon.=26.243340, Alt.=149.556763m. Speed=0.144000m/h.</desc>
<speed>0.040000</speed>
</trkpt>
<trkpt lat="55.729584" lon="26.243340">
<ele>149.572388</ele>
<time>2010-07-18T08:09:05Z</time>
<desc>lat.=55.729584, lon.=26.243340, Alt.=149.572388m. Speed=0.216000m/h.</desc>
<speed>0.060000</speed>
</trkpt>
<trkpt lat="55.729584" lon="26.243338">
<ele>149.584106</ele>
<time>2010-07-18T08:09:06Z</time>
<desc>lat.=55.729584, lon.=26.243338, Alt.=149.584106m. Speed=0.108000m/h.</desc>
<speed>0.030000</speed>
</trkpt>
<trkpt lat="55.729584" lon="26.243338">
<ele>149.599731</ele>
<time>2010-07-18T08:09:07Z</time>
<desc>lat.=55.729584, lon.=26.243338, Alt.=149.599731m. Speed=0.072000m/h.</desc>
<speed>0.020000</speed>
</trkpt>
<trkpt lat="55.729584" lon="26.243338">
<ele>149.619263</ele>
<time>2010-07-18T08:09:08Z</time>
<desc>lat.=55.729584, lon.=26.243338, Alt.=149.619263m. Speed=0.144000m/h.</desc>
<speed>0.040000</speed>
</trkpt>
<trkpt lat="55.729584" lon="26.243338">
<ele>149.630981</ele>
<time>2010-07-18T08:09:09Z</time>
<desc>lat.=55.729584, lon.=26.243338, Alt.=149.630981m. Speed=0.144000m/h.</desc>
<speed>0.040000</speed>
</trkpt>
<trkpt lat="55.729584" lon="26.243338">
<ele>149.654419</ele>
<time>2010-07-18T08:09:10Z</time>
<desc>lat.=55.729584, lon.=26.243338, Alt.=149.654419m. Speed=0.288000m/h.</desc>
<speed>0.080000</speed>
</trkpt>
<trkpt lat="55.729588" lon="26.243340">
<ele>149.670044</ele>
<time>2010-07-18T08:09:11Z</time>
<desc>lat.=55.729588, lon.=26.243340, Alt.=149.670044m. Speed=0.216000m/h.</desc>
<speed>0.060000</speed>
</trkpt>
<trkpt lat="55.729588" lon="26.243340">
<ele>149.701294</ele>
<time>2010-07-18T08:09:12Z</time>
<desc>lat.=55.729588, lon.=26.243340, Alt.=149.701294m. Speed=0.180000m/h.</desc>
<speed>0.050000</speed>
</trkpt>
<trkpt lat="55.729588" lon="26.243340">
<ele>149.720825</ele>
<time>2010-07-18T08:09:13Z</time>
<desc>lat.=55.729588, lon.=26.243340, Alt.=149.720825m. Speed=0.180000m/h.</desc>
<speed>0.050000</speed>
</trkpt>
<trkpt lat="55.729588" lon="26.243341">
<ele>149.744263</ele>
<time>2010-07-18T08:09:14Z</time>
<desc>lat.=55.729588, lon.=26.243341, Alt.=149.744263m. Speed=0.252000m/h.</desc>
<speed>0.070000</speed>
</trkpt>
<trkpt lat="55.729588" lon="26.243341">
<ele>149.771606</ele>
<time>2010-07-18T08:09:15Z</time>
<desc>lat.=55.729588, lon.=26.243341, Alt.=149.771606m. Speed=0.360000m/h.</desc>
<speed>0.100000</speed>
</trkpt>
<trkpt lat="55.729588" lon="26.243343">
<ele>149.802856</ele>
<time>2010-07-18T08:09:16Z</time>
<desc>lat.=55.729588, lon.=26.243343, Alt.=149.802856m. Speed=0.324000m/h.</desc>
<speed>0.090000</speed>
</trkpt>
<trkpt lat="55.729591" lon="26.243343">
<ele>149.826294</ele>
<time>2010-07-18T08:09:17Z</time>
<desc>lat.=55.729591, lon.=26.243343, Alt.=149.826294m. Speed=0.180000m/h.</desc>
<speed>0.050000</speed>
</trkpt>
<trkpt lat="55.729591" lon="26.243343">
<ele>149.853638</ele>
<time>2010-07-18T08:09:18Z</time>
<desc>lat.=55.729591, lon.=26.243343, Alt.=149.853638m. Speed=0.252000m/h.</desc>
<speed>0.070000</speed>
</trkpt>
<trkpt lat="55.729591" lon="26.243343">
<ele>149.861450</ele>
<time>2010-07-18T08:09:19Z</time>
<desc>lat.=55.729591, lon.=26.243343, Alt.=149.861450m. Speed=0.000000m/h.</desc>
<speed>0.000000</speed>
</trkpt>
<trkpt lat="55.729591" lon="26.243343">
<ele>149.861450</ele>
<time>2010-07-18T08:09:20Z</time>
<desc>lat.=55.729591, lon.=26.243343, Alt.=149.861450m. Speed=0.072000m/h.</desc>
<speed>0.020000</speed>
</trkpt>
<trkpt lat="55.729591" lon="26.243343">
<ele>149.869263</ele>
<time>2010-07-18T08:09:21Z</time>
<desc>lat.=55.729591, lon.=26.243343, Alt.=149.869263m. Speed=0.108000m/h.</desc>
<speed>0.030000</speed>
</trkpt>
<trkpt lat="55.729591" lon="26.243343">
<ele>149.869263</ele>
<time>2010-07-18T08:09:22Z</time>
<desc>lat.=55.729591, lon.=26.243343, Alt.=149.869263m. Speed=0.036000m/h.</desc>
<speed>0.010000</speed>
</trkpt>
<trkpt lat="55.729591" lon="26.243343">
<ele>149.865356</ele>
<time>2010-07-18T08:09:23Z</time>
<desc>lat.=55.729591, lon.=26.243343, Alt.=149.865356m. Speed=0.072000m/h.</desc>
<speed>0.020000</speed>
</trkpt>
<trkpt lat="55.729591" lon="26.243343">
<ele>149.865356</ele>
<time>2010-07-18T08:09:24Z</time>
<desc>lat.=55.729591, lon.=26.243343, Alt.=149.865356m. Speed=0.036000m/h.</desc>
<speed>0.010000</speed>
</trkpt>
<trkpt lat="55.729591" lon="26.243343">
<ele>149.857544</ele>
<time>2010-07-18T08:09:25Z</time>
<desc>lat.=55.729591, lon.=26.243343, Alt.=149.857544m. Speed=0.036000m/h.</desc>
<speed>0.010000</speed>
</trkpt>
<trkpt lat="55.729591" lon="26.243343">
<ele>149.857544</ele>
<time>2010-07-18T08:09:26Z</time>
<desc>lat.=55.729591, lon.=26.243343, Alt.=149.857544m. Speed=0.108000m/h.</desc>
<speed>0.030000</speed>
</trkpt>
<trkpt lat="55.729591" lon="26.243343">
<ele>149.853638</ele>
<time>2010-07-18T08:09:27Z</time>
<desc>lat.=55.729591, lon.=26.243343, Alt.=149.853638m. Speed=0.000000m/h.</desc>
<speed>0.000000</speed>
</trkpt>
<trkpt lat="55.729591" lon="26.243343">
<ele>149.853638</ele>
<time>2010-07-18T08:09:28Z</time>
<desc>lat.=55.729591, lon.=26.243343, Alt.=149.853638m. Speed=0.000000m/h.</desc>
<speed>0.000000</speed>
</trkpt>
<trkpt lat="55.729591" lon="26.243343">
<ele>149.849731</ele>
<time>2010-07-18T08:09:29Z</time>
<desc>lat.=55.729591, lon.=26.243343, Alt.=149.849731m. Speed=0.000000m/h.</desc>
<speed>0.000000</speed>
</trkpt>
<trkpt lat="55.729591" lon="26.243343">
<ele>149.845825</ele>
<time>2010-07-18T08:09:30Z</time>
<desc>lat.=55.729591, lon.=26.243343, Alt.=149.845825m. Speed=0.000000m/h.</desc>
<speed>0.000000</speed>
</trkpt>
<trkpt lat="55.729591" lon="26.243343">
<ele>149.838013</ele>
<time>2010-07-18T08:09:31Z</time>
<desc>lat.=55.729591, lon.=26.243343, Alt.=149.838013m. Speed=0.000000m/h.</desc>
<speed>0.000000</speed>
</trkpt>
<trkpt lat="55.729591" lon="26.243343">
<ele>149.830200</ele>
<time>2010-07-18T08:09:32Z</time>
<desc>lat.=55.729591, lon.=26.243343, Alt.=149.830200m. Speed=0.072000m/h.</desc>
<speed>0.020000</speed>
</trkpt>
<trkpt lat="55.729591" lon="26.243343">
<ele>149.822388</ele>
<time>2010-07-18T08:09:33Z</time>
<desc>lat.=55.729591, lon.=26.243343, Alt.=149.822388m. Speed=0.108000m/h.</desc>
<speed>0.030000</speed>
</trkpt>
<trkpt lat="55.729591" lon="26.243341">
<ele>149.814575</ele>
<time>2010-07-18T08:09:34Z</time>
<desc>lat.=55.729591, lon.=26.243341, Alt.=149.814575m. Speed=0.108000m/h.</desc>
<speed>0.030000</speed>
</trkpt>
<trkpt lat="55.729591" lon="26.243341">
<ele>149.806763</ele>
<time>2010-07-18T08:09:35Z</time>
<desc>lat.=55.729591, lon.=26.243341, Alt.=149.806763m. Speed=0.072000m/h.</desc>
<speed>0.020000</speed>
</trkpt>
<trkpt lat="55.729591" lon="26.243341">
<ele>149.806763</ele>
<time>2010-07-18T08:09:36Z</time>
<desc>lat.=55.729591, lon.=26.243341, Alt.=149.806763m. Speed=0.036000m/h.</desc>
<speed>0.010000</speed>
</trkpt>
<trkpt lat="55.729591" lon="26.243341">
<ele>149.802856</ele>
<time>2010-07-18T08:09:37Z</time>
<desc>lat.=55.729591, lon.=26.243341, Alt.=149.802856m. Speed=0.036000m/h.</desc>
<speed>0.010000</speed>
</trkpt>
<trkpt lat="55.729591" lon="26.243341">
<ele>149.798950</ele>
<time>2010-07-18T08:09:38Z</time>
<desc>lat.=55.729591, lon.=26.243341, Alt.=149.798950m. Speed=0.108000m/h.</desc>
<speed>0.030000</speed>
</trkpt>
<trkpt lat="55.729591" lon="26.243340">
<ele>149.795044</ele>
<time>2010-07-18T08:09:39Z</time>
<desc>lat.=55.729591, lon.=26.243340, Alt.=149.795044m. Speed=0.108000m/h.</desc>
<speed>0.030000</speed>
</trkpt>
<trkpt lat="55.729591" lon="26.243340">
<ele>149.791138</ele>
<time>2010-07-18T08:09:40Z</time>
<desc>lat.=55.729591, lon.=26.243340, Alt.=149.791138m. Speed=0.072000m/h.</desc>
<speed>0.020000</speed>
</trkpt>
<trkpt lat="55.729591" lon="26.243340">
<ele>149.791138</ele>
<time>2010-07-18T08:09:41Z</time>
<desc>lat.=55.729591, lon.=26.243340, Alt.=149.791138m. Speed=0.144000m/h.</desc>
<speed>0.040000</speed>
</trkpt>
<trkpt lat="55.729591" lon="26.243340">
<ele>149.783325</ele>
<time>2010-07-18T08:09:42Z</time>
<desc>lat.=55.729591, lon.=26.243340, Alt.=149.783325m. Speed=0.108000m/h.</desc>
<speed>0.030000</speed>
</trkpt>
<trkpt lat="55.729591" lon="26.243338">
<ele>149.783325</ele>
<time>2010-07-18T08:09:43Z</time>
<desc>lat.=55.729591, lon.=26.243338, Alt.=149.783325m. Speed=0.144000m/h.</desc>
<speed>0.040000</speed>
</trkpt>
<trkpt lat="55.729591" lon="26.243338">
<ele>149.775513</ele>
<time>2010-07-18T08:09:44Z</time>
<desc>lat.=55.729591, lon.=26.243338, Alt.=149.775513m. Speed=0.072000m/h.</desc>
<speed>0.020000</speed>
</trkpt>
<trkpt lat="55.729591" lon="26.243338">
<ele>149.771606</ele>
<time>2010-07-18T08:09:45Z</time>
<desc>lat.=55.729591, lon.=26.243338, Alt.=149.771606m. Speed=0.036000m/h.</desc>
<speed>0.010000</speed>
</trkpt>
<trkpt lat="55.729591" lon="26.243338">
<ele>149.767700</ele>
<time>2010-07-18T08:09:46Z</time>
<desc>lat.=55.729591, lon.=26.243338, Alt.=149.767700m. Speed=0.072000m/h.</desc>
<speed>0.020000</speed>
</trkpt>
<trkpt lat="55.729591" lon="26.243336">
<ele>149.767700</ele>
<time>2010-07-18T08:09:47Z</time>
<desc>lat.=55.729591, lon.=26.243336, Alt.=149.767700m. Speed=0.144000m/h.</desc>
<speed>0.040000</speed>
</trkpt>
<trkpt lat="55.729591" lon="26.243336">
<ele>149.759888</ele>
<time>2010-07-18T08:09:48Z</time>
<desc>lat.=55.729591, lon.=26.243336, Alt.=149.759888m. Speed=0.144000m/h.</desc>
<speed>0.040000</speed>
</trkpt>
<trkpt lat="55.729591" lon="26.243336">
<ele>149.755981</ele>
<time>2010-07-18T08:09:49Z</time>
<desc>lat.=55.729591, lon.=26.243336, Alt.=149.755981m. Speed=0.072000m/h.</desc>
<speed>0.020000</speed>
</trkpt>
<trkpt lat="55.729591" lon="26.243334">
<ele>149.752075</ele>
<time>2010-07-18T08:09:50Z</time>
<desc>lat.=55.729591, lon.=26.243334, Alt.=149.752075m. Speed=0.072000m/h.</desc>
<speed>0.020000</speed>
</trkpt>
<trkpt lat="55.729591" lon="26.243334">
<ele>149.752075</ele>
<time>2010-07-18T08:09:51Z</time>
<desc>lat.=55.729591, lon.=26.243334, Alt.=149.752075m. Speed=0.000000m/h.</desc>
<speed>0.000000</speed>
</trkpt>
<trkpt lat="55.729591" lon="26.243334">
<ele>149.748169</ele>
<time>2010-07-18T08:09:52Z</time>
<desc>lat.=55.729591, lon.=26.243334, Alt.=149.748169m. Speed=0.036000m/h.</desc>
<speed>0.010000</speed>
</trkpt>
<trkpt lat="55.729591" lon="26.243334">
<ele>149.752075</ele>
<time>2010-07-18T08:09:53Z</time>
<desc>lat.=55.729591, lon.=26.243334, Alt.=149.752075m. Speed=0.000000m/h.</desc>
<speed>0.000000</speed>
</trkpt>
<trkpt lat="55.729591" lon="26.243334">
<ele>149.752075</ele>
<time>2010-07-18T08:09:54Z</time>
<desc>lat.=55.729591, lon.=26.243334, Alt.=149.752075m. Speed=0.036000m/h.</desc>
<speed>0.010000</speed>
</trkpt>
<trkpt lat="55.729591" lon="26.243334">
<ele>149.748169</ele>
<time>2010-07-18T08:09:55Z</time>
<desc>lat.=55.729591, lon.=26.243334, Alt.=149.748169m. Speed=0.072000m/h.</desc>
<speed>0.020000</speed>
</trkpt>
<trkpt lat="55.729591" lon="26.243334">
<ele>149.752075</ele>
<time>2010-07-18T08:09:56Z</time>
<desc>lat.=55.729591, lon.=26.243334, Alt.=149.752075m. Speed=0.108000m/h.</desc>
<speed>0.030000</speed>
</trkpt>
<trkpt lat="55.729591" lon="26.243336">
<ele>149.752075</ele>
<time>2010-07-18T08:09:57Z</time>
<desc>lat.=55.729591, lon.=26.243336, Alt.=149.752075m. Speed=0.180000m/h.</desc>
<speed>0.050000</speed>
</trkpt>
<trkpt lat="55.729591" lon="26.243336">
<ele>149.755981</ele>
<time>2010-07-18T08:09:58Z</time>
<desc>lat.=55.729591, lon.=26.243336, Alt.=149.755981m. Speed=0.180000m/h.</desc>
<speed>0.050000</speed>
</trkpt>
<trkpt lat="55.729591" lon="26.243336">
<ele>149.755981</ele>
<time>2010-07-18T08:09:59Z</time>
<desc>lat.=55.729591, lon.=26.243336, Alt.=149.755981m. Speed=0.180000m/h.</desc>
<speed>0.050000</speed>
</trkpt>
<trkpt lat="55.729591" lon="26.243338">
<ele>149.759888</ele>
<time>2010-07-18T08:10:00Z</time>
<desc>lat.=55.729591, lon.=26.243338, Alt.=149.759888m. Speed=0.144000m/h.</desc>
<speed>0.040000</speed>
</trkpt>
<trkpt lat="55.729591" lon="26.243338">
<ele>149.759888</ele>
<time>2010-07-18T08:10:01Z</time>
<desc>lat.=55.729591, lon.=26.243338, Alt.=149.759888m. Speed=0.072000m/h.</desc>
<speed>0.020000</speed>
</trkpt>
<trkpt lat="55.729591" lon="26.243338">
<ele>149.759888</ele>
<time>2010-07-18T08:10:02Z</time>
<desc>lat.=55.729591, lon.=26.243338, Alt.=149.759888m. Speed=0.036000m/h.</desc>
<speed>0.010000</speed>
</trkpt>
<trkpt lat="55.729591" lon="26.243338">
<ele>149.763794</ele>
<time>2010-07-18T08:10:03Z</time>
<desc>lat.=55.729591, lon.=26.243338, Alt.=149.763794m. Speed=0.000000m/h.</desc>
<speed>0.000000</speed>
</trkpt>
<trkpt lat="55.729591" lon="26.243338">
<ele>149.763794</ele>
<time>2010-07-18T08:10:04Z</time>
<desc>lat.=55.729591, lon.=26.243338, Alt.=149.763794m. Speed=0.036000m/h.</desc>
<speed>0.010000</speed>
</trkpt>
<trkpt lat="55.729591" lon="26.243338">
<ele>149.771606</ele>
<time>2010-07-18T08:10:05Z</time>
<desc>lat.=55.729591, lon.=26.243338, Alt.=149.771606m. Speed=0.072000m/h.</desc>
<speed>0.020000</speed>
</trkpt>
<trkpt lat="55.729595" lon="26.243338">
<ele>149.775513</ele>
<time>2010-07-18T08:10:06Z</time>
<desc>lat.=55.729595, lon.=26.243338, Alt.=149.775513m. Speed=0.036000m/h.</desc>
<speed>0.010000</speed>
</trkpt>
<trkpt lat="55.729595" lon="26.243338">
<ele>149.783325</ele>
<time>2010-07-18T08:10:07Z</time>
<desc>lat.=55.729595, lon.=26.243338, Alt.=149.783325m. Speed=0.036000m/h.</desc>
<speed>0.010000</speed>
</trkpt>
<trkpt lat="55.729595" lon="26.243338">
<ele>149.791138</ele>
<time>2010-07-18T08:10:08Z</time>
<desc>lat.=55.729595, lon.=26.243338, Alt.=149.791138m. Speed=0.036000m/h.</desc>
<speed>0.010000</speed>
</trkpt>
<trkpt lat="55.729595" lon="26.243338">
<ele>149.798950</ele>
<time>2010-07-18T08:10:09Z</time>
<desc>lat.=55.729595, lon.=26.243338, Alt.=149.798950m. Speed=0.036000m/h.</desc>
<speed>0.010000</speed>
</trkpt>
<trkpt lat="55.729595" lon="26.243338">
<ele>149.810669</ele>
<time>2010-07-18T08:10:10Z</time>
<desc>lat.=55.729595, lon.=26.243338, Alt.=149.810669m. Speed=0.072000m/h.</desc>
<speed>0.020000</speed>
</trkpt>
<trkpt lat="55.729595" lon="26.243338">
<ele>149.814575</ele>
<time>2010-07-18T08:10:11Z</time>
<desc>lat.=55.729595, lon.=26.243338, Alt.=149.814575m. Speed=0.036000m/h.</desc>
<speed>0.010000</speed>
</trkpt>
<trkpt lat="55.729595" lon="26.243338">
<ele>149.830200</ele>
<time>2010-07-18T08:10:12Z</time>
<desc>lat.=55.729595, lon.=26.243338, Alt.=149.830200m. Speed=0.072000m/h.</desc>
<speed>0.020000</speed>
</trkpt>
<trkpt lat="55.729595" lon="26.243338">
<ele>149.841919</ele>
<time>2010-07-18T08:10:13Z</time>
<desc>lat.=55.729595, lon.=26.243338, Alt.=149.841919m. Speed=0.072000m/h.</desc>
<speed>0.020000</speed>
</trkpt>
<trkpt lat="55.729595" lon="26.243338">
<ele>149.857544</ele>
<time>2010-07-18T08:10:14Z</time>
<desc>lat.=55.729595, lon.=26.243338, Alt.=149.857544m. Speed=0.072000m/h.</desc>
<speed>0.020000</speed>
</trkpt>
<trkpt lat="55.729595" lon="26.243336">
<ele>149.880981</ele>
<time>2010-07-18T08:10:15Z</time>
<desc>lat.=55.729595, lon.=26.243336, Alt.=149.880981m. Speed=0.108000m/h.</desc>
<speed>0.030000</speed>
</trkpt>
<trkpt lat="55.729595" lon="26.243336">
<ele>149.900513</ele>
<time>2010-07-18T08:10:16Z</time>
<desc>lat.=55.729595, lon.=26.243336, Alt.=149.900513m. Speed=0.108000m/h.</desc>
<speed>0.030000</speed>
</trkpt>
<trkpt lat="55.729595" lon="26.243336">
<ele>149.920044</ele>
<time>2010-07-18T08:10:17Z</time>
<desc>lat.=55.729595, lon.=26.243336, Alt.=149.920044m. Speed=0.144000m/h.</desc>
<speed>0.040000</speed>
</trkpt>
<trkpt lat="55.729595" lon="26.243336">
<ele>149.943481</ele>
<time>2010-07-18T08:10:18Z</time>
<desc>lat.=55.729595, lon.=26.243336, Alt.=149.943481m. Speed=0.108000m/h.</desc>
<speed>0.030000</speed>
</trkpt>
<trkpt lat="55.729595" lon="26.243334">
<ele>149.963013</ele>
<time>2010-07-18T08:10:19Z</time>
<desc>lat.=55.729595, lon.=26.243334, Alt.=149.963013m. Speed=0.144000m/h.</desc>
<speed>0.040000</speed>
</trkpt>
<trkpt lat="55.729595" lon="26.243334">
<ele>149.994263</ele>
<time>2010-07-18T08:10:20Z</time>
<desc>lat.=55.729595, lon.=26.243334, Alt.=149.994263m. Speed=0.180000m/h.</desc>
<speed>0.050000</speed>
</trkpt>
<trkpt lat="55.729595" lon="26.243332">
<ele>150.017700</ele>
<time>2010-07-18T08:10:21Z</time>
<desc>lat.=55.729595, lon.=26.243332, Alt.=150.017700m. Speed=0.252000m/h.</desc>
<speed>0.070000</speed>
</trkpt>
<trkpt lat="55.729595" lon="26.243332">
<ele>150.048950</ele>
<time>2010-07-18T08:10:22Z</time>
<desc>lat.=55.729595, lon.=26.243332, Alt.=150.048950m. Speed=0.252000m/h.</desc>
<speed>0.070000</speed>
</trkpt>
<trkpt lat="55.729595" lon="26.243330">
<ele>150.080200</ele>
<time>2010-07-18T08:10:23Z</time>
<desc>lat.=55.729595, lon.=26.243330, Alt.=150.080200m. Speed=0.288000m/h.</desc>
<speed>0.080000</speed>
</trkpt>
<trkpt lat="55.729595" lon="26.243328">
<ele>150.103638</ele>
<time>2010-07-18T08:10:24Z</time>
<desc>lat.=55.729595, lon.=26.243328, Alt.=150.103638m. Speed=0.216000m/h.</desc>
<speed>0.060000</speed>
</trkpt>
<trkpt lat="55.729595" lon="26.243328">
<ele>150.138794</ele>
<time>2010-07-18T08:10:25Z</time>
<desc>lat.=55.729595, lon.=26.243328, Alt.=150.138794m. Speed=0.108000m/h.</desc>
<speed>0.030000</speed>
</trkpt>
<trkpt lat="55.729595" lon="26.243328">
<ele>150.166138</ele>
<time>2010-07-18T08:10:26Z</time>
<desc>lat.=55.729595, lon.=26.243328, Alt.=150.166138m. Speed=0.108000m/h.</desc>
<speed>0.030000</speed>
</trkpt>
<trkpt lat="55.729599" lon="26.243326">
<ele>150.197388</ele>
<time>2010-07-18T08:10:27Z</time>
<desc>lat.=55.729599, lon.=26.243326, Alt.=150.197388m. Speed=0.108000m/h.</desc>
<speed>0.030000</speed>
</trkpt>
<trkpt lat="55.729599" lon="26.243326">
<ele>150.228638</ele>
<time>2010-07-18T08:10:28Z</time>
<desc>lat.=55.729599, lon.=26.243326, Alt.=150.228638m. Speed=0.144000m/h.</desc>
<speed>0.040000</speed>
</trkpt>
<trkpt lat="55.729599" lon="26.243326">
<ele>150.259888</ele>
<time>2010-07-18T08:10:29Z</time>
<desc>lat.=55.729599, lon.=26.243326, Alt.=150.259888m. Speed=0.144000m/h.</desc>
<speed>0.040000</speed>
</trkpt>
<trkpt lat="55.729599" lon="26.243326">
<ele>150.298950</ele>
<time>2010-07-18T08:10:30Z</time>
<desc>lat.=55.729599, lon.=26.243326, Alt.=150.298950m. Speed=0.072000m/h.</desc>
<speed>0.020000</speed>
</trkpt>
<trkpt lat="55.729599" lon="26.243326">
<ele>150.326294</ele>
<time>2010-07-18T08:10:31Z</time>
<desc>lat.=55.729599, lon.=26.243326, Alt.=150.326294m. Speed=0.144000m/h.</desc>
<speed>0.040000</speed>
</trkpt>
<trkpt lat="55.729599" lon="26.243326">
<ele>150.361450</ele>
<time>2010-07-18T08:10:32Z</time>
<desc>lat.=55.729599, lon.=26.243326, Alt.=150.361450m. Speed=0.108000m/h.</desc>
<speed>0.030000</speed>
</trkpt>
<trkpt lat="55.729599" lon="26.243326">
<ele>150.396606</ele>
<time>2010-07-18T08:10:33Z</time>
<desc>lat.=55.729599, lon.=26.243326, Alt.=150.396606m. Speed=0.144000m/h.</desc>
<speed>0.040000</speed>
</trkpt>
<trkpt lat="55.729599" lon="26.243326">
<ele>150.420044</ele>
<time>2010-07-18T08:10:34Z</time>
<desc>lat.=55.729599, lon.=26.243326, Alt.=150.420044m. Speed=0.108000m/h.</desc>
<speed>0.030000</speed>
</trkpt>
<trkpt lat="55.729599" lon="26.243326">
<ele>150.447388</ele>
<time>2010-07-18T08:10:35Z</time>
<desc>lat.=55.729599, lon.=26.243326, Alt.=150.447388m. Speed=0.108000m/h.</desc>
<speed>0.030000</speed>
</trkpt>
<trkpt lat="55.729599" lon="26.243326">
<ele>150.474731</ele>
<time>2010-07-18T08:10:36Z</time>
<desc>lat.=55.729599, lon.=26.243326, Alt.=150.474731m. Speed=0.144000m/h.</desc>
<speed>0.040000</speed>
</trkpt>
<trkpt lat="55.729603" lon="26.243326">
<ele>150.498169</ele>
<time>2010-07-18T08:10:37Z</time>
<desc>lat.=55.729603, lon.=26.243326, Alt.=150.498169m. Speed=0.108000m/h.</desc>
<speed>0.030000</speed>
</trkpt>
<trkpt lat="55.729603" lon="26.243326">
<ele>150.529419</ele>
<time>2010-07-18T08:10:38Z</time>
<desc>lat.=55.729603, lon.=26.243326, Alt.=150.529419m. Speed=0.144000m/h.</desc>
<speed>0.040000</speed>
</trkpt>
<trkpt lat="55.729603" lon="26.243326">
<ele>150.556763</ele>
<time>2010-07-18T08:10:39Z</time>
<desc>lat.=55.729603, lon.=26.243326, Alt.=150.556763m. Speed=0.108000m/h.</desc>
<speed>0.030000</speed>
</trkpt>
<trkpt lat="55.729603" lon="26.243326">
<ele>150.580200</ele>
<time>2010-07-18T08:10:40Z</time>
<desc>lat.=55.729603, lon.=26.243326, Alt.=150.580200m. Speed=0.108000m/h.</desc>
<speed>0.030000</speed>
</trkpt>
<trkpt lat="55.729603" lon="26.243326">
<ele>150.611450</ele>
<time>2010-07-18T08:10:41Z</time>
<desc>lat.=55.729603, lon.=26.243326, Alt.=150.611450m. Speed=0.108000m/h.</desc>
<speed>0.030000</speed>
</trkpt>
<trkpt lat="55.729603" lon="26.243324">
<ele>150.634888</ele>
<time>2010-07-18T08:10:42Z</time>
<desc>lat.=55.729603, lon.=26.243324, Alt.=150.634888m. Speed=0.108000m/h.</desc>
<speed>0.030000</speed>
</trkpt>
<trkpt lat="55.729603" lon="26.243324">
<ele>150.662231</ele>
<time>2010-07-18T08:10:43Z</time>
<desc>lat.=55.729603, lon.=26.243324, Alt.=150.662231m. Speed=0.108000m/h.</desc>
<speed>0.030000</speed>
</trkpt>
<trkpt lat="55.729603" lon="26.243324">
<ele>150.693481</ele>
<time>2010-07-18T08:10:44Z</time>
<desc>lat.=55.729603, lon.=26.243324, Alt.=150.693481m. Speed=0.144000m/h.</desc>
<speed>0.040000</speed>
</trkpt>
<trkpt lat="55.729603" lon="26.243324">
<ele>150.713013</ele>
<time>2010-07-18T08:10:45Z</time>
<desc>lat.=55.729603, lon.=26.243324, Alt.=150.713013m. Speed=0.108000m/h.</desc>
<speed>0.030000</speed>
</trkpt>
<trkpt lat="55.729603" lon="26.243324">
<ele>150.744263</ele>
<time>2010-07-18T08:10:46Z</time>
<desc>lat.=55.729603, lon.=26.243324, Alt.=150.744263m. Speed=0.180000m/h.</desc>
<speed>0.050000</speed>
</trkpt>
<trkpt lat="55.729607" lon="26.243324">
<ele>150.771606</ele>
<time>2010-07-18T08:10:47Z</time>
<desc>lat.=55.729607, lon.=26.243324, Alt.=150.771606m. Speed=0.108000m/h.</desc>
<speed>0.030000</speed>
</trkpt>
<trkpt lat="55.729607" lon="26.243326">
<ele>150.795044</ele>
<time>2010-07-18T08:10:48Z</time>
<desc>lat.=55.729607, lon.=26.243326, Alt.=150.795044m. Speed=0.252000m/h.</desc>
<speed>0.070000</speed>
</trkpt>
<trkpt lat="55.729607" lon="26.243326">
<ele>150.822388</ele>
<time>2010-07-18T08:10:49Z</time>
<desc>lat.=55.729607, lon.=26.243326, Alt.=150.822388m. Speed=0.252000m/h.</desc>
<speed>0.070000</speed>
</trkpt>
<trkpt lat="55.729607" lon="26.243326">
<ele>150.849731</ele>
<time>2010-07-18T08:10:50Z</time>
<desc>lat.=55.729607, lon.=26.243326, Alt.=150.849731m. Speed=0.288000m/h.</desc>
<speed>0.080000</speed>
</trkpt>
<trkpt lat="55.729607" lon="26.243328">
<ele>150.877075</ele>
<time>2010-07-18T08:10:51Z</time>
<desc>lat.=55.729607, lon.=26.243328, Alt.=150.877075m. Speed=0.288000m/h.</desc>
<speed>0.080000</speed>
</trkpt>
<trkpt lat="55.729607" lon="26.243328">
<ele>150.908325</ele>
<time>2010-07-18T08:10:52Z</time>
<desc>lat.=55.729607, lon.=26.243328, Alt.=150.908325m. Speed=0.252000m/h.</desc>
<speed>0.070000</speed>
</trkpt>
<trkpt lat="55.729610" lon="26.243330">
<ele>150.935669</ele>
<time>2010-07-18T08:10:53Z</time>
<desc>lat.=55.729610, lon.=26.243330, Alt.=150.935669m. Speed=0.216000m/h.</desc>
<speed>0.060000</speed>
</trkpt>
<trkpt lat="55.729610" lon="26.243330">
<ele>150.959106</ele>
<time>2010-07-18T08:10:54Z</time>
<desc>lat.=55.729610, lon.=26.243330, Alt.=150.959106m. Speed=0.108000m/h.</desc>
<speed>0.030000</speed>
</trkpt>
<trkpt lat="55.729610" lon="26.243330">
<ele>150.998169</ele>
<time>2010-07-18T08:10:55Z</time>
<desc>lat.=55.729610, lon.=26.243330, Alt.=150.998169m. Speed=0.108000m/h.</desc>
<speed>0.030000</speed>
</trkpt>
<trkpt lat="55.729610" lon="26.243330">
<ele>151.029419</ele>
<time>2010-07-18T08:10:56Z</time>
<desc>lat.=55.729610, lon.=26.243330, Alt.=151.029419m. Speed=0.144000m/h.</desc>
<speed>0.040000</speed>
</trkpt>
<trkpt lat="55.729610" lon="26.243328">
<ele>151.064575</ele>
<time>2010-07-18T08:10:57Z</time>
<desc>lat.=55.729610, lon.=26.243328, Alt.=151.064575m. Speed=0.108000m/h.</desc>
<speed>0.030000</speed>
</trkpt>
<trkpt lat="55.729610" lon="26.243328">
<ele>151.103638</ele>
<time>2010-07-18T08:10:58Z</time>
<desc>lat.=55.729610, lon.=26.243328, Alt.=151.103638m. Speed=0.144000m/h.</desc>
<speed>0.040000</speed>
</trkpt>
<trkpt lat="55.729610" lon="26.243328">
<ele>151.134888</ele>
<time>2010-07-18T08:10:59Z</time>
<desc>lat.=55.729610, lon.=26.243328, Alt.=151.134888m. Speed=0.108000m/h.</desc>
<speed>0.030000</speed>
</trkpt>
<trkpt lat="55.729610" lon="26.243326">
<ele>151.170044</ele>
<time>2010-07-18T08:11:00Z</time>
<desc>lat.=55.729610, lon.=26.243326, Alt.=151.170044m. Speed=0.108000m/h.</desc>
<speed>0.030000</speed>
</trkpt>
<trkpt lat="55.729610" lon="26.243326">
<ele>151.209106</ele>
<time>2010-07-18T08:11:01Z</time>
<desc>lat.=55.729610, lon.=26.243326, Alt.=151.209106m. Speed=0.108000m/h.</desc>
<speed>0.030000</speed>
</trkpt>
<trkpt lat="55.729610" lon="26.243326">
<ele>151.244263</ele>
<time>2010-07-18T08:11:02Z</time>
<desc>lat.=55.729610, lon.=26.243326, Alt.=151.244263m. Speed=0.108000m/h.</desc>
<speed>0.030000</speed>
</trkpt>
<trkpt lat="55.729614" lon="26.243326">
<ele>151.275513</ele>
<time>2010-07-18T08:11:03Z</time>
<desc>lat.=55.729614, lon.=26.243326, Alt.=151.275513m. Speed=0.144000m/h.</desc>
<speed>0.040000</speed>
</trkpt>
<trkpt lat="55.729614" lon="26.243326">
<ele>151.310669</ele>
<time>2010-07-18T08:11:04Z</time>
<desc>lat.=55.729614, lon.=26.243326, Alt.=151.310669m. Speed=0.108000m/h.</desc>
<speed>0.030000</speed>
</trkpt>
<trkpt lat="55.729614" lon="26.243324">
<ele>151.341919</ele>
<time>2010-07-18T08:11:05Z</time>
<desc>lat.=55.729614, lon.=26.243324, Alt.=151.341919m. Speed=0.144000m/h.</desc>
<speed>0.040000</speed>
</trkpt>
<trkpt lat="55.729614" lon="26.243326">
<ele>151.373169</ele>
<time>2010-07-18T08:11:06Z</time>
<desc>lat.=55.729614, lon.=26.243326, Alt.=151.373169m. Speed=0.180000m/h.</desc>
<speed>0.050000</speed>
</trkpt>
<trkpt lat="55.729614" lon="26.243326">
<ele>151.408325</ele>
<time>2010-07-18T08:11:07Z</time>
<desc>lat.=55.729614, lon.=26.243326, Alt.=151.408325m. Speed=0.216000m/h.</desc>
<speed>0.060000</speed>
</trkpt>
<trkpt lat="55.729614" lon="26.243326">
<ele>151.435669</ele>
<time>2010-07-18T08:11:08Z</time>
<desc>lat.=55.729614, lon.=26.243326, Alt.=151.435669m. Speed=0.180000m/h.</desc>
<speed>0.050000</speed>
</trkpt>
<trkpt lat="55.729614" lon="26.243326">
<ele>151.463013</ele>
<time>2010-07-18T08:11:09Z</time>
<desc>lat.=55.729614, lon.=26.243326, Alt.=151.463013m. Speed=0.144000m/h.</desc>
<speed>0.040000</speed>
</trkpt>
<trkpt lat="55.729614" lon="26.243326">
<ele>151.498169</ele>
<time>2010-07-18T08:11:10Z</time>
<desc>lat.=55.729614, lon.=26.243326, Alt.=151.498169m. Speed=0.144000m/h.</desc>
<speed>0.040000</speed>
</trkpt>
<trkpt lat="55.729618" lon="26.243326">
<ele>151.529419</ele>
<time>2010-07-18T08:11:11Z</time>
<desc>lat.=55.729618, lon.=26.243326, Alt.=151.529419m. Speed=0.144000m/h.</desc>
<speed>0.040000</speed>
</trkpt>
<trkpt lat="55.729618" lon="26.243326">
<ele>151.556763</ele>
<time>2010-07-18T08:11:12Z</time>
<desc>lat.=55.729618, lon.=26.243326, Alt.=151.556763m. Speed=0.216000m/h.</desc>
<speed>0.060000</speed>
</trkpt>
<trkpt lat="55.729618" lon="26.243328">
<ele>151.584106</ele>
<time>2010-07-18T08:11:13Z</time>
<desc>lat.=55.729618, lon.=26.243328, Alt.=151.584106m. Speed=0.252000m/h.</desc>
<speed>0.070000</speed>
</trkpt>
<trkpt lat="55.729618" lon="26.243328">
<ele>151.611450</ele>
<time>2010-07-18T08:11:14Z</time>
<desc>lat.=55.729618, lon.=26.243328, Alt.=151.611450m. Speed=0.396000m/h.</desc>
<speed>0.110000</speed>
</trkpt>
<trkpt lat="55.729618" lon="26.243330">
<ele>151.634888</ele>
<time>2010-07-18T08:11:15Z</time>
<desc>lat.=55.729618, lon.=26.243330, Alt.=151.634888m. Speed=0.432000m/h.</desc>
<speed>0.120000</speed>
</trkpt>
<trkpt lat="55.729618" lon="26.243332">
<ele>151.658325</ele>
<time>2010-07-18T08:11:16Z</time>
<desc>lat.=55.729618, lon.=26.243332, Alt.=151.658325m. Speed=0.396000m/h.</desc>
<speed>0.110000</speed>
</trkpt>
<trkpt lat="55.729622" lon="26.243332">
<ele>151.689575</ele>
<time>2010-07-18T08:11:17Z</time>
<desc>lat.=55.729622, lon.=26.243332, Alt.=151.689575m. Speed=0.396000m/h.</desc>
<speed>0.110000</speed>
</trkpt>
<trkpt lat="55.729622" lon="26.243334">
<ele>151.713013</ele>
<time>2010-07-18T08:11:18Z</time>
<desc>lat.=55.729622, lon.=26.243334, Alt.=151.713013m. Speed=0.360000m/h.</desc>
<speed>0.100000</speed>
</trkpt>
<trkpt lat="55.729622" lon="26.243336">
<ele>151.740356</ele>
<time>2010-07-18T08:11:19Z</time>
<desc>lat.=55.729622, lon.=26.243336, Alt.=151.740356m. Speed=0.396000m/h.</desc>
<speed>0.110000</speed>
</trkpt>
<trkpt lat="55.729622" lon="26.243336">
<ele>151.767700</ele>
<time>2010-07-18T08:11:20Z</time>
<desc>lat.=55.729622, lon.=26.243336, Alt.=151.767700m. Speed=0.432000m/h.</desc>
<speed>0.120000</speed>
</trkpt>
<trkpt lat="55.729622" lon="26.243338">
<ele>151.795044</ele>
<time>2010-07-18T08:11:21Z</time>
<desc>lat.=55.729622, lon.=26.243338, Alt.=151.795044m. Speed=0.324000m/h.</desc>
<speed>0.090000</speed>
</trkpt>
<trkpt lat="55.729626" lon="26.243340">
<ele>151.818481</ele>
<time>2010-07-18T08:11:22Z</time>
<desc>lat.=55.729626, lon.=26.243340, Alt.=151.818481m. Speed=0.288000m/h.</desc>
<speed>0.080000</speed>
</trkpt>
<trkpt lat="55.729626" lon="26.243340">
<ele>151.849731</ele>
<time>2010-07-18T08:11:23Z</time>
<desc>lat.=55.729626, lon.=26.243340, Alt.=151.849731m. Speed=0.288000m/h.</desc>
<speed>0.080000</speed>
</trkpt>
<trkpt lat="55.729626" lon="26.243341">
<ele>151.877075</ele>
<time>2010-07-18T08:11:24Z</time>
<desc>lat.=55.729626, lon.=26.243341, Alt.=151.877075m. Speed=0.252000m/h.</desc>
<speed>0.070000</speed>
</trkpt>
<trkpt lat="55.729626" lon="26.243341">
<ele>151.900513</ele>
<time>2010-07-18T08:11:25Z</time>
<desc>lat.=55.729626, lon.=26.243341, Alt.=151.900513m. Speed=0.180000m/h.</desc>
<speed>0.050000</speed>
</trkpt>
<trkpt lat="55.729626" lon="26.243341">
<ele>151.927856</ele>
<time>2010-07-18T08:11:26Z</time>
<desc>lat.=55.729626, lon.=26.243341, Alt.=151.927856m. Speed=0.144000m/h.</desc>
<speed>0.040000</speed>
</trkpt>
<trkpt lat="55.729626" lon="26.243341">
<ele>151.959106</ele>
<time>2010-07-18T08:11:27Z</time>
<desc>lat.=55.729626, lon.=26.243341, Alt.=151.959106m. Speed=0.108000m/h.</desc>
<speed>0.030000</speed>
</trkpt>
<trkpt lat="55.729626" lon="26.243341">
<ele>151.986450</ele>
<time>2010-07-18T08:11:28Z</time>
<desc>lat.=55.729626, lon.=26.243341, Alt.=151.986450m. Speed=0.144000m/h.</desc>
<speed>0.040000</speed>
</trkpt>
<trkpt lat="55.729626" lon="26.243341">
<ele>152.013794</ele>
<time>2010-07-18T08:11:29Z</time>
<desc>lat.=55.729626, lon.=26.243341, Alt.=152.013794m. Speed=0.144000m/h.</desc>
<speed>0.040000</speed>
</trkpt>
<trkpt lat="55.729626" lon="26.243340">
<ele>152.041138</ele>
<time>2010-07-18T08:11:30Z</time>
<desc>lat.=55.729626, lon.=26.243340, Alt.=152.041138m. Speed=0.072000m/h.</desc>
<speed>0.020000</speed>
</trkpt>
<trkpt lat="55.729630" lon="26.243340">
<ele>152.072388</ele>
<time>2010-07-18T08:11:31Z</time>
<desc>lat.=55.729630, lon.=26.243340, Alt.=152.072388m. Speed=0.144000m/h.</desc>
<speed>0.040000</speed>
</trkpt>
<trkpt lat="55.729630" lon="26.243340">
<ele>152.099731</ele>
<time>2010-07-18T08:11:32Z</time>
<desc>lat.=55.729630, lon.=26.243340, Alt.=152.099731m. Speed=0.108000m/h.</desc>
<speed>0.030000</speed>
</trkpt>
<trkpt lat="55.729630" lon="26.243340">
<ele>152.127075</ele>
<time>2010-07-18T08:11:33Z</time>
<desc>lat.=55.729630, lon.=26.243340, Alt.=152.127075m. Speed=0.072000m/h.</desc>
<speed>0.020000</speed>
</trkpt>
<trkpt lat="55.729630" lon="26.243340">
<ele>152.158325</ele>
<time>2010-07-18T08:11:34Z</time>
<desc>lat.=55.729630, lon.=26.243340, Alt.=152.158325m. Speed=0.108000m/h.</desc>
<speed>0.030000</speed>
</trkpt>
<trkpt lat="55.729630" lon="26.243340">
<ele>152.185669</ele>
<time>2010-07-18T08:11:35Z</time>
<desc>lat.=55.729630, lon.=26.243340, Alt.=152.185669m. Speed=0.072000m/h.</desc>
<speed>0.020000</speed>
</trkpt>
<trkpt lat="55.729630" lon="26.243340">
<ele>152.209106</ele>
<time>2010-07-18T08:11:36Z</time>
<desc>lat.=55.729630, lon.=26.243340, Alt.=152.209106m. Speed=0.144000m/h.</desc>
<speed>0.040000</speed>
</trkpt>
<trkpt lat="55.729630" lon="26.243340">
<ele>152.213013</ele>
<time>2010-07-18T08:11:37Z</time>
<desc>lat.=55.729630, lon.=26.243340, Alt.=152.213013m. Speed=0.000000m/h.</desc>
<speed>0.000000</speed>
</trkpt>
<trkpt lat="55.729630" lon="26.243340">
<ele>152.220825</ele>
<time>2010-07-18T08:11:38Z</time>
<desc>lat.=55.729630, lon.=26.243340, Alt.=152.220825m. Speed=0.036000m/h.</desc>
<speed>0.010000</speed>
</trkpt>
<trkpt lat="55.729630" lon="26.243340">
<ele>152.216919</ele>
<time>2010-07-18T08:11:39Z</time>
<desc>lat.=55.729630, lon.=26.243340, Alt.=152.216919m. Speed=0.000000m/h.</desc>
<speed>0.000000</speed>
</trkpt>
<trkpt lat="55.729630" lon="26.243340">
<ele>152.216919</ele>
<time>2010-07-18T08:11:40Z</time>
<desc>lat.=55.729630, lon.=26.243340, Alt.=152.216919m. Speed=0.036000m/h.</desc>
<speed>0.010000</speed>
</trkpt>
<trkpt lat="55.729630" lon="26.243340">
<ele>152.224731</ele>
<time>2010-07-18T08:11:41Z</time>
<desc>lat.=55.729630, lon.=26.243340, Alt.=152.224731m. Speed=0.036000m/h.</desc>
<speed>0.010000</speed>
</trkpt>
<trkpt lat="55.729630" lon="26.243340">
<ele>152.236450</ele>
<time>2010-07-18T08:11:42Z</time>
<desc>lat.=55.729630, lon.=26.243340, Alt.=152.236450m. Speed=0.000000m/h.</desc>
<speed>0.000000</speed>
</trkpt>
<trkpt lat="55.729630" lon="26.243340">
<ele>152.240356</ele>
<time>2010-07-18T08:11:43Z</time>
<desc>lat.=55.729630, lon.=26.243340, Alt.=152.240356m. Speed=0.036000m/h.</desc>
<speed>0.010000</speed>
</trkpt>
<trkpt lat="55.729630" lon="26.243340">
<ele>152.244263</ele>
<time>2010-07-18T08:11:44Z</time>
<desc>lat.=55.729630, lon.=26.243340, Alt.=152.244263m. Speed=0.036000m/h.</desc>
<speed>0.010000</speed>
</trkpt>
<trkpt lat="55.729630" lon="26.243340">
<ele>152.248169</ele>
<time>2010-07-18T08:11:45Z</time>
<desc>lat.=55.729630, lon.=26.243340, Alt.=152.248169m. Speed=0.072000m/h.</desc>
<speed>0.020000</speed>
</trkpt>
<trkpt lat="55.729630" lon="26.243340">
<ele>152.259888</ele>
<time>2010-07-18T08:11:46Z</time>
<desc>lat.=55.729630, lon.=26.243340, Alt.=152.259888m. Speed=0.072000m/h.</desc>
<speed>0.020000</speed>
</trkpt>
<trkpt lat="55.729630" lon="26.243340">
<ele>152.267700</ele>
<time>2010-07-18T08:11:47Z</time>
<desc>lat.=55.729630, lon.=26.243340, Alt.=152.267700m. Speed=0.108000m/h.</desc>
<speed>0.030000</speed>
</trkpt>
<trkpt lat="55.729630" lon="26.243340">
<ele>152.271606</ele>
<time>2010-07-18T08:11:48Z</time>
<desc>lat.=55.729630, lon.=26.243340, Alt.=152.271606m. Speed=0.180000m/h.</desc>
<speed>0.050000</speed>
</trkpt>
<trkpt lat="55.729630" lon="26.243340">
<ele>152.279419</ele>
<time>2010-07-18T08:11:49Z</time>
<desc>lat.=55.729630, lon.=26.243340, Alt.=152.279419m. Speed=0.144000m/h.</desc>
<speed>0.040000</speed>
</trkpt>
<trkpt lat="55.729633" lon="26.243341">
<ele>152.291138</ele>
<time>2010-07-18T08:11:50Z</time>
<desc>lat.=55.729633, lon.=26.243341, Alt.=152.291138m. Speed=0.072000m/h.</desc>
<speed>0.020000</speed>
</trkpt>
<trkpt lat="55.729633" lon="26.243341">
<ele>152.302856</ele>
<time>2010-07-18T08:11:51Z</time>
<desc>lat.=55.729633, lon.=26.243341, Alt.=152.302856m. Speed=0.108000m/h.</desc>
<speed>0.030000</speed>
</trkpt>
<trkpt lat="55.729633" lon="26.243341">
<ele>152.310669</ele>
<time>2010-07-18T08:11:52Z</time>
<desc>lat.=55.729633, lon.=26.243341, Alt.=152.310669m. Speed=0.108000m/h.</desc>
<speed>0.030000</speed>
</trkpt>
<trkpt lat="55.729633" lon="26.243341">
<ele>152.326294</ele>
<time>2010-07-18T08:11:53Z</time>
<desc>lat.=55.729633, lon.=26.243341, Alt.=152.326294m. Speed=0.072000m/h.</desc>
<speed>0.020000</speed>
</trkpt>
<trkpt lat="55.729633" lon="26.243341">
<ele>152.341919</ele>
<time>2010-07-18T08:11:54Z</time>
<desc>lat.=55.729633, lon.=26.243341, Alt.=152.341919m. Speed=0.036000m/h.</desc>
<speed>0.010000</speed>
</trkpt>
<trkpt lat="55.729633" lon="26.243341">
<ele>152.357544</ele>
<time>2010-07-18T08:11:55Z</time>
<desc>lat.=55.729633, lon.=26.243341, Alt.=152.357544m. Speed=0.036000m/h.</desc>
<speed>0.010000</speed>
</trkpt>
<trkpt lat="55.729633" lon="26.243341">
<ele>152.365356</ele>
<time>2010-07-18T08:11:56Z</time>
<desc>lat.=55.729633, lon.=26.243341, Alt.=152.365356m. Speed=0.144000m/h.</desc>
<speed>0.040000</speed>
</trkpt>
<trkpt lat="55.729633" lon="26.243343">
<ele>152.377075</ele>
<time>2010-07-18T08:11:57Z</time>
<desc>lat.=55.729633, lon.=26.243343, Alt.=152.377075m. Speed=0.252000m/h.</desc>
<speed>0.070000</speed>
</trkpt>
<trkpt lat="55.729633" lon="26.243343">
<ele>152.392700</ele>
<time>2010-07-18T08:11:58Z</time>
<desc>lat.=55.729633, lon.=26.243343, Alt.=152.392700m. Speed=0.288000m/h.</desc>
<speed>0.080000</speed>
</trkpt>
<trkpt lat="55.729633" lon="26.243345">
<ele>152.404419</ele>
<time>2010-07-18T08:11:59Z</time>
<desc>lat.=55.729633, lon.=26.243345, Alt.=152.404419m. Speed=0.252000m/h.</desc>
<speed>0.070000</speed>
</trkpt>
<trkpt lat="55.729633" lon="26.243345">
<ele>152.412231</ele>
<time>2010-07-18T08:12:00Z</time>
<desc>lat.=55.729633, lon.=26.243345, Alt.=152.412231m. Speed=0.324000m/h.</desc>
<speed>0.090000</speed>
</trkpt>
<trkpt lat="55.729637" lon="26.243347">
<ele>152.420044</ele>
<time>2010-07-18T08:12:01Z</time>
<desc>lat.=55.729637, lon.=26.243347, Alt.=152.420044m. Speed=0.360000m/h.</desc>
<speed>0.100000</speed>
</trkpt>
<trkpt lat="55.729637" lon="26.243349">
<ele>152.427856</ele>
<time>2010-07-18T08:12:02Z</time>
<desc>lat.=55.729637, lon.=26.243349, Alt.=152.427856m. Speed=0.360000m/h.</desc>
<speed>0.100000</speed>
</trkpt>
<trkpt lat="55.729637" lon="26.243349">
<ele>152.439575</ele>
<time>2010-07-18T08:12:03Z</time>
<desc>lat.=55.729637, lon.=26.243349, Alt.=152.439575m. Speed=0.288000m/h.</desc>
<speed>0.080000</speed>
</trkpt>
<trkpt lat="55.729637" lon="26.243351">
<ele>152.447388</ele>
<time>2010-07-18T08:12:04Z</time>
<desc>lat.=55.729637, lon.=26.243351, Alt.=152.447388m. Speed=0.324000m/h.</desc>
<speed>0.090000</speed>
</trkpt>
<trkpt lat="55.729637" lon="26.243353">
<ele>152.455200</ele>
<time>2010-07-18T08:12:05Z</time>
<desc>lat.=55.729637, lon.=26.243353, Alt.=152.455200m. Speed=0.252000m/h.</desc>
<speed>0.070000</speed>
</trkpt>
<trkpt lat="55.729637" lon="26.243353">
<ele>152.466919</ele>
<time>2010-07-18T08:12:06Z</time>
<desc>lat.=55.729637, lon.=26.243353, Alt.=152.466919m. Speed=0.216000m/h.</desc>
<speed>0.060000</speed>
</trkpt>
<trkpt lat="55.729637" lon="26.243355">
<ele>152.478638</ele>
<time>2010-07-18T08:12:07Z</time>
<desc>lat.=55.729637, lon.=26.243355, Alt.=152.478638m. Speed=0.216000m/h.</desc>
<speed>0.060000</speed>
</trkpt>
<trkpt lat="55.729637" lon="26.243355">
<ele>152.486450</ele>
<time>2010-07-18T08:12:08Z</time>
<desc>lat.=55.729637, lon.=26.243355, Alt.=152.486450m. Speed=0.180000m/h.</desc>
<speed>0.050000</speed>
</trkpt>
<trkpt lat="55.729641" lon="26.243355">
<ele>152.494263</ele>
<time>2010-07-18T08:12:09Z</time>
<desc>lat.=55.729641, lon.=26.243355, Alt.=152.494263m. Speed=0.144000m/h.</desc>
<speed>0.040000</speed>
</trkpt>
<trkpt lat="55.729641" lon="26.243355">
<ele>152.502075</ele>
<time>2010-07-18T08:12:10Z</time>
<desc>lat.=55.729641, lon.=26.243355, Alt.=152.502075m. Speed=0.108000m/h.</desc>
<speed>0.030000</speed>
</trkpt>
<trkpt lat="55.729641" lon="26.243357">
<ele>152.513794</ele>
<time>2010-07-18T08:12:11Z</time>
<desc>lat.=55.729641, lon.=26.243357, Alt.=152.513794m. Speed=0.108000m/h.</desc>
<speed>0.030000</speed>
</trkpt>
<trkpt lat="55.729641" lon="26.243357">
<ele>152.525513</ele>
<time>2010-07-18T08:12:12Z</time>
<desc>lat.=55.729641, lon.=26.243357, Alt.=152.525513m. Speed=0.108000m/h.</desc>
<speed>0.030000</speed>
</trkpt>
<trkpt lat="55.729641" lon="26.243357">
<ele>152.533325</ele>
<time>2010-07-18T08:12:13Z</time>
<desc>lat.=55.729641, lon.=26.243357, Alt.=152.533325m. Speed=0.216000m/h.</desc>
<speed>0.060000</speed>
</trkpt>
<trkpt lat="55.729641" lon="26.243357">
<ele>152.541138</ele>
<time>2010-07-18T08:12:14Z</time>
<desc>lat.=55.729641, lon.=26.243357, Alt.=152.541138m. Speed=0.216000m/h.</desc>
<speed>0.060000</speed>
</trkpt>
<trkpt lat="55.729641" lon="26.243359">
<ele>152.548950</ele>
<time>2010-07-18T08:12:15Z</time>
<desc>lat.=55.729641, lon.=26.243359, Alt.=152.548950m. Speed=0.144000m/h.</desc>
<speed>0.040000</speed>
</trkpt>
<trkpt lat="55.729641" lon="26.243359">
<ele>152.564575</ele>
<time>2010-07-18T08:12:16Z</time>
<desc>lat.=55.729641, lon.=26.243359, Alt.=152.564575m. Speed=0.144000m/h.</desc>
<speed>0.040000</speed>
</trkpt>
<trkpt lat="55.729641" lon="26.243359">
<ele>152.580200</ele>
<time>2010-07-18T08:12:17Z</time>
<desc>lat.=55.729641, lon.=26.243359, Alt.=152.580200m. Speed=0.144000m/h.</desc>
<speed>0.040000</speed>
</trkpt>
<trkpt lat="55.729641" lon="26.243359">
<ele>152.599731</ele>
<time>2010-07-18T08:12:18Z</time>
<desc>lat.=55.729641, lon.=26.243359, Alt.=152.599731m. Speed=0.144000m/h.</desc>
<speed>0.040000</speed>
</trkpt>
<trkpt lat="55.729641" lon="26.243359">
<ele>152.615356</ele>
<time>2010-07-18T08:12:19Z</time>
<desc>lat.=55.729641, lon.=26.243359, Alt.=152.615356m. Speed=0.108000m/h.</desc>
<speed>0.030000</speed>
</trkpt>
<trkpt lat="55.729641" lon="26.243361">
<ele>152.627075</ele>
<time>2010-07-18T08:12:20Z</time>
<desc>lat.=55.729641, lon.=26.243361, Alt.=152.627075m. Speed=0.108000m/h.</desc>
<speed>0.030000</speed>
</trkpt>
<trkpt lat="55.729645" lon="26.243361">
<ele>152.650513</ele>
<time>2010-07-18T08:12:21Z</time>
<desc>lat.=55.729645, lon.=26.243361, Alt.=152.650513m. Speed=0.072000m/h.</desc>
<speed>0.020000</speed>
</trkpt>
<trkpt lat="55.729645" lon="26.243359">
<ele>152.677856</ele>
<time>2010-07-18T08:12:22Z</time>
<desc>lat.=55.729645, lon.=26.243359, Alt.=152.677856m. Speed=0.036000m/h.</desc>
<speed>0.010000</speed>
</trkpt>
<trkpt lat="55.729645" lon="26.243359">
<ele>152.693481</ele>
<time>2010-07-18T08:12:23Z</time>
<desc>lat.=55.729645, lon.=26.243359, Alt.=152.693481m. Speed=0.108000m/h.</desc>
<speed>0.030000</speed>
</trkpt>
<trkpt lat="55.729645" lon="26.243359">
<ele>152.705200</ele>
<time>2010-07-18T08:12:24Z</time>
<desc>lat.=55.729645, lon.=26.243359, Alt.=152.705200m. Speed=0.180000m/h.</desc>
<speed>0.050000</speed>
</trkpt>
<trkpt lat="55.729645" lon="26.243357">
<ele>152.724731</ele>
<time>2010-07-18T08:12:25Z</time>
<desc>lat.=55.729645, lon.=26.243357, Alt.=152.724731m. Speed=0.252000m/h.</desc>
<speed>0.070000</speed>
</trkpt>
<trkpt lat="55.729645" lon="26.243355">
<ele>152.748169</ele>
<time>2010-07-18T08:12:26Z</time>
<desc>lat.=55.729645, lon.=26.243355, Alt.=152.748169m. Speed=0.216000m/h.</desc>
<speed>0.060000</speed>
</trkpt>
<trkpt lat="55.729645" lon="26.243355">
<ele>152.771606</ele>
<time>2010-07-18T08:12:27Z</time>
<desc>lat.=55.729645, lon.=26.243355, Alt.=152.771606m. Speed=0.324000m/h.</desc>
<speed>0.090000</speed>
</trkpt>
<trkpt lat="55.729641" lon="26.243353">
<ele>152.795044</ele>
<time>2010-07-18T08:12:28Z</time>
<desc>lat.=55.729641, lon.=26.243353, Alt.=152.795044m. Speed=0.396000m/h.</desc>
<speed>0.110000</speed>
</trkpt>
<trkpt lat="55.729641" lon="26.243351">
<ele>152.810669</ele>
<time>2010-07-18T08:12:29Z</time>
<desc>lat.=55.729641, lon.=26.243351, Alt.=152.810669m. Speed=0.432000m/h.</desc>
<speed>0.120000</speed>
</trkpt>
<trkpt lat="55.729641" lon="26.243349">
<ele>152.830200</ele>
<time>2010-07-18T08:12:30Z</time>
<desc>lat.=55.729641, lon.=26.243349, Alt.=152.830200m. Speed=0.576000m/h.</desc>
<speed>0.160000</speed>
</trkpt>
<trkpt lat="55.729641" lon="26.243345">
<ele>152.853638</ele>
<time>2010-07-18T08:12:31Z</time>
<desc>lat.=55.729641, lon.=26.243345, Alt.=152.853638m. Speed=0.648000m/h.</desc>
<speed>0.180000</speed>
</trkpt>
<trkpt lat="55.729641" lon="26.243343">
<ele>152.880981</ele>
<time>2010-07-18T08:12:32Z</time>
<desc>lat.=55.729641, lon.=26.243343, Alt.=152.880981m. Speed=0.648000m/h.</desc>
<speed>0.180000</speed>
</trkpt>
<trkpt lat="55.729641" lon="26.243340">
<ele>152.912231</ele>
<time>2010-07-18T08:12:33Z</time>
<desc>lat.=55.729641, lon.=26.243340, Alt.=152.912231m. Speed=0.576000m/h.</desc>
<speed>0.160000</speed>
</trkpt>
<trkpt lat="55.729641" lon="26.243338">
<ele>152.935669</ele>
<time>2010-07-18T08:12:34Z</time>
<desc>lat.=55.729641, lon.=26.243338, Alt.=152.935669m. Speed=0.468000m/h.</desc>
<speed>0.130000</speed>
</trkpt>
<trkpt lat="55.729641" lon="26.243336">
<ele>152.959106</ele>
<time>2010-07-18T08:12:35Z</time>
<desc>lat.=55.729641, lon.=26.243336, Alt.=152.959106m. Speed=0.432000m/h.</desc>
<speed>0.120000</speed>
</trkpt>
<trkpt lat="55.729641" lon="26.243334">
<ele>152.982544</ele>
<time>2010-07-18T08:12:36Z</time>
<desc>lat.=55.729641, lon.=26.243334, Alt.=152.982544m. Speed=0.432000m/h.</desc>
<speed>0.120000</speed>
</trkpt>
<trkpt lat="55.729641" lon="26.243332">
<ele>153.013794</ele>
<time>2010-07-18T08:12:37Z</time>
<desc>lat.=55.729641, lon.=26.243332, Alt.=153.013794m. Speed=0.396000m/h.</desc>
<speed>0.110000</speed>
</trkpt>
<trkpt lat="55.729641" lon="26.243330">
<ele>153.041138</ele>
<time>2010-07-18T08:12:38Z</time>
<desc>lat.=55.729641, lon.=26.243330, Alt.=153.041138m. Speed=0.324000m/h.</desc>
<speed>0.090000</speed>
</trkpt>
<trkpt lat="55.729641" lon="26.243328">
<ele>153.072388</ele>
<time>2010-07-18T08:12:39Z</time>
<desc>lat.=55.729641, lon.=26.243328, Alt.=153.072388m. Speed=0.324000m/h.</desc>
<speed>0.090000</speed>
</trkpt>
<trkpt lat="55.729641" lon="26.243326">
<ele>153.099731</ele>
<time>2010-07-18T08:12:40Z</time>
<desc>lat.=55.729641, lon.=26.243326, Alt.=153.099731m. Speed=0.252000m/h.</desc>
<speed>0.070000</speed>
</trkpt>
<trkpt lat="55.729641" lon="26.243324">
<ele>153.127075</ele>
<time>2010-07-18T08:12:41Z</time>
<desc>lat.=55.729641, lon.=26.243324, Alt.=153.127075m. Speed=0.216000m/h.</desc>
<speed>0.060000</speed>
</trkpt>
<trkpt lat="55.729641" lon="26.243324">
<ele>153.150513</ele>
<time>2010-07-18T08:12:42Z</time>
<desc>lat.=55.729641, lon.=26.243324, Alt.=153.150513m. Speed=0.180000m/h.</desc>
<speed>0.050000</speed>
</trkpt>
<trkpt lat="55.729641" lon="26.243324">
<ele>153.173950</ele>
<time>2010-07-18T08:12:43Z</time>
<desc>lat.=55.729641, lon.=26.243324, Alt.=153.173950m. Speed=0.144000m/h.</desc>
<speed>0.040000</speed>
</trkpt>
<trkpt lat="55.729641" lon="26.243322">
<ele>153.201294</ele>
<time>2010-07-18T08:12:44Z</time>
<desc>lat.=55.729641, lon.=26.243322, Alt.=153.201294m. Speed=0.180000m/h.</desc>
<speed>0.050000</speed>
</trkpt>
<trkpt lat="55.729641" lon="26.243322">
<ele>153.228638</ele>
<time>2010-07-18T08:12:45Z</time>
<desc>lat.=55.729641, lon.=26.243322, Alt.=153.228638m. Speed=0.180000m/h.</desc>
<speed>0.050000</speed>
</trkpt>
<trkpt lat="55.729641" lon="26.243320">
<ele>153.255981</ele>
<time>2010-07-18T08:12:46Z</time>
<desc>lat.=55.729641, lon.=26.243320, Alt.=153.255981m. Speed=0.108000m/h.</desc>
<speed>0.030000</speed>
</trkpt>
<trkpt lat="55.729641" lon="26.243320">
<ele>153.279419</ele>
<time>2010-07-18T08:12:47Z</time>
<desc>lat.=55.729641, lon.=26.243320, Alt.=153.279419m. Speed=0.144000m/h.</desc>
<speed>0.040000</speed>
</trkpt>
<trkpt lat="55.729641" lon="26.243320">
<ele>153.298950</ele>
<time>2010-07-18T08:12:48Z</time>
<desc>lat.=55.729641, lon.=26.243320, Alt.=153.298950m. Speed=0.072000m/h.</desc>
<speed>0.020000</speed>
</trkpt>
<trkpt lat="55.729641" lon="26.243319">
<ele>153.322388</ele>
<time>2010-07-18T08:12:49Z</time>
<desc>lat.=55.729641, lon.=26.243319, Alt.=153.322388m. Speed=0.108000m/h.</desc>
<speed>0.030000</speed>
</trkpt>
<trkpt lat="55.729641" lon="26.243319">
<ele>153.345825</ele>
<time>2010-07-18T08:12:50Z</time>
<desc>lat.=55.729641, lon.=26.243319, Alt.=153.345825m. Speed=0.072000m/h.</desc>
<speed>0.020000</speed>
</trkpt>
<trkpt lat="55.729641" lon="26.243319">
<ele>153.369263</ele>
<time>2010-07-18T08:12:51Z</time>
<desc>lat.=55.729641, lon.=26.243319, Alt.=153.369263m. Speed=0.144000m/h.</desc>
<speed>0.040000</speed>
</trkpt>
<trkpt lat="55.729641" lon="26.243320">
<ele>153.392700</ele>
<time>2010-07-18T08:12:52Z</time>
<desc>lat.=55.729641, lon.=26.243320, Alt.=153.392700m. Speed=0.144000m/h.</desc>
<speed>0.040000</speed>
</trkpt>
<trkpt lat="55.729641" lon="26.243320">
<ele>153.412231</ele>
<time>2010-07-18T08:12:53Z</time>
<desc>lat.=55.729641, lon.=26.243320, Alt.=153.412231m. Speed=0.144000m/h.</desc>
<speed>0.040000</speed>
</trkpt>
<trkpt lat="55.729641" lon="26.243320">
<ele>153.427856</ele>
<time>2010-07-18T08:12:54Z</time>
<desc>lat.=55.729641, lon.=26.243320, Alt.=153.427856m. Speed=0.216000m/h.</desc>
<speed>0.060000</speed>
</trkpt>
<trkpt lat="55.729641" lon="26.243322">
<ele>153.443481</ele>
<time>2010-07-18T08:12:55Z</time>
<desc>lat.=55.729641, lon.=26.243322, Alt.=153.443481m. Speed=0.252000m/h.</desc>
<speed>0.070000</speed>
</trkpt>
<trkpt lat="55.729641" lon="26.243322">
<ele>153.455200</ele>
<time>2010-07-18T08:12:56Z</time>
<desc>lat.=55.729641, lon.=26.243322, Alt.=153.455200m. Speed=0.360000m/h.</desc>
<speed>0.100000</speed>
</trkpt>
<trkpt lat="55.729641" lon="26.243324">
<ele>153.470825</ele>
<time>2010-07-18T08:12:57Z</time>
<desc>lat.=55.729641, lon.=26.243324, Alt.=153.470825m. Speed=0.396000m/h.</desc>
<speed>0.110000</speed>
</trkpt>
<trkpt lat="55.729645" lon="26.243326">
<ele>153.486450</ele>
<time>2010-07-18T08:12:58Z</time>
<desc>lat.=55.729645, lon.=26.243326, Alt.=153.486450m. Speed=0.324000m/h.</desc>
<speed>0.090000</speed>
</trkpt>
<trkpt lat="55.729645" lon="26.243326">
<ele>153.498169</ele>
<time>2010-07-18T08:12:59Z</time>
<desc>lat.=55.729645, lon.=26.243326, Alt.=153.498169m. Speed=0.288000m/h.</desc>
<speed>0.080000</speed>
</trkpt>
<trkpt lat="55.729645" lon="26.243328">
<ele>153.513794</ele>
<time>2010-07-18T08:13:00Z</time>
<desc>lat.=55.729645, lon.=26.243328, Alt.=153.513794m. Speed=0.324000m/h.</desc>
<speed>0.090000</speed>
</trkpt>
<trkpt lat="55.729645" lon="26.243328">
<ele>153.529419</ele>
<time>2010-07-18T08:13:01Z</time>
<desc>lat.=55.729645, lon.=26.243328, Alt.=153.529419m. Speed=0.288000m/h.</desc>
<speed>0.080000</speed>
</trkpt>
<trkpt lat="55.729645" lon="26.243330">
<ele>153.537231</ele>
<time>2010-07-18T08:13:02Z</time>
<desc>lat.=55.729645, lon.=26.243330, Alt.=153.537231m. Speed=0.216000m/h.</desc>
<speed>0.060000</speed>
</trkpt>
<trkpt lat="55.729645" lon="26.243330">
<ele>153.548950</ele>
<time>2010-07-18T08:13:03Z</time>
<desc>lat.=55.729645, lon.=26.243330, Alt.=153.548950m. Speed=0.324000m/h.</desc>
<speed>0.090000</speed>
</trkpt>
<trkpt lat="55.729645" lon="26.243332">
<ele>153.560669</ele>
<time>2010-07-18T08:13:04Z</time>
<desc>lat.=55.729645, lon.=26.243332, Alt.=153.560669m. Speed=0.252000m/h.</desc>
<speed>0.070000</speed>
</trkpt>
<trkpt lat="55.729649" lon="26.243332">
<ele>153.568481</ele>
<time>2010-07-18T08:13:05Z</time>
<desc>lat.=55.729649, lon.=26.243332, Alt.=153.568481m. Speed=0.288000m/h.</desc>
<speed>0.080000</speed>
</trkpt>
<trkpt lat="55.729649" lon="26.243334">
<ele>153.580200</ele>
<time>2010-07-18T08:13:06Z</time>
<desc>lat.=55.729649, lon.=26.243334, Alt.=153.580200m. Speed=0.396000m/h.</desc>
<speed>0.110000</speed>
</trkpt>
<trkpt lat="55.729649" lon="26.243336">
<ele>153.588013</ele>
<time>2010-07-18T08:13:07Z</time>
<desc>lat.=55.729649, lon.=26.243336, Alt.=153.588013m. Speed=0.396000m/h.</desc>
<speed>0.110000</speed>
</trkpt>
<trkpt lat="55.729649" lon="26.243336">
<ele>153.591919</ele>
<time>2010-07-18T08:13:08Z</time>
<desc>lat.=55.729649, lon.=26.243336, Alt.=153.591919m. Speed=0.324000m/h.</desc>
<speed>0.090000</speed>
</trkpt>
<trkpt lat="55.729649" lon="26.243338">
<ele>153.599731</ele>
<time>2010-07-18T08:13:09Z</time>
<desc>lat.=55.729649, lon.=26.243338, Alt.=153.599731m. Speed=0.288000m/h.</desc>
<speed>0.080000</speed>
</trkpt>
<trkpt lat="55.729649" lon="26.243340">
<ele>153.599731</ele>
<time>2010-07-18T08:13:10Z</time>
<desc>lat.=55.729649, lon.=26.243340, Alt.=153.599731m. Speed=0.252000m/h.</desc>
<speed>0.070000</speed>
</trkpt>
<trkpt lat="55.729649" lon="26.243340">
<ele>153.603638</ele>
<time>2010-07-18T08:13:11Z</time>
<desc>lat.=55.729649, lon.=26.243340, Alt.=153.603638m. Speed=0.216000m/h.</desc>
<speed>0.060000</speed>
</trkpt>
<trkpt lat="55.729649" lon="26.243341">
<ele>153.607544</ele>
<time>2010-07-18T08:13:12Z</time>
<desc>lat.=55.729649, lon.=26.243341, Alt.=153.607544m. Speed=0.144000m/h.</desc>
<speed>0.040000</speed>
</trkpt>
<trkpt lat="55.729649" lon="26.243341">
<ele>153.615356</ele>
<time>2010-07-18T08:13:13Z</time>
<desc>lat.=55.729649, lon.=26.243341, Alt.=153.615356m. Speed=0.036000m/h.</desc>
<speed>0.010000</speed>
</trkpt>
<trkpt lat="55.729649" lon="26.243341">
<ele>153.619263</ele>
<time>2010-07-18T08:13:14Z</time>
<desc>lat.=55.729649, lon.=26.243341, Alt.=153.619263m. Speed=0.072000m/h.</desc>
<speed>0.020000</speed>
</trkpt>
<trkpt lat="55.729649" lon="26.243340">
<ele>153.627075</ele>
<time>2010-07-18T08:13:15Z</time>
<desc>lat.=55.729649, lon.=26.243340, Alt.=153.627075m. Speed=0.180000m/h.</desc>
<speed>0.050000</speed>
</trkpt>
<trkpt lat="55.729649" lon="26.243340">
<ele>153.634888</ele>
<time>2010-07-18T08:13:16Z</time>
<desc>lat.=55.729649, lon.=26.243340, Alt.=153.634888m. Speed=0.252000m/h.</desc>
<speed>0.070000</speed>
</trkpt>
<trkpt lat="55.729649" lon="26.243338">
<ele>153.646606</ele>
<time>2010-07-18T08:13:17Z</time>
<desc>lat.=55.729649, lon.=26.243338, Alt.=153.646606m. Speed=0.396000m/h.</desc>
<speed>0.110000</speed>
</trkpt>
<trkpt lat="55.729649" lon="26.243336">
<ele>153.654419</ele>
<time>2010-07-18T08:13:18Z</time>
<desc>lat.=55.729649, lon.=26.243336, Alt.=153.654419m. Speed=0.396000m/h.</desc>
<speed>0.110000</speed>
</trkpt>
<trkpt lat="55.729649" lon="26.243334">
<ele>153.658325</ele>
<time>2010-07-18T08:13:19Z</time>
<desc>lat.=55.729649, lon.=26.243334, Alt.=153.658325m. Speed=0.360000m/h.</desc>
<speed>0.100000</speed>
</trkpt>
<trkpt lat="55.729649" lon="26.243332">
<ele>153.662231</ele>
<time>2010-07-18T08:13:20Z</time>
<desc>lat.=55.729649, lon.=26.243332, Alt.=153.662231m. Speed=0.360000m/h.</desc>
<speed>0.100000</speed>
</trkpt>
<trkpt lat="55.729649" lon="26.243332">
<ele>153.662231</ele>
<time>2010-07-18T08:13:21Z</time>
<desc>lat.=55.729649, lon.=26.243332, Alt.=153.662231m. Speed=0.288000m/h.</desc>
<speed>0.080000</speed>
</trkpt>
<trkpt lat="55.729649" lon="26.243330">
<ele>153.666138</ele>
<time>2010-07-18T08:13:22Z</time>
<desc>lat.=55.729649, lon.=26.243330, Alt.=153.666138m. Speed=0.252000m/h.</desc>
<speed>0.070000</speed>
</trkpt>
<trkpt lat="55.729649" lon="26.243328">
<ele>153.666138</ele>
<time>2010-07-18T08:13:23Z</time>
<desc>lat.=55.729649, lon.=26.243328, Alt.=153.666138m. Speed=0.180000m/h.</desc>
<speed>0.050000</speed>
</trkpt>
<trkpt lat="55.729649" lon="26.243328">
<ele>153.666138</ele>
<time>2010-07-18T08:13:24Z</time>
<desc>lat.=55.729649, lon.=26.243328, Alt.=153.666138m. Speed=0.144000m/h.</desc>
<speed>0.040000</speed>
</trkpt>
<trkpt lat="55.729649" lon="26.243328">
<ele>153.670044</ele>
<time>2010-07-18T08:13:25Z</time>
<desc>lat.=55.729649, lon.=26.243328, Alt.=153.670044m. Speed=0.108000m/h.</desc>
<speed>0.030000</speed>
</trkpt>
<trkpt lat="55.729649" lon="26.243326">
<ele>153.673950</ele>
<time>2010-07-18T08:13:26Z</time>
<desc>lat.=55.729649, lon.=26.243326, Alt.=153.673950m. Speed=0.000000m/h.</desc>
<speed>0.000000</speed>
</trkpt>
<trkpt lat="55.729649" lon="26.243326">
<ele>153.677856</ele>
<time>2010-07-18T08:13:27Z</time>
<desc>lat.=55.729649, lon.=26.243326, Alt.=153.677856m. Speed=0.036000m/h.</desc>
<speed>0.010000</speed>
</trkpt>
<trkpt lat="55.729649" lon="26.243326">
<ele>153.681763</ele>
<time>2010-07-18T08:13:28Z</time>
<desc>lat.=55.729649, lon.=26.243326, Alt.=153.681763m. Speed=0.036000m/h.</desc>
<speed>0.010000</speed>
</trkpt>
<trkpt lat="55.729649" lon="26.243326">
<ele>153.685669</ele>
<time>2010-07-18T08:13:29Z</time>
<desc>lat.=55.729649, lon.=26.243326, Alt.=153.685669m. Speed=0.108000m/h.</desc>
<speed>0.030000</speed>
</trkpt>
<trkpt lat="55.729649" lon="26.243328">
<ele>153.689575</ele>
<time>2010-07-18T08:13:30Z</time>
<desc>lat.=55.729649, lon.=26.243328, Alt.=153.689575m. Speed=0.108000m/h.</desc>
<speed>0.030000</speed>
</trkpt>
<trkpt lat="55.729649" lon="26.243328">
<ele>153.693481</ele>
<time>2010-07-18T08:13:31Z</time>
<desc>lat.=55.729649, lon.=26.243328, Alt.=153.693481m. Speed=0.108000m/h.</desc>
<speed>0.030000</speed>
</trkpt>
<trkpt lat="55.729649" lon="26.243328">
<ele>153.697388</ele>
<time>2010-07-18T08:13:32Z</time>
<desc>lat.=55.729649, lon.=26.243328, Alt.=153.697388m. Speed=0.180000m/h.</desc>
<speed>0.050000</speed>
</trkpt>
<trkpt lat="55.729649" lon="26.243330">
<ele>153.693481</ele>
<time>2010-07-18T08:13:33Z</time>
<desc>lat.=55.729649, lon.=26.243330, Alt.=153.693481m. Speed=0.216000m/h.</desc>
<speed>0.060000</speed>
</trkpt>
<trkpt lat="55.729649" lon="26.243330">
<ele>153.689575</ele>
<time>2010-07-18T08:13:34Z</time>
<desc>lat.=55.729649, lon.=26.243330, Alt.=153.689575m. Speed=0.108000m/h.</desc>
<speed>0.030000</speed>
</trkpt>
<trkpt lat="55.729649" lon="26.243330">
<ele>153.689575</ele>
<time>2010-07-18T08:13:35Z</time>
<desc>lat.=55.729649, lon.=26.243330, Alt.=153.689575m. Speed=0.108000m/h.</desc>
<speed>0.030000</speed>
</trkpt>
<trkpt lat="55.729649" lon="26.243330">
<ele>153.689575</ele>
<time>2010-07-18T08:13:36Z</time>
<desc>lat.=55.729649, lon.=26.243330, Alt.=153.689575m. Speed=0.180000m/h.</desc>
<speed>0.050000</speed>
</trkpt>
<trkpt lat="55.729649" lon="26.243332">
<ele>153.693481</ele>
<time>2010-07-18T08:13:37Z</time>
<desc>lat.=55.729649, lon.=26.243332, Alt.=153.693481m. Speed=0.216000m/h.</desc>
<speed>0.060000</speed>
</trkpt>
<trkpt lat="55.729649" lon="26.243332">
<ele>153.701294</ele>
<time>2010-07-18T08:13:38Z</time>
<desc>lat.=55.729649, lon.=26.243332, Alt.=153.701294m. Speed=0.180000m/h.</desc>
<speed>0.050000</speed>
</trkpt>
<trkpt lat="55.729649" lon="26.243334">
<ele>153.705200</ele>
<time>2010-07-18T08:13:39Z</time>
<desc>lat.=55.729649, lon.=26.243334, Alt.=153.705200m. Speed=0.144000m/h.</desc>
<speed>0.040000</speed>
</trkpt>
<trkpt lat="55.729649" lon="26.243334">
<ele>153.716919</ele>
<time>2010-07-18T08:13:40Z</time>
<desc>lat.=55.729649, lon.=26.243334, Alt.=153.716919m. Speed=0.108000m/h.</desc>
<speed>0.030000</speed>
</trkpt>
<trkpt lat="55.729649" lon="26.243334">
<ele>153.728638</ele>
<time>2010-07-18T08:13:41Z</time>
<desc>lat.=55.729649, lon.=26.243334, Alt.=153.728638m. Speed=0.108000m/h.</desc>
<speed>0.030000</speed>
</trkpt>
<trkpt lat="55.729652" lon="26.243334">
<ele>153.744263</ele>
<time>2010-07-18T08:13:42Z</time>
<desc>lat.=55.729652, lon.=26.243334, Alt.=153.744263m. Speed=0.036000m/h.</desc>
<speed>0.010000</speed>
</trkpt>
<trkpt lat="55.729652" lon="26.243334">
<ele>153.759888</ele>
<time>2010-07-18T08:13:43Z</time>
<desc>lat.=55.729652, lon.=26.243334, Alt.=153.759888m. Speed=0.036000m/h.</desc>
<speed>0.010000</speed>
</trkpt>
<trkpt lat="55.729652" lon="26.243334">
<ele>153.783325</ele>
<time>2010-07-18T08:13:44Z</time>
<desc>lat.=55.729652, lon.=26.243334, Alt.=153.783325m. Speed=0.072000m/h.</desc>
<speed>0.020000</speed>
</trkpt>
<trkpt lat="55.729652" lon="26.243334">
<ele>153.798950</ele>
<time>2010-07-18T08:13:45Z</time>
<desc>lat.=55.729652, lon.=26.243334, Alt.=153.798950m. Speed=0.108000m/h.</desc>
<speed>0.030000</speed>
</trkpt>
<trkpt lat="55.729652" lon="26.243334">
<ele>153.814575</ele>
<time>2010-07-18T08:13:46Z</time>
<desc>lat.=55.729652, lon.=26.243334, Alt.=153.814575m. Speed=0.000000m/h.</desc>
<speed>0.000000</speed>
</trkpt>
<trkpt lat="55.729652" lon="26.243334">
<ele>153.834106</ele>
<time>2010-07-18T08:13:47Z</time>
<desc>lat.=55.729652, lon.=26.243334, Alt.=153.834106m. Speed=0.036000m/h.</desc>
<speed>0.010000</speed>
</trkpt>
<trkpt lat="55.729652" lon="26.243334">
<ele>153.849731</ele>
<time>2010-07-18T08:13:48Z</time>
<desc>lat.=55.729652, lon.=26.243334, Alt.=153.849731m. Speed=0.036000m/h.</desc>
<speed>0.010000</speed>
</trkpt>
<trkpt lat="55.729652" lon="26.243334">
<ele>153.865356</ele>
<time>2010-07-18T08:13:49Z</time>
<desc>lat.=55.729652, lon.=26.243334, Alt.=153.865356m. Speed=0.036000m/h.</desc>
<speed>0.010000</speed>
</trkpt>
<trkpt lat="55.729652" lon="26.243334">
<ele>153.877075</ele>
<time>2010-07-18T08:13:50Z</time>
<desc>lat.=55.729652, lon.=26.243334, Alt.=153.877075m. Speed=0.036000m/h.</desc>
<speed>0.010000</speed>
</trkpt>
<trkpt lat="55.729652" lon="26.243334">
<ele>153.896606</ele>
<time>2010-07-18T08:13:51Z</time>
<desc>lat.=55.729652, lon.=26.243334, Alt.=153.896606m. Speed=0.072000m/h.</desc>
<speed>0.020000</speed>
</trkpt>
<trkpt lat="55.729652" lon="26.243334">
<ele>153.912231</ele>
<time>2010-07-18T08:13:52Z</time>
<desc>lat.=55.729652, lon.=26.243334, Alt.=153.912231m. Speed=0.144000m/h.</desc>
<speed>0.040000</speed>
</trkpt>
<trkpt lat="55.729652" lon="26.243336">
<ele>153.927856</ele>
<time>2010-07-18T08:13:53Z</time>
<desc>lat.=55.729652, lon.=26.243336, Alt.=153.927856m. Speed=0.108000m/h.</desc>
<speed>0.030000</speed>
</trkpt>
<trkpt lat="55.729652" lon="26.243336">
<ele>153.935669</ele>
<time>2010-07-18T08:13:54Z</time>
<desc>lat.=55.729652, lon.=26.243336, Alt.=153.935669m. Speed=0.108000m/h.</desc>
<speed>0.030000</speed>
</trkpt>
<trkpt lat="55.729652" lon="26.243336">
<ele>153.951294</ele>
<time>2010-07-18T08:13:55Z</time>
<desc>lat.=55.729652, lon.=26.243336, Alt.=153.951294m. Speed=0.108000m/h.</desc>
<speed>0.030000</speed>
</trkpt>
<trkpt lat="55.729652" lon="26.243336">
<ele>153.966919</ele>
<time>2010-07-18T08:13:56Z</time>
<desc>lat.=55.729652, lon.=26.243336, Alt.=153.966919m. Speed=0.072000m/h.</desc>
<speed>0.020000</speed>
</trkpt>
<trkpt lat="55.729656" lon="26.243336">
<ele>153.982544</ele>
<time>2010-07-18T08:13:57Z</time>
<desc>lat.=55.729656, lon.=26.243336, Alt.=153.982544m. Speed=0.144000m/h.</desc>
<speed>0.040000</speed>
</trkpt>
<trkpt lat="55.729656" lon="26.243336">
<ele>153.998169</ele>
<time>2010-07-18T08:13:58Z</time>
<desc>lat.=55.729656, lon.=26.243336, Alt.=153.998169m. Speed=0.072000m/h.</desc>
<speed>0.020000</speed>
</trkpt>
<trkpt lat="55.729656" lon="26.243336">
<ele>154.013794</ele>
<time>2010-07-18T08:13:59Z</time>
<desc>lat.=55.729656, lon.=26.243336, Alt.=154.013794m. Speed=0.072000m/h.</desc>
<speed>0.020000</speed>
</trkpt>
<trkpt lat="55.729656" lon="26.243336">
<ele>154.029419</ele>
<time>2010-07-18T08:14:00Z</time>
<desc>lat.=55.729656, lon.=26.243336, Alt.=154.029419m. Speed=0.072000m/h.</desc>
<speed>0.020000</speed>
</trkpt>
<trkpt lat="55.729656" lon="26.243336">
<ele>154.025513</ele>
<time>2010-07-18T08:14:01Z</time>
<desc>lat.=55.729656, lon.=26.243336, Alt.=154.025513m. Speed=0.000000m/h.</desc>
<speed>0.000000</speed>
</trkpt>
<trkpt lat="55.729656" lon="26.243336">
<ele>154.025513</ele>
<time>2010-07-18T08:14:02Z</time>
<desc>lat.=55.729656, lon.=26.243336, Alt.=154.025513m. Speed=0.036000m/h.</desc>
<speed>0.010000</speed>
</trkpt>
<trkpt lat="55.729656" lon="26.243336">
<ele>154.025513</ele>
<time>2010-07-18T08:14:03Z</time>
<desc>lat.=55.729656, lon.=26.243336, Alt.=154.025513m. Speed=0.072000m/h.</desc>
<speed>0.020000</speed>
</trkpt>
<trkpt lat="55.729656" lon="26.243336">
<ele>154.029419</ele>
<time>2010-07-18T08:14:04Z</time>
<desc>lat.=55.729656, lon.=26.243336, Alt.=154.029419m. Speed=0.108000m/h.</desc>
<speed>0.030000</speed>
</trkpt>
<trkpt lat="55.729656" lon="26.243336">
<ele>154.029419</ele>
<time>2010-07-18T08:14:05Z</time>
<desc>lat.=55.729656, lon.=26.243336, Alt.=154.029419m. Speed=0.000000m/h.</desc>
<speed>0.000000</speed>
</trkpt>
<trkpt lat="55.729656" lon="26.243336">
<ele>154.025513</ele>
<time>2010-07-18T08:14:06Z</time>
<desc>lat.=55.729656, lon.=26.243336, Alt.=154.025513m. Speed=0.036000m/h.</desc>
<speed>0.010000</speed>
</trkpt>
<trkpt lat="55.729656" lon="26.243334">
<ele>154.025513</ele>
<time>2010-07-18T08:14:07Z</time>
<desc>lat.=55.729656, lon.=26.243334, Alt.=154.025513m. Speed=0.036000m/h.</desc>
<speed>0.010000</speed>
</trkpt>
<trkpt lat="55.729656" lon="26.243334">
<ele>154.025513</ele>
<time>2010-07-18T08:14:08Z</time>
<desc>lat.=55.729656, lon.=26.243334, Alt.=154.025513m. Speed=0.036000m/h.</desc>
<speed>0.010000</speed>
</trkpt>
<trkpt lat="55.729656" lon="26.243334">
<ele>154.033325</ele>
<time>2010-07-18T08:14:09Z</time>
<desc>lat.=55.729656, lon.=26.243334, Alt.=154.033325m. Speed=0.000000m/h.</desc>
<speed>0.000000</speed>
</trkpt>
<trkpt lat="55.729656" lon="26.243334">
<ele>154.033325</ele>
<time>2010-07-18T08:14:10Z</time>
<desc>lat.=55.729656, lon.=26.243334, Alt.=154.033325m. Speed=0.036000m/h.</desc>
<speed>0.010000</speed>
</trkpt>
<trkpt lat="55.729656" lon="26.243334">
<ele>154.029419</ele>
<time>2010-07-18T08:14:11Z</time>
<desc>lat.=55.729656, lon.=26.243334, Alt.=154.029419m. Speed=0.072000m/h.</desc>
<speed>0.020000</speed>
</trkpt>
<trkpt lat="55.729656" lon="26.243334">
<ele>154.033325</ele>
<time>2010-07-18T08:14:12Z</time>
<desc>lat.=55.729656, lon.=26.243334, Alt.=154.033325m. Speed=0.072000m/h.</desc>
<speed>0.020000</speed>
</trkpt>
<trkpt lat="55.729656" lon="26.243336">
<ele>154.033325</ele>
<time>2010-07-18T08:14:13Z</time>
<desc>lat.=55.729656, lon.=26.243336, Alt.=154.033325m. Speed=0.072000m/h.</desc>
<speed>0.020000</speed>
</trkpt>
<trkpt lat="55.729656" lon="26.243336">
<ele>154.033325</ele>
<time>2010-07-18T08:14:14Z</time>
<desc>lat.=55.729656, lon.=26.243336, Alt.=154.033325m. Speed=0.108000m/h.</desc>
<speed>0.030000</speed>
</trkpt>
<trkpt lat="55.729656" lon="26.243336">
<ele>154.041138</ele>
<time>2010-07-18T08:14:15Z</time>
<desc>lat.=55.729656, lon.=26.243336, Alt.=154.041138m. Speed=0.072000m/h.</desc>
<speed>0.020000</speed>
</trkpt>
<trkpt lat="55.729656" lon="26.243336">
<ele>154.045044</ele>
<time>2010-07-18T08:14:16Z</time>
<desc>lat.=55.729656, lon.=26.243336, Alt.=154.045044m. Speed=0.000000m/h.</desc>
<speed>0.000000</speed>
</trkpt>
<trkpt lat="55.729656" lon="26.243336">
<ele>154.048950</ele>
<time>2010-07-18T08:14:17Z</time>
<desc>lat.=55.729656, lon.=26.243336, Alt.=154.048950m. Speed=0.000000m/h.</desc>
<speed>0.000000</speed>
</trkpt>
<trkpt lat="55.729656" lon="26.243336">
<ele>154.052856</ele>
<time>2010-07-18T08:14:18Z</time>
<desc>lat.=55.729656, lon.=26.243336, Alt.=154.052856m. Speed=0.036000m/h.</desc>
<speed>0.010000</speed>
</trkpt>
<trkpt lat="55.729656" lon="26.243336">
<ele>154.056763</ele>
<time>2010-07-18T08:14:19Z</time>
<desc>lat.=55.729656, lon.=26.243336, Alt.=154.056763m. Speed=0.072000m/h.</desc>
<speed>0.020000</speed>
</trkpt>
<trkpt lat="55.729656" lon="26.243336">
<ele>154.064575</ele>
<time>2010-07-18T08:14:20Z</time>
<desc>lat.=55.729656, lon.=26.243336, Alt.=154.064575m. Speed=0.144000m/h.</desc>
<speed>0.040000</speed>
</trkpt>
<trkpt lat="55.729656" lon="26.243336">
<ele>154.072388</ele>
<time>2010-07-18T08:14:21Z</time>
<desc>lat.=55.729656, lon.=26.243336, Alt.=154.072388m. Speed=0.072000m/h.</desc>
<speed>0.020000</speed>
</trkpt>
<trkpt lat="55.729656" lon="26.243336">
<ele>154.084106</ele>
<time>2010-07-18T08:14:22Z</time>
<desc>lat.=55.729656, lon.=26.243336, Alt.=154.084106m. Speed=0.036000m/h.</desc>
<speed>0.010000</speed>
</trkpt>
<trkpt lat="55.729656" lon="26.243336">
<ele>154.091919</ele>
<time>2010-07-18T08:14:23Z</time>
<desc>lat.=55.729656, lon.=26.243336, Alt.=154.091919m. Speed=0.000000m/h.</desc>
<speed>0.000000</speed>
</trkpt>
<trkpt lat="55.729656" lon="26.243336">
<ele>154.095825</ele>
<time>2010-07-18T08:14:24Z</time>
<desc>lat.=55.729656, lon.=26.243336, Alt.=154.095825m. Speed=0.036000m/h.</desc>
<speed>0.010000</speed>
</trkpt>
<trkpt lat="55.729656" lon="26.243336">
<ele>154.103638</ele>
<time>2010-07-18T08:14:25Z</time>
<desc>lat.=55.729656, lon.=26.243336, Alt.=154.103638m. Speed=0.108000m/h.</desc>
<speed>0.030000</speed>
</trkpt>
<trkpt lat="55.729656" lon="26.243336">
<ele>154.115356</ele>
<time>2010-07-18T08:14:26Z</time>
<desc>lat.=55.729656, lon.=26.243336, Alt.=154.115356m. Speed=0.072000m/h.</desc>
<speed>0.020000</speed>
</trkpt>
<trkpt lat="55.729656" lon="26.243336">
<ele>154.127075</ele>
<time>2010-07-18T08:14:27Z</time>
<desc>lat.=55.729656, lon.=26.243336, Alt.=154.127075m. Speed=0.072000m/h.</desc>
<speed>0.020000</speed>
</trkpt>
<trkpt lat="55.729656" lon="26.243334">
<ele>154.142700</ele>
<time>2010-07-18T08:14:28Z</time>
<desc>lat.=55.729656, lon.=26.243334, Alt.=154.142700m. Speed=0.108000m/h.</desc>
<speed>0.030000</speed>
</trkpt>
<trkpt lat="55.729656" lon="26.243334">
<ele>154.158325</ele>
<time>2010-07-18T08:14:29Z</time>
<desc>lat.=55.729656, lon.=26.243334, Alt.=154.158325m. Speed=0.144000m/h.</desc>
<speed>0.040000</speed>
</trkpt>
<trkpt lat="55.729656" lon="26.243334">
<ele>154.173950</ele>
<time>2010-07-18T08:14:30Z</time>
<desc>lat.=55.729656, lon.=26.243334, Alt.=154.173950m. Speed=0.036000m/h.</desc>
<speed>0.010000</speed>
</trkpt>
<trkpt lat="55.729660" lon="26.243332">
<ele>154.193481</ele>
<time>2010-07-18T08:14:31Z</time>
<desc>lat.=55.729660, lon.=26.243332, Alt.=154.193481m. Speed=0.108000m/h.</desc>
<speed>0.030000</speed>
</trkpt>
<trkpt lat="55.729660" lon="26.243332">
<ele>154.209106</ele>
<time>2010-07-18T08:14:32Z</time>
<desc>lat.=55.729660, lon.=26.243332, Alt.=154.209106m. Speed=0.072000m/h.</desc>
<speed>0.020000</speed>
</trkpt>
<trkpt lat="55.729660" lon="26.243334">
<ele>154.224731</ele>
<time>2010-07-18T08:14:33Z</time>
<desc>lat.=55.729660, lon.=26.243334, Alt.=154.224731m. Speed=0.108000m/h.</desc>
<speed>0.030000</speed>
</trkpt>
<trkpt lat="55.729660" lon="26.243334">
<ele>154.240356</ele>
<time>2010-07-18T08:14:34Z</time>
<desc>lat.=55.729660, lon.=26.243334, Alt.=154.240356m. Speed=0.144000m/h.</desc>
<speed>0.040000</speed>
</trkpt>
<trkpt lat="55.729660" lon="26.243334">
<ele>154.259888</ele>
<time>2010-07-18T08:14:35Z</time>
<desc>lat.=55.729660, lon.=26.243334, Alt.=154.259888m. Speed=0.108000m/h.</desc>
<speed>0.030000</speed>
</trkpt>
<trkpt lat="55.729660" lon="26.243334">
<ele>154.275513</ele>
<time>2010-07-18T08:14:36Z</time>
<desc>lat.=55.729660, lon.=26.243334, Alt.=154.275513m. Speed=0.180000m/h.</desc>
<speed>0.050000</speed>
</trkpt>
<trkpt lat="55.729660" lon="26.243334">
<ele>154.295044</ele>
<time>2010-07-18T08:14:37Z</time>
<desc>lat.=55.729660, lon.=26.243334, Alt.=154.295044m. Speed=0.180000m/h.</desc>
<speed>0.050000</speed>
</trkpt>
<trkpt lat="55.729660" lon="26.243336">
<ele>154.318481</ele>
<time>2010-07-18T08:14:38Z</time>
<desc>lat.=55.729660, lon.=26.243336, Alt.=154.318481m. Speed=0.144000m/h.</desc>
<speed>0.040000</speed>
</trkpt>
<trkpt lat="55.729660" lon="26.243336">
<ele>154.341919</ele>
<time>2010-07-18T08:14:39Z</time>
<desc>lat.=55.729660, lon.=26.243336, Alt.=154.341919m. Speed=0.144000m/h.</desc>
<speed>0.040000</speed>
</trkpt>
<trkpt lat="55.729660" lon="26.243336">
<ele>154.365356</ele>
<time>2010-07-18T08:14:40Z</time>
<desc>lat.=55.729660, lon.=26.243336, Alt.=154.365356m. Speed=0.072000m/h.</desc>
<speed>0.020000</speed>
</trkpt>
<trkpt lat="55.729660" lon="26.243336">
<ele>154.384888</ele>
<time>2010-07-18T08:14:41Z</time>
<desc>lat.=55.729660, lon.=26.243336, Alt.=154.384888m. Speed=0.000000m/h.</desc>
<speed>0.000000</speed>
</trkpt>
<trkpt lat="55.729660" lon="26.243334">
<ele>154.408325</ele>
<time>2010-07-18T08:14:42Z</time>
<desc>lat.=55.729660, lon.=26.243334, Alt.=154.408325m. Speed=0.000000m/h.</desc>
<speed>0.000000</speed>
</trkpt>
<trkpt lat="55.729660" lon="26.243334">
<ele>154.427856</ele>
<time>2010-07-18T08:14:43Z</time>
<desc>lat.=55.729660, lon.=26.243334, Alt.=154.427856m. Speed=0.072000m/h.</desc>
<speed>0.020000</speed>
</trkpt>
<trkpt lat="55.729660" lon="26.243334">
<ele>154.447388</ele>
<time>2010-07-18T08:14:44Z</time>
<desc>lat.=55.729660, lon.=26.243334, Alt.=154.447388m. Speed=0.072000m/h.</desc>
<speed>0.020000</speed>
</trkpt>
<trkpt lat="55.729664" lon="26.243334">
<ele>154.459106</ele>
<time>2010-07-18T08:14:45Z</time>
<desc>lat.=55.729664, lon.=26.243334, Alt.=154.459106m. Speed=0.000000m/h.</desc>
<speed>0.000000</speed>
</trkpt>
<trkpt lat="55.729664" lon="26.243334">
<ele>154.466919</ele>
<time>2010-07-18T08:14:46Z</time>
<desc>lat.=55.729664, lon.=26.243334, Alt.=154.466919m. Speed=0.072000m/h.</desc>
<speed>0.020000</speed>
</trkpt>
<trkpt lat="55.729664" lon="26.243334">
<ele>154.474731</ele>
<time>2010-07-18T08:14:47Z</time>
<desc>lat.=55.729664, lon.=26.243334, Alt.=154.474731m. Speed=0.144000m/h.</desc>
<speed>0.040000</speed>
</trkpt>
<trkpt lat="55.729664" lon="26.243334">
<ele>154.486450</ele>
<time>2010-07-18T08:14:48Z</time>
<desc>lat.=55.729664, lon.=26.243334, Alt.=154.486450m. Speed=0.180000m/h.</desc>
<speed>0.050000</speed>
</trkpt>
<trkpt lat="55.729660" lon="26.243332">
<ele>154.494263</ele>
<time>2010-07-18T08:14:49Z</time>
<desc>lat.=55.729660, lon.=26.243332, Alt.=154.494263m. Speed=0.180000m/h.</desc>
<speed>0.050000</speed>
</trkpt>
<trkpt lat="55.729660" lon="26.243332">
<ele>154.498169</ele>
<time>2010-07-18T08:14:50Z</time>
<desc>lat.=55.729660, lon.=26.243332, Alt.=154.498169m. Speed=0.216000m/h.</desc>
<speed>0.060000</speed>
</trkpt>
<trkpt lat="55.729660" lon="26.243330">
<ele>154.505981</ele>
<time>2010-07-18T08:14:51Z</time>
<desc>lat.=55.729660, lon.=26.243330, Alt.=154.505981m. Speed=0.288000m/h.</desc>
<speed>0.080000</speed>
</trkpt>
<trkpt lat="55.729660" lon="26.243328">
<ele>154.513794</ele>
<time>2010-07-18T08:14:52Z</time>
<desc>lat.=55.729660, lon.=26.243328, Alt.=154.513794m. Speed=0.324000m/h.</desc>
<speed>0.090000</speed>
</trkpt>
<trkpt lat="55.729660" lon="26.243328">
<ele>154.517700</ele>
<time>2010-07-18T08:14:53Z</time>
<desc>lat.=55.729660, lon.=26.243328, Alt.=154.517700m. Speed=0.324000m/h.</desc>
<speed>0.090000</speed>
</trkpt>
<trkpt lat="55.729660" lon="26.243326">
<ele>154.521606</ele>
<time>2010-07-18T08:14:54Z</time>
<desc>lat.=55.729660, lon.=26.243326, Alt.=154.521606m. Speed=0.216000m/h.</desc>
<speed>0.060000</speed>
</trkpt>
<trkpt lat="55.729660" lon="26.243324">
<ele>154.525513</ele>
<time>2010-07-18T08:14:55Z</time>
<desc>lat.=55.729660, lon.=26.243324, Alt.=154.525513m. Speed=0.180000m/h.</desc>
<speed>0.050000</speed>
</trkpt>
<trkpt lat="55.729660" lon="26.243324">
<ele>154.537231</ele>
<time>2010-07-18T08:14:56Z</time>
<desc>lat.=55.729660, lon.=26.243324, Alt.=154.537231m. Speed=0.072000m/h.</desc>
<speed>0.020000</speed>
</trkpt>
<trkpt lat="55.729660" lon="26.243324">
<ele>154.541138</ele>
<time>2010-07-18T08:14:57Z</time>
<desc>lat.=55.729660, lon.=26.243324, Alt.=154.541138m. Speed=0.072000m/h.</desc>
<speed>0.020000</speed>
</trkpt>
<trkpt lat="55.729660" lon="26.243324">
<ele>154.541138</ele>
<time>2010-07-18T08:14:58Z</time>
<desc>lat.=55.729660, lon.=26.243324, Alt.=154.541138m. Speed=0.036000m/h.</desc>
<speed>0.010000</speed>
</trkpt>
<trkpt lat="55.729660" lon="26.243324">
<ele>154.541138</ele>
<time>2010-07-18T08:14:59Z</time>
<desc>lat.=55.729660, lon.=26.243324, Alt.=154.541138m. Speed=0.036000m/h.</desc>
<speed>0.010000</speed>
</trkpt>
<trkpt lat="55.729660" lon="26.243322">
<ele>154.541138</ele>
<time>2010-07-18T08:15:00Z</time>
<desc>lat.=55.729660, lon.=26.243322, Alt.=154.541138m. Speed=0.036000m/h.</desc>
<speed>0.010000</speed>
</trkpt>
<trkpt lat="55.729660" lon="26.243322">
<ele>154.537231</ele>
<time>2010-07-18T08:15:01Z</time>
<desc>lat.=55.729660, lon.=26.243322, Alt.=154.537231m. Speed=0.000000m/h.</desc>
<speed>0.000000</speed>
</trkpt>
<trkpt lat="55.729660" lon="26.243322">
<ele>154.533325</ele>
<time>2010-07-18T08:15:02Z</time>
<desc>lat.=55.729660, lon.=26.243322, Alt.=154.533325m. Speed=0.036000m/h.</desc>
<speed>0.010000</speed>
</trkpt>
<trkpt lat="55.729660" lon="26.243322">
<ele>154.533325</ele>
<time>2010-07-18T08:15:03Z</time>
<desc>lat.=55.729660, lon.=26.243322, Alt.=154.533325m. Speed=0.036000m/h.</desc>
<speed>0.010000</speed>
</trkpt>
<trkpt lat="55.729660" lon="26.243322">
<ele>154.525513</ele>
<time>2010-07-18T08:15:04Z</time>
<desc>lat.=55.729660, lon.=26.243322, Alt.=154.525513m. Speed=0.036000m/h.</desc>
<speed>0.010000</speed>
</trkpt>
<trkpt lat="55.729660" lon="26.243324">
<ele>154.521606</ele>
<time>2010-07-18T08:15:05Z</time>
<desc>lat.=55.729660, lon.=26.243324, Alt.=154.521606m. Speed=0.144000m/h.</desc>
<speed>0.040000</speed>
</trkpt>
<trkpt lat="55.729660" lon="26.243324">
<ele>154.521606</ele>
<time>2010-07-18T08:15:06Z</time>
<desc>lat.=55.729660, lon.=26.243324, Alt.=154.521606m. Speed=0.180000m/h.</desc>
<speed>0.050000</speed>
</trkpt>
<trkpt lat="55.729660" lon="26.243324">
<ele>154.521606</ele>
<time>2010-07-18T08:15:07Z</time>
<desc>lat.=55.729660, lon.=26.243324, Alt.=154.521606m. Speed=0.180000m/h.</desc>
<speed>0.050000</speed>
</trkpt>
<trkpt lat="55.729660" lon="26.243326">
<ele>154.521606</ele>
<time>2010-07-18T08:15:08Z</time>
<desc>lat.=55.729660, lon.=26.243326, Alt.=154.521606m. Speed=0.144000m/h.</desc>
<speed>0.040000</speed>
</trkpt>
<trkpt lat="55.729660" lon="26.243326">
<ele>154.521606</ele>
<time>2010-07-18T08:15:09Z</time>
<desc>lat.=55.729660, lon.=26.243326, Alt.=154.521606m. Speed=0.036000m/h.</desc>
<speed>0.010000</speed>
</trkpt>
<trkpt lat="55.729660" lon="26.243326">
<ele>154.525513</ele>
<time>2010-07-18T08:15:10Z</time>
<desc>lat.=55.729660, lon.=26.243326, Alt.=154.525513m. Speed=0.072000m/h.</desc>
<speed>0.020000</speed>
</trkpt>
<trkpt lat="55.729660" lon="26.243326">
<ele>154.529419</ele>
<time>2010-07-18T08:15:11Z</time>
<desc>lat.=55.729660, lon.=26.243326, Alt.=154.529419m. Speed=0.072000m/h.</desc>
<speed>0.020000</speed>
</trkpt>
<trkpt lat="55.729660" lon="26.243326">
<ele>154.529419</ele>
<time>2010-07-18T08:15:12Z</time>
<desc>lat.=55.729660, lon.=26.243326, Alt.=154.529419m. Speed=0.072000m/h.</desc>
<speed>0.020000</speed>
</trkpt>
<trkpt lat="55.729664" lon="26.243328">
<ele>154.533325</ele>
<time>2010-07-18T08:15:13Z</time>
<desc>lat.=55.729664, lon.=26.243328, Alt.=154.533325m. Speed=0.108000m/h.</desc>
<speed>0.030000</speed>
</trkpt>
<trkpt lat="55.729664" lon="26.243328">
<ele>154.537231</ele>
<time>2010-07-18T08:15:14Z</time>
<desc>lat.=55.729664, lon.=26.243328, Alt.=154.537231m. Speed=0.144000m/h.</desc>
<speed>0.040000</speed>
</trkpt>
<trkpt lat="55.729664" lon="26.243328">
<ele>154.545044</ele>
<time>2010-07-18T08:15:15Z</time>
<desc>lat.=55.729664, lon.=26.243328, Alt.=154.545044m. Speed=0.108000m/h.</desc>
<speed>0.030000</speed>
</trkpt>
<trkpt lat="55.729664" lon="26.243328">
<ele>154.556763</ele>
<time>2010-07-18T08:15:16Z</time>
<desc>lat.=55.729664, lon.=26.243328, Alt.=154.556763m. Speed=0.216000m/h.</desc>
<speed>0.060000</speed>
</trkpt>
<trkpt lat="55.729664" lon="26.243330">
<ele>154.572388</ele>
<time>2010-07-18T08:15:17Z</time>
<desc>lat.=55.729664, lon.=26.243330, Alt.=154.572388m. Speed=0.252000m/h.</desc>
<speed>0.070000</speed>
</trkpt>
<trkpt lat="55.729664" lon="26.243330">
<ele>154.599731</ele>
<time>2010-07-18T08:15:18Z</time>
<desc>lat.=55.729664, lon.=26.243330, Alt.=154.599731m. Speed=0.288000m/h.</desc>
<speed>0.080000</speed>
</trkpt>
<trkpt lat="55.729664" lon="26.243332">
<ele>154.627075</ele>
<time>2010-07-18T08:15:19Z</time>
<desc>lat.=55.729664, lon.=26.243332, Alt.=154.627075m. Speed=0.288000m/h.</desc>
<speed>0.080000</speed>
</trkpt>
<trkpt lat="55.729664" lon="26.243332">
<ele>154.650513</ele>
<time>2010-07-18T08:15:20Z</time>
<desc>lat.=55.729664, lon.=26.243332, Alt.=154.650513m. Speed=0.324000m/h.</desc>
<speed>0.090000</speed>
</trkpt>
<trkpt lat="55.729668" lon="26.243334">
<ele>154.681763</ele>
<time>2010-07-18T08:15:21Z</time>
<desc>lat.=55.729668, lon.=26.243334, Alt.=154.681763m. Speed=0.288000m/h.</desc>
<speed>0.080000</speed>
</trkpt>
<trkpt lat="55.729668" lon="26.243334">
<ele>154.709106</ele>
<time>2010-07-18T08:15:22Z</time>
<desc>lat.=55.729668, lon.=26.243334, Alt.=154.709106m. Speed=0.324000m/h.</desc>
<speed>0.090000</speed>
</trkpt>
<trkpt lat="55.729668" lon="26.243336">
<ele>154.744263</ele>
<time>2010-07-18T08:15:23Z</time>
<desc>lat.=55.729668, lon.=26.243336, Alt.=154.744263m. Speed=0.360000m/h.</desc>
<speed>0.100000</speed>
</trkpt>
<trkpt lat="55.729668" lon="26.243336">
<ele>154.791138</ele>
<time>2010-07-18T08:15:24Z</time>
<desc>lat.=55.729668, lon.=26.243336, Alt.=154.791138m. Speed=0.288000m/h.</desc>
<speed>0.080000</speed>
</trkpt>
<trkpt lat="55.729668" lon="26.243338">
<ele>154.845825</ele>
<time>2010-07-18T08:15:25Z</time>
<desc>lat.=55.729668, lon.=26.243338, Alt.=154.845825m. Speed=0.324000m/h.</desc>
<speed>0.090000</speed>
</trkpt>
<trkpt lat="55.729668" lon="26.243338">
<ele>154.904419</ele>
<time>2010-07-18T08:15:26Z</time>
<desc>lat.=55.729668, lon.=26.243338, Alt.=154.904419m. Speed=0.360000m/h.</desc>
<speed>0.100000</speed>
</trkpt>
<trkpt lat="55.729671" lon="26.243338">
<ele>154.970825</ele>
<time>2010-07-18T08:15:27Z</time>
<desc>lat.=55.729671, lon.=26.243338, Alt.=154.970825m. Speed=0.396000m/h.</desc>
<speed>0.110000</speed>
</trkpt>
<trkpt lat="55.729671" lon="26.243340">
<ele>155.033325</ele>
<time>2010-07-18T08:15:28Z</time>
<desc>lat.=55.729671, lon.=26.243340, Alt.=155.033325m. Speed=0.396000m/h.</desc>
<speed>0.110000</speed>
</trkpt>
<trkpt lat="55.729671" lon="26.243340">
<ele>155.099731</ele>
<time>2010-07-18T08:15:29Z</time>
<desc>lat.=55.729671, lon.=26.243340, Alt.=155.099731m. Speed=0.432000m/h.</desc>
<speed>0.120000</speed>
</trkpt>
<trkpt lat="55.729675" lon="26.243341">
<ele>155.170044</ele>
<time>2010-07-18T08:15:30Z</time>
<desc>lat.=55.729675, lon.=26.243341, Alt.=155.170044m. Speed=0.432000m/h.</desc>
<speed>0.120000</speed>
</trkpt>
<trkpt lat="55.729675" lon="26.243341">
<ele>155.248169</ele>
<time>2010-07-18T08:15:31Z</time>
<desc>lat.=55.729675, lon.=26.243341, Alt.=155.248169m. Speed=0.396000m/h.</desc>
<speed>0.110000</speed>
</trkpt>
<trkpt lat="55.729675" lon="26.243341">
<ele>155.322388</ele>
<time>2010-07-18T08:15:32Z</time>
<desc>lat.=55.729675, lon.=26.243341, Alt.=155.322388m. Speed=0.288000m/h.</desc>
<speed>0.080000</speed>
</trkpt>
<trkpt lat="55.729675" lon="26.243341">
<ele>155.408325</ele>
<time>2010-07-18T08:15:33Z</time>
<desc>lat.=55.729675, lon.=26.243341, Alt.=155.408325m. Speed=0.252000m/h.</desc>
<speed>0.070000</speed>
</trkpt>
<trkpt lat="55.729679" lon="26.243341">
<ele>155.490356</ele>
<time>2010-07-18T08:15:34Z</time>
<desc>lat.=55.729679, lon.=26.243341, Alt.=155.490356m. Speed=0.324000m/h.</desc>
<speed>0.090000</speed>
</trkpt>
<trkpt lat="55.729679" lon="26.243340">
<ele>155.572388</ele>
<time>2010-07-18T08:15:35Z</time>
<desc>lat.=55.729679, lon.=26.243340, Alt.=155.572388m. Speed=0.360000m/h.</desc>
<speed>0.100000</speed>
</trkpt>
<trkpt lat="55.729679" lon="26.243338">
<ele>155.658325</ele>
<time>2010-07-18T08:15:36Z</time>
<desc>lat.=55.729679, lon.=26.243338, Alt.=155.658325m. Speed=0.324000m/h.</desc>
<speed>0.090000</speed>
</trkpt>
<trkpt lat="55.729679" lon="26.243336">
<ele>155.740356</ele>
<time>2010-07-18T08:15:37Z</time>
<desc>lat.=55.729679, lon.=26.243336, Alt.=155.740356m. Speed=0.360000m/h.</desc>
<speed>0.100000</speed>
</trkpt>
<trkpt lat="55.729679" lon="26.243336">
<ele>155.826294</ele>
<time>2010-07-18T08:15:38Z</time>
<desc>lat.=55.729679, lon.=26.243336, Alt.=155.826294m. Speed=0.396000m/h.</desc>
<speed>0.110000</speed>
</trkpt>
<trkpt lat="55.729679" lon="26.243334">
<ele>155.916138</ele>
<time>2010-07-18T08:15:39Z</time>
<desc>lat.=55.729679, lon.=26.243334, Alt.=155.916138m. Speed=0.396000m/h.</desc>
<speed>0.110000</speed>
</trkpt>
<trkpt lat="55.729683" lon="26.243332">
<ele>156.009888</ele>
<time>2010-07-18T08:15:40Z</time>
<desc>lat.=55.729683, lon.=26.243332, Alt.=156.009888m. Speed=0.360000m/h.</desc>
<speed>0.100000</speed>
</trkpt>
<trkpt lat="55.729683" lon="26.243330">
<ele>156.107544</ele>
<time>2010-07-18T08:15:41Z</time>
<desc>lat.=55.729683, lon.=26.243330, Alt.=156.107544m. Speed=0.432000m/h.</desc>
<speed>0.120000</speed>
</trkpt>
<trkpt lat="55.729683" lon="26.243328">
<ele>156.201294</ele>
<time>2010-07-18T08:15:42Z</time>
<desc>lat.=55.729683, lon.=26.243328, Alt.=156.201294m. Speed=0.288000m/h.</desc>
<speed>0.080000</speed>
</trkpt>
<trkpt lat="55.729683" lon="26.243328">
<ele>156.298950</ele>
<time>2010-07-18T08:15:43Z</time>
<desc>lat.=55.729683, lon.=26.243328, Alt.=156.298950m. Speed=0.324000m/h.</desc>
<speed>0.090000</speed>
</trkpt>
<trkpt lat="55.729683" lon="26.243326">
<ele>156.396606</ele>
<time>2010-07-18T08:15:44Z</time>
<desc>lat.=55.729683, lon.=26.243326, Alt.=156.396606m. Speed=0.324000m/h.</desc>
<speed>0.090000</speed>
</trkpt>
<trkpt lat="55.729687" lon="26.243326">
<ele>156.502075</ele>
<time>2010-07-18T08:15:45Z</time>
<desc>lat.=55.729687, lon.=26.243326, Alt.=156.502075m. Speed=0.360000m/h.</desc>
<speed>0.100000</speed>
</trkpt>
<trkpt lat="55.729687" lon="26.243326">
<ele>156.619263</ele>
<time>2010-07-18T08:15:46Z</time>
<desc>lat.=55.729687, lon.=26.243326, Alt.=156.619263m. Speed=0.396000m/h.</desc>
<speed>0.110000</speed>
</trkpt>
<trkpt lat="55.729687" lon="26.243326">
<ele>156.732544</ele>
<time>2010-07-18T08:15:47Z</time>
<desc>lat.=55.729687, lon.=26.243326, Alt.=156.732544m. Speed=0.504000m/h.</desc>
<speed>0.140000</speed>
</trkpt>
<trkpt lat="55.729687" lon="26.243326">
<ele>156.845825</ele>
<time>2010-07-18T08:15:48Z</time>
<desc>lat.=55.729687, lon.=26.243326, Alt.=156.845825m. Speed=0.468000m/h.</desc>
<speed>0.130000</speed>
</trkpt>
<trkpt lat="55.729691" lon="26.243326">
<ele>156.959106</ele>
<time>2010-07-18T08:15:49Z</time>
<desc>lat.=55.729691, lon.=26.243326, Alt.=156.959106m. Speed=0.504000m/h.</desc>
<speed>0.140000</speed>
</trkpt>
<trkpt lat="55.729691" lon="26.243326">
<ele>157.064575</ele>
<time>2010-07-18T08:15:50Z</time>
<desc>lat.=55.729691, lon.=26.243326, Alt.=157.064575m. Speed=0.468000m/h.</desc>
<speed>0.130000</speed>
</trkpt>
<trkpt lat="55.729691" lon="26.243328">
<ele>157.173950</ele>
<time>2010-07-18T08:15:51Z</time>
<desc>lat.=55.729691, lon.=26.243328, Alt.=157.173950m. Speed=0.468000m/h.</desc>
<speed>0.130000</speed>
</trkpt>
<trkpt lat="55.729694" lon="26.243328">
<ele>157.298950</ele>
<time>2010-07-18T08:15:52Z</time>
<desc>lat.=55.729694, lon.=26.243328, Alt.=157.298950m. Speed=0.504000m/h.</desc>
<speed>0.140000</speed>
</trkpt>
<trkpt lat="55.729694" lon="26.243328">
<ele>157.423950</ele>
<time>2010-07-18T08:15:53Z</time>
<desc>lat.=55.729694, lon.=26.243328, Alt.=157.423950m. Speed=0.504000m/h.</desc>
<speed>0.140000</speed>
</trkpt>
<trkpt lat="55.729694" lon="26.243328">
<ele>157.556763</ele>
<time>2010-07-18T08:15:54Z</time>
<desc>lat.=55.729694, lon.=26.243328, Alt.=157.556763m. Speed=0.540000m/h.</desc>
<speed>0.150000</speed>
</trkpt>
<trkpt lat="55.729698" lon="26.243328">
<ele>157.697388</ele>
<time>2010-07-18T08:15:55Z</time>
<desc>lat.=55.729698, lon.=26.243328, Alt.=157.697388m. Speed=0.540000m/h.</desc>
<speed>0.150000</speed>
</trkpt>
<trkpt lat="55.729698" lon="26.243328">
<ele>157.838013</ele>
<time>2010-07-18T08:15:56Z</time>
<desc>lat.=55.729698, lon.=26.243328, Alt.=157.838013m. Speed=0.504000m/h.</desc>
<speed>0.140000</speed>
</trkpt>
<trkpt lat="55.729702" lon="26.243328">
<ele>157.982544</ele>
<time>2010-07-18T08:15:57Z</time>
<desc>lat.=55.729702, lon.=26.243328, Alt.=157.982544m. Speed=0.468000m/h.</desc>
<speed>0.130000</speed>
</trkpt>
<trkpt lat="55.729702" lon="26.243326">
<ele>158.130981</ele>
<time>2010-07-18T08:15:58Z</time>
<desc>lat.=55.729702, lon.=26.243326, Alt.=158.130981m. Speed=0.504000m/h.</desc>
<speed>0.140000</speed>
</trkpt>
<trkpt lat="55.729702" lon="26.243326">
<ele>158.279419</ele>
<time>2010-07-18T08:15:59Z</time>
<desc>lat.=55.729702, lon.=26.243326, Alt.=158.279419m. Speed=0.468000m/h.</desc>
<speed>0.130000</speed>
</trkpt>
<trkpt lat="55.729702" lon="26.243324">
<ele>158.427856</ele>
<time>2010-07-18T08:16:00Z</time>
<desc>lat.=55.729702, lon.=26.243324, Alt.=158.427856m. Speed=0.576000m/h.</desc>
<speed>0.160000</speed>
</trkpt>
<trkpt lat="55.729706" lon="26.243322">
<ele>158.568481</ele>
<time>2010-07-18T08:16:01Z</time>
<desc>lat.=55.729706, lon.=26.243322, Alt.=158.568481m. Speed=0.504000m/h.</desc>
<speed>0.140000</speed>
</trkpt>
<trkpt lat="55.729706" lon="26.243322">
<ele>158.713013</ele>
<time>2010-07-18T08:16:02Z</time>
<desc>lat.=55.729706, lon.=26.243322, Alt.=158.713013m. Speed=0.504000m/h.</desc>
<speed>0.140000</speed>
</trkpt>
<trkpt lat="55.729706" lon="26.243320">
<ele>158.869263</ele>
<time>2010-07-18T08:16:03Z</time>
<desc>lat.=55.729706, lon.=26.243320, Alt.=158.869263m. Speed=0.540000m/h.</desc>
<speed>0.150000</speed>
</trkpt>
<trkpt lat="55.729710" lon="26.243319">
<ele>159.013794</ele>
<time>2010-07-18T08:16:04Z</time>
<desc>lat.=55.729710, lon.=26.243319, Alt.=159.013794m. Speed=0.540000m/h.</desc>
<speed>0.150000</speed>
</trkpt>
<trkpt lat="55.729710" lon="26.243317">
<ele>159.158325</ele>
<time>2010-07-18T08:16:05Z</time>
<desc>lat.=55.729710, lon.=26.243317, Alt.=159.158325m. Speed=0.540000m/h.</desc>
<speed>0.150000</speed>
</trkpt>
<trkpt lat="55.729710" lon="26.243315">
<ele>159.302856</ele>
<time>2010-07-18T08:16:06Z</time>
<desc>lat.=55.729710, lon.=26.243315, Alt.=159.302856m. Speed=0.576000m/h.</desc>
<speed>0.160000</speed>
</trkpt>
<trkpt lat="55.729710" lon="26.243313">
<ele>159.447388</ele>
<time>2010-07-18T08:16:07Z</time>
<desc>lat.=55.729710, lon.=26.243313, Alt.=159.447388m. Speed=0.612000m/h.</desc>
<speed>0.170000</speed>
</trkpt>
<trkpt lat="55.729713" lon="26.243311">
<ele>159.595825</ele>
<time>2010-07-18T08:16:08Z</time>
<desc>lat.=55.729713, lon.=26.243311, Alt.=159.595825m. Speed=0.504000m/h.</desc>
<speed>0.140000</speed>
</trkpt>
<trkpt lat="55.729713" lon="26.243309">
<ele>159.752075</ele>
<time>2010-07-18T08:16:09Z</time>
<desc>lat.=55.729713, lon.=26.243309, Alt.=159.752075m. Speed=0.540000m/h.</desc>
<speed>0.150000</speed>
</trkpt>
<trkpt lat="55.729713" lon="26.243307">
<ele>159.912231</ele>
<time>2010-07-18T08:16:10Z</time>
<desc>lat.=55.729713, lon.=26.243307, Alt.=159.912231m. Speed=0.612000m/h.</desc>
<speed>0.170000</speed>
</trkpt>
<trkpt lat="55.729717" lon="26.243305">
<ele>160.068481</ele>
<time>2010-07-18T08:16:11Z</time>
<desc>lat.=55.729717, lon.=26.243305, Alt.=160.068481m. Speed=0.540000m/h.</desc>
<speed>0.150000</speed>
</trkpt>
<trkpt lat="55.729717" lon="26.243305">
<ele>160.236450</ele>
<time>2010-07-18T08:16:12Z</time>
<desc>lat.=55.729717, lon.=26.243305, Alt.=160.236450m. Speed=0.576000m/h.</desc>
<speed>0.160000</speed>
</trkpt>
<trkpt lat="55.729717" lon="26.243303">
<ele>160.408325</ele>
<time>2010-07-18T08:16:13Z</time>
<desc>lat.=55.729717, lon.=26.243303, Alt.=160.408325m. Speed=0.576000m/h.</desc>
<speed>0.160000</speed>
</trkpt>
<trkpt lat="55.729721" lon="26.243301">
<ele>160.584106</ele>
<time>2010-07-18T08:16:14Z</time>
<desc>lat.=55.729721, lon.=26.243301, Alt.=160.584106m. Speed=0.612000m/h.</desc>
<speed>0.170000</speed>
</trkpt>
<trkpt lat="55.729721" lon="26.243301">
<ele>160.767700</ele>
<time>2010-07-18T08:16:15Z</time>
<desc>lat.=55.729721, lon.=26.243301, Alt.=160.767700m. Speed=0.612000m/h.</desc>
<speed>0.170000</speed>
</trkpt>
<trkpt lat="55.729725" lon="26.243299">
<ele>160.951294</ele>
<time>2010-07-18T08:16:16Z</time>
<desc>lat.=55.729725, lon.=26.243299, Alt.=160.951294m. Speed=0.648000m/h.</desc>
<speed>0.180000</speed>
</trkpt>
<trkpt lat="55.729725" lon="26.243298">
<ele>161.134888</ele>
<time>2010-07-18T08:16:17Z</time>
<desc>lat.=55.729725, lon.=26.243298, Alt.=161.134888m. Speed=0.612000m/h.</desc>
<speed>0.170000</speed>
</trkpt>
<trkpt lat="55.729725" lon="26.243298">
<ele>161.330200</ele>
<time>2010-07-18T08:16:18Z</time>
<desc>lat.=55.729725, lon.=26.243298, Alt.=161.330200m. Speed=0.648000m/h.</desc>
<speed>0.180000</speed>
</trkpt>
<trkpt lat="55.729729" lon="26.243296">
<ele>161.525513</ele>
<time>2010-07-18T08:16:19Z</time>
<desc>lat.=55.729729, lon.=26.243296, Alt.=161.525513m. Speed=0.720000m/h.</desc>
<speed>0.200000</speed>
</trkpt>
<trkpt lat="55.729729" lon="26.243296">
<ele>161.720825</ele>
<time>2010-07-18T08:16:20Z</time>
<desc>lat.=55.729729, lon.=26.243296, Alt.=161.720825m. Speed=0.612000m/h.</desc>
<speed>0.170000</speed>
</trkpt>
<trkpt lat="55.729733" lon="26.243294">
<ele>161.927856</ele>
<time>2010-07-18T08:16:21Z</time>
<desc>lat.=55.729733, lon.=26.243294, Alt.=161.927856m. Speed=0.720000m/h.</desc>
<speed>0.200000</speed>
</trkpt>
<trkpt lat="55.729733" lon="26.243292">
<ele>162.134888</ele>
<time>2010-07-18T08:16:22Z</time>
<desc>lat.=55.729733, lon.=26.243292, Alt.=162.134888m. Speed=0.720000m/h.</desc>
<speed>0.200000</speed>
</trkpt>
<trkpt lat="55.729736" lon="26.243292">
<ele>162.349731</ele>
<time>2010-07-18T08:16:23Z</time>
<desc>lat.=55.729736, lon.=26.243292, Alt.=162.349731m. Speed=0.756000m/h.</desc>
<speed>0.210000</speed>
</trkpt>
<trkpt lat="55.729736" lon="26.243290">
<ele>162.568481</ele>
<time>2010-07-18T08:16:24Z</time>
<desc>lat.=55.729736, lon.=26.243290, Alt.=162.568481m. Speed=0.756000m/h.</desc>
<speed>0.210000</speed>
</trkpt>
<trkpt lat="55.729740" lon="26.243290">
<ele>162.798950</ele>
<time>2010-07-18T08:16:25Z</time>
<desc>lat.=55.729740, lon.=26.243290, Alt.=162.798950m. Speed=0.828000m/h.</desc>
<speed>0.230000</speed>
</trkpt>
<trkpt lat="55.729740" lon="26.243288">
<ele>163.037231</ele>
<time>2010-07-18T08:16:26Z</time>
<desc>lat.=55.729740, lon.=26.243288, Alt.=163.037231m. Speed=0.900000m/h.</desc>
<speed>0.250000</speed>
</trkpt>
<trkpt lat="55.729744" lon="26.243286">
<ele>163.283325</ele>
<time>2010-07-18T08:16:27Z</time>
<desc>lat.=55.729744, lon.=26.243286, Alt.=163.283325m. Speed=0.900000m/h.</desc>
<speed>0.250000</speed>
</trkpt>
<trkpt lat="55.729744" lon="26.243286">
<ele>163.509888</ele>
<time>2010-07-18T08:16:28Z</time>
<desc>lat.=55.729744, lon.=26.243286, Alt.=163.509888m. Speed=0.792000m/h.</desc>
<speed>0.220000</speed>
</trkpt>
<trkpt lat="55.729748" lon="26.243286">
<ele>163.713013</ele>
<time>2010-07-18T08:16:29Z</time>
<desc>lat.=55.729748, lon.=26.243286, Alt.=163.713013m. Speed=0.684000m/h.</desc>
<speed>0.190000</speed>
</trkpt>
<trkpt lat="55.729748" lon="26.243286">
<ele>163.904419</ele>
<time>2010-07-18T08:16:30Z</time>
<desc>lat.=55.729748, lon.=26.243286, Alt.=163.904419m. Speed=0.720000m/h.</desc>
<speed>0.200000</speed>
</trkpt>
<trkpt lat="55.729752" lon="26.243288">
<ele>164.080200</ele>
<time>2010-07-18T08:16:31Z</time>
<desc>lat.=55.729752, lon.=26.243288, Alt.=164.080200m. Speed=0.612000m/h.</desc>
<speed>0.170000</speed>
</trkpt>
<trkpt lat="55.729752" lon="26.243288">
<ele>164.240356</ele>
<time>2010-07-18T08:16:32Z</time>
<desc>lat.=55.729752, lon.=26.243288, Alt.=164.240356m. Speed=0.612000m/h.</desc>
<speed>0.170000</speed>
</trkpt>
<trkpt lat="55.729755" lon="26.243288">
<ele>164.388794</ele>
<time>2010-07-18T08:16:33Z</time>
<desc>lat.=55.729755, lon.=26.243288, Alt.=164.388794m. Speed=0.540000m/h.</desc>
<speed>0.150000</speed>
</trkpt>
<trkpt lat="55.729755" lon="26.243290">
<ele>164.517700</ele>
<time>2010-07-18T08:16:34Z</time>
<desc>lat.=55.729755, lon.=26.243290, Alt.=164.517700m. Speed=0.540000m/h.</desc>
<speed>0.150000</speed>
</trkpt>
<trkpt lat="55.729755" lon="26.243290">
<ele>164.638794</ele>
<time>2010-07-18T08:16:35Z</time>
<desc>lat.=55.729755, lon.=26.243290, Alt.=164.638794m. Speed=0.540000m/h.</desc>
<speed>0.150000</speed>
</trkpt>
<trkpt lat="55.729759" lon="26.243292">
<ele>164.748169</ele>
<time>2010-07-18T08:16:36Z</time>
<desc>lat.=55.729759, lon.=26.243292, Alt.=164.748169m. Speed=0.504000m/h.</desc>
<speed>0.140000</speed>
</trkpt>
<trkpt lat="55.729759" lon="26.243292">
<ele>164.849731</ele>
<time>2010-07-18T08:16:37Z</time>
<desc>lat.=55.729759, lon.=26.243292, Alt.=164.849731m. Speed=0.504000m/h.</desc>
<speed>0.140000</speed>
</trkpt>
<trkpt lat="55.729759" lon="26.243294">
<ele>164.959106</ele>
<time>2010-07-18T08:16:38Z</time>
<desc>lat.=55.729759, lon.=26.243294, Alt.=164.959106m. Speed=0.504000m/h.</desc>
<speed>0.140000</speed>
</trkpt>
<trkpt lat="55.729759" lon="26.243296">
<ele>165.068481</ele>
<time>2010-07-18T08:16:39Z</time>
<desc>lat.=55.729759, lon.=26.243296, Alt.=165.068481m. Speed=0.468000m/h.</desc>
<speed>0.130000</speed>
</trkpt>
<trkpt lat="55.729763" lon="26.243296">
<ele>165.170044</ele>
<time>2010-07-18T08:16:40Z</time>
<desc>lat.=55.729763, lon.=26.243296, Alt.=165.170044m. Speed=0.540000m/h.</desc>
<speed>0.150000</speed>
</trkpt>
<trkpt lat="55.729763" lon="26.243298">
<ele>165.267700</ele>
<time>2010-07-18T08:16:41Z</time>
<desc>lat.=55.729763, lon.=26.243298, Alt.=165.267700m. Speed=0.468000m/h.</desc>
<speed>0.130000</speed>
</trkpt>
<trkpt lat="55.729763" lon="26.243299">
<ele>165.357544</ele>
<time>2010-07-18T08:16:42Z</time>
<desc>lat.=55.729763, lon.=26.243299, Alt.=165.357544m. Speed=0.432000m/h.</desc>
<speed>0.120000</speed>
</trkpt>
<trkpt lat="55.729763" lon="26.243299">
<ele>165.447388</ele>
<time>2010-07-18T08:16:43Z</time>
<desc>lat.=55.729763, lon.=26.243299, Alt.=165.447388m. Speed=0.396000m/h.</desc>
<speed>0.110000</speed>
</trkpt>
<trkpt lat="55.729767" lon="26.243299">
<ele>165.529419</ele>
<time>2010-07-18T08:16:44Z</time>
<desc>lat.=55.729767, lon.=26.243299, Alt.=165.529419m. Speed=0.252000m/h.</desc>
<speed>0.070000</speed>
</trkpt>
<trkpt lat="55.729767" lon="26.243301">
<ele>165.599731</ele>
<time>2010-07-18T08:16:45Z</time>
<desc>lat.=55.729767, lon.=26.243301, Alt.=165.599731m. Speed=0.216000m/h.</desc>
<speed>0.060000</speed>
</trkpt>
<trkpt lat="55.729767" lon="26.243301">
<ele>165.670044</ele>
<time>2010-07-18T08:16:46Z</time>
<desc>lat.=55.729767, lon.=26.243301, Alt.=165.670044m. Speed=0.180000m/h.</desc>
<speed>0.050000</speed>
</trkpt>
<trkpt lat="55.729767" lon="26.243301">
<ele>165.740356</ele>
<time>2010-07-18T08:16:47Z</time>
<desc>lat.=55.729767, lon.=26.243301, Alt.=165.740356m. Speed=0.180000m/h.</desc>
<speed>0.050000</speed>
</trkpt>
<trkpt lat="55.729767" lon="26.243301">
<ele>165.802856</ele>
<time>2010-07-18T08:16:48Z</time>
<desc>lat.=55.729767, lon.=26.243301, Alt.=165.802856m. Speed=0.072000m/h.</desc>
<speed>0.020000</speed>
</trkpt>
<trkpt lat="55.729767" lon="26.243301">
<ele>165.861450</ele>
<time>2010-07-18T08:16:49Z</time>
<desc>lat.=55.729767, lon.=26.243301, Alt.=165.861450m. Speed=0.144000m/h.</desc>
<speed>0.040000</speed>
</trkpt>
<trkpt lat="55.729767" lon="26.243301">
<ele>165.916138</ele>
<time>2010-07-18T08:16:50Z</time>
<desc>lat.=55.729767, lon.=26.243301, Alt.=165.916138m. Speed=0.180000m/h.</desc>
<speed>0.050000</speed>
</trkpt>
<trkpt lat="55.729771" lon="26.243299">
<ele>165.970825</ele>
<time>2010-07-18T08:16:51Z</time>
<desc>lat.=55.729771, lon.=26.243299, Alt.=165.970825m. Speed=0.108000m/h.</desc>
<speed>0.030000</speed>
</trkpt>
<trkpt lat="55.729771" lon="26.243299">
<ele>166.009888</ele>
<time>2010-07-18T08:16:52Z</time>
<desc>lat.=55.729771, lon.=26.243299, Alt.=166.009888m. Speed=0.108000m/h.</desc>
<speed>0.030000</speed>
</trkpt>
<trkpt lat="55.729771" lon="26.243299">
<ele>166.056763</ele>
<time>2010-07-18T08:16:53Z</time>
<desc>lat.=55.729771, lon.=26.243299, Alt.=166.056763m. Speed=0.108000m/h.</desc>
<speed>0.030000</speed>
</trkpt>
<trkpt lat="55.729771" lon="26.243301">
<ele>166.095825</ele>
<time>2010-07-18T08:16:54Z</time>
<desc>lat.=55.729771, lon.=26.243301, Alt.=166.095825m. Speed=0.144000m/h.</desc>
<speed>0.040000</speed>
</trkpt>
<trkpt lat="55.729771" lon="26.243301">
<ele>166.130981</ele>
<time>2010-07-18T08:16:55Z</time>
<desc>lat.=55.729771, lon.=26.243301, Alt.=166.130981m. Speed=0.108000m/h.</desc>
<speed>0.030000</speed>
</trkpt>
<trkpt lat="55.729771" lon="26.243301">
<ele>166.170044</ele>
<time>2010-07-18T08:16:56Z</time>
<desc>lat.=55.729771, lon.=26.243301, Alt.=166.170044m. Speed=0.072000m/h.</desc>
<speed>0.020000</speed>
</trkpt>
<trkpt lat="55.729771" lon="26.243301">
<ele>166.205200</ele>
<time>2010-07-18T08:16:57Z</time>
<desc>lat.=55.729771, lon.=26.243301, Alt.=166.205200m. Speed=0.072000m/h.</desc>
<speed>0.020000</speed>
</trkpt>
<trkpt lat="55.729771" lon="26.243299">
<ele>166.209106</ele>
<time>2010-07-18T08:16:58Z</time>
<desc>lat.=55.729771, lon.=26.243299, Alt.=166.209106m. Speed=0.072000m/h.</desc>
<speed>0.020000</speed>
</trkpt>
<trkpt lat="55.729771" lon="26.243299">
<ele>166.205200</ele>
<time>2010-07-18T08:16:59Z</time>
<desc>lat.=55.729771, lon.=26.243299, Alt.=166.205200m. Speed=0.108000m/h.</desc>
<speed>0.030000</speed>
</trkpt>
<trkpt lat="55.729771" lon="26.243299">
<ele>166.209106</ele>
<time>2010-07-18T08:17:00Z</time>
<desc>lat.=55.729771, lon.=26.243299, Alt.=166.209106m. Speed=0.072000m/h.</desc>
<speed>0.020000</speed>
</trkpt>
<trkpt lat="55.729771" lon="26.243299">
<ele>166.209106</ele>
<time>2010-07-18T08:17:01Z</time>
<desc>lat.=55.729771, lon.=26.243299, Alt.=166.209106m. Speed=0.072000m/h.</desc>
<speed>0.020000</speed>
</trkpt>
<trkpt lat="55.729771" lon="26.243299">
<ele>166.209106</ele>
<time>2010-07-18T08:17:02Z</time>
<desc>lat.=55.729771, lon.=26.243299, Alt.=166.209106m. Speed=0.072000m/h.</desc>
<speed>0.020000</speed>
</trkpt>
<trkpt lat="55.729771" lon="26.243299">
<ele>166.209106</ele>
<time>2010-07-18T08:17:03Z</time>
<desc>lat.=55.729771, lon.=26.243299, Alt.=166.209106m. Speed=0.036000m/h.</desc>
<speed>0.010000</speed>
</trkpt>
<trkpt lat="55.729771" lon="26.243299">
<ele>166.209106</ele>
<time>2010-07-18T08:17:04Z</time>
<desc>lat.=55.729771, lon.=26.243299, Alt.=166.209106m. Speed=0.072000m/h.</desc>
<speed>0.020000</speed>
</trkpt>
<trkpt lat="55.729771" lon="26.243299">
<ele>166.209106</ele>
<time>2010-07-18T08:17:05Z</time>
<desc>lat.=55.729771, lon.=26.243299, Alt.=166.209106m. Speed=0.000000m/h.</desc>
<speed>0.000000</speed>
</trkpt>
<trkpt lat="55.729771" lon="26.243299">
<ele>166.205200</ele>
<time>2010-07-18T08:17:06Z</time>
<desc>lat.=55.729771, lon.=26.243299, Alt.=166.205200m. Speed=0.000000m/h.</desc>
<speed>0.000000</speed>
</trkpt>
<trkpt lat="55.729771" lon="26.243299">
<ele>166.209106</ele>
<time>2010-07-18T08:17:07Z</time>
<desc>lat.=55.729771, lon.=26.243299, Alt.=166.209106m. Speed=0.036000m/h.</desc>
<speed>0.010000</speed>
</trkpt>
<trkpt lat="55.729771" lon="26.243299">
<ele>166.209106</ele>
<time>2010-07-18T08:17:08Z</time>
<desc>lat.=55.729771, lon.=26.243299, Alt.=166.209106m. Speed=0.144000m/h.</desc>
<speed>0.040000</speed>
</trkpt>
<trkpt lat="55.729771" lon="26.243299">
<ele>166.209106</ele>
<time>2010-07-18T08:17:09Z</time>
<desc>lat.=55.729771, lon.=26.243299, Alt.=166.209106m. Speed=0.036000m/h.</desc>
<speed>0.010000</speed>
</trkpt>
<trkpt lat="55.729771" lon="26.243299">
<ele>166.209106</ele>
<time>2010-07-18T08:17:10Z</time>
<desc>lat.=55.729771, lon.=26.243299, Alt.=166.209106m. Speed=0.036000m/h.</desc>
<speed>0.010000</speed>
</trkpt>
<trkpt lat="55.729771" lon="26.243299">
<ele>166.209106</ele>
<time>2010-07-18T08:17:11Z</time>
<desc>lat.=55.729771, lon.=26.243299, Alt.=166.209106m. Speed=0.000000m/h.</desc>
<speed>0.000000</speed>
</trkpt>
<trkpt lat="55.729771" lon="26.243299">
<ele>166.205200</ele>
<time>2010-07-18T08:17:12Z</time>
<desc>lat.=55.729771, lon.=26.243299, Alt.=166.205200m. Speed=0.072000m/h.</desc>
<speed>0.020000</speed>
</trkpt>
<trkpt lat="55.729771" lon="26.243299">
<ele>166.209106</ele>
<time>2010-07-18T08:17:13Z</time>
<desc>lat.=55.729771, lon.=26.243299, Alt.=166.209106m. Speed=0.000000m/h.</desc>
<speed>0.000000</speed>
</trkpt>
<trkpt lat="55.729771" lon="26.243299">
<ele>166.209106</ele>
<time>2010-07-18T08:17:14Z</time>
<desc>lat.=55.729771, lon.=26.243299, Alt.=166.209106m. Speed=0.000000m/h.</desc>
<speed>0.000000</speed>
</trkpt>
<trkpt lat="55.729771" lon="26.243299">
<ele>166.220825</ele>
<time>2010-07-18T08:17:15Z</time>
<desc>lat.=55.729771, lon.=26.243299, Alt.=166.220825m. Speed=0.072000m/h.</desc>
<speed>0.020000</speed>
</trkpt>
<trkpt lat="55.729771" lon="26.243299">
<ele>166.224731</ele>
<time>2010-07-18T08:17:16Z</time>
<desc>lat.=55.729771, lon.=26.243299, Alt.=166.224731m. Speed=0.000000m/h.</desc>
<speed>0.000000</speed>
</trkpt>
<trkpt lat="55.729771" lon="26.243299">
<ele>166.232544</ele>
<time>2010-07-18T08:17:17Z</time>
<desc>lat.=55.729771, lon.=26.243299, Alt.=166.232544m. Speed=0.000000m/h.</desc>
<speed>0.000000</speed>
</trkpt>
<trkpt lat="55.729771" lon="26.243299">
<ele>166.244263</ele>
<time>2010-07-18T08:17:18Z</time>
<desc>lat.=55.729771, lon.=26.243299, Alt.=166.244263m. Speed=0.000000m/h.</desc>
<speed>0.000000</speed>
</trkpt>
<trkpt lat="55.729771" lon="26.243299">
<ele>166.259888</ele>
<time>2010-07-18T08:17:19Z</time>
<desc>lat.=55.729771, lon.=26.243299, Alt.=166.259888m. Speed=0.000000m/h.</desc>
<speed>0.000000</speed>
</trkpt>
<trkpt lat="55.729771" lon="26.243299">
<ele>166.275513</ele>
<time>2010-07-18T08:17:20Z</time>
<desc>lat.=55.729771, lon.=26.243299, Alt.=166.275513m. Speed=0.144000m/h.</desc>
<speed>0.040000</speed>
</trkpt>
<trkpt lat="55.729771" lon="26.243299">
<ele>166.283325</ele>
<time>2010-07-18T08:17:21Z</time>
<desc>lat.=55.729771, lon.=26.243299, Alt.=166.283325m. Speed=0.108000m/h.</desc>
<speed>0.030000</speed>
</trkpt>
<trkpt lat="55.729771" lon="26.243299">
<ele>166.287231</ele>
<time>2010-07-18T08:17:22Z</time>
<desc>lat.=55.729771, lon.=26.243299, Alt.=166.287231m. Speed=0.000000m/h.</desc>
<speed>0.000000</speed>
</trkpt>
<trkpt lat="55.729771" lon="26.243299">
<ele>166.295044</ele>
<time>2010-07-18T08:17:23Z</time>
<desc>lat.=55.729771, lon.=26.243299, Alt.=166.295044m. Speed=0.036000m/h.</desc>
<speed>0.010000</speed>
</trkpt>
<trkpt lat="55.729771" lon="26.243299">
<ele>166.295044</ele>
<time>2010-07-18T08:17:24Z</time>
<desc>lat.=55.729771, lon.=26.243299, Alt.=166.295044m. Speed=0.108000m/h.</desc>
<speed>0.030000</speed>
</trkpt>
<trkpt lat="55.729771" lon="26.243299">
<ele>166.302856</ele>
<time>2010-07-18T08:17:25Z</time>
<desc>lat.=55.729771, lon.=26.243299, Alt.=166.302856m. Speed=0.072000m/h.</desc>
<speed>0.020000</speed>
</trkpt>
<trkpt lat="55.729771" lon="26.243299">
<ele>166.306763</ele>
<time>2010-07-18T08:17:26Z</time>
<desc>lat.=55.729771, lon.=26.243299, Alt.=166.306763m. Speed=0.000000m/h.</desc>
<speed>0.000000</speed>
</trkpt>
<trkpt lat="55.729771" lon="26.243299">
<ele>166.310669</ele>
<time>2010-07-18T08:17:27Z</time>
<desc>lat.=55.729771, lon.=26.243299, Alt.=166.310669m. Speed=0.000000m/h.</desc>
<speed>0.000000</speed>
</trkpt>
<trkpt lat="55.729771" lon="26.243299">
<ele>166.310669</ele>
<time>2010-07-18T08:17:28Z</time>
<desc>lat.=55.729771, lon.=26.243299, Alt.=166.310669m. Speed=0.036000m/h.</desc>
<speed>0.010000</speed>
</trkpt>
<trkpt lat="55.729771" lon="26.243299">
<ele>166.314575</ele>
<time>2010-07-18T08:17:29Z</time>
<desc>lat.=55.729771, lon.=26.243299, Alt.=166.314575m. Speed=0.000000m/h.</desc>
<speed>0.000000</speed>
</trkpt>
<trkpt lat="55.729771" lon="26.243299">
<ele>166.318481</ele>
<time>2010-07-18T08:17:30Z</time>
<desc>lat.=55.729771, lon.=26.243299, Alt.=166.318481m. Speed=0.036000m/h.</desc>
<speed>0.010000</speed>
</trkpt>
<trkpt lat="55.729771" lon="26.243299">
<ele>166.318481</ele>
<time>2010-07-18T08:17:31Z</time>
<desc>lat.=55.729771, lon.=26.243299, Alt.=166.318481m. Speed=0.036000m/h.</desc>
<speed>0.010000</speed>
</trkpt>
<trkpt lat="55.729771" lon="26.243299">
<ele>166.322388</ele>
<time>2010-07-18T08:17:32Z</time>
<desc>lat.=55.729771, lon.=26.243299, Alt.=166.322388m. Speed=0.036000m/h.</desc>
<speed>0.010000</speed>
</trkpt>
<trkpt lat="55.729771" lon="26.243299">
<ele>166.326294</ele>
<time>2010-07-18T08:17:33Z</time>
<desc>lat.=55.729771, lon.=26.243299, Alt.=166.326294m. Speed=0.072000m/h.</desc>
<speed>0.020000</speed>
</trkpt>
<trkpt lat="55.729771" lon="26.243299">
<ele>166.326294</ele>
<time>2010-07-18T08:17:34Z</time>
<desc>lat.=55.729771, lon.=26.243299, Alt.=166.326294m. Speed=0.036000m/h.</desc>
<speed>0.010000</speed>
</trkpt>
<trkpt lat="55.729771" lon="26.243299">
<ele>166.334106</ele>
<time>2010-07-18T08:17:35Z</time>
<desc>lat.=55.729771, lon.=26.243299, Alt.=166.334106m. Speed=0.000000m/h.</desc>
<speed>0.000000</speed>
</trkpt>
<trkpt lat="55.729771" lon="26.243299">
<ele>166.338013</ele>
<time>2010-07-18T08:17:36Z</time>
<desc>lat.=55.729771, lon.=26.243299, Alt.=166.338013m. Speed=0.036000m/h.</desc>
<speed>0.010000</speed>
</trkpt>
<trkpt lat="55.729771" lon="26.243299">
<ele>166.338013</ele>
<time>2010-07-18T08:17:37Z</time>
<desc>lat.=55.729771, lon.=26.243299, Alt.=166.338013m. Speed=0.000000m/h.</desc>
<speed>0.000000</speed>
</trkpt>
<trkpt lat="55.729771" lon="26.243298">
<ele>166.341919</ele>
<time>2010-07-18T08:17:38Z</time>
<desc>lat.=55.729771, lon.=26.243298, Alt.=166.341919m. Speed=0.036000m/h.</desc>
<speed>0.010000</speed>
</trkpt>
<trkpt lat="55.729771" lon="26.243298">
<ele>166.345825</ele>
<time>2010-07-18T08:17:39Z</time>
<desc>lat.=55.729771, lon.=26.243298, Alt.=166.345825m. Speed=0.000000m/h.</desc>
<speed>0.000000</speed>
</trkpt>
<trkpt lat="55.729771" lon="26.243298">
<ele>166.349731</ele>
<time>2010-07-18T08:17:40Z</time>
<desc>lat.=55.729771, lon.=26.243298, Alt.=166.349731m. Speed=0.000000m/h.</desc>
<speed>0.000000</speed>
</trkpt>
<trkpt lat="55.729771" lon="26.243298">
<ele>166.349731</ele>
<time>2010-07-18T08:17:41Z</time>
<desc>lat.=55.729771, lon.=26.243298, Alt.=166.349731m. Speed=0.036000m/h.</desc>
<speed>0.010000</speed>
</trkpt>
<trkpt lat="55.729771" lon="26.243298">
<ele>166.349731</ele>
<time>2010-07-18T08:17:42Z</time>
<desc>lat.=55.729771, lon.=26.243298, Alt.=166.349731m. Speed=0.000000m/h.</desc>
<speed>0.000000</speed>
</trkpt>
<trkpt lat="55.729771" lon="26.243298">
<ele>166.349731</ele>
<time>2010-07-18T08:17:43Z</time>
<desc>lat.=55.729771, lon.=26.243298, Alt.=166.349731m. Speed=0.072000m/h.</desc>
<speed>0.020000</speed>
</trkpt>
<trkpt lat="55.729771" lon="26.243298">
<ele>166.349731</ele>
<time>2010-07-18T08:17:44Z</time>
<desc>lat.=55.729771, lon.=26.243298, Alt.=166.349731m. Speed=0.000000m/h.</desc>
<speed>0.000000</speed>
</trkpt>
<trkpt lat="55.729771" lon="26.243298">
<ele>166.349731</ele>
<time>2010-07-18T08:17:45Z</time>
<desc>lat.=55.729771, lon.=26.243298, Alt.=166.349731m. Speed=0.000000m/h.</desc>
<speed>0.000000</speed>
</trkpt>
<trkpt lat="55.729771" lon="26.243298">
<ele>166.353638</ele>
<time>2010-07-18T08:17:46Z</time>
<desc>lat.=55.729771, lon.=26.243298, Alt.=166.353638m. Speed=0.036000m/h.</desc>
<speed>0.010000</speed>
</trkpt>
<trkpt lat="55.729771" lon="26.243298">
<ele>166.361450</ele>
<time>2010-07-18T08:17:47Z</time>
<desc>lat.=55.729771, lon.=26.243298, Alt.=166.361450m. Speed=0.000000m/h.</desc>
<speed>0.000000</speed>
</trkpt>
<trkpt lat="55.729771" lon="26.243298">
<ele>166.365356</ele>
<time>2010-07-18T08:17:48Z</time>
<desc>lat.=55.729771, lon.=26.243298, Alt.=166.365356m. Speed=0.036000m/h.</desc>
<speed>0.010000</speed>
</trkpt>
<trkpt lat="55.729771" lon="26.243298">
<ele>166.365356</ele>
<time>2010-07-18T08:17:49Z</time>
<desc>lat.=55.729771, lon.=26.243298, Alt.=166.365356m. Speed=0.036000m/h.</desc>
<speed>0.010000</speed>
</trkpt>
<trkpt lat="55.729771" lon="26.243298">
<ele>166.365356</ele>
<time>2010-07-18T08:17:50Z</time>
<desc>lat.=55.729771, lon.=26.243298, Alt.=166.365356m. Speed=0.036000m/h.</desc>
<speed>0.010000</speed>
</trkpt>
<trkpt lat="55.729771" lon="26.243298">
<ele>166.369263</ele>
<time>2010-07-18T08:17:51Z</time>
<desc>lat.=55.729771, lon.=26.243298, Alt.=166.369263m. Speed=0.036000m/h.</desc>
<speed>0.010000</speed>
</trkpt>
<trkpt lat="55.729771" lon="26.243298">
<ele>166.373169</ele>
<time>2010-07-18T08:17:52Z</time>
<desc>lat.=55.729771, lon.=26.243298, Alt.=166.373169m. Speed=0.072000m/h.</desc>
<speed>0.020000</speed>
</trkpt>
<trkpt lat="55.729771" lon="26.243298">
<ele>166.373169</ele>
<time>2010-07-18T08:17:53Z</time>
<desc>lat.=55.729771, lon.=26.243298, Alt.=166.373169m. Speed=0.072000m/h.</desc>
<speed>0.020000</speed>
</trkpt>
<trkpt lat="55.729771" lon="26.243298">
<ele>166.377075</ele>
<time>2010-07-18T08:17:54Z</time>
<desc>lat.=55.729771, lon.=26.243298, Alt.=166.377075m. Speed=0.000000m/h.</desc>
<speed>0.000000</speed>
</trkpt>
<trkpt lat="55.729771" lon="26.243298">
<ele>166.377075</ele>
<time>2010-07-18T08:17:55Z</time>
<desc>lat.=55.729771, lon.=26.243298, Alt.=166.377075m. Speed=0.036000m/h.</desc>
<speed>0.010000</speed>
</trkpt>
<trkpt lat="55.729771" lon="26.243298">
<ele>166.384888</ele>
<time>2010-07-18T08:17:56Z</time>
<desc>lat.=55.729771, lon.=26.243298, Alt.=166.384888m. Speed=0.036000m/h.</desc>
<speed>0.010000</speed>
</trkpt>
<trkpt lat="55.729771" lon="26.243298">
<ele>166.384888</ele>
<time>2010-07-18T08:17:57Z</time>
<desc>lat.=55.729771, lon.=26.243298, Alt.=166.384888m. Speed=0.072000m/h.</desc>
<speed>0.020000</speed>
</trkpt>
<trkpt lat="55.729771" lon="26.243298">
<ele>166.384888</ele>
<time>2010-07-18T08:17:58Z</time>
<desc>lat.=55.729771, lon.=26.243298, Alt.=166.384888m. Speed=0.072000m/h.</desc>
<speed>0.020000</speed>
</trkpt>
<trkpt lat="55.729771" lon="26.243298">
<ele>166.388794</ele>
<time>2010-07-18T08:17:59Z</time>
<desc>lat.=55.729771, lon.=26.243298, Alt.=166.388794m. Speed=0.072000m/h.</desc>
<speed>0.020000</speed>
</trkpt>
<trkpt lat="55.729771" lon="26.243298">
<ele>166.388794</ele>
<time>2010-07-18T08:18:00Z</time>
<desc>lat.=55.729771, lon.=26.243298, Alt.=166.388794m. Speed=0.072000m/h.</desc>
<speed>0.020000</speed>
</trkpt>
<trkpt lat="55.729771" lon="26.243298">
<ele>166.392700</ele>
<time>2010-07-18T08:18:01Z</time>
<desc>lat.=55.729771, lon.=26.243298, Alt.=166.392700m. Speed=0.072000m/h.</desc>
<speed>0.020000</speed>
</trkpt>
<trkpt lat="55.729771" lon="26.243298">
<ele>166.396606</ele>
<time>2010-07-18T08:18:02Z</time>
<desc>lat.=55.729771, lon.=26.243298, Alt.=166.396606m. Speed=0.036000m/h.</desc>
<speed>0.010000</speed>
</trkpt>
<trkpt lat="55.729771" lon="26.243298">
<ele>166.396606</ele>
<time>2010-07-18T08:18:03Z</time>
<desc>lat.=55.729771, lon.=26.243298, Alt.=166.396606m. Speed=0.072000m/h.</desc>
<speed>0.020000</speed>
</trkpt>
<trkpt lat="55.729771" lon="26.243299">
<ele>166.396606</ele>
<time>2010-07-18T08:18:04Z</time>
<desc>lat.=55.729771, lon.=26.243299, Alt.=166.396606m. Speed=0.144000m/h.</desc>
<speed>0.040000</speed>
</trkpt>
<trkpt lat="55.729771" lon="26.243299">
<ele>166.392700</ele>
<time>2010-07-18T08:18:05Z</time>
<desc>lat.=55.729771, lon.=26.243299, Alt.=166.392700m. Speed=0.144000m/h.</desc>
<speed>0.040000</speed>
</trkpt>
<trkpt lat="55.729771" lon="26.243299">
<ele>166.388794</ele>
<time>2010-07-18T08:18:06Z</time>
<desc>lat.=55.729771, lon.=26.243299, Alt.=166.388794m. Speed=0.108000m/h.</desc>
<speed>0.030000</speed>
</trkpt>
<trkpt lat="55.729771" lon="26.243301">
<ele>166.384888</ele>
<time>2010-07-18T08:18:07Z</time>
<desc>lat.=55.729771, lon.=26.243301, Alt.=166.384888m. Speed=0.072000m/h.</desc>
<speed>0.020000</speed>
</trkpt>
<trkpt lat="55.729771" lon="26.243301">
<ele>166.380981</ele>
<time>2010-07-18T08:18:08Z</time>
<desc>lat.=55.729771, lon.=26.243301, Alt.=166.380981m. Speed=0.036000m/h.</desc>
<speed>0.010000</speed>
</trkpt>
<trkpt lat="55.729771" lon="26.243301">
<ele>166.380981</ele>
<time>2010-07-18T08:18:09Z</time>
<desc>lat.=55.729771, lon.=26.243301, Alt.=166.380981m. Speed=0.108000m/h.</desc>
<speed>0.030000</speed>
</trkpt>
<trkpt lat="55.729771" lon="26.243301">
<ele>166.373169</ele>
<time>2010-07-18T08:18:10Z</time>
<desc>lat.=55.729771, lon.=26.243301, Alt.=166.373169m. Speed=0.144000m/h.</desc>
<speed>0.040000</speed>
</trkpt>
<trkpt lat="55.729771" lon="26.243303">
<ele>166.365356</ele>
<time>2010-07-18T08:18:11Z</time>
<desc>lat.=55.729771, lon.=26.243303, Alt.=166.365356m. Speed=0.144000m/h.</desc>
<speed>0.040000</speed>
</trkpt>
<trkpt lat="55.729771" lon="26.243303">
<ele>166.357544</ele>
<time>2010-07-18T08:18:12Z</time>
<desc>lat.=55.729771, lon.=26.243303, Alt.=166.357544m. Speed=0.180000m/h.</desc>
<speed>0.050000</speed>
</trkpt>
<trkpt lat="55.729771" lon="26.243305">
<ele>166.349731</ele>
<time>2010-07-18T08:18:13Z</time>
<desc>lat.=55.729771, lon.=26.243305, Alt.=166.349731m. Speed=0.144000m/h.</desc>
<speed>0.040000</speed>
</trkpt>
<trkpt lat="55.729771" lon="26.243305">
<ele>166.338013</ele>
<time>2010-07-18T08:18:14Z</time>
<desc>lat.=55.729771, lon.=26.243305, Alt.=166.338013m. Speed=0.216000m/h.</desc>
<speed>0.060000</speed>
</trkpt>
<trkpt lat="55.729771" lon="26.243307">
<ele>166.326294</ele>
<time>2010-07-18T08:18:15Z</time>
<desc>lat.=55.729771, lon.=26.243307, Alt.=166.326294m. Speed=0.216000m/h.</desc>
<speed>0.060000</speed>
</trkpt>
<trkpt lat="55.729774" lon="26.243307">
<ele>166.310669</ele>
<time>2010-07-18T08:18:16Z</time>
<desc>lat.=55.729774, lon.=26.243307, Alt.=166.310669m. Speed=0.252000m/h.</desc>
<speed>0.070000</speed>
</trkpt>
<trkpt lat="55.729774" lon="26.243309">
<ele>166.295044</ele>
<time>2010-07-18T08:18:17Z</time>
<desc>lat.=55.729774, lon.=26.243309, Alt.=166.295044m. Speed=0.252000m/h.</desc>
<speed>0.070000</speed>
</trkpt>
<trkpt lat="55.729774" lon="26.243309">
<ele>166.283325</ele>
<time>2010-07-18T08:18:18Z</time>
<desc>lat.=55.729774, lon.=26.243309, Alt.=166.283325m. Speed=0.252000m/h.</desc>
<speed>0.070000</speed>
</trkpt>
<trkpt lat="55.729774" lon="26.243311">
<ele>166.263794</ele>
<time>2010-07-18T08:18:19Z</time>
<desc>lat.=55.729774, lon.=26.243311, Alt.=166.263794m. Speed=0.252000m/h.</desc>
<speed>0.070000</speed>
</trkpt>
<trkpt lat="55.729774" lon="26.243313">
<ele>166.248169</ele>
<time>2010-07-18T08:18:20Z</time>
<desc>lat.=55.729774, lon.=26.243313, Alt.=166.248169m. Speed=0.216000m/h.</desc>
<speed>0.060000</speed>
</trkpt>
<trkpt lat="55.729774" lon="26.243313">
<ele>166.236450</ele>
<time>2010-07-18T08:18:21Z</time>
<desc>lat.=55.729774, lon.=26.243313, Alt.=166.236450m. Speed=0.252000m/h.</desc>
<speed>0.070000</speed>
</trkpt>
<trkpt lat="55.729774" lon="26.243315">
<ele>166.224731</ele>
<time>2010-07-18T08:18:22Z</time>
<desc>lat.=55.729774, lon.=26.243315, Alt.=166.224731m. Speed=0.180000m/h.</desc>
<speed>0.050000</speed>
</trkpt>
<trkpt lat="55.729774" lon="26.243315">
<ele>166.213013</ele>
<time>2010-07-18T08:18:23Z</time>
<desc>lat.=55.729774, lon.=26.243315, Alt.=166.213013m. Speed=0.036000m/h.</desc>
<speed>0.010000</speed>
</trkpt>
<trkpt lat="55.729774" lon="26.243315">
<ele>166.201294</ele>
<time>2010-07-18T08:18:24Z</time>
<desc>lat.=55.729774, lon.=26.243315, Alt.=166.201294m. Speed=0.036000m/h.</desc>
<speed>0.010000</speed>
</trkpt>
<trkpt lat="55.729774" lon="26.243315">
<ele>166.189575</ele>
<time>2010-07-18T08:18:25Z</time>
<desc>lat.=55.729774, lon.=26.243315, Alt.=166.189575m. Speed=0.036000m/h.</desc>
<speed>0.010000</speed>
</trkpt>
<trkpt lat="55.729774" lon="26.243315">
<ele>166.177856</ele>
<time>2010-07-18T08:18:26Z</time>
<desc>lat.=55.729774, lon.=26.243315, Alt.=166.177856m. Speed=0.108000m/h.</desc>
<speed>0.030000</speed>
</trkpt>
<trkpt lat="55.729774" lon="26.243317">
<ele>166.170044</ele>
<time>2010-07-18T08:18:27Z</time>
<desc>lat.=55.729774, lon.=26.243317, Alt.=166.170044m. Speed=0.000000m/h.</desc>
<speed>0.000000</speed>
</trkpt>
<trkpt lat="55.729774" lon="26.243317">
<ele>166.154419</ele>
<time>2010-07-18T08:18:28Z</time>
<desc>lat.=55.729774, lon.=26.243317, Alt.=166.154419m. Speed=0.072000m/h.</desc>
<speed>0.020000</speed>
</trkpt>
<trkpt lat="55.729774" lon="26.243317">
<ele>166.142700</ele>
<time>2010-07-18T08:18:29Z</time>
<desc>lat.=55.729774, lon.=26.243317, Alt.=166.142700m. Speed=0.036000m/h.</desc>
<speed>0.010000</speed>
</trkpt>
<trkpt lat="55.729774" lon="26.243317">
<ele>166.134888</ele>
<time>2010-07-18T08:18:30Z</time>
<desc>lat.=55.729774, lon.=26.243317, Alt.=166.134888m. Speed=0.036000m/h.</desc>
<speed>0.010000</speed>
</trkpt>
<trkpt lat="55.729774" lon="26.243317">
<ele>166.123169</ele>
<time>2010-07-18T08:18:31Z</time>
<desc>lat.=55.729774, lon.=26.243317, Alt.=166.123169m. Speed=0.072000m/h.</desc>
<speed>0.020000</speed>
</trkpt>
<trkpt lat="55.729771" lon="26.243317">
<ele>166.115356</ele>
<time>2010-07-18T08:18:32Z</time>
<desc>lat.=55.729771, lon.=26.243317, Alt.=166.115356m. Speed=0.108000m/h.</desc>
<speed>0.030000</speed>
</trkpt>
<trkpt lat="55.729771" lon="26.243317">
<ele>166.103638</ele>
<time>2010-07-18T08:18:33Z</time>
<desc>lat.=55.729771, lon.=26.243317, Alt.=166.103638m. Speed=0.108000m/h.</desc>
<speed>0.030000</speed>
</trkpt>
<trkpt lat="55.729771" lon="26.243317">
<ele>166.095825</ele>
<time>2010-07-18T08:18:34Z</time>
<desc>lat.=55.729771, lon.=26.243317, Alt.=166.095825m. Speed=0.144000m/h.</desc>
<speed>0.040000</speed>
</trkpt>
<trkpt lat="55.729771" lon="26.243315">
<ele>166.091919</ele>
<time>2010-07-18T08:18:35Z</time>
<desc>lat.=55.729771, lon.=26.243315, Alt.=166.091919m. Speed=0.144000m/h.</desc>
<speed>0.040000</speed>
</trkpt>
<trkpt lat="55.729771" lon="26.243315">
<ele>166.088013</ele>
<time>2010-07-18T08:18:36Z</time>
<desc>lat.=55.729771, lon.=26.243315, Alt.=166.088013m. Speed=0.324000m/h.</desc>
<speed>0.090000</speed>
</trkpt>
<trkpt lat="55.729771" lon="26.243313">
<ele>166.084106</ele>
<time>2010-07-18T08:18:37Z</time>
<desc>lat.=55.729771, lon.=26.243313, Alt.=166.084106m. Speed=0.288000m/h.</desc>
<speed>0.080000</speed>
</trkpt>
<trkpt lat="55.729771" lon="26.243311">
<ele>166.084106</ele>
<time>2010-07-18T08:18:38Z</time>
<desc>lat.=55.729771, lon.=26.243311, Alt.=166.084106m. Speed=0.324000m/h.</desc>
<speed>0.090000</speed>
</trkpt>
<trkpt lat="55.729771" lon="26.243311">
<ele>166.088013</ele>
<time>2010-07-18T08:18:39Z</time>
<desc>lat.=55.729771, lon.=26.243311, Alt.=166.088013m. Speed=0.360000m/h.</desc>
<speed>0.100000</speed>
</trkpt>
<trkpt lat="55.729771" lon="26.243309">
<ele>166.091919</ele>
<time>2010-07-18T08:18:40Z</time>
<desc>lat.=55.729771, lon.=26.243309, Alt.=166.091919m. Speed=0.396000m/h.</desc>
<speed>0.110000</speed>
</trkpt>
<trkpt lat="55.729771" lon="26.243307">
<ele>166.091919</ele>
<time>2010-07-18T08:18:41Z</time>
<desc>lat.=55.729771, lon.=26.243307, Alt.=166.091919m. Speed=0.396000m/h.</desc>
<speed>0.110000</speed>
</trkpt>
<trkpt lat="55.729771" lon="26.243305">
<ele>166.095825</ele>
<time>2010-07-18T08:18:42Z</time>
<desc>lat.=55.729771, lon.=26.243305, Alt.=166.095825m. Speed=0.360000m/h.</desc>
<speed>0.100000</speed>
</trkpt>
<trkpt lat="55.729767" lon="26.243303">
<ele>166.103638</ele>
<time>2010-07-18T08:18:43Z</time>
<desc>lat.=55.729767, lon.=26.243303, Alt.=166.103638m. Speed=0.360000m/h.</desc>
<speed>0.100000</speed>
</trkpt>
<trkpt lat="55.729767" lon="26.243301">
<ele>166.107544</ele>
<time>2010-07-18T08:18:44Z</time>
<desc>lat.=55.729767, lon.=26.243301, Alt.=166.107544m. Speed=0.396000m/h.</desc>
<speed>0.110000</speed>
</trkpt>
<trkpt lat="55.729767" lon="26.243299">
<ele>166.111450</ele>
<time>2010-07-18T08:18:45Z</time>
<desc>lat.=55.729767, lon.=26.243299, Alt.=166.111450m. Speed=0.432000m/h.</desc>
<speed>0.120000</speed>
</trkpt>
<trkpt lat="55.729767" lon="26.243298">
<ele>166.115356</ele>
<time>2010-07-18T08:18:46Z</time>
<desc>lat.=55.729767, lon.=26.243298, Alt.=166.115356m. Speed=0.504000m/h.</desc>
<speed>0.140000</speed>
</trkpt>
<trkpt lat="55.729767" lon="26.243296">
<ele>166.123169</ele>
<time>2010-07-18T08:18:47Z</time>
<desc>lat.=55.729767, lon.=26.243296, Alt.=166.123169m. Speed=0.576000m/h.</desc>
<speed>0.160000</speed>
</trkpt>
<trkpt lat="55.729767" lon="26.243292">
<ele>166.127075</ele>
<time>2010-07-18T08:18:48Z</time>
<desc>lat.=55.729767, lon.=26.243292, Alt.=166.127075m. Speed=0.648000m/h.</desc>
<speed>0.180000</speed>
</trkpt>
<trkpt lat="55.729767" lon="26.243290">
<ele>166.134888</ele>
<time>2010-07-18T08:18:49Z</time>
<desc>lat.=55.729767, lon.=26.243290, Alt.=166.134888m. Speed=0.720000m/h.</desc>
<speed>0.200000</speed>
</trkpt>
<trkpt lat="55.729763" lon="26.243286">
<ele>166.142700</ele>
<time>2010-07-18T08:18:50Z</time>
<desc>lat.=55.729763, lon.=26.243286, Alt.=166.142700m. Speed=0.684000m/h.</desc>
<speed>0.190000</speed>
</trkpt>
<trkpt lat="55.729763" lon="26.243284">
<ele>166.150513</ele>
<time>2010-07-18T08:18:51Z</time>
<desc>lat.=55.729763, lon.=26.243284, Alt.=166.150513m. Speed=0.648000m/h.</desc>
<speed>0.180000</speed>
</trkpt>
<trkpt lat="55.729763" lon="26.243280">
<ele>166.154419</ele>
<time>2010-07-18T08:18:52Z</time>
<desc>lat.=55.729763, lon.=26.243280, Alt.=166.154419m. Speed=0.648000m/h.</desc>
<speed>0.180000</speed>
</trkpt>
<trkpt lat="55.729763" lon="26.243279">
<ele>166.166138</ele>
<time>2010-07-18T08:18:53Z</time>
<desc>lat.=55.729763, lon.=26.243279, Alt.=166.166138m. Speed=0.612000m/h.</desc>
<speed>0.170000</speed>
</trkpt>
<trkpt lat="55.729763" lon="26.243275">
<ele>166.170044</ele>
<time>2010-07-18T08:18:54Z</time>
<desc>lat.=55.729763, lon.=26.243275, Alt.=166.170044m. Speed=0.576000m/h.</desc>
<speed>0.160000</speed>
</trkpt>
<trkpt lat="55.729763" lon="26.243273">
<ele>166.170044</ele>
<time>2010-07-18T08:18:55Z</time>
<desc>lat.=55.729763, lon.=26.243273, Alt.=166.170044m. Speed=0.648000m/h.</desc>
<speed>0.180000</speed>
</trkpt>
<trkpt lat="55.729759" lon="26.243269">
<ele>166.173950</ele>
<time>2010-07-18T08:18:56Z</time>
<desc>lat.=55.729759, lon.=26.243269, Alt.=166.173950m. Speed=0.576000m/h.</desc>
<speed>0.160000</speed>
</trkpt>
<trkpt lat="55.729759" lon="26.243267">
<ele>166.177856</ele>
<time>2010-07-18T08:18:57Z</time>
<desc>lat.=55.729759, lon.=26.243267, Alt.=166.177856m. Speed=0.468000m/h.</desc>
<speed>0.130000</speed>
</trkpt>
<trkpt lat="55.729759" lon="26.243265">
<ele>166.181763</ele>
<time>2010-07-18T08:18:58Z</time>
<desc>lat.=55.729759, lon.=26.243265, Alt.=166.181763m. Speed=0.468000m/h.</desc>
<speed>0.130000</speed>
</trkpt>
<trkpt lat="55.729759" lon="26.243263">
<ele>166.181763</ele>
<time>2010-07-18T08:18:59Z</time>
<desc>lat.=55.729759, lon.=26.243263, Alt.=166.181763m. Speed=0.468000m/h.</desc>
<speed>0.130000</speed>
</trkpt>
<trkpt lat="55.729759" lon="26.243261">
<ele>166.181763</ele>
<time>2010-07-18T08:19:00Z</time>
<desc>lat.=55.729759, lon.=26.243261, Alt.=166.181763m. Speed=0.468000m/h.</desc>
<speed>0.130000</speed>
</trkpt>
<trkpt lat="55.729759" lon="26.243259">
<ele>166.185669</ele>
<time>2010-07-18T08:19:01Z</time>
<desc>lat.=55.729759, lon.=26.243259, Alt.=166.185669m. Speed=0.468000m/h.</desc>
<speed>0.130000</speed>
</trkpt>
<trkpt lat="55.729759" lon="26.243258">
<ele>166.185669</ele>
<time>2010-07-18T08:19:02Z</time>
<desc>lat.=55.729759, lon.=26.243258, Alt.=166.185669m. Speed=0.396000m/h.</desc>
<speed>0.110000</speed>
</trkpt>
<trkpt lat="55.729759" lon="26.243256">
<ele>166.189575</ele>
<time>2010-07-18T08:19:03Z</time>
<desc>lat.=55.729759, lon.=26.243256, Alt.=166.189575m. Speed=0.324000m/h.</desc>
<speed>0.090000</speed>
</trkpt>
<trkpt lat="55.729755" lon="26.243254">
<ele>166.193481</ele>
<time>2010-07-18T08:19:04Z</time>
<desc>lat.=55.729755, lon.=26.243254, Alt.=166.193481m. Speed=0.324000m/h.</desc>
<speed>0.090000</speed>
</trkpt>
<trkpt lat="55.729755" lon="26.243252">
<ele>166.197388</ele>
<time>2010-07-18T08:19:05Z</time>
<desc>lat.=55.729755, lon.=26.243252, Alt.=166.197388m. Speed=0.252000m/h.</desc>
<speed>0.070000</speed>
</trkpt>
<trkpt lat="55.729755" lon="26.243250">
<ele>166.201294</ele>
<time>2010-07-18T08:19:06Z</time>
<desc>lat.=55.729755, lon.=26.243250, Alt.=166.201294m. Speed=0.396000m/h.</desc>
<speed>0.110000</speed>
</trkpt>
<trkpt lat="55.729755" lon="26.243248">
<ele>166.205200</ele>
<time>2010-07-18T08:19:07Z</time>
<desc>lat.=55.729755, lon.=26.243248, Alt.=166.205200m. Speed=0.432000m/h.</desc>
<speed>0.120000</speed>
</trkpt>
<trkpt lat="55.729755" lon="26.243246">
<ele>166.209106</ele>
<time>2010-07-18T08:19:08Z</time>
<desc>lat.=55.729755, lon.=26.243246, Alt.=166.209106m. Speed=0.468000m/h.</desc>
<speed>0.130000</speed>
</trkpt>
<trkpt lat="55.729755" lon="26.243244">
<ele>166.213013</ele>
<time>2010-07-18T08:19:09Z</time>
<desc>lat.=55.729755, lon.=26.243244, Alt.=166.213013m. Speed=0.396000m/h.</desc>
<speed>0.110000</speed>
</trkpt>
<trkpt lat="55.729755" lon="26.243242">
<ele>166.220825</ele>
<time>2010-07-18T08:19:10Z</time>
<desc>lat.=55.729755, lon.=26.243242, Alt.=166.220825m. Speed=0.468000m/h.</desc>
<speed>0.130000</speed>
</trkpt>
<trkpt lat="55.729755" lon="26.243240">
<ele>166.228638</ele>
<time>2010-07-18T08:19:11Z</time>
<desc>lat.=55.729755, lon.=26.243240, Alt.=166.228638m. Speed=0.432000m/h.</desc>
<speed>0.120000</speed>
</trkpt>
<trkpt lat="55.729755" lon="26.243238">
<ele>166.240356</ele>
<time>2010-07-18T08:19:12Z</time>
<desc>lat.=55.729755, lon.=26.243238, Alt.=166.240356m. Speed=0.324000m/h.</desc>
<speed>0.090000</speed>
</trkpt>
<trkpt lat="55.729755" lon="26.243238">
<ele>166.252075</ele>
<time>2010-07-18T08:19:13Z</time>
<desc>lat.=55.729755, lon.=26.243238, Alt.=166.252075m. Speed=0.288000m/h.</desc>
<speed>0.080000</speed>
</trkpt>
<trkpt lat="55.729752" lon="26.243237">
<ele>166.255981</ele>
<time>2010-07-18T08:19:14Z</time>
<desc>lat.=55.729752, lon.=26.243237, Alt.=166.255981m. Speed=0.360000m/h.</desc>
<speed>0.100000</speed>
</trkpt>
<trkpt lat="55.729752" lon="26.243235">
<ele>166.259888</ele>
<time>2010-07-18T08:19:15Z</time>
<desc>lat.=55.729752, lon.=26.243235, Alt.=166.259888m. Speed=0.432000m/h.</desc>
<speed>0.120000</speed>
</trkpt>
<trkpt lat="55.729752" lon="26.243233">
<ele>166.263794</ele>
<time>2010-07-18T08:19:16Z</time>
<desc>lat.=55.729752, lon.=26.243233, Alt.=166.263794m. Speed=0.324000m/h.</desc>
<speed>0.090000</speed>
</trkpt>
<trkpt lat="55.729752" lon="26.243231">
<ele>166.267700</ele>
<time>2010-07-18T08:19:17Z</time>
<desc>lat.=55.729752, lon.=26.243231, Alt.=166.267700m. Speed=0.324000m/h.</desc>
<speed>0.090000</speed>
</trkpt>
<trkpt lat="55.729752" lon="26.243231">
<ele>166.267700</ele>
<time>2010-07-18T08:19:18Z</time>
<desc>lat.=55.729752, lon.=26.243231, Alt.=166.267700m. Speed=0.252000m/h.</desc>
<speed>0.070000</speed>
</trkpt>
<trkpt lat="55.729752" lon="26.243229">
<ele>166.271606</ele>
<time>2010-07-18T08:19:19Z</time>
<desc>lat.=55.729752, lon.=26.243229, Alt.=166.271606m. Speed=0.252000m/h.</desc>
<speed>0.070000</speed>
</trkpt>
<trkpt lat="55.729752" lon="26.243227">
<ele>166.275513</ele>
<time>2010-07-18T08:19:20Z</time>
<desc>lat.=55.729752, lon.=26.243227, Alt.=166.275513m. Speed=0.144000m/h.</desc>
<speed>0.040000</speed>
</trkpt>
<trkpt lat="55.729752" lon="26.243227">
<ele>166.279419</ele>
<time>2010-07-18T08:19:21Z</time>
<desc>lat.=55.729752, lon.=26.243227, Alt.=166.279419m. Speed=0.072000m/h.</desc>
<speed>0.020000</speed>
</trkpt>
<trkpt lat="55.729752" lon="26.243227">
<ele>166.275513</ele>
<time>2010-07-18T08:19:22Z</time>
<desc>lat.=55.729752, lon.=26.243227, Alt.=166.275513m. Speed=0.072000m/h.</desc>
<speed>0.020000</speed>
</trkpt>
<trkpt lat="55.729752" lon="26.243227">
<ele>166.275513</ele>
<time>2010-07-18T08:19:23Z</time>
<desc>lat.=55.729752, lon.=26.243227, Alt.=166.275513m. Speed=0.036000m/h.</desc>
<speed>0.010000</speed>
</trkpt>
<trkpt lat="55.729752" lon="26.243227">
<ele>166.275513</ele>
<time>2010-07-18T08:19:24Z</time>
<desc>lat.=55.729752, lon.=26.243227, Alt.=166.275513m. Speed=0.036000m/h.</desc>
<speed>0.010000</speed>
</trkpt>
<trkpt lat="55.729752" lon="26.243227">
<ele>166.267700</ele>
<time>2010-07-18T08:19:25Z</time>
<desc>lat.=55.729752, lon.=26.243227, Alt.=166.267700m. Speed=0.108000m/h.</desc>
<speed>0.030000</speed>
</trkpt>
<trkpt lat="55.729752" lon="26.243227">
<ele>166.267700</ele>
<time>2010-07-18T08:19:26Z</time>
<desc>lat.=55.729752, lon.=26.243227, Alt.=166.267700m. Speed=0.180000m/h.</desc>
<speed>0.050000</speed>
</trkpt>
<trkpt lat="55.729752" lon="26.243227">
<ele>166.259888</ele>
<time>2010-07-18T08:19:27Z</time>
<desc>lat.=55.729752, lon.=26.243227, Alt.=166.259888m. Speed=0.180000m/h.</desc>
<speed>0.050000</speed>
</trkpt>
<trkpt lat="55.729752" lon="26.243229">
<ele>166.255981</ele>
<time>2010-07-18T08:19:28Z</time>
<desc>lat.=55.729752, lon.=26.243229, Alt.=166.255981m. Speed=0.108000m/h.</desc>
<speed>0.030000</speed>
</trkpt>
<trkpt lat="55.729752" lon="26.243229">
<ele>166.248169</ele>
<time>2010-07-18T08:19:29Z</time>
<desc>lat.=55.729752, lon.=26.243229, Alt.=166.248169m. Speed=0.144000m/h.</desc>
<speed>0.040000</speed>
</trkpt>
<trkpt lat="55.729752" lon="26.243231">
<ele>166.240356</ele>
<time>2010-07-18T08:19:30Z</time>
<desc>lat.=55.729752, lon.=26.243231, Alt.=166.240356m. Speed=0.072000m/h.</desc>
<speed>0.020000</speed>
</trkpt>
<trkpt lat="55.729752" lon="26.243229">
<ele>166.236450</ele>
<time>2010-07-18T08:19:31Z</time>
<desc>lat.=55.729752, lon.=26.243229, Alt.=166.236450m. Speed=0.036000m/h.</desc>
<speed>0.010000</speed>
</trkpt>
<trkpt lat="55.729752" lon="26.243229">
<ele>166.236450</ele>
<time>2010-07-18T08:19:32Z</time>
<desc>lat.=55.729752, lon.=26.243229, Alt.=166.236450m. Speed=0.072000m/h.</desc>
<speed>0.020000</speed>
</trkpt>
<trkpt lat="55.729752" lon="26.243229">
<ele>166.236450</ele>
<time>2010-07-18T08:19:33Z</time>
<desc>lat.=55.729752, lon.=26.243229, Alt.=166.236450m. Speed=0.000000m/h.</desc>
<speed>0.000000</speed>
</trkpt>
<trkpt lat="55.729752" lon="26.243229">
<ele>166.236450</ele>
<time>2010-07-18T08:19:34Z</time>
<desc>lat.=55.729752, lon.=26.243229, Alt.=166.236450m. Speed=0.108000m/h.</desc>
<speed>0.030000</speed>
</trkpt>
<trkpt lat="55.729752" lon="26.243229">
<ele>166.240356</ele>
<time>2010-07-18T08:19:35Z</time>
<desc>lat.=55.729752, lon.=26.243229, Alt.=166.240356m. Speed=0.036000m/h.</desc>
<speed>0.010000</speed>
</trkpt>
<trkpt lat="55.729752" lon="26.243229">
<ele>166.236450</ele>
<time>2010-07-18T08:19:36Z</time>
<desc>lat.=55.729752, lon.=26.243229, Alt.=166.236450m. Speed=0.072000m/h.</desc>
<speed>0.020000</speed>
</trkpt>
<trkpt lat="55.729752" lon="26.243229">
<ele>166.236450</ele>
<time>2010-07-18T08:19:37Z</time>
<desc>lat.=55.729752, lon.=26.243229, Alt.=166.236450m. Speed=0.108000m/h.</desc>
<speed>0.030000</speed>
</trkpt>
<trkpt lat="55.729752" lon="26.243229">
<ele>166.236450</ele>
<time>2010-07-18T08:19:38Z</time>
<desc>lat.=55.729752, lon.=26.243229, Alt.=166.236450m. Speed=0.108000m/h.</desc>
<speed>0.030000</speed>
</trkpt>
<trkpt lat="55.729752" lon="26.243229">
<ele>166.236450</ele>
<time>2010-07-18T08:19:39Z</time>
<desc>lat.=55.729752, lon.=26.243229, Alt.=166.236450m. Speed=0.036000m/h.</desc>
<speed>0.010000</speed>
</trkpt>
<trkpt lat="55.729752" lon="26.243229">
<ele>166.232544</ele>
<time>2010-07-18T08:19:40Z</time>
<desc>lat.=55.729752, lon.=26.243229, Alt.=166.232544m. Speed=0.072000m/h.</desc>
<speed>0.020000</speed>
</trkpt>
<trkpt lat="55.729752" lon="26.243229">
<ele>166.232544</ele>
<time>2010-07-18T08:19:41Z</time>
<desc>lat.=55.729752, lon.=26.243229, Alt.=166.232544m. Speed=0.036000m/h.</desc>
<speed>0.010000</speed>
</trkpt>
<trkpt lat="55.729752" lon="26.243229">
<ele>166.228638</ele>
<time>2010-07-18T08:19:42Z</time>
<desc>lat.=55.729752, lon.=26.243229, Alt.=166.228638m. Speed=0.036000m/h.</desc>
<speed>0.010000</speed>
</trkpt>
<trkpt lat="55.729752" lon="26.243229">
<ele>166.224731</ele>
<time>2010-07-18T08:19:43Z</time>
<desc>lat.=55.729752, lon.=26.243229, Alt.=166.224731m. Speed=0.036000m/h.</desc>
<speed>0.010000</speed>
</trkpt>
<trkpt lat="55.729752" lon="26.243229">
<ele>166.228638</ele>
<time>2010-07-18T08:19:44Z</time>
<desc>lat.=55.729752, lon.=26.243229, Alt.=166.228638m. Speed=0.108000m/h.</desc>
<speed>0.030000</speed>
</trkpt>
<trkpt lat="55.729752" lon="26.243229">
<ele>166.232544</ele>
<time>2010-07-18T08:19:45Z</time>
<desc>lat.=55.729752, lon.=26.243229, Alt.=166.232544m. Speed=0.036000m/h.</desc>
<speed>0.010000</speed>
</trkpt>
<trkpt lat="55.729752" lon="26.243227">
<ele>166.232544</ele>
<time>2010-07-18T08:19:46Z</time>
<desc>lat.=55.729752, lon.=26.243227, Alt.=166.232544m. Speed=0.036000m/h.</desc>
<speed>0.010000</speed>
</trkpt>
<trkpt lat="55.729752" lon="26.243227">
<ele>166.232544</ele>
<time>2010-07-18T08:19:47Z</time>
<desc>lat.=55.729752, lon.=26.243227, Alt.=166.232544m. Speed=0.000000m/h.</desc>
<speed>0.000000</speed>
</trkpt>
<trkpt lat="55.729752" lon="26.243227">
<ele>166.232544</ele>
<time>2010-07-18T08:19:48Z</time>
<desc>lat.=55.729752, lon.=26.243227, Alt.=166.232544m. Speed=0.000000m/h.</desc>
<speed>0.000000</speed>
</trkpt>
<trkpt lat="55.729752" lon="26.243227">
<ele>166.232544</ele>
<time>2010-07-18T08:19:49Z</time>
<desc>lat.=55.729752, lon.=26.243227, Alt.=166.232544m. Speed=0.036000m/h.</desc>
<speed>0.010000</speed>
</trkpt>
<trkpt lat="55.729752" lon="26.243227">
<ele>166.232544</ele>
<time>2010-07-18T08:19:50Z</time>
<desc>lat.=55.729752, lon.=26.243227, Alt.=166.232544m. Speed=0.036000m/h.</desc>
<speed>0.010000</speed>
</trkpt>
<trkpt lat="55.729752" lon="26.243227">
<ele>166.224731</ele>
<time>2010-07-18T08:19:51Z</time>
<desc>lat.=55.729752, lon.=26.243227, Alt.=166.224731m. Speed=0.036000m/h.</desc>
<speed>0.010000</speed>
</trkpt>
<trkpt lat="55.729752" lon="26.243227">
<ele>166.228638</ele>
<time>2010-07-18T08:19:52Z</time>
<desc>lat.=55.729752, lon.=26.243227, Alt.=166.228638m. Speed=0.036000m/h.</desc>
<speed>0.010000</speed>
</trkpt>
<trkpt lat="55.729752" lon="26.243227">
<ele>166.224731</ele>
<time>2010-07-18T08:19:53Z</time>
<desc>lat.=55.729752, lon.=26.243227, Alt.=166.224731m. Speed=0.036000m/h.</desc>
<speed>0.010000</speed>
</trkpt>
<trkpt lat="55.729752" lon="26.243227">
<ele>166.228638</ele>
<time>2010-07-18T08:19:54Z</time>
<desc>lat.=55.729752, lon.=26.243227, Alt.=166.228638m. Speed=0.036000m/h.</desc>
<speed>0.010000</speed>
</trkpt>
<trkpt lat="55.729752" lon="26.243227">
<ele>166.228638</ele>
<time>2010-07-18T08:19:55Z</time>
<desc>lat.=55.729752, lon.=26.243227, Alt.=166.228638m. Speed=0.072000m/h.</desc>
<speed>0.020000</speed>
</trkpt>
<trkpt lat="55.729752" lon="26.243227">
<ele>166.228638</ele>
<time>2010-07-18T08:19:56Z</time>
<desc>lat.=55.729752, lon.=26.243227, Alt.=166.228638m. Speed=0.072000m/h.</desc>
<speed>0.020000</speed>
</trkpt>
<trkpt lat="55.729752" lon="26.243227">
<ele>166.232544</ele>
<time>2010-07-18T08:19:57Z</time>
<desc>lat.=55.729752, lon.=26.243227, Alt.=166.232544m. Speed=0.036000m/h.</desc>
<speed>0.010000</speed>
</trkpt>
<trkpt lat="55.729752" lon="26.243227">
<ele>166.228638</ele>
<time>2010-07-18T08:19:58Z</time>
<desc>lat.=55.729752, lon.=26.243227, Alt.=166.228638m. Speed=0.000000m/h.</desc>
<speed>0.000000</speed>
</trkpt>
<trkpt lat="55.729752" lon="26.243227">
<ele>166.228638</ele>
<time>2010-07-18T08:19:59Z</time>
<desc>lat.=55.729752, lon.=26.243227, Alt.=166.228638m. Speed=0.072000m/h.</desc>
<speed>0.020000</speed>
</trkpt>
<trkpt lat="55.729752" lon="26.243229">
<ele>166.224731</ele>
<time>2010-07-18T08:20:00Z</time>
<desc>lat.=55.729752, lon.=26.243229, Alt.=166.224731m. Speed=0.144000m/h.</desc>
<speed>0.040000</speed>
</trkpt>
<trkpt lat="55.729752" lon="26.243229">
<ele>166.224731</ele>
<time>2010-07-18T08:20:01Z</time>
<desc>lat.=55.729752, lon.=26.243229, Alt.=166.224731m. Speed=0.000000m/h.</desc>
<speed>0.000000</speed>
</trkpt>
<trkpt lat="55.729752" lon="26.243229">
<ele>166.224731</ele>
<time>2010-07-18T08:20:02Z</time>
<desc>lat.=55.729752, lon.=26.243229, Alt.=166.224731m. Speed=0.036000m/h.</desc>
<speed>0.010000</speed>
</trkpt>
<trkpt lat="55.729752" lon="26.243229">
<ele>166.224731</ele>
<time>2010-07-18T08:20:03Z</time>
<desc>lat.=55.729752, lon.=26.243229, Alt.=166.224731m. Speed=0.108000m/h.</desc>
<speed>0.030000</speed>
</trkpt>
<trkpt lat="55.729752" lon="26.243229">
<ele>166.224731</ele>
<time>2010-07-18T08:20:04Z</time>
<desc>lat.=55.729752, lon.=26.243229, Alt.=166.224731m. Speed=0.072000m/h.</desc>
<speed>0.020000</speed>
</trkpt>
<trkpt lat="55.729752" lon="26.243229">
<ele>166.228638</ele>
<time>2010-07-18T08:20:05Z</time>
<desc>lat.=55.729752, lon.=26.243229, Alt.=166.228638m. Speed=0.072000m/h.</desc>
<speed>0.020000</speed>
</trkpt>
<trkpt lat="55.729752" lon="26.243229">
<ele>166.228638</ele>
<time>2010-07-18T08:20:06Z</time>
<desc>lat.=55.729752, lon.=26.243229, Alt.=166.228638m. Speed=0.036000m/h.</desc>
<speed>0.010000</speed>
</trkpt>
<trkpt lat="55.729752" lon="26.243229">
<ele>166.224731</ele>
<time>2010-07-18T08:20:07Z</time>
<desc>lat.=55.729752, lon.=26.243229, Alt.=166.224731m. Speed=0.036000m/h.</desc>
<speed>0.010000</speed>
</trkpt>
<trkpt lat="55.729752" lon="26.243229">
<ele>166.224731</ele>
<time>2010-07-18T08:20:08Z</time>
<desc>lat.=55.729752, lon.=26.243229, Alt.=166.224731m. Speed=0.072000m/h.</desc>
<speed>0.020000</speed>
</trkpt>
<trkpt lat="55.729752" lon="26.243229">
<ele>166.224731</ele>
<time>2010-07-18T08:20:09Z</time>
<desc>lat.=55.729752, lon.=26.243229, Alt.=166.224731m. Speed=0.072000m/h.</desc>
<speed>0.020000</speed>
</trkpt>
<trkpt lat="55.729752" lon="26.243229">
<ele>166.224731</ele>
<time>2010-07-18T08:20:10Z</time>
<desc>lat.=55.729752, lon.=26.243229, Alt.=166.224731m. Speed=0.036000m/h.</desc>
<speed>0.010000</speed>
</trkpt>
<trkpt lat="55.729752" lon="26.243229">
<ele>166.216919</ele>
<time>2010-07-18T08:20:11Z</time>
<desc>lat.=55.729752, lon.=26.243229, Alt.=166.216919m. Speed=0.036000m/h.</desc>
<speed>0.010000</speed>
</trkpt>
<trkpt lat="55.729752" lon="26.243229">
<ele>166.213013</ele>
<time>2010-07-18T08:20:12Z</time>
<desc>lat.=55.729752, lon.=26.243229, Alt.=166.213013m. Speed=0.144000m/h.</desc>
<speed>0.040000</speed>
</trkpt>
<trkpt lat="55.729752" lon="26.243229">
<ele>166.209106</ele>
<time>2010-07-18T08:20:13Z</time>
<desc>lat.=55.729752, lon.=26.243229, Alt.=166.209106m. Speed=0.036000m/h.</desc>
<speed>0.010000</speed>
</trkpt>
<trkpt lat="55.729752" lon="26.243229">
<ele>166.209106</ele>
<time>2010-07-18T08:20:14Z</time>
<desc>lat.=55.729752, lon.=26.243229, Alt.=166.209106m. Speed=0.000000m/h.</desc>
<speed>0.000000</speed>
</trkpt>
<trkpt lat="55.729752" lon="26.243229">
<ele>166.209106</ele>
<time>2010-07-18T08:20:15Z</time>
<desc>lat.=55.729752, lon.=26.243229, Alt.=166.209106m. Speed=0.036000m/h.</desc>
<speed>0.010000</speed>
</trkpt>
<trkpt lat="55.729752" lon="26.243229">
<ele>166.205200</ele>
<time>2010-07-18T08:20:16Z</time>
<desc>lat.=55.729752, lon.=26.243229, Alt.=166.205200m. Speed=0.000000m/h.</desc>
<speed>0.000000</speed>
</trkpt>
<trkpt lat="55.729752" lon="26.243229">
<ele>166.201294</ele>
<time>2010-07-18T08:20:17Z</time>
<desc>lat.=55.729752, lon.=26.243229, Alt.=166.201294m. Speed=0.036000m/h.</desc>
<speed>0.010000</speed>
</trkpt>
<trkpt lat="55.729752" lon="26.243229">
<ele>166.205200</ele>
<time>2010-07-18T08:20:18Z</time>
<desc>lat.=55.729752, lon.=26.243229, Alt.=166.205200m. Speed=0.000000m/h.</desc>
<speed>0.000000</speed>
</trkpt>
<trkpt lat="55.729752" lon="26.243229">
<ele>166.201294</ele>
<time>2010-07-18T08:20:19Z</time>
<desc>lat.=55.729752, lon.=26.243229, Alt.=166.201294m. Speed=0.036000m/h.</desc>
<speed>0.010000</speed>
</trkpt>
<trkpt lat="55.729752" lon="26.243229">
<ele>166.197388</ele>
<time>2010-07-18T08:20:20Z</time>
<desc>lat.=55.729752, lon.=26.243229, Alt.=166.197388m. Speed=0.036000m/h.</desc>
<speed>0.010000</speed>
</trkpt>
<trkpt lat="55.729752" lon="26.243229">
<ele>166.193481</ele>
<time>2010-07-18T08:20:21Z</time>
<desc>lat.=55.729752, lon.=26.243229, Alt.=166.193481m. Speed=0.072000m/h.</desc>
<speed>0.020000</speed>
</trkpt>
<trkpt lat="55.729752" lon="26.243231">
<ele>166.189575</ele>
<time>2010-07-18T08:20:22Z</time>
<desc>lat.=55.729752, lon.=26.243231, Alt.=166.189575m. Speed=0.072000m/h.</desc>
<speed>0.020000</speed>
</trkpt>
<trkpt lat="55.729752" lon="26.243231">
<ele>166.189575</ele>
<time>2010-07-18T08:20:23Z</time>
<desc>lat.=55.729752, lon.=26.243231, Alt.=166.189575m. Speed=0.072000m/h.</desc>
<speed>0.020000</speed>
</trkpt>
<trkpt lat="55.729752" lon="26.243231">
<ele>166.185669</ele>
<time>2010-07-18T08:20:24Z</time>
<desc>lat.=55.729752, lon.=26.243231, Alt.=166.185669m. Speed=0.000000m/h.</desc>
<speed>0.000000</speed>
</trkpt>
<trkpt lat="55.729752" lon="26.243231">
<ele>166.185669</ele>
<time>2010-07-18T08:20:25Z</time>
<desc>lat.=55.729752, lon.=26.243231, Alt.=166.185669m. Speed=0.000000m/h.</desc>
<speed>0.000000</speed>
</trkpt>
<trkpt lat="55.729752" lon="26.243231">
<ele>166.185669</ele>
<time>2010-07-18T08:20:26Z</time>
<desc>lat.=55.729752, lon.=26.243231, Alt.=166.185669m. Speed=0.000000m/h.</desc>
<speed>0.000000</speed>
</trkpt>
<trkpt lat="55.729752" lon="26.243231">
<ele>166.177856</ele>
<time>2010-07-18T08:20:27Z</time>
<desc>lat.=55.729752, lon.=26.243231, Alt.=166.177856m. Speed=0.072000m/h.</desc>
<speed>0.020000</speed>
</trkpt>
<trkpt lat="55.729752" lon="26.243231">
<ele>166.177856</ele>
<time>2010-07-18T08:20:28Z</time>
<desc>lat.=55.729752, lon.=26.243231, Alt.=166.177856m. Speed=0.000000m/h.</desc>
<speed>0.000000</speed>
</trkpt>
<trkpt lat="55.729752" lon="26.243231">
<ele>166.173950</ele>
<time>2010-07-18T08:20:29Z</time>
<desc>lat.=55.729752, lon.=26.243231, Alt.=166.173950m. Speed=0.036000m/h.</desc>
<speed>0.010000</speed>
</trkpt>
<trkpt lat="55.729752" lon="26.243231">
<ele>166.173950</ele>
<time>2010-07-18T08:20:30Z</time>
<desc>lat.=55.729752, lon.=26.243231, Alt.=166.173950m. Speed=0.036000m/h.</desc>
<speed>0.010000</speed>
</trkpt>
<trkpt lat="55.729752" lon="26.243231">
<ele>166.173950</ele>
<time>2010-07-18T08:20:31Z</time>
<desc>lat.=55.729752, lon.=26.243231, Alt.=166.173950m. Speed=0.036000m/h.</desc>
<speed>0.010000</speed>
</trkpt>
<trkpt lat="55.729752" lon="26.243231">
<ele>166.173950</ele>
<time>2010-07-18T08:20:32Z</time>
<desc>lat.=55.729752, lon.=26.243231, Alt.=166.173950m. Speed=0.036000m/h.</desc>
<speed>0.010000</speed>
</trkpt>
<trkpt lat="55.729752" lon="26.243231">
<ele>166.173950</ele>
<time>2010-07-18T08:20:33Z</time>
<desc>lat.=55.729752, lon.=26.243231, Alt.=166.173950m. Speed=0.036000m/h.</desc>
<speed>0.010000</speed>
</trkpt>
<trkpt lat="55.729752" lon="26.243231">
<ele>166.170044</ele>
<time>2010-07-18T08:20:34Z</time>
<desc>lat.=55.729752, lon.=26.243231, Alt.=166.170044m. Speed=0.036000m/h.</desc>
<speed>0.010000</speed>
</trkpt>
<trkpt lat="55.729752" lon="26.243231">
<ele>166.170044</ele>
<time>2010-07-18T08:20:35Z</time>
<desc>lat.=55.729752, lon.=26.243231, Alt.=166.170044m. Speed=0.036000m/h.</desc>
<speed>0.010000</speed>
</trkpt>
<trkpt lat="55.729752" lon="26.243231">
<ele>166.173950</ele>
<time>2010-07-18T08:20:36Z</time>
<desc>lat.=55.729752, lon.=26.243231, Alt.=166.173950m. Speed=0.072000m/h.</desc>
<speed>0.020000</speed>
</trkpt>
<trkpt lat="55.729752" lon="26.243233">
<ele>166.170044</ele>
<time>2010-07-18T08:20:37Z</time>
<desc>lat.=55.729752, lon.=26.243233, Alt.=166.170044m. Speed=0.108000m/h.</desc>
<speed>0.030000</speed>
</trkpt>
<trkpt lat="55.729752" lon="26.243233">
<ele>166.173950</ele>
<time>2010-07-18T08:20:38Z</time>
<desc>lat.=55.729752, lon.=26.243233, Alt.=166.173950m. Speed=0.036000m/h.</desc>
<speed>0.010000</speed>
</trkpt>
<trkpt lat="55.729752" lon="26.243233">
<ele>166.173950</ele>
<time>2010-07-18T08:20:39Z</time>
<desc>lat.=55.729752, lon.=26.243233, Alt.=166.173950m. Speed=0.000000m/h.</desc>
<speed>0.000000</speed>
</trkpt>
<trkpt lat="55.729752" lon="26.243233">
<ele>166.173950</ele>
<time>2010-07-18T08:20:40Z</time>
<desc>lat.=55.729752, lon.=26.243233, Alt.=166.173950m. Speed=0.000000m/h.</desc>
<speed>0.000000</speed>
</trkpt>
<trkpt lat="55.729752" lon="26.243233">
<ele>166.173950</ele>
<time>2010-07-18T08:20:41Z</time>
<desc>lat.=55.729752, lon.=26.243233, Alt.=166.173950m. Speed=0.072000m/h.</desc>
<speed>0.020000</speed>
</trkpt>
<trkpt lat="55.729752" lon="26.243233">
<ele>166.177856</ele>
<time>2010-07-18T08:20:42Z</time>
<desc>lat.=55.729752, lon.=26.243233, Alt.=166.177856m. Speed=0.144000m/h.</desc>
<speed>0.040000</speed>
</trkpt>
<trkpt lat="55.729752" lon="26.243231">
<ele>166.181763</ele>
<time>2010-07-18T08:20:43Z</time>
<desc>lat.=55.729752, lon.=26.243231, Alt.=166.181763m. Speed=0.180000m/h.</desc>
<speed>0.050000</speed>
</trkpt>
<trkpt lat="55.729752" lon="26.243231">
<ele>166.181763</ele>
<time>2010-07-18T08:20:44Z</time>
<desc>lat.=55.729752, lon.=26.243231, Alt.=166.181763m. Speed=0.108000m/h.</desc>
<speed>0.030000</speed>
</trkpt>
<trkpt lat="55.729752" lon="26.243231">
<ele>166.185669</ele>
<time>2010-07-18T08:20:45Z</time>
<desc>lat.=55.729752, lon.=26.243231, Alt.=166.185669m. Speed=0.144000m/h.</desc>
<speed>0.040000</speed>
</trkpt>
<trkpt lat="55.729752" lon="26.243229">
<ele>166.185669</ele>
<time>2010-07-18T08:20:46Z</time>
<desc>lat.=55.729752, lon.=26.243229, Alt.=166.185669m. Speed=0.216000m/h.</desc>
<speed>0.060000</speed>
</trkpt>
<trkpt lat="55.729752" lon="26.243229">
<ele>166.193481</ele>
<time>2010-07-18T08:20:47Z</time>
<desc>lat.=55.729752, lon.=26.243229, Alt.=166.193481m. Speed=0.216000m/h.</desc>
<speed>0.060000</speed>
</trkpt>
<trkpt lat="55.729752" lon="26.243227">
<ele>166.197388</ele>
<time>2010-07-18T08:20:48Z</time>
<desc>lat.=55.729752, lon.=26.243227, Alt.=166.197388m. Speed=0.288000m/h.</desc>
<speed>0.080000</speed>
</trkpt>
<trkpt lat="55.729752" lon="26.243227">
<ele>166.201294</ele>
<time>2010-07-18T08:20:49Z</time>
<desc>lat.=55.729752, lon.=26.243227, Alt.=166.201294m. Speed=0.324000m/h.</desc>
<speed>0.090000</speed>
</trkpt>
<trkpt lat="55.729752" lon="26.243225">
<ele>166.201294</ele>
<time>2010-07-18T08:20:50Z</time>
<desc>lat.=55.729752, lon.=26.243225, Alt.=166.201294m. Speed=0.252000m/h.</desc>
<speed>0.070000</speed>
</trkpt>
<trkpt lat="55.729748" lon="26.243223">
<ele>166.205200</ele>
<time>2010-07-18T08:20:51Z</time>
<desc>lat.=55.729748, lon.=26.243223, Alt.=166.205200m. Speed=0.288000m/h.</desc>
<speed>0.080000</speed>
</trkpt>
<trkpt lat="55.729748" lon="26.243223">
<ele>166.205200</ele>
<time>2010-07-18T08:20:52Z</time>
<desc>lat.=55.729748, lon.=26.243223, Alt.=166.205200m. Speed=0.288000m/h.</desc>
<speed>0.080000</speed>
</trkpt>
<trkpt lat="55.729748" lon="26.243221">
<ele>166.209106</ele>
<time>2010-07-18T08:20:53Z</time>
<desc>lat.=55.729748, lon.=26.243221, Alt.=166.209106m. Speed=0.396000m/h.</desc>
<speed>0.110000</speed>
</trkpt>
<trkpt lat="55.729748" lon="26.243219">
<ele>166.209106</ele>
<time>2010-07-18T08:20:54Z</time>
<desc>lat.=55.729748, lon.=26.243219, Alt.=166.209106m. Speed=0.432000m/h.</desc>
<speed>0.120000</speed>
</trkpt>
<trkpt lat="55.729748" lon="26.243217">
<ele>166.213013</ele>
<time>2010-07-18T08:20:55Z</time>
<desc>lat.=55.729748, lon.=26.243217, Alt.=166.213013m. Speed=0.432000m/h.</desc>
<speed>0.120000</speed>
</trkpt>
<trkpt lat="55.729748" lon="26.243216">
<ele>166.213013</ele>
<time>2010-07-18T08:20:56Z</time>
<desc>lat.=55.729748, lon.=26.243216, Alt.=166.213013m. Speed=0.396000m/h.</desc>
<speed>0.110000</speed>
</trkpt>
<trkpt lat="55.729748" lon="26.243214">
<ele>166.216919</ele>
<time>2010-07-18T08:20:57Z</time>
<desc>lat.=55.729748, lon.=26.243214, Alt.=166.216919m. Speed=0.360000m/h.</desc>
<speed>0.100000</speed>
</trkpt>
<trkpt lat="55.729748" lon="26.243212">
<ele>166.216919</ele>
<time>2010-07-18T08:20:58Z</time>
<desc>lat.=55.729748, lon.=26.243212, Alt.=166.216919m. Speed=0.324000m/h.</desc>
<speed>0.090000</speed>
</trkpt>
<trkpt lat="55.729748" lon="26.243212">
<ele>166.220825</ele>
<time>2010-07-18T08:20:59Z</time>
<desc>lat.=55.729748, lon.=26.243212, Alt.=166.220825m. Speed=0.252000m/h.</desc>
<speed>0.070000</speed>
</trkpt>
<trkpt lat="55.729748" lon="26.243210">
<ele>166.224731</ele>
<time>2010-07-18T08:21:00Z</time>
<desc>lat.=55.729748, lon.=26.243210, Alt.=166.224731m. Speed=0.216000m/h.</desc>
<speed>0.060000</speed>
</trkpt>
<trkpt lat="55.729748" lon="26.243210">
<ele>166.224731</ele>
<time>2010-07-18T08:21:01Z</time>
<desc>lat.=55.729748, lon.=26.243210, Alt.=166.224731m. Speed=0.216000m/h.</desc>
<speed>0.060000</speed>
</trkpt>
<trkpt lat="55.729748" lon="26.243208">
<ele>166.224731</ele>
<time>2010-07-18T08:21:02Z</time>
<desc>lat.=55.729748, lon.=26.243208, Alt.=166.224731m. Speed=0.108000m/h.</desc>
<speed>0.030000</speed>
</trkpt>
<trkpt lat="55.729744" lon="26.243208">
<ele>166.220825</ele>
<time>2010-07-18T08:21:03Z</time>
<desc>lat.=55.729744, lon.=26.243208, Alt.=166.220825m. Speed=0.036000m/h.</desc>
<speed>0.010000</speed>
</trkpt>
<trkpt lat="55.729744" lon="26.243208">
<ele>166.216919</ele>
<time>2010-07-18T08:21:04Z</time>
<desc>lat.=55.729744, lon.=26.243208, Alt.=166.216919m. Speed=0.108000m/h.</desc>
<speed>0.030000</speed>
</trkpt>
<trkpt lat="55.729744" lon="26.243208">
<ele>166.213013</ele>
<time>2010-07-18T08:21:05Z</time>
<desc>lat.=55.729744, lon.=26.243208, Alt.=166.213013m. Speed=0.108000m/h.</desc>
<speed>0.030000</speed>
</trkpt>
<trkpt lat="55.729744" lon="26.243208">
<ele>166.209106</ele>
<time>2010-07-18T08:21:06Z</time>
<desc>lat.=55.729744, lon.=26.243208, Alt.=166.209106m. Speed=0.000000m/h.</desc>
<speed>0.000000</speed>
</trkpt>
<trkpt lat="55.729744" lon="26.243208">
<ele>166.201294</ele>
<time>2010-07-18T08:21:07Z</time>
<desc>lat.=55.729744, lon.=26.243208, Alt.=166.201294m. Speed=0.000000m/h.</desc>
<speed>0.000000</speed>
</trkpt>
<trkpt lat="55.729744" lon="26.243208">
<ele>166.193481</ele>
<time>2010-07-18T08:21:08Z</time>
<desc>lat.=55.729744, lon.=26.243208, Alt.=166.193481m. Speed=0.000000m/h.</desc>
<speed>0.000000</speed>
</trkpt>
<trkpt lat="55.729744" lon="26.243208">
<ele>166.185669</ele>
<time>2010-07-18T08:21:09Z</time>
<desc>lat.=55.729744, lon.=26.243208, Alt.=166.185669m. Speed=0.072000m/h.</desc>
<speed>0.020000</speed>
</trkpt>
<trkpt lat="55.729744" lon="26.243206">
<ele>166.177856</ele>
<time>2010-07-18T08:21:10Z</time>
<desc>lat.=55.729744, lon.=26.243206, Alt.=166.177856m. Speed=0.108000m/h.</desc>
<speed>0.030000</speed>
</trkpt>
<trkpt lat="55.729744" lon="26.243206">
<ele>166.166138</ele>
<time>2010-07-18T08:21:11Z</time>
<desc>lat.=55.729744, lon.=26.243206, Alt.=166.166138m. Speed=0.180000m/h.</desc>
<speed>0.050000</speed>
</trkpt>
<trkpt lat="55.729744" lon="26.243206">
<ele>166.158325</ele>
<time>2010-07-18T08:21:12Z</time>
<desc>lat.=55.729744, lon.=26.243206, Alt.=166.158325m. Speed=0.144000m/h.</desc>
<speed>0.040000</speed>
</trkpt>
<trkpt lat="55.729744" lon="26.243206">
<ele>166.154419</ele>
<time>2010-07-18T08:21:13Z</time>
<desc>lat.=55.729744, lon.=26.243206, Alt.=166.154419m. Speed=0.072000m/h.</desc>
<speed>0.020000</speed>
</trkpt>
<trkpt lat="55.729744" lon="26.243206">
<ele>166.154419</ele>
<time>2010-07-18T08:21:14Z</time>
<desc>lat.=55.729744, lon.=26.243206, Alt.=166.154419m. Speed=0.036000m/h.</desc>
<speed>0.010000</speed>
</trkpt>
<trkpt lat="55.729744" lon="26.243206">
<ele>166.150513</ele>
<time>2010-07-18T08:21:15Z</time>
<desc>lat.=55.729744, lon.=26.243206, Alt.=166.150513m. Speed=0.072000m/h.</desc>
<speed>0.020000</speed>
</trkpt>
<trkpt lat="55.729744" lon="26.243206">
<ele>166.150513</ele>
<time>2010-07-18T08:21:16Z</time>
<desc>lat.=55.729744, lon.=26.243206, Alt.=166.150513m. Speed=0.000000m/h.</desc>
<speed>0.000000</speed>
</trkpt>
<trkpt lat="55.729744" lon="26.243206">
<ele>166.142700</ele>
<time>2010-07-18T08:21:17Z</time>
<desc>lat.=55.729744, lon.=26.243206, Alt.=166.142700m. Speed=0.000000m/h.</desc>
<speed>0.000000</speed>
</trkpt>
<trkpt lat="55.729744" lon="26.243204">
<ele>166.142700</ele>
<time>2010-07-18T08:21:18Z</time>
<desc>lat.=55.729744, lon.=26.243204, Alt.=166.142700m. Speed=0.108000m/h.</desc>
<speed>0.030000</speed>
</trkpt>
<trkpt lat="55.729744" lon="26.243204">
<ele>166.138794</ele>
<time>2010-07-18T08:21:19Z</time>
<desc>lat.=55.729744, lon.=26.243204, Alt.=166.138794m. Speed=0.036000m/h.</desc>
<speed>0.010000</speed>
</trkpt>
<trkpt lat="55.729744" lon="26.243204">
<ele>166.138794</ele>
<time>2010-07-18T08:21:20Z</time>
<desc>lat.=55.729744, lon.=26.243204, Alt.=166.138794m. Speed=0.072000m/h.</desc>
<speed>0.020000</speed>
</trkpt>
<trkpt lat="55.729744" lon="26.243204">
<ele>166.134888</ele>
<time>2010-07-18T08:21:21Z</time>
<desc>lat.=55.729744, lon.=26.243204, Alt.=166.134888m. Speed=0.000000m/h.</desc>
<speed>0.000000</speed>
</trkpt>
<trkpt lat="55.729744" lon="26.243204">
<ele>166.130981</ele>
<time>2010-07-18T08:21:22Z</time>
<desc>lat.=55.729744, lon.=26.243204, Alt.=166.130981m. Speed=0.036000m/h.</desc>
<speed>0.010000</speed>
</trkpt>
<trkpt lat="55.729744" lon="26.243204">
<ele>166.127075</ele>
<time>2010-07-18T08:21:23Z</time>
<desc>lat.=55.729744, lon.=26.243204, Alt.=166.127075m. Speed=0.036000m/h.</desc>
<speed>0.010000</speed>
</trkpt>
<trkpt lat="55.729744" lon="26.243204">
<ele>166.127075</ele>
<time>2010-07-18T08:21:24Z</time>
<desc>lat.=55.729744, lon.=26.243204, Alt.=166.127075m. Speed=0.036000m/h.</desc>
<speed>0.010000</speed>
</trkpt>
<trkpt lat="55.729744" lon="26.243204">
<ele>166.127075</ele>
<time>2010-07-18T08:21:25Z</time>
<desc>lat.=55.729744, lon.=26.243204, Alt.=166.127075m. Speed=0.036000m/h.</desc>
<speed>0.010000</speed>
</trkpt>
<trkpt lat="55.729744" lon="26.243204">
<ele>166.123169</ele>
<time>2010-07-18T08:21:26Z</time>
<desc>lat.=55.729744, lon.=26.243204, Alt.=166.123169m. Speed=0.000000m/h.</desc>
<speed>0.000000</speed>
</trkpt>
<trkpt lat="55.729744" lon="26.243204">
<ele>166.119263</ele>
<time>2010-07-18T08:21:27Z</time>
<desc>lat.=55.729744, lon.=26.243204, Alt.=166.119263m. Speed=0.036000m/h.</desc>
<speed>0.010000</speed>
</trkpt>
<trkpt lat="55.729744" lon="26.243204">
<ele>166.119263</ele>
<time>2010-07-18T08:21:28Z</time>
<desc>lat.=55.729744, lon.=26.243204, Alt.=166.119263m. Speed=0.036000m/h.</desc>
<speed>0.010000</speed>
</trkpt>
<trkpt lat="55.729744" lon="26.243204">
<ele>166.115356</ele>
<time>2010-07-18T08:21:29Z</time>
<desc>lat.=55.729744, lon.=26.243204, Alt.=166.115356m. Speed=0.000000m/h.</desc>
<speed>0.000000</speed>
</trkpt>
<trkpt lat="55.729744" lon="26.243204">
<ele>166.111450</ele>
<time>2010-07-18T08:21:30Z</time>
<desc>lat.=55.729744, lon.=26.243204, Alt.=166.111450m. Speed=0.036000m/h.</desc>
<speed>0.010000</speed>
</trkpt>
<trkpt lat="55.729744" lon="26.243204">
<ele>166.111450</ele>
<time>2010-07-18T08:21:31Z</time>
<desc>lat.=55.729744, lon.=26.243204, Alt.=166.111450m. Speed=0.072000m/h.</desc>
<speed>0.020000</speed>
</trkpt>
<trkpt lat="55.729744" lon="26.243204">
<ele>166.111450</ele>
<time>2010-07-18T08:21:32Z</time>
<desc>lat.=55.729744, lon.=26.243204, Alt.=166.111450m. Speed=0.036000m/h.</desc>
<speed>0.010000</speed>
</trkpt>
<trkpt lat="55.729744" lon="26.243204">
<ele>166.107544</ele>
<time>2010-07-18T08:21:33Z</time>
<desc>lat.=55.729744, lon.=26.243204, Alt.=166.107544m. Speed=0.108000m/h.</desc>
<speed>0.030000</speed>
</trkpt>
<trkpt lat="55.729744" lon="26.243204">
<ele>166.107544</ele>
<time>2010-07-18T08:21:34Z</time>
<desc>lat.=55.729744, lon.=26.243204, Alt.=166.107544m. Speed=0.000000m/h.</desc>
<speed>0.000000</speed>
</trkpt>
<trkpt lat="55.729744" lon="26.243204">
<ele>166.103638</ele>
<time>2010-07-18T08:21:35Z</time>
<desc>lat.=55.729744, lon.=26.243204, Alt.=166.103638m. Speed=0.000000m/h.</desc>
<speed>0.000000</speed>
</trkpt>
<trkpt lat="55.729744" lon="26.243204">
<ele>166.107544</ele>
<time>2010-07-18T08:21:36Z</time>
<desc>lat.=55.729744, lon.=26.243204, Alt.=166.107544m. Speed=0.036000m/h.</desc>
<speed>0.010000</speed>
</trkpt>
<trkpt lat="55.729744" lon="26.243204">
<ele>166.099731</ele>
<time>2010-07-18T08:21:37Z</time>
<desc>lat.=55.729744, lon.=26.243204, Alt.=166.099731m. Speed=0.036000m/h.</desc>
<speed>0.010000</speed>
</trkpt>
<trkpt lat="55.729744" lon="26.243204">
<ele>166.095825</ele>
<time>2010-07-18T08:21:38Z</time>
<desc>lat.=55.729744, lon.=26.243204, Alt.=166.095825m. Speed=0.072000m/h.</desc>
<speed>0.020000</speed>
</trkpt>
<trkpt lat="55.729744" lon="26.243204">
<ele>166.088013</ele>
<time>2010-07-18T08:21:39Z</time>
<desc>lat.=55.729744, lon.=26.243204, Alt.=166.088013m. Speed=0.036000m/h.</desc>
<speed>0.010000</speed>
</trkpt>
<trkpt lat="55.729744" lon="26.243204">
<ele>166.084106</ele>
<time>2010-07-18T08:21:40Z</time>
<desc>lat.=55.729744, lon.=26.243204, Alt.=166.084106m. Speed=0.000000m/h.</desc>
<speed>0.000000</speed>
</trkpt>
<trkpt lat="55.729744" lon="26.243204">
<ele>166.084106</ele>
<time>2010-07-18T08:21:41Z</time>
<desc>lat.=55.729744, lon.=26.243204, Alt.=166.084106m. Speed=0.000000m/h.</desc>
<speed>0.000000</speed>
</trkpt>
<trkpt lat="55.729744" lon="26.243204">
<ele>166.080200</ele>
<time>2010-07-18T08:21:42Z</time>
<desc>lat.=55.729744, lon.=26.243204, Alt.=166.080200m. Speed=0.036000m/h.</desc>
<speed>0.010000</speed>
</trkpt>
<trkpt lat="55.729744" lon="26.243204">
<ele>166.076294</ele>
<time>2010-07-18T08:21:43Z</time>
<desc>lat.=55.729744, lon.=26.243204, Alt.=166.076294m. Speed=0.036000m/h.</desc>
<speed>0.010000</speed>
</trkpt>
<trkpt lat="55.729744" lon="26.243204">
<ele>166.072388</ele>
<time>2010-07-18T08:21:44Z</time>
<desc>lat.=55.729744, lon.=26.243204, Alt.=166.072388m. Speed=0.072000m/h.</desc>
<speed>0.020000</speed>
</trkpt>
<trkpt lat="55.729744" lon="26.243204">
<ele>166.072388</ele>
<time>2010-07-18T08:21:45Z</time>
<desc>lat.=55.729744, lon.=26.243204, Alt.=166.072388m. Speed=0.036000m/h.</desc>
<speed>0.010000</speed>
</trkpt>
<trkpt lat="55.729744" lon="26.243204">
<ele>166.068481</ele>
<time>2010-07-18T08:21:46Z</time>
<desc>lat.=55.729744, lon.=26.243204, Alt.=166.068481m. Speed=0.036000m/h.</desc>
<speed>0.010000</speed>
</trkpt>
<trkpt lat="55.729744" lon="26.243204">
<ele>166.060669</ele>
<time>2010-07-18T08:21:47Z</time>
<desc>lat.=55.729744, lon.=26.243204, Alt.=166.060669m. Speed=0.072000m/h.</desc>
<speed>0.020000</speed>
</trkpt>
<trkpt lat="55.729744" lon="26.243204">
<ele>166.060669</ele>
<time>2010-07-18T08:21:48Z</time>
<desc>lat.=55.729744, lon.=26.243204, Alt.=166.060669m. Speed=0.072000m/h.</desc>
<speed>0.020000</speed>
</trkpt>
<trkpt lat="55.729744" lon="26.243204">
<ele>166.056763</ele>
<time>2010-07-18T08:21:49Z</time>
<desc>lat.=55.729744, lon.=26.243204, Alt.=166.056763m. Speed=0.036000m/h.</desc>
<speed>0.010000</speed>
</trkpt>
<trkpt lat="55.729744" lon="26.243204">
<ele>166.052856</ele>
<time>2010-07-18T08:21:50Z</time>
<desc>lat.=55.729744, lon.=26.243204, Alt.=166.052856m. Speed=0.036000m/h.</desc>
<speed>0.010000</speed>
</trkpt>
<trkpt lat="55.729744" lon="26.243204">
<ele>166.052856</ele>
<time>2010-07-18T08:21:51Z</time>
<desc>lat.=55.729744, lon.=26.243204, Alt.=166.052856m. Speed=0.036000m/h.</desc>
<speed>0.010000</speed>
</trkpt>
<trkpt lat="55.729744" lon="26.243204">
<ele>166.052856</ele>
<time>2010-07-18T08:21:52Z</time>
<desc>lat.=55.729744, lon.=26.243204, Alt.=166.052856m. Speed=0.036000m/h.</desc>
<speed>0.010000</speed>
</trkpt>
<trkpt lat="55.729744" lon="26.243204">
<ele>166.052856</ele>
<time>2010-07-18T08:21:53Z</time>
<desc>lat.=55.729744, lon.=26.243204, Alt.=166.052856m. Speed=0.072000m/h.</desc>
<speed>0.020000</speed>
</trkpt>
<trkpt lat="55.729744" lon="26.243204">
<ele>166.052856</ele>
<time>2010-07-18T08:21:54Z</time>
<desc>lat.=55.729744, lon.=26.243204, Alt.=166.052856m. Speed=0.036000m/h.</desc>
<speed>0.010000</speed>
</trkpt>
<trkpt lat="55.729744" lon="26.243204">
<ele>166.052856</ele>
<time>2010-07-18T08:21:55Z</time>
<desc>lat.=55.729744, lon.=26.243204, Alt.=166.052856m. Speed=0.036000m/h.</desc>
<speed>0.010000</speed>
</trkpt>
<trkpt lat="55.729744" lon="26.243204">
<ele>166.048950</ele>
<time>2010-07-18T08:21:56Z</time>
<desc>lat.=55.729744, lon.=26.243204, Alt.=166.048950m. Speed=0.036000m/h.</desc>
<speed>0.010000</speed>
</trkpt>
<trkpt lat="55.729744" lon="26.243204">
<ele>166.048950</ele>
<time>2010-07-18T08:21:57Z</time>
<desc>lat.=55.729744, lon.=26.243204, Alt.=166.048950m. Speed=0.036000m/h.</desc>
<speed>0.010000</speed>
</trkpt>
<trkpt lat="55.729744" lon="26.243204">
<ele>166.045044</ele>
<time>2010-07-18T08:21:58Z</time>
<desc>lat.=55.729744, lon.=26.243204, Alt.=166.045044m. Speed=0.036000m/h.</desc>
<speed>0.010000</speed>
</trkpt>
<trkpt lat="55.729744" lon="26.243204">
<ele>166.041138</ele>
<time>2010-07-18T08:21:59Z</time>
<desc>lat.=55.729744, lon.=26.243204, Alt.=166.041138m. Speed=0.072000m/h.</desc>
<speed>0.020000</speed>
</trkpt>
<trkpt lat="55.729744" lon="26.243204">
<ele>166.041138</ele>
<time>2010-07-18T08:22:00Z</time>
<desc>lat.=55.729744, lon.=26.243204, Alt.=166.041138m. Speed=0.036000m/h.</desc>
<speed>0.010000</speed>
</trkpt>
<trkpt lat="55.729744" lon="26.243204">
<ele>166.041138</ele>
<time>2010-07-18T08:22:01Z</time>
<desc>lat.=55.729744, lon.=26.243204, Alt.=166.041138m. Speed=0.000000m/h.</desc>
<speed>0.000000</speed>
</trkpt>
<trkpt lat="55.729744" lon="26.243204">
<ele>166.045044</ele>
<time>2010-07-18T08:22:02Z</time>
<desc>lat.=55.729744, lon.=26.243204, Alt.=166.045044m. Speed=0.072000m/h.</desc>
<speed>0.020000</speed>
</trkpt>
<trkpt lat="55.729744" lon="26.243204">
<ele>166.045044</ele>
<time>2010-07-18T08:22:03Z</time>
<desc>lat.=55.729744, lon.=26.243204, Alt.=166.045044m. Speed=0.072000m/h.</desc>
<speed>0.020000</speed>
</trkpt>
<trkpt lat="55.729744" lon="26.243204">
<ele>166.048950</ele>
<time>2010-07-18T08:22:04Z</time>
<desc>lat.=55.729744, lon.=26.243204, Alt.=166.048950m. Speed=0.072000m/h.</desc>
<speed>0.020000</speed>
</trkpt>
<trkpt lat="55.729744" lon="26.243204">
<ele>166.048950</ele>
<time>2010-07-18T08:22:05Z</time>
<desc>lat.=55.729744, lon.=26.243204, Alt.=166.048950m. Speed=0.036000m/h.</desc>
<speed>0.010000</speed>
</trkpt>
<trkpt lat="55.729744" lon="26.243204">
<ele>166.048950</ele>
<time>2010-07-18T08:22:06Z</time>
<desc>lat.=55.729744, lon.=26.243204, Alt.=166.048950m. Speed=0.072000m/h.</desc>
<speed>0.020000</speed>
</trkpt>
<trkpt lat="55.729744" lon="26.243204">
<ele>166.045044</ele>
<time>2010-07-18T08:22:07Z</time>
<desc>lat.=55.729744, lon.=26.243204, Alt.=166.045044m. Speed=0.036000m/h.</desc>
<speed>0.010000</speed>
</trkpt>
<trkpt lat="55.729744" lon="26.243204">
<ele>166.045044</ele>
<time>2010-07-18T08:22:08Z</time>
<desc>lat.=55.729744, lon.=26.243204, Alt.=166.045044m. Speed=0.000000m/h.</desc>
<speed>0.000000</speed>
</trkpt>
<trkpt lat="55.729744" lon="26.243204">
<ele>166.048950</ele>
<time>2010-07-18T08:22:09Z</time>
<desc>lat.=55.729744, lon.=26.243204, Alt.=166.048950m. Speed=0.000000m/h.</desc>
<speed>0.000000</speed>
</trkpt>
<trkpt lat="55.729744" lon="26.243204">
<ele>166.048950</ele>
<time>2010-07-18T08:22:10Z</time>
<desc>lat.=55.729744, lon.=26.243204, Alt.=166.048950m. Speed=0.000000m/h.</desc>
<speed>0.000000</speed>
</trkpt>
<trkpt lat="55.729744" lon="26.243204">
<ele>166.052856</ele>
<time>2010-07-18T08:22:11Z</time>
<desc>lat.=55.729744, lon.=26.243204, Alt.=166.052856m. Speed=0.036000m/h.</desc>
<speed>0.010000</speed>
</trkpt>
<trkpt lat="55.729744" lon="26.243204">
<ele>166.052856</ele>
<time>2010-07-18T08:22:12Z</time>
<desc>lat.=55.729744, lon.=26.243204, Alt.=166.052856m. Speed=0.036000m/h.</desc>
<speed>0.010000</speed>
</trkpt>
<trkpt lat="55.729744" lon="26.243204">
<ele>166.052856</ele>
<time>2010-07-18T08:22:13Z</time>
<desc>lat.=55.729744, lon.=26.243204, Alt.=166.052856m. Speed=0.036000m/h.</desc>
<speed>0.010000</speed>
</trkpt>
<trkpt lat="55.729744" lon="26.243204">
<ele>166.052856</ele>
<time>2010-07-18T08:22:14Z</time>
<desc>lat.=55.729744, lon.=26.243204, Alt.=166.052856m. Speed=0.072000m/h.</desc>
<speed>0.020000</speed>
</trkpt>
<trkpt lat="55.729744" lon="26.243204">
<ele>166.048950</ele>
<time>2010-07-18T08:22:15Z</time>
<desc>lat.=55.729744, lon.=26.243204, Alt.=166.048950m. Speed=0.108000m/h.</desc>
<speed>0.030000</speed>
</trkpt>
<trkpt lat="55.729744" lon="26.243204">
<ele>166.045044</ele>
<time>2010-07-18T08:22:16Z</time>
<desc>lat.=55.729744, lon.=26.243204, Alt.=166.045044m. Speed=0.108000m/h.</desc>
<speed>0.030000</speed>
</trkpt>
<trkpt lat="55.729744" lon="26.243206">
<ele>166.037231</ele>
<time>2010-07-18T08:22:17Z</time>
<desc>lat.=55.729744, lon.=26.243206, Alt.=166.037231m. Speed=0.144000m/h.</desc>
<speed>0.040000</speed>
</trkpt>
<trkpt lat="55.729744" lon="26.243206">
<ele>166.029419</ele>
<time>2010-07-18T08:22:18Z</time>
<desc>lat.=55.729744, lon.=26.243206, Alt.=166.029419m. Speed=0.144000m/h.</desc>
<speed>0.040000</speed>
</trkpt>
<trkpt lat="55.729744" lon="26.243206">
<ele>166.021606</ele>
<time>2010-07-18T08:22:19Z</time>
<desc>lat.=55.729744, lon.=26.243206, Alt.=166.021606m. Speed=0.072000m/h.</desc>
<speed>0.020000</speed>
</trkpt>
<trkpt lat="55.729744" lon="26.243206">
<ele>166.009888</ele>
<time>2010-07-18T08:22:20Z</time>
<desc>lat.=55.729744, lon.=26.243206, Alt.=166.009888m. Speed=0.144000m/h.</desc>
<speed>0.040000</speed>
</trkpt>
<trkpt lat="55.729744" lon="26.243208">
<ele>165.998169</ele>
<time>2010-07-18T08:22:21Z</time>
<desc>lat.=55.729744, lon.=26.243208, Alt.=165.998169m. Speed=0.144000m/h.</desc>
<speed>0.040000</speed>
</trkpt>
<trkpt lat="55.729744" lon="26.243208">
<ele>165.986450</ele>
<time>2010-07-18T08:22:22Z</time>
<desc>lat.=55.729744, lon.=26.243208, Alt.=165.986450m. Speed=0.144000m/h.</desc>
<speed>0.040000</speed>
</trkpt>
<trkpt lat="55.729744" lon="26.243210">
<ele>165.974731</ele>
<time>2010-07-18T08:22:23Z</time>
<desc>lat.=55.729744, lon.=26.243210, Alt.=165.974731m. Speed=0.144000m/h.</desc>
<speed>0.040000</speed>
</trkpt>
<trkpt lat="55.729744" lon="26.243210">
<ele>165.963013</ele>
<time>2010-07-18T08:22:24Z</time>
<desc>lat.=55.729744, lon.=26.243210, Alt.=165.963013m. Speed=0.108000m/h.</desc>
<speed>0.030000</speed>
</trkpt>
<trkpt lat="55.729744" lon="26.243210">
<ele>165.947388</ele>
<time>2010-07-18T08:22:25Z</time>
<desc>lat.=55.729744, lon.=26.243210, Alt.=165.947388m. Speed=0.072000m/h.</desc>
<speed>0.020000</speed>
</trkpt>
<trkpt lat="55.729744" lon="26.243210">
<ele>165.931763</ele>
<time>2010-07-18T08:22:26Z</time>
<desc>lat.=55.729744, lon.=26.243210, Alt.=165.931763m. Speed=0.180000m/h.</desc>
<speed>0.050000</speed>
</trkpt>
<trkpt lat="55.729744" lon="26.243212">
<ele>165.912231</ele>
<time>2010-07-18T08:22:27Z</time>
<desc>lat.=55.729744, lon.=26.243212, Alt.=165.912231m. Speed=0.144000m/h.</desc>
<speed>0.040000</speed>
</trkpt>
<trkpt lat="55.729744" lon="26.243212">
<ele>165.892700</ele>
<time>2010-07-18T08:22:28Z</time>
<desc>lat.=55.729744, lon.=26.243212, Alt.=165.892700m. Speed=0.180000m/h.</desc>
<speed>0.050000</speed>
</trkpt>
<trkpt lat="55.729744" lon="26.243214">
<ele>165.873169</ele>
<time>2010-07-18T08:22:29Z</time>
<desc>lat.=55.729744, lon.=26.243214, Alt.=165.873169m. Speed=0.180000m/h.</desc>
<speed>0.050000</speed>
</trkpt>
<trkpt lat="55.729744" lon="26.243214">
<ele>165.849731</ele>
<time>2010-07-18T08:22:30Z</time>
<desc>lat.=55.729744, lon.=26.243214, Alt.=165.849731m. Speed=0.252000m/h.</desc>
<speed>0.070000</speed>
</trkpt>
<trkpt lat="55.729744" lon="26.243216">
<ele>165.830200</ele>
<time>2010-07-18T08:22:31Z</time>
<desc>lat.=55.729744, lon.=26.243216, Alt.=165.830200m. Speed=0.180000m/h.</desc>
<speed>0.050000</speed>
</trkpt>
<trkpt lat="55.729744" lon="26.243217">
<ele>165.806763</ele>
<time>2010-07-18T08:22:32Z</time>
<desc>lat.=55.729744, lon.=26.243217, Alt.=165.806763m. Speed=0.216000m/h.</desc>
<speed>0.060000</speed>
</trkpt>
<trkpt lat="55.729744" lon="26.243217">
<ele>165.779419</ele>
<time>2010-07-18T08:22:33Z</time>
<desc>lat.=55.729744, lon.=26.243217, Alt.=165.779419m. Speed=0.252000m/h.</desc>
<speed>0.070000</speed>
</trkpt>
<trkpt lat="55.729744" lon="26.243219">
<ele>165.755981</ele>
<time>2010-07-18T08:22:34Z</time>
<desc>lat.=55.729744, lon.=26.243219, Alt.=165.755981m. Speed=0.252000m/h.</desc>
<speed>0.070000</speed>
</trkpt>
<trkpt lat="55.729744" lon="26.243219">
<ele>165.728638</ele>
<time>2010-07-18T08:22:35Z</time>
<desc>lat.=55.729744, lon.=26.243219, Alt.=165.728638m. Speed=0.288000m/h.</desc>
<speed>0.080000</speed>
</trkpt>
<trkpt lat="55.729744" lon="26.243221">
<ele>165.693481</ele>
<time>2010-07-18T08:22:36Z</time>
<desc>lat.=55.729744, lon.=26.243221, Alt.=165.693481m. Speed=0.360000m/h.</desc>
<speed>0.100000</speed>
</trkpt>
<trkpt lat="55.729744" lon="26.243223">
<ele>165.662231</ele>
<time>2010-07-18T08:22:37Z</time>
<desc>lat.=55.729744, lon.=26.243223, Alt.=165.662231m. Speed=0.396000m/h.</desc>
<speed>0.110000</speed>
</trkpt>
<trkpt lat="55.729744" lon="26.243225">
<ele>165.630981</ele>
<time>2010-07-18T08:22:38Z</time>
<desc>lat.=55.729744, lon.=26.243225, Alt.=165.630981m. Speed=0.324000m/h.</desc>
<speed>0.090000</speed>
</trkpt>
<trkpt lat="55.729744" lon="26.243227">
<ele>165.599731</ele>
<time>2010-07-18T08:22:39Z</time>
<desc>lat.=55.729744, lon.=26.243227, Alt.=165.599731m. Speed=0.324000m/h.</desc>
<speed>0.090000</speed>
</trkpt>
<trkpt lat="55.729744" lon="26.243229">
<ele>165.568481</ele>
<time>2010-07-18T08:22:40Z</time>
<desc>lat.=55.729744, lon.=26.243229, Alt.=165.568481m. Speed=0.396000m/h.</desc>
<speed>0.110000</speed>
</trkpt>
<trkpt lat="55.729744" lon="26.243231">
<ele>165.541138</ele>
<time>2010-07-18T08:22:41Z</time>
<desc>lat.=55.729744, lon.=26.243231, Alt.=165.541138m. Speed=0.396000m/h.</desc>
<speed>0.110000</speed>
</trkpt>
<trkpt lat="55.729744" lon="26.243233">
<ele>165.513794</ele>
<time>2010-07-18T08:22:42Z</time>
<desc>lat.=55.729744, lon.=26.243233, Alt.=165.513794m. Speed=0.360000m/h.</desc>
<speed>0.100000</speed>
</trkpt>
<trkpt lat="55.729744" lon="26.243235">
<ele>165.482544</ele>
<time>2010-07-18T08:22:43Z</time>
<desc>lat.=55.729744, lon.=26.243235, Alt.=165.482544m. Speed=0.252000m/h.</desc>
<speed>0.070000</speed>
</trkpt>
<trkpt lat="55.729744" lon="26.243235">
<ele>165.451294</ele>
<time>2010-07-18T08:22:44Z</time>
<desc>lat.=55.729744, lon.=26.243235, Alt.=165.451294m. Speed=0.216000m/h.</desc>
<speed>0.060000</speed>
</trkpt>
<trkpt lat="55.729744" lon="26.243237">
<ele>165.423950</ele>
<time>2010-07-18T08:22:45Z</time>
<desc>lat.=55.729744, lon.=26.243237, Alt.=165.423950m. Speed=0.216000m/h.</desc>
<speed>0.060000</speed>
</trkpt>
<trkpt lat="55.729744" lon="26.243237">
<ele>165.400513</ele>
<time>2010-07-18T08:22:46Z</time>
<desc>lat.=55.729744, lon.=26.243237, Alt.=165.400513m. Speed=0.180000m/h.</desc>
<speed>0.050000</speed>
</trkpt>
<trkpt lat="55.729744" lon="26.243238">
<ele>165.373169</ele>
<time>2010-07-18T08:22:47Z</time>
<desc>lat.=55.729744, lon.=26.243238, Alt.=165.373169m. Speed=0.144000m/h.</desc>
<speed>0.040000</speed>
</trkpt>
<trkpt lat="55.729744" lon="26.243238">
<ele>165.345825</ele>
<time>2010-07-18T08:22:48Z</time>
<desc>lat.=55.729744, lon.=26.243238, Alt.=165.345825m. Speed=0.072000m/h.</desc>
<speed>0.020000</speed>
</trkpt>
<trkpt lat="55.729744" lon="26.243238">
<ele>165.322388</ele>
<time>2010-07-18T08:22:49Z</time>
<desc>lat.=55.729744, lon.=26.243238, Alt.=165.322388m. Speed=0.000000m/h.</desc>
<speed>0.000000</speed>
</trkpt>
<trkpt lat="55.729744" lon="26.243238">
<ele>165.298950</ele>
<time>2010-07-18T08:22:50Z</time>
<desc>lat.=55.729744, lon.=26.243238, Alt.=165.298950m. Speed=0.072000m/h.</desc>
<speed>0.020000</speed>
</trkpt>
<trkpt lat="55.729744" lon="26.243238">
<ele>165.271606</ele>
<time>2010-07-18T08:22:51Z</time>
<desc>lat.=55.729744, lon.=26.243238, Alt.=165.271606m. Speed=0.036000m/h.</desc>
<speed>0.010000</speed>
</trkpt>
<trkpt lat="55.729744" lon="26.243238">
<ele>165.244263</ele>
<time>2010-07-18T08:22:52Z</time>
<desc>lat.=55.729744, lon.=26.243238, Alt.=165.244263m. Speed=0.036000m/h.</desc>
<speed>0.010000</speed>
</trkpt>
<trkpt lat="55.729744" lon="26.243238">
<ele>165.216919</ele>
<time>2010-07-18T08:22:53Z</time>
<desc>lat.=55.729744, lon.=26.243238, Alt.=165.216919m. Speed=0.108000m/h.</desc>
<speed>0.030000</speed>
</trkpt>
<trkpt lat="55.729744" lon="26.243240">
<ele>165.189575</ele>
<time>2010-07-18T08:22:54Z</time>
<desc>lat.=55.729744, lon.=26.243240, Alt.=165.189575m. Speed=0.144000m/h.</desc>
<speed>0.040000</speed>
</trkpt>
<trkpt lat="55.729744" lon="26.243240">
<ele>165.166138</ele>
<time>2010-07-18T08:22:55Z</time>
<desc>lat.=55.729744, lon.=26.243240, Alt.=165.166138m. Speed=0.144000m/h.</desc>
<speed>0.040000</speed>
</trkpt>
<trkpt lat="55.729744" lon="26.243242">
<ele>165.134888</ele>
<time>2010-07-18T08:22:56Z</time>
<desc>lat.=55.729744, lon.=26.243242, Alt.=165.134888m. Speed=0.216000m/h.</desc>
<speed>0.060000</speed>
</trkpt>
<trkpt lat="55.729744" lon="26.243242">
<ele>165.127075</ele>
<time>2010-07-18T08:22:57Z</time>
<desc>lat.=55.729744, lon.=26.243242, Alt.=165.127075m. Speed=0.072000m/h.</desc>
<speed>0.020000</speed>
</trkpt>
<trkpt lat="55.729744" lon="26.243242">
<ele>165.123169</ele>
<time>2010-07-18T08:22:58Z</time>
<desc>lat.=55.729744, lon.=26.243242, Alt.=165.123169m. Speed=0.072000m/h.</desc>
<speed>0.020000</speed>
</trkpt>
<trkpt lat="55.729744" lon="26.243242">
<ele>165.123169</ele>
<time>2010-07-18T08:22:59Z</time>
<desc>lat.=55.729744, lon.=26.243242, Alt.=165.123169m. Speed=0.036000m/h.</desc>
<speed>0.010000</speed>
</trkpt>
<trkpt lat="55.729744" lon="26.243242">
<ele>165.123169</ele>
<time>2010-07-18T08:23:00Z</time>
<desc>lat.=55.729744, lon.=26.243242, Alt.=165.123169m. Speed=0.000000m/h.</desc>
<speed>0.000000</speed>
</trkpt>
<trkpt lat="55.729744" lon="26.243242">
<ele>165.115356</ele>
<time>2010-07-18T08:23:01Z</time>
<desc>lat.=55.729744, lon.=26.243242, Alt.=165.115356m. Speed=0.036000m/h.</desc>
<speed>0.010000</speed>
</trkpt>
<trkpt lat="55.729744" lon="26.243242">
<ele>165.115356</ele>
<time>2010-07-18T08:23:02Z</time>
<desc>lat.=55.729744, lon.=26.243242, Alt.=165.115356m. Speed=0.000000m/h.</desc>
<speed>0.000000</speed>
</trkpt>
<trkpt lat="55.729744" lon="26.243242">
<ele>165.115356</ele>
<time>2010-07-18T08:23:03Z</time>
<desc>lat.=55.729744, lon.=26.243242, Alt.=165.115356m. Speed=0.000000m/h.</desc>
<speed>0.000000</speed>
</trkpt>
<trkpt lat="55.729744" lon="26.243242">
<ele>165.119263</ele>
<time>2010-07-18T08:23:04Z</time>
<desc>lat.=55.729744, lon.=26.243242, Alt.=165.119263m. Speed=0.036000m/h.</desc>
<speed>0.010000</speed>
</trkpt>
<trkpt lat="55.729744" lon="26.243242">
<ele>165.123169</ele>
<time>2010-07-18T08:23:05Z</time>
<desc>lat.=55.729744, lon.=26.243242, Alt.=165.123169m. Speed=0.072000m/h.</desc>
<speed>0.020000</speed>
</trkpt>
<trkpt lat="55.729744" lon="26.243240">
<ele>165.127075</ele>
<time>2010-07-18T08:23:06Z</time>
<desc>lat.=55.729744, lon.=26.243240, Alt.=165.127075m. Speed=0.072000m/h.</desc>
<speed>0.020000</speed>
</trkpt>
<trkpt lat="55.729744" lon="26.243240">
<ele>165.127075</ele>
<time>2010-07-18T08:23:07Z</time>
<desc>lat.=55.729744, lon.=26.243240, Alt.=165.127075m. Speed=0.000000m/h.</desc>
<speed>0.000000</speed>
</trkpt>
<trkpt lat="55.729744" lon="26.243240">
<ele>165.130981</ele>
<time>2010-07-18T08:23:08Z</time>
<desc>lat.=55.729744, lon.=26.243240, Alt.=165.130981m. Speed=0.036000m/h.</desc>
<speed>0.010000</speed>
</trkpt>
<trkpt lat="55.729744" lon="26.243240">
<ele>165.134888</ele>
<time>2010-07-18T08:23:09Z</time>
<desc>lat.=55.729744, lon.=26.243240, Alt.=165.134888m. Speed=0.000000m/h.</desc>
<speed>0.000000</speed>
</trkpt>
<trkpt lat="55.729744" lon="26.243242">
<ele>165.138794</ele>
<time>2010-07-18T08:23:10Z</time>
<desc>lat.=55.729744, lon.=26.243242, Alt.=165.138794m. Speed=0.036000m/h.</desc>
<speed>0.010000</speed>
</trkpt>
<trkpt lat="55.729744" lon="26.243242">
<ele>165.142700</ele>
<time>2010-07-18T08:23:11Z</time>
<desc>lat.=55.729744, lon.=26.243242, Alt.=165.142700m. Speed=0.072000m/h.</desc>
<speed>0.020000</speed>
</trkpt>
<trkpt lat="55.729744" lon="26.243242">
<ele>165.146606</ele>
<time>2010-07-18T08:23:12Z</time>
<desc>lat.=55.729744, lon.=26.243242, Alt.=165.146606m. Speed=0.036000m/h.</desc>
<speed>0.010000</speed>
</trkpt>
<trkpt lat="55.729744" lon="26.243242">
<ele>165.150513</ele>
<time>2010-07-18T08:23:13Z</time>
<desc>lat.=55.729744, lon.=26.243242, Alt.=165.150513m. Speed=0.000000m/h.</desc>
<speed>0.000000</speed>
</trkpt>
<trkpt lat="55.729744" lon="26.243242">
<ele>165.146606</ele>
<time>2010-07-18T08:23:14Z</time>
<desc>lat.=55.729744, lon.=26.243242, Alt.=165.146606m. Speed=0.108000m/h.</desc>
<speed>0.030000</speed>
</trkpt>
<trkpt lat="55.729744" lon="26.243242">
<ele>165.142700</ele>
<time>2010-07-18T08:23:15Z</time>
<desc>lat.=55.729744, lon.=26.243242, Alt.=165.142700m. Speed=0.000000m/h.</desc>
<speed>0.000000</speed>
</trkpt>
<trkpt lat="55.729744" lon="26.243242">
<ele>165.138794</ele>
<time>2010-07-18T08:23:16Z</time>
<desc>lat.=55.729744, lon.=26.243242, Alt.=165.138794m. Speed=0.036000m/h.</desc>
<speed>0.010000</speed>
</trkpt>
<trkpt lat="55.729744" lon="26.243242">
<ele>165.134888</ele>
<time>2010-07-18T08:23:17Z</time>
<desc>lat.=55.729744, lon.=26.243242, Alt.=165.134888m. Speed=0.036000m/h.</desc>
<speed>0.010000</speed>
</trkpt>
<trkpt lat="55.729744" lon="26.243242">
<ele>165.130981</ele>
<time>2010-07-18T08:23:18Z</time>
<desc>lat.=55.729744, lon.=26.243242, Alt.=165.130981m. Speed=0.000000m/h.</desc>
<speed>0.000000</speed>
</trkpt>
<trkpt lat="55.729744" lon="26.243242">
<ele>165.127075</ele>
<time>2010-07-18T08:23:19Z</time>
<desc>lat.=55.729744, lon.=26.243242, Alt.=165.127075m. Speed=0.036000m/h.</desc>
<speed>0.010000</speed>
</trkpt>
<trkpt lat="55.729744" lon="26.243242">
<ele>165.123169</ele>
<time>2010-07-18T08:23:20Z</time>
<desc>lat.=55.729744, lon.=26.243242, Alt.=165.123169m. Speed=0.000000m/h.</desc>
<speed>0.000000</speed>
</trkpt>
<trkpt lat="55.729744" lon="26.243242">
<ele>165.123169</ele>
<time>2010-07-18T08:23:21Z</time>
<desc>lat.=55.729744, lon.=26.243242, Alt.=165.123169m. Speed=0.000000m/h.</desc>
<speed>0.000000</speed>
</trkpt>
<trkpt lat="55.729744" lon="26.243242">
<ele>165.123169</ele>
<time>2010-07-18T08:23:22Z</time>
<desc>lat.=55.729744, lon.=26.243242, Alt.=165.123169m. Speed=0.000000m/h.</desc>
<speed>0.000000</speed>
</trkpt>
<trkpt lat="55.729744" lon="26.243242">
<ele>165.119263</ele>
<time>2010-07-18T08:23:23Z</time>
<desc>lat.=55.729744, lon.=26.243242, Alt.=165.119263m. Speed=0.072000m/h.</desc>
<speed>0.020000</speed>
</trkpt>
<trkpt lat="55.729744" lon="26.243242">
<ele>165.115356</ele>
<time>2010-07-18T08:23:24Z</time>
<desc>lat.=55.729744, lon.=26.243242, Alt.=165.115356m. Speed=0.036000m/h.</desc>
<speed>0.010000</speed>
</trkpt>
<trkpt lat="55.729744" lon="26.243242">
<ele>165.115356</ele>
<time>2010-07-18T08:23:25Z</time>
<desc>lat.=55.729744, lon.=26.243242, Alt.=165.115356m. Speed=0.036000m/h.</desc>
<speed>0.010000</speed>
</trkpt>
<trkpt lat="55.729744" lon="26.243242">
<ele>165.115356</ele>
<time>2010-07-18T08:23:26Z</time>
<desc>lat.=55.729744, lon.=26.243242, Alt.=165.115356m. Speed=0.036000m/h.</desc>
<speed>0.010000</speed>
</trkpt>
<trkpt lat="55.729744" lon="26.243242">
<ele>165.115356</ele>
<time>2010-07-18T08:23:27Z</time>
<desc>lat.=55.729744, lon.=26.243242, Alt.=165.115356m. Speed=0.036000m/h.</desc>
<speed>0.010000</speed>
</trkpt>
<trkpt lat="55.729744" lon="26.243242">
<ele>165.111450</ele>
<time>2010-07-18T08:23:28Z</time>
<desc>lat.=55.729744, lon.=26.243242, Alt.=165.111450m. Speed=0.000000m/h.</desc>
<speed>0.000000</speed>
</trkpt>
<trkpt lat="55.729744" lon="26.243242">
<ele>165.111450</ele>
<time>2010-07-18T08:23:29Z</time>
<desc>lat.=55.729744, lon.=26.243242, Alt.=165.111450m. Speed=0.144000m/h.</desc>
<speed>0.040000</speed>
</trkpt>
<trkpt lat="55.729744" lon="26.243242">
<ele>165.111450</ele>
<time>2010-07-18T08:23:30Z</time>
<desc>lat.=55.729744, lon.=26.243242, Alt.=165.111450m. Speed=0.036000m/h.</desc>
<speed>0.010000</speed>
</trkpt>
<trkpt lat="55.729744" lon="26.243242">
<ele>165.107544</ele>
<time>2010-07-18T08:23:31Z</time>
<desc>lat.=55.729744, lon.=26.243242, Alt.=165.107544m. Speed=0.036000m/h.</desc>
<speed>0.010000</speed>
</trkpt>
<trkpt lat="55.729744" lon="26.243242">
<ele>165.107544</ele>
<time>2010-07-18T08:23:32Z</time>
<desc>lat.=55.729744, lon.=26.243242, Alt.=165.107544m. Speed=0.000000m/h.</desc>
<speed>0.000000</speed>
</trkpt>
<trkpt lat="55.729744" lon="26.243242">
<ele>165.107544</ele>
<time>2010-07-18T08:23:33Z</time>
<desc>lat.=55.729744, lon.=26.243242, Alt.=165.107544m. Speed=0.072000m/h.</desc>
<speed>0.020000</speed>
</trkpt>
<trkpt lat="55.729744" lon="26.243242">
<ele>165.103638</ele>
<time>2010-07-18T08:23:34Z</time>
<desc>lat.=55.729744, lon.=26.243242, Alt.=165.103638m. Speed=0.000000m/h.</desc>
<speed>0.000000</speed>
</trkpt>
<trkpt lat="55.729744" lon="26.243242">
<ele>165.103638</ele>
<time>2010-07-18T08:23:35Z</time>
<desc>lat.=55.729744, lon.=26.243242, Alt.=165.103638m. Speed=0.036000m/h.</desc>
<speed>0.010000</speed>
</trkpt>
<trkpt lat="55.729744" lon="26.243242">
<ele>165.103638</ele>
<time>2010-07-18T08:23:36Z</time>
<desc>lat.=55.729744, lon.=26.243242, Alt.=165.103638m. Speed=0.000000m/h.</desc>
<speed>0.000000</speed>
</trkpt>
<trkpt lat="55.729744" lon="26.243242">
<ele>165.103638</ele>
<time>2010-07-18T08:23:37Z</time>
<desc>lat.=55.729744, lon.=26.243242, Alt.=165.103638m. Speed=0.036000m/h.</desc>
<speed>0.010000</speed>
</trkpt>
<trkpt lat="55.729744" lon="26.243242">
<ele>165.099731</ele>
<time>2010-07-18T08:23:38Z</time>
<desc>lat.=55.729744, lon.=26.243242, Alt.=165.099731m. Speed=0.036000m/h.</desc>
<speed>0.010000</speed>
</trkpt>
<trkpt lat="55.729744" lon="26.243242">
<ele>165.099731</ele>
<time>2010-07-18T08:23:39Z</time>
<desc>lat.=55.729744, lon.=26.243242, Alt.=165.099731m. Speed=0.072000m/h.</desc>
<speed>0.020000</speed>
</trkpt>
<trkpt lat="55.729744" lon="26.243242">
<ele>165.095825</ele>
<time>2010-07-18T08:23:40Z</time>
<desc>lat.=55.729744, lon.=26.243242, Alt.=165.095825m. Speed=0.036000m/h.</desc>
<speed>0.010000</speed>
</trkpt>
<trkpt lat="55.729744" lon="26.243242">
<ele>165.099731</ele>
<time>2010-07-18T08:23:41Z</time>
<desc>lat.=55.729744, lon.=26.243242, Alt.=165.099731m. Speed=0.072000m/h.</desc>
<speed>0.020000</speed>
</trkpt>
<trkpt lat="55.729744" lon="26.243242">
<ele>165.095825</ele>
<time>2010-07-18T08:23:42Z</time>
<desc>lat.=55.729744, lon.=26.243242, Alt.=165.095825m. Speed=0.036000m/h.</desc>
<speed>0.010000</speed>
</trkpt>
<trkpt lat="55.729744" lon="26.243242">
<ele>165.095825</ele>
<time>2010-07-18T08:23:43Z</time>
<desc>lat.=55.729744, lon.=26.243242, Alt.=165.095825m. Speed=0.000000m/h.</desc>
<speed>0.000000</speed>
</trkpt>
<trkpt lat="55.729744" lon="26.243242">
<ele>165.091919</ele>
<time>2010-07-18T08:23:44Z</time>
<desc>lat.=55.729744, lon.=26.243242, Alt.=165.091919m. Speed=0.036000m/h.</desc>
<speed>0.010000</speed>
</trkpt>
<trkpt lat="55.729744" lon="26.243242">
<ele>165.088013</ele>
<time>2010-07-18T08:23:45Z</time>
<desc>lat.=55.729744, lon.=26.243242, Alt.=165.088013m. Speed=0.000000m/h.</desc>
<speed>0.000000</speed>
</trkpt>
<trkpt lat="55.729744" lon="26.243242">
<ele>165.088013</ele>
<time>2010-07-18T08:23:46Z</time>
<desc>lat.=55.729744, lon.=26.243242, Alt.=165.088013m. Speed=0.072000m/h.</desc>
<speed>0.020000</speed>
</trkpt>
<trkpt lat="55.729744" lon="26.243242">
<ele>165.084106</ele>
<time>2010-07-18T08:23:47Z</time>
<desc>lat.=55.729744, lon.=26.243242, Alt.=165.084106m. Speed=0.108000m/h.</desc>
<speed>0.030000</speed>
</trkpt>
<trkpt lat="55.729744" lon="26.243242">
<ele>165.084106</ele>
<time>2010-07-18T08:23:48Z</time>
<desc>lat.=55.729744, lon.=26.243242, Alt.=165.084106m. Speed=0.072000m/h.</desc>
<speed>0.020000</speed>
</trkpt>
<trkpt lat="55.729744" lon="26.243242">
<ele>165.084106</ele>
<time>2010-07-18T08:23:49Z</time>
<desc>lat.=55.729744, lon.=26.243242, Alt.=165.084106m. Speed=0.036000m/h.</desc>
<speed>0.010000</speed>
</trkpt>
<trkpt lat="55.729744" lon="26.243240">
<ele>165.080200</ele>
<time>2010-07-18T08:23:50Z</time>
<desc>lat.=55.729744, lon.=26.243240, Alt.=165.080200m. Speed=0.000000m/h.</desc>
<speed>0.000000</speed>
</trkpt>
<trkpt lat="55.729744" lon="26.243240">
<ele>165.084106</ele>
<time>2010-07-18T08:23:51Z</time>
<desc>lat.=55.729744, lon.=26.243240, Alt.=165.084106m. Speed=0.036000m/h.</desc>
<speed>0.010000</speed>
</trkpt>
<trkpt lat="55.729744" lon="26.243240">
<ele>165.084106</ele>
<time>2010-07-18T08:23:52Z</time>
<desc>lat.=55.729744, lon.=26.243240, Alt.=165.084106m. Speed=0.000000m/h.</desc>
<speed>0.000000</speed>
</trkpt>
<trkpt lat="55.729744" lon="26.243240">
<ele>165.080200</ele>
<time>2010-07-18T08:23:53Z</time>
<desc>lat.=55.729744, lon.=26.243240, Alt.=165.080200m. Speed=0.072000m/h.</desc>
<speed>0.020000</speed>
</trkpt>
<trkpt lat="55.729744" lon="26.243240">
<ele>165.080200</ele>
<time>2010-07-18T08:23:54Z</time>
<desc>lat.=55.729744, lon.=26.243240, Alt.=165.080200m. Speed=0.072000m/h.</desc>
<speed>0.020000</speed>
</trkpt>
<trkpt lat="55.729744" lon="26.243240">
<ele>165.080200</ele>
<time>2010-07-18T08:23:55Z</time>
<desc>lat.=55.729744, lon.=26.243240, Alt.=165.080200m. Speed=0.072000m/h.</desc>
<speed>0.020000</speed>
</trkpt>
<trkpt lat="55.729744" lon="26.243240">
<ele>165.080200</ele>
<time>2010-07-18T08:23:56Z</time>
<desc>lat.=55.729744, lon.=26.243240, Alt.=165.080200m. Speed=0.072000m/h.</desc>
<speed>0.020000</speed>
</trkpt>
<trkpt lat="55.729744" lon="26.243240">
<ele>165.080200</ele>
<time>2010-07-18T08:23:57Z</time>
<desc>lat.=55.729744, lon.=26.243240, Alt.=165.080200m. Speed=0.072000m/h.</desc>
<speed>0.020000</speed>
</trkpt>
<trkpt lat="55.729744" lon="26.243240">
<ele>165.076294</ele>
<time>2010-07-18T08:23:58Z</time>
<desc>lat.=55.729744, lon.=26.243240, Alt.=165.076294m. Speed=0.036000m/h.</desc>
<speed>0.010000</speed>
</trkpt>
<trkpt lat="55.729744" lon="26.243240">
<ele>165.076294</ele>
<time>2010-07-18T08:23:59Z</time>
<desc>lat.=55.729744, lon.=26.243240, Alt.=165.076294m. Speed=0.036000m/h.</desc>
<speed>0.010000</speed>
</trkpt>
<trkpt lat="55.729744" lon="26.243240">
<ele>165.076294</ele>
<time>2010-07-18T08:24:00Z</time>
<desc>lat.=55.729744, lon.=26.243240, Alt.=165.076294m. Speed=0.072000m/h.</desc>
<speed>0.020000</speed>
</trkpt>
<trkpt lat="55.729744" lon="26.243240">
<ele>165.072388</ele>
<time>2010-07-18T08:24:01Z</time>
<desc>lat.=55.729744, lon.=26.243240, Alt.=165.072388m. Speed=0.108000m/h.</desc>
<speed>0.030000</speed>
</trkpt>
<trkpt lat="55.729744" lon="26.243240">
<ele>165.076294</ele>
<time>2010-07-18T08:24:02Z</time>
<desc>lat.=55.729744, lon.=26.243240, Alt.=165.076294m. Speed=0.108000m/h.</desc>
<speed>0.030000</speed>
</trkpt>
<trkpt lat="55.729744" lon="26.243240">
<ele>165.076294</ele>
<time>2010-07-18T08:24:03Z</time>
<desc>lat.=55.729744, lon.=26.243240, Alt.=165.076294m. Speed=0.108000m/h.</desc>
<speed>0.030000</speed>
</trkpt>
<trkpt lat="55.729744" lon="26.243240">
<ele>165.072388</ele>
<time>2010-07-18T08:24:04Z</time>
<desc>lat.=55.729744, lon.=26.243240, Alt.=165.072388m. Speed=0.108000m/h.</desc>
<speed>0.030000</speed>
</trkpt>
<trkpt lat="55.729744" lon="26.243238">
<ele>165.072388</ele>
<time>2010-07-18T08:24:05Z</time>
<desc>lat.=55.729744, lon.=26.243238, Alt.=165.072388m. Speed=0.000000m/h.</desc>
<speed>0.000000</speed>
</trkpt>
<trkpt lat="55.729744" lon="26.243238">
<ele>165.076294</ele>
<time>2010-07-18T08:24:06Z</time>
<desc>lat.=55.729744, lon.=26.243238, Alt.=165.076294m. Speed=0.072000m/h.</desc>
<speed>0.020000</speed>
</trkpt>
<trkpt lat="55.729744" lon="26.243238">
<ele>165.072388</ele>
<time>2010-07-18T08:24:07Z</time>
<desc>lat.=55.729744, lon.=26.243238, Alt.=165.072388m. Speed=0.072000m/h.</desc>
<speed>0.020000</speed>
</trkpt>
<trkpt lat="55.729744" lon="26.243238">
<ele>165.072388</ele>
<time>2010-07-18T08:24:08Z</time>
<desc>lat.=55.729744, lon.=26.243238, Alt.=165.072388m. Speed=0.036000m/h.</desc>
<speed>0.010000</speed>
</trkpt>
<trkpt lat="55.729744" lon="26.243238">
<ele>165.068481</ele>
<time>2010-07-18T08:24:09Z</time>
<desc>lat.=55.729744, lon.=26.243238, Alt.=165.068481m. Speed=0.036000m/h.</desc>
<speed>0.010000</speed>
</trkpt>
<trkpt lat="55.729744" lon="26.243238">
<ele>165.068481</ele>
<time>2010-07-18T08:24:10Z</time>
<desc>lat.=55.729744, lon.=26.243238, Alt.=165.068481m. Speed=0.000000m/h.</desc>
<speed>0.000000</speed>
</trkpt>
<trkpt lat="55.729744" lon="26.243238">
<ele>165.072388</ele>
<time>2010-07-18T08:24:11Z</time>
<desc>lat.=55.729744, lon.=26.243238, Alt.=165.072388m. Speed=0.036000m/h.</desc>
<speed>0.010000</speed>
</trkpt>
<trkpt lat="55.729744" lon="26.243238">
<ele>165.068481</ele>
<time>2010-07-18T08:24:12Z</time>
<desc>lat.=55.729744, lon.=26.243238, Alt.=165.068481m. Speed=0.036000m/h.</desc>
<speed>0.010000</speed>
</trkpt>
<trkpt lat="55.729744" lon="26.243238">
<ele>165.068481</ele>
<time>2010-07-18T08:24:13Z</time>
<desc>lat.=55.729744, lon.=26.243238, Alt.=165.068481m. Speed=0.036000m/h.</desc>
<speed>0.010000</speed>
</trkpt>
<trkpt lat="55.729744" lon="26.243238">
<ele>165.068481</ele>
<time>2010-07-18T08:24:14Z</time>
<desc>lat.=55.729744, lon.=26.243238, Alt.=165.068481m. Speed=0.108000m/h.</desc>
<speed>0.030000</speed>
</trkpt>
<trkpt lat="55.729744" lon="26.243238">
<ele>165.064575</ele>
<time>2010-07-18T08:24:15Z</time>
<desc>lat.=55.729744, lon.=26.243238, Alt.=165.064575m. Speed=0.036000m/h.</desc>
<speed>0.010000</speed>
</trkpt>
<trkpt lat="55.729744" lon="26.243238">
<ele>165.060669</ele>
<time>2010-07-18T08:24:16Z</time>
<desc>lat.=55.729744, lon.=26.243238, Alt.=165.060669m. Speed=0.036000m/h.</desc>
<speed>0.010000</speed>
</trkpt>
<trkpt lat="55.729744" lon="26.243238">
<ele>165.056763</ele>
<time>2010-07-18T08:24:17Z</time>
<desc>lat.=55.729744, lon.=26.243238, Alt.=165.056763m. Speed=0.036000m/h.</desc>
<speed>0.010000</speed>
</trkpt>
<trkpt lat="55.729744" lon="26.243238">
<ele>165.056763</ele>
<time>2010-07-18T08:24:18Z</time>
<desc>lat.=55.729744, lon.=26.243238, Alt.=165.056763m. Speed=0.000000m/h.</desc>
<speed>0.000000</speed>
</trkpt>
<trkpt lat="55.729744" lon="26.243238">
<ele>165.052856</ele>
<time>2010-07-18T08:24:19Z</time>
<desc>lat.=55.729744, lon.=26.243238, Alt.=165.052856m. Speed=0.036000m/h.</desc>
<speed>0.010000</speed>
</trkpt>
<trkpt lat="55.729744" lon="26.243238">
<ele>165.048950</ele>
<time>2010-07-18T08:24:20Z</time>
<desc>lat.=55.729744, lon.=26.243238, Alt.=165.048950m. Speed=0.036000m/h.</desc>
<speed>0.010000</speed>
</trkpt>
<trkpt lat="55.729744" lon="26.243238">
<ele>165.045044</ele>
<time>2010-07-18T08:24:21Z</time>
<desc>lat.=55.729744, lon.=26.243238, Alt.=165.045044m. Speed=0.000000m/h.</desc>
<speed>0.000000</speed>
</trkpt>
<trkpt lat="55.729744" lon="26.243238">
<ele>165.037231</ele>
<time>2010-07-18T08:24:22Z</time>
<desc>lat.=55.729744, lon.=26.243238, Alt.=165.037231m. Speed=0.036000m/h.</desc>
<speed>0.010000</speed>
</trkpt>
<trkpt lat="55.729744" lon="26.243238">
<ele>165.037231</ele>
<time>2010-07-18T08:24:23Z</time>
<desc>lat.=55.729744, lon.=26.243238, Alt.=165.037231m. Speed=0.072000m/h.</desc>
<speed>0.020000</speed>
</trkpt>
<trkpt lat="55.729744" lon="26.243237">
<ele>165.033325</ele>
<time>2010-07-18T08:24:24Z</time>
<desc>lat.=55.729744, lon.=26.243237, Alt.=165.033325m. Speed=0.072000m/h.</desc>
<speed>0.020000</speed>
</trkpt>
<trkpt lat="55.729744" lon="26.243237">
<ele>165.029419</ele>
<time>2010-07-18T08:24:25Z</time>
<desc>lat.=55.729744, lon.=26.243237, Alt.=165.029419m. Speed=0.072000m/h.</desc>
<speed>0.020000</speed>
</trkpt>
<trkpt lat="55.729744" lon="26.243237">
<ele>165.025513</ele>
<time>2010-07-18T08:24:26Z</time>
<desc>lat.=55.729744, lon.=26.243237, Alt.=165.025513m. Speed=0.072000m/h.</desc>
<speed>0.020000</speed>
</trkpt>
<trkpt lat="55.729744" lon="26.243237">
<ele>165.021606</ele>
<time>2010-07-18T08:24:27Z</time>
<desc>lat.=55.729744, lon.=26.243237, Alt.=165.021606m. Speed=0.000000m/h.</desc>
<speed>0.000000</speed>
</trkpt>
<trkpt lat="55.729744" lon="26.243237">
<ele>165.013794</ele>
<time>2010-07-18T08:24:28Z</time>
<desc>lat.=55.729744, lon.=26.243237, Alt.=165.013794m. Speed=0.000000m/h.</desc>
<speed>0.000000</speed>
</trkpt>
<trkpt lat="55.729744" lon="26.243237">
<ele>165.009888</ele>
<time>2010-07-18T08:24:29Z</time>
<desc>lat.=55.729744, lon.=26.243237, Alt.=165.009888m. Speed=0.108000m/h.</desc>
<speed>0.030000</speed>
</trkpt>
<trkpt lat="55.729744" lon="26.243237">
<ele>165.002075</ele>
<time>2010-07-18T08:24:30Z</time>
<desc>lat.=55.729744, lon.=26.243237, Alt.=165.002075m. Speed=0.000000m/h.</desc>
<speed>0.000000</speed>
</trkpt>
<trkpt lat="55.729744" lon="26.243237">
<ele>164.998169</ele>
<time>2010-07-18T08:24:31Z</time>
<desc>lat.=55.729744, lon.=26.243237, Alt.=164.998169m. Speed=0.036000m/h.</desc>
<speed>0.010000</speed>
</trkpt>
<trkpt lat="55.729744" lon="26.243237">
<ele>164.990356</ele>
<time>2010-07-18T08:24:32Z</time>
<desc>lat.=55.729744, lon.=26.243237, Alt.=164.990356m. Speed=0.036000m/h.</desc>
<speed>0.010000</speed>
</trkpt>
<trkpt lat="55.729744" lon="26.243237">
<ele>164.986450</ele>
<time>2010-07-18T08:24:33Z</time>
<desc>lat.=55.729744, lon.=26.243237, Alt.=164.986450m. Speed=0.000000m/h.</desc>
<speed>0.000000</speed>
</trkpt>
<trkpt lat="55.729744" lon="26.243237">
<ele>164.978638</ele>
<time>2010-07-18T08:24:34Z</time>
<desc>lat.=55.729744, lon.=26.243237, Alt.=164.978638m. Speed=0.000000m/h.</desc>
<speed>0.000000</speed>
</trkpt>
<trkpt lat="55.729744" lon="26.243237">
<ele>164.970825</ele>
<time>2010-07-18T08:24:35Z</time>
<desc>lat.=55.729744, lon.=26.243237, Alt.=164.970825m. Speed=0.000000m/h.</desc>
<speed>0.000000</speed>
</trkpt>
<trkpt lat="55.729744" lon="26.243237">
<ele>164.959106</ele>
<time>2010-07-18T08:24:36Z</time>
<desc>lat.=55.729744, lon.=26.243237, Alt.=164.959106m. Speed=0.180000m/h.</desc>
<speed>0.050000</speed>
</trkpt>
<trkpt lat="55.729744" lon="26.243237">
<ele>164.947388</ele>
<time>2010-07-18T08:24:37Z</time>
<desc>lat.=55.729744, lon.=26.243237, Alt.=164.947388m. Speed=0.108000m/h.</desc>
<speed>0.030000</speed>
</trkpt>
<trkpt lat="55.729744" lon="26.243238">
<ele>164.931763</ele>
<time>2010-07-18T08:24:38Z</time>
<desc>lat.=55.729744, lon.=26.243238, Alt.=164.931763m. Speed=0.108000m/h.</desc>
<speed>0.030000</speed>
</trkpt>
<trkpt lat="55.729744" lon="26.243238">
<ele>164.923950</ele>
<time>2010-07-18T08:24:39Z</time>
<desc>lat.=55.729744, lon.=26.243238, Alt.=164.923950m. Speed=0.108000m/h.</desc>
<speed>0.030000</speed>
</trkpt>
<trkpt lat="55.729744" lon="26.243238">
<ele>164.912231</ele>
<time>2010-07-18T08:24:40Z</time>
<desc>lat.=55.729744, lon.=26.243238, Alt.=164.912231m. Speed=0.108000m/h.</desc>
<speed>0.030000</speed>
</trkpt>
<trkpt lat="55.729744" lon="26.243240">
<ele>164.896606</ele>
<time>2010-07-18T08:24:41Z</time>
<desc>lat.=55.729744, lon.=26.243240, Alt.=164.896606m. Speed=0.180000m/h.</desc>
<speed>0.050000</speed>
</trkpt>
<trkpt lat="55.729744" lon="26.243240">
<ele>164.880981</ele>
<time>2010-07-18T08:24:42Z</time>
<desc>lat.=55.729744, lon.=26.243240, Alt.=164.880981m. Speed=0.180000m/h.</desc>
<speed>0.050000</speed>
</trkpt>
<trkpt lat="55.729744" lon="26.243242">
<ele>164.861450</ele>
<time>2010-07-18T08:24:43Z</time>
<desc>lat.=55.729744, lon.=26.243242, Alt.=164.861450m. Speed=0.216000m/h.</desc>
<speed>0.060000</speed>
</trkpt>
<trkpt lat="55.729744" lon="26.243242">
<ele>164.845825</ele>
<time>2010-07-18T08:24:44Z</time>
<desc>lat.=55.729744, lon.=26.243242, Alt.=164.845825m. Speed=0.252000m/h.</desc>
<speed>0.070000</speed>
</trkpt>
<trkpt lat="55.729744" lon="26.243244">
<ele>164.826294</ele>
<time>2010-07-18T08:24:45Z</time>
<desc>lat.=55.729744, lon.=26.243244, Alt.=164.826294m. Speed=0.360000m/h.</desc>
<speed>0.100000</speed>
</trkpt>
<trkpt lat="55.729744" lon="26.243246">
<ele>164.806763</ele>
<time>2010-07-18T08:24:46Z</time>
<desc>lat.=55.729744, lon.=26.243246, Alt.=164.806763m. Speed=0.324000m/h.</desc>
<speed>0.090000</speed>
</trkpt>
<trkpt lat="55.729744" lon="26.243248">
<ele>164.783325</ele>
<time>2010-07-18T08:24:47Z</time>
<desc>lat.=55.729744, lon.=26.243248, Alt.=164.783325m. Speed=0.324000m/h.</desc>
<speed>0.090000</speed>
</trkpt>
<trkpt lat="55.729744" lon="26.243248">
<ele>164.763794</ele>
<time>2010-07-18T08:24:48Z</time>
<desc>lat.=55.729744, lon.=26.243248, Alt.=164.763794m. Speed=0.324000m/h.</desc>
<speed>0.090000</speed>
</trkpt>
<trkpt lat="55.729744" lon="26.243250">
<ele>164.740356</ele>
<time>2010-07-18T08:24:49Z</time>
<desc>lat.=55.729744, lon.=26.243250, Alt.=164.740356m. Speed=0.360000m/h.</desc>
<speed>0.100000</speed>
</trkpt>
<trkpt lat="55.729744" lon="26.243252">
<ele>164.716919</ele>
<time>2010-07-18T08:24:50Z</time>
<desc>lat.=55.729744, lon.=26.243252, Alt.=164.716919m. Speed=0.324000m/h.</desc>
<speed>0.090000</speed>
</trkpt>
<trkpt lat="55.729744" lon="26.243254">
<ele>164.693481</ele>
<time>2010-07-18T08:24:51Z</time>
<desc>lat.=55.729744, lon.=26.243254, Alt.=164.693481m. Speed=0.288000m/h.</desc>
<speed>0.080000</speed>
</trkpt>
<trkpt lat="55.729744" lon="26.243256">
<ele>164.670044</ele>
<time>2010-07-18T08:24:52Z</time>
<desc>lat.=55.729744, lon.=26.243256, Alt.=164.670044m. Speed=0.360000m/h.</desc>
<speed>0.100000</speed>
</trkpt>
<trkpt lat="55.729744" lon="26.243258">
<ele>164.646606</ele>
<time>2010-07-18T08:24:53Z</time>
<desc>lat.=55.729744, lon.=26.243258, Alt.=164.646606m. Speed=0.396000m/h.</desc>
<speed>0.110000</speed>
</trkpt>
<trkpt lat="55.729744" lon="26.243259">
<ele>164.619263</ele>
<time>2010-07-18T08:24:54Z</time>
<desc>lat.=55.729744, lon.=26.243259, Alt.=164.619263m. Speed=0.468000m/h.</desc>
<speed>0.130000</speed>
</trkpt>
<trkpt lat="55.729744" lon="26.243261">
<ele>164.588013</ele>
<time>2010-07-18T08:24:55Z</time>
<desc>lat.=55.729744, lon.=26.243261, Alt.=164.588013m. Speed=0.540000m/h.</desc>
<speed>0.150000</speed>
</trkpt>
<trkpt lat="55.729748" lon="26.243263">
<ele>164.556763</ele>
<time>2010-07-18T08:24:56Z</time>
<desc>lat.=55.729748, lon.=26.243263, Alt.=164.556763m. Speed=0.612000m/h.</desc>
<speed>0.170000</speed>
</trkpt>
<trkpt lat="55.729748" lon="26.243267">
<ele>164.525513</ele>
<time>2010-07-18T08:24:57Z</time>
<desc>lat.=55.729748, lon.=26.243267, Alt.=164.525513m. Speed=0.540000m/h.</desc>
<speed>0.150000</speed>
</trkpt>
<trkpt lat="55.729748" lon="26.243269">
<ele>164.498169</ele>
<time>2010-07-18T08:24:58Z</time>
<desc>lat.=55.729748, lon.=26.243269, Alt.=164.498169m. Speed=0.504000m/h.</desc>
<speed>0.140000</speed>
</trkpt>
<trkpt lat="55.729748" lon="26.243271">
<ele>164.470825</ele>
<time>2010-07-18T08:24:59Z</time>
<desc>lat.=55.729748, lon.=26.243271, Alt.=164.470825m. Speed=0.504000m/h.</desc>
<speed>0.140000</speed>
</trkpt>
<trkpt lat="55.729748" lon="26.243273">
<ele>164.443481</ele>
<time>2010-07-18T08:25:00Z</time>
<desc>lat.=55.729748, lon.=26.243273, Alt.=164.443481m. Speed=0.396000m/h.</desc>
<speed>0.110000</speed>
</trkpt>
<trkpt lat="55.729748" lon="26.243275">
<ele>164.420044</ele>
<time>2010-07-18T08:25:01Z</time>
<desc>lat.=55.729748, lon.=26.243275, Alt.=164.420044m. Speed=0.324000m/h.</desc>
<speed>0.090000</speed>
</trkpt>
<trkpt lat="55.729748" lon="26.243277">
<ele>164.396606</ele>
<time>2010-07-18T08:25:02Z</time>
<desc>lat.=55.729748, lon.=26.243277, Alt.=164.396606m. Speed=0.216000m/h.</desc>
<speed>0.060000</speed>
</trkpt>
<trkpt lat="55.729748" lon="26.243279">
<ele>164.377075</ele>
<time>2010-07-18T08:25:03Z</time>
<desc>lat.=55.729748, lon.=26.243279, Alt.=164.377075m. Speed=0.180000m/h.</desc>
<speed>0.050000</speed>
</trkpt>
<trkpt lat="55.729748" lon="26.243279">
<ele>164.361450</ele>
<time>2010-07-18T08:25:04Z</time>
<desc>lat.=55.729748, lon.=26.243279, Alt.=164.361450m. Speed=0.144000m/h.</desc>
<speed>0.040000</speed>
</trkpt>
<trkpt lat="55.729748" lon="26.243280">
<ele>164.341919</ele>
<time>2010-07-18T08:25:05Z</time>
<desc>lat.=55.729748, lon.=26.243280, Alt.=164.341919m. Speed=0.216000m/h.</desc>
<speed>0.060000</speed>
</trkpt>
<trkpt lat="55.729748" lon="26.243280">
<ele>164.322388</ele>
<time>2010-07-18T08:25:06Z</time>
<desc>lat.=55.729748, lon.=26.243280, Alt.=164.322388m. Speed=0.288000m/h.</desc>
<speed>0.080000</speed>
</trkpt>
<trkpt lat="55.729748" lon="26.243282">
<ele>164.302856</ele>
<time>2010-07-18T08:25:07Z</time>
<desc>lat.=55.729748, lon.=26.243282, Alt.=164.302856m. Speed=0.324000m/h.</desc>
<speed>0.090000</speed>
</trkpt>
<trkpt lat="55.729748" lon="26.243284">
<ele>164.283325</ele>
<time>2010-07-18T08:25:08Z</time>
<desc>lat.=55.729748, lon.=26.243284, Alt.=164.283325m. Speed=0.252000m/h.</desc>
<speed>0.070000</speed>
</trkpt>
<trkpt lat="55.729748" lon="26.243284">
<ele>164.263794</ele>
<time>2010-07-18T08:25:09Z</time>
<desc>lat.=55.729748, lon.=26.243284, Alt.=164.263794m. Speed=0.180000m/h.</desc>
<speed>0.050000</speed>
</trkpt>
<trkpt lat="55.729748" lon="26.243286">
<ele>164.244263</ele>
<time>2010-07-18T08:25:10Z</time>
<desc>lat.=55.729748, lon.=26.243286, Alt.=164.244263m. Speed=0.180000m/h.</desc>
<speed>0.050000</speed>
</trkpt>
<trkpt lat="55.729748" lon="26.243286">
<ele>164.224731</ele>
<time>2010-07-18T08:25:11Z</time>
<desc>lat.=55.729748, lon.=26.243286, Alt.=164.224731m. Speed=0.180000m/h.</desc>
<speed>0.050000</speed>
</trkpt>
<trkpt lat="55.729748" lon="26.243288">
<ele>164.205200</ele>
<time>2010-07-18T08:25:12Z</time>
<desc>lat.=55.729748, lon.=26.243288, Alt.=164.205200m. Speed=0.108000m/h.</desc>
<speed>0.030000</speed>
</trkpt>
<trkpt lat="55.729748" lon="26.243288">
<ele>164.185669</ele>
<time>2010-07-18T08:25:13Z</time>
<desc>lat.=55.729748, lon.=26.243288, Alt.=164.185669m. Speed=0.144000m/h.</desc>
<speed>0.040000</speed>
</trkpt>
<trkpt lat="55.729748" lon="26.243288">
<ele>164.162231</ele>
<time>2010-07-18T08:25:14Z</time>
<desc>lat.=55.729748, lon.=26.243288, Alt.=164.162231m. Speed=0.144000m/h.</desc>
<speed>0.040000</speed>
</trkpt>
<trkpt lat="55.729748" lon="26.243290">
<ele>164.142700</ele>
<time>2010-07-18T08:25:15Z</time>
<desc>lat.=55.729748, lon.=26.243290, Alt.=164.142700m. Speed=0.144000m/h.</desc>
<speed>0.040000</speed>
</trkpt>
<trkpt lat="55.729748" lon="26.243290">
<ele>164.123169</ele>
<time>2010-07-18T08:25:16Z</time>
<desc>lat.=55.729748, lon.=26.243290, Alt.=164.123169m. Speed=0.180000m/h.</desc>
<speed>0.050000</speed>
</trkpt>
<trkpt lat="55.729748" lon="26.243290">
<ele>164.099731</ele>
<time>2010-07-18T08:25:17Z</time>
<desc>lat.=55.729748, lon.=26.243290, Alt.=164.099731m. Speed=0.144000m/h.</desc>
<speed>0.040000</speed>
</trkpt>
<trkpt lat="55.729748" lon="26.243292">
<ele>164.076294</ele>
<time>2010-07-18T08:25:18Z</time>
<desc>lat.=55.729748, lon.=26.243292, Alt.=164.076294m. Speed=0.180000m/h.</desc>
<speed>0.050000</speed>
</trkpt>
<trkpt lat="55.729748" lon="26.243292">
<ele>164.056763</ele>
<time>2010-07-18T08:25:19Z</time>
<desc>lat.=55.729748, lon.=26.243292, Alt.=164.056763m. Speed=0.216000m/h.</desc>
<speed>0.060000</speed>
</trkpt>
<trkpt lat="55.729748" lon="26.243294">
<ele>164.033325</ele>
<time>2010-07-18T08:25:20Z</time>
<desc>lat.=55.729748, lon.=26.243294, Alt.=164.033325m. Speed=0.216000m/h.</desc>
<speed>0.060000</speed>
</trkpt>
<trkpt lat="55.729748" lon="26.243294">
<ele>164.029419</ele>
<time>2010-07-18T08:25:21Z</time>
<desc>lat.=55.729748, lon.=26.243294, Alt.=164.029419m. Speed=0.036000m/h.</desc>
<speed>0.010000</speed>
</trkpt>
<trkpt lat="55.729748" lon="26.243294">
<ele>164.029419</ele>
<time>2010-07-18T08:25:22Z</time>
<desc>lat.=55.729748, lon.=26.243294, Alt.=164.029419m. Speed=0.072000m/h.</desc>
<speed>0.020000</speed>
</trkpt>
<trkpt lat="55.729748" lon="26.243294">
<ele>164.033325</ele>
<time>2010-07-18T08:25:23Z</time>
<desc>lat.=55.729748, lon.=26.243294, Alt.=164.033325m. Speed=0.036000m/h.</desc>
<speed>0.010000</speed>
</trkpt>
<trkpt lat="55.729748" lon="26.243294">
<ele>164.033325</ele>
<time>2010-07-18T08:25:24Z</time>
<desc>lat.=55.729748, lon.=26.243294, Alt.=164.033325m. Speed=0.036000m/h.</desc>
<speed>0.010000</speed>
</trkpt>
<trkpt lat="55.729748" lon="26.243294">
<ele>164.033325</ele>
<time>2010-07-18T08:25:25Z</time>
<desc>lat.=55.729748, lon.=26.243294, Alt.=164.033325m. Speed=0.072000m/h.</desc>
<speed>0.020000</speed>
</trkpt>
<trkpt lat="55.729748" lon="26.243292">
<ele>164.037231</ele>
<time>2010-07-18T08:25:26Z</time>
<desc>lat.=55.729748, lon.=26.243292, Alt.=164.037231m. Speed=0.036000m/h.</desc>
<speed>0.010000</speed>
</trkpt>
<trkpt lat="55.729748" lon="26.243292">
<ele>164.037231</ele>
<time>2010-07-18T08:25:27Z</time>
<desc>lat.=55.729748, lon.=26.243292, Alt.=164.037231m. Speed=0.108000m/h.</desc>
<speed>0.030000</speed>
</trkpt>
<trkpt lat="55.729748" lon="26.243292">
<ele>164.037231</ele>
<time>2010-07-18T08:25:28Z</time>
<desc>lat.=55.729748, lon.=26.243292, Alt.=164.037231m. Speed=0.036000m/h.</desc>
<speed>0.010000</speed>
</trkpt>
<trkpt lat="55.729748" lon="26.243292">
<ele>164.041138</ele>
<time>2010-07-18T08:25:29Z</time>
<desc>lat.=55.729748, lon.=26.243292, Alt.=164.041138m. Speed=0.000000m/h.</desc>
<speed>0.000000</speed>
</trkpt>
<trkpt lat="55.729748" lon="26.243292">
<ele>164.037231</ele>
<time>2010-07-18T08:25:30Z</time>
<desc>lat.=55.729748, lon.=26.243292, Alt.=164.037231m. Speed=0.036000m/h.</desc>
<speed>0.010000</speed>
</trkpt>
<trkpt lat="55.729748" lon="26.243292">
<ele>164.037231</ele>
<time>2010-07-18T08:25:31Z</time>
<desc>lat.=55.729748, lon.=26.243292, Alt.=164.037231m. Speed=0.036000m/h.</desc>
<speed>0.010000</speed>
</trkpt>
<trkpt lat="55.729748" lon="26.243292">
<ele>164.037231</ele>
<time>2010-07-18T08:25:32Z</time>
<desc>lat.=55.729748, lon.=26.243292, Alt.=164.037231m. Speed=0.036000m/h.</desc>
<speed>0.010000</speed>
</trkpt>
<trkpt lat="55.729748" lon="26.243292">
<ele>164.037231</ele>
<time>2010-07-18T08:25:33Z</time>
<desc>lat.=55.729748, lon.=26.243292, Alt.=164.037231m. Speed=0.000000m/h.</desc>
<speed>0.000000</speed>
</trkpt>
<trkpt lat="55.729748" lon="26.243292">
<ele>164.041138</ele>
<time>2010-07-18T08:25:34Z</time>
<desc>lat.=55.729748, lon.=26.243292, Alt.=164.041138m. Speed=0.252000m/h.</desc>
<speed>0.070000</speed>
</trkpt>
<trkpt lat="55.729748" lon="26.243290">
<ele>164.048950</ele>
<time>2010-07-18T08:25:35Z</time>
<desc>lat.=55.729748, lon.=26.243290, Alt.=164.048950m. Speed=0.288000m/h.</desc>
<speed>0.080000</speed>
</trkpt>
<trkpt lat="55.729748" lon="26.243288">
<ele>164.060669</ele>
<time>2010-07-18T08:25:36Z</time>
<desc>lat.=55.729748, lon.=26.243288, Alt.=164.060669m. Speed=0.324000m/h.</desc>
<speed>0.090000</speed>
</trkpt>
<trkpt lat="55.729748" lon="26.243288">
<ele>164.068481</ele>
<time>2010-07-18T08:25:37Z</time>
<desc>lat.=55.729748, lon.=26.243288, Alt.=164.068481m. Speed=0.360000m/h.</desc>
<speed>0.100000</speed>
</trkpt>
<trkpt lat="55.729748" lon="26.243286">
<ele>164.080200</ele>
<time>2010-07-18T08:25:38Z</time>
<desc>lat.=55.729748, lon.=26.243286, Alt.=164.080200m. Speed=0.396000m/h.</desc>
<speed>0.110000</speed>
</trkpt>
<trkpt lat="55.729748" lon="26.243284">
<ele>164.091919</ele>
<time>2010-07-18T08:25:39Z</time>
<desc>lat.=55.729748, lon.=26.243284, Alt.=164.091919m. Speed=0.432000m/h.</desc>
<speed>0.120000</speed>
</trkpt>
<trkpt lat="55.729748" lon="26.243282">
<ele>164.107544</ele>
<time>2010-07-18T08:25:40Z</time>
<desc>lat.=55.729748, lon.=26.243282, Alt.=164.107544m. Speed=0.432000m/h.</desc>
<speed>0.120000</speed>
</trkpt>
<trkpt lat="55.729748" lon="26.243279">
<ele>164.123169</ele>
<time>2010-07-18T08:25:41Z</time>
<desc>lat.=55.729748, lon.=26.243279, Alt.=164.123169m. Speed=0.468000m/h.</desc>
<speed>0.130000</speed>
</trkpt>
<trkpt lat="55.729748" lon="26.243277">
<ele>164.138794</ele>
<time>2010-07-18T08:25:42Z</time>
<desc>lat.=55.729748, lon.=26.243277, Alt.=164.138794m. Speed=0.504000m/h.</desc>
<speed>0.140000</speed>
</trkpt>
<trkpt lat="55.729748" lon="26.243275">
<ele>164.154419</ele>
<time>2010-07-18T08:25:43Z</time>
<desc>lat.=55.729748, lon.=26.243275, Alt.=164.154419m. Speed=0.504000m/h.</desc>
<speed>0.140000</speed>
</trkpt>
<trkpt lat="55.729748" lon="26.243273">
<ele>164.166138</ele>
<time>2010-07-18T08:25:44Z</time>
<desc>lat.=55.729748, lon.=26.243273, Alt.=164.166138m. Speed=0.504000m/h.</desc>
<speed>0.140000</speed>
</trkpt>
<trkpt lat="55.729748" lon="26.243271">
<ele>164.166138</ele>
<time>2010-07-18T08:25:45Z</time>
<desc>lat.=55.729748, lon.=26.243271, Alt.=164.166138m. Speed=0.360000m/h.</desc>
<speed>0.100000</speed>
</trkpt>
<trkpt lat="55.729748" lon="26.243269">
<ele>164.170044</ele>
<time>2010-07-18T08:25:46Z</time>
<desc>lat.=55.729748, lon.=26.243269, Alt.=164.170044m. Speed=0.288000m/h.</desc>
<speed>0.080000</speed>
</trkpt>
<trkpt lat="55.729748" lon="26.243269">
<ele>164.173950</ele>
<time>2010-07-18T08:25:47Z</time>
<desc>lat.=55.729748, lon.=26.243269, Alt.=164.173950m. Speed=0.252000m/h.</desc>
<speed>0.070000</speed>
</trkpt>
<trkpt lat="55.729748" lon="26.243267">
<ele>164.173950</ele>
<time>2010-07-18T08:25:48Z</time>
<desc>lat.=55.729748, lon.=26.243267, Alt.=164.173950m. Speed=0.252000m/h.</desc>
<speed>0.070000</speed>
</trkpt>
<trkpt lat="55.729748" lon="26.243267">
<ele>164.170044</ele>
<time>2010-07-18T08:25:49Z</time>
<desc>lat.=55.729748, lon.=26.243267, Alt.=164.170044m. Speed=0.180000m/h.</desc>
<speed>0.050000</speed>
</trkpt>
<trkpt lat="55.729748" lon="26.243265">
<ele>164.166138</ele>
<time>2010-07-18T08:25:50Z</time>
<desc>lat.=55.729748, lon.=26.243265, Alt.=164.166138m. Speed=0.108000m/h.</desc>
<speed>0.030000</speed>
</trkpt>
<trkpt lat="55.729748" lon="26.243265">
<ele>164.162231</ele>
<time>2010-07-18T08:25:51Z</time>
<desc>lat.=55.729748, lon.=26.243265, Alt.=164.162231m. Speed=0.144000m/h.</desc>
<speed>0.040000</speed>
</trkpt>
<trkpt lat="55.729748" lon="26.243263">
<ele>164.154419</ele>
<time>2010-07-18T08:25:52Z</time>
<desc>lat.=55.729748, lon.=26.243263, Alt.=164.154419m. Speed=0.216000m/h.</desc>
<speed>0.060000</speed>
</trkpt>
<trkpt lat="55.729748" lon="26.243263">
<ele>164.146606</ele>
<time>2010-07-18T08:25:53Z</time>
<desc>lat.=55.729748, lon.=26.243263, Alt.=164.146606m. Speed=0.072000m/h.</desc>
<speed>0.020000</speed>
</trkpt>
<trkpt lat="55.729748" lon="26.243263">
<ele>164.134888</ele>
<time>2010-07-18T08:25:54Z</time>
<desc>lat.=55.729748, lon.=26.243263, Alt.=164.134888m. Speed=0.072000m/h.</desc>
<speed>0.020000</speed>
</trkpt>
<trkpt lat="55.729748" lon="26.243263">
<ele>164.119263</ele>
<time>2010-07-18T08:25:55Z</time>
<desc>lat.=55.729748, lon.=26.243263, Alt.=164.119263m. Speed=0.108000m/h.</desc>
<speed>0.030000</speed>
</trkpt>
<trkpt lat="55.729748" lon="26.243263">
<ele>164.095825</ele>
<time>2010-07-18T08:25:56Z</time>
<desc>lat.=55.729748, lon.=26.243263, Alt.=164.095825m. Speed=0.108000m/h.</desc>
<speed>0.030000</speed>
</trkpt>
<trkpt lat="55.729748" lon="26.243263">
<ele>164.076294</ele>
<time>2010-07-18T08:25:57Z</time>
<desc>lat.=55.729748, lon.=26.243263, Alt.=164.076294m. Speed=0.144000m/h.</desc>
<speed>0.040000</speed>
</trkpt>
<trkpt lat="55.729748" lon="26.243263">
<ele>164.052856</ele>
<time>2010-07-18T08:25:58Z</time>
<desc>lat.=55.729748, lon.=26.243263, Alt.=164.052856m. Speed=0.180000m/h.</desc>
<speed>0.050000</speed>
</trkpt>
<trkpt lat="55.729748" lon="26.243265">
<ele>164.033325</ele>
<time>2010-07-18T08:25:59Z</time>
<desc>lat.=55.729748, lon.=26.243265, Alt.=164.033325m. Speed=0.252000m/h.</desc>
<speed>0.070000</speed>
</trkpt>
<trkpt lat="55.729748" lon="26.243265">
<ele>164.005981</ele>
<time>2010-07-18T08:26:00Z</time>
<desc>lat.=55.729748, lon.=26.243265, Alt.=164.005981m. Speed=0.216000m/h.</desc>
<speed>0.060000</speed>
</trkpt>
<trkpt lat="55.729752" lon="26.243265">
<ele>163.982544</ele>
<time>2010-07-18T08:26:01Z</time>
<desc>lat.=55.729752, lon.=26.243265, Alt.=163.982544m. Speed=0.144000m/h.</desc>
<speed>0.040000</speed>
</trkpt>
<trkpt lat="55.729752" lon="26.243265">
<ele>163.963013</ele>
<time>2010-07-18T08:26:02Z</time>
<desc>lat.=55.729752, lon.=26.243265, Alt.=163.963013m. Speed=0.216000m/h.</desc>
<speed>0.060000</speed>
</trkpt>
<trkpt lat="55.729752" lon="26.243265">
<ele>163.939575</ele>
<time>2010-07-18T08:26:03Z</time>
<desc>lat.=55.729752, lon.=26.243265, Alt.=163.939575m. Speed=0.216000m/h.</desc>
<speed>0.060000</speed>
</trkpt>
<trkpt lat="55.729752" lon="26.243265">
<ele>163.920044</ele>
<time>2010-07-18T08:26:04Z</time>
<desc>lat.=55.729752, lon.=26.243265, Alt.=163.920044m. Speed=0.252000m/h.</desc>
<speed>0.070000</speed>
</trkpt>
<trkpt lat="55.729752" lon="26.243265">
<ele>163.896606</ele>
<time>2010-07-18T08:26:05Z</time>
<desc>lat.=55.729752, lon.=26.243265, Alt.=163.896606m. Speed=0.288000m/h.</desc>
<speed>0.080000</speed>
</trkpt>
<trkpt lat="55.729752" lon="26.243265">
<ele>163.873169</ele>
<time>2010-07-18T08:26:06Z</time>
<desc>lat.=55.729752, lon.=26.243265, Alt.=163.873169m. Speed=0.288000m/h.</desc>
<speed>0.080000</speed>
</trkpt>
<trkpt lat="55.729755" lon="26.243265">
<ele>163.853638</ele>
<time>2010-07-18T08:26:07Z</time>
<desc>lat.=55.729755, lon.=26.243265, Alt.=163.853638m. Speed=0.288000m/h.</desc>
<speed>0.080000</speed>
</trkpt>
<trkpt lat="55.729755" lon="26.243265">
<ele>163.838013</ele>
<time>2010-07-18T08:26:08Z</time>
<desc>lat.=55.729755, lon.=26.243265, Alt.=163.838013m. Speed=0.468000m/h.</desc>
<speed>0.130000</speed>
</trkpt>
<trkpt lat="55.729755" lon="26.243267">
<ele>163.814575</ele>
<time>2010-07-18T08:26:09Z</time>
<desc>lat.=55.729755, lon.=26.243267, Alt.=163.814575m. Speed=0.468000m/h.</desc>
<speed>0.130000</speed>
</trkpt>
<trkpt lat="55.729759" lon="26.243267">
<ele>163.798950</ele>
<time>2010-07-18T08:26:10Z</time>
<desc>lat.=55.729759, lon.=26.243267, Alt.=163.798950m. Speed=0.504000m/h.</desc>
<speed>0.140000</speed>
</trkpt>
<trkpt lat="55.729759" lon="26.243267">
<ele>163.787231</ele>
<time>2010-07-18T08:26:11Z</time>
<desc>lat.=55.729759, lon.=26.243267, Alt.=163.787231m. Speed=0.576000m/h.</desc>
<speed>0.160000</speed>
</trkpt>
<trkpt lat="55.729759" lon="26.243267">
<ele>163.775513</ele>
<time>2010-07-18T08:26:12Z</time>
<desc>lat.=55.729759, lon.=26.243267, Alt.=163.775513m. Speed=0.540000m/h.</desc>
<speed>0.150000</speed>
</trkpt>
<trkpt lat="55.729763" lon="26.243269">
<ele>163.759888</ele>
<time>2010-07-18T08:26:13Z</time>
<desc>lat.=55.729763, lon.=26.243269, Alt.=163.759888m. Speed=0.540000m/h.</desc>
<speed>0.150000</speed>
</trkpt>
<trkpt lat="55.729763" lon="26.243269">
<ele>163.748169</ele>
<time>2010-07-18T08:26:14Z</time>
<desc>lat.=55.729763, lon.=26.243269, Alt.=163.748169m. Speed=0.576000m/h.</desc>
<speed>0.160000</speed>
</trkpt>
<trkpt lat="55.729763" lon="26.243271">
<ele>163.732544</ele>
<time>2010-07-18T08:26:15Z</time>
<desc>lat.=55.729763, lon.=26.243271, Alt.=163.732544m. Speed=0.648000m/h.</desc>
<speed>0.180000</speed>
</trkpt>
<trkpt lat="55.729767" lon="26.243271">
<ele>163.720825</ele>
<time>2010-07-18T08:26:16Z</time>
<desc>lat.=55.729767, lon.=26.243271, Alt.=163.720825m. Speed=0.540000m/h.</desc>
<speed>0.150000</speed>
</trkpt>
<trkpt lat="55.729767" lon="26.243271">
<ele>163.709106</ele>
<time>2010-07-18T08:26:17Z</time>
<desc>lat.=55.729767, lon.=26.243271, Alt.=163.709106m. Speed=0.612000m/h.</desc>
<speed>0.170000</speed>
</trkpt>
<trkpt lat="55.729771" lon="26.243273">
<ele>163.701294</ele>
<time>2010-07-18T08:26:18Z</time>
<desc>lat.=55.729771, lon.=26.243273, Alt.=163.701294m. Speed=0.612000m/h.</desc>
<speed>0.170000</speed>
</trkpt>
<trkpt lat="55.729771" lon="26.243273">
<ele>163.685669</ele>
<time>2010-07-18T08:26:19Z</time>
<desc>lat.=55.729771, lon.=26.243273, Alt.=163.685669m. Speed=0.648000m/h.</desc>
<speed>0.180000</speed>
</trkpt>
<trkpt lat="55.729771" lon="26.243273">
<ele>163.673950</ele>
<time>2010-07-18T08:26:20Z</time>
<desc>lat.=55.729771, lon.=26.243273, Alt.=163.673950m. Speed=0.684000m/h.</desc>
<speed>0.190000</speed>
</trkpt>
<trkpt lat="55.729774" lon="26.243273">
<ele>163.658325</ele>
<time>2010-07-18T08:26:21Z</time>
<desc>lat.=55.729774, lon.=26.243273, Alt.=163.658325m. Speed=0.684000m/h.</desc>
<speed>0.190000</speed>
</trkpt>
<trkpt lat="55.729774" lon="26.243273">
<ele>163.650513</ele>
<time>2010-07-18T08:26:22Z</time>
<desc>lat.=55.729774, lon.=26.243273, Alt.=163.650513m. Speed=0.612000m/h.</desc>
<speed>0.170000</speed>
</trkpt>
<trkpt lat="55.729778" lon="26.243273">
<ele>163.642700</ele>
<time>2010-07-18T08:26:23Z</time>
<desc>lat.=55.729778, lon.=26.243273, Alt.=163.642700m. Speed=0.576000m/h.</desc>
<speed>0.160000</speed>
</trkpt>
<trkpt lat="55.729778" lon="26.243273">
<ele>163.634888</ele>
<time>2010-07-18T08:26:24Z</time>
<desc>lat.=55.729778, lon.=26.243273, Alt.=163.634888m. Speed=0.684000m/h.</desc>
<speed>0.190000</speed>
</trkpt>
<trkpt lat="55.729782" lon="26.243273">
<ele>163.623169</ele>
<time>2010-07-18T08:26:25Z</time>
<desc>lat.=55.729782, lon.=26.243273, Alt.=163.623169m. Speed=0.648000m/h.</desc>
<speed>0.180000</speed>
</trkpt>
<trkpt lat="55.729782" lon="26.243275">
<ele>163.615356</ele>
<time>2010-07-18T08:26:26Z</time>
<desc>lat.=55.729782, lon.=26.243275, Alt.=163.615356m. Speed=0.540000m/h.</desc>
<speed>0.150000</speed>
</trkpt>
<trkpt lat="55.729782" lon="26.243275">
<ele>163.603638</ele>
<time>2010-07-18T08:26:27Z</time>
<desc>lat.=55.729782, lon.=26.243275, Alt.=163.603638m. Speed=0.396000m/h.</desc>
<speed>0.110000</speed>
</trkpt>
<trkpt lat="55.729786" lon="26.243277">
<ele>163.599731</ele>
<time>2010-07-18T08:26:28Z</time>
<desc>lat.=55.729786, lon.=26.243277, Alt.=163.599731m. Speed=0.252000m/h.</desc>
<speed>0.070000</speed>
</trkpt>
<trkpt lat="55.729786" lon="26.243277">
<ele>163.595825</ele>
<time>2010-07-18T08:26:29Z</time>
<desc>lat.=55.729786, lon.=26.243277, Alt.=163.595825m. Speed=0.288000m/h.</desc>
<speed>0.080000</speed>
</trkpt>
<trkpt lat="55.729786" lon="26.243279">
<ele>163.591919</ele>
<time>2010-07-18T08:26:30Z</time>
<desc>lat.=55.729786, lon.=26.243279, Alt.=163.591919m. Speed=0.216000m/h.</desc>
<speed>0.060000</speed>
</trkpt>
<trkpt lat="55.729786" lon="26.243280">
<ele>163.588013</ele>
<time>2010-07-18T08:26:31Z</time>
<desc>lat.=55.729786, lon.=26.243280, Alt.=163.588013m. Speed=0.216000m/h.</desc>
<speed>0.060000</speed>
</trkpt>
<trkpt lat="55.729786" lon="26.243280">
<ele>163.588013</ele>
<time>2010-07-18T08:26:32Z</time>
<desc>lat.=55.729786, lon.=26.243280, Alt.=163.588013m. Speed=0.360000m/h.</desc>
<speed>0.100000</speed>
</trkpt>
<trkpt lat="55.729786" lon="26.243282">
<ele>163.591919</ele>
<time>2010-07-18T08:26:33Z</time>
<desc>lat.=55.729786, lon.=26.243282, Alt.=163.591919m. Speed=0.504000m/h.</desc>
<speed>0.140000</speed>
</trkpt>
<trkpt lat="55.729782" lon="26.243284">
<ele>163.591919</ele>
<time>2010-07-18T08:26:34Z</time>
<desc>lat.=55.729782, lon.=26.243284, Alt.=163.591919m. Speed=0.504000m/h.</desc>
<speed>0.140000</speed>
</trkpt>
<trkpt lat="55.729782" lon="26.243288">
<ele>163.591919</ele>
<time>2010-07-18T08:26:35Z</time>
<desc>lat.=55.729782, lon.=26.243288, Alt.=163.591919m. Speed=0.684000m/h.</desc>
<speed>0.190000</speed>
</trkpt>
<trkpt lat="55.729782" lon="26.243290">
<ele>163.595825</ele>
<time>2010-07-18T08:26:36Z</time>
<desc>lat.=55.729782, lon.=26.243290, Alt.=163.595825m. Speed=0.864000m/h.</desc>
<speed>0.240000</speed>
</trkpt>
<trkpt lat="55.729778" lon="26.243294">
<ele>163.599731</ele>
<time>2010-07-18T08:26:37Z</time>
<desc>lat.=55.729778, lon.=26.243294, Alt.=163.599731m. Speed=1.044000m/h.</desc>
<speed>0.290000</speed>
</trkpt>
<trkpt lat="55.729778" lon="26.243296">
<ele>163.599731</ele>
<time>2010-07-18T08:26:38Z</time>
<desc>lat.=55.729778, lon.=26.243296, Alt.=163.599731m. Speed=1.008000m/h.</desc>
<speed>0.280000</speed>
</trkpt>
<trkpt lat="55.729774" lon="26.243299">
<ele>163.603638</ele>
<time>2010-07-18T08:26:39Z</time>
<desc>lat.=55.729774, lon.=26.243299, Alt.=163.603638m. Speed=0.972000m/h.</desc>
<speed>0.270000</speed>
</trkpt>
<trkpt lat="55.729774" lon="26.243301">
<ele>163.611450</ele>
<time>2010-07-18T08:26:40Z</time>
<desc>lat.=55.729774, lon.=26.243301, Alt.=163.611450m. Speed=1.080000m/h.</desc>
<speed>0.300000</speed>
</trkpt>
<trkpt lat="55.729771" lon="26.243303">
<ele>163.931763</ele>
<time>2010-07-18T08:26:41Z</time>
<desc>lat.=55.729771, lon.=26.243303, Alt.=163.931763m. Speed=1.044000m/h.</desc>
<speed>0.290000</speed>
</trkpt>
<trkpt lat="55.729774" lon="26.243301">
<ele>164.209106</ele>
<time>2010-07-18T08:26:42Z</time>
<desc>lat.=55.729774, lon.=26.243301, Alt.=164.209106m. Speed=0.972000m/h.</desc>
<speed>0.270000</speed>
</trkpt>
<trkpt lat="55.729771" lon="26.243303">
<ele>164.599731</ele>
<time>2010-07-18T08:26:43Z</time>
<desc>lat.=55.729771, lon.=26.243303, Alt.=164.599731m. Speed=1.044000m/h.</desc>
<speed>0.290000</speed>
</trkpt>
<trkpt lat="55.729778" lon="26.243296">
<ele>164.877075</ele>
<time>2010-07-18T08:26:44Z</time>
<desc>lat.=55.729778, lon.=26.243296, Alt.=164.877075m. Speed=0.648000m/h.</desc>
<speed>0.180000</speed>
</trkpt>
<trkpt lat="55.729778" lon="26.243298">
<ele>164.896606</ele>
<time>2010-07-18T08:26:45Z</time>
<desc>lat.=55.729778, lon.=26.243298, Alt.=164.896606m. Speed=0.288000m/h.</desc>
<speed>0.080000</speed>
</trkpt>
<trkpt lat="55.729778" lon="26.243298">
<ele>164.912231</ele>
<time>2010-07-18T08:26:46Z</time>
<desc>lat.=55.729778, lon.=26.243298, Alt.=164.912231m. Speed=0.360000m/h.</desc>
<speed>0.100000</speed>
</trkpt>
<trkpt lat="55.729778" lon="26.243299">
<ele>164.943481</ele>
<time>2010-07-18T08:26:47Z</time>
<desc>lat.=55.729778, lon.=26.243299, Alt.=164.943481m. Speed=0.504000m/h.</desc>
<speed>0.140000</speed>
</trkpt>
<trkpt lat="55.729774" lon="26.243299">
<ele>164.970825</ele>
<time>2010-07-18T08:26:48Z</time>
<desc>lat.=55.729774, lon.=26.243299, Alt.=164.970825m. Speed=0.576000m/h.</desc>
<speed>0.160000</speed>
</trkpt>
<trkpt lat="55.729774" lon="26.243301">
<ele>165.002075</ele>
<time>2010-07-18T08:26:49Z</time>
<desc>lat.=55.729774, lon.=26.243301, Alt.=165.002075m. Speed=0.612000m/h.</desc>
<speed>0.170000</speed>
</trkpt>
<trkpt lat="55.729774" lon="26.243301">
<ele>165.041138</ele>
<time>2010-07-18T08:26:50Z</time>
<desc>lat.=55.729774, lon.=26.243301, Alt.=165.041138m. Speed=0.684000m/h.</desc>
<speed>0.190000</speed>
</trkpt>
<trkpt lat="55.729771" lon="26.243303">
<ele>165.076294</ele>
<time>2010-07-18T08:26:51Z</time>
<desc>lat.=55.729771, lon.=26.243303, Alt.=165.076294m. Speed=0.432000m/h.</desc>
<speed>0.120000</speed>
</trkpt>
<trkpt lat="55.729771" lon="26.243305">
<ele>165.107544</ele>
<time>2010-07-18T08:26:52Z</time>
<desc>lat.=55.729771, lon.=26.243305, Alt.=165.107544m. Speed=0.360000m/h.</desc>
<speed>0.100000</speed>
</trkpt>
<trkpt lat="55.729771" lon="26.243307">
<ele>165.150513</ele>
<time>2010-07-18T08:26:53Z</time>
<desc>lat.=55.729771, lon.=26.243307, Alt.=165.150513m. Speed=0.288000m/h.</desc>
<speed>0.080000</speed>
</trkpt>
<trkpt lat="55.729771" lon="26.243307">
<ele>165.197388</ele>
<time>2010-07-18T08:26:54Z</time>
<desc>lat.=55.729771, lon.=26.243307, Alt.=165.197388m. Speed=0.180000m/h.</desc>
<speed>0.050000</speed>
</trkpt>
<trkpt lat="55.729771" lon="26.243307">
<ele>165.244263</ele>
<time>2010-07-18T08:26:55Z</time>
<desc>lat.=55.729771, lon.=26.243307, Alt.=165.244263m. Speed=0.216000m/h.</desc>
<speed>0.060000</speed>
</trkpt>
<trkpt lat="55.729767" lon="26.243307">
<ele>165.291138</ele>
<time>2010-07-18T08:26:56Z</time>
<desc>lat.=55.729767, lon.=26.243307, Alt.=165.291138m. Speed=0.180000m/h.</desc>
<speed>0.050000</speed>
</trkpt>
<trkpt lat="55.729767" lon="26.243309">
<ele>165.330200</ele>
<time>2010-07-18T08:26:57Z</time>
<desc>lat.=55.729767, lon.=26.243309, Alt.=165.330200m. Speed=0.252000m/h.</desc>
<speed>0.070000</speed>
</trkpt>
<trkpt lat="55.729767" lon="26.243309">
<ele>165.365356</ele>
<time>2010-07-18T08:26:58Z</time>
<desc>lat.=55.729767, lon.=26.243309, Alt.=165.365356m. Speed=0.180000m/h.</desc>
<speed>0.050000</speed>
</trkpt>
<trkpt lat="55.729767" lon="26.243311">
<ele>165.392700</ele>
<time>2010-07-18T08:26:59Z</time>
<desc>lat.=55.729767, lon.=26.243311, Alt.=165.392700m. Speed=0.108000m/h.</desc>
<speed>0.030000</speed>
</trkpt>
<trkpt lat="55.729771" lon="26.243309">
<ele>165.423950</ele>
<time>2010-07-18T08:27:00Z</time>
<desc>lat.=55.729771, lon.=26.243309, Alt.=165.423950m. Speed=0.144000m/h.</desc>
<speed>0.040000</speed>
</trkpt>
<trkpt lat="55.729771" lon="26.243311">
<ele>165.459106</ele>
<time>2010-07-18T08:27:01Z</time>
<desc>lat.=55.729771, lon.=26.243311, Alt.=165.459106m. Speed=0.180000m/h.</desc>
<speed>0.050000</speed>
</trkpt>
<trkpt lat="55.729771" lon="26.243309">
<ele>165.490356</ele>
<time>2010-07-18T08:27:02Z</time>
<desc>lat.=55.729771, lon.=26.243309, Alt.=165.490356m. Speed=0.180000m/h.</desc>
<speed>0.050000</speed>
</trkpt>
<trkpt lat="55.729771" lon="26.243309">
<ele>165.525513</ele>
<time>2010-07-18T08:27:03Z</time>
<desc>lat.=55.729771, lon.=26.243309, Alt.=165.525513m. Speed=0.180000m/h.</desc>
<speed>0.050000</speed>
</trkpt>
<trkpt lat="55.729771" lon="26.243309">
<ele>165.560669</ele>
<time>2010-07-18T08:27:04Z</time>
<desc>lat.=55.729771, lon.=26.243309, Alt.=165.560669m. Speed=0.108000m/h.</desc>
<speed>0.030000</speed>
</trkpt>
<trkpt lat="55.729771" lon="26.243311">
<ele>165.603638</ele>
<time>2010-07-18T08:27:05Z</time>
<desc>lat.=55.729771, lon.=26.243311, Alt.=165.603638m. Speed=0.180000m/h.</desc>
<speed>0.050000</speed>
</trkpt>
<trkpt lat="55.729771" lon="26.243311">
<ele>165.634888</ele>
<time>2010-07-18T08:27:06Z</time>
<desc>lat.=55.729771, lon.=26.243311, Alt.=165.634888m. Speed=0.036000m/h.</desc>
<speed>0.010000</speed>
</trkpt>
<trkpt lat="55.729771" lon="26.243311">
<ele>165.654419</ele>
<time>2010-07-18T08:27:07Z</time>
<desc>lat.=55.729771, lon.=26.243311, Alt.=165.654419m. Speed=0.000000m/h.</desc>
<speed>0.000000</speed>
</trkpt>
<trkpt lat="55.729771" lon="26.243311">
<ele>165.638794</ele>
<time>2010-07-18T08:27:08Z</time>
<desc>lat.=55.729771, lon.=26.243311, Alt.=165.638794m. Speed=0.180000m/h.</desc>
<speed>0.050000</speed>
</trkpt>
<trkpt lat="55.729771" lon="26.243311">
<ele>165.627075</ele>
<time>2010-07-18T08:27:09Z</time>
<desc>lat.=55.729771, lon.=26.243311, Alt.=165.627075m. Speed=0.036000m/h.</desc>
<speed>0.010000</speed>
</trkpt>
<trkpt lat="55.729771" lon="26.243311">
<ele>165.627075</ele>
<time>2010-07-18T08:27:10Z</time>
<desc>lat.=55.729771, lon.=26.243311, Alt.=165.627075m. Speed=0.000000m/h.</desc>
<speed>0.000000</speed>
</trkpt>
<trkpt lat="55.729771" lon="26.243311">
<ele>165.623169</ele>
<time>2010-07-18T08:27:11Z</time>
<desc>lat.=55.729771, lon.=26.243311, Alt.=165.623169m. Speed=0.000000m/h.</desc>
<speed>0.000000</speed>
</trkpt>
<trkpt lat="55.729771" lon="26.243311">
<ele>165.623169</ele>
<time>2010-07-18T08:27:12Z</time>
<desc>lat.=55.729771, lon.=26.243311, Alt.=165.623169m. Speed=0.036000m/h.</desc>
<speed>0.010000</speed>
</trkpt>
<trkpt lat="55.729771" lon="26.243311">
<ele>165.619263</ele>
<time>2010-07-18T08:27:13Z</time>
<desc>lat.=55.729771, lon.=26.243311, Alt.=165.619263m. Speed=0.000000m/h.</desc>
<speed>0.000000</speed>
</trkpt>
<trkpt lat="55.729771" lon="26.243311">
<ele>165.615356</ele>
<time>2010-07-18T08:27:14Z</time>
<desc>lat.=55.729771, lon.=26.243311, Alt.=165.615356m. Speed=0.036000m/h.</desc>
<speed>0.010000</speed>
</trkpt>
<trkpt lat="55.729771" lon="26.243309">
<ele>165.607544</ele>
<time>2010-07-18T08:27:15Z</time>
<desc>lat.=55.729771, lon.=26.243309, Alt.=165.607544m. Speed=0.036000m/h.</desc>
<speed>0.010000</speed>
</trkpt>
<trkpt lat="55.729771" lon="26.243309">
<ele>165.607544</ele>
<time>2010-07-18T08:27:16Z</time>
<desc>lat.=55.729771, lon.=26.243309, Alt.=165.607544m. Speed=0.000000m/h.</desc>
<speed>0.000000</speed>
</trkpt>
<trkpt lat="55.729771" lon="26.243311">
<ele>165.607544</ele>
<time>2010-07-18T08:27:17Z</time>
<desc>lat.=55.729771, lon.=26.243311, Alt.=165.607544m. Speed=0.036000m/h.</desc>
<speed>0.010000</speed>
</trkpt>
<trkpt lat="55.729771" lon="26.243309">
<ele>165.611450</ele>
<time>2010-07-18T08:27:18Z</time>
<desc>lat.=55.729771, lon.=26.243309, Alt.=165.611450m. Speed=0.072000m/h.</desc>
<speed>0.020000</speed>
</trkpt>
<trkpt lat="55.729771" lon="26.243311">
<ele>165.623169</ele>
<time>2010-07-18T08:27:19Z</time>
<desc>lat.=55.729771, lon.=26.243311, Alt.=165.623169m. Speed=0.072000m/h.</desc>
<speed>0.020000</speed>
</trkpt>
<trkpt lat="55.729771" lon="26.243311">
<ele>165.634888</ele>
<time>2010-07-18T08:27:20Z</time>
<desc>lat.=55.729771, lon.=26.243311, Alt.=165.634888m. Speed=0.072000m/h.</desc>
<speed>0.020000</speed>
</trkpt>
<trkpt lat="55.729771" lon="26.243311">
<ele>165.646606</ele>
<time>2010-07-18T08:27:21Z</time>
<desc>lat.=55.729771, lon.=26.243311, Alt.=165.646606m. Speed=0.072000m/h.</desc>
<speed>0.020000</speed>
</trkpt>
<trkpt lat="55.729771" lon="26.243311">
<ele>165.650513</ele>
<time>2010-07-18T08:27:22Z</time>
<desc>lat.=55.729771, lon.=26.243311, Alt.=165.650513m. Speed=0.036000m/h.</desc>
<speed>0.010000</speed>
</trkpt>
<trkpt lat="55.729771" lon="26.243311">
<ele>165.654419</ele>
<time>2010-07-18T08:27:23Z</time>
<desc>lat.=55.729771, lon.=26.243311, Alt.=165.654419m. Speed=0.036000m/h.</desc>
<speed>0.010000</speed>
</trkpt>
<trkpt lat="55.729771" lon="26.243311">
<ele>165.658325</ele>
<time>2010-07-18T08:27:24Z</time>
<desc>lat.=55.729771, lon.=26.243311, Alt.=165.658325m. Speed=0.000000m/h.</desc>
<speed>0.000000</speed>
</trkpt>
<trkpt lat="55.729771" lon="26.243311">
<ele>165.662231</ele>
<time>2010-07-18T08:27:25Z</time>
<desc>lat.=55.729771, lon.=26.243311, Alt.=165.662231m. Speed=0.108000m/h.</desc>
<speed>0.030000</speed>
</trkpt>
<trkpt lat="55.729771" lon="26.243311">
<ele>165.666138</ele>
<time>2010-07-18T08:27:26Z</time>
<desc>lat.=55.729771, lon.=26.243311, Alt.=165.666138m. Speed=0.072000m/h.</desc>
<speed>0.020000</speed>
</trkpt>
<trkpt lat="55.729771" lon="26.243311">
<ele>165.662231</ele>
<time>2010-07-18T08:27:27Z</time>
<desc>lat.=55.729771, lon.=26.243311, Alt.=165.662231m. Speed=0.072000m/h.</desc>
<speed>0.020000</speed>
</trkpt>
<trkpt lat="55.729771" lon="26.243311">
<ele>165.662231</ele>
<time>2010-07-18T08:27:28Z</time>
<desc>lat.=55.729771, lon.=26.243311, Alt.=165.662231m. Speed=0.036000m/h.</desc>
<speed>0.010000</speed>
</trkpt>
<trkpt lat="55.729771" lon="26.243311">
<ele>165.658325</ele>
<time>2010-07-18T08:27:29Z</time>
<desc>lat.=55.729771, lon.=26.243311, Alt.=165.658325m. Speed=0.036000m/h.</desc>
<speed>0.010000</speed>
</trkpt>
<trkpt lat="55.729771" lon="26.243311">
<ele>165.650513</ele>
<time>2010-07-18T08:27:30Z</time>
<desc>lat.=55.729771, lon.=26.243311, Alt.=165.650513m. Speed=0.036000m/h.</desc>
<speed>0.010000</speed>
</trkpt>
<trkpt lat="55.729771" lon="26.243311">
<ele>165.646606</ele>
<time>2010-07-18T08:27:31Z</time>
<desc>lat.=55.729771, lon.=26.243311, Alt.=165.646606m. Speed=0.072000m/h.</desc>
<speed>0.020000</speed>
</trkpt>
<trkpt lat="55.729771" lon="26.243311">
<ele>165.646606</ele>
<time>2010-07-18T08:27:32Z</time>
<desc>lat.=55.729771, lon.=26.243311, Alt.=165.646606m. Speed=0.072000m/h.</desc>
<speed>0.020000</speed>
</trkpt>
<trkpt lat="55.729771" lon="26.243311">
<ele>165.642700</ele>
<time>2010-07-18T08:27:33Z</time>
<desc>lat.=55.729771, lon.=26.243311, Alt.=165.642700m. Speed=0.036000m/h.</desc>
<speed>0.010000</speed>
</trkpt>
<trkpt lat="55.729771" lon="26.243311">
<ele>165.646606</ele>
<time>2010-07-18T08:27:34Z</time>
<desc>lat.=55.729771, lon.=26.243311, Alt.=165.646606m. Speed=0.036000m/h.</desc>
<speed>0.010000</speed>
</trkpt>
<trkpt lat="55.729771" lon="26.243311">
<ele>165.642700</ele>
<time>2010-07-18T08:27:35Z</time>
<desc>lat.=55.729771, lon.=26.243311, Alt.=165.642700m. Speed=0.000000m/h.</desc>
<speed>0.000000</speed>
</trkpt>
<trkpt lat="55.729771" lon="26.243311">
<ele>165.638794</ele>
<time>2010-07-18T08:27:36Z</time>
<desc>lat.=55.729771, lon.=26.243311, Alt.=165.638794m. Speed=0.108000m/h.</desc>
<speed>0.030000</speed>
</trkpt>
<trkpt lat="55.729771" lon="26.243311">
<ele>165.638794</ele>
<time>2010-07-18T08:27:37Z</time>
<desc>lat.=55.729771, lon.=26.243311, Alt.=165.638794m. Speed=0.036000m/h.</desc>
<speed>0.010000</speed>
</trkpt>
<trkpt lat="55.729771" lon="26.243311">
<ele>165.634888</ele>
<time>2010-07-18T08:27:38Z</time>
<desc>lat.=55.729771, lon.=26.243311, Alt.=165.634888m. Speed=0.036000m/h.</desc>
<speed>0.010000</speed>
</trkpt>
<trkpt lat="55.729771" lon="26.243311">
<ele>165.634888</ele>
<time>2010-07-18T08:27:39Z</time>
<desc>lat.=55.729771, lon.=26.243311, Alt.=165.634888m. Speed=0.000000m/h.</desc>
<speed>0.000000</speed>
</trkpt>
<trkpt lat="55.729771" lon="26.243311">
<ele>165.630981</ele>
<time>2010-07-18T08:27:40Z</time>
<desc>lat.=55.729771, lon.=26.243311, Alt.=165.630981m. Speed=0.036000m/h.</desc>
<speed>0.010000</speed>
</trkpt>
<trkpt lat="55.729771" lon="26.243311">
<ele>165.627075</ele>
<time>2010-07-18T08:27:41Z</time>
<desc>lat.=55.729771, lon.=26.243311, Alt.=165.627075m. Speed=0.000000m/h.</desc>
<speed>0.000000</speed>
</trkpt>
<trkpt lat="55.729771" lon="26.243311">
<ele>165.627075</ele>
<time>2010-07-18T08:27:42Z</time>
<desc>lat.=55.729771, lon.=26.243311, Alt.=165.627075m. Speed=0.036000m/h.</desc>
<speed>0.010000</speed>
</trkpt>
<trkpt lat="55.729771" lon="26.243311">
<ele>165.623169</ele>
<time>2010-07-18T08:27:43Z</time>
<desc>lat.=55.729771, lon.=26.243311, Alt.=165.623169m. Speed=0.036000m/h.</desc>
<speed>0.010000</speed>
</trkpt>
<trkpt lat="55.729771" lon="26.243309">
<ele>165.619263</ele>
<time>2010-07-18T08:27:44Z</time>
<desc>lat.=55.729771, lon.=26.243309, Alt.=165.619263m. Speed=0.144000m/h.</desc>
<speed>0.040000</speed>
</trkpt>
<trkpt lat="55.729771" lon="26.243309">
<ele>165.611450</ele>
<time>2010-07-18T08:27:45Z</time>
<desc>lat.=55.729771, lon.=26.243309, Alt.=165.611450m. Speed=0.036000m/h.</desc>
<speed>0.010000</speed>
</trkpt>
<trkpt lat="55.729771" lon="26.243309">
<ele>165.615356</ele>
<time>2010-07-18T08:27:46Z</time>
<desc>lat.=55.729771, lon.=26.243309, Alt.=165.615356m. Speed=0.072000m/h.</desc>
<speed>0.020000</speed>
</trkpt>
<trkpt lat="55.729771" lon="26.243309">
<ele>165.611450</ele>
<time>2010-07-18T08:27:47Z</time>
<desc>lat.=55.729771, lon.=26.243309, Alt.=165.611450m. Speed=0.108000m/h.</desc>
<speed>0.030000</speed>
</trkpt>
<trkpt lat="55.729771" lon="26.243309">
<ele>165.611450</ele>
<time>2010-07-18T08:27:48Z</time>
<desc>lat.=55.729771, lon.=26.243309, Alt.=165.611450m. Speed=0.108000m/h.</desc>
<speed>0.030000</speed>
</trkpt>
<trkpt lat="55.729771" lon="26.243309">
<ele>165.611450</ele>
<time>2010-07-18T08:27:49Z</time>
<desc>lat.=55.729771, lon.=26.243309, Alt.=165.611450m. Speed=0.072000m/h.</desc>
<speed>0.020000</speed>
</trkpt>
<trkpt lat="55.729771" lon="26.243307">
<ele>165.611450</ele>
<time>2010-07-18T08:27:50Z</time>
<desc>lat.=55.729771, lon.=26.243307, Alt.=165.611450m. Speed=0.036000m/h.</desc>
<speed>0.010000</speed>
</trkpt>
<trkpt lat="55.729771" lon="26.243307">
<ele>165.615356</ele>
<time>2010-07-18T08:27:51Z</time>
<desc>lat.=55.729771, lon.=26.243307, Alt.=165.615356m. Speed=0.036000m/h.</desc>
<speed>0.010000</speed>
</trkpt>
<trkpt lat="55.729771" lon="26.243307">
<ele>165.619263</ele>
<time>2010-07-18T08:27:52Z</time>
<desc>lat.=55.729771, lon.=26.243307, Alt.=165.619263m. Speed=0.036000m/h.</desc>
<speed>0.010000</speed>
</trkpt>
<trkpt lat="55.729771" lon="26.243307">
<ele>165.623169</ele>
<time>2010-07-18T08:27:53Z</time>
<desc>lat.=55.729771, lon.=26.243307, Alt.=165.623169m. Speed=0.036000m/h.</desc>
<speed>0.010000</speed>
</trkpt>
<trkpt lat="55.729771" lon="26.243307">
<ele>165.630981</ele>
<time>2010-07-18T08:27:54Z</time>
<desc>lat.=55.729771, lon.=26.243307, Alt.=165.630981m. Speed=0.072000m/h.</desc>
<speed>0.020000</speed>
</trkpt>
<trkpt lat="55.729771" lon="26.243309">
<ele>165.634888</ele>
<time>2010-07-18T08:27:55Z</time>
<desc>lat.=55.729771, lon.=26.243309, Alt.=165.634888m. Speed=0.072000m/h.</desc>
<speed>0.020000</speed>
</trkpt>
<trkpt lat="55.729771" lon="26.243309">
<ele>165.634888</ele>
<time>2010-07-18T08:27:56Z</time>
<desc>lat.=55.729771, lon.=26.243309, Alt.=165.634888m. Speed=0.216000m/h.</desc>
<speed>0.060000</speed>
</trkpt>
<trkpt lat="55.729771" lon="26.243309">
<ele>165.638794</ele>
<time>2010-07-18T08:27:57Z</time>
<desc>lat.=55.729771, lon.=26.243309, Alt.=165.638794m. Speed=0.216000m/h.</desc>
<speed>0.060000</speed>
</trkpt>
<trkpt lat="55.729771" lon="26.243311">
<ele>165.650513</ele>
<time>2010-07-18T08:27:58Z</time>
<desc>lat.=55.729771, lon.=26.243311, Alt.=165.650513m. Speed=0.288000m/h.</desc>
<speed>0.080000</speed>
</trkpt>
<trkpt lat="55.729771" lon="26.243313">
<ele>165.654419</ele>
<time>2010-07-18T08:27:59Z</time>
<desc>lat.=55.729771, lon.=26.243313, Alt.=165.654419m. Speed=0.288000m/h.</desc>
<speed>0.080000</speed>
</trkpt>
<trkpt lat="55.729771" lon="26.243313">
<ele>165.662231</ele>
<time>2010-07-18T08:28:00Z</time>
<desc>lat.=55.729771, lon.=26.243313, Alt.=165.662231m. Speed=0.252000m/h.</desc>
<speed>0.070000</speed>
</trkpt>
<trkpt lat="55.729771" lon="26.243315">
<ele>165.670044</ele>
<time>2010-07-18T08:28:01Z</time>
<desc>lat.=55.729771, lon.=26.243315, Alt.=165.670044m. Speed=0.180000m/h.</desc>
<speed>0.050000</speed>
</trkpt>
<trkpt lat="55.729771" lon="26.243315">
<ele>165.677856</ele>
<time>2010-07-18T08:28:02Z</time>
<desc>lat.=55.729771, lon.=26.243315, Alt.=165.677856m. Speed=0.180000m/h.</desc>
<speed>0.050000</speed>
</trkpt>
<trkpt lat="55.729771" lon="26.243317">
<ele>165.689575</ele>
<time>2010-07-18T08:28:03Z</time>
<desc>lat.=55.729771, lon.=26.243317, Alt.=165.689575m. Speed=0.180000m/h.</desc>
<speed>0.050000</speed>
</trkpt>
<trkpt lat="55.729771" lon="26.243317">
<ele>165.705200</ele>
<time>2010-07-18T08:28:04Z</time>
<desc>lat.=55.729771, lon.=26.243317, Alt.=165.705200m. Speed=0.180000m/h.</desc>
<speed>0.050000</speed>
</trkpt>
<trkpt lat="55.729771" lon="26.243317">
<ele>165.720825</ele>
<time>2010-07-18T08:28:05Z</time>
<desc>lat.=55.729771, lon.=26.243317, Alt.=165.720825m. Speed=0.252000m/h.</desc>
<speed>0.070000</speed>
</trkpt>
<trkpt lat="55.729771" lon="26.243317">
<ele>165.736450</ele>
<time>2010-07-18T08:28:06Z</time>
<desc>lat.=55.729771, lon.=26.243317, Alt.=165.736450m. Speed=0.324000m/h.</desc>
<speed>0.090000</speed>
</trkpt>
<trkpt lat="55.729774" lon="26.243317">
<ele>165.752075</ele>
<time>2010-07-18T08:28:07Z</time>
<desc>lat.=55.729774, lon.=26.243317, Alt.=165.752075m. Speed=0.360000m/h.</desc>
<speed>0.100000</speed>
</trkpt>
<trkpt lat="55.729774" lon="26.243317">
<ele>165.767700</ele>
<time>2010-07-18T08:28:08Z</time>
<desc>lat.=55.729774, lon.=26.243317, Alt.=165.767700m. Speed=0.396000m/h.</desc>
<speed>0.110000</speed>
</trkpt>
<trkpt lat="55.729774" lon="26.243317">
<ele>165.787231</ele>
<time>2010-07-18T08:28:09Z</time>
<desc>lat.=55.729774, lon.=26.243317, Alt.=165.787231m. Speed=0.432000m/h.</desc>
<speed>0.120000</speed>
</trkpt>
<trkpt lat="55.729774" lon="26.243317">
<ele>165.802856</ele>
<time>2010-07-18T08:28:10Z</time>
<desc>lat.=55.729774, lon.=26.243317, Alt.=165.802856m. Speed=0.396000m/h.</desc>
<speed>0.110000</speed>
</trkpt>
<trkpt lat="55.729778" lon="26.243317">
<ele>165.826294</ele>
<time>2010-07-18T08:28:11Z</time>
<desc>lat.=55.729778, lon.=26.243317, Alt.=165.826294m. Speed=0.432000m/h.</desc>
<speed>0.120000</speed>
</trkpt>
<trkpt lat="55.729778" lon="26.243315">
<ele>165.841919</ele>
<time>2010-07-18T08:28:12Z</time>
<desc>lat.=55.729778, lon.=26.243315, Alt.=165.841919m. Speed=0.432000m/h.</desc>
<speed>0.120000</speed>
</trkpt>
<trkpt lat="55.729778" lon="26.243315">
<ele>165.869263</ele>
<time>2010-07-18T08:28:13Z</time>
<desc>lat.=55.729778, lon.=26.243315, Alt.=165.869263m. Speed=0.432000m/h.</desc>
<speed>0.120000</speed>
</trkpt>
<trkpt lat="55.729782" lon="26.243315">
<ele>165.892700</ele>
<time>2010-07-18T08:28:14Z</time>
<desc>lat.=55.729782, lon.=26.243315, Alt.=165.892700m. Speed=0.432000m/h.</desc>
<speed>0.120000</speed>
</trkpt>
<trkpt lat="55.729782" lon="26.243315">
<ele>165.916138</ele>
<time>2010-07-18T08:28:15Z</time>
<desc>lat.=55.729782, lon.=26.243315, Alt.=165.916138m. Speed=0.432000m/h.</desc>
<speed>0.120000</speed>
</trkpt>
<trkpt lat="55.729782" lon="26.243315">
<ele>165.939575</ele>
<time>2010-07-18T08:28:16Z</time>
<desc>lat.=55.729782, lon.=26.243315, Alt.=165.939575m. Speed=0.432000m/h.</desc>
<speed>0.120000</speed>
</trkpt>
<trkpt lat="55.729782" lon="26.243315">
<ele>165.963013</ele>
<time>2010-07-18T08:28:17Z</time>
<desc>lat.=55.729782, lon.=26.243315, Alt.=165.963013m. Speed=0.468000m/h.</desc>
<speed>0.130000</speed>
</trkpt>
<trkpt lat="55.729786" lon="26.243315">
<ele>165.986450</ele>
<time>2010-07-18T08:28:18Z</time>
<desc>lat.=55.729786, lon.=26.243315, Alt.=165.986450m. Speed=0.504000m/h.</desc>
<speed>0.140000</speed>
</trkpt>
<trkpt lat="55.729786" lon="26.243315">
<ele>166.005981</ele>
<time>2010-07-18T08:28:19Z</time>
<desc>lat.=55.729786, lon.=26.243315, Alt.=166.005981m. Speed=0.540000m/h.</desc>
<speed>0.150000</speed>
</trkpt>
<trkpt lat="55.729786" lon="26.243315">
<ele>166.029419</ele>
<time>2010-07-18T08:28:20Z</time>
<desc>lat.=55.729786, lon.=26.243315, Alt.=166.029419m. Speed=0.540000m/h.</desc>
<speed>0.150000</speed>
</trkpt>
<trkpt lat="55.729790" lon="26.243315">
<ele>166.052856</ele>
<time>2010-07-18T08:28:21Z</time>
<desc>lat.=55.729790, lon.=26.243315, Alt.=166.052856m. Speed=0.648000m/h.</desc>
<speed>0.180000</speed>
</trkpt>
<trkpt lat="55.729790" lon="26.243315">
<ele>166.072388</ele>
<time>2010-07-18T08:28:22Z</time>
<desc>lat.=55.729790, lon.=26.243315, Alt.=166.072388m. Speed=0.648000m/h.</desc>
<speed>0.180000</speed>
</trkpt>
<trkpt lat="55.729794" lon="26.243317">
<ele>166.072388</ele>
<time>2010-07-18T08:28:23Z</time>
<desc>lat.=55.729794, lon.=26.243317, Alt.=166.072388m. Speed=0.612000m/h.</desc>
<speed>0.170000</speed>
</trkpt>
<trkpt lat="55.729794" lon="26.243317">
<ele>166.072388</ele>
<time>2010-07-18T08:28:24Z</time>
<desc>lat.=55.729794, lon.=26.243317, Alt.=166.072388m. Speed=0.720000m/h.</desc>
<speed>0.200000</speed>
</trkpt>
<trkpt lat="55.729797" lon="26.243319">
<ele>166.072388</ele>
<time>2010-07-18T08:28:25Z</time>
<desc>lat.=55.729797, lon.=26.243319, Alt.=166.072388m. Speed=0.684000m/h.</desc>
<speed>0.190000</speed>
</trkpt>
<trkpt lat="55.729797" lon="26.243320">
<ele>166.072388</ele>
<time>2010-07-18T08:28:26Z</time>
<desc>lat.=55.729797, lon.=26.243320, Alt.=166.072388m. Speed=0.648000m/h.</desc>
<speed>0.180000</speed>
</trkpt>
<trkpt lat="55.729797" lon="26.243322">
<ele>166.080200</ele>
<time>2010-07-18T08:28:27Z</time>
<desc>lat.=55.729797, lon.=26.243322, Alt.=166.080200m. Speed=0.648000m/h.</desc>
<speed>0.180000</speed>
</trkpt>
<trkpt lat="55.729801" lon="26.243324">
<ele>166.091919</ele>
<time>2010-07-18T08:28:28Z</time>
<desc>lat.=55.729801, lon.=26.243324, Alt.=166.091919m. Speed=0.576000m/h.</desc>
<speed>0.160000</speed>
</trkpt>
<trkpt lat="55.729801" lon="26.243324">
<ele>166.099731</ele>
<time>2010-07-18T08:28:29Z</time>
<desc>lat.=55.729801, lon.=26.243324, Alt.=166.099731m. Speed=0.576000m/h.</desc>
<speed>0.160000</speed>
</trkpt>
<trkpt lat="55.729801" lon="26.243326">
<ele>166.107544</ele>
<time>2010-07-18T08:28:30Z</time>
<desc>lat.=55.729801, lon.=26.243326, Alt.=166.107544m. Speed=0.648000m/h.</desc>
<speed>0.180000</speed>
</trkpt>
<trkpt lat="55.729805" lon="26.243326">
<ele>166.115356</ele>
<time>2010-07-18T08:28:31Z</time>
<desc>lat.=55.729805, lon.=26.243326, Alt.=166.115356m. Speed=0.648000m/h.</desc>
<speed>0.180000</speed>
</trkpt>
<trkpt lat="55.729805" lon="26.243326">
<ele>166.123169</ele>
<time>2010-07-18T08:28:32Z</time>
<desc>lat.=55.729805, lon.=26.243326, Alt.=166.123169m. Speed=0.648000m/h.</desc>
<speed>0.180000</speed>
</trkpt>
<trkpt lat="55.729809" lon="26.243328">
<ele>166.130981</ele>
<time>2010-07-18T08:28:33Z</time>
<desc>lat.=55.729809, lon.=26.243328, Alt.=166.130981m. Speed=0.648000m/h.</desc>
<speed>0.180000</speed>
</trkpt>
<trkpt lat="55.729809" lon="26.243330">
<ele>166.134888</ele>
<time>2010-07-18T08:28:34Z</time>
<desc>lat.=55.729809, lon.=26.243330, Alt.=166.134888m. Speed=0.684000m/h.</desc>
<speed>0.190000</speed>
</trkpt>
<trkpt lat="55.729813" lon="26.243330">
<ele>166.138794</ele>
<time>2010-07-18T08:28:35Z</time>
<desc>lat.=55.729813, lon.=26.243330, Alt.=166.138794m. Speed=0.684000m/h.</desc>
<speed>0.190000</speed>
</trkpt>
<trkpt lat="55.729813" lon="26.243332">
<ele>166.146606</ele>
<time>2010-07-18T08:28:36Z</time>
<desc>lat.=55.729813, lon.=26.243332, Alt.=166.146606m. Speed=0.684000m/h.</desc>
<speed>0.190000</speed>
</trkpt>
<trkpt lat="55.729813" lon="26.243332">
<ele>166.154419</ele>
<time>2010-07-18T08:28:37Z</time>
<desc>lat.=55.729813, lon.=26.243332, Alt.=166.154419m. Speed=0.468000m/h.</desc>
<speed>0.130000</speed>
</trkpt>
<trkpt lat="55.729816" lon="26.243334">
<ele>166.146606</ele>
<time>2010-07-18T08:28:38Z</time>
<desc>lat.=55.729816, lon.=26.243334, Alt.=166.146606m. Speed=0.180000m/h.</desc>
<speed>0.050000</speed>
</trkpt>
<trkpt lat="55.729816" lon="26.243334">
<ele>166.134888</ele>
<time>2010-07-18T08:28:39Z</time>
<desc>lat.=55.729816, lon.=26.243334, Alt.=166.134888m. Speed=0.180000m/h.</desc>
<speed>0.050000</speed>
</trkpt>
<trkpt lat="55.729816" lon="26.243336">
<ele>166.123169</ele>
<time>2010-07-18T08:28:40Z</time>
<desc>lat.=55.729816, lon.=26.243336, Alt.=166.123169m. Speed=0.216000m/h.</desc>
<speed>0.060000</speed>
</trkpt>
<trkpt lat="55.729813" lon="26.243336">
<ele>166.115356</ele>
<time>2010-07-18T08:28:41Z</time>
<desc>lat.=55.729813, lon.=26.243336, Alt.=166.115356m. Speed=0.144000m/h.</desc>
<speed>0.040000</speed>
</trkpt>
<trkpt lat="55.729816" lon="26.243336">
<ele>166.103638</ele>
<time>2010-07-18T08:28:42Z</time>
<desc>lat.=55.729816, lon.=26.243336, Alt.=166.103638m. Speed=0.144000m/h.</desc>
<speed>0.040000</speed>
</trkpt>
<trkpt lat="55.729816" lon="26.243338">
<ele>166.084106</ele>
<time>2010-07-18T08:28:43Z</time>
<desc>lat.=55.729816, lon.=26.243338, Alt.=166.084106m. Speed=0.144000m/h.</desc>
<speed>0.040000</speed>
</trkpt>
<trkpt lat="55.729816" lon="26.243338">
<ele>166.068481</ele>
<time>2010-07-18T08:28:44Z</time>
<desc>lat.=55.729816, lon.=26.243338, Alt.=166.068481m. Speed=0.108000m/h.</desc>
<speed>0.030000</speed>
</trkpt>
<trkpt lat="55.729816" lon="26.243338">
<ele>166.048950</ele>
<time>2010-07-18T08:28:45Z</time>
<desc>lat.=55.729816, lon.=26.243338, Alt.=166.048950m. Speed=0.072000m/h.</desc>
<speed>0.020000</speed>
</trkpt>
<trkpt lat="55.729816" lon="26.243338">
<ele>166.017700</ele>
<time>2010-07-18T08:28:46Z</time>
<desc>lat.=55.729816, lon.=26.243338, Alt.=166.017700m. Speed=0.072000m/h.</desc>
<speed>0.020000</speed>
</trkpt>
<trkpt lat="55.729816" lon="26.243340">
<ele>165.986450</ele>
<time>2010-07-18T08:28:47Z</time>
<desc>lat.=55.729816, lon.=26.243340, Alt.=165.986450m. Speed=0.144000m/h.</desc>
<speed>0.040000</speed>
</trkpt>
<trkpt lat="55.729816" lon="26.243340">
<ele>165.951294</ele>
<time>2010-07-18T08:28:48Z</time>
<desc>lat.=55.729816, lon.=26.243340, Alt.=165.951294m. Speed=0.144000m/h.</desc>
<speed>0.040000</speed>
</trkpt>
<trkpt lat="55.729816" lon="26.243341">
<ele>165.912231</ele>
<time>2010-07-18T08:28:49Z</time>
<desc>lat.=55.729816, lon.=26.243341, Alt.=165.912231m. Speed=0.216000m/h.</desc>
<speed>0.060000</speed>
</trkpt>
<trkpt lat="55.729816" lon="26.243341">
<ele>165.869263</ele>
<time>2010-07-18T08:28:50Z</time>
<desc>lat.=55.729816, lon.=26.243341, Alt.=165.869263m. Speed=0.252000m/h.</desc>
<speed>0.070000</speed>
</trkpt>
<trkpt lat="55.729816" lon="26.243343">
<ele>165.822388</ele>
<time>2010-07-18T08:28:51Z</time>
<desc>lat.=55.729816, lon.=26.243343, Alt.=165.822388m. Speed=0.288000m/h.</desc>
<speed>0.080000</speed>
</trkpt>
<trkpt lat="55.729816" lon="26.243345">
<ele>165.771606</ele>
<time>2010-07-18T08:28:52Z</time>
<desc>lat.=55.729816, lon.=26.243345, Alt.=165.771606m. Speed=0.288000m/h.</desc>
<speed>0.080000</speed>
</trkpt>
<trkpt lat="55.729816" lon="26.243347">
<ele>165.713013</ele>
<time>2010-07-18T08:28:53Z</time>
<desc>lat.=55.729816, lon.=26.243347, Alt.=165.713013m. Speed=0.288000m/h.</desc>
<speed>0.080000</speed>
</trkpt>
<trkpt lat="55.729816" lon="26.243347">
<ele>165.658325</ele>
<time>2010-07-18T08:28:54Z</time>
<desc>lat.=55.729816, lon.=26.243347, Alt.=165.658325m. Speed=0.324000m/h.</desc>
<speed>0.090000</speed>
</trkpt>
<trkpt lat="55.729816" lon="26.243349">
<ele>165.591919</ele>
<time>2010-07-18T08:28:55Z</time>
<desc>lat.=55.729816, lon.=26.243349, Alt.=165.591919m. Speed=0.360000m/h.</desc>
<speed>0.100000</speed>
</trkpt>
<trkpt lat="55.729813" lon="26.243351">
<ele>165.521606</ele>
<time>2010-07-18T08:28:56Z</time>
<desc>lat.=55.729813, lon.=26.243351, Alt.=165.521606m. Speed=0.324000m/h.</desc>
<speed>0.090000</speed>
</trkpt>
<trkpt lat="55.729813" lon="26.243353">
<ele>165.451294</ele>
<time>2010-07-18T08:28:57Z</time>
<desc>lat.=55.729813, lon.=26.243353, Alt.=165.451294m. Speed=0.252000m/h.</desc>
<speed>0.070000</speed>
</trkpt>
<trkpt lat="55.729813" lon="26.243353">
<ele>165.377075</ele>
<time>2010-07-18T08:28:58Z</time>
<desc>lat.=55.729813, lon.=26.243353, Alt.=165.377075m. Speed=0.252000m/h.</desc>
<speed>0.070000</speed>
</trkpt>
<trkpt lat="55.729813" lon="26.243355">
<ele>165.302856</ele>
<time>2010-07-18T08:28:59Z</time>
<desc>lat.=55.729813, lon.=26.243355, Alt.=165.302856m. Speed=0.108000m/h.</desc>
<speed>0.030000</speed>
</trkpt>
<trkpt lat="55.729813" lon="26.243355">
<ele>165.216919</ele>
<time>2010-07-18T08:29:00Z</time>
<desc>lat.=55.729813, lon.=26.243355, Alt.=165.216919m. Speed=0.108000m/h.</desc>
<speed>0.030000</speed>
</trkpt>
<trkpt lat="55.729813" lon="26.243357">
<ele>165.130981</ele>
<time>2010-07-18T08:29:01Z</time>
<desc>lat.=55.729813, lon.=26.243357, Alt.=165.130981m. Speed=0.072000m/h.</desc>
<speed>0.020000</speed>
</trkpt>
<trkpt lat="55.729813" lon="26.243357">
<ele>165.037231</ele>
<time>2010-07-18T08:29:02Z</time>
<desc>lat.=55.729813, lon.=26.243357, Alt.=165.037231m. Speed=0.180000m/h.</desc>
<speed>0.050000</speed>
</trkpt>
<trkpt lat="55.729813" lon="26.243357">
<ele>164.947388</ele>
<time>2010-07-18T08:29:03Z</time>
<desc>lat.=55.729813, lon.=26.243357, Alt.=164.947388m. Speed=0.144000m/h.</desc>
<speed>0.040000</speed>
</trkpt>
<trkpt lat="55.729813" lon="26.243359">
<ele>164.849731</ele>
<time>2010-07-18T08:29:04Z</time>
<desc>lat.=55.729813, lon.=26.243359, Alt.=164.849731m. Speed=0.216000m/h.</desc>
<speed>0.060000</speed>
</trkpt>
<trkpt lat="55.729813" lon="26.243361">
<ele>164.755981</ele>
<time>2010-07-18T08:29:05Z</time>
<desc>lat.=55.729813, lon.=26.243361, Alt.=164.755981m. Speed=0.180000m/h.</desc>
<speed>0.050000</speed>
</trkpt>
<trkpt lat="55.729813" lon="26.243361">
<ele>164.654419</ele>
<time>2010-07-18T08:29:06Z</time>
<desc>lat.=55.729813, lon.=26.243361, Alt.=164.654419m. Speed=0.180000m/h.</desc>
<speed>0.050000</speed>
</trkpt>
<trkpt lat="55.729816" lon="26.243361">
<ele>164.552856</ele>
<time>2010-07-18T08:29:07Z</time>
<desc>lat.=55.729816, lon.=26.243361, Alt.=164.552856m. Speed=0.180000m/h.</desc>
<speed>0.050000</speed>
</trkpt>
<trkpt lat="55.729816" lon="26.243361">
<ele>164.455200</ele>
<time>2010-07-18T08:29:08Z</time>
<desc>lat.=55.729816, lon.=26.243361, Alt.=164.455200m. Speed=0.216000m/h.</desc>
<speed>0.060000</speed>
</trkpt>
<trkpt lat="55.729816" lon="26.243361">
<ele>164.353638</ele>
<time>2010-07-18T08:29:09Z</time>
<desc>lat.=55.729816, lon.=26.243361, Alt.=164.353638m. Speed=0.180000m/h.</desc>
<speed>0.050000</speed>
</trkpt>
<trkpt lat="55.729816" lon="26.243361">
<ele>164.252075</ele>
<time>2010-07-18T08:29:10Z</time>
<desc>lat.=55.729816, lon.=26.243361, Alt.=164.252075m. Speed=0.144000m/h.</desc>
<speed>0.040000</speed>
</trkpt>
<trkpt lat="55.729816" lon="26.243361">
<ele>164.146606</ele>
<time>2010-07-18T08:29:11Z</time>
<desc>lat.=55.729816, lon.=26.243361, Alt.=164.146606m. Speed=0.216000m/h.</desc>
<speed>0.060000</speed>
</trkpt>
<trkpt lat="55.729816" lon="26.243362">
<ele>164.045044</ele>
<time>2010-07-18T08:29:12Z</time>
<desc>lat.=55.729816, lon.=26.243362, Alt.=164.045044m. Speed=0.144000m/h.</desc>
<speed>0.040000</speed>
</trkpt>
<trkpt lat="55.729816" lon="26.243362">
<ele>163.939575</ele>
<time>2010-07-18T08:29:13Z</time>
<desc>lat.=55.729816, lon.=26.243362, Alt.=163.939575m. Speed=0.180000m/h.</desc>
<speed>0.050000</speed>
</trkpt>
<trkpt lat="55.729813" lon="26.243362">
<ele>163.830200</ele>
<time>2010-07-18T08:29:14Z</time>
<desc>lat.=55.729813, lon.=26.243362, Alt.=163.830200m. Speed=0.180000m/h.</desc>
<speed>0.050000</speed>
</trkpt>
<trkpt lat="55.729813" lon="26.243362">
<ele>163.720825</ele>
<time>2010-07-18T08:29:15Z</time>
<desc>lat.=55.729813, lon.=26.243362, Alt.=163.720825m. Speed=0.216000m/h.</desc>
<speed>0.060000</speed>
</trkpt>
<trkpt lat="55.729813" lon="26.243361">
<ele>163.611450</ele>
<time>2010-07-18T08:29:16Z</time>
<desc>lat.=55.729813, lon.=26.243361, Alt.=163.611450m. Speed=0.360000m/h.</desc>
<speed>0.100000</speed>
</trkpt>
<trkpt lat="55.729813" lon="26.243361">
<ele>163.494263</ele>
<time>2010-07-18T08:29:17Z</time>
<desc>lat.=55.729813, lon.=26.243361, Alt.=163.494263m. Speed=0.396000m/h.</desc>
<speed>0.110000</speed>
</trkpt>
<trkpt lat="55.729813" lon="26.243359">
<ele>163.377075</ele>
<time>2010-07-18T08:29:18Z</time>
<desc>lat.=55.729813, lon.=26.243359, Alt.=163.377075m. Speed=0.360000m/h.</desc>
<speed>0.100000</speed>
</trkpt>
<trkpt lat="55.729809" lon="26.243359">
<ele>163.248169</ele>
<time>2010-07-18T08:29:19Z</time>
<desc>lat.=55.729809, lon.=26.243359, Alt.=163.248169m. Speed=0.396000m/h.</desc>
<speed>0.110000</speed>
</trkpt>
<trkpt lat="55.729809" lon="26.243357">
<ele>163.123169</ele>
<time>2010-07-18T08:29:20Z</time>
<desc>lat.=55.729809, lon.=26.243357, Alt.=163.123169m. Speed=0.396000m/h.</desc>
<speed>0.110000</speed>
</trkpt>
<trkpt lat="55.729809" lon="26.243355">
<ele>163.002075</ele>
<time>2010-07-18T08:29:21Z</time>
<desc>lat.=55.729809, lon.=26.243355, Alt.=163.002075m. Speed=0.432000m/h.</desc>
<speed>0.120000</speed>
</trkpt>
<trkpt lat="55.729809" lon="26.243353">
<ele>162.877075</ele>
<time>2010-07-18T08:29:22Z</time>
<desc>lat.=55.729809, lon.=26.243353, Alt.=162.877075m. Speed=0.540000m/h.</desc>
<speed>0.150000</speed>
</trkpt>
<trkpt lat="55.729809" lon="26.243351">
<ele>162.752075</ele>
<time>2010-07-18T08:29:23Z</time>
<desc>lat.=55.729809, lon.=26.243351, Alt.=162.752075m. Speed=0.504000m/h.</desc>
<speed>0.140000</speed>
</trkpt>
<trkpt lat="55.729805" lon="26.243349">
<ele>162.615356</ele>
<time>2010-07-18T08:29:24Z</time>
<desc>lat.=55.729805, lon.=26.243349, Alt.=162.615356m. Speed=0.396000m/h.</desc>
<speed>0.110000</speed>
</trkpt>
<trkpt lat="55.729805" lon="26.243351">
<ele>162.470825</ele>
<time>2010-07-18T08:29:25Z</time>
<desc>lat.=55.729805, lon.=26.243351, Alt.=162.470825m. Speed=0.612000m/h.</desc>
<speed>0.170000</speed>
</trkpt>
<trkpt lat="55.729805" lon="26.243353">
<ele>162.334106</ele>
<time>2010-07-18T08:29:26Z</time>
<desc>lat.=55.729805, lon.=26.243353, Alt.=162.334106m. Speed=0.720000m/h.</desc>
<speed>0.200000</speed>
</trkpt>
<trkpt lat="55.729805" lon="26.243357">
<ele>162.197388</ele>
<time>2010-07-18T08:29:27Z</time>
<desc>lat.=55.729805, lon.=26.243357, Alt.=162.197388m. Speed=0.756000m/h.</desc>
<speed>0.210000</speed>
</trkpt>
<trkpt lat="55.729805" lon="26.243359">
<ele>162.060669</ele>
<time>2010-07-18T08:29:28Z</time>
<desc>lat.=55.729805, lon.=26.243359, Alt.=162.060669m. Speed=0.792000m/h.</desc>
<speed>0.220000</speed>
</trkpt>
<trkpt lat="55.729801" lon="26.243362">
<ele>161.923950</ele>
<time>2010-07-18T08:29:29Z</time>
<desc>lat.=55.729801, lon.=26.243362, Alt.=161.923950m. Speed=0.936000m/h.</desc>
<speed>0.260000</speed>
</trkpt>
<trkpt lat="55.729801" lon="26.243366">
<ele>161.791138</ele>
<time>2010-07-18T08:29:30Z</time>
<desc>lat.=55.729801, lon.=26.243366, Alt.=161.791138m. Speed=1.116000m/h.</desc>
<speed>0.310000</speed>
</trkpt>
<trkpt lat="55.729801" lon="26.243372">
<ele>161.576294</ele>
<time>2010-07-18T08:29:31Z</time>
<desc>lat.=55.729801, lon.=26.243372, Alt.=161.576294m. Speed=1.152000m/h.</desc>
<speed>0.320000</speed>
</trkpt>
<trkpt lat="55.729801" lon="26.243382">
<ele>161.259888</ele>
<time>2010-07-18T08:29:32Z</time>
<desc>lat.=55.729801, lon.=26.243382, Alt.=161.259888m. Speed=1.260000m/h.</desc>
<speed>0.350000</speed>
</trkpt>
<trkpt lat="55.729801" lon="26.243385">
<ele>160.939575</ele>
<time>2010-07-18T08:29:33Z</time>
<desc>lat.=55.729801, lon.=26.243385, Alt.=160.939575m. Speed=1.080000m/h.</desc>
<speed>0.300000</speed>
</trkpt>
<trkpt lat="55.729797" lon="26.243391">
<ele>161.025513</ele>
<time>2010-07-18T08:29:34Z</time>
<desc>lat.=55.729797, lon.=26.243391, Alt.=161.025513m. Speed=0.900000m/h.</desc>
<speed>0.250000</speed>
</trkpt>
<trkpt lat="55.729797" lon="26.243399">
<ele>160.201294</ele>
<time>2010-07-18T08:29:35Z</time>
<desc>lat.=55.729797, lon.=26.243399, Alt.=160.201294m. Speed=0.864000m/h.</desc>
<speed>0.240000</speed>
</trkpt>
<trkpt lat="55.729790" lon="26.243402">
<ele>159.548950</ele>
<time>2010-07-18T08:29:36Z</time>
<desc>lat.=55.729790, lon.=26.243402, Alt.=159.548950m. Speed=0.720000m/h.</desc>
<speed>0.200000</speed>
</trkpt>
<trkpt lat="55.729790" lon="26.243408">
<ele>159.099731</ele>
<time>2010-07-18T08:29:37Z</time>
<desc>lat.=55.729790, lon.=26.243408, Alt.=159.099731m. Speed=0.684000m/h.</desc>
<speed>0.190000</speed>
</trkpt>
<trkpt lat="55.729790" lon="26.243410">
<ele>158.939575</ele>
<time>2010-07-18T08:29:38Z</time>
<desc>lat.=55.729790, lon.=26.243410, Alt.=158.939575m. Speed=0.432000m/h.</desc>
<speed>0.120000</speed>
</trkpt>
<trkpt lat="55.729786" lon="26.243412">
<ele>158.767700</ele>
<time>2010-07-18T08:29:39Z</time>
<desc>lat.=55.729786, lon.=26.243412, Alt.=158.767700m. Speed=0.324000m/h.</desc>
<speed>0.090000</speed>
</trkpt>
<trkpt lat="55.729786" lon="26.243414">
<ele>158.591919</ele>
<time>2010-07-18T08:29:40Z</time>
<desc>lat.=55.729786, lon.=26.243414, Alt.=158.591919m. Speed=0.216000m/h.</desc>
<speed>0.060000</speed>
</trkpt>
<trkpt lat="55.729786" lon="26.243416">
<ele>158.416138</ele>
<time>2010-07-18T08:29:41Z</time>
<desc>lat.=55.729786, lon.=26.243416, Alt.=158.416138m. Speed=0.180000m/h.</desc>
<speed>0.050000</speed>
</trkpt>
<trkpt lat="55.729786" lon="26.243416">
<ele>158.244263</ele>
<time>2010-07-18T08:29:42Z</time>
<desc>lat.=55.729786, lon.=26.243416, Alt.=158.244263m. Speed=0.072000m/h.</desc>
<speed>0.020000</speed>
</trkpt>
<trkpt lat="55.729786" lon="26.243416">
<ele>158.068481</ele>
<time>2010-07-18T08:29:43Z</time>
<desc>lat.=55.729786, lon.=26.243416, Alt.=158.068481m. Speed=0.108000m/h.</desc>
<speed>0.030000</speed>
</trkpt>
<trkpt lat="55.729786" lon="26.243416">
<ele>157.892700</ele>
<time>2010-07-18T08:29:44Z</time>
<desc>lat.=55.729786, lon.=26.243416, Alt.=157.892700m. Speed=0.216000m/h.</desc>
<speed>0.060000</speed>
</trkpt>
<trkpt lat="55.729790" lon="26.243416">
<ele>157.724731</ele>
<time>2010-07-18T08:29:45Z</time>
<desc>lat.=55.729790, lon.=26.243416, Alt.=157.724731m. Speed=0.396000m/h.</desc>
<speed>0.110000</speed>
</trkpt>
<trkpt lat="55.729790" lon="26.243418">
<ele>157.560669</ele>
<time>2010-07-18T08:29:46Z</time>
<desc>lat.=55.729790, lon.=26.243418, Alt.=157.560669m. Speed=0.612000m/h.</desc>
<speed>0.170000</speed>
</trkpt>
<trkpt lat="55.729790" lon="26.243418">
<ele>157.400513</ele>
<time>2010-07-18T08:29:47Z</time>
<desc>lat.=55.729790, lon.=26.243418, Alt.=157.400513m. Speed=0.684000m/h.</desc>
<speed>0.190000</speed>
</trkpt>
<trkpt lat="55.729794" lon="26.243418">
<ele>157.244263</ele>
<time>2010-07-18T08:29:48Z</time>
<desc>lat.=55.729794, lon.=26.243418, Alt.=157.244263m. Speed=0.864000m/h.</desc>
<speed>0.240000</speed>
</trkpt>
<trkpt lat="55.729794" lon="26.243420">
<ele>157.088013</ele>
<time>2010-07-18T08:29:49Z</time>
<desc>lat.=55.729794, lon.=26.243420, Alt.=157.088013m. Speed=1.008000m/h.</desc>
<speed>0.280000</speed>
</trkpt>
<trkpt lat="55.729797" lon="26.243422">
<ele>156.931763</ele>
<time>2010-07-18T08:29:50Z</time>
<desc>lat.=55.729797, lon.=26.243422, Alt.=156.931763m. Speed=0.936000m/h.</desc>
<speed>0.260000</speed>
</trkpt>
<trkpt lat="55.729801" lon="26.243422">
<ele>156.775513</ele>
<time>2010-07-18T08:29:51Z</time>
<desc>lat.=55.729801, lon.=26.243422, Alt.=156.775513m. Speed=0.936000m/h.</desc>
<speed>0.260000</speed>
</trkpt>
<trkpt lat="55.729801" lon="26.243422">
<ele>156.615356</ele>
<time>2010-07-18T08:29:52Z</time>
<desc>lat.=55.729801, lon.=26.243422, Alt.=156.615356m. Speed=0.900000m/h.</desc>
<speed>0.250000</speed>
</trkpt>
<trkpt lat="55.729805" lon="26.243423">
<ele>156.455200</ele>
<time>2010-07-18T08:29:53Z</time>
<desc>lat.=55.729805, lon.=26.243423, Alt.=156.455200m. Speed=2.196000m/h.</desc>
<speed>0.610000</speed>
</trkpt>
<trkpt lat="55.729805" lon="26.243441">
<ele>156.134888</ele>
<time>2010-07-18T08:29:54Z</time>
<desc>lat.=55.729805, lon.=26.243441, Alt.=156.134888m. Speed=2.376000m/h.</desc>
<speed>0.660000</speed>
</trkpt>
<trkpt lat="55.729801" lon="26.243465">
<ele>155.404419</ele>
<time>2010-07-18T08:29:55Z</time>
<desc>lat.=55.729801, lon.=26.243465, Alt.=155.404419m. Speed=2.736000m/h.</desc>
<speed>0.760000</speed>
</trkpt>
<trkpt lat="55.729778" lon="26.243479">
<ele>155.416138</ele>
<time>2010-07-18T08:29:56Z</time>
<desc>lat.=55.729778, lon.=26.243479, Alt.=155.416138m. Speed=2.016000m/h.</desc>
<speed>0.560000</speed>
</trkpt>
<trkpt lat="55.729778" lon="26.243490">
<ele>155.279419</ele>
<time>2010-07-18T08:29:57Z</time>
<desc>lat.=55.729778, lon.=26.243490, Alt.=155.279419m. Speed=1.980000m/h.</desc>
<speed>0.550000</speed>
</trkpt>
<trkpt lat="55.729774" lon="26.243500">
<ele>154.935669</ele>
<time>2010-07-18T08:29:58Z</time>
<desc>lat.=55.729774, lon.=26.243500, Alt.=154.935669m. Speed=1.656000m/h.</desc>
<speed>0.460000</speed>
</trkpt>
<trkpt lat="55.729778" lon="26.243511">
<ele>154.728638</ele>
<time>2010-07-18T08:29:59Z</time>
<desc>lat.=55.729778, lon.=26.243511, Alt.=154.728638m. Speed=1.800000m/h.</desc>
<speed>0.500000</speed>
</trkpt>
<trkpt lat="55.729763" lon="26.243517">
<ele>154.103638</ele>
<time>2010-07-18T08:30:00Z</time>
<desc>lat.=55.729763, lon.=26.243517, Alt.=154.103638m. Speed=1.584000m/h.</desc>
<speed>0.440000</speed>
</trkpt>
<trkpt lat="55.729759" lon="26.243523">
<ele>153.755981</ele>
<time>2010-07-18T08:30:01Z</time>
<desc>lat.=55.729759, lon.=26.243523, Alt.=153.755981m. Speed=1.440000m/h.</desc>
<speed>0.400000</speed>
</trkpt>
<trkpt lat="55.729748" lon="26.243530">
<ele>153.521606</ele>
<time>2010-07-18T08:30:02Z</time>
<desc>lat.=55.729748, lon.=26.243530, Alt.=153.521606m. Speed=1.584000m/h.</desc>
<speed>0.440000</speed>
</trkpt>
<trkpt lat="55.729740" lon="26.243542">
<ele>153.388794</ele>
<time>2010-07-18T08:30:03Z</time>
<desc>lat.=55.729740, lon.=26.243542, Alt.=153.388794m. Speed=1.836000m/h.</desc>
<speed>0.510000</speed>
</trkpt>
<trkpt lat="55.729736" lon="26.243557">
<ele>153.084106</ele>
<time>2010-07-18T08:30:04Z</time>
<desc>lat.=55.729736, lon.=26.243557, Alt.=153.084106m. Speed=2.052000m/h.</desc>
<speed>0.570000</speed>
</trkpt>
<trkpt lat="55.729736" lon="26.243582">
<ele>152.283325</ele>
<time>2010-07-18T08:30:05Z</time>
<desc>lat.=55.729736, lon.=26.243582, Alt.=152.283325m. Speed=2.484000m/h.</desc>
<speed>0.690000</speed>
</trkpt>
<trkpt lat="55.729710" lon="26.243591">
<ele>152.056763</ele>
<time>2010-07-18T08:30:06Z</time>
<desc>lat.=55.729710, lon.=26.243591, Alt.=152.056763m. Speed=2.664000m/h.</desc>
<speed>0.740000</speed>
</trkpt>
<trkpt lat="55.729706" lon="26.243607">
<ele>151.900513</ele>
<time>2010-07-18T08:30:07Z</time>
<desc>lat.=55.729706, lon.=26.243607, Alt.=151.900513m. Speed=3.096000m/h.</desc>
<speed>0.860000</speed>
</trkpt>
<trkpt lat="55.729702" lon="26.243622">
<ele>151.834106</ele>
<time>2010-07-18T08:30:08Z</time>
<desc>lat.=55.729702, lon.=26.243622, Alt.=151.834106m. Speed=2.052000m/h.</desc>
<speed>0.570000</speed>
</trkpt>
<trkpt lat="55.729698" lon="26.243631">
<ele>152.072388</ele>
<time>2010-07-18T08:30:09Z</time>
<desc>lat.=55.729698, lon.=26.243631, Alt.=152.072388m. Speed=2.412000m/h.</desc>
<speed>0.670000</speed>
</trkpt>
<trkpt lat="55.729691" lon="26.243635">
<ele>151.541138</ele>
<time>2010-07-18T08:30:10Z</time>
<desc>lat.=55.729691, lon.=26.243635, Alt.=151.541138m. Speed=1.080000m/h.</desc>
<speed>0.300000</speed>
</trkpt>
<trkpt lat="55.729691" lon="26.243639">
<ele>151.607544</ele>
<time>2010-07-18T08:30:11Z</time>
<desc>lat.=55.729691, lon.=26.243639, Alt.=151.607544m. Speed=0.540000m/h.</desc>
<speed>0.150000</speed>
</trkpt>
<trkpt lat="55.729691" lon="26.243639">
<ele>152.545044</ele>
<time>2010-07-18T08:30:12Z</time>
<desc>lat.=55.729691, lon.=26.243639, Alt.=152.545044m. Speed=0.036000m/h.</desc>
<speed>0.010000</speed>
</trkpt>
<trkpt lat="55.729691" lon="26.243637">
<ele>152.623169</ele>
<time>2010-07-18T08:30:13Z</time>
<desc>lat.=55.729691, lon.=26.243637, Alt.=152.623169m. Speed=0.648000m/h.</desc>
<speed>0.180000</speed>
</trkpt>
<trkpt lat="55.729691" lon="26.243639">
<ele>152.642700</ele>
<time>2010-07-18T08:30:14Z</time>
<desc>lat.=55.729691, lon.=26.243639, Alt.=152.642700m. Speed=0.648000m/h.</desc>
<speed>0.180000</speed>
</trkpt>
<trkpt lat="55.729694" lon="26.243639">
<ele>152.580200</ele>
<time>2010-07-18T08:30:15Z</time>
<desc>lat.=55.729694, lon.=26.243639, Alt.=152.580200m. Speed=0.684000m/h.</desc>
<speed>0.190000</speed>
</trkpt>
<trkpt lat="55.729694" lon="26.243641">
<ele>152.517700</ele>
<time>2010-07-18T08:30:16Z</time>
<desc>lat.=55.729694, lon.=26.243641, Alt.=152.517700m. Speed=1.080000m/h.</desc>
<speed>0.300000</speed>
</trkpt>
<trkpt lat="55.729691" lon="26.243647">
<ele>152.486450</ele>
<time>2010-07-18T08:30:17Z</time>
<desc>lat.=55.729691, lon.=26.243647, Alt.=152.486450m. Speed=0.936000m/h.</desc>
<speed>0.260000</speed>
</trkpt>
<trkpt lat="55.729691" lon="26.243647">
<ele>152.416138</ele>
<time>2010-07-18T08:30:18Z</time>
<desc>lat.=55.729691, lon.=26.243647, Alt.=152.416138m. Speed=0.936000m/h.</desc>
<speed>0.260000</speed>
</trkpt>
<trkpt lat="55.729691" lon="26.243658">
<ele>152.142700</ele>
<time>2010-07-18T08:30:19Z</time>
<desc>lat.=55.729691, lon.=26.243658, Alt.=152.142700m. Speed=2.484000m/h.</desc>
<speed>0.690000</speed>
</trkpt>
<trkpt lat="55.729691" lon="26.243677">
<ele>151.826294</ele>
<time>2010-07-18T08:30:20Z</time>
<desc>lat.=55.729691, lon.=26.243677, Alt.=151.826294m. Speed=4.428000m/h.</desc>
<speed>1.230000</speed>
</trkpt>
<trkpt lat="55.729691" lon="26.243713">
<ele>151.564575</ele>
<time>2010-07-18T08:30:21Z</time>
<desc>lat.=55.729691, lon.=26.243713, Alt.=151.564575m. Speed=5.472000m/h.</desc>
<speed>1.520000</speed>
</trkpt>
<trkpt lat="55.729687" lon="26.243746">
<ele>151.970825</ele>
<time>2010-07-18T08:30:22Z</time>
<desc>lat.=55.729687, lon.=26.243746, Alt.=151.970825m. Speed=7.236000m/h.</desc>
<speed>2.010000</speed>
</trkpt>
<trkpt lat="55.729694" lon="26.243776">
<ele>152.017700</ele>
<time>2010-07-18T08:30:23Z</time>
<desc>lat.=55.729694, lon.=26.243776, Alt.=152.017700m. Speed=8.352000m/h.</desc>
<speed>2.320000</speed>
</trkpt>
<trkpt lat="55.729698" lon="26.243818">
<ele>152.357544</ele>
<time>2010-07-18T08:30:24Z</time>
<desc>lat.=55.729698, lon.=26.243818, Alt.=152.357544m. Speed=9.504000m/h.</desc>
<speed>2.640000</speed>
</trkpt>
<trkpt lat="55.729698" lon="26.243860">
<ele>152.326294</ele>
<time>2010-07-18T08:30:25Z</time>
<desc>lat.=55.729698, lon.=26.243860, Alt.=152.326294m. Speed=10.008000m/h.</desc>
<speed>2.780000</speed>
</trkpt>
<trkpt lat="55.729694" lon="26.243910">
<ele>152.662231</ele>
<time>2010-07-18T08:30:26Z</time>
<desc>lat.=55.729694, lon.=26.243910, Alt.=152.662231m. Speed=10.620000m/h.</desc>
<speed>2.950000</speed>
</trkpt>
<trkpt lat="55.729679" lon="26.243954">
<ele>152.459106</ele>
<time>2010-07-18T08:30:27Z</time>
<desc>lat.=55.729679, lon.=26.243954, Alt.=152.459106m. Speed=12.888000m/h.</desc>
<speed>3.580000</speed>
</trkpt>
<trkpt lat="55.729649" lon="26.243992">
<ele>152.095825</ele>
<time>2010-07-18T08:30:28Z</time>
<desc>lat.=55.729649, lon.=26.243992, Alt.=152.095825m. Speed=14.796000m/h.</desc>
<speed>4.110000</speed>
</trkpt>
<trkpt lat="55.729610" lon="26.244011">
<ele>151.841919</ele>
<time>2010-07-18T08:30:29Z</time>
<desc>lat.=55.729610, lon.=26.244011, Alt.=151.841919m. Speed=15.408000m/h.</desc>
<speed>4.280000</speed>
</trkpt>
<trkpt lat="55.729568" lon="26.244026">
<ele>151.201294</ele>
<time>2010-07-18T08:30:30Z</time>
<desc>lat.=55.729568, lon.=26.244026, Alt.=151.201294m. Speed=14.832000m/h.</desc>
<speed>4.120000</speed>
</trkpt>
<trkpt lat="55.729534" lon="26.244047">
<ele>150.537231</ele>
<time>2010-07-18T08:30:31Z</time>
<desc>lat.=55.729534, lon.=26.244047, Alt.=150.537231m. Speed=13.500000m/h.</desc>
<speed>3.750000</speed>
</trkpt>
<trkpt lat="55.729496" lon="26.244076">
<ele>150.505981</ele>
<time>2010-07-18T08:30:32Z</time>
<desc>lat.=55.729496, lon.=26.244076, Alt.=150.505981m. Speed=15.300000m/h.</desc>
<speed>4.250000</speed>
</trkpt>
<trkpt lat="55.729454" lon="26.244099">
<ele>150.142700</ele>
<time>2010-07-18T08:30:33Z</time>
<desc>lat.=55.729454, lon.=26.244099, Alt.=150.142700m. Speed=14.760000m/h.</desc>
<speed>4.100000</speed>
</trkpt>
<trkpt lat="55.729412" lon="26.244114">
<ele>149.865356</ele>
<time>2010-07-18T08:30:34Z</time>
<desc>lat.=55.729412, lon.=26.244114, Alt.=149.865356m. Speed=14.760000m/h.</desc>
<speed>4.100000</speed>
</trkpt>
<trkpt lat="55.729378" lon="26.244137">
<ele>149.931763</ele>
<time>2010-07-18T08:30:35Z</time>
<desc>lat.=55.729378, lon.=26.244137, Alt.=149.931763m. Speed=14.544000m/h.</desc>
<speed>4.040000</speed>
</trkpt>
<trkpt lat="55.729343" lon="26.244162">
<ele>150.412231</ele>
<time>2010-07-18T08:30:36Z</time>
<desc>lat.=55.729343, lon.=26.244162, Alt.=150.412231m. Speed=15.588000m/h.</desc>
<speed>4.330000</speed>
</trkpt>
<trkpt lat="55.729305" lon="26.244192">
<ele>150.396606</ele>
<time>2010-07-18T08:30:37Z</time>
<desc>lat.=55.729305, lon.=26.244192, Alt.=150.396606m. Speed=17.243999m/h.</desc>
<speed>4.790000</speed>
</trkpt>
<trkpt lat="55.729263" lon="26.244226">
<ele>150.392700</ele>
<time>2010-07-18T08:30:38Z</time>
<desc>lat.=55.729263, lon.=26.244226, Alt.=150.392700m. Speed=17.063999m/h.</desc>
<speed>4.740000</speed>
</trkpt>
<trkpt lat="55.729218" lon="26.244259">
<ele>150.170044</ele>
<time>2010-07-18T08:30:39Z</time>
<desc>lat.=55.729218, lon.=26.244259, Alt.=150.170044m. Speed=18.936001m/h.</desc>
<speed>5.260000</speed>
</trkpt>
<trkpt lat="55.729168" lon="26.244293">
<ele>149.642700</ele>
<time>2010-07-18T08:30:40Z</time>
<desc>lat.=55.729168, lon.=26.244293, Alt.=149.642700m. Speed=20.844000m/h.</desc>
<speed>5.790000</speed>
</trkpt>
<trkpt lat="55.729118" lon="26.244318">
<ele>149.357544</ele>
<time>2010-07-18T08:30:41Z</time>
<desc>lat.=55.729118, lon.=26.244318, Alt.=149.357544m. Speed=18.900000m/h.</desc>
<speed>5.250000</speed>
</trkpt>
<trkpt lat="55.729073" lon="26.244345">
<ele>149.240356</ele>
<time>2010-07-18T08:30:42Z</time>
<desc>lat.=55.729073, lon.=26.244345, Alt.=149.240356m. Speed=18.431999m/h.</desc>
<speed>5.120000</speed>
</trkpt>
<trkpt lat="55.729027" lon="26.244368">
<ele>149.193481</ele>
<time>2010-07-18T08:30:43Z</time>
<desc>lat.=55.729027, lon.=26.244368, Alt.=149.193481m. Speed=17.927999m/h.</desc>
<speed>4.980000</speed>
</trkpt>
<trkpt lat="55.728981" lon="26.244394">
<ele>149.025513</ele>
<time>2010-07-18T08:30:44Z</time>
<desc>lat.=55.728981, lon.=26.244394, Alt.=149.025513m. Speed=19.691999m/h.</desc>
<speed>5.470000</speed>
</trkpt>
<trkpt lat="55.728935" lon="26.244423">
<ele>148.931763</ele>
<time>2010-07-18T08:30:45Z</time>
<desc>lat.=55.728935, lon.=26.244423, Alt.=148.931763m. Speed=19.548000m/h.</desc>
<speed>5.430000</speed>
</trkpt>
<trkpt lat="55.728882" lon="26.244453">
<ele>148.189575</ele>
<time>2010-07-18T08:30:46Z</time>
<desc>lat.=55.728882, lon.=26.244453, Alt.=148.189575m. Speed=22.356001m/h.</desc>
<speed>6.210000</speed>
</trkpt>
<trkpt lat="55.728832" lon="26.244490">
<ele>147.361450</ele>
<time>2010-07-18T08:30:47Z</time>
<desc>lat.=55.728832, lon.=26.244490, Alt.=147.361450m. Speed=21.743999m/h.</desc>
<speed>6.040000</speed>
</trkpt>
<trkpt lat="55.728786" lon="26.244522">
<ele>146.736450</ele>
<time>2010-07-18T08:30:48Z</time>
<desc>lat.=55.728786, lon.=26.244522, Alt.=146.736450m. Speed=19.403999m/h.</desc>
<speed>5.390000</speed>
</trkpt>
<trkpt lat="55.728745" lon="26.244549">
<ele>146.291138</ele>
<time>2010-07-18T08:30:49Z</time>
<desc>lat.=55.728745, lon.=26.244549, Alt.=146.291138m. Speed=16.559999m/h.</desc>
<speed>4.600000</speed>
</trkpt>
<trkpt lat="55.728710" lon="26.244568">
<ele>145.857544</ele>
<time>2010-07-18T08:30:50Z</time>
<desc>lat.=55.728710, lon.=26.244568, Alt.=145.857544m. Speed=13.176000m/h.</desc>
<speed>3.660000</speed>
</trkpt>
<trkpt lat="55.728680" lon="26.244585">
<ele>145.392700</ele>
<time>2010-07-18T08:30:51Z</time>
<desc>lat.=55.728680, lon.=26.244585, Alt.=145.392700m. Speed=11.736000m/h.</desc>
<speed>3.260000</speed>
</trkpt>
<trkpt lat="55.728645" lon="26.244600">
<ele>145.021606</ele>
<time>2010-07-18T08:30:52Z</time>
<desc>lat.=55.728645, lon.=26.244600, Alt.=145.021606m. Speed=14.004000m/h.</desc>
<speed>3.890000</speed>
</trkpt>
<trkpt lat="55.728619" lon="26.244614">
<ele>144.654419</ele>
<time>2010-07-18T08:30:53Z</time>
<desc>lat.=55.728619, lon.=26.244614, Alt.=144.654419m. Speed=10.692000m/h.</desc>
<speed>2.970000</speed>
</trkpt>
<trkpt lat="55.728615" lon="26.244602">
<ele>144.470825</ele>
<time>2010-07-18T08:30:54Z</time>
<desc>lat.=55.728615, lon.=26.244602, Alt.=144.470825m. Speed=5.472000m/h.</desc>
<speed>1.520000</speed>
</trkpt>
<trkpt lat="55.728600" lon="26.244614">
<ele>144.400513</ele>
<time>2010-07-18T08:30:55Z</time>
<desc>lat.=55.728600, lon.=26.244614, Alt.=144.400513m. Speed=3.780000m/h.</desc>
<speed>1.050000</speed>
</trkpt>
<trkpt lat="55.728558" lon="26.244654">
<ele>144.513794</ele>
<time>2010-07-18T08:30:56Z</time>
<desc>lat.=55.728558, lon.=26.244654, Alt.=144.513794m. Speed=14.760000m/h.</desc>
<speed>4.100000</speed>
</trkpt>
<trkpt lat="55.728504" lon="26.244696">
<ele>144.709106</ele>
<time>2010-07-18T08:30:57Z</time>
<desc>lat.=55.728504, lon.=26.244696, Alt.=144.709106m. Speed=16.559999m/h.</desc>
<speed>4.600000</speed>
</trkpt>
<trkpt lat="55.728451" lon="26.244732">
<ele>144.720825</ele>
<time>2010-07-18T08:30:58Z</time>
<desc>lat.=55.728451, lon.=26.244732, Alt.=144.720825m. Speed=17.388000m/h.</desc>
<speed>4.830000</speed>
</trkpt>
<trkpt lat="55.728409" lon="26.244759">
<ele>144.568481</ele>
<time>2010-07-18T08:30:59Z</time>
<desc>lat.=55.728409, lon.=26.244759, Alt.=144.568481m. Speed=16.524000m/h.</desc>
<speed>4.590000</speed>
</trkpt>
<trkpt lat="55.728359" lon="26.244781">
<ele>144.295044</ele>
<time>2010-07-18T08:31:00Z</time>
<desc>lat.=55.728359, lon.=26.244781, Alt.=144.295044m. Speed=16.344000m/h.</desc>
<speed>4.540000</speed>
</trkpt>
<trkpt lat="55.728310" lon="26.244804">
<ele>143.345825</ele>
<time>2010-07-18T08:31:01Z</time>
<desc>lat.=55.728310, lon.=26.244804, Alt.=143.345825m. Speed=15.408000m/h.</desc>
<speed>4.280000</speed>
</trkpt>
<trkpt lat="55.728264" lon="26.244825">
<ele>142.623169</ele>
<time>2010-07-18T08:31:02Z</time>
<desc>lat.=55.728264, lon.=26.244825, Alt.=142.623169m. Speed=15.012000m/h.</desc>
<speed>4.170000</speed>
</trkpt>
<trkpt lat="55.728218" lon="26.244852">
<ele>141.181763</ele>
<time>2010-07-18T08:31:03Z</time>
<desc>lat.=55.728218, lon.=26.244852, Alt.=141.181763m. Speed=14.328000m/h.</desc>
<speed>3.980000</speed>
</trkpt>
<trkpt lat="55.728172" lon="26.244879">
<ele>139.869263</ele>
<time>2010-07-18T08:31:04Z</time>
<desc>lat.=55.728172, lon.=26.244879, Alt.=139.869263m. Speed=15.444000m/h.</desc>
<speed>4.290000</speed>
</trkpt>
<trkpt lat="55.728134" lon="26.244904">
<ele>139.552856</ele>
<time>2010-07-18T08:31:05Z</time>
<desc>lat.=55.728134, lon.=26.244904, Alt.=139.552856m. Speed=15.012000m/h.</desc>
<speed>4.170000</speed>
</trkpt>
<trkpt lat="55.728096" lon="26.244919">
<ele>139.677856</ele>
<time>2010-07-18T08:31:06Z</time>
<desc>lat.=55.728096, lon.=26.244919, Alt.=139.677856m. Speed=13.032000m/h.</desc>
<speed>3.620000</speed>
</trkpt>
<trkpt lat="55.728073" lon="26.244951">
<ele>137.880981</ele>
<time>2010-07-18T08:31:07Z</time>
<desc>lat.=55.728073, lon.=26.244951, Alt.=137.880981m. Speed=9.972000m/h.</desc>
<speed>2.770000</speed>
</trkpt>
<trkpt lat="55.728043" lon="26.244976">
<ele>136.826294</ele>
<time>2010-07-18T08:31:08Z</time>
<desc>lat.=55.728043, lon.=26.244976, Alt.=136.826294m. Speed=12.744000m/h.</desc>
<speed>3.540000</speed>
</trkpt>
<trkpt lat="55.728012" lon="26.245003">
<ele>136.232544</ele>
<time>2010-07-18T08:31:09Z</time>
<desc>lat.=55.728012, lon.=26.245003, Alt.=136.232544m. Speed=12.492000m/h.</desc>
<speed>3.470000</speed>
</trkpt>
<trkpt lat="55.727974" lon="26.245014">
<ele>137.142700</ele>
<time>2010-07-18T08:31:10Z</time>
<desc>lat.=55.727974, lon.=26.245014, Alt.=137.142700m. Speed=13.176000m/h.</desc>
<speed>3.660000</speed>
</trkpt>
<trkpt lat="55.727940" lon="26.245033">
<ele>137.138794</ele>
<time>2010-07-18T08:31:11Z</time>
<desc>lat.=55.727940, lon.=26.245033, Alt.=137.138794m. Speed=12.384000m/h.</desc>
<speed>3.440000</speed>
</trkpt>
<trkpt lat="55.727909" lon="26.245047">
<ele>138.564575</ele>
<time>2010-07-18T08:31:12Z</time>
<desc>lat.=55.727909, lon.=26.245047, Alt.=138.564575m. Speed=11.052000m/h.</desc>
<speed>3.070000</speed>
</trkpt>
<trkpt lat="55.727867" lon="26.245052">
<ele>139.400513</ele>
<time>2010-07-18T08:31:13Z</time>
<desc>lat.=55.727867, lon.=26.245052, Alt.=139.400513m. Speed=9.900000m/h.</desc>
<speed>2.750000</speed>
</trkpt>
<trkpt lat="55.727837" lon="26.245081">
<ele>139.373169</ele>
<time>2010-07-18T08:31:14Z</time>
<desc>lat.=55.727837, lon.=26.245081, Alt.=139.373169m. Speed=10.836000m/h.</desc>
<speed>3.010000</speed>
</trkpt>
<trkpt lat="55.727806" lon="26.245096">
<ele>139.443481</ele>
<time>2010-07-18T08:31:15Z</time>
<desc>lat.=55.727806, lon.=26.245096, Alt.=139.443481m. Speed=12.636000m/h.</desc>
<speed>3.510000</speed>
</trkpt>
<trkpt lat="55.727772" lon="26.245117">
<ele>140.396606</ele>
<time>2010-07-18T08:31:16Z</time>
<desc>lat.=55.727772, lon.=26.245117, Alt.=140.396606m. Speed=11.628000m/h.</desc>
<speed>3.230000</speed>
</trkpt>
<trkpt lat="55.727734" lon="26.245142">
<ele>141.193481</ele>
<time>2010-07-18T08:31:17Z</time>
<desc>lat.=55.727734, lon.=26.245142, Alt.=141.193481m. Speed=12.456000m/h.</desc>
<speed>3.460000</speed>
</trkpt>
<trkpt lat="55.727699" lon="26.245163">
<ele>141.158325</ele>
<time>2010-07-18T08:31:18Z</time>
<desc>lat.=55.727699, lon.=26.245163, Alt.=141.158325m. Speed=13.572000m/h.</desc>
<speed>3.770000</speed>
</trkpt>
<trkpt lat="55.727665" lon="26.245193">
<ele>142.619263</ele>
<time>2010-07-18T08:31:19Z</time>
<desc>lat.=55.727665, lon.=26.245193, Alt.=142.619263m. Speed=13.608000m/h.</desc>
<speed>3.780000</speed>
</trkpt>
<trkpt lat="55.727623" lon="26.245209">
<ele>142.388794</ele>
<time>2010-07-18T08:31:20Z</time>
<desc>lat.=55.727623, lon.=26.245209, Alt.=142.388794m. Speed=15.516000m/h.</desc>
<speed>4.310000</speed>
</trkpt>
<trkpt lat="55.727585" lon="26.245226">
<ele>142.306763</ele>
<time>2010-07-18T08:31:21Z</time>
<desc>lat.=55.727585, lon.=26.245226, Alt.=142.306763m. Speed=11.952000m/h.</desc>
<speed>3.320000</speed>
</trkpt>
<trkpt lat="55.727551" lon="26.245251">
<ele>142.177856</ele>
<time>2010-07-18T08:31:22Z</time>
<desc>lat.=55.727551, lon.=26.245251, Alt.=142.177856m. Speed=12.528000m/h.</desc>
<speed>3.480000</speed>
</trkpt>
<trkpt lat="55.727509" lon="26.245283">
<ele>142.345825</ele>
<time>2010-07-18T08:31:23Z</time>
<desc>lat.=55.727509, lon.=26.245283, Alt.=142.345825m. Speed=15.804000m/h.</desc>
<speed>4.390000</speed>
</trkpt>
<trkpt lat="55.727463" lon="26.245310">
<ele>142.517700</ele>
<time>2010-07-18T08:31:24Z</time>
<desc>lat.=55.727463, lon.=26.245310, Alt.=142.517700m. Speed=18.035999m/h.</desc>
<speed>5.010000</speed>
</trkpt>
<trkpt lat="55.727409" lon="26.245342">
<ele>142.466919</ele>
<time>2010-07-18T08:31:25Z</time>
<desc>lat.=55.727409, lon.=26.245342, Alt.=142.466919m. Speed=18.648001m/h.</desc>
<speed>5.180000</speed>
</trkpt>
<trkpt lat="55.727356" lon="26.245373">
<ele>141.791138</ele>
<time>2010-07-18T08:31:26Z</time>
<desc>lat.=55.727356, lon.=26.245373, Alt.=141.791138m. Speed=19.115999m/h.</desc>
<speed>5.310000</speed>
</trkpt>
<trkpt lat="55.727310" lon="26.245405">
<ele>141.627075</ele>
<time>2010-07-18T08:31:27Z</time>
<desc>lat.=55.727310, lon.=26.245405, Alt.=141.627075m. Speed=18.792000m/h.</desc>
<speed>5.220000</speed>
</trkpt>
<trkpt lat="55.727264" lon="26.245438">
<ele>141.080200</ele>
<time>2010-07-18T08:31:28Z</time>
<desc>lat.=55.727264, lon.=26.245438, Alt.=141.080200m. Speed=18.684000m/h.</desc>
<speed>5.190000</speed>
</trkpt>
<trkpt lat="55.727211" lon="26.245474">
<ele>140.060669</ele>
<time>2010-07-18T08:31:29Z</time>
<desc>lat.=55.727211, lon.=26.245474, Alt.=140.060669m. Speed=20.664000m/h.</desc>
<speed>5.740000</speed>
</trkpt>
<trkpt lat="55.727161" lon="26.245506">
<ele>139.361450</ele>
<time>2010-07-18T08:31:30Z</time>
<desc>lat.=55.727161, lon.=26.245506, Alt.=139.361450m. Speed=16.812000m/h.</desc>
<speed>4.670000</speed>
</trkpt>
<trkpt lat="55.727119" lon="26.245529">
<ele>138.838013</ele>
<time>2010-07-18T08:31:31Z</time>
<desc>lat.=55.727119, lon.=26.245529, Alt.=138.838013m. Speed=17.243999m/h.</desc>
<speed>4.790000</speed>
</trkpt>
<trkpt lat="55.727074" lon="26.245552">
<ele>138.517700</ele>
<time>2010-07-18T08:31:32Z</time>
<desc>lat.=55.727074, lon.=26.245552, Alt.=138.517700m. Speed=17.496000m/h.</desc>
<speed>4.860000</speed>
</trkpt>
<trkpt lat="55.727024" lon="26.245569">
<ele>138.322388</ele>
<time>2010-07-18T08:31:33Z</time>
<desc>lat.=55.727024, lon.=26.245569, Alt.=138.322388m. Speed=19.620001m/h.</desc>
<speed>5.450000</speed>
</trkpt>
<trkpt lat="55.726955" lon="26.245604">
<ele>137.880981</ele>
<time>2010-07-18T08:31:34Z</time>
<desc>lat.=55.726955, lon.=26.245604, Alt.=137.880981m. Speed=23.580000m/h.</desc>
<speed>6.550000</speed>
</trkpt>
<trkpt lat="55.726898" lon="26.245640">
<ele>136.982544</ele>
<time>2010-07-18T08:31:35Z</time>
<desc>lat.=55.726898, lon.=26.245640, Alt.=136.982544m. Speed=21.924000m/h.</desc>
<speed>6.090000</speed>
</trkpt>
<trkpt lat="55.726849" lon="26.245678">
<ele>136.115356</ele>
<time>2010-07-18T08:31:36Z</time>
<desc>lat.=55.726849, lon.=26.245678, Alt.=136.115356m. Speed=21.059999m/h.</desc>
<speed>5.850000</speed>
</trkpt>
<trkpt lat="55.726791" lon="26.245729">
<ele>135.822388</ele>
<time>2010-07-18T08:31:37Z</time>
<desc>lat.=55.726791, lon.=26.245729, Alt.=135.822388m. Speed=23.472000m/h.</desc>
<speed>6.520000</speed>
</trkpt>
<trkpt lat="55.726730" lon="26.245781">
<ele>135.654419</ele>
<time>2010-07-18T08:31:38Z</time>
<desc>lat.=55.726730, lon.=26.245781, Alt.=135.654419m. Speed=26.100000m/h.</desc>
<speed>7.250000</speed>
</trkpt>
<trkpt lat="55.726665" lon="26.245823">
<ele>135.408325</ele>
<time>2010-07-18T08:31:39Z</time>
<desc>lat.=55.726665, lon.=26.245823, Alt.=135.408325m. Speed=25.812000m/h.</desc>
<speed>7.170000</speed>
</trkpt>
<trkpt lat="55.726601" lon="26.245857">
<ele>135.025513</ele>
<time>2010-07-18T08:31:40Z</time>
<desc>lat.=55.726601, lon.=26.245857, Alt.=135.025513m. Speed=27.180000m/h.</desc>
<speed>7.550000</speed>
</trkpt>
<trkpt lat="55.726540" lon="26.245895">
<ele>132.818481</ele>
<time>2010-07-18T08:31:41Z</time>
<desc>lat.=55.726540, lon.=26.245895, Alt.=132.818481m. Speed=25.452000m/h.</desc>
<speed>7.070000</speed>
</trkpt>
<trkpt lat="55.726456" lon="26.245934">
<ele>133.263794</ele>
<time>2010-07-18T08:31:42Z</time>
<desc>lat.=55.726456, lon.=26.245934, Alt.=133.263794m. Speed=27.864000m/h.</desc>
<speed>7.740000</speed>
</trkpt>
<trkpt lat="55.726379" lon="26.245974">
<ele>132.888794</ele>
<time>2010-07-18T08:31:43Z</time>
<desc>lat.=55.726379, lon.=26.245974, Alt.=132.888794m. Speed=28.799999m/h.</desc>
<speed>8.000000</speed>
</trkpt>
<trkpt lat="55.726299" lon="26.246019">
<ele>133.275513</ele>
<time>2010-07-18T08:31:44Z</time>
<desc>lat.=55.726299, lon.=26.246019, Alt.=133.275513m. Speed=29.232000m/h.</desc>
<speed>8.120000</speed>
</trkpt>
<trkpt lat="55.726219" lon="26.246067">
<ele>133.826294</ele>
<time>2010-07-18T08:31:45Z</time>
<desc>lat.=55.726219, lon.=26.246067, Alt.=133.826294m. Speed=30.275999m/h.</desc>
<speed>8.410000</speed>
</trkpt>
<trkpt lat="55.726131" lon="26.246109">
<ele>134.459106</ele>
<time>2010-07-18T08:31:46Z</time>
<desc>lat.=55.726131, lon.=26.246109, Alt.=134.459106m. Speed=31.212000m/h.</desc>
<speed>8.670000</speed>
</trkpt>
<trkpt lat="55.726055" lon="26.246155">
<ele>133.822388</ele>
<time>2010-07-18T08:31:47Z</time>
<desc>lat.=55.726055, lon.=26.246155, Alt.=133.822388m. Speed=31.176001m/h.</desc>
<speed>8.660000</speed>
</trkpt>
<trkpt lat="55.725979" lon="26.246193">
<ele>133.599731</ele>
<time>2010-07-18T08:31:48Z</time>
<desc>lat.=55.725979, lon.=26.246193, Alt.=133.599731m. Speed=30.996000m/h.</desc>
<speed>8.610000</speed>
</trkpt>
<trkpt lat="55.725903" lon="26.246235">
<ele>133.521606</ele>
<time>2010-07-18T08:31:49Z</time>
<desc>lat.=55.725903, lon.=26.246235, Alt.=133.521606m. Speed=30.996000m/h.</desc>
<speed>8.610000</speed>
</trkpt>
<trkpt lat="55.725826" lon="26.246283">
<ele>133.322388</ele>
<time>2010-07-18T08:31:50Z</time>
<desc>lat.=55.725826, lon.=26.246283, Alt.=133.322388m. Speed=30.959999m/h.</desc>
<speed>8.600000</speed>
</trkpt>
<trkpt lat="55.725746" lon="26.246321">
<ele>133.451294</ele>
<time>2010-07-18T08:31:51Z</time>
<desc>lat.=55.725746, lon.=26.246321, Alt.=133.451294m. Speed=31.247999m/h.</desc>
<speed>8.680000</speed>
</trkpt>
<trkpt lat="55.725670" lon="26.246365">
<ele>133.029419</ele>
<time>2010-07-18T08:31:52Z</time>
<desc>lat.=55.725670, lon.=26.246365, Alt.=133.029419m. Speed=31.032000m/h.</desc>
<speed>8.620000</speed>
</trkpt>
<trkpt lat="55.725594" lon="26.246401">
<ele>132.927856</ele>
<time>2010-07-18T08:31:53Z</time>
<desc>lat.=55.725594, lon.=26.246401, Alt.=132.927856m. Speed=30.996000m/h.</desc>
<speed>8.610000</speed>
</trkpt>
<trkpt lat="55.725517" lon="26.246435">
<ele>132.564575</ele>
<time>2010-07-18T08:31:54Z</time>
<desc>lat.=55.725517, lon.=26.246435, Alt.=132.564575m. Speed=30.780001m/h.</desc>
<speed>8.550000</speed>
</trkpt>
<trkpt lat="55.725441" lon="26.246469">
<ele>132.478638</ele>
<time>2010-07-18T08:31:55Z</time>
<desc>lat.=55.725441, lon.=26.246469, Alt.=132.478638m. Speed=30.743999m/h.</desc>
<speed>8.540000</speed>
</trkpt>
<trkpt lat="55.725365" lon="26.246504">
<ele>132.345825</ele>
<time>2010-07-18T08:31:56Z</time>
<desc>lat.=55.725365, lon.=26.246504, Alt.=132.345825m. Speed=30.636000m/h.</desc>
<speed>8.510000</speed>
</trkpt>
<trkpt lat="55.725292" lon="26.246534">
<ele>132.326294</ele>
<time>2010-07-18T08:31:57Z</time>
<desc>lat.=55.725292, lon.=26.246534, Alt.=132.326294m. Speed=30.563999m/h.</desc>
<speed>8.490000</speed>
</trkpt>
<trkpt lat="55.725216" lon="26.246565">
<ele>132.361450</ele>
<time>2010-07-18T08:31:58Z</time>
<desc>lat.=55.725216, lon.=26.246565, Alt.=132.361450m. Speed=30.204000m/h.</desc>
<speed>8.390000</speed>
</trkpt>
<trkpt lat="55.725143" lon="26.246595">
<ele>132.384888</ele>
<time>2010-07-18T08:31:59Z</time>
<desc>lat.=55.725143, lon.=26.246595, Alt.=132.384888m. Speed=29.340000m/h.</desc>
<speed>8.150000</speed>
</trkpt>
<trkpt lat="55.725075" lon="26.246622">
<ele>132.498169</ele>
<time>2010-07-18T08:32:00Z</time>
<desc>lat.=55.725075, lon.=26.246622, Alt.=132.498169m. Speed=28.620001m/h.</desc>
<speed>7.950000</speed>
</trkpt>
<trkpt lat="55.725002" lon="26.246645">
<ele>132.365356</ele>
<time>2010-07-18T08:32:01Z</time>
<desc>lat.=55.725002, lon.=26.246645, Alt.=132.365356m. Speed=27.864000m/h.</desc>
<speed>7.740000</speed>
</trkpt>
<trkpt lat="55.724930" lon="26.246658">
<ele>132.318481</ele>
<time>2010-07-18T08:32:02Z</time>
<desc>lat.=55.724930, lon.=26.246658, Alt.=132.318481m. Speed=27.396000m/h.</desc>
<speed>7.610000</speed>
</trkpt>
<trkpt lat="55.724865" lon="26.246672">
<ele>132.279419</ele>
<time>2010-07-18T08:32:03Z</time>
<desc>lat.=55.724865, lon.=26.246672, Alt.=132.279419m. Speed=26.856001m/h.</desc>
<speed>7.460000</speed>
</trkpt>
<trkpt lat="55.724800" lon="26.246683">
<ele>132.088013</ele>
<time>2010-07-18T08:32:04Z</time>
<desc>lat.=55.724800, lon.=26.246683, Alt.=132.088013m. Speed=26.639999m/h.</desc>
<speed>7.400000</speed>
</trkpt>
<trkpt lat="55.724731" lon="26.246691">
<ele>131.974731</ele>
<time>2010-07-18T08:32:05Z</time>
<desc>lat.=55.724731, lon.=26.246691, Alt.=131.974731m. Speed=26.136000m/h.</desc>
<speed>7.260000</speed>
</trkpt>
<trkpt lat="55.724667" lon="26.246696">
<ele>131.798950</ele>
<time>2010-07-18T08:32:06Z</time>
<desc>lat.=55.724667, lon.=26.246696, Alt.=131.798950m. Speed=25.559999m/h.</desc>
<speed>7.100000</speed>
</trkpt>
<trkpt lat="55.724602" lon="26.246700">
<ele>132.021606</ele>
<time>2010-07-18T08:32:07Z</time>
<desc>lat.=55.724602, lon.=26.246700, Alt.=132.021606m. Speed=25.271999m/h.</desc>
<speed>7.020000</speed>
</trkpt>
<trkpt lat="55.724537" lon="26.246698">
<ele>131.963013</ele>
<time>2010-07-18T08:32:08Z</time>
<desc>lat.=55.724537, lon.=26.246698, Alt.=131.963013m. Speed=24.875999m/h.</desc>
<speed>6.910000</speed>
</trkpt>
<trkpt lat="55.724476" lon="26.246696">
<ele>131.802856</ele>
<time>2010-07-18T08:32:09Z</time>
<desc>lat.=55.724476, lon.=26.246696, Alt.=131.802856m. Speed=24.264000m/h.</desc>
<speed>6.740000</speed>
</trkpt>
<trkpt lat="55.724419" lon="26.246687">
<ele>131.830200</ele>
<time>2010-07-18T08:32:10Z</time>
<desc>lat.=55.724419, lon.=26.246687, Alt.=131.830200m. Speed=23.507999m/h.</desc>
<speed>6.530000</speed>
</trkpt>
<trkpt lat="55.724361" lon="26.246677">
<ele>131.970825</ele>
<time>2010-07-18T08:32:11Z</time>
<desc>lat.=55.724361, lon.=26.246677, Alt.=131.970825m. Speed=23.004000m/h.</desc>
<speed>6.390000</speed>
</trkpt>
<trkpt lat="55.724304" lon="26.246668">
<ele>131.943481</ele>
<time>2010-07-18T08:32:12Z</time>
<desc>lat.=55.724304, lon.=26.246668, Alt.=131.943481m. Speed=22.392000m/h.</desc>
<speed>6.220000</speed>
</trkpt>
<trkpt lat="55.724247" lon="26.246662">
<ele>131.795044</ele>
<time>2010-07-18T08:32:13Z</time>
<desc>lat.=55.724247, lon.=26.246662, Alt.=131.795044m. Speed=21.851999m/h.</desc>
<speed>6.070000</speed>
</trkpt>
<trkpt lat="55.724197" lon="26.246643">
<ele>131.517700</ele>
<time>2010-07-18T08:32:14Z</time>
<desc>lat.=55.724197, lon.=26.246643, Alt.=131.517700m. Speed=21.348000m/h.</desc>
<speed>5.930000</speed>
</trkpt>
<trkpt lat="55.724148" lon="26.246618">
<ele>131.560669</ele>
<time>2010-07-18T08:32:15Z</time>
<desc>lat.=55.724148, lon.=26.246618, Alt.=131.560669m. Speed=20.628000m/h.</desc>
<speed>5.730000</speed>
</trkpt>
<trkpt lat="55.724098" lon="26.246586">
<ele>131.634888</ele>
<time>2010-07-18T08:32:16Z</time>
<desc>lat.=55.724098, lon.=26.246586, Alt.=131.634888m. Speed=19.872000m/h.</desc>
<speed>5.520000</speed>
</trkpt>
<trkpt lat="55.724049" lon="26.246552">
<ele>131.670044</ele>
<time>2010-07-18T08:32:17Z</time>
<desc>lat.=55.724049, lon.=26.246552, Alt.=131.670044m. Speed=19.044001m/h.</desc>
<speed>5.290000</speed>
</trkpt>
<trkpt lat="55.724007" lon="26.246519">
<ele>131.513794</ele>
<time>2010-07-18T08:32:18Z</time>
<desc>lat.=55.724007, lon.=26.246519, Alt.=131.513794m. Speed=18.216000m/h.</desc>
<speed>5.060000</speed>
</trkpt>
<trkpt lat="55.723961" lon="26.246489">
<ele>131.521606</ele>
<time>2010-07-18T08:32:19Z</time>
<desc>lat.=55.723961, lon.=26.246489, Alt.=131.521606m. Speed=17.676001m/h.</desc>
<speed>4.910000</speed>
</trkpt>
<trkpt lat="55.723923" lon="26.246456">
<ele>131.533325</ele>
<time>2010-07-18T08:32:20Z</time>
<desc>lat.=55.723923, lon.=26.246456, Alt.=131.533325m. Speed=17.028000m/h.</desc>
<speed>4.730000</speed>
</trkpt>
<trkpt lat="55.723885" lon="26.246424">
<ele>131.482544</ele>
<time>2010-07-18T08:32:21Z</time>
<desc>lat.=55.723885, lon.=26.246424, Alt.=131.482544m. Speed=16.559999m/h.</desc>
<speed>4.600000</speed>
</trkpt>
<trkpt lat="55.723850" lon="26.246391">
<ele>131.603638</ele>
<time>2010-07-18T08:32:22Z</time>
<desc>lat.=55.723850, lon.=26.246391, Alt.=131.603638m. Speed=16.056000m/h.</desc>
<speed>4.460000</speed>
</trkpt>
<trkpt lat="55.723816" lon="26.246357">
<ele>131.591919</ele>
<time>2010-07-18T08:32:23Z</time>
<desc>lat.=55.723816, lon.=26.246357, Alt.=131.591919m. Speed=15.984000m/h.</desc>
<speed>4.440000</speed>
</trkpt>
<trkpt lat="55.723782" lon="26.246323">
<ele>131.505981</ele>
<time>2010-07-18T08:32:24Z</time>
<desc>lat.=55.723782, lon.=26.246323, Alt.=131.505981m. Speed=15.192000m/h.</desc>
<speed>4.220000</speed>
</trkpt>
<trkpt lat="55.723751" lon="26.246288">
<ele>131.345825</ele>
<time>2010-07-18T08:32:25Z</time>
<desc>lat.=55.723751, lon.=26.246288, Alt.=131.345825m. Speed=14.832000m/h.</desc>
<speed>4.120000</speed>
</trkpt>
<trkpt lat="55.723717" lon="26.246248">
<ele>131.365356</ele>
<time>2010-07-18T08:32:26Z</time>
<desc>lat.=55.723717, lon.=26.246248, Alt.=131.365356m. Speed=15.336000m/h.</desc>
<speed>4.260000</speed>
</trkpt>
<trkpt lat="55.723686" lon="26.246212">
<ele>131.166138</ele>
<time>2010-07-18T08:32:27Z</time>
<desc>lat.=55.723686, lon.=26.246212, Alt.=131.166138m. Speed=14.472000m/h.</desc>
<speed>4.020000</speed>
</trkpt>
<trkpt lat="55.723660" lon="26.246172">
<ele>131.314575</ele>
<time>2010-07-18T08:32:28Z</time>
<desc>lat.=55.723660, lon.=26.246172, Alt.=131.314575m. Speed=14.544000m/h.</desc>
<speed>4.040000</speed>
</trkpt>
<trkpt lat="55.723633" lon="26.246130">
<ele>130.959106</ele>
<time>2010-07-18T08:32:29Z</time>
<desc>lat.=55.723633, lon.=26.246130, Alt.=130.959106m. Speed=14.652000m/h.</desc>
<speed>4.070000</speed>
</trkpt>
<trkpt lat="55.723606" lon="26.246084">
<ele>131.298950</ele>
<time>2010-07-18T08:32:30Z</time>
<desc>lat.=55.723606, lon.=26.246084, Alt.=131.298950m. Speed=16.308001m/h.</desc>
<speed>4.530000</speed>
</trkpt>
<trkpt lat="55.723576" lon="26.246046">
<ele>131.224731</ele>
<time>2010-07-18T08:32:31Z</time>
<desc>lat.=55.723576, lon.=26.246046, Alt.=131.224731m. Speed=13.536000m/h.</desc>
<speed>3.760000</speed>
</trkpt>
<trkpt lat="55.723553" lon="26.246008">
<ele>131.349731</ele>
<time>2010-07-18T08:32:32Z</time>
<desc>lat.=55.723553, lon.=26.246008, Alt.=131.349731m. Speed=13.428000m/h.</desc>
<speed>3.730000</speed>
</trkpt>
<trkpt lat="55.723530" lon="26.245966">
<ele>131.252075</ele>
<time>2010-07-18T08:32:33Z</time>
<desc>lat.=55.723530, lon.=26.245966, Alt.=131.252075m. Speed=12.456000m/h.</desc>
<speed>3.460000</speed>
</trkpt>
<trkpt lat="55.723511" lon="26.245918">
<ele>131.017700</ele>
<time>2010-07-18T08:32:34Z</time>
<desc>lat.=55.723511, lon.=26.245918, Alt.=131.017700m. Speed=12.996000m/h.</desc>
<speed>3.610000</speed>
</trkpt>
<trkpt lat="55.723495" lon="26.245874">
<ele>130.935669</ele>
<time>2010-07-18T08:32:35Z</time>
<desc>lat.=55.723495, lon.=26.245874, Alt.=130.935669m. Speed=8.820000m/h.</desc>
<speed>2.450000</speed>
</trkpt>
<trkpt lat="55.723488" lon="26.245842">
<ele>130.869263</ele>
<time>2010-07-18T08:32:36Z</time>
<desc>lat.=55.723488, lon.=26.245842, Alt.=130.869263m. Speed=5.400000m/h.</desc>
<speed>1.500000</speed>
</trkpt>
<trkpt lat="55.723488" lon="26.245829">
<ele>130.713013</ele>
<time>2010-07-18T08:32:37Z</time>
<desc>lat.=55.723488, lon.=26.245829, Alt.=130.713013m. Speed=0.360000m/h.</desc>
<speed>0.100000</speed>
</trkpt>
<trkpt lat="55.723480" lon="26.245821">
<ele>130.377075</ele>
<time>2010-07-18T08:32:38Z</time>
<desc>lat.=55.723480, lon.=26.245821, Alt.=130.377075m. Speed=0.108000m/h.</desc>
<speed>0.030000</speed>
</trkpt>
<trkpt lat="55.723476" lon="26.245808">
<ele>130.013794</ele>
<time>2010-07-18T08:32:39Z</time>
<desc>lat.=55.723476, lon.=26.245808, Alt.=130.013794m. Speed=0.144000m/h.</desc>
<speed>0.040000</speed>
</trkpt>
<trkpt lat="55.723476" lon="26.245808">
<ele>129.959106</ele>
<time>2010-07-18T08:32:40Z</time>
<desc>lat.=55.723476, lon.=26.245808, Alt.=129.959106m. Speed=0.144000m/h.</desc>
<speed>0.040000</speed>
</trkpt>
<trkpt lat="55.723476" lon="26.245806">
<ele>129.951294</ele>
<time>2010-07-18T08:32:41Z</time>
<desc>lat.=55.723476, lon.=26.245806, Alt.=129.951294m. Speed=0.036000m/h.</desc>
<speed>0.010000</speed>
</trkpt>
<trkpt lat="55.723476" lon="26.245806">
<ele>129.943481</ele>
<time>2010-07-18T08:32:42Z</time>
<desc>lat.=55.723476, lon.=26.245806, Alt.=129.943481m. Speed=0.036000m/h.</desc>
<speed>0.010000</speed>
</trkpt>
<trkpt lat="55.723476" lon="26.245806">
<ele>129.935669</ele>
<time>2010-07-18T08:32:43Z</time>
<desc>lat.=55.723476, lon.=26.245806, Alt.=129.935669m. Speed=0.072000m/h.</desc>
<speed>0.020000</speed>
</trkpt>
<trkpt lat="55.723473" lon="26.245806">
<ele>129.927856</ele>
<time>2010-07-18T08:32:44Z</time>
<desc>lat.=55.723473, lon.=26.245806, Alt.=129.927856m. Speed=2.376000m/h.</desc>
<speed>0.660000</speed>
</trkpt>
<trkpt lat="55.723476" lon="26.245796">
<ele>129.939575</ele>
<time>2010-07-18T08:32:45Z</time>
<desc>lat.=55.723476, lon.=26.245796, Alt.=129.939575m. Speed=0.144000m/h.</desc>
<speed>0.040000</speed>
</trkpt>
<trkpt lat="55.723476" lon="26.245796">
<ele>129.869263</ele>
<time>2010-07-18T08:32:46Z</time>
<desc>lat.=55.723476, lon.=26.245796, Alt.=129.869263m. Speed=0.612000m/h.</desc>
<speed>0.170000</speed>
</trkpt>
<trkpt lat="55.723473" lon="26.245792">
<ele>129.822388</ele>
<time>2010-07-18T08:32:47Z</time>
<desc>lat.=55.723473, lon.=26.245792, Alt.=129.822388m. Speed=2.376000m/h.</desc>
<speed>0.660000</speed>
</trkpt>
<trkpt lat="55.723469" lon="26.245785">
<ele>129.787231</ele>
<time>2010-07-18T08:32:48Z</time>
<desc>lat.=55.723469, lon.=26.245785, Alt.=129.787231m. Speed=5.148000m/h.</desc>
<speed>1.430000</speed>
</trkpt>
<trkpt lat="55.723465" lon="26.245762">
<ele>129.724731</ele>
<time>2010-07-18T08:32:49Z</time>
<desc>lat.=55.723465, lon.=26.245762, Alt.=129.724731m. Speed=6.120000m/h.</desc>
<speed>1.700000</speed>
</trkpt>
<trkpt lat="55.723461" lon="26.245735">
<ele>129.724731</ele>
<time>2010-07-18T08:32:50Z</time>
<desc>lat.=55.723461, lon.=26.245735, Alt.=129.724731m. Speed=5.904000m/h.</desc>
<speed>1.640000</speed>
</trkpt>
<trkpt lat="55.723457" lon="26.245701">
<ele>129.935669</ele>
<time>2010-07-18T08:32:51Z</time>
<desc>lat.=55.723457, lon.=26.245701, Alt.=129.935669m. Speed=7.380000m/h.</desc>
<speed>2.050000</speed>
</trkpt>
<trkpt lat="55.723450" lon="26.245667">
<ele>129.943481</ele>
<time>2010-07-18T08:32:52Z</time>
<desc>lat.=55.723450, lon.=26.245667, Alt.=129.943481m. Speed=9.396000m/h.</desc>
<speed>2.610000</speed>
</trkpt>
<trkpt lat="55.723446" lon="26.245619">
<ele>129.990356</ele>
<time>2010-07-18T08:32:53Z</time>
<desc>lat.=55.723446, lon.=26.245619, Alt.=129.990356m. Speed=11.124000m/h.</desc>
<speed>3.090000</speed>
</trkpt>
<trkpt lat="55.723442" lon="26.245565">
<ele>129.787231</ele>
<time>2010-07-18T08:32:54Z</time>
<desc>lat.=55.723442, lon.=26.245565, Alt.=129.787231m. Speed=12.996000m/h.</desc>
<speed>3.610000</speed>
</trkpt>
<trkpt lat="55.723446" lon="26.245508">
<ele>129.130981</ele>
<time>2010-07-18T08:32:55Z</time>
<desc>lat.=55.723446, lon.=26.245508, Alt.=129.130981m. Speed=14.688000m/h.</desc>
<speed>4.080000</speed>
</trkpt>
<trkpt lat="55.723454" lon="26.245445">
<ele>128.545044</ele>
<time>2010-07-18T08:32:56Z</time>
<desc>lat.=55.723454, lon.=26.245445, Alt.=128.545044m. Speed=15.768000m/h.</desc>
<speed>4.380000</speed>
</trkpt>
<trkpt lat="55.723465" lon="26.245380">
<ele>128.267700</ele>
<time>2010-07-18T08:32:57Z</time>
<desc>lat.=55.723465, lon.=26.245380, Alt.=128.267700m. Speed=16.848000m/h.</desc>
<speed>4.680000</speed>
</trkpt>
<trkpt lat="55.723480" lon="26.245312">
<ele>127.780334</ele>
<time>2010-07-18T08:32:58Z</time>
<desc>lat.=55.723480, lon.=26.245312, Alt.=127.780334m. Speed=17.280001m/h.</desc>
<speed>4.800000</speed>
</trkpt>
<trkpt lat="55.723503" lon="26.245241">
<ele>127.692444</ele>
<time>2010-07-18T08:32:59Z</time>
<desc>lat.=55.723503, lon.=26.245241, Alt.=127.692444m. Speed=17.639999m/h.</desc>
<speed>4.900000</speed>
</trkpt>
<trkpt lat="55.723534" lon="26.245173">
<ele>127.637756</ele>
<time>2010-07-18T08:33:00Z</time>
<desc>lat.=55.723534, lon.=26.245173, Alt.=127.637756m. Speed=17.927999m/h.</desc>
<speed>4.980000</speed>
</trkpt>
<trkpt lat="55.723568" lon="26.245111">
<ele>127.924866</ele>
<time>2010-07-18T08:33:01Z</time>
<desc>lat.=55.723568, lon.=26.245111, Alt.=127.924866m. Speed=18.756001m/h.</desc>
<speed>5.210000</speed>
</trkpt>
<trkpt lat="55.723606" lon="26.245056">
<ele>128.146606</ele>
<time>2010-07-18T08:33:02Z</time>
<desc>lat.=55.723606, lon.=26.245056, Alt.=128.146606m. Speed=19.224001m/h.</desc>
<speed>5.340000</speed>
</trkpt>
<trkpt lat="55.723652" lon="26.245018">
<ele>127.680725</ele>
<time>2010-07-18T08:33:03Z</time>
<desc>lat.=55.723652, lon.=26.245018, Alt.=127.680725m. Speed=19.728001m/h.</desc>
<speed>5.480000</speed>
</trkpt>
<trkpt lat="55.723698" lon="26.244978">
<ele>127.967834</ele>
<time>2010-07-18T08:33:04Z</time>
<desc>lat.=55.723698, lon.=26.244978, Alt.=127.967834m. Speed=19.656000m/h.</desc>
<speed>5.460000</speed>
</trkpt>
<trkpt lat="55.723751" lon="26.244961">
<ele>127.821350</ele>
<time>2010-07-18T08:33:05Z</time>
<desc>lat.=55.723751, lon.=26.244961, Alt.=127.821350m. Speed=20.664000m/h.</desc>
<speed>5.740000</speed>
</trkpt>
<trkpt lat="55.723801" lon="26.244951">
<ele>127.825256</ele>
<time>2010-07-18T08:33:06Z</time>
<desc>lat.=55.723801, lon.=26.244951, Alt.=127.825256m. Speed=21.708000m/h.</desc>
<speed>6.030000</speed>
</trkpt>
<trkpt lat="55.723858" lon="26.244951">
<ele>127.631897</ele>
<time>2010-07-18T08:33:07Z</time>
<desc>lat.=55.723858, lon.=26.244951, Alt.=127.631897m. Speed=23.184000m/h.</desc>
<speed>6.440000</speed>
</trkpt>
<trkpt lat="55.723915" lon="26.244970">
<ele>127.862366</ele>
<time>2010-07-18T08:33:08Z</time>
<desc>lat.=55.723915, lon.=26.244970, Alt.=127.862366m. Speed=22.104000m/h.</desc>
<speed>6.140000</speed>
</trkpt>
<trkpt lat="55.723969" lon="26.245008">
<ele>127.811584</ele>
<time>2010-07-18T08:33:09Z</time>
<desc>lat.=55.723969, lon.=26.245008, Alt.=127.811584m. Speed=22.968000m/h.</desc>
<speed>6.380000</speed>
</trkpt>
<trkpt lat="55.724018" lon="26.245066">
<ele>127.770569</ele>
<time>2010-07-18T08:33:10Z</time>
<desc>lat.=55.724018, lon.=26.245066, Alt.=127.770569m. Speed=23.760000m/h.</desc>
<speed>6.600000</speed>
</trkpt>
<trkpt lat="55.724060" lon="26.245148">
<ele>127.319397</ele>
<time>2010-07-18T08:33:11Z</time>
<desc>lat.=55.724060, lon.=26.245148, Alt.=127.319397m. Speed=24.480000m/h.</desc>
<speed>6.800000</speed>
</trkpt>
<trkpt lat="55.724098" lon="26.245247">
<ele>126.838928</ele>
<time>2010-07-18T08:33:12Z</time>
<desc>lat.=55.724098, lon.=26.245247, Alt.=126.838928m. Speed=25.452000m/h.</desc>
<speed>7.070000</speed>
</trkpt>
<trkpt lat="55.724121" lon="26.245358">
<ele>126.622131</ele>
<time>2010-07-18T08:33:13Z</time>
<desc>lat.=55.724121, lon.=26.245358, Alt.=126.622131m. Speed=26.243999m/h.</desc>
<speed>7.290000</speed>
</trkpt>
<trkpt lat="55.724133" lon="26.245476">
<ele>126.723694</ele>
<time>2010-07-18T08:33:14Z</time>
<desc>lat.=55.724133, lon.=26.245476, Alt.=126.723694m. Speed=27.072001m/h.</desc>
<speed>7.520000</speed>
</trkpt>
<trkpt lat="55.724136" lon="26.245600">
<ele>126.889709</ele>
<time>2010-07-18T08:33:15Z</time>
<desc>lat.=55.724136, lon.=26.245600, Alt.=126.889709m. Speed=27.648001m/h.</desc>
<speed>7.680000</speed>
</trkpt>
<trkpt lat="55.724133" lon="26.245726">
<ele>127.987366</ele>
<time>2010-07-18T08:33:16Z</time>
<desc>lat.=55.724133, lon.=26.245726, Alt.=127.987366m. Speed=27.648001m/h.</desc>
<speed>7.680000</speed>
</trkpt>
<trkpt lat="55.724113" lon="26.245852">
<ele>128.353638</ele>
<time>2010-07-18T08:33:17Z</time>
<desc>lat.=55.724113, lon.=26.245852, Alt.=128.353638m. Speed=27.864000m/h.</desc>
<speed>7.740000</speed>
</trkpt>
<trkpt lat="55.724094" lon="26.245977">
<ele>128.591919</ele>
<time>2010-07-18T08:33:18Z</time>
<desc>lat.=55.724094, lon.=26.245977, Alt.=128.591919m. Speed=28.332001m/h.</desc>
<speed>7.870000</speed>
</trkpt>
<trkpt lat="55.724068" lon="26.246098">
<ele>128.818481</ele>
<time>2010-07-18T08:33:19Z</time>
<desc>lat.=55.724068, lon.=26.246098, Alt.=128.818481m. Speed=27.396000m/h.</desc>
<speed>7.610000</speed>
</trkpt>
<trkpt lat="55.724041" lon="26.246210">
<ele>129.091919</ele>
<time>2010-07-18T08:33:20Z</time>
<desc>lat.=55.724041, lon.=26.246210, Alt.=129.091919m. Speed=26.604000m/h.</desc>
<speed>7.390000</speed>
</trkpt>
<trkpt lat="55.724014" lon="26.246313">
<ele>128.662231</ele>
<time>2010-07-18T08:33:21Z</time>
<desc>lat.=55.724014, lon.=26.246313, Alt.=128.662231m. Speed=23.040001m/h.</desc>
<speed>6.400000</speed>
</trkpt>
<trkpt lat="55.723991" lon="26.246408">
<ele>128.611450</ele>
<time>2010-07-18T08:33:22Z</time>
<desc>lat.=55.723991, lon.=26.246408, Alt.=128.611450m. Speed=23.652000m/h.</desc>
<speed>6.570000</speed>
</trkpt>
<trkpt lat="55.723972" lon="26.246517">
<ele>128.502075</ele>
<time>2010-07-18T08:33:23Z</time>
<desc>lat.=55.723972, lon.=26.246517, Alt.=128.502075m. Speed=25.236000m/h.</desc>
<speed>7.010000</speed>
</trkpt>
<trkpt lat="55.723942" lon="26.246613">
<ele>128.173950</ele>
<time>2010-07-18T08:33:24Z</time>
<desc>lat.=55.723942, lon.=26.246613, Alt.=128.173950m. Speed=24.408001m/h.</desc>
<speed>6.780000</speed>
</trkpt>
<trkpt lat="55.723919" lon="26.246717">
<ele>128.146606</ele>
<time>2010-07-18T08:33:25Z</time>
<desc>lat.=55.723919, lon.=26.246717, Alt.=128.146606m. Speed=25.992001m/h.</desc>
<speed>7.220000</speed>
</trkpt>
<trkpt lat="55.723892" lon="26.246817">
<ele>128.111450</ele>
<time>2010-07-18T08:33:26Z</time>
<desc>lat.=55.723892, lon.=26.246817, Alt.=128.111450m. Speed=23.364000m/h.</desc>
<speed>6.490000</speed>
</trkpt>
<trkpt lat="55.723866" lon="26.246912">
<ele>128.111450</ele>
<time>2010-07-18T08:33:27Z</time>
<desc>lat.=55.723866, lon.=26.246912, Alt.=128.111450m. Speed=21.959999m/h.</desc>
<speed>6.100000</speed>
</trkpt>
<trkpt lat="55.723843" lon="26.246998">
<ele>128.170044</ele>
<time>2010-07-18T08:33:28Z</time>
<desc>lat.=55.723843, lon.=26.246998, Alt.=128.170044m. Speed=20.700001m/h.</desc>
<speed>5.750000</speed>
</trkpt>
<trkpt lat="55.723820" lon="26.247078">
<ele>128.205200</ele>
<time>2010-07-18T08:33:29Z</time>
<desc>lat.=55.723820, lon.=26.247078, Alt.=128.205200m. Speed=18.540001m/h.</desc>
<speed>5.150000</speed>
</trkpt>
<trkpt lat="55.723801" lon="26.247152">
<ele>128.138794</ele>
<time>2010-07-18T08:33:30Z</time>
<desc>lat.=55.723801, lon.=26.247152, Alt.=128.138794m. Speed=17.892000m/h.</desc>
<speed>4.970000</speed>
</trkpt>
<trkpt lat="55.723778" lon="26.247221">
<ele>128.146606</ele>
<time>2010-07-18T08:33:31Z</time>
<desc>lat.=55.723778, lon.=26.247221, Alt.=128.146606m. Speed=16.379999m/h.</desc>
<speed>4.550000</speed>
</trkpt>
<trkpt lat="55.723763" lon="26.247293">
<ele>128.193481</ele>
<time>2010-07-18T08:33:32Z</time>
<desc>lat.=55.723763, lon.=26.247293, Alt.=128.193481m. Speed=16.524000m/h.</desc>
<speed>4.590000</speed>
</trkpt>
<trkpt lat="55.723740" lon="26.247358">
<ele>128.162231</ele>
<time>2010-07-18T08:33:33Z</time>
<desc>lat.=55.723740, lon.=26.247358, Alt.=128.162231m. Speed=15.480000m/h.</desc>
<speed>4.300000</speed>
</trkpt>
<trkpt lat="55.723717" lon="26.247419">
<ele>128.201294</ele>
<time>2010-07-18T08:33:34Z</time>
<desc>lat.=55.723717, lon.=26.247419, Alt.=128.201294m. Speed=14.940000m/h.</desc>
<speed>4.150000</speed>
</trkpt>
<trkpt lat="55.723701" lon="26.247478">
<ele>128.287231</ele>
<time>2010-07-18T08:33:35Z</time>
<desc>lat.=55.723701, lon.=26.247478, Alt.=128.287231m. Speed=14.004000m/h.</desc>
<speed>3.890000</speed>
</trkpt>
<trkpt lat="55.723690" lon="26.247540">
<ele>128.541138</ele>
<time>2010-07-18T08:33:36Z</time>
<desc>lat.=55.723690, lon.=26.247540, Alt.=128.541138m. Speed=12.852000m/h.</desc>
<speed>3.570000</speed>
</trkpt>
<trkpt lat="55.723679" lon="26.247591">
<ele>128.759888</ele>
<time>2010-07-18T08:33:37Z</time>
<desc>lat.=55.723679, lon.=26.247591, Alt.=128.759888m. Speed=12.204000m/h.</desc>
<speed>3.390000</speed>
</trkpt>
<trkpt lat="55.723667" lon="26.247643">
<ele>129.271606</ele>
<time>2010-07-18T08:33:38Z</time>
<desc>lat.=55.723667, lon.=26.247643, Alt.=129.271606m. Speed=12.096000m/h.</desc>
<speed>3.360000</speed>
</trkpt>
<trkpt lat="55.723652" lon="26.247688">
<ele>129.650513</ele>
<time>2010-07-18T08:33:39Z</time>
<desc>lat.=55.723652, lon.=26.247688, Alt.=129.650513m. Speed=11.772000m/h.</desc>
<speed>3.270000</speed>
</trkpt>
<trkpt lat="55.723640" lon="26.247734">
<ele>129.779419</ele>
<time>2010-07-18T08:33:40Z</time>
<desc>lat.=55.723640, lon.=26.247734, Alt.=129.779419m. Speed=11.592000m/h.</desc>
<speed>3.220000</speed>
</trkpt>
<trkpt lat="55.723629" lon="26.247782">
<ele>129.744263</ele>
<time>2010-07-18T08:33:41Z</time>
<desc>lat.=55.723629, lon.=26.247782, Alt.=129.744263m. Speed=11.088000m/h.</desc>
<speed>3.080000</speed>
</trkpt>
<trkpt lat="55.723614" lon="26.247828">
<ele>129.744263</ele>
<time>2010-07-18T08:33:42Z</time>
<desc>lat.=55.723614, lon.=26.247828, Alt.=129.744263m. Speed=11.880000m/h.</desc>
<speed>3.300000</speed>
</trkpt>
<trkpt lat="55.723598" lon="26.247871">
<ele>129.705200</ele>
<time>2010-07-18T08:33:43Z</time>
<desc>lat.=55.723598, lon.=26.247871, Alt.=129.705200m. Speed=11.412000m/h.</desc>
<speed>3.170000</speed>
</trkpt>
<trkpt lat="55.723591" lon="26.247915">
<ele>130.119263</ele>
<time>2010-07-18T08:33:44Z</time>
<desc>lat.=55.723591, lon.=26.247915, Alt.=130.119263m. Speed=10.224000m/h.</desc>
<speed>2.840000</speed>
</trkpt>
<trkpt lat="55.723579" lon="26.247955">
<ele>130.459106</ele>
<time>2010-07-18T08:33:45Z</time>
<desc>lat.=55.723579, lon.=26.247955, Alt.=130.459106m. Speed=10.296000m/h.</desc>
<speed>2.860000</speed>
</trkpt>
<trkpt lat="55.723568" lon="26.248007">
<ele>130.615356</ele>
<time>2010-07-18T08:33:46Z</time>
<desc>lat.=55.723568, lon.=26.248007, Alt.=130.615356m. Speed=11.484000m/h.</desc>
<speed>3.190000</speed>
</trkpt>
<trkpt lat="55.723553" lon="26.248053">
<ele>130.513794</ele>
<time>2010-07-18T08:33:47Z</time>
<desc>lat.=55.723553, lon.=26.248053, Alt.=130.513794m. Speed=12.276000m/h.</desc>
<speed>3.410000</speed>
</trkpt>
<trkpt lat="55.723534" lon="26.248108">
<ele>130.529419</ele>
<time>2010-07-18T08:33:48Z</time>
<desc>lat.=55.723534, lon.=26.248108, Alt.=130.529419m. Speed=12.348000m/h.</desc>
<speed>3.430000</speed>
</trkpt>
<trkpt lat="55.723515" lon="26.248150">
<ele>130.572388</ele>
<time>2010-07-18T08:33:49Z</time>
<desc>lat.=55.723515, lon.=26.248150, Alt.=130.572388m. Speed=12.600000m/h.</desc>
<speed>3.500000</speed>
</trkpt>
<trkpt lat="55.723492" lon="26.248192">
<ele>130.845825</ele>
<time>2010-07-18T08:33:50Z</time>
<desc>lat.=55.723492, lon.=26.248192, Alt.=130.845825m. Speed=11.808000m/h.</desc>
<speed>3.280000</speed>
</trkpt>
<trkpt lat="55.723473" lon="26.248230">
<ele>131.111450</ele>
<time>2010-07-18T08:33:51Z</time>
<desc>lat.=55.723473, lon.=26.248230, Alt.=131.111450m. Speed=9.864000m/h.</desc>
<speed>2.740000</speed>
</trkpt>
<trkpt lat="55.723454" lon="26.248285">
<ele>129.959106</ele>
<time>2010-07-18T08:33:52Z</time>
<desc>lat.=55.723454, lon.=26.248285, Alt.=129.959106m. Speed=12.924000m/h.</desc>
<speed>3.590000</speed>
</trkpt>
<trkpt lat="55.723438" lon="26.248343">
<ele>130.123169</ele>
<time>2010-07-18T08:33:53Z</time>
<desc>lat.=55.723438, lon.=26.248343, Alt.=130.123169m. Speed=13.176000m/h.</desc>
<speed>3.660000</speed>
</trkpt>
<trkpt lat="55.723419" lon="26.248400">
<ele>129.732544</ele>
<time>2010-07-18T08:33:54Z</time>
<desc>lat.=55.723419, lon.=26.248400, Alt.=129.732544m. Speed=15.192000m/h.</desc>
<speed>4.220000</speed>
</trkpt>
<trkpt lat="55.723404" lon="26.248463">
<ele>129.361450</ele>
<time>2010-07-18T08:33:55Z</time>
<desc>lat.=55.723404, lon.=26.248463, Alt.=129.361450m. Speed=16.091999m/h.</desc>
<speed>4.470000</speed>
</trkpt>
<trkpt lat="55.723389" lon="26.248526">
<ele>129.029419</ele>
<time>2010-07-18T08:33:56Z</time>
<desc>lat.=55.723389, lon.=26.248526, Alt.=129.029419m. Speed=15.948000m/h.</desc>
<speed>4.430000</speed>
</trkpt>
<trkpt lat="55.723370" lon="26.248590">
<ele>129.002075</ele>
<time>2010-07-18T08:33:57Z</time>
<desc>lat.=55.723370, lon.=26.248590, Alt.=129.002075m. Speed=16.308001m/h.</desc>
<speed>4.530000</speed>
</trkpt>
<trkpt lat="55.723351" lon="26.248653">
<ele>129.142700</ele>
<time>2010-07-18T08:33:58Z</time>
<desc>lat.=55.723351, lon.=26.248653, Alt.=129.142700m. Speed=13.896000m/h.</desc>
<speed>3.860000</speed>
</trkpt>
<trkpt lat="55.723351" lon="26.248711">
<ele>130.892700</ele>
<time>2010-07-18T08:33:59Z</time>
<desc>lat.=55.723351, lon.=26.248711, Alt.=130.892700m. Speed=12.168000m/h.</desc>
<speed>3.380000</speed>
</trkpt>
<trkpt lat="55.723331" lon="26.248755">
<ele>129.349731</ele>
<time>2010-07-18T08:34:00Z</time>
<desc>lat.=55.723331, lon.=26.248755, Alt.=129.349731m. Speed=10.656000m/h.</desc>
<speed>2.960000</speed>
</trkpt>
<trkpt lat="55.723324" lon="26.248793">
<ele>129.541138</ele>
<time>2010-07-18T08:34:01Z</time>
<desc>lat.=55.723324, lon.=26.248793, Alt.=129.541138m. Speed=9.432000m/h.</desc>
<speed>2.620000</speed>
</trkpt>
<trkpt lat="55.723316" lon="26.248827">
<ele>129.345825</ele>
<time>2010-07-18T08:34:02Z</time>
<desc>lat.=55.723316, lon.=26.248827, Alt.=129.345825m. Speed=8.604000m/h.</desc>
<speed>2.390000</speed>
</trkpt>
<trkpt lat="55.723309" lon="26.248863">
<ele>129.009888</ele>
<time>2010-07-18T08:34:03Z</time>
<desc>lat.=55.723309, lon.=26.248863, Alt.=129.009888m. Speed=8.316000m/h.</desc>
<speed>2.310000</speed>
</trkpt>
<trkpt lat="55.723297" lon="26.248901">
<ele>129.412231</ele>
<time>2010-07-18T08:34:04Z</time>
<desc>lat.=55.723297, lon.=26.248901, Alt.=129.412231m. Speed=8.460000m/h.</desc>
<speed>2.350000</speed>
</trkpt>
<trkpt lat="55.723289" lon="26.248936">
<ele>130.248169</ele>
<time>2010-07-18T08:34:05Z</time>
<desc>lat.=55.723289, lon.=26.248936, Alt.=130.248169m. Speed=8.820000m/h.</desc>
<speed>2.450000</speed>
</trkpt>
<trkpt lat="55.723282" lon="26.248968">
<ele>130.349731</ele>
<time>2010-07-18T08:34:06Z</time>
<desc>lat.=55.723282, lon.=26.248968, Alt.=130.349731m. Speed=8.928000m/h.</desc>
<speed>2.480000</speed>
</trkpt>
<trkpt lat="55.723270" lon="26.249008">
<ele>130.670044</ele>
<time>2010-07-18T08:34:07Z</time>
<desc>lat.=55.723270, lon.=26.249008, Alt.=130.670044m. Speed=9.252000m/h.</desc>
<speed>2.570000</speed>
</trkpt>
<trkpt lat="55.723259" lon="26.249046">
<ele>131.021606</ele>
<time>2010-07-18T08:34:08Z</time>
<desc>lat.=55.723259, lon.=26.249046, Alt.=131.021606m. Speed=9.756000m/h.</desc>
<speed>2.710000</speed>
</trkpt>
<trkpt lat="55.723248" lon="26.249086">
<ele>131.201294</ele>
<time>2010-07-18T08:34:09Z</time>
<desc>lat.=55.723248, lon.=26.249086, Alt.=131.201294m. Speed=9.540000m/h.</desc>
<speed>2.650000</speed>
</trkpt>
<trkpt lat="55.723240" lon="26.249123">
<ele>131.830200</ele>
<time>2010-07-18T08:34:10Z</time>
<desc>lat.=55.723240, lon.=26.249123, Alt.=131.830200m. Speed=9.072000m/h.</desc>
<speed>2.520000</speed>
</trkpt>
<trkpt lat="55.723221" lon="26.249149">
<ele>130.584106</ele>
<time>2010-07-18T08:34:11Z</time>
<desc>lat.=55.723221, lon.=26.249149, Alt.=130.584106m. Speed=8.316000m/h.</desc>
<speed>2.310000</speed>
</trkpt>
<trkpt lat="55.723213" lon="26.249186">
<ele>130.884888</ele>
<time>2010-07-18T08:34:12Z</time>
<desc>lat.=55.723213, lon.=26.249186, Alt.=130.884888m. Speed=8.784000m/h.</desc>
<speed>2.440000</speed>
</trkpt>
<trkpt lat="55.723206" lon="26.249220">
<ele>131.970825</ele>
<time>2010-07-18T08:34:13Z</time>
<desc>lat.=55.723206, lon.=26.249220, Alt.=131.970825m. Speed=9.072000m/h.</desc>
<speed>2.520000</speed>
</trkpt>
<trkpt lat="55.723202" lon="26.249254">
<ele>136.130981</ele>
<time>2010-07-18T08:34:14Z</time>
<desc>lat.=55.723202, lon.=26.249254, Alt.=136.130981m. Speed=9.612000m/h.</desc>
<speed>2.670000</speed>
</trkpt>
<trkpt lat="55.723190" lon="26.249300">
<ele>135.763794</ele>
<time>2010-07-18T08:34:15Z</time>
<desc>lat.=55.723190, lon.=26.249300, Alt.=135.763794m. Speed=9.216000m/h.</desc>
<speed>2.560000</speed>
</trkpt>
<trkpt lat="55.723179" lon="26.249342">
<ele>135.767700</ele>
<time>2010-07-18T08:34:16Z</time>
<desc>lat.=55.723179, lon.=26.249342, Alt.=135.767700m. Speed=9.576000m/h.</desc>
<speed>2.660000</speed>
</trkpt>
<trkpt lat="55.723167" lon="26.249384">
<ele>136.310669</ele>
<time>2010-07-18T08:34:17Z</time>
<desc>lat.=55.723167, lon.=26.249384, Alt.=136.310669m. Speed=9.900000m/h.</desc>
<speed>2.750000</speed>
</trkpt>
<trkpt lat="55.723152" lon="26.249426">
<ele>136.798950</ele>
<time>2010-07-18T08:34:18Z</time>
<desc>lat.=55.723152, lon.=26.249426, Alt.=136.798950m. Speed=10.008000m/h.</desc>
<speed>2.780000</speed>
</trkpt>
<trkpt lat="55.723141" lon="26.249462">
<ele>136.939575</ele>
<time>2010-07-18T08:34:19Z</time>
<desc>lat.=55.723141, lon.=26.249462, Alt.=136.939575m. Speed=8.676000m/h.</desc>
<speed>2.410000</speed>
</trkpt>
<trkpt lat="55.723129" lon="26.249502">
<ele>136.603638</ele>
<time>2010-07-18T08:34:20Z</time>
<desc>lat.=55.723129, lon.=26.249502, Alt.=136.603638m. Speed=9.288000m/h.</desc>
<speed>2.580000</speed>
</trkpt>
<trkpt lat="55.723118" lon="26.249540">
<ele>136.822388</ele>
<time>2010-07-18T08:34:21Z</time>
<desc>lat.=55.723118, lon.=26.249540, Alt.=136.822388m. Speed=9.684000m/h.</desc>
<speed>2.690000</speed>
</trkpt>
<trkpt lat="55.723106" lon="26.249580">
<ele>137.240356</ele>
<time>2010-07-18T08:34:22Z</time>
<desc>lat.=55.723106, lon.=26.249580, Alt.=137.240356m. Speed=10.476000m/h.</desc>
<speed>2.910000</speed>
</trkpt>
<trkpt lat="55.723095" lon="26.249622">
<ele>137.287231</ele>
<time>2010-07-18T08:34:23Z</time>
<desc>lat.=55.723095, lon.=26.249622, Alt.=137.287231m. Speed=10.368000m/h.</desc>
<speed>2.880000</speed>
</trkpt>
<trkpt lat="55.723080" lon="26.249666">
<ele>137.646606</ele>
<time>2010-07-18T08:34:24Z</time>
<desc>lat.=55.723080, lon.=26.249666, Alt.=137.646606m. Speed=10.908000m/h.</desc>
<speed>3.030000</speed>
</trkpt>
<trkpt lat="55.723064" lon="26.249712">
<ele>138.072388</ele>
<time>2010-07-18T08:34:25Z</time>
<desc>lat.=55.723064, lon.=26.249712, Alt.=138.072388m. Speed=11.484000m/h.</desc>
<speed>3.190000</speed>
</trkpt>
<trkpt lat="55.723049" lon="26.249758">
<ele>138.681763</ele>
<time>2010-07-18T08:34:26Z</time>
<desc>lat.=55.723049, lon.=26.249758, Alt.=138.681763m. Speed=10.440000m/h.</desc>
<speed>2.900000</speed>
</trkpt>
<trkpt lat="55.723034" lon="26.249798">
<ele>138.912231</ele>
<time>2010-07-18T08:34:27Z</time>
<desc>lat.=55.723034, lon.=26.249798, Alt.=138.912231m. Speed=11.700000m/h.</desc>
<speed>3.250000</speed>
</trkpt>
<trkpt lat="55.723019" lon="26.249840">
<ele>138.892700</ele>
<time>2010-07-18T08:34:28Z</time>
<desc>lat.=55.723019, lon.=26.249840, Alt.=138.892700m. Speed=11.196000m/h.</desc>
<speed>3.110000</speed>
</trkpt>
<trkpt lat="55.723003" lon="26.249876">
<ele>138.470825</ele>
<time>2010-07-18T08:34:29Z</time>
<desc>lat.=55.723003, lon.=26.249876, Alt.=138.470825m. Speed=10.512000m/h.</desc>
<speed>2.920000</speed>
</trkpt>
<trkpt lat="55.722988" lon="26.249914">
<ele>138.408325</ele>
<time>2010-07-18T08:34:30Z</time>
<desc>lat.=55.722988, lon.=26.249914, Alt.=138.408325m. Speed=9.792000m/h.</desc>
<speed>2.720000</speed>
</trkpt>
<trkpt lat="55.722973" lon="26.249950">
<ele>138.377075</ele>
<time>2010-07-18T08:34:31Z</time>
<desc>lat.=55.722973, lon.=26.249950, Alt.=138.377075m. Speed=10.152000m/h.</desc>
<speed>2.820000</speed>
</trkpt>
<trkpt lat="55.722954" lon="26.249987">
<ele>138.052856</ele>
<time>2010-07-18T08:34:32Z</time>
<desc>lat.=55.722954, lon.=26.249987, Alt.=138.052856m. Speed=10.944000m/h.</desc>
<speed>3.040000</speed>
</trkpt>
<trkpt lat="55.722935" lon="26.250027">
<ele>137.986450</ele>
<time>2010-07-18T08:34:33Z</time>
<desc>lat.=55.722935, lon.=26.250027, Alt.=137.986450m. Speed=12.204000m/h.</desc>
<speed>3.390000</speed>
</trkpt>
<trkpt lat="55.722904" lon="26.250067">
<ele>137.865356</ele>
<time>2010-07-18T08:34:34Z</time>
<desc>lat.=55.722904, lon.=26.250067, Alt.=137.865356m. Speed=12.132000m/h.</desc>
<speed>3.370000</speed>
</trkpt>
<trkpt lat="55.722881" lon="26.250109">
<ele>137.806763</ele>
<time>2010-07-18T08:34:35Z</time>
<desc>lat.=55.722881, lon.=26.250109, Alt.=137.806763m. Speed=11.808000m/h.</desc>
<speed>3.280000</speed>
</trkpt>
<trkpt lat="55.722862" lon="26.250145">
<ele>137.966919</ele>
<time>2010-07-18T08:34:36Z</time>
<desc>lat.=55.722862, lon.=26.250145, Alt.=137.966919m. Speed=11.124000m/h.</desc>
<speed>3.090000</speed>
</trkpt>
<trkpt lat="55.722839" lon="26.250179">
<ele>137.728638</ele>
<time>2010-07-18T08:34:37Z</time>
<desc>lat.=55.722839, lon.=26.250179, Alt.=137.728638m. Speed=11.484000m/h.</desc>
<speed>3.190000</speed>
</trkpt>
<trkpt lat="55.722820" lon="26.250223">
<ele>137.849731</ele>
<time>2010-07-18T08:34:38Z</time>
<desc>lat.=55.722820, lon.=26.250223, Alt.=137.849731m. Speed=12.168000m/h.</desc>
<speed>3.380000</speed>
</trkpt>
<trkpt lat="55.722797" lon="26.250265">
<ele>138.002075</ele>
<time>2010-07-18T08:34:39Z</time>
<desc>lat.=55.722797, lon.=26.250265, Alt.=138.002075m. Speed=12.492000m/h.</desc>
<speed>3.470000</speed>
</trkpt>
<trkpt lat="55.722775" lon="26.250305">
<ele>137.912231</ele>
<time>2010-07-18T08:34:40Z</time>
<desc>lat.=55.722775, lon.=26.250305, Alt.=137.912231m. Speed=13.248000m/h.</desc>
<speed>3.680000</speed>
</trkpt>
<trkpt lat="55.722752" lon="26.250351">
<ele>137.916138</ele>
<time>2010-07-18T08:34:41Z</time>
<desc>lat.=55.722752, lon.=26.250351, Alt.=137.916138m. Speed=14.112000m/h.</desc>
<speed>3.920000</speed>
</trkpt>
<trkpt lat="55.722729" lon="26.250393">
<ele>137.701294</ele>
<time>2010-07-18T08:34:42Z</time>
<desc>lat.=55.722729, lon.=26.250393, Alt.=137.701294m. Speed=14.256000m/h.</desc>
<speed>3.960000</speed>
</trkpt>
<trkpt lat="55.722702" lon="26.250443">
<ele>137.931763</ele>
<time>2010-07-18T08:34:43Z</time>
<desc>lat.=55.722702, lon.=26.250443, Alt.=137.931763m. Speed=15.120000m/h.</desc>
<speed>4.200000</speed>
</trkpt>
<trkpt lat="55.722675" lon="26.250492">
<ele>138.170044</ele>
<time>2010-07-18T08:34:44Z</time>
<desc>lat.=55.722675, lon.=26.250492, Alt.=138.170044m. Speed=15.696000m/h.</desc>
<speed>4.360000</speed>
</trkpt>
<trkpt lat="55.722645" lon="26.250534">
<ele>138.220825</ele>
<time>2010-07-18T08:34:45Z</time>
<desc>lat.=55.722645, lon.=26.250534, Alt.=138.220825m. Speed=15.804000m/h.</desc>
<speed>4.390000</speed>
</trkpt>
<trkpt lat="55.722610" lon="26.250587">
<ele>137.986450</ele>
<time>2010-07-18T08:34:46Z</time>
<desc>lat.=55.722610, lon.=26.250587, Alt.=137.986450m. Speed=17.747999m/h.</desc>
<speed>4.930000</speed>
</trkpt>
<trkpt lat="55.722576" lon="26.250637">
<ele>137.713013</ele>
<time>2010-07-18T08:34:47Z</time>
<desc>lat.=55.722576, lon.=26.250637, Alt.=137.713013m. Speed=18.864000m/h.</desc>
<speed>5.240000</speed>
</trkpt>
<trkpt lat="55.722538" lon="26.250692">
<ele>137.353638</ele>
<time>2010-07-18T08:34:48Z</time>
<desc>lat.=55.722538, lon.=26.250692, Alt.=137.353638m. Speed=19.511999m/h.</desc>
<speed>5.420000</speed>
</trkpt>
<trkpt lat="55.722500" lon="26.250750">
<ele>136.826294</ele>
<time>2010-07-18T08:34:49Z</time>
<desc>lat.=55.722500, lon.=26.250750, Alt.=136.826294m. Speed=20.195999m/h.</desc>
<speed>5.610000</speed>
</trkpt>
<trkpt lat="55.722458" lon="26.250809">
<ele>136.630981</ele>
<time>2010-07-18T08:34:50Z</time>
<desc>lat.=55.722458, lon.=26.250809, Alt.=136.630981m. Speed=20.556000m/h.</desc>
<speed>5.710000</speed>
</trkpt>
<trkpt lat="55.722412" lon="26.250868">
<ele>136.482544</ele>
<time>2010-07-18T08:34:51Z</time>
<desc>lat.=55.722412, lon.=26.250868, Alt.=136.482544m. Speed=22.032000m/h.</desc>
<speed>6.120000</speed>
</trkpt>
<trkpt lat="55.722366" lon="26.250927">
<ele>136.189575</ele>
<time>2010-07-18T08:34:52Z</time>
<desc>lat.=55.722366, lon.=26.250927, Alt.=136.189575m. Speed=23.076000m/h.</desc>
<speed>6.410000</speed>
</trkpt>
<trkpt lat="55.722317" lon="26.250994">
<ele>136.025513</ele>
<time>2010-07-18T08:34:53Z</time>
<desc>lat.=55.722317, lon.=26.250994, Alt.=136.025513m. Speed=24.011999m/h.</desc>
<speed>6.670000</speed>
</trkpt>
<trkpt lat="55.722267" lon="26.251059">
<ele>135.845825</ele>
<time>2010-07-18T08:34:54Z</time>
<desc>lat.=55.722267, lon.=26.251059, Alt.=135.845825m. Speed=24.948000m/h.</desc>
<speed>6.930000</speed>
</trkpt>
<trkpt lat="55.722214" lon="26.251122">
<ele>135.482544</ele>
<time>2010-07-18T08:34:55Z</time>
<desc>lat.=55.722214, lon.=26.251122, Alt.=135.482544m. Speed=25.992001m/h.</desc>
<speed>7.220000</speed>
</trkpt>
<trkpt lat="55.722157" lon="26.251188">
<ele>135.170044</ele>
<time>2010-07-18T08:34:56Z</time>
<desc>lat.=55.722157, lon.=26.251188, Alt.=135.170044m. Speed=27.000000m/h.</desc>
<speed>7.500000</speed>
</trkpt>
<trkpt lat="55.722099" lon="26.251259">
<ele>135.052856</ele>
<time>2010-07-18T08:34:57Z</time>
<desc>lat.=55.722099, lon.=26.251259, Alt.=135.052856m. Speed=27.900000m/h.</desc>
<speed>7.750000</speed>
</trkpt>
<trkpt lat="55.722042" lon="26.251331">
<ele>134.767700</ele>
<time>2010-07-18T08:34:58Z</time>
<desc>lat.=55.722042, lon.=26.251331, Alt.=134.767700m. Speed=28.656000m/h.</desc>
<speed>7.960000</speed>
</trkpt>
<trkpt lat="55.721985" lon="26.251408">
<ele>134.752075</ele>
<time>2010-07-18T08:34:59Z</time>
<desc>lat.=55.721985, lon.=26.251408, Alt.=134.752075m. Speed=29.232000m/h.</desc>
<speed>8.120000</speed>
</trkpt>
<trkpt lat="55.721924" lon="26.251474">
<ele>134.341919</ele>
<time>2010-07-18T08:35:00Z</time>
<desc>lat.=55.721924, lon.=26.251474, Alt.=134.341919m. Speed=29.520000m/h.</desc>
<speed>8.200000</speed>
</trkpt>
<trkpt lat="55.721863" lon="26.251560">
<ele>134.306763</ele>
<time>2010-07-18T08:35:01Z</time>
<desc>lat.=55.721863, lon.=26.251560, Alt.=134.306763m. Speed=30.204000m/h.</desc>
<speed>8.390000</speed>
</trkpt>
<trkpt lat="55.721802" lon="26.251640">
<ele>134.130981</ele>
<time>2010-07-18T08:35:02Z</time>
<desc>lat.=55.721802, lon.=26.251640, Alt.=134.130981m. Speed=29.879999m/h.</desc>
<speed>8.300000</speed>
</trkpt>
<trkpt lat="55.721741" lon="26.251720">
<ele>133.970825</ele>
<time>2010-07-18T08:35:03Z</time>
<desc>lat.=55.721741, lon.=26.251720, Alt.=133.970825m. Speed=29.375999m/h.</desc>
<speed>8.160000</speed>
</trkpt>
<trkpt lat="55.721684" lon="26.251799">
<ele>134.005981</ele>
<time>2010-07-18T08:35:04Z</time>
<desc>lat.=55.721684, lon.=26.251799, Alt.=134.005981m. Speed=29.844000m/h.</desc>
<speed>8.290000</speed>
</trkpt>
<trkpt lat="55.721622" lon="26.251871">
<ele>134.060669</ele>
<time>2010-07-18T08:35:05Z</time>
<desc>lat.=55.721622, lon.=26.251871, Alt.=134.060669m. Speed=28.224001m/h.</desc>
<speed>7.840000</speed>
</trkpt>
<trkpt lat="55.721565" lon="26.251945">
<ele>134.029419</ele>
<time>2010-07-18T08:35:06Z</time>
<desc>lat.=55.721565, lon.=26.251945, Alt.=134.029419m. Speed=28.511999m/h.</desc>
<speed>7.920000</speed>
</trkpt>
<trkpt lat="55.721508" lon="26.252020">
<ele>134.056763</ele>
<time>2010-07-18T08:35:07Z</time>
<desc>lat.=55.721508, lon.=26.252020, Alt.=134.056763m. Speed=27.684000m/h.</desc>
<speed>7.690000</speed>
</trkpt>
<trkpt lat="55.721451" lon="26.252090">
<ele>134.072388</ele>
<time>2010-07-18T08:35:08Z</time>
<desc>lat.=55.721451, lon.=26.252090, Alt.=134.072388m. Speed=27.360001m/h.</desc>
<speed>7.600000</speed>
</trkpt>
<trkpt lat="55.721397" lon="26.252159">
<ele>134.306763</ele>
<time>2010-07-18T08:35:09Z</time>
<desc>lat.=55.721397, lon.=26.252159, Alt.=134.306763m. Speed=26.568001m/h.</desc>
<speed>7.380000</speed>
</trkpt>
<trkpt lat="55.721344" lon="26.252234">
<ele>134.646606</ele>
<time>2010-07-18T08:35:10Z</time>
<desc>lat.=55.721344, lon.=26.252234, Alt.=134.646606m. Speed=25.992001m/h.</desc>
<speed>7.220000</speed>
</trkpt>
<trkpt lat="55.721294" lon="26.252300">
<ele>134.779419</ele>
<time>2010-07-18T08:35:11Z</time>
<desc>lat.=55.721294, lon.=26.252300, Alt.=134.779419m. Speed=25.308001m/h.</desc>
<speed>7.030000</speed>
</trkpt>
<trkpt lat="55.721249" lon="26.252369">
<ele>134.732544</ele>
<time>2010-07-18T08:35:12Z</time>
<desc>lat.=55.721249, lon.=26.252369, Alt.=134.732544m. Speed=24.011999m/h.</desc>
<speed>6.670000</speed>
</trkpt>
<trkpt lat="55.721203" lon="26.252439">
<ele>134.634888</ele>
<time>2010-07-18T08:35:13Z</time>
<desc>lat.=55.721203, lon.=26.252439, Alt.=134.634888m. Speed=23.976000m/h.</desc>
<speed>6.660000</speed>
</trkpt>
<trkpt lat="55.721157" lon="26.252504">
<ele>134.783325</ele>
<time>2010-07-18T08:35:14Z</time>
<desc>lat.=55.721157, lon.=26.252504, Alt.=134.783325m. Speed=22.680000m/h.</desc>
<speed>6.300000</speed>
</trkpt>
<trkpt lat="55.721119" lon="26.252567">
<ele>134.935669</ele>
<time>2010-07-18T08:35:15Z</time>
<desc>lat.=55.721119, lon.=26.252567, Alt.=134.935669m. Speed=21.636000m/h.</desc>
<speed>6.010000</speed>
</trkpt>
<trkpt lat="55.721077" lon="26.252625">
<ele>135.154419</ele>
<time>2010-07-18T08:35:16Z</time>
<desc>lat.=55.721077, lon.=26.252625, Alt.=135.154419m. Speed=20.844000m/h.</desc>
<speed>5.790000</speed>
</trkpt>
<trkpt lat="55.721031" lon="26.252672">
<ele>134.892700</ele>
<time>2010-07-18T08:35:17Z</time>
<desc>lat.=55.721031, lon.=26.252672, Alt.=134.892700m. Speed=20.664000m/h.</desc>
<speed>5.740000</speed>
</trkpt>
<trkpt lat="55.720989" lon="26.252729">
<ele>134.775513</ele>
<time>2010-07-18T08:35:18Z</time>
<desc>lat.=55.720989, lon.=26.252729, Alt.=134.775513m. Speed=20.268000m/h.</desc>
<speed>5.630000</speed>
</trkpt>
<trkpt lat="55.720955" lon="26.252783">
<ele>134.744263</ele>
<time>2010-07-18T08:35:19Z</time>
<desc>lat.=55.720955, lon.=26.252783, Alt.=134.744263m. Speed=17.532000m/h.</desc>
<speed>4.870000</speed>
</trkpt>
<trkpt lat="55.720917" lon="26.252832">
<ele>134.654419</ele>
<time>2010-07-18T08:35:20Z</time>
<desc>lat.=55.720917, lon.=26.252832, Alt.=134.654419m. Speed=17.496000m/h.</desc>
<speed>4.860000</speed>
</trkpt>
<trkpt lat="55.720890" lon="26.252880">
<ele>134.693481</ele>
<time>2010-07-18T08:35:21Z</time>
<desc>lat.=55.720890, lon.=26.252880, Alt.=134.693481m. Speed=15.696000m/h.</desc>
<speed>4.360000</speed>
</trkpt>
<trkpt lat="55.720863" lon="26.252934">
<ele>135.091919</ele>
<time>2010-07-18T08:35:22Z</time>
<desc>lat.=55.720863, lon.=26.252934, Alt.=135.091919m. Speed=14.328000m/h.</desc>
<speed>3.980000</speed>
</trkpt>
<trkpt lat="55.720840" lon="26.252983">
<ele>135.338013</ele>
<time>2010-07-18T08:35:23Z</time>
<desc>lat.=55.720840, lon.=26.252983, Alt.=135.338013m. Speed=13.572000m/h.</desc>
<speed>3.770000</speed>
</trkpt>
<trkpt lat="55.720814" lon="26.253029">
<ele>135.572388</ele>
<time>2010-07-18T08:35:24Z</time>
<desc>lat.=55.720814, lon.=26.253029, Alt.=135.572388m. Speed=14.256000m/h.</desc>
<speed>3.960000</speed>
</trkpt>
<trkpt lat="55.720791" lon="26.253082">
<ele>135.838013</ele>
<time>2010-07-18T08:35:25Z</time>
<desc>lat.=55.720791, lon.=26.253082, Alt.=135.838013m. Speed=14.616000m/h.</desc>
<speed>4.060000</speed>
</trkpt>
<trkpt lat="55.720768" lon="26.253132">
<ele>135.529419</ele>
<time>2010-07-18T08:35:26Z</time>
<desc>lat.=55.720768, lon.=26.253132, Alt.=135.529419m. Speed=14.076000m/h.</desc>
<speed>3.910000</speed>
</trkpt>
<trkpt lat="55.720745" lon="26.253185">
<ele>135.564575</ele>
<time>2010-07-18T08:35:27Z</time>
<desc>lat.=55.720745, lon.=26.253185, Alt.=135.564575m. Speed=13.788000m/h.</desc>
<speed>3.830000</speed>
</trkpt>
<trkpt lat="55.720726" lon="26.253248">
<ele>135.529419</ele>
<time>2010-07-18T08:35:28Z</time>
<desc>lat.=55.720726, lon.=26.253248, Alt.=135.529419m. Speed=15.696000m/h.</desc>
<speed>4.360000</speed>
</trkpt>
<trkpt lat="55.720699" lon="26.253305">
<ele>135.388794</ele>
<time>2010-07-18T08:35:29Z</time>
<desc>lat.=55.720699, lon.=26.253305, Alt.=135.388794m. Speed=16.020000m/h.</desc>
<speed>4.450000</speed>
</trkpt>
<trkpt lat="55.720676" lon="26.253359">
<ele>135.384888</ele>
<time>2010-07-18T08:35:30Z</time>
<desc>lat.=55.720676, lon.=26.253359, Alt.=135.384888m. Speed=15.264000m/h.</desc>
<speed>4.240000</speed>
</trkpt>
<trkpt lat="55.720654" lon="26.253414">
<ele>135.595825</ele>
<time>2010-07-18T08:35:31Z</time>
<desc>lat.=55.720654, lon.=26.253414, Alt.=135.595825m. Speed=15.660000m/h.</desc>
<speed>4.350000</speed>
</trkpt>
<trkpt lat="55.720631" lon="26.253468">
<ele>135.713013</ele>
<time>2010-07-18T08:35:32Z</time>
<desc>lat.=55.720631, lon.=26.253468, Alt.=135.713013m. Speed=15.084000m/h.</desc>
<speed>4.190000</speed>
</trkpt>
<trkpt lat="55.720608" lon="26.253529">
<ele>135.404419</ele>
<time>2010-07-18T08:35:33Z</time>
<desc>lat.=55.720608, lon.=26.253529, Alt.=135.404419m. Speed=15.444000m/h.</desc>
<speed>4.290000</speed>
</trkpt>
<trkpt lat="55.720589" lon="26.253590">
<ele>135.463013</ele>
<time>2010-07-18T08:35:34Z</time>
<desc>lat.=55.720589, lon.=26.253590, Alt.=135.463013m. Speed=15.480000m/h.</desc>
<speed>4.300000</speed>
</trkpt>
<trkpt lat="55.720566" lon="26.253651">
<ele>135.478638</ele>
<time>2010-07-18T08:35:35Z</time>
<desc>lat.=55.720566, lon.=26.253651, Alt.=135.478638m. Speed=16.524000m/h.</desc>
<speed>4.590000</speed>
</trkpt>
<trkpt lat="55.720543" lon="26.253712">
<ele>135.795044</ele>
<time>2010-07-18T08:35:36Z</time>
<desc>lat.=55.720543, lon.=26.253712, Alt.=135.795044m. Speed=16.236000m/h.</desc>
<speed>4.510000</speed>
</trkpt>
<trkpt lat="55.720516" lon="26.253775">
<ele>136.013794</ele>
<time>2010-07-18T08:35:37Z</time>
<desc>lat.=55.720516, lon.=26.253775, Alt.=136.013794m. Speed=17.208000m/h.</desc>
<speed>4.780000</speed>
</trkpt>
<trkpt lat="55.720490" lon="26.253841">
<ele>135.990356</ele>
<time>2010-07-18T08:35:38Z</time>
<desc>lat.=55.720490, lon.=26.253841, Alt.=135.990356m. Speed=16.775999m/h.</desc>
<speed>4.660000</speed>
</trkpt>
<trkpt lat="55.720463" lon="26.253901">
<ele>135.541138</ele>
<time>2010-07-18T08:35:39Z</time>
<desc>lat.=55.720463, lon.=26.253901, Alt.=135.541138m. Speed=15.732000m/h.</desc>
<speed>4.370000</speed>
</trkpt>
<trkpt lat="55.720440" lon="26.253967">
<ele>135.744263</ele>
<time>2010-07-18T08:35:40Z</time>
<desc>lat.=55.720440, lon.=26.253967, Alt.=135.744263m. Speed=15.408000m/h.</desc>
<speed>4.280000</speed>
</trkpt>
<trkpt lat="55.720417" lon="26.254026">
<ele>135.849731</ele>
<time>2010-07-18T08:35:41Z</time>
<desc>lat.=55.720417, lon.=26.254026, Alt.=135.849731m. Speed=13.068000m/h.</desc>
<speed>3.630000</speed>
</trkpt>
<trkpt lat="55.720398" lon="26.254080">
<ele>135.662231</ele>
<time>2010-07-18T08:35:42Z</time>
<desc>lat.=55.720398, lon.=26.254080, Alt.=135.662231m. Speed=13.104000m/h.</desc>
<speed>3.640000</speed>
</trkpt>
<trkpt lat="55.720379" lon="26.254131">
<ele>135.502075</ele>
<time>2010-07-18T08:35:43Z</time>
<desc>lat.=55.720379, lon.=26.254131, Alt.=135.502075m. Speed=13.680000m/h.</desc>
<speed>3.800000</speed>
</trkpt>
<trkpt lat="55.720360" lon="26.254190">
<ele>135.416138</ele>
<time>2010-07-18T08:35:44Z</time>
<desc>lat.=55.720360, lon.=26.254190, Alt.=135.416138m. Speed=13.644000m/h.</desc>
<speed>3.790000</speed>
</trkpt>
<trkpt lat="55.720345" lon="26.254248">
<ele>135.295044</ele>
<time>2010-07-18T08:35:45Z</time>
<desc>lat.=55.720345, lon.=26.254248, Alt.=135.295044m. Speed=13.536000m/h.</desc>
<speed>3.760000</speed>
</trkpt>
<trkpt lat="55.720325" lon="26.254303">
<ele>135.173950</ele>
<time>2010-07-18T08:35:46Z</time>
<desc>lat.=55.720325, lon.=26.254303, Alt.=135.173950m. Speed=14.292000m/h.</desc>
<speed>3.970000</speed>
</trkpt>
<trkpt lat="55.720310" lon="26.254354">
<ele>135.107544</ele>
<time>2010-07-18T08:35:47Z</time>
<desc>lat.=55.720310, lon.=26.254354, Alt.=135.107544m. Speed=12.924000m/h.</desc>
<speed>3.590000</speed>
</trkpt>
<trkpt lat="55.720295" lon="26.254404">
<ele>134.740356</ele>
<time>2010-07-18T08:35:48Z</time>
<desc>lat.=55.720295, lon.=26.254404, Alt.=134.740356m. Speed=12.672000m/h.</desc>
<speed>3.520000</speed>
</trkpt>
<trkpt lat="55.720280" lon="26.254459">
<ele>134.595825</ele>
<time>2010-07-18T08:35:49Z</time>
<desc>lat.=55.720280, lon.=26.254459, Alt.=134.595825m. Speed=12.672000m/h.</desc>
<speed>3.520000</speed>
</trkpt>
<trkpt lat="55.720261" lon="26.254509">
<ele>134.627075</ele>
<time>2010-07-18T08:35:50Z</time>
<desc>lat.=55.720261, lon.=26.254509, Alt.=134.627075m. Speed=12.996000m/h.</desc>
<speed>3.610000</speed>
</trkpt>
<trkpt lat="55.720245" lon="26.254564">
<ele>135.064575</ele>
<time>2010-07-18T08:35:51Z</time>
<desc>lat.=55.720245, lon.=26.254564, Alt.=135.064575m. Speed=13.716000m/h.</desc>
<speed>3.810000</speed>
</trkpt>
<trkpt lat="55.720230" lon="26.254612">
<ele>135.048950</ele>
<time>2010-07-18T08:35:52Z</time>
<desc>lat.=55.720230, lon.=26.254612, Alt.=135.048950m. Speed=12.132000m/h.</desc>
<speed>3.370000</speed>
</trkpt>
<trkpt lat="55.720215" lon="26.254667">
<ele>136.158325</ele>
<time>2010-07-18T08:35:53Z</time>
<desc>lat.=55.720215, lon.=26.254667, Alt.=136.158325m. Speed=12.816000m/h.</desc>
<speed>3.560000</speed>
</trkpt>
<trkpt lat="55.720196" lon="26.254711">
<ele>135.959106</ele>
<time>2010-07-18T08:35:54Z</time>
<desc>lat.=55.720196, lon.=26.254711, Alt.=135.959106m. Speed=11.952000m/h.</desc>
<speed>3.320000</speed>
</trkpt>
<trkpt lat="55.720181" lon="26.254763">
<ele>136.486450</ele>
<time>2010-07-18T08:35:55Z</time>
<desc>lat.=55.720181, lon.=26.254763, Alt.=136.486450m. Speed=13.644000m/h.</desc>
<speed>3.790000</speed>
</trkpt>
<trkpt lat="55.720161" lon="26.254814">
<ele>136.146606</ele>
<time>2010-07-18T08:35:56Z</time>
<desc>lat.=55.720161, lon.=26.254814, Alt.=136.146606m. Speed=13.968000m/h.</desc>
<speed>3.880000</speed>
</trkpt>
<trkpt lat="55.720146" lon="26.254864">
<ele>136.306763</ele>
<time>2010-07-18T08:35:57Z</time>
<desc>lat.=55.720146, lon.=26.254864, Alt.=136.306763m. Speed=12.420000m/h.</desc>
<speed>3.450000</speed>
</trkpt>
<trkpt lat="55.720135" lon="26.254911">
<ele>136.224731</ele>
<time>2010-07-18T08:35:58Z</time>
<desc>lat.=55.720135, lon.=26.254911, Alt.=136.224731m. Speed=11.988000m/h.</desc>
<speed>3.330000</speed>
</trkpt>
<trkpt lat="55.720123" lon="26.254971">
<ele>136.599731</ele>
<time>2010-07-18T08:35:59Z</time>
<desc>lat.=55.720123, lon.=26.254971, Alt.=136.599731m. Speed=14.004000m/h.</desc>
<speed>3.890000</speed>
</trkpt>
<trkpt lat="55.720108" lon="26.255028">
<ele>136.580200</ele>
<time>2010-07-18T08:36:00Z</time>
<desc>lat.=55.720108, lon.=26.255028, Alt.=136.580200m. Speed=15.084000m/h.</desc>
<speed>4.190000</speed>
</trkpt>
<trkpt lat="55.720089" lon="26.255089">
<ele>136.767700</ele>
<time>2010-07-18T08:36:01Z</time>
<desc>lat.=55.720089, lon.=26.255089, Alt.=136.767700m. Speed=15.948000m/h.</desc>
<speed>4.430000</speed>
</trkpt>
<trkpt lat="55.720070" lon="26.255150">
<ele>137.088013</ele>
<time>2010-07-18T08:36:02Z</time>
<desc>lat.=55.720070, lon.=26.255150, Alt.=137.088013m. Speed=16.524000m/h.</desc>
<speed>4.590000</speed>
</trkpt>
<trkpt lat="55.720051" lon="26.255213">
<ele>137.240356</ele>
<time>2010-07-18T08:36:03Z</time>
<desc>lat.=55.720051, lon.=26.255213, Alt.=137.240356m. Speed=17.424000m/h.</desc>
<speed>4.840000</speed>
</trkpt>
<trkpt lat="55.720024" lon="26.255274">
<ele>136.896606</ele>
<time>2010-07-18T08:36:04Z</time>
<desc>lat.=55.720024, lon.=26.255274, Alt.=136.896606m. Speed=17.280001m/h.</desc>
<speed>4.800000</speed>
</trkpt>
<trkpt lat="55.719997" lon="26.255333">
<ele>136.931763</ele>
<time>2010-07-18T08:36:05Z</time>
<desc>lat.=55.719997, lon.=26.255333, Alt.=136.931763m. Speed=16.992001m/h.</desc>
<speed>4.720000</speed>
</trkpt>
<trkpt lat="55.719971" lon="26.255394">
<ele>136.947388</ele>
<time>2010-07-18T08:36:06Z</time>
<desc>lat.=55.719971, lon.=26.255394, Alt.=136.947388m. Speed=16.775999m/h.</desc>
<speed>4.660000</speed>
</trkpt>
<trkpt lat="55.719948" lon="26.255451">
<ele>136.892700</ele>
<time>2010-07-18T08:36:07Z</time>
<desc>lat.=55.719948, lon.=26.255451, Alt.=136.892700m. Speed=16.236000m/h.</desc>
<speed>4.510000</speed>
</trkpt>
<trkpt lat="55.719925" lon="26.255508">
<ele>136.677856</ele>
<time>2010-07-18T08:36:08Z</time>
<desc>lat.=55.719925, lon.=26.255508, Alt.=136.677856m. Speed=15.300000m/h.</desc>
<speed>4.250000</speed>
</trkpt>
<trkpt lat="55.719902" lon="26.255566">
<ele>136.646606</ele>
<time>2010-07-18T08:36:09Z</time>
<desc>lat.=55.719902, lon.=26.255566, Alt.=136.646606m. Speed=15.804000m/h.</desc>
<speed>4.390000</speed>
</trkpt>
<trkpt lat="55.719883" lon="26.255625">
<ele>137.005981</ele>
<time>2010-07-18T08:36:10Z</time>
<desc>lat.=55.719883, lon.=26.255625, Alt.=137.005981m. Speed=16.091999m/h.</desc>
<speed>4.470000</speed>
</trkpt>
<trkpt lat="55.719860" lon="26.255678">
<ele>137.095825</ele>
<time>2010-07-18T08:36:11Z</time>
<desc>lat.=55.719860, lon.=26.255678, Alt.=137.095825m. Speed=15.660000m/h.</desc>
<speed>4.350000</speed>
</trkpt>
<trkpt lat="55.719830" lon="26.255724">
<ele>135.982544</ele>
<time>2010-07-18T08:36:12Z</time>
<desc>lat.=55.719830, lon.=26.255724, Alt.=135.982544m. Speed=14.400000m/h.</desc>
<speed>4.000000</speed>
</trkpt>
<trkpt lat="55.719807" lon="26.255775">
<ele>136.166138</ele>
<time>2010-07-18T08:36:13Z</time>
<desc>lat.=55.719807, lon.=26.255775, Alt.=136.166138m. Speed=15.876000m/h.</desc>
<speed>4.410000</speed>
</trkpt>
<trkpt lat="55.719780" lon="26.255825">
<ele>136.005981</ele>
<time>2010-07-18T08:36:14Z</time>
<desc>lat.=55.719780, lon.=26.255825, Alt.=136.005981m. Speed=15.768000m/h.</desc>
<speed>4.380000</speed>
</trkpt>
<trkpt lat="55.719757" lon="26.255877">
<ele>135.923950</ele>
<time>2010-07-18T08:36:15Z</time>
<desc>lat.=55.719757, lon.=26.255877, Alt.=135.923950m. Speed=15.480000m/h.</desc>
<speed>4.300000</speed>
</trkpt>
<trkpt lat="55.719734" lon="26.255932">
<ele>135.990356</ele>
<time>2010-07-18T08:36:16Z</time>
<desc>lat.=55.719734, lon.=26.255932, Alt.=135.990356m. Speed=15.732000m/h.</desc>
<speed>4.370000</speed>
</trkpt>
<trkpt lat="55.719707" lon="26.255983">
<ele>135.849731</ele>
<time>2010-07-18T08:36:17Z</time>
<desc>lat.=55.719707, lon.=26.255983, Alt.=135.849731m. Speed=15.408000m/h.</desc>
<speed>4.280000</speed>
</trkpt>
<trkpt lat="55.719681" lon="26.256035">
<ele>135.947388</ele>
<time>2010-07-18T08:36:18Z</time>
<desc>lat.=55.719681, lon.=26.256035, Alt.=135.947388m. Speed=15.516000m/h.</desc>
<speed>4.310000</speed>
</trkpt>
<trkpt lat="55.719654" lon="26.256086">
<ele>136.181763</ele>
<time>2010-07-18T08:36:19Z</time>
<desc>lat.=55.719654, lon.=26.256086, Alt.=136.181763m. Speed=15.804000m/h.</desc>
<speed>4.390000</speed>
</trkpt>
<trkpt lat="55.719631" lon="26.256138">
<ele>136.873169</ele>
<time>2010-07-18T08:36:20Z</time>
<desc>lat.=55.719631, lon.=26.256138, Alt.=136.873169m. Speed=15.840000m/h.</desc>
<speed>4.400000</speed>
</trkpt>
<trkpt lat="55.719604" lon="26.256186">
<ele>137.220825</ele>
<time>2010-07-18T08:36:21Z</time>
<desc>lat.=55.719604, lon.=26.256186, Alt.=137.220825m. Speed=15.912000m/h.</desc>
<speed>4.420000</speed>
</trkpt>
<trkpt lat="55.719570" lon="26.256227">
<ele>137.275513</ele>
<time>2010-07-18T08:36:22Z</time>
<desc>lat.=55.719570, lon.=26.256227, Alt.=137.275513m. Speed=15.696000m/h.</desc>
<speed>4.360000</speed>
</trkpt>
<trkpt lat="55.719543" lon="26.256264">
<ele>137.111450</ele>
<time>2010-07-18T08:36:23Z</time>
<desc>lat.=55.719543, lon.=26.256264, Alt.=137.111450m. Speed=14.436000m/h.</desc>
<speed>4.010000</speed>
</trkpt>
<trkpt lat="55.719517" lon="26.256306">
<ele>137.341919</ele>
<time>2010-07-18T08:36:24Z</time>
<desc>lat.=55.719517, lon.=26.256306, Alt.=137.341919m. Speed=13.788000m/h.</desc>
<speed>3.830000</speed>
</trkpt>
<trkpt lat="55.719494" lon="26.256346">
<ele>137.591919</ele>
<time>2010-07-18T08:36:25Z</time>
<desc>lat.=55.719494, lon.=26.256346, Alt.=137.591919m. Speed=11.772000m/h.</desc>
<speed>3.270000</speed>
</trkpt>
<trkpt lat="55.719471" lon="26.256384">
<ele>137.814575</ele>
<time>2010-07-18T08:36:26Z</time>
<desc>lat.=55.719471, lon.=26.256384, Alt.=137.814575m. Speed=13.860000m/h.</desc>
<speed>3.850000</speed>
</trkpt>
<trkpt lat="55.719437" lon="26.256422">
<ele>137.869263</ele>
<time>2010-07-18T08:36:27Z</time>
<desc>lat.=55.719437, lon.=26.256422, Alt.=137.869263m. Speed=14.220000m/h.</desc>
<speed>3.950000</speed>
</trkpt>
<trkpt lat="55.719406" lon="26.256462">
<ele>137.904419</ele>
<time>2010-07-18T08:36:28Z</time>
<desc>lat.=55.719406, lon.=26.256462, Alt.=137.904419m. Speed=14.688000m/h.</desc>
<speed>4.080000</speed>
</trkpt>
<trkpt lat="55.719379" lon="26.256502">
<ele>137.982544</ele>
<time>2010-07-18T08:36:29Z</time>
<desc>lat.=55.719379, lon.=26.256502, Alt.=137.982544m. Speed=14.760000m/h.</desc>
<speed>4.100000</speed>
</trkpt>
<trkpt lat="55.719353" lon="26.256548">
<ele>138.228638</ele>
<time>2010-07-18T08:36:30Z</time>
<desc>lat.=55.719353, lon.=26.256548, Alt.=138.228638m. Speed=15.948000m/h.</desc>
<speed>4.430000</speed>
</trkpt>
<trkpt lat="55.719322" lon="26.256590">
<ele>138.232544</ele>
<time>2010-07-18T08:36:31Z</time>
<desc>lat.=55.719322, lon.=26.256590, Alt.=138.232544m. Speed=15.552000m/h.</desc>
<speed>4.320000</speed>
</trkpt>
<trkpt lat="55.719288" lon="26.256634">
<ele>138.365356</ele>
<time>2010-07-18T08:36:32Z</time>
<desc>lat.=55.719288, lon.=26.256634, Alt.=138.365356m. Speed=16.056000m/h.</desc>
<speed>4.460000</speed>
</trkpt>
<trkpt lat="55.719257" lon="26.256678">
<ele>138.580200</ele>
<time>2010-07-18T08:36:33Z</time>
<desc>lat.=55.719257, lon.=26.256678, Alt.=138.580200m. Speed=14.652000m/h.</desc>
<speed>4.070000</speed>
</trkpt>
<trkpt lat="55.719231" lon="26.256716">
<ele>138.791138</ele>
<time>2010-07-18T08:36:34Z</time>
<desc>lat.=55.719231, lon.=26.256716, Alt.=138.791138m. Speed=14.472000m/h.</desc>
<speed>4.020000</speed>
</trkpt>
<trkpt lat="55.719200" lon="26.256760">
<ele>138.947388</ele>
<time>2010-07-18T08:36:35Z</time>
<desc>lat.=55.719200, lon.=26.256760, Alt.=138.947388m. Speed=15.336000m/h.</desc>
<speed>4.260000</speed>
</trkpt>
<trkpt lat="55.719170" lon="26.256800">
<ele>139.060669</ele>
<time>2010-07-18T08:36:36Z</time>
<desc>lat.=55.719170, lon.=26.256800, Alt.=139.060669m. Speed=16.020000m/h.</desc>
<speed>4.450000</speed>
</trkpt>
<trkpt lat="55.719135" lon="26.256838">
<ele>139.166138</ele>
<time>2010-07-18T08:36:37Z</time>
<desc>lat.=55.719135, lon.=26.256838, Alt.=139.166138m. Speed=16.379999m/h.</desc>
<speed>4.550000</speed>
</trkpt>
<trkpt lat="55.719097" lon="26.256880">
<ele>139.408325</ele>
<time>2010-07-18T08:36:38Z</time>
<desc>lat.=55.719097, lon.=26.256880, Alt.=139.408325m. Speed=15.876000m/h.</desc>
<speed>4.410000</speed>
</trkpt>
<trkpt lat="55.719063" lon="26.256910">
<ele>139.455200</ele>
<time>2010-07-18T08:36:39Z</time>
<desc>lat.=55.719063, lon.=26.256910, Alt.=139.455200m. Speed=16.128000m/h.</desc>
<speed>4.480000</speed>
</trkpt>
<trkpt lat="55.719021" lon="26.256948">
<ele>139.580200</ele>
<time>2010-07-18T08:36:40Z</time>
<desc>lat.=55.719021, lon.=26.256948, Alt.=139.580200m. Speed=17.136000m/h.</desc>
<speed>4.760000</speed>
</trkpt>
<trkpt lat="55.718979" lon="26.256977">
<ele>139.091919</ele>
<time>2010-07-18T08:36:41Z</time>
<desc>lat.=55.718979, lon.=26.256977, Alt.=139.091919m. Speed=17.388000m/h.</desc>
<speed>4.830000</speed>
</trkpt>
<trkpt lat="55.718941" lon="26.257011">
<ele>138.970825</ele>
<time>2010-07-18T08:36:42Z</time>
<desc>lat.=55.718941, lon.=26.257011, Alt.=138.970825m. Speed=17.927999m/h.</desc>
<speed>4.980000</speed>
</trkpt>
<trkpt lat="55.718903" lon="26.257046">
<ele>138.986450</ele>
<time>2010-07-18T08:36:43Z</time>
<desc>lat.=55.718903, lon.=26.257046, Alt.=138.986450m. Speed=17.568001m/h.</desc>
<speed>4.880000</speed>
</trkpt>
<trkpt lat="55.718868" lon="26.257080">
<ele>139.259888</ele>
<time>2010-07-18T08:36:44Z</time>
<desc>lat.=55.718868, lon.=26.257080, Alt.=139.259888m. Speed=17.136000m/h.</desc>
<speed>4.760000</speed>
</trkpt>
<trkpt lat="55.718826" lon="26.257114">
<ele>139.716919</ele>
<time>2010-07-18T08:36:45Z</time>
<desc>lat.=55.718826, lon.=26.257114, Alt.=139.716919m. Speed=17.892000m/h.</desc>
<speed>4.970000</speed>
</trkpt>
<trkpt lat="55.718788" lon="26.257151">
<ele>140.009888</ele>
<time>2010-07-18T08:36:46Z</time>
<desc>lat.=55.718788, lon.=26.257151, Alt.=140.009888m. Speed=16.344000m/h.</desc>
<speed>4.540000</speed>
</trkpt>
<trkpt lat="55.718750" lon="26.257181">
<ele>139.677856</ele>
<time>2010-07-18T08:36:47Z</time>
<desc>lat.=55.718750, lon.=26.257181, Alt.=139.677856m. Speed=13.464000m/h.</desc>
<speed>3.740000</speed>
</trkpt>
<trkpt lat="55.718719" lon="26.257214">
<ele>139.646606</ele>
<time>2010-07-18T08:36:48Z</time>
<desc>lat.=55.718719, lon.=26.257214, Alt.=139.646606m. Speed=14.580000m/h.</desc>
<speed>4.050000</speed>
</trkpt>
<trkpt lat="55.718689" lon="26.257248">
<ele>139.904419</ele>
<time>2010-07-18T08:36:49Z</time>
<desc>lat.=55.718689, lon.=26.257248, Alt.=139.904419m. Speed=14.796000m/h.</desc>
<speed>4.110000</speed>
</trkpt>
<trkpt lat="55.718662" lon="26.257282">
<ele>140.298950</ele>
<time>2010-07-18T08:36:50Z</time>
<desc>lat.=55.718662, lon.=26.257282, Alt.=140.298950m. Speed=14.220000m/h.</desc>
<speed>3.950000</speed>
</trkpt>
<trkpt lat="55.718632" lon="26.257318">
<ele>141.134888</ele>
<time>2010-07-18T08:36:51Z</time>
<desc>lat.=55.718632, lon.=26.257318, Alt.=141.134888m. Speed=13.788000m/h.</desc>
<speed>3.830000</speed>
</trkpt>
<trkpt lat="55.718597" lon="26.257351">
<ele>141.576294</ele>
<time>2010-07-18T08:36:52Z</time>
<desc>lat.=55.718597, lon.=26.257351, Alt.=141.576294m. Speed=14.832000m/h.</desc>
<speed>4.120000</speed>
</trkpt>
<trkpt lat="55.718563" lon="26.257387">
<ele>142.244263</ele>
<time>2010-07-18T08:36:53Z</time>
<desc>lat.=55.718563, lon.=26.257387, Alt.=142.244263m. Speed=14.148000m/h.</desc>
<speed>3.930000</speed>
</trkpt>
<trkpt lat="55.718529" lon="26.257420">
<ele>142.736450</ele>
<time>2010-07-18T08:36:54Z</time>
<desc>lat.=55.718529, lon.=26.257420, Alt.=142.736450m. Speed=15.012000m/h.</desc>
<speed>4.170000</speed>
</trkpt>
<trkpt lat="55.718498" lon="26.257454">
<ele>143.185669</ele>
<time>2010-07-18T08:36:55Z</time>
<desc>lat.=55.718498, lon.=26.257454, Alt.=143.185669m. Speed=14.796000m/h.</desc>
<speed>4.110000</speed>
</trkpt>
<trkpt lat="55.718460" lon="26.257488">
<ele>143.357544</ele>
<time>2010-07-18T08:36:56Z</time>
<desc>lat.=55.718460, lon.=26.257488, Alt.=143.357544m. Speed=15.228000m/h.</desc>
<speed>4.230000</speed>
</trkpt>
<trkpt lat="55.718426" lon="26.257521">
<ele>143.701294</ele>
<time>2010-07-18T08:36:57Z</time>
<desc>lat.=55.718426, lon.=26.257521, Alt.=143.701294m. Speed=15.264000m/h.</desc>
<speed>4.240000</speed>
</trkpt>
<trkpt lat="55.718391" lon="26.257551">
<ele>144.318481</ele>
<time>2010-07-18T08:36:58Z</time>
<desc>lat.=55.718391, lon.=26.257551, Alt.=144.318481m. Speed=14.904000m/h.</desc>
<speed>4.140000</speed>
</trkpt>
<trkpt lat="55.718357" lon="26.257584">
<ele>144.670044</ele>
<time>2010-07-18T08:36:59Z</time>
<desc>lat.=55.718357, lon.=26.257584, Alt.=144.670044m. Speed=15.192000m/h.</desc>
<speed>4.220000</speed>
</trkpt>
<trkpt lat="55.718323" lon="26.257618">
<ele>144.959106</ele>
<time>2010-07-18T08:37:00Z</time>
<desc>lat.=55.718323, lon.=26.257618, Alt.=144.959106m. Speed=15.048000m/h.</desc>
<speed>4.180000</speed>
</trkpt>
<trkpt lat="55.718292" lon="26.257654">
<ele>145.275513</ele>
<time>2010-07-18T08:37:01Z</time>
<desc>lat.=55.718292, lon.=26.257654, Alt.=145.275513m. Speed=15.300000m/h.</desc>
<speed>4.250000</speed>
</trkpt>
<trkpt lat="55.718254" lon="26.257690">
<ele>145.279419</ele>
<time>2010-07-18T08:37:02Z</time>
<desc>lat.=55.718254, lon.=26.257690, Alt.=145.279419m. Speed=15.084000m/h.</desc>
<speed>4.190000</speed>
</trkpt>
<trkpt lat="55.718220" lon="26.257723">
<ele>145.474731</ele>
<time>2010-07-18T08:37:03Z</time>
<desc>lat.=55.718220, lon.=26.257723, Alt.=145.474731m. Speed=14.832000m/h.</desc>
<speed>4.120000</speed>
</trkpt>
<trkpt lat="55.718185" lon="26.257755">
<ele>145.763794</ele>
<time>2010-07-18T08:37:04Z</time>
<desc>lat.=55.718185, lon.=26.257755, Alt.=145.763794m. Speed=14.724000m/h.</desc>
<speed>4.090000</speed>
</trkpt>
<trkpt lat="55.718155" lon="26.257786">
<ele>145.838013</ele>
<time>2010-07-18T08:37:05Z</time>
<desc>lat.=55.718155, lon.=26.257786, Alt.=145.838013m. Speed=14.688000m/h.</desc>
<speed>4.080000</speed>
</trkpt>
<trkpt lat="55.718124" lon="26.257816">
<ele>146.076294</ele>
<time>2010-07-18T08:37:06Z</time>
<desc>lat.=55.718124, lon.=26.257816, Alt.=146.076294m. Speed=14.616000m/h.</desc>
<speed>4.060000</speed>
</trkpt>
<trkpt lat="55.718094" lon="26.257847">
<ele>146.380981</ele>
<time>2010-07-18T08:37:07Z</time>
<desc>lat.=55.718094, lon.=26.257847, Alt.=146.380981m. Speed=14.400000m/h.</desc>
<speed>4.000000</speed>
</trkpt>
<trkpt lat="55.718060" lon="26.257875">
<ele>146.818481</ele>
<time>2010-07-18T08:37:08Z</time>
<desc>lat.=55.718060, lon.=26.257875, Alt.=146.818481m. Speed=14.508000m/h.</desc>
<speed>4.030000</speed>
</trkpt>
<trkpt lat="55.718025" lon="26.257904">
<ele>147.193481</ele>
<time>2010-07-18T08:37:09Z</time>
<desc>lat.=55.718025, lon.=26.257904, Alt.=147.193481m. Speed=15.228000m/h.</desc>
<speed>4.230000</speed>
</trkpt>
<trkpt lat="55.717991" lon="26.257936">
<ele>147.275513</ele>
<time>2010-07-18T08:37:10Z</time>
<desc>lat.=55.717991, lon.=26.257936, Alt.=147.275513m. Speed=16.848000m/h.</desc>
<speed>4.680000</speed>
</trkpt>
<trkpt lat="55.717953" lon="26.257973">
<ele>147.279419</ele>
<time>2010-07-18T08:37:11Z</time>
<desc>lat.=55.717953, lon.=26.257973, Alt.=147.279419m. Speed=16.596001m/h.</desc>
<speed>4.610000</speed>
</trkpt>
<trkpt lat="55.717918" lon="26.258011">
<ele>147.517700</ele>
<time>2010-07-18T08:37:12Z</time>
<desc>lat.=55.717918, lon.=26.258011, Alt.=147.517700m. Speed=15.768000m/h.</desc>
<speed>4.380000</speed>
</trkpt>
<trkpt lat="55.717884" lon="26.258041">
<ele>147.673950</ele>
<time>2010-07-18T08:37:13Z</time>
<desc>lat.=55.717884, lon.=26.258041, Alt.=147.673950m. Speed=14.256000m/h.</desc>
<speed>3.960000</speed>
</trkpt>
<trkpt lat="55.717857" lon="26.258066">
<ele>148.170044</ele>
<time>2010-07-18T08:37:14Z</time>
<desc>lat.=55.717857, lon.=26.258066, Alt.=148.170044m. Speed=13.176000m/h.</desc>
<speed>3.660000</speed>
</trkpt>
<trkpt lat="55.717827" lon="26.258089">
<ele>148.623169</ele>
<time>2010-07-18T08:37:15Z</time>
<desc>lat.=55.717827, lon.=26.258089, Alt.=148.623169m. Speed=13.212000m/h.</desc>
<speed>3.670000</speed>
</trkpt>
<trkpt lat="55.717800" lon="26.258118">
<ele>148.814575</ele>
<time>2010-07-18T08:37:16Z</time>
<desc>lat.=55.717800, lon.=26.258118, Alt.=148.814575m. Speed=13.284000m/h.</desc>
<speed>3.690000</speed>
</trkpt>
<trkpt lat="55.717773" lon="26.258144">
<ele>148.927856</ele>
<time>2010-07-18T08:37:17Z</time>
<desc>lat.=55.717773, lon.=26.258144, Alt.=148.927856m. Speed=13.248000m/h.</desc>
<speed>3.680000</speed>
</trkpt>
<trkpt lat="55.717743" lon="26.258171">
<ele>149.068481</ele>
<time>2010-07-18T08:37:18Z</time>
<desc>lat.=55.717743, lon.=26.258171, Alt.=149.068481m. Speed=13.788000m/h.</desc>
<speed>3.830000</speed>
</trkpt>
<trkpt lat="55.717716" lon="26.258202">
<ele>149.232544</ele>
<time>2010-07-18T08:37:19Z</time>
<desc>lat.=55.717716, lon.=26.258202, Alt.=149.232544m. Speed=13.788000m/h.</desc>
<speed>3.830000</speed>
</trkpt>
<trkpt lat="55.717686" lon="26.258238">
<ele>149.455200</ele>
<time>2010-07-18T08:37:20Z</time>
<desc>lat.=55.717686, lon.=26.258238, Alt.=149.455200m. Speed=14.004000m/h.</desc>
<speed>3.890000</speed>
</trkpt>
<trkpt lat="55.717655" lon="26.258270">
<ele>149.595825</ele>
<time>2010-07-18T08:37:21Z</time>
<desc>lat.=55.717655, lon.=26.258270, Alt.=149.595825m. Speed=14.364000m/h.</desc>
<speed>3.990000</speed>
</trkpt>
<trkpt lat="55.717625" lon="26.258305">
<ele>149.767700</ele>
<time>2010-07-18T08:37:22Z</time>
<desc>lat.=55.717625, lon.=26.258305, Alt.=149.767700m. Speed=14.832000m/h.</desc>
<speed>4.120000</speed>
</trkpt>
<trkpt lat="55.717594" lon="26.258339">
<ele>149.900513</ele>
<time>2010-07-18T08:37:23Z</time>
<desc>lat.=55.717594, lon.=26.258339, Alt.=149.900513m. Speed=14.940000m/h.</desc>
<speed>4.150000</speed>
</trkpt>
<trkpt lat="55.717567" lon="26.258373">
<ele>149.986450</ele>
<time>2010-07-18T08:37:24Z</time>
<desc>lat.=55.717567, lon.=26.258373, Alt.=149.986450m. Speed=15.552000m/h.</desc>
<speed>4.320000</speed>
</trkpt>
<trkpt lat="55.717533" lon="26.258406">
<ele>149.982544</ele>
<time>2010-07-18T08:37:25Z</time>
<desc>lat.=55.717533, lon.=26.258406, Alt.=149.982544m. Speed=14.904000m/h.</desc>
<speed>4.140000</speed>
</trkpt>
<trkpt lat="55.717503" lon="26.258444">
<ele>150.088013</ele>
<time>2010-07-18T08:37:26Z</time>
<desc>lat.=55.717503, lon.=26.258444, Alt.=150.088013m. Speed=14.760000m/h.</desc>
<speed>4.100000</speed>
</trkpt>
<trkpt lat="55.717468" lon="26.258480">
<ele>149.908325</ele>
<time>2010-07-18T08:37:27Z</time>
<desc>lat.=55.717468, lon.=26.258480, Alt.=149.908325m. Speed=14.904000m/h.</desc>
<speed>4.140000</speed>
</trkpt>
<trkpt lat="55.717434" lon="26.258522">
<ele>149.834106</ele>
<time>2010-07-18T08:37:28Z</time>
<desc>lat.=55.717434, lon.=26.258522, Alt.=149.834106m. Speed=15.516000m/h.</desc>
<speed>4.310000</speed>
</trkpt>
<trkpt lat="55.717403" lon="26.258566">
<ele>150.009888</ele>
<time>2010-07-18T08:37:29Z</time>
<desc>lat.=55.717403, lon.=26.258566, Alt.=150.009888m. Speed=14.904000m/h.</desc>
<speed>4.140000</speed>
</trkpt>
<trkpt lat="55.717377" lon="26.258600">
<ele>150.142700</ele>
<time>2010-07-18T08:37:30Z</time>
<desc>lat.=55.717377, lon.=26.258600, Alt.=150.142700m. Speed=15.264000m/h.</desc>
<speed>4.240000</speed>
</trkpt>
<trkpt lat="55.717342" lon="26.258638">
<ele>150.275513</ele>
<time>2010-07-18T08:37:31Z</time>
<desc>lat.=55.717342, lon.=26.258638, Alt.=150.275513m. Speed=14.400000m/h.</desc>
<speed>4.000000</speed>
</trkpt>
<trkpt lat="55.717316" lon="26.258675">
<ele>150.392700</ele>
<time>2010-07-18T08:37:32Z</time>
<desc>lat.=55.717316, lon.=26.258675, Alt.=150.392700m. Speed=13.284000m/h.</desc>
<speed>3.690000</speed>
</trkpt>
<trkpt lat="55.717289" lon="26.258709">
<ele>150.482544</ele>
<time>2010-07-18T08:37:33Z</time>
<desc>lat.=55.717289, lon.=26.258709, Alt.=150.482544m. Speed=12.276000m/h.</desc>
<speed>3.410000</speed>
</trkpt>
<trkpt lat="55.717266" lon="26.258743">
<ele>150.338013</ele>
<time>2010-07-18T08:37:34Z</time>
<desc>lat.=55.717266, lon.=26.258743, Alt.=150.338013m. Speed=12.240000m/h.</desc>
<speed>3.400000</speed>
</trkpt>
<trkpt lat="55.717243" lon="26.258781">
<ele>150.427856</ele>
<time>2010-07-18T08:37:35Z</time>
<desc>lat.=55.717243, lon.=26.258781, Alt.=150.427856m. Speed=12.384000m/h.</desc>
<speed>3.440000</speed>
</trkpt>
<trkpt lat="55.717220" lon="26.258816">
<ele>150.295044</ele>
<time>2010-07-18T08:37:36Z</time>
<desc>lat.=55.717220, lon.=26.258816, Alt.=150.295044m. Speed=13.248000m/h.</desc>
<speed>3.680000</speed>
</trkpt>
<trkpt lat="55.717194" lon="26.258850">
<ele>150.334106</ele>
<time>2010-07-18T08:37:37Z</time>
<desc>lat.=55.717194, lon.=26.258850, Alt.=150.334106m. Speed=13.644000m/h.</desc>
<speed>3.790000</speed>
</trkpt>
<trkpt lat="55.717171" lon="26.258892">
<ele>150.451294</ele>
<time>2010-07-18T08:37:38Z</time>
<desc>lat.=55.717171, lon.=26.258892, Alt.=150.451294m. Speed=13.212000m/h.</desc>
<speed>3.670000</speed>
</trkpt>
<trkpt lat="55.717148" lon="26.258934">
<ele>150.748169</ele>
<time>2010-07-18T08:37:39Z</time>
<desc>lat.=55.717148, lon.=26.258934, Alt.=150.748169m. Speed=12.744000m/h.</desc>
<speed>3.540000</speed>
</trkpt>
<trkpt lat="55.717129" lon="26.258976">
<ele>151.060669</ele>
<time>2010-07-18T08:37:40Z</time>
<desc>lat.=55.717129, lon.=26.258976, Alt.=151.060669m. Speed=12.600000m/h.</desc>
<speed>3.500000</speed>
</trkpt>
<trkpt lat="55.717102" lon="26.259012">
<ele>150.943481</ele>
<time>2010-07-18T08:37:41Z</time>
<desc>lat.=55.717102, lon.=26.259012, Alt.=150.943481m. Speed=13.212000m/h.</desc>
<speed>3.670000</speed>
</trkpt>
<trkpt lat="55.717087" lon="26.259058">
<ele>151.935669</ele>
<time>2010-07-18T08:37:42Z</time>
<desc>lat.=55.717087, lon.=26.259058, Alt.=151.935669m. Speed=13.644000m/h.</desc>
<speed>3.790000</speed>
</trkpt>
<trkpt lat="55.717064" lon="26.259096">
<ele>152.013794</ele>
<time>2010-07-18T08:37:43Z</time>
<desc>lat.=55.717064, lon.=26.259096, Alt.=152.013794m. Speed=14.724000m/h.</desc>
<speed>4.090000</speed>
</trkpt>
<trkpt lat="55.717033" lon="26.259142">
<ele>151.990356</ele>
<time>2010-07-18T08:37:44Z</time>
<desc>lat.=55.717033, lon.=26.259142, Alt.=151.990356m. Speed=15.300000m/h.</desc>
<speed>4.250000</speed>
</trkpt>
<trkpt lat="55.717007" lon="26.259188">
<ele>152.146606</ele>
<time>2010-07-18T08:37:45Z</time>
<desc>lat.=55.717007, lon.=26.259188, Alt.=152.146606m. Speed=14.724000m/h.</desc>
<speed>4.090000</speed>
</trkpt>
<trkpt lat="55.716980" lon="26.259230">
<ele>152.361450</ele>
<time>2010-07-18T08:37:46Z</time>
<desc>lat.=55.716980, lon.=26.259230, Alt.=152.361450m. Speed=14.148000m/h.</desc>
<speed>3.930000</speed>
</trkpt>
<trkpt lat="55.716949" lon="26.259274">
<ele>152.275513</ele>
<time>2010-07-18T08:37:47Z</time>
<desc>lat.=55.716949, lon.=26.259274, Alt.=152.275513m. Speed=13.752000m/h.</desc>
<speed>3.820000</speed>
</trkpt>
<trkpt lat="55.716923" lon="26.259319">
<ele>152.177856</ele>
<time>2010-07-18T08:37:48Z</time>
<desc>lat.=55.716923, lon.=26.259319, Alt.=152.177856m. Speed=13.752000m/h.</desc>
<speed>3.820000</speed>
</trkpt>
<trkpt lat="55.716900" lon="26.259369">
<ele>152.314575</ele>
<time>2010-07-18T08:37:49Z</time>
<desc>lat.=55.716900, lon.=26.259369, Alt.=152.314575m. Speed=14.400000m/h.</desc>
<speed>4.000000</speed>
</trkpt>
<trkpt lat="55.716877" lon="26.259417">
<ele>152.302856</ele>
<time>2010-07-18T08:37:50Z</time>
<desc>lat.=55.716877, lon.=26.259417, Alt.=152.302856m. Speed=13.752000m/h.</desc>
<speed>3.820000</speed>
</trkpt>
<trkpt lat="55.716854" lon="26.259468">
<ele>152.470825</ele>
<time>2010-07-18T08:37:51Z</time>
<desc>lat.=55.716854, lon.=26.259468, Alt.=152.470825m. Speed=14.904000m/h.</desc>
<speed>4.140000</speed>
</trkpt>
<trkpt lat="55.716831" lon="26.259518">
<ele>152.529419</ele>
<time>2010-07-18T08:37:52Z</time>
<desc>lat.=55.716831, lon.=26.259518, Alt.=152.529419m. Speed=14.616000m/h.</desc>
<speed>4.060000</speed>
</trkpt>
<trkpt lat="55.716805" lon="26.259565">
<ele>152.263794</ele>
<time>2010-07-18T08:37:53Z</time>
<desc>lat.=55.716805, lon.=26.259565, Alt.=152.263794m. Speed=14.436000m/h.</desc>
<speed>4.010000</speed>
</trkpt>
<trkpt lat="55.716778" lon="26.259615">
<ele>152.025513</ele>
<time>2010-07-18T08:37:54Z</time>
<desc>lat.=55.716778, lon.=26.259615, Alt.=152.025513m. Speed=14.184000m/h.</desc>
<speed>3.940000</speed>
</trkpt>
<trkpt lat="55.716759" lon="26.259661">
<ele>151.865356</ele>
<time>2010-07-18T08:37:55Z</time>
<desc>lat.=55.716759, lon.=26.259661, Alt.=151.865356m. Speed=13.932000m/h.</desc>
<speed>3.870000</speed>
</trkpt>
<trkpt lat="55.716740" lon="26.259708">
<ele>152.166138</ele>
<time>2010-07-18T08:37:56Z</time>
<desc>lat.=55.716740, lon.=26.259708, Alt.=152.166138m. Speed=14.760000m/h.</desc>
<speed>4.100000</speed>
</trkpt>
<trkpt lat="55.716717" lon="26.259762">
<ele>152.279419</ele>
<time>2010-07-18T08:37:57Z</time>
<desc>lat.=55.716717, lon.=26.259762, Alt.=152.279419m. Speed=14.220000m/h.</desc>
<speed>3.950000</speed>
</trkpt>
<trkpt lat="55.716690" lon="26.259813">
<ele>152.181763</ele>
<time>2010-07-18T08:37:58Z</time>
<desc>lat.=55.716690, lon.=26.259813, Alt.=152.181763m. Speed=14.508000m/h.</desc>
<speed>4.030000</speed>
</trkpt>
<trkpt lat="55.716667" lon="26.259863">
<ele>152.240356</ele>
<time>2010-07-18T08:37:59Z</time>
<desc>lat.=55.716667, lon.=26.259863, Alt.=152.240356m. Speed=14.184000m/h.</desc>
<speed>3.940000</speed>
</trkpt>
<trkpt lat="55.716640" lon="26.259911">
<ele>152.166138</ele>
<time>2010-07-18T08:38:00Z</time>
<desc>lat.=55.716640, lon.=26.259911, Alt.=152.166138m. Speed=14.004000m/h.</desc>
<speed>3.890000</speed>
</trkpt>
<trkpt lat="55.716621" lon="26.259956">
<ele>152.111450</ele>
<time>2010-07-18T08:38:01Z</time>
<desc>lat.=55.716621, lon.=26.259956, Alt.=152.111450m. Speed=14.256000m/h.</desc>
<speed>3.960000</speed>
</trkpt>
<trkpt lat="55.716599" lon="26.260010">
<ele>152.068481</ele>
<time>2010-07-18T08:38:02Z</time>
<desc>lat.=55.716599, lon.=26.260010, Alt.=152.068481m. Speed=14.940000m/h.</desc>
<speed>4.150000</speed>
</trkpt>
<trkpt lat="55.716579" lon="26.260063">
<ele>152.205200</ele>
<time>2010-07-18T08:38:03Z</time>
<desc>lat.=55.716579, lon.=26.260063, Alt.=152.205200m. Speed=15.444000m/h.</desc>
<speed>4.290000</speed>
</trkpt>
<trkpt lat="55.716557" lon="26.260113">
<ele>152.255981</ele>
<time>2010-07-18T08:38:04Z</time>
<desc>lat.=55.716557, lon.=26.260113, Alt.=152.255981m. Speed=14.616000m/h.</desc>
<speed>4.060000</speed>
</trkpt>
<trkpt lat="55.716534" lon="26.260166">
<ele>152.228638</ele>
<time>2010-07-18T08:38:05Z</time>
<desc>lat.=55.716534, lon.=26.260166, Alt.=152.228638m. Speed=14.760000m/h.</desc>
<speed>4.100000</speed>
</trkpt>
<trkpt lat="55.716511" lon="26.260221">
<ele>152.193481</ele>
<time>2010-07-18T08:38:06Z</time>
<desc>lat.=55.716511, lon.=26.260221, Alt.=152.193481m. Speed=14.256000m/h.</desc>
<speed>3.960000</speed>
</trkpt>
<trkpt lat="55.716496" lon="26.260279">
<ele>152.673950</ele>
<time>2010-07-18T08:38:07Z</time>
<desc>lat.=55.716496, lon.=26.260279, Alt.=152.673950m. Speed=13.896000m/h.</desc>
<speed>3.860000</speed>
</trkpt>
<trkpt lat="55.716476" lon="26.260330">
<ele>152.439575</ele>
<time>2010-07-18T08:38:08Z</time>
<desc>lat.=55.716476, lon.=26.260330, Alt.=152.439575m. Speed=14.508000m/h.</desc>
<speed>4.030000</speed>
</trkpt>
<trkpt lat="55.716461" lon="26.260391">
<ele>152.677856</ele>
<time>2010-07-18T08:38:09Z</time>
<desc>lat.=55.716461, lon.=26.260391, Alt.=152.677856m. Speed=15.444000m/h.</desc>
<speed>4.290000</speed>
</trkpt>
<trkpt lat="55.716438" lon="26.260450">
<ele>152.420044</ele>
<time>2010-07-18T08:38:10Z</time>
<desc>lat.=55.716438, lon.=26.260450, Alt.=152.420044m. Speed=16.128000m/h.</desc>
<speed>4.480000</speed>
</trkpt>
<trkpt lat="55.716419" lon="26.260515">
<ele>152.326294</ele>
<time>2010-07-18T08:38:11Z</time>
<desc>lat.=55.716419, lon.=26.260515, Alt.=152.326294m. Speed=16.091999m/h.</desc>
<speed>4.470000</speed>
</trkpt>
<trkpt lat="55.716396" lon="26.260582">
<ele>152.338013</ele>
<time>2010-07-18T08:38:12Z</time>
<desc>lat.=55.716396, lon.=26.260582, Alt.=152.338013m. Speed=16.128000m/h.</desc>
<speed>4.480000</speed>
</trkpt>
<trkpt lat="55.716381" lon="26.260651">
<ele>152.291138</ele>
<time>2010-07-18T08:38:13Z</time>
<desc>lat.=55.716381, lon.=26.260651, Alt.=152.291138m. Speed=16.884001m/h.</desc>
<speed>4.690000</speed>
</trkpt>
<trkpt lat="55.716362" lon="26.260721">
<ele>152.263794</ele>
<time>2010-07-18T08:38:14Z</time>
<desc>lat.=55.716362, lon.=26.260721, Alt.=152.263794m. Speed=17.208000m/h.</desc>
<speed>4.780000</speed>
</trkpt>
<trkpt lat="55.716339" lon="26.260794">
<ele>152.060669</ele>
<time>2010-07-18T08:38:15Z</time>
<desc>lat.=55.716339, lon.=26.260794, Alt.=152.060669m. Speed=17.568001m/h.</desc>
<speed>4.880000</speed>
</trkpt>
<trkpt lat="55.716320" lon="26.260868">
<ele>151.787231</ele>
<time>2010-07-18T08:38:16Z</time>
<desc>lat.=55.716320, lon.=26.260868, Alt.=151.787231m. Speed=17.568001m/h.</desc>
<speed>4.880000</speed>
</trkpt>
<trkpt lat="55.716297" lon="26.260942">
<ele>151.650513</ele>
<time>2010-07-18T08:38:17Z</time>
<desc>lat.=55.716297, lon.=26.260942, Alt.=151.650513m. Speed=17.676001m/h.</desc>
<speed>4.910000</speed>
</trkpt>
<trkpt lat="55.716278" lon="26.261013">
<ele>151.693481</ele>
<time>2010-07-18T08:38:18Z</time>
<desc>lat.=55.716278, lon.=26.261013, Alt.=151.693481m. Speed=16.848000m/h.</desc>
<speed>4.680000</speed>
</trkpt>
<trkpt lat="55.716259" lon="26.261082">
<ele>151.349731</ele>
<time>2010-07-18T08:38:19Z</time>
<desc>lat.=55.716259, lon.=26.261082, Alt.=151.349731m. Speed=16.704000m/h.</desc>
<speed>4.640000</speed>
</trkpt>
<trkpt lat="55.716240" lon="26.261154">
<ele>150.939575</ele>
<time>2010-07-18T08:38:20Z</time>
<desc>lat.=55.716240, lon.=26.261154, Alt.=150.939575m. Speed=16.775999m/h.</desc>
<speed>4.660000</speed>
</trkpt>
<trkpt lat="55.716221" lon="26.261221">
<ele>150.525513</ele>
<time>2010-07-18T08:38:21Z</time>
<desc>lat.=55.716221, lon.=26.261221, Alt.=150.525513m. Speed=17.820000m/h.</desc>
<speed>4.950000</speed>
</trkpt>
<trkpt lat="55.716202" lon="26.261299">
<ele>150.705200</ele>
<time>2010-07-18T08:38:22Z</time>
<desc>lat.=55.716202, lon.=26.261299, Alt.=150.705200m. Speed=18.936001m/h.</desc>
<speed>5.260000</speed>
</trkpt>
<trkpt lat="55.716183" lon="26.261374">
<ele>150.392700</ele>
<time>2010-07-18T08:38:23Z</time>
<desc>lat.=55.716183, lon.=26.261374, Alt.=150.392700m. Speed=18.972000m/h.</desc>
<speed>5.270000</speed>
</trkpt>
<trkpt lat="55.716167" lon="26.261452">
<ele>150.384888</ele>
<time>2010-07-18T08:38:24Z</time>
<desc>lat.=55.716167, lon.=26.261452, Alt.=150.384888m. Speed=19.332001m/h.</desc>
<speed>5.370000</speed>
</trkpt>
<trkpt lat="55.716148" lon="26.261532">
<ele>150.189575</ele>
<time>2010-07-18T08:38:25Z</time>
<desc>lat.=55.716148, lon.=26.261532, Alt.=150.189575m. Speed=19.007999m/h.</desc>
<speed>5.280000</speed>
</trkpt>
<trkpt lat="55.716129" lon="26.261608">
<ele>150.322388</ele>
<time>2010-07-18T08:38:26Z</time>
<desc>lat.=55.716129, lon.=26.261608, Alt.=150.322388m. Speed=18.180000m/h.</desc>
<speed>5.050000</speed>
</trkpt>
<trkpt lat="55.716110" lon="26.261681">
<ele>150.181763</ele>
<time>2010-07-18T08:38:27Z</time>
<desc>lat.=55.716110, lon.=26.261681, Alt.=150.181763m. Speed=18.540001m/h.</desc>
<speed>5.150000</speed>
</trkpt>
<trkpt lat="55.716095" lon="26.261757">
<ele>150.025513</ele>
<time>2010-07-18T08:38:28Z</time>
<desc>lat.=55.716095, lon.=26.261757, Alt.=150.025513m. Speed=18.216000m/h.</desc>
<speed>5.060000</speed>
</trkpt>
<trkpt lat="55.716080" lon="26.261829">
<ele>149.713013</ele>
<time>2010-07-18T08:38:29Z</time>
<desc>lat.=55.716080, lon.=26.261829, Alt.=149.713013m. Speed=17.820000m/h.</desc>
<speed>4.950000</speed>
</trkpt>
<trkpt lat="55.716061" lon="26.261898">
<ele>149.439575</ele>
<time>2010-07-18T08:38:30Z</time>
<desc>lat.=55.716061, lon.=26.261898, Alt.=149.439575m. Speed=17.927999m/h.</desc>
<speed>4.980000</speed>
</trkpt>
<trkpt lat="55.716042" lon="26.261965">
<ele>149.615356</ele>
<time>2010-07-18T08:38:31Z</time>
<desc>lat.=55.716042, lon.=26.261965, Alt.=149.615356m. Speed=16.559999m/h.</desc>
<speed>4.600000</speed>
</trkpt>
<trkpt lat="55.716022" lon="26.262033">
<ele>149.861450</ele>
<time>2010-07-18T08:38:32Z</time>
<desc>lat.=55.716022, lon.=26.262033, Alt.=149.861450m. Speed=19.007999m/h.</desc>
<speed>5.280000</speed>
</trkpt>
<trkpt lat="55.716000" lon="26.262108">
<ele>150.302856</ele>
<time>2010-07-18T08:38:33Z</time>
<desc>lat.=55.716000, lon.=26.262108, Alt.=150.302856m. Speed=19.403999m/h.</desc>
<speed>5.390000</speed>
</trkpt>
<trkpt lat="55.715984" lon="26.262184">
<ele>150.783325</ele>
<time>2010-07-18T08:38:34Z</time>
<desc>lat.=55.715984, lon.=26.262184, Alt.=150.783325m. Speed=19.152000m/h.</desc>
<speed>5.320000</speed>
</trkpt>
<trkpt lat="55.715961" lon="26.262259">
<ele>150.142700</ele>
<time>2010-07-18T08:38:35Z</time>
<desc>lat.=55.715961, lon.=26.262259, Alt.=150.142700m. Speed=18.756001m/h.</desc>
<speed>5.210000</speed>
</trkpt>
<trkpt lat="55.715946" lon="26.262344">
<ele>150.158325</ele>
<time>2010-07-18T08:38:36Z</time>
<desc>lat.=55.715946, lon.=26.262344, Alt.=150.158325m. Speed=19.044001m/h.</desc>
<speed>5.290000</speed>
</trkpt>
<trkpt lat="55.715923" lon="26.262421">
<ele>149.693481</ele>
<time>2010-07-18T08:38:37Z</time>
<desc>lat.=55.715923, lon.=26.262421, Alt.=149.693481m. Speed=18.719999m/h.</desc>
<speed>5.200000</speed>
</trkpt>
<trkpt lat="55.715908" lon="26.262499">
<ele>149.978638</ele>
<time>2010-07-18T08:38:38Z</time>
<desc>lat.=55.715908, lon.=26.262499, Alt.=149.978638m. Speed=18.431999m/h.</desc>
<speed>5.120000</speed>
</trkpt>
<trkpt lat="55.715889" lon="26.262575">
<ele>149.990356</ele>
<time>2010-07-18T08:38:39Z</time>
<desc>lat.=55.715889, lon.=26.262575, Alt.=149.990356m. Speed=18.431999m/h.</desc>
<speed>5.120000</speed>
</trkpt>
<trkpt lat="55.715874" lon="26.262651">
<ele>150.127075</ele>
<time>2010-07-18T08:38:40Z</time>
<desc>lat.=55.715874, lon.=26.262651, Alt.=150.127075m. Speed=18.252001m/h.</desc>
<speed>5.070000</speed>
</trkpt>
<trkpt lat="55.715855" lon="26.262726">
<ele>150.228638</ele>
<time>2010-07-18T08:38:41Z</time>
<desc>lat.=55.715855, lon.=26.262726, Alt.=150.228638m. Speed=18.827999m/h.</desc>
<speed>5.230000</speed>
</trkpt>
<trkpt lat="55.715839" lon="26.262802">
<ele>150.400513</ele>
<time>2010-07-18T08:38:42Z</time>
<desc>lat.=55.715839, lon.=26.262802, Alt.=150.400513m. Speed=20.375999m/h.</desc>
<speed>5.660000</speed>
</trkpt>
<trkpt lat="55.715828" lon="26.262890">
<ele>150.990356</ele>
<time>2010-07-18T08:38:43Z</time>
<desc>lat.=55.715828, lon.=26.262890, Alt.=150.990356m. Speed=21.312000m/h.</desc>
<speed>5.920000</speed>
</trkpt>
<trkpt lat="55.715809" lon="26.262980">
<ele>150.970825</ele>
<time>2010-07-18T08:38:44Z</time>
<desc>lat.=55.715809, lon.=26.262980, Alt.=150.970825m. Speed=21.096001m/h.</desc>
<speed>5.860000</speed>
</trkpt>
<trkpt lat="55.715782" lon="26.263069">
<ele>150.451294</ele>
<time>2010-07-18T08:38:45Z</time>
<desc>lat.=55.715782, lon.=26.263069, Alt.=150.451294m. Speed=21.348000m/h.</desc>
<speed>5.930000</speed>
</trkpt>
<trkpt lat="55.715759" lon="26.263155">
<ele>150.353638</ele>
<time>2010-07-18T08:38:46Z</time>
<desc>lat.=55.715759, lon.=26.263155, Alt.=150.353638m. Speed=20.952000m/h.</desc>
<speed>5.820000</speed>
</trkpt>
<trkpt lat="55.715740" lon="26.263241">
<ele>150.029419</ele>
<time>2010-07-18T08:38:47Z</time>
<desc>lat.=55.715740, lon.=26.263241, Alt.=150.029419m. Speed=21.780001m/h.</desc>
<speed>6.050000</speed>
</trkpt>
<trkpt lat="55.715714" lon="26.263325">
<ele>149.474731</ele>
<time>2010-07-18T08:38:48Z</time>
<desc>lat.=55.715714, lon.=26.263325, Alt.=149.474731m. Speed=21.167999m/h.</desc>
<speed>5.880000</speed>
</trkpt>
<trkpt lat="55.715694" lon="26.263409">
<ele>149.150513</ele>
<time>2010-07-18T08:38:49Z</time>
<desc>lat.=55.715694, lon.=26.263409, Alt.=149.150513m. Speed=20.952000m/h.</desc>
<speed>5.820000</speed>
</trkpt>
<trkpt lat="55.715672" lon="26.263494">
<ele>148.888794</ele>
<time>2010-07-18T08:38:50Z</time>
<desc>lat.=55.715672, lon.=26.263494, Alt.=148.888794m. Speed=20.556000m/h.</desc>
<speed>5.710000</speed>
</trkpt>
<trkpt lat="55.715652" lon="26.263578">
<ele>148.834106</ele>
<time>2010-07-18T08:38:51Z</time>
<desc>lat.=55.715652, lon.=26.263578, Alt.=148.834106m. Speed=20.195999m/h.</desc>
<speed>5.610000</speed>
</trkpt>
<trkpt lat="55.715633" lon="26.263662">
<ele>148.939575</ele>
<time>2010-07-18T08:38:52Z</time>
<desc>lat.=55.715633, lon.=26.263662, Alt.=148.939575m. Speed=19.908001m/h.</desc>
<speed>5.530000</speed>
</trkpt>
<trkpt lat="55.715611" lon="26.263742">
<ele>148.685669</ele>
<time>2010-07-18T08:38:53Z</time>
<desc>lat.=55.715611, lon.=26.263742, Alt.=148.685669m. Speed=19.332001m/h.</desc>
<speed>5.370000</speed>
</trkpt>
<trkpt lat="55.715591" lon="26.263823">
<ele>148.548950</ele>
<time>2010-07-18T08:38:54Z</time>
<desc>lat.=55.715591, lon.=26.263823, Alt.=148.548950m. Speed=19.080000m/h.</desc>
<speed>5.300000</speed>
</trkpt>
<trkpt lat="55.715572" lon="26.263895">
<ele>148.326294</ele>
<time>2010-07-18T08:38:55Z</time>
<desc>lat.=55.715572, lon.=26.263895, Alt.=148.326294m. Speed=17.784000m/h.</desc>
<speed>4.940000</speed>
</trkpt>
<trkpt lat="55.715553" lon="26.263964">
<ele>148.076294</ele>
<time>2010-07-18T08:38:56Z</time>
<desc>lat.=55.715553, lon.=26.263964, Alt.=148.076294m. Speed=19.224001m/h.</desc>
<speed>5.340000</speed>
</trkpt>
<trkpt lat="55.715534" lon="26.264042">
<ele>147.666138</ele>
<time>2010-07-18T08:38:57Z</time>
<desc>lat.=55.715534, lon.=26.264042, Alt.=147.666138m. Speed=17.676001m/h.</desc>
<speed>4.910000</speed>
</trkpt>
<trkpt lat="55.715515" lon="26.264114">
<ele>147.279419</ele>
<time>2010-07-18T08:38:58Z</time>
<desc>lat.=55.715515, lon.=26.264114, Alt.=147.279419m. Speed=17.316000m/h.</desc>
<speed>4.810000</speed>
</trkpt>
<trkpt lat="55.715496" lon="26.264185">
<ele>146.865356</ele>
<time>2010-07-18T08:38:59Z</time>
<desc>lat.=55.715496, lon.=26.264185, Alt.=146.865356m. Speed=17.280001m/h.</desc>
<speed>4.800000</speed>
</trkpt>
<trkpt lat="55.715477" lon="26.264254">
<ele>146.681763</ele>
<time>2010-07-18T08:39:00Z</time>
<desc>lat.=55.715477, lon.=26.264254, Alt.=146.681763m. Speed=16.992001m/h.</desc>
<speed>4.720000</speed>
</trkpt>
<trkpt lat="55.715466" lon="26.264322">
<ele>146.959106</ele>
<time>2010-07-18T08:39:01Z</time>
<desc>lat.=55.715466, lon.=26.264322, Alt.=146.959106m. Speed=17.172001m/h.</desc>
<speed>4.770000</speed>
</trkpt>
<trkpt lat="55.715450" lon="26.264395">
<ele>147.154419</ele>
<time>2010-07-18T08:39:02Z</time>
<desc>lat.=55.715450, lon.=26.264395, Alt.=147.154419m. Speed=16.920000m/h.</desc>
<speed>4.700000</speed>
</trkpt>
<trkpt lat="55.715439" lon="26.264465">
<ele>147.162231</ele>
<time>2010-07-18T08:39:03Z</time>
<desc>lat.=55.715439, lon.=26.264465, Alt.=147.162231m. Speed=16.955999m/h.</desc>
<speed>4.710000</speed>
</trkpt>
<trkpt lat="55.715420" lon="26.264534">
<ele>146.920044</ele>
<time>2010-07-18T08:39:04Z</time>
<desc>lat.=55.715420, lon.=26.264534, Alt.=146.920044m. Speed=18.000000m/h.</desc>
<speed>5.000000</speed>
</trkpt>
<trkpt lat="55.715401" lon="26.264605">
<ele>146.763794</ele>
<time>2010-07-18T08:39:05Z</time>
<desc>lat.=55.715401, lon.=26.264605, Alt.=146.763794m. Speed=18.576000m/h.</desc>
<speed>5.160000</speed>
</trkpt>
<trkpt lat="55.715382" lon="26.264679">
<ele>146.666138</ele>
<time>2010-07-18T08:39:06Z</time>
<desc>lat.=55.715382, lon.=26.264679, Alt.=146.666138m. Speed=19.115999m/h.</desc>
<speed>5.310000</speed>
</trkpt>
<trkpt lat="55.715363" lon="26.264759">
<ele>146.630981</ele>
<time>2010-07-18T08:39:07Z</time>
<desc>lat.=55.715363, lon.=26.264759, Alt.=146.630981m. Speed=19.620001m/h.</desc>
<speed>5.450000</speed>
</trkpt>
<trkpt lat="55.715340" lon="26.264835">
<ele>146.443481</ele>
<time>2010-07-18T08:39:08Z</time>
<desc>lat.=55.715340, lon.=26.264835, Alt.=146.443481m. Speed=19.944000m/h.</desc>
<speed>5.540000</speed>
</trkpt>
<trkpt lat="55.715321" lon="26.264910">
<ele>146.068481</ele>
<time>2010-07-18T08:39:09Z</time>
<desc>lat.=55.715321, lon.=26.264910, Alt.=146.068481m. Speed=20.195999m/h.</desc>
<speed>5.610000</speed>
</trkpt>
<trkpt lat="55.715298" lon="26.264992">
<ele>145.783325</ele>
<time>2010-07-18T08:39:10Z</time>
<desc>lat.=55.715298, lon.=26.264992, Alt.=145.783325m. Speed=20.375999m/h.</desc>
<speed>5.660000</speed>
</trkpt>
<trkpt lat="55.715282" lon="26.265083">
<ele>145.818481</ele>
<time>2010-07-18T08:39:11Z</time>
<desc>lat.=55.715282, lon.=26.265083, Alt.=145.818481m. Speed=19.908001m/h.</desc>
<speed>5.530000</speed>
</trkpt>
<trkpt lat="55.715263" lon="26.265167">
<ele>145.959106</ele>
<time>2010-07-18T08:39:12Z</time>
<desc>lat.=55.715263, lon.=26.265167, Alt.=145.959106m. Speed=19.872000m/h.</desc>
<speed>5.520000</speed>
</trkpt>
<trkpt lat="55.715240" lon="26.265244">
<ele>145.431763</ele>
<time>2010-07-18T08:39:13Z</time>
<desc>lat.=55.715240, lon.=26.265244, Alt.=145.431763m. Speed=18.900000m/h.</desc>
<speed>5.250000</speed>
</trkpt>
<trkpt lat="55.715221" lon="26.265322">
<ele>145.482544</ele>
<time>2010-07-18T08:39:14Z</time>
<desc>lat.=55.715221, lon.=26.265322, Alt.=145.482544m. Speed=18.143999m/h.</desc>
<speed>5.040000</speed>
</trkpt>
<trkpt lat="55.715210" lon="26.265398">
<ele>145.658325</ele>
<time>2010-07-18T08:39:15Z</time>
<desc>lat.=55.715210, lon.=26.265398, Alt.=145.658325m. Speed=17.208000m/h.</desc>
<speed>4.780000</speed>
</trkpt>
<trkpt lat="55.715191" lon="26.265471">
<ele>145.666138</ele>
<time>2010-07-18T08:39:16Z</time>
<desc>lat.=55.715191, lon.=26.265471, Alt.=145.666138m. Speed=17.136000m/h.</desc>
<speed>4.760000</speed>
</trkpt>
<trkpt lat="55.715172" lon="26.265541">
<ele>145.209106</ele>
<time>2010-07-18T08:39:17Z</time>
<desc>lat.=55.715172, lon.=26.265541, Alt.=145.209106m. Speed=17.892000m/h.</desc>
<speed>4.970000</speed>
</trkpt>
<trkpt lat="55.715153" lon="26.265614">
<ele>145.185669</ele>
<time>2010-07-18T08:39:18Z</time>
<desc>lat.=55.715153, lon.=26.265614, Alt.=145.185669m. Speed=17.280001m/h.</desc>
<speed>4.800000</speed>
</trkpt>
<trkpt lat="55.715137" lon="26.265686">
<ele>145.451294</ele>
<time>2010-07-18T08:39:19Z</time>
<desc>lat.=55.715137, lon.=26.265686, Alt.=145.451294m. Speed=17.100000m/h.</desc>
<speed>4.750000</speed>
</trkpt>
<trkpt lat="55.715122" lon="26.265759">
<ele>145.752075</ele>
<time>2010-07-18T08:39:20Z</time>
<desc>lat.=55.715122, lon.=26.265759, Alt.=145.752075m. Speed=16.632000m/h.</desc>
<speed>4.620000</speed>
</trkpt>
<trkpt lat="55.715103" lon="26.265825">
<ele>145.802856</ele>
<time>2010-07-18T08:39:21Z</time>
<desc>lat.=55.715103, lon.=26.265825, Alt.=145.802856m. Speed=16.128000m/h.</desc>
<speed>4.480000</speed>
</trkpt>
<trkpt lat="55.715088" lon="26.265890">
<ele>145.490356</ele>
<time>2010-07-18T08:39:22Z</time>
<desc>lat.=55.715088, lon.=26.265890, Alt.=145.490356m. Speed=15.264000m/h.</desc>
<speed>4.240000</speed>
</trkpt>
<trkpt lat="55.715073" lon="26.265949">
<ele>145.275513</ele>
<time>2010-07-18T08:39:23Z</time>
<desc>lat.=55.715073, lon.=26.265949, Alt.=145.275513m. Speed=14.796000m/h.</desc>
<speed>4.110000</speed>
</trkpt>
<trkpt lat="55.715057" lon="26.266010">
<ele>145.111450</ele>
<time>2010-07-18T08:39:24Z</time>
<desc>lat.=55.715057, lon.=26.266010, Alt.=145.111450m. Speed=14.076000m/h.</desc>
<speed>3.910000</speed>
</trkpt>
<trkpt lat="55.715042" lon="26.266068">
<ele>145.537231</ele>
<time>2010-07-18T08:39:25Z</time>
<desc>lat.=55.715042, lon.=26.266068, Alt.=145.537231m. Speed=13.680000m/h.</desc>
<speed>3.800000</speed>
</trkpt>
<trkpt lat="55.715027" lon="26.266123">
<ele>145.615356</ele>
<time>2010-07-18T08:39:26Z</time>
<desc>lat.=55.715027, lon.=26.266123, Alt.=145.615356m. Speed=13.392000m/h.</desc>
<speed>3.720000</speed>
</trkpt>
<trkpt lat="55.715012" lon="26.266176">
<ele>145.529419</ele>
<time>2010-07-18T08:39:27Z</time>
<desc>lat.=55.715012, lon.=26.266176, Alt.=145.529419m. Speed=12.996000m/h.</desc>
<speed>3.610000</speed>
</trkpt>
<trkpt lat="55.715000" lon="26.266228">
<ele>145.576294</ele>
<time>2010-07-18T08:39:28Z</time>
<desc>lat.=55.715000, lon.=26.266228, Alt.=145.576294m. Speed=12.600000m/h.</desc>
<speed>3.500000</speed>
</trkpt>
<trkpt lat="55.714985" lon="26.266275">
<ele>145.611450</ele>
<time>2010-07-18T08:39:29Z</time>
<desc>lat.=55.714985, lon.=26.266275, Alt.=145.611450m. Speed=12.600000m/h.</desc>
<speed>3.500000</speed>
</trkpt>
<trkpt lat="55.714970" lon="26.266325">
<ele>145.588013</ele>
<time>2010-07-18T08:39:30Z</time>
<desc>lat.=55.714970, lon.=26.266325, Alt.=145.588013m. Speed=12.384000m/h.</desc>
<speed>3.440000</speed>
</trkpt>
<trkpt lat="55.714958" lon="26.266371">
<ele>145.447388</ele>
<time>2010-07-18T08:39:31Z</time>
<desc>lat.=55.714958, lon.=26.266371, Alt.=145.447388m. Speed=11.700000m/h.</desc>
<speed>3.250000</speed>
</trkpt>
<trkpt lat="55.714947" lon="26.266417">
<ele>145.408325</ele>
<time>2010-07-18T08:39:32Z</time>
<desc>lat.=55.714947, lon.=26.266417, Alt.=145.408325m. Speed=10.872000m/h.</desc>
<speed>3.020000</speed>
</trkpt>
<trkpt lat="55.714935" lon="26.266455">
<ele>145.295044</ele>
<time>2010-07-18T08:39:33Z</time>
<desc>lat.=55.714935, lon.=26.266455, Alt.=145.295044m. Speed=9.864000m/h.</desc>
<speed>2.740000</speed>
</trkpt>
<trkpt lat="55.714928" lon="26.266489">
<ele>145.213013</ele>
<time>2010-07-18T08:39:34Z</time>
<desc>lat.=55.714928, lon.=26.266489, Alt.=145.213013m. Speed=8.748000m/h.</desc>
<speed>2.430000</speed>
</trkpt>
<trkpt lat="55.714920" lon="26.266523">
<ele>145.209106</ele>
<time>2010-07-18T08:39:35Z</time>
<desc>lat.=55.714920, lon.=26.266523, Alt.=145.209106m. Speed=8.352000m/h.</desc>
<speed>2.320000</speed>
</trkpt>
<trkpt lat="55.714912" lon="26.266556">
<ele>145.279419</ele>
<time>2010-07-18T08:39:36Z</time>
<desc>lat.=55.714912, lon.=26.266556, Alt.=145.279419m. Speed=8.100000m/h.</desc>
<speed>2.250000</speed>
</trkpt>
<trkpt lat="55.714901" lon="26.266584">
<ele>145.318481</ele>
<time>2010-07-18T08:39:37Z</time>
<desc>lat.=55.714901, lon.=26.266584, Alt.=145.318481m. Speed=7.776000m/h.</desc>
<speed>2.160000</speed>
</trkpt>
<trkpt lat="55.714893" lon="26.266615">
<ele>145.357544</ele>
<time>2010-07-18T08:39:38Z</time>
<desc>lat.=55.714893, lon.=26.266615, Alt.=145.357544m. Speed=7.740000m/h.</desc>
<speed>2.150000</speed>
</trkpt>
<trkpt lat="55.714882" lon="26.266644">
<ele>145.259888</ele>
<time>2010-07-18T08:39:39Z</time>
<desc>lat.=55.714882, lon.=26.266644, Alt.=145.259888m. Speed=7.452000m/h.</desc>
<speed>2.070000</speed>
</trkpt>
<trkpt lat="55.714874" lon="26.266672">
<ele>145.314575</ele>
<time>2010-07-18T08:39:40Z</time>
<desc>lat.=55.714874, lon.=26.266672, Alt.=145.314575m. Speed=7.092000m/h.</desc>
<speed>1.970000</speed>
</trkpt>
<trkpt lat="55.714867" lon="26.266705">
<ele>145.474731</ele>
<time>2010-07-18T08:39:41Z</time>
<desc>lat.=55.714867, lon.=26.266705, Alt.=145.474731m. Speed=7.920000m/h.</desc>
<speed>2.200000</speed>
</trkpt>
<trkpt lat="55.714859" lon="26.266741">
<ele>145.673950</ele>
<time>2010-07-18T08:39:42Z</time>
<desc>lat.=55.714859, lon.=26.266741, Alt.=145.673950m. Speed=8.496000m/h.</desc>
<speed>2.360000</speed>
</trkpt>
<trkpt lat="55.714851" lon="26.266777">
<ele>145.810669</ele>
<time>2010-07-18T08:39:43Z</time>
<desc>lat.=55.714851, lon.=26.266777, Alt.=145.810669m. Speed=8.676000m/h.</desc>
<speed>2.410000</speed>
</trkpt>
<trkpt lat="55.714844" lon="26.266809">
<ele>145.877075</ele>
<time>2010-07-18T08:39:44Z</time>
<desc>lat.=55.714844, lon.=26.266809, Alt.=145.877075m. Speed=8.964000m/h.</desc>
<speed>2.490000</speed>
</trkpt>
<trkpt lat="55.714832" lon="26.266844">
<ele>145.978638</ele>
<time>2010-07-18T08:39:45Z</time>
<desc>lat.=55.714832, lon.=26.266844, Alt.=145.978638m. Speed=9.180000m/h.</desc>
<speed>2.550000</speed>
</trkpt>
<trkpt lat="55.714825" lon="26.266880">
<ele>146.103638</ele>
<time>2010-07-18T08:39:46Z</time>
<desc>lat.=55.714825, lon.=26.266880, Alt.=146.103638m. Speed=8.928000m/h.</desc>
<speed>2.480000</speed>
</trkpt>
<trkpt lat="55.714813" lon="26.266914">
<ele>146.076294</ele>
<time>2010-07-18T08:39:47Z</time>
<desc>lat.=55.714813, lon.=26.266914, Alt.=146.076294m. Speed=8.964000m/h.</desc>
<speed>2.490000</speed>
</trkpt>
<trkpt lat="55.714802" lon="26.266951">
<ele>146.088013</ele>
<time>2010-07-18T08:39:48Z</time>
<desc>lat.=55.714802, lon.=26.266951, Alt.=146.088013m. Speed=9.000000m/h.</desc>
<speed>2.500000</speed>
</trkpt>
<trkpt lat="55.714794" lon="26.266987">
<ele>146.193481</ele>
<time>2010-07-18T08:39:49Z</time>
<desc>lat.=55.714794, lon.=26.266987, Alt.=146.193481m. Speed=9.036000m/h.</desc>
<speed>2.510000</speed>
</trkpt>
<trkpt lat="55.714783" lon="26.267023">
<ele>146.228638</ele>
<time>2010-07-18T08:39:50Z</time>
<desc>lat.=55.714783, lon.=26.267023, Alt.=146.228638m. Speed=8.820000m/h.</desc>
<speed>2.450000</speed>
</trkpt>
<trkpt lat="55.714775" lon="26.267057">
<ele>146.252075</ele>
<time>2010-07-18T08:39:51Z</time>
<desc>lat.=55.714775, lon.=26.267057, Alt.=146.252075m. Speed=8.784000m/h.</desc>
<speed>2.440000</speed>
</trkpt>
<trkpt lat="55.714767" lon="26.267096">
<ele>146.525513</ele>
<time>2010-07-18T08:39:52Z</time>
<desc>lat.=55.714767, lon.=26.267096, Alt.=146.525513m. Speed=9.072000m/h.</desc>
<speed>2.520000</speed>
</trkpt>
<trkpt lat="55.714760" lon="26.267132">
<ele>146.630981</ele>
<time>2010-07-18T08:39:53Z</time>
<desc>lat.=55.714760, lon.=26.267132, Alt.=146.630981m. Speed=9.144000m/h.</desc>
<speed>2.540000</speed>
</trkpt>
<trkpt lat="55.714752" lon="26.267168">
<ele>146.642700</ele>
<time>2010-07-18T08:39:54Z</time>
<desc>lat.=55.714752, lon.=26.267168, Alt.=146.642700m. Speed=8.964000m/h.</desc>
<speed>2.490000</speed>
</trkpt>
<trkpt lat="55.714745" lon="26.267202">
<ele>146.802856</ele>
<time>2010-07-18T08:39:55Z</time>
<desc>lat.=55.714745, lon.=26.267202, Alt.=146.802856m. Speed=8.928000m/h.</desc>
<speed>2.480000</speed>
</trkpt>
<trkpt lat="55.714737" lon="26.267237">
<ele>146.994263</ele>
<time>2010-07-18T08:39:56Z</time>
<desc>lat.=55.714737, lon.=26.267237, Alt.=146.994263m. Speed=8.856000m/h.</desc>
<speed>2.460000</speed>
</trkpt>
<trkpt lat="55.714725" lon="26.267275">
<ele>147.064575</ele>
<time>2010-07-18T08:39:57Z</time>
<desc>lat.=55.714725, lon.=26.267275, Alt.=147.064575m. Speed=8.856000m/h.</desc>
<speed>2.460000</speed>
</trkpt>
<trkpt lat="55.714718" lon="26.267313">
<ele>147.298950</ele>
<time>2010-07-18T08:39:58Z</time>
<desc>lat.=55.714718, lon.=26.267313, Alt.=147.298950m. Speed=8.532000m/h.</desc>
<speed>2.370000</speed>
</trkpt>
<trkpt lat="55.714710" lon="26.267349">
<ele>147.213013</ele>
<time>2010-07-18T08:39:59Z</time>
<desc>lat.=55.714710, lon.=26.267349, Alt.=147.213013m. Speed=8.568000m/h.</desc>
<speed>2.380000</speed>
</trkpt>
<trkpt lat="55.714699" lon="26.267385">
<ele>147.252075</ele>
<time>2010-07-18T08:40:00Z</time>
<desc>lat.=55.714699, lon.=26.267385, Alt.=147.252075m. Speed=8.748000m/h.</desc>
<speed>2.430000</speed>
</trkpt>
<trkpt lat="55.714687" lon="26.267422">
<ele>147.275513</ele>
<time>2010-07-18T08:40:01Z</time>
<desc>lat.=55.714687, lon.=26.267422, Alt.=147.275513m. Speed=8.820000m/h.</desc>
<speed>2.450000</speed>
</trkpt>
<trkpt lat="55.714680" lon="26.267458">
<ele>147.283325</ele>
<time>2010-07-18T08:40:02Z</time>
<desc>lat.=55.714680, lon.=26.267458, Alt.=147.283325m. Speed=8.640000m/h.</desc>
<speed>2.400000</speed>
</trkpt>
<trkpt lat="55.714672" lon="26.267490">
<ele>147.400513</ele>
<time>2010-07-18T08:40:03Z</time>
<desc>lat.=55.714672, lon.=26.267490, Alt.=147.400513m. Speed=8.568000m/h.</desc>
<speed>2.380000</speed>
</trkpt>
<trkpt lat="55.714661" lon="26.267525">
<ele>147.685669</ele>
<time>2010-07-18T08:40:04Z</time>
<desc>lat.=55.714661, lon.=26.267525, Alt.=147.685669m. Speed=8.352000m/h.</desc>
<speed>2.320000</speed>
</trkpt>
<trkpt lat="55.714653" lon="26.267555">
<ele>148.002075</ele>
<time>2010-07-18T08:40:05Z</time>
<desc>lat.=55.714653, lon.=26.267555, Alt.=148.002075m. Speed=8.100000m/h.</desc>
<speed>2.250000</speed>
</trkpt>
<trkpt lat="55.714649" lon="26.267588">
<ele>148.216919</ele>
<time>2010-07-18T08:40:06Z</time>
<desc>lat.=55.714649, lon.=26.267588, Alt.=148.216919m. Speed=8.244000m/h.</desc>
<speed>2.290000</speed>
</trkpt>
<trkpt lat="55.714638" lon="26.267618">
<ele>148.228638</ele>
<time>2010-07-18T08:40:07Z</time>
<desc>lat.=55.714638, lon.=26.267618, Alt.=148.228638m. Speed=8.172000m/h.</desc>
<speed>2.270000</speed>
</trkpt>
<trkpt lat="55.714630" lon="26.267651">
<ele>148.599731</ele>
<time>2010-07-18T08:40:08Z</time>
<desc>lat.=55.714630, lon.=26.267651, Alt.=148.599731m. Speed=8.100000m/h.</desc>
<speed>2.250000</speed>
</trkpt>
<trkpt lat="55.714622" lon="26.267685">
<ele>148.744263</ele>
<time>2010-07-18T08:40:09Z</time>
<desc>lat.=55.714622, lon.=26.267685, Alt.=148.744263m. Speed=8.424000m/h.</desc>
<speed>2.340000</speed>
</trkpt>
<trkpt lat="55.714615" lon="26.267719">
<ele>148.927856</ele>
<time>2010-07-18T08:40:10Z</time>
<desc>lat.=55.714615, lon.=26.267719, Alt.=148.927856m. Speed=8.172000m/h.</desc>
<speed>2.270000</speed>
</trkpt>
<trkpt lat="55.714607" lon="26.267754">
<ele>149.017700</ele>
<time>2010-07-18T08:40:11Z</time>
<desc>lat.=55.714607, lon.=26.267754, Alt.=149.017700m. Speed=8.136000m/h.</desc>
<speed>2.260000</speed>
</trkpt>
<trkpt lat="55.714603" lon="26.267788">
<ele>149.115356</ele>
<time>2010-07-18T08:40:12Z</time>
<desc>lat.=55.714603, lon.=26.267788, Alt.=149.115356m. Speed=8.280000m/h.</desc>
<speed>2.300000</speed>
</trkpt>
<trkpt lat="55.714600" lon="26.267824">
<ele>149.326294</ele>
<time>2010-07-18T08:40:13Z</time>
<desc>lat.=55.714600, lon.=26.267824, Alt.=149.326294m. Speed=8.424000m/h.</desc>
<speed>2.340000</speed>
</trkpt>
<trkpt lat="55.714592" lon="26.267860">
<ele>149.505981</ele>
<time>2010-07-18T08:40:14Z</time>
<desc>lat.=55.714592, lon.=26.267860, Alt.=149.505981m. Speed=8.388000m/h.</desc>
<speed>2.330000</speed>
</trkpt>
<trkpt lat="55.714584" lon="26.267897">
<ele>149.615356</ele>
<time>2010-07-18T08:40:15Z</time>
<desc>lat.=55.714584, lon.=26.267897, Alt.=149.615356m. Speed=8.532000m/h.</desc>
<speed>2.370000</speed>
</trkpt>
<trkpt lat="55.714577" lon="26.267931">
<ele>149.677856</ele>
<time>2010-07-18T08:40:16Z</time>
<desc>lat.=55.714577, lon.=26.267931, Alt.=149.677856m. Speed=8.820000m/h.</desc>
<speed>2.450000</speed>
</trkpt>
<trkpt lat="55.714569" lon="26.267963">
<ele>150.080200</ele>
<time>2010-07-18T08:40:17Z</time>
<desc>lat.=55.714569, lon.=26.267963, Alt.=150.080200m. Speed=8.676000m/h.</desc>
<speed>2.410000</speed>
</trkpt>
<trkpt lat="55.714561" lon="26.267996">
<ele>150.310669</ele>
<time>2010-07-18T08:40:18Z</time>
<desc>lat.=55.714561, lon.=26.267996, Alt.=150.310669m. Speed=8.820000m/h.</desc>
<speed>2.450000</speed>
</trkpt>
<trkpt lat="55.714550" lon="26.268026">
<ele>150.455200</ele>
<time>2010-07-18T08:40:19Z</time>
<desc>lat.=55.714550, lon.=26.268026, Alt.=150.455200m. Speed=8.892000m/h.</desc>
<speed>2.470000</speed>
</trkpt>
<trkpt lat="55.714542" lon="26.268064">
<ele>150.627075</ele>
<time>2010-07-18T08:40:20Z</time>
<desc>lat.=55.714542, lon.=26.268064, Alt.=150.627075m. Speed=8.928000m/h.</desc>
<speed>2.480000</speed>
</trkpt>
<trkpt lat="55.714535" lon="26.268103">
<ele>150.720825</ele>
<time>2010-07-18T08:40:21Z</time>
<desc>lat.=55.714535, lon.=26.268103, Alt.=150.720825m. Speed=8.892000m/h.</desc>
<speed>2.470000</speed>
</trkpt>
<trkpt lat="55.714527" lon="26.268141">
<ele>151.029419</ele>
<time>2010-07-18T08:40:22Z</time>
<desc>lat.=55.714527, lon.=26.268141, Alt.=151.029419m. Speed=9.144000m/h.</desc>
<speed>2.540000</speed>
</trkpt>
<trkpt lat="55.714516" lon="26.268179">
<ele>151.119263</ele>
<time>2010-07-18T08:40:23Z</time>
<desc>lat.=55.714516, lon.=26.268179, Alt.=151.119263m. Speed=9.936000m/h.</desc>
<speed>2.760000</speed>
</trkpt>
<trkpt lat="55.714504" lon="26.268217">
<ele>151.088013</ele>
<time>2010-07-18T08:40:24Z</time>
<desc>lat.=55.714504, lon.=26.268217, Alt.=151.088013m. Speed=9.216000m/h.</desc>
<speed>2.560000</speed>
</trkpt>
<trkpt lat="55.714497" lon="26.268255">
<ele>151.334106</ele>
<time>2010-07-18T08:40:25Z</time>
<desc>lat.=55.714497, lon.=26.268255, Alt.=151.334106m. Speed=9.000000m/h.</desc>
<speed>2.500000</speed>
</trkpt>
<trkpt lat="55.714489" lon="26.268293">
<ele>151.623169</ele>
<time>2010-07-18T08:40:26Z</time>
<desc>lat.=55.714489, lon.=26.268293, Alt.=151.623169m. Speed=9.576000m/h.</desc>
<speed>2.660000</speed>
</trkpt>
<trkpt lat="55.714478" lon="26.268330">
<ele>151.420044</ele>
<time>2010-07-18T08:40:27Z</time>
<desc>lat.=55.714478, lon.=26.268330, Alt.=151.420044m. Speed=9.360000m/h.</desc>
<speed>2.600000</speed>
</trkpt>
<trkpt lat="55.714466" lon="26.268368">
<ele>151.498169</ele>
<time>2010-07-18T08:40:28Z</time>
<desc>lat.=55.714466, lon.=26.268368, Alt.=151.498169m. Speed=9.144000m/h.</desc>
<speed>2.540000</speed>
</trkpt>
<trkpt lat="55.714458" lon="26.268400">
<ele>151.673950</ele>
<time>2010-07-18T08:40:29Z</time>
<desc>lat.=55.714458, lon.=26.268400, Alt.=151.673950m. Speed=9.288000m/h.</desc>
<speed>2.580000</speed>
</trkpt>
<trkpt lat="55.714455" lon="26.268436">
<ele>151.920044</ele>
<time>2010-07-18T08:40:30Z</time>
<desc>lat.=55.714455, lon.=26.268436, Alt.=151.920044m. Speed=9.000000m/h.</desc>
<speed>2.500000</speed>
</trkpt>
<trkpt lat="55.714447" lon="26.268469">
<ele>152.127075</ele>
<time>2010-07-18T08:40:31Z</time>
<desc>lat.=55.714447, lon.=26.268469, Alt.=152.127075m. Speed=9.108000m/h.</desc>
<speed>2.530000</speed>
</trkpt>
<trkpt lat="55.714436" lon="26.268509">
<ele>152.123169</ele>
<time>2010-07-18T08:40:32Z</time>
<desc>lat.=55.714436, lon.=26.268509, Alt.=152.123169m. Speed=9.252000m/h.</desc>
<speed>2.570000</speed>
</trkpt>
<trkpt lat="55.714428" lon="26.268549">
<ele>152.275513</ele>
<time>2010-07-18T08:40:33Z</time>
<desc>lat.=55.714428, lon.=26.268549, Alt.=152.275513m. Speed=9.144000m/h.</desc>
<speed>2.540000</speed>
</trkpt>
<trkpt lat="55.714424" lon="26.268587">
<ele>152.427856</ele>
<time>2010-07-18T08:40:34Z</time>
<desc>lat.=55.714424, lon.=26.268587, Alt.=152.427856m. Speed=9.396000m/h.</desc>
<speed>2.610000</speed>
</trkpt>
<trkpt lat="55.714417" lon="26.268629">
<ele>152.576294</ele>
<time>2010-07-18T08:40:35Z</time>
<desc>lat.=55.714417, lon.=26.268629, Alt.=152.576294m. Speed=9.396000m/h.</desc>
<speed>2.610000</speed>
</trkpt>
<trkpt lat="55.714409" lon="26.268671">
<ele>153.103638</ele>
<time>2010-07-18T08:40:36Z</time>
<desc>lat.=55.714409, lon.=26.268671, Alt.=153.103638m. Speed=8.964000m/h.</desc>
<speed>2.490000</speed>
</trkpt>
<trkpt lat="55.714390" lon="26.268702">
<ele>151.720825</ele>
<time>2010-07-18T08:40:37Z</time>
<desc>lat.=55.714390, lon.=26.268702, Alt.=151.720825m. Speed=9.504000m/h.</desc>
<speed>2.640000</speed>
</trkpt>
<trkpt lat="55.714375" lon="26.268736">
<ele>151.560669</ele>
<time>2010-07-18T08:40:38Z</time>
<desc>lat.=55.714375, lon.=26.268736, Alt.=151.560669m. Speed=8.784000m/h.</desc>
<speed>2.440000</speed>
</trkpt>
<trkpt lat="55.714363" lon="26.268770">
<ele>151.404419</ele>
<time>2010-07-18T08:40:39Z</time>
<desc>lat.=55.714363, lon.=26.268770, Alt.=151.404419m. Speed=8.640000m/h.</desc>
<speed>2.400000</speed>
</trkpt>
<trkpt lat="55.714355" lon="26.268806">
<ele>151.685669</ele>
<time>2010-07-18T08:40:40Z</time>
<desc>lat.=55.714355, lon.=26.268806, Alt.=151.685669m. Speed=8.676000m/h.</desc>
<speed>2.410000</speed>
</trkpt>
<trkpt lat="55.714344" lon="26.268843">
<ele>151.736450</ele>
<time>2010-07-18T08:40:41Z</time>
<desc>lat.=55.714344, lon.=26.268843, Alt.=151.736450m. Speed=8.748000m/h.</desc>
<speed>2.430000</speed>
</trkpt>
<trkpt lat="55.714336" lon="26.268881">
<ele>151.802856</ele>
<time>2010-07-18T08:40:42Z</time>
<desc>lat.=55.714336, lon.=26.268881, Alt.=151.802856m. Speed=8.496000m/h.</desc>
<speed>2.360000</speed>
</trkpt>
<trkpt lat="55.714329" lon="26.268917">
<ele>152.002075</ele>
<time>2010-07-18T08:40:43Z</time>
<desc>lat.=55.714329, lon.=26.268917, Alt.=152.002075m. Speed=8.748000m/h.</desc>
<speed>2.430000</speed>
</trkpt>
<trkpt lat="55.714321" lon="26.268955">
<ele>152.138794</ele>
<time>2010-07-18T08:40:44Z</time>
<desc>lat.=55.714321, lon.=26.268955, Alt.=152.138794m. Speed=8.964000m/h.</desc>
<speed>2.490000</speed>
</trkpt>
<trkpt lat="55.714317" lon="26.268991">
<ele>152.279419</ele>
<time>2010-07-18T08:40:45Z</time>
<desc>lat.=55.714317, lon.=26.268991, Alt.=152.279419m. Speed=8.964000m/h.</desc>
<speed>2.490000</speed>
</trkpt>
<trkpt lat="55.714306" lon="26.269026">
<ele>152.201294</ele>
<time>2010-07-18T08:40:46Z</time>
<desc>lat.=55.714306, lon.=26.269026, Alt.=152.201294m. Speed=9.036000m/h.</desc>
<speed>2.510000</speed>
</trkpt>
<trkpt lat="55.714298" lon="26.269060">
<ele>152.435669</ele>
<time>2010-07-18T08:40:47Z</time>
<desc>lat.=55.714298, lon.=26.269060, Alt.=152.435669m. Speed=9.072000m/h.</desc>
<speed>2.520000</speed>
</trkpt>
<trkpt lat="55.714287" lon="26.269094">
<ele>152.650513</ele>
<time>2010-07-18T08:40:48Z</time>
<desc>lat.=55.714287, lon.=26.269094, Alt.=152.650513m. Speed=9.252000m/h.</desc>
<speed>2.570000</speed>
</trkpt>
<trkpt lat="55.714283" lon="26.269133">
<ele>153.302856</ele>
<time>2010-07-18T08:40:49Z</time>
<desc>lat.=55.714283, lon.=26.269133, Alt.=153.302856m. Speed=9.216000m/h.</desc>
<speed>2.560000</speed>
</trkpt>
<trkpt lat="55.714275" lon="26.269171">
<ele>153.517700</ele>
<time>2010-07-18T08:40:50Z</time>
<desc>lat.=55.714275, lon.=26.269171, Alt.=153.517700m. Speed=9.144000m/h.</desc>
<speed>2.540000</speed>
</trkpt>
<trkpt lat="55.714268" lon="26.269209">
<ele>153.705200</ele>
<time>2010-07-18T08:40:51Z</time>
<desc>lat.=55.714268, lon.=26.269209, Alt.=153.705200m. Speed=9.072000m/h.</desc>
<speed>2.520000</speed>
</trkpt>
<trkpt lat="55.714256" lon="26.269247">
<ele>153.818481</ele>
<time>2010-07-18T08:40:52Z</time>
<desc>lat.=55.714256, lon.=26.269247, Alt.=153.818481m. Speed=9.324000m/h.</desc>
<speed>2.590000</speed>
</trkpt>
<trkpt lat="55.714245" lon="26.269287">
<ele>153.884888</ele>
<time>2010-07-18T08:40:53Z</time>
<desc>lat.=55.714245, lon.=26.269287, Alt.=153.884888m. Speed=9.396000m/h.</desc>
<speed>2.610000</speed>
</trkpt>
<trkpt lat="55.714233" lon="26.269327">
<ele>154.115356</ele>
<time>2010-07-18T08:40:54Z</time>
<desc>lat.=55.714233, lon.=26.269327, Alt.=154.115356m. Speed=9.396000m/h.</desc>
<speed>2.610000</speed>
</trkpt>
<trkpt lat="55.714222" lon="26.269363">
<ele>154.170044</ele>
<time>2010-07-18T08:40:55Z</time>
<desc>lat.=55.714222, lon.=26.269363, Alt.=154.170044m. Speed=9.180000m/h.</desc>
<speed>2.550000</speed>
</trkpt>
<trkpt lat="55.714218" lon="26.269400">
<ele>154.209106</ele>
<time>2010-07-18T08:40:56Z</time>
<desc>lat.=55.714218, lon.=26.269400, Alt.=154.209106m. Speed=8.964000m/h.</desc>
<speed>2.490000</speed>
</trkpt>
<trkpt lat="55.714207" lon="26.269434">
<ele>154.302856</ele>
<time>2010-07-18T08:40:57Z</time>
<desc>lat.=55.714207, lon.=26.269434, Alt.=154.302856m. Speed=9.324000m/h.</desc>
<speed>2.590000</speed>
</trkpt>
<trkpt lat="55.714195" lon="26.269470">
<ele>154.427856</ele>
<time>2010-07-18T08:40:58Z</time>
<desc>lat.=55.714195, lon.=26.269470, Alt.=154.427856m. Speed=9.216000m/h.</desc>
<speed>2.560000</speed>
</trkpt>
<trkpt lat="55.714184" lon="26.269506">
<ele>154.662231</ele>
<time>2010-07-18T08:40:59Z</time>
<desc>lat.=55.714184, lon.=26.269506, Alt.=154.662231m. Speed=9.324000m/h.</desc>
<speed>2.590000</speed>
</trkpt>
<trkpt lat="55.714176" lon="26.269541">
<ele>154.779419</ele>
<time>2010-07-18T08:41:00Z</time>
<desc>lat.=55.714176, lon.=26.269541, Alt.=154.779419m. Speed=9.108000m/h.</desc>
<speed>2.530000</speed>
</trkpt>
<trkpt lat="55.714161" lon="26.269573">
<ele>154.630981</ele>
<time>2010-07-18T08:41:01Z</time>
<desc>lat.=55.714161, lon.=26.269573, Alt.=154.630981m. Speed=8.964000m/h.</desc>
<speed>2.490000</speed>
</trkpt>
<trkpt lat="55.714153" lon="26.269606">
<ele>154.724731</ele>
<time>2010-07-18T08:41:02Z</time>
<desc>lat.=55.714153, lon.=26.269606, Alt.=154.724731m. Speed=8.820000m/h.</desc>
<speed>2.450000</speed>
</trkpt>
<trkpt lat="55.714149" lon="26.269640">
<ele>154.728638</ele>
<time>2010-07-18T08:41:03Z</time>
<desc>lat.=55.714149, lon.=26.269640, Alt.=154.728638m. Speed=8.892000m/h.</desc>
<speed>2.470000</speed>
</trkpt>
<trkpt lat="55.714142" lon="26.269680">
<ele>154.916138</ele>
<time>2010-07-18T08:41:04Z</time>
<desc>lat.=55.714142, lon.=26.269680, Alt.=154.916138m. Speed=8.784000m/h.</desc>
<speed>2.440000</speed>
</trkpt>
<trkpt lat="55.714134" lon="26.269718">
<ele>155.033325</ele>
<time>2010-07-18T08:41:05Z</time>
<desc>lat.=55.714134, lon.=26.269718, Alt.=155.033325m. Speed=8.964000m/h.</desc>
<speed>2.490000</speed>
</trkpt>
<trkpt lat="55.714127" lon="26.269754">
<ele>155.244263</ele>
<time>2010-07-18T08:41:06Z</time>
<desc>lat.=55.714127, lon.=26.269754, Alt.=155.244263m. Speed=8.568000m/h.</desc>
<speed>2.380000</speed>
</trkpt>
<trkpt lat="55.714115" lon="26.269791">
<ele>155.283325</ele>
<time>2010-07-18T08:41:07Z</time>
<desc>lat.=55.714115, lon.=26.269791, Alt.=155.283325m. Speed=8.712000m/h.</desc>
<speed>2.420000</speed>
</trkpt>
<trkpt lat="55.714108" lon="26.269829">
<ele>155.408325</ele>
<time>2010-07-18T08:41:08Z</time>
<desc>lat.=55.714108, lon.=26.269829, Alt.=155.408325m. Speed=9.216000m/h.</desc>
<speed>2.560000</speed>
</trkpt>
<trkpt lat="55.714096" lon="26.269865">
<ele>155.443481</ele>
<time>2010-07-18T08:41:09Z</time>
<desc>lat.=55.714096, lon.=26.269865, Alt.=155.443481m. Speed=9.216000m/h.</desc>
<speed>2.560000</speed>
</trkpt>
<trkpt lat="55.714085" lon="26.269901">
<ele>155.470825</ele>
<time>2010-07-18T08:41:10Z</time>
<desc>lat.=55.714085, lon.=26.269901, Alt.=155.470825m. Speed=9.252000m/h.</desc>
<speed>2.570000</speed>
</trkpt>
<trkpt lat="55.714073" lon="26.269936">
<ele>155.466919</ele>
<time>2010-07-18T08:41:11Z</time>
<desc>lat.=55.714073, lon.=26.269936, Alt.=155.466919m. Speed=9.072000m/h.</desc>
<speed>2.520000</speed>
</trkpt>
<trkpt lat="55.714066" lon="26.269972">
<ele>155.490356</ele>
<time>2010-07-18T08:41:12Z</time>
<desc>lat.=55.714066, lon.=26.269972, Alt.=155.490356m. Speed=9.072000m/h.</desc>
<speed>2.520000</speed>
</trkpt>
<trkpt lat="55.714054" lon="26.270012">
<ele>155.502075</ele>
<time>2010-07-18T08:41:13Z</time>
<desc>lat.=55.714054, lon.=26.270012, Alt.=155.502075m. Speed=9.540000m/h.</desc>
<speed>2.650000</speed>
</trkpt>
<trkpt lat="55.714043" lon="26.270048">
<ele>155.439575</ele>
<time>2010-07-18T08:41:14Z</time>
<desc>lat.=55.714043, lon.=26.270048, Alt.=155.439575m. Speed=9.396000m/h.</desc>
<speed>2.610000</speed>
</trkpt>
<trkpt lat="55.714031" lon="26.270084">
<ele>155.423950</ele>
<time>2010-07-18T08:41:15Z</time>
<desc>lat.=55.714031, lon.=26.270084, Alt.=155.423950m. Speed=9.684000m/h.</desc>
<speed>2.690000</speed>
</trkpt>
<trkpt lat="55.714020" lon="26.270123">
<ele>155.517700</ele>
<time>2010-07-18T08:41:16Z</time>
<desc>lat.=55.714020, lon.=26.270123, Alt.=155.517700m. Speed=9.108000m/h.</desc>
<speed>2.530000</speed>
</trkpt>
<trkpt lat="55.713997" lon="26.270161">
<ele>154.548950</ele>
<time>2010-07-18T08:41:17Z</time>
<desc>lat.=55.713997, lon.=26.270161, Alt.=154.548950m. Speed=11.412000m/h.</desc>
<speed>3.170000</speed>
</trkpt>
<trkpt lat="55.713985" lon="26.270201">
<ele>154.685669</ele>
<time>2010-07-18T08:41:18Z</time>
<desc>lat.=55.713985, lon.=26.270201, Alt.=154.685669m. Speed=9.432000m/h.</desc>
<speed>2.620000</speed>
</trkpt>
<trkpt lat="55.713978" lon="26.270237">
<ele>154.783325</ele>
<time>2010-07-18T08:41:19Z</time>
<desc>lat.=55.713978, lon.=26.270237, Alt.=154.783325m. Speed=9.324000m/h.</desc>
<speed>2.590000</speed>
</trkpt>
<trkpt lat="55.713966" lon="26.270277">
<ele>154.927856</ele>
<time>2010-07-18T08:41:20Z</time>
<desc>lat.=55.713966, lon.=26.270277, Alt.=154.927856m. Speed=9.252000m/h.</desc>
<speed>2.570000</speed>
</trkpt>
<trkpt lat="55.713959" lon="26.270315">
<ele>154.978638</ele>
<time>2010-07-18T08:41:21Z</time>
<desc>lat.=55.713959, lon.=26.270315, Alt.=154.978638m. Speed=9.360000m/h.</desc>
<speed>2.600000</speed>
</trkpt>
<trkpt lat="55.713947" lon="26.270353">
<ele>155.130981</ele>
<time>2010-07-18T08:41:22Z</time>
<desc>lat.=55.713947, lon.=26.270353, Alt.=155.130981m. Speed=9.468000m/h.</desc>
<speed>2.630000</speed>
</trkpt>
<trkpt lat="55.713940" lon="26.270391">
<ele>155.068481</ele>
<time>2010-07-18T08:41:23Z</time>
<desc>lat.=55.713940, lon.=26.270391, Alt.=155.068481m. Speed=9.288000m/h.</desc>
<speed>2.580000</speed>
</trkpt>
<trkpt lat="55.713928" lon="26.270430">
<ele>155.185669</ele>
<time>2010-07-18T08:41:24Z</time>
<desc>lat.=55.713928, lon.=26.270430, Alt.=155.185669m. Speed=9.252000m/h.</desc>
<speed>2.570000</speed>
</trkpt>
<trkpt lat="55.713921" lon="26.270468">
<ele>155.306763</ele>
<time>2010-07-18T08:41:25Z</time>
<desc>lat.=55.713921, lon.=26.270468, Alt.=155.306763m. Speed=8.964000m/h.</desc>
<speed>2.490000</speed>
</trkpt>
<trkpt lat="55.713913" lon="26.270506">
<ele>155.670044</ele>
<time>2010-07-18T08:41:26Z</time>
<desc>lat.=55.713913, lon.=26.270506, Alt.=155.670044m. Speed=9.000000m/h.</desc>
<speed>2.500000</speed>
</trkpt>
<trkpt lat="55.713905" lon="26.270540">
<ele>155.744263</ele>
<time>2010-07-18T08:41:27Z</time>
<desc>lat.=55.713905, lon.=26.270540, Alt.=155.744263m. Speed=9.072000m/h.</desc>
<speed>2.520000</speed>
</trkpt>
<trkpt lat="55.713898" lon="26.270578">
<ele>155.869263</ele>
<time>2010-07-18T08:41:28Z</time>
<desc>lat.=55.713898, lon.=26.270578, Alt.=155.869263m. Speed=8.892000m/h.</desc>
<speed>2.470000</speed>
</trkpt>
<trkpt lat="55.713890" lon="26.270615">
<ele>155.912231</ele>
<time>2010-07-18T08:41:29Z</time>
<desc>lat.=55.713890, lon.=26.270615, Alt.=155.912231m. Speed=9.072000m/h.</desc>
<speed>2.520000</speed>
</trkpt>
<trkpt lat="55.713879" lon="26.270653">
<ele>155.970825</ele>
<time>2010-07-18T08:41:30Z</time>
<desc>lat.=55.713879, lon.=26.270653, Alt.=155.970825m. Speed=9.432000m/h.</desc>
<speed>2.620000</speed>
</trkpt>
<trkpt lat="55.713867" lon="26.270691">
<ele>156.072388</ele>
<time>2010-07-18T08:41:31Z</time>
<desc>lat.=55.713867, lon.=26.270691, Alt.=156.072388m. Speed=9.432000m/h.</desc>
<speed>2.620000</speed>
</trkpt>
<trkpt lat="55.713860" lon="26.270725">
<ele>156.205200</ele>
<time>2010-07-18T08:41:32Z</time>
<desc>lat.=55.713860, lon.=26.270725, Alt.=156.205200m. Speed=9.540000m/h.</desc>
<speed>2.650000</speed>
</trkpt>
<trkpt lat="55.713848" lon="26.270760">
<ele>156.326294</ele>
<time>2010-07-18T08:41:33Z</time>
<desc>lat.=55.713848, lon.=26.270760, Alt.=156.326294m. Speed=9.432000m/h.</desc>
<speed>2.620000</speed>
</trkpt>
<trkpt lat="55.713837" lon="26.270796">
<ele>156.607544</ele>
<time>2010-07-18T08:41:34Z</time>
<desc>lat.=55.713837, lon.=26.270796, Alt.=156.607544m. Speed=9.648000m/h.</desc>
<speed>2.680000</speed>
</trkpt>
<trkpt lat="55.713833" lon="26.270836">
<ele>157.119263</ele>
<time>2010-07-18T08:41:35Z</time>
<desc>lat.=55.713833, lon.=26.270836, Alt.=157.119263m. Speed=9.540000m/h.</desc>
<speed>2.650000</speed>
</trkpt>
<trkpt lat="55.713825" lon="26.270876">
<ele>157.517700</ele>
<time>2010-07-18T08:41:36Z</time>
<desc>lat.=55.713825, lon.=26.270876, Alt.=157.517700m. Speed=9.864000m/h.</desc>
<speed>2.740000</speed>
</trkpt>
<trkpt lat="55.713821" lon="26.270916">
<ele>157.841919</ele>
<time>2010-07-18T08:41:37Z</time>
<desc>lat.=55.713821, lon.=26.270916, Alt.=157.841919m. Speed=9.684000m/h.</desc>
<speed>2.690000</speed>
</trkpt>
<trkpt lat="55.713810" lon="26.270954">
<ele>157.947388</ele>
<time>2010-07-18T08:41:38Z</time>
<desc>lat.=55.713810, lon.=26.270954, Alt.=157.947388m. Speed=9.576000m/h.</desc>
<speed>2.660000</speed>
</trkpt>
<trkpt lat="55.713799" lon="26.270992">
<ele>157.900513</ele>
<time>2010-07-18T08:41:39Z</time>
<desc>lat.=55.713799, lon.=26.270992, Alt.=157.900513m. Speed=9.576000m/h.</desc>
<speed>2.660000</speed>
</trkpt>
<trkpt lat="55.713791" lon="26.271030">
<ele>158.076294</ele>
<time>2010-07-18T08:41:40Z</time>
<desc>lat.=55.713791, lon.=26.271030, Alt.=158.076294m. Speed=9.468000m/h.</desc>
<speed>2.630000</speed>
</trkpt>
<trkpt lat="55.713779" lon="26.271067">
<ele>158.341919</ele>
<time>2010-07-18T08:41:41Z</time>
<desc>lat.=55.713779, lon.=26.271067, Alt.=158.341919m. Speed=9.252000m/h.</desc>
<speed>2.570000</speed>
</trkpt>
<trkpt lat="55.713776" lon="26.271109">
<ele>159.341919</ele>
<time>2010-07-18T08:41:42Z</time>
<desc>lat.=55.713776, lon.=26.271109, Alt.=159.341919m. Speed=8.784000m/h.</desc>
<speed>2.440000</speed>
</trkpt>
<trkpt lat="55.713760" lon="26.271139">
<ele>158.857544</ele>
<time>2010-07-18T08:41:43Z</time>
<desc>lat.=55.713760, lon.=26.271139, Alt.=158.857544m. Speed=9.432000m/h.</desc>
<speed>2.620000</speed>
</trkpt>
<trkpt lat="55.713753" lon="26.271177">
<ele>158.943481</ele>
<time>2010-07-18T08:41:44Z</time>
<desc>lat.=55.713753, lon.=26.271177, Alt.=158.943481m. Speed=9.648000m/h.</desc>
<speed>2.680000</speed>
</trkpt>
<trkpt lat="55.713741" lon="26.271214">
<ele>158.900513</ele>
<time>2010-07-18T08:41:45Z</time>
<desc>lat.=55.713741, lon.=26.271214, Alt.=158.900513m. Speed=9.252000m/h.</desc>
<speed>2.570000</speed>
</trkpt>
<trkpt lat="55.713734" lon="26.271252">
<ele>159.029419</ele>
<time>2010-07-18T08:41:46Z</time>
<desc>lat.=55.713734, lon.=26.271252, Alt.=159.029419m. Speed=9.648000m/h.</desc>
<speed>2.680000</speed>
</trkpt>
<trkpt lat="55.713726" lon="26.271292">
<ele>159.213013</ele>
<time>2010-07-18T08:41:47Z</time>
<desc>lat.=55.713726, lon.=26.271292, Alt.=159.213013m. Speed=9.864000m/h.</desc>
<speed>2.740000</speed>
</trkpt>
<trkpt lat="55.713718" lon="26.271332">
<ele>159.345825</ele>
<time>2010-07-18T08:41:48Z</time>
<desc>lat.=55.713718, lon.=26.271332, Alt.=159.345825m. Speed=9.828000m/h.</desc>
<speed>2.730000</speed>
</trkpt>
<trkpt lat="55.713715" lon="26.271374">
<ele>159.525513</ele>
<time>2010-07-18T08:41:49Z</time>
<desc>lat.=55.713715, lon.=26.271374, Alt.=159.525513m. Speed=9.648000m/h.</desc>
<speed>2.680000</speed>
</trkpt>
<trkpt lat="55.713707" lon="26.271414">
<ele>159.943481</ele>
<time>2010-07-18T08:41:50Z</time>
<desc>lat.=55.713707, lon.=26.271414, Alt.=159.943481m. Speed=9.720000m/h.</desc>
<speed>2.700000</speed>
</trkpt>
<trkpt lat="55.713696" lon="26.271452">
<ele>159.650513</ele>
<time>2010-07-18T08:41:51Z</time>
<desc>lat.=55.713696, lon.=26.271452, Alt.=159.650513m. Speed=9.936000m/h.</desc>
<speed>2.760000</speed>
</trkpt>
<trkpt lat="55.713688" lon="26.271494">
<ele>159.662231</ele>
<time>2010-07-18T08:41:52Z</time>
<desc>lat.=55.713688, lon.=26.271494, Alt.=159.662231m. Speed=10.116000m/h.</desc>
<speed>2.810000</speed>
</trkpt>
<trkpt lat="55.713676" lon="26.271536">
<ele>159.670044</ele>
<time>2010-07-18T08:41:53Z</time>
<desc>lat.=55.713676, lon.=26.271536, Alt.=159.670044m. Speed=10.116000m/h.</desc>
<speed>2.810000</speed>
</trkpt>
<trkpt lat="55.713665" lon="26.271578">
<ele>159.537231</ele>
<time>2010-07-18T08:41:54Z</time>
<desc>lat.=55.713665, lon.=26.271578, Alt.=159.537231m. Speed=9.756000m/h.</desc>
<speed>2.710000</speed>
</trkpt>
<trkpt lat="55.713654" lon="26.271618">
<ele>159.545044</ele>
<time>2010-07-18T08:41:55Z</time>
<desc>lat.=55.713654, lon.=26.271618, Alt.=159.545044m. Speed=9.828000m/h.</desc>
<speed>2.730000</speed>
</trkpt>
<trkpt lat="55.713642" lon="26.271660">
<ele>159.564575</ele>
<time>2010-07-18T08:41:56Z</time>
<desc>lat.=55.713642, lon.=26.271660, Alt.=159.564575m. Speed=10.152000m/h.</desc>
<speed>2.820000</speed>
</trkpt>
<trkpt lat="55.713634" lon="26.271702">
<ele>159.681763</ele>
<time>2010-07-18T08:41:57Z</time>
<desc>lat.=55.713634, lon.=26.271702, Alt.=159.681763m. Speed=9.612000m/h.</desc>
<speed>2.670000</speed>
</trkpt>
<trkpt lat="55.713623" lon="26.271748">
<ele>159.767700</ele>
<time>2010-07-18T08:41:58Z</time>
<desc>lat.=55.713623, lon.=26.271748, Alt.=159.767700m. Speed=10.404000m/h.</desc>
<speed>2.890000</speed>
</trkpt>
<trkpt lat="55.713612" lon="26.271790">
<ele>159.838013</ele>
<time>2010-07-18T08:41:59Z</time>
<desc>lat.=55.713612, lon.=26.271790, Alt.=159.838013m. Speed=10.656000m/h.</desc>
<speed>2.960000</speed>
</trkpt>
<trkpt lat="55.713608" lon="26.271835">
<ele>160.974731</ele>
<time>2010-07-18T08:42:00Z</time>
<desc>lat.=55.713608, lon.=26.271835, Alt.=160.974731m. Speed=9.072000m/h.</desc>
<speed>2.520000</speed>
</trkpt>
<trkpt lat="55.713604" lon="26.271873">
<ele>161.111450</ele>
<time>2010-07-18T08:42:01Z</time>
<desc>lat.=55.713604, lon.=26.271873, Alt.=161.111450m. Speed=9.432000m/h.</desc>
<speed>2.620000</speed>
</trkpt>
<trkpt lat="55.713593" lon="26.271912">
<ele>161.150513</ele>
<time>2010-07-18T08:42:02Z</time>
<desc>lat.=55.713593, lon.=26.271912, Alt.=161.150513m. Speed=7.740000m/h.</desc>
<speed>2.150000</speed>
</trkpt>
<trkpt lat="55.713585" lon="26.271936">
<ele>161.130981</ele>
<time>2010-07-18T08:42:03Z</time>
<desc>lat.=55.713585, lon.=26.271936, Alt.=161.130981m. Speed=6.192000m/h.</desc>
<speed>1.720000</speed>
</trkpt>
<trkpt lat="55.713573" lon="26.271961">
<ele>161.459106</ele>
<time>2010-07-18T08:42:04Z</time>
<desc>lat.=55.713573, lon.=26.271961, Alt.=161.459106m. Speed=6.948000m/h.</desc>
<speed>1.930000</speed>
</trkpt>
<trkpt lat="55.713566" lon="26.271994">
<ele>161.736450</ele>
<time>2010-07-18T08:42:05Z</time>
<desc>lat.=55.713566, lon.=26.271994, Alt.=161.736450m. Speed=7.920000m/h.</desc>
<speed>2.200000</speed>
</trkpt>
<trkpt lat="55.713558" lon="26.272030">
<ele>161.947388</ele>
<time>2010-07-18T08:42:06Z</time>
<desc>lat.=55.713558, lon.=26.272030, Alt.=161.947388m. Speed=8.532000m/h.</desc>
<speed>2.370000</speed>
</trkpt>
<trkpt lat="55.713547" lon="26.272066">
<ele>161.857544</ele>
<time>2010-07-18T08:42:07Z</time>
<desc>lat.=55.713547, lon.=26.272066, Alt.=161.857544m. Speed=8.676000m/h.</desc>
<speed>2.410000</speed>
</trkpt>
<trkpt lat="55.713535" lon="26.272102">
<ele>162.080200</ele>
<time>2010-07-18T08:42:08Z</time>
<desc>lat.=55.713535, lon.=26.272102, Alt.=162.080200m. Speed=8.856000m/h.</desc>
<speed>2.460000</speed>
</trkpt>
<trkpt lat="55.713528" lon="26.272139">
<ele>162.201294</ele>
<time>2010-07-18T08:42:09Z</time>
<desc>lat.=55.713528, lon.=26.272139, Alt.=162.201294m. Speed=8.820000m/h.</desc>
<speed>2.450000</speed>
</trkpt>
<trkpt lat="55.713520" lon="26.272177">
<ele>162.322388</ele>
<time>2010-07-18T08:42:10Z</time>
<desc>lat.=55.713520, lon.=26.272177, Alt.=162.322388m. Speed=8.856000m/h.</desc>
<speed>2.460000</speed>
</trkpt>
<trkpt lat="55.713512" lon="26.272215">
<ele>162.466919</ele>
<time>2010-07-18T08:42:11Z</time>
<desc>lat.=55.713512, lon.=26.272215, Alt.=162.466919m. Speed=9.072000m/h.</desc>
<speed>2.520000</speed>
</trkpt>
<trkpt lat="55.713505" lon="26.272255">
<ele>162.568481</ele>
<time>2010-07-18T08:42:12Z</time>
<desc>lat.=55.713505, lon.=26.272255, Alt.=162.568481m. Speed=9.396000m/h.</desc>
<speed>2.610000</speed>
</trkpt>
<trkpt lat="55.713493" lon="26.272297">
<ele>162.759888</ele>
<time>2010-07-18T08:42:13Z</time>
<desc>lat.=55.713493, lon.=26.272297, Alt.=162.759888m. Speed=9.468000m/h.</desc>
<speed>2.630000</speed>
</trkpt>
<trkpt lat="55.713486" lon="26.272337">
<ele>162.830200</ele>
<time>2010-07-18T08:42:14Z</time>
<desc>lat.=55.713486, lon.=26.272337, Alt.=162.830200m. Speed=9.504000m/h.</desc>
<speed>2.640000</speed>
</trkpt>
<trkpt lat="55.713467" lon="26.272377">
<ele>162.463013</ele>
<time>2010-07-18T08:42:15Z</time>
<desc>lat.=55.713467, lon.=26.272377, Alt.=162.463013m. Speed=10.116000m/h.</desc>
<speed>2.810000</speed>
</trkpt>
<trkpt lat="55.713451" lon="26.272413">
<ele>162.158325</ele>
<time>2010-07-18T08:42:16Z</time>
<desc>lat.=55.713451, lon.=26.272413, Alt.=162.158325m. Speed=9.432000m/h.</desc>
<speed>2.620000</speed>
</trkpt>
<trkpt lat="55.713440" lon="26.272448">
<ele>161.861450</ele>
<time>2010-07-18T08:42:17Z</time>
<desc>lat.=55.713440, lon.=26.272448, Alt.=161.861450m. Speed=9.756000m/h.</desc>
<speed>2.710000</speed>
</trkpt>
<trkpt lat="55.713428" lon="26.272486">
<ele>161.791138</ele>
<time>2010-07-18T08:42:18Z</time>
<desc>lat.=55.713428, lon.=26.272486, Alt.=161.791138m. Speed=9.540000m/h.</desc>
<speed>2.650000</speed>
</trkpt>
<trkpt lat="55.713421" lon="26.272526">
<ele>162.322388</ele>
<time>2010-07-18T08:42:19Z</time>
<desc>lat.=55.713421, lon.=26.272526, Alt.=162.322388m. Speed=9.540000m/h.</desc>
<speed>2.650000</speed>
</trkpt>
<trkpt lat="55.713413" lon="26.272564">
<ele>162.377075</ele>
<time>2010-07-18T08:42:20Z</time>
<desc>lat.=55.713413, lon.=26.272564, Alt.=162.377075m. Speed=9.504000m/h.</desc>
<speed>2.640000</speed>
</trkpt>
<trkpt lat="55.713402" lon="26.272604">
<ele>162.318481</ele>
<time>2010-07-18T08:42:21Z</time>
<desc>lat.=55.713402, lon.=26.272604, Alt.=162.318481m. Speed=9.684000m/h.</desc>
<speed>2.690000</speed>
</trkpt>
<trkpt lat="55.713394" lon="26.272644">
<ele>162.295044</ele>
<time>2010-07-18T08:42:22Z</time>
<desc>lat.=55.713394, lon.=26.272644, Alt.=162.295044m. Speed=9.720000m/h.</desc>
<speed>2.700000</speed>
</trkpt>
<trkpt lat="55.713383" lon="26.272682">
<ele>162.373169</ele>
<time>2010-07-18T08:42:23Z</time>
<desc>lat.=55.713383, lon.=26.272682, Alt.=162.373169m. Speed=9.864000m/h.</desc>
<speed>2.740000</speed>
</trkpt>
<trkpt lat="55.713375" lon="26.272722">
<ele>162.552856</ele>
<time>2010-07-18T08:42:24Z</time>
<desc>lat.=55.713375, lon.=26.272722, Alt.=162.552856m. Speed=9.720000m/h.</desc>
<speed>2.700000</speed>
</trkpt>
<trkpt lat="55.713367" lon="26.272760">
<ele>162.627075</ele>
<time>2010-07-18T08:42:25Z</time>
<desc>lat.=55.713367, lon.=26.272760, Alt.=162.627075m. Speed=9.792000m/h.</desc>
<speed>2.720000</speed>
</trkpt>
<trkpt lat="55.713356" lon="26.272799">
<ele>162.697388</ele>
<time>2010-07-18T08:42:26Z</time>
<desc>lat.=55.713356, lon.=26.272799, Alt.=162.697388m. Speed=9.972000m/h.</desc>
<speed>2.770000</speed>
</trkpt>
<trkpt lat="55.713348" lon="26.272839">
<ele>162.943481</ele>
<time>2010-07-18T08:42:27Z</time>
<desc>lat.=55.713348, lon.=26.272839, Alt.=162.943481m. Speed=9.612000m/h.</desc>
<speed>2.670000</speed>
</trkpt>
<trkpt lat="55.713341" lon="26.272877">
<ele>163.162231</ele>
<time>2010-07-18T08:42:28Z</time>
<desc>lat.=55.713341, lon.=26.272877, Alt.=163.162231m. Speed=9.576000m/h.</desc>
<speed>2.660000</speed>
</trkpt>
<trkpt lat="55.713329" lon="26.272917">
<ele>163.369263</ele>
<time>2010-07-18T08:42:29Z</time>
<desc>lat.=55.713329, lon.=26.272917, Alt.=163.369263m. Speed=9.720000m/h.</desc>
<speed>2.700000</speed>
</trkpt>
<trkpt lat="55.713322" lon="26.272955">
<ele>163.564575</ele>
<time>2010-07-18T08:42:30Z</time>
<desc>lat.=55.713322, lon.=26.272955, Alt.=163.564575m. Speed=9.720000m/h.</desc>
<speed>2.700000</speed>
</trkpt>
<trkpt lat="55.713314" lon="26.272991">
<ele>163.404419</ele>
<time>2010-07-18T08:42:31Z</time>
<desc>lat.=55.713314, lon.=26.272991, Alt.=163.404419m. Speed=9.396000m/h.</desc>
<speed>2.610000</speed>
</trkpt>
<trkpt lat="55.713306" lon="26.273029">
<ele>163.588013</ele>
<time>2010-07-18T08:42:32Z</time>
<desc>lat.=55.713306, lon.=26.273029, Alt.=163.588013m. Speed=9.576000m/h.</desc>
<speed>2.660000</speed>
</trkpt>
<trkpt lat="55.713299" lon="26.273069">
<ele>163.744263</ele>
<time>2010-07-18T08:42:33Z</time>
<desc>lat.=55.713299, lon.=26.273069, Alt.=163.744263m. Speed=9.576000m/h.</desc>
<speed>2.660000</speed>
</trkpt>
<trkpt lat="55.713291" lon="26.273106">
<ele>163.900513</ele>
<time>2010-07-18T08:42:34Z</time>
<desc>lat.=55.713291, lon.=26.273106, Alt.=163.900513m. Speed=9.576000m/h.</desc>
<speed>2.660000</speed>
</trkpt>
<trkpt lat="55.713284" lon="26.273151">
<ele>164.189575</ele>
<time>2010-07-18T08:42:35Z</time>
<desc>lat.=55.713284, lon.=26.273151, Alt.=164.189575m. Speed=9.684000m/h.</desc>
<speed>2.690000</speed>
</trkpt>
<trkpt lat="55.713276" lon="26.273190">
<ele>164.326294</ele>
<time>2010-07-18T08:42:36Z</time>
<desc>lat.=55.713276, lon.=26.273190, Alt.=164.326294m. Speed=9.144000m/h.</desc>
<speed>2.540000</speed>
</trkpt>
<trkpt lat="55.713272" lon="26.273228">
<ele>164.463013</ele>
<time>2010-07-18T08:42:37Z</time>
<desc>lat.=55.713272, lon.=26.273228, Alt.=164.463013m. Speed=9.324000m/h.</desc>
<speed>2.590000</speed>
</trkpt>
<trkpt lat="55.713264" lon="26.273268">
<ele>164.642700</ele>
<time>2010-07-18T08:42:38Z</time>
<desc>lat.=55.713264, lon.=26.273268, Alt.=164.642700m. Speed=9.792000m/h.</desc>
<speed>2.720000</speed>
</trkpt>
<trkpt lat="55.713257" lon="26.273308">
<ele>165.084106</ele>
<time>2010-07-18T08:42:39Z</time>
<desc>lat.=55.713257, lon.=26.273308, Alt.=165.084106m. Speed=9.972000m/h.</desc>
<speed>2.770000</speed>
</trkpt>
<trkpt lat="55.713245" lon="26.273346">
<ele>165.388794</ele>
<time>2010-07-18T08:42:40Z</time>
<desc>lat.=55.713245, lon.=26.273346, Alt.=165.388794m. Speed=9.576000m/h.</desc>
<speed>2.660000</speed>
</trkpt>
<trkpt lat="55.713234" lon="26.273386">
<ele>165.560669</ele>
<time>2010-07-18T08:42:41Z</time>
<desc>lat.=55.713234, lon.=26.273386, Alt.=165.560669m. Speed=9.216000m/h.</desc>
<speed>2.560000</speed>
</trkpt>
<trkpt lat="55.713226" lon="26.273422">
<ele>165.630981</ele>
<time>2010-07-18T08:42:42Z</time>
<desc>lat.=55.713226, lon.=26.273422, Alt.=165.630981m. Speed=9.360000m/h.</desc>
<speed>2.600000</speed>
</trkpt>
<trkpt lat="55.713223" lon="26.273462">
<ele>166.564575</ele>
<time>2010-07-18T08:42:43Z</time>
<desc>lat.=55.713223, lon.=26.273462, Alt.=166.564575m. Speed=9.576000m/h.</desc>
<speed>2.660000</speed>
</trkpt>
<trkpt lat="55.713211" lon="26.273502">
<ele>166.509888</ele>
<time>2010-07-18T08:42:44Z</time>
<desc>lat.=55.713211, lon.=26.273502, Alt.=166.509888m. Speed=9.720000m/h.</desc>
<speed>2.700000</speed>
</trkpt>
<trkpt lat="55.713203" lon="26.273542">
<ele>166.615356</ele>
<time>2010-07-18T08:42:45Z</time>
<desc>lat.=55.713203, lon.=26.273542, Alt.=166.615356m. Speed=9.864000m/h.</desc>
<speed>2.740000</speed>
</trkpt>
<trkpt lat="55.713192" lon="26.273582">
<ele>166.623169</ele>
<time>2010-07-18T08:42:46Z</time>
<desc>lat.=55.713192, lon.=26.273582, Alt.=166.623169m. Speed=9.828000m/h.</desc>
<speed>2.730000</speed>
</trkpt>
<trkpt lat="55.713184" lon="26.273624">
<ele>166.896606</ele>
<time>2010-07-18T08:42:47Z</time>
<desc>lat.=55.713184, lon.=26.273624, Alt.=166.896606m. Speed=9.972000m/h.</desc>
<speed>2.770000</speed>
</trkpt>
<trkpt lat="55.713173" lon="26.273666">
<ele>167.162231</ele>
<time>2010-07-18T08:42:48Z</time>
<desc>lat.=55.713173, lon.=26.273666, Alt.=167.162231m. Speed=10.116000m/h.</desc>
<speed>2.810000</speed>
</trkpt>
<trkpt lat="55.713165" lon="26.273706">
<ele>167.177856</ele>
<time>2010-07-18T08:42:49Z</time>
<desc>lat.=55.713165, lon.=26.273706, Alt.=167.177856m. Speed=9.936000m/h.</desc>
<speed>2.760000</speed>
</trkpt>
<trkpt lat="55.713154" lon="26.273748">
<ele>167.181763</ele>
<time>2010-07-18T08:42:50Z</time>
<desc>lat.=55.713154, lon.=26.273748, Alt.=167.181763m. Speed=10.296000m/h.</desc>
<speed>2.860000</speed>
</trkpt>
<trkpt lat="55.713139" lon="26.273792">
<ele>167.041138</ele>
<time>2010-07-18T08:42:51Z</time>
<desc>lat.=55.713139, lon.=26.273792, Alt.=167.041138m. Speed=10.116000m/h.</desc>
<speed>2.810000</speed>
</trkpt>
<trkpt lat="55.713127" lon="26.273834">
<ele>167.099731</ele>
<time>2010-07-18T08:42:52Z</time>
<desc>lat.=55.713127, lon.=26.273834, Alt.=167.099731m. Speed=10.008000m/h.</desc>
<speed>2.780000</speed>
</trkpt>
<trkpt lat="55.713116" lon="26.273874">
<ele>167.248169</ele>
<time>2010-07-18T08:42:53Z</time>
<desc>lat.=55.713116, lon.=26.273874, Alt.=167.248169m. Speed=10.152000m/h.</desc>
<speed>2.820000</speed>
</trkpt>
<trkpt lat="55.713104" lon="26.273916">
<ele>167.224731</ele>
<time>2010-07-18T08:42:54Z</time>
<desc>lat.=55.713104, lon.=26.273916, Alt.=167.224731m. Speed=9.972000m/h.</desc>
<speed>2.770000</speed>
</trkpt>
<trkpt lat="55.713093" lon="26.273954">
<ele>167.205200</ele>
<time>2010-07-18T08:42:55Z</time>
<desc>lat.=55.713093, lon.=26.273954, Alt.=167.205200m. Speed=9.684000m/h.</desc>
<speed>2.690000</speed>
</trkpt>
<trkpt lat="55.713081" lon="26.273991">
<ele>167.173950</ele>
<time>2010-07-18T08:42:56Z</time>
<desc>lat.=55.713081, lon.=26.273991, Alt.=167.173950m. Speed=8.604000m/h.</desc>
<speed>2.390000</speed>
</trkpt>
<trkpt lat="55.713070" lon="26.274025">
<ele>167.130981</ele>
<time>2010-07-18T08:42:57Z</time>
<desc>lat.=55.713070, lon.=26.274025, Alt.=167.130981m. Speed=7.632000m/h.</desc>
<speed>2.120000</speed>
</trkpt>
<trkpt lat="55.713066" lon="26.274055">
<ele>167.517700</ele>
<time>2010-07-18T08:42:58Z</time>
<desc>lat.=55.713066, lon.=26.274055, Alt.=167.517700m. Speed=6.876000m/h.</desc>
<speed>1.910000</speed>
</trkpt>
<trkpt lat="55.713062" lon="26.274086">
<ele>168.107544</ele>
<time>2010-07-18T08:42:59Z</time>
<desc>lat.=55.713062, lon.=26.274086, Alt.=168.107544m. Speed=6.516000m/h.</desc>
<speed>1.810000</speed>
</trkpt>
<trkpt lat="55.713062" lon="26.274113">
<ele>168.295044</ele>
<time>2010-07-18T08:43:00Z</time>
<desc>lat.=55.713062, lon.=26.274113, Alt.=168.295044m. Speed=5.940000m/h.</desc>
<speed>1.650000</speed>
</trkpt>
<trkpt lat="55.713058" lon="26.274141">
<ele>168.384888</ele>
<time>2010-07-18T08:43:01Z</time>
<desc>lat.=55.713058, lon.=26.274141, Alt.=168.384888m. Speed=7.452000m/h.</desc>
<speed>2.070000</speed>
</trkpt>
<trkpt lat="55.713051" lon="26.274172">
<ele>168.498169</ele>
<time>2010-07-18T08:43:02Z</time>
<desc>lat.=55.713051, lon.=26.274172, Alt.=168.498169m. Speed=8.784000m/h.</desc>
<speed>2.440000</speed>
</trkpt>
<trkpt lat="55.713039" lon="26.274208">
<ele>168.670044</ele>
<time>2010-07-18T08:43:03Z</time>
<desc>lat.=55.713039, lon.=26.274208, Alt.=168.670044m. Speed=9.504000m/h.</desc>
<speed>2.640000</speed>
</trkpt>
<trkpt lat="55.713028" lon="26.274246">
<ele>168.826294</ele>
<time>2010-07-18T08:43:04Z</time>
<desc>lat.=55.713028, lon.=26.274246, Alt.=168.826294m. Speed=10.080000m/h.</desc>
<speed>2.800000</speed>
</trkpt>
<trkpt lat="55.713020" lon="26.274281">
<ele>169.060669</ele>
<time>2010-07-18T08:43:05Z</time>
<desc>lat.=55.713020, lon.=26.274281, Alt.=169.060669m. Speed=10.080000m/h.</desc>
<speed>2.800000</speed>
</trkpt>
<trkpt lat="55.713009" lon="26.274319">
<ele>169.369263</ele>
<time>2010-07-18T08:43:06Z</time>
<desc>lat.=55.713009, lon.=26.274319, Alt.=169.369263m. Speed=9.828000m/h.</desc>
<speed>2.730000</speed>
</trkpt>
<trkpt lat="55.713001" lon="26.274353">
<ele>169.560669</ele>
<time>2010-07-18T08:43:07Z</time>
<desc>lat.=55.713001, lon.=26.274353, Alt.=169.560669m. Speed=9.756000m/h.</desc>
<speed>2.710000</speed>
</trkpt>
<trkpt lat="55.712994" lon="26.274389">
<ele>169.877075</ele>
<time>2010-07-18T08:43:08Z</time>
<desc>lat.=55.712994, lon.=26.274389, Alt.=169.877075m. Speed=9.828000m/h.</desc>
<speed>2.730000</speed>
</trkpt>
<trkpt lat="55.712986" lon="26.274427">
<ele>170.115356</ele>
<time>2010-07-18T08:43:09Z</time>
<desc>lat.=55.712986, lon.=26.274427, Alt.=170.115356m. Speed=9.864000m/h.</desc>
<speed>2.740000</speed>
</trkpt>
<trkpt lat="55.712975" lon="26.274466">
<ele>170.224731</ele>
<time>2010-07-18T08:43:10Z</time>
<desc>lat.=55.712975, lon.=26.274466, Alt.=170.224731m. Speed=9.792000m/h.</desc>
<speed>2.720000</speed>
</trkpt>
<trkpt lat="55.712967" lon="26.274506">
<ele>170.302856</ele>
<time>2010-07-18T08:43:11Z</time>
<desc>lat.=55.712967, lon.=26.274506, Alt.=170.302856m. Speed=9.900000m/h.</desc>
<speed>2.750000</speed>
</trkpt>
<trkpt lat="55.712955" lon="26.274548">
<ele>170.209106</ele>
<time>2010-07-18T08:43:12Z</time>
<desc>lat.=55.712955, lon.=26.274548, Alt.=170.209106m. Speed=9.864000m/h.</desc>
<speed>2.740000</speed>
</trkpt>
<trkpt lat="55.712948" lon="26.274588">
<ele>170.275513</ele>
<time>2010-07-18T08:43:13Z</time>
<desc>lat.=55.712948, lon.=26.274588, Alt.=170.275513m. Speed=9.936000m/h.</desc>
<speed>2.760000</speed>
</trkpt>
<trkpt lat="55.712936" lon="26.274630">
<ele>170.361450</ele>
<time>2010-07-18T08:43:14Z</time>
<desc>lat.=55.712936, lon.=26.274630, Alt.=170.361450m. Speed=10.008000m/h.</desc>
<speed>2.780000</speed>
</trkpt>
<trkpt lat="55.712929" lon="26.274673">
<ele>170.463013</ele>
<time>2010-07-18T08:43:15Z</time>
<desc>lat.=55.712929, lon.=26.274673, Alt.=170.463013m. Speed=10.152000m/h.</desc>
<speed>2.820000</speed>
</trkpt>
<trkpt lat="55.712914" lon="26.274717">
<ele>170.466919</ele>
<time>2010-07-18T08:43:16Z</time>
<desc>lat.=55.712914, lon.=26.274717, Alt.=170.466919m. Speed=10.476000m/h.</desc>
<speed>2.910000</speed>
</trkpt>
<trkpt lat="55.712902" lon="26.274759">
<ele>170.181763</ele>
<time>2010-07-18T08:43:17Z</time>
<desc>lat.=55.712902, lon.=26.274759, Alt.=170.181763m. Speed=10.476000m/h.</desc>
<speed>2.910000</speed>
</trkpt>
<trkpt lat="55.712891" lon="26.274807">
<ele>170.224731</ele>
<time>2010-07-18T08:43:18Z</time>
<desc>lat.=55.712891, lon.=26.274807, Alt.=170.224731m. Speed=10.548000m/h.</desc>
<speed>2.930000</speed>
</trkpt>
<trkpt lat="55.712883" lon="26.274853">
<ele>170.463013</ele>
<time>2010-07-18T08:43:19Z</time>
<desc>lat.=55.712883, lon.=26.274853, Alt.=170.463013m. Speed=11.412000m/h.</desc>
<speed>3.170000</speed>
</trkpt>
<trkpt lat="55.712872" lon="26.274900">
<ele>170.556763</ele>
<time>2010-07-18T08:43:20Z</time>
<desc>lat.=55.712872, lon.=26.274900, Alt.=170.556763m. Speed=11.664000m/h.</desc>
<speed>3.240000</speed>
</trkpt>
<trkpt lat="55.712860" lon="26.274948">
<ele>170.545044</ele>
<time>2010-07-18T08:43:21Z</time>
<desc>lat.=55.712860, lon.=26.274948, Alt.=170.545044m. Speed=11.844000m/h.</desc>
<speed>3.290000</speed>
</trkpt>
<trkpt lat="55.712845" lon="26.274994">
<ele>170.841919</ele>
<time>2010-07-18T08:43:22Z</time>
<desc>lat.=55.712845, lon.=26.274994, Alt.=170.841919m. Speed=12.096000m/h.</desc>
<speed>3.360000</speed>
</trkpt>
<trkpt lat="55.712833" lon="26.275043">
<ele>170.978638</ele>
<time>2010-07-18T08:43:23Z</time>
<desc>lat.=55.712833, lon.=26.275043, Alt.=170.978638m. Speed=12.132000m/h.</desc>
<speed>3.370000</speed>
</trkpt>
<trkpt lat="55.712822" lon="26.275091">
<ele>171.130981</ele>
<time>2010-07-18T08:43:24Z</time>
<desc>lat.=55.712822, lon.=26.275091, Alt.=171.130981m. Speed=12.204000m/h.</desc>
<speed>3.390000</speed>
</trkpt>
<trkpt lat="55.712811" lon="26.275141">
<ele>171.341919</ele>
<time>2010-07-18T08:43:25Z</time>
<desc>lat.=55.712811, lon.=26.275141, Alt.=171.341919m. Speed=12.204000m/h.</desc>
<speed>3.390000</speed>
</trkpt>
<trkpt lat="55.712799" lon="26.275192">
<ele>171.490356</ele>
<time>2010-07-18T08:43:26Z</time>
<desc>lat.=55.712799, lon.=26.275192, Alt.=171.490356m. Speed=12.456000m/h.</desc>
<speed>3.460000</speed>
</trkpt>
<trkpt lat="55.712784" lon="26.275240">
<ele>171.521606</ele>
<time>2010-07-18T08:43:27Z</time>
<desc>lat.=55.712784, lon.=26.275240, Alt.=171.521606m. Speed=12.276000m/h.</desc>
<speed>3.410000</speed>
</trkpt>
<trkpt lat="55.712772" lon="26.275291">
<ele>171.298950</ele>
<time>2010-07-18T08:43:28Z</time>
<desc>lat.=55.712772, lon.=26.275291, Alt.=171.298950m. Speed=12.312000m/h.</desc>
<speed>3.420000</speed>
</trkpt>
<trkpt lat="55.712761" lon="26.275341">
<ele>171.396606</ele>
<time>2010-07-18T08:43:29Z</time>
<desc>lat.=55.712761, lon.=26.275341, Alt.=171.396606m. Speed=12.492000m/h.</desc>
<speed>3.470000</speed>
</trkpt>
<trkpt lat="55.712746" lon="26.275393">
<ele>171.494263</ele>
<time>2010-07-18T08:43:30Z</time>
<desc>lat.=55.712746, lon.=26.275393, Alt.=171.494263m. Speed=13.176000m/h.</desc>
<speed>3.660000</speed>
</trkpt>
<trkpt lat="55.712734" lon="26.275444">
<ele>171.482544</ele>
<time>2010-07-18T08:43:31Z</time>
<desc>lat.=55.712734, lon.=26.275444, Alt.=171.482544m. Speed=13.356000m/h.</desc>
<speed>3.710000</speed>
</trkpt>
<trkpt lat="55.712719" lon="26.275497">
<ele>171.603638</ele>
<time>2010-07-18T08:43:32Z</time>
<desc>lat.=55.712719, lon.=26.275497, Alt.=171.603638m. Speed=13.356000m/h.</desc>
<speed>3.710000</speed>
</trkpt>
<trkpt lat="55.712704" lon="26.275551">
<ele>171.591919</ele>
<time>2010-07-18T08:43:33Z</time>
<desc>lat.=55.712704, lon.=26.275551, Alt.=171.591919m. Speed=13.212000m/h.</desc>
<speed>3.670000</speed>
</trkpt>
<trkpt lat="55.712692" lon="26.275606">
<ele>171.713013</ele>
<time>2010-07-18T08:43:34Z</time>
<desc>lat.=55.712692, lon.=26.275606, Alt.=171.713013m. Speed=13.212000m/h.</desc>
<speed>3.670000</speed>
</trkpt>
<trkpt lat="55.712681" lon="26.275660">
<ele>171.705200</ele>
<time>2010-07-18T08:43:35Z</time>
<desc>lat.=55.712681, lon.=26.275660, Alt.=171.705200m. Speed=12.528000m/h.</desc>
<speed>3.480000</speed>
</trkpt>
<trkpt lat="55.712669" lon="26.275711">
<ele>171.795044</ele>
<time>2010-07-18T08:43:36Z</time>
<desc>lat.=55.712669, lon.=26.275711, Alt.=171.795044m. Speed=13.104000m/h.</desc>
<speed>3.640000</speed>
</trkpt>
<trkpt lat="55.712654" lon="26.275763">
<ele>171.857544</ele>
<time>2010-07-18T08:43:37Z</time>
<desc>lat.=55.712654, lon.=26.275763, Alt.=171.857544m. Speed=13.464000m/h.</desc>
<speed>3.740000</speed>
</trkpt>
<trkpt lat="55.712639" lon="26.275818">
<ele>171.806763</ele>
<time>2010-07-18T08:43:38Z</time>
<desc>lat.=55.712639, lon.=26.275818, Alt.=171.806763m. Speed=14.256000m/h.</desc>
<speed>3.960000</speed>
</trkpt>
<trkpt lat="55.712620" lon="26.275873">
<ele>171.423950</ele>
<time>2010-07-18T08:43:39Z</time>
<desc>lat.=55.712620, lon.=26.275873, Alt.=171.423950m. Speed=14.256000m/h.</desc>
<speed>3.960000</speed>
</trkpt>
<trkpt lat="55.712601" lon="26.275928">
<ele>171.295044</ele>
<time>2010-07-18T08:43:40Z</time>
<desc>lat.=55.712601, lon.=26.275928, Alt.=171.295044m. Speed=13.176000m/h.</desc>
<speed>3.660000</speed>
</trkpt>
<trkpt lat="55.712589" lon="26.275984">
<ele>171.361450</ele>
<time>2010-07-18T08:43:41Z</time>
<desc>lat.=55.712589, lon.=26.275984, Alt.=171.361450m. Speed=12.744000m/h.</desc>
<speed>3.540000</speed>
</trkpt>
<trkpt lat="55.712574" lon="26.276035">
<ele>171.213013</ele>
<time>2010-07-18T08:43:42Z</time>
<desc>lat.=55.712574, lon.=26.276035, Alt.=171.213013m. Speed=12.564000m/h.</desc>
<speed>3.490000</speed>
</trkpt>
<trkpt lat="55.712563" lon="26.276091">
<ele>171.134888</ele>
<time>2010-07-18T08:43:43Z</time>
<desc>lat.=55.712563, lon.=26.276091, Alt.=171.134888m. Speed=13.500000m/h.</desc>
<speed>3.750000</speed>
</trkpt>
<trkpt lat="55.712551" lon="26.276148">
<ele>171.068481</ele>
<time>2010-07-18T08:43:44Z</time>
<desc>lat.=55.712551, lon.=26.276148, Alt.=171.068481m. Speed=14.328000m/h.</desc>
<speed>3.980000</speed>
</trkpt>
<trkpt lat="55.712536" lon="26.276207">
<ele>171.021606</ele>
<time>2010-07-18T08:43:45Z</time>
<desc>lat.=55.712536, lon.=26.276207, Alt.=171.021606m. Speed=14.976000m/h.</desc>
<speed>4.160000</speed>
</trkpt>
<trkpt lat="55.712517" lon="26.276270">
<ele>171.025513</ele>
<time>2010-07-18T08:43:46Z</time>
<desc>lat.=55.712517, lon.=26.276270, Alt.=171.025513m. Speed=15.912000m/h.</desc>
<speed>4.420000</speed>
</trkpt>
<trkpt lat="55.712502" lon="26.276339">
<ele>171.064575</ele>
<time>2010-07-18T08:43:47Z</time>
<desc>lat.=55.712502, lon.=26.276339, Alt.=171.064575m. Speed=17.172001m/h.</desc>
<speed>4.770000</speed>
</trkpt>
<trkpt lat="55.712482" lon="26.276407">
<ele>171.099731</ele>
<time>2010-07-18T08:43:48Z</time>
<desc>lat.=55.712482, lon.=26.276407, Alt.=171.099731m. Speed=16.992001m/h.</desc>
<speed>4.720000</speed>
</trkpt>
<trkpt lat="55.712467" lon="26.276476">
<ele>170.845825</ele>
<time>2010-07-18T08:43:49Z</time>
<desc>lat.=55.712467, lon.=26.276476, Alt.=170.845825m. Speed=16.128000m/h.</desc>
<speed>4.480000</speed>
</trkpt>
<trkpt lat="55.712467" lon="26.276558">
<ele>172.759888</ele>
<time>2010-07-18T08:43:50Z</time>
<desc>lat.=55.712467, lon.=26.276558, Alt.=172.759888m. Speed=15.696000m/h.</desc>
<speed>4.360000</speed>
</trkpt>
<trkpt lat="55.712467" lon="26.276634">
<ele>174.365356</ele>
<time>2010-07-18T08:43:51Z</time>
<desc>lat.=55.712467, lon.=26.276634, Alt.=174.365356m. Speed=16.236000m/h.</desc>
<speed>4.510000</speed>
</trkpt>
<trkpt lat="55.712456" lon="26.276701">
<ele>174.849731</ele>
<time>2010-07-18T08:43:52Z</time>
<desc>lat.=55.712456, lon.=26.276701, Alt.=174.849731m. Speed=17.028000m/h.</desc>
<speed>4.730000</speed>
</trkpt>
<trkpt lat="55.712440" lon="26.276773">
<ele>175.232544</ele>
<time>2010-07-18T08:43:53Z</time>
<desc>lat.=55.712440, lon.=26.276773, Alt.=175.232544m. Speed=17.747999m/h.</desc>
<speed>4.930000</speed>
</trkpt>
<trkpt lat="55.712425" lon="26.276848">
<ele>175.482544</ele>
<time>2010-07-18T08:43:54Z</time>
<desc>lat.=55.712425, lon.=26.276848, Alt.=175.482544m. Speed=18.684000m/h.</desc>
<speed>5.190000</speed>
</trkpt>
<trkpt lat="55.712406" lon="26.276924">
<ele>175.740356</ele>
<time>2010-07-18T08:43:55Z</time>
<desc>lat.=55.712406, lon.=26.276924, Alt.=175.740356m. Speed=18.143999m/h.</desc>
<speed>5.040000</speed>
</trkpt>
<trkpt lat="55.712391" lon="26.277000">
<ele>176.084106</ele>
<time>2010-07-18T08:43:56Z</time>
<desc>lat.=55.712391, lon.=26.277000, Alt.=176.084106m. Speed=18.576000m/h.</desc>
<speed>5.160000</speed>
</trkpt>
<trkpt lat="55.712372" lon="26.277075">
<ele>176.099731</ele>
<time>2010-07-18T08:43:57Z</time>
<desc>lat.=55.712372, lon.=26.277075, Alt.=176.099731m. Speed=18.288000m/h.</desc>
<speed>5.080000</speed>
</trkpt>
<trkpt lat="55.712357" lon="26.277149">
<ele>176.099731</ele>
<time>2010-07-18T08:43:58Z</time>
<desc>lat.=55.712357, lon.=26.277149, Alt.=176.099731m. Speed=18.827999m/h.</desc>
<speed>5.230000</speed>
</trkpt>
<trkpt lat="55.712337" lon="26.277224">
<ele>176.138794</ele>
<time>2010-07-18T08:43:59Z</time>
<desc>lat.=55.712337, lon.=26.277224, Alt.=176.138794m. Speed=18.972000m/h.</desc>
<speed>5.270000</speed>
</trkpt>
<trkpt lat="55.712315" lon="26.277292">
<ele>175.658325</ele>
<time>2010-07-18T08:44:00Z</time>
<desc>lat.=55.712315, lon.=26.277292, Alt.=175.658325m. Speed=18.216000m/h.</desc>
<speed>5.060000</speed>
</trkpt>
<trkpt lat="55.712296" lon="26.277363">
<ele>175.716919</ele>
<time>2010-07-18T08:44:01Z</time>
<desc>lat.=55.712296, lon.=26.277363, Alt.=175.716919m. Speed=17.676001m/h.</desc>
<speed>4.910000</speed>
</trkpt>
<trkpt lat="55.712276" lon="26.277430">
<ele>175.365356</ele>
<time>2010-07-18T08:44:02Z</time>
<desc>lat.=55.712276, lon.=26.277430, Alt.=175.365356m. Speed=17.243999m/h.</desc>
<speed>4.790000</speed>
</trkpt>
<trkpt lat="55.712254" lon="26.277493">
<ele>174.959106</ele>
<time>2010-07-18T08:44:03Z</time>
<desc>lat.=55.712254, lon.=26.277493, Alt.=174.959106m. Speed=16.559999m/h.</desc>
<speed>4.600000</speed>
</trkpt>
<trkpt lat="55.712238" lon="26.277554">
<ele>174.763794</ele>
<time>2010-07-18T08:44:04Z</time>
<desc>lat.=55.712238, lon.=26.277554, Alt.=174.763794m. Speed=16.056000m/h.</desc>
<speed>4.460000</speed>
</trkpt>
<trkpt lat="55.712212" lon="26.277609">
<ele>173.252075</ele>
<time>2010-07-18T08:44:05Z</time>
<desc>lat.=55.712212, lon.=26.277609, Alt.=173.252075m. Speed=15.984000m/h.</desc>
<speed>4.440000</speed>
</trkpt>
<trkpt lat="55.712196" lon="26.277672">
<ele>173.154419</ele>
<time>2010-07-18T08:44:06Z</time>
<desc>lat.=55.712196, lon.=26.277672, Alt.=173.154419m. Speed=15.516000m/h.</desc>
<speed>4.310000</speed>
</trkpt>
<trkpt lat="55.712177" lon="26.277735">
<ele>173.138794</ele>
<time>2010-07-18T08:44:07Z</time>
<desc>lat.=55.712177, lon.=26.277735, Alt.=173.138794m. Speed=15.480000m/h.</desc>
<speed>4.300000</speed>
</trkpt>
<trkpt lat="55.712162" lon="26.277794">
<ele>173.021606</ele>
<time>2010-07-18T08:44:08Z</time>
<desc>lat.=55.712162, lon.=26.277794, Alt.=173.021606m. Speed=15.768000m/h.</desc>
<speed>4.380000</speed>
</trkpt>
<trkpt lat="55.712147" lon="26.277864">
<ele>172.982544</ele>
<time>2010-07-18T08:44:09Z</time>
<desc>lat.=55.712147, lon.=26.277864, Alt.=172.982544m. Speed=16.596001m/h.</desc>
<speed>4.610000</speed>
</trkpt>
<trkpt lat="55.712132" lon="26.277933">
<ele>172.841919</ele>
<time>2010-07-18T08:44:10Z</time>
<desc>lat.=55.712132, lon.=26.277933, Alt.=172.841919m. Speed=17.172001m/h.</desc>
<speed>4.770000</speed>
</trkpt>
<trkpt lat="55.712112" lon="26.278006">
<ele>172.611450</ele>
<time>2010-07-18T08:44:11Z</time>
<desc>lat.=55.712112, lon.=26.278006, Alt.=172.611450m. Speed=17.712000m/h.</desc>
<speed>4.920000</speed>
</trkpt>
<trkpt lat="55.712097" lon="26.278080">
<ele>172.845825</ele>
<time>2010-07-18T08:44:12Z</time>
<desc>lat.=55.712097, lon.=26.278080, Alt.=172.845825m. Speed=18.431999m/h.</desc>
<speed>5.120000</speed>
</trkpt>
<trkpt lat="55.712078" lon="26.278154">
<ele>172.791138</ele>
<time>2010-07-18T08:44:13Z</time>
<desc>lat.=55.712078, lon.=26.278154, Alt.=172.791138m. Speed=18.827999m/h.</desc>
<speed>5.230000</speed>
</trkpt>
<trkpt lat="55.712055" lon="26.278231">
<ele>172.775513</ele>
<time>2010-07-18T08:44:14Z</time>
<desc>lat.=55.712055, lon.=26.278231, Alt.=172.775513m. Speed=18.827999m/h.</desc>
<speed>5.230000</speed>
</trkpt>
<trkpt lat="55.712036" lon="26.278301">
<ele>172.791138</ele>
<time>2010-07-18T08:44:15Z</time>
<desc>lat.=55.712036, lon.=26.278301, Alt.=172.791138m. Speed=18.756001m/h.</desc>
<speed>5.210000</speed>
</trkpt>
<trkpt lat="55.712017" lon="26.278376">
<ele>172.755981</ele>
<time>2010-07-18T08:44:16Z</time>
<desc>lat.=55.712017, lon.=26.278376, Alt.=172.755981m. Speed=18.719999m/h.</desc>
<speed>5.200000</speed>
</trkpt>
<trkpt lat="55.711998" lon="26.278450">
<ele>171.994263</ele>
<time>2010-07-18T08:44:17Z</time>
<desc>lat.=55.711998, lon.=26.278450, Alt.=171.994263m. Speed=18.972000m/h.</desc>
<speed>5.270000</speed>
</trkpt>
<trkpt lat="55.711979" lon="26.278524">
<ele>172.099731</ele>
<time>2010-07-18T08:44:18Z</time>
<desc>lat.=55.711979, lon.=26.278524, Alt.=172.099731m. Speed=18.900000m/h.</desc>
<speed>5.250000</speed>
</trkpt>
<trkpt lat="55.711964" lon="26.278605">
<ele>171.822388</ele>
<time>2010-07-18T08:44:19Z</time>
<desc>lat.=55.711964, lon.=26.278605, Alt.=171.822388m. Speed=19.224001m/h.</desc>
<speed>5.340000</speed>
</trkpt>
<trkpt lat="55.711945" lon="26.278679">
<ele>171.990356</ele>
<time>2010-07-18T08:44:20Z</time>
<desc>lat.=55.711945, lon.=26.278679, Alt.=171.990356m. Speed=18.972000m/h.</desc>
<speed>5.270000</speed>
</trkpt>
<trkpt lat="55.711926" lon="26.278755">
<ele>171.955200</ele>
<time>2010-07-18T08:44:21Z</time>
<desc>lat.=55.711926, lon.=26.278755, Alt.=171.955200m. Speed=19.007999m/h.</desc>
<speed>5.280000</speed>
</trkpt>
<trkpt lat="55.711906" lon="26.278831">
<ele>171.935669</ele>
<time>2010-07-18T08:44:22Z</time>
<desc>lat.=55.711906, lon.=26.278831, Alt.=171.935669m. Speed=18.576000m/h.</desc>
<speed>5.160000</speed>
</trkpt>
<trkpt lat="55.711887" lon="26.278906">
<ele>171.884888</ele>
<time>2010-07-18T08:44:23Z</time>
<desc>lat.=55.711887, lon.=26.278906, Alt.=171.884888m. Speed=18.000000m/h.</desc>
<speed>5.000000</speed>
</trkpt>
<trkpt lat="55.711868" lon="26.278976">
<ele>171.869263</ele>
<time>2010-07-18T08:44:24Z</time>
<desc>lat.=55.711868, lon.=26.278976, Alt.=171.869263m. Speed=17.351999m/h.</desc>
<speed>4.820000</speed>
</trkpt>
<trkpt lat="55.711857" lon="26.279051">
<ele>172.341919</ele>
<time>2010-07-18T08:44:25Z</time>
<desc>lat.=55.711857, lon.=26.279051, Alt.=172.341919m. Speed=18.288000m/h.</desc>
<speed>5.080000</speed>
</trkpt>
<trkpt lat="55.711838" lon="26.279127">
<ele>172.498169</ele>
<time>2010-07-18T08:44:26Z</time>
<desc>lat.=55.711838, lon.=26.279127, Alt.=172.498169m. Speed=18.288000m/h.</desc>
<speed>5.080000</speed>
</trkpt>
<trkpt lat="55.711819" lon="26.279203">
<ele>172.396606</ele>
<time>2010-07-18T08:44:27Z</time>
<desc>lat.=55.711819, lon.=26.279203, Alt.=172.396606m. Speed=18.648001m/h.</desc>
<speed>5.180000</speed>
</trkpt>
<trkpt lat="55.711800" lon="26.279280">
<ele>172.158325</ele>
<time>2010-07-18T08:44:28Z</time>
<desc>lat.=55.711800, lon.=26.279280, Alt.=172.158325m. Speed=19.188000m/h.</desc>
<speed>5.330000</speed>
</trkpt>
<trkpt lat="55.711784" lon="26.279364">
<ele>172.377075</ele>
<time>2010-07-18T08:44:29Z</time>
<desc>lat.=55.711784, lon.=26.279364, Alt.=172.377075m. Speed=19.511999m/h.</desc>
<speed>5.420000</speed>
</trkpt>
<trkpt lat="55.711765" lon="26.279442">
<ele>172.470825</ele>
<time>2010-07-18T08:44:30Z</time>
<desc>lat.=55.711765, lon.=26.279442, Alt.=172.470825m. Speed=19.872000m/h.</desc>
<speed>5.520000</speed>
</trkpt>
<trkpt lat="55.711746" lon="26.279524">
<ele>172.373169</ele>
<time>2010-07-18T08:44:31Z</time>
<desc>lat.=55.711746, lon.=26.279524, Alt.=172.373169m. Speed=20.195999m/h.</desc>
<speed>5.610000</speed>
</trkpt>
<trkpt lat="55.711723" lon="26.279600">
<ele>172.127075</ele>
<time>2010-07-18T08:44:32Z</time>
<desc>lat.=55.711723, lon.=26.279600, Alt.=172.127075m. Speed=19.620001m/h.</desc>
<speed>5.450000</speed>
</trkpt>
<trkpt lat="55.711704" lon="26.279671">
<ele>171.963013</ele>
<time>2010-07-18T08:44:33Z</time>
<desc>lat.=55.711704, lon.=26.279671, Alt.=171.963013m. Speed=19.188000m/h.</desc>
<speed>5.330000</speed>
</trkpt>
<trkpt lat="55.711681" lon="26.279745">
<ele>171.814575</ele>
<time>2010-07-18T08:44:34Z</time>
<desc>lat.=55.711681, lon.=26.279745, Alt.=171.814575m. Speed=18.504000m/h.</desc>
<speed>5.140000</speed>
</trkpt>
<trkpt lat="55.711662" lon="26.279819">
<ele>171.763794</ele>
<time>2010-07-18T08:44:35Z</time>
<desc>lat.=55.711662, lon.=26.279819, Alt.=171.763794m. Speed=18.719999m/h.</desc>
<speed>5.200000</speed>
</trkpt>
<trkpt lat="55.711639" lon="26.279896">
<ele>171.420044</ele>
<time>2010-07-18T08:44:36Z</time>
<desc>lat.=55.711639, lon.=26.279896, Alt.=171.420044m. Speed=19.332001m/h.</desc>
<speed>5.370000</speed>
</trkpt>
<trkpt lat="55.711620" lon="26.279976">
<ele>171.255981</ele>
<time>2010-07-18T08:44:37Z</time>
<desc>lat.=55.711620, lon.=26.279976, Alt.=171.255981m. Speed=19.691999m/h.</desc>
<speed>5.470000</speed>
</trkpt>
<trkpt lat="55.711601" lon="26.280054">
<ele>171.314575</ele>
<time>2010-07-18T08:44:38Z</time>
<desc>lat.=55.711601, lon.=26.280054, Alt.=171.314575m. Speed=19.080000m/h.</desc>
<speed>5.300000</speed>
</trkpt>
<trkpt lat="55.711582" lon="26.280130">
<ele>171.173950</ele>
<time>2010-07-18T08:44:39Z</time>
<desc>lat.=55.711582, lon.=26.280130, Alt.=171.173950m. Speed=18.972000m/h.</desc>
<speed>5.270000</speed>
</trkpt>
<trkpt lat="55.711559" lon="26.280207">
<ele>170.849731</ele>
<time>2010-07-18T08:44:40Z</time>
<desc>lat.=55.711559, lon.=26.280207, Alt.=170.849731m. Speed=18.576000m/h.</desc>
<speed>5.160000</speed>
</trkpt>
<trkpt lat="55.711540" lon="26.280283">
<ele>170.728638</ele>
<time>2010-07-18T08:44:41Z</time>
<desc>lat.=55.711540, lon.=26.280283, Alt.=170.728638m. Speed=18.900000m/h.</desc>
<speed>5.250000</speed>
</trkpt>
<trkpt lat="55.711525" lon="26.280357">
<ele>170.873169</ele>
<time>2010-07-18T08:44:42Z</time>
<desc>lat.=55.711525, lon.=26.280357, Alt.=170.873169m. Speed=18.719999m/h.</desc>
<speed>5.200000</speed>
</trkpt>
<trkpt lat="55.711506" lon="26.280434">
<ele>170.896606</ele>
<time>2010-07-18T08:44:43Z</time>
<desc>lat.=55.711506, lon.=26.280434, Alt.=170.896606m. Speed=19.224001m/h.</desc>
<speed>5.340000</speed>
</trkpt>
<trkpt lat="55.711487" lon="26.280508">
<ele>170.732544</ele>
<time>2010-07-18T08:44:44Z</time>
<desc>lat.=55.711487, lon.=26.280508, Alt.=170.732544m. Speed=18.612000m/h.</desc>
<speed>5.170000</speed>
</trkpt>
<trkpt lat="55.711464" lon="26.280584">
<ele>170.728638</ele>
<time>2010-07-18T08:44:45Z</time>
<desc>lat.=55.711464, lon.=26.280584, Alt.=170.728638m. Speed=18.756001m/h.</desc>
<speed>5.210000</speed>
</trkpt>
<trkpt lat="55.711445" lon="26.280664">
<ele>170.619263</ele>
<time>2010-07-18T08:44:46Z</time>
<desc>lat.=55.711445, lon.=26.280664, Alt.=170.619263m. Speed=19.799999m/h.</desc>
<speed>5.500000</speed>
</trkpt>
<trkpt lat="55.711426" lon="26.280748">
<ele>170.607544</ele>
<time>2010-07-18T08:44:47Z</time>
<desc>lat.=55.711426, lon.=26.280748, Alt.=170.607544m. Speed=20.412001m/h.</desc>
<speed>5.670000</speed>
</trkpt>
<trkpt lat="55.711403" lon="26.280832">
<ele>170.588013</ele>
<time>2010-07-18T08:44:48Z</time>
<desc>lat.=55.711403, lon.=26.280832, Alt.=170.588013m. Speed=20.591999m/h.</desc>
<speed>5.720000</speed>
</trkpt>
<trkpt lat="55.711384" lon="26.280918">
<ele>170.552856</ele>
<time>2010-07-18T08:44:49Z</time>
<desc>lat.=55.711384, lon.=26.280918, Alt.=170.552856m. Speed=20.520000m/h.</desc>
<speed>5.700000</speed>
</trkpt>
<trkpt lat="55.711361" lon="26.281002">
<ele>170.443481</ele>
<time>2010-07-18T08:44:50Z</time>
<desc>lat.=55.711361, lon.=26.281002, Alt.=170.443481m. Speed=20.375999m/h.</desc>
<speed>5.660000</speed>
</trkpt>
<trkpt lat="55.711338" lon="26.281088">
<ele>170.498169</ele>
<time>2010-07-18T08:44:51Z</time>
<desc>lat.=55.711338, lon.=26.281088, Alt.=170.498169m. Speed=20.556000m/h.</desc>
<speed>5.710000</speed>
</trkpt>
<trkpt lat="55.711319" lon="26.281174">
<ele>170.443481</ele>
<time>2010-07-18T08:44:52Z</time>
<desc>lat.=55.711319, lon.=26.281174, Alt.=170.443481m. Speed=20.736000m/h.</desc>
<speed>5.760000</speed>
</trkpt>
<trkpt lat="55.711296" lon="26.281258">
<ele>170.158325</ele>
<time>2010-07-18T08:44:53Z</time>
<desc>lat.=55.711296, lon.=26.281258, Alt.=170.158325m. Speed=21.816000m/h.</desc>
<speed>6.060000</speed>
</trkpt>
<trkpt lat="55.711273" lon="26.281345">
<ele>170.060669</ele>
<time>2010-07-18T08:44:54Z</time>
<desc>lat.=55.711273, lon.=26.281345, Alt.=170.060669m. Speed=22.139999m/h.</desc>
<speed>6.150000</speed>
</trkpt>
<trkpt lat="55.711254" lon="26.281433">
<ele>169.939575</ele>
<time>2010-07-18T08:44:55Z</time>
<desc>lat.=55.711254, lon.=26.281433, Alt.=169.939575m. Speed=22.176001m/h.</desc>
<speed>6.160000</speed>
</trkpt>
<trkpt lat="55.711227" lon="26.281523">
<ele>169.884888</ele>
<time>2010-07-18T08:44:56Z</time>
<desc>lat.=55.711227, lon.=26.281523, Alt.=169.884888m. Speed=22.608000m/h.</desc>
<speed>6.280000</speed>
</trkpt>
<trkpt lat="55.711205" lon="26.281614">
<ele>169.713013</ele>
<time>2010-07-18T08:44:57Z</time>
<desc>lat.=55.711205, lon.=26.281614, Alt.=169.713013m. Speed=22.752001m/h.</desc>
<speed>6.320000</speed>
</trkpt>
<trkpt lat="55.711182" lon="26.281708">
<ele>169.580200</ele>
<time>2010-07-18T08:44:58Z</time>
<desc>lat.=55.711182, lon.=26.281708, Alt.=169.580200m. Speed=23.040001m/h.</desc>
<speed>6.400000</speed>
</trkpt>
<trkpt lat="55.711159" lon="26.281803">
<ele>169.642700</ele>
<time>2010-07-18T08:44:59Z</time>
<desc>lat.=55.711159, lon.=26.281803, Alt.=169.642700m. Speed=23.112000m/h.</desc>
<speed>6.420000</speed>
</trkpt>
<trkpt lat="55.711132" lon="26.281898">
<ele>169.420044</ele>
<time>2010-07-18T08:45:00Z</time>
<desc>lat.=55.711132, lon.=26.281898, Alt.=169.420044m. Speed=23.688000m/h.</desc>
<speed>6.580000</speed>
</trkpt>
<trkpt lat="55.711109" lon="26.281994">
<ele>169.177856</ele>
<time>2010-07-18T08:45:01Z</time>
<desc>lat.=55.711109, lon.=26.281994, Alt.=169.177856m. Speed=23.507999m/h.</desc>
<speed>6.530000</speed>
</trkpt>
<trkpt lat="55.711086" lon="26.282093">
<ele>169.033325</ele>
<time>2010-07-18T08:45:02Z</time>
<desc>lat.=55.711086, lon.=26.282093, Alt.=169.033325m. Speed=23.760000m/h.</desc>
<speed>6.600000</speed>
</trkpt>
<trkpt lat="55.711060" lon="26.282187">
<ele>168.666138</ele>
<time>2010-07-18T08:45:03Z</time>
<desc>lat.=55.711060, lon.=26.282187, Alt.=168.666138m. Speed=23.903999m/h.</desc>
<speed>6.640000</speed>
</trkpt>
<trkpt lat="55.711033" lon="26.282282">
<ele>168.463013</ele>
<time>2010-07-18T08:45:04Z</time>
<desc>lat.=55.711033, lon.=26.282282, Alt.=168.463013m. Speed=24.264000m/h.</desc>
<speed>6.740000</speed>
</trkpt>
<trkpt lat="55.711006" lon="26.282381">
<ele>168.326294</ele>
<time>2010-07-18T08:45:05Z</time>
<desc>lat.=55.711006, lon.=26.282381, Alt.=168.326294m. Speed=24.552000m/h.</desc>
<speed>6.820000</speed>
</trkpt>
<trkpt lat="55.710979" lon="26.282478">
<ele>167.802856</ele>
<time>2010-07-18T08:45:06Z</time>
<desc>lat.=55.710979, lon.=26.282478, Alt.=167.802856m. Speed=24.840000m/h.</desc>
<speed>6.900000</speed>
</trkpt>
<trkpt lat="55.710953" lon="26.282583">
<ele>167.541138</ele>
<time>2010-07-18T08:45:07Z</time>
<desc>lat.=55.710953, lon.=26.282583, Alt.=167.541138m. Speed=25.164000m/h.</desc>
<speed>6.990000</speed>
</trkpt>
<trkpt lat="55.710926" lon="26.282686">
<ele>167.283325</ele>
<time>2010-07-18T08:45:08Z</time>
<desc>lat.=55.710926, lon.=26.282686, Alt.=167.283325m. Speed=25.524000m/h.</desc>
<speed>7.090000</speed>
</trkpt>
<trkpt lat="55.710896" lon="26.282789">
<ele>167.068481</ele>
<time>2010-07-18T08:45:09Z</time>
<desc>lat.=55.710896, lon.=26.282789, Alt.=167.068481m. Speed=25.416000m/h.</desc>
<speed>7.060000</speed>
</trkpt>
<trkpt lat="55.710869" lon="26.282892">
<ele>166.904419</ele>
<time>2010-07-18T08:45:10Z</time>
<desc>lat.=55.710869, lon.=26.282892, Alt.=166.904419m. Speed=25.704000m/h.</desc>
<speed>7.140000</speed>
</trkpt>
<trkpt lat="55.710842" lon="26.282997">
<ele>166.755981</ele>
<time>2010-07-18T08:45:11Z</time>
<desc>lat.=55.710842, lon.=26.282997, Alt.=166.755981m. Speed=25.920000m/h.</desc>
<speed>7.200000</speed>
</trkpt>
<trkpt lat="55.710819" lon="26.283104">
<ele>166.576294</ele>
<time>2010-07-18T08:45:12Z</time>
<desc>lat.=55.710819, lon.=26.283104, Alt.=166.576294m. Speed=26.063999m/h.</desc>
<speed>7.240000</speed>
</trkpt>
<trkpt lat="55.710789" lon="26.283213">
<ele>166.404419</ele>
<time>2010-07-18T08:45:13Z</time>
<desc>lat.=55.710789, lon.=26.283213, Alt.=166.404419m. Speed=26.100000m/h.</desc>
<speed>7.250000</speed>
</trkpt>
<trkpt lat="55.710762" lon="26.283321">
<ele>166.209106</ele>
<time>2010-07-18T08:45:14Z</time>
<desc>lat.=55.710762, lon.=26.283321, Alt.=166.209106m. Speed=26.316000m/h.</desc>
<speed>7.310000</speed>
</trkpt>
<trkpt lat="55.710735" lon="26.283428">
<ele>166.123169</ele>
<time>2010-07-18T08:45:15Z</time>
<desc>lat.=55.710735, lon.=26.283428, Alt.=166.123169m. Speed=26.712000m/h.</desc>
<speed>7.420000</speed>
</trkpt>
<trkpt lat="55.710705" lon="26.283537">
<ele>165.642700</ele>
<time>2010-07-18T08:45:16Z</time>
<desc>lat.=55.710705, lon.=26.283537, Alt.=165.642700m. Speed=26.784000m/h.</desc>
<speed>7.440000</speed>
</trkpt>
<trkpt lat="55.710678" lon="26.283648">
<ele>165.420044</ele>
<time>2010-07-18T08:45:17Z</time>
<desc>lat.=55.710678, lon.=26.283648, Alt.=165.420044m. Speed=27.072001m/h.</desc>
<speed>7.520000</speed>
</trkpt>
<trkpt lat="55.710648" lon="26.283760">
<ele>165.193481</ele>
<time>2010-07-18T08:45:18Z</time>
<desc>lat.=55.710648, lon.=26.283760, Alt.=165.193481m. Speed=27.431999m/h.</desc>
<speed>7.620000</speed>
</trkpt>
<trkpt lat="55.710621" lon="26.283873">
<ele>164.963013</ele>
<time>2010-07-18T08:45:19Z</time>
<desc>lat.=55.710621, lon.=26.283873, Alt.=164.963013m. Speed=27.684000m/h.</desc>
<speed>7.690000</speed>
</trkpt>
<trkpt lat="55.710594" lon="26.283983">
<ele>164.740356</ele>
<time>2010-07-18T08:45:20Z</time>
<desc>lat.=55.710594, lon.=26.283983, Alt.=164.740356m. Speed=27.900000m/h.</desc>
<speed>7.750000</speed>
</trkpt>
<trkpt lat="55.710564" lon="26.284094">
<ele>164.267700</ele>
<time>2010-07-18T08:45:21Z</time>
<desc>lat.=55.710564, lon.=26.284094, Alt.=164.267700m. Speed=27.792000m/h.</desc>
<speed>7.720000</speed>
</trkpt>
<trkpt lat="55.710537" lon="26.284210">
<ele>164.181763</ele>
<time>2010-07-18T08:45:22Z</time>
<desc>lat.=55.710537, lon.=26.284210, Alt.=164.181763m. Speed=28.044001m/h.</desc>
<speed>7.790000</speed>
</trkpt>
<trkpt lat="55.710506" lon="26.284317">
<ele>163.353638</ele>
<time>2010-07-18T08:45:23Z</time>
<desc>lat.=55.710506, lon.=26.284317, Alt.=163.353638m. Speed=28.080000m/h.</desc>
<speed>7.800000</speed>
</trkpt>
<trkpt lat="55.710472" lon="26.284428">
<ele>162.810669</ele>
<time>2010-07-18T08:45:24Z</time>
<desc>lat.=55.710472, lon.=26.284428, Alt.=162.810669m. Speed=28.368000m/h.</desc>
<speed>7.880000</speed>
</trkpt>
<trkpt lat="55.710484" lon="26.284592">
<ele>167.693481</ele>
<time>2010-07-18T08:45:25Z</time>
<desc>lat.=55.710484, lon.=26.284592, Alt.=167.693481m. Speed=28.440001m/h.</desc>
<speed>7.900000</speed>
</trkpt>
<trkpt lat="55.710453" lon="26.284704">
<ele>167.877075</ele>
<time>2010-07-18T08:45:26Z</time>
<desc>lat.=55.710453, lon.=26.284704, Alt.=167.877075m. Speed=27.936001m/h.</desc>
<speed>7.760000</speed>
</trkpt>
<trkpt lat="55.710423" lon="26.284813">
<ele>167.795044</ele>
<time>2010-07-18T08:45:27Z</time>
<desc>lat.=55.710423, lon.=26.284813, Alt.=167.795044m. Speed=28.188000m/h.</desc>
<speed>7.830000</speed>
</trkpt>
<trkpt lat="55.710388" lon="26.284922">
<ele>167.857544</ele>
<time>2010-07-18T08:45:28Z</time>
<desc>lat.=55.710388, lon.=26.284922, Alt.=167.857544m. Speed=28.332001m/h.</desc>
<speed>7.870000</speed>
</trkpt>
<trkpt lat="55.710358" lon="26.285034">
<ele>167.791138</ele>
<time>2010-07-18T08:45:29Z</time>
<desc>lat.=55.710358, lon.=26.285034, Alt.=167.791138m. Speed=28.620001m/h.</desc>
<speed>7.950000</speed>
</trkpt>
<trkpt lat="55.710323" lon="26.285154">
<ele>166.900513</ele>
<time>2010-07-18T08:45:30Z</time>
<desc>lat.=55.710323, lon.=26.285154, Alt.=166.900513m. Speed=29.160000m/h.</desc>
<speed>8.100000</speed>
</trkpt>
<trkpt lat="55.710289" lon="26.285267">
<ele>166.306763</ele>
<time>2010-07-18T08:45:31Z</time>
<desc>lat.=55.710289, lon.=26.285267, Alt.=166.306763m. Speed=29.340000m/h.</desc>
<speed>8.150000</speed>
</trkpt>
<trkpt lat="55.710262" lon="26.285385">
<ele>165.998169</ele>
<time>2010-07-18T08:45:32Z</time>
<desc>lat.=55.710262, lon.=26.285385, Alt.=165.998169m. Speed=29.483999m/h.</desc>
<speed>8.190000</speed>
</trkpt>
<trkpt lat="55.710232" lon="26.285503">
<ele>165.966919</ele>
<time>2010-07-18T08:45:33Z</time>
<desc>lat.=55.710232, lon.=26.285503, Alt.=165.966919m. Speed=29.232000m/h.</desc>
<speed>8.120000</speed>
</trkpt>
<trkpt lat="55.710197" lon="26.285616">
<ele>165.634888</ele>
<time>2010-07-18T08:45:34Z</time>
<desc>lat.=55.710197, lon.=26.285616, Alt.=165.634888m. Speed=29.304001m/h.</desc>
<speed>8.140000</speed>
</trkpt>
<trkpt lat="55.710167" lon="26.285728">
<ele>165.259888</ele>
<time>2010-07-18T08:45:35Z</time>
<desc>lat.=55.710167, lon.=26.285728, Alt.=165.259888m. Speed=28.980000m/h.</desc>
<speed>8.050000</speed>
</trkpt>
<trkpt lat="55.710136" lon="26.285835">
<ele>164.681763</ele>
<time>2010-07-18T08:45:36Z</time>
<desc>lat.=55.710136, lon.=26.285835, Alt.=164.681763m. Speed=28.944000m/h.</desc>
<speed>8.040000</speed>
</trkpt>
<trkpt lat="55.710102" lon="26.285952">
<ele>164.138794</ele>
<time>2010-07-18T08:45:37Z</time>
<desc>lat.=55.710102, lon.=26.285952, Alt.=164.138794m. Speed=28.799999m/h.</desc>
<speed>8.000000</speed>
</trkpt>
<trkpt lat="55.710072" lon="26.286062">
<ele>163.685669</ele>
<time>2010-07-18T08:45:38Z</time>
<desc>lat.=55.710072, lon.=26.286062, Alt.=163.685669m. Speed=28.511999m/h.</desc>
<speed>7.920000</speed>
</trkpt>
<trkpt lat="55.710041" lon="26.286175">
<ele>163.513794</ele>
<time>2010-07-18T08:45:39Z</time>
<desc>lat.=55.710041, lon.=26.286175, Alt.=163.513794m. Speed=28.224001m/h.</desc>
<speed>7.840000</speed>
</trkpt>
<trkpt lat="55.710007" lon="26.286285">
<ele>163.166138</ele>
<time>2010-07-18T08:45:40Z</time>
<desc>lat.=55.710007, lon.=26.286285, Alt.=163.166138m. Speed=28.115999m/h.</desc>
<speed>7.810000</speed>
</trkpt>
<trkpt lat="55.709976" lon="26.286398">
<ele>163.103638</ele>
<time>2010-07-18T08:45:41Z</time>
<desc>lat.=55.709976, lon.=26.286398, Alt.=163.103638m. Speed=27.684000m/h.</desc>
<speed>7.690000</speed>
</trkpt>
<trkpt lat="55.709946" lon="26.286505">
<ele>162.892700</ele>
<time>2010-07-18T08:45:42Z</time>
<desc>lat.=55.709946, lon.=26.286505, Alt.=162.892700m. Speed=27.323999m/h.</desc>
<speed>7.590000</speed>
</trkpt>
<trkpt lat="55.709919" lon="26.286613">
<ele>162.767700</ele>
<time>2010-07-18T08:45:43Z</time>
<desc>lat.=55.709919, lon.=26.286613, Alt.=162.767700m. Speed=26.856001m/h.</desc>
<speed>7.460000</speed>
</trkpt>
<trkpt lat="55.709892" lon="26.286720">
<ele>162.435669</ele>
<time>2010-07-18T08:45:44Z</time>
<desc>lat.=55.709892, lon.=26.286720, Alt.=162.435669m. Speed=26.280001m/h.</desc>
<speed>7.300000</speed>
</trkpt>
<trkpt lat="55.709866" lon="26.286823">
<ele>162.201294</ele>
<time>2010-07-18T08:45:45Z</time>
<desc>lat.=55.709866, lon.=26.286823, Alt.=162.201294m. Speed=25.848000m/h.</desc>
<speed>7.180000</speed>
</trkpt>
<trkpt lat="55.709835" lon="26.286928">
<ele>161.052856</ele>
<time>2010-07-18T08:45:46Z</time>
<desc>lat.=55.709835, lon.=26.286928, Alt.=161.052856m. Speed=25.164000m/h.</desc>
<speed>6.990000</speed>
</trkpt>
<trkpt lat="55.709812" lon="26.287027">
<ele>161.416138</ele>
<time>2010-07-18T08:45:47Z</time>
<desc>lat.=55.709812, lon.=26.287027, Alt.=161.416138m. Speed=24.768000m/h.</desc>
<speed>6.880000</speed>
</trkpt>
<trkpt lat="55.709785" lon="26.287127">
<ele>161.017700</ele>
<time>2010-07-18T08:45:48Z</time>
<desc>lat.=55.709785, lon.=26.287127, Alt.=161.017700m. Speed=24.120001m/h.</desc>
<speed>6.700000</speed>
</trkpt>
<trkpt lat="55.709763" lon="26.287224">
<ele>161.107544</ele>
<time>2010-07-18T08:45:49Z</time>
<desc>lat.=55.709763, lon.=26.287224, Alt.=161.107544m. Speed=23.364000m/h.</desc>
<speed>6.490000</speed>
</trkpt>
<trkpt lat="55.709740" lon="26.287315">
<ele>160.263794</ele>
<time>2010-07-18T08:45:50Z</time>
<desc>lat.=55.709740, lon.=26.287315, Alt.=160.263794m. Speed=23.292000m/h.</desc>
<speed>6.470000</speed>
</trkpt>
<trkpt lat="55.709713" lon="26.287409">
<ele>160.361450</ele>
<time>2010-07-18T08:45:51Z</time>
<desc>lat.=55.709713, lon.=26.287409, Alt.=160.361450m. Speed=23.544001m/h.</desc>
<speed>6.540000</speed>
</trkpt>
<trkpt lat="55.709686" lon="26.287508">
<ele>159.795044</ele>
<time>2010-07-18T08:45:52Z</time>
<desc>lat.=55.709686, lon.=26.287508, Alt.=159.795044m. Speed=23.903999m/h.</desc>
<speed>6.640000</speed>
</trkpt>
<trkpt lat="55.709663" lon="26.287600">
<ele>159.752075</ele>
<time>2010-07-18T08:45:53Z</time>
<desc>lat.=55.709663, lon.=26.287600, Alt.=159.752075m. Speed=23.940001m/h.</desc>
<speed>6.650000</speed>
</trkpt>
<trkpt lat="55.709637" lon="26.287697">
<ele>159.646606</ele>
<time>2010-07-18T08:45:54Z</time>
<desc>lat.=55.709637, lon.=26.287697, Alt.=159.646606m. Speed=24.048000m/h.</desc>
<speed>6.680000</speed>
</trkpt>
<trkpt lat="55.709610" lon="26.287794">
<ele>159.716919</ele>
<time>2010-07-18T08:45:55Z</time>
<desc>lat.=55.709610, lon.=26.287794, Alt.=159.716919m. Speed=24.264000m/h.</desc>
<speed>6.740000</speed>
</trkpt>
<trkpt lat="55.709583" lon="26.287895">
<ele>159.213013</ele>
<time>2010-07-18T08:45:56Z</time>
<desc>lat.=55.709583, lon.=26.287895, Alt.=159.213013m. Speed=24.372000m/h.</desc>
<speed>6.770000</speed>
</trkpt>
<trkpt lat="55.709560" lon="26.287992">
<ele>159.498169</ele>
<time>2010-07-18T08:45:57Z</time>
<desc>lat.=55.709560, lon.=26.287992, Alt.=159.498169m. Speed=24.228001m/h.</desc>
<speed>6.730000</speed>
</trkpt>
<trkpt lat="55.709538" lon="26.288084">
<ele>159.361450</ele>
<time>2010-07-18T08:45:58Z</time>
<desc>lat.=55.709538, lon.=26.288084, Alt.=159.361450m. Speed=23.544001m/h.</desc>
<speed>6.540000</speed>
</trkpt>
<trkpt lat="55.709511" lon="26.288179">
<ele>159.502075</ele>
<time>2010-07-18T08:45:59Z</time>
<desc>lat.=55.709511, lon.=26.288179, Alt.=159.502075m. Speed=22.320000m/h.</desc>
<speed>6.200000</speed>
</trkpt>
<trkpt lat="55.709484" lon="26.288267">
<ele>159.263794</ele>
<time>2010-07-18T08:46:00Z</time>
<desc>lat.=55.709484, lon.=26.288267, Alt.=159.263794m. Speed=21.420000m/h.</desc>
<speed>5.950000</speed>
</trkpt>
<trkpt lat="55.709465" lon="26.288351">
<ele>159.420044</ele>
<time>2010-07-18T08:46:01Z</time>
<desc>lat.=55.709465, lon.=26.288351, Alt.=159.420044m. Speed=20.556000m/h.</desc>
<speed>5.710000</speed>
</trkpt>
<trkpt lat="55.709438" lon="26.288427">
<ele>158.892700</ele>
<time>2010-07-18T08:46:02Z</time>
<desc>lat.=55.709438, lon.=26.288427, Alt.=158.892700m. Speed=19.440001m/h.</desc>
<speed>5.400000</speed>
</trkpt>
<trkpt lat="55.709415" lon="26.288498">
<ele>158.513794</ele>
<time>2010-07-18T08:46:03Z</time>
<desc>lat.=55.709415, lon.=26.288498, Alt.=158.513794m. Speed=18.864000m/h.</desc>
<speed>5.240000</speed>
</trkpt>
<trkpt lat="55.709396" lon="26.288576">
<ele>158.033325</ele>
<time>2010-07-18T08:46:04Z</time>
<desc>lat.=55.709396, lon.=26.288576, Alt.=158.033325m. Speed=19.152000m/h.</desc>
<speed>5.320000</speed>
</trkpt>
<trkpt lat="55.709377" lon="26.288652">
<ele>158.021606</ele>
<time>2010-07-18T08:46:05Z</time>
<desc>lat.=55.709377, lon.=26.288652, Alt.=158.021606m. Speed=19.080000m/h.</desc>
<speed>5.300000</speed>
</trkpt>
<trkpt lat="55.709358" lon="26.288731">
<ele>158.306763</ele>
<time>2010-07-18T08:46:06Z</time>
<desc>lat.=55.709358, lon.=26.288731, Alt.=158.306763m. Speed=18.972000m/h.</desc>
<speed>5.270000</speed>
</trkpt>
<trkpt lat="55.709339" lon="26.288807">
<ele>158.509888</ele>
<time>2010-07-18T08:46:07Z</time>
<desc>lat.=55.709339, lon.=26.288807, Alt.=158.509888m. Speed=18.648001m/h.</desc>
<speed>5.180000</speed>
</trkpt>
<trkpt lat="55.709320" lon="26.288881">
<ele>158.451294</ele>
<time>2010-07-18T08:46:08Z</time>
<desc>lat.=55.709320, lon.=26.288881, Alt.=158.451294m. Speed=18.288000m/h.</desc>
<speed>5.080000</speed>
</trkpt>
<trkpt lat="55.709301" lon="26.288952">
<ele>158.431763</ele>
<time>2010-07-18T08:46:09Z</time>
<desc>lat.=55.709301, lon.=26.288952, Alt.=158.431763m. Speed=17.856001m/h.</desc>
<speed>4.960000</speed>
</trkpt>
<trkpt lat="55.709290" lon="26.289021">
<ele>158.271606</ele>
<time>2010-07-18T08:46:10Z</time>
<desc>lat.=55.709290, lon.=26.289021, Alt.=158.271606m. Speed=17.063999m/h.</desc>
<speed>4.740000</speed>
</trkpt>
<trkpt lat="55.709274" lon="26.289089">
<ele>158.248169</ele>
<time>2010-07-18T08:46:11Z</time>
<desc>lat.=55.709274, lon.=26.289089, Alt.=158.248169m. Speed=16.920000m/h.</desc>
<speed>4.700000</speed>
</trkpt>
<trkpt lat="55.709259" lon="26.289160">
<ele>158.119263</ele>
<time>2010-07-18T08:46:12Z</time>
<desc>lat.=55.709259, lon.=26.289160, Alt.=158.119263m. Speed=17.100000m/h.</desc>
<speed>4.750000</speed>
</trkpt>
<trkpt lat="55.709244" lon="26.289228">
<ele>158.142700</ele>
<time>2010-07-18T08:46:13Z</time>
<desc>lat.=55.709244, lon.=26.289228, Alt.=158.142700m. Speed=16.308001m/h.</desc>
<speed>4.530000</speed>
</trkpt>
<trkpt lat="55.709229" lon="26.289297">
<ele>158.111450</ele>
<time>2010-07-18T08:46:14Z</time>
<desc>lat.=55.709229, lon.=26.289297, Alt.=158.111450m. Speed=16.200001m/h.</desc>
<speed>4.500000</speed>
</trkpt>
<trkpt lat="55.709217" lon="26.289362">
<ele>158.189575</ele>
<time>2010-07-18T08:46:15Z</time>
<desc>lat.=55.709217, lon.=26.289362, Alt.=158.189575m. Speed=16.020000m/h.</desc>
<speed>4.450000</speed>
</trkpt>
<trkpt lat="55.709202" lon="26.289425">
<ele>158.420044</ele>
<time>2010-07-18T08:46:16Z</time>
<desc>lat.=55.709202, lon.=26.289425, Alt.=158.420044m. Speed=16.308001m/h.</desc>
<speed>4.530000</speed>
</trkpt>
<trkpt lat="55.709187" lon="26.289490">
<ele>158.599731</ele>
<time>2010-07-18T08:46:17Z</time>
<desc>lat.=55.709187, lon.=26.289490, Alt.=158.599731m. Speed=16.416000m/h.</desc>
<speed>4.560000</speed>
</trkpt>
<trkpt lat="55.709171" lon="26.289558">
<ele>158.681763</ele>
<time>2010-07-18T08:46:18Z</time>
<desc>lat.=55.709171, lon.=26.289558, Alt.=158.681763m. Speed=16.884001m/h.</desc>
<speed>4.690000</speed>
</trkpt>
<trkpt lat="55.709152" lon="26.289627">
<ele>158.713013</ele>
<time>2010-07-18T08:46:19Z</time>
<desc>lat.=55.709152, lon.=26.289627, Alt.=158.713013m. Speed=16.667999m/h.</desc>
<speed>4.630000</speed>
</trkpt>
<trkpt lat="55.709137" lon="26.289700">
<ele>158.556763</ele>
<time>2010-07-18T08:46:20Z</time>
<desc>lat.=55.709137, lon.=26.289700, Alt.=158.556763m. Speed=16.271999m/h.</desc>
<speed>4.520000</speed>
</trkpt>
<trkpt lat="55.709126" lon="26.289766">
<ele>159.041138</ele>
<time>2010-07-18T08:46:21Z</time>
<desc>lat.=55.709126, lon.=26.289766, Alt.=159.041138m. Speed=17.280001m/h.</desc>
<speed>4.800000</speed>
</trkpt>
<trkpt lat="55.709103" lon="26.289831">
<ele>158.963013</ele>
<time>2010-07-18T08:46:22Z</time>
<desc>lat.=55.709103, lon.=26.289831, Alt.=158.963013m. Speed=16.271999m/h.</desc>
<speed>4.520000</speed>
</trkpt>
<trkpt lat="55.709084" lon="26.289900">
<ele>159.603638</ele>
<time>2010-07-18T08:46:23Z</time>
<desc>lat.=55.709084, lon.=26.289900, Alt.=159.603638m. Speed=16.344000m/h.</desc>
<speed>4.540000</speed>
</trkpt>
<trkpt lat="55.709068" lon="26.289967">
<ele>159.627075</ele>
<time>2010-07-18T08:46:24Z</time>
<desc>lat.=55.709068, lon.=26.289967, Alt.=159.627075m. Speed=15.372000m/h.</desc>
<speed>4.270000</speed>
</trkpt>
<trkpt lat="55.709049" lon="26.290033">
<ele>159.869263</ele>
<time>2010-07-18T08:46:25Z</time>
<desc>lat.=55.709049, lon.=26.290033, Alt.=159.869263m. Speed=15.840000m/h.</desc>
<speed>4.400000</speed>
</trkpt>
<trkpt lat="55.709019" lon="26.290115">
<ele>158.873169</ele>
<time>2010-07-18T08:46:26Z</time>
<desc>lat.=55.709019, lon.=26.290115, Alt.=158.873169m. Speed=16.992001m/h.</desc>
<speed>4.720000</speed>
</trkpt>
<trkpt lat="55.708996" lon="26.290188">
<ele>158.740356</ele>
<time>2010-07-18T08:46:27Z</time>
<desc>lat.=55.708996, lon.=26.290188, Alt.=158.740356m. Speed=17.532000m/h.</desc>
<speed>4.870000</speed>
</trkpt>
<trkpt lat="55.708977" lon="26.290260">
<ele>158.627075</ele>
<time>2010-07-18T08:46:28Z</time>
<desc>lat.=55.708977, lon.=26.290260, Alt.=158.627075m. Speed=17.424000m/h.</desc>
<speed>4.840000</speed>
</trkpt>
<trkpt lat="55.708950" lon="26.290335">
<ele>158.298950</ele>
<time>2010-07-18T08:46:29Z</time>
<desc>lat.=55.708950, lon.=26.290335, Alt.=158.298950m. Speed=17.604000m/h.</desc>
<speed>4.890000</speed>
</trkpt>
<trkpt lat="55.708923" lon="26.290409">
<ele>157.779419</ele>
<time>2010-07-18T08:46:30Z</time>
<desc>lat.=55.708923, lon.=26.290409, Alt.=157.779419m. Speed=17.604000m/h.</desc>
<speed>4.890000</speed>
</trkpt>
<trkpt lat="55.708900" lon="26.290487">
<ele>158.091919</ele>
<time>2010-07-18T08:46:31Z</time>
<desc>lat.=55.708900, lon.=26.290487, Alt.=158.091919m. Speed=17.712000m/h.</desc>
<speed>4.920000</speed>
</trkpt>
<trkpt lat="55.708874" lon="26.290560">
<ele>158.045044</ele>
<time>2010-07-18T08:46:32Z</time>
<desc>lat.=55.708874, lon.=26.290560, Alt.=158.045044m. Speed=17.820000m/h.</desc>
<speed>4.950000</speed>
</trkpt>
<trkpt lat="55.708855" lon="26.290630">
<ele>157.787231</ele>
<time>2010-07-18T08:46:33Z</time>
<desc>lat.=55.708855, lon.=26.290630, Alt.=157.787231m. Speed=17.784000m/h.</desc>
<speed>4.940000</speed>
</trkpt>
<trkpt lat="55.708836" lon="26.290701">
<ele>157.767700</ele>
<time>2010-07-18T08:46:34Z</time>
<desc>lat.=55.708836, lon.=26.290701, Alt.=157.767700m. Speed=15.336000m/h.</desc>
<speed>4.260000</speed>
</trkpt>
<trkpt lat="55.708817" lon="26.290775">
<ele>157.888794</ele>
<time>2010-07-18T08:46:35Z</time>
<desc>lat.=55.708817, lon.=26.290775, Alt.=157.888794m. Speed=18.864000m/h.</desc>
<speed>5.240000</speed>
</trkpt>
<trkpt lat="55.708794" lon="26.290854">
<ele>157.654419</ele>
<time>2010-07-18T08:46:36Z</time>
<desc>lat.=55.708794, lon.=26.290854, Alt.=157.654419m. Speed=19.188000m/h.</desc>
<speed>5.330000</speed>
</trkpt>
<trkpt lat="55.708771" lon="26.290936">
<ele>157.806763</ele>
<time>2010-07-18T08:46:37Z</time>
<desc>lat.=55.708771, lon.=26.290936, Alt.=157.806763m. Speed=19.296000m/h.</desc>
<speed>5.360000</speed>
</trkpt>
<trkpt lat="55.708748" lon="26.291019">
<ele>157.326294</ele>
<time>2010-07-18T08:46:38Z</time>
<desc>lat.=55.708748, lon.=26.291019, Alt.=157.326294m. Speed=19.764000m/h.</desc>
<speed>5.490000</speed>
</trkpt>
<trkpt lat="55.708725" lon="26.291103">
<ele>157.189575</ele>
<time>2010-07-18T08:46:39Z</time>
<desc>lat.=55.708725, lon.=26.291103, Alt.=157.189575m. Speed=18.576000m/h.</desc>
<speed>5.160000</speed>
</trkpt>
<trkpt lat="55.708706" lon="26.291176">
<ele>156.990356</ele>
<time>2010-07-18T08:46:40Z</time>
<desc>lat.=55.708706, lon.=26.291176, Alt.=156.990356m. Speed=17.964001m/h.</desc>
<speed>4.990000</speed>
</trkpt>
<trkpt lat="55.708683" lon="26.291248">
<ele>156.591919</ele>
<time>2010-07-18T08:46:41Z</time>
<desc>lat.=55.708683, lon.=26.291248, Alt.=156.591919m. Speed=16.884001m/h.</desc>
<speed>4.690000</speed>
</trkpt>
<trkpt lat="55.708664" lon="26.291317">
<ele>156.213013</ele>
<time>2010-07-18T08:46:42Z</time>
<desc>lat.=55.708664, lon.=26.291317, Alt.=156.213013m. Speed=16.164000m/h.</desc>
<speed>4.490000</speed>
</trkpt>
<trkpt lat="55.708645" lon="26.291382">
<ele>155.966919</ele>
<time>2010-07-18T08:46:43Z</time>
<desc>lat.=55.708645, lon.=26.291382, Alt.=155.966919m. Speed=14.760000m/h.</desc>
<speed>4.100000</speed>
</trkpt>
<trkpt lat="55.708630" lon="26.291445">
<ele>156.060669</ele>
<time>2010-07-18T08:46:44Z</time>
<desc>lat.=55.708630, lon.=26.291445, Alt.=156.060669m. Speed=14.508000m/h.</desc>
<speed>4.030000</speed>
</trkpt>
<trkpt lat="55.708614" lon="26.291504">
<ele>156.177856</ele>
<time>2010-07-18T08:46:45Z</time>
<desc>lat.=55.708614, lon.=26.291504, Alt.=156.177856m. Speed=13.932000m/h.</desc>
<speed>3.870000</speed>
</trkpt>
<trkpt lat="55.708595" lon="26.291561">
<ele>156.091919</ele>
<time>2010-07-18T08:46:46Z</time>
<desc>lat.=55.708595, lon.=26.291561, Alt.=156.091919m. Speed=13.824000m/h.</desc>
<speed>3.840000</speed>
</trkpt>
<trkpt lat="55.708591" lon="26.291624">
<ele>157.302856</ele>
<time>2010-07-18T08:46:47Z</time>
<desc>lat.=55.708591, lon.=26.291624, Alt.=157.302856m. Speed=14.292000m/h.</desc>
<speed>3.970000</speed>
</trkpt>
<trkpt lat="55.708595" lon="26.291685">
<ele>159.045044</ele>
<time>2010-07-18T08:46:48Z</time>
<desc>lat.=55.708595, lon.=26.291685, Alt.=159.045044m. Speed=14.436000m/h.</desc>
<speed>4.010000</speed>
</trkpt>
<trkpt lat="55.708584" lon="26.291742">
<ele>159.463013</ele>
<time>2010-07-18T08:46:49Z</time>
<desc>lat.=55.708584, lon.=26.291742, Alt.=159.463013m. Speed=13.860000m/h.</desc>
<speed>3.850000</speed>
</trkpt>
<trkpt lat="55.708569" lon="26.291794">
<ele>159.638794</ele>
<time>2010-07-18T08:46:50Z</time>
<desc>lat.=55.708569, lon.=26.291794, Alt.=159.638794m. Speed=14.184000m/h.</desc>
<speed>3.940000</speed>
</trkpt>
<trkpt lat="55.708553" lon="26.291849">
<ele>159.841919</ele>
<time>2010-07-18T08:46:51Z</time>
<desc>lat.=55.708553, lon.=26.291849, Alt.=159.841919m. Speed=15.408000m/h.</desc>
<speed>4.280000</speed>
</trkpt>
<trkpt lat="55.708534" lon="26.291910">
<ele>159.884888</ele>
<time>2010-07-18T08:46:52Z</time>
<desc>lat.=55.708534, lon.=26.291910, Alt.=159.884888m. Speed=16.128000m/h.</desc>
<speed>4.480000</speed>
</trkpt>
<trkpt lat="55.708523" lon="26.291981">
<ele>160.947388</ele>
<time>2010-07-18T08:46:53Z</time>
<desc>lat.=55.708523, lon.=26.291981, Alt.=160.947388m. Speed=16.884001m/h.</desc>
<speed>4.690000</speed>
</trkpt>
<trkpt lat="55.708504" lon="26.292051">
<ele>160.752075</ele>
<time>2010-07-18T08:46:54Z</time>
<desc>lat.=55.708504, lon.=26.292051, Alt.=160.752075m. Speed=16.848000m/h.</desc>
<speed>4.680000</speed>
</trkpt>
<trkpt lat="55.708485" lon="26.292116">
<ele>160.724731</ele>
<time>2010-07-18T08:46:55Z</time>
<desc>lat.=55.708485, lon.=26.292116, Alt.=160.724731m. Speed=15.516000m/h.</desc>
<speed>4.310000</speed>
</trkpt>
<trkpt lat="55.708466" lon="26.292179">
<ele>160.127075</ele>
<time>2010-07-18T08:46:56Z</time>
<desc>lat.=55.708466, lon.=26.292179, Alt.=160.127075m. Speed=15.120000m/h.</desc>
<speed>4.200000</speed>
</trkpt>
<trkpt lat="55.708447" lon="26.292244">
<ele>159.705200</ele>
<time>2010-07-18T08:46:57Z</time>
<desc>lat.=55.708447, lon.=26.292244, Alt.=159.705200m. Speed=14.472000m/h.</desc>
<speed>4.020000</speed>
</trkpt>
<trkpt lat="55.708431" lon="26.292299">
<ele>159.525513</ele>
<time>2010-07-18T08:46:58Z</time>
<desc>lat.=55.708431, lon.=26.292299, Alt.=159.525513m. Speed=13.320000m/h.</desc>
<speed>3.700000</speed>
</trkpt>
<trkpt lat="55.708416" lon="26.292353">
<ele>159.377075</ele>
<time>2010-07-18T08:46:59Z</time>
<desc>lat.=55.708416, lon.=26.292353, Alt.=159.377075m. Speed=12.888000m/h.</desc>
<speed>3.580000</speed>
</trkpt>
<trkpt lat="55.708401" lon="26.292395">
<ele>159.263794</ele>
<time>2010-07-18T08:47:00Z</time>
<desc>lat.=55.708401, lon.=26.292395, Alt.=159.263794m. Speed=11.952000m/h.</desc>
<speed>3.320000</speed>
</trkpt>
<trkpt lat="55.708389" lon="26.292440">
<ele>159.619263</ele>
<time>2010-07-18T08:47:01Z</time>
<desc>lat.=55.708389, lon.=26.292440, Alt.=159.619263m. Speed=12.204000m/h.</desc>
<speed>3.390000</speed>
</trkpt>
<trkpt lat="55.708374" lon="26.292490">
<ele>159.666138</ele>
<time>2010-07-18T08:47:02Z</time>
<desc>lat.=55.708374, lon.=26.292490, Alt.=159.666138m. Speed=12.672000m/h.</desc>
<speed>3.520000</speed>
</trkpt>
<trkpt lat="55.708351" lon="26.292545">
<ele>159.685669</ele>
<time>2010-07-18T08:47:03Z</time>
<desc>lat.=55.708351, lon.=26.292545, Alt.=159.685669m. Speed=13.608000m/h.</desc>
<speed>3.780000</speed>
</trkpt>
<trkpt lat="55.708340" lon="26.292599">
<ele>159.630981</ele>
<time>2010-07-18T08:47:04Z</time>
<desc>lat.=55.708340, lon.=26.292599, Alt.=159.630981m. Speed=13.644000m/h.</desc>
<speed>3.790000</speed>
</trkpt>
<trkpt lat="55.708332" lon="26.292650">
<ele>160.423950</ele>
<time>2010-07-18T08:47:05Z</time>
<desc>lat.=55.708332, lon.=26.292650, Alt.=160.423950m. Speed=13.788000m/h.</desc>
<speed>3.830000</speed>
</trkpt>
<trkpt lat="55.708321" lon="26.292702">
<ele>161.279419</ele>
<time>2010-07-18T08:47:06Z</time>
<desc>lat.=55.708321, lon.=26.292702, Alt.=161.279419m. Speed=13.572000m/h.</desc>
<speed>3.770000</speed>
</trkpt>
<trkpt lat="55.708305" lon="26.292761">
<ele>161.920044</ele>
<time>2010-07-18T08:47:07Z</time>
<desc>lat.=55.708305, lon.=26.292761, Alt.=161.920044m. Speed=15.372000m/h.</desc>
<speed>4.270000</speed>
</trkpt>
<trkpt lat="55.708286" lon="26.292820">
<ele>162.474731</ele>
<time>2010-07-18T08:47:08Z</time>
<desc>lat.=55.708286, lon.=26.292820, Alt.=162.474731m. Speed=14.760000m/h.</desc>
<speed>4.100000</speed>
</trkpt>
<trkpt lat="55.708271" lon="26.292881">
<ele>162.834106</ele>
<time>2010-07-18T08:47:09Z</time>
<desc>lat.=55.708271, lon.=26.292881, Alt.=162.834106m. Speed=14.292000m/h.</desc>
<speed>3.970000</speed>
</trkpt>
<trkpt lat="55.708260" lon="26.292938">
<ele>163.849731</ele>
<time>2010-07-18T08:47:10Z</time>
<desc>lat.=55.708260, lon.=26.292938, Alt.=163.849731m. Speed=13.320000m/h.</desc>
<speed>3.700000</speed>
</trkpt>
<trkpt lat="55.708248" lon="26.293003">
<ele>164.216919</ele>
<time>2010-07-18T08:47:11Z</time>
<desc>lat.=55.708248, lon.=26.293003, Alt.=164.216919m. Speed=14.004000m/h.</desc>
<speed>3.890000</speed>
</trkpt>
<trkpt lat="55.708233" lon="26.293062">
<ele>164.338013</ele>
<time>2010-07-18T08:47:12Z</time>
<desc>lat.=55.708233, lon.=26.293062, Alt.=164.338013m. Speed=11.952000m/h.</desc>
<speed>3.320000</speed>
</trkpt>
<trkpt lat="55.708214" lon="26.293125">
<ele>163.306763</ele>
<time>2010-07-18T08:47:13Z</time>
<desc>lat.=55.708214, lon.=26.293125, Alt.=163.306763m. Speed=12.420000m/h.</desc>
<speed>3.450000</speed>
</trkpt>
<trkpt lat="55.708202" lon="26.293175">
<ele>163.291138</ele>
<time>2010-07-18T08:47:14Z</time>
<desc>lat.=55.708202, lon.=26.293175, Alt.=163.291138m. Speed=10.800000m/h.</desc>
<speed>3.000000</speed>
</trkpt>
<trkpt lat="55.708210" lon="26.293232">
<ele>165.220825</ele>
<time>2010-07-18T08:47:15Z</time>
<desc>lat.=55.708210, lon.=26.293232, Alt.=165.220825m. Speed=12.492000m/h.</desc>
<speed>3.470000</speed>
</trkpt>
<trkpt lat="55.708199" lon="26.293285">
<ele>165.224731</ele>
<time>2010-07-18T08:47:16Z</time>
<desc>lat.=55.708199, lon.=26.293285, Alt.=165.224731m. Speed=11.700000m/h.</desc>
<speed>3.250000</speed>
</trkpt>
<trkpt lat="55.708183" lon="26.293339">
<ele>165.498169</ele>
<time>2010-07-18T08:47:17Z</time>
<desc>lat.=55.708183, lon.=26.293339, Alt.=165.498169m. Speed=12.744000m/h.</desc>
<speed>3.540000</speed>
</trkpt>
<trkpt lat="55.708168" lon="26.293396">
<ele>165.548950</ele>
<time>2010-07-18T08:47:18Z</time>
<desc>lat.=55.708168, lon.=26.293396, Alt.=165.548950m. Speed=12.420000m/h.</desc>
<speed>3.450000</speed>
</trkpt>
<trkpt lat="55.708149" lon="26.293446">
<ele>165.545044</ele>
<time>2010-07-18T08:47:19Z</time>
<desc>lat.=55.708149, lon.=26.293446, Alt.=165.545044m. Speed=12.528000m/h.</desc>
<speed>3.480000</speed>
</trkpt>
<trkpt lat="55.708130" lon="26.293509">
<ele>164.787231</ele>
<time>2010-07-18T08:47:20Z</time>
<desc>lat.=55.708130, lon.=26.293509, Alt.=164.787231m. Speed=13.860000m/h.</desc>
<speed>3.850000</speed>
</trkpt>
<trkpt lat="55.708118" lon="26.293571">
<ele>165.064575</ele>
<time>2010-07-18T08:47:21Z</time>
<desc>lat.=55.708118, lon.=26.293571, Alt.=165.064575m. Speed=14.292000m/h.</desc>
<speed>3.970000</speed>
</trkpt>
<trkpt lat="55.708096" lon="26.293640">
<ele>164.439575</ele>
<time>2010-07-18T08:47:22Z</time>
<desc>lat.=55.708096, lon.=26.293640, Alt.=164.439575m. Speed=15.624000m/h.</desc>
<speed>4.340000</speed>
</trkpt>
<trkpt lat="55.708073" lon="26.293707">
<ele>164.162231</ele>
<time>2010-07-18T08:47:23Z</time>
<desc>lat.=55.708073, lon.=26.293707, Alt.=164.162231m. Speed=15.876000m/h.</desc>
<speed>4.410000</speed>
</trkpt>
<trkpt lat="55.708050" lon="26.293774">
<ele>164.271606</ele>
<time>2010-07-18T08:47:24Z</time>
<desc>lat.=55.708050, lon.=26.293774, Alt.=164.271606m. Speed=16.559999m/h.</desc>
<speed>4.600000</speed>
</trkpt>
<trkpt lat="55.708027" lon="26.293844">
<ele>164.056763</ele>
<time>2010-07-18T08:47:25Z</time>
<desc>lat.=55.708027, lon.=26.293844, Alt.=164.056763m. Speed=15.948000m/h.</desc>
<speed>4.430000</speed>
</trkpt>
<trkpt lat="55.708000" lon="26.293913">
<ele>163.955200</ele>
<time>2010-07-18T08:47:26Z</time>
<desc>lat.=55.708000, lon.=26.293913, Alt.=163.955200m. Speed=16.236000m/h.</desc>
<speed>4.510000</speed>
</trkpt>
<trkpt lat="55.707977" lon="26.293982">
<ele>163.205200</ele>
<time>2010-07-18T08:47:27Z</time>
<desc>lat.=55.707977, lon.=26.293982, Alt.=163.205200m. Speed=17.208000m/h.</desc>
<speed>4.780000</speed>
</trkpt>
<trkpt lat="55.707954" lon="26.294050">
<ele>162.845825</ele>
<time>2010-07-18T08:47:28Z</time>
<desc>lat.=55.707954, lon.=26.294050, Alt.=162.845825m. Speed=14.868000m/h.</desc>
<speed>4.130000</speed>
</trkpt>
<trkpt lat="55.707939" lon="26.294111">
<ele>162.634888</ele>
<time>2010-07-18T08:47:29Z</time>
<desc>lat.=55.707939, lon.=26.294111, Alt.=162.634888m. Speed=14.184000m/h.</desc>
<speed>3.940000</speed>
</trkpt>
<trkpt lat="55.707928" lon="26.294174">
<ele>163.072388</ele>
<time>2010-07-18T08:47:30Z</time>
<desc>lat.=55.707928, lon.=26.294174, Alt.=163.072388m. Speed=14.508000m/h.</desc>
<speed>4.030000</speed>
</trkpt>
<trkpt lat="55.707912" lon="26.294233">
<ele>162.935669</ele>
<time>2010-07-18T08:47:31Z</time>
<desc>lat.=55.707912, lon.=26.294233, Alt.=162.935669m. Speed=15.300000m/h.</desc>
<speed>4.250000</speed>
</trkpt>
<trkpt lat="55.707897" lon="26.294300">
<ele>162.974731</ele>
<time>2010-07-18T08:47:32Z</time>
<desc>lat.=55.707897, lon.=26.294300, Alt.=162.974731m. Speed=15.840000m/h.</desc>
<speed>4.400000</speed>
</trkpt>
<trkpt lat="55.707878" lon="26.294363">
<ele>162.920044</ele>
<time>2010-07-18T08:47:33Z</time>
<desc>lat.=55.707878, lon.=26.294363, Alt.=162.920044m. Speed=16.596001m/h.</desc>
<speed>4.610000</speed>
</trkpt>
<trkpt lat="55.707855" lon="26.294428">
<ele>162.884888</ele>
<time>2010-07-18T08:47:34Z</time>
<desc>lat.=55.707855, lon.=26.294428, Alt.=162.884888m. Speed=17.063999m/h.</desc>
<speed>4.740000</speed>
</trkpt>
<trkpt lat="55.707836" lon="26.294493">
<ele>163.357544</ele>
<time>2010-07-18T08:47:35Z</time>
<desc>lat.=55.707836, lon.=26.294493, Alt.=163.357544m. Speed=17.964001m/h.</desc>
<speed>4.990000</speed>
</trkpt>
<trkpt lat="55.707817" lon="26.294563">
<ele>163.392700</ele>
<time>2010-07-18T08:47:36Z</time>
<desc>lat.=55.707817, lon.=26.294563, Alt.=163.392700m. Speed=17.388000m/h.</desc>
<speed>4.830000</speed>
</trkpt>
<trkpt lat="55.707798" lon="26.294630">
<ele>163.455200</ele>
<time>2010-07-18T08:47:37Z</time>
<desc>lat.=55.707798, lon.=26.294630, Alt.=163.455200m. Speed=16.955999m/h.</desc>
<speed>4.710000</speed>
</trkpt>
<trkpt lat="55.707771" lon="26.294689">
<ele>163.017700</ele>
<time>2010-07-18T08:47:38Z</time>
<desc>lat.=55.707771, lon.=26.294689, Alt.=163.017700m. Speed=16.271999m/h.</desc>
<speed>4.520000</speed>
</trkpt>
<trkpt lat="55.707752" lon="26.294752">
<ele>162.713013</ele>
<time>2010-07-18T08:47:39Z</time>
<desc>lat.=55.707752, lon.=26.294752, Alt.=162.713013m. Speed=15.876000m/h.</desc>
<speed>4.410000</speed>
</trkpt>
<trkpt lat="55.707733" lon="26.294815">
<ele>163.002075</ele>
<time>2010-07-18T08:47:40Z</time>
<desc>lat.=55.707733, lon.=26.294815, Alt.=163.002075m. Speed=15.480000m/h.</desc>
<speed>4.300000</speed>
</trkpt>
<trkpt lat="55.707714" lon="26.294880">
<ele>162.998169</ele>
<time>2010-07-18T08:47:41Z</time>
<desc>lat.=55.707714, lon.=26.294880, Alt.=162.998169m. Speed=15.084000m/h.</desc>
<speed>4.190000</speed>
</trkpt>
<trkpt lat="55.707695" lon="26.294937">
<ele>163.115356</ele>
<time>2010-07-18T08:47:42Z</time>
<desc>lat.=55.707695, lon.=26.294937, Alt.=163.115356m. Speed=14.508000m/h.</desc>
<speed>4.030000</speed>
</trkpt>
<trkpt lat="55.707676" lon="26.294998">
<ele>163.423950</ele>
<time>2010-07-18T08:47:43Z</time>
<desc>lat.=55.707676, lon.=26.294998, Alt.=163.423950m. Speed=15.336000m/h.</desc>
<speed>4.260000</speed>
</trkpt>
<trkpt lat="55.707661" lon="26.295059">
<ele>163.642700</ele>
<time>2010-07-18T08:47:44Z</time>
<desc>lat.=55.707661, lon.=26.295059, Alt.=163.642700m. Speed=16.128000m/h.</desc>
<speed>4.480000</speed>
</trkpt>
<trkpt lat="55.707638" lon="26.295120">
<ele>163.877075</ele>
<time>2010-07-18T08:47:45Z</time>
<desc>lat.=55.707638, lon.=26.295120, Alt.=163.877075m. Speed=16.704000m/h.</desc>
<speed>4.640000</speed>
</trkpt>
<trkpt lat="55.707619" lon="26.295183">
<ele>163.865356</ele>
<time>2010-07-18T08:47:46Z</time>
<desc>lat.=55.707619, lon.=26.295183, Alt.=163.865356m. Speed=17.208000m/h.</desc>
<speed>4.780000</speed>
</trkpt>
<trkpt lat="55.707603" lon="26.295254">
<ele>164.709106</ele>
<time>2010-07-18T08:47:47Z</time>
<desc>lat.=55.707603, lon.=26.295254, Alt.=164.709106m. Speed=17.639999m/h.</desc>
<speed>4.900000</speed>
</trkpt>
<trkpt lat="55.707581" lon="26.295324">
<ele>164.998169</ele>
<time>2010-07-18T08:47:48Z</time>
<desc>lat.=55.707581, lon.=26.295324, Alt.=164.998169m. Speed=18.143999m/h.</desc>
<speed>5.040000</speed>
</trkpt>
<trkpt lat="55.707554" lon="26.295391">
<ele>165.220825</ele>
<time>2010-07-18T08:47:49Z</time>
<desc>lat.=55.707554, lon.=26.295391, Alt.=165.220825m. Speed=18.252001m/h.</desc>
<speed>5.070000</speed>
</trkpt>
<trkpt lat="55.707531" lon="26.295462">
<ele>165.627075</ele>
<time>2010-07-18T08:47:50Z</time>
<desc>lat.=55.707531, lon.=26.295462, Alt.=165.627075m. Speed=18.719999m/h.</desc>
<speed>5.200000</speed>
</trkpt>
<trkpt lat="55.707504" lon="26.295530">
<ele>166.048950</ele>
<time>2010-07-18T08:47:51Z</time>
<desc>lat.=55.707504, lon.=26.295530, Alt.=166.048950m. Speed=18.900000m/h.</desc>
<speed>5.250000</speed>
</trkpt>
<trkpt lat="55.707478" lon="26.295599">
<ele>166.302856</ele>
<time>2010-07-18T08:47:52Z</time>
<desc>lat.=55.707478, lon.=26.295599, Alt.=166.302856m. Speed=18.648001m/h.</desc>
<speed>5.180000</speed>
</trkpt>
<trkpt lat="55.707451" lon="26.295666">
<ele>166.412231</ele>
<time>2010-07-18T08:47:53Z</time>
<desc>lat.=55.707451, lon.=26.295666, Alt.=166.412231m. Speed=17.532000m/h.</desc>
<speed>4.870000</speed>
</trkpt>
<trkpt lat="55.707428" lon="26.295729">
<ele>166.502075</ele>
<time>2010-07-18T08:47:54Z</time>
<desc>lat.=55.707428, lon.=26.295729, Alt.=166.502075m. Speed=16.740000m/h.</desc>
<speed>4.650000</speed>
</trkpt>
<trkpt lat="55.707401" lon="26.295786">
<ele>166.595825</ele>
<time>2010-07-18T08:47:55Z</time>
<desc>lat.=55.707401, lon.=26.295786, Alt.=166.595825m. Speed=16.128000m/h.</desc>
<speed>4.480000</speed>
</trkpt>
<trkpt lat="55.707382" lon="26.295841">
<ele>166.900513</ele>
<time>2010-07-18T08:47:56Z</time>
<desc>lat.=55.707382, lon.=26.295841, Alt.=166.900513m. Speed=14.040000m/h.</desc>
<speed>3.900000</speed>
</trkpt>
<trkpt lat="55.707355" lon="26.295893">
<ele>167.427856</ele>
<time>2010-07-18T08:47:57Z</time>
<desc>lat.=55.707355, lon.=26.295893, Alt.=167.427856m. Speed=15.876000m/h.</desc>
<speed>4.410000</speed>
</trkpt>
<trkpt lat="55.707333" lon="26.295950">
<ele>167.798950</ele>
<time>2010-07-18T08:47:58Z</time>
<desc>lat.=55.707333, lon.=26.295950, Alt.=167.798950m. Speed=14.688000m/h.</desc>
<speed>4.080000</speed>
</trkpt>
<trkpt lat="55.707310" lon="26.295998">
<ele>167.853638</ele>
<time>2010-07-18T08:47:59Z</time>
<desc>lat.=55.707310, lon.=26.295998, Alt.=167.853638m. Speed=14.076000m/h.</desc>
<speed>3.910000</speed>
</trkpt>
<trkpt lat="55.707283" lon="26.296045">
<ele>167.459106</ele>
<time>2010-07-18T08:48:00Z</time>
<desc>lat.=55.707283, lon.=26.296045, Alt.=167.459106m. Speed=13.572000m/h.</desc>
<speed>3.770000</speed>
</trkpt>
<trkpt lat="55.707268" lon="26.296097">
<ele>167.693481</ele>
<time>2010-07-18T08:48:01Z</time>
<desc>lat.=55.707268, lon.=26.296097, Alt.=167.693481m. Speed=13.320000m/h.</desc>
<speed>3.700000</speed>
</trkpt>
<trkpt lat="55.707245" lon="26.296144">
<ele>167.611450</ele>
<time>2010-07-18T08:48:02Z</time>
<desc>lat.=55.707245, lon.=26.296144, Alt.=167.611450m. Speed=14.328000m/h.</desc>
<speed>3.980000</speed>
</trkpt>
<trkpt lat="55.707218" lon="26.296192">
<ele>167.845825</ele>
<time>2010-07-18T08:48:03Z</time>
<desc>lat.=55.707218, lon.=26.296192, Alt.=167.845825m. Speed=15.264000m/h.</desc>
<speed>4.240000</speed>
</trkpt>
<trkpt lat="55.707191" lon="26.296240">
<ele>167.998169</ele>
<time>2010-07-18T08:48:04Z</time>
<desc>lat.=55.707191, lon.=26.296240, Alt.=167.998169m. Speed=15.948000m/h.</desc>
<speed>4.430000</speed>
</trkpt>
<trkpt lat="55.707165" lon="26.296291">
<ele>168.197388</ele>
<time>2010-07-18T08:48:05Z</time>
<desc>lat.=55.707165, lon.=26.296291, Alt.=168.197388m. Speed=16.452000m/h.</desc>
<speed>4.570000</speed>
</trkpt>
<trkpt lat="55.707138" lon="26.296343">
<ele>168.334106</ele>
<time>2010-07-18T08:48:06Z</time>
<desc>lat.=55.707138, lon.=26.296343, Alt.=168.334106m. Speed=16.955999m/h.</desc>
<speed>4.710000</speed>
</trkpt>
<trkpt lat="55.707108" lon="26.296402">
<ele>168.486450</ele>
<time>2010-07-18T08:48:07Z</time>
<desc>lat.=55.707108, lon.=26.296402, Alt.=168.486450m. Speed=17.208000m/h.</desc>
<speed>4.780000</speed>
</trkpt>
<trkpt lat="55.707077" lon="26.296457">
<ele>168.525513</ele>
<time>2010-07-18T08:48:08Z</time>
<desc>lat.=55.707077, lon.=26.296457, Alt.=168.525513m. Speed=16.955999m/h.</desc>
<speed>4.710000</speed>
</trkpt>
<trkpt lat="55.707050" lon="26.296515">
<ele>168.556763</ele>
<time>2010-07-18T08:48:09Z</time>
<desc>lat.=55.707050, lon.=26.296515, Alt.=168.556763m. Speed=16.020000m/h.</desc>
<speed>4.450000</speed>
</trkpt>
<trkpt lat="55.707020" lon="26.296562">
<ele>168.295044</ele>
<time>2010-07-18T08:48:10Z</time>
<desc>lat.=55.707020, lon.=26.296562, Alt.=168.295044m. Speed=15.228000m/h.</desc>
<speed>4.230000</speed>
</trkpt>
<trkpt lat="55.706993" lon="26.296610">
<ele>168.509888</ele>
<time>2010-07-18T08:48:11Z</time>
<desc>lat.=55.706993, lon.=26.296610, Alt.=168.509888m. Speed=14.292000m/h.</desc>
<speed>3.970000</speed>
</trkpt>
<trkpt lat="55.706978" lon="26.296654">
<ele>169.373169</ele>
<time>2010-07-18T08:48:12Z</time>
<desc>lat.=55.706978, lon.=26.296654, Alt.=169.373169m. Speed=9.828000m/h.</desc>
<speed>2.730000</speed>
</trkpt>
<trkpt lat="55.706959" lon="26.296690">
<ele>169.322388</ele>
<time>2010-07-18T08:48:13Z</time>
<desc>lat.=55.706959, lon.=26.296690, Alt.=169.322388m. Speed=11.808000m/h.</desc>
<speed>3.280000</speed>
</trkpt>
<trkpt lat="55.706936" lon="26.296726">
<ele>169.330200</ele>
<time>2010-07-18T08:48:14Z</time>
<desc>lat.=55.706936, lon.=26.296726, Alt.=169.330200m. Speed=11.268000m/h.</desc>
<speed>3.130000</speed>
</trkpt>
<trkpt lat="55.706917" lon="26.296759">
<ele>169.252075</ele>
<time>2010-07-18T08:48:15Z</time>
<desc>lat.=55.706917, lon.=26.296759, Alt.=169.252075m. Speed=10.476000m/h.</desc>
<speed>2.910000</speed>
</trkpt>
<trkpt lat="55.706894" lon="26.296791">
<ele>169.377075</ele>
<time>2010-07-18T08:48:16Z</time>
<desc>lat.=55.706894, lon.=26.296791, Alt.=169.377075m. Speed=11.196000m/h.</desc>
<speed>3.110000</speed>
</trkpt>
<trkpt lat="55.706871" lon="26.296829">
<ele>169.373169</ele>
<time>2010-07-18T08:48:17Z</time>
<desc>lat.=55.706871, lon.=26.296829, Alt.=169.373169m. Speed=11.844000m/h.</desc>
<speed>3.290000</speed>
</trkpt>
<trkpt lat="55.706848" lon="26.296864">
<ele>169.459106</ele>
<time>2010-07-18T08:48:18Z</time>
<desc>lat.=55.706848, lon.=26.296864, Alt.=169.459106m. Speed=12.708000m/h.</desc>
<speed>3.530000</speed>
</trkpt>
<trkpt lat="55.706829" lon="26.296906">
<ele>169.591919</ele>
<time>2010-07-18T08:48:19Z</time>
<desc>lat.=55.706829, lon.=26.296906, Alt.=169.591919m. Speed=13.068000m/h.</desc>
<speed>3.630000</speed>
</trkpt>
<trkpt lat="55.706806" lon="26.296946">
<ele>169.580200</ele>
<time>2010-07-18T08:48:20Z</time>
<desc>lat.=55.706806, lon.=26.296946, Alt.=169.580200m. Speed=13.608000m/h.</desc>
<speed>3.780000</speed>
</trkpt>
<trkpt lat="55.706783" lon="26.296988">
<ele>169.580200</ele>
<time>2010-07-18T08:48:21Z</time>
<desc>lat.=55.706783, lon.=26.296988, Alt.=169.580200m. Speed=13.860000m/h.</desc>
<speed>3.850000</speed>
</trkpt>
<trkpt lat="55.706757" lon="26.297028">
<ele>169.560669</ele>
<time>2010-07-18T08:48:22Z</time>
<desc>lat.=55.706757, lon.=26.297028, Alt.=169.560669m. Speed=14.544000m/h.</desc>
<speed>4.040000</speed>
</trkpt>
<trkpt lat="55.706726" lon="26.297068">
<ele>169.486450</ele>
<time>2010-07-18T08:48:23Z</time>
<desc>lat.=55.706726, lon.=26.297068, Alt.=169.486450m. Speed=15.084000m/h.</desc>
<speed>4.190000</speed>
</trkpt>
<trkpt lat="55.706699" lon="26.297115">
<ele>169.584106</ele>
<time>2010-07-18T08:48:24Z</time>
<desc>lat.=55.706699, lon.=26.297115, Alt.=169.584106m. Speed=14.652000m/h.</desc>
<speed>4.070000</speed>
</trkpt>
<trkpt lat="55.706665" lon="26.297159">
<ele>168.845825</ele>
<time>2010-07-18T08:48:25Z</time>
<desc>lat.=55.706665, lon.=26.297159, Alt.=168.845825m. Speed=19.296000m/h.</desc>
<speed>5.360000</speed>
</trkpt>
<trkpt lat="55.706631" lon="26.297205">
<ele>168.533325</ele>
<time>2010-07-18T08:48:26Z</time>
<desc>lat.=55.706631, lon.=26.297205, Alt.=168.533325m. Speed=15.768000m/h.</desc>
<speed>4.380000</speed>
</trkpt>
<trkpt lat="55.706596" lon="26.297249">
<ele>168.767700</ele>
<time>2010-07-18T08:48:27Z</time>
<desc>lat.=55.706596, lon.=26.297249, Alt.=168.767700m. Speed=16.308001m/h.</desc>
<speed>4.530000</speed>
</trkpt>
<trkpt lat="55.706566" lon="26.297298">
<ele>169.162231</ele>
<time>2010-07-18T08:48:28Z</time>
<desc>lat.=55.706566, lon.=26.297298, Alt.=169.162231m. Speed=16.524000m/h.</desc>
<speed>4.590000</speed>
</trkpt>
<trkpt lat="55.706535" lon="26.297342">
<ele>169.369263</ele>
<time>2010-07-18T08:48:29Z</time>
<desc>lat.=55.706535, lon.=26.297342, Alt.=169.369263m. Speed=16.632000m/h.</desc>
<speed>4.620000</speed>
</trkpt>
<trkpt lat="55.706501" lon="26.297386">
<ele>169.533325</ele>
<time>2010-07-18T08:48:30Z</time>
<desc>lat.=55.706501, lon.=26.297386, Alt.=169.533325m. Speed=17.028000m/h.</desc>
<speed>4.730000</speed>
</trkpt>
<trkpt lat="55.706463" lon="26.297430">
<ele>169.533325</ele>
<time>2010-07-18T08:48:31Z</time>
<desc>lat.=55.706463, lon.=26.297430, Alt.=169.533325m. Speed=16.667999m/h.</desc>
<speed>4.630000</speed>
</trkpt>
<trkpt lat="55.706432" lon="26.297476">
<ele>169.630981</ele>
<time>2010-07-18T08:48:32Z</time>
<desc>lat.=55.706432, lon.=26.297476, Alt.=169.630981m. Speed=15.228000m/h.</desc>
<speed>4.230000</speed>
</trkpt>
<trkpt lat="55.706406" lon="26.297518">
<ele>169.658325</ele>
<time>2010-07-18T08:48:33Z</time>
<desc>lat.=55.706406, lon.=26.297518, Alt.=169.658325m. Speed=14.220000m/h.</desc>
<speed>3.950000</speed>
</trkpt>
<trkpt lat="55.706379" lon="26.297558">
<ele>169.564575</ele>
<time>2010-07-18T08:48:34Z</time>
<desc>lat.=55.706379, lon.=26.297558, Alt.=169.564575m. Speed=12.780000m/h.</desc>
<speed>3.550000</speed>
</trkpt>
<trkpt lat="55.706356" lon="26.297586">
<ele>169.470825</ele>
<time>2010-07-18T08:48:35Z</time>
<desc>lat.=55.706356, lon.=26.297586, Alt.=169.470825m. Speed=11.592000m/h.</desc>
<speed>3.220000</speed>
</trkpt>
<trkpt lat="55.706333" lon="26.297615">
<ele>169.525513</ele>
<time>2010-07-18T08:48:36Z</time>
<desc>lat.=55.706333, lon.=26.297615, Alt.=169.525513m. Speed=10.584000m/h.</desc>
<speed>2.940000</speed>
</trkpt>
<trkpt lat="55.706310" lon="26.297638">
<ele>169.392700</ele>
<time>2010-07-18T08:48:37Z</time>
<desc>lat.=55.706310, lon.=26.297638, Alt.=169.392700m. Speed=9.936000m/h.</desc>
<speed>2.760000</speed>
</trkpt>
<trkpt lat="55.706291" lon="26.297657">
<ele>169.830200</ele>
<time>2010-07-18T08:48:38Z</time>
<desc>lat.=55.706291, lon.=26.297657, Alt.=169.830200m. Speed=7.128000m/h.</desc>
<speed>1.980000</speed>
</trkpt>
<trkpt lat="55.706276" lon="26.297676">
<ele>170.271606</ele>
<time>2010-07-18T08:48:39Z</time>
<desc>lat.=55.706276, lon.=26.297676, Alt.=170.271606m. Speed=7.776000m/h.</desc>
<speed>2.160000</speed>
</trkpt>
<trkpt lat="55.706257" lon="26.297697">
<ele>170.607544</ele>
<time>2010-07-18T08:48:40Z</time>
<desc>lat.=55.706257, lon.=26.297697, Alt.=170.607544m. Speed=9.756000m/h.</desc>
<speed>2.710000</speed>
</trkpt>
<trkpt lat="55.706242" lon="26.297735">
<ele>172.099731</ele>
<time>2010-07-18T08:48:41Z</time>
<desc>lat.=55.706242, lon.=26.297735, Alt.=172.099731m. Speed=10.548000m/h.</desc>
<speed>2.930000</speed>
</trkpt>
<trkpt lat="55.706223" lon="26.297768">
<ele>172.830200</ele>
<time>2010-07-18T08:48:42Z</time>
<desc>lat.=55.706223, lon.=26.297768, Alt.=172.830200m. Speed=10.728000m/h.</desc>
<speed>2.980000</speed>
</trkpt>
<trkpt lat="55.706203" lon="26.297800">
<ele>173.400513</ele>
<time>2010-07-18T08:48:43Z</time>
<desc>lat.=55.706203, lon.=26.297800, Alt.=173.400513m. Speed=10.332000m/h.</desc>
<speed>2.870000</speed>
</trkpt>
<trkpt lat="55.706188" lon="26.297834">
<ele>173.880981</ele>
<time>2010-07-18T08:48:44Z</time>
<desc>lat.=55.706188, lon.=26.297834, Alt.=173.880981m. Speed=10.584000m/h.</desc>
<speed>2.940000</speed>
</trkpt>
<trkpt lat="55.706165" lon="26.297863">
<ele>174.123169</ele>
<time>2010-07-18T08:48:45Z</time>
<desc>lat.=55.706165, lon.=26.297863, Alt.=174.123169m. Speed=11.448000m/h.</desc>
<speed>3.180000</speed>
</trkpt>
<trkpt lat="55.706135" lon="26.297890">
<ele>174.619263</ele>
<time>2010-07-18T08:48:46Z</time>
<desc>lat.=55.706135, lon.=26.297890, Alt.=174.619263m. Speed=12.960000m/h.</desc>
<speed>3.600000</speed>
</trkpt>
<trkpt lat="55.706108" lon="26.297915">
<ele>174.701294</ele>
<time>2010-07-18T08:48:47Z</time>
<desc>lat.=55.706108, lon.=26.297915, Alt.=174.701294m. Speed=10.944000m/h.</desc>
<speed>3.040000</speed>
</trkpt>
<trkpt lat="55.706081" lon="26.297943">
<ele>175.080200</ele>
<time>2010-07-18T08:48:48Z</time>
<desc>lat.=55.706081, lon.=26.297943, Alt.=175.080200m. Speed=12.600000m/h.</desc>
<speed>3.500000</speed>
</trkpt>
<trkpt lat="55.706055" lon="26.297977">
<ele>174.787231</ele>
<time>2010-07-18T08:48:49Z</time>
<desc>lat.=55.706055, lon.=26.297977, Alt.=174.787231m. Speed=12.276000m/h.</desc>
<speed>3.410000</speed>
</trkpt>
<trkpt lat="55.706028" lon="26.298006">
<ele>175.072388</ele>
<time>2010-07-18T08:48:50Z</time>
<desc>lat.=55.706028, lon.=26.298006, Alt.=175.072388m. Speed=12.240000m/h.</desc>
<speed>3.400000</speed>
</trkpt>
<trkpt lat="55.705994" lon="26.298038">
<ele>174.939575</ele>
<time>2010-07-18T08:48:51Z</time>
<desc>lat.=55.705994, lon.=26.298038, Alt.=174.939575m. Speed=12.600000m/h.</desc>
<speed>3.500000</speed>
</trkpt>
<trkpt lat="55.705967" lon="26.298073">
<ele>174.845825</ele>
<time>2010-07-18T08:48:52Z</time>
<desc>lat.=55.705967, lon.=26.298073, Alt.=174.845825m. Speed=13.680000m/h.</desc>
<speed>3.800000</speed>
</trkpt>
<trkpt lat="55.705940" lon="26.298101">
<ele>175.084106</ele>
<time>2010-07-18T08:48:53Z</time>
<desc>lat.=55.705940, lon.=26.298101, Alt.=175.084106m. Speed=13.680000m/h.</desc>
<speed>3.800000</speed>
</trkpt>
<trkpt lat="55.705914" lon="26.298134">
<ele>175.209106</ele>
<time>2010-07-18T08:48:54Z</time>
<desc>lat.=55.705914, lon.=26.298134, Alt.=175.209106m. Speed=12.060000m/h.</desc>
<speed>3.350000</speed>
</trkpt>
<trkpt lat="55.705887" lon="26.298161">
<ele>175.025513</ele>
<time>2010-07-18T08:48:55Z</time>
<desc>lat.=55.705887, lon.=26.298161, Alt.=175.025513m. Speed=11.664000m/h.</desc>
<speed>3.240000</speed>
</trkpt>
<trkpt lat="55.705860" lon="26.298193">
<ele>175.244263</ele>
<time>2010-07-18T08:48:56Z</time>
<desc>lat.=55.705860, lon.=26.298193, Alt.=175.244263m. Speed=13.176000m/h.</desc>
<speed>3.660000</speed>
</trkpt>
<trkpt lat="55.705837" lon="26.298227">
<ele>175.545044</ele>
<time>2010-07-18T08:48:57Z</time>
<desc>lat.=55.705837, lon.=26.298227, Alt.=175.545044m. Speed=12.636000m/h.</desc>
<speed>3.510000</speed>
</trkpt>
<trkpt lat="55.705807" lon="26.298264">
<ele>175.545044</ele>
<time>2010-07-18T08:48:58Z</time>
<desc>lat.=55.705807, lon.=26.298264, Alt.=175.545044m. Speed=13.680000m/h.</desc>
<speed>3.800000</speed>
</trkpt>
<trkpt lat="55.705788" lon="26.298298">
<ele>176.755981</ele>
<time>2010-07-18T08:48:59Z</time>
<desc>lat.=55.705788, lon.=26.298298, Alt.=176.755981m. Speed=13.032000m/h.</desc>
<speed>3.620000</speed>
</trkpt>
<trkpt lat="55.705769" lon="26.298334">
<ele>177.353638</ele>
<time>2010-07-18T08:49:00Z</time>
<desc>lat.=55.705769, lon.=26.298334, Alt.=177.353638m. Speed=12.420000m/h.</desc>
<speed>3.450000</speed>
</trkpt>
<trkpt lat="55.705746" lon="26.298372">
<ele>178.134888</ele>
<time>2010-07-18T08:49:01Z</time>
<desc>lat.=55.705746, lon.=26.298372, Alt.=178.134888m. Speed=12.024000m/h.</desc>
<speed>3.340000</speed>
</trkpt>
<trkpt lat="55.705719" lon="26.298407">
<ele>179.076294</ele>
<time>2010-07-18T08:49:02Z</time>
<desc>lat.=55.705719, lon.=26.298407, Alt.=179.076294m. Speed=13.500000m/h.</desc>
<speed>3.750000</speed>
</trkpt>
<trkpt lat="55.705692" lon="26.298437">
<ele>179.345825</ele>
<time>2010-07-18T08:49:03Z</time>
<desc>lat.=55.705692, lon.=26.298437, Alt.=179.345825m. Speed=12.744000m/h.</desc>
<speed>3.540000</speed>
</trkpt>
<trkpt lat="55.705666" lon="26.298470">
<ele>179.630981</ele>
<time>2010-07-18T08:49:04Z</time>
<desc>lat.=55.705666, lon.=26.298470, Alt.=179.630981m. Speed=12.420000m/h.</desc>
<speed>3.450000</speed>
</trkpt>
<trkpt lat="55.705639" lon="26.298502">
<ele>179.845825</ele>
<time>2010-07-18T08:49:05Z</time>
<desc>lat.=55.705639, lon.=26.298502, Alt.=179.845825m. Speed=13.140000m/h.</desc>
<speed>3.650000</speed>
</trkpt>
<trkpt lat="55.705608" lon="26.298532">
<ele>180.330200</ele>
<time>2010-07-18T08:49:06Z</time>
<desc>lat.=55.705608, lon.=26.298532, Alt.=180.330200m. Speed=13.284000m/h.</desc>
<speed>3.690000</speed>
</trkpt>
<trkpt lat="55.705578" lon="26.298571">
<ele>180.357544</ele>
<time>2010-07-18T08:49:07Z</time>
<desc>lat.=55.705578, lon.=26.298571, Alt.=180.357544m. Speed=14.184000m/h.</desc>
<speed>3.940000</speed>
</trkpt>
<trkpt lat="55.705544" lon="26.298607">
<ele>180.232544</ele>
<time>2010-07-18T08:49:08Z</time>
<desc>lat.=55.705544, lon.=26.298607, Alt.=180.232544m. Speed=14.400000m/h.</desc>
<speed>4.000000</speed>
</trkpt>
<trkpt lat="55.705513" lon="26.298641">
<ele>180.443481</ele>
<time>2010-07-18T08:49:09Z</time>
<desc>lat.=55.705513, lon.=26.298641, Alt.=180.443481m. Speed=14.076000m/h.</desc>
<speed>3.910000</speed>
</trkpt>
<trkpt lat="55.705482" lon="26.298676">
<ele>181.388794</ele>
<time>2010-07-18T08:49:10Z</time>
<desc>lat.=55.705482, lon.=26.298676, Alt.=181.388794m. Speed=14.184000m/h.</desc>
<speed>3.940000</speed>
</trkpt>
<trkpt lat="55.705452" lon="26.298712">
<ele>181.400513</ele>
<time>2010-07-18T08:49:11Z</time>
<desc>lat.=55.705452, lon.=26.298712, Alt.=181.400513m. Speed=14.148000m/h.</desc>
<speed>3.930000</speed>
</trkpt>
<trkpt lat="55.705418" lon="26.298742">
<ele>182.259888</ele>
<time>2010-07-18T08:49:12Z</time>
<desc>lat.=55.705418, lon.=26.298742, Alt.=182.259888m. Speed=13.140000m/h.</desc>
<speed>3.650000</speed>
</trkpt>
<trkpt lat="55.705376" lon="26.298782">
<ele>182.334106</ele>
<time>2010-07-18T08:49:13Z</time>
<desc>lat.=55.705376, lon.=26.298782, Alt.=182.334106m. Speed=13.644000m/h.</desc>
<speed>3.790000</speed>
</trkpt>
<trkpt lat="55.705338" lon="26.298815">
<ele>183.416138</ele>
<time>2010-07-18T08:49:14Z</time>
<desc>lat.=55.705338, lon.=26.298815, Alt.=183.416138m. Speed=14.760000m/h.</desc>
<speed>4.100000</speed>
</trkpt>
<trkpt lat="55.705296" lon="26.298851">
<ele>183.595825</ele>
<time>2010-07-18T08:49:15Z</time>
<desc>lat.=55.705296, lon.=26.298851, Alt.=183.595825m. Speed=15.084000m/h.</desc>
<speed>4.190000</speed>
</trkpt>
<trkpt lat="55.705265" lon="26.298883">
<ele>184.791138</ele>
<time>2010-07-18T08:49:16Z</time>
<desc>lat.=55.705265, lon.=26.298883, Alt.=184.791138m. Speed=15.804000m/h.</desc>
<speed>4.390000</speed>
</trkpt>
<trkpt lat="55.705227" lon="26.298923">
<ele>185.185669</ele>
<time>2010-07-18T08:49:17Z</time>
<desc>lat.=55.705227, lon.=26.298923, Alt.=185.185669m. Speed=15.372000m/h.</desc>
<speed>4.270000</speed>
</trkpt>
<trkpt lat="55.705196" lon="26.298956">
<ele>186.013794</ele>
<time>2010-07-18T08:49:18Z</time>
<desc>lat.=55.705196, lon.=26.298956, Alt.=186.013794m. Speed=15.012000m/h.</desc>
<speed>4.170000</speed>
</trkpt>
<trkpt lat="55.705166" lon="26.298994">
<ele>186.627075</ele>
<time>2010-07-18T08:49:19Z</time>
<desc>lat.=55.705166, lon.=26.298994, Alt.=186.627075m. Speed=15.444000m/h.</desc>
<speed>4.290000</speed>
</trkpt>
<trkpt lat="55.705132" lon="26.299028">
<ele>186.693481</ele>
<time>2010-07-18T08:49:20Z</time>
<desc>lat.=55.705132, lon.=26.299028, Alt.=186.693481m. Speed=13.896000m/h.</desc>
<speed>3.860000</speed>
</trkpt>
<trkpt lat="55.705097" lon="26.299067">
<ele>186.037231</ele>
<time>2010-07-18T08:49:21Z</time>
<desc>lat.=55.705097, lon.=26.299067, Alt.=186.037231m. Speed=14.724000m/h.</desc>
<speed>4.090000</speed>
</trkpt>
<trkpt lat="55.705055" lon="26.299109">
<ele>185.244263</ele>
<time>2010-07-18T08:49:22Z</time>
<desc>lat.=55.705055, lon.=26.299109, Alt.=185.244263m. Speed=15.948000m/h.</desc>
<speed>4.430000</speed>
</trkpt>
<trkpt lat="55.705017" lon="26.299149">
<ele>184.998169</ele>
<time>2010-07-18T08:49:23Z</time>
<desc>lat.=55.705017, lon.=26.299149, Alt.=184.998169m. Speed=16.164000m/h.</desc>
<speed>4.490000</speed>
</trkpt>
<trkpt lat="55.704975" lon="26.299191">
<ele>184.365356</ele>
<time>2010-07-18T08:49:24Z</time>
<desc>lat.=55.704975, lon.=26.299191, Alt.=184.365356m. Speed=16.200001m/h.</desc>
<speed>4.500000</speed>
</trkpt>
<trkpt lat="55.704929" lon="26.299236">
<ele>184.384888</ele>
<time>2010-07-18T08:49:25Z</time>
<desc>lat.=55.704929, lon.=26.299236, Alt.=184.384888m. Speed=19.260000m/h.</desc>
<speed>5.350000</speed>
</trkpt>
<trkpt lat="55.704887" lon="26.299278">
<ele>184.775513</ele>
<time>2010-07-18T08:49:26Z</time>
<desc>lat.=55.704887, lon.=26.299278, Alt.=184.775513m. Speed=19.115999m/h.</desc>
<speed>5.310000</speed>
</trkpt>
<trkpt lat="55.704845" lon="26.299326">
<ele>185.377075</ele>
<time>2010-07-18T08:49:27Z</time>
<desc>lat.=55.704845, lon.=26.299326, Alt.=185.377075m. Speed=17.172001m/h.</desc>
<speed>4.770000</speed>
</trkpt>
<trkpt lat="55.704807" lon="26.299368">
<ele>185.646606</ele>
<time>2010-07-18T08:49:28Z</time>
<desc>lat.=55.704807, lon.=26.299368, Alt.=185.646606m. Speed=16.416000m/h.</desc>
<speed>4.560000</speed>
</trkpt>
<trkpt lat="55.704762" lon="26.299410">
<ele>185.533325</ele>
<time>2010-07-18T08:49:29Z</time>
<desc>lat.=55.704762, lon.=26.299410, Alt.=185.533325m. Speed=16.740000m/h.</desc>
<speed>4.650000</speed>
</trkpt>
<trkpt lat="55.704723" lon="26.299446">
<ele>185.845825</ele>
<time>2010-07-18T08:49:30Z</time>
<desc>lat.=55.704723, lon.=26.299446, Alt.=185.845825m. Speed=14.616000m/h.</desc>
<speed>4.060000</speed>
</trkpt>
<trkpt lat="55.704693" lon="26.299477">
<ele>185.986450</ele>
<time>2010-07-18T08:49:31Z</time>
<desc>lat.=55.704693, lon.=26.299477, Alt.=185.986450m. Speed=13.500000m/h.</desc>
<speed>3.750000</speed>
</trkpt>
<trkpt lat="55.704659" lon="26.299509">
<ele>185.545044</ele>
<time>2010-07-18T08:49:32Z</time>
<desc>lat.=55.704659, lon.=26.299509, Alt.=185.545044m. Speed=12.708000m/h.</desc>
<speed>3.530000</speed>
</trkpt>
<trkpt lat="55.704620" lon="26.299538">
<ele>182.599731</ele>
<time>2010-07-18T08:49:33Z</time>
<desc>lat.=55.704620, lon.=26.299538, Alt.=182.599731m. Speed=12.708000m/h.</desc>
<speed>3.530000</speed>
</trkpt>
<trkpt lat="55.704578" lon="26.299564">
<ele>179.963013</ele>
<time>2010-07-18T08:49:34Z</time>
<desc>lat.=55.704578, lon.=26.299564, Alt.=179.963013m. Speed=12.132000m/h.</desc>
<speed>3.370000</speed>
</trkpt>
<trkpt lat="55.704556" lon="26.299585">
<ele>180.322388</ele>
<time>2010-07-18T08:49:35Z</time>
<desc>lat.=55.704556, lon.=26.299585, Alt.=180.322388m. Speed=13.500000m/h.</desc>
<speed>3.750000</speed>
</trkpt>
<trkpt lat="55.704525" lon="26.299612">
<ele>181.189575</ele>
<time>2010-07-18T08:49:36Z</time>
<desc>lat.=55.704525, lon.=26.299612, Alt.=181.189575m. Speed=14.688000m/h.</desc>
<speed>4.080000</speed>
</trkpt>
<trkpt lat="55.704494" lon="26.299643">
<ele>181.287231</ele>
<time>2010-07-18T08:49:37Z</time>
<desc>lat.=55.704494, lon.=26.299643, Alt.=181.287231m. Speed=13.824000m/h.</desc>
<speed>3.840000</speed>
</trkpt>
<trkpt lat="55.704456" lon="26.299686">
<ele>180.029419</ele>
<time>2010-07-18T08:49:38Z</time>
<desc>lat.=55.704456, lon.=26.299686, Alt.=180.029419m. Speed=15.768000m/h.</desc>
<speed>4.380000</speed>
</trkpt>
<trkpt lat="55.704418" lon="26.299726">
<ele>178.990356</ele>
<time>2010-07-18T08:49:39Z</time>
<desc>lat.=55.704418, lon.=26.299726, Alt.=178.990356m. Speed=13.932000m/h.</desc>
<speed>3.870000</speed>
</trkpt>
<trkpt lat="55.704388" lon="26.299759">
<ele>178.998169</ele>
<time>2010-07-18T08:49:40Z</time>
<desc>lat.=55.704388, lon.=26.299759, Alt.=178.998169m. Speed=13.176000m/h.</desc>
<speed>3.660000</speed>
</trkpt>
<trkpt lat="55.704361" lon="26.299784">
<ele>179.380981</ele>
<time>2010-07-18T08:49:41Z</time>
<desc>lat.=55.704361, lon.=26.299784, Alt.=179.380981m. Speed=12.420000m/h.</desc>
<speed>3.450000</speed>
</trkpt>
<trkpt lat="55.704334" lon="26.299799">
<ele>179.638794</ele>
<time>2010-07-18T08:49:42Z</time>
<desc>lat.=55.704334, lon.=26.299799, Alt.=179.638794m. Speed=11.808000m/h.</desc>
<speed>3.280000</speed>
</trkpt>
<trkpt lat="55.704308" lon="26.299822">
<ele>179.384888</ele>
<time>2010-07-18T08:49:43Z</time>
<desc>lat.=55.704308, lon.=26.299822, Alt.=179.384888m. Speed=10.260000m/h.</desc>
<speed>2.850000</speed>
</trkpt>
<trkpt lat="55.704281" lon="26.299841">
<ele>179.287231</ele>
<time>2010-07-18T08:49:44Z</time>
<desc>lat.=55.704281, lon.=26.299841, Alt.=179.287231m. Speed=9.432000m/h.</desc>
<speed>2.620000</speed>
</trkpt>
<trkpt lat="55.704258" lon="26.299860">
<ele>179.119263</ele>
<time>2010-07-18T08:49:45Z</time>
<desc>lat.=55.704258, lon.=26.299860, Alt.=179.119263m. Speed=9.144000m/h.</desc>
<speed>2.540000</speed>
</trkpt>
<trkpt lat="55.704235" lon="26.299877">
<ele>179.150513</ele>
<time>2010-07-18T08:49:46Z</time>
<desc>lat.=55.704235, lon.=26.299877, Alt.=179.150513m. Speed=8.352000m/h.</desc>
<speed>2.320000</speed>
</trkpt>
<trkpt lat="55.704216" lon="26.299891">
<ele>179.384888</ele>
<time>2010-07-18T08:49:47Z</time>
<desc>lat.=55.704216, lon.=26.299891, Alt.=179.384888m. Speed=7.812000m/h.</desc>
<speed>2.170000</speed>
</trkpt>
<trkpt lat="55.704201" lon="26.299906">
<ele>179.252075</ele>
<time>2010-07-18T08:49:48Z</time>
<desc>lat.=55.704201, lon.=26.299906, Alt.=179.252075m. Speed=6.552000m/h.</desc>
<speed>1.820000</speed>
</trkpt>
<trkpt lat="55.704189" lon="26.299925">
<ele>179.244263</ele>
<time>2010-07-18T08:49:49Z</time>
<desc>lat.=55.704189, lon.=26.299925, Alt.=179.244263m. Speed=6.408000m/h.</desc>
<speed>1.780000</speed>
</trkpt>
<trkpt lat="55.704174" lon="26.299942">
<ele>179.318481</ele>
<time>2010-07-18T08:49:50Z</time>
<desc>lat.=55.704174, lon.=26.299942, Alt.=179.318481m. Speed=5.220000m/h.</desc>
<speed>1.450000</speed>
</trkpt>
<trkpt lat="55.704166" lon="26.299950">
<ele>179.201294</ele>
<time>2010-07-18T08:49:51Z</time>
<desc>lat.=55.704166, lon.=26.299950, Alt.=179.201294m. Speed=5.040000m/h.</desc>
<speed>1.400000</speed>
</trkpt>
<trkpt lat="55.704155" lon="26.299944">
<ele>179.658325</ele>
<time>2010-07-18T08:49:52Z</time>
<desc>lat.=55.704155, lon.=26.299944, Alt.=179.658325m. Speed=6.372000m/h.</desc>
<speed>1.770000</speed>
</trkpt>
<trkpt lat="55.704147" lon="26.299950">
<ele>180.638794</ele>
<time>2010-07-18T08:49:53Z</time>
<desc>lat.=55.704147, lon.=26.299950, Alt.=180.638794m. Speed=6.408000m/h.</desc>
<speed>1.780000</speed>
</trkpt>
<trkpt lat="55.704128" lon="26.299963">
<ele>180.931763</ele>
<time>2010-07-18T08:49:54Z</time>
<desc>lat.=55.704128, lon.=26.299963, Alt.=180.931763m. Speed=6.336000m/h.</desc>
<speed>1.760000</speed>
</trkpt>
<trkpt lat="55.704113" lon="26.299976">
<ele>180.920044</ele>
<time>2010-07-18T08:49:55Z</time>
<desc>lat.=55.704113, lon.=26.299976, Alt.=180.920044m. Speed=4.680000m/h.</desc>
<speed>1.300000</speed>
</trkpt>
<trkpt lat="55.704105" lon="26.299984">
<ele>180.970825</ele>
<time>2010-07-18T08:49:56Z</time>
<desc>lat.=55.704105, lon.=26.299984, Alt.=180.970825m. Speed=3.384000m/h.</desc>
<speed>0.940000</speed>
</trkpt>
<trkpt lat="55.704102" lon="26.299988">
<ele>181.244263</ele>
<time>2010-07-18T08:49:57Z</time>
<desc>lat.=55.704102, lon.=26.299988, Alt.=181.244263m. Speed=0.684000m/h.</desc>
<speed>0.190000</speed>
</trkpt>
<trkpt lat="55.704105" lon="26.299992">
<ele>181.955200</ele>
<time>2010-07-18T08:49:58Z</time>
<desc>lat.=55.704105, lon.=26.299992, Alt.=181.955200m. Speed=0.360000m/h.</desc>
<speed>0.100000</speed>
</trkpt>
<trkpt lat="55.704109" lon="26.299988">
<ele>182.404419</ele>
<time>2010-07-18T08:49:59Z</time>
<desc>lat.=55.704109, lon.=26.299988, Alt.=182.404419m. Speed=0.036000m/h.</desc>
<speed>0.010000</speed>
</trkpt>
<trkpt lat="55.704109" lon="26.299988">
<ele>182.521606</ele>
<time>2010-07-18T08:50:00Z</time>
<desc>lat.=55.704109, lon.=26.299988, Alt.=182.521606m. Speed=0.036000m/h.</desc>
<speed>0.010000</speed>
</trkpt>
<trkpt lat="55.704109" lon="26.299988">
<ele>182.634888</ele>
<time>2010-07-18T08:50:01Z</time>
<desc>lat.=55.704109, lon.=26.299988, Alt.=182.634888m. Speed=0.036000m/h.</desc>
<speed>0.010000</speed>
</trkpt>
<trkpt lat="55.704109" lon="26.299988">
<ele>182.716919</ele>
<time>2010-07-18T08:50:02Z</time>
<desc>lat.=55.704109, lon.=26.299988, Alt.=182.716919m. Speed=0.324000m/h.</desc>
<speed>0.090000</speed>
</trkpt>
<trkpt lat="55.704109" lon="26.299988">
<ele>182.791138</ele>
<time>2010-07-18T08:50:03Z</time>
<desc>lat.=55.704109, lon.=26.299988, Alt.=182.791138m. Speed=0.252000m/h.</desc>
<speed>0.070000</speed>
</trkpt>
<trkpt lat="55.704109" lon="26.299990">
<ele>182.857544</ele>
<time>2010-07-18T08:50:04Z</time>
<desc>lat.=55.704109, lon.=26.299990, Alt.=182.857544m. Speed=0.324000m/h.</desc>
<speed>0.090000</speed>
</trkpt>
<trkpt lat="55.704109" lon="26.299990">
<ele>182.908325</ele>
<time>2010-07-18T08:50:05Z</time>
<desc>lat.=55.704109, lon.=26.299990, Alt.=182.908325m. Speed=0.432000m/h.</desc>
<speed>0.120000</speed>
</trkpt>
<trkpt lat="55.704109" lon="26.299990">
<ele>182.935669</ele>
<time>2010-07-18T08:50:06Z</time>
<desc>lat.=55.704109, lon.=26.299990, Alt.=182.935669m. Speed=0.252000m/h.</desc>
<speed>0.070000</speed>
</trkpt>
<trkpt lat="55.704109" lon="26.299992">
<ele>182.959106</ele>
<time>2010-07-18T08:50:07Z</time>
<desc>lat.=55.704109, lon.=26.299992, Alt.=182.959106m. Speed=0.000000m/h.</desc>
<speed>0.000000</speed>
</trkpt>
<trkpt lat="55.704109" lon="26.299992">
<ele>182.974731</ele>
<time>2010-07-18T08:50:08Z</time>
<desc>lat.=55.704109, lon.=26.299992, Alt.=182.974731m. Speed=0.000000m/h.</desc>
<speed>0.000000</speed>
</trkpt>
<trkpt lat="55.704109" lon="26.299992">
<ele>182.986450</ele>
<time>2010-07-18T08:50:09Z</time>
<desc>lat.=55.704109, lon.=26.299992, Alt.=182.986450m. Speed=0.000000m/h.</desc>
<speed>0.000000</speed>
</trkpt>
<trkpt lat="55.704109" lon="26.299992">
<ele>183.005981</ele>
<time>2010-07-18T08:50:10Z</time>
<desc>lat.=55.704109, lon.=26.299992, Alt.=183.005981m. Speed=0.036000m/h.</desc>
<speed>0.010000</speed>
</trkpt>
<trkpt lat="55.704109" lon="26.299992">
<ele>183.021606</ele>
<time>2010-07-18T08:50:11Z</time>
<desc>lat.=55.704109, lon.=26.299992, Alt.=183.021606m. Speed=0.036000m/h.</desc>
<speed>0.010000</speed>
</trkpt>
<trkpt lat="55.704109" lon="26.299992">
<ele>183.013794</ele>
<time>2010-07-18T08:50:12Z</time>
<desc>lat.=55.704109, lon.=26.299992, Alt.=183.013794m. Speed=0.036000m/h.</desc>
<speed>0.010000</speed>
</trkpt>
<trkpt lat="55.704109" lon="26.299992">
<ele>183.013794</ele>
<time>2010-07-18T08:50:13Z</time>
<desc>lat.=55.704109, lon.=26.299992, Alt.=183.013794m. Speed=0.216000m/h.</desc>
<speed>0.060000</speed>
</trkpt>
<trkpt lat="55.704109" lon="26.299992">
<ele>183.009888</ele>
<time>2010-07-18T08:50:14Z</time>
<desc>lat.=55.704109, lon.=26.299992, Alt.=183.009888m. Speed=0.072000m/h.</desc>
<speed>0.020000</speed>
</trkpt>
<trkpt lat="55.704109" lon="26.299992">
<ele>183.017700</ele>
<time>2010-07-18T08:50:15Z</time>
<desc>lat.=55.704109, lon.=26.299992, Alt.=183.017700m. Speed=0.000000m/h.</desc>
<speed>0.000000</speed>
</trkpt>
<trkpt lat="55.704109" lon="26.299992">
<ele>183.021606</ele>
<time>2010-07-18T08:50:16Z</time>
<desc>lat.=55.704109, lon.=26.299992, Alt.=183.021606m. Speed=0.108000m/h.</desc>
<speed>0.030000</speed>
</trkpt>
<trkpt lat="55.704109" lon="26.299992">
<ele>183.037231</ele>
<time>2010-07-18T08:50:17Z</time>
<desc>lat.=55.704109, lon.=26.299992, Alt.=183.037231m. Speed=0.072000m/h.</desc>
<speed>0.020000</speed>
</trkpt>
<trkpt lat="55.704109" lon="26.299992">
<ele>183.037231</ele>
<time>2010-07-18T08:50:18Z</time>
<desc>lat.=55.704109, lon.=26.299992, Alt.=183.037231m. Speed=0.144000m/h.</desc>
<speed>0.040000</speed>
</trkpt>
<trkpt lat="55.704109" lon="26.299992">
<ele>183.056763</ele>
<time>2010-07-18T08:50:19Z</time>
<desc>lat.=55.704109, lon.=26.299992, Alt.=183.056763m. Speed=0.144000m/h.</desc>
<speed>0.040000</speed>
</trkpt>
<trkpt lat="55.704109" lon="26.299992">
<ele>183.130981</ele>
<time>2010-07-18T08:50:20Z</time>
<desc>lat.=55.704109, lon.=26.299992, Alt.=183.130981m. Speed=0.144000m/h.</desc>
<speed>0.040000</speed>
</trkpt>
<trkpt lat="55.704109" lon="26.299994">
<ele>183.197388</ele>
<time>2010-07-18T08:50:21Z</time>
<desc>lat.=55.704109, lon.=26.299994, Alt.=183.197388m. Speed=0.180000m/h.</desc>
<speed>0.050000</speed>
</trkpt>
<trkpt lat="55.704109" lon="26.299994">
<ele>183.252075</ele>
<time>2010-07-18T08:50:22Z</time>
<desc>lat.=55.704109, lon.=26.299994, Alt.=183.252075m. Speed=0.108000m/h.</desc>
<speed>0.030000</speed>
</trkpt>
<trkpt lat="55.704109" lon="26.299994">
<ele>183.302856</ele>
<time>2010-07-18T08:50:23Z</time>
<desc>lat.=55.704109, lon.=26.299994, Alt.=183.302856m. Speed=0.216000m/h.</desc>
<speed>0.060000</speed>
</trkpt>
<trkpt lat="55.704109" lon="26.299995">
<ele>183.349731</ele>
<time>2010-07-18T08:50:24Z</time>
<desc>lat.=55.704109, lon.=26.299995, Alt.=183.349731m. Speed=0.216000m/h.</desc>
<speed>0.060000</speed>
</trkpt>
<trkpt lat="55.704109" lon="26.299994">
<ele>183.377075</ele>
<time>2010-07-18T08:50:25Z</time>
<desc>lat.=55.704109, lon.=26.299994, Alt.=183.377075m. Speed=0.144000m/h.</desc>
<speed>0.040000</speed>
</trkpt>
<trkpt lat="55.704109" lon="26.299994">
<ele>183.404419</ele>
<time>2010-07-18T08:50:26Z</time>
<desc>lat.=55.704109, lon.=26.299994, Alt.=183.404419m. Speed=0.144000m/h.</desc>
<speed>0.040000</speed>
</trkpt>
<trkpt lat="55.704113" lon="26.299994">
<ele>183.439575</ele>
<time>2010-07-18T08:50:27Z</time>
<desc>lat.=55.704113, lon.=26.299994, Alt.=183.439575m. Speed=0.288000m/h.</desc>
<speed>0.080000</speed>
</trkpt>
<trkpt lat="55.704113" lon="26.299992">
<ele>183.463013</ele>
<time>2010-07-18T08:50:28Z</time>
<desc>lat.=55.704113, lon.=26.299992, Alt.=183.463013m. Speed=0.756000m/h.</desc>
<speed>0.210000</speed>
</trkpt>
<trkpt lat="55.704113" lon="26.299990">
<ele>183.478638</ele>
<time>2010-07-18T08:50:29Z</time>
<desc>lat.=55.704113, lon.=26.299990, Alt.=183.478638m. Speed=0.252000m/h.</desc>
<speed>0.070000</speed>
</trkpt>
<trkpt lat="55.704113" lon="26.299988">
<ele>183.490356</ele>
<time>2010-07-18T08:50:30Z</time>
<desc>lat.=55.704113, lon.=26.299988, Alt.=183.490356m. Speed=0.684000m/h.</desc>
<speed>0.190000</speed>
</trkpt>
<trkpt lat="55.704113" lon="26.299986">
<ele>183.498169</ele>
<time>2010-07-18T08:50:31Z</time>
<desc>lat.=55.704113, lon.=26.299986, Alt.=183.498169m. Speed=0.036000m/h.</desc>
<speed>0.010000</speed>
</trkpt>
<trkpt lat="55.704113" lon="26.299986">
<ele>183.502075</ele>
<time>2010-07-18T08:50:32Z</time>
<desc>lat.=55.704113, lon.=26.299986, Alt.=183.502075m. Speed=0.216000m/h.</desc>
<speed>0.060000</speed>
</trkpt>
<trkpt lat="55.704113" lon="26.299986">
<ele>183.478638</ele>
<time>2010-07-18T08:50:33Z</time>
<desc>lat.=55.704113, lon.=26.299986, Alt.=183.478638m. Speed=0.000000m/h.</desc>
<speed>0.000000</speed>
</trkpt>
<trkpt lat="55.704113" lon="26.299986">
<ele>183.459106</ele>
<time>2010-07-18T08:50:34Z</time>
<desc>lat.=55.704113, lon.=26.299986, Alt.=183.459106m. Speed=0.360000m/h.</desc>
<speed>0.100000</speed>
</trkpt>
<trkpt lat="55.704113" lon="26.299988">
<ele>183.451294</ele>
<time>2010-07-18T08:50:35Z</time>
<desc>lat.=55.704113, lon.=26.299988, Alt.=183.451294m. Speed=0.108000m/h.</desc>
<speed>0.030000</speed>
</trkpt>
<trkpt lat="55.704113" lon="26.299988">
<ele>183.451294</ele>
<time>2010-07-18T08:50:36Z</time>
<desc>lat.=55.704113, lon.=26.299988, Alt.=183.451294m. Speed=0.072000m/h.</desc>
<speed>0.020000</speed>
</trkpt>
<trkpt lat="55.704113" lon="26.299988">
<ele>183.451294</ele>
<time>2010-07-18T08:50:37Z</time>
<desc>lat.=55.704113, lon.=26.299988, Alt.=183.451294m. Speed=0.072000m/h.</desc>
<speed>0.020000</speed>
</trkpt>
<trkpt lat="55.704113" lon="26.299988">
<ele>183.451294</ele>
<time>2010-07-18T08:50:38Z</time>
<desc>lat.=55.704113, lon.=26.299988, Alt.=183.451294m. Speed=0.036000m/h.</desc>
<speed>0.010000</speed>
</trkpt>
<trkpt lat="55.704113" lon="26.299988">
<ele>183.455200</ele>
<time>2010-07-18T08:50:39Z</time>
<desc>lat.=55.704113, lon.=26.299988, Alt.=183.455200m. Speed=0.108000m/h.</desc>
<speed>0.030000</speed>
</trkpt>
<trkpt lat="55.704113" lon="26.299988">
<ele>183.455200</ele>
<time>2010-07-18T08:50:40Z</time>
<desc>lat.=55.704113, lon.=26.299988, Alt.=183.455200m. Speed=0.072000m/h.</desc>
<speed>0.020000</speed>
</trkpt>
<trkpt lat="55.704113" lon="26.299988">
<ele>183.451294</ele>
<time>2010-07-18T08:50:41Z</time>
<desc>lat.=55.704113, lon.=26.299988, Alt.=183.451294m. Speed=0.144000m/h.</desc>
<speed>0.040000</speed>
</trkpt>
<trkpt lat="55.704113" lon="26.299988">
<ele>183.447388</ele>
<time>2010-07-18T08:50:42Z</time>
<desc>lat.=55.704113, lon.=26.299988, Alt.=183.447388m. Speed=0.036000m/h.</desc>
<speed>0.010000</speed>
</trkpt>
<trkpt lat="55.704113" lon="26.299988">
<ele>183.443481</ele>
<time>2010-07-18T08:50:43Z</time>
<desc>lat.=55.704113, lon.=26.299988, Alt.=183.443481m. Speed=0.072000m/h.</desc>
<speed>0.020000</speed>
</trkpt>
<trkpt lat="55.704113" lon="26.299988">
<ele>183.443481</ele>
<time>2010-07-18T08:50:44Z</time>
<desc>lat.=55.704113, lon.=26.299988, Alt.=183.443481m. Speed=0.036000m/h.</desc>
<speed>0.010000</speed>
</trkpt>
<trkpt lat="55.704113" lon="26.299988">
<ele>183.443481</ele>
<time>2010-07-18T08:50:45Z</time>
<desc>lat.=55.704113, lon.=26.299988, Alt.=183.443481m. Speed=0.000000m/h.</desc>
<speed>0.000000</speed>
</trkpt>
<trkpt lat="55.704113" lon="26.299988">
<ele>183.443481</ele>
<time>2010-07-18T08:50:46Z</time>
<desc>lat.=55.704113, lon.=26.299988, Alt.=183.443481m. Speed=0.000000m/h.</desc>
<speed>0.000000</speed>
</trkpt>
<trkpt lat="55.704113" lon="26.299988">
<ele>183.447388</ele>
<time>2010-07-18T08:50:47Z</time>
<desc>lat.=55.704113, lon.=26.299988, Alt.=183.447388m. Speed=0.000000m/h.</desc>
<speed>0.000000</speed>
</trkpt>
<trkpt lat="55.704113" lon="26.299988">
<ele>183.447388</ele>
<time>2010-07-18T08:50:48Z</time>
<desc>lat.=55.704113, lon.=26.299988, Alt.=183.447388m. Speed=0.000000m/h.</desc>
<speed>0.000000</speed>
</trkpt>
<trkpt lat="55.704113" lon="26.299988">
<ele>183.443481</ele>
<time>2010-07-18T08:50:49Z</time>
<desc>lat.=55.704113, lon.=26.299988, Alt.=183.443481m. Speed=0.000000m/h.</desc>
<speed>0.000000</speed>
</trkpt>
<trkpt lat="55.704113" lon="26.299988">
<ele>183.443481</ele>
<time>2010-07-18T08:50:50Z</time>
<desc>lat.=55.704113, lon.=26.299988, Alt.=183.443481m. Speed=0.000000m/h.</desc>
<speed>0.000000</speed>
</trkpt>
<trkpt lat="55.704113" lon="26.299988">
<ele>183.443481</ele>
<time>2010-07-18T08:50:51Z</time>
<desc>lat.=55.704113, lon.=26.299988, Alt.=183.443481m. Speed=0.000000m/h.</desc>
<speed>0.000000</speed>
</trkpt>
<trkpt lat="55.704113" lon="26.299988">
<ele>183.443481</ele>
<time>2010-07-18T08:50:52Z</time>
<desc>lat.=55.704113, lon.=26.299988, Alt.=183.443481m. Speed=0.000000m/h.</desc>
<speed>0.000000</speed>
</trkpt>
<trkpt lat="55.704113" lon="26.299988">
<ele>183.443481</ele>
<time>2010-07-18T08:50:53Z</time>
<desc>lat.=55.704113, lon.=26.299988, Alt.=183.443481m. Speed=0.072000m/h.</desc>
<speed>0.020000</speed>
</trkpt>
<trkpt lat="55.704113" lon="26.299988">
<ele>183.443481</ele>
<time>2010-07-18T08:50:54Z</time>
<desc>lat.=55.704113, lon.=26.299988, Alt.=183.443481m. Speed=0.036000m/h.</desc>
<speed>0.010000</speed>
</trkpt>
<trkpt lat="55.704113" lon="26.299988">
<ele>183.443481</ele>
<time>2010-07-18T08:50:55Z</time>
<desc>lat.=55.704113, lon.=26.299988, Alt.=183.443481m. Speed=0.000000m/h.</desc>
<speed>0.000000</speed>
</trkpt>
<trkpt lat="55.704113" lon="26.299988">
<ele>183.443481</ele>
<time>2010-07-18T08:50:56Z</time>
<desc>lat.=55.704113, lon.=26.299988, Alt.=183.443481m. Speed=0.036000m/h.</desc>
<speed>0.010000</speed>
</trkpt>
<trkpt lat="55.704113" lon="26.299988">
<ele>183.443481</ele>
<time>2010-07-18T08:50:57Z</time>
<desc>lat.=55.704113, lon.=26.299988, Alt.=183.443481m. Speed=0.000000m/h.</desc>
<speed>0.000000</speed>
</trkpt>
<trkpt lat="55.704113" lon="26.299988">
<ele>183.439575</ele>
<time>2010-07-18T08:50:58Z</time>
<desc>lat.=55.704113, lon.=26.299988, Alt.=183.439575m. Speed=0.000000m/h.</desc>
<speed>0.000000</speed>
</trkpt>
<trkpt lat="55.704113" lon="26.299988">
<ele>183.439575</ele>
<time>2010-07-18T08:50:59Z</time>
<desc>lat.=55.704113, lon.=26.299988, Alt.=183.439575m. Speed=0.000000m/h.</desc>
<speed>0.000000</speed>
</trkpt>
<trkpt lat="55.704113" lon="26.299988">
<ele>183.439575</ele>
<time>2010-07-18T08:51:00Z</time>
<desc>lat.=55.704113, lon.=26.299988, Alt.=183.439575m. Speed=0.000000m/h.</desc>
<speed>0.000000</speed>
</trkpt>
<trkpt lat="55.704113" lon="26.299988">
<ele>183.439575</ele>
<time>2010-07-18T08:51:01Z</time>
<desc>lat.=55.704113, lon.=26.299988, Alt.=183.439575m. Speed=0.072000m/h.</desc>
<speed>0.020000</speed>
</trkpt>
<trkpt lat="55.704113" lon="26.299986">
<ele>183.443481</ele>
<time>2010-07-18T08:51:02Z</time>
<desc>lat.=55.704113, lon.=26.299986, Alt.=183.443481m. Speed=0.288000m/h.</desc>
<speed>0.080000</speed>
</trkpt>
<trkpt lat="55.704113" lon="26.299986">
<ele>183.443481</ele>
<time>2010-07-18T08:51:03Z</time>
<desc>lat.=55.704113, lon.=26.299986, Alt.=183.443481m. Speed=0.072000m/h.</desc>
<speed>0.020000</speed>
</trkpt>
<trkpt lat="55.704113" lon="26.299986">
<ele>183.447388</ele>
<time>2010-07-18T08:51:04Z</time>
<desc>lat.=55.704113, lon.=26.299986, Alt.=183.447388m. Speed=0.000000m/h.</desc>
<speed>0.000000</speed>
</trkpt>
<trkpt lat="55.704113" lon="26.299986">
<ele>183.447388</ele>
<time>2010-07-18T08:51:05Z</time>
<desc>lat.=55.704113, lon.=26.299986, Alt.=183.447388m. Speed=0.036000m/h.</desc>
<speed>0.010000</speed>
</trkpt>
<trkpt lat="55.704113" lon="26.299986">
<ele>183.447388</ele>
<time>2010-07-18T08:51:06Z</time>
<desc>lat.=55.704113, lon.=26.299986, Alt.=183.447388m. Speed=0.072000m/h.</desc>
<speed>0.020000</speed>
</trkpt>
<trkpt lat="55.704113" lon="26.299986">
<ele>183.447388</ele>
<time>2010-07-18T08:51:07Z</time>
<desc>lat.=55.704113, lon.=26.299986, Alt.=183.447388m. Speed=0.000000m/h.</desc>
<speed>0.000000</speed>
</trkpt>
<trkpt lat="55.704113" lon="26.299986">
<ele>183.447388</ele>
<time>2010-07-18T08:51:08Z</time>
<desc>lat.=55.704113, lon.=26.299986, Alt.=183.447388m. Speed=0.036000m/h.</desc>
<speed>0.010000</speed>
</trkpt>
<trkpt lat="55.704113" lon="26.299986">
<ele>183.447388</ele>
<time>2010-07-18T08:51:09Z</time>
<desc>lat.=55.704113, lon.=26.299986, Alt.=183.447388m. Speed=0.000000m/h.</desc>
<speed>0.000000</speed>
</trkpt>
<trkpt lat="55.704113" lon="26.299986">
<ele>183.447388</ele>
<time>2010-07-18T08:51:10Z</time>
<desc>lat.=55.704113, lon.=26.299986, Alt.=183.447388m. Speed=0.000000m/h.</desc>
<speed>0.000000</speed>
</trkpt>
<trkpt lat="55.704113" lon="26.299986">
<ele>183.451294</ele>
<time>2010-07-18T08:51:11Z</time>
<desc>lat.=55.704113, lon.=26.299986, Alt.=183.451294m. Speed=0.000000m/h.</desc>
<speed>0.000000</speed>
</trkpt>
<trkpt lat="55.704113" lon="26.299986">
<ele>183.447388</ele>
<time>2010-07-18T08:51:12Z</time>
<desc>lat.=55.704113, lon.=26.299986, Alt.=183.447388m. Speed=0.036000m/h.</desc>
<speed>0.010000</speed>
</trkpt>
<trkpt lat="55.704113" lon="26.299986">
<ele>183.447388</ele>
<time>2010-07-18T08:51:13Z</time>
<desc>lat.=55.704113, lon.=26.299986, Alt.=183.447388m. Speed=0.000000m/h.</desc>
<speed>0.000000</speed>
</trkpt>
<trkpt lat="55.704113" lon="26.299986">
<ele>183.447388</ele>
<time>2010-07-18T08:51:14Z</time>
<desc>lat.=55.704113, lon.=26.299986, Alt.=183.447388m. Speed=0.000000m/h.</desc>
<speed>0.000000</speed>
</trkpt>
<trkpt lat="55.704113" lon="26.299986">
<ele>183.447388</ele>
<time>2010-07-18T08:51:15Z</time>
<desc>lat.=55.704113, lon.=26.299986, Alt.=183.447388m. Speed=0.036000m/h.</desc>
<speed>0.010000</speed>
</trkpt>
<trkpt lat="55.704113" lon="26.299986">
<ele>183.447388</ele>
<time>2010-07-18T08:51:16Z</time>
<desc>lat.=55.704113, lon.=26.299986, Alt.=183.447388m. Speed=0.000000m/h.</desc>
<speed>0.000000</speed>
</trkpt>
<trkpt lat="55.704113" lon="26.299986">
<ele>183.447388</ele>
<time>2010-07-18T08:51:17Z</time>
<desc>lat.=55.704113, lon.=26.299986, Alt.=183.447388m. Speed=0.036000m/h.</desc>
<speed>0.010000</speed>
</trkpt>
<trkpt lat="55.704113" lon="26.299986">
<ele>183.447388</ele>
<time>2010-07-18T08:51:18Z</time>
<desc>lat.=55.704113, lon.=26.299986, Alt.=183.447388m. Speed=0.036000m/h.</desc>
<speed>0.010000</speed>
</trkpt>
<trkpt lat="55.704113" lon="26.299986">
<ele>183.447388</ele>
<time>2010-07-18T08:51:19Z</time>
<desc>lat.=55.704113, lon.=26.299986, Alt.=183.447388m. Speed=0.036000m/h.</desc>
<speed>0.010000</speed>
</trkpt>
<trkpt lat="55.704113" lon="26.299986">
<ele>183.447388</ele>
<time>2010-07-18T08:51:20Z</time>
<desc>lat.=55.704113, lon.=26.299986, Alt.=183.447388m. Speed=0.036000m/h.</desc>
<speed>0.010000</speed>
</trkpt>
<trkpt lat="55.704113" lon="26.299986">
<ele>183.447388</ele>
<time>2010-07-18T08:51:21Z</time>
<desc>lat.=55.704113, lon.=26.299986, Alt.=183.447388m. Speed=0.000000m/h.</desc>
<speed>0.000000</speed>
</trkpt>
<trkpt lat="55.704113" lon="26.299986">
<ele>183.447388</ele>
<time>2010-07-18T08:51:22Z</time>
<desc>lat.=55.704113, lon.=26.299986, Alt.=183.447388m. Speed=0.000000m/h.</desc>
<speed>0.000000</speed>
</trkpt>
<trkpt lat="55.704113" lon="26.299986">
<ele>183.451294</ele>
<time>2010-07-18T08:51:23Z</time>
<desc>lat.=55.704113, lon.=26.299986, Alt.=183.451294m. Speed=0.036000m/h.</desc>
<speed>0.010000</speed>
</trkpt>
<trkpt lat="55.704113" lon="26.299986">
<ele>183.451294</ele>
<time>2010-07-18T08:51:24Z</time>
<desc>lat.=55.704113, lon.=26.299986, Alt.=183.451294m. Speed=0.036000m/h.</desc>
<speed>0.010000</speed>
</trkpt>
<trkpt lat="55.704113" lon="26.299986">
<ele>183.451294</ele>
<time>2010-07-18T08:51:25Z</time>
<desc>lat.=55.704113, lon.=26.299986, Alt.=183.451294m. Speed=0.072000m/h.</desc>
<speed>0.020000</speed>
</trkpt>
<trkpt lat="55.704113" lon="26.299986">
<ele>183.451294</ele>
<time>2010-07-18T08:51:26Z</time>
<desc>lat.=55.704113, lon.=26.299986, Alt.=183.451294m. Speed=0.000000m/h.</desc>
<speed>0.000000</speed>
</trkpt>
<trkpt lat="55.704113" lon="26.299986">
<ele>183.451294</ele>
<time>2010-07-18T08:51:27Z</time>
<desc>lat.=55.704113, lon.=26.299986, Alt.=183.451294m. Speed=0.072000m/h.</desc>
<speed>0.020000</speed>
</trkpt>
<trkpt lat="55.704113" lon="26.299986">
<ele>183.451294</ele>
<time>2010-07-18T08:51:28Z</time>
<desc>lat.=55.704113, lon.=26.299986, Alt.=183.451294m. Speed=0.000000m/h.</desc>
<speed>0.000000</speed>
</trkpt>
<trkpt lat="55.704113" lon="26.299986">
<ele>183.451294</ele>
<time>2010-07-18T08:51:29Z</time>
<desc>lat.=55.704113, lon.=26.299986, Alt.=183.451294m. Speed=0.000000m/h.</desc>
<speed>0.000000</speed>
</trkpt>
<trkpt lat="55.704113" lon="26.299986">
<ele>183.455200</ele>
<time>2010-07-18T08:51:30Z</time>
<desc>lat.=55.704113, lon.=26.299986, Alt.=183.455200m. Speed=0.000000m/h.</desc>
<speed>0.000000</speed>
</trkpt>
<trkpt lat="55.704113" lon="26.299986">
<ele>183.451294</ele>
<time>2010-07-18T08:51:31Z</time>
<desc>lat.=55.704113, lon.=26.299986, Alt.=183.451294m. Speed=0.000000m/h.</desc>
<speed>0.000000</speed>
</trkpt>
<trkpt lat="55.704113" lon="26.299986">
<ele>183.455200</ele>
<time>2010-07-18T08:51:32Z</time>
<desc>lat.=55.704113, lon.=26.299986, Alt.=183.455200m. Speed=0.000000m/h.</desc>
<speed>0.000000</speed>
</trkpt>
<trkpt lat="55.704113" lon="26.299986">
<ele>183.455200</ele>
<time>2010-07-18T08:51:33Z</time>
<desc>lat.=55.704113, lon.=26.299986, Alt.=183.455200m. Speed=0.072000m/h.</desc>
<speed>0.020000</speed>
</trkpt>
<trkpt lat="55.704113" lon="26.299986">
<ele>183.455200</ele>
<time>2010-07-18T08:51:34Z</time>
<desc>lat.=55.704113, lon.=26.299986, Alt.=183.455200m. Speed=0.072000m/h.</desc>
<speed>0.020000</speed>
</trkpt>
<trkpt lat="55.704113" lon="26.299986">
<ele>183.455200</ele>
<time>2010-07-18T08:51:35Z</time>
<desc>lat.=55.704113, lon.=26.299986, Alt.=183.455200m. Speed=0.036000m/h.</desc>
<speed>0.010000</speed>
</trkpt>
<trkpt lat="55.704113" lon="26.299986">
<ele>183.455200</ele>
<time>2010-07-18T08:51:36Z</time>
<desc>lat.=55.704113, lon.=26.299986, Alt.=183.455200m. Speed=0.000000m/h.</desc>
<speed>0.000000</speed>
</trkpt>
<trkpt lat="55.704113" lon="26.299986">
<ele>183.455200</ele>
<time>2010-07-18T08:51:37Z</time>
<desc>lat.=55.704113, lon.=26.299986, Alt.=183.455200m. Speed=0.000000m/h.</desc>
<speed>0.000000</speed>
</trkpt>
<trkpt lat="55.704113" lon="26.299986">
<ele>183.459106</ele>
<time>2010-07-18T08:51:38Z</time>
<desc>lat.=55.704113, lon.=26.299986, Alt.=183.459106m. Speed=0.036000m/h.</desc>
<speed>0.010000</speed>
</trkpt>
<trkpt lat="55.704113" lon="26.299986">
<ele>183.459106</ele>
<time>2010-07-18T08:51:39Z</time>
<desc>lat.=55.704113, lon.=26.299986, Alt.=183.459106m. Speed=0.000000m/h.</desc>
<speed>0.000000</speed>
</trkpt>
<trkpt lat="55.704113" lon="26.299986">
<ele>183.463013</ele>
<time>2010-07-18T08:51:40Z</time>
<desc>lat.=55.704113, lon.=26.299986, Alt.=183.463013m. Speed=0.108000m/h.</desc>
<speed>0.030000</speed>
</trkpt>
<trkpt lat="55.704113" lon="26.299986">
<ele>183.466919</ele>
<time>2010-07-18T08:51:41Z</time>
<desc>lat.=55.704113, lon.=26.299986, Alt.=183.466919m. Speed=0.036000m/h.</desc>
<speed>0.010000</speed>
</trkpt>
<trkpt lat="55.704113" lon="26.299986">
<ele>183.466919</ele>
<time>2010-07-18T08:51:42Z</time>
<desc>lat.=55.704113, lon.=26.299986, Alt.=183.466919m. Speed=0.072000m/h.</desc>
<speed>0.020000</speed>
</trkpt>
<trkpt lat="55.704113" lon="26.299986">
<ele>183.466919</ele>
<time>2010-07-18T08:51:43Z</time>
<desc>lat.=55.704113, lon.=26.299986, Alt.=183.466919m. Speed=0.072000m/h.</desc>
<speed>0.020000</speed>
</trkpt>
<trkpt lat="55.704113" lon="26.299986">
<ele>183.466919</ele>
<time>2010-07-18T08:51:44Z</time>
<desc>lat.=55.704113, lon.=26.299986, Alt.=183.466919m. Speed=0.036000m/h.</desc>
<speed>0.010000</speed>
</trkpt>
<trkpt lat="55.704113" lon="26.299984">
<ele>183.466919</ele>
<time>2010-07-18T08:51:45Z</time>
<desc>lat.=55.704113, lon.=26.299984, Alt.=183.466919m. Speed=0.000000m/h.</desc>
<speed>0.000000</speed>
</trkpt>
<trkpt lat="55.704113" lon="26.299984">
<ele>183.466919</ele>
<time>2010-07-18T08:51:46Z</time>
<desc>lat.=55.704113, lon.=26.299984, Alt.=183.466919m. Speed=0.036000m/h.</desc>
<speed>0.010000</speed>
</trkpt>
<trkpt lat="55.704113" lon="26.299984">
<ele>183.466919</ele>
<time>2010-07-18T08:51:47Z</time>
<desc>lat.=55.704113, lon.=26.299984, Alt.=183.466919m. Speed=0.000000m/h.</desc>
<speed>0.000000</speed>
</trkpt>
<trkpt lat="55.704113" lon="26.299984">
<ele>183.466919</ele>
<time>2010-07-18T08:51:48Z</time>
<desc>lat.=55.704113, lon.=26.299984, Alt.=183.466919m. Speed=0.036000m/h.</desc>
<speed>0.010000</speed>
</trkpt>
<trkpt lat="55.704113" lon="26.299984">
<ele>183.466919</ele>
<time>2010-07-18T08:51:49Z</time>
<desc>lat.=55.704113, lon.=26.299984, Alt.=183.466919m. Speed=0.036000m/h.</desc>
<speed>0.010000</speed>
</trkpt>
<trkpt lat="55.704113" lon="26.299984">
<ele>183.470825</ele>
<time>2010-07-18T08:51:50Z</time>
<desc>lat.=55.704113, lon.=26.299984, Alt.=183.470825m. Speed=0.036000m/h.</desc>
<speed>0.010000</speed>
</trkpt>
<trkpt lat="55.704113" lon="26.299984">
<ele>183.466919</ele>
<time>2010-07-18T08:51:51Z</time>
<desc>lat.=55.704113, lon.=26.299984, Alt.=183.466919m. Speed=0.036000m/h.</desc>
<speed>0.010000</speed>
</trkpt>
<trkpt lat="55.704113" lon="26.299984">
<ele>183.466919</ele>
<time>2010-07-18T08:51:52Z</time>
<desc>lat.=55.704113, lon.=26.299984, Alt.=183.466919m. Speed=0.072000m/h.</desc>
<speed>0.020000</speed>
</trkpt>
<trkpt lat="55.704113" lon="26.299984">
<ele>183.466919</ele>
<time>2010-07-18T08:51:53Z</time>
<desc>lat.=55.704113, lon.=26.299984, Alt.=183.466919m. Speed=0.000000m/h.</desc>
<speed>0.000000</speed>
</trkpt>
<trkpt lat="55.704113" lon="26.299984">
<ele>183.463013</ele>
<time>2010-07-18T08:51:54Z</time>
<desc>lat.=55.704113, lon.=26.299984, Alt.=183.463013m. Speed=0.000000m/h.</desc>
<speed>0.000000</speed>
</trkpt>
<trkpt lat="55.704113" lon="26.299984">
<ele>183.463013</ele>
<time>2010-07-18T08:51:55Z</time>
<desc>lat.=55.704113, lon.=26.299984, Alt.=183.463013m. Speed=0.036000m/h.</desc>
<speed>0.010000</speed>
</trkpt>
<trkpt lat="55.704113" lon="26.299984">
<ele>183.466919</ele>
<time>2010-07-18T08:51:56Z</time>
<desc>lat.=55.704113, lon.=26.299984, Alt.=183.466919m. Speed=0.036000m/h.</desc>
<speed>0.010000</speed>
</trkpt>
<trkpt lat="55.704113" lon="26.299984">
<ele>183.466919</ele>
<time>2010-07-18T08:51:57Z</time>
<desc>lat.=55.704113, lon.=26.299984, Alt.=183.466919m. Speed=0.000000m/h.</desc>
<speed>0.000000</speed>
</trkpt>
<trkpt lat="55.704113" lon="26.299984">
<ele>183.463013</ele>
<time>2010-07-18T08:51:58Z</time>
<desc>lat.=55.704113, lon.=26.299984, Alt.=183.463013m. Speed=0.072000m/h.</desc>
<speed>0.020000</speed>
</trkpt>
<trkpt lat="55.704113" lon="26.299984">
<ele>183.463013</ele>
<time>2010-07-18T08:51:59Z</time>
<desc>lat.=55.704113, lon.=26.299984, Alt.=183.463013m. Speed=0.000000m/h.</desc>
<speed>0.000000</speed>
</trkpt>
<trkpt lat="55.704113" lon="26.299984">
<ele>183.463013</ele>
<time>2010-07-18T08:52:00Z</time>
<desc>lat.=55.704113, lon.=26.299984, Alt.=183.463013m. Speed=0.000000m/h.</desc>
<speed>0.000000</speed>
</trkpt>
<trkpt lat="55.704113" lon="26.299984">
<ele>183.463013</ele>
<time>2010-07-18T08:52:01Z</time>
<desc>lat.=55.704113, lon.=26.299984, Alt.=183.463013m. Speed=0.000000m/h.</desc>
<speed>0.000000</speed>
</trkpt>
<trkpt lat="55.704113" lon="26.299984">
<ele>183.463013</ele>
<time>2010-07-18T08:52:02Z</time>
<desc>lat.=55.704113, lon.=26.299984, Alt.=183.463013m. Speed=0.036000m/h.</desc>
<speed>0.010000</speed>
</trkpt>
<trkpt lat="55.704113" lon="26.299984">
<ele>183.463013</ele>
<time>2010-07-18T08:52:03Z</time>
<desc>lat.=55.704113, lon.=26.299984, Alt.=183.463013m. Speed=0.036000m/h.</desc>
<speed>0.010000</speed>
</trkpt>
<trkpt lat="55.704113" lon="26.299984">
<ele>183.463013</ele>
<time>2010-07-18T08:52:04Z</time>
<desc>lat.=55.704113, lon.=26.299984, Alt.=183.463013m. Speed=0.072000m/h.</desc>
<speed>0.020000</speed>
</trkpt>
<trkpt lat="55.704113" lon="26.299984">
<ele>183.466919</ele>
<time>2010-07-18T08:52:05Z</time>
<desc>lat.=55.704113, lon.=26.299984, Alt.=183.466919m. Speed=0.036000m/h.</desc>
<speed>0.010000</speed>
</trkpt>
<trkpt lat="55.704113" lon="26.299984">
<ele>183.466919</ele>
<time>2010-07-18T08:52:06Z</time>
<desc>lat.=55.704113, lon.=26.299984, Alt.=183.466919m. Speed=0.000000m/h.</desc>
<speed>0.000000</speed>
</trkpt>
<trkpt lat="55.704113" lon="26.299984">
<ele>183.466919</ele>
<time>2010-07-18T08:52:07Z</time>
<desc>lat.=55.704113, lon.=26.299984, Alt.=183.466919m. Speed=0.036000m/h.</desc>
<speed>0.010000</speed>
</trkpt>
<trkpt lat="55.704113" lon="26.299984">
<ele>183.463013</ele>
<time>2010-07-18T08:52:08Z</time>
<desc>lat.=55.704113, lon.=26.299984, Alt.=183.463013m. Speed=0.000000m/h.</desc>
<speed>0.000000</speed>
</trkpt>
<trkpt lat="55.704113" lon="26.299984">
<ele>183.463013</ele>
<time>2010-07-18T08:52:09Z</time>
<desc>lat.=55.704113, lon.=26.299984, Alt.=183.463013m. Speed=0.000000m/h.</desc>
<speed>0.000000</speed>
</trkpt>
<trkpt lat="55.704113" lon="26.299984">
<ele>183.463013</ele>
<time>2010-07-18T08:52:10Z</time>
<desc>lat.=55.704113, lon.=26.299984, Alt.=183.463013m. Speed=0.000000m/h.</desc>
<speed>0.000000</speed>
</trkpt>
<trkpt lat="55.704113" lon="26.299984">
<ele>183.459106</ele>
<time>2010-07-18T08:52:11Z</time>
<desc>lat.=55.704113, lon.=26.299984, Alt.=183.459106m. Speed=0.000000m/h.</desc>
<speed>0.000000</speed>
</trkpt>
<trkpt lat="55.704113" lon="26.299984">
<ele>183.463013</ele>
<time>2010-07-18T08:52:12Z</time>
<desc>lat.=55.704113, lon.=26.299984, Alt.=183.463013m. Speed=0.000000m/h.</desc>
<speed>0.000000</speed>
</trkpt>
<trkpt lat="55.704113" lon="26.299984">
<ele>183.463013</ele>
<time>2010-07-18T08:52:13Z</time>
<desc>lat.=55.704113, lon.=26.299984, Alt.=183.463013m. Speed=0.072000m/h.</desc>
<speed>0.020000</speed>
</trkpt>
<trkpt lat="55.704113" lon="26.299984">
<ele>183.463013</ele>
<time>2010-07-18T08:52:14Z</time>
<desc>lat.=55.704113, lon.=26.299984, Alt.=183.463013m. Speed=0.036000m/h.</desc>
<speed>0.010000</speed>
</trkpt>
<trkpt lat="55.704113" lon="26.299984">
<ele>183.463013</ele>
<time>2010-07-18T08:52:15Z</time>
<desc>lat.=55.704113, lon.=26.299984, Alt.=183.463013m. Speed=0.036000m/h.</desc>
<speed>0.010000</speed>
</trkpt>
<trkpt lat="55.704113" lon="26.299984">
<ele>183.463013</ele>
<time>2010-07-18T08:52:16Z</time>
<desc>lat.=55.704113, lon.=26.299984, Alt.=183.463013m. Speed=0.000000m/h.</desc>
<speed>0.000000</speed>
</trkpt>
<trkpt lat="55.704113" lon="26.299984">
<ele>183.463013</ele>
<time>2010-07-18T08:52:17Z</time>
<desc>lat.=55.704113, lon.=26.299984, Alt.=183.463013m. Speed=0.000000m/h.</desc>
<speed>0.000000</speed>
</trkpt>
<trkpt lat="55.704113" lon="26.299984">
<ele>183.463013</ele>
<time>2010-07-18T08:52:18Z</time>
<desc>lat.=55.704113, lon.=26.299984, Alt.=183.463013m. Speed=0.000000m/h.</desc>
<speed>0.000000</speed>
</trkpt>
<trkpt lat="55.704113" lon="26.299984">
<ele>183.463013</ele>
<time>2010-07-18T08:52:19Z</time>
<desc>lat.=55.704113, lon.=26.299984, Alt.=183.463013m. Speed=0.000000m/h.</desc>
<speed>0.000000</speed>
</trkpt>
<trkpt lat="55.704113" lon="26.299984">
<ele>183.459106</ele>
<time>2010-07-18T08:52:20Z</time>
<desc>lat.=55.704113, lon.=26.299984, Alt.=183.459106m. Speed=0.000000m/h.</desc>
<speed>0.000000</speed>
</trkpt>
<trkpt lat="55.704113" lon="26.299984">
<ele>183.459106</ele>
<time>2010-07-18T08:52:21Z</time>
<desc>lat.=55.704113, lon.=26.299984, Alt.=183.459106m. Speed=0.000000m/h.</desc>
<speed>0.000000</speed>
</trkpt>
<trkpt lat="55.704113" lon="26.299984">
<ele>183.455200</ele>
<time>2010-07-18T08:52:22Z</time>
<desc>lat.=55.704113, lon.=26.299984, Alt.=183.455200m. Speed=0.000000m/h.</desc>
<speed>0.000000</speed>
</trkpt>
<trkpt lat="55.704113" lon="26.299984">
<ele>183.455200</ele>
<time>2010-07-18T08:52:23Z</time>
<desc>lat.=55.704113, lon.=26.299984, Alt.=183.455200m. Speed=0.036000m/h.</desc>
<speed>0.010000</speed>
</trkpt>
<trkpt lat="55.704113" lon="26.299984">
<ele>183.451294</ele>
<time>2010-07-18T08:52:24Z</time>
<desc>lat.=55.704113, lon.=26.299984, Alt.=183.451294m. Speed=0.036000m/h.</desc>
<speed>0.010000</speed>
</trkpt>
<trkpt lat="55.704113" lon="26.299984">
<ele>183.451294</ele>
<time>2010-07-18T08:52:25Z</time>
<desc>lat.=55.704113, lon.=26.299984, Alt.=183.451294m. Speed=0.036000m/h.</desc>
<speed>0.010000</speed>
</trkpt>
<trkpt lat="55.704113" lon="26.299984">
<ele>183.447388</ele>
<time>2010-07-18T08:52:26Z</time>
<desc>lat.=55.704113, lon.=26.299984, Alt.=183.447388m. Speed=0.036000m/h.</desc>
<speed>0.010000</speed>
</trkpt>
<trkpt lat="55.704113" lon="26.299984">
<ele>183.447388</ele>
<time>2010-07-18T08:52:27Z</time>
<desc>lat.=55.704113, lon.=26.299984, Alt.=183.447388m. Speed=0.036000m/h.</desc>
<speed>0.010000</speed>
</trkpt>
<trkpt lat="55.704113" lon="26.299984">
<ele>183.443481</ele>
<time>2010-07-18T08:52:28Z</time>
<desc>lat.=55.704113, lon.=26.299984, Alt.=183.443481m. Speed=0.000000m/h.</desc>
<speed>0.000000</speed>
</trkpt>
<trkpt lat="55.704113" lon="26.299984">
<ele>183.439575</ele>
<time>2010-07-18T08:52:29Z</time>
<desc>lat.=55.704113, lon.=26.299984, Alt.=183.439575m. Speed=0.000000m/h.</desc>
<speed>0.000000</speed>
</trkpt>
<trkpt lat="55.704113" lon="26.299984">
<ele>183.435669</ele>
<time>2010-07-18T08:52:30Z</time>
<desc>lat.=55.704113, lon.=26.299984, Alt.=183.435669m. Speed=0.000000m/h.</desc>
<speed>0.000000</speed>
</trkpt>
<trkpt lat="55.704113" lon="26.299984">
<ele>183.431763</ele>
<time>2010-07-18T08:52:31Z</time>
<desc>lat.=55.704113, lon.=26.299984, Alt.=183.431763m. Speed=0.036000m/h.</desc>
<speed>0.010000</speed>
</trkpt>
<trkpt lat="55.704113" lon="26.299984">
<ele>183.420044</ele>
<time>2010-07-18T08:52:32Z</time>
<desc>lat.=55.704113, lon.=26.299984, Alt.=183.420044m. Speed=0.000000m/h.</desc>
<speed>0.000000</speed>
</trkpt>
<trkpt lat="55.704113" lon="26.299984">
<ele>183.416138</ele>
<time>2010-07-18T08:52:33Z</time>
<desc>lat.=55.704113, lon.=26.299984, Alt.=183.416138m. Speed=0.036000m/h.</desc>
<speed>0.010000</speed>
</trkpt>
<trkpt lat="55.704113" lon="26.299984">
<ele>183.412231</ele>
<time>2010-07-18T08:52:34Z</time>
<desc>lat.=55.704113, lon.=26.299984, Alt.=183.412231m. Speed=0.000000m/h.</desc>
<speed>0.000000</speed>
</trkpt>
<trkpt lat="55.704113" lon="26.299984">
<ele>183.412231</ele>
<time>2010-07-18T08:52:35Z</time>
<desc>lat.=55.704113, lon.=26.299984, Alt.=183.412231m. Speed=0.072000m/h.</desc>
<speed>0.020000</speed>
</trkpt>
<trkpt lat="55.704113" lon="26.299984">
<ele>183.408325</ele>
<time>2010-07-18T08:52:36Z</time>
<desc>lat.=55.704113, lon.=26.299984, Alt.=183.408325m. Speed=0.036000m/h.</desc>
<speed>0.010000</speed>
</trkpt>
<trkpt lat="55.704113" lon="26.299984">
<ele>183.400513</ele>
<time>2010-07-18T08:52:37Z</time>
<desc>lat.=55.704113, lon.=26.299984, Alt.=183.400513m. Speed=0.144000m/h.</desc>
<speed>0.040000</speed>
</trkpt>
<trkpt lat="55.704113" lon="26.299984">
<ele>183.400513</ele>
<time>2010-07-18T08:52:38Z</time>
<desc>lat.=55.704113, lon.=26.299984, Alt.=183.400513m. Speed=0.108000m/h.</desc>
<speed>0.030000</speed>
</trkpt>
<trkpt lat="55.704113" lon="26.299984">
<ele>183.396606</ele>
<time>2010-07-18T08:52:39Z</time>
<desc>lat.=55.704113, lon.=26.299984, Alt.=183.396606m. Speed=0.000000m/h.</desc>
<speed>0.000000</speed>
</trkpt>
<trkpt lat="55.704113" lon="26.299984">
<ele>183.396606</ele>
<time>2010-07-18T08:52:40Z</time>
<desc>lat.=55.704113, lon.=26.299984, Alt.=183.396606m. Speed=0.000000m/h.</desc>
<speed>0.000000</speed>
</trkpt>
<trkpt lat="55.704113" lon="26.299984">
<ele>183.396606</ele>
<time>2010-07-18T08:52:41Z</time>
<desc>lat.=55.704113, lon.=26.299984, Alt.=183.396606m. Speed=0.036000m/h.</desc>
<speed>0.010000</speed>
</trkpt>
<trkpt lat="55.704113" lon="26.299984">
<ele>183.392700</ele>
<time>2010-07-18T08:52:42Z</time>
<desc>lat.=55.704113, lon.=26.299984, Alt.=183.392700m. Speed=0.036000m/h.</desc>
<speed>0.010000</speed>
</trkpt>
<trkpt lat="55.704113" lon="26.299984">
<ele>183.392700</ele>
<time>2010-07-18T08:52:43Z</time>
<desc>lat.=55.704113, lon.=26.299984, Alt.=183.392700m. Speed=0.036000m/h.</desc>
<speed>0.010000</speed>
</trkpt>
<trkpt lat="55.704113" lon="26.299984">
<ele>183.388794</ele>
<time>2010-07-18T08:52:44Z</time>
<desc>lat.=55.704113, lon.=26.299984, Alt.=183.388794m. Speed=0.036000m/h.</desc>
<speed>0.010000</speed>
</trkpt>
<trkpt lat="55.704113" lon="26.299984">
<ele>183.388794</ele>
<time>2010-07-18T08:52:45Z</time>
<desc>lat.=55.704113, lon.=26.299984, Alt.=183.388794m. Speed=0.000000m/h.</desc>
<speed>0.000000</speed>
</trkpt>
<trkpt lat="55.704113" lon="26.299982">
<ele>183.380981</ele>
<time>2010-07-18T08:52:46Z</time>
<desc>lat.=55.704113, lon.=26.299982, Alt.=183.380981m. Speed=0.072000m/h.</desc>
<speed>0.020000</speed>
</trkpt>
<trkpt lat="55.704113" lon="26.299982">
<ele>183.380981</ele>
<time>2010-07-18T08:52:47Z</time>
<desc>lat.=55.704113, lon.=26.299982, Alt.=183.380981m. Speed=0.000000m/h.</desc>
<speed>0.000000</speed>
</trkpt>
<trkpt lat="55.704113" lon="26.299982">
<ele>183.377075</ele>
<time>2010-07-18T08:52:48Z</time>
<desc>lat.=55.704113, lon.=26.299982, Alt.=183.377075m. Speed=0.072000m/h.</desc>
<speed>0.020000</speed>
</trkpt>
<trkpt lat="55.704113" lon="26.299982">
<ele>183.353638</ele>
<time>2010-07-18T08:52:49Z</time>
<desc>lat.=55.704113, lon.=26.299982, Alt.=183.353638m. Speed=0.072000m/h.</desc>
<speed>0.020000</speed>
</trkpt>
<trkpt lat="55.704113" lon="26.299982">
<ele>183.338013</ele>
<time>2010-07-18T08:52:50Z</time>
<desc>lat.=55.704113, lon.=26.299982, Alt.=183.338013m. Speed=0.072000m/h.</desc>
<speed>0.020000</speed>
</trkpt>
<trkpt lat="55.704113" lon="26.299982">
<ele>183.345825</ele>
<time>2010-07-18T08:52:51Z</time>
<desc>lat.=55.704113, lon.=26.299982, Alt.=183.345825m. Speed=0.036000m/h.</desc>
<speed>0.010000</speed>
</trkpt>
<trkpt lat="55.704113" lon="26.299982">
<ele>183.353638</ele>
<time>2010-07-18T08:52:52Z</time>
<desc>lat.=55.704113, lon.=26.299982, Alt.=183.353638m. Speed=0.000000m/h.</desc>
<speed>0.000000</speed>
</trkpt>
<trkpt lat="55.704113" lon="26.299982">
<ele>183.357544</ele>
<time>2010-07-18T08:52:53Z</time>
<desc>lat.=55.704113, lon.=26.299982, Alt.=183.357544m. Speed=0.144000m/h.</desc>
<speed>0.040000</speed>
</trkpt>
<trkpt lat="55.704113" lon="26.299982">
<ele>183.349731</ele>
<time>2010-07-18T08:52:54Z</time>
<desc>lat.=55.704113, lon.=26.299982, Alt.=183.349731m. Speed=0.072000m/h.</desc>
<speed>0.020000</speed>
</trkpt>
<trkpt lat="55.704113" lon="26.299982">
<ele>183.338013</ele>
<time>2010-07-18T08:52:55Z</time>
<desc>lat.=55.704113, lon.=26.299982, Alt.=183.338013m. Speed=0.216000m/h.</desc>
<speed>0.060000</speed>
</trkpt>
<trkpt lat="55.704113" lon="26.299982">
<ele>183.338013</ele>
<time>2010-07-18T08:52:56Z</time>
<desc>lat.=55.704113, lon.=26.299982, Alt.=183.338013m. Speed=0.288000m/h.</desc>
<speed>0.080000</speed>
</trkpt>
<trkpt lat="55.704113" lon="26.299980">
<ele>183.330200</ele>
<time>2010-07-18T08:52:57Z</time>
<desc>lat.=55.704113, lon.=26.299980, Alt.=183.330200m. Speed=0.720000m/h.</desc>
<speed>0.200000</speed>
</trkpt>
<trkpt lat="55.704113" lon="26.299976">
<ele>183.326294</ele>
<time>2010-07-18T08:52:58Z</time>
<desc>lat.=55.704113, lon.=26.299976, Alt.=183.326294m. Speed=0.108000m/h.</desc>
<speed>0.030000</speed>
</trkpt>
<trkpt lat="55.704113" lon="26.299978">
<ele>183.205200</ele>
<time>2010-07-18T08:52:59Z</time>
<desc>lat.=55.704113, lon.=26.299978, Alt.=183.205200m. Speed=0.468000m/h.</desc>
<speed>0.130000</speed>
</trkpt>
<trkpt lat="55.704113" lon="26.299978">
<ele>183.201294</ele>
<time>2010-07-18T08:53:00Z</time>
<desc>lat.=55.704113, lon.=26.299978, Alt.=183.201294m. Speed=0.720000m/h.</desc>
<speed>0.200000</speed>
</trkpt>
<trkpt lat="55.704113" lon="26.299980">
<ele>183.138794</ele>
<time>2010-07-18T08:53:01Z</time>
<desc>lat.=55.704113, lon.=26.299980, Alt.=183.138794m. Speed=0.612000m/h.</desc>
<speed>0.170000</speed>
</trkpt>
<trkpt lat="55.704113" lon="26.299978">
<ele>183.064575</ele>
<time>2010-07-18T08:53:02Z</time>
<desc>lat.=55.704113, lon.=26.299978, Alt.=183.064575m. Speed=0.936000m/h.</desc>
<speed>0.260000</speed>
</trkpt>
<trkpt lat="55.704113" lon="26.299974">
<ele>183.013794</ele>
<time>2010-07-18T08:53:03Z</time>
<desc>lat.=55.704113, lon.=26.299974, Alt.=183.013794m. Speed=0.828000m/h.</desc>
<speed>0.230000</speed>
</trkpt>
<trkpt lat="55.704113" lon="26.299971">
<ele>182.970825</ele>
<time>2010-07-18T08:53:04Z</time>
<desc>lat.=55.704113, lon.=26.299971, Alt.=182.970825m. Speed=0.756000m/h.</desc>
<speed>0.210000</speed>
</trkpt>
<trkpt lat="55.704109" lon="26.299967">
<ele>182.931763</ele>
<time>2010-07-18T08:53:05Z</time>
<desc>lat.=55.704109, lon.=26.299967, Alt.=182.931763m. Speed=0.684000m/h.</desc>
<speed>0.190000</speed>
</trkpt>
<trkpt lat="55.704109" lon="26.299965">
<ele>182.892700</ele>
<time>2010-07-18T08:53:06Z</time>
<desc>lat.=55.704109, lon.=26.299965, Alt.=182.892700m. Speed=0.648000m/h.</desc>
<speed>0.180000</speed>
</trkpt>
<trkpt lat="55.704109" lon="26.299961">
<ele>182.857544</ele>
<time>2010-07-18T08:53:07Z</time>
<desc>lat.=55.704109, lon.=26.299961, Alt.=182.857544m. Speed=0.648000m/h.</desc>
<speed>0.180000</speed>
</trkpt>
<trkpt lat="55.704109" lon="26.299959">
<ele>182.822388</ele>
<time>2010-07-18T08:53:08Z</time>
<desc>lat.=55.704109, lon.=26.299959, Alt.=182.822388m. Speed=1.476000m/h.</desc>
<speed>0.410000</speed>
</trkpt>
<trkpt lat="55.704105" lon="26.299963">
<ele>182.798950</ele>
<time>2010-07-18T08:53:09Z</time>
<desc>lat.=55.704105, lon.=26.299963, Alt.=182.798950m. Speed=2.880000m/h.</desc>
<speed>0.800000</speed>
</trkpt>
<trkpt lat="55.704102" lon="26.299971">
<ele>182.798950</ele>
<time>2010-07-18T08:53:10Z</time>
<desc>lat.=55.704102, lon.=26.299971, Alt.=182.798950m. Speed=4.104000m/h.</desc>
<speed>1.140000</speed>
</trkpt>
<trkpt lat="55.704086" lon="26.299984">
<ele>182.802856</ele>
<time>2010-07-18T08:53:11Z</time>
<desc>lat.=55.704086, lon.=26.299984, Alt.=182.802856m. Speed=7.344000m/h.</desc>
<speed>2.040000</speed>
</trkpt>
<trkpt lat="55.704067" lon="26.300005">
<ele>183.326294</ele>
<time>2010-07-18T08:53:12Z</time>
<desc>lat.=55.704067, lon.=26.300005, Alt.=183.326294m. Speed=9.504000m/h.</desc>
<speed>2.640000</speed>
</trkpt>
<trkpt lat="55.704044" lon="26.300032">
<ele>183.677856</ele>
<time>2010-07-18T08:53:13Z</time>
<desc>lat.=55.704044, lon.=26.300032, Alt.=183.677856m. Speed=10.548000m/h.</desc>
<speed>2.930000</speed>
</trkpt>
<trkpt lat="55.704025" lon="26.300068">
<ele>183.556763</ele>
<time>2010-07-18T08:53:14Z</time>
<desc>lat.=55.704025, lon.=26.300068, Alt.=183.556763m. Speed=11.556000m/h.</desc>
<speed>3.210000</speed>
</trkpt>
<trkpt lat="55.704010" lon="26.300110">
<ele>183.076294</ele>
<time>2010-07-18T08:53:15Z</time>
<desc>lat.=55.704010, lon.=26.300110, Alt.=183.076294m. Speed=11.052000m/h.</desc>
<speed>3.070000</speed>
</trkpt>
<trkpt lat="55.703991" lon="26.300150">
<ele>182.693481</ele>
<time>2010-07-18T08:53:16Z</time>
<desc>lat.=55.703991, lon.=26.300150, Alt.=182.693481m. Speed=12.420000m/h.</desc>
<speed>3.450000</speed>
</trkpt>
<trkpt lat="55.703968" lon="26.300184">
<ele>182.502075</ele>
<time>2010-07-18T08:53:17Z</time>
<desc>lat.=55.703968, lon.=26.300184, Alt.=182.502075m. Speed=13.356000m/h.</desc>
<speed>3.710000</speed>
</trkpt>
<trkpt lat="55.703941" lon="26.300215">
<ele>182.427856</ele>
<time>2010-07-18T08:53:18Z</time>
<desc>lat.=55.703941, lon.=26.300215, Alt.=182.427856m. Speed=12.816000m/h.</desc>
<speed>3.560000</speed>
</trkpt>
<trkpt lat="55.703915" lon="26.300245">
<ele>182.357544</ele>
<time>2010-07-18T08:53:19Z</time>
<desc>lat.=55.703915, lon.=26.300245, Alt.=182.357544m. Speed=12.096000m/h.</desc>
<speed>3.360000</speed>
</trkpt>
<trkpt lat="55.703888" lon="26.300274">
<ele>182.166138</ele>
<time>2010-07-18T08:53:20Z</time>
<desc>lat.=55.703888, lon.=26.300274, Alt.=182.166138m. Speed=11.304000m/h.</desc>
<speed>3.140000</speed>
</trkpt>
<trkpt lat="55.703861" lon="26.300303">
<ele>181.810669</ele>
<time>2010-07-18T08:53:21Z</time>
<desc>lat.=55.703861, lon.=26.300303, Alt.=181.810669m. Speed=10.260000m/h.</desc>
<speed>2.850000</speed>
</trkpt>
<trkpt lat="55.703842" lon="26.300325">
<ele>181.814575</ele>
<time>2010-07-18T08:53:22Z</time>
<desc>lat.=55.703842, lon.=26.300325, Alt.=181.814575m. Speed=10.296000m/h.</desc>
<speed>2.860000</speed>
</trkpt>
<trkpt lat="55.703819" lon="26.300352">
<ele>181.716919</ele>
<time>2010-07-18T08:53:23Z</time>
<desc>lat.=55.703819, lon.=26.300352, Alt.=181.716919m. Speed=10.908000m/h.</desc>
<speed>3.030000</speed>
</trkpt>
<trkpt lat="55.703796" lon="26.300379">
<ele>181.732544</ele>
<time>2010-07-18T08:53:24Z</time>
<desc>lat.=55.703796, lon.=26.300379, Alt.=181.732544m. Speed=10.800000m/h.</desc>
<speed>3.000000</speed>
</trkpt>
<trkpt lat="55.703770" lon="26.300409">
<ele>181.537231</ele>
<time>2010-07-18T08:53:25Z</time>
<desc>lat.=55.703770, lon.=26.300409, Alt.=181.537231m. Speed=13.212000m/h.</desc>
<speed>3.670000</speed>
</trkpt>
<trkpt lat="55.703739" lon="26.300444">
<ele>181.580200</ele>
<time>2010-07-18T08:53:26Z</time>
<desc>lat.=55.703739, lon.=26.300444, Alt.=181.580200m. Speed=13.752000m/h.</desc>
<speed>3.820000</speed>
</trkpt>
<trkpt lat="55.703709" lon="26.300474">
<ele>181.423950</ele>
<time>2010-07-18T08:53:27Z</time>
<desc>lat.=55.703709, lon.=26.300474, Alt.=181.423950m. Speed=14.760000m/h.</desc>
<speed>4.100000</speed>
</trkpt>
<trkpt lat="55.703674" lon="26.300512">
<ele>181.209106</ele>
<time>2010-07-18T08:53:28Z</time>
<desc>lat.=55.703674, lon.=26.300512, Alt.=181.209106m. Speed=14.940000m/h.</desc>
<speed>4.150000</speed>
</trkpt>
<trkpt lat="55.703640" lon="26.300552">
<ele>181.373169</ele>
<time>2010-07-18T08:53:29Z</time>
<desc>lat.=55.703640, lon.=26.300552, Alt.=181.373169m. Speed=14.796000m/h.</desc>
<speed>4.110000</speed>
</trkpt>
<trkpt lat="55.703606" lon="26.300592">
<ele>181.275513</ele>
<time>2010-07-18T08:53:30Z</time>
<desc>lat.=55.703606, lon.=26.300592, Alt.=181.275513m. Speed=16.056000m/h.</desc>
<speed>4.460000</speed>
</trkpt>
<trkpt lat="55.703571" lon="26.300634">
<ele>181.080200</ele>
<time>2010-07-18T08:53:31Z</time>
<desc>lat.=55.703571, lon.=26.300634, Alt.=181.080200m. Speed=17.100000m/h.</desc>
<speed>4.750000</speed>
</trkpt>
<trkpt lat="55.703537" lon="26.300673">
<ele>180.947388</ele>
<time>2010-07-18T08:53:32Z</time>
<desc>lat.=55.703537, lon.=26.300673, Alt.=180.947388m. Speed=16.452000m/h.</desc>
<speed>4.570000</speed>
</trkpt>
<trkpt lat="55.703503" lon="26.300709">
<ele>181.002075</ele>
<time>2010-07-18T08:53:33Z</time>
<desc>lat.=55.703503, lon.=26.300709, Alt.=181.002075m. Speed=16.128000m/h.</desc>
<speed>4.480000</speed>
</trkpt>
<trkpt lat="55.703465" lon="26.300741">
<ele>180.838013</ele>
<time>2010-07-18T08:53:34Z</time>
<desc>lat.=55.703465, lon.=26.300741, Alt.=180.838013m. Speed=16.164000m/h.</desc>
<speed>4.490000</speed>
</trkpt>
<trkpt lat="55.703426" lon="26.300779">
<ele>180.658325</ele>
<time>2010-07-18T08:53:35Z</time>
<desc>lat.=55.703426, lon.=26.300779, Alt.=180.658325m. Speed=16.271999m/h.</desc>
<speed>4.520000</speed>
</trkpt>
<trkpt lat="55.703392" lon="26.300817">
<ele>180.736450</ele>
<time>2010-07-18T08:53:36Z</time>
<desc>lat.=55.703392, lon.=26.300817, Alt.=180.736450m. Speed=16.128000m/h.</desc>
<speed>4.480000</speed>
</trkpt>
<trkpt lat="55.703358" lon="26.300854">
<ele>180.646606</ele>
<time>2010-07-18T08:53:37Z</time>
<desc>lat.=55.703358, lon.=26.300854, Alt.=180.646606m. Speed=16.164000m/h.</desc>
<speed>4.490000</speed>
</trkpt>
<trkpt lat="55.703323" lon="26.300890">
<ele>180.767700</ele>
<time>2010-07-18T08:53:38Z</time>
<desc>lat.=55.703323, lon.=26.300890, Alt.=180.767700m. Speed=16.308001m/h.</desc>
<speed>4.530000</speed>
</trkpt>
<trkpt lat="55.703293" lon="26.300922">
<ele>181.201294</ele>
<time>2010-07-18T08:53:39Z</time>
<desc>lat.=55.703293, lon.=26.300922, Alt.=181.201294m. Speed=16.344000m/h.</desc>
<speed>4.540000</speed>
</trkpt>
<trkpt lat="55.703255" lon="26.300961">
<ele>181.119263</ele>
<time>2010-07-18T08:53:40Z</time>
<desc>lat.=55.703255, lon.=26.300961, Alt.=181.119263m. Speed=16.596001m/h.</desc>
<speed>4.610000</speed>
</trkpt>
<trkpt lat="55.703220" lon="26.301001">
<ele>181.095825</ele>
<time>2010-07-18T08:53:41Z</time>
<desc>lat.=55.703220, lon.=26.301001, Alt.=181.095825m. Speed=16.740000m/h.</desc>
<speed>4.650000</speed>
</trkpt>
<trkpt lat="55.703182" lon="26.301033">
<ele>181.052856</ele>
<time>2010-07-18T08:53:42Z</time>
<desc>lat.=55.703182, lon.=26.301033, Alt.=181.052856m. Speed=16.955999m/h.</desc>
<speed>4.710000</speed>
</trkpt>
<trkpt lat="55.703148" lon="26.301069">
<ele>181.314575</ele>
<time>2010-07-18T08:53:43Z</time>
<desc>lat.=55.703148, lon.=26.301069, Alt.=181.314575m. Speed=17.136000m/h.</desc>
<speed>4.760000</speed>
</trkpt>
<trkpt lat="55.703110" lon="26.301107">
<ele>181.033325</ele>
<time>2010-07-18T08:53:44Z</time>
<desc>lat.=55.703110, lon.=26.301107, Alt.=181.033325m. Speed=17.351999m/h.</desc>
<speed>4.820000</speed>
</trkpt>
<trkpt lat="55.703068" lon="26.301146">
<ele>181.138794</ele>
<time>2010-07-18T08:53:45Z</time>
<desc>lat.=55.703068, lon.=26.301146, Alt.=181.138794m. Speed=18.000000m/h.</desc>
<speed>5.000000</speed>
</trkpt>
<trkpt lat="55.703030" lon="26.301186">
<ele>181.220825</ele>
<time>2010-07-18T08:53:46Z</time>
<desc>lat.=55.703030, lon.=26.301186, Alt.=181.220825m. Speed=18.504000m/h.</desc>
<speed>5.140000</speed>
</trkpt>
<trkpt lat="55.702988" lon="26.301229">
<ele>180.548950</ele>
<time>2010-07-18T08:53:47Z</time>
<desc>lat.=55.702988, lon.=26.301229, Alt.=180.548950m. Speed=19.403999m/h.</desc>
<speed>5.390000</speed>
</trkpt>
<trkpt lat="55.702946" lon="26.301273">
<ele>180.287231</ele>
<time>2010-07-18T08:53:48Z</time>
<desc>lat.=55.702946, lon.=26.301273, Alt.=180.287231m. Speed=19.332001m/h.</desc>
<speed>5.370000</speed>
</trkpt>
<trkpt lat="55.702904" lon="26.301319">
<ele>179.923950</ele>
<time>2010-07-18T08:53:49Z</time>
<desc>lat.=55.702904, lon.=26.301319, Alt.=179.923950m. Speed=19.584000m/h.</desc>
<speed>5.440000</speed>
</trkpt>
<trkpt lat="55.702862" lon="26.301367">
<ele>180.459106</ele>
<time>2010-07-18T08:53:50Z</time>
<desc>lat.=55.702862, lon.=26.301367, Alt.=180.459106m. Speed=19.403999m/h.</desc>
<speed>5.390000</speed>
</trkpt>
<trkpt lat="55.702820" lon="26.301407">
<ele>179.134888</ele>
<time>2010-07-18T08:53:51Z</time>
<desc>lat.=55.702820, lon.=26.301407, Alt.=179.134888m. Speed=20.087999m/h.</desc>
<speed>5.580000</speed>
</trkpt>
<trkpt lat="55.702774" lon="26.301456">
<ele>179.529419</ele>
<time>2010-07-18T08:53:52Z</time>
<desc>lat.=55.702774, lon.=26.301456, Alt.=179.529419m. Speed=20.591999m/h.</desc>
<speed>5.720000</speed>
</trkpt>
<trkpt lat="55.702728" lon="26.301502">
<ele>179.541138</ele>
<time>2010-07-18T08:53:53Z</time>
<desc>lat.=55.702728, lon.=26.301502, Alt.=179.541138m. Speed=21.132000m/h.</desc>
<speed>5.870000</speed>
</trkpt>
<trkpt lat="55.702682" lon="26.301552">
<ele>179.588013</ele>
<time>2010-07-18T08:53:54Z</time>
<desc>lat.=55.702682, lon.=26.301552, Alt.=179.588013m. Speed=21.312000m/h.</desc>
<speed>5.920000</speed>
</trkpt>
<trkpt lat="55.702633" lon="26.301600">
<ele>179.420044</ele>
<time>2010-07-18T08:53:55Z</time>
<desc>lat.=55.702633, lon.=26.301600, Alt.=179.420044m. Speed=21.708000m/h.</desc>
<speed>6.030000</speed>
</trkpt>
<trkpt lat="55.702587" lon="26.301647">
<ele>179.404419</ele>
<time>2010-07-18T08:53:56Z</time>
<desc>lat.=55.702587, lon.=26.301647, Alt.=179.404419m. Speed=22.032000m/h.</desc>
<speed>6.120000</speed>
</trkpt>
<trkpt lat="55.702538" lon="26.301699">
<ele>179.142700</ele>
<time>2010-07-18T08:53:57Z</time>
<desc>lat.=55.702538, lon.=26.301699, Alt.=179.142700m. Speed=22.247999m/h.</desc>
<speed>6.180000</speed>
</trkpt>
<trkpt lat="55.702488" lon="26.301752">
<ele>178.209106</ele>
<time>2010-07-18T08:53:58Z</time>
<desc>lat.=55.702488, lon.=26.301752, Alt.=178.209106m. Speed=22.680000m/h.</desc>
<speed>6.300000</speed>
</trkpt>
<trkpt lat="55.702438" lon="26.301804">
<ele>178.041138</ele>
<time>2010-07-18T08:53:59Z</time>
<desc>lat.=55.702438, lon.=26.301804, Alt.=178.041138m. Speed=22.896000m/h.</desc>
<speed>6.360000</speed>
</trkpt>
<trkpt lat="55.702389" lon="26.301857">
<ele>177.908325</ele>
<time>2010-07-18T08:54:00Z</time>
<desc>lat.=55.702389, lon.=26.301857, Alt.=177.908325m. Speed=23.544001m/h.</desc>
<speed>6.540000</speed>
</trkpt>
<trkpt lat="55.702335" lon="26.301908">
<ele>177.650513</ele>
<time>2010-07-18T08:54:01Z</time>
<desc>lat.=55.702335, lon.=26.301908, Alt.=177.650513m. Speed=23.976000m/h.</desc>
<speed>6.660000</speed>
</trkpt>
<trkpt lat="55.702282" lon="26.301962">
<ele>177.455200</ele>
<time>2010-07-18T08:54:02Z</time>
<desc>lat.=55.702282, lon.=26.301962, Alt.=177.455200m. Speed=24.912001m/h.</desc>
<speed>6.920000</speed>
</trkpt>
<trkpt lat="55.702232" lon="26.302019">
<ele>177.213013</ele>
<time>2010-07-18T08:54:03Z</time>
<desc>lat.=55.702232, lon.=26.302019, Alt.=177.213013m. Speed=24.875999m/h.</desc>
<speed>6.910000</speed>
</trkpt>
<trkpt lat="55.702175" lon="26.302078">
<ele>176.615356</ele>
<time>2010-07-18T08:54:04Z</time>
<desc>lat.=55.702175, lon.=26.302078, Alt.=176.615356m. Speed=25.632000m/h.</desc>
<speed>7.120000</speed>
</trkpt>
<trkpt lat="55.702122" lon="26.302137">
<ele>176.158325</ele>
<time>2010-07-18T08:54:05Z</time>
<desc>lat.=55.702122, lon.=26.302137, Alt.=176.158325m. Speed=25.848000m/h.</desc>
<speed>7.180000</speed>
</trkpt>
<trkpt lat="55.702065" lon="26.302198">
<ele>175.420044</ele>
<time>2010-07-18T08:54:06Z</time>
<desc>lat.=55.702065, lon.=26.302198, Alt.=175.420044m. Speed=26.100000m/h.</desc>
<speed>7.250000</speed>
</trkpt>
<trkpt lat="55.702007" lon="26.302259">
<ele>175.416138</ele>
<time>2010-07-18T08:54:07Z</time>
<desc>lat.=55.702007, lon.=26.302259, Alt.=175.416138m. Speed=26.388000m/h.</desc>
<speed>7.330000</speed>
</trkpt>
<trkpt lat="55.701950" lon="26.302324">
<ele>175.529419</ele>
<time>2010-07-18T08:54:08Z</time>
<desc>lat.=55.701950, lon.=26.302324, Alt.=175.529419m. Speed=26.639999m/h.</desc>
<speed>7.400000</speed>
</trkpt>
<trkpt lat="55.701893" lon="26.302383">
<ele>175.252075</ele>
<time>2010-07-18T08:54:09Z</time>
<desc>lat.=55.701893, lon.=26.302383, Alt.=175.252075m. Speed=26.892000m/h.</desc>
<speed>7.470000</speed>
</trkpt>
<trkpt lat="55.701836" lon="26.302446">
<ele>175.009888</ele>
<time>2010-07-18T08:54:10Z</time>
<desc>lat.=55.701836, lon.=26.302446, Alt.=175.009888m. Speed=27.180000m/h.</desc>
<speed>7.550000</speed>
</trkpt>
<trkpt lat="55.701775" lon="26.302507">
<ele>174.537231</ele>
<time>2010-07-18T08:54:11Z</time>
<desc>lat.=55.701775, lon.=26.302507, Alt.=174.537231m. Speed=27.252001m/h.</desc>
<speed>7.570000</speed>
</trkpt>
<trkpt lat="55.701717" lon="26.302567">
<ele>173.326294</ele>
<time>2010-07-18T08:54:12Z</time>
<desc>lat.=55.701717, lon.=26.302567, Alt.=173.326294m. Speed=27.216000m/h.</desc>
<speed>7.560000</speed>
</trkpt>
<trkpt lat="55.701656" lon="26.302629">
<ele>172.888794</ele>
<time>2010-07-18T08:54:13Z</time>
<desc>lat.=55.701656, lon.=26.302629, Alt.=172.888794m. Speed=27.323999m/h.</desc>
<speed>7.590000</speed>
</trkpt>
<trkpt lat="55.701599" lon="26.302692">
<ele>172.912231</ele>
<time>2010-07-18T08:54:14Z</time>
<desc>lat.=55.701599, lon.=26.302692, Alt.=172.912231m. Speed=27.323999m/h.</desc>
<speed>7.590000</speed>
</trkpt>
<trkpt lat="55.701542" lon="26.302757">
<ele>172.888794</ele>
<time>2010-07-18T08:54:15Z</time>
<desc>lat.=55.701542, lon.=26.302757, Alt.=172.888794m. Speed=27.360001m/h.</desc>
<speed>7.600000</speed>
</trkpt>
<trkpt lat="55.701481" lon="26.302818">
<ele>173.021606</ele>
<time>2010-07-18T08:54:16Z</time>
<desc>lat.=55.701481, lon.=26.302818, Alt.=173.021606m. Speed=27.360001m/h.</desc>
<speed>7.600000</speed>
</trkpt>
<trkpt lat="55.701424" lon="26.302883">
<ele>172.873169</ele>
<time>2010-07-18T08:54:17Z</time>
<desc>lat.=55.701424, lon.=26.302883, Alt.=172.873169m. Speed=27.216000m/h.</desc>
<speed>7.560000</speed>
</trkpt>
<trkpt lat="55.701366" lon="26.302946">
<ele>172.431763</ele>
<time>2010-07-18T08:54:18Z</time>
<desc>lat.=55.701366, lon.=26.302946, Alt.=172.431763m. Speed=26.964001m/h.</desc>
<speed>7.490000</speed>
</trkpt>
<trkpt lat="55.701309" lon="26.303009">
<ele>171.947388</ele>
<time>2010-07-18T08:54:19Z</time>
<desc>lat.=55.701309, lon.=26.303009, Alt.=171.947388m. Speed=26.604000m/h.</desc>
<speed>7.390000</speed>
</trkpt>
<trkpt lat="55.701248" lon="26.303062">
<ele>171.591919</ele>
<time>2010-07-18T08:54:20Z</time>
<desc>lat.=55.701248, lon.=26.303062, Alt.=171.591919m. Speed=26.424000m/h.</desc>
<speed>7.340000</speed>
</trkpt>
<trkpt lat="55.701191" lon="26.303118">
<ele>171.591919</ele>
<time>2010-07-18T08:54:21Z</time>
<desc>lat.=55.701191, lon.=26.303118, Alt.=171.591919m. Speed=25.992001m/h.</desc>
<speed>7.220000</speed>
</trkpt>
<trkpt lat="55.701134" lon="26.303175">
<ele>171.720825</ele>
<time>2010-07-18T08:54:22Z</time>
<desc>lat.=55.701134, lon.=26.303175, Alt.=171.720825m. Speed=25.992001m/h.</desc>
<speed>7.220000</speed>
</trkpt>
<trkpt lat="55.701080" lon="26.303230">
<ele>171.588013</ele>
<time>2010-07-18T08:54:23Z</time>
<desc>lat.=55.701080, lon.=26.303230, Alt.=171.588013m. Speed=26.424000m/h.</desc>
<speed>7.340000</speed>
</trkpt>
<trkpt lat="55.701023" lon="26.303288">
<ele>171.259888</ele>
<time>2010-07-18T08:54:24Z</time>
<desc>lat.=55.701023, lon.=26.303288, Alt.=171.259888m. Speed=26.604000m/h.</desc>
<speed>7.390000</speed>
</trkpt>
<trkpt lat="55.700962" lon="26.303343">
<ele>170.373169</ele>
<time>2010-07-18T08:54:25Z</time>
<desc>lat.=55.700962, lon.=26.303343, Alt.=170.373169m. Speed=26.639999m/h.</desc>
<speed>7.400000</speed>
</trkpt>
<trkpt lat="55.700905" lon="26.303406">
<ele>170.248169</ele>
<time>2010-07-18T08:54:26Z</time>
<desc>lat.=55.700905, lon.=26.303406, Alt.=170.248169m. Speed=27.143999m/h.</desc>
<speed>7.540000</speed>
</trkpt>
<trkpt lat="55.700848" lon="26.303469">
<ele>170.314575</ele>
<time>2010-07-18T08:54:27Z</time>
<desc>lat.=55.700848, lon.=26.303469, Alt.=170.314575m. Speed=27.288000m/h.</desc>
<speed>7.580000</speed>
</trkpt>
<trkpt lat="55.700790" lon="26.303530">
<ele>170.298950</ele>
<time>2010-07-18T08:54:28Z</time>
<desc>lat.=55.700790, lon.=26.303530, Alt.=170.298950m. Speed=27.864000m/h.</desc>
<speed>7.740000</speed>
</trkpt>
<trkpt lat="55.700729" lon="26.303591">
<ele>170.216919</ele>
<time>2010-07-18T08:54:29Z</time>
<desc>lat.=55.700729, lon.=26.303591, Alt.=170.216919m. Speed=28.044001m/h.</desc>
<speed>7.790000</speed>
</trkpt>
<trkpt lat="55.700668" lon="26.303654">
<ele>170.005981</ele>
<time>2010-07-18T08:54:30Z</time>
<desc>lat.=55.700668, lon.=26.303654, Alt.=170.005981m. Speed=28.260000m/h.</desc>
<speed>7.850000</speed>
</trkpt>
<trkpt lat="55.700611" lon="26.303719">
<ele>169.795044</ele>
<time>2010-07-18T08:54:31Z</time>
<desc>lat.=55.700611, lon.=26.303719, Alt.=169.795044m. Speed=28.152000m/h.</desc>
<speed>7.820000</speed>
</trkpt>
<trkpt lat="55.700550" lon="26.303783">
<ele>169.470825</ele>
<time>2010-07-18T08:54:32Z</time>
<desc>lat.=55.700550, lon.=26.303783, Alt.=169.470825m. Speed=27.684000m/h.</desc>
<speed>7.690000</speed>
</trkpt>
<trkpt lat="55.700489" lon="26.303844">
<ele>169.177856</ele>
<time>2010-07-18T08:54:33Z</time>
<desc>lat.=55.700489, lon.=26.303844, Alt.=169.177856m. Speed=27.756001m/h.</desc>
<speed>7.710000</speed>
</trkpt>
<trkpt lat="55.700428" lon="26.303905">
<ele>168.982544</ele>
<time>2010-07-18T08:54:34Z</time>
<desc>lat.=55.700428, lon.=26.303905, Alt.=168.982544m. Speed=27.252001m/h.</desc>
<speed>7.570000</speed>
</trkpt>
<trkpt lat="55.700371" lon="26.303965">
<ele>168.904419</ele>
<time>2010-07-18T08:54:35Z</time>
<desc>lat.=55.700371, lon.=26.303965, Alt.=168.904419m. Speed=26.964001m/h.</desc>
<speed>7.490000</speed>
</trkpt>
<trkpt lat="55.700310" lon="26.304024">
<ele>168.783325</ele>
<time>2010-07-18T08:54:36Z</time>
<desc>lat.=55.700310, lon.=26.304024, Alt.=168.783325m. Speed=26.639999m/h.</desc>
<speed>7.400000</speed>
</trkpt>
<trkpt lat="55.700253" lon="26.304085">
<ele>168.791138</ele>
<time>2010-07-18T08:54:37Z</time>
<desc>lat.=55.700253, lon.=26.304085, Alt.=168.791138m. Speed=26.316000m/h.</desc>
<speed>7.310000</speed>
</trkpt>
<trkpt lat="55.700199" lon="26.304142">
<ele>168.713013</ele>
<time>2010-07-18T08:54:38Z</time>
<desc>lat.=55.700199, lon.=26.304142, Alt.=168.713013m. Speed=25.488001m/h.</desc>
<speed>7.080000</speed>
</trkpt>
<trkpt lat="55.700142" lon="26.304197">
<ele>168.670044</ele>
<time>2010-07-18T08:54:39Z</time>
<desc>lat.=55.700142, lon.=26.304197, Alt.=168.670044m. Speed=26.604000m/h.</desc>
<speed>7.390000</speed>
</trkpt>
<trkpt lat="55.700089" lon="26.304256">
<ele>168.685669</ele>
<time>2010-07-18T08:54:40Z</time>
<desc>lat.=55.700089, lon.=26.304256, Alt.=168.685669m. Speed=26.063999m/h.</desc>
<speed>7.240000</speed>
</trkpt>
<trkpt lat="55.700031" lon="26.304312">
<ele>168.732544</ele>
<time>2010-07-18T08:54:41Z</time>
<desc>lat.=55.700031, lon.=26.304312, Alt.=168.732544m. Speed=27.288000m/h.</desc>
<speed>7.580000</speed>
</trkpt>
<trkpt lat="55.699970" lon="26.304375">
<ele>168.580200</ele>
<time>2010-07-18T08:54:42Z</time>
<desc>lat.=55.699970, lon.=26.304375, Alt.=168.580200m. Speed=27.431999m/h.</desc>
<speed>7.620000</speed>
</trkpt>
<trkpt lat="55.699909" lon="26.304436">
<ele>168.513794</ele>
<time>2010-07-18T08:54:43Z</time>
<desc>lat.=55.699909, lon.=26.304436, Alt.=168.513794m. Speed=28.403999m/h.</desc>
<speed>7.890000</speed>
</trkpt>
<trkpt lat="55.699852" lon="26.304501">
<ele>168.509888</ele>
<time>2010-07-18T08:54:44Z</time>
<desc>lat.=55.699852, lon.=26.304501, Alt.=168.509888m. Speed=27.504000m/h.</desc>
<speed>7.640000</speed>
</trkpt>
<trkpt lat="55.699787" lon="26.304567">
<ele>168.318481</ele>
<time>2010-07-18T08:54:45Z</time>
<desc>lat.=55.699787, lon.=26.304567, Alt.=168.318481m. Speed=28.080000m/h.</desc>
<speed>7.800000</speed>
</trkpt>
<trkpt lat="55.699726" lon="26.304632">
<ele>167.896606</ele>
<time>2010-07-18T08:54:46Z</time>
<desc>lat.=55.699726, lon.=26.304632, Alt.=167.896606m. Speed=28.044001m/h.</desc>
<speed>7.790000</speed>
</trkpt>
<trkpt lat="55.699665" lon="26.304699">
<ele>168.045044</ele>
<time>2010-07-18T08:54:47Z</time>
<desc>lat.=55.699665, lon.=26.304699, Alt.=168.045044m. Speed=27.684000m/h.</desc>
<speed>7.690000</speed>
</trkpt>
<trkpt lat="55.699608" lon="26.304764">
<ele>168.045044</ele>
<time>2010-07-18T08:54:48Z</time>
<desc>lat.=55.699608, lon.=26.304764, Alt.=168.045044m. Speed=27.360001m/h.</desc>
<speed>7.600000</speed>
</trkpt>
<trkpt lat="55.699551" lon="26.304825">
<ele>168.173950</ele>
<time>2010-07-18T08:54:49Z</time>
<desc>lat.=55.699551, lon.=26.304825, Alt.=168.173950m. Speed=26.388000m/h.</desc>
<speed>7.330000</speed>
</trkpt>
<trkpt lat="55.699493" lon="26.304884">
<ele>168.154419</ele>
<time>2010-07-18T08:54:50Z</time>
<desc>lat.=55.699493, lon.=26.304884, Alt.=168.154419m. Speed=25.992001m/h.</desc>
<speed>7.220000</speed>
</trkpt>
<trkpt lat="55.699440" lon="26.304939">
<ele>168.138794</ele>
<time>2010-07-18T08:54:51Z</time>
<desc>lat.=55.699440, lon.=26.304939, Alt.=168.138794m. Speed=25.524000m/h.</desc>
<speed>7.090000</speed>
</trkpt>
<trkpt lat="55.699383" lon="26.304996">
<ele>167.990356</ele>
<time>2010-07-18T08:54:52Z</time>
<desc>lat.=55.699383, lon.=26.304996, Alt.=167.990356m. Speed=24.912001m/h.</desc>
<speed>6.920000</speed>
</trkpt>
<trkpt lat="55.699326" lon="26.305050">
<ele>167.998169</ele>
<time>2010-07-18T08:54:53Z</time>
<desc>lat.=55.699326, lon.=26.305050, Alt.=167.998169m. Speed=24.875999m/h.</desc>
<speed>6.910000</speed>
</trkpt>
<trkpt lat="55.699276" lon="26.305105">
<ele>167.982544</ele>
<time>2010-07-18T08:54:54Z</time>
<desc>lat.=55.699276, lon.=26.305105, Alt.=167.982544m. Speed=24.840000m/h.</desc>
<speed>6.900000</speed>
</trkpt>
<trkpt lat="55.699226" lon="26.305162">
<ele>168.005981</ele>
<time>2010-07-18T08:54:55Z</time>
<desc>lat.=55.699226, lon.=26.305162, Alt.=168.005981m. Speed=24.912001m/h.</desc>
<speed>6.920000</speed>
</trkpt>
<trkpt lat="55.699173" lon="26.305216">
<ele>168.091919</ele>
<time>2010-07-18T08:54:56Z</time>
<desc>lat.=55.699173, lon.=26.305216, Alt.=168.091919m. Speed=24.732000m/h.</desc>
<speed>6.870000</speed>
</trkpt>
<trkpt lat="55.699123" lon="26.305271">
<ele>168.146606</ele>
<time>2010-07-18T08:54:57Z</time>
<desc>lat.=55.699123, lon.=26.305271, Alt.=168.146606m. Speed=24.587999m/h.</desc>
<speed>6.830000</speed>
</trkpt>
<trkpt lat="55.699070" lon="26.305323">
<ele>168.052856</ele>
<time>2010-07-18T08:54:58Z</time>
<desc>lat.=55.699070, lon.=26.305323, Alt.=168.052856m. Speed=24.336000m/h.</desc>
<speed>6.760000</speed>
</trkpt>
<trkpt lat="55.699017" lon="26.305374">
<ele>168.185669</ele>
<time>2010-07-18T08:54:59Z</time>
<desc>lat.=55.699017, lon.=26.305374, Alt.=168.185669m. Speed=23.868000m/h.</desc>
<speed>6.630000</speed>
</trkpt>
<trkpt lat="55.698963" lon="26.305428">
<ele>168.228638</ele>
<time>2010-07-18T08:55:00Z</time>
<desc>lat.=55.698963, lon.=26.305428, Alt.=168.228638m. Speed=24.048000m/h.</desc>
<speed>6.680000</speed>
</trkpt>
<trkpt lat="55.698914" lon="26.305483">
<ele>168.380981</ele>
<time>2010-07-18T08:55:01Z</time>
<desc>lat.=55.698914, lon.=26.305483, Alt.=168.380981m. Speed=24.120001m/h.</desc>
<speed>6.700000</speed>
</trkpt>
<trkpt lat="55.698864" lon="26.305532">
<ele>168.494263</ele>
<time>2010-07-18T08:55:02Z</time>
<desc>lat.=55.698864, lon.=26.305532, Alt.=168.494263m. Speed=23.615999m/h.</desc>
<speed>6.560000</speed>
</trkpt>
<trkpt lat="55.698814" lon="26.305586">
<ele>168.584106</ele>
<time>2010-07-18T08:55:03Z</time>
<desc>lat.=55.698814, lon.=26.305586, Alt.=168.584106m. Speed=24.084000m/h.</desc>
<speed>6.690000</speed>
</trkpt>
<trkpt lat="55.698761" lon="26.305641">
<ele>168.775513</ele>
<time>2010-07-18T08:55:04Z</time>
<desc>lat.=55.698761, lon.=26.305641, Alt.=168.775513m. Speed=23.544001m/h.</desc>
<speed>6.540000</speed>
</trkpt>
<trkpt lat="55.698711" lon="26.305693">
<ele>168.463013</ele>
<time>2010-07-18T08:55:05Z</time>
<desc>lat.=55.698711, lon.=26.305693, Alt.=168.463013m. Speed=23.796000m/h.</desc>
<speed>6.610000</speed>
</trkpt>
<trkpt lat="55.698658" lon="26.305746">
<ele>168.474731</ele>
<time>2010-07-18T08:55:06Z</time>
<desc>lat.=55.698658, lon.=26.305746, Alt.=168.474731m. Speed=23.327999m/h.</desc>
<speed>6.480000</speed>
</trkpt>
<trkpt lat="55.698612" lon="26.305798">
<ele>168.396606</ele>
<time>2010-07-18T08:55:07Z</time>
<desc>lat.=55.698612, lon.=26.305798, Alt.=168.396606m. Speed=22.643999m/h.</desc>
<speed>6.290000</speed>
</trkpt>
<trkpt lat="55.698566" lon="26.305847">
<ele>168.513794</ele>
<time>2010-07-18T08:55:08Z</time>
<desc>lat.=55.698566, lon.=26.305847, Alt.=168.513794m. Speed=22.247999m/h.</desc>
<speed>6.180000</speed>
</trkpt>
<trkpt lat="55.698521" lon="26.305895">
<ele>168.209106</ele>
<time>2010-07-18T08:55:09Z</time>
<desc>lat.=55.698521, lon.=26.305895, Alt.=168.209106m. Speed=21.455999m/h.</desc>
<speed>5.960000</speed>
</trkpt>
<trkpt lat="55.698475" lon="26.305944">
<ele>168.111450</ele>
<time>2010-07-18T08:55:10Z</time>
<desc>lat.=55.698475, lon.=26.305944, Alt.=168.111450m. Speed=20.952000m/h.</desc>
<speed>5.820000</speed>
</trkpt>
<trkpt lat="55.698433" lon="26.305992">
<ele>168.013794</ele>
<time>2010-07-18T08:55:11Z</time>
<desc>lat.=55.698433, lon.=26.305992, Alt.=168.013794m. Speed=20.700001m/h.</desc>
<speed>5.750000</speed>
</trkpt>
<trkpt lat="55.698387" lon="26.306038">
<ele>168.033325</ele>
<time>2010-07-18T08:55:12Z</time>
<desc>lat.=55.698387, lon.=26.306038, Alt.=168.033325m. Speed=20.808001m/h.</desc>
<speed>5.780000</speed>
</trkpt>
<trkpt lat="55.698341" lon="26.306084">
<ele>167.720825</ele>
<time>2010-07-18T08:55:13Z</time>
<desc>lat.=55.698341, lon.=26.306084, Alt.=167.720825m. Speed=20.375999m/h.</desc>
<speed>5.660000</speed>
</trkpt>
<trkpt lat="55.698296" lon="26.306128">
<ele>167.857544</ele>
<time>2010-07-18T08:55:14Z</time>
<desc>lat.=55.698296, lon.=26.306128, Alt.=167.857544m. Speed=20.340000m/h.</desc>
<speed>5.650000</speed>
</trkpt>
<trkpt lat="55.698250" lon="26.306170">
<ele>167.716919</ele>
<time>2010-07-18T08:55:15Z</time>
<desc>lat.=55.698250, lon.=26.306170, Alt.=167.716919m. Speed=20.268000m/h.</desc>
<speed>5.630000</speed>
</trkpt>
<trkpt lat="55.698208" lon="26.306215">
<ele>166.896606</ele>
<time>2010-07-18T08:55:16Z</time>
<desc>lat.=55.698208, lon.=26.306215, Alt.=166.896606m. Speed=20.412001m/h.</desc>
<speed>5.670000</speed>
</trkpt>
<trkpt lat="55.698162" lon="26.306259">
<ele>166.697388</ele>
<time>2010-07-18T08:55:17Z</time>
<desc>lat.=55.698162, lon.=26.306259, Alt.=166.697388m. Speed=20.736000m/h.</desc>
<speed>5.760000</speed>
</trkpt>
<trkpt lat="55.698116" lon="26.306305">
<ele>166.713013</ele>
<time>2010-07-18T08:55:18Z</time>
<desc>lat.=55.698116, lon.=26.306305, Alt.=166.713013m. Speed=21.059999m/h.</desc>
<speed>5.850000</speed>
</trkpt>
<trkpt lat="55.698074" lon="26.306355">
<ele>166.744263</ele>
<time>2010-07-18T08:55:19Z</time>
<desc>lat.=55.698074, lon.=26.306355, Alt.=166.744263m. Speed=20.700001m/h.</desc>
<speed>5.750000</speed>
</trkpt>
<trkpt lat="55.698029" lon="26.306402">
<ele>166.513794</ele>
<time>2010-07-18T08:55:20Z</time>
<desc>lat.=55.698029, lon.=26.306402, Alt.=166.513794m. Speed=20.087999m/h.</desc>
<speed>5.580000</speed>
</trkpt>
<trkpt lat="55.697987" lon="26.306444">
<ele>166.002075</ele>
<time>2010-07-18T08:55:21Z</time>
<desc>lat.=55.697987, lon.=26.306444, Alt.=166.002075m. Speed=19.080000m/h.</desc>
<speed>5.300000</speed>
</trkpt>
<trkpt lat="55.697948" lon="26.306484">
<ele>166.005981</ele>
<time>2010-07-18T08:55:22Z</time>
<desc>lat.=55.697948, lon.=26.306484, Alt.=166.005981m. Speed=18.252001m/h.</desc>
<speed>5.070000</speed>
</trkpt>
<trkpt lat="55.697910" lon="26.306522">
<ele>166.298950</ele>
<time>2010-07-18T08:55:23Z</time>
<desc>lat.=55.697910, lon.=26.306522, Alt.=166.298950m. Speed=17.280001m/h.</desc>
<speed>4.800000</speed>
</trkpt>
<trkpt lat="55.697872" lon="26.306561">
<ele>166.193481</ele>
<time>2010-07-18T08:55:24Z</time>
<desc>lat.=55.697872, lon.=26.306561, Alt.=166.193481m. Speed=16.596001m/h.</desc>
<speed>4.610000</speed>
</trkpt>
<trkpt lat="55.697838" lon="26.306595">
<ele>165.873169</ele>
<time>2010-07-18T08:55:25Z</time>
<desc>lat.=55.697838, lon.=26.306595, Alt.=165.873169m. Speed=16.416000m/h.</desc>
<speed>4.560000</speed>
</trkpt>
<trkpt lat="55.697800" lon="26.306631">
<ele>165.705200</ele>
<time>2010-07-18T08:55:26Z</time>
<desc>lat.=55.697800, lon.=26.306631, Alt.=165.705200m. Speed=16.596001m/h.</desc>
<speed>4.610000</speed>
</trkpt>
<trkpt lat="55.697765" lon="26.306669">
<ele>165.884888</ele>
<time>2010-07-18T08:55:27Z</time>
<desc>lat.=55.697765, lon.=26.306669, Alt.=165.884888m. Speed=16.992001m/h.</desc>
<speed>4.720000</speed>
</trkpt>
<trkpt lat="55.697727" lon="26.306705">
<ele>165.841919</ele>
<time>2010-07-18T08:55:28Z</time>
<desc>lat.=55.697727, lon.=26.306705, Alt.=165.841919m. Speed=17.100000m/h.</desc>
<speed>4.750000</speed>
</trkpt>
<trkpt lat="55.697693" lon="26.306746">
<ele>165.228638</ele>
<time>2010-07-18T08:55:29Z</time>
<desc>lat.=55.697693, lon.=26.306746, Alt.=165.228638m. Speed=17.532000m/h.</desc>
<speed>4.870000</speed>
</trkpt>
<trkpt lat="55.697659" lon="26.306787">
<ele>164.920044</ele>
<time>2010-07-18T08:55:30Z</time>
<desc>lat.=55.697659, lon.=26.306787, Alt.=164.920044m. Speed=17.424000m/h.</desc>
<speed>4.840000</speed>
</trkpt>
<trkpt lat="55.697624" lon="26.306829">
<ele>164.970825</ele>
<time>2010-07-18T08:55:31Z</time>
<desc>lat.=55.697624, lon.=26.306829, Alt.=164.970825m. Speed=16.704000m/h.</desc>
<speed>4.640000</speed>
</trkpt>
<trkpt lat="55.697590" lon="26.306870">
<ele>165.037231</ele>
<time>2010-07-18T08:55:32Z</time>
<desc>lat.=55.697590, lon.=26.306870, Alt.=165.037231m. Speed=17.280001m/h.</desc>
<speed>4.800000</speed>
</trkpt>
<trkpt lat="55.697552" lon="26.306908">
<ele>164.865356</ele>
<time>2010-07-18T08:55:33Z</time>
<desc>lat.=55.697552, lon.=26.306908, Alt.=164.865356m. Speed=17.351999m/h.</desc>
<speed>4.820000</speed>
</trkpt>
<trkpt lat="55.697514" lon="26.306952">
<ele>164.931763</ele>
<time>2010-07-18T08:55:34Z</time>
<desc>lat.=55.697514, lon.=26.306952, Alt.=164.931763m. Speed=18.000000m/h.</desc>
<speed>5.000000</speed>
</trkpt>
<trkpt lat="55.697479" lon="26.306995">
<ele>164.877075</ele>
<time>2010-07-18T08:55:35Z</time>
<desc>lat.=55.697479, lon.=26.306995, Alt.=164.877075m. Speed=18.035999m/h.</desc>
<speed>5.010000</speed>
</trkpt>
<trkpt lat="55.697437" lon="26.307037">
<ele>164.900513</ele>
<time>2010-07-18T08:55:36Z</time>
<desc>lat.=55.697437, lon.=26.307037, Alt.=164.900513m. Speed=18.648001m/h.</desc>
<speed>5.180000</speed>
</trkpt>
<trkpt lat="55.697395" lon="26.307076">
<ele>165.088013</ele>
<time>2010-07-18T08:55:37Z</time>
<desc>lat.=55.697395, lon.=26.307076, Alt.=165.088013m. Speed=19.044001m/h.</desc>
<speed>5.290000</speed>
</trkpt>
<trkpt lat="55.697353" lon="26.307116">
<ele>165.181763</ele>
<time>2010-07-18T08:55:38Z</time>
<desc>lat.=55.697353, lon.=26.307116, Alt.=165.181763m. Speed=18.756001m/h.</desc>
<speed>5.210000</speed>
</trkpt>
<trkpt lat="55.697315" lon="26.307156">
<ele>165.298950</ele>
<time>2010-07-18T08:55:39Z</time>
<desc>lat.=55.697315, lon.=26.307156, Alt.=165.298950m. Speed=17.784000m/h.</desc>
<speed>4.940000</speed>
</trkpt>
<trkpt lat="55.697277" lon="26.307198">
<ele>165.463013</ele>
<time>2010-07-18T08:55:40Z</time>
<desc>lat.=55.697277, lon.=26.307198, Alt.=165.463013m. Speed=16.667999m/h.</desc>
<speed>4.630000</speed>
</trkpt>
<trkpt lat="55.697243" lon="26.307234">
<ele>165.463013</ele>
<time>2010-07-18T08:55:41Z</time>
<desc>lat.=55.697243, lon.=26.307234, Alt.=165.463013m. Speed=15.804000m/h.</desc>
<speed>4.390000</speed>
</trkpt>
<trkpt lat="55.697208" lon="26.307264">
<ele>165.517700</ele>
<time>2010-07-18T08:55:42Z</time>
<desc>lat.=55.697208, lon.=26.307264, Alt.=165.517700m. Speed=16.056000m/h.</desc>
<speed>4.460000</speed>
</trkpt>
<trkpt lat="55.697170" lon="26.307297">
<ele>165.404419</ele>
<time>2010-07-18T08:55:43Z</time>
<desc>lat.=55.697170, lon.=26.307297, Alt.=165.404419m. Speed=16.308001m/h.</desc>
<speed>4.530000</speed>
</trkpt>
<trkpt lat="55.697140" lon="26.307339">
<ele>165.599731</ele>
<time>2010-07-18T08:55:44Z</time>
<desc>lat.=55.697140, lon.=26.307339, Alt.=165.599731m. Speed=16.992001m/h.</desc>
<speed>4.720000</speed>
</trkpt>
<trkpt lat="55.697105" lon="26.307381">
<ele>165.517700</ele>
<time>2010-07-18T08:55:45Z</time>
<desc>lat.=55.697105, lon.=26.307381, Alt.=165.517700m. Speed=16.632000m/h.</desc>
<speed>4.620000</speed>
</trkpt>
<trkpt lat="55.697067" lon="26.307417">
<ele>165.451294</ele>
<time>2010-07-18T08:55:46Z</time>
<desc>lat.=55.697067, lon.=26.307417, Alt.=165.451294m. Speed=16.992001m/h.</desc>
<speed>4.720000</speed>
</trkpt>
<trkpt lat="55.697029" lon="26.307455">
<ele>165.466919</ele>
<time>2010-07-18T08:55:47Z</time>
<desc>lat.=55.697029, lon.=26.307455, Alt.=165.466919m. Speed=17.424000m/h.</desc>
<speed>4.840000</speed>
</trkpt>
<trkpt lat="55.696987" lon="26.307493">
<ele>165.607544</ele>
<time>2010-07-18T08:55:48Z</time>
<desc>lat.=55.696987, lon.=26.307493, Alt.=165.607544m. Speed=17.316000m/h.</desc>
<speed>4.810000</speed>
</trkpt>
<trkpt lat="55.696949" lon="26.307537">
<ele>165.787231</ele>
<time>2010-07-18T08:55:49Z</time>
<desc>lat.=55.696949, lon.=26.307537, Alt.=165.787231m. Speed=17.280001m/h.</desc>
<speed>4.800000</speed>
</trkpt>
<trkpt lat="55.696911" lon="26.307577">
<ele>165.849731</ele>
<time>2010-07-18T08:55:50Z</time>
<desc>lat.=55.696911, lon.=26.307577, Alt.=165.849731m. Speed=17.208000m/h.</desc>
<speed>4.780000</speed>
</trkpt>
<trkpt lat="55.696873" lon="26.307613">
<ele>165.982544</ele>
<time>2010-07-18T08:55:51Z</time>
<desc>lat.=55.696873, lon.=26.307613, Alt.=165.982544m. Speed=17.172001m/h.</desc>
<speed>4.770000</speed>
</trkpt>
<trkpt lat="55.696838" lon="26.307648">
<ele>165.849731</ele>
<time>2010-07-18T08:55:52Z</time>
<desc>lat.=55.696838, lon.=26.307648, Alt.=165.849731m. Speed=16.848000m/h.</desc>
<speed>4.680000</speed>
</trkpt>
<trkpt lat="55.696800" lon="26.307686">
<ele>166.029419</ele>
<time>2010-07-18T08:55:53Z</time>
<desc>lat.=55.696800, lon.=26.307686, Alt.=166.029419m. Speed=17.100000m/h.</desc>
<speed>4.750000</speed>
</trkpt>
<trkpt lat="55.696766" lon="26.307724">
<ele>166.384888</ele>
<time>2010-07-18T08:55:54Z</time>
<desc>lat.=55.696766, lon.=26.307724, Alt.=166.384888m. Speed=16.596001m/h.</desc>
<speed>4.610000</speed>
</trkpt>
<trkpt lat="55.696728" lon="26.307758">
<ele>166.263794</ele>
<time>2010-07-18T08:55:55Z</time>
<desc>lat.=55.696728, lon.=26.307758, Alt.=166.263794m. Speed=16.992001m/h.</desc>
<speed>4.720000</speed>
</trkpt>
<trkpt lat="55.696690" lon="26.307795">
<ele>166.279419</ele>
<time>2010-07-18T08:55:56Z</time>
<desc>lat.=55.696690, lon.=26.307795, Alt.=166.279419m. Speed=16.667999m/h.</desc>
<speed>4.630000</speed>
</trkpt>
<trkpt lat="55.696655" lon="26.307829">
<ele>166.478638</ele>
<time>2010-07-18T08:55:57Z</time>
<desc>lat.=55.696655, lon.=26.307829, Alt.=166.478638m. Speed=16.955999m/h.</desc>
<speed>4.710000</speed>
</trkpt>
<trkpt lat="55.696617" lon="26.307865">
<ele>166.494263</ele>
<time>2010-07-18T08:55:58Z</time>
<desc>lat.=55.696617, lon.=26.307865, Alt.=166.494263m. Speed=16.775999m/h.</desc>
<speed>4.660000</speed>
</trkpt>
<trkpt lat="55.696583" lon="26.307905">
<ele>166.439575</ele>
<time>2010-07-18T08:55:59Z</time>
<desc>lat.=55.696583, lon.=26.307905, Alt.=166.439575m. Speed=16.596001m/h.</desc>
<speed>4.610000</speed>
</trkpt>
<trkpt lat="55.696545" lon="26.307947">
<ele>166.537231</ele>
<time>2010-07-18T08:56:00Z</time>
<desc>lat.=55.696545, lon.=26.307947, Alt.=166.537231m. Speed=16.740000m/h.</desc>
<speed>4.650000</speed>
</trkpt>
<trkpt lat="55.696510" lon="26.307989">
<ele>166.755981</ele>
<time>2010-07-18T08:56:01Z</time>
<desc>lat.=55.696510, lon.=26.307989, Alt.=166.755981m. Speed=16.596001m/h.</desc>
<speed>4.610000</speed>
</trkpt>
<trkpt lat="55.696476" lon="26.308027">
<ele>166.755981</ele>
<time>2010-07-18T08:56:02Z</time>
<desc>lat.=55.696476, lon.=26.308027, Alt.=166.755981m. Speed=16.667999m/h.</desc>
<speed>4.630000</speed>
</trkpt>
<trkpt lat="55.696442" lon="26.308065">
<ele>167.002075</ele>
<time>2010-07-18T08:56:03Z</time>
<desc>lat.=55.696442, lon.=26.308065, Alt.=167.002075m. Speed=16.812000m/h.</desc>
<speed>4.670000</speed>
</trkpt>
<trkpt lat="55.696404" lon="26.308104">
<ele>167.088013</ele>
<time>2010-07-18T08:56:04Z</time>
<desc>lat.=55.696404, lon.=26.308104, Alt.=167.088013m. Speed=16.704000m/h.</desc>
<speed>4.640000</speed>
</trkpt>
<trkpt lat="55.696365" lon="26.308138">
<ele>167.310669</ele>
<time>2010-07-18T08:56:05Z</time>
<desc>lat.=55.696365, lon.=26.308138, Alt.=167.310669m. Speed=16.920000m/h.</desc>
<speed>4.700000</speed>
</trkpt>
<trkpt lat="55.696327" lon="26.308174">
<ele>167.423950</ele>
<time>2010-07-18T08:56:06Z</time>
<desc>lat.=55.696327, lon.=26.308174, Alt.=167.423950m. Speed=16.955999m/h.</desc>
<speed>4.710000</speed>
</trkpt>
<trkpt lat="55.696289" lon="26.308214">
<ele>167.595825</ele>
<time>2010-07-18T08:56:07Z</time>
<desc>lat.=55.696289, lon.=26.308214, Alt.=167.595825m. Speed=17.063999m/h.</desc>
<speed>4.740000</speed>
</trkpt>
<trkpt lat="55.696255" lon="26.308254">
<ele>167.482544</ele>
<time>2010-07-18T08:56:08Z</time>
<desc>lat.=55.696255, lon.=26.308254, Alt.=167.482544m. Speed=17.496000m/h.</desc>
<speed>4.860000</speed>
</trkpt>
<trkpt lat="55.696213" lon="26.308292">
<ele>167.666138</ele>
<time>2010-07-18T08:56:09Z</time>
<desc>lat.=55.696213, lon.=26.308292, Alt.=167.666138m. Speed=17.856001m/h.</desc>
<speed>4.960000</speed>
</trkpt>
<trkpt lat="55.696178" lon="26.308332">
<ele>167.697388</ele>
<time>2010-07-18T08:56:10Z</time>
<desc>lat.=55.696178, lon.=26.308332, Alt.=167.697388m. Speed=18.108000m/h.</desc>
<speed>5.030000</speed>
</trkpt>
<trkpt lat="55.696136" lon="26.308372">
<ele>167.990356</ele>
<time>2010-07-18T08:56:11Z</time>
<desc>lat.=55.696136, lon.=26.308372, Alt.=167.990356m. Speed=17.604000m/h.</desc>
<speed>4.890000</speed>
</trkpt>
<trkpt lat="55.696098" lon="26.308411">
<ele>168.310669</ele>
<time>2010-07-18T08:56:12Z</time>
<desc>lat.=55.696098, lon.=26.308411, Alt.=168.310669m. Speed=18.864000m/h.</desc>
<speed>5.240000</speed>
</trkpt>
<trkpt lat="55.696060" lon="26.308456">
<ele>168.709106</ele>
<time>2010-07-18T08:56:13Z</time>
<desc>lat.=55.696060, lon.=26.308456, Alt.=168.709106m. Speed=18.288000m/h.</desc>
<speed>5.080000</speed>
</trkpt>
<trkpt lat="55.696018" lon="26.308500">
<ele>168.931763</ele>
<time>2010-07-18T08:56:14Z</time>
<desc>lat.=55.696018, lon.=26.308500, Alt.=168.931763m. Speed=17.747999m/h.</desc>
<speed>4.930000</speed>
</trkpt>
<trkpt lat="55.695980" lon="26.308540">
<ele>168.963013</ele>
<time>2010-07-18T08:56:15Z</time>
<desc>lat.=55.695980, lon.=26.308540, Alt.=168.963013m. Speed=17.100000m/h.</desc>
<speed>4.750000</speed>
</trkpt>
<trkpt lat="55.695946" lon="26.308575">
<ele>168.529419</ele>
<time>2010-07-18T08:56:16Z</time>
<desc>lat.=55.695946, lon.=26.308575, Alt.=168.529419m. Speed=15.300000m/h.</desc>
<speed>4.250000</speed>
</trkpt>
<trkpt lat="55.695915" lon="26.308611">
<ele>169.494263</ele>
<time>2010-07-18T08:56:17Z</time>
<desc>lat.=55.695915, lon.=26.308611, Alt.=169.494263m. Speed=14.040000m/h.</desc>
<speed>3.900000</speed>
</trkpt>
<trkpt lat="55.695885" lon="26.308645">
<ele>169.591919</ele>
<time>2010-07-18T08:56:18Z</time>
<desc>lat.=55.695885, lon.=26.308645, Alt.=169.591919m. Speed=14.256000m/h.</desc>
<speed>3.960000</speed>
</trkpt>
<trkpt lat="55.695854" lon="26.308676">
<ele>169.681763</ele>
<time>2010-07-18T08:56:19Z</time>
<desc>lat.=55.695854, lon.=26.308676, Alt.=169.681763m. Speed=14.688000m/h.</desc>
<speed>4.080000</speed>
</trkpt>
<trkpt lat="55.695824" lon="26.308702">
<ele>169.607544</ele>
<time>2010-07-18T08:56:20Z</time>
<desc>lat.=55.695824, lon.=26.308702, Alt.=169.607544m. Speed=15.192000m/h.</desc>
<speed>4.220000</speed>
</trkpt>
<trkpt lat="55.695793" lon="26.308731">
<ele>169.767700</ele>
<time>2010-07-18T08:56:21Z</time>
<desc>lat.=55.695793, lon.=26.308731, Alt.=169.767700m. Speed=15.804000m/h.</desc>
<speed>4.390000</speed>
</trkpt>
<trkpt lat="55.695759" lon="26.308765">
<ele>169.505981</ele>
<time>2010-07-18T08:56:22Z</time>
<desc>lat.=55.695759, lon.=26.308765, Alt.=169.505981m. Speed=16.344000m/h.</desc>
<speed>4.540000</speed>
</trkpt>
<trkpt lat="55.695724" lon="26.308804">
<ele>169.345825</ele>
<time>2010-07-18T08:56:23Z</time>
<desc>lat.=55.695724, lon.=26.308804, Alt.=169.345825m. Speed=16.667999m/h.</desc>
<speed>4.630000</speed>
</trkpt>
<trkpt lat="55.695686" lon="26.308842">
<ele>169.240356</ele>
<time>2010-07-18T08:56:24Z</time>
<desc>lat.=55.695686, lon.=26.308842, Alt.=169.240356m. Speed=17.100000m/h.</desc>
<speed>4.750000</speed>
</trkpt>
<trkpt lat="55.695648" lon="26.308882">
<ele>169.646606</ele>
<time>2010-07-18T08:56:25Z</time>
<desc>lat.=55.695648, lon.=26.308882, Alt.=169.646606m. Speed=17.856001m/h.</desc>
<speed>4.960000</speed>
</trkpt>
<trkpt lat="55.695610" lon="26.308922">
<ele>169.994263</ele>
<time>2010-07-18T08:56:26Z</time>
<desc>lat.=55.695610, lon.=26.308922, Alt.=169.994263m. Speed=17.316000m/h.</desc>
<speed>4.810000</speed>
</trkpt>
<trkpt lat="55.695576" lon="26.308958">
<ele>170.298950</ele>
<time>2010-07-18T08:56:27Z</time>
<desc>lat.=55.695576, lon.=26.308958, Alt.=170.298950m. Speed=16.667999m/h.</desc>
<speed>4.630000</speed>
</trkpt>
<trkpt lat="55.695538" lon="26.308996">
<ele>170.560669</ele>
<time>2010-07-18T08:56:28Z</time>
<desc>lat.=55.695538, lon.=26.308996, Alt.=170.560669m. Speed=15.732000m/h.</desc>
<speed>4.370000</speed>
</trkpt>
<trkpt lat="55.695503" lon="26.309032">
<ele>170.560669</ele>
<time>2010-07-18T08:56:29Z</time>
<desc>lat.=55.695503, lon.=26.309032, Alt.=170.560669m. Speed=16.091999m/h.</desc>
<speed>4.470000</speed>
</trkpt>
<trkpt lat="55.695469" lon="26.309071">
<ele>170.158325</ele>
<time>2010-07-18T08:56:30Z</time>
<desc>lat.=55.695469, lon.=26.309071, Alt.=170.158325m. Speed=16.416000m/h.</desc>
<speed>4.560000</speed>
</trkpt>
<trkpt lat="55.695435" lon="26.309111">
<ele>170.361450</ele>
<time>2010-07-18T08:56:31Z</time>
<desc>lat.=55.695435, lon.=26.309111, Alt.=170.361450m. Speed=16.524000m/h.</desc>
<speed>4.590000</speed>
</trkpt>
<trkpt lat="55.695396" lon="26.309145">
<ele>169.787231</ele>
<time>2010-07-18T08:56:32Z</time>
<desc>lat.=55.695396, lon.=26.309145, Alt.=169.787231m. Speed=16.056000m/h.</desc>
<speed>4.460000</speed>
</trkpt>
<trkpt lat="55.695362" lon="26.309177">
<ele>169.255981</ele>
<time>2010-07-18T08:56:33Z</time>
<desc>lat.=55.695362, lon.=26.309177, Alt.=169.255981m. Speed=16.632000m/h.</desc>
<speed>4.620000</speed>
</trkpt>
<trkpt lat="55.695328" lon="26.309214">
<ele>168.646606</ele>
<time>2010-07-18T08:56:34Z</time>
<desc>lat.=55.695328, lon.=26.309214, Alt.=168.646606m. Speed=17.243999m/h.</desc>
<speed>4.790000</speed>
</trkpt>
<trkpt lat="55.695293" lon="26.309248">
<ele>168.330200</ele>
<time>2010-07-18T08:56:35Z</time>
<desc>lat.=55.695293, lon.=26.309248, Alt.=168.330200m. Speed=16.955999m/h.</desc>
<speed>4.710000</speed>
</trkpt>
<trkpt lat="55.695255" lon="26.309286">
<ele>167.420044</ele>
<time>2010-07-18T08:56:36Z</time>
<desc>lat.=55.695255, lon.=26.309286, Alt.=167.420044m. Speed=17.063999m/h.</desc>
<speed>4.740000</speed>
</trkpt>
<trkpt lat="55.695217" lon="26.309326">
<ele>166.822388</ele>
<time>2010-07-18T08:56:37Z</time>
<desc>lat.=55.695217, lon.=26.309326, Alt.=166.822388m. Speed=17.532000m/h.</desc>
<speed>4.870000</speed>
</trkpt>
<trkpt lat="55.695179" lon="26.309368">
<ele>166.658325</ele>
<time>2010-07-18T08:56:38Z</time>
<desc>lat.=55.695179, lon.=26.309368, Alt.=166.658325m. Speed=17.459999m/h.</desc>
<speed>4.850000</speed>
</trkpt>
<trkpt lat="55.695137" lon="26.309408">
<ele>166.369263</ele>
<time>2010-07-18T08:56:39Z</time>
<desc>lat.=55.695137, lon.=26.309408, Alt.=166.369263m. Speed=16.848000m/h.</desc>
<speed>4.680000</speed>
</trkpt>
<trkpt lat="55.695103" lon="26.309443">
<ele>166.267700</ele>
<time>2010-07-18T08:56:40Z</time>
<desc>lat.=55.695103, lon.=26.309443, Alt.=166.267700m. Speed=15.804000m/h.</desc>
<speed>4.390000</speed>
</trkpt>
<trkpt lat="55.695068" lon="26.309479">
<ele>166.088013</ele>
<time>2010-07-18T08:56:41Z</time>
<desc>lat.=55.695068, lon.=26.309479, Alt.=166.088013m. Speed=14.940000m/h.</desc>
<speed>4.150000</speed>
</trkpt>
<trkpt lat="55.695038" lon="26.309515">
<ele>165.916138</ele>
<time>2010-07-18T08:56:42Z</time>
<desc>lat.=55.695038, lon.=26.309515, Alt.=165.916138m. Speed=14.256000m/h.</desc>
<speed>3.960000</speed>
</trkpt>
<trkpt lat="55.695007" lon="26.309549">
<ele>165.826294</ele>
<time>2010-07-18T08:56:43Z</time>
<desc>lat.=55.695007, lon.=26.309549, Alt.=165.826294m. Speed=13.644000m/h.</desc>
<speed>3.790000</speed>
</trkpt>
<trkpt lat="55.694977" lon="26.309584">
<ele>165.689575</ele>
<time>2010-07-18T08:56:44Z</time>
<desc>lat.=55.694977, lon.=26.309584, Alt.=165.689575m. Speed=12.780000m/h.</desc>
<speed>3.550000</speed>
</trkpt>
<trkpt lat="55.694946" lon="26.309608">
<ele>165.396606</ele>
<time>2010-07-18T08:56:45Z</time>
<desc>lat.=55.694946, lon.=26.309608, Alt.=165.396606m. Speed=12.276000m/h.</desc>
<speed>3.410000</speed>
</trkpt>
<trkpt lat="55.694920" lon="26.309637">
<ele>164.865356</ele>
<time>2010-07-18T08:56:46Z</time>
<desc>lat.=55.694920, lon.=26.309637, Alt.=164.865356m. Speed=11.628000m/h.</desc>
<speed>3.230000</speed>
</trkpt>
<trkpt lat="55.694893" lon="26.309668">
<ele>163.744263</ele>
<time>2010-07-18T08:56:47Z</time>
<desc>lat.=55.694893, lon.=26.309668, Alt.=163.744263m. Speed=12.600000m/h.</desc>
<speed>3.500000</speed>
</trkpt>
<trkpt lat="55.694866" lon="26.309700">
<ele>163.263794</ele>
<time>2010-07-18T08:56:48Z</time>
<desc>lat.=55.694866, lon.=26.309700, Alt.=163.263794m. Speed=13.572000m/h.</desc>
<speed>3.770000</speed>
</trkpt>
<trkpt lat="55.694836" lon="26.309734">
<ele>163.107544</ele>
<time>2010-07-18T08:56:49Z</time>
<desc>lat.=55.694836, lon.=26.309734, Alt.=163.107544m. Speed=13.608000m/h.</desc>
<speed>3.780000</speed>
</trkpt>
<trkpt lat="55.694805" lon="26.309769">
<ele>162.830200</ele>
<time>2010-07-18T08:56:50Z</time>
<desc>lat.=55.694805, lon.=26.309769, Alt.=162.830200m. Speed=15.444000m/h.</desc>
<speed>4.290000</speed>
</trkpt>
<trkpt lat="55.694767" lon="26.309801">
<ele>162.658325</ele>
<time>2010-07-18T08:56:51Z</time>
<desc>lat.=55.694767, lon.=26.309801, Alt.=162.658325m. Speed=16.200001m/h.</desc>
<speed>4.500000</speed>
</trkpt>
<trkpt lat="55.694733" lon="26.309837">
<ele>162.427856</ele>
<time>2010-07-18T08:56:52Z</time>
<desc>lat.=55.694733, lon.=26.309837, Alt.=162.427856m. Speed=15.228000m/h.</desc>
<speed>4.230000</speed>
</trkpt>
<trkpt lat="55.694698" lon="26.309872">
<ele>162.322388</ele>
<time>2010-07-18T08:56:53Z</time>
<desc>lat.=55.694698, lon.=26.309872, Alt.=162.322388m. Speed=15.444000m/h.</desc>
<speed>4.290000</speed>
</trkpt>
<trkpt lat="55.694664" lon="26.309902">
<ele>162.236450</ele>
<time>2010-07-18T08:56:54Z</time>
<desc>lat.=55.694664, lon.=26.309902, Alt.=162.236450m. Speed=14.508000m/h.</desc>
<speed>4.030000</speed>
</trkpt>
<trkpt lat="55.694633" lon="26.309929">
<ele>162.127075</ele>
<time>2010-07-18T08:56:55Z</time>
<desc>lat.=55.694633, lon.=26.309929, Alt.=162.127075m. Speed=14.292000m/h.</desc>
<speed>3.970000</speed>
</trkpt>
<trkpt lat="55.694603" lon="26.309961">
<ele>161.798950</ele>
<time>2010-07-18T08:56:56Z</time>
<desc>lat.=55.694603, lon.=26.309961, Alt.=161.798950m. Speed=15.480000m/h.</desc>
<speed>4.300000</speed>
</trkpt>
<trkpt lat="55.694569" lon="26.309994">
<ele>161.716919</ele>
<time>2010-07-18T08:56:57Z</time>
<desc>lat.=55.694569, lon.=26.309994, Alt.=161.716919m. Speed=15.120000m/h.</desc>
<speed>4.200000</speed>
</trkpt>
<trkpt lat="55.694534" lon="26.310030">
<ele>161.556763</ele>
<time>2010-07-18T08:56:58Z</time>
<desc>lat.=55.694534, lon.=26.310030, Alt.=161.556763m. Speed=14.040000m/h.</desc>
<speed>3.900000</speed>
</trkpt>
<trkpt lat="55.694496" lon="26.310062">
<ele>161.388794</ele>
<time>2010-07-18T08:56:59Z</time>
<desc>lat.=55.694496, lon.=26.310062, Alt.=161.388794m. Speed=15.840000m/h.</desc>
<speed>4.400000</speed>
</trkpt>
<trkpt lat="55.694466" lon="26.310101">
<ele>161.408325</ele>
<time>2010-07-18T08:57:00Z</time>
<desc>lat.=55.694466, lon.=26.310101, Alt.=161.408325m. Speed=16.164000m/h.</desc>
<speed>4.490000</speed>
</trkpt>
<trkpt lat="55.694427" lon="26.310139">
<ele>161.392700</ele>
<time>2010-07-18T08:57:01Z</time>
<desc>lat.=55.694427, lon.=26.310139, Alt.=161.392700m. Speed=16.884001m/h.</desc>
<speed>4.690000</speed>
</trkpt>
<trkpt lat="55.694393" lon="26.310179">
<ele>161.259888</ele>
<time>2010-07-18T08:57:02Z</time>
<desc>lat.=55.694393, lon.=26.310179, Alt.=161.259888m. Speed=17.208000m/h.</desc>
<speed>4.780000</speed>
</trkpt>
<trkpt lat="55.694355" lon="26.310215">
<ele>161.166138</ele>
<time>2010-07-18T08:57:03Z</time>
<desc>lat.=55.694355, lon.=26.310215, Alt.=161.166138m. Speed=17.496000m/h.</desc>
<speed>4.860000</speed>
</trkpt>
<trkpt lat="55.694317" lon="26.310251">
<ele>160.814575</ele>
<time>2010-07-18T08:57:04Z</time>
<desc>lat.=55.694317, lon.=26.310251, Alt.=160.814575m. Speed=17.459999m/h.</desc>
<speed>4.850000</speed>
</trkpt>
<trkpt lat="55.694275" lon="26.310291">
<ele>160.541138</ele>
<time>2010-07-18T08:57:05Z</time>
<desc>lat.=55.694275, lon.=26.310291, Alt.=160.541138m. Speed=19.799999m/h.</desc>
<speed>5.500000</speed>
</trkpt>
<trkpt lat="55.694233" lon="26.310333">
<ele>160.232544</ele>
<time>2010-07-18T08:57:06Z</time>
<desc>lat.=55.694233, lon.=26.310333, Alt.=160.232544m. Speed=19.260000m/h.</desc>
<speed>5.350000</speed>
</trkpt>
<trkpt lat="55.694191" lon="26.310375">
<ele>159.963013</ele>
<time>2010-07-18T08:57:07Z</time>
<desc>lat.=55.694191, lon.=26.310375, Alt.=159.963013m. Speed=18.756001m/h.</desc>
<speed>5.210000</speed>
</trkpt>
<trkpt lat="55.694153" lon="26.310419">
<ele>159.666138</ele>
<time>2010-07-18T08:57:08Z</time>
<desc>lat.=55.694153, lon.=26.310419, Alt.=159.666138m. Speed=18.900000m/h.</desc>
<speed>5.250000</speed>
</trkpt>
<trkpt lat="55.694115" lon="26.310463">
<ele>159.713013</ele>
<time>2010-07-18T08:57:09Z</time>
<desc>lat.=55.694115, lon.=26.310463, Alt.=159.713013m. Speed=18.180000m/h.</desc>
<speed>5.050000</speed>
</trkpt>
<trkpt lat="55.694080" lon="26.310507">
<ele>159.732544</ele>
<time>2010-07-18T08:57:10Z</time>
<desc>lat.=55.694080, lon.=26.310507, Alt.=159.732544m. Speed=18.035999m/h.</desc>
<speed>5.010000</speed>
</trkpt>
<trkpt lat="55.694038" lon="26.310547">
<ele>159.525513</ele>
<time>2010-07-18T08:57:11Z</time>
<desc>lat.=55.694038, lon.=26.310547, Alt.=159.525513m. Speed=17.676001m/h.</desc>
<speed>4.910000</speed>
</trkpt>
<trkpt lat="55.694000" lon="26.310591">
<ele>159.353638</ele>
<time>2010-07-18T08:57:12Z</time>
<desc>lat.=55.694000, lon.=26.310591, Alt.=159.353638m. Speed=17.351999m/h.</desc>
<speed>4.820000</speed>
</trkpt>
<trkpt lat="55.693962" lon="26.310629">
<ele>159.310669</ele>
<time>2010-07-18T08:57:13Z</time>
<desc>lat.=55.693962, lon.=26.310629, Alt.=159.310669m. Speed=17.063999m/h.</desc>
<speed>4.740000</speed>
</trkpt>
<trkpt lat="55.693928" lon="26.310669">
<ele>159.275513</ele>
<time>2010-07-18T08:57:14Z</time>
<desc>lat.=55.693928, lon.=26.310669, Alt.=159.275513m. Speed=16.667999m/h.</desc>
<speed>4.630000</speed>
</trkpt>
<trkpt lat="55.693897" lon="26.310707">
<ele>159.283325</ele>
<time>2010-07-18T08:57:15Z</time>
<desc>lat.=55.693897, lon.=26.310707, Alt.=159.283325m. Speed=16.344000m/h.</desc>
<speed>4.540000</speed>
</trkpt>
<trkpt lat="55.693863" lon="26.310745">
<ele>159.259888</ele>
<time>2010-07-18T08:57:16Z</time>
<desc>lat.=55.693863, lon.=26.310745, Alt.=159.259888m. Speed=15.732000m/h.</desc>
<speed>4.370000</speed>
</trkpt>
<trkpt lat="55.693829" lon="26.310780">
<ele>159.041138</ele>
<time>2010-07-18T08:57:17Z</time>
<desc>lat.=55.693829, lon.=26.310780, Alt.=159.041138m. Speed=15.588000m/h.</desc>
<speed>4.330000</speed>
</trkpt>
<trkpt lat="55.693790" lon="26.310812">
<ele>158.951294</ele>
<time>2010-07-18T08:57:18Z</time>
<desc>lat.=55.693790, lon.=26.310812, Alt.=158.951294m. Speed=15.300000m/h.</desc>
<speed>4.250000</speed>
</trkpt>
<trkpt lat="55.693760" lon="26.310844">
<ele>158.838013</ele>
<time>2010-07-18T08:57:19Z</time>
<desc>lat.=55.693760, lon.=26.310844, Alt.=158.838013m. Speed=15.192000m/h.</desc>
<speed>4.220000</speed>
</trkpt>
<trkpt lat="55.693726" lon="26.310877">
<ele>158.697388</ele>
<time>2010-07-18T08:57:20Z</time>
<desc>lat.=55.693726, lon.=26.310877, Alt.=158.697388m. Speed=15.588000m/h.</desc>
<speed>4.330000</speed>
</trkpt>
<trkpt lat="55.693691" lon="26.310913">
<ele>158.697388</ele>
<time>2010-07-18T08:57:21Z</time>
<desc>lat.=55.693691, lon.=26.310913, Alt.=158.697388m. Speed=16.884001m/h.</desc>
<speed>4.690000</speed>
</trkpt>
<trkpt lat="55.693653" lon="26.310953">
<ele>158.560669</ele>
<time>2010-07-18T08:57:22Z</time>
<desc>lat.=55.693653, lon.=26.310953, Alt.=158.560669m. Speed=17.172001m/h.</desc>
<speed>4.770000</speed>
</trkpt>
<trkpt lat="55.693615" lon="26.310991">
<ele>158.521606</ele>
<time>2010-07-18T08:57:23Z</time>
<desc>lat.=55.693615, lon.=26.310991, Alt.=158.521606m. Speed=18.000000m/h.</desc>
<speed>5.000000</speed>
</trkpt>
<trkpt lat="55.693573" lon="26.311035">
<ele>158.447388</ele>
<time>2010-07-18T08:57:24Z</time>
<desc>lat.=55.693573, lon.=26.311035, Alt.=158.447388m. Speed=18.972000m/h.</desc>
<speed>5.270000</speed>
</trkpt>
<trkpt lat="55.693531" lon="26.311081">
<ele>158.314575</ele>
<time>2010-07-18T08:57:25Z</time>
<desc>lat.=55.693531, lon.=26.311081, Alt.=158.314575m. Speed=18.972000m/h.</desc>
<speed>5.270000</speed>
</trkpt>
<trkpt lat="55.693489" lon="26.311121">
<ele>158.275513</ele>
<time>2010-07-18T08:57:26Z</time>
<desc>lat.=55.693489, lon.=26.311121, Alt.=158.275513m. Speed=18.900000m/h.</desc>
<speed>5.250000</speed>
</trkpt>
<trkpt lat="55.693451" lon="26.311161">
<ele>158.255981</ele>
<time>2010-07-18T08:57:27Z</time>
<desc>lat.=55.693451, lon.=26.311161, Alt.=158.255981m. Speed=18.576000m/h.</desc>
<speed>5.160000</speed>
</trkpt>
<trkpt lat="55.693413" lon="26.311195">
<ele>158.201294</ele>
<time>2010-07-18T08:57:28Z</time>
<desc>lat.=55.693413, lon.=26.311195, Alt.=158.201294m. Speed=18.143999m/h.</desc>
<speed>5.040000</speed>
</trkpt>
<trkpt lat="55.693375" lon="26.311234">
<ele>158.205200</ele>
<time>2010-07-18T08:57:29Z</time>
<desc>lat.=55.693375, lon.=26.311234, Alt.=158.205200m. Speed=17.712000m/h.</desc>
<speed>4.920000</speed>
</trkpt>
<trkpt lat="55.693340" lon="26.311272">
<ele>158.267700</ele>
<time>2010-07-18T08:57:30Z</time>
<desc>lat.=55.693340, lon.=26.311272, Alt.=158.267700m. Speed=17.280001m/h.</desc>
<speed>4.800000</speed>
</trkpt>
<trkpt lat="55.693306" lon="26.311310">
<ele>158.369263</ele>
<time>2010-07-18T08:57:31Z</time>
<desc>lat.=55.693306, lon.=26.311310, Alt.=158.369263m. Speed=17.028000m/h.</desc>
<speed>4.730000</speed>
</trkpt>
<trkpt lat="55.693268" lon="26.311346">
<ele>158.283325</ele>
<time>2010-07-18T08:57:32Z</time>
<desc>lat.=55.693268, lon.=26.311346, Alt.=158.283325m. Speed=16.524000m/h.</desc>
<speed>4.590000</speed>
</trkpt>
<trkpt lat="55.693230" lon="26.311382">
<ele>158.189575</ele>
<time>2010-07-18T08:57:33Z</time>
<desc>lat.=55.693230, lon.=26.311382, Alt.=158.189575m. Speed=16.632000m/h.</desc>
<speed>4.620000</speed>
</trkpt>
<trkpt lat="55.693195" lon="26.311420">
<ele>158.189575</ele>
<time>2010-07-18T08:57:34Z</time>
<desc>lat.=55.693195, lon.=26.311420, Alt.=158.189575m. Speed=15.912000m/h.</desc>
<speed>4.420000</speed>
</trkpt>
<trkpt lat="55.693153" lon="26.311453">
<ele>157.552856</ele>
<time>2010-07-18T08:57:35Z</time>
<desc>lat.=55.693153, lon.=26.311453, Alt.=157.552856m. Speed=15.876000m/h.</desc>
<speed>4.410000</speed>
</trkpt>
<trkpt lat="55.693119" lon="26.311485">
<ele>157.185669</ele>
<time>2010-07-18T08:57:36Z</time>
<desc>lat.=55.693119, lon.=26.311485, Alt.=157.185669m. Speed=16.775999m/h.</desc>
<speed>4.660000</speed>
</trkpt>
<trkpt lat="55.693081" lon="26.311523">
<ele>157.084106</ele>
<time>2010-07-18T08:57:37Z</time>
<desc>lat.=55.693081, lon.=26.311523, Alt.=157.084106m. Speed=17.747999m/h.</desc>
<speed>4.930000</speed>
</trkpt>
<trkpt lat="55.693043" lon="26.311563">
<ele>157.099731</ele>
<time>2010-07-18T08:57:38Z</time>
<desc>lat.=55.693043, lon.=26.311563, Alt.=157.099731m. Speed=18.431999m/h.</desc>
<speed>5.120000</speed>
</trkpt>
<trkpt lat="55.693001" lon="26.311605">
<ele>157.130981</ele>
<time>2010-07-18T08:57:39Z</time>
<desc>lat.=55.693001, lon.=26.311605, Alt.=157.130981m. Speed=19.691999m/h.</desc>
<speed>5.470000</speed>
</trkpt>
<trkpt lat="55.692959" lon="26.311651">
<ele>157.091919</ele>
<time>2010-07-18T08:57:40Z</time>
<desc>lat.=55.692959, lon.=26.311651, Alt.=157.091919m. Speed=20.375999m/h.</desc>
<speed>5.660000</speed>
</trkpt>
<trkpt lat="55.692917" lon="26.311697">
<ele>157.084106</ele>
<time>2010-07-18T08:57:41Z</time>
<desc>lat.=55.692917, lon.=26.311697, Alt.=157.084106m. Speed=21.420000m/h.</desc>
<speed>5.950000</speed>
</trkpt>
<trkpt lat="55.692871" lon="26.311747">
<ele>156.849731</ele>
<time>2010-07-18T08:57:42Z</time>
<desc>lat.=55.692871, lon.=26.311747, Alt.=156.849731m. Speed=21.780001m/h.</desc>
<speed>6.050000</speed>
</trkpt>
<trkpt lat="55.692825" lon="26.311796">
<ele>156.841919</ele>
<time>2010-07-18T08:57:43Z</time>
<desc>lat.=55.692825, lon.=26.311796, Alt.=156.841919m. Speed=21.780001m/h.</desc>
<speed>6.050000</speed>
</trkpt>
<trkpt lat="55.692776" lon="26.311844">
<ele>156.826294</ele>
<time>2010-07-18T08:57:44Z</time>
<desc>lat.=55.692776, lon.=26.311844, Alt.=156.826294m. Speed=21.672001m/h.</desc>
<speed>6.020000</speed>
</trkpt>
<trkpt lat="55.692730" lon="26.311895">
<ele>156.838013</ele>
<time>2010-07-18T08:57:45Z</time>
<desc>lat.=55.692730, lon.=26.311895, Alt.=156.838013m. Speed=21.275999m/h.</desc>
<speed>5.910000</speed>
</trkpt>
<trkpt lat="55.692688" lon="26.311949">
<ele>156.806763</ele>
<time>2010-07-18T08:57:46Z</time>
<desc>lat.=55.692688, lon.=26.311949, Alt.=156.806763m. Speed=21.024000m/h.</desc>
<speed>5.840000</speed>
</trkpt>
<trkpt lat="55.692642" lon="26.312000">
<ele>156.591919</ele>
<time>2010-07-18T08:57:47Z</time>
<desc>lat.=55.692642, lon.=26.312000, Alt.=156.591919m. Speed=20.771999m/h.</desc>
<speed>5.770000</speed>
</trkpt>
<trkpt lat="55.692596" lon="26.312048">
<ele>156.470825</ele>
<time>2010-07-18T08:57:48Z</time>
<desc>lat.=55.692596, lon.=26.312048, Alt.=156.470825m. Speed=20.520000m/h.</desc>
<speed>5.700000</speed>
</trkpt>
<trkpt lat="55.692554" lon="26.312099">
<ele>156.517700</ele>
<time>2010-07-18T08:57:49Z</time>
<desc>lat.=55.692554, lon.=26.312099, Alt.=156.517700m. Speed=19.872000m/h.</desc>
<speed>5.520000</speed>
</trkpt>
<trkpt lat="55.692516" lon="26.312143">
<ele>156.646606</ele>
<time>2010-07-18T08:57:50Z</time>
<desc>lat.=55.692516, lon.=26.312143, Alt.=156.646606m. Speed=19.332001m/h.</desc>
<speed>5.370000</speed>
</trkpt>
<trkpt lat="55.692471" lon="26.312185">
<ele>156.713013</ele>
<time>2010-07-18T08:57:51Z</time>
<desc>lat.=55.692471, lon.=26.312185, Alt.=156.713013m. Speed=19.764000m/h.</desc>
<speed>5.490000</speed>
</trkpt>
<trkpt lat="55.692429" lon="26.312222">
<ele>156.666138</ele>
<time>2010-07-18T08:57:52Z</time>
<desc>lat.=55.692429, lon.=26.312222, Alt.=156.666138m. Speed=20.520000m/h.</desc>
<speed>5.700000</speed>
</trkpt>
<trkpt lat="55.692383" lon="26.312267">
<ele>156.646606</ele>
<time>2010-07-18T08:57:53Z</time>
<desc>lat.=55.692383, lon.=26.312267, Alt.=156.646606m. Speed=20.016001m/h.</desc>
<speed>5.560000</speed>
</trkpt>
<trkpt lat="55.692341" lon="26.312305">
<ele>156.365356</ele>
<time>2010-07-18T08:57:54Z</time>
<desc>lat.=55.692341, lon.=26.312305, Alt.=156.365356m. Speed=19.476000m/h.</desc>
<speed>5.410000</speed>
</trkpt>
<trkpt lat="55.692299" lon="26.312353">
<ele>156.377075</ele>
<time>2010-07-18T08:57:55Z</time>
<desc>lat.=55.692299, lon.=26.312353, Alt.=156.377075m. Speed=19.224001m/h.</desc>
<speed>5.340000</speed>
</trkpt>
<trkpt lat="55.692257" lon="26.312401">
<ele>156.306763</ele>
<time>2010-07-18T08:57:56Z</time>
<desc>lat.=55.692257, lon.=26.312401, Alt.=156.306763m. Speed=18.792000m/h.</desc>
<speed>5.220000</speed>
</trkpt>
<trkpt lat="55.692215" lon="26.312445">
<ele>156.220825</ele>
<time>2010-07-18T08:57:57Z</time>
<desc>lat.=55.692215, lon.=26.312445, Alt.=156.220825m. Speed=19.620001m/h.</desc>
<speed>5.450000</speed>
</trkpt>
<trkpt lat="55.692173" lon="26.312500">
<ele>156.205200</ele>
<time>2010-07-18T08:57:58Z</time>
<desc>lat.=55.692173, lon.=26.312500, Alt.=156.205200m. Speed=20.736000m/h.</desc>
<speed>5.760000</speed>
</trkpt>
<trkpt lat="55.692127" lon="26.312555">
<ele>156.017700</ele>
<time>2010-07-18T08:57:59Z</time>
<desc>lat.=55.692127, lon.=26.312555, Alt.=156.017700m. Speed=21.492001m/h.</desc>
<speed>5.970000</speed>
</trkpt>
<trkpt lat="55.692085" lon="26.312607">
<ele>156.357544</ele>
<time>2010-07-18T08:58:00Z</time>
<desc>lat.=55.692085, lon.=26.312607, Alt.=156.357544m. Speed=20.556000m/h.</desc>
<speed>5.710000</speed>
</trkpt>
<trkpt lat="55.692039" lon="26.312658">
<ele>156.173950</ele>
<time>2010-07-18T08:58:01Z</time>
<desc>lat.=55.692039, lon.=26.312658, Alt.=156.173950m. Speed=20.520000m/h.</desc>
<speed>5.700000</speed>
</trkpt>
<trkpt lat="55.691998" lon="26.312708">
<ele>156.013794</ele>
<time>2010-07-18T08:58:02Z</time>
<desc>lat.=55.691998, lon.=26.312708, Alt.=156.013794m. Speed=20.304001m/h.</desc>
<speed>5.640000</speed>
</trkpt>
<trkpt lat="55.691952" lon="26.312754">
<ele>155.791138</ele>
<time>2010-07-18T08:58:03Z</time>
<desc>lat.=55.691952, lon.=26.312754, Alt.=155.791138m. Speed=20.016001m/h.</desc>
<speed>5.560000</speed>
</trkpt>
<trkpt lat="55.691910" lon="26.312798">
<ele>155.591919</ele>
<time>2010-07-18T08:58:04Z</time>
<desc>lat.=55.691910, lon.=26.312798, Alt.=155.591919m. Speed=19.872000m/h.</desc>
<speed>5.520000</speed>
</trkpt>
<trkpt lat="55.691864" lon="26.312843">
<ele>155.295044</ele>
<time>2010-07-18T08:58:05Z</time>
<desc>lat.=55.691864, lon.=26.312843, Alt.=155.295044m. Speed=19.799999m/h.</desc>
<speed>5.500000</speed>
</trkpt>
<trkpt lat="55.691822" lon="26.312883">
<ele>155.048950</ele>
<time>2010-07-18T08:58:06Z</time>
<desc>lat.=55.691822, lon.=26.312883, Alt.=155.048950m. Speed=19.728001m/h.</desc>
<speed>5.480000</speed>
</trkpt>
<trkpt lat="55.691780" lon="26.312927">
<ele>154.927856</ele>
<time>2010-07-18T08:58:07Z</time>
<desc>lat.=55.691780, lon.=26.312927, Alt.=154.927856m. Speed=19.368000m/h.</desc>
<speed>5.380000</speed>
</trkpt>
<trkpt lat="55.691738" lon="26.312969">
<ele>154.970825</ele>
<time>2010-07-18T08:58:08Z</time>
<desc>lat.=55.691738, lon.=26.312969, Alt.=154.970825m. Speed=18.936001m/h.</desc>
<speed>5.260000</speed>
</trkpt>
<trkpt lat="55.691700" lon="26.313007">
<ele>155.076294</ele>
<time>2010-07-18T08:58:09Z</time>
<desc>lat.=55.691700, lon.=26.313007, Alt.=155.076294m. Speed=18.827999m/h.</desc>
<speed>5.230000</speed>
</trkpt>
<trkpt lat="55.691658" lon="26.313049">
<ele>155.107544</ele>
<time>2010-07-18T08:58:10Z</time>
<desc>lat.=55.691658, lon.=26.313049, Alt.=155.107544m. Speed=19.403999m/h.</desc>
<speed>5.390000</speed>
</trkpt>
<trkpt lat="55.691620" lon="26.313095">
<ele>155.201294</ele>
<time>2010-07-18T08:58:11Z</time>
<desc>lat.=55.691620, lon.=26.313095, Alt.=155.201294m. Speed=20.483999m/h.</desc>
<speed>5.690000</speed>
</trkpt>
<trkpt lat="55.691574" lon="26.313143">
<ele>155.099731</ele>
<time>2010-07-18T08:58:12Z</time>
<desc>lat.=55.691574, lon.=26.313143, Alt.=155.099731m. Speed=20.879999m/h.</desc>
<speed>5.800000</speed>
</trkpt>
<trkpt lat="55.691528" lon="26.313189">
<ele>155.084106</ele>
<time>2010-07-18T08:58:13Z</time>
<desc>lat.=55.691528, lon.=26.313189, Alt.=155.084106m. Speed=20.700001m/h.</desc>
<speed>5.750000</speed>
</trkpt>
<trkpt lat="55.691483" lon="26.313236">
<ele>154.857544</ele>
<time>2010-07-18T08:58:14Z</time>
<desc>lat.=55.691483, lon.=26.313236, Alt.=154.857544m. Speed=20.591999m/h.</desc>
<speed>5.720000</speed>
</trkpt>
<trkpt lat="55.691437" lon="26.313286">
<ele>154.732544</ele>
<time>2010-07-18T08:58:15Z</time>
<desc>lat.=55.691437, lon.=26.313286, Alt.=154.732544m. Speed=20.304001m/h.</desc>
<speed>5.640000</speed>
</trkpt>
<trkpt lat="55.691391" lon="26.313335">
<ele>154.603638</ele>
<time>2010-07-18T08:58:16Z</time>
<desc>lat.=55.691391, lon.=26.313335, Alt.=154.603638m. Speed=20.124001m/h.</desc>
<speed>5.590000</speed>
</trkpt>
<trkpt lat="55.691349" lon="26.313381">
<ele>154.545044</ele>
<time>2010-07-18T08:58:17Z</time>
<desc>lat.=55.691349, lon.=26.313381, Alt.=154.545044m. Speed=19.368000m/h.</desc>
<speed>5.380000</speed>
</trkpt>
<trkpt lat="55.691307" lon="26.313423">
<ele>154.482544</ele>
<time>2010-07-18T08:58:18Z</time>
<desc>lat.=55.691307, lon.=26.313423, Alt.=154.482544m. Speed=18.756001m/h.</desc>
<speed>5.210000</speed>
</trkpt>
<trkpt lat="55.691265" lon="26.313467">
<ele>154.384888</ele>
<time>2010-07-18T08:58:19Z</time>
<desc>lat.=55.691265, lon.=26.313467, Alt.=154.384888m. Speed=18.252001m/h.</desc>
<speed>5.070000</speed>
</trkpt>
<trkpt lat="55.691227" lon="26.313511">
<ele>154.517700</ele>
<time>2010-07-18T08:58:20Z</time>
<desc>lat.=55.691227, lon.=26.313511, Alt.=154.517700m. Speed=18.143999m/h.</desc>
<speed>5.040000</speed>
</trkpt>
<trkpt lat="55.691185" lon="26.313562">
<ele>154.287231</ele>
<time>2010-07-18T08:58:21Z</time>
<desc>lat.=55.691185, lon.=26.313562, Alt.=154.287231m. Speed=18.216000m/h.</desc>
<speed>5.060000</speed>
</trkpt>
<trkpt lat="55.691147" lon="26.313602">
<ele>154.330200</ele>
<time>2010-07-18T08:58:22Z</time>
<desc>lat.=55.691147, lon.=26.313602, Alt.=154.330200m. Speed=18.827999m/h.</desc>
<speed>5.230000</speed>
</trkpt>
<trkpt lat="55.691109" lon="26.313650">
<ele>154.193481</ele>
<time>2010-07-18T08:58:23Z</time>
<desc>lat.=55.691109, lon.=26.313650, Alt.=154.193481m. Speed=19.584000m/h.</desc>
<speed>5.440000</speed>
</trkpt>
<trkpt lat="55.691063" lon="26.313698">
<ele>154.173950</ele>
<time>2010-07-18T08:58:24Z</time>
<desc>lat.=55.691063, lon.=26.313698, Alt.=154.173950m. Speed=19.620001m/h.</desc>
<speed>5.450000</speed>
</trkpt>
<trkpt lat="55.691017" lon="26.313749">
<ele>153.814575</ele>
<time>2010-07-18T08:58:25Z</time>
<desc>lat.=55.691017, lon.=26.313749, Alt.=153.814575m. Speed=22.284000m/h.</desc>
<speed>6.190000</speed>
</trkpt>
<trkpt lat="55.690971" lon="26.313803">
<ele>153.529419</ele>
<time>2010-07-18T08:58:26Z</time>
<desc>lat.=55.690971, lon.=26.313803, Alt.=153.529419m. Speed=21.492001m/h.</desc>
<speed>5.970000</speed>
</trkpt>
<trkpt lat="55.690929" lon="26.313848">
<ele>153.314575</ele>
<time>2010-07-18T08:58:27Z</time>
<desc>lat.=55.690929, lon.=26.313848, Alt.=153.314575m. Speed=20.232000m/h.</desc>
<speed>5.620000</speed>
</trkpt>
<trkpt lat="55.690887" lon="26.313892">
<ele>152.990356</ele>
<time>2010-07-18T08:58:28Z</time>
<desc>lat.=55.690887, lon.=26.313892, Alt.=152.990356m. Speed=20.052000m/h.</desc>
<speed>5.570000</speed>
</trkpt>
<trkpt lat="55.690845" lon="26.313936">
<ele>152.880981</ele>
<time>2010-07-18T08:58:29Z</time>
<desc>lat.=55.690845, lon.=26.313936, Alt.=152.880981m. Speed=19.440001m/h.</desc>
<speed>5.400000</speed>
</trkpt>
<trkpt lat="55.690804" lon="26.313980">
<ele>152.873169</ele>
<time>2010-07-18T08:58:30Z</time>
<desc>lat.=55.690804, lon.=26.313980, Alt.=152.873169m. Speed=19.656000m/h.</desc>
<speed>5.460000</speed>
</trkpt>
<trkpt lat="55.690762" lon="26.314022">
<ele>152.666138</ele>
<time>2010-07-18T08:58:31Z</time>
<desc>lat.=55.690762, lon.=26.314022, Alt.=152.666138m. Speed=18.756001m/h.</desc>
<speed>5.210000</speed>
</trkpt>
<trkpt lat="55.690716" lon="26.314060">
<ele>152.666138</ele>
<time>2010-07-18T08:58:32Z</time>
<desc>lat.=55.690716, lon.=26.314060, Alt.=152.666138m. Speed=19.908001m/h.</desc>
<speed>5.530000</speed>
</trkpt>
<trkpt lat="55.690670" lon="26.314098">
<ele>152.642700</ele>
<time>2010-07-18T08:58:33Z</time>
<desc>lat.=55.690670, lon.=26.314098, Alt.=152.642700m. Speed=20.771999m/h.</desc>
<speed>5.770000</speed>
</trkpt>
<trkpt lat="55.690624" lon="26.314144">
<ele>152.349731</ele>
<time>2010-07-18T08:58:34Z</time>
<desc>lat.=55.690624, lon.=26.314144, Alt.=152.349731m. Speed=22.320000m/h.</desc>
<speed>6.200000</speed>
</trkpt>
<trkpt lat="55.690575" lon="26.314192">
<ele>152.306763</ele>
<time>2010-07-18T08:58:35Z</time>
<desc>lat.=55.690575, lon.=26.314192, Alt.=152.306763m. Speed=22.716000m/h.</desc>
<speed>6.310000</speed>
</trkpt>
<trkpt lat="55.690525" lon="26.314240">
<ele>152.287231</ele>
<time>2010-07-18T08:58:36Z</time>
<desc>lat.=55.690525, lon.=26.314240, Alt.=152.287231m. Speed=23.219999m/h.</desc>
<speed>6.450000</speed>
</trkpt>
<trkpt lat="55.690475" lon="26.314283">
<ele>152.252075</ele>
<time>2010-07-18T08:58:37Z</time>
<desc>lat.=55.690475, lon.=26.314283, Alt.=152.252075m. Speed=23.148001m/h.</desc>
<speed>6.430000</speed>
</trkpt>
<trkpt lat="55.690426" lon="26.314329">
<ele>152.271606</ele>
<time>2010-07-18T08:58:38Z</time>
<desc>lat.=55.690426, lon.=26.314329, Alt.=152.271606m. Speed=22.896000m/h.</desc>
<speed>6.360000</speed>
</trkpt>
<trkpt lat="55.690376" lon="26.314379">
<ele>152.134888</ele>
<time>2010-07-18T08:58:39Z</time>
<desc>lat.=55.690376, lon.=26.314379, Alt.=152.134888m. Speed=22.643999m/h.</desc>
<speed>6.290000</speed>
</trkpt>
<trkpt lat="55.690331" lon="26.314423">
<ele>152.365356</ele>
<time>2010-07-18T08:58:40Z</time>
<desc>lat.=55.690331, lon.=26.314423, Alt.=152.365356m. Speed=22.176001m/h.</desc>
<speed>6.160000</speed>
</trkpt>
<trkpt lat="55.690285" lon="26.314466">
<ele>152.642700</ele>
<time>2010-07-18T08:58:41Z</time>
<desc>lat.=55.690285, lon.=26.314466, Alt.=152.642700m. Speed=21.780001m/h.</desc>
<speed>6.050000</speed>
</trkpt>
<trkpt lat="55.690239" lon="26.314508">
<ele>152.755981</ele>
<time>2010-07-18T08:58:42Z</time>
<desc>lat.=55.690239, lon.=26.314508, Alt.=152.755981m. Speed=21.528000m/h.</desc>
<speed>5.980000</speed>
</trkpt>
<trkpt lat="55.690189" lon="26.314552">
<ele>152.986450</ele>
<time>2010-07-18T08:58:43Z</time>
<desc>lat.=55.690189, lon.=26.314552, Alt.=152.986450m. Speed=20.916000m/h.</desc>
<speed>5.810000</speed>
</trkpt>
<trkpt lat="55.690147" lon="26.314596">
<ele>153.412231</ele>
<time>2010-07-18T08:58:44Z</time>
<desc>lat.=55.690147, lon.=26.314596, Alt.=153.412231m. Speed=20.340000m/h.</desc>
<speed>5.650000</speed>
</trkpt>
<trkpt lat="55.690109" lon="26.314640">
<ele>153.740356</ele>
<time>2010-07-18T08:58:45Z</time>
<desc>lat.=55.690109, lon.=26.314640, Alt.=153.740356m. Speed=19.908001m/h.</desc>
<speed>5.530000</speed>
</trkpt>
<trkpt lat="55.690067" lon="26.314688">
<ele>153.478638</ele>
<time>2010-07-18T08:58:46Z</time>
<desc>lat.=55.690067, lon.=26.314688, Alt.=153.478638m. Speed=19.440001m/h.</desc>
<speed>5.400000</speed>
</trkpt>
<trkpt lat="55.690025" lon="26.314730">
<ele>153.658325</ele>
<time>2010-07-18T08:58:47Z</time>
<desc>lat.=55.690025, lon.=26.314730, Alt.=153.658325m. Speed=20.520000m/h.</desc>
<speed>5.700000</speed>
</trkpt>
<trkpt lat="55.689983" lon="26.314774">
<ele>153.732544</ele>
<time>2010-07-18T08:58:48Z</time>
<desc>lat.=55.689983, lon.=26.314774, Alt.=153.732544m. Speed=21.348000m/h.</desc>
<speed>5.930000</speed>
</trkpt>
<trkpt lat="55.689938" lon="26.314821">
<ele>153.877075</ele>
<time>2010-07-18T08:58:49Z</time>
<desc>lat.=55.689938, lon.=26.314821, Alt.=153.877075m. Speed=21.780001m/h.</desc>
<speed>6.050000</speed>
</trkpt>
<trkpt lat="55.689892" lon="26.314871">
<ele>154.009888</ele>
<time>2010-07-18T08:58:50Z</time>
<desc>lat.=55.689892, lon.=26.314871, Alt.=154.009888m. Speed=21.672001m/h.</desc>
<speed>6.020000</speed>
</trkpt>
<trkpt lat="55.689846" lon="26.314919">
<ele>154.111450</ele>
<time>2010-07-18T08:58:51Z</time>
<desc>lat.=55.689846, lon.=26.314919, Alt.=154.111450m. Speed=21.204000m/h.</desc>
<speed>5.890000</speed>
</trkpt>
<trkpt lat="55.689800" lon="26.314964">
<ele>154.213013</ele>
<time>2010-07-18T08:58:52Z</time>
<desc>lat.=55.689800, lon.=26.314964, Alt.=154.213013m. Speed=20.628000m/h.</desc>
<speed>5.730000</speed>
</trkpt>
<trkpt lat="55.689758" lon="26.315014">
<ele>154.384888</ele>
<time>2010-07-18T08:58:53Z</time>
<desc>lat.=55.689758, lon.=26.315014, Alt.=154.384888m. Speed=20.340000m/h.</desc>
<speed>5.650000</speed>
</trkpt>
<trkpt lat="55.689716" lon="26.315058">
<ele>154.447388</ele>
<time>2010-07-18T08:58:54Z</time>
<desc>lat.=55.689716, lon.=26.315058, Alt.=154.447388m. Speed=20.016001m/h.</desc>
<speed>5.560000</speed>
</trkpt>
<trkpt lat="55.689674" lon="26.315107">
<ele>154.537231</ele>
<time>2010-07-18T08:58:55Z</time>
<desc>lat.=55.689674, lon.=26.315107, Alt.=154.537231m. Speed=19.691999m/h.</desc>
<speed>5.470000</speed>
</trkpt>
<trkpt lat="55.689632" lon="26.315157">
<ele>154.533325</ele>
<time>2010-07-18T08:58:56Z</time>
<desc>lat.=55.689632, lon.=26.315157, Alt.=154.533325m. Speed=19.296000m/h.</desc>
<speed>5.360000</speed>
</trkpt>
<trkpt lat="55.689590" lon="26.315203">
<ele>154.623169</ele>
<time>2010-07-18T08:58:57Z</time>
<desc>lat.=55.689590, lon.=26.315203, Alt.=154.623169m. Speed=18.756001m/h.</desc>
<speed>5.210000</speed>
</trkpt>
<trkpt lat="55.689552" lon="26.315241">
<ele>154.802856</ele>
<time>2010-07-18T08:58:58Z</time>
<desc>lat.=55.689552, lon.=26.315241, Alt.=154.802856m. Speed=18.180000m/h.</desc>
<speed>5.050000</speed>
</trkpt>
<trkpt lat="55.689514" lon="26.315281">
<ele>154.771606</ele>
<time>2010-07-18T08:58:59Z</time>
<desc>lat.=55.689514, lon.=26.315281, Alt.=154.771606m. Speed=17.927999m/h.</desc>
<speed>4.980000</speed>
</trkpt>
<trkpt lat="55.689472" lon="26.315317">
<ele>154.623169</ele>
<time>2010-07-18T08:59:00Z</time>
<desc>lat.=55.689472, lon.=26.315317, Alt.=154.623169m. Speed=17.459999m/h.</desc>
<speed>4.850000</speed>
</trkpt>
<trkpt lat="55.689434" lon="26.315355">
<ele>154.541138</ele>
<time>2010-07-18T08:59:01Z</time>
<desc>lat.=55.689434, lon.=26.315355, Alt.=154.541138m. Speed=18.288000m/h.</desc>
<speed>5.080000</speed>
</trkpt>
<trkpt lat="55.689392" lon="26.315401">
<ele>154.474731</ele>
<time>2010-07-18T08:59:02Z</time>
<desc>lat.=55.689392, lon.=26.315401, Alt.=154.474731m. Speed=19.836000m/h.</desc>
<speed>5.510000</speed>
</trkpt>
<trkpt lat="55.689354" lon="26.315454">
<ele>154.431763</ele>
<time>2010-07-18T08:59:03Z</time>
<desc>lat.=55.689354, lon.=26.315454, Alt.=154.431763m. Speed=20.016001m/h.</desc>
<speed>5.560000</speed>
</trkpt>
<trkpt lat="55.689312" lon="26.315500">
<ele>154.701294</ele>
<time>2010-07-18T08:59:04Z</time>
<desc>lat.=55.689312, lon.=26.315500, Alt.=154.701294m. Speed=19.368000m/h.</desc>
<speed>5.380000</speed>
</trkpt>
<trkpt lat="55.689266" lon="26.315550">
<ele>154.630981</ele>
<time>2010-07-18T08:59:05Z</time>
<desc>lat.=55.689266, lon.=26.315550, Alt.=154.630981m. Speed=21.204000m/h.</desc>
<speed>5.890000</speed>
</trkpt>
<trkpt lat="55.689217" lon="26.315601">
<ele>155.009888</ele>
<time>2010-07-18T08:59:06Z</time>
<desc>lat.=55.689217, lon.=26.315601, Alt.=155.009888m. Speed=20.916000m/h.</desc>
<speed>5.810000</speed>
</trkpt>
<trkpt lat="55.689175" lon="26.315647">
<ele>155.236450</ele>
<time>2010-07-18T08:59:07Z</time>
<desc>lat.=55.689175, lon.=26.315647, Alt.=155.236450m. Speed=19.403999m/h.</desc>
<speed>5.390000</speed>
</trkpt>
<trkpt lat="55.689137" lon="26.315691">
<ele>155.443481</ele>
<time>2010-07-18T08:59:08Z</time>
<desc>lat.=55.689137, lon.=26.315691, Alt.=155.443481m. Speed=18.864000m/h.</desc>
<speed>5.240000</speed>
</trkpt>
<trkpt lat="55.689095" lon="26.315733">
<ele>155.404419</ele>
<time>2010-07-18T08:59:09Z</time>
<desc>lat.=55.689095, lon.=26.315733, Alt.=155.404419m. Speed=18.216000m/h.</desc>
<speed>5.060000</speed>
</trkpt>
<trkpt lat="55.689053" lon="26.315773">
<ele>155.400513</ele>
<time>2010-07-18T08:59:10Z</time>
<desc>lat.=55.689053, lon.=26.315773, Alt.=155.400513m. Speed=17.568001m/h.</desc>
<speed>4.880000</speed>
</trkpt>
<trkpt lat="55.689014" lon="26.315813">
<ele>155.338013</ele>
<time>2010-07-18T08:59:11Z</time>
<desc>lat.=55.689014, lon.=26.315813, Alt.=155.338013m. Speed=17.136000m/h.</desc>
<speed>4.760000</speed>
</trkpt>
<trkpt lat="55.688980" lon="26.315851">
<ele>155.517700</ele>
<time>2010-07-18T08:59:12Z</time>
<desc>lat.=55.688980, lon.=26.315851, Alt.=155.517700m. Speed=16.308001m/h.</desc>
<speed>4.530000</speed>
</trkpt>
<trkpt lat="55.688942" lon="26.315893">
<ele>154.986450</ele>
<time>2010-07-18T08:59:13Z</time>
<desc>lat.=55.688942, lon.=26.315893, Alt.=154.986450m. Speed=16.308001m/h.</desc>
<speed>4.530000</speed>
</trkpt>
<trkpt lat="55.688908" lon="26.315935">
<ele>154.916138</ele>
<time>2010-07-18T08:59:14Z</time>
<desc>lat.=55.688908, lon.=26.315935, Alt.=154.916138m. Speed=16.632000m/h.</desc>
<speed>4.620000</speed>
</trkpt>
<trkpt lat="55.688873" lon="26.315973">
<ele>154.904419</ele>
<time>2010-07-18T08:59:15Z</time>
<desc>lat.=55.688873, lon.=26.315973, Alt.=154.904419m. Speed=16.416000m/h.</desc>
<speed>4.560000</speed>
</trkpt>
<trkpt lat="55.688839" lon="26.316013">
<ele>154.955200</ele>
<time>2010-07-18T08:59:16Z</time>
<desc>lat.=55.688839, lon.=26.316013, Alt.=154.955200m. Speed=17.208000m/h.</desc>
<speed>4.780000</speed>
</trkpt>
<trkpt lat="55.688801" lon="26.316053">
<ele>154.873169</ele>
<time>2010-07-18T08:59:17Z</time>
<desc>lat.=55.688801, lon.=26.316053, Alt.=154.873169m. Speed=16.884001m/h.</desc>
<speed>4.690000</speed>
</trkpt>
<trkpt lat="55.688766" lon="26.316090">
<ele>154.783325</ele>
<time>2010-07-18T08:59:18Z</time>
<desc>lat.=55.688766, lon.=26.316090, Alt.=154.783325m. Speed=16.379999m/h.</desc>
<speed>4.550000</speed>
</trkpt>
<trkpt lat="55.688736" lon="26.316120">
<ele>154.814575</ele>
<time>2010-07-18T08:59:19Z</time>
<desc>lat.=55.688736, lon.=26.316120, Alt.=154.814575m. Speed=16.128000m/h.</desc>
<speed>4.480000</speed>
</trkpt>
<trkpt lat="55.688702" lon="26.316154">
<ele>154.845825</ele>
<time>2010-07-18T08:59:20Z</time>
<desc>lat.=55.688702, lon.=26.316154, Alt.=154.845825m. Speed=16.056000m/h.</desc>
<speed>4.460000</speed>
</trkpt>
<trkpt lat="55.688671" lon="26.316189">
<ele>154.713013</ele>
<time>2010-07-18T08:59:21Z</time>
<desc>lat.=55.688671, lon.=26.316189, Alt.=154.713013m. Speed=15.264000m/h.</desc>
<speed>4.240000</speed>
</trkpt>
<trkpt lat="55.688641" lon="26.316214">
<ele>154.548950</ele>
<time>2010-07-18T08:59:22Z</time>
<desc>lat.=55.688641, lon.=26.316214, Alt.=154.548950m. Speed=14.724000m/h.</desc>
<speed>4.090000</speed>
</trkpt>
<trkpt lat="55.688606" lon="26.316244">
<ele>154.435669</ele>
<time>2010-07-18T08:59:23Z</time>
<desc>lat.=55.688606, lon.=26.316244, Alt.=154.435669m. Speed=14.400000m/h.</desc>
<speed>4.000000</speed>
</trkpt>
<trkpt lat="55.688580" lon="26.316277">
<ele>154.463013</ele>
<time>2010-07-18T08:59:24Z</time>
<desc>lat.=55.688580, lon.=26.316277, Alt.=154.463013m. Speed=14.004000m/h.</desc>
<speed>3.890000</speed>
</trkpt>
<trkpt lat="55.688549" lon="26.316299">
<ele>154.447388</ele>
<time>2010-07-18T08:59:25Z</time>
<desc>lat.=55.688549, lon.=26.316299, Alt.=154.447388m. Speed=13.536000m/h.</desc>
<speed>3.760000</speed>
</trkpt>
<trkpt lat="55.688522" lon="26.316320">
<ele>154.638794</ele>
<time>2010-07-18T08:59:26Z</time>
<desc>lat.=55.688522, lon.=26.316320, Alt.=154.638794m. Speed=13.284000m/h.</desc>
<speed>3.690000</speed>
</trkpt>
<trkpt lat="55.688496" lon="26.316339">
<ele>154.763794</ele>
<time>2010-07-18T08:59:27Z</time>
<desc>lat.=55.688496, lon.=26.316339, Alt.=154.763794m. Speed=12.672000m/h.</desc>
<speed>3.520000</speed>
</trkpt>
<trkpt lat="55.688469" lon="26.316364">
<ele>154.865356</ele>
<time>2010-07-18T08:59:28Z</time>
<desc>lat.=55.688469, lon.=26.316364, Alt.=154.865356m. Speed=12.276000m/h.</desc>
<speed>3.410000</speed>
</trkpt>
<trkpt lat="55.688442" lon="26.316389">
<ele>154.927856</ele>
<time>2010-07-18T08:59:29Z</time>
<desc>lat.=55.688442, lon.=26.316389, Alt.=154.927856m. Speed=12.024000m/h.</desc>
<speed>3.340000</speed>
</trkpt>
<trkpt lat="55.688419" lon="26.316414">
<ele>155.459106</ele>
<time>2010-07-18T08:59:30Z</time>
<desc>lat.=55.688419, lon.=26.316414, Alt.=155.459106m. Speed=11.592000m/h.</desc>
<speed>3.220000</speed>
</trkpt>
<trkpt lat="55.688393" lon="26.316441">
<ele>155.615356</ele>
<time>2010-07-18T08:59:31Z</time>
<desc>lat.=55.688393, lon.=26.316441, Alt.=155.615356m. Speed=11.304000m/h.</desc>
<speed>3.140000</speed>
</trkpt>
<trkpt lat="55.688370" lon="26.316462">
<ele>156.009888</ele>
<time>2010-07-18T08:59:32Z</time>
<desc>lat.=55.688370, lon.=26.316462, Alt.=156.009888m. Speed=10.800000m/h.</desc>
<speed>3.000000</speed>
</trkpt>
<trkpt lat="55.688347" lon="26.316477">
<ele>156.033325</ele>
<time>2010-07-18T08:59:33Z</time>
<desc>lat.=55.688347, lon.=26.316477, Alt.=156.033325m. Speed=10.332000m/h.</desc>
<speed>2.870000</speed>
</trkpt>
<trkpt lat="55.688324" lon="26.316500">
<ele>156.295044</ele>
<time>2010-07-18T08:59:34Z</time>
<desc>lat.=55.688324, lon.=26.316500, Alt.=156.295044m. Speed=10.296000m/h.</desc>
<speed>2.860000</speed>
</trkpt>
<trkpt lat="55.688301" lon="26.316528">
<ele>156.220825</ele>
<time>2010-07-18T08:59:35Z</time>
<desc>lat.=55.688301, lon.=26.316528, Alt.=156.220825m. Speed=9.756000m/h.</desc>
<speed>2.710000</speed>
</trkpt>
<trkpt lat="55.688278" lon="26.316561">
<ele>156.322388</ele>
<time>2010-07-18T08:59:36Z</time>
<desc>lat.=55.688278, lon.=26.316561, Alt.=156.322388m. Speed=11.700000m/h.</desc>
<speed>3.250000</speed>
</trkpt>
<trkpt lat="55.688255" lon="26.316591">
<ele>156.498169</ele>
<time>2010-07-18T08:59:37Z</time>
<desc>lat.=55.688255, lon.=26.316591, Alt.=156.498169m. Speed=11.988000m/h.</desc>
<speed>3.330000</speed>
</trkpt>
<trkpt lat="55.688229" lon="26.316624">
<ele>156.755981</ele>
<time>2010-07-18T08:59:38Z</time>
<desc>lat.=55.688229, lon.=26.316624, Alt.=156.755981m. Speed=13.536000m/h.</desc>
<speed>3.760000</speed>
</trkpt>
<trkpt lat="55.688198" lon="26.316660">
<ele>157.052856</ele>
<time>2010-07-18T08:59:39Z</time>
<desc>lat.=55.688198, lon.=26.316660, Alt.=157.052856m. Speed=14.220000m/h.</desc>
<speed>3.950000</speed>
</trkpt>
<trkpt lat="55.688164" lon="26.316692">
<ele>157.427856</ele>
<time>2010-07-18T08:59:40Z</time>
<desc>lat.=55.688164, lon.=26.316692, Alt.=157.427856m. Speed=15.228000m/h.</desc>
<speed>4.230000</speed>
</trkpt>
<trkpt lat="55.688129" lon="26.316736">
<ele>157.185669</ele>
<time>2010-07-18T08:59:41Z</time>
<desc>lat.=55.688129, lon.=26.316736, Alt.=157.185669m. Speed=15.876000m/h.</desc>
<speed>4.410000</speed>
</trkpt>
<trkpt lat="55.688095" lon="26.316774">
<ele>157.259888</ele>
<time>2010-07-18T08:59:42Z</time>
<desc>lat.=55.688095, lon.=26.316774, Alt.=157.259888m. Speed=16.775999m/h.</desc>
<speed>4.660000</speed>
</trkpt>
<trkpt lat="55.688053" lon="26.316814">
<ele>157.271606</ele>
<time>2010-07-18T08:59:43Z</time>
<desc>lat.=55.688053, lon.=26.316814, Alt.=157.271606m. Speed=17.388000m/h.</desc>
<speed>4.830000</speed>
</trkpt>
<trkpt lat="55.688011" lon="26.316854">
<ele>157.365356</ele>
<time>2010-07-18T08:59:44Z</time>
<desc>lat.=55.688011, lon.=26.316854, Alt.=157.365356m. Speed=18.035999m/h.</desc>
<speed>5.010000</speed>
</trkpt>
<trkpt lat="55.687973" lon="26.316893">
<ele>157.755981</ele>
<time>2010-07-18T08:59:45Z</time>
<desc>lat.=55.687973, lon.=26.316893, Alt.=157.755981m. Speed=18.504000m/h.</desc>
<speed>5.140000</speed>
</trkpt>
<trkpt lat="55.687935" lon="26.316931">
<ele>158.275513</ele>
<time>2010-07-18T08:59:46Z</time>
<desc>lat.=55.687935, lon.=26.316931, Alt.=158.275513m. Speed=17.388000m/h.</desc>
<speed>4.830000</speed>
</trkpt>
<trkpt lat="55.687901" lon="26.316973">
<ele>158.900513</ele>
<time>2010-07-18T08:59:47Z</time>
<desc>lat.=55.687901, lon.=26.316973, Alt.=158.900513m. Speed=16.596001m/h.</desc>
<speed>4.610000</speed>
</trkpt>
<trkpt lat="55.687866" lon="26.317013">
<ele>159.205200</ele>
<time>2010-07-18T08:59:48Z</time>
<desc>lat.=55.687866, lon.=26.317013, Alt.=159.205200m. Speed=15.156000m/h.</desc>
<speed>4.210000</speed>
</trkpt>
<trkpt lat="55.687828" lon="26.317045">
<ele>159.302856</ele>
<time>2010-07-18T08:59:49Z</time>
<desc>lat.=55.687828, lon.=26.317045, Alt.=159.302856m. Speed=14.760000m/h.</desc>
<speed>4.100000</speed>
</trkpt>
<trkpt lat="55.687798" lon="26.317076">
<ele>159.955200</ele>
<time>2010-07-18T08:59:50Z</time>
<desc>lat.=55.687798, lon.=26.317076, Alt.=159.955200m. Speed=14.076000m/h.</desc>
<speed>3.910000</speed>
</trkpt>
<trkpt lat="55.687771" lon="26.317110">
<ele>160.240356</ele>
<time>2010-07-18T08:59:51Z</time>
<desc>lat.=55.687771, lon.=26.317110, Alt.=160.240356m. Speed=12.924000m/h.</desc>
<speed>3.590000</speed>
</trkpt>
<trkpt lat="55.687740" lon="26.317148">
<ele>160.224731</ele>
<time>2010-07-18T08:59:52Z</time>
<desc>lat.=55.687740, lon.=26.317148, Alt.=160.224731m. Speed=12.924000m/h.</desc>
<speed>3.590000</speed>
</trkpt>
<trkpt lat="55.687706" lon="26.317177">
<ele>159.841919</ele>
<time>2010-07-18T08:59:53Z</time>
<desc>lat.=55.687706, lon.=26.317177, Alt.=159.841919m. Speed=14.112000m/h.</desc>
<speed>3.920000</speed>
</trkpt>
<trkpt lat="55.687664" lon="26.317198">
<ele>159.791138</ele>
<time>2010-07-18T08:59:54Z</time>
<desc>lat.=55.687664, lon.=26.317198, Alt.=159.791138m. Speed=15.624000m/h.</desc>
<speed>4.340000</speed>
</trkpt>
<trkpt lat="55.687634" lon="26.317230">
<ele>160.111450</ele>
<time>2010-07-18T08:59:55Z</time>
<desc>lat.=55.687634, lon.=26.317230, Alt.=160.111450m. Speed=15.804000m/h.</desc>
<speed>4.390000</speed>
</trkpt>
<trkpt lat="55.687599" lon="26.317263">
<ele>160.130981</ele>
<time>2010-07-18T08:59:56Z</time>
<desc>lat.=55.687599, lon.=26.317263, Alt.=160.130981m. Speed=15.264000m/h.</desc>
<speed>4.240000</speed>
</trkpt>
<trkpt lat="55.687569" lon="26.317299">
<ele>160.017700</ele>
<time>2010-07-18T08:59:57Z</time>
<desc>lat.=55.687569, lon.=26.317299, Alt.=160.017700m. Speed=15.624000m/h.</desc>
<speed>4.340000</speed>
</trkpt>
<trkpt lat="55.687534" lon="26.317329">
<ele>160.326294</ele>
<time>2010-07-18T08:59:58Z</time>
<desc>lat.=55.687534, lon.=26.317329, Alt.=160.326294m. Speed=16.452000m/h.</desc>
<speed>4.570000</speed>
</trkpt>
<trkpt lat="55.687500" lon="26.317362">
<ele>160.443481</ele>
<time>2010-07-18T08:59:59Z</time>
<desc>lat.=55.687500, lon.=26.317362, Alt.=160.443481m. Speed=16.884001m/h.</desc>
<speed>4.690000</speed>
</trkpt>
<trkpt lat="55.687458" lon="26.317398">
<ele>160.314575</ele>
<time>2010-07-18T09:00:00Z</time>
<desc>lat.=55.687458, lon.=26.317398, Alt.=160.314575m. Speed=15.660000m/h.</desc>
<speed>4.350000</speed>
</trkpt>
<trkpt lat="55.687428" lon="26.317432">
<ele>160.205200</ele>
<time>2010-07-18T09:00:01Z</time>
<desc>lat.=55.687428, lon.=26.317432, Alt.=160.205200m. Speed=16.200001m/h.</desc>
<speed>4.500000</speed>
</trkpt>
<trkpt lat="55.687389" lon="26.317474">
<ele>160.263794</ele>
<time>2010-07-18T09:00:02Z</time>
<desc>lat.=55.687389, lon.=26.317474, Alt.=160.263794m. Speed=18.180000m/h.</desc>
<speed>5.050000</speed>
</trkpt>
<trkpt lat="55.687347" lon="26.317516">
<ele>160.091919</ele>
<time>2010-07-18T09:00:03Z</time>
<desc>lat.=55.687347, lon.=26.317516, Alt.=160.091919m. Speed=18.252001m/h.</desc>
<speed>5.070000</speed>
</trkpt>
<trkpt lat="55.687309" lon="26.317558">
<ele>160.115356</ele>
<time>2010-07-18T09:00:04Z</time>
<desc>lat.=55.687309, lon.=26.317558, Alt.=160.115356m. Speed=17.496000m/h.</desc>
<speed>4.860000</speed>
</trkpt>
<trkpt lat="55.687275" lon="26.317596">
<ele>160.310669</ele>
<time>2010-07-18T09:00:05Z</time>
<desc>lat.=55.687275, lon.=26.317596, Alt.=160.310669m. Speed=17.028000m/h.</desc>
<speed>4.730000</speed>
</trkpt>
<trkpt lat="55.687237" lon="26.317633">
<ele>160.431763</ele>
<time>2010-07-18T09:00:06Z</time>
<desc>lat.=55.687237, lon.=26.317633, Alt.=160.431763m. Speed=16.416000m/h.</desc>
<speed>4.560000</speed>
</trkpt>
<trkpt lat="55.687202" lon="26.317669">
<ele>160.463013</ele>
<time>2010-07-18T09:00:07Z</time>
<desc>lat.=55.687202, lon.=26.317669, Alt.=160.463013m. Speed=15.552000m/h.</desc>
<speed>4.320000</speed>
</trkpt>
<trkpt lat="55.687168" lon="26.317707">
<ele>160.345825</ele>
<time>2010-07-18T09:00:08Z</time>
<desc>lat.=55.687168, lon.=26.317707, Alt.=160.345825m. Speed=15.480000m/h.</desc>
<speed>4.300000</speed>
</trkpt>
<trkpt lat="55.687138" lon="26.317743">
<ele>160.322388</ele>
<time>2010-07-18T09:00:09Z</time>
<desc>lat.=55.687138, lon.=26.317743, Alt.=160.322388m. Speed=14.616000m/h.</desc>
<speed>4.060000</speed>
</trkpt>
<trkpt lat="55.687107" lon="26.317776">
<ele>160.326294</ele>
<time>2010-07-18T09:00:10Z</time>
<desc>lat.=55.687107, lon.=26.317776, Alt.=160.326294m. Speed=14.040000m/h.</desc>
<speed>3.900000</speed>
</trkpt>
<trkpt lat="55.687077" lon="26.317806">
<ele>160.513794</ele>
<time>2010-07-18T09:00:11Z</time>
<desc>lat.=55.687077, lon.=26.317806, Alt.=160.513794m. Speed=13.608000m/h.</desc>
<speed>3.780000</speed>
</trkpt>
<trkpt lat="55.687046" lon="26.317839">
<ele>160.529419</ele>
<time>2010-07-18T09:00:12Z</time>
<desc>lat.=55.687046, lon.=26.317839, Alt.=160.529419m. Speed=14.292000m/h.</desc>
<speed>3.970000</speed>
</trkpt>
<trkpt lat="55.687012" lon="26.317871">
<ele>160.787231</ele>
<time>2010-07-18T09:00:13Z</time>
<desc>lat.=55.687012, lon.=26.317871, Alt.=160.787231m. Speed=14.832000m/h.</desc>
<speed>4.120000</speed>
</trkpt>
<trkpt lat="55.686977" lon="26.317907">
<ele>161.045044</ele>
<time>2010-07-18T09:00:14Z</time>
<desc>lat.=55.686977, lon.=26.317907, Alt.=161.045044m. Speed=15.696000m/h.</desc>
<speed>4.360000</speed>
</trkpt>
<trkpt lat="55.686943" lon="26.317947">
<ele>161.529419</ele>
<time>2010-07-18T09:00:15Z</time>
<desc>lat.=55.686943, lon.=26.317947, Alt.=161.529419m. Speed=16.308001m/h.</desc>
<speed>4.530000</speed>
</trkpt>
<trkpt lat="55.686909" lon="26.317986">
<ele>161.779419</ele>
<time>2010-07-18T09:00:16Z</time>
<desc>lat.=55.686909, lon.=26.317986, Alt.=161.779419m. Speed=16.667999m/h.</desc>
<speed>4.630000</speed>
</trkpt>
<trkpt lat="55.686874" lon="26.318020">
<ele>162.263794</ele>
<time>2010-07-18T09:00:17Z</time>
<desc>lat.=55.686874, lon.=26.318020, Alt.=162.263794m. Speed=16.667999m/h.</desc>
<speed>4.630000</speed>
</trkpt>
<trkpt lat="55.686840" lon="26.318052">
<ele>163.005981</ele>
<time>2010-07-18T09:00:18Z</time>
<desc>lat.=55.686840, lon.=26.318052, Alt.=163.005981m. Speed=16.667999m/h.</desc>
<speed>4.630000</speed>
</trkpt>
<trkpt lat="55.686802" lon="26.318087">
<ele>163.298950</ele>
<time>2010-07-18T09:00:19Z</time>
<desc>lat.=55.686802, lon.=26.318087, Alt.=163.298950m. Speed=16.848000m/h.</desc>
<speed>4.680000</speed>
</trkpt>
<trkpt lat="55.686768" lon="26.318119">
<ele>164.209106</ele>
<time>2010-07-18T09:00:20Z</time>
<desc>lat.=55.686768, lon.=26.318119, Alt.=164.209106m. Speed=16.128000m/h.</desc>
<speed>4.480000</speed>
</trkpt>
<trkpt lat="55.686729" lon="26.318157">
<ele>164.740356</ele>
<time>2010-07-18T09:00:21Z</time>
<desc>lat.=55.686729, lon.=26.318157, Alt.=164.740356m. Speed=15.840000m/h.</desc>
<speed>4.400000</speed>
</trkpt>
<trkpt lat="55.686687" lon="26.318207">
<ele>164.627075</ele>
<time>2010-07-18T09:00:22Z</time>
<desc>lat.=55.686687, lon.=26.318207, Alt.=164.627075m. Speed=16.740000m/h.</desc>
<speed>4.650000</speed>
</trkpt>
<trkpt lat="55.686653" lon="26.318243">
<ele>165.064575</ele>
<time>2010-07-18T09:00:23Z</time>
<desc>lat.=55.686653, lon.=26.318243, Alt.=165.064575m. Speed=16.308001m/h.</desc>
<speed>4.530000</speed>
</trkpt>
<trkpt lat="55.686615" lon="26.318277">
<ele>165.463013</ele>
<time>2010-07-18T09:00:24Z</time>
<desc>lat.=55.686615, lon.=26.318277, Alt.=165.463013m. Speed=16.128000m/h.</desc>
<speed>4.480000</speed>
</trkpt>
<trkpt lat="55.686577" lon="26.318312">
<ele>166.064575</ele>
<time>2010-07-18T09:00:25Z</time>
<desc>lat.=55.686577, lon.=26.318312, Alt.=166.064575m. Speed=16.236000m/h.</desc>
<speed>4.510000</speed>
</trkpt>
<trkpt lat="55.686543" lon="26.318348">
<ele>166.396606</ele>
<time>2010-07-18T09:00:26Z</time>
<desc>lat.=55.686543, lon.=26.318348, Alt.=166.396606m. Speed=16.164000m/h.</desc>
<speed>4.490000</speed>
</trkpt>
<trkpt lat="55.686508" lon="26.318382">
<ele>166.670044</ele>
<time>2010-07-18T09:00:27Z</time>
<desc>lat.=55.686508, lon.=26.318382, Alt.=166.670044m. Speed=16.128000m/h.</desc>
<speed>4.480000</speed>
</trkpt>
<trkpt lat="55.686474" lon="26.318420">
<ele>167.142700</ele>
<time>2010-07-18T09:00:28Z</time>
<desc>lat.=55.686474, lon.=26.318420, Alt.=167.142700m. Speed=16.344000m/h.</desc>
<speed>4.540000</speed>
</trkpt>
<trkpt lat="55.686447" lon="26.318466">
<ele>168.166138</ele>
<time>2010-07-18T09:00:29Z</time>
<desc>lat.=55.686447, lon.=26.318466, Alt.=168.166138m. Speed=15.444000m/h.</desc>
<speed>4.290000</speed>
</trkpt>
<trkpt lat="55.686413" lon="26.318506">
<ele>168.275513</ele>
<time>2010-07-18T09:00:30Z</time>
<desc>lat.=55.686413, lon.=26.318506, Alt.=168.275513m. Speed=14.544000m/h.</desc>
<speed>4.040000</speed>
</trkpt>
<trkpt lat="55.686378" lon="26.318541">
<ele>167.443481</ele>
<time>2010-07-18T09:00:31Z</time>
<desc>lat.=55.686378, lon.=26.318541, Alt.=167.443481m. Speed=14.940000m/h.</desc>
<speed>4.150000</speed>
</trkpt>
<trkpt lat="55.686344" lon="26.318571">
<ele>167.810669</ele>
<time>2010-07-18T09:00:32Z</time>
<desc>lat.=55.686344, lon.=26.318571, Alt.=167.810669m. Speed=15.912000m/h.</desc>
<speed>4.420000</speed>
</trkpt>
<trkpt lat="55.686310" lon="26.318609">
<ele>168.103638</ele>
<time>2010-07-18T09:00:33Z</time>
<desc>lat.=55.686310, lon.=26.318609, Alt.=168.103638m. Speed=16.271999m/h.</desc>
<speed>4.520000</speed>
</trkpt>
<trkpt lat="55.686275" lon="26.318647">
<ele>168.404419</ele>
<time>2010-07-18T09:00:34Z</time>
<desc>lat.=55.686275, lon.=26.318647, Alt.=168.404419m. Speed=16.416000m/h.</desc>
<speed>4.560000</speed>
</trkpt>
<trkpt lat="55.686241" lon="26.318684">
<ele>169.267700</ele>
<time>2010-07-18T09:00:35Z</time>
<desc>lat.=55.686241, lon.=26.318684, Alt.=169.267700m. Speed=16.020000m/h.</desc>
<speed>4.450000</speed>
</trkpt>
<trkpt lat="55.686207" lon="26.318727">
<ele>169.088013</ele>
<time>2010-07-18T09:00:36Z</time>
<desc>lat.=55.686207, lon.=26.318727, Alt.=169.088013m. Speed=16.236000m/h.</desc>
<speed>4.510000</speed>
</trkpt>
<trkpt lat="55.686165" lon="26.318769">
<ele>168.068481</ele>
<time>2010-07-18T09:00:37Z</time>
<desc>lat.=55.686165, lon.=26.318769, Alt.=168.068481m. Speed=16.667999m/h.</desc>
<speed>4.630000</speed>
</trkpt>
<trkpt lat="55.686127" lon="26.318815">
<ele>168.380981</ele>
<time>2010-07-18T09:00:38Z</time>
<desc>lat.=55.686127, lon.=26.318815, Alt.=168.380981m. Speed=18.108000m/h.</desc>
<speed>5.030000</speed>
</trkpt>
<trkpt lat="55.686096" lon="26.318857">
<ele>168.873169</ele>
<time>2010-07-18T09:00:39Z</time>
<desc>lat.=55.686096, lon.=26.318857, Alt.=168.873169m. Speed=17.856001m/h.</desc>
<speed>4.960000</speed>
</trkpt>
<trkpt lat="55.686062" lon="26.318888">
<ele>169.494263</ele>
<time>2010-07-18T09:00:40Z</time>
<desc>lat.=55.686062, lon.=26.318888, Alt.=169.494263m. Speed=16.344000m/h.</desc>
<speed>4.540000</speed>
</trkpt>
<trkpt lat="55.686024" lon="26.318924">
<ele>169.166138</ele>
<time>2010-07-18T09:00:41Z</time>
<desc>lat.=55.686024, lon.=26.318924, Alt.=169.166138m. Speed=18.323999m/h.</desc>
<speed>5.090000</speed>
</trkpt>
<trkpt lat="55.685989" lon="26.318958">
<ele>169.306763</ele>
<time>2010-07-18T09:00:42Z</time>
<desc>lat.=55.685989, lon.=26.318958, Alt.=169.306763m. Speed=15.768000m/h.</desc>
<speed>4.380000</speed>
</trkpt>
<trkpt lat="55.685959" lon="26.318995">
<ele>169.154419</ele>
<time>2010-07-18T09:00:43Z</time>
<desc>lat.=55.685959, lon.=26.318995, Alt.=169.154419m. Speed=14.364000m/h.</desc>
<speed>3.990000</speed>
</trkpt>
<trkpt lat="55.685932" lon="26.319023">
<ele>169.416138</ele>
<time>2010-07-18T09:00:44Z</time>
<desc>lat.=55.685932, lon.=26.319023, Alt.=169.416138m. Speed=14.004000m/h.</desc>
<speed>3.890000</speed>
</trkpt>
<trkpt lat="55.685902" lon="26.319052">
<ele>169.982544</ele>
<time>2010-07-18T09:00:45Z</time>
<desc>lat.=55.685902, lon.=26.319052, Alt.=169.982544m. Speed=15.048000m/h.</desc>
<speed>4.180000</speed>
</trkpt>
<trkpt lat="55.685867" lon="26.319092">
<ele>170.068481</ele>
<time>2010-07-18T09:00:46Z</time>
<desc>lat.=55.685867, lon.=26.319092, Alt.=170.068481m. Speed=16.200001m/h.</desc>
<speed>4.500000</speed>
</trkpt>
<trkpt lat="55.685833" lon="26.319128">
<ele>170.189575</ele>
<time>2010-07-18T09:00:47Z</time>
<desc>lat.=55.685833, lon.=26.319128, Alt.=170.189575m. Speed=16.524000m/h.</desc>
<speed>4.590000</speed>
</trkpt>
<trkpt lat="55.685799" lon="26.319166">
<ele>169.908325</ele>
<time>2010-07-18T09:00:48Z</time>
<desc>lat.=55.685799, lon.=26.319166, Alt.=169.908325m. Speed=16.955999m/h.</desc>
<speed>4.710000</speed>
</trkpt>
<trkpt lat="55.685764" lon="26.319199">
<ele>170.080200</ele>
<time>2010-07-18T09:00:49Z</time>
<desc>lat.=55.685764, lon.=26.319199, Alt.=170.080200m. Speed=16.416000m/h.</desc>
<speed>4.560000</speed>
</trkpt>
<trkpt lat="55.685730" lon="26.319221">
<ele>171.162231</ele>
<time>2010-07-18T09:00:50Z</time>
<desc>lat.=55.685730, lon.=26.319221, Alt.=171.162231m. Speed=15.660000m/h.</desc>
<speed>4.350000</speed>
</trkpt>
<trkpt lat="55.685699" lon="26.319252">
<ele>170.955200</ele>
<time>2010-07-18T09:00:51Z</time>
<desc>lat.=55.685699, lon.=26.319252, Alt.=170.955200m. Speed=12.960000m/h.</desc>
<speed>3.600000</speed>
</trkpt>
<trkpt lat="55.685669" lon="26.319279">
<ele>170.908325</ele>
<time>2010-07-18T09:00:52Z</time>
<desc>lat.=55.685669, lon.=26.319279, Alt.=170.908325m. Speed=13.068000m/h.</desc>
<speed>3.630000</speed>
</trkpt>
<trkpt lat="55.685646" lon="26.319305">
<ele>170.537231</ele>
<time>2010-07-18T09:00:53Z</time>
<desc>lat.=55.685646, lon.=26.319305, Alt.=170.537231m. Speed=11.196000m/h.</desc>
<speed>3.110000</speed>
</trkpt>
<trkpt lat="55.685619" lon="26.319340">
<ele>168.744263</ele>
<time>2010-07-18T09:00:54Z</time>
<desc>lat.=55.685619, lon.=26.319340, Alt.=168.744263m. Speed=11.196000m/h.</desc>
<speed>3.110000</speed>
</trkpt>
<trkpt lat="55.685593" lon="26.319366">
<ele>168.470825</ele>
<time>2010-07-18T09:00:55Z</time>
<desc>lat.=55.685593, lon.=26.319366, Alt.=168.470825m. Speed=11.808000m/h.</desc>
<speed>3.280000</speed>
</trkpt>
<trkpt lat="55.685566" lon="26.319387">
<ele>168.642700</ele>
<time>2010-07-18T09:00:56Z</time>
<desc>lat.=55.685566, lon.=26.319387, Alt.=168.642700m. Speed=11.664000m/h.</desc>
<speed>3.240000</speed>
</trkpt>
<trkpt lat="55.685539" lon="26.319405">
<ele>168.861450</ele>
<time>2010-07-18T09:00:57Z</time>
<desc>lat.=55.685539, lon.=26.319405, Alt.=168.861450m. Speed=12.492000m/h.</desc>
<speed>3.470000</speed>
</trkpt>
<trkpt lat="55.685513" lon="26.319431">
<ele>168.920044</ele>
<time>2010-07-18T09:00:58Z</time>
<desc>lat.=55.685513, lon.=26.319431, Alt.=168.920044m. Speed=12.528000m/h.</desc>
<speed>3.480000</speed>
</trkpt>
<trkpt lat="55.685486" lon="26.319460">
<ele>168.775513</ele>
<time>2010-07-18T09:00:59Z</time>
<desc>lat.=55.685486, lon.=26.319460, Alt.=168.775513m. Speed=13.176000m/h.</desc>
<speed>3.660000</speed>
</trkpt>
<trkpt lat="55.685452" lon="26.319485">
<ele>168.841919</ele>
<time>2010-07-18T09:01:00Z</time>
<desc>lat.=55.685452, lon.=26.319485, Alt.=168.841919m. Speed=13.788000m/h.</desc>
<speed>3.830000</speed>
</trkpt>
<trkpt lat="55.685421" lon="26.319504">
<ele>168.904419</ele>
<time>2010-07-18T09:01:01Z</time>
<desc>lat.=55.685421, lon.=26.319504, Alt.=168.904419m. Speed=11.772000m/h.</desc>
<speed>3.270000</speed>
</trkpt>
<trkpt lat="55.685394" lon="26.319521">
<ele>168.908325</ele>
<time>2010-07-18T09:01:02Z</time>
<desc>lat.=55.685394, lon.=26.319521, Alt.=168.908325m. Speed=11.088000m/h.</desc>
<speed>3.080000</speed>
</trkpt>
<trkpt lat="55.685371" lon="26.319538">
<ele>169.138794</ele>
<time>2010-07-18T09:01:03Z</time>
<desc>lat.=55.685371, lon.=26.319538, Alt.=169.138794m. Speed=9.828000m/h.</desc>
<speed>2.730000</speed>
</trkpt>
<trkpt lat="55.685352" lon="26.319563">
<ele>169.384888</ele>
<time>2010-07-18T09:01:04Z</time>
<desc>lat.=55.685352, lon.=26.319563, Alt.=169.384888m. Speed=10.692000m/h.</desc>
<speed>2.970000</speed>
</trkpt>
<trkpt lat="55.685329" lon="26.319580">
<ele>169.681763</ele>
<time>2010-07-18T09:01:05Z</time>
<desc>lat.=55.685329, lon.=26.319580, Alt.=169.681763m. Speed=10.224000m/h.</desc>
<speed>2.840000</speed>
</trkpt>
<trkpt lat="55.685299" lon="26.319605">
<ele>169.787231</ele>
<time>2010-07-18T09:01:06Z</time>
<desc>lat.=55.685299, lon.=26.319605, Alt.=169.787231m. Speed=11.412000m/h.</desc>
<speed>3.170000</speed>
</trkpt>
<trkpt lat="55.685276" lon="26.319624">
<ele>170.736450</ele>
<time>2010-07-18T09:01:07Z</time>
<desc>lat.=55.685276, lon.=26.319624, Alt.=170.736450m. Speed=11.664000m/h.</desc>
<speed>3.240000</speed>
</trkpt>
<trkpt lat="55.685253" lon="26.319641">
<ele>170.998169</ele>
<time>2010-07-18T09:01:08Z</time>
<desc>lat.=55.685253, lon.=26.319641, Alt.=170.998169m. Speed=11.736000m/h.</desc>
<speed>3.260000</speed>
</trkpt>
<trkpt lat="55.685226" lon="26.319660">
<ele>171.279419</ele>
<time>2010-07-18T09:01:09Z</time>
<desc>lat.=55.685226, lon.=26.319660, Alt.=171.279419m. Speed=11.556000m/h.</desc>
<speed>3.210000</speed>
</trkpt>
<trkpt lat="55.685196" lon="26.319681">
<ele>169.857544</ele>
<time>2010-07-18T09:01:10Z</time>
<desc>lat.=55.685196, lon.=26.319681, Alt.=169.857544m. Speed=12.312000m/h.</desc>
<speed>3.420000</speed>
</trkpt>
<trkpt lat="55.685169" lon="26.319710">
<ele>169.716919</ele>
<time>2010-07-18T09:01:11Z</time>
<desc>lat.=55.685169, lon.=26.319710, Alt.=169.716919m. Speed=12.528000m/h.</desc>
<speed>3.480000</speed>
</trkpt>
<trkpt lat="55.685150" lon="26.319735">
<ele>171.138794</ele>
<time>2010-07-18T09:01:12Z</time>
<desc>lat.=55.685150, lon.=26.319735, Alt.=171.138794m. Speed=12.276000m/h.</desc>
<speed>3.410000</speed>
</trkpt>
<trkpt lat="55.685112" lon="26.319754">
<ele>170.002075</ele>
<time>2010-07-18T09:01:13Z</time>
<desc>lat.=55.685112, lon.=26.319754, Alt.=170.002075m. Speed=12.744000m/h.</desc>
<speed>3.540000</speed>
</trkpt>
<trkpt lat="55.685089" lon="26.319775">
<ele>171.201294</ele>
<time>2010-07-18T09:01:14Z</time>
<desc>lat.=55.685089, lon.=26.319775, Alt.=171.201294m. Speed=12.312000m/h.</desc>
<speed>3.420000</speed>
</trkpt>
<trkpt lat="55.685062" lon="26.319798">
<ele>171.720825</ele>
<time>2010-07-18T09:01:15Z</time>
<desc>lat.=55.685062, lon.=26.319798, Alt.=171.720825m. Speed=12.780000m/h.</desc>
<speed>3.550000</speed>
</trkpt>
<trkpt lat="55.685036" lon="26.319826">
<ele>171.619263</ele>
<time>2010-07-18T09:01:16Z</time>
<desc>lat.=55.685036, lon.=26.319826, Alt.=171.619263m. Speed=12.708000m/h.</desc>
<speed>3.530000</speed>
</trkpt>
<trkpt lat="55.685009" lon="26.319857">
<ele>171.791138</ele>
<time>2010-07-18T09:01:17Z</time>
<desc>lat.=55.685009, lon.=26.319857, Alt.=171.791138m. Speed=12.924000m/h.</desc>
<speed>3.590000</speed>
</trkpt>
<trkpt lat="55.684978" lon="26.319878">
<ele>172.334106</ele>
<time>2010-07-18T09:01:18Z</time>
<desc>lat.=55.684978, lon.=26.319878, Alt.=172.334106m. Speed=13.752000m/h.</desc>
<speed>3.820000</speed>
</trkpt>
<trkpt lat="55.684944" lon="26.319901">
<ele>172.166138</ele>
<time>2010-07-18T09:01:19Z</time>
<desc>lat.=55.684944, lon.=26.319901, Alt.=172.166138m. Speed=13.572000m/h.</desc>
<speed>3.770000</speed>
</trkpt>
<trkpt lat="55.684914" lon="26.319923">
<ele>172.623169</ele>
<time>2010-07-18T09:01:20Z</time>
<desc>lat.=55.684914, lon.=26.319923, Alt.=172.623169m. Speed=14.256000m/h.</desc>
<speed>3.960000</speed>
</trkpt>
<trkpt lat="55.684875" lon="26.319956">
<ele>169.607544</ele>
<time>2010-07-18T09:01:21Z</time>
<desc>lat.=55.684875, lon.=26.319956, Alt.=169.607544m. Speed=14.184000m/h.</desc>
<speed>3.940000</speed>
</trkpt>
<trkpt lat="55.684849" lon="26.319981">
<ele>170.310669</ele>
<time>2010-07-18T09:01:22Z</time>
<desc>lat.=55.684849, lon.=26.319981, Alt.=170.310669m. Speed=13.824000m/h.</desc>
<speed>3.840000</speed>
</trkpt>
<trkpt lat="55.684814" lon="26.320009">
<ele>169.943481</ele>
<time>2010-07-18T09:01:23Z</time>
<desc>lat.=55.684814, lon.=26.320009, Alt.=169.943481m. Speed=14.436000m/h.</desc>
<speed>4.010000</speed>
</trkpt>
<trkpt lat="55.684784" lon="26.320038">
<ele>169.591919</ele>
<time>2010-07-18T09:01:24Z</time>
<desc>lat.=55.684784, lon.=26.320038, Alt.=169.591919m. Speed=15.516000m/h.</desc>
<speed>4.310000</speed>
</trkpt>
<trkpt lat="55.684753" lon="26.320068">
<ele>170.029419</ele>
<time>2010-07-18T09:01:25Z</time>
<desc>lat.=55.684753, lon.=26.320068, Alt.=170.029419m. Speed=15.732000m/h.</desc>
<speed>4.370000</speed>
</trkpt>
<trkpt lat="55.684719" lon="26.320095">
<ele>171.142700</ele>
<time>2010-07-18T09:01:26Z</time>
<desc>lat.=55.684719, lon.=26.320095, Alt.=171.142700m. Speed=16.164000m/h.</desc>
<speed>4.490000</speed>
</trkpt>
<trkpt lat="55.684685" lon="26.320131">
<ele>170.939575</ele>
<time>2010-07-18T09:01:27Z</time>
<desc>lat.=55.684685, lon.=26.320131, Alt.=170.939575m. Speed=16.667999m/h.</desc>
<speed>4.630000</speed>
</trkpt>
<trkpt lat="55.684643" lon="26.320160">
<ele>170.584106</ele>
<time>2010-07-18T09:01:28Z</time>
<desc>lat.=55.684643, lon.=26.320160, Alt.=170.584106m. Speed=17.351999m/h.</desc>
<speed>4.820000</speed>
</trkpt>
<trkpt lat="55.684597" lon="26.320192">
<ele>170.318481</ele>
<time>2010-07-18T09:01:29Z</time>
<desc>lat.=55.684597, lon.=26.320192, Alt.=170.318481m. Speed=18.252001m/h.</desc>
<speed>5.070000</speed>
</trkpt>
<trkpt lat="55.684555" lon="26.320225">
<ele>170.056763</ele>
<time>2010-07-18T09:01:30Z</time>
<desc>lat.=55.684555, lon.=26.320225, Alt.=170.056763m. Speed=18.540001m/h.</desc>
<speed>5.150000</speed>
</trkpt>
<trkpt lat="55.684509" lon="26.320263">
<ele>170.115356</ele>
<time>2010-07-18T09:01:31Z</time>
<desc>lat.=55.684509, lon.=26.320263, Alt.=170.115356m. Speed=18.252001m/h.</desc>
<speed>5.070000</speed>
</trkpt>
<trkpt lat="55.684467" lon="26.320290">
<ele>170.279419</ele>
<time>2010-07-18T09:01:32Z</time>
<desc>lat.=55.684467, lon.=26.320290, Alt.=170.279419m. Speed=17.784000m/h.</desc>
<speed>4.940000</speed>
</trkpt>
<trkpt lat="55.684429" lon="26.320316">
<ele>170.396606</ele>
<time>2010-07-18T09:01:33Z</time>
<desc>lat.=55.684429, lon.=26.320316, Alt.=170.396606m. Speed=16.992001m/h.</desc>
<speed>4.720000</speed>
</trkpt>
<trkpt lat="55.684387" lon="26.320349">
<ele>170.017700</ele>
<time>2010-07-18T09:01:34Z</time>
<desc>lat.=55.684387, lon.=26.320349, Alt.=170.017700m. Speed=16.884001m/h.</desc>
<speed>4.690000</speed>
</trkpt>
<trkpt lat="55.684349" lon="26.320377">
<ele>169.646606</ele>
<time>2010-07-18T09:01:35Z</time>
<desc>lat.=55.684349, lon.=26.320377, Alt.=169.646606m. Speed=16.344000m/h.</desc>
<speed>4.540000</speed>
</trkpt>
<trkpt lat="55.684315" lon="26.320408">
<ele>169.849731</ele>
<time>2010-07-18T09:01:36Z</time>
<desc>lat.=55.684315, lon.=26.320408, Alt.=169.849731m. Speed=16.020000m/h.</desc>
<speed>4.450000</speed>
</trkpt>
<trkpt lat="55.684277" lon="26.320435">
<ele>169.607544</ele>
<time>2010-07-18T09:01:37Z</time>
<desc>lat.=55.684277, lon.=26.320435, Alt.=169.607544m. Speed=15.372000m/h.</desc>
<speed>4.270000</speed>
</trkpt>
<trkpt lat="55.684242" lon="26.320467">
<ele>169.420044</ele>
<time>2010-07-18T09:01:38Z</time>
<desc>lat.=55.684242, lon.=26.320467, Alt.=169.420044m. Speed=15.840000m/h.</desc>
<speed>4.400000</speed>
</trkpt>
<trkpt lat="55.684204" lon="26.320501">
<ele>169.552856</ele>
<time>2010-07-18T09:01:39Z</time>
<desc>lat.=55.684204, lon.=26.320501, Alt.=169.552856m. Speed=16.452000m/h.</desc>
<speed>4.570000</speed>
</trkpt>
<trkpt lat="55.684166" lon="26.320528">
<ele>169.482544</ele>
<time>2010-07-18T09:01:40Z</time>
<desc>lat.=55.684166, lon.=26.320528, Alt.=169.482544m. Speed=16.848000m/h.</desc>
<speed>4.680000</speed>
</trkpt>
<trkpt lat="55.684128" lon="26.320551">
<ele>169.834106</ele>
<time>2010-07-18T09:01:41Z</time>
<desc>lat.=55.684128, lon.=26.320551, Alt.=169.834106m. Speed=16.992001m/h.</desc>
<speed>4.720000</speed>
</trkpt>
<trkpt lat="55.684090" lon="26.320583">
<ele>169.880981</ele>
<time>2010-07-18T09:01:42Z</time>
<desc>lat.=55.684090, lon.=26.320583, Alt.=169.880981m. Speed=16.488001m/h.</desc>
<speed>4.580000</speed>
</trkpt>
<trkpt lat="55.684055" lon="26.320614">
<ele>169.838013</ele>
<time>2010-07-18T09:01:43Z</time>
<desc>lat.=55.684055, lon.=26.320614, Alt.=169.838013m. Speed=16.704000m/h.</desc>
<speed>4.640000</speed>
</trkpt>
<trkpt lat="55.684017" lon="26.320646">
<ele>169.783325</ele>
<time>2010-07-18T09:01:44Z</time>
<desc>lat.=55.684017, lon.=26.320646, Alt.=169.783325m. Speed=17.712000m/h.</desc>
<speed>4.920000</speed>
</trkpt>
<trkpt lat="55.683971" lon="26.320681">
<ele>169.271606</ele>
<time>2010-07-18T09:01:45Z</time>
<desc>lat.=55.683971, lon.=26.320681, Alt.=169.271606m. Speed=18.719999m/h.</desc>
<speed>5.200000</speed>
</trkpt>
<trkpt lat="55.683929" lon="26.320711">
<ele>169.736450</ele>
<time>2010-07-18T09:01:46Z</time>
<desc>lat.=55.683929, lon.=26.320711, Alt.=169.736450m. Speed=18.648001m/h.</desc>
<speed>5.180000</speed>
</trkpt>
<trkpt lat="55.683891" lon="26.320747">
<ele>170.076294</ele>
<time>2010-07-18T09:01:47Z</time>
<desc>lat.=55.683891, lon.=26.320747, Alt.=170.076294m. Speed=18.612000m/h.</desc>
<speed>5.170000</speed>
</trkpt>
<trkpt lat="55.683846" lon="26.320780">
<ele>169.681763</ele>
<time>2010-07-18T09:01:48Z</time>
<desc>lat.=55.683846, lon.=26.320780, Alt.=169.681763m. Speed=18.648001m/h.</desc>
<speed>5.180000</speed>
</trkpt>
<trkpt lat="55.683804" lon="26.320810">
<ele>169.361450</ele>
<time>2010-07-18T09:01:49Z</time>
<desc>lat.=55.683804, lon.=26.320810, Alt.=169.361450m. Speed=18.108000m/h.</desc>
<speed>5.030000</speed>
</trkpt>
<trkpt lat="55.683765" lon="26.320848">
<ele>169.064575</ele>
<time>2010-07-18T09:01:50Z</time>
<desc>lat.=55.683765, lon.=26.320848, Alt.=169.064575m. Speed=17.784000m/h.</desc>
<speed>4.940000</speed>
</trkpt>
<trkpt lat="55.683723" lon="26.320883">
<ele>168.619263</ele>
<time>2010-07-18T09:01:51Z</time>
<desc>lat.=55.683723, lon.=26.320883, Alt.=168.619263m. Speed=18.504000m/h.</desc>
<speed>5.140000</speed>
</trkpt>
<trkpt lat="55.683681" lon="26.320915">
<ele>168.623169</ele>
<time>2010-07-18T09:01:52Z</time>
<desc>lat.=55.683681, lon.=26.320915, Alt.=168.623169m. Speed=18.540001m/h.</desc>
<speed>5.150000</speed>
</trkpt>
<trkpt lat="55.683640" lon="26.320951">
<ele>168.740356</ele>
<time>2010-07-18T09:01:53Z</time>
<desc>lat.=55.683640, lon.=26.320951, Alt.=168.740356m. Speed=18.972000m/h.</desc>
<speed>5.270000</speed>
</trkpt>
<trkpt lat="55.683601" lon="26.320988">
<ele>169.209106</ele>
<time>2010-07-18T09:01:54Z</time>
<desc>lat.=55.683601, lon.=26.320988, Alt.=169.209106m. Speed=18.936001m/h.</desc>
<speed>5.260000</speed>
</trkpt>
<trkpt lat="55.683556" lon="26.321024">
<ele>168.951294</ele>
<time>2010-07-18T09:01:55Z</time>
<desc>lat.=55.683556, lon.=26.321024, Alt.=168.951294m. Speed=18.612000m/h.</desc>
<speed>5.170000</speed>
</trkpt>
<trkpt lat="55.683514" lon="26.321058">
<ele>169.025513</ele>
<time>2010-07-18T09:01:56Z</time>
<desc>lat.=55.683514, lon.=26.321058, Alt.=169.025513m. Speed=18.612000m/h.</desc>
<speed>5.170000</speed>
</trkpt>
<trkpt lat="55.683468" lon="26.321095">
<ele>168.181763</ele>
<time>2010-07-18T09:01:57Z</time>
<desc>lat.=55.683468, lon.=26.321095, Alt.=168.181763m. Speed=19.620001m/h.</desc>
<speed>5.450000</speed>
</trkpt>
<trkpt lat="55.683422" lon="26.321129">
<ele>167.818481</ele>
<time>2010-07-18T09:01:58Z</time>
<desc>lat.=55.683422, lon.=26.321129, Alt.=167.818481m. Speed=19.224001m/h.</desc>
<speed>5.340000</speed>
</trkpt>
<trkpt lat="55.683380" lon="26.321161">
<ele>167.498169</ele>
<time>2010-07-18T09:01:59Z</time>
<desc>lat.=55.683380, lon.=26.321161, Alt.=167.498169m. Speed=18.827999m/h.</desc>
<speed>5.230000</speed>
</trkpt>
<trkpt lat="55.683338" lon="26.321198">
<ele>167.380981</ele>
<time>2010-07-18T09:02:00Z</time>
<desc>lat.=55.683338, lon.=26.321198, Alt.=167.380981m. Speed=18.648001m/h.</desc>
<speed>5.180000</speed>
</trkpt>
<trkpt lat="55.683300" lon="26.321228">
<ele>167.951294</ele>
<time>2010-07-18T09:02:01Z</time>
<desc>lat.=55.683300, lon.=26.321228, Alt.=167.951294m. Speed=18.576000m/h.</desc>
<speed>5.160000</speed>
</trkpt>
<trkpt lat="55.683258" lon="26.321260">
<ele>167.978638</ele>
<time>2010-07-18T09:02:02Z</time>
<desc>lat.=55.683258, lon.=26.321260, Alt.=167.978638m. Speed=17.892000m/h.</desc>
<speed>4.970000</speed>
</trkpt>
<trkpt lat="55.683224" lon="26.321293">
<ele>168.541138</ele>
<time>2010-07-18T09:02:03Z</time>
<desc>lat.=55.683224, lon.=26.321293, Alt.=168.541138m. Speed=18.252001m/h.</desc>
<speed>5.070000</speed>
</trkpt>
<trkpt lat="55.683189" lon="26.321310">
<ele>170.369263</ele>
<time>2010-07-18T09:02:04Z</time>
<desc>lat.=55.683189, lon.=26.321310, Alt.=170.369263m. Speed=17.676001m/h.</desc>
<speed>4.910000</speed>
</trkpt>
<trkpt lat="55.683155" lon="26.321335">
<ele>171.064575</ele>
<time>2010-07-18T09:02:05Z</time>
<desc>lat.=55.683155, lon.=26.321335, Alt.=171.064575m. Speed=17.172001m/h.</desc>
<speed>4.770000</speed>
</trkpt>
<trkpt lat="55.683109" lon="26.321365">
<ele>170.427856</ele>
<time>2010-07-18T09:02:06Z</time>
<desc>lat.=55.683109, lon.=26.321365, Alt.=170.427856m. Speed=17.424000m/h.</desc>
<speed>4.840000</speed>
</trkpt>
<trkpt lat="55.683067" lon="26.321396">
<ele>170.017700</ele>
<time>2010-07-18T09:02:07Z</time>
<desc>lat.=55.683067, lon.=26.321396, Alt.=170.017700m. Speed=18.468000m/h.</desc>
<speed>5.130000</speed>
</trkpt>
<trkpt lat="55.683018" lon="26.321430">
<ele>167.627075</ele>
<time>2010-07-18T09:02:08Z</time>
<desc>lat.=55.683018, lon.=26.321430, Alt.=167.627075m. Speed=17.784000m/h.</desc>
<speed>4.940000</speed>
</trkpt>
<trkpt lat="55.682976" lon="26.321465">
<ele>167.088013</ele>
<time>2010-07-18T09:02:09Z</time>
<desc>lat.=55.682976, lon.=26.321465, Alt.=167.088013m. Speed=18.216000m/h.</desc>
<speed>5.060000</speed>
</trkpt>
<trkpt lat="55.682938" lon="26.321495">
<ele>167.642700</ele>
<time>2010-07-18T09:02:10Z</time>
<desc>lat.=55.682938, lon.=26.321495, Alt.=167.642700m. Speed=17.856001m/h.</desc>
<speed>4.960000</speed>
</trkpt>
<trkpt lat="55.682896" lon="26.321524">
<ele>167.787231</ele>
<time>2010-07-18T09:02:11Z</time>
<desc>lat.=55.682896, lon.=26.321524, Alt.=167.787231m. Speed=18.252001m/h.</desc>
<speed>5.070000</speed>
</trkpt>
<trkpt lat="55.682854" lon="26.321560">
<ele>168.095825</ele>
<time>2010-07-18T09:02:12Z</time>
<desc>lat.=55.682854, lon.=26.321560, Alt.=168.095825m. Speed=19.476000m/h.</desc>
<speed>5.410000</speed>
</trkpt>
<trkpt lat="55.682816" lon="26.321604">
<ele>168.353638</ele>
<time>2010-07-18T09:02:13Z</time>
<desc>lat.=55.682816, lon.=26.321604, Alt.=168.353638m. Speed=19.224001m/h.</desc>
<speed>5.340000</speed>
</trkpt>
<trkpt lat="55.682770" lon="26.321642">
<ele>168.486450</ele>
<time>2010-07-18T09:02:14Z</time>
<desc>lat.=55.682770, lon.=26.321642, Alt.=168.486450m. Speed=18.576000m/h.</desc>
<speed>5.160000</speed>
</trkpt>
<trkpt lat="55.682732" lon="26.321676">
<ele>168.685669</ele>
<time>2010-07-18T09:02:15Z</time>
<desc>lat.=55.682732, lon.=26.321676, Alt.=168.685669m. Speed=18.108000m/h.</desc>
<speed>5.030000</speed>
</trkpt>
<trkpt lat="55.682686" lon="26.321709">
<ele>168.834106</ele>
<time>2010-07-18T09:02:16Z</time>
<desc>lat.=55.682686, lon.=26.321709, Alt.=168.834106m. Speed=18.072001m/h.</desc>
<speed>5.020000</speed>
</trkpt>
<trkpt lat="55.682644" lon="26.321739">
<ele>169.236450</ele>
<time>2010-07-18T09:02:17Z</time>
<desc>lat.=55.682644, lon.=26.321739, Alt.=169.236450m. Speed=18.972000m/h.</desc>
<speed>5.270000</speed>
</trkpt>
<trkpt lat="55.682606" lon="26.321770">
<ele>169.595825</ele>
<time>2010-07-18T09:02:18Z</time>
<desc>lat.=55.682606, lon.=26.321770, Alt.=169.595825m. Speed=17.856001m/h.</desc>
<speed>4.960000</speed>
</trkpt>
<trkpt lat="55.682568" lon="26.321802">
<ele>169.798950</ele>
<time>2010-07-18T09:02:19Z</time>
<desc>lat.=55.682568, lon.=26.321802, Alt.=169.798950m. Speed=17.208000m/h.</desc>
<speed>4.780000</speed>
</trkpt>
<trkpt lat="55.682526" lon="26.321835">
<ele>169.826294</ele>
<time>2010-07-18T09:02:20Z</time>
<desc>lat.=55.682526, lon.=26.321835, Alt.=169.826294m. Speed=16.955999m/h.</desc>
<speed>4.710000</speed>
</trkpt>
<trkpt lat="55.682491" lon="26.321861">
<ele>170.041138</ele>
<time>2010-07-18T09:02:21Z</time>
<desc>lat.=55.682491, lon.=26.321861, Alt.=170.041138m. Speed=16.308001m/h.</desc>
<speed>4.530000</speed>
</trkpt>
<trkpt lat="55.682453" lon="26.321886">
<ele>170.177856</ele>
<time>2010-07-18T09:02:22Z</time>
<desc>lat.=55.682453, lon.=26.321886, Alt.=170.177856m. Speed=15.948000m/h.</desc>
<speed>4.430000</speed>
</trkpt>
<trkpt lat="55.682419" lon="26.321915">
<ele>170.220825</ele>
<time>2010-07-18T09:02:23Z</time>
<desc>lat.=55.682419, lon.=26.321915, Alt.=170.220825m. Speed=16.020000m/h.</desc>
<speed>4.450000</speed>
</trkpt>
<trkpt lat="55.682381" lon="26.321943">
<ele>170.103638</ele>
<time>2010-07-18T09:02:24Z</time>
<desc>lat.=55.682381, lon.=26.321943, Alt.=170.103638m. Speed=15.660000m/h.</desc>
<speed>4.350000</speed>
</trkpt>
<trkpt lat="55.682346" lon="26.321970">
<ele>169.884888</ele>
<time>2010-07-18T09:02:25Z</time>
<desc>lat.=55.682346, lon.=26.321970, Alt.=169.884888m. Speed=15.192000m/h.</desc>
<speed>4.220000</speed>
</trkpt>
<trkpt lat="55.682312" lon="26.322002">
<ele>169.330200</ele>
<time>2010-07-18T09:02:26Z</time>
<desc>lat.=55.682312, lon.=26.322002, Alt.=169.330200m. Speed=14.868000m/h.</desc>
<speed>4.130000</speed>
</trkpt>
<trkpt lat="55.682278" lon="26.322025">
<ele>169.111450</ele>
<time>2010-07-18T09:02:27Z</time>
<desc>lat.=55.682278, lon.=26.322025, Alt.=169.111450m. Speed=15.120000m/h.</desc>
<speed>4.200000</speed>
</trkpt>
<trkpt lat="55.682247" lon="26.322054">
<ele>168.533325</ele>
<time>2010-07-18T09:02:28Z</time>
<desc>lat.=55.682247, lon.=26.322054, Alt.=168.533325m. Speed=14.112000m/h.</desc>
<speed>3.920000</speed>
</trkpt>
<trkpt lat="55.682217" lon="26.322083">
<ele>167.998169</ele>
<time>2010-07-18T09:02:29Z</time>
<desc>lat.=55.682217, lon.=26.322083, Alt.=167.998169m. Speed=14.328000m/h.</desc>
<speed>3.980000</speed>
</trkpt>
<trkpt lat="55.682182" lon="26.322111">
<ele>167.525513</ele>
<time>2010-07-18T09:02:30Z</time>
<desc>lat.=55.682182, lon.=26.322111, Alt.=167.525513m. Speed=16.020000m/h.</desc>
<speed>4.450000</speed>
</trkpt>
<trkpt lat="55.682144" lon="26.322138">
<ele>167.513794</ele>
<time>2010-07-18T09:02:31Z</time>
<desc>lat.=55.682144, lon.=26.322138, Alt.=167.513794m. Speed=16.379999m/h.</desc>
<speed>4.550000</speed>
</trkpt>
<trkpt lat="55.682102" lon="26.322172">
<ele>167.564575</ele>
<time>2010-07-18T09:02:32Z</time>
<desc>lat.=55.682102, lon.=26.322172, Alt.=167.564575m. Speed=17.712000m/h.</desc>
<speed>4.920000</speed>
</trkpt>
<trkpt lat="55.682060" lon="26.322210">
<ele>167.568481</ele>
<time>2010-07-18T09:02:33Z</time>
<desc>lat.=55.682060, lon.=26.322210, Alt.=167.568481m. Speed=18.288000m/h.</desc>
<speed>5.080000</speed>
</trkpt>
<trkpt lat="55.682018" lon="26.322248">
<ele>167.576294</ele>
<time>2010-07-18T09:02:34Z</time>
<desc>lat.=55.682018, lon.=26.322248, Alt.=167.576294m. Speed=18.719999m/h.</desc>
<speed>5.200000</speed>
</trkpt>
<trkpt lat="55.681976" lon="26.322285">
<ele>168.033325</ele>
<time>2010-07-18T09:02:35Z</time>
<desc>lat.=55.681976, lon.=26.322285, Alt.=168.033325m. Speed=18.072001m/h.</desc>
<speed>5.020000</speed>
</trkpt>
<trkpt lat="55.681934" lon="26.322317">
<ele>167.720825</ele>
<time>2010-07-18T09:02:36Z</time>
<desc>lat.=55.681934, lon.=26.322317, Alt.=167.720825m. Speed=18.288000m/h.</desc>
<speed>5.080000</speed>
</trkpt>
<trkpt lat="55.681892" lon="26.322344">
<ele>167.791138</ele>
<time>2010-07-18T09:02:37Z</time>
<desc>lat.=55.681892, lon.=26.322344, Alt.=167.791138m. Speed=17.784000m/h.</desc>
<speed>4.940000</speed>
</trkpt>
<trkpt lat="55.681854" lon="26.322374">
<ele>168.084106</ele>
<time>2010-07-18T09:02:38Z</time>
<desc>lat.=55.681854, lon.=26.322374, Alt.=168.084106m. Speed=17.496000m/h.</desc>
<speed>4.860000</speed>
</trkpt>
<trkpt lat="55.681816" lon="26.322409">
<ele>167.931763</ele>
<time>2010-07-18T09:02:39Z</time>
<desc>lat.=55.681816, lon.=26.322409, Alt.=167.931763m. Speed=17.820000m/h.</desc>
<speed>4.950000</speed>
</trkpt>
<trkpt lat="55.681774" lon="26.322441">
<ele>167.904419</ele>
<time>2010-07-18T09:02:40Z</time>
<desc>lat.=55.681774, lon.=26.322441, Alt.=167.904419m. Speed=18.719999m/h.</desc>
<speed>5.200000</speed>
</trkpt>
<trkpt lat="55.681732" lon="26.322466">
<ele>167.904419</ele>
<time>2010-07-18T09:02:41Z</time>
<desc>lat.=55.681732, lon.=26.322466, Alt.=167.904419m. Speed=18.108000m/h.</desc>
<speed>5.030000</speed>
</trkpt>
<trkpt lat="55.681686" lon="26.322491">
<ele>167.740356</ele>
<time>2010-07-18T09:02:42Z</time>
<desc>lat.=55.681686, lon.=26.322491, Alt.=167.740356m. Speed=17.747999m/h.</desc>
<speed>4.930000</speed>
</trkpt>
<trkpt lat="55.681648" lon="26.322517">
<ele>167.666138</ele>
<time>2010-07-18T09:02:43Z</time>
<desc>lat.=55.681648, lon.=26.322517, Alt.=167.666138m. Speed=17.532000m/h.</desc>
<speed>4.870000</speed>
</trkpt>
<trkpt lat="55.681606" lon="26.322550">
<ele>167.537231</ele>
<time>2010-07-18T09:02:44Z</time>
<desc>lat.=55.681606, lon.=26.322550, Alt.=167.537231m. Speed=17.208000m/h.</desc>
<speed>4.780000</speed>
</trkpt>
<trkpt lat="55.681572" lon="26.322584">
<ele>167.283325</ele>
<time>2010-07-18T09:02:45Z</time>
<desc>lat.=55.681572, lon.=26.322584, Alt.=167.283325m. Speed=17.172001m/h.</desc>
<speed>4.770000</speed>
</trkpt>
<trkpt lat="55.681534" lon="26.322617">
<ele>167.177856</ele>
<time>2010-07-18T09:02:46Z</time>
<desc>lat.=55.681534, lon.=26.322617, Alt.=167.177856m. Speed=17.208000m/h.</desc>
<speed>4.780000</speed>
</trkpt>
<trkpt lat="55.681492" lon="26.322647">
<ele>167.252075</ele>
<time>2010-07-18T09:02:47Z</time>
<desc>lat.=55.681492, lon.=26.322647, Alt.=167.252075m. Speed=17.172001m/h.</desc>
<speed>4.770000</speed>
</trkpt>
<trkpt lat="55.681446" lon="26.322681">
<ele>167.353638</ele>
<time>2010-07-18T09:02:48Z</time>
<desc>lat.=55.681446, lon.=26.322681, Alt.=167.353638m. Speed=17.280001m/h.</desc>
<speed>4.800000</speed>
</trkpt>
<trkpt lat="55.681408" lon="26.322712">
<ele>167.603638</ele>
<time>2010-07-18T09:02:49Z</time>
<desc>lat.=55.681408, lon.=26.322712, Alt.=167.603638m. Speed=17.676001m/h.</desc>
<speed>4.910000</speed>
</trkpt>
<trkpt lat="55.681370" lon="26.322748">
<ele>167.963013</ele>
<time>2010-07-18T09:02:50Z</time>
<desc>lat.=55.681370, lon.=26.322748, Alt.=167.963013m. Speed=17.532000m/h.</desc>
<speed>4.870000</speed>
</trkpt>
<trkpt lat="55.681332" lon="26.322786">
<ele>168.357544</ele>
<time>2010-07-18T09:02:51Z</time>
<desc>lat.=55.681332, lon.=26.322786, Alt.=168.357544m. Speed=17.604000m/h.</desc>
<speed>4.890000</speed>
</trkpt>
<trkpt lat="55.681290" lon="26.322819">
<ele>168.103638</ele>
<time>2010-07-18T09:02:52Z</time>
<desc>lat.=55.681290, lon.=26.322819, Alt.=168.103638m. Speed=17.892000m/h.</desc>
<speed>4.970000</speed>
</trkpt>
<trkpt lat="55.681252" lon="26.322853">
<ele>168.263794</ele>
<time>2010-07-18T09:02:53Z</time>
<desc>lat.=55.681252, lon.=26.322853, Alt.=168.263794m. Speed=17.747999m/h.</desc>
<speed>4.930000</speed>
</trkpt>
<trkpt lat="55.681210" lon="26.322887">
<ele>168.412231</ele>
<time>2010-07-18T09:02:54Z</time>
<desc>lat.=55.681210, lon.=26.322887, Alt.=168.412231m. Speed=17.927999m/h.</desc>
<speed>4.980000</speed>
</trkpt>
<trkpt lat="55.681168" lon="26.322918">
<ele>168.576294</ele>
<time>2010-07-18T09:02:55Z</time>
<desc>lat.=55.681168, lon.=26.322918, Alt.=168.576294m. Speed=18.143999m/h.</desc>
<speed>5.040000</speed>
</trkpt>
<trkpt lat="55.681126" lon="26.322956">
<ele>168.392700</ele>
<time>2010-07-18T09:02:56Z</time>
<desc>lat.=55.681126, lon.=26.322956, Alt.=168.392700m. Speed=19.007999m/h.</desc>
<speed>5.280000</speed>
</trkpt>
<trkpt lat="55.681080" lon="26.322992">
<ele>168.158325</ele>
<time>2010-07-18T09:02:57Z</time>
<desc>lat.=55.681080, lon.=26.322992, Alt.=168.158325m. Speed=19.368000m/h.</desc>
<speed>5.380000</speed>
</trkpt>
<trkpt lat="55.681034" lon="26.323030">
<ele>167.916138</ele>
<time>2010-07-18T09:02:58Z</time>
<desc>lat.=55.681034, lon.=26.323030, Alt.=167.916138m. Speed=19.728001m/h.</desc>
<speed>5.480000</speed>
</trkpt>
<trkpt lat="55.680988" lon="26.323071">
<ele>167.701294</ele>
<time>2010-07-18T09:02:59Z</time>
<desc>lat.=55.680988, lon.=26.323071, Alt.=167.701294m. Speed=20.375999m/h.</desc>
<speed>5.660000</speed>
</trkpt>
<trkpt lat="55.680939" lon="26.323103">
<ele>167.615356</ele>
<time>2010-07-18T09:03:00Z</time>
<desc>lat.=55.680939, lon.=26.323103, Alt.=167.615356m. Speed=20.879999m/h.</desc>
<speed>5.800000</speed>
</trkpt>
<trkpt lat="55.680893" lon="26.323143">
<ele>167.548950</ele>
<time>2010-07-18T09:03:01Z</time>
<desc>lat.=55.680893, lon.=26.323143, Alt.=167.548950m. Speed=21.096001m/h.</desc>
<speed>5.860000</speed>
</trkpt>
<trkpt lat="55.680843" lon="26.323185">
<ele>167.244263</ele>
<time>2010-07-18T09:03:02Z</time>
<desc>lat.=55.680843, lon.=26.323185, Alt.=167.244263m. Speed=21.672001m/h.</desc>
<speed>6.020000</speed>
</trkpt>
<trkpt lat="55.680794" lon="26.323227">
<ele>167.048950</ele>
<time>2010-07-18T09:03:03Z</time>
<desc>lat.=55.680794, lon.=26.323227, Alt.=167.048950m. Speed=22.068001m/h.</desc>
<speed>6.130000</speed>
</trkpt>
<trkpt lat="55.680740" lon="26.323271">
<ele>166.627075</ele>
<time>2010-07-18T09:03:04Z</time>
<desc>lat.=55.680740, lon.=26.323271, Alt.=166.627075m. Speed=22.608000m/h.</desc>
<speed>6.280000</speed>
</trkpt>
<trkpt lat="55.680691" lon="26.323311">
<ele>166.162231</ele>
<time>2010-07-18T09:03:05Z</time>
<desc>lat.=55.680691, lon.=26.323311, Alt.=166.162231m. Speed=23.219999m/h.</desc>
<speed>6.450000</speed>
</trkpt>
<trkpt lat="55.680637" lon="26.323351">
<ele>165.697388</ele>
<time>2010-07-18T09:03:06Z</time>
<desc>lat.=55.680637, lon.=26.323351, Alt.=165.697388m. Speed=23.580000m/h.</desc>
<speed>6.550000</speed>
</trkpt>
<trkpt lat="55.680580" lon="26.323389">
<ele>165.572388</ele>
<time>2010-07-18T09:03:07Z</time>
<desc>lat.=55.680580, lon.=26.323389, Alt.=165.572388m. Speed=24.011999m/h.</desc>
<speed>6.670000</speed>
</trkpt>
<trkpt lat="55.680527" lon="26.323429">
<ele>165.365356</ele>
<time>2010-07-18T09:03:08Z</time>
<desc>lat.=55.680527, lon.=26.323429, Alt.=165.365356m. Speed=24.372000m/h.</desc>
<speed>6.770000</speed>
</trkpt>
<trkpt lat="55.680470" lon="26.323477">
<ele>165.130981</ele>
<time>2010-07-18T09:03:09Z</time>
<desc>lat.=55.680470, lon.=26.323477, Alt.=165.130981m. Speed=24.624001m/h.</desc>
<speed>6.840000</speed>
</trkpt>
<trkpt lat="55.680408" lon="26.323519">
<ele>165.025513</ele>
<time>2010-07-18T09:03:10Z</time>
<desc>lat.=55.680408, lon.=26.323519, Alt.=165.025513m. Speed=24.695999m/h.</desc>
<speed>6.860000</speed>
</trkpt>
<trkpt lat="55.680351" lon="26.323563">
<ele>164.888794</ele>
<time>2010-07-18T09:03:11Z</time>
<desc>lat.=55.680351, lon.=26.323563, Alt.=164.888794m. Speed=24.804001m/h.</desc>
<speed>6.890000</speed>
</trkpt>
<trkpt lat="55.680290" lon="26.323608">
<ele>164.486450</ele>
<time>2010-07-18T09:03:12Z</time>
<desc>lat.=55.680290, lon.=26.323608, Alt.=164.486450m. Speed=25.020000m/h.</desc>
<speed>6.950000</speed>
</trkpt>
<trkpt lat="55.680233" lon="26.323654">
<ele>164.373169</ele>
<time>2010-07-18T09:03:13Z</time>
<desc>lat.=55.680233, lon.=26.323654, Alt.=164.373169m. Speed=24.912001m/h.</desc>
<speed>6.920000</speed>
</trkpt>
<trkpt lat="55.680176" lon="26.323702">
<ele>164.150513</ele>
<time>2010-07-18T09:03:14Z</time>
<desc>lat.=55.680176, lon.=26.323702, Alt.=164.150513m. Speed=25.271999m/h.</desc>
<speed>7.020000</speed>
</trkpt>
<trkpt lat="55.680119" lon="26.323750">
<ele>163.880981</ele>
<time>2010-07-18T09:03:15Z</time>
<desc>lat.=55.680119, lon.=26.323750, Alt.=163.880981m. Speed=25.596001m/h.</desc>
<speed>7.110000</speed>
</trkpt>
<trkpt lat="55.680058" lon="26.323795">
<ele>163.533325</ele>
<time>2010-07-18T09:03:16Z</time>
<desc>lat.=55.680058, lon.=26.323795, Alt.=163.533325m. Speed=25.740000m/h.</desc>
<speed>7.150000</speed>
</trkpt>
<trkpt lat="55.680000" lon="26.323843">
<ele>163.545044</ele>
<time>2010-07-18T09:03:17Z</time>
<desc>lat.=55.680000, lon.=26.323843, Alt.=163.545044m. Speed=25.955999m/h.</desc>
<speed>7.210000</speed>
</trkpt>
<trkpt lat="55.679947" lon="26.323891">
<ele>163.798950</ele>
<time>2010-07-18T09:03:18Z</time>
<desc>lat.=55.679947, lon.=26.323891, Alt.=163.798950m. Speed=25.812000m/h.</desc>
<speed>7.170000</speed>
</trkpt>
<trkpt lat="55.679886" lon="26.323944">
<ele>163.302856</ele>
<time>2010-07-18T09:03:19Z</time>
<desc>lat.=55.679886, lon.=26.323944, Alt.=163.302856m. Speed=25.884001m/h.</desc>
<speed>7.190000</speed>
</trkpt>
<trkpt lat="55.679829" lon="26.323990">
<ele>163.173950</ele>
<time>2010-07-18T09:03:20Z</time>
<desc>lat.=55.679829, lon.=26.323990, Alt.=163.173950m. Speed=25.884001m/h.</desc>
<speed>7.190000</speed>
</trkpt>
<trkpt lat="55.679771" lon="26.324039">
<ele>163.392700</ele>
<time>2010-07-18T09:03:21Z</time>
<desc>lat.=55.679771, lon.=26.324039, Alt.=163.392700m. Speed=25.992001m/h.</desc>
<speed>7.220000</speed>
</trkpt>
<trkpt lat="55.679710" lon="26.324091">
<ele>162.896606</ele>
<time>2010-07-18T09:03:22Z</time>
<desc>lat.=55.679710, lon.=26.324091, Alt.=162.896606m. Speed=25.884001m/h.</desc>
<speed>7.190000</speed>
</trkpt>
<trkpt lat="55.679649" lon="26.324133">
<ele>162.423950</ele>
<time>2010-07-18T09:03:23Z</time>
<desc>lat.=55.679649, lon.=26.324133, Alt.=162.423950m. Speed=25.920000m/h.</desc>
<speed>7.200000</speed>
</trkpt>
<trkpt lat="55.679585" lon="26.324179">
<ele>161.677856</ele>
<time>2010-07-18T09:03:24Z</time>
<desc>lat.=55.679585, lon.=26.324179, Alt.=161.677856m. Speed=25.884001m/h.</desc>
<speed>7.190000</speed>
</trkpt>
<trkpt lat="55.679523" lon="26.324224">
<ele>160.966919</ele>
<time>2010-07-18T09:03:25Z</time>
<desc>lat.=55.679523, lon.=26.324224, Alt.=160.966919m. Speed=26.063999m/h.</desc>
<speed>7.240000</speed>
</trkpt>
<trkpt lat="55.679459" lon="26.324270">
<ele>160.392700</ele>
<time>2010-07-18T09:03:26Z</time>
<desc>lat.=55.679459, lon.=26.324270, Alt.=160.392700m. Speed=26.063999m/h.</desc>
<speed>7.240000</speed>
</trkpt>
<trkpt lat="55.679398" lon="26.324318">
<ele>160.025513</ele>
<time>2010-07-18T09:03:27Z</time>
<desc>lat.=55.679398, lon.=26.324318, Alt.=160.025513m. Speed=26.063999m/h.</desc>
<speed>7.240000</speed>
</trkpt>
<trkpt lat="55.679337" lon="26.324371">
<ele>159.580200</ele>
<time>2010-07-18T09:03:28Z</time>
<desc>lat.=55.679337, lon.=26.324371, Alt.=159.580200m. Speed=26.172001m/h.</desc>
<speed>7.270000</speed>
</trkpt>
<trkpt lat="55.679283" lon="26.324423">
<ele>159.634888</ele>
<time>2010-07-18T09:03:29Z</time>
<desc>lat.=55.679283, lon.=26.324423, Alt.=159.634888m. Speed=26.243999m/h.</desc>
<speed>7.290000</speed>
</trkpt>
<trkpt lat="55.679222" lon="26.324472">
<ele>159.064575</ele>
<time>2010-07-18T09:03:30Z</time>
<desc>lat.=55.679222, lon.=26.324472, Alt.=159.064575m. Speed=26.208000m/h.</desc>
<speed>7.280000</speed>
</trkpt>
<trkpt lat="55.679161" lon="26.324520">
<ele>159.052856</ele>
<time>2010-07-18T09:03:31Z</time>
<desc>lat.=55.679161, lon.=26.324520, Alt.=159.052856m. Speed=26.063999m/h.</desc>
<speed>7.240000</speed>
</trkpt>
<trkpt lat="55.679100" lon="26.324562">
<ele>158.838013</ele>
<time>2010-07-18T09:03:32Z</time>
<desc>lat.=55.679100, lon.=26.324562, Alt.=158.838013m. Speed=25.848000m/h.</desc>
<speed>7.180000</speed>
</trkpt>
<trkpt lat="55.679043" lon="26.324608">
<ele>158.474731</ele>
<time>2010-07-18T09:03:33Z</time>
<desc>lat.=55.679043, lon.=26.324608, Alt.=158.474731m. Speed=25.596001m/h.</desc>
<speed>7.110000</speed>
</trkpt>
<trkpt lat="55.678982" lon="26.324656">
<ele>158.142700</ele>
<time>2010-07-18T09:03:34Z</time>
<desc>lat.=55.678982, lon.=26.324656, Alt.=158.142700m. Speed=25.308001m/h.</desc>
<speed>7.030000</speed>
</trkpt>
<trkpt lat="55.678932" lon="26.324703">
<ele>158.888794</ele>
<time>2010-07-18T09:03:35Z</time>
<desc>lat.=55.678932, lon.=26.324703, Alt.=158.888794m. Speed=24.948000m/h.</desc>
<speed>6.930000</speed>
</trkpt>
<trkpt lat="55.678879" lon="26.324753">
<ele>159.267700</ele>
<time>2010-07-18T09:03:36Z</time>
<desc>lat.=55.678879, lon.=26.324753, Alt.=159.267700m. Speed=24.480000m/h.</desc>
<speed>6.800000</speed>
</trkpt>
<trkpt lat="55.678825" lon="26.324799">
<ele>159.295044</ele>
<time>2010-07-18T09:03:37Z</time>
<desc>lat.=55.678825, lon.=26.324799, Alt.=159.295044m. Speed=24.120001m/h.</desc>
<speed>6.700000</speed>
</trkpt>
<trkpt lat="55.678772" lon="26.324846">
<ele>159.400513</ele>
<time>2010-07-18T09:03:38Z</time>
<desc>lat.=55.678772, lon.=26.324846, Alt.=159.400513m. Speed=23.760000m/h.</desc>
<speed>6.600000</speed>
</trkpt>
<trkpt lat="55.678722" lon="26.324890">
<ele>160.005981</ele>
<time>2010-07-18T09:03:39Z</time>
<desc>lat.=55.678722, lon.=26.324890, Alt.=160.005981m. Speed=23.112000m/h.</desc>
<speed>6.420000</speed>
</trkpt>
<trkpt lat="55.678677" lon="26.324932">
<ele>160.970825</ele>
<time>2010-07-18T09:03:40Z</time>
<desc>lat.=55.678677, lon.=26.324932, Alt.=160.970825m. Speed=21.780001m/h.</desc>
<speed>6.050000</speed>
</trkpt>
<trkpt lat="55.678623" lon="26.324987">
<ele>160.162231</ele>
<time>2010-07-18T09:03:41Z</time>
<desc>lat.=55.678623, lon.=26.324987, Alt.=160.162231m. Speed=23.580000m/h.</desc>
<speed>6.550000</speed>
</trkpt>
<trkpt lat="55.678570" lon="26.325029">
<ele>160.338013</ele>
<time>2010-07-18T09:03:42Z</time>
<desc>lat.=55.678570, lon.=26.325029, Alt.=160.338013m. Speed=22.968000m/h.</desc>
<speed>6.380000</speed>
</trkpt>
<trkpt lat="55.678520" lon="26.325066">
<ele>161.052856</ele>
<time>2010-07-18T09:03:43Z</time>
<desc>lat.=55.678520, lon.=26.325066, Alt.=161.052856m. Speed=21.780001m/h.</desc>
<speed>6.050000</speed>
</trkpt>
<trkpt lat="55.678467" lon="26.325096">
<ele>162.392700</ele>
<time>2010-07-18T09:03:44Z</time>
<desc>lat.=55.678467, lon.=26.325096, Alt.=162.392700m. Speed=21.167999m/h.</desc>
<speed>5.880000</speed>
</trkpt>
<trkpt lat="55.678417" lon="26.325123">
<ele>163.236450</ele>
<time>2010-07-18T09:03:45Z</time>
<desc>lat.=55.678417, lon.=26.325123, Alt.=163.236450m. Speed=20.160000m/h.</desc>
<speed>5.600000</speed>
</trkpt>
<trkpt lat="55.678368" lon="26.325155">
<ele>163.599731</ele>
<time>2010-07-18T09:03:46Z</time>
<desc>lat.=55.678368, lon.=26.325155, Alt.=163.599731m. Speed=19.152000m/h.</desc>
<speed>5.320000</speed>
</trkpt>
<trkpt lat="55.678326" lon="26.325191">
<ele>164.056763</ele>
<time>2010-07-18T09:03:47Z</time>
<desc>lat.=55.678326, lon.=26.325191, Alt.=164.056763m. Speed=18.143999m/h.</desc>
<speed>5.040000</speed>
</trkpt>
<trkpt lat="55.678288" lon="26.325226">
<ele>164.486450</ele>
<time>2010-07-18T09:03:48Z</time>
<desc>lat.=55.678288, lon.=26.325226, Alt.=164.486450m. Speed=16.667999m/h.</desc>
<speed>4.630000</speed>
</trkpt>
<trkpt lat="55.678246" lon="26.325249">
<ele>165.287231</ele>
<time>2010-07-18T09:03:49Z</time>
<desc>lat.=55.678246, lon.=26.325249, Alt.=165.287231m. Speed=15.912000m/h.</desc>
<speed>4.420000</speed>
</trkpt>
<trkpt lat="55.678211" lon="26.325275">
<ele>165.709106</ele>
<time>2010-07-18T09:03:50Z</time>
<desc>lat.=55.678211, lon.=26.325275, Alt.=165.709106m. Speed=14.256000m/h.</desc>
<speed>3.960000</speed>
</trkpt>
<trkpt lat="55.678181" lon="26.325296">
<ele>166.201294</ele>
<time>2010-07-18T09:03:51Z</time>
<desc>lat.=55.678181, lon.=26.325296, Alt.=166.201294m. Speed=11.736000m/h.</desc>
<speed>3.260000</speed>
</trkpt>
<trkpt lat="55.678154" lon="26.325317">
<ele>166.935669</ele>
<time>2010-07-18T09:03:52Z</time>
<desc>lat.=55.678154, lon.=26.325317, Alt.=166.935669m. Speed=12.960000m/h.</desc>
<speed>3.600000</speed>
</trkpt>
<trkpt lat="55.678123" lon="26.325340">
<ele>167.295044</ele>
<time>2010-07-18T09:03:53Z</time>
<desc>lat.=55.678123, lon.=26.325340, Alt.=167.295044m. Speed=12.636000m/h.</desc>
<speed>3.510000</speed>
</trkpt>
<trkpt lat="55.678101" lon="26.325365">
<ele>167.666138</ele>
<time>2010-07-18T09:03:54Z</time>
<desc>lat.=55.678101, lon.=26.325365, Alt.=167.666138m. Speed=12.564000m/h.</desc>
<speed>3.490000</speed>
</trkpt>
<trkpt lat="55.678066" lon="26.325382">
<ele>168.916138</ele>
<time>2010-07-18T09:03:55Z</time>
<desc>lat.=55.678066, lon.=26.325382, Alt.=168.916138m. Speed=12.960000m/h.</desc>
<speed>3.600000</speed>
</trkpt>
<trkpt lat="55.678032" lon="26.325403">
<ele>169.099731</ele>
<time>2010-07-18T09:03:56Z</time>
<desc>lat.=55.678032, lon.=26.325403, Alt.=169.099731m. Speed=13.500000m/h.</desc>
<speed>3.750000</speed>
</trkpt>
<trkpt lat="55.677998" lon="26.325430">
<ele>168.865356</ele>
<time>2010-07-18T09:03:57Z</time>
<desc>lat.=55.677998, lon.=26.325430, Alt.=168.865356m. Speed=13.320000m/h.</desc>
<speed>3.700000</speed>
</trkpt>
<trkpt lat="55.677963" lon="26.325459">
<ele>167.892700</ele>
<time>2010-07-18T09:03:58Z</time>
<desc>lat.=55.677963, lon.=26.325459, Alt.=167.892700m. Speed=13.572000m/h.</desc>
<speed>3.770000</speed>
</trkpt>
<trkpt lat="55.677933" lon="26.325481">
<ele>167.869263</ele>
<time>2010-07-18T09:03:59Z</time>
<desc>lat.=55.677933, lon.=26.325481, Alt.=167.869263m. Speed=12.888000m/h.</desc>
<speed>3.580000</speed>
</trkpt>
<trkpt lat="55.677902" lon="26.325502">
<ele>167.677856</ele>
<time>2010-07-18T09:04:00Z</time>
<desc>lat.=55.677902, lon.=26.325502, Alt.=167.677856m. Speed=13.176000m/h.</desc>
<speed>3.660000</speed>
</trkpt>
<trkpt lat="55.677864" lon="26.325527">
<ele>167.662231</ele>
<time>2010-07-18T09:04:01Z</time>
<desc>lat.=55.677864, lon.=26.325527, Alt.=167.662231m. Speed=13.392000m/h.</desc>
<speed>3.720000</speed>
</trkpt>
<trkpt lat="55.677834" lon="26.325550">
<ele>167.173950</ele>
<time>2010-07-18T09:04:02Z</time>
<desc>lat.=55.677834, lon.=26.325550, Alt.=167.173950m. Speed=13.284000m/h.</desc>
<speed>3.690000</speed>
</trkpt>
<trkpt lat="55.677799" lon="26.325571">
<ele>166.779419</ele>
<time>2010-07-18T09:04:03Z</time>
<desc>lat.=55.677799, lon.=26.325571, Alt.=166.779419m. Speed=12.816000m/h.</desc>
<speed>3.560000</speed>
</trkpt>
<trkpt lat="55.677773" lon="26.325592">
<ele>166.521606</ele>
<time>2010-07-18T09:04:04Z</time>
<desc>lat.=55.677773, lon.=26.325592, Alt.=166.521606m. Speed=12.492000m/h.</desc>
<speed>3.470000</speed>
</trkpt>
<trkpt lat="55.677742" lon="26.325628">
<ele>165.705200</ele>
<time>2010-07-18T09:04:05Z</time>
<desc>lat.=55.677742, lon.=26.325628, Alt.=165.705200m. Speed=12.384000m/h.</desc>
<speed>3.440000</speed>
</trkpt>
<trkpt lat="55.677711" lon="26.325651">
<ele>165.338013</ele>
<time>2010-07-18T09:04:06Z</time>
<desc>lat.=55.677711, lon.=26.325651, Alt.=165.338013m. Speed=13.428000m/h.</desc>
<speed>3.730000</speed>
</trkpt>
<trkpt lat="55.677681" lon="26.325672">
<ele>165.123169</ele>
<time>2010-07-18T09:04:07Z</time>
<desc>lat.=55.677681, lon.=26.325672, Alt.=165.123169m. Speed=13.248000m/h.</desc>
<speed>3.680000</speed>
</trkpt>
<trkpt lat="55.677654" lon="26.325697">
<ele>165.216919</ele>
<time>2010-07-18T09:04:08Z</time>
<desc>lat.=55.677654, lon.=26.325697, Alt.=165.216919m. Speed=13.428000m/h.</desc>
<speed>3.730000</speed>
</trkpt>
<trkpt lat="55.677624" lon="26.325720">
<ele>164.791138</ele>
<time>2010-07-18T09:04:09Z</time>
<desc>lat.=55.677624, lon.=26.325720, Alt.=164.791138m. Speed=14.040000m/h.</desc>
<speed>3.900000</speed>
</trkpt>
<trkpt lat="55.677589" lon="26.325750">
<ele>163.752075</ele>
<time>2010-07-18T09:04:10Z</time>
<desc>lat.=55.677589, lon.=26.325750, Alt.=163.752075m. Speed=13.968000m/h.</desc>
<speed>3.880000</speed>
</trkpt>
<trkpt lat="55.677559" lon="26.325766">
<ele>163.568481</ele>
<time>2010-07-18T09:04:11Z</time>
<desc>lat.=55.677559, lon.=26.325766, Alt.=163.568481m. Speed=14.364000m/h.</desc>
<speed>3.990000</speed>
</trkpt>
<trkpt lat="55.677525" lon="26.325790">
<ele>164.236450</ele>
<time>2010-07-18T09:04:12Z</time>
<desc>lat.=55.677525, lon.=26.325790, Alt.=164.236450m. Speed=14.436000m/h.</desc>
<speed>4.010000</speed>
</trkpt>
<trkpt lat="55.677494" lon="26.325819">
<ele>163.705200</ele>
<time>2010-07-18T09:04:13Z</time>
<desc>lat.=55.677494, lon.=26.325819, Alt.=163.705200m. Speed=14.652000m/h.</desc>
<speed>4.070000</speed>
</trkpt>
<trkpt lat="55.677456" lon="26.325846">
<ele>163.947388</ele>
<time>2010-07-18T09:04:14Z</time>
<desc>lat.=55.677456, lon.=26.325846, Alt.=163.947388m. Speed=15.192000m/h.</desc>
<speed>4.220000</speed>
</trkpt>
<trkpt lat="55.677425" lon="26.325874">
<ele>164.107544</ele>
<time>2010-07-18T09:04:15Z</time>
<desc>lat.=55.677425, lon.=26.325874, Alt.=164.107544m. Speed=14.328000m/h.</desc>
<speed>3.980000</speed>
</trkpt>
<trkpt lat="55.677391" lon="26.325905">
<ele>164.021606</ele>
<time>2010-07-18T09:04:16Z</time>
<desc>lat.=55.677391, lon.=26.325905, Alt.=164.021606m. Speed=15.264000m/h.</desc>
<speed>4.240000</speed>
</trkpt>
<trkpt lat="55.677361" lon="26.325933">
<ele>164.552856</ele>
<time>2010-07-18T09:04:17Z</time>
<desc>lat.=55.677361, lon.=26.325933, Alt.=164.552856m. Speed=14.148000m/h.</desc>
<speed>3.930000</speed>
</trkpt>
<trkpt lat="55.677326" lon="26.325960">
<ele>164.920044</ele>
<time>2010-07-18T09:04:18Z</time>
<desc>lat.=55.677326, lon.=26.325960, Alt.=164.920044m. Speed=13.140000m/h.</desc>
<speed>3.650000</speed>
</trkpt>
<trkpt lat="55.677299" lon="26.325983">
<ele>165.248169</ele>
<time>2010-07-18T09:04:19Z</time>
<desc>lat.=55.677299, lon.=26.325983, Alt.=165.248169m. Speed=11.952000m/h.</desc>
<speed>3.320000</speed>
</trkpt>
<trkpt lat="55.677273" lon="26.326002">
<ele>165.209106</ele>
<time>2010-07-18T09:04:20Z</time>
<desc>lat.=55.677273, lon.=26.326002, Alt.=165.209106m. Speed=10.692000m/h.</desc>
<speed>2.970000</speed>
</trkpt>
<trkpt lat="55.677246" lon="26.326017">
<ele>165.295044</ele>
<time>2010-07-18T09:04:21Z</time>
<desc>lat.=55.677246, lon.=26.326017, Alt.=165.295044m. Speed=10.548000m/h.</desc>
<speed>2.930000</speed>
</trkpt>
<trkpt lat="55.677223" lon="26.326033">
<ele>165.295044</ele>
<time>2010-07-18T09:04:22Z</time>
<desc>lat.=55.677223, lon.=26.326033, Alt.=165.295044m. Speed=10.692000m/h.</desc>
<speed>2.970000</speed>
</trkpt>
<trkpt lat="55.677200" lon="26.326048">
<ele>165.236450</ele>
<time>2010-07-18T09:04:23Z</time>
<desc>lat.=55.677200, lon.=26.326048, Alt.=165.236450m. Speed=9.900000m/h.</desc>
<speed>2.750000</speed>
</trkpt>
<trkpt lat="55.677181" lon="26.326059">
<ele>165.388794</ele>
<time>2010-07-18T09:04:24Z</time>
<desc>lat.=55.677181, lon.=26.326059, Alt.=165.388794m. Speed=8.640000m/h.</desc>
<speed>2.400000</speed>
</trkpt>
<trkpt lat="55.677166" lon="26.326071">
<ele>165.357544</ele>
<time>2010-07-18T09:04:25Z</time>
<desc>lat.=55.677166, lon.=26.326071, Alt.=165.357544m. Speed=7.236000m/h.</desc>
<speed>2.010000</speed>
</trkpt>
<trkpt lat="55.677147" lon="26.326080">
<ele>164.955200</ele>
<time>2010-07-18T09:04:26Z</time>
<desc>lat.=55.677147, lon.=26.326080, Alt.=164.955200m. Speed=6.876000m/h.</desc>
<speed>1.910000</speed>
</trkpt>
<trkpt lat="55.677132" lon="26.326097">
<ele>165.302856</ele>
<time>2010-07-18T09:04:27Z</time>
<desc>lat.=55.677132, lon.=26.326097, Alt.=165.302856m. Speed=6.912000m/h.</desc>
<speed>1.920000</speed>
</trkpt>
<trkpt lat="55.677116" lon="26.326118">
<ele>165.142700</ele>
<time>2010-07-18T09:04:28Z</time>
<desc>lat.=55.677116, lon.=26.326118, Alt.=165.142700m. Speed=7.488000m/h.</desc>
<speed>2.080000</speed>
</trkpt>
<trkpt lat="55.677097" lon="26.326132">
<ele>164.951294</ele>
<time>2010-07-18T09:04:29Z</time>
<desc>lat.=55.677097, lon.=26.326132, Alt.=164.951294m. Speed=7.272000m/h.</desc>
<speed>2.020000</speed>
</trkpt>
<trkpt lat="55.677078" lon="26.326138">
<ele>164.896606</ele>
<time>2010-07-18T09:04:30Z</time>
<desc>lat.=55.677078, lon.=26.326138, Alt.=164.896606m. Speed=8.100000m/h.</desc>
<speed>2.250000</speed>
</trkpt>
<trkpt lat="55.677059" lon="26.326139">
<ele>165.123169</ele>
<time>2010-07-18T09:04:31Z</time>
<desc>lat.=55.677059, lon.=26.326139, Alt.=165.123169m. Speed=5.328000m/h.</desc>
<speed>1.480000</speed>
</trkpt>
<trkpt lat="55.677044" lon="26.326145">
<ele>165.545044</ele>
<time>2010-07-18T09:04:32Z</time>
<desc>lat.=55.677044, lon.=26.326145, Alt.=165.545044m. Speed=6.984000m/h.</desc>
<speed>1.940000</speed>
</trkpt>
<trkpt lat="55.677029" lon="26.326160">
<ele>165.529419</ele>
<time>2010-07-18T09:04:33Z</time>
<desc>lat.=55.677029, lon.=26.326160, Alt.=165.529419m. Speed=6.660000m/h.</desc>
<speed>1.850000</speed>
</trkpt>
<trkpt lat="55.677013" lon="26.326181">
<ele>165.443481</ele>
<time>2010-07-18T09:04:34Z</time>
<desc>lat.=55.677013, lon.=26.326181, Alt.=165.443481m. Speed=7.164000m/h.</desc>
<speed>1.990000</speed>
</trkpt>
<trkpt lat="55.677002" lon="26.326197">
<ele>165.330200</ele>
<time>2010-07-18T09:04:35Z</time>
<desc>lat.=55.677002, lon.=26.326197, Alt.=165.330200m. Speed=4.788000m/h.</desc>
<speed>1.330000</speed>
</trkpt>
<trkpt lat="55.676987" lon="26.326214">
<ele>165.127075</ele>
<time>2010-07-18T09:04:36Z</time>
<desc>lat.=55.676987, lon.=26.326214, Alt.=165.127075m. Speed=6.876000m/h.</desc>
<speed>1.910000</speed>
</trkpt>
<trkpt lat="55.676971" lon="26.326223">
<ele>165.306763</ele>
<time>2010-07-18T09:04:37Z</time>
<desc>lat.=55.676971, lon.=26.326223, Alt.=165.306763m. Speed=7.596000m/h.</desc>
<speed>2.110000</speed>
</trkpt>
<trkpt lat="55.676952" lon="26.326233">
<ele>165.076294</ele>
<time>2010-07-18T09:04:38Z</time>
<desc>lat.=55.676952, lon.=26.326233, Alt.=165.076294m. Speed=7.812000m/h.</desc>
<speed>2.170000</speed>
</trkpt>
<trkpt lat="55.676937" lon="26.326244">
<ele>164.931763</ele>
<time>2010-07-18T09:04:39Z</time>
<desc>lat.=55.676937, lon.=26.326244, Alt.=164.931763m. Speed=5.940000m/h.</desc>
<speed>1.650000</speed>
</trkpt>
<trkpt lat="55.676918" lon="26.326254">
<ele>165.009888</ele>
<time>2010-07-18T09:04:40Z</time>
<desc>lat.=55.676918, lon.=26.326254, Alt.=165.009888m. Speed=7.200000m/h.</desc>
<speed>2.000000</speed>
</trkpt>
<trkpt lat="55.676903" lon="26.326271">
<ele>165.080200</ele>
<time>2010-07-18T09:04:41Z</time>
<desc>lat.=55.676903, lon.=26.326271, Alt.=165.080200m. Speed=7.380000m/h.</desc>
<speed>2.050000</speed>
</trkpt>
<trkpt lat="55.676888" lon="26.326286">
<ele>165.150513</ele>
<time>2010-07-18T09:04:42Z</time>
<desc>lat.=55.676888, lon.=26.326286, Alt.=165.150513m. Speed=6.552000m/h.</desc>
<speed>1.820000</speed>
</trkpt>
<trkpt lat="55.676872" lon="26.326298">
<ele>163.502075</ele>
<time>2010-07-18T09:04:43Z</time>
<desc>lat.=55.676872, lon.=26.326298, Alt.=163.502075m. Speed=4.824000m/h.</desc>
<speed>1.340000</speed>
</trkpt>
<trkpt lat="55.676861" lon="26.326313">
<ele>163.349731</ele>
<time>2010-07-18T09:04:44Z</time>
<desc>lat.=55.676861, lon.=26.326313, Alt.=163.349731m. Speed=6.660000m/h.</desc>
<speed>1.850000</speed>
</trkpt>
<trkpt lat="55.676849" lon="26.326323">
<ele>163.384888</ele>
<time>2010-07-18T09:04:45Z</time>
<desc>lat.=55.676849, lon.=26.326323, Alt.=163.384888m. Speed=3.564000m/h.</desc>
<speed>0.990000</speed>
</trkpt>
<trkpt lat="55.676842" lon="26.326332">
<ele>163.545044</ele>
<time>2010-07-18T09:04:46Z</time>
<desc>lat.=55.676842, lon.=26.326332, Alt.=163.545044m. Speed=5.508000m/h.</desc>
<speed>1.530000</speed>
</trkpt>
<trkpt lat="55.676834" lon="26.326342">
<ele>163.498169</ele>
<time>2010-07-18T09:04:47Z</time>
<desc>lat.=55.676834, lon.=26.326342, Alt.=163.498169m. Speed=3.816000m/h.</desc>
<speed>1.060000</speed>
</trkpt>
<trkpt lat="55.676823" lon="26.326345">
<ele>163.244263</ele>
<time>2010-07-18T09:04:48Z</time>
<desc>lat.=55.676823, lon.=26.326345, Alt.=163.244263m. Speed=5.148000m/h.</desc>
<speed>1.430000</speed>
</trkpt>
<trkpt lat="55.676811" lon="26.326359">
<ele>163.224731</ele>
<time>2010-07-18T09:04:49Z</time>
<desc>lat.=55.676811, lon.=26.326359, Alt.=163.224731m. Speed=5.328000m/h.</desc>
<speed>1.480000</speed>
</trkpt>
<trkpt lat="55.676800" lon="26.326374">
<ele>163.314575</ele>
<time>2010-07-18T09:04:50Z</time>
<desc>lat.=55.676800, lon.=26.326374, Alt.=163.314575m. Speed=4.896000m/h.</desc>
<speed>1.360000</speed>
</trkpt>
<trkpt lat="55.676788" lon="26.326387">
<ele>163.283325</ele>
<time>2010-07-18T09:04:51Z</time>
<desc>lat.=55.676788, lon.=26.326387, Alt.=163.283325m. Speed=4.032000m/h.</desc>
<speed>1.120000</speed>
</trkpt>
<trkpt lat="55.676785" lon="26.326393">
<ele>163.115356</ele>
<time>2010-07-18T09:04:52Z</time>
<desc>lat.=55.676785, lon.=26.326393, Alt.=163.115356m. Speed=3.852000m/h.</desc>
<speed>1.070000</speed>
</trkpt>
<trkpt lat="55.676777" lon="26.326401">
<ele>162.603638</ele>
<time>2010-07-18T09:04:53Z</time>
<desc>lat.=55.676777, lon.=26.326401, Alt.=162.603638m. Speed=2.340000m/h.</desc>
<speed>0.650000</speed>
</trkpt>
<trkpt lat="55.676769" lon="26.326395">
<ele>161.623169</ele>
<time>2010-07-18T09:04:54Z</time>
<desc>lat.=55.676769, lon.=26.326395, Alt.=161.623169m. Speed=2.196000m/h.</desc>
<speed>0.610000</speed>
</trkpt>
<trkpt lat="55.676773" lon="26.326401">
<ele>162.068481</ele>
<time>2010-07-18T09:04:55Z</time>
<desc>lat.=55.676773, lon.=26.326401, Alt.=162.068481m. Speed=0.324000m/h.</desc>
<speed>0.090000</speed>
</trkpt>
<trkpt lat="55.676773" lon="26.326401">
<ele>162.287231</ele>
<time>2010-07-18T09:04:56Z</time>
<desc>lat.=55.676773, lon.=26.326401, Alt.=162.287231m. Speed=0.072000m/h.</desc>
<speed>0.020000</speed>
</trkpt>
<trkpt lat="55.676773" lon="26.326401">
<ele>162.252075</ele>
<time>2010-07-18T09:04:57Z</time>
<desc>lat.=55.676773, lon.=26.326401, Alt.=162.252075m. Speed=0.288000m/h.</desc>
<speed>0.080000</speed>
</trkpt>
<trkpt lat="55.676773" lon="26.326401">
<ele>162.244263</ele>
<time>2010-07-18T09:04:58Z</time>
<desc>lat.=55.676773, lon.=26.326401, Alt.=162.244263m. Speed=1.080000m/h.</desc>
<speed>0.300000</speed>
</trkpt>
<trkpt lat="55.676769" lon="26.326401">
<ele>162.236450</ele>
<time>2010-07-18T09:04:59Z</time>
<desc>lat.=55.676769, lon.=26.326401, Alt.=162.236450m. Speed=1.620000m/h.</desc>
<speed>0.450000</speed>
</trkpt>
<trkpt lat="55.676765" lon="26.326399">
<ele>162.220825</ele>
<time>2010-07-18T09:05:00Z</time>
<desc>lat.=55.676765, lon.=26.326399, Alt.=162.220825m. Speed=1.980000m/h.</desc>
<speed>0.550000</speed>
</trkpt>
<trkpt lat="55.676762" lon="26.326391">
<ele>162.209106</ele>
<time>2010-07-18T09:05:01Z</time>
<desc>lat.=55.676762, lon.=26.326391, Alt.=162.209106m. Speed=1.836000m/h.</desc>
<speed>0.510000</speed>
</trkpt>
<trkpt lat="55.676758" lon="26.326385">
<ele>162.205200</ele>
<time>2010-07-18T09:05:02Z</time>
<desc>lat.=55.676758, lon.=26.326385, Alt.=162.205200m. Speed=1.008000m/h.</desc>
<speed>0.280000</speed>
</trkpt>
<trkpt lat="55.676758" lon="26.326384">
<ele>162.201294</ele>
<time>2010-07-18T09:05:03Z</time>
<desc>lat.=55.676758, lon.=26.326384, Alt.=162.201294m. Speed=0.252000m/h.</desc>
<speed>0.070000</speed>
</trkpt>
<trkpt lat="55.676758" lon="26.326384">
<ele>162.197388</ele>
<time>2010-07-18T09:05:04Z</time>
<desc>lat.=55.676758, lon.=26.326384, Alt.=162.197388m. Speed=0.144000m/h.</desc>
<speed>0.040000</speed>
</trkpt>
<trkpt lat="55.676758" lon="26.326384">
<ele>162.189575</ele>
<time>2010-07-18T09:05:05Z</time>
<desc>lat.=55.676758, lon.=26.326384, Alt.=162.189575m. Speed=0.216000m/h.</desc>
<speed>0.060000</speed>
</trkpt>
<trkpt lat="55.676758" lon="26.326382">
<ele>162.189575</ele>
<time>2010-07-18T09:05:06Z</time>
<desc>lat.=55.676758, lon.=26.326382, Alt.=162.189575m. Speed=0.288000m/h.</desc>
<speed>0.080000</speed>
</trkpt>
<trkpt lat="55.676758" lon="26.326382">
<ele>162.193481</ele>
<time>2010-07-18T09:05:07Z</time>
<desc>lat.=55.676758, lon.=26.326382, Alt.=162.193481m. Speed=0.216000m/h.</desc>
<speed>0.060000</speed>
</trkpt>
<trkpt lat="55.676758" lon="26.326380">
<ele>162.197388</ele>
<time>2010-07-18T09:05:08Z</time>
<desc>lat.=55.676758, lon.=26.326380, Alt.=162.197388m. Speed=0.000000m/h.</desc>
<speed>0.000000</speed>
</trkpt>
<trkpt lat="55.676758" lon="26.326380">
<ele>162.205200</ele>
<time>2010-07-18T09:05:09Z</time>
<desc>lat.=55.676758, lon.=26.326380, Alt.=162.205200m. Speed=0.108000m/h.</desc>
<speed>0.030000</speed>
</trkpt>
<trkpt lat="55.676754" lon="26.326380">
<ele>162.209106</ele>
<time>2010-07-18T09:05:10Z</time>
<desc>lat.=55.676754, lon.=26.326380, Alt.=162.209106m. Speed=0.252000m/h.</desc>
<speed>0.070000</speed>
</trkpt>
<trkpt lat="55.676754" lon="26.326380">
<ele>162.216919</ele>
<time>2010-07-18T09:05:11Z</time>
<desc>lat.=55.676754, lon.=26.326380, Alt.=162.216919m. Speed=0.252000m/h.</desc>
<speed>0.070000</speed>
</trkpt>
<trkpt lat="55.676754" lon="26.326380">
<ele>162.220825</ele>
<time>2010-07-18T09:05:12Z</time>
<desc>lat.=55.676754, lon.=26.326380, Alt.=162.220825m. Speed=0.540000m/h.</desc>
<speed>0.150000</speed>
</trkpt>
<trkpt lat="55.676750" lon="26.326380">
<ele>162.224731</ele>
<time>2010-07-18T09:05:13Z</time>
<desc>lat.=55.676750, lon.=26.326380, Alt.=162.224731m. Speed=0.504000m/h.</desc>
<speed>0.140000</speed>
</trkpt>
<trkpt lat="55.676750" lon="26.326380">
<ele>162.228638</ele>
<time>2010-07-18T09:05:14Z</time>
<desc>lat.=55.676750, lon.=26.326380, Alt.=162.228638m. Speed=0.612000m/h.</desc>
<speed>0.170000</speed>
</trkpt>
<trkpt lat="55.676750" lon="26.326378">
<ele>162.232544</ele>
<time>2010-07-18T09:05:15Z</time>
<desc>lat.=55.676750, lon.=26.326378, Alt.=162.232544m. Speed=0.396000m/h.</desc>
<speed>0.110000</speed>
</trkpt>
<trkpt lat="55.676746" lon="26.326378">
<ele>162.236450</ele>
<time>2010-07-18T09:05:16Z</time>
<desc>lat.=55.676746, lon.=26.326378, Alt.=162.236450m. Speed=0.504000m/h.</desc>
<speed>0.140000</speed>
</trkpt>
<trkpt lat="55.676746" lon="26.326378">
<ele>162.236450</ele>
<time>2010-07-18T09:05:17Z</time>
<desc>lat.=55.676746, lon.=26.326378, Alt.=162.236450m. Speed=0.360000m/h.</desc>
<speed>0.100000</speed>
</trkpt>
<trkpt lat="55.676746" lon="26.326376">
<ele>162.236450</ele>
<time>2010-07-18T09:05:18Z</time>
<desc>lat.=55.676746, lon.=26.326376, Alt.=162.236450m. Speed=0.612000m/h.</desc>
<speed>0.170000</speed>
</trkpt>
<trkpt lat="55.676743" lon="26.326374">
<ele>162.259888</ele>
<time>2010-07-18T09:05:19Z</time>
<desc>lat.=55.676743, lon.=26.326374, Alt.=162.259888m. Speed=0.432000m/h.</desc>
<speed>0.120000</speed>
</trkpt>
<trkpt lat="55.676743" lon="26.326374">
<ele>162.283325</ele>
<time>2010-07-18T09:05:20Z</time>
<desc>lat.=55.676743, lon.=26.326374, Alt.=162.283325m. Speed=0.684000m/h.</desc>
<speed>0.190000</speed>
</trkpt>
<trkpt lat="55.676743" lon="26.326372">
<ele>162.295044</ele>
<time>2010-07-18T09:05:21Z</time>
<desc>lat.=55.676743, lon.=26.326372, Alt.=162.295044m. Speed=0.432000m/h.</desc>
<speed>0.120000</speed>
</trkpt>
<trkpt lat="55.676739" lon="26.326372">
<ele>162.310669</ele>
<time>2010-07-18T09:05:22Z</time>
<desc>lat.=55.676739, lon.=26.326372, Alt.=162.310669m. Speed=0.324000m/h.</desc>
<speed>0.090000</speed>
</trkpt>
<trkpt lat="55.676739" lon="26.326372">
<ele>162.322388</ele>
<time>2010-07-18T09:05:23Z</time>
<desc>lat.=55.676739, lon.=26.326372, Alt.=162.322388m. Speed=0.036000m/h.</desc>
<speed>0.010000</speed>
</trkpt>
<trkpt lat="55.676739" lon="26.326372">
<ele>162.334106</ele>
<time>2010-07-18T09:05:24Z</time>
<desc>lat.=55.676739, lon.=26.326372, Alt.=162.334106m. Speed=0.144000m/h.</desc>
<speed>0.040000</speed>
</trkpt>
<trkpt lat="55.676739" lon="26.326372">
<ele>162.338013</ele>
<time>2010-07-18T09:05:25Z</time>
<desc>lat.=55.676739, lon.=26.326372, Alt.=162.338013m. Speed=0.036000m/h.</desc>
<speed>0.010000</speed>
</trkpt>
<trkpt lat="55.676739" lon="26.326372">
<ele>162.345825</ele>
<time>2010-07-18T09:05:26Z</time>
<desc>lat.=55.676739, lon.=26.326372, Alt.=162.345825m. Speed=0.000000m/h.</desc>
<speed>0.000000</speed>
</trkpt>
<trkpt lat="55.676739" lon="26.326372">
<ele>162.357544</ele>
<time>2010-07-18T09:05:27Z</time>
<desc>lat.=55.676739, lon.=26.326372, Alt.=162.357544m. Speed=0.288000m/h.</desc>
<speed>0.080000</speed>
</trkpt>
<trkpt lat="55.676739" lon="26.326372">
<ele>162.365356</ele>
<time>2010-07-18T09:05:28Z</time>
<desc>lat.=55.676739, lon.=26.326372, Alt.=162.365356m. Speed=0.324000m/h.</desc>
<speed>0.090000</speed>
</trkpt>
<trkpt lat="55.676743" lon="26.326374">
<ele>162.377075</ele>
<time>2010-07-18T09:05:29Z</time>
<desc>lat.=55.676743, lon.=26.326374, Alt.=162.377075m. Speed=0.396000m/h.</desc>
<speed>0.110000</speed>
</trkpt>
<trkpt lat="55.676743" lon="26.326374">
<ele>162.388794</ele>
<time>2010-07-18T09:05:30Z</time>
<desc>lat.=55.676743, lon.=26.326374, Alt.=162.388794m. Speed=0.252000m/h.</desc>
<speed>0.070000</speed>
</trkpt>
<trkpt lat="55.676743" lon="26.326372">
<ele>162.400513</ele>
<time>2010-07-18T09:05:31Z</time>
<desc>lat.=55.676743, lon.=26.326372, Alt.=162.400513m. Speed=0.324000m/h.</desc>
<speed>0.090000</speed>
</trkpt>
<trkpt lat="55.676743" lon="26.326372">
<ele>162.408325</ele>
<time>2010-07-18T09:05:32Z</time>
<desc>lat.=55.676743, lon.=26.326372, Alt.=162.408325m. Speed=0.468000m/h.</desc>
<speed>0.130000</speed>
</trkpt>
<trkpt lat="55.676743" lon="26.326372">
<ele>162.416138</ele>
<time>2010-07-18T09:05:33Z</time>
<desc>lat.=55.676743, lon.=26.326372, Alt.=162.416138m. Speed=0.324000m/h.</desc>
<speed>0.090000</speed>
</trkpt>
<trkpt lat="55.676746" lon="26.326370">
<ele>162.420044</ele>
<time>2010-07-18T09:05:34Z</time>
<desc>lat.=55.676746, lon.=26.326370, Alt.=162.420044m. Speed=0.612000m/h.</desc>
<speed>0.170000</speed>
</trkpt>
<trkpt lat="55.676746" lon="26.326368">
<ele>162.420044</ele>
<time>2010-07-18T09:05:35Z</time>
<desc>lat.=55.676746, lon.=26.326368, Alt.=162.420044m. Speed=0.288000m/h.</desc>
<speed>0.080000</speed>
</trkpt>
<trkpt lat="55.676746" lon="26.326368">
<ele>162.423950</ele>
<time>2010-07-18T09:05:36Z</time>
<desc>lat.=55.676746, lon.=26.326368, Alt.=162.423950m. Speed=0.324000m/h.</desc>
<speed>0.090000</speed>
</trkpt>
<trkpt lat="55.676746" lon="26.326366">
<ele>162.423950</ele>
<time>2010-07-18T09:05:37Z</time>
<desc>lat.=55.676746, lon.=26.326366, Alt.=162.423950m. Speed=0.324000m/h.</desc>
<speed>0.090000</speed>
</trkpt>
<trkpt lat="55.676746" lon="26.326365">
<ele>162.427856</ele>
<time>2010-07-18T09:05:38Z</time>
<desc>lat.=55.676746, lon.=26.326365, Alt.=162.427856m. Speed=0.108000m/h.</desc>
<speed>0.030000</speed>
</trkpt>
<trkpt lat="55.676746" lon="26.326365">
<ele>162.420044</ele>
<time>2010-07-18T09:05:39Z</time>
<desc>lat.=55.676746, lon.=26.326365, Alt.=162.420044m. Speed=0.216000m/h.</desc>
<speed>0.060000</speed>
</trkpt>
<trkpt lat="55.676746" lon="26.326365">
<ele>162.416138</ele>
<time>2010-07-18T09:05:40Z</time>
<desc>lat.=55.676746, lon.=26.326365, Alt.=162.416138m. Speed=0.252000m/h.</desc>
<speed>0.070000</speed>
</trkpt>
<trkpt lat="55.676746" lon="26.326363">
<ele>162.400513</ele>
<time>2010-07-18T09:05:41Z</time>
<desc>lat.=55.676746, lon.=26.326363, Alt.=162.400513m. Speed=0.288000m/h.</desc>
<speed>0.080000</speed>
</trkpt>
<trkpt lat="55.676746" lon="26.326363">
<ele>162.396606</ele>
<time>2010-07-18T09:05:42Z</time>
<desc>lat.=55.676746, lon.=26.326363, Alt.=162.396606m. Speed=0.144000m/h.</desc>
<speed>0.040000</speed>
</trkpt>
<trkpt lat="55.676746" lon="26.326363">
<ele>162.384888</ele>
<time>2010-07-18T09:05:43Z</time>
<desc>lat.=55.676746, lon.=26.326363, Alt.=162.384888m. Speed=0.036000m/h.</desc>
<speed>0.010000</speed>
</trkpt>
<trkpt lat="55.676746" lon="26.326363">
<ele>162.384888</ele>
<time>2010-07-18T09:05:44Z</time>
<desc>lat.=55.676746, lon.=26.326363, Alt.=162.384888m. Speed=0.108000m/h.</desc>
<speed>0.030000</speed>
</trkpt>
<trkpt lat="55.676746" lon="26.326363">
<ele>162.380981</ele>
<time>2010-07-18T09:05:45Z</time>
<desc>lat.=55.676746, lon.=26.326363, Alt.=162.380981m. Speed=0.036000m/h.</desc>
<speed>0.010000</speed>
</trkpt>
<trkpt lat="55.676746" lon="26.326363">
<ele>162.369263</ele>
<time>2010-07-18T09:05:46Z</time>
<desc>lat.=55.676746, lon.=26.326363, Alt.=162.369263m. Speed=0.108000m/h.</desc>
<speed>0.030000</speed>
</trkpt>
<trkpt lat="55.676746" lon="26.326363">
<ele>162.377075</ele>
<time>2010-07-18T09:05:47Z</time>
<desc>lat.=55.676746, lon.=26.326363, Alt.=162.377075m. Speed=0.072000m/h.</desc>
<speed>0.020000</speed>
</trkpt>
<trkpt lat="55.676746" lon="26.326363">
<ele>162.380981</ele>
<time>2010-07-18T09:05:48Z</time>
<desc>lat.=55.676746, lon.=26.326363, Alt.=162.380981m. Speed=0.000000m/h.</desc>
<speed>0.000000</speed>
</trkpt>
<trkpt lat="55.676746" lon="26.326363">
<ele>162.377075</ele>
<time>2010-07-18T09:05:49Z</time>
<desc>lat.=55.676746, lon.=26.326363, Alt.=162.377075m. Speed=0.144000m/h.</desc>
<speed>0.040000</speed>
</trkpt>
<trkpt lat="55.676746" lon="26.326363">
<ele>162.384888</ele>
<time>2010-07-18T09:05:50Z</time>
<desc>lat.=55.676746, lon.=26.326363, Alt.=162.384888m. Speed=0.360000m/h.</desc>
<speed>0.100000</speed>
</trkpt>
<trkpt lat="55.676746" lon="26.326361">
<ele>162.404419</ele>
<time>2010-07-18T09:05:51Z</time>
<desc>lat.=55.676746, lon.=26.326361, Alt.=162.404419m. Speed=0.216000m/h.</desc>
<speed>0.060000</speed>
</trkpt>
<trkpt lat="55.676746" lon="26.326359">
<ele>162.408325</ele>
<time>2010-07-18T09:05:52Z</time>
<desc>lat.=55.676746, lon.=26.326359, Alt.=162.408325m. Speed=0.612000m/h.</desc>
<speed>0.170000</speed>
</trkpt>
<trkpt lat="55.676746" lon="26.326357">
<ele>162.404419</ele>
<time>2010-07-18T09:05:53Z</time>
<desc>lat.=55.676746, lon.=26.326357, Alt.=162.404419m. Speed=0.648000m/h.</desc>
<speed>0.180000</speed>
</trkpt>
<trkpt lat="55.676743" lon="26.326355">
<ele>162.400513</ele>
<time>2010-07-18T09:05:54Z</time>
<desc>lat.=55.676743, lon.=26.326355, Alt.=162.400513m. Speed=0.108000m/h.</desc>
<speed>0.030000</speed>
</trkpt>
<trkpt lat="55.676743" lon="26.326355">
<ele>162.400513</ele>
<time>2010-07-18T09:05:55Z</time>
<desc>lat.=55.676743, lon.=26.326355, Alt.=162.400513m. Speed=0.396000m/h.</desc>
<speed>0.110000</speed>
</trkpt>
<trkpt lat="55.676743" lon="26.326353">
<ele>162.396606</ele>
<time>2010-07-18T09:05:56Z</time>
<desc>lat.=55.676743, lon.=26.326353, Alt.=162.396606m. Speed=0.216000m/h.</desc>
<speed>0.060000</speed>
</trkpt>
<trkpt lat="55.676743" lon="26.326353">
<ele>162.400513</ele>
<time>2010-07-18T09:05:57Z</time>
<desc>lat.=55.676743, lon.=26.326353, Alt.=162.400513m. Speed=0.108000m/h.</desc>
<speed>0.030000</speed>
</trkpt>
<trkpt lat="55.676743" lon="26.326353">
<ele>162.400513</ele>
<time>2010-07-18T09:05:58Z</time>
<desc>lat.=55.676743, lon.=26.326353, Alt.=162.400513m. Speed=0.180000m/h.</desc>
<speed>0.050000</speed>
</trkpt>
<trkpt lat="55.676743" lon="26.326353">
<ele>162.404419</ele>
<time>2010-07-18T09:05:59Z</time>
<desc>lat.=55.676743, lon.=26.326353, Alt.=162.404419m. Speed=0.216000m/h.</desc>
<speed>0.060000</speed>
</trkpt>
<trkpt lat="55.676743" lon="26.326353">
<ele>162.408325</ele>
<time>2010-07-18T09:06:00Z</time>
<desc>lat.=55.676743, lon.=26.326353, Alt.=162.408325m. Speed=0.144000m/h.</desc>
<speed>0.040000</speed>
</trkpt>
<trkpt lat="55.676743" lon="26.326353">
<ele>162.412231</ele>
<time>2010-07-18T09:06:01Z</time>
<desc>lat.=55.676743, lon.=26.326353, Alt.=162.412231m. Speed=0.468000m/h.</desc>
<speed>0.130000</speed>
</trkpt>
<trkpt lat="55.676743" lon="26.326353">
<ele>162.423950</ele>
<time>2010-07-18T09:06:02Z</time>
<desc>lat.=55.676743, lon.=26.326353, Alt.=162.423950m. Speed=0.360000m/h.</desc>
<speed>0.100000</speed>
</trkpt>
<trkpt lat="55.676746" lon="26.326353">
<ele>162.435669</ele>
<time>2010-07-18T09:06:03Z</time>
<desc>lat.=55.676746, lon.=26.326353, Alt.=162.435669m. Speed=0.792000m/h.</desc>
<speed>0.220000</speed>
</trkpt>
<trkpt lat="55.676746" lon="26.326351">
<ele>162.455200</ele>
<time>2010-07-18T09:06:04Z</time>
<desc>lat.=55.676746, lon.=26.326351, Alt.=162.455200m. Speed=0.396000m/h.</desc>
<speed>0.110000</speed>
</trkpt>
<trkpt lat="55.676746" lon="26.326351">
<ele>162.474731</ele>
<time>2010-07-18T09:06:05Z</time>
<desc>lat.=55.676746, lon.=26.326351, Alt.=162.474731m. Speed=0.360000m/h.</desc>
<speed>0.100000</speed>
</trkpt>
<trkpt lat="55.676746" lon="26.326349">
<ele>162.498169</ele>
<time>2010-07-18T09:06:06Z</time>
<desc>lat.=55.676746, lon.=26.326349, Alt.=162.498169m. Speed=0.396000m/h.</desc>
<speed>0.110000</speed>
</trkpt>
<trkpt lat="55.676746" lon="26.326347">
<ele>162.521606</ele>
<time>2010-07-18T09:06:07Z</time>
<desc>lat.=55.676746, lon.=26.326347, Alt.=162.521606m. Speed=0.324000m/h.</desc>
<speed>0.090000</speed>
</trkpt>
<trkpt lat="55.676746" lon="26.326345">
<ele>162.541138</ele>
<time>2010-07-18T09:06:08Z</time>
<desc>lat.=55.676746, lon.=26.326345, Alt.=162.541138m. Speed=0.468000m/h.</desc>
<speed>0.130000</speed>
</trkpt>
<trkpt lat="55.676746" lon="26.326345">
<ele>162.568481</ele>
<time>2010-07-18T09:06:09Z</time>
<desc>lat.=55.676746, lon.=26.326345, Alt.=162.568481m. Speed=0.324000m/h.</desc>
<speed>0.090000</speed>
</trkpt>
<trkpt lat="55.676746" lon="26.326344">
<ele>162.591919</ele>
<time>2010-07-18T09:06:10Z</time>
<desc>lat.=55.676746, lon.=26.326344, Alt.=162.591919m. Speed=0.432000m/h.</desc>
<speed>0.120000</speed>
</trkpt>
<trkpt lat="55.676746" lon="26.326342">
<ele>162.615356</ele>
<time>2010-07-18T09:06:11Z</time>
<desc>lat.=55.676746, lon.=26.326342, Alt.=162.615356m. Speed=1.260000m/h.</desc>
<speed>0.350000</speed>
</trkpt>
<trkpt lat="55.676743" lon="26.326347">
<ele>162.630981</ele>
<time>2010-07-18T09:06:12Z</time>
<desc>lat.=55.676743, lon.=26.326347, Alt.=162.630981m. Speed=2.556000m/h.</desc>
<speed>0.710000</speed>
</trkpt>
<trkpt lat="55.676739" lon="26.326355">
<ele>162.654419</ele>
<time>2010-07-18T09:06:13Z</time>
<desc>lat.=55.676739, lon.=26.326355, Alt.=162.654419m. Speed=2.772000m/h.</desc>
<speed>0.770000</speed>
</trkpt>
<trkpt lat="55.676735" lon="26.326365">
<ele>162.670044</ele>
<time>2010-07-18T09:06:14Z</time>
<desc>lat.=55.676735, lon.=26.326365, Alt.=162.670044m. Speed=3.312000m/h.</desc>
<speed>0.920000</speed>
</trkpt>
<trkpt lat="55.676731" lon="26.326376">
<ele>162.697388</ele>
<time>2010-07-18T09:06:15Z</time>
<desc>lat.=55.676731, lon.=26.326376, Alt.=162.697388m. Speed=5.292000m/h.</desc>
<speed>1.470000</speed>
</trkpt>
<trkpt lat="55.676727" lon="26.326408">
<ele>163.033325</ele>
<time>2010-07-18T09:06:16Z</time>
<desc>lat.=55.676727, lon.=26.326408, Alt.=163.033325m. Speed=6.768000m/h.</desc>
<speed>1.880000</speed>
</trkpt>
<trkpt lat="55.676727" lon="26.326441">
<ele>162.865356</ele>
<time>2010-07-18T09:06:17Z</time>
<desc>lat.=55.676727, lon.=26.326441, Alt.=162.865356m. Speed=5.868000m/h.</desc>
<speed>1.630000</speed>
</trkpt>
<trkpt lat="55.676727" lon="26.326483">
<ele>162.838013</ele>
<time>2010-07-18T09:06:18Z</time>
<desc>lat.=55.676727, lon.=26.326483, Alt.=162.838013m. Speed=7.596000m/h.</desc>
<speed>2.110000</speed>
</trkpt>
<trkpt lat="55.676735" lon="26.326517">
<ele>162.923950</ele>
<time>2010-07-18T09:06:19Z</time>
<desc>lat.=55.676735, lon.=26.326517, Alt.=162.923950m. Speed=7.632000m/h.</desc>
<speed>2.120000</speed>
</trkpt>
<trkpt lat="55.676739" lon="26.326557">
<ele>163.134888</ele>
<time>2010-07-18T09:06:20Z</time>
<desc>lat.=55.676739, lon.=26.326557, Alt.=163.134888m. Speed=7.920000m/h.</desc>
<speed>2.200000</speed>
</trkpt>
<trkpt lat="55.676739" lon="26.326590">
<ele>162.634888</ele>
<time>2010-07-18T09:06:21Z</time>
<desc>lat.=55.676739, lon.=26.326590, Alt.=162.634888m. Speed=7.596000m/h.</desc>
<speed>2.110000</speed>
</trkpt>
<trkpt lat="55.676743" lon="26.326624">
<ele>162.595825</ele>
<time>2010-07-18T09:06:22Z</time>
<desc>lat.=55.676743, lon.=26.326624, Alt.=162.595825m. Speed=8.172000m/h.</desc>
<speed>2.270000</speed>
</trkpt>
<trkpt lat="55.676739" lon="26.326664">
<ele>162.138794</ele>
<time>2010-07-18T09:06:23Z</time>
<desc>lat.=55.676739, lon.=26.326664, Alt.=162.138794m. Speed=7.848000m/h.</desc>
<speed>2.180000</speed>
</trkpt>
<trkpt lat="55.676727" lon="26.326696">
<ele>161.998169</ele>
<time>2010-07-18T09:06:24Z</time>
<desc>lat.=55.676727, lon.=26.326696, Alt.=161.998169m. Speed=8.784000m/h.</desc>
<speed>2.440000</speed>
</trkpt>
<trkpt lat="55.676720" lon="26.326746">
<ele>161.978638</ele>
<time>2010-07-18T09:06:25Z</time>
<desc>lat.=55.676720, lon.=26.326746, Alt.=161.978638m. Speed=11.808000m/h.</desc>
<speed>3.280000</speed>
</trkpt>
<trkpt lat="55.676712" lon="26.326807">
<ele>162.084106</ele>
<time>2010-07-18T09:06:26Z</time>
<desc>lat.=55.676712, lon.=26.326807, Alt.=162.084106m. Speed=12.204000m/h.</desc>
<speed>3.390000</speed>
</trkpt>
<trkpt lat="55.676704" lon="26.326868">
<ele>161.912231</ele>
<time>2010-07-18T09:06:27Z</time>
<desc>lat.=55.676704, lon.=26.326868, Alt.=161.912231m. Speed=12.924000m/h.</desc>
<speed>3.590000</speed>
</trkpt>
<trkpt lat="55.676701" lon="26.326933">
<ele>161.963013</ele>
<time>2010-07-18T09:06:28Z</time>
<desc>lat.=55.676701, lon.=26.326933, Alt.=161.963013m. Speed=14.184000m/h.</desc>
<speed>3.940000</speed>
</trkpt>
<trkpt lat="55.676701" lon="26.326994">
<ele>162.201294</ele>
<time>2010-07-18T09:06:29Z</time>
<desc>lat.=55.676701, lon.=26.326994, Alt.=162.201294m. Speed=13.284000m/h.</desc>
<speed>3.690000</speed>
</trkpt>
<trkpt lat="55.676701" lon="26.327055">
<ele>162.705200</ele>
<time>2010-07-18T09:06:30Z</time>
<desc>lat.=55.676701, lon.=26.327055, Alt.=162.705200m. Speed=14.040000m/h.</desc>
<speed>3.900000</speed>
</trkpt>
<trkpt lat="55.676697" lon="26.327118">
<ele>162.619263</ele>
<time>2010-07-18T09:06:31Z</time>
<desc>lat.=55.676697, lon.=26.327118, Alt.=162.619263m. Speed=13.572000m/h.</desc>
<speed>3.770000</speed>
</trkpt>
<trkpt lat="55.676685" lon="26.327177">
<ele>162.533325</ele>
<time>2010-07-18T09:06:32Z</time>
<desc>lat.=55.676685, lon.=26.327177, Alt.=162.533325m. Speed=13.104000m/h.</desc>
<speed>3.640000</speed>
</trkpt>
<trkpt lat="55.676682" lon="26.327238">
<ele>162.935669</ele>
<time>2010-07-18T09:06:33Z</time>
<desc>lat.=55.676682, lon.=26.327238, Alt.=162.935669m. Speed=13.968000m/h.</desc>
<speed>3.880000</speed>
</trkpt>
<trkpt lat="55.676678" lon="26.327297">
<ele>163.685669</ele>
<time>2010-07-18T09:06:34Z</time>
<desc>lat.=55.676678, lon.=26.327297, Alt.=163.685669m. Speed=14.364000m/h.</desc>
<speed>3.990000</speed>
</trkpt>
<trkpt lat="55.676670" lon="26.327360">
<ele>163.802856</ele>
<time>2010-07-18T09:06:35Z</time>
<desc>lat.=55.676670, lon.=26.327360, Alt.=163.802856m. Speed=14.292000m/h.</desc>
<speed>3.970000</speed>
</trkpt>
<trkpt lat="55.676666" lon="26.327423">
<ele>163.994263</ele>
<time>2010-07-18T09:06:36Z</time>
<desc>lat.=55.676666, lon.=26.327423, Alt.=163.994263m. Speed=13.608000m/h.</desc>
<speed>3.780000</speed>
</trkpt>
<trkpt lat="55.676666" lon="26.327480">
<ele>164.377075</ele>
<time>2010-07-18T09:06:37Z</time>
<desc>lat.=55.676666, lon.=26.327480, Alt.=164.377075m. Speed=13.356000m/h.</desc>
<speed>3.710000</speed>
</trkpt>
<trkpt lat="55.676662" lon="26.327539">
<ele>164.486450</ele>
<time>2010-07-18T09:06:38Z</time>
<desc>lat.=55.676662, lon.=26.327539, Alt.=164.486450m. Speed=14.040000m/h.</desc>
<speed>3.900000</speed>
</trkpt>
<trkpt lat="55.676659" lon="26.327604">
<ele>165.103638</ele>
<time>2010-07-18T09:06:39Z</time>
<desc>lat.=55.676659, lon.=26.327604, Alt.=165.103638m. Speed=14.688000m/h.</desc>
<speed>4.080000</speed>
</trkpt>
<trkpt lat="55.676651" lon="26.327669">
<ele>164.388794</ele>
<time>2010-07-18T09:06:40Z</time>
<desc>lat.=55.676651, lon.=26.327669, Alt.=164.388794m. Speed=14.724000m/h.</desc>
<speed>4.090000</speed>
</trkpt>
<trkpt lat="55.676647" lon="26.327732">
<ele>165.080200</ele>
<time>2010-07-18T09:06:41Z</time>
<desc>lat.=55.676647, lon.=26.327732, Alt.=165.080200m. Speed=13.968000m/h.</desc>
<speed>3.880000</speed>
</trkpt>
<trkpt lat="55.676643" lon="26.327791">
<ele>165.775513</ele>
<time>2010-07-18T09:06:42Z</time>
<desc>lat.=55.676643, lon.=26.327791, Alt.=165.775513m. Speed=13.608000m/h.</desc>
<speed>3.780000</speed>
</trkpt>
<trkpt lat="55.676643" lon="26.327848">
<ele>165.916138</ele>
<time>2010-07-18T09:06:43Z</time>
<desc>lat.=55.676643, lon.=26.327848, Alt.=165.916138m. Speed=13.284000m/h.</desc>
<speed>3.690000</speed>
</trkpt>
<trkpt lat="55.676640" lon="26.327908">
<ele>166.224731</ele>
<time>2010-07-18T09:06:44Z</time>
<desc>lat.=55.676640, lon.=26.327908, Alt.=166.224731m. Speed=12.816000m/h.</desc>
<speed>3.560000</speed>
</trkpt>
<trkpt lat="55.676636" lon="26.327963">
<ele>166.091919</ele>
<time>2010-07-18T09:06:45Z</time>
<desc>lat.=55.676636, lon.=26.327963, Alt.=166.091919m. Speed=12.456000m/h.</desc>
<speed>3.460000</speed>
</trkpt>
<trkpt lat="55.676636" lon="26.328018">
<ele>165.380981</ele>
<time>2010-07-18T09:06:46Z</time>
<desc>lat.=55.676636, lon.=26.328018, Alt.=165.380981m. Speed=12.168000m/h.</desc>
<speed>3.380000</speed>
</trkpt>
<trkpt lat="55.676682" lon="26.328068">
<ele>176.869263</ele>
<time>2010-07-18T09:06:47Z</time>
<desc>lat.=55.676682, lon.=26.328068, Alt.=176.869263m. Speed=13.932000m/h.</desc>
<speed>3.870000</speed>
</trkpt>
<trkpt lat="55.676682" lon="26.328123">
<ele>178.834106</ele>
<time>2010-07-18T09:06:48Z</time>
<desc>lat.=55.676682, lon.=26.328123, Alt.=178.834106m. Speed=12.492000m/h.</desc>
<speed>3.470000</speed>
</trkpt>
<trkpt lat="55.676662" lon="26.328175">
<ele>177.267700</ele>
<time>2010-07-18T09:06:49Z</time>
<desc>lat.=55.676662, lon.=26.328175, Alt.=177.267700m. Speed=14.688000m/h.</desc>
<speed>4.080000</speed>
</trkpt>
<trkpt lat="55.676643" lon="26.328241">
<ele>175.861450</ele>
<time>2010-07-18T09:06:50Z</time>
<desc>lat.=55.676643, lon.=26.328241, Alt.=175.861450m. Speed=16.416000m/h.</desc>
<speed>4.560000</speed>
</trkpt>
<trkpt lat="55.676624" lon="26.328310">
<ele>174.552856</ele>
<time>2010-07-18T09:06:51Z</time>
<desc>lat.=55.676624, lon.=26.328310, Alt.=174.552856m. Speed=17.172001m/h.</desc>
<speed>4.770000</speed>
</trkpt>
<trkpt lat="55.676613" lon="26.328381">
<ele>173.283325</ele>
<time>2010-07-18T09:06:52Z</time>
<desc>lat.=55.676613, lon.=26.328381, Alt.=173.283325m. Speed=16.128000m/h.</desc>
<speed>4.480000</speed>
</trkpt>
<trkpt lat="55.676601" lon="26.328447">
<ele>172.009888</ele>
<time>2010-07-18T09:06:53Z</time>
<desc>lat.=55.676601, lon.=26.328447, Alt.=172.009888m. Speed=15.264000m/h.</desc>
<speed>4.240000</speed>
</trkpt>
<trkpt lat="55.676594" lon="26.328508">
<ele>170.974731</ele>
<time>2010-07-18T09:06:54Z</time>
<desc>lat.=55.676594, lon.=26.328508, Alt.=170.974731m. Speed=15.120000m/h.</desc>
<speed>4.200000</speed>
</trkpt>
<trkpt lat="55.676590" lon="26.328569">
<ele>169.857544</ele>
<time>2010-07-18T09:06:55Z</time>
<desc>lat.=55.676590, lon.=26.328569, Alt.=169.857544m. Speed=15.804000m/h.</desc>
<speed>4.390000</speed>
</trkpt>
<trkpt lat="55.676579" lon="26.328644">
<ele>169.220825</ele>
<time>2010-07-18T09:06:56Z</time>
<desc>lat.=55.676579, lon.=26.328644, Alt.=169.220825m. Speed=15.624000m/h.</desc>
<speed>4.340000</speed>
</trkpt>
<trkpt lat="55.676571" lon="26.328712">
<ele>168.255981</ele>
<time>2010-07-18T09:06:57Z</time>
<desc>lat.=55.676571, lon.=26.328712, Alt.=168.255981m. Speed=15.228000m/h.</desc>
<speed>4.230000</speed>
</trkpt>
<trkpt lat="55.676563" lon="26.328781">
<ele>167.377075</ele>
<time>2010-07-18T09:06:58Z</time>
<desc>lat.=55.676563, lon.=26.328781, Alt.=167.377075m. Speed=15.768000m/h.</desc>
<speed>4.380000</speed>
</trkpt>
<trkpt lat="55.676556" lon="26.328854">
<ele>166.537231</ele>
<time>2010-07-18T09:06:59Z</time>
<desc>lat.=55.676556, lon.=26.328854, Alt.=166.537231m. Speed=15.300000m/h.</desc>
<speed>4.250000</speed>
</trkpt>
<trkpt lat="55.676548" lon="26.328920">
<ele>165.564575</ele>
<time>2010-07-18T09:07:00Z</time>
<desc>lat.=55.676548, lon.=26.328920, Alt.=165.564575m. Speed=14.832000m/h.</desc>
<speed>4.120000</speed>
</trkpt>
<trkpt lat="55.676540" lon="26.328981">
<ele>164.490356</ele>
<time>2010-07-18T09:07:01Z</time>
<desc>lat.=55.676540, lon.=26.328981, Alt.=164.490356m. Speed=14.328000m/h.</desc>
<speed>3.980000</speed>
</trkpt>
<trkpt lat="55.676537" lon="26.329042">
<ele>163.759888</ele>
<time>2010-07-18T09:07:02Z</time>
<desc>lat.=55.676537, lon.=26.329042, Alt.=163.759888m. Speed=14.220000m/h.</desc>
<speed>3.950000</speed>
</trkpt>
<trkpt lat="55.676533" lon="26.329105">
<ele>163.060669</ele>
<time>2010-07-18T09:07:03Z</time>
<desc>lat.=55.676533, lon.=26.329105, Alt.=163.060669m. Speed=14.940000m/h.</desc>
<speed>4.150000</speed>
</trkpt>
<trkpt lat="55.676529" lon="26.329172">
<ele>162.740356</ele>
<time>2010-07-18T09:07:04Z</time>
<desc>lat.=55.676529, lon.=26.329172, Alt.=162.740356m. Speed=15.516000m/h.</desc>
<speed>4.310000</speed>
</trkpt>
<trkpt lat="55.676525" lon="26.329239">
<ele>162.486450</ele>
<time>2010-07-18T09:07:05Z</time>
<desc>lat.=55.676525, lon.=26.329239, Alt.=162.486450m. Speed=16.559999m/h.</desc>
<speed>4.600000</speed>
</trkpt>
<trkpt lat="55.676544" lon="26.329304">
<ele>166.459106</ele>
<time>2010-07-18T09:07:06Z</time>
<desc>lat.=55.676544, lon.=26.329304, Alt.=166.459106m. Speed=16.020000m/h.</desc>
<speed>4.450000</speed>
</trkpt>
<trkpt lat="55.676540" lon="26.329374">
<ele>166.670044</ele>
<time>2010-07-18T09:07:07Z</time>
<desc>lat.=55.676540, lon.=26.329374, Alt.=166.670044m. Speed=15.264000m/h.</desc>
<speed>4.240000</speed>
</trkpt>
<trkpt lat="55.676537" lon="26.329445">
<ele>166.748169</ele>
<time>2010-07-18T09:07:08Z</time>
<desc>lat.=55.676537, lon.=26.329445, Alt.=166.748169m. Speed=15.084000m/h.</desc>
<speed>4.190000</speed>
</trkpt>
<trkpt lat="55.676537" lon="26.329514">
<ele>166.576294</ele>
<time>2010-07-18T09:07:09Z</time>
<desc>lat.=55.676537, lon.=26.329514, Alt.=166.576294m. Speed=14.796000m/h.</desc>
<speed>4.110000</speed>
</trkpt>
<trkpt lat="55.676537" lon="26.329582">
<ele>166.064575</ele>
<time>2010-07-18T09:07:10Z</time>
<desc>lat.=55.676537, lon.=26.329582, Alt.=166.064575m. Speed=15.804000m/h.</desc>
<speed>4.390000</speed>
</trkpt>
<trkpt lat="55.676537" lon="26.329653">
<ele>166.181763</ele>
<time>2010-07-18T09:07:11Z</time>
<desc>lat.=55.676537, lon.=26.329653, Alt.=166.181763m. Speed=16.200001m/h.</desc>
<speed>4.500000</speed>
</trkpt>
<trkpt lat="55.676533" lon="26.329723">
<ele>165.845825</ele>
<time>2010-07-18T09:07:12Z</time>
<desc>lat.=55.676533, lon.=26.329723, Alt.=165.845825m. Speed=16.704000m/h.</desc>
<speed>4.640000</speed>
</trkpt>
<trkpt lat="55.676525" lon="26.329792">
<ele>165.779419</ele>
<time>2010-07-18T09:07:13Z</time>
<desc>lat.=55.676525, lon.=26.329792, Alt.=165.779419m. Speed=16.236000m/h.</desc>
<speed>4.510000</speed>
</trkpt>
<trkpt lat="55.676517" lon="26.329861">
<ele>165.470825</ele>
<time>2010-07-18T09:07:14Z</time>
<desc>lat.=55.676517, lon.=26.329861, Alt.=165.470825m. Speed=15.768000m/h.</desc>
<speed>4.380000</speed>
</trkpt>
<trkpt lat="55.676510" lon="26.329929">
<ele>165.134888</ele>
<time>2010-07-18T09:07:15Z</time>
<desc>lat.=55.676510, lon.=26.329929, Alt.=165.134888m. Speed=15.588000m/h.</desc>
<speed>4.330000</speed>
</trkpt>
<trkpt lat="55.676514" lon="26.330000">
<ele>166.099731</ele>
<time>2010-07-18T09:07:16Z</time>
<desc>lat.=55.676514, lon.=26.330000, Alt.=166.099731m. Speed=17.136000m/h.</desc>
<speed>4.760000</speed>
</trkpt>
<trkpt lat="55.676506" lon="26.330078">
<ele>166.095825</ele>
<time>2010-07-18T09:07:17Z</time>
<desc>lat.=55.676506, lon.=26.330078, Alt.=166.095825m. Speed=16.596001m/h.</desc>
<speed>4.610000</speed>
</trkpt>
<trkpt lat="55.676502" lon="26.330154">
<ele>166.291138</ele>
<time>2010-07-18T09:07:18Z</time>
<desc>lat.=55.676502, lon.=26.330154, Alt.=166.291138m. Speed=15.984000m/h.</desc>
<speed>4.440000</speed>
</trkpt>
<trkpt lat="55.676502" lon="26.330227">
<ele>166.267700</ele>
<time>2010-07-18T09:07:19Z</time>
<desc>lat.=55.676502, lon.=26.330227, Alt.=166.267700m. Speed=15.660000m/h.</desc>
<speed>4.350000</speed>
</trkpt>
<trkpt lat="55.676495" lon="26.330301">
<ele>166.107544</ele>
<time>2010-07-18T09:07:20Z</time>
<desc>lat.=55.676495, lon.=26.330301, Alt.=166.107544m. Speed=16.236000m/h.</desc>
<speed>4.510000</speed>
</trkpt>
<trkpt lat="55.676491" lon="26.330378">
<ele>166.185669</ele>
<time>2010-07-18T09:07:21Z</time>
<desc>lat.=55.676491, lon.=26.330378, Alt.=166.185669m. Speed=17.280001m/h.</desc>
<speed>4.800000</speed>
</trkpt>
<trkpt lat="55.676487" lon="26.330450">
<ele>166.443481</ele>
<time>2010-07-18T09:07:22Z</time>
<desc>lat.=55.676487, lon.=26.330450, Alt.=166.443481m. Speed=18.035999m/h.</desc>
<speed>5.010000</speed>
</trkpt>
<trkpt lat="55.676483" lon="26.330526">
<ele>167.088013</ele>
<time>2010-07-18T09:07:23Z</time>
<desc>lat.=55.676483, lon.=26.330526, Alt.=167.088013m. Speed=17.316000m/h.</desc>
<speed>4.810000</speed>
</trkpt>
<trkpt lat="55.676479" lon="26.330599">
<ele>167.392700</ele>
<time>2010-07-18T09:07:24Z</time>
<desc>lat.=55.676479, lon.=26.330599, Alt.=167.392700m. Speed=16.524000m/h.</desc>
<speed>4.590000</speed>
</trkpt>
<trkpt lat="55.676476" lon="26.330671">
<ele>167.619263</ele>
<time>2010-07-18T09:07:25Z</time>
<desc>lat.=55.676476, lon.=26.330671, Alt.=167.619263m. Speed=15.588000m/h.</desc>
<speed>4.330000</speed>
</trkpt>
<trkpt lat="55.676476" lon="26.330734">
<ele>167.841919</ele>
<time>2010-07-18T09:07:26Z</time>
<desc>lat.=55.676476, lon.=26.330734, Alt.=167.841919m. Speed=14.580000m/h.</desc>
<speed>4.050000</speed>
</trkpt>
<trkpt lat="55.676476" lon="26.330803">
<ele>168.545044</ele>
<time>2010-07-18T09:07:27Z</time>
<desc>lat.=55.676476, lon.=26.330803, Alt.=168.545044m. Speed=14.328000m/h.</desc>
<speed>3.980000</speed>
</trkpt>
<trkpt lat="55.676472" lon="26.330866">
<ele>168.814575</ele>
<time>2010-07-18T09:07:28Z</time>
<desc>lat.=55.676472, lon.=26.330866, Alt.=168.814575m. Speed=13.608000m/h.</desc>
<speed>3.780000</speed>
</trkpt>
<trkpt lat="55.676472" lon="26.330927">
<ele>168.880981</ele>
<time>2010-07-18T09:07:29Z</time>
<desc>lat.=55.676472, lon.=26.330927, Alt.=168.880981m. Speed=13.284000m/h.</desc>
<speed>3.690000</speed>
</trkpt>
<trkpt lat="55.676472" lon="26.330986">
<ele>169.052856</ele>
<time>2010-07-18T09:07:30Z</time>
<desc>lat.=55.676472, lon.=26.330986, Alt.=169.052856m. Speed=13.932000m/h.</desc>
<speed>3.870000</speed>
</trkpt>
<trkpt lat="55.676468" lon="26.331049">
<ele>169.205200</ele>
<time>2010-07-18T09:07:31Z</time>
<desc>lat.=55.676468, lon.=26.331049, Alt.=169.205200m. Speed=15.264000m/h.</desc>
<speed>4.240000</speed>
</trkpt>
<trkpt lat="55.676460" lon="26.331114">
<ele>168.752075</ele>
<time>2010-07-18T09:07:32Z</time>
<desc>lat.=55.676460, lon.=26.331114, Alt.=168.752075m. Speed=15.120000m/h.</desc>
<speed>4.200000</speed>
</trkpt>
<trkpt lat="55.676456" lon="26.331175">
<ele>168.588013</ele>
<time>2010-07-18T09:07:33Z</time>
<desc>lat.=55.676456, lon.=26.331175, Alt.=168.588013m. Speed=13.752000m/h.</desc>
<speed>3.820000</speed>
</trkpt>
<trkpt lat="55.676453" lon="26.331236">
<ele>168.291138</ele>
<time>2010-07-18T09:07:34Z</time>
<desc>lat.=55.676453, lon.=26.331236, Alt.=168.291138m. Speed=13.176000m/h.</desc>
<speed>3.660000</speed>
</trkpt>
<trkpt lat="55.676449" lon="26.331299">
<ele>167.728638</ele>
<time>2010-07-18T09:07:35Z</time>
<desc>lat.=55.676449, lon.=26.331299, Alt.=167.728638m. Speed=12.744000m/h.</desc>
<speed>3.540000</speed>
</trkpt>
<trkpt lat="55.676445" lon="26.331362">
<ele>166.947388</ele>
<time>2010-07-18T09:07:36Z</time>
<desc>lat.=55.676445, lon.=26.331362, Alt.=166.947388m. Speed=13.428000m/h.</desc>
<speed>3.730000</speed>
</trkpt>
<trkpt lat="55.676445" lon="26.331421">
<ele>166.830200</ele>
<time>2010-07-18T09:07:37Z</time>
<desc>lat.=55.676445, lon.=26.331421, Alt.=166.830200m. Speed=14.148000m/h.</desc>
<speed>3.930000</speed>
</trkpt>
<trkpt lat="55.676437" lon="26.331482">
<ele>166.216919</ele>
<time>2010-07-18T09:07:38Z</time>
<desc>lat.=55.676437, lon.=26.331482, Alt.=166.216919m. Speed=14.364000m/h.</desc>
<speed>3.990000</speed>
</trkpt>
<trkpt lat="55.676430" lon="26.331545">
<ele>165.244263</ele>
<time>2010-07-18T09:07:39Z</time>
<desc>lat.=55.676430, lon.=26.331545, Alt.=165.244263m. Speed=14.940000m/h.</desc>
<speed>4.150000</speed>
</trkpt>
<trkpt lat="55.676422" lon="26.331617">
<ele>163.795044</ele>
<time>2010-07-18T09:07:40Z</time>
<desc>lat.=55.676422, lon.=26.331617, Alt.=163.795044m. Speed=15.120000m/h.</desc>
<speed>4.200000</speed>
</trkpt>
<trkpt lat="55.676418" lon="26.331682">
<ele>163.545044</ele>
<time>2010-07-18T09:07:41Z</time>
<desc>lat.=55.676418, lon.=26.331682, Alt.=163.545044m. Speed=15.084000m/h.</desc>
<speed>4.190000</speed>
</trkpt>
<trkpt lat="55.676422" lon="26.331743">
<ele>163.572388</ele>
<time>2010-07-18T09:07:42Z</time>
<desc>lat.=55.676422, lon.=26.331743, Alt.=163.572388m. Speed=13.968000m/h.</desc>
<speed>3.880000</speed>
</trkpt>
<trkpt lat="55.676418" lon="26.331802">
<ele>163.408325</ele>
<time>2010-07-18T09:07:43Z</time>
<desc>lat.=55.676418, lon.=26.331802, Alt.=163.408325m. Speed=13.320000m/h.</desc>
<speed>3.700000</speed>
</trkpt>
<trkpt lat="55.676418" lon="26.331856">
<ele>163.279419</ele>
<time>2010-07-18T09:07:44Z</time>
<desc>lat.=55.676418, lon.=26.331856, Alt.=163.279419m. Speed=12.636000m/h.</desc>
<speed>3.510000</speed>
</trkpt>
<trkpt lat="55.676414" lon="26.331907">
<ele>162.935669</ele>
<time>2010-07-18T09:07:45Z</time>
<desc>lat.=55.676414, lon.=26.331907, Alt.=162.935669m. Speed=11.916000m/h.</desc>
<speed>3.310000</speed>
</trkpt>
<trkpt lat="55.676414" lon="26.331957">
<ele>162.670044</ele>
<time>2010-07-18T09:07:46Z</time>
<desc>lat.=55.676414, lon.=26.331957, Alt.=162.670044m. Speed=11.052000m/h.</desc>
<speed>3.070000</speed>
</trkpt>
<trkpt lat="55.676414" lon="26.332003">
<ele>161.978638</ele>
<time>2010-07-18T09:07:47Z</time>
<desc>lat.=55.676414, lon.=26.332003, Alt.=161.978638m. Speed=10.440000m/h.</desc>
<speed>2.900000</speed>
</trkpt>
<trkpt lat="55.676411" lon="26.332048">
<ele>162.177856</ele>
<time>2010-07-18T09:07:48Z</time>
<desc>lat.=55.676411, lon.=26.332048, Alt.=162.177856m. Speed=10.440000m/h.</desc>
<speed>2.900000</speed>
</trkpt>
<trkpt lat="55.676414" lon="26.332102">
<ele>162.912231</ele>
<time>2010-07-18T09:07:49Z</time>
<desc>lat.=55.676414, lon.=26.332102, Alt.=162.912231m. Speed=12.600000m/h.</desc>
<speed>3.500000</speed>
</trkpt>
<trkpt lat="55.676414" lon="26.332161">
<ele>163.271606</ele>
<time>2010-07-18T09:07:50Z</time>
<desc>lat.=55.676414, lon.=26.332161, Alt.=163.271606m. Speed=14.220000m/h.</desc>
<speed>3.950000</speed>
</trkpt>
<trkpt lat="55.676411" lon="26.332232">
<ele>163.361450</ele>
<time>2010-07-18T09:07:51Z</time>
<desc>lat.=55.676411, lon.=26.332232, Alt.=163.361450m. Speed=15.444000m/h.</desc>
<speed>4.290000</speed>
</trkpt>
<trkpt lat="55.676403" lon="26.332302">
<ele>163.295044</ele>
<time>2010-07-18T09:07:52Z</time>
<desc>lat.=55.676403, lon.=26.332302, Alt.=163.295044m. Speed=15.408000m/h.</desc>
<speed>4.280000</speed>
</trkpt>
<trkpt lat="55.676395" lon="26.332373">
<ele>162.822388</ele>
<time>2010-07-18T09:07:53Z</time>
<desc>lat.=55.676395, lon.=26.332373, Alt.=162.822388m. Speed=16.020000m/h.</desc>
<speed>4.450000</speed>
</trkpt>
<trkpt lat="55.676392" lon="26.332441">
<ele>163.099731</ele>
<time>2010-07-18T09:07:54Z</time>
<desc>lat.=55.676392, lon.=26.332441, Alt.=163.099731m. Speed=16.992001m/h.</desc>
<speed>4.720000</speed>
</trkpt>
<trkpt lat="55.676388" lon="26.332516">
<ele>163.259888</ele>
<time>2010-07-18T09:07:55Z</time>
<desc>lat.=55.676388, lon.=26.332516, Alt.=163.259888m. Speed=17.351999m/h.</desc>
<speed>4.820000</speed>
</trkpt>
<trkpt lat="55.676384" lon="26.332596">
<ele>163.486450</ele>
<time>2010-07-18T09:07:56Z</time>
<desc>lat.=55.676384, lon.=26.332596, Alt.=163.486450m. Speed=18.431999m/h.</desc>
<speed>5.120000</speed>
</trkpt>
<trkpt lat="55.676384" lon="26.332682">
<ele>163.658325</ele>
<time>2010-07-18T09:07:57Z</time>
<desc>lat.=55.676384, lon.=26.332682, Alt.=163.658325m. Speed=18.576000m/h.</desc>
<speed>5.160000</speed>
</trkpt>
<trkpt lat="55.676380" lon="26.332767">
<ele>163.810669</ele>
<time>2010-07-18T09:07:58Z</time>
<desc>lat.=55.676380, lon.=26.332767, Alt.=163.810669m. Speed=19.260000m/h.</desc>
<speed>5.350000</speed>
</trkpt>
<trkpt lat="55.676376" lon="26.332853">
<ele>164.423950</ele>
<time>2010-07-18T09:07:59Z</time>
<desc>lat.=55.676376, lon.=26.332853, Alt.=164.423950m. Speed=19.332001m/h.</desc>
<speed>5.370000</speed>
</trkpt>
<trkpt lat="55.676373" lon="26.332935">
<ele>164.748169</ele>
<time>2010-07-18T09:08:00Z</time>
<desc>lat.=55.676373, lon.=26.332935, Alt.=164.748169m. Speed=18.143999m/h.</desc>
<speed>5.040000</speed>
</trkpt>
<trkpt lat="55.676369" lon="26.333012">
<ele>165.056763</ele>
<time>2010-07-18T09:08:01Z</time>
<desc>lat.=55.676369, lon.=26.333012, Alt.=165.056763m. Speed=16.596001m/h.</desc>
<speed>4.610000</speed>
</trkpt>
<trkpt lat="55.676369" lon="26.333080">
<ele>165.490356</ele>
<time>2010-07-18T09:08:02Z</time>
<desc>lat.=55.676369, lon.=26.333080, Alt.=165.490356m. Speed=15.048000m/h.</desc>
<speed>4.180000</speed>
</trkpt>
<trkpt lat="55.676369" lon="26.333143">
<ele>165.935669</ele>
<time>2010-07-18T09:08:03Z</time>
<desc>lat.=55.676369, lon.=26.333143, Alt.=165.935669m. Speed=13.824000m/h.</desc>
<speed>3.840000</speed>
</trkpt>
<trkpt lat="55.676369" lon="26.333200">
<ele>166.392700</ele>
<time>2010-07-18T09:08:04Z</time>
<desc>lat.=55.676369, lon.=26.333200, Alt.=166.392700m. Speed=12.528000m/h.</desc>
<speed>3.480000</speed>
</trkpt>
<trkpt lat="55.676365" lon="26.333252">
<ele>166.705200</ele>
<time>2010-07-18T09:08:05Z</time>
<desc>lat.=55.676365, lon.=26.333252, Alt.=166.705200m. Speed=11.268000m/h.</desc>
<speed>3.130000</speed>
</trkpt>
<trkpt lat="55.676365" lon="26.333296">
<ele>166.884888</ele>
<time>2010-07-18T09:08:06Z</time>
<desc>lat.=55.676365, lon.=26.333296, Alt.=166.884888m. Speed=10.044000m/h.</desc>
<speed>2.790000</speed>
</trkpt>
<trkpt lat="55.676365" lon="26.333330">
<ele>168.209106</ele>
<time>2010-07-18T09:08:07Z</time>
<desc>lat.=55.676365, lon.=26.333330, Alt.=168.209106m. Speed=9.252000m/h.</desc>
<speed>2.570000</speed>
</trkpt>
<trkpt lat="55.676357" lon="26.333368">
<ele>167.959106</ele>
<time>2010-07-18T09:08:08Z</time>
<desc>lat.=55.676357, lon.=26.333368, Alt.=167.959106m. Speed=9.396000m/h.</desc>
<speed>2.610000</speed>
</trkpt>
<trkpt lat="55.676342" lon="26.333410">
<ele>166.892700</ele>
<time>2010-07-18T09:08:09Z</time>
<desc>lat.=55.676342, lon.=26.333410, Alt.=166.892700m. Speed=10.476000m/h.</desc>
<speed>2.910000</speed>
</trkpt>
<trkpt lat="55.676342" lon="26.333454">
<ele>167.115356</ele>
<time>2010-07-18T09:08:10Z</time>
<desc>lat.=55.676342, lon.=26.333454, Alt.=167.115356m. Speed=10.800000m/h.</desc>
<speed>3.000000</speed>
</trkpt>
<trkpt lat="55.676338" lon="26.333498">
<ele>167.201294</ele>
<time>2010-07-18T09:08:11Z</time>
<desc>lat.=55.676338, lon.=26.333498, Alt.=167.201294m. Speed=11.448000m/h.</desc>
<speed>3.180000</speed>
</trkpt>
<trkpt lat="55.676334" lon="26.333551">
<ele>166.627075</ele>
<time>2010-07-18T09:08:12Z</time>
<desc>lat.=55.676334, lon.=26.333551, Alt.=166.627075m. Speed=12.348000m/h.</desc>
<speed>3.430000</speed>
</trkpt>
<trkpt lat="55.676327" lon="26.333614">
<ele>165.314575</ele>
<time>2010-07-18T09:08:13Z</time>
<desc>lat.=55.676327, lon.=26.333614, Alt.=165.314575m. Speed=14.112000m/h.</desc>
<speed>3.920000</speed>
</trkpt>
<trkpt lat="55.676327" lon="26.333672">
<ele>165.595825</ele>
<time>2010-07-18T09:08:14Z</time>
<desc>lat.=55.676327, lon.=26.333672, Alt.=165.595825m. Speed=13.464000m/h.</desc>
<speed>3.740000</speed>
</trkpt>
<trkpt lat="55.676327" lon="26.333731">
<ele>165.806763</ele>
<time>2010-07-18T09:08:15Z</time>
<desc>lat.=55.676327, lon.=26.333731, Alt.=165.806763m. Speed=13.752000m/h.</desc>
<speed>3.820000</speed>
</trkpt>
<trkpt lat="55.676323" lon="26.333792">
<ele>165.947388</ele>
<time>2010-07-18T09:08:16Z</time>
<desc>lat.=55.676323, lon.=26.333792, Alt.=165.947388m. Speed=14.076000m/h.</desc>
<speed>3.910000</speed>
</trkpt>
<trkpt lat="55.676323" lon="26.333853">
<ele>166.302856</ele>
<time>2010-07-18T09:08:17Z</time>
<desc>lat.=55.676323, lon.=26.333853, Alt.=166.302856m. Speed=13.932000m/h.</desc>
<speed>3.870000</speed>
</trkpt>
<trkpt lat="55.676319" lon="26.333910">
<ele>166.345825</ele>
<time>2010-07-18T09:08:18Z</time>
<desc>lat.=55.676319, lon.=26.333910, Alt.=166.345825m. Speed=13.968000m/h.</desc>
<speed>3.880000</speed>
</trkpt>
<trkpt lat="55.676319" lon="26.333967">
<ele>166.642700</ele>
<time>2010-07-18T09:08:19Z</time>
<desc>lat.=55.676319, lon.=26.333967, Alt.=166.642700m. Speed=13.860000m/h.</desc>
<speed>3.850000</speed>
</trkpt>
<trkpt lat="55.676315" lon="26.334030">
<ele>166.494263</ele>
<time>2010-07-18T09:08:20Z</time>
<desc>lat.=55.676315, lon.=26.334030, Alt.=166.494263m. Speed=14.328000m/h.</desc>
<speed>3.980000</speed>
</trkpt>
<trkpt lat="55.676315" lon="26.334097">
<ele>166.588013</ele>
<time>2010-07-18T09:08:21Z</time>
<desc>lat.=55.676315, lon.=26.334097, Alt.=166.588013m. Speed=14.760000m/h.</desc>
<speed>4.100000</speed>
</trkpt>
<trkpt lat="55.676311" lon="26.334162">
<ele>166.420044</ele>
<time>2010-07-18T09:08:22Z</time>
<desc>lat.=55.676311, lon.=26.334162, Alt.=166.420044m. Speed=14.976000m/h.</desc>
<speed>4.160000</speed>
</trkpt>
<trkpt lat="55.676311" lon="26.334223">
<ele>166.763794</ele>
<time>2010-07-18T09:08:23Z</time>
<desc>lat.=55.676311, lon.=26.334223, Alt.=166.763794m. Speed=14.148000m/h.</desc>
<speed>3.930000</speed>
</trkpt>
<trkpt lat="55.676315" lon="26.334278">
<ele>167.537231</ele>
<time>2010-07-18T09:08:24Z</time>
<desc>lat.=55.676315, lon.=26.334278, Alt.=167.537231m. Speed=12.924000m/h.</desc>
<speed>3.590000</speed>
</trkpt>
<trkpt lat="55.676319" lon="26.334335">
<ele>168.197388</ele>
<time>2010-07-18T09:08:25Z</time>
<desc>lat.=55.676319, lon.=26.334335, Alt.=168.197388m. Speed=11.700000m/h.</desc>
<speed>3.250000</speed>
</trkpt>
<trkpt lat="55.676319" lon="26.334383">
<ele>168.435669</ele>
<time>2010-07-18T09:08:26Z</time>
<desc>lat.=55.676319, lon.=26.334383, Alt.=168.435669m. Speed=10.080000m/h.</desc>
<speed>2.800000</speed>
</trkpt>
<trkpt lat="55.676315" lon="26.334427">
<ele>166.732544</ele>
<time>2010-07-18T09:08:27Z</time>
<desc>lat.=55.676315, lon.=26.334427, Alt.=166.732544m. Speed=9.000000m/h.</desc>
<speed>2.500000</speed>
</trkpt>
<trkpt lat="55.676323" lon="26.334455">
<ele>168.541138</ele>
<time>2010-07-18T09:08:28Z</time>
<desc>lat.=55.676323, lon.=26.334455, Alt.=168.541138m. Speed=8.496000m/h.</desc>
<speed>2.360000</speed>
</trkpt>
<trkpt lat="55.676315" lon="26.334494">
<ele>168.048950</ele>
<time>2010-07-18T09:08:29Z</time>
<desc>lat.=55.676315, lon.=26.334494, Alt.=168.048950m. Speed=9.756000m/h.</desc>
<speed>2.710000</speed>
</trkpt>
<trkpt lat="55.676311" lon="26.334538">
<ele>168.170044</ele>
<time>2010-07-18T09:08:30Z</time>
<desc>lat.=55.676311, lon.=26.334538, Alt.=168.170044m. Speed=9.684000m/h.</desc>
<speed>2.690000</speed>
</trkpt>
<trkpt lat="55.676311" lon="26.334579">
<ele>168.115356</ele>
<time>2010-07-18T09:08:31Z</time>
<desc>lat.=55.676311, lon.=26.334579, Alt.=168.115356m. Speed=10.764000m/h.</desc>
<speed>2.990000</speed>
</trkpt>
<trkpt lat="55.676323" lon="26.334621">
<ele>170.146606</ele>
<time>2010-07-18T09:08:32Z</time>
<desc>lat.=55.676323, lon.=26.334621, Alt.=170.146606m. Speed=11.376000m/h.</desc>
<speed>3.160000</speed>
</trkpt>
<trkpt lat="55.676323" lon="26.334669">
<ele>170.849731</ele>
<time>2010-07-18T09:08:33Z</time>
<desc>lat.=55.676323, lon.=26.334669, Alt.=170.849731m. Speed=11.988000m/h.</desc>
<speed>3.330000</speed>
</trkpt>
<trkpt lat="55.676327" lon="26.334717">
<ele>171.783325</ele>
<time>2010-07-18T09:08:34Z</time>
<desc>lat.=55.676327, lon.=26.334717, Alt.=171.783325m. Speed=10.512000m/h.</desc>
<speed>2.920000</speed>
</trkpt>
<trkpt lat="55.676331" lon="26.334761">
<ele>172.630981</ele>
<time>2010-07-18T09:08:35Z</time>
<desc>lat.=55.676331, lon.=26.334761, Alt.=172.630981m. Speed=9.648000m/h.</desc>
<speed>2.680000</speed>
</trkpt>
<trkpt lat="55.676334" lon="26.334806">
<ele>173.111450</ele>
<time>2010-07-18T09:08:36Z</time>
<desc>lat.=55.676334, lon.=26.334806, Alt.=173.111450m. Speed=10.404000m/h.</desc>
<speed>2.890000</speed>
</trkpt>
<trkpt lat="55.676338" lon="26.334854">
<ele>173.795044</ele>
<time>2010-07-18T09:08:37Z</time>
<desc>lat.=55.676338, lon.=26.334854, Alt.=173.795044m. Speed=12.096000m/h.</desc>
<speed>3.360000</speed>
</trkpt>
<trkpt lat="55.676338" lon="26.334911">
<ele>173.752075</ele>
<time>2010-07-18T09:08:38Z</time>
<desc>lat.=55.676338, lon.=26.334911, Alt.=173.752075m. Speed=11.808000m/h.</desc>
<speed>3.280000</speed>
</trkpt>
<trkpt lat="55.676338" lon="26.334963">
<ele>173.634888</ele>
<time>2010-07-18T09:08:39Z</time>
<desc>lat.=55.676338, lon.=26.334963, Alt.=173.634888m. Speed=11.052000m/h.</desc>
<speed>3.070000</speed>
</trkpt>
<trkpt lat="55.676346" lon="26.335009">
<ele>173.439575</ele>
<time>2010-07-18T09:08:40Z</time>
<desc>lat.=55.676346, lon.=26.335009, Alt.=173.439575m. Speed=10.044000m/h.</desc>
<speed>2.790000</speed>
</trkpt>
<trkpt lat="55.676353" lon="26.335049">
<ele>173.564575</ele>
<time>2010-07-18T09:08:41Z</time>
<desc>lat.=55.676353, lon.=26.335049, Alt.=173.564575m. Speed=9.612000m/h.</desc>
<speed>2.670000</speed>
</trkpt>
<trkpt lat="55.676357" lon="26.335087">
<ele>172.646606</ele>
<time>2010-07-18T09:08:42Z</time>
<desc>lat.=55.676357, lon.=26.335087, Alt.=172.646606m. Speed=10.116000m/h.</desc>
<speed>2.810000</speed>
</trkpt>
<trkpt lat="55.676346" lon="26.335127">
<ele>172.478638</ele>
<time>2010-07-18T09:08:43Z</time>
<desc>lat.=55.676346, lon.=26.335127, Alt.=172.478638m. Speed=9.396000m/h.</desc>
<speed>2.610000</speed>
</trkpt>
<trkpt lat="55.676342" lon="26.335163">
<ele>172.463013</ele>
<time>2010-07-18T09:08:44Z</time>
<desc>lat.=55.676342, lon.=26.335163, Alt.=172.463013m. Speed=9.072000m/h.</desc>
<speed>2.520000</speed>
</trkpt>
<trkpt lat="55.676342" lon="26.335205">
<ele>171.767700</ele>
<time>2010-07-18T09:08:45Z</time>
<desc>lat.=55.676342, lon.=26.335205, Alt.=171.767700m. Speed=9.828000m/h.</desc>
<speed>2.730000</speed>
</trkpt>
<trkpt lat="55.676342" lon="26.335249">
<ele>171.482544</ele>
<time>2010-07-18T09:08:46Z</time>
<desc>lat.=55.676342, lon.=26.335249, Alt.=171.482544m. Speed=9.504000m/h.</desc>
<speed>2.640000</speed>
</trkpt>
<trkpt lat="55.676346" lon="26.335285">
<ele>171.576294</ele>
<time>2010-07-18T09:08:47Z</time>
<desc>lat.=55.676346, lon.=26.335285, Alt.=171.576294m. Speed=8.964000m/h.</desc>
<speed>2.490000</speed>
</trkpt>
<trkpt lat="55.676350" lon="26.335333">
<ele>170.474731</ele>
<time>2010-07-18T09:08:48Z</time>
<desc>lat.=55.676350, lon.=26.335333, Alt.=170.474731m. Speed=9.972000m/h.</desc>
<speed>2.770000</speed>
</trkpt>
<trkpt lat="55.676353" lon="26.335379">
<ele>168.474731</ele>
<time>2010-07-18T09:08:49Z</time>
<desc>lat.=55.676353, lon.=26.335379, Alt.=168.474731m. Speed=9.072000m/h.</desc>
<speed>2.520000</speed>
</trkpt>
<trkpt lat="55.676353" lon="26.335419">
<ele>168.513794</ele>
<time>2010-07-18T09:08:50Z</time>
<desc>lat.=55.676353, lon.=26.335419, Alt.=168.513794m. Speed=7.740000m/h.</desc>
<speed>2.150000</speed>
</trkpt>
<trkpt lat="55.676353" lon="26.335449">
<ele>168.474731</ele>
<time>2010-07-18T09:08:51Z</time>
<desc>lat.=55.676353, lon.=26.335449, Alt.=168.474731m. Speed=6.660000m/h.</desc>
<speed>1.850000</speed>
</trkpt>
<trkpt lat="55.676350" lon="26.335476">
<ele>168.252075</ele>
<time>2010-07-18T09:08:52Z</time>
<desc>lat.=55.676350, lon.=26.335476, Alt.=168.252075m. Speed=5.940000m/h.</desc>
<speed>1.650000</speed>
</trkpt>
<trkpt lat="55.676346" lon="26.335501">
<ele>168.033325</ele>
<time>2010-07-18T09:08:53Z</time>
<desc>lat.=55.676346, lon.=26.335501, Alt.=168.033325m. Speed=5.580000m/h.</desc>
<speed>1.550000</speed>
</trkpt>
<trkpt lat="55.676342" lon="26.335531">
<ele>167.752075</ele>
<time>2010-07-18T09:08:54Z</time>
<desc>lat.=55.676342, lon.=26.335531, Alt.=167.752075m. Speed=7.452000m/h.</desc>
<speed>2.070000</speed>
</trkpt>
<trkpt lat="55.676342" lon="26.335569">
<ele>167.505981</ele>
<time>2010-07-18T09:08:55Z</time>
<desc>lat.=55.676342, lon.=26.335569, Alt.=167.505981m. Speed=7.092000m/h.</desc>
<speed>1.970000</speed>
</trkpt>
<trkpt lat="55.676334" lon="26.335600">
<ele>166.974731</ele>
<time>2010-07-18T09:08:56Z</time>
<desc>lat.=55.676334, lon.=26.335600, Alt.=166.974731m. Speed=6.336000m/h.</desc>
<speed>1.760000</speed>
</trkpt>
<trkpt lat="55.676323" lon="26.335625">
<ele>166.998169</ele>
<time>2010-07-18T09:08:57Z</time>
<desc>lat.=55.676323, lon.=26.335625, Alt.=166.998169m. Speed=5.904000m/h.</desc>
<speed>1.640000</speed>
</trkpt>
<trkpt lat="55.676311" lon="26.335648">
<ele>166.830200</ele>
<time>2010-07-18T09:08:58Z</time>
<desc>lat.=55.676311, lon.=26.335648, Alt.=166.830200m. Speed=6.768000m/h.</desc>
<speed>1.880000</speed>
</trkpt>
<trkpt lat="55.676304" lon="26.335669">
<ele>167.068481</ele>
<time>2010-07-18T09:08:59Z</time>
<desc>lat.=55.676304, lon.=26.335669, Alt.=167.068481m. Speed=8.172000m/h.</desc>
<speed>2.270000</speed>
</trkpt>
<trkpt lat="55.676281" lon="26.335688">
<ele>166.900513</ele>
<time>2010-07-18T09:09:00Z</time>
<desc>lat.=55.676281, lon.=26.335688, Alt.=166.900513m. Speed=10.404000m/h.</desc>
<speed>2.890000</speed>
</trkpt>
<trkpt lat="55.676254" lon="26.335705">
<ele>166.588013</ele>
<time>2010-07-18T09:09:01Z</time>
<desc>lat.=55.676254, lon.=26.335705, Alt.=166.588013m. Speed=11.916000m/h.</desc>
<speed>3.310000</speed>
</trkpt>
<trkpt lat="55.676220" lon="26.335720">
<ele>165.787231</ele>
<time>2010-07-18T09:09:02Z</time>
<desc>lat.=55.676220, lon.=26.335720, Alt.=165.787231m. Speed=13.536000m/h.</desc>
<speed>3.760000</speed>
</trkpt>
<trkpt lat="55.676178" lon="26.335728">
<ele>164.752075</ele>
<time>2010-07-18T09:09:03Z</time>
<desc>lat.=55.676178, lon.=26.335728, Alt.=164.752075m. Speed=16.416000m/h.</desc>
<speed>4.560000</speed>
</trkpt>
<trkpt lat="55.676136" lon="26.335716">
<ele>164.142700</ele>
<time>2010-07-18T09:09:04Z</time>
<desc>lat.=55.676136, lon.=26.335716, Alt.=164.142700m. Speed=20.268000m/h.</desc>
<speed>5.630000</speed>
</trkpt>
<trkpt lat="55.676083" lon="26.335709">
<ele>163.740356</ele>
<time>2010-07-18T09:09:05Z</time>
<desc>lat.=55.676083, lon.=26.335709, Alt.=163.740356m. Speed=20.952000m/h.</desc>
<speed>5.820000</speed>
</trkpt>
<trkpt lat="55.676029" lon="26.335718">
<ele>163.216919</ele>
<time>2010-07-18T09:09:06Z</time>
<desc>lat.=55.676029, lon.=26.335718, Alt.=163.216919m. Speed=20.591999m/h.</desc>
<speed>5.720000</speed>
</trkpt>
<trkpt lat="55.675976" lon="26.335732">
<ele>163.052856</ele>
<time>2010-07-18T09:09:07Z</time>
<desc>lat.=55.675976, lon.=26.335732, Alt.=163.052856m. Speed=19.728001m/h.</desc>
<speed>5.480000</speed>
</trkpt>
<trkpt lat="55.675930" lon="26.335743">
<ele>163.048950</ele>
<time>2010-07-18T09:09:08Z</time>
<desc>lat.=55.675930, lon.=26.335743, Alt.=163.048950m. Speed=18.360001m/h.</desc>
<speed>5.100000</speed>
</trkpt>
<trkpt lat="55.675884" lon="26.335762">
<ele>163.115356</ele>
<time>2010-07-18T09:09:09Z</time>
<desc>lat.=55.675884, lon.=26.335762, Alt.=163.115356m. Speed=17.964001m/h.</desc>
<speed>4.990000</speed>
</trkpt>
<trkpt lat="55.675838" lon="26.335779">
<ele>163.052856</ele>
<time>2010-07-18T09:09:10Z</time>
<desc>lat.=55.675838, lon.=26.335779, Alt.=163.052856m. Speed=17.172001m/h.</desc>
<speed>4.770000</speed>
</trkpt>
<trkpt lat="55.675797" lon="26.335789">
<ele>163.388794</ele>
<time>2010-07-18T09:09:11Z</time>
<desc>lat.=55.675797, lon.=26.335789, Alt.=163.388794m. Speed=16.596001m/h.</desc>
<speed>4.610000</speed>
</trkpt>
<trkpt lat="55.675758" lon="26.335794">
<ele>163.591919</ele>
<time>2010-07-18T09:09:12Z</time>
<desc>lat.=55.675758, lon.=26.335794, Alt.=163.591919m. Speed=15.624000m/h.</desc>
<speed>4.340000</speed>
</trkpt>
<trkpt lat="55.675716" lon="26.335810">
<ele>163.529419</ele>
<time>2010-07-18T09:09:13Z</time>
<desc>lat.=55.675716, lon.=26.335810, Alt.=163.529419m. Speed=15.120000m/h.</desc>
<speed>4.200000</speed>
</trkpt>
<trkpt lat="55.675678" lon="26.335821">
<ele>163.709106</ele>
<time>2010-07-18T09:09:14Z</time>
<desc>lat.=55.675678, lon.=26.335821, Alt.=163.709106m. Speed=15.120000m/h.</desc>
<speed>4.200000</speed>
</trkpt>
<trkpt lat="55.675640" lon="26.335833">
<ele>163.740356</ele>
<time>2010-07-18T09:09:15Z</time>
<desc>lat.=55.675640, lon.=26.335833, Alt.=163.740356m. Speed=14.904000m/h.</desc>
<speed>4.140000</speed>
</trkpt>
<trkpt lat="55.675606" lon="26.335842">
<ele>163.970825</ele>
<time>2010-07-18T09:09:16Z</time>
<desc>lat.=55.675606, lon.=26.335842, Alt.=163.970825m. Speed=12.744000m/h.</desc>
<speed>3.540000</speed>
</trkpt>
<trkpt lat="55.675579" lon="26.335855">
<ele>164.095825</ele>
<time>2010-07-18T09:09:17Z</time>
<desc>lat.=55.675579, lon.=26.335855, Alt.=164.095825m. Speed=11.844000m/h.</desc>
<speed>3.290000</speed>
</trkpt>
<trkpt lat="55.675552" lon="26.335873">
<ele>164.103638</ele>
<time>2010-07-18T09:09:18Z</time>
<desc>lat.=55.675552, lon.=26.335873, Alt.=164.103638m. Speed=12.852000m/h.</desc>
<speed>3.570000</speed>
</trkpt>
<trkpt lat="55.675522" lon="26.335892">
<ele>164.048950</ele>
<time>2010-07-18T09:09:19Z</time>
<desc>lat.=55.675522, lon.=26.335892, Alt.=164.048950m. Speed=12.276000m/h.</desc>
<speed>3.410000</speed>
</trkpt>
<trkpt lat="55.675495" lon="26.335911">
<ele>163.834106</ele>
<time>2010-07-18T09:09:20Z</time>
<desc>lat.=55.675495, lon.=26.335911, Alt.=163.834106m. Speed=11.916000m/h.</desc>
<speed>3.310000</speed>
</trkpt>
<trkpt lat="55.675465" lon="26.335930">
<ele>163.451294</ele>
<time>2010-07-18T09:09:21Z</time>
<desc>lat.=55.675465, lon.=26.335930, Alt.=163.451294m. Speed=12.384000m/h.</desc>
<speed>3.440000</speed>
</trkpt>
<trkpt lat="55.675438" lon="26.335949">
<ele>163.478638</ele>
<time>2010-07-18T09:09:22Z</time>
<desc>lat.=55.675438, lon.=26.335949, Alt.=163.478638m. Speed=12.816000m/h.</desc>
<speed>3.560000</speed>
</trkpt>
<trkpt lat="55.675407" lon="26.335974">
<ele>163.302856</ele>
<time>2010-07-18T09:09:23Z</time>
<desc>lat.=55.675407, lon.=26.335974, Alt.=163.302856m. Speed=13.464000m/h.</desc>
<speed>3.740000</speed>
</trkpt>
<trkpt lat="55.675377" lon="26.335993">
<ele>163.005981</ele>
<time>2010-07-18T09:09:24Z</time>
<desc>lat.=55.675377, lon.=26.335993, Alt.=163.005981m. Speed=14.904000m/h.</desc>
<speed>4.140000</speed>
</trkpt>
<trkpt lat="55.675339" lon="26.336014">
<ele>162.627075</ele>
<time>2010-07-18T09:09:25Z</time>
<desc>lat.=55.675339, lon.=26.336014, Alt.=162.627075m. Speed=15.876000m/h.</desc>
<speed>4.410000</speed>
</trkpt>
<trkpt lat="55.675304" lon="26.336037">
<ele>162.209106</ele>
<time>2010-07-18T09:09:26Z</time>
<desc>lat.=55.675304, lon.=26.336037, Alt.=162.209106m. Speed=15.768000m/h.</desc>
<speed>4.380000</speed>
</trkpt>
<trkpt lat="55.675270" lon="26.336056">
<ele>161.904419</ele>
<time>2010-07-18T09:09:27Z</time>
<desc>lat.=55.675270, lon.=26.336056, Alt.=161.904419m. Speed=14.940000m/h.</desc>
<speed>4.150000</speed>
</trkpt>
<trkpt lat="55.675232" lon="26.336079">
<ele>161.517700</ele>
<time>2010-07-18T09:09:28Z</time>
<desc>lat.=55.675232, lon.=26.336079, Alt.=161.517700m. Speed=16.344000m/h.</desc>
<speed>4.540000</speed>
</trkpt>
<trkpt lat="55.675190" lon="26.336109">
<ele>160.892700</ele>
<time>2010-07-18T09:09:29Z</time>
<desc>lat.=55.675190, lon.=26.336109, Alt.=160.892700m. Speed=18.396000m/h.</desc>
<speed>5.110000</speed>
</trkpt>
<trkpt lat="55.675148" lon="26.336157">
<ele>160.306763</ele>
<time>2010-07-18T09:09:30Z</time>
<desc>lat.=55.675148, lon.=26.336157, Alt.=160.306763m. Speed=19.260000m/h.</desc>
<speed>5.350000</speed>
</trkpt>
<trkpt lat="55.675106" lon="26.336212">
<ele>160.095825</ele>
<time>2010-07-18T09:09:31Z</time>
<desc>lat.=55.675106, lon.=26.336212, Alt.=160.095825m. Speed=20.232000m/h.</desc>
<speed>5.620000</speed>
</trkpt>
<trkpt lat="55.675068" lon="26.336271">
<ele>159.681763</ele>
<time>2010-07-18T09:09:32Z</time>
<desc>lat.=55.675068, lon.=26.336271, Alt.=159.681763m. Speed=20.375999m/h.</desc>
<speed>5.660000</speed>
</trkpt>
<trkpt lat="55.675030" lon="26.336334">
<ele>159.689575</ele>
<time>2010-07-18T09:09:33Z</time>
<desc>lat.=55.675030, lon.=26.336334, Alt.=159.689575m. Speed=20.952000m/h.</desc>
<speed>5.820000</speed>
</trkpt>
<trkpt lat="55.674988" lon="26.336393">
<ele>159.455200</ele>
<time>2010-07-18T09:09:34Z</time>
<desc>lat.=55.674988, lon.=26.336393, Alt.=159.455200m. Speed=19.764000m/h.</desc>
<speed>5.490000</speed>
</trkpt>
<trkpt lat="55.674950" lon="26.336445">
<ele>159.392700</ele>
<time>2010-07-18T09:09:35Z</time>
<desc>lat.=55.674950, lon.=26.336445, Alt.=159.392700m. Speed=17.927999m/h.</desc>
<speed>4.980000</speed>
</trkpt>
<trkpt lat="55.674915" lon="26.336477">
<ele>159.287231</ele>
<time>2010-07-18T09:09:36Z</time>
<desc>lat.=55.674915, lon.=26.336477, Alt.=159.287231m. Speed=15.840000m/h.</desc>
<speed>4.400000</speed>
</trkpt>
<trkpt lat="55.674881" lon="26.336496">
<ele>159.267700</ele>
<time>2010-07-18T09:09:37Z</time>
<desc>lat.=55.674881, lon.=26.336496, Alt.=159.267700m. Speed=13.608000m/h.</desc>
<speed>3.780000</speed>
</trkpt>
<trkpt lat="55.674854" lon="26.336504">
<ele>159.154419</ele>
<time>2010-07-18T09:09:38Z</time>
<desc>lat.=55.674854, lon.=26.336504, Alt.=159.154419m. Speed=11.628000m/h.</desc>
<speed>3.230000</speed>
</trkpt>
<trkpt lat="55.674828" lon="26.336500">
<ele>159.384888</ele>
<time>2010-07-18T09:09:39Z</time>
<desc>lat.=55.674828, lon.=26.336500, Alt.=159.384888m. Speed=10.404000m/h.</desc>
<speed>2.890000</speed>
</trkpt>
<trkpt lat="55.674805" lon="26.336504">
<ele>159.627075</ele>
<time>2010-07-18T09:09:40Z</time>
<desc>lat.=55.674805, lon.=26.336504, Alt.=159.627075m. Speed=9.648000m/h.</desc>
<speed>2.680000</speed>
</trkpt>
<trkpt lat="55.674778" lon="26.336512">
<ele>159.818481</ele>
<time>2010-07-18T09:09:41Z</time>
<desc>lat.=55.674778, lon.=26.336512, Alt.=159.818481m. Speed=11.124000m/h.</desc>
<speed>3.090000</speed>
</trkpt>
<trkpt lat="55.674755" lon="26.336523">
<ele>160.091919</ele>
<time>2010-07-18T09:09:42Z</time>
<desc>lat.=55.674755, lon.=26.336523, Alt.=160.091919m. Speed=10.800000m/h.</desc>
<speed>3.000000</speed>
</trkpt>
<trkpt lat="55.674736" lon="26.336536">
<ele>160.888794</ele>
<time>2010-07-18T09:09:43Z</time>
<desc>lat.=55.674736, lon.=26.336536, Alt.=160.888794m. Speed=9.036000m/h.</desc>
<speed>2.510000</speed>
</trkpt>
<trkpt lat="55.674713" lon="26.336542">
<ele>160.369263</ele>
<time>2010-07-18T09:09:44Z</time>
<desc>lat.=55.674713, lon.=26.336542, Alt.=160.369263m. Speed=7.524000m/h.</desc>
<speed>2.090000</speed>
</trkpt>
<trkpt lat="55.674694" lon="26.336540">
<ele>159.939575</ele>
<time>2010-07-18T09:09:45Z</time>
<desc>lat.=55.674694, lon.=26.336540, Alt.=159.939575m. Speed=5.580000m/h.</desc>
<speed>1.550000</speed>
</trkpt>
<trkpt lat="55.674683" lon="26.336536">
<ele>159.861450</ele>
<time>2010-07-18T09:09:46Z</time>
<desc>lat.=55.674683, lon.=26.336536, Alt.=159.861450m. Speed=5.076000m/h.</desc>
<speed>1.410000</speed>
</trkpt>
<trkpt lat="55.674660" lon="26.336538">
<ele>159.095825</ele>
<time>2010-07-18T09:09:47Z</time>
<desc>lat.=55.674660, lon.=26.336538, Alt.=159.095825m. Speed=5.868000m/h.</desc>
<speed>1.630000</speed>
</trkpt>
<trkpt lat="55.674652" lon="26.336527">
<ele>158.826294</ele>
<time>2010-07-18T09:09:48Z</time>
<desc>lat.=55.674652, lon.=26.336527, Alt.=158.826294m. Speed=6.408000m/h.</desc>
<speed>1.780000</speed>
</trkpt>
<trkpt lat="55.674641" lon="26.336519">
<ele>158.576294</ele>
<time>2010-07-18T09:09:49Z</time>
<desc>lat.=55.674641, lon.=26.336519, Alt.=158.576294m. Speed=5.760000m/h.</desc>
<speed>1.600000</speed>
</trkpt>
<trkpt lat="55.674633" lon="26.336504">
<ele>157.853638</ele>
<time>2010-07-18T09:09:50Z</time>
<desc>lat.=55.674633, lon.=26.336504, Alt.=157.853638m. Speed=1.944000m/h.</desc>
<speed>0.540000</speed>
</trkpt>
<trkpt lat="55.674625" lon="26.336514">
<ele>157.568481</ele>
<time>2010-07-18T09:09:51Z</time>
<desc>lat.=55.674625, lon.=26.336514, Alt.=157.568481m. Speed=0.288000m/h.</desc>
<speed>0.080000</speed>
</trkpt>
<trkpt lat="55.674629" lon="26.336519">
<ele>158.357544</ele>
<time>2010-07-18T09:09:52Z</time>
<desc>lat.=55.674629, lon.=26.336519, Alt.=158.357544m. Speed=0.504000m/h.</desc>
<speed>0.140000</speed>
</trkpt>
<trkpt lat="55.674633" lon="26.336519">
<ele>158.779419</ele>
<time>2010-07-18T09:09:53Z</time>
<desc>lat.=55.674633, lon.=26.336519, Alt.=158.779419m. Speed=0.972000m/h.</desc>
<speed>0.270000</speed>
</trkpt>
<trkpt lat="55.674637" lon="26.336517">
<ele>158.748169</ele>
<time>2010-07-18T09:09:54Z</time>
<desc>lat.=55.674637, lon.=26.336517, Alt.=158.748169m. Speed=0.648000m/h.</desc>
<speed>0.180000</speed>
</trkpt>
<trkpt lat="55.674637" lon="26.336517">
<ele>158.736450</ele>
<time>2010-07-18T09:09:55Z</time>
<desc>lat.=55.674637, lon.=26.336517, Alt.=158.736450m. Speed=0.108000m/h.</desc>
<speed>0.030000</speed>
</trkpt>
<trkpt lat="55.674637" lon="26.336517">
<ele>158.732544</ele>
<time>2010-07-18T09:09:56Z</time>
<desc>lat.=55.674637, lon.=26.336517, Alt.=158.732544m. Speed=1.800000m/h.</desc>
<speed>0.500000</speed>
</trkpt>
<trkpt lat="55.674633" lon="26.336512">
<ele>158.720825</ele>
<time>2010-07-18T09:09:57Z</time>
<desc>lat.=55.674633, lon.=26.336512, Alt.=158.720825m. Speed=1.296000m/h.</desc>
<speed>0.360000</speed>
</trkpt>
<trkpt lat="55.674633" lon="26.336508">
<ele>158.650513</ele>
<time>2010-07-18T09:09:58Z</time>
<desc>lat.=55.674633, lon.=26.336508, Alt.=158.650513m. Speed=1.260000m/h.</desc>
<speed>0.350000</speed>
</trkpt>
<trkpt lat="55.674629" lon="26.336502">
<ele>158.545044</ele>
<time>2010-07-18T09:09:59Z</time>
<desc>lat.=55.674629, lon.=26.336502, Alt.=158.545044m. Speed=2.520000m/h.</desc>
<speed>0.700000</speed>
</trkpt>
<trkpt lat="55.674629" lon="26.336493">
<ele>158.427856</ele>
<time>2010-07-18T09:10:00Z</time>
<desc>lat.=55.674629, lon.=26.336493, Alt.=158.427856m. Speed=2.520000m/h.</desc>
<speed>0.700000</speed>
</trkpt>
<trkpt lat="55.674629" lon="26.336481">
<ele>158.302856</ele>
<time>2010-07-18T09:10:01Z</time>
<desc>lat.=55.674629, lon.=26.336481, Alt.=158.302856m. Speed=3.384000m/h.</desc>
<speed>0.940000</speed>
</trkpt>
<trkpt lat="55.674629" lon="26.336466">
<ele>158.158325</ele>
<time>2010-07-18T09:10:02Z</time>
<desc>lat.=55.674629, lon.=26.336466, Alt.=158.158325m. Speed=2.448000m/h.</desc>
<speed>0.680000</speed>
</trkpt>
<trkpt lat="55.674633" lon="26.336456">
<ele>158.127075</ele>
<time>2010-07-18T09:10:03Z</time>
<desc>lat.=55.674633, lon.=26.336456, Alt.=158.127075m. Speed=3.348000m/h.</desc>
<speed>0.930000</speed>
</trkpt>
<trkpt lat="55.674637" lon="26.336443">
<ele>158.107544</ele>
<time>2010-07-18T09:10:04Z</time>
<desc>lat.=55.674637, lon.=26.336443, Alt.=158.107544m. Speed=1.044000m/h.</desc>
<speed>0.290000</speed>
</trkpt>
<trkpt lat="55.674637" lon="26.336437">
<ele>158.033325</ele>
<time>2010-07-18T09:10:05Z</time>
<desc>lat.=55.674637, lon.=26.336437, Alt.=158.033325m. Speed=1.116000m/h.</desc>
<speed>0.310000</speed>
</trkpt>
<trkpt lat="55.674637" lon="26.336433">
<ele>158.013794</ele>
<time>2010-07-18T09:10:06Z</time>
<desc>lat.=55.674637, lon.=26.336433, Alt.=158.013794m. Speed=1.908000m/h.</desc>
<speed>0.530000</speed>
</trkpt>
<trkpt lat="55.674641" lon="26.336426">
<ele>157.978638</ele>
<time>2010-07-18T09:10:07Z</time>
<desc>lat.=55.674641, lon.=26.336426, Alt.=157.978638m. Speed=1.836000m/h.</desc>
<speed>0.510000</speed>
</trkpt>
<trkpt lat="55.674641" lon="26.336418">
<ele>157.931763</ele>
<time>2010-07-18T09:10:08Z</time>
<desc>lat.=55.674641, lon.=26.336418, Alt.=157.931763m. Speed=1.836000m/h.</desc>
<speed>0.510000</speed>
</trkpt>
<trkpt lat="55.674644" lon="26.336411">
<ele>157.892700</ele>
<time>2010-07-18T09:10:09Z</time>
<desc>lat.=55.674644, lon.=26.336411, Alt.=157.892700m. Speed=3.060000m/h.</desc>
<speed>0.850000</speed>
</trkpt>
<trkpt lat="55.674644" lon="26.336399">
<ele>157.810669</ele>
<time>2010-07-18T09:10:10Z</time>
<desc>lat.=55.674644, lon.=26.336399, Alt.=157.810669m. Speed=3.492000m/h.</desc>
<speed>0.970000</speed>
</trkpt>
<trkpt lat="55.674648" lon="26.336386">
<ele>157.752075</ele>
<time>2010-07-18T09:10:11Z</time>
<desc>lat.=55.674648, lon.=26.336386, Alt.=157.752075m. Speed=3.960000m/h.</desc>
<speed>1.100000</speed>
</trkpt>
<trkpt lat="55.674656" lon="26.336365">
<ele>157.838013</ele>
<time>2010-07-18T09:10:12Z</time>
<desc>lat.=55.674656, lon.=26.336365, Alt.=157.838013m. Speed=3.816000m/h.</desc>
<speed>1.060000</speed>
</trkpt>
<trkpt lat="55.674660" lon="26.336351">
<ele>158.009888</ele>
<time>2010-07-18T09:10:13Z</time>
<desc>lat.=55.674660, lon.=26.336351, Alt.=158.009888m. Speed=4.356000m/h.</desc>
<speed>1.210000</speed>
</trkpt>
<trkpt lat="55.674660" lon="26.336340">
<ele>157.498169</ele>
<time>2010-07-18T09:10:14Z</time>
<desc>lat.=55.674660, lon.=26.336340, Alt.=157.498169m. Speed=2.664000m/h.</desc>
<speed>0.740000</speed>
</trkpt>
<trkpt lat="55.674660" lon="26.336327">
<ele>157.416138</ele>
<time>2010-07-18T09:10:15Z</time>
<desc>lat.=55.674660, lon.=26.336327, Alt.=157.416138m. Speed=2.340000m/h.</desc>
<speed>0.650000</speed>
</trkpt>
<trkpt lat="55.674660" lon="26.336311">
<ele>156.986450</ele>
<time>2010-07-18T09:10:16Z</time>
<desc>lat.=55.674660, lon.=26.336311, Alt.=156.986450m. Speed=3.024000m/h.</desc>
<speed>0.840000</speed>
</trkpt>
<trkpt lat="55.674660" lon="26.336302">
<ele>156.806763</ele>
<time>2010-07-18T09:10:17Z</time>
<desc>lat.=55.674660, lon.=26.336302, Alt.=156.806763m. Speed=2.952000m/h.</desc>
<speed>0.820000</speed>
</trkpt>
<trkpt lat="55.674664" lon="26.336290">
<ele>156.267700</ele>
<time>2010-07-18T09:10:18Z</time>
<desc>lat.=55.674664, lon.=26.336290, Alt.=156.267700m. Speed=2.736000m/h.</desc>
<speed>0.760000</speed>
</trkpt>
<trkpt lat="55.674667" lon="26.336279">
<ele>156.099731</ele>
<time>2010-07-18T09:10:19Z</time>
<desc>lat.=55.674667, lon.=26.336279, Alt.=156.099731m. Speed=2.700000m/h.</desc>
<speed>0.750000</speed>
</trkpt>
<trkpt lat="55.674664" lon="26.336271">
<ele>155.822388</ele>
<time>2010-07-18T09:10:20Z</time>
<desc>lat.=55.674664, lon.=26.336271, Alt.=155.822388m. Speed=2.196000m/h.</desc>
<speed>0.610000</speed>
</trkpt>
<trkpt lat="55.674660" lon="26.336260">
<ele>155.666138</ele>
<time>2010-07-18T09:10:21Z</time>
<desc>lat.=55.674660, lon.=26.336260, Alt.=155.666138m. Speed=2.844000m/h.</desc>
<speed>0.790000</speed>
</trkpt>
<trkpt lat="55.674652" lon="26.336246">
<ele>155.791138</ele>
<time>2010-07-18T09:10:22Z</time>
<desc>lat.=55.674652, lon.=26.336246, Alt.=155.791138m. Speed=2.916000m/h.</desc>
<speed>0.810000</speed>
</trkpt>
<trkpt lat="55.674648" lon="26.336227">
<ele>155.939575</ele>
<time>2010-07-18T09:10:23Z</time>
<desc>lat.=55.674648, lon.=26.336227, Alt.=155.939575m. Speed=2.808000m/h.</desc>
<speed>0.780000</speed>
</trkpt>
<trkpt lat="55.674648" lon="26.336216">
<ele>155.798950</ele>
<time>2010-07-18T09:10:24Z</time>
<desc>lat.=55.674648, lon.=26.336216, Alt.=155.798950m. Speed=2.916000m/h.</desc>
<speed>0.810000</speed>
</trkpt>
<trkpt lat="55.674641" lon="26.336203">
<ele>155.744263</ele>
<time>2010-07-18T09:10:25Z</time>
<desc>lat.=55.674641, lon.=26.336203, Alt.=155.744263m. Speed=3.168000m/h.</desc>
<speed>0.880000</speed>
</trkpt>
<trkpt lat="55.674641" lon="26.336184">
<ele>155.779419</ele>
<time>2010-07-18T09:10:26Z</time>
<desc>lat.=55.674641, lon.=26.336184, Alt.=155.779419m. Speed=3.096000m/h.</desc>
<speed>0.860000</speed>
</trkpt>
<trkpt lat="55.674637" lon="26.336172">
<ele>155.416138</ele>
<time>2010-07-18T09:10:27Z</time>
<desc>lat.=55.674637, lon.=26.336172, Alt.=155.416138m. Speed=3.420000m/h.</desc>
<speed>0.950000</speed>
</trkpt>
<trkpt lat="55.674633" lon="26.336157">
<ele>154.908325</ele>
<time>2010-07-18T09:10:28Z</time>
<desc>lat.=55.674633, lon.=26.336157, Alt.=154.908325m. Speed=3.276000m/h.</desc>
<speed>0.910000</speed>
</trkpt>
<trkpt lat="55.674629" lon="26.336145">
<ele>154.658325</ele>
<time>2010-07-18T09:10:29Z</time>
<desc>lat.=55.674629, lon.=26.336145, Alt.=154.658325m. Speed=3.312000m/h.</desc>
<speed>0.920000</speed>
</trkpt>
<trkpt lat="55.674622" lon="26.336130">
<ele>154.283325</ele>
<time>2010-07-18T09:10:30Z</time>
<desc>lat.=55.674622, lon.=26.336130, Alt.=154.283325m. Speed=3.888000m/h.</desc>
<speed>1.080000</speed>
</trkpt>
<trkpt lat="55.674622" lon="26.336121">
<ele>153.740356</ele>
<time>2010-07-18T09:10:31Z</time>
<desc>lat.=55.674622, lon.=26.336121, Alt.=153.740356m. Speed=3.744000m/h.</desc>
<speed>1.040000</speed>
</trkpt>
<trkpt lat="55.674614" lon="26.336109">
<ele>153.295044</ele>
<time>2010-07-18T09:10:32Z</time>
<desc>lat.=55.674614, lon.=26.336109, Alt.=153.295044m. Speed=3.852000m/h.</desc>
<speed>1.070000</speed>
</trkpt>
<trkpt lat="55.674610" lon="26.336094">
<ele>152.943481</ele>
<time>2010-07-18T09:10:33Z</time>
<desc>lat.=55.674610, lon.=26.336094, Alt.=152.943481m. Speed=3.816000m/h.</desc>
<speed>1.060000</speed>
</trkpt>
<trkpt lat="55.674606" lon="26.336081">
<ele>152.978638</ele>
<time>2010-07-18T09:10:34Z</time>
<desc>lat.=55.674606, lon.=26.336081, Alt.=152.978638m. Speed=4.212000m/h.</desc>
<speed>1.170000</speed>
</trkpt>
<trkpt lat="55.674603" lon="26.336067">
<ele>152.752075</ele>
<time>2010-07-18T09:10:35Z</time>
<desc>lat.=55.674603, lon.=26.336067, Alt.=152.752075m. Speed=3.852000m/h.</desc>
<speed>1.070000</speed>
</trkpt>
<trkpt lat="55.674599" lon="26.336050">
<ele>152.517700</ele>
<time>2010-07-18T09:10:36Z</time>
<desc>lat.=55.674599, lon.=26.336050, Alt.=152.517700m. Speed=3.168000m/h.</desc>
<speed>0.880000</speed>
</trkpt>
<trkpt lat="55.674591" lon="26.336037">
<ele>152.435669</ele>
<time>2010-07-18T09:10:37Z</time>
<desc>lat.=55.674591, lon.=26.336037, Alt.=152.435669m. Speed=3.420000m/h.</desc>
<speed>0.950000</speed>
</trkpt>
<trkpt lat="55.674587" lon="26.336029">
<ele>152.548950</ele>
<time>2010-07-18T09:10:38Z</time>
<desc>lat.=55.674587, lon.=26.336029, Alt.=152.548950m. Speed=3.240000m/h.</desc>
<speed>0.900000</speed>
</trkpt>
<trkpt lat="55.674591" lon="26.336020">
<ele>152.380981</ele>
<time>2010-07-18T09:10:39Z</time>
<desc>lat.=55.674591, lon.=26.336020, Alt.=152.380981m. Speed=2.340000m/h.</desc>
<speed>0.650000</speed>
</trkpt>
<trkpt lat="55.674595" lon="26.336010">
<ele>152.240356</ele>
<time>2010-07-18T09:10:40Z</time>
<desc>lat.=55.674595, lon.=26.336010, Alt.=152.240356m. Speed=2.124000m/h.</desc>
<speed>0.590000</speed>
</trkpt>
<trkpt lat="55.674595" lon="26.336018">
<ele>152.209106</ele>
<time>2010-07-18T09:10:41Z</time>
<desc>lat.=55.674595, lon.=26.336018, Alt.=152.209106m. Speed=1.584000m/h.</desc>
<speed>0.440000</speed>
</trkpt>
<trkpt lat="55.674595" lon="26.336025">
<ele>152.244263</ele>
<time>2010-07-18T09:10:42Z</time>
<desc>lat.=55.674595, lon.=26.336025, Alt.=152.244263m. Speed=0.072000m/h.</desc>
<speed>0.020000</speed>
</trkpt>
<trkpt lat="55.674595" lon="26.336029">
<ele>152.923950</ele>
<time>2010-07-18T09:10:43Z</time>
<desc>lat.=55.674595, lon.=26.336029, Alt.=152.923950m. Speed=0.000000m/h.</desc>
<speed>0.000000</speed>
</trkpt>
<trkpt lat="55.674595" lon="26.336035">
<ele>153.076294</ele>
<time>2010-07-18T09:10:44Z</time>
<desc>lat.=55.674595, lon.=26.336035, Alt.=153.076294m. Speed=0.000000m/h.</desc>
<speed>0.000000</speed>
</trkpt>
<trkpt lat="55.674595" lon="26.336039">
<ele>152.994263</ele>
<time>2010-07-18T09:10:45Z</time>
<desc>lat.=55.674595, lon.=26.336039, Alt.=152.994263m. Speed=0.036000m/h.</desc>
<speed>0.010000</speed>
</trkpt>
<trkpt lat="55.674595" lon="26.336039">
<ele>152.966919</ele>
<time>2010-07-18T09:10:46Z</time>
<desc>lat.=55.674595, lon.=26.336039, Alt.=152.966919m. Speed=0.000000m/h.</desc>
<speed>0.000000</speed>
</trkpt>
<trkpt lat="55.674595" lon="26.336039">
<ele>152.982544</ele>
<time>2010-07-18T09:10:47Z</time>
<desc>lat.=55.674595, lon.=26.336039, Alt.=152.982544m. Speed=0.072000m/h.</desc>
<speed>0.020000</speed>
</trkpt>
<trkpt lat="55.674595" lon="26.336039">
<ele>152.986450</ele>
<time>2010-07-18T09:10:48Z</time>
<desc>lat.=55.674595, lon.=26.336039, Alt.=152.986450m. Speed=0.000000m/h.</desc>
<speed>0.000000</speed>
</trkpt>
<trkpt lat="55.674595" lon="26.336039">
<ele>152.986450</ele>
<time>2010-07-18T09:10:49Z</time>
<desc>lat.=55.674595, lon.=26.336039, Alt.=152.986450m. Speed=0.036000m/h.</desc>
<speed>0.010000</speed>
</trkpt>
<trkpt lat="55.674595" lon="26.336039">
<ele>152.990356</ele>
<time>2010-07-18T09:10:50Z</time>
<desc>lat.=55.674595, lon.=26.336039, Alt.=152.990356m. Speed=0.036000m/h.</desc>
<speed>0.010000</speed>
</trkpt>
<trkpt lat="55.674595" lon="26.336039">
<ele>152.982544</ele>
<time>2010-07-18T09:10:51Z</time>
<desc>lat.=55.674595, lon.=26.336039, Alt.=152.982544m. Speed=0.000000m/h.</desc>
<speed>0.000000</speed>
</trkpt>
<trkpt lat="55.674595" lon="26.336039">
<ele>152.990356</ele>
<time>2010-07-18T09:10:52Z</time>
<desc>lat.=55.674595, lon.=26.336039, Alt.=152.990356m. Speed=0.036000m/h.</desc>
<speed>0.010000</speed>
</trkpt>
<trkpt lat="55.674595" lon="26.336039">
<ele>152.982544</ele>
<time>2010-07-18T09:10:53Z</time>
<desc>lat.=55.674595, lon.=26.336039, Alt.=152.982544m. Speed=0.036000m/h.</desc>
<speed>0.010000</speed>
</trkpt>
<trkpt lat="55.674595" lon="26.336039">
<ele>152.982544</ele>
<time>2010-07-18T09:10:54Z</time>
<desc>lat.=55.674595, lon.=26.336039, Alt.=152.982544m. Speed=0.000000m/h.</desc>
<speed>0.000000</speed>
</trkpt>
<trkpt lat="55.674595" lon="26.336039">
<ele>152.982544</ele>
<time>2010-07-18T09:10:55Z</time>
<desc>lat.=55.674595, lon.=26.336039, Alt.=152.982544m. Speed=0.000000m/h.</desc>
<speed>0.000000</speed>
</trkpt>
<trkpt lat="55.674595" lon="26.336039">
<ele>152.986450</ele>
<time>2010-07-18T09:10:56Z</time>
<desc>lat.=55.674595, lon.=26.336039, Alt.=152.986450m. Speed=0.000000m/h.</desc>
<speed>0.000000</speed>
</trkpt>
<trkpt lat="55.674595" lon="26.336039">
<ele>152.986450</ele>
<time>2010-07-18T09:10:57Z</time>
<desc>lat.=55.674595, lon.=26.336039, Alt.=152.986450m. Speed=0.000000m/h.</desc>
<speed>0.000000</speed>
</trkpt>
<trkpt lat="55.674595" lon="26.336039">
<ele>152.986450</ele>
<time>2010-07-18T09:10:58Z</time>
<desc>lat.=55.674595, lon.=26.336039, Alt.=152.986450m. Speed=0.036000m/h.</desc>
<speed>0.010000</speed>
</trkpt>
<trkpt lat="55.674595" lon="26.336039">
<ele>152.986450</ele>
<time>2010-07-18T09:10:59Z</time>
<desc>lat.=55.674595, lon.=26.336039, Alt.=152.986450m. Speed=0.036000m/h.</desc>
<speed>0.010000</speed>
</trkpt>
<trkpt lat="55.674595" lon="26.336039">
<ele>152.986450</ele>
<time>2010-07-18T09:11:00Z</time>
<desc>lat.=55.674595, lon.=26.336039, Alt.=152.986450m. Speed=0.000000m/h.</desc>
<speed>0.000000</speed>
</trkpt>
<trkpt lat="55.674595" lon="26.336039">
<ele>152.994263</ele>
<time>2010-07-18T09:11:01Z</time>
<desc>lat.=55.674595, lon.=26.336039, Alt.=152.994263m. Speed=0.000000m/h.</desc>
<speed>0.000000</speed>
</trkpt>
<trkpt lat="55.674595" lon="26.336039">
<ele>152.994263</ele>
<time>2010-07-18T09:11:02Z</time>
<desc>lat.=55.674595, lon.=26.336039, Alt.=152.994263m. Speed=0.000000m/h.</desc>
<speed>0.000000</speed>
</trkpt>
<trkpt lat="55.674595" lon="26.336039">
<ele>152.998169</ele>
<time>2010-07-18T09:11:03Z</time>
<desc>lat.=55.674595, lon.=26.336039, Alt.=152.998169m. Speed=0.000000m/h.</desc>
<speed>0.000000</speed>
</trkpt>
<trkpt lat="55.674595" lon="26.336039">
<ele>152.998169</ele>
<time>2010-07-18T09:11:04Z</time>
<desc>lat.=55.674595, lon.=26.336039, Alt.=152.998169m. Speed=0.000000m/h.</desc>
<speed>0.000000</speed>
</trkpt>
<trkpt lat="55.674595" lon="26.336039">
<ele>152.994263</ele>
<time>2010-07-18T09:11:05Z</time>
<desc>lat.=55.674595, lon.=26.336039, Alt.=152.994263m. Speed=0.036000m/h.</desc>
<speed>0.010000</speed>
</trkpt>
<trkpt lat="55.674595" lon="26.336039">
<ele>152.994263</ele>
<time>2010-07-18T09:11:06Z</time>
<desc>lat.=55.674595, lon.=26.336039, Alt.=152.994263m. Speed=0.000000m/h.</desc>
<speed>0.000000</speed>
</trkpt>
<trkpt lat="55.674595" lon="26.336039">
<ele>152.990356</ele>
<time>2010-07-18T09:11:07Z</time>
<desc>lat.=55.674595, lon.=26.336039, Alt.=152.990356m. Speed=0.000000m/h.</desc>
<speed>0.000000</speed>
</trkpt>
<trkpt lat="55.674595" lon="26.336040">
<ele>152.990356</ele>
<time>2010-07-18T09:11:08Z</time>
<desc>lat.=55.674595, lon.=26.336040, Alt.=152.990356m. Speed=0.000000m/h.</desc>
<speed>0.000000</speed>
</trkpt>
<trkpt lat="55.674595" lon="26.336040">
<ele>152.990356</ele>
<time>2010-07-18T09:11:09Z</time>
<desc>lat.=55.674595, lon.=26.336040, Alt.=152.990356m. Speed=0.000000m/h.</desc>
<speed>0.000000</speed>
</trkpt>
<trkpt lat="55.674595" lon="26.336040">
<ele>152.990356</ele>
<time>2010-07-18T09:11:10Z</time>
<desc>lat.=55.674595, lon.=26.336040, Alt.=152.990356m. Speed=0.000000m/h.</desc>
<speed>0.000000</speed>
</trkpt>
<trkpt lat="55.674595" lon="26.336040">
<ele>152.986450</ele>
<time>2010-07-18T09:11:11Z</time>
<desc>lat.=55.674595, lon.=26.336040, Alt.=152.986450m. Speed=0.000000m/h.</desc>
<speed>0.000000</speed>
</trkpt>
<trkpt lat="55.674595" lon="26.336040">
<ele>152.986450</ele>
<time>2010-07-18T09:11:12Z</time>
<desc>lat.=55.674595, lon.=26.336040, Alt.=152.986450m. Speed=0.000000m/h.</desc>
<speed>0.000000</speed>
</trkpt>
<trkpt lat="55.674595" lon="26.336040">
<ele>152.982544</ele>
<time>2010-07-18T09:11:13Z</time>
<desc>lat.=55.674595, lon.=26.336040, Alt.=152.982544m. Speed=0.000000m/h.</desc>
<speed>0.000000</speed>
</trkpt>
<trkpt lat="55.674595" lon="26.336040">
<ele>152.978638</ele>
<time>2010-07-18T09:11:14Z</time>
<desc>lat.=55.674595, lon.=26.336040, Alt.=152.978638m. Speed=0.036000m/h.</desc>
<speed>0.010000</speed>
</trkpt>
<trkpt lat="55.674595" lon="26.336040">
<ele>152.974731</ele>
<time>2010-07-18T09:11:15Z</time>
<desc>lat.=55.674595, lon.=26.336040, Alt.=152.974731m. Speed=0.000000m/h.</desc>
<speed>0.000000</speed>
</trkpt>
<trkpt lat="55.674595" lon="26.336040">
<ele>152.974731</ele>
<time>2010-07-18T09:11:16Z</time>
<desc>lat.=55.674595, lon.=26.336040, Alt.=152.974731m. Speed=0.036000m/h.</desc>
<speed>0.010000</speed>
</trkpt>
<trkpt lat="55.674595" lon="26.336040">
<ele>152.974731</ele>
<time>2010-07-18T09:11:17Z</time>
<desc>lat.=55.674595, lon.=26.336040, Alt.=152.974731m. Speed=0.072000m/h.</desc>
<speed>0.020000</speed>
</trkpt>
<trkpt lat="55.674595" lon="26.336040">
<ele>152.970825</ele>
<time>2010-07-18T09:11:18Z</time>
<desc>lat.=55.674595, lon.=26.336040, Alt.=152.970825m. Speed=0.000000m/h.</desc>
<speed>0.000000</speed>
</trkpt>
<trkpt lat="55.674595" lon="26.336040">
<ele>152.966919</ele>
<time>2010-07-18T09:11:19Z</time>
<desc>lat.=55.674595, lon.=26.336040, Alt.=152.966919m. Speed=0.000000m/h.</desc>
<speed>0.000000</speed>
</trkpt>
<trkpt lat="55.674595" lon="26.336040">
<ele>152.966919</ele>
<time>2010-07-18T09:11:20Z</time>
<desc>lat.=55.674595, lon.=26.336040, Alt.=152.966919m. Speed=0.000000m/h.</desc>
<speed>0.000000</speed>
</trkpt>
<trkpt lat="55.674595" lon="26.336040">
<ele>152.963013</ele>
<time>2010-07-18T09:11:21Z</time>
<desc>lat.=55.674595, lon.=26.336040, Alt.=152.963013m. Speed=0.000000m/h.</desc>
<speed>0.000000</speed>
</trkpt>
<trkpt lat="55.674595" lon="26.336040">
<ele>152.963013</ele>
<time>2010-07-18T09:11:22Z</time>
<desc>lat.=55.674595, lon.=26.336040, Alt.=152.963013m. Speed=0.036000m/h.</desc>
<speed>0.010000</speed>
</trkpt>
<trkpt lat="55.674595" lon="26.336040">
<ele>152.963013</ele>
<time>2010-07-18T09:11:23Z</time>
<desc>lat.=55.674595, lon.=26.336040, Alt.=152.963013m. Speed=0.000000m/h.</desc>
<speed>0.000000</speed>
</trkpt>
<trkpt lat="55.674595" lon="26.336040">
<ele>152.959106</ele>
<time>2010-07-18T09:11:24Z</time>
<desc>lat.=55.674595, lon.=26.336040, Alt.=152.959106m. Speed=0.000000m/h.</desc>
<speed>0.000000</speed>
</trkpt>
<trkpt lat="55.674595" lon="26.336040">
<ele>152.959106</ele>
<time>2010-07-18T09:11:25Z</time>
<desc>lat.=55.674595, lon.=26.336040, Alt.=152.959106m. Speed=0.000000m/h.</desc>
<speed>0.000000</speed>
</trkpt>
<trkpt lat="55.674595" lon="26.336040">
<ele>152.959106</ele>
<time>2010-07-18T09:11:26Z</time>
<desc>lat.=55.674595, lon.=26.336040, Alt.=152.959106m. Speed=0.000000m/h.</desc>
<speed>0.000000</speed>
</trkpt>
<trkpt lat="55.674595" lon="26.336040">
<ele>152.959106</ele>
<time>2010-07-18T09:11:27Z</time>
<desc>lat.=55.674595, lon.=26.336040, Alt.=152.959106m. Speed=0.000000m/h.</desc>
<speed>0.000000</speed>
</trkpt>
<trkpt lat="55.674595" lon="26.336040">
<ele>152.959106</ele>
<time>2010-07-18T09:11:28Z</time>
<desc>lat.=55.674595, lon.=26.336040, Alt.=152.959106m. Speed=0.000000m/h.</desc>
<speed>0.000000</speed>
</trkpt>
<trkpt lat="55.674595" lon="26.336040">
<ele>152.955200</ele>
<time>2010-07-18T09:11:29Z</time>
<desc>lat.=55.674595, lon.=26.336040, Alt.=152.955200m. Speed=0.000000m/h.</desc>
<speed>0.000000</speed>
</trkpt>
<trkpt lat="55.674595" lon="26.336040">
<ele>152.955200</ele>
<time>2010-07-18T09:11:30Z</time>
<desc>lat.=55.674595, lon.=26.336040, Alt.=152.955200m. Speed=0.000000m/h.</desc>
<speed>0.000000</speed>
</trkpt>
<trkpt lat="55.674595" lon="26.336040">
<ele>152.955200</ele>
<time>2010-07-18T09:11:31Z</time>
<desc>lat.=55.674595, lon.=26.336040, Alt.=152.955200m. Speed=0.000000m/h.</desc>
<speed>0.000000</speed>
</trkpt>
<trkpt lat="55.674595" lon="26.336042">
<ele>152.951294</ele>
<time>2010-07-18T09:11:32Z</time>
<desc>lat.=55.674595, lon.=26.336042, Alt.=152.951294m. Speed=0.000000m/h.</desc>
<speed>0.000000</speed>
</trkpt>
<trkpt lat="55.674595" lon="26.336042">
<ele>152.951294</ele>
<time>2010-07-18T09:11:33Z</time>
<desc>lat.=55.674595, lon.=26.336042, Alt.=152.951294m. Speed=0.000000m/h.</desc>
<speed>0.000000</speed>
</trkpt>
<trkpt lat="55.674595" lon="26.336042">
<ele>152.951294</ele>
<time>2010-07-18T09:11:34Z</time>
<desc>lat.=55.674595, lon.=26.336042, Alt.=152.951294m. Speed=0.036000m/h.</desc>
<speed>0.010000</speed>
</trkpt>
<trkpt lat="55.674595" lon="26.336042">
<ele>152.951294</ele>
<time>2010-07-18T09:11:35Z</time>
<desc>lat.=55.674595, lon.=26.336042, Alt.=152.951294m. Speed=0.000000m/h.</desc>
<speed>0.000000</speed>
</trkpt>
<trkpt lat="55.674595" lon="26.336042">
<ele>152.947388</ele>
<time>2010-07-18T09:11:36Z</time>
<desc>lat.=55.674595, lon.=26.336042, Alt.=152.947388m. Speed=0.000000m/h.</desc>
<speed>0.000000</speed>
</trkpt>
<trkpt lat="55.674595" lon="26.336042">
<ele>152.947388</ele>
<time>2010-07-18T09:11:37Z</time>
<desc>lat.=55.674595, lon.=26.336042, Alt.=152.947388m. Speed=0.000000m/h.</desc>
<speed>0.000000</speed>
</trkpt>
<trkpt lat="55.674595" lon="26.336042">
<ele>152.943481</ele>
<time>2010-07-18T09:11:38Z</time>
<desc>lat.=55.674595, lon.=26.336042, Alt.=152.943481m. Speed=0.000000m/h.</desc>
<speed>0.000000</speed>
</trkpt>
<trkpt lat="55.674595" lon="26.336042">
<ele>152.943481</ele>
<time>2010-07-18T09:11:39Z</time>
<desc>lat.=55.674595, lon.=26.336042, Alt.=152.943481m. Speed=0.000000m/h.</desc>
<speed>0.000000</speed>
</trkpt>
<trkpt lat="55.674595" lon="26.336042">
<ele>152.943481</ele>
<time>2010-07-18T09:11:40Z</time>
<desc>lat.=55.674595, lon.=26.336042, Alt.=152.943481m. Speed=0.000000m/h.</desc>
<speed>0.000000</speed>
</trkpt>
<trkpt lat="55.674595" lon="26.336042">
<ele>152.939575</ele>
<time>2010-07-18T09:11:41Z</time>
<desc>lat.=55.674595, lon.=26.336042, Alt.=152.939575m. Speed=0.000000m/h.</desc>
<speed>0.000000</speed>
</trkpt>
<trkpt lat="55.674595" lon="26.336042">
<ele>152.939575</ele>
<time>2010-07-18T09:11:42Z</time>
<desc>lat.=55.674595, lon.=26.336042, Alt.=152.939575m. Speed=0.000000m/h.</desc>
<speed>0.000000</speed>
</trkpt>
<trkpt lat="55.674595" lon="26.336042">
<ele>152.939575</ele>
<time>2010-07-18T09:11:43Z</time>
<desc>lat.=55.674595, lon.=26.336042, Alt.=152.939575m. Speed=0.000000m/h.</desc>
<speed>0.000000</speed>
</trkpt>
<trkpt lat="55.674595" lon="26.336042">
<ele>152.935669</ele>
<time>2010-07-18T09:11:44Z</time>
<desc>lat.=55.674595, lon.=26.336042, Alt.=152.935669m. Speed=0.036000m/h.</desc>
<speed>0.010000</speed>
</trkpt>
<trkpt lat="55.674595" lon="26.336042">
<ele>152.931763</ele>
<time>2010-07-18T09:11:45Z</time>
<desc>lat.=55.674595, lon.=26.336042, Alt.=152.931763m. Speed=0.000000m/h.</desc>
<speed>0.000000</speed>
</trkpt>
<trkpt lat="55.674595" lon="26.336042">
<ele>152.931763</ele>
<time>2010-07-18T09:11:46Z</time>
<desc>lat.=55.674595, lon.=26.336042, Alt.=152.931763m. Speed=0.000000m/h.</desc>
<speed>0.000000</speed>
</trkpt>
<trkpt lat="55.674595" lon="26.336042">
<ele>152.923950</ele>
<time>2010-07-18T09:11:47Z</time>
<desc>lat.=55.674595, lon.=26.336042, Alt.=152.923950m. Speed=0.000000m/h.</desc>
<speed>0.000000</speed>
</trkpt>
<trkpt lat="55.674595" lon="26.336044">
<ele>152.920044</ele>
<time>2010-07-18T09:11:48Z</time>
<desc>lat.=55.674595, lon.=26.336044, Alt.=152.920044m. Speed=0.000000m/h.</desc>
<speed>0.000000</speed>
</trkpt>
<trkpt lat="55.674595" lon="26.336044">
<ele>152.916138</ele>
<time>2010-07-18T09:11:49Z</time>
<desc>lat.=55.674595, lon.=26.336044, Alt.=152.916138m. Speed=0.000000m/h.</desc>
<speed>0.000000</speed>
</trkpt>
<trkpt lat="55.674595" lon="26.336044">
<ele>152.912231</ele>
<time>2010-07-18T09:11:50Z</time>
<desc>lat.=55.674595, lon.=26.336044, Alt.=152.912231m. Speed=0.036000m/h.</desc>
<speed>0.010000</speed>
</trkpt>
<trkpt lat="55.674595" lon="26.336044">
<ele>152.912231</ele>
<time>2010-07-18T09:11:51Z</time>
<desc>lat.=55.674595, lon.=26.336044, Alt.=152.912231m. Speed=0.036000m/h.</desc>
<speed>0.010000</speed>
</trkpt>
<trkpt lat="55.674595" lon="26.336044">
<ele>152.908325</ele>
<time>2010-07-18T09:11:52Z</time>
<desc>lat.=55.674595, lon.=26.336044, Alt.=152.908325m. Speed=0.036000m/h.</desc>
<speed>0.010000</speed>
</trkpt>
<trkpt lat="55.674595" lon="26.336044">
<ele>152.908325</ele>
<time>2010-07-18T09:11:53Z</time>
<desc>lat.=55.674595, lon.=26.336044, Alt.=152.908325m. Speed=0.072000m/h.</desc>
<speed>0.020000</speed>
</trkpt>
<trkpt lat="55.674595" lon="26.336044">
<ele>152.900513</ele>
<time>2010-07-18T09:11:54Z</time>
<desc>lat.=55.674595, lon.=26.336044, Alt.=152.900513m. Speed=0.036000m/h.</desc>
<speed>0.010000</speed>
</trkpt>
<trkpt lat="55.674595" lon="26.336044">
<ele>152.896606</ele>
<time>2010-07-18T09:11:55Z</time>
<desc>lat.=55.674595, lon.=26.336044, Alt.=152.896606m. Speed=0.000000m/h.</desc>
<speed>0.000000</speed>
</trkpt>
<trkpt lat="55.674595" lon="26.336044">
<ele>152.892700</ele>
<time>2010-07-18T09:11:56Z</time>
<desc>lat.=55.674595, lon.=26.336044, Alt.=152.892700m. Speed=0.000000m/h.</desc>
<speed>0.000000</speed>
</trkpt>
<trkpt lat="55.674595" lon="26.336044">
<ele>152.892700</ele>
<time>2010-07-18T09:11:57Z</time>
<desc>lat.=55.674595, lon.=26.336044, Alt.=152.892700m. Speed=0.000000m/h.</desc>
<speed>0.000000</speed>
</trkpt>
<trkpt lat="55.674595" lon="26.336044">
<ele>152.892700</ele>
<time>2010-07-18T09:11:58Z</time>
<desc>lat.=55.674595, lon.=26.336044, Alt.=152.892700m. Speed=0.036000m/h.</desc>
<speed>0.010000</speed>
</trkpt>
<trkpt lat="55.674595" lon="26.336044">
<ele>152.892700</ele>
<time>2010-07-18T09:11:59Z</time>
<desc>lat.=55.674595, lon.=26.336044, Alt.=152.892700m. Speed=0.000000m/h.</desc>
<speed>0.000000</speed>
</trkpt>
<trkpt lat="55.674595" lon="26.336044">
<ele>152.888794</ele>
<time>2010-07-18T09:12:00Z</time>
<desc>lat.=55.674595, lon.=26.336044, Alt.=152.888794m. Speed=0.036000m/h.</desc>
<speed>0.010000</speed>
</trkpt>
<trkpt lat="55.674595" lon="26.336044">
<ele>152.884888</ele>
<time>2010-07-18T09:12:01Z</time>
<desc>lat.=55.674595, lon.=26.336044, Alt.=152.884888m. Speed=0.000000m/h.</desc>
<speed>0.000000</speed>
</trkpt>
<trkpt lat="55.674595" lon="26.336044">
<ele>152.884888</ele>
<time>2010-07-18T09:12:02Z</time>
<desc>lat.=55.674595, lon.=26.336044, Alt.=152.884888m. Speed=0.036000m/h.</desc>
<speed>0.010000</speed>
</trkpt>
<trkpt lat="55.674595" lon="26.336044">
<ele>152.880981</ele>
<time>2010-07-18T09:12:03Z</time>
<desc>lat.=55.674595, lon.=26.336044, Alt.=152.880981m. Speed=0.000000m/h.</desc>
<speed>0.000000</speed>
</trkpt>
<trkpt lat="55.674595" lon="26.336044">
<ele>152.877075</ele>
<time>2010-07-18T09:12:04Z</time>
<desc>lat.=55.674595, lon.=26.336044, Alt.=152.877075m. Speed=0.036000m/h.</desc>
<speed>0.010000</speed>
</trkpt>
<trkpt lat="55.674595" lon="26.336044">
<ele>152.873169</ele>
<time>2010-07-18T09:12:05Z</time>
<desc>lat.=55.674595, lon.=26.336044, Alt.=152.873169m. Speed=0.000000m/h.</desc>
<speed>0.000000</speed>
</trkpt>
<trkpt lat="55.674595" lon="26.336044">
<ele>152.869263</ele>
<time>2010-07-18T09:12:06Z</time>
<desc>lat.=55.674595, lon.=26.336044, Alt.=152.869263m. Speed=0.000000m/h.</desc>
<speed>0.000000</speed>
</trkpt>
<trkpt lat="55.674595" lon="26.336044">
<ele>152.865356</ele>
<time>2010-07-18T09:12:07Z</time>
<desc>lat.=55.674595, lon.=26.336044, Alt.=152.865356m. Speed=0.000000m/h.</desc>
<speed>0.000000</speed>
</trkpt>
<trkpt lat="55.674595" lon="26.336044">
<ele>152.865356</ele>
<time>2010-07-18T09:12:08Z</time>
<desc>lat.=55.674595, lon.=26.336044, Alt.=152.865356m. Speed=0.000000m/h.</desc>
<speed>0.000000</speed>
</trkpt>
<trkpt lat="55.674595" lon="26.336044">
<ele>152.861450</ele>
<time>2010-07-18T09:12:09Z</time>
<desc>lat.=55.674595, lon.=26.336044, Alt.=152.861450m. Speed=0.000000m/h.</desc>
<speed>0.000000</speed>
</trkpt>
<trkpt lat="55.674595" lon="26.336044">
<ele>152.857544</ele>
<time>2010-07-18T09:12:10Z</time>
<desc>lat.=55.674595, lon.=26.336044, Alt.=152.857544m. Speed=0.000000m/h.</desc>
<speed>0.000000</speed>
</trkpt>
<trkpt lat="55.674595" lon="26.336044">
<ele>152.853638</ele>
<time>2010-07-18T09:12:11Z</time>
<desc>lat.=55.674595, lon.=26.336044, Alt.=152.853638m. Speed=0.000000m/h.</desc>
<speed>0.000000</speed>
</trkpt>
<trkpt lat="55.674595" lon="26.336044">
<ele>152.849731</ele>
<time>2010-07-18T09:12:12Z</time>
<desc>lat.=55.674595, lon.=26.336044, Alt.=152.849731m. Speed=0.000000m/h.</desc>
<speed>0.000000</speed>
</trkpt>
<trkpt lat="55.674595" lon="26.336046">
<ele>152.849731</ele>
<time>2010-07-18T09:12:13Z</time>
<desc>lat.=55.674595, lon.=26.336046, Alt.=152.849731m. Speed=0.000000m/h.</desc>
<speed>0.000000</speed>
</trkpt>
<trkpt lat="55.674595" lon="26.336046">
<ele>152.845825</ele>
<time>2010-07-18T09:12:14Z</time>
<desc>lat.=55.674595, lon.=26.336046, Alt.=152.845825m. Speed=0.036000m/h.</desc>
<speed>0.010000</speed>
</trkpt>
<trkpt lat="55.674595" lon="26.336046">
<ele>152.841919</ele>
<time>2010-07-18T09:12:15Z</time>
<desc>lat.=55.674595, lon.=26.336046, Alt.=152.841919m. Speed=0.036000m/h.</desc>
<speed>0.010000</speed>
</trkpt>
<trkpt lat="55.674595" lon="26.336046">
<ele>152.838013</ele>
<time>2010-07-18T09:12:16Z</time>
<desc>lat.=55.674595, lon.=26.336046, Alt.=152.838013m. Speed=0.216000m/h.</desc>
<speed>0.060000</speed>
</trkpt>
<trkpt lat="55.674595" lon="26.336046">
<ele>152.838013</ele>
<time>2010-07-18T09:12:17Z</time>
<desc>lat.=55.674595, lon.=26.336046, Alt.=152.838013m. Speed=0.108000m/h.</desc>
<speed>0.030000</speed>
</trkpt>
<trkpt lat="55.674595" lon="26.336046">
<ele>152.834106</ele>
<time>2010-07-18T09:12:18Z</time>
<desc>lat.=55.674595, lon.=26.336046, Alt.=152.834106m. Speed=0.504000m/h.</desc>
<speed>0.140000</speed>
</trkpt>
<trkpt lat="55.674595" lon="26.336044">
<ele>152.830200</ele>
<time>2010-07-18T09:12:19Z</time>
<desc>lat.=55.674595, lon.=26.336044, Alt.=152.830200m. Speed=0.108000m/h.</desc>
<speed>0.030000</speed>
</trkpt>
<trkpt lat="55.674595" lon="26.336044">
<ele>152.830200</ele>
<time>2010-07-18T09:12:20Z</time>
<desc>lat.=55.674595, lon.=26.336044, Alt.=152.830200m. Speed=0.036000m/h.</desc>
<speed>0.010000</speed>
</trkpt>
<trkpt lat="55.674595" lon="26.336044">
<ele>152.830200</ele>
<time>2010-07-18T09:12:21Z</time>
<desc>lat.=55.674595, lon.=26.336044, Alt.=152.830200m. Speed=0.108000m/h.</desc>
<speed>0.030000</speed>
</trkpt>
<trkpt lat="55.674595" lon="26.336044">
<ele>152.826294</ele>
<time>2010-07-18T09:12:22Z</time>
<desc>lat.=55.674595, lon.=26.336044, Alt.=152.826294m. Speed=0.036000m/h.</desc>
<speed>0.010000</speed>
</trkpt>
<trkpt lat="55.674595" lon="26.336044">
<ele>152.826294</ele>
<time>2010-07-18T09:12:23Z</time>
<desc>lat.=55.674595, lon.=26.336044, Alt.=152.826294m. Speed=0.000000m/h.</desc>
<speed>0.000000</speed>
</trkpt>
<trkpt lat="55.674595" lon="26.336044">
<ele>152.826294</ele>
<time>2010-07-18T09:12:24Z</time>
<desc>lat.=55.674595, lon.=26.336044, Alt.=152.826294m. Speed=0.036000m/h.</desc>
<speed>0.010000</speed>
</trkpt>
<trkpt lat="55.674595" lon="26.336044">
<ele>152.822388</ele>
<time>2010-07-18T09:12:25Z</time>
<desc>lat.=55.674595, lon.=26.336044, Alt.=152.822388m. Speed=0.036000m/h.</desc>
<speed>0.010000</speed>
</trkpt>
<trkpt lat="55.674595" lon="26.336044">
<ele>152.818481</ele>
<time>2010-07-18T09:12:26Z</time>
<desc>lat.=55.674595, lon.=26.336044, Alt.=152.818481m. Speed=0.000000m/h.</desc>
<speed>0.000000</speed>
</trkpt>
<trkpt lat="55.674595" lon="26.336044">
<ele>152.818481</ele>
<time>2010-07-18T09:12:27Z</time>
<desc>lat.=55.674595, lon.=26.336044, Alt.=152.818481m. Speed=0.000000m/h.</desc>
<speed>0.000000</speed>
</trkpt>
<trkpt lat="55.674595" lon="26.336044">
<ele>152.818481</ele>
<time>2010-07-18T09:12:28Z</time>
<desc>lat.=55.674595, lon.=26.336044, Alt.=152.818481m. Speed=0.072000m/h.</desc>
<speed>0.020000</speed>
</trkpt>
<trkpt lat="55.674595" lon="26.336044">
<ele>152.818481</ele>
<time>2010-07-18T09:12:29Z</time>
<desc>lat.=55.674595, lon.=26.336044, Alt.=152.818481m. Speed=0.000000m/h.</desc>
<speed>0.000000</speed>
</trkpt>
<trkpt lat="55.674595" lon="26.336044">
<ele>152.818481</ele>
<time>2010-07-18T09:12:30Z</time>
<desc>lat.=55.674595, lon.=26.336044, Alt.=152.818481m. Speed=0.000000m/h.</desc>
<speed>0.000000</speed>
</trkpt>
<trkpt lat="55.674595" lon="26.336044">
<ele>152.822388</ele>
<time>2010-07-18T09:12:31Z</time>
<desc>lat.=55.674595, lon.=26.336044, Alt.=152.822388m. Speed=0.000000m/h.</desc>
<speed>0.000000</speed>
</trkpt>
<trkpt lat="55.674595" lon="26.336044">
<ele>152.822388</ele>
<time>2010-07-18T09:12:32Z</time>
<desc>lat.=55.674595, lon.=26.336044, Alt.=152.822388m. Speed=0.000000m/h.</desc>
<speed>0.000000</speed>
</trkpt>
<trkpt lat="55.674595" lon="26.336044">
<ele>152.822388</ele>
<time>2010-07-18T09:12:33Z</time>
<desc>lat.=55.674595, lon.=26.336044, Alt.=152.822388m. Speed=0.000000m/h.</desc>
<speed>0.000000</speed>
</trkpt>
<trkpt lat="55.674595" lon="26.336044">
<ele>152.822388</ele>
<time>2010-07-18T09:12:34Z</time>
<desc>lat.=55.674595, lon.=26.336044, Alt.=152.822388m. Speed=0.036000m/h.</desc>
<speed>0.010000</speed>
</trkpt>
<trkpt lat="55.674595" lon="26.336044">
<ele>152.822388</ele>
<time>2010-07-18T09:12:35Z</time>
<desc>lat.=55.674595, lon.=26.336044, Alt.=152.822388m. Speed=0.072000m/h.</desc>
<speed>0.020000</speed>
</trkpt>
<trkpt lat="55.674595" lon="26.336044">
<ele>152.822388</ele>
<time>2010-07-18T09:12:36Z</time>
<desc>lat.=55.674595, lon.=26.336044, Alt.=152.822388m. Speed=0.216000m/h.</desc>
<speed>0.060000</speed>
</trkpt>
<trkpt lat="55.674595" lon="26.336044">
<ele>152.822388</ele>
<time>2010-07-18T09:12:37Z</time>
<desc>lat.=55.674595, lon.=26.336044, Alt.=152.822388m. Speed=0.180000m/h.</desc>
<speed>0.050000</speed>
</trkpt>
<trkpt lat="55.674595" lon="26.336044">
<ele>152.818481</ele>
<time>2010-07-18T09:12:38Z</time>
<desc>lat.=55.674595, lon.=26.336044, Alt.=152.818481m. Speed=1.692000m/h.</desc>
<speed>0.470000</speed>
</trkpt>
<trkpt lat="55.674591" lon="26.336056">
<ele>152.798950</ele>
<time>2010-07-18T09:12:39Z</time>
<desc>lat.=55.674591, lon.=26.336056, Alt.=152.798950m. Speed=2.628000m/h.</desc>
<speed>0.730000</speed>
</trkpt>
<trkpt lat="55.674591" lon="26.336067">
<ele>152.814575</ele>
<time>2010-07-18T09:12:40Z</time>
<desc>lat.=55.674591, lon.=26.336067, Alt.=152.814575m. Speed=1.692000m/h.</desc>
<speed>0.470000</speed>
</trkpt>
<trkpt lat="55.674580" lon="26.336061">
<ele>152.666138</ele>
<time>2010-07-18T09:12:41Z</time>
<desc>lat.=55.674580, lon.=26.336061, Alt.=152.666138m. Speed=1.728000m/h.</desc>
<speed>0.480000</speed>
</trkpt>
<trkpt lat="55.674580" lon="26.336065">
<ele>152.755981</ele>
<time>2010-07-18T09:12:42Z</time>
<desc>lat.=55.674580, lon.=26.336065, Alt.=152.755981m. Speed=1.008000m/h.</desc>
<speed>0.280000</speed>
</trkpt>
<trkpt lat="55.674580" lon="26.336069">
<ele>152.826294</ele>
<time>2010-07-18T09:12:43Z</time>
<desc>lat.=55.674580, lon.=26.336069, Alt.=152.826294m. Speed=2.304000m/h.</desc>
<speed>0.640000</speed>
</trkpt>
<trkpt lat="55.674580" lon="26.336081">
<ele>152.869263</ele>
<time>2010-07-18T09:12:44Z</time>
<desc>lat.=55.674580, lon.=26.336081, Alt.=152.869263m. Speed=2.448000m/h.</desc>
<speed>0.680000</speed>
</trkpt>
<trkpt lat="55.674580" lon="26.336090">
<ele>152.853638</ele>
<time>2010-07-18T09:12:45Z</time>
<desc>lat.=55.674580, lon.=26.336090, Alt.=152.853638m. Speed=2.736000m/h.</desc>
<speed>0.760000</speed>
</trkpt>
<trkpt lat="55.674576" lon="26.336100">
<ele>152.896606</ele>
<time>2010-07-18T09:12:46Z</time>
<desc>lat.=55.674576, lon.=26.336100, Alt.=152.896606m. Speed=2.880000m/h.</desc>
<speed>0.800000</speed>
</trkpt>
<trkpt lat="55.674576" lon="26.336111">
<ele>152.822388</ele>
<time>2010-07-18T09:12:47Z</time>
<desc>lat.=55.674576, lon.=26.336111, Alt.=152.822388m. Speed=2.520000m/h.</desc>
<speed>0.700000</speed>
</trkpt>
<trkpt lat="55.674576" lon="26.336124">
<ele>152.716919</ele>
<time>2010-07-18T09:12:48Z</time>
<desc>lat.=55.674576, lon.=26.336124, Alt.=152.716919m. Speed=2.196000m/h.</desc>
<speed>0.610000</speed>
</trkpt>
<trkpt lat="55.674576" lon="26.336132">
<ele>152.662231</ele>
<time>2010-07-18T09:12:49Z</time>
<desc>lat.=55.674576, lon.=26.336132, Alt.=152.662231m. Speed=2.232000m/h.</desc>
<speed>0.620000</speed>
</trkpt>
<trkpt lat="55.674580" lon="26.336142">
<ele>152.607544</ele>
<time>2010-07-18T09:12:50Z</time>
<desc>lat.=55.674580, lon.=26.336142, Alt.=152.607544m. Speed=1.980000m/h.</desc>
<speed>0.550000</speed>
</trkpt>
<trkpt lat="55.674580" lon="26.336151">
<ele>152.599731</ele>
<time>2010-07-18T09:12:51Z</time>
<desc>lat.=55.674580, lon.=26.336151, Alt.=152.599731m. Speed=1.728000m/h.</desc>
<speed>0.480000</speed>
</trkpt>
<trkpt lat="55.674576" lon="26.336163">
<ele>152.744263</ele>
<time>2010-07-18T09:12:52Z</time>
<desc>lat.=55.674576, lon.=26.336163, Alt.=152.744263m. Speed=2.772000m/h.</desc>
<speed>0.770000</speed>
</trkpt>
<trkpt lat="55.674572" lon="26.336161">
<ele>152.755981</ele>
<time>2010-07-18T09:12:53Z</time>
<desc>lat.=55.674572, lon.=26.336161, Alt.=152.755981m. Speed=1.080000m/h.</desc>
<speed>0.300000</speed>
</trkpt>
<trkpt lat="55.674568" lon="26.336164">
<ele>152.759888</ele>
<time>2010-07-18T09:12:54Z</time>
<desc>lat.=55.674568, lon.=26.336164, Alt.=152.759888m. Speed=1.188000m/h.</desc>
<speed>0.330000</speed>
</trkpt>
<trkpt lat="55.674572" lon="26.336170">
<ele>152.752075</ele>
<time>2010-07-18T09:12:55Z</time>
<desc>lat.=55.674572, lon.=26.336170, Alt.=152.752075m. Speed=1.476000m/h.</desc>
<speed>0.410000</speed>
</trkpt>
<trkpt lat="55.674572" lon="26.336172">
<ele>152.638794</ele>
<time>2010-07-18T09:12:56Z</time>
<desc>lat.=55.674572, lon.=26.336172, Alt.=152.638794m. Speed=0.864000m/h.</desc>
<speed>0.240000</speed>
</trkpt>
<trkpt lat="55.674572" lon="26.336174">
<ele>152.670044</ele>
<time>2010-07-18T09:12:57Z</time>
<desc>lat.=55.674572, lon.=26.336174, Alt.=152.670044m. Speed=0.936000m/h.</desc>
<speed>0.260000</speed>
</trkpt>
<trkpt lat="55.674576" lon="26.336184">
<ele>152.490356</ele>
<time>2010-07-18T09:12:58Z</time>
<desc>lat.=55.674576, lon.=26.336184, Alt.=152.490356m. Speed=1.548000m/h.</desc>
<speed>0.430000</speed>
</trkpt>
<trkpt lat="55.674580" lon="26.336197">
<ele>152.482544</ele>
<time>2010-07-18T09:12:59Z</time>
<desc>lat.=55.674580, lon.=26.336197, Alt.=152.482544m. Speed=2.016000m/h.</desc>
<speed>0.560000</speed>
</trkpt>
<trkpt lat="55.674580" lon="26.336206">
<ele>152.533325</ele>
<time>2010-07-18T09:13:00Z</time>
<desc>lat.=55.674580, lon.=26.336206, Alt.=152.533325m. Speed=1.908000m/h.</desc>
<speed>0.530000</speed>
</trkpt>
<trkpt lat="55.674583" lon="26.336214">
<ele>152.623169</ele>
<time>2010-07-18T09:13:01Z</time>
<desc>lat.=55.674583, lon.=26.336214, Alt.=152.623169m. Speed=2.016000m/h.</desc>
<speed>0.560000</speed>
</trkpt>
<trkpt lat="55.674595" lon="26.336227">
<ele>152.861450</ele>
<time>2010-07-18T09:13:02Z</time>
<desc>lat.=55.674595, lon.=26.336227, Alt.=152.861450m. Speed=2.160000m/h.</desc>
<speed>0.600000</speed>
</trkpt>
<trkpt lat="55.674599" lon="26.336235">
<ele>152.783325</ele>
<time>2010-07-18T09:13:03Z</time>
<desc>lat.=55.674599, lon.=26.336235, Alt.=152.783325m. Speed=1.368000m/h.</desc>
<speed>0.380000</speed>
</trkpt>
<trkpt lat="55.674606" lon="26.336241">
<ele>152.849731</ele>
<time>2010-07-18T09:13:04Z</time>
<desc>lat.=55.674606, lon.=26.336241, Alt.=152.849731m. Speed=1.332000m/h.</desc>
<speed>0.370000</speed>
</trkpt>
<trkpt lat="55.674610" lon="26.336250">
<ele>152.830200</ele>
<time>2010-07-18T09:13:05Z</time>
<desc>lat.=55.674610, lon.=26.336250, Alt.=152.830200m. Speed=1.584000m/h.</desc>
<speed>0.440000</speed>
</trkpt>
<trkpt lat="55.674610" lon="26.336258">
<ele>152.845825</ele>
<time>2010-07-18T09:13:06Z</time>
<desc>lat.=55.674610, lon.=26.336258, Alt.=152.845825m. Speed=2.088000m/h.</desc>
<speed>0.580000</speed>
</trkpt>
<trkpt lat="55.674614" lon="26.336264">
<ele>153.037231</ele>
<time>2010-07-18T09:13:07Z</time>
<desc>lat.=55.674614, lon.=26.336264, Alt.=153.037231m. Speed=2.124000m/h.</desc>
<speed>0.590000</speed>
</trkpt>
<trkpt lat="55.674610" lon="26.336269">
<ele>152.873169</ele>
<time>2010-07-18T09:13:08Z</time>
<desc>lat.=55.674610, lon.=26.336269, Alt.=152.873169m. Speed=1.800000m/h.</desc>
<speed>0.500000</speed>
</trkpt>
<trkpt lat="55.674614" lon="26.336273">
<ele>153.209106</ele>
<time>2010-07-18T09:13:09Z</time>
<desc>lat.=55.674614, lon.=26.336273, Alt.=153.209106m. Speed=2.052000m/h.</desc>
<speed>0.570000</speed>
</trkpt>
<trkpt lat="55.674622" lon="26.336275">
<ele>153.353638</ele>
<time>2010-07-18T09:13:10Z</time>
<desc>lat.=55.674622, lon.=26.336275, Alt.=153.353638m. Speed=1.836000m/h.</desc>
<speed>0.510000</speed>
</trkpt>
<trkpt lat="55.674629" lon="26.336277">
<ele>153.916138</ele>
<time>2010-07-18T09:13:11Z</time>
<desc>lat.=55.674629, lon.=26.336277, Alt.=153.916138m. Speed=1.944000m/h.</desc>
<speed>0.540000</speed>
</trkpt>
<trkpt lat="55.674633" lon="26.336288">
<ele>154.076294</ele>
<time>2010-07-18T09:13:12Z</time>
<desc>lat.=55.674633, lon.=26.336288, Alt.=154.076294m. Speed=1.944000m/h.</desc>
<speed>0.540000</speed>
</trkpt>
<trkpt lat="55.674641" lon="26.336294">
<ele>154.314575</ele>
<time>2010-07-18T09:13:13Z</time>
<desc>lat.=55.674641, lon.=26.336294, Alt.=154.314575m. Speed=2.232000m/h.</desc>
<speed>0.620000</speed>
</trkpt>
<trkpt lat="55.674644" lon="26.336302">
<ele>154.400513</ele>
<time>2010-07-18T09:13:14Z</time>
<desc>lat.=55.674644, lon.=26.336302, Alt.=154.400513m. Speed=2.628000m/h.</desc>
<speed>0.730000</speed>
</trkpt>
<trkpt lat="55.674644" lon="26.336311">
<ele>154.275513</ele>
<time>2010-07-18T09:13:15Z</time>
<desc>lat.=55.674644, lon.=26.336311, Alt.=154.275513m. Speed=3.708000m/h.</desc>
<speed>1.030000</speed>
</trkpt>
<trkpt lat="55.674648" lon="26.336325">
<ele>154.404419</ele>
<time>2010-07-18T09:13:16Z</time>
<desc>lat.=55.674648, lon.=26.336325, Alt.=154.404419m. Speed=3.888000m/h.</desc>
<speed>1.080000</speed>
</trkpt>
<trkpt lat="55.674652" lon="26.336342">
<ele>154.349731</ele>
<time>2010-07-18T09:13:17Z</time>
<desc>lat.=55.674652, lon.=26.336342, Alt.=154.349731m. Speed=4.284000m/h.</desc>
<speed>1.190000</speed>
</trkpt>
<trkpt lat="55.674656" lon="26.336353">
<ele>154.388794</ele>
<time>2010-07-18T09:13:18Z</time>
<desc>lat.=55.674656, lon.=26.336353, Alt.=154.388794m. Speed=4.032000m/h.</desc>
<speed>1.120000</speed>
</trkpt>
<trkpt lat="55.674664" lon="26.336390">
<ele>154.361450</ele>
<time>2010-07-18T09:13:19Z</time>
<desc>lat.=55.674664, lon.=26.336390, Alt.=154.361450m. Speed=3.744000m/h.</desc>
<speed>1.040000</speed>
</trkpt>
<trkpt lat="55.674664" lon="26.336399">
<ele>154.283325</ele>
<time>2010-07-18T09:13:20Z</time>
<desc>lat.=55.674664, lon.=26.336399, Alt.=154.283325m. Speed=4.104000m/h.</desc>
<speed>1.140000</speed>
</trkpt>
<trkpt lat="55.674671" lon="26.336414">
<ele>154.525513</ele>
<time>2010-07-18T09:13:21Z</time>
<desc>lat.=55.674671, lon.=26.336414, Alt.=154.525513m. Speed=3.276000m/h.</desc>
<speed>0.910000</speed>
</trkpt>
<trkpt lat="55.674679" lon="26.336430">
<ele>154.681763</ele>
<time>2010-07-18T09:13:22Z</time>
<desc>lat.=55.674679, lon.=26.336430, Alt.=154.681763m. Speed=3.204000m/h.</desc>
<speed>0.890000</speed>
</trkpt>
<trkpt lat="55.674690" lon="26.336447">
<ele>155.373169</ele>
<time>2010-07-18T09:13:23Z</time>
<desc>lat.=55.674690, lon.=26.336447, Alt.=155.373169m. Speed=3.384000m/h.</desc>
<speed>0.940000</speed>
</trkpt>
<trkpt lat="55.674706" lon="26.336464">
<ele>155.775513</ele>
<time>2010-07-18T09:13:24Z</time>
<desc>lat.=55.674706, lon.=26.336464, Alt.=155.775513m. Speed=3.672000m/h.</desc>
<speed>1.020000</speed>
</trkpt>
<trkpt lat="55.674717" lon="26.336472">
<ele>156.002075</ele>
<time>2010-07-18T09:13:25Z</time>
<desc>lat.=55.674717, lon.=26.336472, Alt.=156.002075m. Speed=4.032000m/h.</desc>
<speed>1.120000</speed>
</trkpt>
<trkpt lat="55.674725" lon="26.336485">
<ele>156.248169</ele>
<time>2010-07-18T09:13:26Z</time>
<desc>lat.=55.674725, lon.=26.336485, Alt.=156.248169m. Speed=3.600000m/h.</desc>
<speed>1.000000</speed>
</trkpt>
<trkpt lat="55.674728" lon="26.336498">
<ele>156.591919</ele>
<time>2010-07-18T09:13:27Z</time>
<desc>lat.=55.674728, lon.=26.336498, Alt.=156.591919m. Speed=3.060000m/h.</desc>
<speed>0.850000</speed>
</trkpt>
<trkpt lat="55.674736" lon="26.336510">
<ele>156.806763</ele>
<time>2010-07-18T09:13:28Z</time>
<desc>lat.=55.674736, lon.=26.336510, Alt.=156.806763m. Speed=4.176000m/h.</desc>
<speed>1.160000</speed>
</trkpt>
<trkpt lat="55.674747" lon="26.336523">
<ele>156.912231</ele>
<time>2010-07-18T09:13:29Z</time>
<desc>lat.=55.674747, lon.=26.336523, Alt.=156.912231m. Speed=4.932000m/h.</desc>
<speed>1.370000</speed>
</trkpt>
<trkpt lat="55.674755" lon="26.336535">
<ele>157.103638</ele>
<time>2010-07-18T09:13:30Z</time>
<desc>lat.=55.674755, lon.=26.336535, Alt.=157.103638m. Speed=3.456000m/h.</desc>
<speed>0.960000</speed>
</trkpt>
<trkpt lat="55.674759" lon="26.336542">
<ele>157.326294</ele>
<time>2010-07-18T09:13:31Z</time>
<desc>lat.=55.674759, lon.=26.336542, Alt.=157.326294m. Speed=1.620000m/h.</desc>
<speed>0.450000</speed>
</trkpt>
<trkpt lat="55.674759" lon="26.336548">
<ele>157.627075</ele>
<time>2010-07-18T09:13:32Z</time>
<desc>lat.=55.674759, lon.=26.336548, Alt.=157.627075m. Speed=1.584000m/h.</desc>
<speed>0.440000</speed>
</trkpt>
<trkpt lat="55.674763" lon="26.336550">
<ele>157.931763</ele>
<time>2010-07-18T09:13:33Z</time>
<desc>lat.=55.674763, lon.=26.336550, Alt.=157.931763m. Speed=0.864000m/h.</desc>
<speed>0.240000</speed>
</trkpt>
<trkpt lat="55.674767" lon="26.336554">
<ele>158.103638</ele>
<time>2010-07-18T09:13:34Z</time>
<desc>lat.=55.674767, lon.=26.336554, Alt.=158.103638m. Speed=1.332000m/h.</desc>
<speed>0.370000</speed>
</trkpt>
<trkpt lat="55.674770" lon="26.336567">
<ele>158.248169</ele>
<time>2010-07-18T09:13:35Z</time>
<desc>lat.=55.674770, lon.=26.336567, Alt.=158.248169m. Speed=1.872000m/h.</desc>
<speed>0.520000</speed>
</trkpt>
<trkpt lat="55.674782" lon="26.336575">
<ele>158.482544</ele>
<time>2010-07-18T09:13:36Z</time>
<desc>lat.=55.674782, lon.=26.336575, Alt.=158.482544m. Speed=2.376000m/h.</desc>
<speed>0.660000</speed>
</trkpt>
<trkpt lat="55.674797" lon="26.336576">
<ele>158.658325</ele>
<time>2010-07-18T09:13:37Z</time>
<desc>lat.=55.674797, lon.=26.336576, Alt.=158.658325m. Speed=3.852000m/h.</desc>
<speed>1.070000</speed>
</trkpt>
<trkpt lat="55.674820" lon="26.336575">
<ele>158.666138</ele>
<time>2010-07-18T09:13:38Z</time>
<desc>lat.=55.674820, lon.=26.336575, Alt.=158.666138m. Speed=9.900000m/h.</desc>
<speed>2.750000</speed>
</trkpt>
<trkpt lat="55.674854" lon="26.336565">
<ele>158.548950</ele>
<time>2010-07-18T09:13:39Z</time>
<desc>lat.=55.674854, lon.=26.336565, Alt.=158.548950m. Speed=12.528000m/h.</desc>
<speed>3.480000</speed>
</trkpt>
<trkpt lat="55.674889" lon="26.336540">
<ele>158.041138</ele>
<time>2010-07-18T09:13:40Z</time>
<desc>lat.=55.674889, lon.=26.336540, Alt.=158.041138m. Speed=14.544000m/h.</desc>
<speed>4.040000</speed>
</trkpt>
<trkpt lat="55.674919" lon="26.336514">
<ele>157.986450</ele>
<time>2010-07-18T09:13:41Z</time>
<desc>lat.=55.674919, lon.=26.336514, Alt.=157.986450m. Speed=15.516000m/h.</desc>
<speed>4.310000</speed>
</trkpt>
<trkpt lat="55.674961" lon="26.336479">
<ele>157.927856</ele>
<time>2010-07-18T09:13:42Z</time>
<desc>lat.=55.674961, lon.=26.336479, Alt.=157.927856m. Speed=15.984000m/h.</desc>
<speed>4.440000</speed>
</trkpt>
<trkpt lat="55.674992" lon="26.336435">
<ele>157.865356</ele>
<time>2010-07-18T09:13:43Z</time>
<desc>lat.=55.674992, lon.=26.336435, Alt.=157.865356m. Speed=15.912000m/h.</desc>
<speed>4.420000</speed>
</trkpt>
<trkpt lat="55.675041" lon="26.336395">
<ele>159.255981</ele>
<time>2010-07-18T09:13:44Z</time>
<desc>lat.=55.675041, lon.=26.336395, Alt.=159.255981m. Speed=15.228000m/h.</desc>
<speed>4.230000</speed>
</trkpt>
<trkpt lat="55.675079" lon="26.336357">
<ele>159.791138</ele>
<time>2010-07-18T09:13:45Z</time>
<desc>lat.=55.675079, lon.=26.336357, Alt.=159.791138m. Speed=14.040000m/h.</desc>
<speed>3.900000</speed>
</trkpt>
<trkpt lat="55.675106" lon="26.336317">
<ele>160.130981</ele>
<time>2010-07-18T09:13:46Z</time>
<desc>lat.=55.675106, lon.=26.336317, Alt.=160.130981m. Speed=12.312000m/h.</desc>
<speed>3.420000</speed>
</trkpt>
<trkpt lat="55.675129" lon="26.336275">
<ele>160.173950</ele>
<time>2010-07-18T09:13:47Z</time>
<desc>lat.=55.675129, lon.=26.336275, Alt.=160.173950m. Speed=12.492000m/h.</desc>
<speed>3.470000</speed>
</trkpt>
<trkpt lat="55.675152" lon="26.336235">
<ele>161.088013</ele>
<time>2010-07-18T09:13:48Z</time>
<desc>lat.=55.675152, lon.=26.336235, Alt.=161.088013m. Speed=11.088000m/h.</desc>
<speed>3.080000</speed>
</trkpt>
<trkpt lat="55.675179" lon="26.336203">
<ele>161.158325</ele>
<time>2010-07-18T09:13:49Z</time>
<desc>lat.=55.675179, lon.=26.336203, Alt.=161.158325m. Speed=10.908000m/h.</desc>
<speed>3.030000</speed>
</trkpt>
<trkpt lat="55.675198" lon="26.336184">
<ele>161.588013</ele>
<time>2010-07-18T09:13:50Z</time>
<desc>lat.=55.675198, lon.=26.336184, Alt.=161.588013m. Speed=9.468000m/h.</desc>
<speed>2.630000</speed>
</trkpt>
<trkpt lat="55.675220" lon="26.336168">
<ele>162.111450</ele>
<time>2010-07-18T09:13:51Z</time>
<desc>lat.=55.675220, lon.=26.336168, Alt.=162.111450m. Speed=7.884000m/h.</desc>
<speed>2.190000</speed>
</trkpt>
<trkpt lat="55.675240" lon="26.336161">
<ele>162.658325</ele>
<time>2010-07-18T09:13:52Z</time>
<desc>lat.=55.675240, lon.=26.336161, Alt.=162.658325m. Speed=6.300000m/h.</desc>
<speed>1.750000</speed>
</trkpt>
<trkpt lat="55.675251" lon="26.336149">
<ele>163.013794</ele>
<time>2010-07-18T09:13:53Z</time>
<desc>lat.=55.675251, lon.=26.336149, Alt.=163.013794m. Speed=5.904000m/h.</desc>
<speed>1.640000</speed>
</trkpt>
<trkpt lat="55.675262" lon="26.336140">
<ele>163.318481</ele>
<time>2010-07-18T09:13:54Z</time>
<desc>lat.=55.675262, lon.=26.336140, Alt.=163.318481m. Speed=5.868000m/h.</desc>
<speed>1.630000</speed>
</trkpt>
<trkpt lat="55.675278" lon="26.336132">
<ele>163.642700</ele>
<time>2010-07-18T09:13:55Z</time>
<desc>lat.=55.675278, lon.=26.336132, Alt.=163.642700m. Speed=5.616000m/h.</desc>
<speed>1.560000</speed>
</trkpt>
<trkpt lat="55.675293" lon="26.336130">
<ele>163.627075</ele>
<time>2010-07-18T09:13:56Z</time>
<desc>lat.=55.675293, lon.=26.336130, Alt.=163.627075m. Speed=6.372000m/h.</desc>
<speed>1.770000</speed>
</trkpt>
<trkpt lat="55.675308" lon="26.336124">
<ele>164.213013</ele>
<time>2010-07-18T09:13:57Z</time>
<desc>lat.=55.675308, lon.=26.336124, Alt.=164.213013m. Speed=5.292000m/h.</desc>
<speed>1.470000</speed>
</trkpt>
<trkpt lat="55.675320" lon="26.336117">
<ele>164.666138</ele>
<time>2010-07-18T09:13:58Z</time>
<desc>lat.=55.675320, lon.=26.336117, Alt.=164.666138m. Speed=5.904000m/h.</desc>
<speed>1.640000</speed>
</trkpt>
<trkpt lat="55.675335" lon="26.336107">
<ele>164.752075</ele>
<time>2010-07-18T09:13:59Z</time>
<desc>lat.=55.675335, lon.=26.336107, Alt.=164.752075m. Speed=6.624000m/h.</desc>
<speed>1.840000</speed>
</trkpt>
<trkpt lat="55.675350" lon="26.336098">
<ele>165.252075</ele>
<time>2010-07-18T09:14:00Z</time>
<desc>lat.=55.675350, lon.=26.336098, Alt.=165.252075m. Speed=6.120000m/h.</desc>
<speed>1.700000</speed>
</trkpt>
<trkpt lat="55.675369" lon="26.336092">
<ele>165.314575</ele>
<time>2010-07-18T09:14:01Z</time>
<desc>lat.=55.675369, lon.=26.336092, Alt.=165.314575m. Speed=7.524000m/h.</desc>
<speed>2.090000</speed>
</trkpt>
<trkpt lat="55.675385" lon="26.336084">
<ele>165.271606</ele>
<time>2010-07-18T09:14:02Z</time>
<desc>lat.=55.675385, lon.=26.336084, Alt.=165.271606m. Speed=6.696000m/h.</desc>
<speed>1.860000</speed>
</trkpt>
<trkpt lat="55.675400" lon="26.336079">
<ele>165.111450</ele>
<time>2010-07-18T09:14:03Z</time>
<desc>lat.=55.675400, lon.=26.336079, Alt.=165.111450m. Speed=6.912000m/h.</desc>
<speed>1.920000</speed>
</trkpt>
<trkpt lat="55.675415" lon="26.336063">
<ele>165.103638</ele>
<time>2010-07-18T09:14:04Z</time>
<desc>lat.=55.675415, lon.=26.336063, Alt.=165.103638m. Speed=6.804000m/h.</desc>
<speed>1.890000</speed>
</trkpt>
<trkpt lat="55.675434" lon="26.336048">
<ele>165.228638</ele>
<time>2010-07-18T09:14:05Z</time>
<desc>lat.=55.675434, lon.=26.336048, Alt.=165.228638m. Speed=6.552000m/h.</desc>
<speed>1.820000</speed>
</trkpt>
<trkpt lat="55.675446" lon="26.336037">
<ele>165.193481</ele>
<time>2010-07-18T09:14:06Z</time>
<desc>lat.=55.675446, lon.=26.336037, Alt.=165.193481m. Speed=6.840000m/h.</desc>
<speed>1.900000</speed>
</trkpt>
<trkpt lat="55.675465" lon="26.336025">
<ele>165.205200</ele>
<time>2010-07-18T09:14:07Z</time>
<desc>lat.=55.675465, lon.=26.336025, Alt.=165.205200m. Speed=6.588000m/h.</desc>
<speed>1.830000</speed>
</trkpt>
<trkpt lat="55.675484" lon="26.336018">
<ele>165.091919</ele>
<time>2010-07-18T09:14:08Z</time>
<desc>lat.=55.675484, lon.=26.336018, Alt.=165.091919m. Speed=7.272000m/h.</desc>
<speed>2.020000</speed>
</trkpt>
<trkpt lat="55.675495" lon="26.336002">
<ele>164.791138</ele>
<time>2010-07-18T09:14:09Z</time>
<desc>lat.=55.675495, lon.=26.336002, Alt.=164.791138m. Speed=7.632000m/h.</desc>
<speed>2.120000</speed>
</trkpt>
<trkpt lat="55.675507" lon="26.335995">
<ele>164.349731</ele>
<time>2010-07-18T09:14:10Z</time>
<desc>lat.=55.675507, lon.=26.335995, Alt.=164.349731m. Speed=6.804000m/h.</desc>
<speed>1.890000</speed>
</trkpt>
<trkpt lat="55.675526" lon="26.335989">
<ele>164.134888</ele>
<time>2010-07-18T09:14:11Z</time>
<desc>lat.=55.675526, lon.=26.335989, Alt.=164.134888m. Speed=7.056000m/h.</desc>
<speed>1.960000</speed>
</trkpt>
<trkpt lat="55.675545" lon="26.335981">
<ele>164.673950</ele>
<time>2010-07-18T09:14:12Z</time>
<desc>lat.=55.675545, lon.=26.335981, Alt.=164.673950m. Speed=7.920000m/h.</desc>
<speed>2.200000</speed>
</trkpt>
<trkpt lat="55.675564" lon="26.335966">
<ele>165.017700</ele>
<time>2010-07-18T09:14:13Z</time>
<desc>lat.=55.675564, lon.=26.335966, Alt.=165.017700m. Speed=8.100000m/h.</desc>
<speed>2.250000</speed>
</trkpt>
<trkpt lat="55.675583" lon="26.335960">
<ele>165.205200</ele>
<time>2010-07-18T09:14:14Z</time>
<desc>lat.=55.675583, lon.=26.335960, Alt.=165.205200m. Speed=7.812000m/h.</desc>
<speed>2.170000</speed>
</trkpt>
<trkpt lat="55.675598" lon="26.335953">
<ele>165.045044</ele>
<time>2010-07-18T09:14:15Z</time>
<desc>lat.=55.675598, lon.=26.335953, Alt.=165.045044m. Speed=7.668000m/h.</desc>
<speed>2.130000</speed>
</trkpt>
<trkpt lat="55.675617" lon="26.335943">
<ele>165.072388</ele>
<time>2010-07-18T09:14:16Z</time>
<desc>lat.=55.675617, lon.=26.335943, Alt.=165.072388m. Speed=8.532000m/h.</desc>
<speed>2.370000</speed>
</trkpt>
<trkpt lat="55.675640" lon="26.335928">
<ele>165.228638</ele>
<time>2010-07-18T09:14:17Z</time>
<desc>lat.=55.675640, lon.=26.335928, Alt.=165.228638m. Speed=8.208000m/h.</desc>
<speed>2.280000</speed>
</trkpt>
<trkpt lat="55.675655" lon="26.335922">
<ele>164.806763</ele>
<time>2010-07-18T09:14:18Z</time>
<desc>lat.=55.675655, lon.=26.335922, Alt.=164.806763m. Speed=6.408000m/h.</desc>
<speed>1.780000</speed>
</trkpt>
<trkpt lat="55.675674" lon="26.335918">
<ele>164.966919</ele>
<time>2010-07-18T09:14:19Z</time>
<desc>lat.=55.675674, lon.=26.335918, Alt.=164.966919m. Speed=6.840000m/h.</desc>
<speed>1.900000</speed>
</trkpt>
<trkpt lat="55.675694" lon="26.335915">
<ele>165.154419</ele>
<time>2010-07-18T09:14:20Z</time>
<desc>lat.=55.675694, lon.=26.335915, Alt.=165.154419m. Speed=8.244000m/h.</desc>
<speed>2.290000</speed>
</trkpt>
<trkpt lat="55.675713" lon="26.335907">
<ele>165.220825</ele>
<time>2010-07-18T09:14:21Z</time>
<desc>lat.=55.675713, lon.=26.335907, Alt.=165.220825m. Speed=8.604000m/h.</desc>
<speed>2.390000</speed>
</trkpt>
<trkpt lat="55.675735" lon="26.335894">
<ele>165.369263</ele>
<time>2010-07-18T09:14:22Z</time>
<desc>lat.=55.675735, lon.=26.335894, Alt.=165.369263m. Speed=8.604000m/h.</desc>
<speed>2.390000</speed>
</trkpt>
<trkpt lat="55.675755" lon="26.335884">
<ele>165.740356</ele>
<time>2010-07-18T09:14:23Z</time>
<desc>lat.=55.675755, lon.=26.335884, Alt.=165.740356m. Speed=8.352000m/h.</desc>
<speed>2.320000</speed>
</trkpt>
<trkpt lat="55.675774" lon="26.335880">
<ele>165.377075</ele>
<time>2010-07-18T09:14:24Z</time>
<desc>lat.=55.675774, lon.=26.335880, Alt.=165.377075m. Speed=8.244000m/h.</desc>
<speed>2.290000</speed>
</trkpt>
<trkpt lat="55.675793" lon="26.335875">
<ele>165.056763</ele>
<time>2010-07-18T09:14:25Z</time>
<desc>lat.=55.675793, lon.=26.335875, Alt.=165.056763m. Speed=8.496000m/h.</desc>
<speed>2.360000</speed>
</trkpt>
<trkpt lat="55.675812" lon="26.335869">
<ele>165.076294</ele>
<time>2010-07-18T09:14:26Z</time>
<desc>lat.=55.675812, lon.=26.335869, Alt.=165.076294m. Speed=8.172000m/h.</desc>
<speed>2.270000</speed>
</trkpt>
<trkpt lat="55.675835" lon="26.335861">
<ele>165.146606</ele>
<time>2010-07-18T09:14:27Z</time>
<desc>lat.=55.675835, lon.=26.335861, Alt.=165.146606m. Speed=8.712000m/h.</desc>
<speed>2.420000</speed>
</trkpt>
<trkpt lat="55.675858" lon="26.335850">
<ele>164.959106</ele>
<time>2010-07-18T09:14:28Z</time>
<desc>lat.=55.675858, lon.=26.335850, Alt.=164.959106m. Speed=9.684000m/h.</desc>
<speed>2.690000</speed>
</trkpt>
<trkpt lat="55.675880" lon="26.335842">
<ele>164.838013</ele>
<time>2010-07-18T09:14:29Z</time>
<desc>lat.=55.675880, lon.=26.335842, Alt.=164.838013m. Speed=9.576000m/h.</desc>
<speed>2.660000</speed>
</trkpt>
<trkpt lat="55.675903" lon="26.335831">
<ele>164.920044</ele>
<time>2010-07-18T09:14:30Z</time>
<desc>lat.=55.675903, lon.=26.335831, Alt.=164.920044m. Speed=9.756000m/h.</desc>
<speed>2.710000</speed>
</trkpt>
<trkpt lat="55.675926" lon="26.335821">
<ele>165.111450</ele>
<time>2010-07-18T09:14:31Z</time>
<desc>lat.=55.675926, lon.=26.335821, Alt.=165.111450m. Speed=9.972000m/h.</desc>
<speed>2.770000</speed>
</trkpt>
<trkpt lat="55.675953" lon="26.335817">
<ele>165.017700</ele>
<time>2010-07-18T09:14:32Z</time>
<desc>lat.=55.675953, lon.=26.335817, Alt.=165.017700m. Speed=10.980000m/h.</desc>
<speed>3.050000</speed>
</trkpt>
<trkpt lat="55.675983" lon="26.335814">
<ele>164.693481</ele>
<time>2010-07-18T09:14:33Z</time>
<desc>lat.=55.675983, lon.=26.335814, Alt.=164.693481m. Speed=12.528000m/h.</desc>
<speed>3.480000</speed>
</trkpt>
<trkpt lat="55.676018" lon="26.335808">
<ele>164.298950</ele>
<time>2010-07-18T09:14:34Z</time>
<desc>lat.=55.676018, lon.=26.335808, Alt.=164.298950m. Speed=12.636000m/h.</desc>
<speed>3.510000</speed>
</trkpt>
<trkpt lat="55.676052" lon="26.335798">
<ele>164.216919</ele>
<time>2010-07-18T09:14:35Z</time>
<desc>lat.=55.676052, lon.=26.335798, Alt.=164.216919m. Speed=12.132000m/h.</desc>
<speed>3.370000</speed>
</trkpt>
<trkpt lat="55.676079" lon="26.335793">
<ele>164.420044</ele>
<time>2010-07-18T09:14:36Z</time>
<desc>lat.=55.676079, lon.=26.335793, Alt.=164.420044m. Speed=11.376000m/h.</desc>
<speed>3.160000</speed>
</trkpt>
<trkpt lat="55.676105" lon="26.335785">
<ele>164.591919</ele>
<time>2010-07-18T09:14:37Z</time>
<desc>lat.=55.676105, lon.=26.335785, Alt.=164.591919m. Speed=9.828000m/h.</desc>
<speed>2.730000</speed>
</trkpt>
<trkpt lat="55.676128" lon="26.335787">
<ele>164.658325</ele>
<time>2010-07-18T09:14:38Z</time>
<desc>lat.=55.676128, lon.=26.335787, Alt.=164.658325m. Speed=8.640000m/h.</desc>
<speed>2.400000</speed>
</trkpt>
<trkpt lat="55.676147" lon="26.335796">
<ele>164.814575</ele>
<time>2010-07-18T09:14:39Z</time>
<desc>lat.=55.676147, lon.=26.335796, Alt.=164.814575m. Speed=7.308000m/h.</desc>
<speed>2.030000</speed>
</trkpt>
<trkpt lat="55.676167" lon="26.335800">
<ele>165.013794</ele>
<time>2010-07-18T09:14:40Z</time>
<desc>lat.=55.676167, lon.=26.335800, Alt.=165.013794m. Speed=6.336000m/h.</desc>
<speed>1.760000</speed>
</trkpt>
<trkpt lat="55.676186" lon="26.335800">
<ele>165.072388</ele>
<time>2010-07-18T09:14:41Z</time>
<desc>lat.=55.676186, lon.=26.335800, Alt.=165.072388m. Speed=5.652000m/h.</desc>
<speed>1.570000</speed>
</trkpt>
<trkpt lat="55.676193" lon="26.335798">
<ele>165.341919</ele>
<time>2010-07-18T09:14:42Z</time>
<desc>lat.=55.676193, lon.=26.335798, Alt.=165.341919m. Speed=4.500000m/h.</desc>
<speed>1.250000</speed>
</trkpt>
<trkpt lat="55.676205" lon="26.335793">
<ele>165.572388</ele>
<time>2010-07-18T09:14:43Z</time>
<desc>lat.=55.676205, lon.=26.335793, Alt.=165.572388m. Speed=5.040000m/h.</desc>
<speed>1.400000</speed>
</trkpt>
<trkpt lat="55.676216" lon="26.335785">
<ele>165.783325</ele>
<time>2010-07-18T09:14:44Z</time>
<desc>lat.=55.676216, lon.=26.335785, Alt.=165.783325m. Speed=5.292000m/h.</desc>
<speed>1.470000</speed>
</trkpt>
<trkpt lat="55.676228" lon="26.335777">
<ele>165.947388</ele>
<time>2010-07-18T09:14:45Z</time>
<desc>lat.=55.676228, lon.=26.335777, Alt.=165.947388m. Speed=5.940000m/h.</desc>
<speed>1.650000</speed>
</trkpt>
<trkpt lat="55.676247" lon="26.335766">
<ele>166.045044</ele>
<time>2010-07-18T09:14:46Z</time>
<desc>lat.=55.676247, lon.=26.335766, Alt.=166.045044m. Speed=9.756000m/h.</desc>
<speed>2.710000</speed>
</trkpt>
<trkpt lat="55.676270" lon="26.335758">
<ele>166.130981</ele>
<time>2010-07-18T09:14:47Z</time>
<desc>lat.=55.676270, lon.=26.335758, Alt.=166.130981m. Speed=6.552000m/h.</desc>
<speed>1.820000</speed>
</trkpt>
<trkpt lat="55.676289" lon="26.335762">
<ele>166.451294</ele>
<time>2010-07-18T09:14:48Z</time>
<desc>lat.=55.676289, lon.=26.335762, Alt.=166.451294m. Speed=6.120000m/h.</desc>
<speed>1.700000</speed>
</trkpt>
<trkpt lat="55.676304" lon="26.335768">
<ele>166.599731</ele>
<time>2010-07-18T09:14:49Z</time>
<desc>lat.=55.676304, lon.=26.335768, Alt.=166.599731m. Speed=6.300000m/h.</desc>
<speed>1.750000</speed>
</trkpt>
<trkpt lat="55.676323" lon="26.335775">
<ele>166.666138</ele>
<time>2010-07-18T09:14:50Z</time>
<desc>lat.=55.676323, lon.=26.335775, Alt.=166.666138m. Speed=6.444000m/h.</desc>
<speed>1.790000</speed>
</trkpt>
<trkpt lat="55.676338" lon="26.335783">
<ele>166.509888</ele>
<time>2010-07-18T09:14:51Z</time>
<desc>lat.=55.676338, lon.=26.335783, Alt.=166.509888m. Speed=5.688000m/h.</desc>
<speed>1.580000</speed>
</trkpt>
<trkpt lat="55.676346" lon="26.335791">
<ele>166.330200</ele>
<time>2010-07-18T09:14:52Z</time>
<desc>lat.=55.676346, lon.=26.335791, Alt.=166.330200m. Speed=4.932000m/h.</desc>
<speed>1.370000</speed>
</trkpt>
<trkpt lat="55.676353" lon="26.335800">
<ele>165.966919</ele>
<time>2010-07-18T09:14:53Z</time>
<desc>lat.=55.676353, lon.=26.335800, Alt.=165.966919m. Speed=3.924000m/h.</desc>
<speed>1.090000</speed>
</trkpt>
<trkpt lat="55.676357" lon="26.335806">
<ele>165.970825</ele>
<time>2010-07-18T09:14:54Z</time>
<desc>lat.=55.676357, lon.=26.335806, Alt.=165.970825m. Speed=2.952000m/h.</desc>
<speed>0.820000</speed>
</trkpt>
<trkpt lat="55.676353" lon="26.335812">
<ele>165.920044</ele>
<time>2010-07-18T09:14:55Z</time>
<desc>lat.=55.676353, lon.=26.335812, Alt.=165.920044m. Speed=2.808000m/h.</desc>
<speed>0.780000</speed>
</trkpt>
<trkpt lat="55.676353" lon="26.335825">
<ele>165.869263</ele>
<time>2010-07-18T09:14:56Z</time>
<desc>lat.=55.676353, lon.=26.335825, Alt.=165.869263m. Speed=4.356000m/h.</desc>
<speed>1.210000</speed>
</trkpt>
<trkpt lat="55.676350" lon="26.335846">
<ele>165.654419</ele>
<time>2010-07-18T09:14:57Z</time>
<desc>lat.=55.676350, lon.=26.335846, Alt.=165.654419m. Speed=6.084000m/h.</desc>
<speed>1.690000</speed>
</trkpt>
<trkpt lat="55.676353" lon="26.335884">
<ele>165.783325</ele>
<time>2010-07-18T09:14:58Z</time>
<desc>lat.=55.676353, lon.=26.335884, Alt.=165.783325m. Speed=7.128000m/h.</desc>
<speed>1.980000</speed>
</trkpt>
<trkpt lat="55.676357" lon="26.335920">
<ele>165.513794</ele>
<time>2010-07-18T09:14:59Z</time>
<desc>lat.=55.676357, lon.=26.335920, Alt.=165.513794m. Speed=7.380000m/h.</desc>
<speed>2.050000</speed>
</trkpt>
<trkpt lat="55.676357" lon="26.335955">
<ele>165.373169</ele>
<time>2010-07-18T09:15:00Z</time>
<desc>lat.=55.676357, lon.=26.335955, Alt.=165.373169m. Speed=6.552000m/h.</desc>
<speed>1.820000</speed>
</trkpt>
<trkpt lat="55.676365" lon="26.335983">
<ele>165.693481</ele>
<time>2010-07-18T09:15:01Z</time>
<desc>lat.=55.676365, lon.=26.335983, Alt.=165.693481m. Speed=6.120000m/h.</desc>
<speed>1.700000</speed>
</trkpt>
<trkpt lat="55.676365" lon="26.336002">
<ele>165.630981</ele>
<time>2010-07-18T09:15:02Z</time>
<desc>lat.=55.676365, lon.=26.336002, Alt.=165.630981m. Speed=5.328000m/h.</desc>
<speed>1.480000</speed>
</trkpt>
<trkpt lat="55.676365" lon="26.336018">
<ele>165.572388</ele>
<time>2010-07-18T09:15:03Z</time>
<desc>lat.=55.676365, lon.=26.336018, Alt.=165.572388m. Speed=5.292000m/h.</desc>
<speed>1.470000</speed>
</trkpt>
<trkpt lat="55.676361" lon="26.336037">
<ele>165.470825</ele>
<time>2010-07-18T09:15:04Z</time>
<desc>lat.=55.676361, lon.=26.336037, Alt.=165.470825m. Speed=5.328000m/h.</desc>
<speed>1.480000</speed>
</trkpt>
<trkpt lat="55.676361" lon="26.336060">
<ele>165.478638</ele>
<time>2010-07-18T09:15:05Z</time>
<desc>lat.=55.676361, lon.=26.336060, Alt.=165.478638m. Speed=6.732000m/h.</desc>
<speed>1.870000</speed>
</trkpt>
<trkpt lat="55.676361" lon="26.336088">
<ele>165.650513</ele>
<time>2010-07-18T09:15:06Z</time>
<desc>lat.=55.676361, lon.=26.336088, Alt.=165.650513m. Speed=7.416000m/h.</desc>
<speed>2.060000</speed>
</trkpt>
<trkpt lat="55.676365" lon="26.336117">
<ele>165.736450</ele>
<time>2010-07-18T09:15:07Z</time>
<desc>lat.=55.676365, lon.=26.336117, Alt.=165.736450m. Speed=6.804000m/h.</desc>
<speed>1.890000</speed>
</trkpt>
<trkpt lat="55.676373" lon="26.336147">
<ele>165.787231</ele>
<time>2010-07-18T09:15:08Z</time>
<desc>lat.=55.676373, lon.=26.336147, Alt.=165.787231m. Speed=6.264000m/h.</desc>
<speed>1.740000</speed>
</trkpt>
<trkpt lat="55.676380" lon="26.336178">
<ele>165.795044</ele>
<time>2010-07-18T09:15:09Z</time>
<desc>lat.=55.676380, lon.=26.336178, Alt.=165.795044m. Speed=6.732000m/h.</desc>
<speed>1.870000</speed>
</trkpt>
<trkpt lat="55.676384" lon="26.336214">
<ele>165.830200</ele>
<time>2010-07-18T09:15:10Z</time>
<desc>lat.=55.676384, lon.=26.336214, Alt.=165.830200m. Speed=8.280000m/h.</desc>
<speed>2.300000</speed>
</trkpt>
<trkpt lat="55.676384" lon="26.336256">
<ele>165.580200</ele>
<time>2010-07-18T09:15:11Z</time>
<desc>lat.=55.676384, lon.=26.336256, Alt.=165.580200m. Speed=9.036000m/h.</desc>
<speed>2.510000</speed>
</trkpt>
<trkpt lat="55.676388" lon="26.336300">
<ele>165.611450</ele>
<time>2010-07-18T09:15:12Z</time>
<desc>lat.=55.676388, lon.=26.336300, Alt.=165.611450m. Speed=9.540000m/h.</desc>
<speed>2.650000</speed>
</trkpt>
<trkpt lat="55.676392" lon="26.336342">
<ele>165.705200</ele>
<time>2010-07-18T09:15:13Z</time>
<desc>lat.=55.676392, lon.=26.336342, Alt.=165.705200m. Speed=9.360000m/h.</desc>
<speed>2.600000</speed>
</trkpt>
<trkpt lat="55.676399" lon="26.336376">
<ele>165.724731</ele>
<time>2010-07-18T09:15:14Z</time>
<desc>lat.=55.676399, lon.=26.336376, Alt.=165.724731m. Speed=8.424000m/h.</desc>
<speed>2.340000</speed>
</trkpt>
<trkpt lat="55.676407" lon="26.336405">
<ele>165.931763</ele>
<time>2010-07-18T09:15:15Z</time>
<desc>lat.=55.676407, lon.=26.336405, Alt.=165.931763m. Speed=9.216000m/h.</desc>
<speed>2.560000</speed>
</trkpt>
<trkpt lat="55.676411" lon="26.336441">
<ele>165.791138</ele>
<time>2010-07-18T09:15:16Z</time>
<desc>lat.=55.676411, lon.=26.336441, Alt.=165.791138m. Speed=10.404000m/h.</desc>
<speed>2.890000</speed>
</trkpt>
<trkpt lat="55.676414" lon="26.336487">
<ele>165.767700</ele>
<time>2010-07-18T09:15:17Z</time>
<desc>lat.=55.676414, lon.=26.336487, Alt.=165.767700m. Speed=11.484000m/h.</desc>
<speed>3.190000</speed>
</trkpt>
<trkpt lat="55.676418" lon="26.336536">
<ele>165.740356</ele>
<time>2010-07-18T09:15:18Z</time>
<desc>lat.=55.676418, lon.=26.336536, Alt.=165.740356m. Speed=12.384000m/h.</desc>
<speed>3.440000</speed>
</trkpt>
<trkpt lat="55.676422" lon="26.336590">
<ele>165.763794</ele>
<time>2010-07-18T09:15:19Z</time>
<desc>lat.=55.676422, lon.=26.336590, Alt.=165.763794m. Speed=11.808000m/h.</desc>
<speed>3.280000</speed>
</trkpt>
<trkpt lat="55.676430" lon="26.336643">
<ele>165.705200</ele>
<time>2010-07-18T09:15:20Z</time>
<desc>lat.=55.676430, lon.=26.336643, Alt.=165.705200m. Speed=11.412000m/h.</desc>
<speed>3.170000</speed>
</trkpt>
<trkpt lat="55.676434" lon="26.336695">
<ele>165.525513</ele>
<time>2010-07-18T09:15:21Z</time>
<desc>lat.=55.676434, lon.=26.336695, Alt.=165.525513m. Speed=10.692000m/h.</desc>
<speed>2.970000</speed>
</trkpt>
<trkpt lat="55.676437" lon="26.336748">
<ele>165.349731</ele>
<time>2010-07-18T09:15:22Z</time>
<desc>lat.=55.676437, lon.=26.336748, Alt.=165.349731m. Speed=10.944000m/h.</desc>
<speed>3.040000</speed>
</trkpt>
<trkpt lat="55.676441" lon="26.336803">
<ele>165.322388</ele>
<time>2010-07-18T09:15:23Z</time>
<desc>lat.=55.676441, lon.=26.336803, Alt.=165.322388m. Speed=10.872000m/h.</desc>
<speed>3.020000</speed>
</trkpt>
<trkpt lat="55.676453" lon="26.336857">
<ele>165.193481</ele>
<time>2010-07-18T09:15:24Z</time>
<desc>lat.=55.676453, lon.=26.336857, Alt.=165.193481m. Speed=11.376000m/h.</desc>
<speed>3.160000</speed>
</trkpt>
<trkpt lat="55.676460" lon="26.336914">
<ele>164.963013</ele>
<time>2010-07-18T09:15:25Z</time>
<desc>lat.=55.676460, lon.=26.336914, Alt.=164.963013m. Speed=12.168000m/h.</desc>
<speed>3.380000</speed>
</trkpt>
<trkpt lat="55.676468" lon="26.336969">
<ele>165.263794</ele>
<time>2010-07-18T09:15:26Z</time>
<desc>lat.=55.676468, lon.=26.336969, Alt.=165.263794m. Speed=12.456000m/h.</desc>
<speed>3.460000</speed>
</trkpt>
<trkpt lat="55.676476" lon="26.337021">
<ele>165.158325</ele>
<time>2010-07-18T09:15:27Z</time>
<desc>lat.=55.676476, lon.=26.337021, Alt.=165.158325m. Speed=13.212000m/h.</desc>
<speed>3.670000</speed>
</trkpt>
<trkpt lat="55.676483" lon="26.337076">
<ele>165.330200</ele>
<time>2010-07-18T09:15:28Z</time>
<desc>lat.=55.676483, lon.=26.337076, Alt.=165.330200m. Speed=13.536000m/h.</desc>
<speed>3.760000</speed>
</trkpt>
<trkpt lat="55.676498" lon="26.337133">
<ele>165.822388</ele>
<time>2010-07-18T09:15:29Z</time>
<desc>lat.=55.676498, lon.=26.337133, Alt.=165.822388m. Speed=14.544000m/h.</desc>
<speed>4.040000</speed>
</trkpt>
<trkpt lat="55.676506" lon="26.337189">
<ele>166.064575</ele>
<time>2010-07-18T09:15:30Z</time>
<desc>lat.=55.676506, lon.=26.337189, Alt.=166.064575m. Speed=15.264000m/h.</desc>
<speed>4.240000</speed>
</trkpt>
<trkpt lat="55.676514" lon="26.337252">
<ele>166.064575</ele>
<time>2010-07-18T09:15:31Z</time>
<desc>lat.=55.676514, lon.=26.337252, Alt.=166.064575m. Speed=14.940000m/h.</desc>
<speed>4.150000</speed>
</trkpt>
<trkpt lat="55.676525" lon="26.337313">
<ele>166.252075</ele>
<time>2010-07-18T09:15:32Z</time>
<desc>lat.=55.676525, lon.=26.337313, Alt.=166.252075m. Speed=13.608000m/h.</desc>
<speed>3.780000</speed>
</trkpt>
<trkpt lat="55.676533" lon="26.337370">
<ele>166.521606</ele>
<time>2010-07-18T09:15:33Z</time>
<desc>lat.=55.676533, lon.=26.337370, Alt.=166.521606m. Speed=12.852000m/h.</desc>
<speed>3.570000</speed>
</trkpt>
<trkpt lat="55.676544" lon="26.337433">
<ele>166.709106</ele>
<time>2010-07-18T09:15:34Z</time>
<desc>lat.=55.676544, lon.=26.337433, Alt.=166.709106m. Speed=12.348000m/h.</desc>
<speed>3.430000</speed>
</trkpt>
<trkpt lat="55.676552" lon="26.337494">
<ele>166.974731</ele>
<time>2010-07-18T09:15:35Z</time>
<desc>lat.=55.676552, lon.=26.337494, Alt.=166.974731m. Speed=12.528000m/h.</desc>
<speed>3.480000</speed>
</trkpt>
<trkpt lat="55.676563" lon="26.337553">
<ele>167.181763</ele>
<time>2010-07-18T09:15:36Z</time>
<desc>lat.=55.676563, lon.=26.337553, Alt.=167.181763m. Speed=12.960000m/h.</desc>
<speed>3.600000</speed>
</trkpt>
<trkpt lat="55.676579" lon="26.337614">
<ele>167.486450</ele>
<time>2010-07-18T09:15:37Z</time>
<desc>lat.=55.676579, lon.=26.337614, Alt.=167.486450m. Speed=13.572000m/h.</desc>
<speed>3.770000</speed>
</trkpt>
<trkpt lat="55.676590" lon="26.337683">
<ele>167.341919</ele>
<time>2010-07-18T09:15:38Z</time>
<desc>lat.=55.676590, lon.=26.337683, Alt.=167.341919m. Speed=15.084000m/h.</desc>
<speed>4.190000</speed>
</trkpt>
<trkpt lat="55.676601" lon="26.337753">
<ele>167.498169</ele>
<time>2010-07-18T09:15:39Z</time>
<desc>lat.=55.676601, lon.=26.337753, Alt.=167.498169m. Speed=15.444000m/h.</desc>
<speed>4.290000</speed>
</trkpt>
<trkpt lat="55.676609" lon="26.337822">
<ele>167.603638</ele>
<time>2010-07-18T09:15:40Z</time>
<desc>lat.=55.676609, lon.=26.337822, Alt.=167.603638m. Speed=14.508000m/h.</desc>
<speed>4.030000</speed>
</trkpt>
<trkpt lat="55.676620" lon="26.337883">
<ele>167.767700</ele>
<time>2010-07-18T09:15:41Z</time>
<desc>lat.=55.676620, lon.=26.337883, Alt.=167.767700m. Speed=13.824000m/h.</desc>
<speed>3.840000</speed>
</trkpt>
<trkpt lat="55.676628" lon="26.337940">
<ele>167.877075</ele>
<time>2010-07-18T09:15:42Z</time>
<desc>lat.=55.676628, lon.=26.337940, Alt.=167.877075m. Speed=13.752000m/h.</desc>
<speed>3.820000</speed>
</trkpt>
<trkpt lat="55.676643" lon="26.337988">
<ele>170.498169</ele>
<time>2010-07-18T09:15:43Z</time>
<desc>lat.=55.676643, lon.=26.337988, Alt.=170.498169m. Speed=13.212000m/h.</desc>
<speed>3.670000</speed>
</trkpt>
<trkpt lat="55.676659" lon="26.338037">
<ele>172.455200</ele>
<time>2010-07-18T09:15:44Z</time>
<desc>lat.=55.676659, lon.=26.338037, Alt.=172.455200m. Speed=14.328000m/h.</desc>
<speed>3.980000</speed>
</trkpt>
<trkpt lat="55.676666" lon="26.338100">
<ele>173.724731</ele>
<time>2010-07-18T09:15:45Z</time>
<desc>lat.=55.676666, lon.=26.338100, Alt.=173.724731m. Speed=14.904000m/h.</desc>
<speed>4.140000</speed>
</trkpt>
<trkpt lat="55.676670" lon="26.338163">
<ele>174.529419</ele>
<time>2010-07-18T09:15:46Z</time>
<desc>lat.=55.676670, lon.=26.338163, Alt.=174.529419m. Speed=14.076000m/h.</desc>
<speed>3.910000</speed>
</trkpt>
<trkpt lat="55.676678" lon="26.338219">
<ele>175.103638</ele>
<time>2010-07-18T09:15:47Z</time>
<desc>lat.=55.676678, lon.=26.338219, Alt.=175.103638m. Speed=13.104000m/h.</desc>
<speed>3.640000</speed>
</trkpt>
<trkpt lat="55.676689" lon="26.338272">
<ele>172.466919</ele>
<time>2010-07-18T09:15:48Z</time>
<desc>lat.=55.676689, lon.=26.338272, Alt.=172.466919m. Speed=12.384000m/h.</desc>
<speed>3.440000</speed>
</trkpt>
<trkpt lat="55.676697" lon="26.338322">
<ele>172.455200</ele>
<time>2010-07-18T09:15:49Z</time>
<desc>lat.=55.676697, lon.=26.338322, Alt.=172.455200m. Speed=11.916000m/h.</desc>
<speed>3.310000</speed>
</trkpt>
<trkpt lat="55.676701" lon="26.338381">
<ele>172.603638</ele>
<time>2010-07-18T09:15:50Z</time>
<desc>lat.=55.676701, lon.=26.338381, Alt.=172.603638m. Speed=12.672000m/h.</desc>
<speed>3.520000</speed>
</trkpt>
<trkpt lat="55.676708" lon="26.338442">
<ele>172.994263</ele>
<time>2010-07-18T09:15:51Z</time>
<desc>lat.=55.676708, lon.=26.338442, Alt.=172.994263m. Speed=13.572000m/h.</desc>
<speed>3.770000</speed>
</trkpt>
<trkpt lat="55.676720" lon="26.338495">
<ele>172.822388</ele>
<time>2010-07-18T09:15:52Z</time>
<desc>lat.=55.676720, lon.=26.338495, Alt.=172.822388m. Speed=13.140000m/h.</desc>
<speed>3.650000</speed>
</trkpt>
<trkpt lat="55.676731" lon="26.338552">
<ele>172.927856</ele>
<time>2010-07-18T09:15:53Z</time>
<desc>lat.=55.676731, lon.=26.338552, Alt.=172.927856m. Speed=12.456000m/h.</desc>
<speed>3.460000</speed>
</trkpt>
<trkpt lat="55.676743" lon="26.338614">
<ele>172.880981</ele>
<time>2010-07-18T09:15:54Z</time>
<desc>lat.=55.676743, lon.=26.338614, Alt.=172.880981m. Speed=13.356000m/h.</desc>
<speed>3.710000</speed>
</trkpt>
<trkpt lat="55.676754" lon="26.338675">
<ele>172.752075</ele>
<time>2010-07-18T09:15:55Z</time>
<desc>lat.=55.676754, lon.=26.338675, Alt.=172.752075m. Speed=13.932000m/h.</desc>
<speed>3.870000</speed>
</trkpt>
<trkpt lat="55.676765" lon="26.338741">
<ele>172.912231</ele>
<time>2010-07-18T09:15:56Z</time>
<desc>lat.=55.676765, lon.=26.338741, Alt.=172.912231m. Speed=14.724000m/h.</desc>
<speed>4.090000</speed>
</trkpt>
<trkpt lat="55.676773" lon="26.338810">
<ele>173.084106</ele>
<time>2010-07-18T09:15:57Z</time>
<desc>lat.=55.676773, lon.=26.338810, Alt.=173.084106m. Speed=15.516000m/h.</desc>
<speed>4.310000</speed>
</trkpt>
<trkpt lat="55.676785" lon="26.338881">
<ele>173.162231</ele>
<time>2010-07-18T09:15:58Z</time>
<desc>lat.=55.676785, lon.=26.338881, Alt.=173.162231m. Speed=15.984000m/h.</desc>
<speed>4.440000</speed>
</trkpt>
<trkpt lat="55.676800" lon="26.338949">
<ele>173.697388</ele>
<time>2010-07-18T09:15:59Z</time>
<desc>lat.=55.676800, lon.=26.338949, Alt.=173.697388m. Speed=16.056000m/h.</desc>
<speed>4.460000</speed>
</trkpt>
<trkpt lat="55.676811" lon="26.339012">
<ele>174.431763</ele>
<time>2010-07-18T09:16:00Z</time>
<desc>lat.=55.676811, lon.=26.339012, Alt.=174.431763m. Speed=14.616000m/h.</desc>
<speed>4.060000</speed>
</trkpt>
<trkpt lat="55.676830" lon="26.339081">
<ele>174.353638</ele>
<time>2010-07-18T09:16:01Z</time>
<desc>lat.=55.676830, lon.=26.339081, Alt.=174.353638m. Speed=14.508000m/h.</desc>
<speed>4.030000</speed>
</trkpt>
<trkpt lat="55.676842" lon="26.339136">
<ele>174.103638</ele>
<time>2010-07-18T09:16:02Z</time>
<desc>lat.=55.676842, lon.=26.339136, Alt.=174.103638m. Speed=14.292000m/h.</desc>
<speed>3.970000</speed>
</trkpt>
<trkpt lat="55.676861" lon="26.339201">
<ele>173.509888</ele>
<time>2010-07-18T09:16:03Z</time>
<desc>lat.=55.676861, lon.=26.339201, Alt.=173.509888m. Speed=14.076000m/h.</desc>
<speed>3.910000</speed>
</trkpt>
<trkpt lat="55.676888" lon="26.339260">
<ele>171.295044</ele>
<time>2010-07-18T09:16:04Z</time>
<desc>lat.=55.676888, lon.=26.339260, Alt.=171.295044m. Speed=12.348000m/h.</desc>
<speed>3.430000</speed>
</trkpt>
<trkpt lat="55.676907" lon="26.339315">
<ele>169.396606</ele>
<time>2010-07-18T09:16:05Z</time>
<desc>lat.=55.676907, lon.=26.339315, Alt.=169.396606m. Speed=13.608000m/h.</desc>
<speed>3.780000</speed>
</trkpt>
<trkpt lat="55.676922" lon="26.339376">
<ele>168.916138</ele>
<time>2010-07-18T09:16:06Z</time>
<desc>lat.=55.676922, lon.=26.339376, Alt.=168.916138m. Speed=13.644000m/h.</desc>
<speed>3.790000</speed>
</trkpt>
<trkpt lat="55.676941" lon="26.339436">
<ele>168.201294</ele>
<time>2010-07-18T09:16:07Z</time>
<desc>lat.=55.676941, lon.=26.339436, Alt.=168.201294m. Speed=14.184000m/h.</desc>
<speed>3.940000</speed>
</trkpt>
<trkpt lat="55.676960" lon="26.339493">
<ele>167.775513</ele>
<time>2010-07-18T09:16:08Z</time>
<desc>lat.=55.676960, lon.=26.339493, Alt.=167.775513m. Speed=14.364000m/h.</desc>
<speed>3.990000</speed>
</trkpt>
<trkpt lat="55.676975" lon="26.339552">
<ele>167.060669</ele>
<time>2010-07-18T09:16:09Z</time>
<desc>lat.=55.676975, lon.=26.339552, Alt.=167.060669m. Speed=14.472000m/h.</desc>
<speed>4.020000</speed>
</trkpt>
<trkpt lat="55.676994" lon="26.339611">
<ele>166.080200</ele>
<time>2010-07-18T09:16:10Z</time>
<desc>lat.=55.676994, lon.=26.339611, Alt.=166.080200m. Speed=14.940000m/h.</desc>
<speed>4.150000</speed>
</trkpt>
<trkpt lat="55.677013" lon="26.339663">
<ele>165.041138</ele>
<time>2010-07-18T09:16:11Z</time>
<desc>lat.=55.677013, lon.=26.339663, Alt.=165.041138m. Speed=13.176000m/h.</desc>
<speed>3.660000</speed>
</trkpt>
<trkpt lat="55.677029" lon="26.339718">
<ele>164.318481</ele>
<time>2010-07-18T09:16:12Z</time>
<desc>lat.=55.677029, lon.=26.339718, Alt.=164.318481m. Speed=13.500000m/h.</desc>
<speed>3.750000</speed>
</trkpt>
<trkpt lat="55.677048" lon="26.339781">
<ele>164.369263</ele>
<time>2010-07-18T09:16:13Z</time>
<desc>lat.=55.677048, lon.=26.339781, Alt.=164.369263m. Speed=14.796000m/h.</desc>
<speed>4.110000</speed>
</trkpt>
<trkpt lat="55.677063" lon="26.339830">
<ele>163.650513</ele>
<time>2010-07-18T09:16:14Z</time>
<desc>lat.=55.677063, lon.=26.339830, Alt.=163.650513m. Speed=14.004000m/h.</desc>
<speed>3.890000</speed>
</trkpt>
<trkpt lat="55.677078" lon="26.339891">
<ele>163.099731</ele>
<time>2010-07-18T09:16:15Z</time>
<desc>lat.=55.677078, lon.=26.339891, Alt.=163.099731m. Speed=15.120000m/h.</desc>
<speed>4.200000</speed>
</trkpt>
<trkpt lat="55.677097" lon="26.339951">
<ele>162.752075</ele>
<time>2010-07-18T09:16:16Z</time>
<desc>lat.=55.677097, lon.=26.339951, Alt.=162.752075m. Speed=13.464000m/h.</desc>
<speed>3.740000</speed>
</trkpt>
<trkpt lat="55.677113" lon="26.340008">
<ele>162.166138</ele>
<time>2010-07-18T09:16:17Z</time>
<desc>lat.=55.677113, lon.=26.340008, Alt.=162.166138m. Speed=14.292000m/h.</desc>
<speed>3.970000</speed>
</trkpt>
<trkpt lat="55.677132" lon="26.340057">
<ele>161.338013</ele>
<time>2010-07-18T09:16:18Z</time>
<desc>lat.=55.677132, lon.=26.340057, Alt.=161.338013m. Speed=12.996000m/h.</desc>
<speed>3.610000</speed>
</trkpt>
<trkpt lat="55.677151" lon="26.340109">
<ele>160.716919</ele>
<time>2010-07-18T09:16:19Z</time>
<desc>lat.=55.677151, lon.=26.340109, Alt.=160.716919m. Speed=13.464000m/h.</desc>
<speed>3.740000</speed>
</trkpt>
<trkpt lat="55.677170" lon="26.340168">
<ele>159.877075</ele>
<time>2010-07-18T09:16:20Z</time>
<desc>lat.=55.677170, lon.=26.340168, Alt.=159.877075m. Speed=15.048000m/h.</desc>
<speed>4.180000</speed>
</trkpt>
<trkpt lat="55.677193" lon="26.340231">
<ele>159.654419</ele>
<time>2010-07-18T09:16:21Z</time>
<desc>lat.=55.677193, lon.=26.340231, Alt.=159.654419m. Speed=15.156000m/h.</desc>
<speed>4.210000</speed>
</trkpt>
<trkpt lat="55.677219" lon="26.340298">
<ele>159.205200</ele>
<time>2010-07-18T09:16:22Z</time>
<desc>lat.=55.677219, lon.=26.340298, Alt.=159.205200m. Speed=15.912000m/h.</desc>
<speed>4.420000</speed>
</trkpt>
<trkpt lat="55.677235" lon="26.340363">
<ele>158.537231</ele>
<time>2010-07-18T09:16:23Z</time>
<desc>lat.=55.677235, lon.=26.340363, Alt.=158.537231m. Speed=15.084000m/h.</desc>
<speed>4.190000</speed>
</trkpt>
<trkpt lat="55.677254" lon="26.340420">
<ele>158.142700</ele>
<time>2010-07-18T09:16:24Z</time>
<desc>lat.=55.677254, lon.=26.340420, Alt.=158.142700m. Speed=14.544000m/h.</desc>
<speed>4.040000</speed>
</trkpt>
<trkpt lat="55.677299" lon="26.340483">
<ele>162.927856</ele>
<time>2010-07-18T09:16:25Z</time>
<desc>lat.=55.677299, lon.=26.340483, Alt.=162.927856m. Speed=14.652000m/h.</desc>
<speed>4.070000</speed>
</trkpt>
<trkpt lat="55.677326" lon="26.340538">
<ele>163.170044</ele>
<time>2010-07-18T09:16:26Z</time>
<desc>lat.=55.677326, lon.=26.340538, Alt.=163.170044m. Speed=14.796000m/h.</desc>
<speed>4.110000</speed>
</trkpt>
<trkpt lat="55.677349" lon="26.340593">
<ele>163.509888</ele>
<time>2010-07-18T09:16:27Z</time>
<desc>lat.=55.677349, lon.=26.340593, Alt.=163.509888m. Speed=14.976000m/h.</desc>
<speed>4.160000</speed>
</trkpt>
<trkpt lat="55.677372" lon="26.340647">
<ele>164.107544</ele>
<time>2010-07-18T09:16:28Z</time>
<desc>lat.=55.677372, lon.=26.340647, Alt.=164.107544m. Speed=14.076000m/h.</desc>
<speed>3.910000</speed>
</trkpt>
<trkpt lat="55.677391" lon="26.340712">
<ele>164.576294</ele>
<time>2010-07-18T09:16:29Z</time>
<desc>lat.=55.677391, lon.=26.340712, Alt.=164.576294m. Speed=14.976000m/h.</desc>
<speed>4.160000</speed>
</trkpt>
<trkpt lat="55.677402" lon="26.340769">
<ele>165.060669</ele>
<time>2010-07-18T09:16:30Z</time>
<desc>lat.=55.677402, lon.=26.340769, Alt.=165.060669m. Speed=13.968000m/h.</desc>
<speed>3.880000</speed>
</trkpt>
<trkpt lat="55.677418" lon="26.340828">
<ele>165.377075</ele>
<time>2010-07-18T09:16:31Z</time>
<desc>lat.=55.677418, lon.=26.340828, Alt.=165.377075m. Speed=14.400000m/h.</desc>
<speed>4.000000</speed>
</trkpt>
<trkpt lat="55.677441" lon="26.340895">
<ele>165.611450</ele>
<time>2010-07-18T09:16:32Z</time>
<desc>lat.=55.677441, lon.=26.340895, Alt.=165.611450m. Speed=15.732000m/h.</desc>
<speed>4.370000</speed>
</trkpt>
<trkpt lat="55.677467" lon="26.340946">
<ele>165.177856</ele>
<time>2010-07-18T09:16:33Z</time>
<desc>lat.=55.677467, lon.=26.340946, Alt.=165.177856m. Speed=17.820000m/h.</desc>
<speed>4.950000</speed>
</trkpt>
<trkpt lat="55.677490" lon="26.341005">
<ele>165.142700</ele>
<time>2010-07-18T09:16:34Z</time>
<desc>lat.=55.677490, lon.=26.341005, Alt.=165.142700m. Speed=13.932000m/h.</desc>
<speed>3.870000</speed>
</trkpt>
<trkpt lat="55.677505" lon="26.341063">
<ele>165.119263</ele>
<time>2010-07-18T09:16:35Z</time>
<desc>lat.=55.677505, lon.=26.341063, Alt.=165.119263m. Speed=12.420000m/h.</desc>
<speed>3.450000</speed>
</trkpt>
<trkpt lat="55.677521" lon="26.341120">
<ele>165.033325</ele>
<time>2010-07-18T09:16:36Z</time>
<desc>lat.=55.677521, lon.=26.341120, Alt.=165.033325m. Speed=13.032000m/h.</desc>
<speed>3.620000</speed>
</trkpt>
<trkpt lat="55.677532" lon="26.341169">
<ele>164.853638</ele>
<time>2010-07-18T09:16:37Z</time>
<desc>lat.=55.677532, lon.=26.341169, Alt.=164.853638m. Speed=10.404000m/h.</desc>
<speed>2.890000</speed>
</trkpt>
<trkpt lat="55.677547" lon="26.341208">
<ele>164.752075</ele>
<time>2010-07-18T09:16:38Z</time>
<desc>lat.=55.677547, lon.=26.341208, Alt.=164.752075m. Speed=8.784000m/h.</desc>
<speed>2.440000</speed>
</trkpt>
<trkpt lat="55.677559" lon="26.341240">
<ele>164.802856</ele>
<time>2010-07-18T09:16:39Z</time>
<desc>lat.=55.677559, lon.=26.341240, Alt.=164.802856m. Speed=7.704000m/h.</desc>
<speed>2.140000</speed>
</trkpt>
<trkpt lat="55.677570" lon="26.341272">
<ele>165.052856</ele>
<time>2010-07-18T09:16:40Z</time>
<desc>lat.=55.677570, lon.=26.341272, Alt.=165.052856m. Speed=8.496000m/h.</desc>
<speed>2.360000</speed>
</trkpt>
<trkpt lat="55.677586" lon="26.341307">
<ele>165.302856</ele>
<time>2010-07-18T09:16:41Z</time>
<desc>lat.=55.677586, lon.=26.341307, Alt.=165.302856m. Speed=8.352000m/h.</desc>
<speed>2.320000</speed>
</trkpt>
<trkpt lat="55.677593" lon="26.341343">
<ele>165.259888</ele>
<time>2010-07-18T09:16:42Z</time>
<desc>lat.=55.677593, lon.=26.341343, Alt.=165.259888m. Speed=8.496000m/h.</desc>
<speed>2.360000</speed>
</trkpt>
<trkpt lat="55.677605" lon="26.341383">
<ele>165.185669</ele>
<time>2010-07-18T09:16:43Z</time>
<desc>lat.=55.677605, lon.=26.341383, Alt.=165.185669m. Speed=9.936000m/h.</desc>
<speed>2.760000</speed>
</trkpt>
<trkpt lat="55.677612" lon="26.341436">
<ele>165.084106</ele>
<time>2010-07-18T09:16:44Z</time>
<desc>lat.=55.677612, lon.=26.341436, Alt.=165.084106m. Speed=10.116000m/h.</desc>
<speed>2.810000</speed>
</trkpt>
<trkpt lat="55.677628" lon="26.341484">
<ele>165.056763</ele>
<time>2010-07-18T09:16:45Z</time>
<desc>lat.=55.677628, lon.=26.341484, Alt.=165.056763m. Speed=9.756000m/h.</desc>
<speed>2.710000</speed>
</trkpt>
<trkpt lat="55.677639" lon="26.341549">
<ele>165.025513</ele>
<time>2010-07-18T09:16:46Z</time>
<desc>lat.=55.677639, lon.=26.341549, Alt.=165.025513m. Speed=12.204000m/h.</desc>
<speed>3.390000</speed>
</trkpt>
<trkpt lat="55.677654" lon="26.341616">
<ele>164.822388</ele>
<time>2010-07-18T09:16:47Z</time>
<desc>lat.=55.677654, lon.=26.341616, Alt.=164.822388m. Speed=12.420000m/h.</desc>
<speed>3.450000</speed>
</trkpt>
<trkpt lat="55.677666" lon="26.341677">
<ele>165.158325</ele>
<time>2010-07-18T09:16:48Z</time>
<desc>lat.=55.677666, lon.=26.341677, Alt.=165.158325m. Speed=12.708000m/h.</desc>
<speed>3.530000</speed>
</trkpt>
<trkpt lat="55.677677" lon="26.341736">
<ele>165.869263</ele>
<time>2010-07-18T09:16:49Z</time>
<desc>lat.=55.677677, lon.=26.341736, Alt.=165.869263m. Speed=12.564000m/h.</desc>
<speed>3.490000</speed>
</trkpt>
<trkpt lat="55.677689" lon="26.341795">
<ele>166.236450</ele>
<time>2010-07-18T09:16:50Z</time>
<desc>lat.=55.677689, lon.=26.341795, Alt.=166.236450m. Speed=11.628000m/h.</desc>
<speed>3.230000</speed>
</trkpt>
<trkpt lat="55.677711" lon="26.341862">
<ele>166.396606</ele>
<time>2010-07-18T09:16:51Z</time>
<desc>lat.=55.677711, lon.=26.341862, Alt.=166.396606m. Speed=13.752000m/h.</desc>
<speed>3.820000</speed>
</trkpt>
<trkpt lat="55.677734" lon="26.341936">
<ele>165.990356</ele>
<time>2010-07-18T09:16:52Z</time>
<desc>lat.=55.677734, lon.=26.341936, Alt.=165.990356m. Speed=14.832000m/h.</desc>
<speed>4.120000</speed>
</trkpt>
<trkpt lat="55.677753" lon="26.341991">
<ele>165.853638</ele>
<time>2010-07-18T09:16:53Z</time>
<desc>lat.=55.677753, lon.=26.341991, Alt.=165.853638m. Speed=12.240000m/h.</desc>
<speed>3.400000</speed>
</trkpt>
<trkpt lat="55.677769" lon="26.342037">
<ele>165.283325</ele>
<time>2010-07-18T09:16:54Z</time>
<desc>lat.=55.677769, lon.=26.342037, Alt.=165.283325m. Speed=11.376000m/h.</desc>
<speed>3.160000</speed>
</trkpt>
<trkpt lat="55.677784" lon="26.342081">
<ele>164.662231</ele>
<time>2010-07-18T09:16:55Z</time>
<desc>lat.=55.677784, lon.=26.342081, Alt.=164.662231m. Speed=9.288000m/h.</desc>
<speed>2.580000</speed>
</trkpt>
<trkpt lat="55.677803" lon="26.342134">
<ele>164.463013</ele>
<time>2010-07-18T09:16:56Z</time>
<desc>lat.=55.677803, lon.=26.342134, Alt.=164.463013m. Speed=13.428000m/h.</desc>
<speed>3.730000</speed>
</trkpt>
<trkpt lat="55.677818" lon="26.342197">
<ele>164.072388</ele>
<time>2010-07-18T09:16:57Z</time>
<desc>lat.=55.677818, lon.=26.342197, Alt.=164.072388m. Speed=13.356000m/h.</desc>
<speed>3.710000</speed>
</trkpt>
<trkpt lat="55.677849" lon="26.342258">
<ele>163.463013</ele>
<time>2010-07-18T09:16:58Z</time>
<desc>lat.=55.677849, lon.=26.342258, Alt.=163.463013m. Speed=13.428000m/h.</desc>
<speed>3.730000</speed>
</trkpt>
<trkpt lat="55.677876" lon="26.342318">
<ele>163.373169</ele>
<time>2010-07-18T09:16:59Z</time>
<desc>lat.=55.677876, lon.=26.342318, Alt.=163.373169m. Speed=12.924000m/h.</desc>
<speed>3.590000</speed>
</trkpt>
<trkpt lat="55.677887" lon="26.342360">
<ele>163.283325</ele>
<time>2010-07-18T09:17:00Z</time>
<desc>lat.=55.677887, lon.=26.342360, Alt.=163.283325m. Speed=8.208000m/h.</desc>
<speed>2.280000</speed>
</trkpt>
<trkpt lat="55.677895" lon="26.342392">
<ele>163.017700</ele>
<time>2010-07-18T09:17:01Z</time>
<desc>lat.=55.677895, lon.=26.342392, Alt.=163.017700m. Speed=10.512000m/h.</desc>
<speed>2.920000</speed>
</trkpt>
<trkpt lat="55.677917" lon="26.342436">
<ele>162.537231</ele>
<time>2010-07-18T09:17:02Z</time>
<desc>lat.=55.677917, lon.=26.342436, Alt.=162.537231m. Speed=9.432000m/h.</desc>
<speed>2.620000</speed>
</trkpt>
<trkpt lat="55.677948" lon="26.342480">
<ele>162.755981</ele>
<time>2010-07-18T09:17:03Z</time>
<desc>lat.=55.677948, lon.=26.342480, Alt.=162.755981m. Speed=8.928000m/h.</desc>
<speed>2.480000</speed>
</trkpt>
<trkpt lat="55.677975" lon="26.342531">
<ele>162.662231</ele>
<time>2010-07-18T09:17:04Z</time>
<desc>lat.=55.677975, lon.=26.342531, Alt.=162.662231m. Speed=11.484000m/h.</desc>
<speed>3.190000</speed>
</trkpt>
<trkpt lat="55.677986" lon="26.342581">
<ele>163.017700</ele>
<time>2010-07-18T09:17:05Z</time>
<desc>lat.=55.677986, lon.=26.342581, Alt.=163.017700m. Speed=8.532000m/h.</desc>
<speed>2.370000</speed>
</trkpt>
<trkpt lat="55.677994" lon="26.342617">
<ele>162.486450</ele>
<time>2010-07-18T09:17:06Z</time>
<desc>lat.=55.677994, lon.=26.342617, Alt.=162.486450m. Speed=8.604000m/h.</desc>
<speed>2.390000</speed>
</trkpt>
<trkpt lat="55.678001" lon="26.342648">
<ele>163.392700</ele>
<time>2010-07-18T09:17:07Z</time>
<desc>lat.=55.678001, lon.=26.342648, Alt.=163.392700m. Speed=8.604000m/h.</desc>
<speed>2.390000</speed>
</trkpt>
<trkpt lat="55.678005" lon="26.342690">
<ele>162.607544</ele>
<time>2010-07-18T09:17:08Z</time>
<desc>lat.=55.678005, lon.=26.342690, Alt.=162.607544m. Speed=8.316000m/h.</desc>
<speed>2.310000</speed>
</trkpt>
<trkpt lat="55.678036" lon="26.342735">
<ele>163.138794</ele>
<time>2010-07-18T09:17:09Z</time>
<desc>lat.=55.678036, lon.=26.342735, Alt.=163.138794m. Speed=8.532000m/h.</desc>
<speed>2.370000</speed>
</trkpt>
<trkpt lat="55.678055" lon="26.342775">
<ele>163.857544</ele>
<time>2010-07-18T09:17:10Z</time>
<desc>lat.=55.678055, lon.=26.342775, Alt.=163.857544m. Speed=7.632000m/h.</desc>
<speed>2.120000</speed>
</trkpt>
<trkpt lat="55.678062" lon="26.342808">
<ele>163.330200</ele>
<time>2010-07-18T09:17:11Z</time>
<desc>lat.=55.678062, lon.=26.342808, Alt.=163.330200m. Speed=7.596000m/h.</desc>
<speed>2.110000</speed>
</trkpt>
<trkpt lat="55.678074" lon="26.342840">
<ele>161.541138</ele>
<time>2010-07-18T09:17:12Z</time>
<desc>lat.=55.678074, lon.=26.342840, Alt.=161.541138m. Speed=7.020000m/h.</desc>
<speed>1.950000</speed>
</trkpt>
<trkpt lat="55.678085" lon="26.342873">
<ele>160.920044</ele>
<time>2010-07-18T09:17:13Z</time>
<desc>lat.=55.678085, lon.=26.342873, Alt.=160.920044m. Speed=5.112000m/h.</desc>
<speed>1.420000</speed>
</trkpt>
<trkpt lat="55.678104" lon="26.342907">
<ele>161.255981</ele>
<time>2010-07-18T09:17:14Z</time>
<desc>lat.=55.678104, lon.=26.342907, Alt.=161.255981m. Speed=6.768000m/h.</desc>
<speed>1.880000</speed>
</trkpt>
<trkpt lat="55.678131" lon="26.342936">
<ele>161.888794</ele>
<time>2010-07-18T09:17:15Z</time>
<desc>lat.=55.678131, lon.=26.342936, Alt.=161.888794m. Speed=6.660000m/h.</desc>
<speed>1.850000</speed>
</trkpt>
<trkpt lat="55.678139" lon="26.342972">
<ele>160.459106</ele>
<time>2010-07-18T09:17:16Z</time>
<desc>lat.=55.678139, lon.=26.342972, Alt.=160.459106m. Speed=8.316000m/h.</desc>
<speed>2.310000</speed>
</trkpt>
<trkpt lat="55.678154" lon="26.343018">
<ele>160.236450</ele>
<time>2010-07-18T09:17:17Z</time>
<desc>lat.=55.678154, lon.=26.343018, Alt.=160.236450m. Speed=9.252000m/h.</desc>
<speed>2.570000</speed>
</trkpt>
<trkpt lat="55.678165" lon="26.343067">
<ele>159.513794</ele>
<time>2010-07-18T09:17:18Z</time>
<desc>lat.=55.678165, lon.=26.343067, Alt.=159.513794m. Speed=9.072000m/h.</desc>
<speed>2.520000</speed>
</trkpt>
<trkpt lat="55.678181" lon="26.343117">
<ele>158.884888</ele>
<time>2010-07-18T09:17:19Z</time>
<desc>lat.=55.678181, lon.=26.343117, Alt.=158.884888m. Speed=10.044000m/h.</desc>
<speed>2.790000</speed>
</trkpt>
<trkpt lat="55.678207" lon="26.343161">
<ele>159.443481</ele>
<time>2010-07-18T09:17:20Z</time>
<desc>lat.=55.678207, lon.=26.343161, Alt.=159.443481m. Speed=8.856000m/h.</desc>
<speed>2.460000</speed>
</trkpt>
<trkpt lat="55.678219" lon="26.343210">
<ele>158.033325</ele>
<time>2010-07-18T09:17:21Z</time>
<desc>lat.=55.678219, lon.=26.343210, Alt.=158.033325m. Speed=8.604000m/h.</desc>
<speed>2.390000</speed>
</trkpt>
<trkpt lat="55.678234" lon="26.343254">
<ele>157.009888</ele>
<time>2010-07-18T09:17:22Z</time>
<desc>lat.=55.678234, lon.=26.343254, Alt.=157.009888m. Speed=9.468000m/h.</desc>
<speed>2.630000</speed>
</trkpt>
<trkpt lat="55.678242" lon="26.343311">
<ele>155.134888</ele>
<time>2010-07-18T09:17:23Z</time>
<desc>lat.=55.678242, lon.=26.343311, Alt.=155.134888m. Speed=11.844000m/h.</desc>
<speed>3.290000</speed>
</trkpt>
<trkpt lat="55.678253" lon="26.343386">
<ele>154.130981</ele>
<time>2010-07-18T09:17:24Z</time>
<desc>lat.=55.678253, lon.=26.343386, Alt.=154.130981m. Speed=12.672000m/h.</desc>
<speed>3.520000</speed>
</trkpt>
<trkpt lat="55.678261" lon="26.343468">
<ele>152.384888</ele>
<time>2010-07-18T09:17:25Z</time>
<desc>lat.=55.678261, lon.=26.343468, Alt.=152.384888m. Speed=13.212000m/h.</desc>
<speed>3.670000</speed>
</trkpt>
<trkpt lat="55.678265" lon="26.343527">
<ele>151.103638</ele>
<time>2010-07-18T09:17:26Z</time>
<desc>lat.=55.678265, lon.=26.343527, Alt.=151.103638m. Speed=11.196000m/h.</desc>
<speed>3.110000</speed>
</trkpt>
<trkpt lat="55.678276" lon="26.343596">
<ele>152.052856</ele>
<time>2010-07-18T09:17:27Z</time>
<desc>lat.=55.678276, lon.=26.343596, Alt.=152.052856m. Speed=17.028000m/h.</desc>
<speed>4.730000</speed>
</trkpt>
<trkpt lat="55.678268" lon="26.343683">
<ele>150.099731</ele>
<time>2010-07-18T09:17:28Z</time>
<desc>lat.=55.678268, lon.=26.343683, Alt.=150.099731m. Speed=17.424000m/h.</desc>
<speed>4.840000</speed>
</trkpt>
<trkpt lat="55.678284" lon="26.343765">
<ele>148.892700</ele>
<time>2010-07-18T09:17:29Z</time>
<desc>lat.=55.678284, lon.=26.343765, Alt.=148.892700m. Speed=16.416000m/h.</desc>
<speed>4.560000</speed>
</trkpt>
<trkpt lat="55.678310" lon="26.343861">
<ele>148.627075</ele>
<time>2010-07-18T09:17:30Z</time>
<desc>lat.=55.678310, lon.=26.343861, Alt.=148.627075m. Speed=19.476000m/h.</desc>
<speed>5.410000</speed>
</trkpt>
<trkpt lat="55.678318" lon="26.343958">
<ele>146.595825</ele>
<time>2010-07-18T09:17:31Z</time>
<desc>lat.=55.678318, lon.=26.343958, Alt.=146.595825m. Speed=20.160000m/h.</desc>
<speed>5.600000</speed>
</trkpt>
<trkpt lat="55.678326" lon="26.344051">
<ele>145.158325</ele>
<time>2010-07-18T09:17:32Z</time>
<desc>lat.=55.678326, lon.=26.344051, Alt.=145.158325m. Speed=20.304001m/h.</desc>
<speed>5.640000</speed>
</trkpt>
<trkpt lat="55.678341" lon="26.344139">
<ele>144.599731</ele>
<time>2010-07-18T09:17:33Z</time>
<desc>lat.=55.678341, lon.=26.344139, Alt.=144.599731m. Speed=20.664000m/h.</desc>
<speed>5.740000</speed>
</trkpt>
<trkpt lat="55.678356" lon="26.344233">
<ele>144.748169</ele>
<time>2010-07-18T09:17:34Z</time>
<desc>lat.=55.678356, lon.=26.344233, Alt.=144.748169m. Speed=19.584000m/h.</desc>
<speed>5.440000</speed>
</trkpt>
<trkpt lat="55.678360" lon="26.344326">
<ele>144.435669</ele>
<time>2010-07-18T09:17:35Z</time>
<desc>lat.=55.678360, lon.=26.344326, Alt.=144.435669m. Speed=18.827999m/h.</desc>
<speed>5.230000</speed>
</trkpt>
<trkpt lat="55.678364" lon="26.344406">
<ele>144.572388</ele>
<time>2010-07-18T09:17:36Z</time>
<desc>lat.=55.678364, lon.=26.344406, Alt.=144.572388m. Speed=17.604000m/h.</desc>
<speed>4.890000</speed>
</trkpt>
<trkpt lat="55.678402" lon="26.344475">
<ele>147.220825</ele>
<time>2010-07-18T09:17:37Z</time>
<desc>lat.=55.678402, lon.=26.344475, Alt.=147.220825m. Speed=17.028000m/h.</desc>
<speed>4.730000</speed>
</trkpt>
<trkpt lat="55.678421" lon="26.344547">
<ele>147.564575</ele>
<time>2010-07-18T09:17:38Z</time>
<desc>lat.=55.678421, lon.=26.344547, Alt.=147.564575m. Speed=14.472000m/h.</desc>
<speed>4.020000</speed>
</trkpt>
<trkpt lat="55.678452" lon="26.344610">
<ele>149.056763</ele>
<time>2010-07-18T09:17:39Z</time>
<desc>lat.=55.678452, lon.=26.344610, Alt.=149.056763m. Speed=13.680000m/h.</desc>
<speed>3.800000</speed>
</trkpt>
<trkpt lat="55.678482" lon="26.344675">
<ele>149.463013</ele>
<time>2010-07-18T09:17:40Z</time>
<desc>lat.=55.678482, lon.=26.344675, Alt.=149.463013m. Speed=12.240000m/h.</desc>
<speed>3.400000</speed>
</trkpt>
<trkpt lat="55.678497" lon="26.344717">
<ele>149.607544</ele>
<time>2010-07-18T09:17:41Z</time>
<desc>lat.=55.678497, lon.=26.344717, Alt.=149.607544m. Speed=9.612000m/h.</desc>
<speed>2.670000</speed>
</trkpt>
<trkpt lat="55.678516" lon="26.344753">
<ele>150.916138</ele>
<time>2010-07-18T09:17:42Z</time>
<desc>lat.=55.678516, lon.=26.344753, Alt.=150.916138m. Speed=8.136000m/h.</desc>
<speed>2.260000</speed>
</trkpt>
<trkpt lat="55.678539" lon="26.344795">
<ele>152.420044</ele>
<time>2010-07-18T09:17:43Z</time>
<desc>lat.=55.678539, lon.=26.344795, Alt.=152.420044m. Speed=7.884000m/h.</desc>
<speed>2.190000</speed>
</trkpt>
<trkpt lat="55.678551" lon="26.344839">
<ele>152.986450</ele>
<time>2010-07-18T09:17:44Z</time>
<desc>lat.=55.678551, lon.=26.344839, Alt.=152.986450m. Speed=8.280000m/h.</desc>
<speed>2.300000</speed>
</trkpt>
<trkpt lat="55.678566" lon="26.344875">
<ele>153.630981</ele>
<time>2010-07-18T09:17:45Z</time>
<desc>lat.=55.678566, lon.=26.344875, Alt.=153.630981m. Speed=8.388000m/h.</desc>
<speed>2.330000</speed>
</trkpt>
<trkpt lat="55.678593" lon="26.344912">
<ele>154.744263</ele>
<time>2010-07-18T09:17:46Z</time>
<desc>lat.=55.678593, lon.=26.344912, Alt.=154.744263m. Speed=7.632000m/h.</desc>
<speed>2.120000</speed>
</trkpt>
<trkpt lat="55.678616" lon="26.344946">
<ele>155.877075</ele>
<time>2010-07-18T09:17:47Z</time>
<desc>lat.=55.678616, lon.=26.344946, Alt.=155.877075m. Speed=6.912000m/h.</desc>
<speed>1.920000</speed>
</trkpt>
<trkpt lat="55.678627" lon="26.344973">
<ele>156.185669</ele>
<time>2010-07-18T09:17:48Z</time>
<desc>lat.=55.678627, lon.=26.344973, Alt.=156.185669m. Speed=6.156000m/h.</desc>
<speed>1.710000</speed>
</trkpt>
<trkpt lat="55.678646" lon="26.344986">
<ele>156.783325</ele>
<time>2010-07-18T09:17:49Z</time>
<desc>lat.=55.678646, lon.=26.344986, Alt.=156.783325m. Speed=5.292000m/h.</desc>
<speed>1.470000</speed>
</trkpt>
<trkpt lat="55.678669" lon="26.345003">
<ele>157.658325</ele>
<time>2010-07-18T09:17:50Z</time>
<desc>lat.=55.678669, lon.=26.345003, Alt.=157.658325m. Speed=5.148000m/h.</desc>
<speed>1.430000</speed>
</trkpt>
<trkpt lat="55.678684" lon="26.344997">
<ele>157.763794</ele>
<time>2010-07-18T09:17:51Z</time>
<desc>lat.=55.678684, lon.=26.344997, Alt.=157.763794m. Speed=5.544000m/h.</desc>
<speed>1.540000</speed>
</trkpt>
<trkpt lat="55.678703" lon="26.344988">
<ele>158.728638</ele>
<time>2010-07-18T09:17:52Z</time>
<desc>lat.=55.678703, lon.=26.344988, Alt.=158.728638m. Speed=2.268000m/h.</desc>
<speed>0.630000</speed>
</trkpt>
<trkpt lat="55.678711" lon="26.344978">
<ele>159.224731</ele>
<time>2010-07-18T09:17:53Z</time>
<desc>lat.=55.678711, lon.=26.344978, Alt.=159.224731m. Speed=0.864000m/h.</desc>
<speed>0.240000</speed>
</trkpt>
<trkpt lat="55.678711" lon="26.344976">
<ele>159.896606</ele>
<time>2010-07-18T09:17:54Z</time>
<desc>lat.=55.678711, lon.=26.344976, Alt.=159.896606m. Speed=0.576000m/h.</desc>
<speed>0.160000</speed>
</trkpt>
<trkpt lat="55.678707" lon="26.344980">
<ele>160.091919</ele>
<time>2010-07-18T09:17:55Z</time>
<desc>lat.=55.678707, lon.=26.344980, Alt.=160.091919m. Speed=0.324000m/h.</desc>
<speed>0.090000</speed>
</trkpt>
<trkpt lat="55.678703" lon="26.344980">
<ele>160.037231</ele>
<time>2010-07-18T09:17:56Z</time>
<desc>lat.=55.678703, lon.=26.344980, Alt.=160.037231m. Speed=0.180000m/h.</desc>
<speed>0.050000</speed>
</trkpt>
<trkpt lat="55.678703" lon="26.344980">
<ele>159.998169</ele>
<time>2010-07-18T09:17:57Z</time>
<desc>lat.=55.678703, lon.=26.344980, Alt.=159.998169m. Speed=0.000000m/h.</desc>
<speed>0.000000</speed>
</trkpt>
<trkpt lat="55.678703" lon="26.344980">
<ele>160.017700</ele>
<time>2010-07-18T09:17:58Z</time>
<desc>lat.=55.678703, lon.=26.344980, Alt.=160.017700m. Speed=0.360000m/h.</desc>
<speed>0.100000</speed>
</trkpt>
<trkpt lat="55.678707" lon="26.344982">
<ele>160.025513</ele>
<time>2010-07-18T09:17:59Z</time>
<desc>lat.=55.678707, lon.=26.344982, Alt.=160.025513m. Speed=0.000000m/h.</desc>
<speed>0.000000</speed>
</trkpt>
<trkpt lat="55.678707" lon="26.344982">
<ele>160.021606</ele>
<time>2010-07-18T09:18:00Z</time>
<desc>lat.=55.678707, lon.=26.344982, Alt.=160.021606m. Speed=0.072000m/h.</desc>
<speed>0.020000</speed>
</trkpt>
<trkpt lat="55.678707" lon="26.344982">
<ele>160.025513</ele>
<time>2010-07-18T09:18:01Z</time>
<desc>lat.=55.678707, lon.=26.344982, Alt.=160.025513m. Speed=0.072000m/h.</desc>
<speed>0.020000</speed>
</trkpt>
<trkpt lat="55.678707" lon="26.344982">
<ele>160.025513</ele>
<time>2010-07-18T09:18:02Z</time>
<desc>lat.=55.678707, lon.=26.344982, Alt.=160.025513m. Speed=0.036000m/h.</desc>
<speed>0.010000</speed>
</trkpt>
<trkpt lat="55.678707" lon="26.344982">
<ele>160.025513</ele>
<time>2010-07-18T09:18:03Z</time>
<desc>lat.=55.678707, lon.=26.344982, Alt.=160.025513m. Speed=0.000000m/h.</desc>
<speed>0.000000</speed>
</trkpt>
<trkpt lat="55.678707" lon="26.344982">
<ele>160.025513</ele>
<time>2010-07-18T09:18:04Z</time>
<desc>lat.=55.678707, lon.=26.344982, Alt.=160.025513m. Speed=0.000000m/h.</desc>
<speed>0.000000</speed>
</trkpt>
<trkpt lat="55.678707" lon="26.344982">
<ele>160.025513</ele>
<time>2010-07-18T09:18:05Z</time>
<desc>lat.=55.678707, lon.=26.344982, Alt.=160.025513m. Speed=0.000000m/h.</desc>
<speed>0.000000</speed>
</trkpt>
<trkpt lat="55.678707" lon="26.344982">
<ele>160.021606</ele>
<time>2010-07-18T09:18:06Z</time>
<desc>lat.=55.678707, lon.=26.344982, Alt.=160.021606m. Speed=0.000000m/h.</desc>
<speed>0.000000</speed>
</trkpt>
<trkpt lat="55.678707" lon="26.344982">
<ele>160.029419</ele>
<time>2010-07-18T09:18:07Z</time>
<desc>lat.=55.678707, lon.=26.344982, Alt.=160.029419m. Speed=0.000000m/h.</desc>
<speed>0.000000</speed>
</trkpt>
<trkpt lat="55.678707" lon="26.344982">
<ele>160.045044</ele>
<time>2010-07-18T09:18:08Z</time>
<desc>lat.=55.678707, lon.=26.344982, Alt.=160.045044m. Speed=0.000000m/h.</desc>
<speed>0.000000</speed>
</trkpt>
<trkpt lat="55.678707" lon="26.344982">
<ele>160.060669</ele>
<time>2010-07-18T09:18:09Z</time>
<desc>lat.=55.678707, lon.=26.344982, Alt.=160.060669m. Speed=0.000000m/h.</desc>
<speed>0.000000</speed>
</trkpt>
<trkpt lat="55.678707" lon="26.344982">
<ele>160.045044</ele>
<time>2010-07-18T09:18:10Z</time>
<desc>lat.=55.678707, lon.=26.344982, Alt.=160.045044m. Speed=0.036000m/h.</desc>
<speed>0.010000</speed>
</trkpt>
<trkpt lat="55.678707" lon="26.344982">
<ele>160.052856</ele>
<time>2010-07-18T09:18:11Z</time>
<desc>lat.=55.678707, lon.=26.344982, Alt.=160.052856m. Speed=0.000000m/h.</desc>
<speed>0.000000</speed>
</trkpt>
<trkpt lat="55.678707" lon="26.344982">
<ele>160.076294</ele>
<time>2010-07-18T09:18:12Z</time>
<desc>lat.=55.678707, lon.=26.344982, Alt.=160.076294m. Speed=0.000000m/h.</desc>
<speed>0.000000</speed>
</trkpt>
<trkpt lat="55.678707" lon="26.344982">
<ele>160.084106</ele>
<time>2010-07-18T09:18:13Z</time>
<desc>lat.=55.678707, lon.=26.344982, Alt.=160.084106m. Speed=0.000000m/h.</desc>
<speed>0.000000</speed>
</trkpt>
<trkpt lat="55.678707" lon="26.344982">
<ele>160.091919</ele>
<time>2010-07-18T09:18:14Z</time>
<desc>lat.=55.678707, lon.=26.344982, Alt.=160.091919m. Speed=0.036000m/h.</desc>
<speed>0.010000</speed>
</trkpt>
<trkpt lat="55.678707" lon="26.344982">
<ele>160.103638</ele>
<time>2010-07-18T09:18:15Z</time>
<desc>lat.=55.678707, lon.=26.344982, Alt.=160.103638m. Speed=0.000000m/h.</desc>
<speed>0.000000</speed>
</trkpt>
<trkpt lat="55.678707" lon="26.344982">
<ele>160.099731</ele>
<time>2010-07-18T09:18:16Z</time>
<desc>lat.=55.678707, lon.=26.344982, Alt.=160.099731m. Speed=0.000000m/h.</desc>
<speed>0.000000</speed>
</trkpt>
<trkpt lat="55.678707" lon="26.344982">
<ele>160.095825</ele>
<time>2010-07-18T09:18:17Z</time>
<desc>lat.=55.678707, lon.=26.344982, Alt.=160.095825m. Speed=0.036000m/h.</desc>
<speed>0.010000</speed>
</trkpt>
<trkpt lat="55.678707" lon="26.344982">
<ele>160.091919</ele>
<time>2010-07-18T09:18:18Z</time>
<desc>lat.=55.678707, lon.=26.344982, Alt.=160.091919m. Speed=0.036000m/h.</desc>
<speed>0.010000</speed>
</trkpt>
<trkpt lat="55.678707" lon="26.344982">
<ele>160.088013</ele>
<time>2010-07-18T09:18:19Z</time>
<desc>lat.=55.678707, lon.=26.344982, Alt.=160.088013m. Speed=0.000000m/h.</desc>
<speed>0.000000</speed>
</trkpt>
<trkpt lat="55.678707" lon="26.344982">
<ele>160.084106</ele>
<time>2010-07-18T09:18:20Z</time>
<desc>lat.=55.678707, lon.=26.344982, Alt.=160.084106m. Speed=0.000000m/h.</desc>
<speed>0.000000</speed>
</trkpt>
<trkpt lat="55.678707" lon="26.344982">
<ele>160.107544</ele>
<time>2010-07-18T09:18:21Z</time>
<desc>lat.=55.678707, lon.=26.344982, Alt.=160.107544m. Speed=0.036000m/h.</desc>
<speed>0.010000</speed>
</trkpt>
<trkpt lat="55.678707" lon="26.344982">
<ele>160.107544</ele>
<time>2010-07-18T09:18:22Z</time>
<desc>lat.=55.678707, lon.=26.344982, Alt.=160.107544m. Speed=0.036000m/h.</desc>
<speed>0.010000</speed>
</trkpt>
<trkpt lat="55.678707" lon="26.344982">
<ele>160.119263</ele>
<time>2010-07-18T09:18:23Z</time>
<desc>lat.=55.678707, lon.=26.344982, Alt.=160.119263m. Speed=0.000000m/h.</desc>
<speed>0.000000</speed>
</trkpt>
<trkpt lat="55.678707" lon="26.344982">
<ele>160.119263</ele>
<time>2010-07-18T09:18:24Z</time>
<desc>lat.=55.678707, lon.=26.344982, Alt.=160.119263m. Speed=0.000000m/h.</desc>
<speed>0.000000</speed>
</trkpt>
<trkpt lat="55.678707" lon="26.344982">
<ele>160.130981</ele>
<time>2010-07-18T09:18:25Z</time>
<desc>lat.=55.678707, lon.=26.344982, Alt.=160.130981m. Speed=0.000000m/h.</desc>
<speed>0.000000</speed>
</trkpt>
<trkpt lat="55.678707" lon="26.344982">
<ele>160.127075</ele>
<time>2010-07-18T09:18:26Z</time>
<desc>lat.=55.678707, lon.=26.344982, Alt.=160.127075m. Speed=0.000000m/h.</desc>
<speed>0.000000</speed>
</trkpt>
<trkpt lat="55.678707" lon="26.344982">
<ele>160.130981</ele>
<time>2010-07-18T09:18:27Z</time>
<desc>lat.=55.678707, lon.=26.344982, Alt.=160.130981m. Speed=0.000000m/h.</desc>
<speed>0.000000</speed>
</trkpt>
<trkpt lat="55.678707" lon="26.344982">
<ele>160.138794</ele>
<time>2010-07-18T09:18:28Z</time>
<desc>lat.=55.678707, lon.=26.344982, Alt.=160.138794m. Speed=0.000000m/h.</desc>
<speed>0.000000</speed>
</trkpt>
<trkpt lat="55.678707" lon="26.344984">
<ele>160.146606</ele>
<time>2010-07-18T09:18:29Z</time>
<desc>lat.=55.678707, lon.=26.344984, Alt.=160.146606m. Speed=0.000000m/h.</desc>
<speed>0.000000</speed>
</trkpt>
<trkpt lat="55.678707" lon="26.344984">
<ele>160.150513</ele>
<time>2010-07-18T09:18:30Z</time>
<desc>lat.=55.678707, lon.=26.344984, Alt.=160.150513m. Speed=0.000000m/h.</desc>
<speed>0.000000</speed>
</trkpt>
<trkpt lat="55.678707" lon="26.344984">
<ele>160.150513</ele>
<time>2010-07-18T09:18:31Z</time>
<desc>lat.=55.678707, lon.=26.344984, Alt.=160.150513m. Speed=0.000000m/h.</desc>
<speed>0.000000</speed>
</trkpt>
<trkpt lat="55.678707" lon="26.344984">
<ele>160.150513</ele>
<time>2010-07-18T09:18:32Z</time>
<desc>lat.=55.678707, lon.=26.344984, Alt.=160.150513m. Speed=0.000000m/h.</desc>
<speed>0.000000</speed>
</trkpt>
<trkpt lat="55.678707" lon="26.344984">
<ele>160.154419</ele>
<time>2010-07-18T09:18:33Z</time>
<desc>lat.=55.678707, lon.=26.344984, Alt.=160.154419m. Speed=0.000000m/h.</desc>
<speed>0.000000</speed>
</trkpt>
<trkpt lat="55.678707" lon="26.344984">
<ele>160.154419</ele>
<time>2010-07-18T09:18:34Z</time>
<desc>lat.=55.678707, lon.=26.344984, Alt.=160.154419m. Speed=0.036000m/h.</desc>
<speed>0.010000</speed>
</trkpt>
<trkpt lat="55.678707" lon="26.344984">
<ele>160.154419</ele>
<time>2010-07-18T09:18:35Z</time>
<desc>lat.=55.678707, lon.=26.344984, Alt.=160.154419m. Speed=0.000000m/h.</desc>
<speed>0.000000</speed>
</trkpt>
<trkpt lat="55.678707" lon="26.344984">
<ele>160.162231</ele>
<time>2010-07-18T09:18:36Z</time>
<desc>lat.=55.678707, lon.=26.344984, Alt.=160.162231m. Speed=0.000000m/h.</desc>
<speed>0.000000</speed>
</trkpt>
<trkpt lat="55.678707" lon="26.344984">
<ele>160.166138</ele>
<time>2010-07-18T09:18:37Z</time>
<desc>lat.=55.678707, lon.=26.344984, Alt.=160.166138m. Speed=0.000000m/h.</desc>
<speed>0.000000</speed>
</trkpt>
<trkpt lat="55.678707" lon="26.344984">
<ele>160.170044</ele>
<time>2010-07-18T09:18:38Z</time>
<desc>lat.=55.678707, lon.=26.344984, Alt.=160.170044m. Speed=0.000000m/h.</desc>
<speed>0.000000</speed>
</trkpt>
<trkpt lat="55.678707" lon="26.344982">
<ele>160.177856</ele>
<time>2010-07-18T09:18:39Z</time>
<desc>lat.=55.678707, lon.=26.344982, Alt.=160.177856m. Speed=0.036000m/h.</desc>
<speed>0.010000</speed>
</trkpt>
<trkpt lat="55.678707" lon="26.344982">
<ele>160.181763</ele>
<time>2010-07-18T09:18:40Z</time>
<desc>lat.=55.678707, lon.=26.344982, Alt.=160.181763m. Speed=0.000000m/h.</desc>
<speed>0.000000</speed>
</trkpt>
<trkpt lat="55.678707" lon="26.344982">
<ele>160.193481</ele>
<time>2010-07-18T09:18:41Z</time>
<desc>lat.=55.678707, lon.=26.344982, Alt.=160.193481m. Speed=0.000000m/h.</desc>
<speed>0.000000</speed>
</trkpt>
<trkpt lat="55.678707" lon="26.344982">
<ele>160.201294</ele>
<time>2010-07-18T09:18:42Z</time>
<desc>lat.=55.678707, lon.=26.344982, Alt.=160.201294m. Speed=0.036000m/h.</desc>
<speed>0.010000</speed>
</trkpt>
<trkpt lat="55.678707" lon="26.344982">
<ele>160.213013</ele>
<time>2010-07-18T09:18:43Z</time>
<desc>lat.=55.678707, lon.=26.344982, Alt.=160.213013m. Speed=0.000000m/h.</desc>
<speed>0.000000</speed>
</trkpt>
<trkpt lat="55.678707" lon="26.344982">
<ele>160.216919</ele>
<time>2010-07-18T09:18:44Z</time>
<desc>lat.=55.678707, lon.=26.344982, Alt.=160.216919m. Speed=0.000000m/h.</desc>
<speed>0.000000</speed>
</trkpt>
<trkpt lat="55.678707" lon="26.344982">
<ele>160.224731</ele>
<time>2010-07-18T09:18:45Z</time>
<desc>lat.=55.678707, lon.=26.344982, Alt.=160.224731m. Speed=0.072000m/h.</desc>
<speed>0.020000</speed>
</trkpt>
<trkpt lat="55.678707" lon="26.344982">
<ele>160.228638</ele>
<time>2010-07-18T09:18:46Z</time>
<desc>lat.=55.678707, lon.=26.344982, Alt.=160.228638m. Speed=0.288000m/h.</desc>
<speed>0.080000</speed>
</trkpt>
<trkpt lat="55.678707" lon="26.344982">
<ele>160.232544</ele>
<time>2010-07-18T09:18:47Z</time>
<desc>lat.=55.678707, lon.=26.344982, Alt.=160.232544m. Speed=0.000000m/h.</desc>
<speed>0.000000</speed>
</trkpt>
<trkpt lat="55.678707" lon="26.344982">
<ele>160.240356</ele>
<time>2010-07-18T09:18:48Z</time>
<desc>lat.=55.678707, lon.=26.344982, Alt.=160.240356m. Speed=0.108000m/h.</desc>
<speed>0.030000</speed>
</trkpt>
<trkpt lat="55.678707" lon="26.344982">
<ele>160.244263</ele>
<time>2010-07-18T09:18:49Z</time>
<desc>lat.=55.678707, lon.=26.344982, Alt.=160.244263m. Speed=0.324000m/h.</desc>
<speed>0.090000</speed>
</trkpt>
<trkpt lat="55.678707" lon="26.344982">
<ele>160.248169</ele>
<time>2010-07-18T09:18:50Z</time>
<desc>lat.=55.678707, lon.=26.344982, Alt.=160.248169m. Speed=0.288000m/h.</desc>
<speed>0.080000</speed>
</trkpt>
<trkpt lat="55.678711" lon="26.344980">
<ele>160.255981</ele>
<time>2010-07-18T09:18:51Z</time>
<desc>lat.=55.678711, lon.=26.344980, Alt.=160.255981m. Speed=1.728000m/h.</desc>
<speed>0.480000</speed>
</trkpt>
<trkpt lat="55.678711" lon="26.344973">
<ele>160.267700</ele>
<time>2010-07-18T09:18:52Z</time>
<desc>lat.=55.678711, lon.=26.344973, Alt.=160.267700m. Speed=9.360000m/h.</desc>
<speed>2.600000</speed>
</trkpt>
<trkpt lat="55.678741" lon="26.344952">
<ele>160.240356</ele>
<time>2010-07-18T09:18:53Z</time>
<desc>lat.=55.678741, lon.=26.344952, Alt.=160.240356m. Speed=11.268000m/h.</desc>
<speed>3.130000</speed>
</trkpt>
<trkpt lat="55.678772" lon="26.344931">
<ele>160.084106</ele>
<time>2010-07-18T09:18:54Z</time>
<desc>lat.=55.678772, lon.=26.344931, Alt.=160.084106m. Speed=12.744000m/h.</desc>
<speed>3.540000</speed>
</trkpt>
<trkpt lat="55.678802" lon="26.344904">
<ele>160.056763</ele>
<time>2010-07-18T09:18:55Z</time>
<desc>lat.=55.678802, lon.=26.344904, Alt.=160.056763m. Speed=12.744000m/h.</desc>
<speed>3.540000</speed>
</trkpt>
<trkpt lat="55.678837" lon="26.344887">
<ele>159.990356</ele>
<time>2010-07-18T09:18:56Z</time>
<desc>lat.=55.678837, lon.=26.344887, Alt.=159.990356m. Speed=14.328000m/h.</desc>
<speed>3.980000</speed>
</trkpt>
<trkpt lat="55.678875" lon="26.344858">
<ele>159.994263</ele>
<time>2010-07-18T09:18:57Z</time>
<desc>lat.=55.678875, lon.=26.344858, Alt.=159.994263m. Speed=15.696000m/h.</desc>
<speed>4.360000</speed>
</trkpt>
<trkpt lat="55.678913" lon="26.344830">
<ele>160.099731</ele>
<time>2010-07-18T09:18:58Z</time>
<desc>lat.=55.678913, lon.=26.344830, Alt.=160.099731m. Speed=17.243999m/h.</desc>
<speed>4.790000</speed>
</trkpt>
<trkpt lat="55.678951" lon="26.344801">
<ele>158.873169</ele>
<time>2010-07-18T09:18:59Z</time>
<desc>lat.=55.678951, lon.=26.344801, Alt.=158.873169m. Speed=17.568001m/h.</desc>
<speed>4.880000</speed>
</trkpt>
<trkpt lat="55.678993" lon="26.344769">
<ele>158.681763</ele>
<time>2010-07-18T09:19:00Z</time>
<desc>lat.=55.678993, lon.=26.344769, Alt.=158.681763m. Speed=17.676001m/h.</desc>
<speed>4.910000</speed>
</trkpt>
<trkpt lat="55.679035" lon="26.344734">
<ele>158.576294</ele>
<time>2010-07-18T09:19:01Z</time>
<desc>lat.=55.679035, lon.=26.344734, Alt.=158.576294m. Speed=18.431999m/h.</desc>
<speed>5.120000</speed>
</trkpt>
<trkpt lat="55.679085" lon="26.344700">
<ele>158.533325</ele>
<time>2010-07-18T09:19:02Z</time>
<desc>lat.=55.679085, lon.=26.344700, Alt.=158.533325m. Speed=18.936001m/h.</desc>
<speed>5.260000</speed>
</trkpt>
<trkpt lat="55.679138" lon="26.344666">
<ele>159.130981</ele>
<time>2010-07-18T09:19:03Z</time>
<desc>lat.=55.679138, lon.=26.344666, Alt.=159.130981m. Speed=18.900000m/h.</desc>
<speed>5.250000</speed>
</trkpt>
<trkpt lat="55.679184" lon="26.344629">
<ele>158.931763</ele>
<time>2010-07-18T09:19:04Z</time>
<desc>lat.=55.679184, lon.=26.344629, Alt.=158.931763m. Speed=18.540001m/h.</desc>
<speed>5.150000</speed>
</trkpt>
<trkpt lat="55.679226" lon="26.344595">
<ele>158.947388</ele>
<time>2010-07-18T09:19:05Z</time>
<desc>lat.=55.679226, lon.=26.344595, Alt.=158.947388m. Speed=17.424000m/h.</desc>
<speed>4.840000</speed>
</trkpt>
<trkpt lat="55.679268" lon="26.344563">
<ele>158.884888</ele>
<time>2010-07-18T09:19:06Z</time>
<desc>lat.=55.679268, lon.=26.344563, Alt.=158.884888m. Speed=18.072001m/h.</desc>
<speed>5.020000</speed>
</trkpt>
<trkpt lat="55.679310" lon="26.344530">
<ele>158.744263</ele>
<time>2010-07-18T09:19:07Z</time>
<desc>lat.=55.679310, lon.=26.344530, Alt.=158.744263m. Speed=16.704000m/h.</desc>
<speed>4.640000</speed>
</trkpt>
<trkpt lat="55.679348" lon="26.344500">
<ele>158.752075</ele>
<time>2010-07-18T09:19:08Z</time>
<desc>lat.=55.679348, lon.=26.344500, Alt.=158.752075m. Speed=16.200001m/h.</desc>
<speed>4.500000</speed>
</trkpt>
<trkpt lat="55.679390" lon="26.344477">
<ele>158.955200</ele>
<time>2010-07-18T09:19:09Z</time>
<desc>lat.=55.679390, lon.=26.344477, Alt.=158.955200m. Speed=15.516000m/h.</desc>
<speed>4.310000</speed>
</trkpt>
<trkpt lat="55.679436" lon="26.344452">
<ele>159.334106</ele>
<time>2010-07-18T09:19:10Z</time>
<desc>lat.=55.679436, lon.=26.344452, Alt.=159.334106m. Speed=15.408000m/h.</desc>
<speed>4.280000</speed>
</trkpt>
<trkpt lat="55.679489" lon="26.344423">
<ele>160.521606</ele>
<time>2010-07-18T09:19:11Z</time>
<desc>lat.=55.679489, lon.=26.344423, Alt.=160.521606m. Speed=15.768000m/h.</desc>
<speed>4.380000</speed>
</trkpt>
<trkpt lat="55.679527" lon="26.344393">
<ele>160.670044</ele>
<time>2010-07-18T09:19:12Z</time>
<desc>lat.=55.679527, lon.=26.344393, Alt.=160.670044m. Speed=16.955999m/h.</desc>
<speed>4.710000</speed>
</trkpt>
<trkpt lat="55.679569" lon="26.344362">
<ele>161.154419</ele>
<time>2010-07-18T09:19:13Z</time>
<desc>lat.=55.679569, lon.=26.344362, Alt.=161.154419m. Speed=15.588000m/h.</desc>
<speed>4.330000</speed>
</trkpt>
<trkpt lat="55.679607" lon="26.344326">
<ele>161.853638</ele>
<time>2010-07-18T09:19:14Z</time>
<desc>lat.=55.679607, lon.=26.344326, Alt.=161.853638m. Speed=17.280001m/h.</desc>
<speed>4.800000</speed>
</trkpt>
<trkpt lat="55.679634" lon="26.344290">
<ele>161.611450</ele>
<time>2010-07-18T09:19:15Z</time>
<desc>lat.=55.679634, lon.=26.344290, Alt.=161.611450m. Speed=18.180000m/h.</desc>
<speed>5.050000</speed>
</trkpt>
<trkpt lat="55.679672" lon="26.344255">
<ele>161.923950</ele>
<time>2010-07-18T09:19:16Z</time>
<desc>lat.=55.679672, lon.=26.344255, Alt.=161.923950m. Speed=17.172001m/h.</desc>
<speed>4.770000</speed>
</trkpt>
<trkpt lat="55.679714" lon="26.344223">
<ele>162.920044</ele>
<time>2010-07-18T09:19:17Z</time>
<desc>lat.=55.679714, lon.=26.344223, Alt.=162.920044m. Speed=17.964001m/h.</desc>
<speed>4.990000</speed>
</trkpt>
<trkpt lat="55.679764" lon="26.344204">
<ele>163.627075</ele>
<time>2010-07-18T09:19:18Z</time>
<desc>lat.=55.679764, lon.=26.344204, Alt.=163.627075m. Speed=17.712000m/h.</desc>
<speed>4.920000</speed>
</trkpt>
<trkpt lat="55.679810" lon="26.344194">
<ele>164.564575</ele>
<time>2010-07-18T09:19:19Z</time>
<desc>lat.=55.679810, lon.=26.344194, Alt.=164.564575m. Speed=15.552000m/h.</desc>
<speed>4.320000</speed>
</trkpt>
<trkpt lat="55.679848" lon="26.344187">
<ele>165.752075</ele>
<time>2010-07-18T09:19:20Z</time>
<desc>lat.=55.679848, lon.=26.344187, Alt.=165.752075m. Speed=11.592000m/h.</desc>
<speed>3.220000</speed>
</trkpt>
<trkpt lat="55.679882" lon="26.344170">
<ele>167.197388</ele>
<time>2010-07-18T09:19:21Z</time>
<desc>lat.=55.679882, lon.=26.344170, Alt.=167.197388m. Speed=8.460000m/h.</desc>
<speed>2.350000</speed>
</trkpt>
<trkpt lat="55.679901" lon="26.344143">
<ele>168.318481</ele>
<time>2010-07-18T09:19:22Z</time>
<desc>lat.=55.679901, lon.=26.344143, Alt.=168.318481m. Speed=6.624000m/h.</desc>
<speed>1.840000</speed>
</trkpt>
<trkpt lat="55.679916" lon="26.344124">
<ele>168.431763</ele>
<time>2010-07-18T09:19:23Z</time>
<desc>lat.=55.679916, lon.=26.344124, Alt.=168.431763m. Speed=6.516000m/h.</desc>
<speed>1.810000</speed>
</trkpt>
<trkpt lat="55.679939" lon="26.344099">
<ele>168.892700</ele>
<time>2010-07-18T09:19:24Z</time>
<desc>lat.=55.679939, lon.=26.344099, Alt.=168.892700m. Speed=8.604000m/h.</desc>
<speed>2.390000</speed>
</trkpt>
<trkpt lat="55.679958" lon="26.344076">
<ele>169.115356</ele>
<time>2010-07-18T09:19:25Z</time>
<desc>lat.=55.679958, lon.=26.344076, Alt.=169.115356m. Speed=10.296000m/h.</desc>
<speed>2.860000</speed>
</trkpt>
<trkpt lat="55.679981" lon="26.344059">
<ele>169.865356</ele>
<time>2010-07-18T09:19:26Z</time>
<desc>lat.=55.679981, lon.=26.344059, Alt.=169.865356m. Speed=9.216000m/h.</desc>
<speed>2.560000</speed>
</trkpt>
<trkpt lat="55.680000" lon="26.344036">
<ele>170.412231</ele>
<time>2010-07-18T09:19:27Z</time>
<desc>lat.=55.680000, lon.=26.344036, Alt.=170.412231m. Speed=6.696000m/h.</desc>
<speed>1.860000</speed>
</trkpt>
<trkpt lat="55.680012" lon="26.344017">
<ele>171.013794</ele>
<time>2010-07-18T09:19:28Z</time>
<desc>lat.=55.680012, lon.=26.344017, Alt.=171.013794m. Speed=6.696000m/h.</desc>
<speed>1.860000</speed>
</trkpt>
<trkpt lat="55.680027" lon="26.344002">
<ele>171.861450</ele>
<time>2010-07-18T09:19:29Z</time>
<desc>lat.=55.680027, lon.=26.344002, Alt.=171.861450m. Speed=5.580000m/h.</desc>
<speed>1.550000</speed>
</trkpt>
<trkpt lat="55.680042" lon="26.343987">
<ele>172.283325</ele>
<time>2010-07-18T09:19:30Z</time>
<desc>lat.=55.680042, lon.=26.343987, Alt.=172.283325m. Speed=7.272000m/h.</desc>
<speed>2.020000</speed>
</trkpt>
<trkpt lat="55.680058" lon="26.343971">
<ele>172.787231</ele>
<time>2010-07-18T09:19:31Z</time>
<desc>lat.=55.680058, lon.=26.343971, Alt.=172.787231m. Speed=9.720000m/h.</desc>
<speed>2.700000</speed>
</trkpt>
<trkpt lat="55.680084" lon="26.343948">
<ele>173.748169</ele>
<time>2010-07-18T09:19:32Z</time>
<desc>lat.=55.680084, lon.=26.343948, Alt.=173.748169m. Speed=11.664000m/h.</desc>
<speed>3.240000</speed>
</trkpt>
<trkpt lat="55.680111" lon="26.343924">
<ele>174.357544</ele>
<time>2010-07-18T09:19:33Z</time>
<desc>lat.=55.680111, lon.=26.343924, Alt.=174.357544m. Speed=12.780000m/h.</desc>
<speed>3.550000</speed>
</trkpt>
<trkpt lat="55.680145" lon="26.343901">
<ele>173.029419</ele>
<time>2010-07-18T09:19:34Z</time>
<desc>lat.=55.680145, lon.=26.343901, Alt.=173.029419m. Speed=13.356000m/h.</desc>
<speed>3.710000</speed>
</trkpt>
<trkpt lat="55.680180" lon="26.343882">
<ele>173.353638</ele>
<time>2010-07-18T09:19:35Z</time>
<desc>lat.=55.680180, lon.=26.343882, Alt.=173.353638m. Speed=14.580000m/h.</desc>
<speed>4.050000</speed>
</trkpt>
<trkpt lat="55.680218" lon="26.343861">
<ele>173.830200</ele>
<time>2010-07-18T09:19:36Z</time>
<desc>lat.=55.680218, lon.=26.343861, Alt.=173.830200m. Speed=15.084000m/h.</desc>
<speed>4.190000</speed>
</trkpt>
<trkpt lat="55.680256" lon="26.343849">
<ele>174.162231</ele>
<time>2010-07-18T09:19:37Z</time>
<desc>lat.=55.680256, lon.=26.343849, Alt.=174.162231m. Speed=14.832000m/h.</desc>
<speed>4.120000</speed>
</trkpt>
<trkpt lat="55.680290" lon="26.343845">
<ele>174.404419</ele>
<time>2010-07-18T09:19:38Z</time>
<desc>lat.=55.680290, lon.=26.343845, Alt.=174.404419m. Speed=13.284000m/h.</desc>
<speed>3.690000</speed>
</trkpt>
<trkpt lat="55.680325" lon="26.343845">
<ele>173.767700</ele>
<time>2010-07-18T09:19:39Z</time>
<desc>lat.=55.680325, lon.=26.343845, Alt.=173.767700m. Speed=10.188000m/h.</desc>
<speed>2.830000</speed>
</trkpt>
<trkpt lat="55.680351" lon="26.343842">
<ele>172.795044</ele>
<time>2010-07-18T09:19:40Z</time>
<desc>lat.=55.680351, lon.=26.343842, Alt.=172.795044m. Speed=5.796000m/h.</desc>
<speed>1.610000</speed>
</trkpt>
<trkpt lat="55.680363" lon="26.343838">
<ele>172.345825</ele>
<time>2010-07-18T09:19:41Z</time>
<desc>lat.=55.680363, lon.=26.343838, Alt.=172.345825m. Speed=3.276000m/h.</desc>
<speed>0.910000</speed>
</trkpt>
<trkpt lat="55.680370" lon="26.343832">
<ele>172.361450</ele>
<time>2010-07-18T09:19:42Z</time>
<desc>lat.=55.680370, lon.=26.343832, Alt.=172.361450m. Speed=1.800000m/h.</desc>
<speed>0.500000</speed>
</trkpt>
<trkpt lat="55.680374" lon="26.343842">
<ele>172.302856</ele>
<time>2010-07-18T09:19:43Z</time>
<desc>lat.=55.680374, lon.=26.343842, Alt.=172.302856m. Speed=1.512000m/h.</desc>
<speed>0.420000</speed>
</trkpt>
<trkpt lat="55.680378" lon="26.343838">
<ele>172.193481</ele>
<time>2010-07-18T09:19:44Z</time>
<desc>lat.=55.680378, lon.=26.343838, Alt.=172.193481m. Speed=1.476000m/h.</desc>
<speed>0.410000</speed>
</trkpt>
<trkpt lat="55.680378" lon="26.343832">
<ele>172.338013</ele>
<time>2010-07-18T09:19:45Z</time>
<desc>lat.=55.680378, lon.=26.343832, Alt.=172.338013m. Speed=0.432000m/h.</desc>
<speed>0.120000</speed>
</trkpt>
<trkpt lat="55.680378" lon="26.343832">
<ele>172.478638</ele>
<time>2010-07-18T09:19:46Z</time>
<desc>lat.=55.680378, lon.=26.343832, Alt.=172.478638m. Speed=0.540000m/h.</desc>
<speed>0.150000</speed>
</trkpt>
<trkpt lat="55.680382" lon="26.343834">
<ele>172.580200</ele>
<time>2010-07-18T09:19:47Z</time>
<desc>lat.=55.680382, lon.=26.343834, Alt.=172.580200m. Speed=0.756000m/h.</desc>
<speed>0.210000</speed>
</trkpt>
<trkpt lat="55.680378" lon="26.343834">
<ele>172.650513</ele>
<time>2010-07-18T09:19:48Z</time>
<desc>lat.=55.680378, lon.=26.343834, Alt.=172.650513m. Speed=0.612000m/h.</desc>
<speed>0.170000</speed>
</trkpt>
<trkpt lat="55.680378" lon="26.343836">
<ele>172.697388</ele>
<time>2010-07-18T09:19:49Z</time>
<desc>lat.=55.680378, lon.=26.343836, Alt.=172.697388m. Speed=2.160000m/h.</desc>
<speed>0.600000</speed>
</trkpt>
<trkpt lat="55.680374" lon="26.343842">
<ele>172.736450</ele>
<time>2010-07-18T09:19:50Z</time>
<desc>lat.=55.680374, lon.=26.343842, Alt.=172.736450m. Speed=2.772000m/h.</desc>
<speed>0.770000</speed>
</trkpt>
<trkpt lat="55.680367" lon="26.343845">
<ele>172.779419</ele>
<time>2010-07-18T09:19:51Z</time>
<desc>lat.=55.680367, lon.=26.343845, Alt.=172.779419m. Speed=3.492000m/h.</desc>
<speed>0.970000</speed>
</trkpt>
<trkpt lat="55.680359" lon="26.343847">
<ele>172.818481</ele>
<time>2010-07-18T09:19:52Z</time>
<desc>lat.=55.680359, lon.=26.343847, Alt.=172.818481m. Speed=4.500000m/h.</desc>
<speed>1.250000</speed>
</trkpt>
<trkpt lat="55.680351" lon="26.343857">
<ele>172.869263</ele>
<time>2010-07-18T09:19:53Z</time>
<desc>lat.=55.680351, lon.=26.343857, Alt.=172.869263m. Speed=4.644000m/h.</desc>
<speed>1.290000</speed>
</trkpt>
<trkpt lat="55.680344" lon="26.343857">
<ele>172.763794</ele>
<time>2010-07-18T09:19:54Z</time>
<desc>lat.=55.680344, lon.=26.343857, Alt.=172.763794m. Speed=4.680000m/h.</desc>
<speed>1.300000</speed>
</trkpt>
<trkpt lat="55.680336" lon="26.343864">
<ele>173.322388</ele>
<time>2010-07-18T09:19:55Z</time>
<desc>lat.=55.680336, lon.=26.343864, Alt.=173.322388m. Speed=4.680000m/h.</desc>
<speed>1.300000</speed>
</trkpt>
<trkpt lat="55.680325" lon="26.343870">
<ele>173.369263</ele>
<time>2010-07-18T09:19:56Z</time>
<desc>lat.=55.680325, lon.=26.343870, Alt.=173.369263m. Speed=5.796000m/h.</desc>
<speed>1.610000</speed>
</trkpt>
<trkpt lat="55.680313" lon="26.343876">
<ele>173.486450</ele>
<time>2010-07-18T09:19:57Z</time>
<desc>lat.=55.680313, lon.=26.343876, Alt.=173.486450m. Speed=5.760000m/h.</desc>
<speed>1.600000</speed>
</trkpt>
<trkpt lat="55.680305" lon="26.343882">
<ele>173.416138</ele>
<time>2010-07-18T09:19:58Z</time>
<desc>lat.=55.680305, lon.=26.343882, Alt.=173.416138m. Speed=6.228000m/h.</desc>
<speed>1.730000</speed>
</trkpt>
<trkpt lat="55.680294" lon="26.343884">
<ele>173.451294</ele>
<time>2010-07-18T09:19:59Z</time>
<desc>lat.=55.680294, lon.=26.343884, Alt.=173.451294m. Speed=5.832000m/h.</desc>
<speed>1.620000</speed>
</trkpt>
<trkpt lat="55.680283" lon="26.343885">
<ele>173.537231</ele>
<time>2010-07-18T09:20:00Z</time>
<desc>lat.=55.680283, lon.=26.343885, Alt.=173.537231m. Speed=5.544000m/h.</desc>
<speed>1.540000</speed>
</trkpt>
<trkpt lat="55.680271" lon="26.343891">
<ele>173.771606</ele>
<time>2010-07-18T09:20:01Z</time>
<desc>lat.=55.680271, lon.=26.343891, Alt.=173.771606m. Speed=5.148000m/h.</desc>
<speed>1.430000</speed>
</trkpt>
<trkpt lat="55.680260" lon="26.343895">
<ele>173.841919</ele>
<time>2010-07-18T09:20:02Z</time>
<desc>lat.=55.680260, lon.=26.343895, Alt.=173.841919m. Speed=5.364000m/h.</desc>
<speed>1.490000</speed>
</trkpt>
<trkpt lat="55.680248" lon="26.343897">
<ele>173.990356</ele>
<time>2010-07-18T09:20:03Z</time>
<desc>lat.=55.680248, lon.=26.343897, Alt.=173.990356m. Speed=5.436000m/h.</desc>
<speed>1.510000</speed>
</trkpt>
<trkpt lat="55.680237" lon="26.343906">
<ele>174.115356</ele>
<time>2010-07-18T09:20:04Z</time>
<desc>lat.=55.680237, lon.=26.343906, Alt.=174.115356m. Speed=5.436000m/h.</desc>
<speed>1.510000</speed>
</trkpt>
<trkpt lat="55.680225" lon="26.343910">
<ele>174.166138</ele>
<time>2010-07-18T09:20:05Z</time>
<desc>lat.=55.680225, lon.=26.343910, Alt.=174.166138m. Speed=5.400000m/h.</desc>
<speed>1.500000</speed>
</trkpt>
<trkpt lat="55.680214" lon="26.343916">
<ele>174.123169</ele>
<time>2010-07-18T09:20:06Z</time>
<desc>lat.=55.680214, lon.=26.343916, Alt.=174.123169m. Speed=5.292000m/h.</desc>
<speed>1.470000</speed>
</trkpt>
<trkpt lat="55.680199" lon="26.343918">
<ele>174.154419</ele>
<time>2010-07-18T09:20:07Z</time>
<desc>lat.=55.680199, lon.=26.343918, Alt.=174.154419m. Speed=5.940000m/h.</desc>
<speed>1.650000</speed>
</trkpt>
<trkpt lat="55.680180" lon="26.343922">
<ele>174.287231</ele>
<time>2010-07-18T09:20:08Z</time>
<desc>lat.=55.680180, lon.=26.343922, Alt.=174.287231m. Speed=7.452000m/h.</desc>
<speed>2.070000</speed>
</trkpt>
<trkpt lat="55.680168" lon="26.343924">
<ele>174.306763</ele>
<time>2010-07-18T09:20:09Z</time>
<desc>lat.=55.680168, lon.=26.343924, Alt.=174.306763m. Speed=5.220000m/h.</desc>
<speed>1.450000</speed>
</trkpt>
<trkpt lat="55.680161" lon="26.343933">
<ele>174.365356</ele>
<time>2010-07-18T09:20:10Z</time>
<desc>lat.=55.680161, lon.=26.343933, Alt.=174.365356m. Speed=2.088000m/h.</desc>
<speed>0.580000</speed>
</trkpt>
<trkpt lat="55.680153" lon="26.343937">
<ele>174.412231</ele>
<time>2010-07-18T09:20:11Z</time>
<desc>lat.=55.680153, lon.=26.343937, Alt.=174.412231m. Speed=4.680000m/h.</desc>
<speed>1.300000</speed>
</trkpt>
<trkpt lat="55.680138" lon="26.343937">
<ele>174.080200</ele>
<time>2010-07-18T09:20:12Z</time>
<desc>lat.=55.680138, lon.=26.343937, Alt.=174.080200m. Speed=3.960000m/h.</desc>
<speed>1.100000</speed>
</trkpt>
<trkpt lat="55.680126" lon="26.343945">
<ele>174.021606</ele>
<time>2010-07-18T09:20:13Z</time>
<desc>lat.=55.680126, lon.=26.343945, Alt.=174.021606m. Speed=4.248000m/h.</desc>
<speed>1.180000</speed>
</trkpt>
<trkpt lat="55.680115" lon="26.343956">
<ele>174.013794</ele>
<time>2010-07-18T09:20:14Z</time>
<desc>lat.=55.680115, lon.=26.343956, Alt.=174.013794m. Speed=4.752000m/h.</desc>
<speed>1.320000</speed>
</trkpt>
<trkpt lat="55.680107" lon="26.343967">
<ele>174.201294</ele>
<time>2010-07-18T09:20:15Z</time>
<desc>lat.=55.680107, lon.=26.343967, Alt.=174.201294m. Speed=5.184000m/h.</desc>
<speed>1.440000</speed>
</trkpt>
<trkpt lat="55.680096" lon="26.343975">
<ele>174.224731</ele>
<time>2010-07-18T09:20:16Z</time>
<desc>lat.=55.680096, lon.=26.343975, Alt.=174.224731m. Speed=4.932000m/h.</desc>
<speed>1.370000</speed>
</trkpt>
<trkpt lat="55.680084" lon="26.343990">
<ele>174.119263</ele>
<time>2010-07-18T09:20:17Z</time>
<desc>lat.=55.680084, lon.=26.343990, Alt.=174.119263m. Speed=4.932000m/h.</desc>
<speed>1.370000</speed>
</trkpt>
<trkpt lat="55.680077" lon="26.343998">
<ele>174.154419</ele>
<time>2010-07-18T09:20:18Z</time>
<desc>lat.=55.680077, lon.=26.343998, Alt.=174.154419m. Speed=4.392000m/h.</desc>
<speed>1.220000</speed>
</trkpt>
<trkpt lat="55.680058" lon="26.344006">
<ele>174.252075</ele>
<time>2010-07-18T09:20:19Z</time>
<desc>lat.=55.680058, lon.=26.344006, Alt.=174.252075m. Speed=5.184000m/h.</desc>
<speed>1.440000</speed>
</trkpt>
<trkpt lat="55.680042" lon="26.344017">
<ele>174.193481</ele>
<time>2010-07-18T09:20:20Z</time>
<desc>lat.=55.680042, lon.=26.344017, Alt.=174.193481m. Speed=5.724000m/h.</desc>
<speed>1.590000</speed>
</trkpt>
<trkpt lat="55.680031" lon="26.344028">
<ele>174.334106</ele>
<time>2010-07-18T09:20:21Z</time>
<desc>lat.=55.680031, lon.=26.344028, Alt.=174.334106m. Speed=5.148000m/h.</desc>
<speed>1.430000</speed>
</trkpt>
<trkpt lat="55.680016" lon="26.344036">
<ele>174.849731</ele>
<time>2010-07-18T09:20:22Z</time>
<desc>lat.=55.680016, lon.=26.344036, Alt.=174.849731m. Speed=5.256000m/h.</desc>
<speed>1.460000</speed>
</trkpt>
<trkpt lat="55.680004" lon="26.344049">
<ele>175.091919</ele>
<time>2010-07-18T09:20:23Z</time>
<desc>lat.=55.680004, lon.=26.344049, Alt.=175.091919m. Speed=4.824000m/h.</desc>
<speed>1.340000</speed>
</trkpt>
<trkpt lat="55.679993" lon="26.344059">
<ele>175.326294</ele>
<time>2010-07-18T09:20:24Z</time>
<desc>lat.=55.679993, lon.=26.344059, Alt.=175.326294m. Speed=4.068000m/h.</desc>
<speed>1.130000</speed>
</trkpt>
<trkpt lat="55.679993" lon="26.344074">
<ele>175.873169</ele>
<time>2010-07-18T09:20:25Z</time>
<desc>lat.=55.679993, lon.=26.344074, Alt.=175.873169m. Speed=1.944000m/h.</desc>
<speed>0.540000</speed>
</trkpt>
<trkpt lat="55.679996" lon="26.344091">
<ele>176.670044</ele>
<time>2010-07-18T09:20:26Z</time>
<desc>lat.=55.679996, lon.=26.344091, Alt.=176.670044m. Speed=2.628000m/h.</desc>
<speed>0.730000</speed>
</trkpt>
<trkpt lat="55.679993" lon="26.344105">
<ele>176.177856</ele>
<time>2010-07-18T09:20:27Z</time>
<desc>lat.=55.679993, lon.=26.344105, Alt.=176.177856m. Speed=2.916000m/h.</desc>
<speed>0.810000</speed>
</trkpt>
<trkpt lat="55.679989" lon="26.344112">
<ele>175.681763</ele>
<time>2010-07-18T09:20:28Z</time>
<desc>lat.=55.679989, lon.=26.344112, Alt.=175.681763m. Speed=2.736000m/h.</desc>
<speed>0.760000</speed>
</trkpt>
<trkpt lat="55.679993" lon="26.344118">
<ele>175.392700</ele>
<time>2010-07-18T09:20:29Z</time>
<desc>lat.=55.679993, lon.=26.344118, Alt.=175.392700m. Speed=1.620000m/h.</desc>
<speed>0.450000</speed>
</trkpt>
<trkpt lat="55.679993" lon="26.344110">
<ele>176.295044</ele>
<time>2010-07-18T09:20:30Z</time>
<desc>lat.=55.679993, lon.=26.344110, Alt.=176.295044m. Speed=1.152000m/h.</desc>
<speed>0.320000</speed>
</trkpt>
<trkpt lat="55.679996" lon="26.344114">
<ele>176.517700</ele>
<time>2010-07-18T09:20:31Z</time>
<desc>lat.=55.679996, lon.=26.344114, Alt.=176.517700m. Speed=1.188000m/h.</desc>
<speed>0.330000</speed>
</trkpt>
<trkpt lat="55.680004" lon="26.344128">
<ele>176.627075</ele>
<time>2010-07-18T09:20:32Z</time>
<desc>lat.=55.680004, lon.=26.344128, Alt.=176.627075m. Speed=2.772000m/h.</desc>
<speed>0.770000</speed>
</trkpt>
<trkpt lat="55.680004" lon="26.344156">
<ele>176.357544</ele>
<time>2010-07-18T09:20:33Z</time>
<desc>lat.=55.680004, lon.=26.344156, Alt.=176.357544m. Speed=2.844000m/h.</desc>
<speed>0.790000</speed>
</trkpt>
<trkpt lat="55.680016" lon="26.344175">
<ele>176.111450</ele>
<time>2010-07-18T09:20:34Z</time>
<desc>lat.=55.680016, lon.=26.344175, Alt.=176.111450m. Speed=4.860000m/h.</desc>
<speed>1.350000</speed>
</trkpt>
<trkpt lat="55.680027" lon="26.344187">
<ele>175.822388</ele>
<time>2010-07-18T09:20:35Z</time>
<desc>lat.=55.680027, lon.=26.344187, Alt.=175.822388m. Speed=6.948000m/h.</desc>
<speed>1.930000</speed>
</trkpt>
<trkpt lat="55.680042" lon="26.344185">
<ele>175.787231</ele>
<time>2010-07-18T09:20:36Z</time>
<desc>lat.=55.680042, lon.=26.344185, Alt.=175.787231m. Speed=6.876000m/h.</desc>
<speed>1.910000</speed>
</trkpt>
<trkpt lat="55.680058" lon="26.344185">
<ele>176.013794</ele>
<time>2010-07-18T09:20:37Z</time>
<desc>lat.=55.680058, lon.=26.344185, Alt.=176.013794m. Speed=7.524000m/h.</desc>
<speed>2.090000</speed>
</trkpt>
<trkpt lat="55.680073" lon="26.344183">
<ele>175.720825</ele>
<time>2010-07-18T09:20:38Z</time>
<desc>lat.=55.680073, lon.=26.344183, Alt.=175.720825m. Speed=7.092000m/h.</desc>
<speed>1.970000</speed>
</trkpt>
<trkpt lat="55.680096" lon="26.344183">
<ele>175.869263</ele>
<time>2010-07-18T09:20:39Z</time>
<desc>lat.=55.680096, lon.=26.344183, Alt.=175.869263m. Speed=7.848000m/h.</desc>
<speed>2.180000</speed>
</trkpt>
<trkpt lat="55.680119" lon="26.344181">
<ele>176.072388</ele>
<time>2010-07-18T09:20:40Z</time>
<desc>lat.=55.680119, lon.=26.344181, Alt.=176.072388m. Speed=9.828000m/h.</desc>
<speed>2.730000</speed>
</trkpt>
<trkpt lat="55.680145" lon="26.344185">
<ele>176.439575</ele>
<time>2010-07-18T09:20:41Z</time>
<desc>lat.=55.680145, lon.=26.344185, Alt.=176.439575m. Speed=10.152000m/h.</desc>
<speed>2.820000</speed>
</trkpt>
<trkpt lat="55.680176" lon="26.344208">
<ele>176.556763</ele>
<time>2010-07-18T09:20:42Z</time>
<desc>lat.=55.680176, lon.=26.344208, Alt.=176.556763m. Speed=12.204000m/h.</desc>
<speed>3.390000</speed>
</trkpt>
<trkpt lat="55.680206" lon="26.344236">
<ele>175.537231</ele>
<time>2010-07-18T09:20:43Z</time>
<desc>lat.=55.680206, lon.=26.344236, Alt.=175.537231m. Speed=13.176000m/h.</desc>
<speed>3.660000</speed>
</trkpt>
<trkpt lat="55.680241" lon="26.344265">
<ele>175.216919</ele>
<time>2010-07-18T09:20:44Z</time>
<desc>lat.=55.680241, lon.=26.344265, Alt.=175.216919m. Speed=14.220000m/h.</desc>
<speed>3.950000</speed>
</trkpt>
<trkpt lat="55.680279" lon="26.344294">
<ele>175.123169</ele>
<time>2010-07-18T09:20:45Z</time>
<desc>lat.=55.680279, lon.=26.344294, Alt.=175.123169m. Speed=14.004000m/h.</desc>
<speed>3.890000</speed>
</trkpt>
<trkpt lat="55.680313" lon="26.344326">
<ele>174.873169</ele>
<time>2010-07-18T09:20:46Z</time>
<desc>lat.=55.680313, lon.=26.344326, Alt.=174.873169m. Speed=15.624000m/h.</desc>
<speed>4.340000</speed>
</trkpt>
<trkpt lat="55.680351" lon="26.344351">
<ele>174.845825</ele>
<time>2010-07-18T09:20:47Z</time>
<desc>lat.=55.680351, lon.=26.344351, Alt.=174.845825m. Speed=15.552000m/h.</desc>
<speed>4.320000</speed>
</trkpt>
<trkpt lat="55.680386" lon="26.344393">
<ele>174.748169</ele>
<time>2010-07-18T09:20:48Z</time>
<desc>lat.=55.680386, lon.=26.344393, Alt.=174.748169m. Speed=14.076000m/h.</desc>
<speed>3.910000</speed>
</trkpt>
<trkpt lat="55.680420" lon="26.344419">
<ele>174.548950</ele>
<time>2010-07-18T09:20:49Z</time>
<desc>lat.=55.680420, lon.=26.344419, Alt.=174.548950m. Speed=14.148000m/h.</desc>
<speed>3.930000</speed>
</trkpt>
<trkpt lat="55.680462" lon="26.344467">
<ele>174.701294</ele>
<time>2010-07-18T09:20:50Z</time>
<desc>lat.=55.680462, lon.=26.344467, Alt.=174.701294m. Speed=14.760000m/h.</desc>
<speed>4.100000</speed>
</trkpt>
<trkpt lat="55.680500" lon="26.344503">
<ele>175.353638</ele>
<time>2010-07-18T09:20:51Z</time>
<desc>lat.=55.680500, lon.=26.344503, Alt.=175.353638m. Speed=15.624000m/h.</desc>
<speed>4.340000</speed>
</trkpt>
<trkpt lat="55.680538" lon="26.344540">
<ele>175.529419</ele>
<time>2010-07-18T09:20:52Z</time>
<desc>lat.=55.680538, lon.=26.344540, Alt.=175.529419m. Speed=16.667999m/h.</desc>
<speed>4.630000</speed>
</trkpt>
<trkpt lat="55.680576" lon="26.344568">
<ele>175.662231</ele>
<time>2010-07-18T09:20:53Z</time>
<desc>lat.=55.680576, lon.=26.344568, Alt.=175.662231m. Speed=17.243999m/h.</desc>
<speed>4.790000</speed>
</trkpt>
<trkpt lat="55.680614" lon="26.344599">
<ele>175.611450</ele>
<time>2010-07-18T09:20:54Z</time>
<desc>lat.=55.680614, lon.=26.344599, Alt.=175.611450m. Speed=16.884001m/h.</desc>
<speed>4.690000</speed>
</trkpt>
<trkpt lat="55.680656" lon="26.344625">
<ele>175.857544</ele>
<time>2010-07-18T09:20:55Z</time>
<desc>lat.=55.680656, lon.=26.344625, Alt.=175.857544m. Speed=16.955999m/h.</desc>
<speed>4.710000</speed>
</trkpt>
<trkpt lat="55.680691" lon="26.344648">
<ele>175.693481</ele>
<time>2010-07-18T09:20:56Z</time>
<desc>lat.=55.680691, lon.=26.344648, Alt.=175.693481m. Speed=16.524000m/h.</desc>
<speed>4.590000</speed>
</trkpt>
<trkpt lat="55.680729" lon="26.344671">
<ele>175.474731</ele>
<time>2010-07-18T09:20:57Z</time>
<desc>lat.=55.680729, lon.=26.344671, Alt.=175.474731m. Speed=14.616000m/h.</desc>
<speed>4.060000</speed>
</trkpt>
<trkpt lat="55.680756" lon="26.344692">
<ele>175.287231</ele>
<time>2010-07-18T09:20:58Z</time>
<desc>lat.=55.680756, lon.=26.344692, Alt.=175.287231m. Speed=14.004000m/h.</desc>
<speed>3.890000</speed>
</trkpt>
<trkpt lat="55.680786" lon="26.344711">
<ele>175.119263</ele>
<time>2010-07-18T09:20:59Z</time>
<desc>lat.=55.680786, lon.=26.344711, Alt.=175.119263m. Speed=13.068000m/h.</desc>
<speed>3.630000</speed>
</trkpt>
<trkpt lat="55.680817" lon="26.344738">
<ele>175.033325</ele>
<time>2010-07-18T09:21:00Z</time>
<desc>lat.=55.680817, lon.=26.344738, Alt.=175.033325m. Speed=13.428000m/h.</desc>
<speed>3.730000</speed>
</trkpt>
<trkpt lat="55.680851" lon="26.344765">
<ele>174.970825</ele>
<time>2010-07-18T09:21:01Z</time>
<desc>lat.=55.680851, lon.=26.344765, Alt.=174.970825m. Speed=14.004000m/h.</desc>
<speed>3.890000</speed>
</trkpt>
<trkpt lat="55.680882" lon="26.344793">
<ele>174.791138</ele>
<time>2010-07-18T09:21:02Z</time>
<desc>lat.=55.680882, lon.=26.344793, Alt.=174.791138m. Speed=13.500000m/h.</desc>
<speed>3.750000</speed>
</trkpt>
<trkpt lat="55.680908" lon="26.344820">
<ele>174.685669</ele>
<time>2010-07-18T09:21:03Z</time>
<desc>lat.=55.680908, lon.=26.344820, Alt.=174.685669m. Speed=13.032000m/h.</desc>
<speed>3.620000</speed>
</trkpt>
<trkpt lat="55.680935" lon="26.344845">
<ele>174.576294</ele>
<time>2010-07-18T09:21:04Z</time>
<desc>lat.=55.680935, lon.=26.344845, Alt.=174.576294m. Speed=12.348000m/h.</desc>
<speed>3.430000</speed>
</trkpt>
<trkpt lat="55.680962" lon="26.344864">
<ele>174.482544</ele>
<time>2010-07-18T09:21:05Z</time>
<desc>lat.=55.680962, lon.=26.344864, Alt.=174.482544m. Speed=11.988000m/h.</desc>
<speed>3.330000</speed>
</trkpt>
<trkpt lat="55.680984" lon="26.344879">
<ele>174.517700</ele>
<time>2010-07-18T09:21:06Z</time>
<desc>lat.=55.680984, lon.=26.344879, Alt.=174.517700m. Speed=11.808000m/h.</desc>
<speed>3.280000</speed>
</trkpt>
<trkpt lat="55.681011" lon="26.344894">
<ele>174.584106</ele>
<time>2010-07-18T09:21:07Z</time>
<desc>lat.=55.681011, lon.=26.344894, Alt.=174.584106m. Speed=11.916000m/h.</desc>
<speed>3.310000</speed>
</trkpt>
<trkpt lat="55.681038" lon="26.344919">
<ele>174.443481</ele>
<time>2010-07-18T09:21:08Z</time>
<desc>lat.=55.681038, lon.=26.344919, Alt.=174.443481m. Speed=12.240000m/h.</desc>
<speed>3.400000</speed>
</trkpt>
<trkpt lat="55.681072" lon="26.344942">
<ele>174.466919</ele>
<time>2010-07-18T09:21:09Z</time>
<desc>lat.=55.681072, lon.=26.344942, Alt.=174.466919m. Speed=13.248000m/h.</desc>
<speed>3.680000</speed>
</trkpt>
<trkpt lat="55.681103" lon="26.344975">
<ele>174.404419</ele>
<time>2010-07-18T09:21:10Z</time>
<desc>lat.=55.681103, lon.=26.344975, Alt.=174.404419m. Speed=14.256000m/h.</desc>
<speed>3.960000</speed>
</trkpt>
<trkpt lat="55.681141" lon="26.344999">
<ele>174.420044</ele>
<time>2010-07-18T09:21:11Z</time>
<desc>lat.=55.681141, lon.=26.344999, Alt.=174.420044m. Speed=15.768000m/h.</desc>
<speed>4.380000</speed>
</trkpt>
<trkpt lat="55.681183" lon="26.345034">
<ele>174.224731</ele>
<time>2010-07-18T09:21:12Z</time>
<desc>lat.=55.681183, lon.=26.345034, Alt.=174.224731m. Speed=17.208000m/h.</desc>
<speed>4.780000</speed>
</trkpt>
<trkpt lat="55.681225" lon="26.345062">
<ele>173.767700</ele>
<time>2010-07-18T09:21:13Z</time>
<desc>lat.=55.681225, lon.=26.345062, Alt.=173.767700m. Speed=17.604000m/h.</desc>
<speed>4.890000</speed>
</trkpt>
<trkpt lat="55.681267" lon="26.345102">
<ele>173.365356</ele>
<time>2010-07-18T09:21:14Z</time>
<desc>lat.=55.681267, lon.=26.345102, Alt.=173.365356m. Speed=17.927999m/h.</desc>
<speed>4.980000</speed>
</trkpt>
<trkpt lat="55.681313" lon="26.345135">
<ele>172.716919</ele>
<time>2010-07-18T09:21:15Z</time>
<desc>lat.=55.681313, lon.=26.345135, Alt.=172.716919m. Speed=20.016001m/h.</desc>
<speed>5.560000</speed>
</trkpt>
<trkpt lat="55.681362" lon="26.345171">
<ele>172.177856</ele>
<time>2010-07-18T09:21:16Z</time>
<desc>lat.=55.681362, lon.=26.345171, Alt.=172.177856m. Speed=21.420000m/h.</desc>
<speed>5.950000</speed>
</trkpt>
<trkpt lat="55.681412" lon="26.345207">
<ele>171.478638</ele>
<time>2010-07-18T09:21:17Z</time>
<desc>lat.=55.681412, lon.=26.345207, Alt.=171.478638m. Speed=22.788000m/h.</desc>
<speed>6.330000</speed>
</trkpt>
<trkpt lat="55.681469" lon="26.345247">
<ele>170.900513</ele>
<time>2010-07-18T09:21:18Z</time>
<desc>lat.=55.681469, lon.=26.345247, Alt.=170.900513m. Speed=22.968000m/h.</desc>
<speed>6.380000</speed>
</trkpt>
<trkpt lat="55.681522" lon="26.345284">
<ele>170.088013</ele>
<time>2010-07-18T09:21:19Z</time>
<desc>lat.=55.681522, lon.=26.345284, Alt.=170.088013m. Speed=22.427999m/h.</desc>
<speed>6.230000</speed>
</trkpt>
<trkpt lat="55.681572" lon="26.345320">
<ele>169.365356</ele>
<time>2010-07-18T09:21:20Z</time>
<desc>lat.=55.681572, lon.=26.345320, Alt.=169.365356m. Speed=20.952000m/h.</desc>
<speed>5.820000</speed>
</trkpt>
<trkpt lat="55.681622" lon="26.345352">
<ele>168.545044</ele>
<time>2010-07-18T09:21:21Z</time>
<desc>lat.=55.681622, lon.=26.345352, Alt.=168.545044m. Speed=20.952000m/h.</desc>
<speed>5.820000</speed>
</trkpt>
<trkpt lat="55.681667" lon="26.345375">
<ele>167.806763</ele>
<time>2010-07-18T09:21:22Z</time>
<desc>lat.=55.681667, lon.=26.345375, Alt.=167.806763m. Speed=19.440001m/h.</desc>
<speed>5.400000</speed>
</trkpt>
<trkpt lat="55.681717" lon="26.345396">
<ele>167.255981</ele>
<time>2010-07-18T09:21:23Z</time>
<desc>lat.=55.681717, lon.=26.345396, Alt.=167.255981m. Speed=18.756001m/h.</desc>
<speed>5.210000</speed>
</trkpt>
<trkpt lat="55.681759" lon="26.345415">
<ele>166.611450</ele>
<time>2010-07-18T09:21:24Z</time>
<desc>lat.=55.681759, lon.=26.345415, Alt.=166.611450m. Speed=15.300000m/h.</desc>
<speed>4.250000</speed>
</trkpt>
<trkpt lat="55.681797" lon="26.345423">
<ele>166.197388</ele>
<time>2010-07-18T09:21:25Z</time>
<desc>lat.=55.681797, lon.=26.345423, Alt.=166.197388m. Speed=15.588000m/h.</desc>
<speed>4.330000</speed>
</trkpt>
<trkpt lat="55.681839" lon="26.345419">
<ele>165.775513</ele>
<time>2010-07-18T09:21:26Z</time>
<desc>lat.=55.681839, lon.=26.345419, Alt.=165.775513m. Speed=15.768000m/h.</desc>
<speed>4.380000</speed>
</trkpt>
<trkpt lat="55.681881" lon="26.345409">
<ele>165.388794</ele>
<time>2010-07-18T09:21:27Z</time>
<desc>lat.=55.681881, lon.=26.345409, Alt.=165.388794m. Speed=16.020000m/h.</desc>
<speed>4.450000</speed>
</trkpt>
<trkpt lat="55.681919" lon="26.345396">
<ele>165.138794</ele>
<time>2010-07-18T09:21:28Z</time>
<desc>lat.=55.681919, lon.=26.345396, Alt.=165.138794m. Speed=14.976000m/h.</desc>
<speed>4.160000</speed>
</trkpt>
<trkpt lat="55.681957" lon="26.345373">
<ele>164.818481</ele>
<time>2010-07-18T09:21:29Z</time>
<desc>lat.=55.681957, lon.=26.345373, Alt.=164.818481m. Speed=15.624000m/h.</desc>
<speed>4.340000</speed>
</trkpt>
<trkpt lat="55.681999" lon="26.345346">
<ele>164.607544</ele>
<time>2010-07-18T09:21:30Z</time>
<desc>lat.=55.681999, lon.=26.345346, Alt.=164.607544m. Speed=15.480000m/h.</desc>
<speed>4.300000</speed>
</trkpt>
<trkpt lat="55.682041" lon="26.345320">
<ele>164.220825</ele>
<time>2010-07-18T09:21:31Z</time>
<desc>lat.=55.682041, lon.=26.345320, Alt.=164.220825m. Speed=16.128000m/h.</desc>
<speed>4.480000</speed>
</trkpt>
<trkpt lat="55.682083" lon="26.345293">
<ele>163.927856</ele>
<time>2010-07-18T09:21:32Z</time>
<desc>lat.=55.682083, lon.=26.345293, Alt.=163.927856m. Speed=15.876000m/h.</desc>
<speed>4.410000</speed>
</trkpt>
<trkpt lat="55.682121" lon="26.345261">
<ele>163.588013</ele>
<time>2010-07-18T09:21:33Z</time>
<desc>lat.=55.682121, lon.=26.345261, Alt.=163.588013m. Speed=15.516000m/h.</desc>
<speed>4.310000</speed>
</trkpt>
<trkpt lat="55.682156" lon="26.345230">
<ele>163.275513</ele>
<time>2010-07-18T09:21:34Z</time>
<desc>lat.=55.682156, lon.=26.345230, Alt.=163.275513m. Speed=15.120000m/h.</desc>
<speed>4.200000</speed>
</trkpt>
<trkpt lat="55.682190" lon="26.345190">
<ele>162.892700</ele>
<time>2010-07-18T09:21:35Z</time>
<desc>lat.=55.682190, lon.=26.345190, Alt.=162.892700m. Speed=16.632000m/h.</desc>
<speed>4.620000</speed>
</trkpt>
<trkpt lat="55.682228" lon="26.345152">
<ele>162.377075</ele>
<time>2010-07-18T09:21:36Z</time>
<desc>lat.=55.682228, lon.=26.345152, Alt.=162.377075m. Speed=17.532000m/h.</desc>
<speed>4.870000</speed>
</trkpt>
<trkpt lat="55.682274" lon="26.345119">
<ele>161.607544</ele>
<time>2010-07-18T09:21:37Z</time>
<desc>lat.=55.682274, lon.=26.345119, Alt.=161.607544m. Speed=18.719999m/h.</desc>
<speed>5.200000</speed>
</trkpt>
<trkpt lat="55.682316" lon="26.345081">
<ele>160.713013</ele>
<time>2010-07-18T09:21:38Z</time>
<desc>lat.=55.682316, lon.=26.345081, Alt.=160.713013m. Speed=19.764000m/h.</desc>
<speed>5.490000</speed>
</trkpt>
<trkpt lat="55.682362" lon="26.345039">
<ele>160.025513</ele>
<time>2010-07-18T09:21:39Z</time>
<desc>lat.=55.682362, lon.=26.345039, Alt.=160.025513m. Speed=20.664000m/h.</desc>
<speed>5.740000</speed>
</trkpt>
<trkpt lat="55.682407" lon="26.344997">
<ele>159.420044</ele>
<time>2010-07-18T09:21:40Z</time>
<desc>lat.=55.682407, lon.=26.344997, Alt.=159.420044m. Speed=21.888000m/h.</desc>
<speed>6.080000</speed>
</trkpt>
<trkpt lat="55.682461" lon="26.344952">
<ele>158.869263</ele>
<time>2010-07-18T09:21:41Z</time>
<desc>lat.=55.682461, lon.=26.344952, Alt.=158.869263m. Speed=23.327999m/h.</desc>
<speed>6.480000</speed>
</trkpt>
<trkpt lat="55.682514" lon="26.344900">
<ele>158.318481</ele>
<time>2010-07-18T09:21:42Z</time>
<desc>lat.=55.682514, lon.=26.344900, Alt.=158.318481m. Speed=24.191999m/h.</desc>
<speed>6.720000</speed>
</trkpt>
<trkpt lat="55.682571" lon="26.344851">
<ele>157.775513</ele>
<time>2010-07-18T09:21:43Z</time>
<desc>lat.=55.682571, lon.=26.344851, Alt.=157.775513m. Speed=23.796000m/h.</desc>
<speed>6.610000</speed>
</trkpt>
<trkpt lat="55.682621" lon="26.344799">
<ele>157.279419</ele>
<time>2010-07-18T09:21:44Z</time>
<desc>lat.=55.682621, lon.=26.344799, Alt.=157.279419m. Speed=23.040001m/h.</desc>
<speed>6.400000</speed>
</trkpt>
<trkpt lat="55.682674" lon="26.344748">
<ele>156.627075</ele>
<time>2010-07-18T09:21:45Z</time>
<desc>lat.=55.682674, lon.=26.344748, Alt.=156.627075m. Speed=23.832001m/h.</desc>
<speed>6.620000</speed>
</trkpt>
<trkpt lat="55.682732" lon="26.344702">
<ele>156.275513</ele>
<time>2010-07-18T09:21:46Z</time>
<desc>lat.=55.682732, lon.=26.344702, Alt.=156.275513m. Speed=25.056000m/h.</desc>
<speed>6.960000</speed>
</trkpt>
<trkpt lat="55.682785" lon="26.344650">
<ele>156.064575</ele>
<time>2010-07-18T09:21:47Z</time>
<desc>lat.=55.682785, lon.=26.344650, Alt.=156.064575m. Speed=25.775999m/h.</desc>
<speed>7.160000</speed>
</trkpt>
<trkpt lat="55.682842" lon="26.344604">
<ele>155.748169</ele>
<time>2010-07-18T09:21:48Z</time>
<desc>lat.=55.682842, lon.=26.344604, Alt.=155.748169m. Speed=26.208000m/h.</desc>
<speed>7.280000</speed>
</trkpt>
<trkpt lat="55.682899" lon="26.344557">
<ele>155.416138</ele>
<time>2010-07-18T09:21:49Z</time>
<desc>lat.=55.682899, lon.=26.344557, Alt.=155.416138m. Speed=26.424000m/h.</desc>
<speed>7.340000</speed>
</trkpt>
<trkpt lat="55.682957" lon="26.344505">
<ele>155.193481</ele>
<time>2010-07-18T09:21:50Z</time>
<desc>lat.=55.682957, lon.=26.344505, Alt.=155.193481m. Speed=26.136000m/h.</desc>
<speed>7.260000</speed>
</trkpt>
<trkpt lat="55.683014" lon="26.344456">
<ele>155.048950</ele>
<time>2010-07-18T09:21:51Z</time>
<desc>lat.=55.683014, lon.=26.344456, Alt.=155.048950m. Speed=26.388000m/h.</desc>
<speed>7.330000</speed>
</trkpt>
<trkpt lat="55.683075" lon="26.344400">
<ele>154.892700</ele>
<time>2010-07-18T09:21:52Z</time>
<desc>lat.=55.683075, lon.=26.344400, Alt.=154.892700m. Speed=26.604000m/h.</desc>
<speed>7.390000</speed>
</trkpt>
<trkpt lat="55.683136" lon="26.344345">
<ele>154.623169</ele>
<time>2010-07-18T09:21:53Z</time>
<desc>lat.=55.683136, lon.=26.344345, Alt.=154.623169m. Speed=26.820000m/h.</desc>
<speed>7.450000</speed>
</trkpt>
<trkpt lat="55.683205" lon="26.344297">
<ele>154.041138</ele>
<time>2010-07-18T09:21:54Z</time>
<desc>lat.=55.683205, lon.=26.344297, Alt.=154.041138m. Speed=27.143999m/h.</desc>
<speed>7.540000</speed>
</trkpt>
<trkpt lat="55.683266" lon="26.344254">
<ele>153.861450</ele>
<time>2010-07-18T09:21:55Z</time>
<desc>lat.=55.683266, lon.=26.344254, Alt.=153.861450m. Speed=27.180000m/h.</desc>
<speed>7.550000</speed>
</trkpt>
<trkpt lat="55.683331" lon="26.344210">
<ele>153.420044</ele>
<time>2010-07-18T09:21:56Z</time>
<desc>lat.=55.683331, lon.=26.344210, Alt.=153.420044m. Speed=27.396000m/h.</desc>
<speed>7.610000</speed>
</trkpt>
<trkpt lat="55.683395" lon="26.344166">
<ele>153.068481</ele>
<time>2010-07-18T09:21:57Z</time>
<desc>lat.=55.683395, lon.=26.344166, Alt.=153.068481m. Speed=27.143999m/h.</desc>
<speed>7.540000</speed>
</trkpt>
<trkpt lat="55.683460" lon="26.344124">
<ele>152.771606</ele>
<time>2010-07-18T09:21:58Z</time>
<desc>lat.=55.683460, lon.=26.344124, Alt.=152.771606m. Speed=25.271999m/h.</desc>
<speed>7.020000</speed>
</trkpt>
<trkpt lat="55.683514" lon="26.344088">
<ele>152.752075</ele>
<time>2010-07-18T09:21:59Z</time>
<desc>lat.=55.683514, lon.=26.344088, Alt.=152.752075m. Speed=23.796000m/h.</desc>
<speed>6.610000</speed>
</trkpt>
<trkpt lat="55.683563" lon="26.344065">
<ele>152.634888</ele>
<time>2010-07-18T09:22:00Z</time>
<desc>lat.=55.683563, lon.=26.344065, Alt.=152.634888m. Speed=19.296000m/h.</desc>
<speed>5.360000</speed>
</trkpt>
<trkpt lat="55.683594" lon="26.344046">
<ele>152.455200</ele>
<time>2010-07-18T09:22:01Z</time>
<desc>lat.=55.683594, lon.=26.344046, Alt.=152.455200m. Speed=11.412000m/h.</desc>
<speed>3.170000</speed>
</trkpt>
<trkpt lat="55.683617" lon="26.344034">
<ele>152.283325</ele>
<time>2010-07-18T09:22:02Z</time>
<desc>lat.=55.683617, lon.=26.344034, Alt.=152.283325m. Speed=8.640000m/h.</desc>
<speed>2.400000</speed>
</trkpt>
<trkpt lat="55.683632" lon="26.344021">
<ele>152.041138</ele>
<time>2010-07-18T09:22:03Z</time>
<desc>lat.=55.683632, lon.=26.344021, Alt.=152.041138m. Speed=6.696000m/h.</desc>
<speed>1.860000</speed>
</trkpt>
<trkpt lat="55.683643" lon="26.344009">
<ele>151.916138</ele>
<time>2010-07-18T09:22:04Z</time>
<desc>lat.=55.683643, lon.=26.344009, Alt.=151.916138m. Speed=5.328000m/h.</desc>
<speed>1.480000</speed>
</trkpt>
<trkpt lat="55.683647" lon="26.343992">
<ele>151.759888</ele>
<time>2010-07-18T09:22:05Z</time>
<desc>lat.=55.683647, lon.=26.343992, Alt.=151.759888m. Speed=5.940000m/h.</desc>
<speed>1.650000</speed>
</trkpt>
<trkpt lat="55.683647" lon="26.343962">
<ele>151.701294</ele>
<time>2010-07-18T09:22:06Z</time>
<desc>lat.=55.683647, lon.=26.343962, Alt.=151.701294m. Speed=7.092000m/h.</desc>
<speed>1.970000</speed>
</trkpt>
<trkpt lat="55.683632" lon="26.343929">
<ele>151.595825</ele>
<time>2010-07-18T09:22:07Z</time>
<desc>lat.=55.683632, lon.=26.343929, Alt.=151.595825m. Speed=9.972000m/h.</desc>
<speed>2.770000</speed>
</trkpt>
<trkpt lat="55.683617" lon="26.343906">
<ele>151.502075</ele>
<time>2010-07-18T09:22:08Z</time>
<desc>lat.=55.683617, lon.=26.343906, Alt.=151.502075m. Speed=5.760000m/h.</desc>
<speed>1.600000</speed>
</trkpt>
<trkpt lat="55.683601" lon="26.343885">
<ele>151.232544</ele>
<time>2010-07-18T09:22:09Z</time>
<desc>lat.=55.683601, lon.=26.343885, Alt.=151.232544m. Speed=6.480000m/h.</desc>
<speed>1.800000</speed>
</trkpt>
<trkpt lat="55.683594" lon="26.343870">
<ele>150.947388</ele>
<time>2010-07-18T09:22:10Z</time>
<desc>lat.=55.683594, lon.=26.343870, Alt.=150.947388m. Speed=3.960000m/h.</desc>
<speed>1.100000</speed>
</trkpt>
<trkpt lat="55.683582" lon="26.343851">
<ele>151.146606</ele>
<time>2010-07-18T09:22:11Z</time>
<desc>lat.=55.683582, lon.=26.343851, Alt.=151.146606m. Speed=3.744000m/h.</desc>
<speed>1.040000</speed>
</trkpt>
<trkpt lat="55.683578" lon="26.343840">
<ele>151.279419</ele>
<time>2010-07-18T09:22:12Z</time>
<desc>lat.=55.683578, lon.=26.343840, Alt.=151.279419m. Speed=1.980000m/h.</desc>
<speed>0.550000</speed>
</trkpt>
<trkpt lat="55.683578" lon="26.343821">
<ele>151.576294</ele>
<time>2010-07-18T09:22:13Z</time>
<desc>lat.=55.683578, lon.=26.343821, Alt.=151.576294m. Speed=2.844000m/h.</desc>
<speed>0.790000</speed>
</trkpt>
<trkpt lat="55.683590" lon="26.343794">
<ele>152.185669</ele>
<time>2010-07-18T09:22:14Z</time>
<desc>lat.=55.683590, lon.=26.343794, Alt.=152.185669m. Speed=1.080000m/h.</desc>
<speed>0.300000</speed>
</trkpt>
<trkpt lat="55.683590" lon="26.343777">
<ele>152.095825</ele>
<time>2010-07-18T09:22:15Z</time>
<desc>lat.=55.683590, lon.=26.343777, Alt.=152.095825m. Speed=0.972000m/h.</desc>
<speed>0.270000</speed>
</trkpt>
<trkpt lat="55.683590" lon="26.343773">
<ele>152.076294</ele>
<time>2010-07-18T09:22:16Z</time>
<desc>lat.=55.683590, lon.=26.343773, Alt.=152.076294m. Speed=0.720000m/h.</desc>
<speed>0.200000</speed>
</trkpt>
<trkpt lat="55.683590" lon="26.343769">
<ele>152.060669</ele>
<time>2010-07-18T09:22:17Z</time>
<desc>lat.=55.683590, lon.=26.343769, Alt.=152.060669m. Speed=0.504000m/h.</desc>
<speed>0.140000</speed>
</trkpt>
<trkpt lat="55.683590" lon="26.343765">
<ele>152.048950</ele>
<time>2010-07-18T09:22:18Z</time>
<desc>lat.=55.683590, lon.=26.343765, Alt.=152.048950m. Speed=0.432000m/h.</desc>
<speed>0.120000</speed>
</trkpt>
<trkpt lat="55.683586" lon="26.343767">
<ele>152.021606</ele>
<time>2010-07-18T09:22:19Z</time>
<desc>lat.=55.683586, lon.=26.343767, Alt.=152.021606m. Speed=1.440000m/h.</desc>
<speed>0.400000</speed>
</trkpt>
<trkpt lat="55.683586" lon="26.343773">
<ele>152.005981</ele>
<time>2010-07-18T09:22:20Z</time>
<desc>lat.=55.683586, lon.=26.343773, Alt.=152.005981m. Speed=2.232000m/h.</desc>
<speed>0.620000</speed>
</trkpt>
<trkpt lat="55.683586" lon="26.343782">
<ele>151.986450</ele>
<time>2010-07-18T09:22:21Z</time>
<desc>lat.=55.683586, lon.=26.343782, Alt.=151.986450m. Speed=2.736000m/h.</desc>
<speed>0.760000</speed>
</trkpt>
<trkpt lat="55.683586" lon="26.343794">
<ele>151.963013</ele>
<time>2010-07-18T09:22:22Z</time>
<desc>lat.=55.683586, lon.=26.343794, Alt.=151.963013m. Speed=2.628000m/h.</desc>
<speed>0.730000</speed>
</trkpt>
<trkpt lat="55.683586" lon="26.343805">
<ele>151.943481</ele>
<time>2010-07-18T09:22:23Z</time>
<desc>lat.=55.683586, lon.=26.343805, Alt.=151.943481m. Speed=3.888000m/h.</desc>
<speed>1.080000</speed>
</trkpt>
<trkpt lat="55.683586" lon="26.343828">
<ele>151.716919</ele>
<time>2010-07-18T09:22:24Z</time>
<desc>lat.=55.683586, lon.=26.343828, Alt.=151.716919m. Speed=5.652000m/h.</desc>
<speed>1.570000</speed>
</trkpt>
<trkpt lat="55.683590" lon="26.343842">
<ele>151.826294</ele>
<time>2010-07-18T09:22:25Z</time>
<desc>lat.=55.683590, lon.=26.343842, Alt.=151.826294m. Speed=4.140000m/h.</desc>
<speed>1.150000</speed>
</trkpt>
<trkpt lat="55.683590" lon="26.343855">
<ele>151.912231</ele>
<time>2010-07-18T09:22:26Z</time>
<desc>lat.=55.683590, lon.=26.343855, Alt.=151.912231m. Speed=3.024000m/h.</desc>
<speed>0.840000</speed>
</trkpt>
<trkpt lat="55.683594" lon="26.343866">
<ele>151.994263</ele>
<time>2010-07-18T09:22:27Z</time>
<desc>lat.=55.683594, lon.=26.343866, Alt.=151.994263m. Speed=3.168000m/h.</desc>
<speed>0.880000</speed>
</trkpt>
<trkpt lat="55.683601" lon="26.343876">
<ele>152.037231</ele>
<time>2010-07-18T09:22:28Z</time>
<desc>lat.=55.683601, lon.=26.343876, Alt.=152.037231m. Speed=2.628000m/h.</desc>
<speed>0.730000</speed>
</trkpt>
<trkpt lat="55.683609" lon="26.343885">
<ele>152.064575</ele>
<time>2010-07-18T09:22:29Z</time>
<desc>lat.=55.683609, lon.=26.343885, Alt.=152.064575m. Speed=2.484000m/h.</desc>
<speed>0.690000</speed>
</trkpt>
<trkpt lat="55.683620" lon="26.343895">
<ele>152.103638</ele>
<time>2010-07-18T09:22:30Z</time>
<desc>lat.=55.683620, lon.=26.343895, Alt.=152.103638m. Speed=2.448000m/h.</desc>
<speed>0.680000</speed>
</trkpt>
<trkpt lat="55.683628" lon="26.343903">
<ele>152.173950</ele>
<time>2010-07-18T09:22:31Z</time>
<desc>lat.=55.683628, lon.=26.343903, Alt.=152.173950m. Speed=2.736000m/h.</desc>
<speed>0.760000</speed>
</trkpt>
<trkpt lat="55.683636" lon="26.343912">
<ele>152.041138</ele>
<time>2010-07-18T09:22:32Z</time>
<desc>lat.=55.683636, lon.=26.343912, Alt.=152.041138m. Speed=3.204000m/h.</desc>
<speed>0.890000</speed>
</trkpt>
<trkpt lat="55.683643" lon="26.343925">
<ele>152.037231</ele>
<time>2010-07-18T09:22:33Z</time>
<desc>lat.=55.683643, lon.=26.343925, Alt.=152.037231m. Speed=3.276000m/h.</desc>
<speed>0.910000</speed>
</trkpt>
<trkpt lat="55.683655" lon="26.343933">
<ele>151.947388</ele>
<time>2010-07-18T09:22:34Z</time>
<desc>lat.=55.683655, lon.=26.343933, Alt.=151.947388m. Speed=2.844000m/h.</desc>
<speed>0.790000</speed>
</trkpt>
<trkpt lat="55.683662" lon="26.343941">
<ele>151.994263</ele>
<time>2010-07-18T09:22:35Z</time>
<desc>lat.=55.683662, lon.=26.343941, Alt.=151.994263m. Speed=2.016000m/h.</desc>
<speed>0.560000</speed>
</trkpt>
<trkpt lat="55.683670" lon="26.343931">
<ele>151.990356</ele>
<time>2010-07-18T09:22:36Z</time>
<desc>lat.=55.683670, lon.=26.343931, Alt.=151.990356m. Speed=1.800000m/h.</desc>
<speed>0.500000</speed>
</trkpt>
<trkpt lat="55.683670" lon="26.343927">
<ele>151.966919</ele>
<time>2010-07-18T09:22:37Z</time>
<desc>lat.=55.683670, lon.=26.343927, Alt.=151.966919m. Speed=1.476000m/h.</desc>
<speed>0.410000</speed>
</trkpt>
<trkpt lat="55.683678" lon="26.343931">
<ele>152.060669</ele>
<time>2010-07-18T09:22:38Z</time>
<desc>lat.=55.683678, lon.=26.343931, Alt.=152.060669m. Speed=1.224000m/h.</desc>
<speed>0.340000</speed>
</trkpt>
<trkpt lat="55.683681" lon="26.343933">
<ele>152.056763</ele>
<time>2010-07-18T09:22:39Z</time>
<desc>lat.=55.683681, lon.=26.343933, Alt.=152.056763m. Speed=1.656000m/h.</desc>
<speed>0.460000</speed>
</trkpt>
<trkpt lat="55.683693" lon="26.343954">
<ele>152.252075</ele>
<time>2010-07-18T09:22:40Z</time>
<desc>lat.=55.683693, lon.=26.343954, Alt.=152.252075m. Speed=2.484000m/h.</desc>
<speed>0.690000</speed>
</trkpt>
<trkpt lat="55.683704" lon="26.343952">
<ele>152.357544</ele>
<time>2010-07-18T09:22:41Z</time>
<desc>lat.=55.683704, lon.=26.343952, Alt.=152.357544m. Speed=3.240000m/h.</desc>
<speed>0.900000</speed>
</trkpt>
<trkpt lat="55.683716" lon="26.343945">
<ele>152.564575</ele>
<time>2010-07-18T09:22:42Z</time>
<desc>lat.=55.683716, lon.=26.343945, Alt.=152.564575m. Speed=3.816000m/h.</desc>
<speed>1.060000</speed>
</trkpt>
<trkpt lat="55.683743" lon="26.343939">
<ele>152.697388</ele>
<time>2010-07-18T09:22:43Z</time>
<desc>lat.=55.683743, lon.=26.343939, Alt.=152.697388m. Speed=6.372000m/h.</desc>
<speed>1.770000</speed>
</trkpt>
<trkpt lat="55.683765" lon="26.343924">
<ele>152.873169</ele>
<time>2010-07-18T09:22:44Z</time>
<desc>lat.=55.683765, lon.=26.343924, Alt.=152.873169m. Speed=7.956000m/h.</desc>
<speed>2.210000</speed>
</trkpt>
<trkpt lat="55.683792" lon="26.343922">
<ele>153.076294</ele>
<time>2010-07-18T09:22:45Z</time>
<desc>lat.=55.683792, lon.=26.343922, Alt.=153.076294m. Speed=6.696000m/h.</desc>
<speed>1.860000</speed>
</trkpt>
<trkpt lat="55.683811" lon="26.343904">
<ele>153.134888</ele>
<time>2010-07-18T09:22:46Z</time>
<desc>lat.=55.683811, lon.=26.343904, Alt.=153.134888m. Speed=7.452000m/h.</desc>
<speed>2.070000</speed>
</trkpt>
<trkpt lat="55.683853" lon="26.343904">
<ele>153.966919</ele>
<time>2010-07-18T09:22:47Z</time>
<desc>lat.=55.683853, lon.=26.343904, Alt.=153.966919m. Speed=12.132000m/h.</desc>
<speed>3.370000</speed>
</trkpt>
<trkpt lat="55.683895" lon="26.343916">
<ele>154.134888</ele>
<time>2010-07-18T09:22:48Z</time>
<desc>lat.=55.683895, lon.=26.343916, Alt.=154.134888m. Speed=14.544000m/h.</desc>
<speed>4.040000</speed>
</trkpt>
<trkpt lat="55.683937" lon="26.343927">
<ele>154.373169</ele>
<time>2010-07-18T09:22:49Z</time>
<desc>lat.=55.683937, lon.=26.343927, Alt.=154.373169m. Speed=14.184000m/h.</desc>
<speed>3.940000</speed>
</trkpt>
<trkpt lat="55.683971" lon="26.343931">
<ele>154.060669</ele>
<time>2010-07-18T09:22:50Z</time>
<desc>lat.=55.683971, lon.=26.343931, Alt.=154.060669m. Speed=12.924000m/h.</desc>
<speed>3.590000</speed>
</trkpt>
<trkpt lat="55.684010" lon="26.343937">
<ele>154.216919</ele>
<time>2010-07-18T09:22:51Z</time>
<desc>lat.=55.684010, lon.=26.343937, Alt.=154.216919m. Speed=14.688000m/h.</desc>
<speed>4.080000</speed>
</trkpt>
<trkpt lat="55.684048" lon="26.343946">
<ele>154.052856</ele>
<time>2010-07-18T09:22:52Z</time>
<desc>lat.=55.684048, lon.=26.343946, Alt.=154.052856m. Speed=15.804000m/h.</desc>
<speed>4.390000</speed>
</trkpt>
<trkpt lat="55.684086" lon="26.343946">
<ele>153.627075</ele>
<time>2010-07-18T09:22:53Z</time>
<desc>lat.=55.684086, lon.=26.343946, Alt.=153.627075m. Speed=13.428000m/h.</desc>
<speed>3.730000</speed>
</trkpt>
<trkpt lat="55.684124" lon="26.343975">
<ele>153.150513</ele>
<time>2010-07-18T09:22:54Z</time>
<desc>lat.=55.684124, lon.=26.343975, Alt.=153.150513m. Speed=14.832000m/h.</desc>
<speed>4.120000</speed>
</trkpt>
<trkpt lat="55.684162" lon="26.344002">
<ele>152.705200</ele>
<time>2010-07-18T09:22:55Z</time>
<desc>lat.=55.684162, lon.=26.344002, Alt.=152.705200m. Speed=14.076000m/h.</desc>
<speed>3.910000</speed>
</trkpt>
<trkpt lat="55.684196" lon="26.344013">
<ele>152.787231</ele>
<time>2010-07-18T09:22:56Z</time>
<desc>lat.=55.684196, lon.=26.344013, Alt.=152.787231m. Speed=10.260000m/h.</desc>
<speed>2.850000</speed>
</trkpt>
<trkpt lat="55.684231" lon="26.344019">
<ele>153.369263</ele>
<time>2010-07-18T09:22:57Z</time>
<desc>lat.=55.684231, lon.=26.344019, Alt.=153.369263m. Speed=13.788000m/h.</desc>
<speed>3.830000</speed>
</trkpt>
<trkpt lat="55.684265" lon="26.344028">
<ele>152.619263</ele>
<time>2010-07-18T09:22:58Z</time>
<desc>lat.=55.684265, lon.=26.344028, Alt.=152.619263m. Speed=13.896000m/h.</desc>
<speed>3.860000</speed>
</trkpt>
<trkpt lat="55.684303" lon="26.344038">
<ele>153.076294</ele>
<time>2010-07-18T09:22:59Z</time>
<desc>lat.=55.684303, lon.=26.344038, Alt.=153.076294m. Speed=14.724000m/h.</desc>
<speed>4.090000</speed>
</trkpt>
<trkpt lat="55.684341" lon="26.344042">
<ele>153.513794</ele>
<time>2010-07-18T09:23:00Z</time>
<desc>lat.=55.684341, lon.=26.344042, Alt.=153.513794m. Speed=13.680000m/h.</desc>
<speed>3.800000</speed>
</trkpt>
<trkpt lat="55.684380" lon="26.344046">
<ele>154.088013</ele>
<time>2010-07-18T09:23:01Z</time>
<desc>lat.=55.684380, lon.=26.344046, Alt.=154.088013m. Speed=13.032000m/h.</desc>
<speed>3.620000</speed>
</trkpt>
<trkpt lat="55.684418" lon="26.344082">
<ele>153.994263</ele>
<time>2010-07-18T09:23:02Z</time>
<desc>lat.=55.684418, lon.=26.344082, Alt.=153.994263m. Speed=13.788000m/h.</desc>
<speed>3.830000</speed>
</trkpt>
<trkpt lat="55.684444" lon="26.344099">
<ele>154.459106</ele>
<time>2010-07-18T09:23:03Z</time>
<desc>lat.=55.684444, lon.=26.344099, Alt.=154.459106m. Speed=8.532000m/h.</desc>
<speed>2.370000</speed>
</trkpt>
<trkpt lat="55.684456" lon="26.344101">
<ele>154.517700</ele>
<time>2010-07-18T09:23:04Z</time>
<desc>lat.=55.684456, lon.=26.344101, Alt.=154.517700m. Speed=3.528000m/h.</desc>
<speed>0.980000</speed>
</trkpt>
<trkpt lat="55.684467" lon="26.344103">
<ele>154.494263</ele>
<time>2010-07-18T09:23:05Z</time>
<desc>lat.=55.684467, lon.=26.344103, Alt.=154.494263m. Speed=5.976000m/h.</desc>
<speed>1.660000</speed>
</trkpt>
<trkpt lat="55.684502" lon="26.344105">
<ele>154.541138</ele>
<time>2010-07-18T09:23:06Z</time>
<desc>lat.=55.684502, lon.=26.344105, Alt.=154.541138m. Speed=11.016000m/h.</desc>
<speed>3.060000</speed>
</trkpt>
<trkpt lat="55.684544" lon="26.344103">
<ele>154.224731</ele>
<time>2010-07-18T09:23:07Z</time>
<desc>lat.=55.684544, lon.=26.344103, Alt.=154.224731m. Speed=14.652000m/h.</desc>
<speed>4.070000</speed>
</trkpt>
<trkpt lat="55.684574" lon="26.344078">
<ele>154.005981</ele>
<time>2010-07-18T09:23:08Z</time>
<desc>lat.=55.684574, lon.=26.344078, Alt.=154.005981m. Speed=12.132000m/h.</desc>
<speed>3.370000</speed>
</trkpt>
<trkpt lat="55.684620" lon="26.344034">
<ele>152.603638</ele>
<time>2010-07-18T09:23:09Z</time>
<desc>lat.=55.684620, lon.=26.344034, Alt.=152.603638m. Speed=19.511999m/h.</desc>
<speed>5.420000</speed>
</trkpt>
<trkpt lat="55.684666" lon="26.343992">
<ele>152.088013</ele>
<time>2010-07-18T09:23:10Z</time>
<desc>lat.=55.684666, lon.=26.343992, Alt.=152.088013m. Speed=16.200001m/h.</desc>
<speed>4.500000</speed>
</trkpt>
<trkpt lat="55.684704" lon="26.343956">
<ele>152.689575</ele>
<time>2010-07-18T09:23:11Z</time>
<desc>lat.=55.684704, lon.=26.343956, Alt.=152.689575m. Speed=13.356000m/h.</desc>
<speed>3.710000</speed>
</trkpt>
<trkpt lat="55.684750" lon="26.343918">
<ele>153.435669</ele>
<time>2010-07-18T09:23:12Z</time>
<desc>lat.=55.684750, lon.=26.343918, Alt.=153.435669m. Speed=15.552000m/h.</desc>
<speed>4.320000</speed>
</trkpt>
<trkpt lat="55.684792" lon="26.343866">
<ele>153.994263</ele>
<time>2010-07-18T09:23:13Z</time>
<desc>lat.=55.684792, lon.=26.343866, Alt.=153.994263m. Speed=16.236000m/h.</desc>
<speed>4.510000</speed>
</trkpt>
<trkpt lat="55.684814" lon="26.343824">
<ele>154.666138</ele>
<time>2010-07-18T09:23:14Z</time>
<desc>lat.=55.684814, lon.=26.343824, Alt.=154.666138m. Speed=11.304000m/h.</desc>
<speed>3.140000</speed>
</trkpt>
<trkpt lat="55.684845" lon="26.343775">
<ele>155.662231</ele>
<time>2010-07-18T09:23:15Z</time>
<desc>lat.=55.684845, lon.=26.343775, Alt.=155.662231m. Speed=13.392000m/h.</desc>
<speed>3.720000</speed>
</trkpt>
<trkpt lat="55.684883" lon="26.343721">
<ele>157.759888</ele>
<time>2010-07-18T09:23:16Z</time>
<desc>lat.=55.684883, lon.=26.343721, Alt.=157.759888m. Speed=13.392000m/h.</desc>
<speed>3.720000</speed>
</trkpt>
<trkpt lat="55.684910" lon="26.343681">
<ele>157.154419</ele>
<time>2010-07-18T09:23:17Z</time>
<desc>lat.=55.684910, lon.=26.343681, Alt.=157.154419m. Speed=10.944000m/h.</desc>
<speed>3.040000</speed>
</trkpt>
<trkpt lat="55.684937" lon="26.343641">
<ele>157.951294</ele>
<time>2010-07-18T09:23:18Z</time>
<desc>lat.=55.684937, lon.=26.343641, Alt.=157.951294m. Speed=12.780000m/h.</desc>
<speed>3.550000</speed>
</trkpt>
<trkpt lat="55.684967" lon="26.343597">
<ele>158.916138</ele>
<time>2010-07-18T09:23:19Z</time>
<desc>lat.=55.684967, lon.=26.343597, Alt.=158.916138m. Speed=12.060000m/h.</desc>
<speed>3.350000</speed>
</trkpt>
<trkpt lat="55.685005" lon="26.343546">
<ele>161.291138</ele>
<time>2010-07-18T09:23:20Z</time>
<desc>lat.=55.685005, lon.=26.343546, Alt.=161.291138m. Speed=15.048000m/h.</desc>
<speed>4.180000</speed>
</trkpt>
<trkpt lat="55.685047" lon="26.343500">
<ele>162.138794</ele>
<time>2010-07-18T09:23:21Z</time>
<desc>lat.=55.685047, lon.=26.343500, Alt.=162.138794m. Speed=11.916000m/h.</desc>
<speed>3.310000</speed>
</trkpt>
<trkpt lat="55.685089" lon="26.343475">
<ele>162.689575</ele>
<time>2010-07-18T09:23:22Z</time>
<desc>lat.=55.685089, lon.=26.343475, Alt.=162.689575m. Speed=10.008000m/h.</desc>
<speed>2.780000</speed>
</trkpt>
<trkpt lat="55.685112" lon="26.343447">
<ele>165.720825</ele>
<time>2010-07-18T09:23:23Z</time>
<desc>lat.=55.685112, lon.=26.343447, Alt.=165.720825m. Speed=7.272000m/h.</desc>
<speed>2.020000</speed>
</trkpt>
<trkpt lat="55.685139" lon="26.343414">
<ele>163.545044</ele>
<time>2010-07-18T09:23:24Z</time>
<desc>lat.=55.685139, lon.=26.343414, Alt.=163.545044m. Speed=8.028000m/h.</desc>
<speed>2.230000</speed>
</trkpt>
<trkpt lat="55.685154" lon="26.343380">
<ele>163.693481</ele>
<time>2010-07-18T09:23:25Z</time>
<desc>lat.=55.685154, lon.=26.343380, Alt.=163.693481m. Speed=6.048000m/h.</desc>
<speed>1.680000</speed>
</trkpt>
<trkpt lat="55.685173" lon="26.343349">
<ele>163.986450</ele>
<time>2010-07-18T09:23:26Z</time>
<desc>lat.=55.685173, lon.=26.343349, Alt.=163.986450m. Speed=8.820000m/h.</desc>
<speed>2.450000</speed>
</trkpt>
<trkpt lat="55.685196" lon="26.343342">
<ele>163.267700</ele>
<time>2010-07-18T09:23:27Z</time>
<desc>lat.=55.685196, lon.=26.343342, Alt.=163.267700m. Speed=6.048000m/h.</desc>
<speed>1.680000</speed>
</trkpt>
<trkpt lat="55.685215" lon="26.343344">
<ele>161.920044</ele>
<time>2010-07-18T09:23:28Z</time>
<desc>lat.=55.685215, lon.=26.343344, Alt.=161.920044m. Speed=5.868000m/h.</desc>
<speed>1.630000</speed>
</trkpt>
<trkpt lat="55.685230" lon="26.343330">
<ele>161.302856</ele>
<time>2010-07-18T09:23:29Z</time>
<desc>lat.=55.685230, lon.=26.343330, Alt.=161.302856m. Speed=6.804000m/h.</desc>
<speed>1.890000</speed>
</trkpt>
<trkpt lat="55.685249" lon="26.343298">
<ele>160.763794</ele>
<time>2010-07-18T09:23:30Z</time>
<desc>lat.=55.685249, lon.=26.343298, Alt.=160.763794m. Speed=10.620000m/h.</desc>
<speed>2.950000</speed>
</trkpt>
<trkpt lat="55.685268" lon="26.343258">
<ele>160.388794</ele>
<time>2010-07-18T09:23:31Z</time>
<desc>lat.=55.685268, lon.=26.343258, Alt.=160.388794m. Speed=10.332000m/h.</desc>
<speed>2.870000</speed>
</trkpt>
<trkpt lat="55.685295" lon="26.343212">
<ele>159.857544</ele>
<time>2010-07-18T09:23:32Z</time>
<desc>lat.=55.685295, lon.=26.343212, Alt.=159.857544m. Speed=9.972000m/h.</desc>
<speed>2.770000</speed>
</trkpt>
<trkpt lat="55.685318" lon="26.343172">
<ele>160.548950</ele>
<time>2010-07-18T09:23:33Z</time>
<desc>lat.=55.685318, lon.=26.343172, Alt.=160.548950m. Speed=9.468000m/h.</desc>
<speed>2.630000</speed>
</trkpt>
<trkpt lat="55.685341" lon="26.343136">
<ele>159.990356</ele>
<time>2010-07-18T09:23:34Z</time>
<desc>lat.=55.685341, lon.=26.343136, Alt.=159.990356m. Speed=9.648000m/h.</desc>
<speed>2.680000</speed>
</trkpt>
<trkpt lat="55.685368" lon="26.343094">
<ele>159.588013</ele>
<time>2010-07-18T09:23:35Z</time>
<desc>lat.=55.685368, lon.=26.343094, Alt.=159.588013m. Speed=10.224000m/h.</desc>
<speed>2.840000</speed>
</trkpt>
<trkpt lat="55.685390" lon="26.343061">
<ele>159.404419</ele>
<time>2010-07-18T09:23:36Z</time>
<desc>lat.=55.685390, lon.=26.343061, Alt.=159.404419m. Speed=10.080000m/h.</desc>
<speed>2.800000</speed>
</trkpt>
<trkpt lat="55.685410" lon="26.343029">
<ele>159.709106</ele>
<time>2010-07-18T09:23:37Z</time>
<desc>lat.=55.685410, lon.=26.343029, Alt.=159.709106m. Speed=7.560000m/h.</desc>
<speed>2.100000</speed>
</trkpt>
<trkpt lat="55.685429" lon="26.342989">
<ele>160.267700</ele>
<time>2010-07-18T09:23:38Z</time>
<desc>lat.=55.685429, lon.=26.342989, Alt.=160.267700m. Speed=8.856000m/h.</desc>
<speed>2.460000</speed>
</trkpt>
<trkpt lat="55.685448" lon="26.342945">
<ele>160.349731</ele>
<time>2010-07-18T09:23:39Z</time>
<desc>lat.=55.685448, lon.=26.342945, Alt.=160.349731m. Speed=9.000000m/h.</desc>
<speed>2.500000</speed>
</trkpt>
<trkpt lat="55.685471" lon="26.342905">
<ele>162.013794</ele>
<time>2010-07-18T09:23:40Z</time>
<desc>lat.=55.685471, lon.=26.342905, Alt.=162.013794m. Speed=10.656000m/h.</desc>
<speed>2.960000</speed>
</trkpt>
<trkpt lat="55.685493" lon="26.342867">
<ele>163.904419</ele>
<time>2010-07-18T09:23:41Z</time>
<desc>lat.=55.685493, lon.=26.342867, Alt.=163.904419m. Speed=8.136000m/h.</desc>
<speed>2.260000</speed>
</trkpt>
<trkpt lat="55.685520" lon="26.342848">
<ele>164.580200</ele>
<time>2010-07-18T09:23:42Z</time>
<desc>lat.=55.685520, lon.=26.342848, Alt.=164.580200m. Speed=8.208000m/h.</desc>
<speed>2.280000</speed>
</trkpt>
<trkpt lat="55.685543" lon="26.342827">
<ele>164.650513</ele>
<time>2010-07-18T09:23:43Z</time>
<desc>lat.=55.685543, lon.=26.342827, Alt.=164.650513m. Speed=5.076000m/h.</desc>
<speed>1.410000</speed>
</trkpt>
<trkpt lat="55.685558" lon="26.342804">
<ele>164.080200</ele>
<time>2010-07-18T09:23:44Z</time>
<desc>lat.=55.685558, lon.=26.342804, Alt.=164.080200m. Speed=5.580000m/h.</desc>
<speed>1.550000</speed>
</trkpt>
<trkpt lat="55.685570" lon="26.342787">
<ele>164.552856</ele>
<time>2010-07-18T09:23:45Z</time>
<desc>lat.=55.685570, lon.=26.342787, Alt.=164.552856m. Speed=6.264000m/h.</desc>
<speed>1.740000</speed>
</trkpt>
<trkpt lat="55.685577" lon="26.342773">
<ele>165.404419</ele>
<time>2010-07-18T09:23:46Z</time>
<desc>lat.=55.685577, lon.=26.342773, Alt.=165.404419m. Speed=4.212000m/h.</desc>
<speed>1.170000</speed>
</trkpt>
<trkpt lat="55.685593" lon="26.342756">
<ele>165.127075</ele>
<time>2010-07-18T09:23:47Z</time>
<desc>lat.=55.685593, lon.=26.342756, Alt.=165.127075m. Speed=2.268000m/h.</desc>
<speed>0.630000</speed>
</trkpt>
<trkpt lat="55.685604" lon="26.342743">
<ele>164.298950</ele>
<time>2010-07-18T09:23:48Z</time>
<desc>lat.=55.685604, lon.=26.342743, Alt.=164.298950m. Speed=1.404000m/h.</desc>
<speed>0.390000</speed>
</trkpt>
<trkpt lat="55.685604" lon="26.342737">
<ele>164.318481</ele>
<time>2010-07-18T09:23:49Z</time>
<desc>lat.=55.685604, lon.=26.342737, Alt.=164.318481m. Speed=0.288000m/h.</desc>
<speed>0.080000</speed>
</trkpt>
<trkpt lat="55.685604" lon="26.342735">
<ele>164.193481</ele>
<time>2010-07-18T09:23:50Z</time>
<desc>lat.=55.685604, lon.=26.342735, Alt.=164.193481m. Speed=0.252000m/h.</desc>
<speed>0.070000</speed>
</trkpt>
<trkpt lat="55.685604" lon="26.342733">
<ele>164.259888</ele>
<time>2010-07-18T09:23:51Z</time>
<desc>lat.=55.685604, lon.=26.342733, Alt.=164.259888m. Speed=1.548000m/h.</desc>
<speed>0.430000</speed>
</trkpt>
<trkpt lat="55.685604" lon="26.342728">
<ele>164.314575</ele>
<time>2010-07-18T09:23:52Z</time>
<desc>lat.=55.685604, lon.=26.342728, Alt.=164.314575m. Speed=1.008000m/h.</desc>
<speed>0.280000</speed>
</trkpt>
<trkpt lat="55.685604" lon="26.342722">
<ele>164.361450</ele>
<time>2010-07-18T09:23:53Z</time>
<desc>lat.=55.685604, lon.=26.342722, Alt.=164.361450m. Speed=0.180000m/h.</desc>
<speed>0.050000</speed>
</trkpt>
<trkpt lat="55.685604" lon="26.342722">
<ele>164.404419</ele>
<time>2010-07-18T09:23:54Z</time>
<desc>lat.=55.685604, lon.=26.342722, Alt.=164.404419m. Speed=1.080000m/h.</desc>
<speed>0.300000</speed>
</trkpt>
<trkpt lat="55.685604" lon="26.342728">
<ele>164.427856</ele>
<time>2010-07-18T09:23:55Z</time>
<desc>lat.=55.685604, lon.=26.342728, Alt.=164.427856m. Speed=1.368000m/h.</desc>
<speed>0.380000</speed>
</trkpt>
<trkpt lat="55.685604" lon="26.342731">
<ele>164.439575</ele>
<time>2010-07-18T09:23:56Z</time>
<desc>lat.=55.685604, lon.=26.342731, Alt.=164.439575m. Speed=1.260000m/h.</desc>
<speed>0.350000</speed>
</trkpt>
<trkpt lat="55.685600" lon="26.342737">
<ele>164.451294</ele>
<time>2010-07-18T09:23:57Z</time>
<desc>lat.=55.685600, lon.=26.342737, Alt.=164.451294m. Speed=1.728000m/h.</desc>
<speed>0.480000</speed>
</trkpt>
<trkpt lat="55.685596" lon="26.342743">
<ele>164.466919</ele>
<time>2010-07-18T09:23:58Z</time>
<desc>lat.=55.685596, lon.=26.342743, Alt.=164.466919m. Speed=0.108000m/h.</desc>
<speed>0.030000</speed>
</trkpt>
<trkpt lat="55.685596" lon="26.342743">
<ele>164.478638</ele>
<time>2010-07-18T09:23:59Z</time>
<desc>lat.=55.685596, lon.=26.342743, Alt.=164.478638m. Speed=1.116000m/h.</desc>
<speed>0.310000</speed>
</trkpt>
<trkpt lat="55.685596" lon="26.342749">
<ele>164.470825</ele>
<time>2010-07-18T09:24:00Z</time>
<desc>lat.=55.685596, lon.=26.342749, Alt.=164.470825m. Speed=6.012000m/h.</desc>
<speed>1.670000</speed>
</trkpt>
<trkpt lat="55.685589" lon="26.342773">
<ele>163.513794</ele>
<time>2010-07-18T09:24:01Z</time>
<desc>lat.=55.685589, lon.=26.342773, Alt.=163.513794m. Speed=9.828000m/h.</desc>
<speed>2.730000</speed>
</trkpt>
<trkpt lat="55.685570" lon="26.342800">
<ele>163.505981</ele>
<time>2010-07-18T09:24:02Z</time>
<desc>lat.=55.685570, lon.=26.342800, Alt.=163.505981m. Speed=10.260000m/h.</desc>
<speed>2.850000</speed>
</trkpt>
<trkpt lat="55.685547" lon="26.342834">
<ele>163.588013</ele>
<time>2010-07-18T09:24:03Z</time>
<desc>lat.=55.685547, lon.=26.342834, Alt.=163.588013m. Speed=12.924000m/h.</desc>
<speed>3.590000</speed>
</trkpt>
<trkpt lat="55.685520" lon="26.342869">
<ele>163.443481</ele>
<time>2010-07-18T09:24:04Z</time>
<desc>lat.=55.685520, lon.=26.342869, Alt.=163.443481m. Speed=14.112000m/h.</desc>
<speed>3.920000</speed>
</trkpt>
<trkpt lat="55.685493" lon="26.342911">
<ele>163.322388</ele>
<time>2010-07-18T09:24:05Z</time>
<desc>lat.=55.685493, lon.=26.342911, Alt.=163.322388m. Speed=14.436000m/h.</desc>
<speed>4.010000</speed>
</trkpt>
<trkpt lat="55.685467" lon="26.342955">
<ele>162.623169</ele>
<time>2010-07-18T09:24:06Z</time>
<desc>lat.=55.685467, lon.=26.342955, Alt.=162.623169m. Speed=15.012000m/h.</desc>
<speed>4.170000</speed>
</trkpt>
<trkpt lat="55.685444" lon="26.343004">
<ele>161.482544</ele>
<time>2010-07-18T09:24:07Z</time>
<desc>lat.=55.685444, lon.=26.343004, Alt.=161.482544m. Speed=15.804000m/h.</desc>
<speed>4.390000</speed>
</trkpt>
<trkpt lat="55.685417" lon="26.343046">
<ele>161.630981</ele>
<time>2010-07-18T09:24:08Z</time>
<desc>lat.=55.685417, lon.=26.343046, Alt.=161.630981m. Speed=13.860000m/h.</desc>
<speed>3.850000</speed>
</trkpt>
<trkpt lat="55.685390" lon="26.343084">
<ele>161.920044</ele>
<time>2010-07-18T09:24:09Z</time>
<desc>lat.=55.685390, lon.=26.343084, Alt.=161.920044m. Speed=14.040000m/h.</desc>
<speed>3.900000</speed>
</trkpt>
<trkpt lat="55.685371" lon="26.343117">
<ele>162.283325</ele>
<time>2010-07-18T09:24:10Z</time>
<desc>lat.=55.685371, lon.=26.343117, Alt.=162.283325m. Speed=7.848000m/h.</desc>
<speed>2.180000</speed>
</trkpt>
<trkpt lat="55.685368" lon="26.343147">
<ele>162.869263</ele>
<time>2010-07-18T09:24:11Z</time>
<desc>lat.=55.685368, lon.=26.343147, Alt.=162.869263m. Speed=5.220000m/h.</desc>
<speed>1.450000</speed>
</trkpt>
<trkpt lat="55.685360" lon="26.343164">
<ele>163.435669</ele>
<time>2010-07-18T09:24:12Z</time>
<desc>lat.=55.685360, lon.=26.343164, Alt.=163.435669m. Speed=5.364000m/h.</desc>
<speed>1.490000</speed>
</trkpt>
<trkpt lat="55.685349" lon="26.343185">
<ele>163.834106</ele>
<time>2010-07-18T09:24:13Z</time>
<desc>lat.=55.685349, lon.=26.343185, Alt.=163.834106m. Speed=5.832000m/h.</desc>
<speed>1.620000</speed>
</trkpt>
<trkpt lat="55.685341" lon="26.343212">
<ele>164.615356</ele>
<time>2010-07-18T09:24:14Z</time>
<desc>lat.=55.685341, lon.=26.343212, Alt.=164.615356m. Speed=3.888000m/h.</desc>
<speed>1.080000</speed>
</trkpt>
<trkpt lat="55.685326" lon="26.343254">
<ele>165.560669</ele>
<time>2010-07-18T09:24:15Z</time>
<desc>lat.=55.685326, lon.=26.343254, Alt.=165.560669m. Speed=6.732000m/h.</desc>
<speed>1.870000</speed>
</trkpt>
<trkpt lat="55.685314" lon="26.343275">
<ele>165.865356</ele>
<time>2010-07-18T09:24:16Z</time>
<desc>lat.=55.685314, lon.=26.343275, Alt.=165.865356m. Speed=6.048000m/h.</desc>
<speed>1.680000</speed>
</trkpt>
<trkpt lat="55.685303" lon="26.343296">
<ele>165.849731</ele>
<time>2010-07-18T09:24:17Z</time>
<desc>lat.=55.685303, lon.=26.343296, Alt.=165.849731m. Speed=5.868000m/h.</desc>
<speed>1.630000</speed>
</trkpt>
<trkpt lat="55.685291" lon="26.343311">
<ele>166.111450</ele>
<time>2010-07-18T09:24:18Z</time>
<desc>lat.=55.685291, lon.=26.343311, Alt.=166.111450m. Speed=3.492000m/h.</desc>
<speed>0.970000</speed>
</trkpt>
<trkpt lat="55.685276" lon="26.343332">
<ele>166.209106</ele>
<time>2010-07-18T09:24:19Z</time>
<desc>lat.=55.685276, lon.=26.343332, Alt.=166.209106m. Speed=7.740000m/h.</desc>
<speed>2.150000</speed>
</trkpt>
<trkpt lat="55.685261" lon="26.343357">
<ele>166.572388</ele>
<time>2010-07-18T09:24:20Z</time>
<desc>lat.=55.685261, lon.=26.343357, Alt.=166.572388m. Speed=9.900000m/h.</desc>
<speed>2.750000</speed>
</trkpt>
<trkpt lat="55.685234" lon="26.343384">
<ele>166.463013</ele>
<time>2010-07-18T09:24:21Z</time>
<desc>lat.=55.685234, lon.=26.343384, Alt.=166.463013m. Speed=10.260000m/h.</desc>
<speed>2.850000</speed>
</trkpt>
<trkpt lat="55.685211" lon="26.343424">
<ele>166.775513</ele>
<time>2010-07-18T09:24:22Z</time>
<desc>lat.=55.685211, lon.=26.343424, Alt.=166.775513m. Speed=11.016000m/h.</desc>
<speed>3.060000</speed>
</trkpt>
<trkpt lat="55.685181" lon="26.343462">
<ele>166.810669</ele>
<time>2010-07-18T09:24:23Z</time>
<desc>lat.=55.685181, lon.=26.343462, Alt.=166.810669m. Speed=11.304000m/h.</desc>
<speed>3.140000</speed>
</trkpt>
<trkpt lat="55.685150" lon="26.343496">
<ele>166.435669</ele>
<time>2010-07-18T09:24:24Z</time>
<desc>lat.=55.685150, lon.=26.343496, Alt.=166.435669m. Speed=13.284000m/h.</desc>
<speed>3.690000</speed>
</trkpt>
<trkpt lat="55.685116" lon="26.343534">
<ele>166.213013</ele>
<time>2010-07-18T09:24:25Z</time>
<desc>lat.=55.685116, lon.=26.343534, Alt.=166.213013m. Speed=12.600000m/h.</desc>
<speed>3.500000</speed>
</trkpt>
<trkpt lat="55.685085" lon="26.343576">
<ele>166.228638</ele>
<time>2010-07-18T09:24:26Z</time>
<desc>lat.=55.685085, lon.=26.343576, Alt.=166.228638m. Speed=13.464000m/h.</desc>
<speed>3.740000</speed>
</trkpt>
<trkpt lat="55.685062" lon="26.343611">
<ele>166.474731</ele>
<time>2010-07-18T09:24:27Z</time>
<desc>lat.=55.685062, lon.=26.343611, Alt.=166.474731m. Speed=10.836000m/h.</desc>
<speed>3.010000</speed>
</trkpt>
<trkpt lat="55.685040" lon="26.343649">
<ele>166.646606</ele>
<time>2010-07-18T09:24:28Z</time>
<desc>lat.=55.685040, lon.=26.343649, Alt.=166.646606m. Speed=10.260000m/h.</desc>
<speed>2.850000</speed>
</trkpt>
<trkpt lat="55.685013" lon="26.343687">
<ele>166.900513</ele>
<time>2010-07-18T09:24:29Z</time>
<desc>lat.=55.685013, lon.=26.343687, Alt.=166.900513m. Speed=11.916000m/h.</desc>
<speed>3.310000</speed>
</trkpt>
<trkpt lat="55.684986" lon="26.343721">
<ele>167.279419</ele>
<time>2010-07-18T09:24:30Z</time>
<desc>lat.=55.684986, lon.=26.343721, Alt.=167.279419m. Speed=11.592000m/h.</desc>
<speed>3.220000</speed>
</trkpt>
<trkpt lat="55.684959" lon="26.343765">
<ele>167.662231</ele>
<time>2010-07-18T09:24:31Z</time>
<desc>lat.=55.684959, lon.=26.343765, Alt.=167.662231m. Speed=12.456000m/h.</desc>
<speed>3.460000</speed>
</trkpt>
<trkpt lat="55.684929" lon="26.343817">
<ele>167.810669</ele>
<time>2010-07-18T09:24:32Z</time>
<desc>lat.=55.684929, lon.=26.343817, Alt.=167.810669m. Speed=12.348000m/h.</desc>
<speed>3.430000</speed>
</trkpt>
<trkpt lat="55.684902" lon="26.343849">
<ele>168.048950</ele>
<time>2010-07-18T09:24:33Z</time>
<desc>lat.=55.684902, lon.=26.343849, Alt.=168.048950m. Speed=11.880000m/h.</desc>
<speed>3.300000</speed>
</trkpt>
<trkpt lat="55.684875" lon="26.343876">
<ele>168.138794</ele>
<time>2010-07-18T09:24:34Z</time>
<desc>lat.=55.684875, lon.=26.343876, Alt.=168.138794m. Speed=11.448000m/h.</desc>
<speed>3.180000</speed>
</trkpt>
<trkpt lat="55.684841" lon="26.343910">
<ele>167.673950</ele>
<time>2010-07-18T09:24:35Z</time>
<desc>lat.=55.684841, lon.=26.343910, Alt.=167.673950m. Speed=12.096000m/h.</desc>
<speed>3.360000</speed>
</trkpt>
<trkpt lat="55.684811" lon="26.343935">
<ele>167.498169</ele>
<time>2010-07-18T09:24:36Z</time>
<desc>lat.=55.684811, lon.=26.343935, Alt.=167.498169m. Speed=11.772000m/h.</desc>
<speed>3.270000</speed>
</trkpt>
<trkpt lat="55.684780" lon="26.343954">
<ele>167.681763</ele>
<time>2010-07-18T09:24:37Z</time>
<desc>lat.=55.684780, lon.=26.343954, Alt.=167.681763m. Speed=11.736000m/h.</desc>
<speed>3.260000</speed>
</trkpt>
<trkpt lat="55.684757" lon="26.343977">
<ele>167.216919</ele>
<time>2010-07-18T09:24:38Z</time>
<desc>lat.=55.684757, lon.=26.343977, Alt.=167.216919m. Speed=6.840000m/h.</desc>
<speed>1.900000</speed>
</trkpt>
<trkpt lat="55.684742" lon="26.344023">
<ele>163.970825</ele>
<time>2010-07-18T09:24:39Z</time>
<desc>lat.=55.684742, lon.=26.344023, Alt.=163.970825m. Speed=5.112000m/h.</desc>
<speed>1.420000</speed>
</trkpt>
<trkpt lat="55.684723" lon="26.344044">
<ele>162.814575</ele>
<time>2010-07-18T09:24:40Z</time>
<desc>lat.=55.684723, lon.=26.344044, Alt.=162.814575m. Speed=6.588000m/h.</desc>
<speed>1.830000</speed>
</trkpt>
<trkpt lat="55.684700" lon="26.344074">
<ele>161.017700</ele>
<time>2010-07-18T09:24:41Z</time>
<desc>lat.=55.684700, lon.=26.344074, Alt.=161.017700m. Speed=8.352000m/h.</desc>
<speed>2.320000</speed>
</trkpt>
<trkpt lat="55.684673" lon="26.344101">
<ele>158.795044</ele>
<time>2010-07-18T09:24:42Z</time>
<desc>lat.=55.684673, lon.=26.344101, Alt.=158.795044m. Speed=10.476000m/h.</desc>
<speed>2.910000</speed>
</trkpt>
<trkpt lat="55.684647" lon="26.344120">
<ele>157.713013</ele>
<time>2010-07-18T09:24:43Z</time>
<desc>lat.=55.684647, lon.=26.344120, Alt.=157.713013m. Speed=10.008000m/h.</desc>
<speed>2.780000</speed>
</trkpt>
<trkpt lat="55.684620" lon="26.344130">
<ele>157.689575</ele>
<time>2010-07-18T09:24:44Z</time>
<desc>lat.=55.684620, lon.=26.344130, Alt.=157.689575m. Speed=9.576000m/h.</desc>
<speed>2.660000</speed>
</trkpt>
<trkpt lat="55.684593" lon="26.344137">
<ele>157.959106</ele>
<time>2010-07-18T09:24:45Z</time>
<desc>lat.=55.684593, lon.=26.344137, Alt.=157.959106m. Speed=10.404000m/h.</desc>
<speed>2.890000</speed>
</trkpt>
<trkpt lat="55.684566" lon="26.344137">
<ele>157.779419</ele>
<time>2010-07-18T09:24:46Z</time>
<desc>lat.=55.684566, lon.=26.344137, Alt.=157.779419m. Speed=10.656000m/h.</desc>
<speed>2.960000</speed>
</trkpt>
<trkpt lat="55.684540" lon="26.344128">
<ele>158.713013</ele>
<time>2010-07-18T09:24:47Z</time>
<desc>lat.=55.684540, lon.=26.344128, Alt.=158.713013m. Speed=10.656000m/h.</desc>
<speed>2.960000</speed>
</trkpt>
<trkpt lat="55.684505" lon="26.344122">
<ele>158.439575</ele>
<time>2010-07-18T09:24:48Z</time>
<desc>lat.=55.684505, lon.=26.344122, Alt.=158.439575m. Speed=13.536000m/h.</desc>
<speed>3.760000</speed>
</trkpt>
<trkpt lat="55.684471" lon="26.344112">
<ele>158.728638</ele>
<time>2010-07-18T09:24:49Z</time>
<desc>lat.=55.684471, lon.=26.344112, Alt.=158.728638m. Speed=12.204000m/h.</desc>
<speed>3.390000</speed>
</trkpt>
<trkpt lat="55.684437" lon="26.344101">
<ele>159.045044</ele>
<time>2010-07-18T09:24:50Z</time>
<desc>lat.=55.684437, lon.=26.344101, Alt.=159.045044m. Speed=11.988000m/h.</desc>
<speed>3.330000</speed>
</trkpt>
<trkpt lat="55.684402" lon="26.344093">
<ele>159.408325</ele>
<time>2010-07-18T09:24:51Z</time>
<desc>lat.=55.684402, lon.=26.344093, Alt.=159.408325m. Speed=11.556000m/h.</desc>
<speed>3.210000</speed>
</trkpt>
<trkpt lat="55.684372" lon="26.344084">
<ele>159.810669</ele>
<time>2010-07-18T09:24:52Z</time>
<desc>lat.=55.684372, lon.=26.344084, Alt.=159.810669m. Speed=10.620000m/h.</desc>
<speed>2.950000</speed>
</trkpt>
<trkpt lat="55.684345" lon="26.344074">
<ele>160.271606</ele>
<time>2010-07-18T09:24:53Z</time>
<desc>lat.=55.684345, lon.=26.344074, Alt.=160.271606m. Speed=10.044000m/h.</desc>
<speed>2.790000</speed>
</trkpt>
<trkpt lat="55.684299" lon="26.344053">
<ele>160.880981</ele>
<time>2010-07-18T09:24:54Z</time>
<desc>lat.=55.684299, lon.=26.344053, Alt.=160.880981m. Speed=11.844000m/h.</desc>
<speed>3.290000</speed>
</trkpt>
<trkpt lat="55.684265" lon="26.344036">
<ele>161.181763</ele>
<time>2010-07-18T09:24:55Z</time>
<desc>lat.=55.684265, lon.=26.344036, Alt.=161.181763m. Speed=11.592000m/h.</desc>
<speed>3.220000</speed>
</trkpt>
<trkpt lat="55.684242" lon="26.344021">
<ele>161.447388</ele>
<time>2010-07-18T09:24:56Z</time>
<desc>lat.=55.684242, lon.=26.344021, Alt.=161.447388m. Speed=7.524000m/h.</desc>
<speed>2.090000</speed>
</trkpt>
<trkpt lat="55.684219" lon="26.344015">
<ele>162.080200</ele>
<time>2010-07-18T09:24:57Z</time>
<desc>lat.=55.684219, lon.=26.344015, Alt.=162.080200m. Speed=8.676000m/h.</desc>
<speed>2.410000</speed>
</trkpt>
<trkpt lat="55.684185" lon="26.344009">
<ele>162.130981</ele>
<time>2010-07-18T09:24:58Z</time>
<desc>lat.=55.684185, lon.=26.344009, Alt.=162.130981m. Speed=10.008000m/h.</desc>
<speed>2.780000</speed>
</trkpt>
<trkpt lat="55.684155" lon="26.344007">
<ele>162.400513</ele>
<time>2010-07-18T09:24:59Z</time>
<desc>lat.=55.684155, lon.=26.344007, Alt.=162.400513m. Speed=10.656000m/h.</desc>
<speed>2.960000</speed>
</trkpt>
<trkpt lat="55.684124" lon="26.344007">
<ele>162.689575</ele>
<time>2010-07-18T09:25:00Z</time>
<desc>lat.=55.684124, lon.=26.344007, Alt.=162.689575m. Speed=9.252000m/h.</desc>
<speed>2.570000</speed>
</trkpt>
<trkpt lat="55.684093" lon="26.343998">
<ele>162.857544</ele>
<time>2010-07-18T09:25:01Z</time>
<desc>lat.=55.684093, lon.=26.343998, Alt.=162.857544m. Speed=8.064000m/h.</desc>
<speed>2.240000</speed>
</trkpt>
<trkpt lat="55.684059" lon="26.343988">
<ele>162.982544</ele>
<time>2010-07-18T09:25:02Z</time>
<desc>lat.=55.684059, lon.=26.343988, Alt.=162.982544m. Speed=8.532000m/h.</desc>
<speed>2.370000</speed>
</trkpt>
<trkpt lat="55.684032" lon="26.343987">
<ele>163.213013</ele>
<time>2010-07-18T09:25:03Z</time>
<desc>lat.=55.684032, lon.=26.343987, Alt.=163.213013m. Speed=6.912000m/h.</desc>
<speed>1.920000</speed>
</trkpt>
<trkpt lat="55.684002" lon="26.343990">
<ele>163.349731</ele>
<time>2010-07-18T09:25:04Z</time>
<desc>lat.=55.684002, lon.=26.343990, Alt.=163.349731m. Speed=7.380000m/h.</desc>
<speed>2.050000</speed>
</trkpt>
<trkpt lat="55.683968" lon="26.343994">
<ele>163.459106</ele>
<time>2010-07-18T09:25:05Z</time>
<desc>lat.=55.683968, lon.=26.343994, Alt.=163.459106m. Speed=8.496000m/h.</desc>
<speed>2.360000</speed>
</trkpt>
<trkpt lat="55.683933" lon="26.344004">
<ele>163.552856</ele>
<time>2010-07-18T09:25:06Z</time>
<desc>lat.=55.683933, lon.=26.344004, Alt.=163.552856m. Speed=7.668000m/h.</desc>
<speed>2.130000</speed>
</trkpt>
<trkpt lat="55.683910" lon="26.344009">
<ele>163.787231</ele>
<time>2010-07-18T09:25:07Z</time>
<desc>lat.=55.683910, lon.=26.344009, Alt.=163.787231m. Speed=4.284000m/h.</desc>
<speed>1.190000</speed>
</trkpt>
<trkpt lat="55.683880" lon="26.344011">
<ele>163.861450</ele>
<time>2010-07-18T09:25:08Z</time>
<desc>lat.=55.683880, lon.=26.344011, Alt.=163.861450m. Speed=7.452000m/h.</desc>
<speed>2.070000</speed>
</trkpt>
<trkpt lat="55.683846" lon="26.344019">
<ele>164.150513</ele>
<time>2010-07-18T09:25:09Z</time>
<desc>lat.=55.683846, lon.=26.344019, Alt.=164.150513m. Speed=8.388000m/h.</desc>
<speed>2.330000</speed>
</trkpt>
<trkpt lat="55.683811" lon="26.344017">
<ele>163.838013</ele>
<time>2010-07-18T09:25:10Z</time>
<desc>lat.=55.683811, lon.=26.344017, Alt.=163.838013m. Speed=6.588000m/h.</desc>
<speed>1.830000</speed>
</trkpt>
<trkpt lat="55.683765" lon="26.343996">
<ele>162.642700</ele>
<time>2010-07-18T09:25:11Z</time>
<desc>lat.=55.683765, lon.=26.343996, Alt.=162.642700m. Speed=7.668000m/h.</desc>
<speed>2.130000</speed>
</trkpt>
<trkpt lat="55.683731" lon="26.344009">
<ele>161.181763</ele>
<time>2010-07-18T09:25:12Z</time>
<desc>lat.=55.683731, lon.=26.344009, Alt.=161.181763m. Speed=7.092000m/h.</desc>
<speed>1.970000</speed>
</trkpt>
<trkpt lat="55.683689" lon="26.344023">
<ele>161.318481</ele>
<time>2010-07-18T09:25:13Z</time>
<desc>lat.=55.683689, lon.=26.344023, Alt.=161.318481m. Speed=9.612000m/h.</desc>
<speed>2.670000</speed>
</trkpt>
<trkpt lat="55.683659" lon="26.344038">
<ele>161.498169</ele>
<time>2010-07-18T09:25:14Z</time>
<desc>lat.=55.683659, lon.=26.344038, Alt.=161.498169m. Speed=10.296000m/h.</desc>
<speed>2.860000</speed>
</trkpt>
<trkpt lat="55.683617" lon="26.344051">
<ele>160.306763</ele>
<time>2010-07-18T09:25:15Z</time>
<desc>lat.=55.683617, lon.=26.344051, Alt.=160.306763m. Speed=10.908000m/h.</desc>
<speed>3.030000</speed>
</trkpt>
<trkpt lat="55.683575" lon="26.344091">
<ele>157.892700</ele>
<time>2010-07-18T09:25:16Z</time>
<desc>lat.=55.683575, lon.=26.344091, Alt.=157.892700m. Speed=10.008000m/h.</desc>
<speed>2.780000</speed>
</trkpt>
<trkpt lat="55.683537" lon="26.344122">
<ele>156.666138</ele>
<time>2010-07-18T09:25:17Z</time>
<desc>lat.=55.683537, lon.=26.344122, Alt.=156.666138m. Speed=12.492000m/h.</desc>
<speed>3.470000</speed>
</trkpt>
<trkpt lat="55.683502" lon="26.344151">
<ele>156.107544</ele>
<time>2010-07-18T09:25:18Z</time>
<desc>lat.=55.683502, lon.=26.344151, Alt.=156.107544m. Speed=10.872000m/h.</desc>
<speed>3.020000</speed>
</trkpt>
<trkpt lat="55.683460" lon="26.344196">
<ele>155.982544</ele>
<time>2010-07-18T09:25:19Z</time>
<desc>lat.=55.683460, lon.=26.344196, Alt.=155.982544m. Speed=9.576000m/h.</desc>
<speed>2.660000</speed>
</trkpt>
<trkpt lat="55.683422" lon="26.344213">
<ele>155.818481</ele>
<time>2010-07-18T09:25:20Z</time>
<desc>lat.=55.683422, lon.=26.344213, Alt.=155.818481m. Speed=13.788000m/h.</desc>
<speed>3.830000</speed>
</trkpt>
<trkpt lat="55.683384" lon="26.344240">
<ele>155.740356</ele>
<time>2010-07-18T09:25:21Z</time>
<desc>lat.=55.683384, lon.=26.344240, Alt.=155.740356m. Speed=14.220000m/h.</desc>
<speed>3.950000</speed>
</trkpt>
<trkpt lat="55.683346" lon="26.344269">
<ele>156.052856</ele>
<time>2010-07-18T09:25:22Z</time>
<desc>lat.=55.683346, lon.=26.344269, Alt.=156.052856m. Speed=13.572000m/h.</desc>
<speed>3.770000</speed>
</trkpt>
<trkpt lat="55.683311" lon="26.344301">
<ele>156.427856</ele>
<time>2010-07-18T09:25:23Z</time>
<desc>lat.=55.683311, lon.=26.344301, Alt.=156.427856m. Speed=12.960000m/h.</desc>
<speed>3.600000</speed>
</trkpt>
<trkpt lat="55.683270" lon="26.344336">
<ele>155.775513</ele>
<time>2010-07-18T09:25:24Z</time>
<desc>lat.=55.683270, lon.=26.344336, Alt.=155.775513m. Speed=13.608000m/h.</desc>
<speed>3.780000</speed>
</trkpt>
<trkpt lat="55.683231" lon="26.344372">
<ele>155.564575</ele>
<time>2010-07-18T09:25:25Z</time>
<desc>lat.=55.683231, lon.=26.344372, Alt.=155.564575m. Speed=14.400000m/h.</desc>
<speed>4.000000</speed>
</trkpt>
<trkpt lat="55.683193" lon="26.344402">
<ele>155.556763</ele>
<time>2010-07-18T09:25:26Z</time>
<desc>lat.=55.683193, lon.=26.344402, Alt.=155.556763m. Speed=14.004000m/h.</desc>
<speed>3.890000</speed>
</trkpt>
<trkpt lat="55.683159" lon="26.344431">
<ele>155.513794</ele>
<time>2010-07-18T09:25:27Z</time>
<desc>lat.=55.683159, lon.=26.344431, Alt.=155.513794m. Speed=14.148000m/h.</desc>
<speed>3.930000</speed>
</trkpt>
<trkpt lat="55.683117" lon="26.344456">
<ele>155.396606</ele>
<time>2010-07-18T09:25:28Z</time>
<desc>lat.=55.683117, lon.=26.344456, Alt.=155.396606m. Speed=14.436000m/h.</desc>
<speed>4.010000</speed>
</trkpt>
<trkpt lat="55.683079" lon="26.344482">
<ele>155.025513</ele>
<time>2010-07-18T09:25:29Z</time>
<desc>lat.=55.683079, lon.=26.344482, Alt.=155.025513m. Speed=14.832000m/h.</desc>
<speed>4.120000</speed>
</trkpt>
<trkpt lat="55.683041" lon="26.344507">
<ele>155.060669</ele>
<time>2010-07-18T09:25:30Z</time>
<desc>lat.=55.683041, lon.=26.344507, Alt.=155.060669m. Speed=15.084000m/h.</desc>
<speed>4.190000</speed>
</trkpt>
<trkpt lat="55.682995" lon="26.344532">
<ele>154.654419</ele>
<time>2010-07-18T09:25:31Z</time>
<desc>lat.=55.682995, lon.=26.344532, Alt.=154.654419m. Speed=14.940000m/h.</desc>
<speed>4.150000</speed>
</trkpt>
<trkpt lat="55.682957" lon="26.344549">
<ele>153.779419</ele>
<time>2010-07-18T09:25:32Z</time>
<desc>lat.=55.682957, lon.=26.344549, Alt.=153.779419m. Speed=13.536000m/h.</desc>
<speed>3.760000</speed>
</trkpt>
<trkpt lat="55.682926" lon="26.344568">
<ele>153.369263</ele>
<time>2010-07-18T09:25:33Z</time>
<desc>lat.=55.682926, lon.=26.344568, Alt.=153.369263m. Speed=11.844000m/h.</desc>
<speed>3.290000</speed>
</trkpt>
<trkpt lat="55.682896" lon="26.344589">
<ele>153.142700</ele>
<time>2010-07-18T09:25:34Z</time>
<desc>lat.=55.682896, lon.=26.344589, Alt.=153.142700m. Speed=10.008000m/h.</desc>
<speed>2.780000</speed>
</trkpt>
<trkpt lat="55.682873" lon="26.344614">
<ele>153.138794</ele>
<time>2010-07-18T09:25:35Z</time>
<desc>lat.=55.682873, lon.=26.344614, Alt.=153.138794m. Speed=8.352000m/h.</desc>
<speed>2.320000</speed>
</trkpt>
<trkpt lat="55.682858" lon="26.344639">
<ele>153.154419</ele>
<time>2010-07-18T09:25:36Z</time>
<desc>lat.=55.682858, lon.=26.344639, Alt.=153.154419m. Speed=8.028000m/h.</desc>
<speed>2.230000</speed>
</trkpt>
<trkpt lat="55.682842" lon="26.344660">
<ele>153.130981</ele>
<time>2010-07-18T09:25:37Z</time>
<desc>lat.=55.682842, lon.=26.344660, Alt.=153.130981m. Speed=7.056000m/h.</desc>
<speed>1.960000</speed>
</trkpt>
<trkpt lat="55.682823" lon="26.344671">
<ele>153.380981</ele>
<time>2010-07-18T09:25:38Z</time>
<desc>lat.=55.682823, lon.=26.344671, Alt.=153.380981m. Speed=5.976000m/h.</desc>
<speed>1.660000</speed>
</trkpt>
<trkpt lat="55.682808" lon="26.344683">
<ele>153.701294</ele>
<time>2010-07-18T09:25:39Z</time>
<desc>lat.=55.682808, lon.=26.344683, Alt.=153.701294m. Speed=6.048000m/h.</desc>
<speed>1.680000</speed>
</trkpt>
<trkpt lat="55.682796" lon="26.344696">
<ele>153.689575</ele>
<time>2010-07-18T09:25:40Z</time>
<desc>lat.=55.682796, lon.=26.344696, Alt.=153.689575m. Speed=5.436000m/h.</desc>
<speed>1.510000</speed>
</trkpt>
<trkpt lat="55.682785" lon="26.344711">
<ele>153.677856</ele>
<time>2010-07-18T09:25:41Z</time>
<desc>lat.=55.682785, lon.=26.344711, Alt.=153.677856m. Speed=6.300000m/h.</desc>
<speed>1.750000</speed>
</trkpt>
<trkpt lat="55.682770" lon="26.344728">
<ele>153.806763</ele>
<time>2010-07-18T09:25:42Z</time>
<desc>lat.=55.682770, lon.=26.344728, Alt.=153.806763m. Speed=6.228000m/h.</desc>
<speed>1.730000</speed>
</trkpt>
<trkpt lat="55.682758" lon="26.344744">
<ele>153.806763</ele>
<time>2010-07-18T09:25:43Z</time>
<desc>lat.=55.682758, lon.=26.344744, Alt.=153.806763m. Speed=6.012000m/h.</desc>
<speed>1.670000</speed>
</trkpt>
<trkpt lat="55.682743" lon="26.344753">
<ele>153.353638</ele>
<time>2010-07-18T09:25:44Z</time>
<desc>lat.=55.682743, lon.=26.344753, Alt.=153.353638m. Speed=5.760000m/h.</desc>
<speed>1.600000</speed>
</trkpt>
<trkpt lat="55.682728" lon="26.344763">
<ele>153.560669</ele>
<time>2010-07-18T09:25:45Z</time>
<desc>lat.=55.682728, lon.=26.344763, Alt.=153.560669m. Speed=6.624000m/h.</desc>
<speed>1.840000</speed>
</trkpt>
<trkpt lat="55.682713" lon="26.344774">
<ele>153.771606</ele>
<time>2010-07-18T09:25:46Z</time>
<desc>lat.=55.682713, lon.=26.344774, Alt.=153.771606m. Speed=6.840000m/h.</desc>
<speed>1.900000</speed>
</trkpt>
<trkpt lat="55.682701" lon="26.344790">
<ele>153.877075</ele>
<time>2010-07-18T09:25:47Z</time>
<desc>lat.=55.682701, lon.=26.344790, Alt.=153.877075m. Speed=6.876000m/h.</desc>
<speed>1.910000</speed>
</trkpt>
<trkpt lat="55.682682" lon="26.344805">
<ele>153.904419</ele>
<time>2010-07-18T09:25:48Z</time>
<desc>lat.=55.682682, lon.=26.344805, Alt.=153.904419m. Speed=6.480000m/h.</desc>
<speed>1.800000</speed>
</trkpt>
<trkpt lat="55.682671" lon="26.344818">
<ele>154.240356</ele>
<time>2010-07-18T09:25:49Z</time>
<desc>lat.=55.682671, lon.=26.344818, Alt.=154.240356m. Speed=5.184000m/h.</desc>
<speed>1.440000</speed>
</trkpt>
<trkpt lat="55.682659" lon="26.344824">
<ele>154.443481</ele>
<time>2010-07-18T09:25:50Z</time>
<desc>lat.=55.682659, lon.=26.344824, Alt.=154.443481m. Speed=1.908000m/h.</desc>
<speed>0.530000</speed>
</trkpt>
<trkpt lat="55.682655" lon="26.344826">
<ele>154.470825</ele>
<time>2010-07-18T09:25:51Z</time>
<desc>lat.=55.682655, lon.=26.344826, Alt.=154.470825m. Speed=0.576000m/h.</desc>
<speed>0.160000</speed>
</trkpt>
<trkpt lat="55.682655" lon="26.344822">
<ele>154.568481</ele>
<time>2010-07-18T09:25:52Z</time>
<desc>lat.=55.682655, lon.=26.344822, Alt.=154.568481m. Speed=1.224000m/h.</desc>
<speed>0.340000</speed>
</trkpt>
<trkpt lat="55.682648" lon="26.344803">
<ele>154.314575</ele>
<time>2010-07-18T09:25:53Z</time>
<desc>lat.=55.682648, lon.=26.344803, Alt.=154.314575m. Speed=2.160000m/h.</desc>
<speed>0.600000</speed>
</trkpt>
<trkpt lat="55.682644" lon="26.344803">
<ele>154.341919</ele>
<time>2010-07-18T09:25:54Z</time>
<desc>lat.=55.682644, lon.=26.344803, Alt.=154.341919m. Speed=3.672000m/h.</desc>
<speed>1.020000</speed>
</trkpt>
<trkpt lat="55.682629" lon="26.344807">
<ele>154.170044</ele>
<time>2010-07-18T09:25:55Z</time>
<desc>lat.=55.682629, lon.=26.344807, Alt.=154.170044m. Speed=4.752000m/h.</desc>
<speed>1.320000</speed>
</trkpt>
<trkpt lat="55.682617" lon="26.344818">
<ele>154.412231</ele>
<time>2010-07-18T09:25:56Z</time>
<desc>lat.=55.682617, lon.=26.344818, Alt.=154.412231m. Speed=4.788000m/h.</desc>
<speed>1.330000</speed>
</trkpt>
<trkpt lat="55.682610" lon="26.344824">
<ele>154.388794</ele>
<time>2010-07-18T09:25:57Z</time>
<desc>lat.=55.682610, lon.=26.344824, Alt.=154.388794m. Speed=4.608000m/h.</desc>
<speed>1.280000</speed>
</trkpt>
<trkpt lat="55.682598" lon="26.344835">
<ele>154.494263</ele>
<time>2010-07-18T09:25:58Z</time>
<desc>lat.=55.682598, lon.=26.344835, Alt.=154.494263m. Speed=4.752000m/h.</desc>
<speed>1.320000</speed>
</trkpt>
<trkpt lat="55.682587" lon="26.344837">
<ele>154.728638</ele>
<time>2010-07-18T09:25:59Z</time>
<desc>lat.=55.682587, lon.=26.344837, Alt.=154.728638m. Speed=4.068000m/h.</desc>
<speed>1.130000</speed>
</trkpt>
<trkpt lat="55.682575" lon="26.344849">
<ele>154.732544</ele>
<time>2010-07-18T09:26:00Z</time>
<desc>lat.=55.682575, lon.=26.344849, Alt.=154.732544m. Speed=4.608000m/h.</desc>
<speed>1.280000</speed>
</trkpt>
<trkpt lat="55.682564" lon="26.344858">
<ele>154.748169</ele>
<time>2010-07-18T09:26:01Z</time>
<desc>lat.=55.682564, lon.=26.344858, Alt.=154.748169m. Speed=4.284000m/h.</desc>
<speed>1.190000</speed>
</trkpt>
<trkpt lat="55.682556" lon="26.344864">
<ele>154.556763</ele>
<time>2010-07-18T09:26:02Z</time>
<desc>lat.=55.682556, lon.=26.344864, Alt.=154.556763m. Speed=3.960000m/h.</desc>
<speed>1.100000</speed>
</trkpt>
<trkpt lat="55.682545" lon="26.344873">
<ele>154.564575</ele>
<time>2010-07-18T09:26:03Z</time>
<desc>lat.=55.682545, lon.=26.344873, Alt.=154.564575m. Speed=4.140000m/h.</desc>
<speed>1.150000</speed>
</trkpt>
<trkpt lat="55.682537" lon="26.344879">
<ele>154.181763</ele>
<time>2010-07-18T09:26:04Z</time>
<desc>lat.=55.682537, lon.=26.344879, Alt.=154.181763m. Speed=4.140000m/h.</desc>
<speed>1.150000</speed>
</trkpt>
<trkpt lat="55.682526" lon="26.344885">
<ele>153.998169</ele>
<time>2010-07-18T09:26:05Z</time>
<desc>lat.=55.682526, lon.=26.344885, Alt.=153.998169m. Speed=4.284000m/h.</desc>
<speed>1.190000</speed>
</trkpt>
<trkpt lat="55.682514" lon="26.344894">
<ele>153.873169</ele>
<time>2010-07-18T09:26:06Z</time>
<desc>lat.=55.682514, lon.=26.344894, Alt.=153.873169m. Speed=4.536000m/h.</desc>
<speed>1.260000</speed>
</trkpt>
<trkpt lat="55.682507" lon="26.344902">
<ele>154.154419</ele>
<time>2010-07-18T09:26:07Z</time>
<desc>lat.=55.682507, lon.=26.344902, Alt.=154.154419m. Speed=4.428000m/h.</desc>
<speed>1.230000</speed>
</trkpt>
<trkpt lat="55.682499" lon="26.344915">
<ele>154.455200</ele>
<time>2010-07-18T09:26:08Z</time>
<desc>lat.=55.682499, lon.=26.344915, Alt.=154.455200m. Speed=4.680000m/h.</desc>
<speed>1.300000</speed>
</trkpt>
<trkpt lat="55.682487" lon="26.344927">
<ele>154.361450</ele>
<time>2010-07-18T09:26:09Z</time>
<desc>lat.=55.682487, lon.=26.344927, Alt.=154.361450m. Speed=3.600000m/h.</desc>
<speed>1.000000</speed>
</trkpt>
<trkpt lat="55.682476" lon="26.344936">
<ele>154.310669</ele>
<time>2010-07-18T09:26:10Z</time>
<desc>lat.=55.682476, lon.=26.344936, Alt.=154.310669m. Speed=3.780000m/h.</desc>
<speed>1.050000</speed>
</trkpt>
<trkpt lat="55.682468" lon="26.344944">
<ele>154.443481</ele>
<time>2010-07-18T09:26:11Z</time>
<desc>lat.=55.682468, lon.=26.344944, Alt.=154.443481m. Speed=2.988000m/h.</desc>
<speed>0.830000</speed>
</trkpt>
<trkpt lat="55.682465" lon="26.344952">
<ele>154.642700</ele>
<time>2010-07-18T09:26:12Z</time>
<desc>lat.=55.682465, lon.=26.344952, Alt.=154.642700m. Speed=3.420000m/h.</desc>
<speed>0.950000</speed>
</trkpt>
<trkpt lat="55.682457" lon="26.344952">
<ele>154.959106</ele>
<time>2010-07-18T09:26:13Z</time>
<desc>lat.=55.682457, lon.=26.344952, Alt.=154.959106m. Speed=3.348000m/h.</desc>
<speed>0.930000</speed>
</trkpt>
<trkpt lat="55.682449" lon="26.344954">
<ele>155.048950</ele>
<time>2010-07-18T09:26:14Z</time>
<desc>lat.=55.682449, lon.=26.344954, Alt.=155.048950m. Speed=3.960000m/h.</desc>
<speed>1.100000</speed>
</trkpt>
<trkpt lat="55.682438" lon="26.344957">
<ele>154.841919</ele>
<time>2010-07-18T09:26:15Z</time>
<desc>lat.=55.682438, lon.=26.344957, Alt.=154.841919m. Speed=4.212000m/h.</desc>
<speed>1.170000</speed>
</trkpt>
<trkpt lat="55.682426" lon="26.344957">
<ele>154.732544</ele>
<time>2010-07-18T09:26:16Z</time>
<desc>lat.=55.682426, lon.=26.344957, Alt.=154.732544m. Speed=4.680000m/h.</desc>
<speed>1.300000</speed>
</trkpt>
<trkpt lat="55.682419" lon="26.344957">
<ele>154.916138</ele>
<time>2010-07-18T09:26:17Z</time>
<desc>lat.=55.682419, lon.=26.344957, Alt.=154.916138m. Speed=4.356000m/h.</desc>
<speed>1.210000</speed>
</trkpt>
<trkpt lat="55.682415" lon="26.344954">
<ele>155.435669</ele>
<time>2010-07-18T09:26:18Z</time>
<desc>lat.=55.682415, lon.=26.344954, Alt.=155.435669m. Speed=4.428000m/h.</desc>
<speed>1.230000</speed>
</trkpt>
<trkpt lat="55.682407" lon="26.344959">
<ele>155.970825</ele>
<time>2010-07-18T09:26:19Z</time>
<desc>lat.=55.682407, lon.=26.344959, Alt.=155.970825m. Speed=4.716000m/h.</desc>
<speed>1.310000</speed>
</trkpt>
<trkpt lat="55.682396" lon="26.344969">
<ele>156.357544</ele>
<time>2010-07-18T09:26:20Z</time>
<desc>lat.=55.682396, lon.=26.344969, Alt.=156.357544m. Speed=4.572000m/h.</desc>
<speed>1.270000</speed>
</trkpt>
<trkpt lat="55.682388" lon="26.344976">
<ele>156.748169</ele>
<time>2010-07-18T09:26:21Z</time>
<desc>lat.=55.682388, lon.=26.344976, Alt.=156.748169m. Speed=4.032000m/h.</desc>
<speed>1.120000</speed>
</trkpt>
<trkpt lat="55.682384" lon="26.344982">
<ele>157.240356</ele>
<time>2010-07-18T09:26:22Z</time>
<desc>lat.=55.682384, lon.=26.344982, Alt.=157.240356m. Speed=3.960000m/h.</desc>
<speed>1.100000</speed>
</trkpt>
<trkpt lat="55.682377" lon="26.344986">
<ele>157.338013</ele>
<time>2010-07-18T09:26:23Z</time>
<desc>lat.=55.682377, lon.=26.344986, Alt.=157.338013m. Speed=3.960000m/h.</desc>
<speed>1.100000</speed>
</trkpt>
<trkpt lat="55.682373" lon="26.344992">
<ele>157.584106</ele>
<time>2010-07-18T09:26:24Z</time>
<desc>lat.=55.682373, lon.=26.344992, Alt.=157.584106m. Speed=3.924000m/h.</desc>
<speed>1.090000</speed>
</trkpt>
<trkpt lat="55.682365" lon="26.345001">
<ele>157.834106</ele>
<time>2010-07-18T09:26:25Z</time>
<desc>lat.=55.682365, lon.=26.345001, Alt.=157.834106m. Speed=3.636000m/h.</desc>
<speed>1.010000</speed>
</trkpt>
<trkpt lat="55.682362" lon="26.345007">
<ele>157.970825</ele>
<time>2010-07-18T09:26:26Z</time>
<desc>lat.=55.682362, lon.=26.345007, Alt.=157.970825m. Speed=3.600000m/h.</desc>
<speed>1.000000</speed>
</trkpt>
<trkpt lat="55.682358" lon="26.345013">
<ele>157.998169</ele>
<time>2010-07-18T09:26:27Z</time>
<desc>lat.=55.682358, lon.=26.345013, Alt.=157.998169m. Speed=3.276000m/h.</desc>
<speed>0.910000</speed>
</trkpt>
<trkpt lat="55.682346" lon="26.345018">
<ele>158.154419</ele>
<time>2010-07-18T09:26:28Z</time>
<desc>lat.=55.682346, lon.=26.345018, Alt.=158.154419m. Speed=3.384000m/h.</desc>
<speed>0.940000</speed>
</trkpt>
<trkpt lat="55.682339" lon="26.345022">
<ele>158.263794</ele>
<time>2010-07-18T09:26:29Z</time>
<desc>lat.=55.682339, lon.=26.345022, Alt.=158.263794m. Speed=3.852000m/h.</desc>
<speed>1.070000</speed>
</trkpt>
<trkpt lat="55.682327" lon="26.345032">
<ele>158.478638</ele>
<time>2010-07-18T09:26:30Z</time>
<desc>lat.=55.682327, lon.=26.345032, Alt.=158.478638m. Speed=3.924000m/h.</desc>
<speed>1.090000</speed>
</trkpt>
<trkpt lat="55.682320" lon="26.345039">
<ele>158.724731</ele>
<time>2010-07-18T09:26:31Z</time>
<desc>lat.=55.682320, lon.=26.345039, Alt.=158.724731m. Speed=3.060000m/h.</desc>
<speed>0.850000</speed>
</trkpt>
<trkpt lat="55.682316" lon="26.345047">
<ele>159.099731</ele>
<time>2010-07-18T09:26:32Z</time>
<desc>lat.=55.682316, lon.=26.345047, Alt.=159.099731m. Speed=3.204000m/h.</desc>
<speed>0.890000</speed>
</trkpt>
<trkpt lat="55.682308" lon="26.345055">
<ele>159.088013</ele>
<time>2010-07-18T09:26:33Z</time>
<desc>lat.=55.682308, lon.=26.345055, Alt.=159.088013m. Speed=2.844000m/h.</desc>
<speed>0.790000</speed>
</trkpt>
<trkpt lat="55.682304" lon="26.345062">
<ele>159.009888</ele>
<time>2010-07-18T09:26:34Z</time>
<desc>lat.=55.682304, lon.=26.345062, Alt.=159.009888m. Speed=3.384000m/h.</desc>
<speed>0.940000</speed>
</trkpt>
<trkpt lat="55.682297" lon="26.345064">
<ele>159.017700</ele>
<time>2010-07-18T09:26:35Z</time>
<desc>lat.=55.682297, lon.=26.345064, Alt.=159.017700m. Speed=3.276000m/h.</desc>
<speed>0.910000</speed>
</trkpt>
<trkpt lat="55.682285" lon="26.345068">
<ele>159.095825</ele>
<time>2010-07-18T09:26:36Z</time>
<desc>lat.=55.682285, lon.=26.345068, Alt.=159.095825m. Speed=3.600000m/h.</desc>
<speed>1.000000</speed>
</trkpt>
<trkpt lat="55.682278" lon="26.345070">
<ele>159.173950</ele>
<time>2010-07-18T09:26:37Z</time>
<desc>lat.=55.682278, lon.=26.345070, Alt.=159.173950m. Speed=4.140000m/h.</desc>
<speed>1.150000</speed>
</trkpt>
<trkpt lat="55.682270" lon="26.345074">
<ele>159.236450</ele>
<time>2010-07-18T09:26:38Z</time>
<desc>lat.=55.682270, lon.=26.345074, Alt.=159.236450m. Speed=2.916000m/h.</desc>
<speed>0.810000</speed>
</trkpt>
<trkpt lat="55.682259" lon="26.345076">
<ele>159.310669</ele>
<time>2010-07-18T09:26:39Z</time>
<desc>lat.=55.682259, lon.=26.345076, Alt.=159.310669m. Speed=2.808000m/h.</desc>
<speed>0.780000</speed>
</trkpt>
<trkpt lat="55.682247" lon="26.345078">
<ele>159.150513</ele>
<time>2010-07-18T09:26:40Z</time>
<desc>lat.=55.682247, lon.=26.345078, Alt.=159.150513m. Speed=3.960000m/h.</desc>
<speed>1.100000</speed>
</trkpt>
<trkpt lat="55.682236" lon="26.345085">
<ele>159.154419</ele>
<time>2010-07-18T09:26:41Z</time>
<desc>lat.=55.682236, lon.=26.345085, Alt.=159.154419m. Speed=4.284000m/h.</desc>
<speed>1.190000</speed>
</trkpt>
<trkpt lat="55.682224" lon="26.345093">
<ele>158.873169</ele>
<time>2010-07-18T09:26:42Z</time>
<desc>lat.=55.682224, lon.=26.345093, Alt.=158.873169m. Speed=4.752000m/h.</desc>
<speed>1.320000</speed>
</trkpt>
<trkpt lat="55.682213" lon="26.345106">
<ele>159.068481</ele>
<time>2010-07-18T09:26:43Z</time>
<desc>lat.=55.682213, lon.=26.345106, Alt.=159.068481m. Speed=5.148000m/h.</desc>
<speed>1.430000</speed>
</trkpt>
<trkpt lat="55.682205" lon="26.345118">
<ele>159.353638</ele>
<time>2010-07-18T09:26:44Z</time>
<desc>lat.=55.682205, lon.=26.345118, Alt.=159.353638m. Speed=4.356000m/h.</desc>
<speed>1.210000</speed>
</trkpt>
<trkpt lat="55.682194" lon="26.345129">
<ele>159.271606</ele>
<time>2010-07-18T09:26:45Z</time>
<desc>lat.=55.682194, lon.=26.345129, Alt.=159.271606m. Speed=3.924000m/h.</desc>
<speed>1.090000</speed>
</trkpt>
<trkpt lat="55.682178" lon="26.345142">
<ele>159.154419</ele>
<time>2010-07-18T09:26:46Z</time>
<desc>lat.=55.682178, lon.=26.345142, Alt.=159.154419m. Speed=4.356000m/h.</desc>
<speed>1.210000</speed>
</trkpt>
<trkpt lat="55.682171" lon="26.345152">
<ele>159.267700</ele>
<time>2010-07-18T09:26:47Z</time>
<desc>lat.=55.682171, lon.=26.345152, Alt.=159.267700m. Speed=4.320000m/h.</desc>
<speed>1.200000</speed>
</trkpt>
<trkpt lat="55.682163" lon="26.345154">
<ele>159.302856</ele>
<time>2010-07-18T09:26:48Z</time>
<desc>lat.=55.682163, lon.=26.345154, Alt.=159.302856m. Speed=4.248000m/h.</desc>
<speed>1.180000</speed>
</trkpt>
<trkpt lat="55.682156" lon="26.345154">
<ele>159.056763</ele>
<time>2010-07-18T09:26:49Z</time>
<desc>lat.=55.682156, lon.=26.345154, Alt.=159.056763m. Speed=3.996000m/h.</desc>
<speed>1.110000</speed>
</trkpt>
<trkpt lat="55.682148" lon="26.345154">
<ele>158.877075</ele>
<time>2010-07-18T09:26:50Z</time>
<desc>lat.=55.682148, lon.=26.345154, Alt.=158.877075m. Speed=3.420000m/h.</desc>
<speed>0.950000</speed>
</trkpt>
<trkpt lat="55.682140" lon="26.345161">
<ele>158.666138</ele>
<time>2010-07-18T09:26:51Z</time>
<desc>lat.=55.682140, lon.=26.345161, Alt.=158.666138m. Speed=3.708000m/h.</desc>
<speed>1.030000</speed>
</trkpt>
<trkpt lat="55.682133" lon="26.345171">
<ele>158.830200</ele>
<time>2010-07-18T09:26:52Z</time>
<desc>lat.=55.682133, lon.=26.345171, Alt.=158.830200m. Speed=3.672000m/h.</desc>
<speed>1.020000</speed>
</trkpt>
<trkpt lat="55.682125" lon="26.345179">
<ele>158.736450</ele>
<time>2010-07-18T09:26:53Z</time>
<desc>lat.=55.682125, lon.=26.345179, Alt.=158.736450m. Speed=4.068000m/h.</desc>
<speed>1.130000</speed>
</trkpt>
<trkpt lat="55.682114" lon="26.345188">
<ele>158.736450</ele>
<time>2010-07-18T09:26:54Z</time>
<desc>lat.=55.682114, lon.=26.345188, Alt.=158.736450m. Speed=4.464000m/h.</desc>
<speed>1.240000</speed>
</trkpt>
<trkpt lat="55.682106" lon="26.345196">
<ele>158.681763</ele>
<time>2010-07-18T09:26:55Z</time>
<desc>lat.=55.682106, lon.=26.345196, Alt.=158.681763m. Speed=4.104000m/h.</desc>
<speed>1.140000</speed>
</trkpt>
<trkpt lat="55.682098" lon="26.345201">
<ele>158.724731</ele>
<time>2010-07-18T09:26:56Z</time>
<desc>lat.=55.682098, lon.=26.345201, Alt.=158.724731m. Speed=4.320000m/h.</desc>
<speed>1.200000</speed>
</trkpt>
<trkpt lat="55.682087" lon="26.345209">
<ele>158.623169</ele>
<time>2010-07-18T09:26:57Z</time>
<desc>lat.=55.682087, lon.=26.345209, Alt.=158.623169m. Speed=5.112000m/h.</desc>
<speed>1.420000</speed>
</trkpt>
<trkpt lat="55.682076" lon="26.345219">
<ele>158.978638</ele>
<time>2010-07-18T09:26:58Z</time>
<desc>lat.=55.682076, lon.=26.345219, Alt.=158.978638m. Speed=3.996000m/h.</desc>
<speed>1.110000</speed>
</trkpt>
<trkpt lat="55.682068" lon="26.345222">
<ele>158.916138</ele>
<time>2010-07-18T09:26:59Z</time>
<desc>lat.=55.682068, lon.=26.345222, Alt.=158.916138m. Speed=2.952000m/h.</desc>
<speed>0.820000</speed>
</trkpt>
<trkpt lat="55.682064" lon="26.345228">
<ele>159.271606</ele>
<time>2010-07-18T09:27:00Z</time>
<desc>lat.=55.682064, lon.=26.345228, Alt.=159.271606m. Speed=0.432000m/h.</desc>
<speed>0.120000</speed>
</trkpt>
<trkpt lat="55.682064" lon="26.345232">
<ele>159.240356</ele>
<time>2010-07-18T09:27:01Z</time>
<desc>lat.=55.682064, lon.=26.345232, Alt.=159.240356m. Speed=0.288000m/h.</desc>
<speed>0.080000</speed>
</trkpt>
<trkpt lat="55.682064" lon="26.345240">
<ele>159.463013</ele>
<time>2010-07-18T09:27:02Z</time>
<desc>lat.=55.682064, lon.=26.345240, Alt.=159.463013m. Speed=0.288000m/h.</desc>
<speed>0.080000</speed>
</trkpt>
<trkpt lat="55.682060" lon="26.345238">
<ele>159.431763</ele>
<time>2010-07-18T09:27:03Z</time>
<desc>lat.=55.682060, lon.=26.345238, Alt.=159.431763m. Speed=0.144000m/h.</desc>
<speed>0.040000</speed>
</trkpt>
<trkpt lat="55.682060" lon="26.345238">
<ele>159.416138</ele>
<time>2010-07-18T09:27:04Z</time>
<desc>lat.=55.682060, lon.=26.345238, Alt.=159.416138m. Speed=0.072000m/h.</desc>
<speed>0.020000</speed>
</trkpt>
<trkpt lat="55.682060" lon="26.345238">
<ele>159.408325</ele>
<time>2010-07-18T09:27:05Z</time>
<desc>lat.=55.682060, lon.=26.345238, Alt.=159.408325m. Speed=0.144000m/h.</desc>
<speed>0.040000</speed>
</trkpt>
<trkpt lat="55.682060" lon="26.345238">
<ele>159.404419</ele>
<time>2010-07-18T09:27:06Z</time>
<desc>lat.=55.682060, lon.=26.345238, Alt.=159.404419m. Speed=0.180000m/h.</desc>
<speed>0.050000</speed>
</trkpt>
<trkpt lat="55.682060" lon="26.345238">
<ele>159.392700</ele>
<time>2010-07-18T09:27:07Z</time>
<desc>lat.=55.682060, lon.=26.345238, Alt.=159.392700m. Speed=0.216000m/h.</desc>
<speed>0.060000</speed>
</trkpt>
<trkpt lat="55.682060" lon="26.345238">
<ele>159.384888</ele>
<time>2010-07-18T09:27:08Z</time>
<desc>lat.=55.682060, lon.=26.345238, Alt.=159.384888m. Speed=1.584000m/h.</desc>
<speed>0.440000</speed>
</trkpt>
<trkpt lat="55.682053" lon="26.345242">
<ele>159.568481</ele>
<time>2010-07-18T09:27:09Z</time>
<desc>lat.=55.682053, lon.=26.345242, Alt.=159.568481m. Speed=3.276000m/h.</desc>
<speed>0.910000</speed>
</trkpt>
<trkpt lat="55.682041" lon="26.345247">
<ele>159.826294</ele>
<time>2010-07-18T09:27:10Z</time>
<desc>lat.=55.682041, lon.=26.345247, Alt.=159.826294m. Speed=4.680000m/h.</desc>
<speed>1.300000</speed>
</trkpt>
<trkpt lat="55.682030" lon="26.345255">
<ele>159.923950</ele>
<time>2010-07-18T09:27:11Z</time>
<desc>lat.=55.682030, lon.=26.345255, Alt.=159.923950m. Speed=4.860000m/h.</desc>
<speed>1.350000</speed>
</trkpt>
<trkpt lat="55.682014" lon="26.345264">
<ele>160.033325</ele>
<time>2010-07-18T09:27:12Z</time>
<desc>lat.=55.682014, lon.=26.345264, Alt.=160.033325m. Speed=5.220000m/h.</desc>
<speed>1.450000</speed>
</trkpt>
<trkpt lat="55.682003" lon="26.345274">
<ele>160.236450</ele>
<time>2010-07-18T09:27:13Z</time>
<desc>lat.=55.682003, lon.=26.345274, Alt.=160.236450m. Speed=4.896000m/h.</desc>
<speed>1.360000</speed>
</trkpt>
<trkpt lat="55.681995" lon="26.345282">
<ele>160.369263</ele>
<time>2010-07-18T09:27:14Z</time>
<desc>lat.=55.681995, lon.=26.345282, Alt.=160.369263m. Speed=3.708000m/h.</desc>
<speed>1.030000</speed>
</trkpt>
<trkpt lat="55.681980" lon="26.345289">
<ele>160.380981</ele>
<time>2010-07-18T09:27:15Z</time>
<desc>lat.=55.681980, lon.=26.345289, Alt.=160.380981m. Speed=5.364000m/h.</desc>
<speed>1.490000</speed>
</trkpt>
<trkpt lat="55.681969" lon="26.345295">
<ele>160.248169</ele>
<time>2010-07-18T09:27:16Z</time>
<desc>lat.=55.681969, lon.=26.345295, Alt.=160.248169m. Speed=5.112000m/h.</desc>
<speed>1.420000</speed>
</trkpt>
<trkpt lat="55.681957" lon="26.345299">
<ele>160.037231</ele>
<time>2010-07-18T09:27:17Z</time>
<desc>lat.=55.681957, lon.=26.345299, Alt.=160.037231m. Speed=4.896000m/h.</desc>
<speed>1.360000</speed>
</trkpt>
<trkpt lat="55.681946" lon="26.345304">
<ele>160.005981</ele>
<time>2010-07-18T09:27:18Z</time>
<desc>lat.=55.681946, lon.=26.345304, Alt.=160.005981m. Speed=4.752000m/h.</desc>
<speed>1.320000</speed>
</trkpt>
<trkpt lat="55.681934" lon="26.345308">
<ele>160.166138</ele>
<time>2010-07-18T09:27:19Z</time>
<desc>lat.=55.681934, lon.=26.345308, Alt.=160.166138m. Speed=4.896000m/h.</desc>
<speed>1.360000</speed>
</trkpt>
<trkpt lat="55.681919" lon="26.345310">
<ele>160.232544</ele>
<time>2010-07-18T09:27:20Z</time>
<desc>lat.=55.681919, lon.=26.345310, Alt.=160.232544m. Speed=4.536000m/h.</desc>
<speed>1.260000</speed>
</trkpt>
<trkpt lat="55.681911" lon="26.345314">
<ele>160.244263</ele>
<time>2010-07-18T09:27:21Z</time>
<desc>lat.=55.681911, lon.=26.345314, Alt.=160.244263m. Speed=4.716000m/h.</desc>
<speed>1.310000</speed>
</trkpt>
<trkpt lat="55.681900" lon="26.345316">
<ele>160.420044</ele>
<time>2010-07-18T09:27:22Z</time>
<desc>lat.=55.681900, lon.=26.345316, Alt.=160.420044m. Speed=4.212000m/h.</desc>
<speed>1.170000</speed>
</trkpt>
<trkpt lat="55.681889" lon="26.345318">
<ele>160.517700</ele>
<time>2010-07-18T09:27:23Z</time>
<desc>lat.=55.681889, lon.=26.345318, Alt.=160.517700m. Speed=4.464000m/h.</desc>
<speed>1.240000</speed>
</trkpt>
<trkpt lat="55.681877" lon="26.345318">
<ele>160.861450</ele>
<time>2010-07-18T09:27:24Z</time>
<desc>lat.=55.681877, lon.=26.345318, Alt.=160.861450m. Speed=4.176000m/h.</desc>
<speed>1.160000</speed>
</trkpt>
<trkpt lat="55.681866" lon="26.345324">
<ele>161.209106</ele>
<time>2010-07-18T09:27:25Z</time>
<desc>lat.=55.681866, lon.=26.345324, Alt.=161.209106m. Speed=4.428000m/h.</desc>
<speed>1.230000</speed>
</trkpt>
<trkpt lat="55.681850" lon="26.345327">
<ele>161.502075</ele>
<time>2010-07-18T09:27:26Z</time>
<desc>lat.=55.681850, lon.=26.345327, Alt.=161.502075m. Speed=4.464000m/h.</desc>
<speed>1.240000</speed>
</trkpt>
<trkpt lat="55.681839" lon="26.345331">
<ele>162.130981</ele>
<time>2010-07-18T09:27:27Z</time>
<desc>lat.=55.681839, lon.=26.345331, Alt.=162.130981m. Speed=4.428000m/h.</desc>
<speed>1.230000</speed>
</trkpt>
<trkpt lat="55.681824" lon="26.345335">
<ele>162.580200</ele>
<time>2010-07-18T09:27:28Z</time>
<desc>lat.=55.681824, lon.=26.345335, Alt.=162.580200m. Speed=4.716000m/h.</desc>
<speed>1.310000</speed>
</trkpt>
<trkpt lat="55.681808" lon="26.345341">
<ele>162.615356</ele>
<time>2010-07-18T09:27:29Z</time>
<desc>lat.=55.681808, lon.=26.345341, Alt.=162.615356m. Speed=3.924000m/h.</desc>
<speed>1.090000</speed>
</trkpt>
<trkpt lat="55.681801" lon="26.345341">
<ele>162.818481</ele>
<time>2010-07-18T09:27:30Z</time>
<desc>lat.=55.681801, lon.=26.345341, Alt.=162.818481m. Speed=4.356000m/h.</desc>
<speed>1.210000</speed>
</trkpt>
<trkpt lat="55.681789" lon="26.345335">
<ele>163.029419</ele>
<time>2010-07-18T09:27:31Z</time>
<desc>lat.=55.681789, lon.=26.345335, Alt.=163.029419m. Speed=4.716000m/h.</desc>
<speed>1.310000</speed>
</trkpt>
<trkpt lat="55.681778" lon="26.345333">
<ele>163.064575</ele>
<time>2010-07-18T09:27:32Z</time>
<desc>lat.=55.681778, lon.=26.345333, Alt.=163.064575m. Speed=4.356000m/h.</desc>
<speed>1.210000</speed>
</trkpt>
<trkpt lat="55.681763" lon="26.345325">
<ele>162.970825</ele>
<time>2010-07-18T09:27:33Z</time>
<desc>lat.=55.681763, lon.=26.345325, Alt.=162.970825m. Speed=4.284000m/h.</desc>
<speed>1.190000</speed>
</trkpt>
<trkpt lat="55.681755" lon="26.345318">
<ele>163.099731</ele>
<time>2010-07-18T09:27:34Z</time>
<desc>lat.=55.681755, lon.=26.345318, Alt.=163.099731m. Speed=4.140000m/h.</desc>
<speed>1.150000</speed>
</trkpt>
<trkpt lat="55.681747" lon="26.345320">
<ele>163.482544</ele>
<time>2010-07-18T09:27:35Z</time>
<desc>lat.=55.681747, lon.=26.345320, Alt.=163.482544m. Speed=4.356000m/h.</desc>
<speed>1.210000</speed>
</trkpt>
<trkpt lat="55.681740" lon="26.345312">
<ele>164.072388</ele>
<time>2010-07-18T09:27:36Z</time>
<desc>lat.=55.681740, lon.=26.345312, Alt.=164.072388m. Speed=3.636000m/h.</desc>
<speed>1.010000</speed>
</trkpt>
<trkpt lat="55.681728" lon="26.345306">
<ele>164.431763</ele>
<time>2010-07-18T09:27:37Z</time>
<desc>lat.=55.681728, lon.=26.345306, Alt.=164.431763m. Speed=4.248000m/h.</desc>
<speed>1.180000</speed>
</trkpt>
<trkpt lat="55.681721" lon="26.345304">
<ele>165.017700</ele>
<time>2010-07-18T09:27:38Z</time>
<desc>lat.=55.681721, lon.=26.345304, Alt.=165.017700m. Speed=5.400000m/h.</desc>
<speed>1.500000</speed>
</trkpt>
<trkpt lat="55.681705" lon="26.345295">
<ele>165.431763</ele>
<time>2010-07-18T09:27:39Z</time>
<desc>lat.=55.681705, lon.=26.345295, Alt.=165.431763m. Speed=5.076000m/h.</desc>
<speed>1.410000</speed>
</trkpt>
<trkpt lat="55.681694" lon="26.345291">
<ele>165.877075</ele>
<time>2010-07-18T09:27:40Z</time>
<desc>lat.=55.681694, lon.=26.345291, Alt.=165.877075m. Speed=4.824000m/h.</desc>
<speed>1.340000</speed>
</trkpt>
<trkpt lat="55.681686" lon="26.345287">
<ele>165.970825</ele>
<time>2010-07-18T09:27:41Z</time>
<desc>lat.=55.681686, lon.=26.345287, Alt.=165.970825m. Speed=4.212000m/h.</desc>
<speed>1.170000</speed>
</trkpt>
<trkpt lat="55.681675" lon="26.345282">
<ele>166.099731</ele>
<time>2010-07-18T09:27:42Z</time>
<desc>lat.=55.681675, lon.=26.345282, Alt.=166.099731m. Speed=4.104000m/h.</desc>
<speed>1.140000</speed>
</trkpt>
<trkpt lat="55.681667" lon="26.345274">
<ele>166.654419</ele>
<time>2010-07-18T09:27:43Z</time>
<desc>lat.=55.681667, lon.=26.345274, Alt.=166.654419m. Speed=4.680000m/h.</desc>
<speed>1.300000</speed>
</trkpt>
<trkpt lat="55.681656" lon="26.345268">
<ele>166.904419</ele>
<time>2010-07-18T09:27:44Z</time>
<desc>lat.=55.681656, lon.=26.345268, Alt.=166.904419m. Speed=4.248000m/h.</desc>
<speed>1.180000</speed>
</trkpt>
<trkpt lat="55.681648" lon="26.345264">
<ele>167.025513</ele>
<time>2010-07-18T09:27:45Z</time>
<desc>lat.=55.681648, lon.=26.345264, Alt.=167.025513m. Speed=3.744000m/h.</desc>
<speed>1.040000</speed>
</trkpt>
<trkpt lat="55.681641" lon="26.345259">
<ele>167.162231</ele>
<time>2010-07-18T09:27:46Z</time>
<desc>lat.=55.681641, lon.=26.345259, Alt.=167.162231m. Speed=3.708000m/h.</desc>
<speed>1.030000</speed>
</trkpt>
<trkpt lat="55.681637" lon="26.345251">
<ele>167.138794</ele>
<time>2010-07-18T09:27:47Z</time>
<desc>lat.=55.681637, lon.=26.345251, Alt.=167.138794m. Speed=3.816000m/h.</desc>
<speed>1.060000</speed>
</trkpt>
<trkpt lat="55.681625" lon="26.345238">
<ele>166.982544</ele>
<time>2010-07-18T09:27:48Z</time>
<desc>lat.=55.681625, lon.=26.345238, Alt.=166.982544m. Speed=4.068000m/h.</desc>
<speed>1.130000</speed>
</trkpt>
<trkpt lat="55.681614" lon="26.345228">
<ele>167.052856</ele>
<time>2010-07-18T09:27:49Z</time>
<desc>lat.=55.681614, lon.=26.345228, Alt.=167.052856m. Speed=4.680000m/h.</desc>
<speed>1.300000</speed>
</trkpt>
<trkpt lat="55.681602" lon="26.345217">
<ele>167.295044</ele>
<time>2010-07-18T09:27:50Z</time>
<desc>lat.=55.681602, lon.=26.345217, Alt.=167.295044m. Speed=4.932000m/h.</desc>
<speed>1.370000</speed>
</trkpt>
<trkpt lat="55.681587" lon="26.345213">
<ele>167.740356</ele>
<time>2010-07-18T09:27:51Z</time>
<desc>lat.=55.681587, lon.=26.345213, Alt.=167.740356m. Speed=5.112000m/h.</desc>
<speed>1.420000</speed>
</trkpt>
<trkpt lat="55.681576" lon="26.345215">
<ele>168.138794</ele>
<time>2010-07-18T09:27:52Z</time>
<desc>lat.=55.681576, lon.=26.345215, Alt.=168.138794m. Speed=3.852000m/h.</desc>
<speed>1.070000</speed>
</trkpt>
<trkpt lat="55.681561" lon="26.345211">
<ele>168.545044</ele>
<time>2010-07-18T09:27:53Z</time>
<desc>lat.=55.681561, lon.=26.345211, Alt.=168.545044m. Speed=4.788000m/h.</desc>
<speed>1.330000</speed>
</trkpt>
<trkpt lat="55.681553" lon="26.345205">
<ele>168.650513</ele>
<time>2010-07-18T09:27:54Z</time>
<desc>lat.=55.681553, lon.=26.345205, Alt.=168.650513m. Speed=4.176000m/h.</desc>
<speed>1.160000</speed>
</trkpt>
<trkpt lat="55.681541" lon="26.345200">
<ele>168.716919</ele>
<time>2010-07-18T09:27:55Z</time>
<desc>lat.=55.681541, lon.=26.345200, Alt.=168.716919m. Speed=4.824000m/h.</desc>
<speed>1.340000</speed>
</trkpt>
<trkpt lat="55.681530" lon="26.345201">
<ele>168.720825</ele>
<time>2010-07-18T09:27:56Z</time>
<desc>lat.=55.681530, lon.=26.345201, Alt.=168.720825m. Speed=4.248000m/h.</desc>
<speed>1.180000</speed>
</trkpt>
<trkpt lat="55.681522" lon="26.345196">
<ele>169.045044</ele>
<time>2010-07-18T09:27:57Z</time>
<desc>lat.=55.681522, lon.=26.345196, Alt.=169.045044m. Speed=4.716000m/h.</desc>
<speed>1.310000</speed>
</trkpt>
<trkpt lat="55.681511" lon="26.345192">
<ele>169.306763</ele>
<time>2010-07-18T09:27:58Z</time>
<desc>lat.=55.681511, lon.=26.345192, Alt.=169.306763m. Speed=4.392000m/h.</desc>
<speed>1.220000</speed>
</trkpt>
<trkpt lat="55.681503" lon="26.345182">
<ele>169.318481</ele>
<time>2010-07-18T09:27:59Z</time>
<desc>lat.=55.681503, lon.=26.345182, Alt.=169.318481m. Speed=4.068000m/h.</desc>
<speed>1.130000</speed>
</trkpt>
<trkpt lat="55.681488" lon="26.345175">
<ele>169.345825</ele>
<time>2010-07-18T09:28:00Z</time>
<desc>lat.=55.681488, lon.=26.345175, Alt.=169.345825m. Speed=4.248000m/h.</desc>
<speed>1.180000</speed>
</trkpt>
<trkpt lat="55.681480" lon="26.345171">
<ele>169.314575</ele>
<time>2010-07-18T09:28:01Z</time>
<desc>lat.=55.681480, lon.=26.345171, Alt.=169.314575m. Speed=3.636000m/h.</desc>
<speed>1.010000</speed>
</trkpt>
<trkpt lat="55.681469" lon="26.345169">
<ele>169.486450</ele>
<time>2010-07-18T09:28:02Z</time>
<desc>lat.=55.681469, lon.=26.345169, Alt.=169.486450m. Speed=3.960000m/h.</desc>
<speed>1.100000</speed>
</trkpt>
<trkpt lat="55.681461" lon="26.345163">
<ele>170.060669</ele>
<time>2010-07-18T09:28:03Z</time>
<desc>lat.=55.681461, lon.=26.345163, Alt.=170.060669m. Speed=3.996000m/h.</desc>
<speed>1.110000</speed>
</trkpt>
<trkpt lat="55.681450" lon="26.345163">
<ele>170.263794</ele>
<time>2010-07-18T09:28:04Z</time>
<desc>lat.=55.681450, lon.=26.345163, Alt.=170.263794m. Speed=4.428000m/h.</desc>
<speed>1.230000</speed>
</trkpt>
<trkpt lat="55.681442" lon="26.345158">
<ele>170.552856</ele>
<time>2010-07-18T09:28:05Z</time>
<desc>lat.=55.681442, lon.=26.345158, Alt.=170.552856m. Speed=3.672000m/h.</desc>
<speed>1.020000</speed>
</trkpt>
<trkpt lat="55.681431" lon="26.345146">
<ele>170.931763</ele>
<time>2010-07-18T09:28:06Z</time>
<desc>lat.=55.681431, lon.=26.345146, Alt.=170.931763m. Speed=5.040000m/h.</desc>
<speed>1.400000</speed>
</trkpt>
<trkpt lat="55.681419" lon="26.345144">
<ele>171.119263</ele>
<time>2010-07-18T09:28:07Z</time>
<desc>lat.=55.681419, lon.=26.345144, Alt.=171.119263m. Speed=4.032000m/h.</desc>
<speed>1.120000</speed>
</trkpt>
<trkpt lat="55.681408" lon="26.345140">
<ele>171.056763</ele>
<time>2010-07-18T09:28:08Z</time>
<desc>lat.=55.681408, lon.=26.345140, Alt.=171.056763m. Speed=3.996000m/h.</desc>
<speed>1.110000</speed>
</trkpt>
<trkpt lat="55.681404" lon="26.345133">
<ele>171.345825</ele>
<time>2010-07-18T09:28:09Z</time>
<desc>lat.=55.681404, lon.=26.345133, Alt.=171.345825m. Speed=4.284000m/h.</desc>
<speed>1.190000</speed>
</trkpt>
<trkpt lat="55.681393" lon="26.345127">
<ele>171.588013</ele>
<time>2010-07-18T09:28:10Z</time>
<desc>lat.=55.681393, lon.=26.345127, Alt.=171.588013m. Speed=4.032000m/h.</desc>
<speed>1.120000</speed>
</trkpt>
<trkpt lat="55.681381" lon="26.345123">
<ele>171.748169</ele>
<time>2010-07-18T09:28:11Z</time>
<desc>lat.=55.681381, lon.=26.345123, Alt.=171.748169m. Speed=4.428000m/h.</desc>
<speed>1.230000</speed>
</trkpt>
<trkpt lat="55.681366" lon="26.345118">
<ele>171.459106</ele>
<time>2010-07-18T09:28:12Z</time>
<desc>lat.=55.681366, lon.=26.345118, Alt.=171.459106m. Speed=4.356000m/h.</desc>
<speed>1.210000</speed>
</trkpt>
<trkpt lat="55.681355" lon="26.345114">
<ele>171.529419</ele>
<time>2010-07-18T09:28:13Z</time>
<desc>lat.=55.681355, lon.=26.345114, Alt.=171.529419m. Speed=4.284000m/h.</desc>
<speed>1.190000</speed>
</trkpt>
<trkpt lat="55.681347" lon="26.345102">
<ele>171.818481</ele>
<time>2010-07-18T09:28:14Z</time>
<desc>lat.=55.681347, lon.=26.345102, Alt.=171.818481m. Speed=4.464000m/h.</desc>
<speed>1.240000</speed>
</trkpt>
<trkpt lat="55.681332" lon="26.345093">
<ele>172.123169</ele>
<time>2010-07-18T09:28:15Z</time>
<desc>lat.=55.681332, lon.=26.345093, Alt.=172.123169m. Speed=4.212000m/h.</desc>
<speed>1.170000</speed>
</trkpt>
<trkpt lat="55.681320" lon="26.345083">
<ele>172.443481</ele>
<time>2010-07-18T09:28:16Z</time>
<desc>lat.=55.681320, lon.=26.345083, Alt.=172.443481m. Speed=3.888000m/h.</desc>
<speed>1.080000</speed>
</trkpt>
<trkpt lat="55.681309" lon="26.345076">
<ele>172.466919</ele>
<time>2010-07-18T09:28:17Z</time>
<desc>lat.=55.681309, lon.=26.345076, Alt.=172.466919m. Speed=4.248000m/h.</desc>
<speed>1.180000</speed>
</trkpt>
<trkpt lat="55.681297" lon="26.345066">
<ele>172.838013</ele>
<time>2010-07-18T09:28:18Z</time>
<desc>lat.=55.681297, lon.=26.345066, Alt.=172.838013m. Speed=4.068000m/h.</desc>
<speed>1.130000</speed>
</trkpt>
<trkpt lat="55.681282" lon="26.345058">
<ele>172.810669</ele>
<time>2010-07-18T09:28:19Z</time>
<desc>lat.=55.681282, lon.=26.345058, Alt.=172.810669m. Speed=4.284000m/h.</desc>
<speed>1.190000</speed>
</trkpt>
<trkpt lat="55.681274" lon="26.345045">
<ele>172.697388</ele>
<time>2010-07-18T09:28:20Z</time>
<desc>lat.=55.681274, lon.=26.345045, Alt.=172.697388m. Speed=5.292000m/h.</desc>
<speed>1.470000</speed>
</trkpt>
<trkpt lat="55.681271" lon="26.345032">
<ele>173.076294</ele>
<time>2010-07-18T09:28:21Z</time>
<desc>lat.=55.681271, lon.=26.345032, Alt.=173.076294m. Speed=4.212000m/h.</desc>
<speed>1.170000</speed>
</trkpt>
<trkpt lat="55.681259" lon="26.345022">
<ele>173.369263</ele>
<time>2010-07-18T09:28:22Z</time>
<desc>lat.=55.681259, lon.=26.345022, Alt.=173.369263m. Speed=4.500000m/h.</desc>
<speed>1.250000</speed>
</trkpt>
<trkpt lat="55.681252" lon="26.345007">
<ele>173.400513</ele>
<time>2010-07-18T09:28:23Z</time>
<desc>lat.=55.681252, lon.=26.345007, Alt.=173.400513m. Speed=4.572000m/h.</desc>
<speed>1.270000</speed>
</trkpt>
<trkpt lat="55.681244" lon="26.344995">
<ele>173.806763</ele>
<time>2010-07-18T09:28:24Z</time>
<desc>lat.=55.681244, lon.=26.344995, Alt.=173.806763m. Speed=4.284000m/h.</desc>
<speed>1.190000</speed>
</trkpt>
<trkpt lat="55.681232" lon="26.344982">
<ele>174.033325</ele>
<time>2010-07-18T09:28:25Z</time>
<desc>lat.=55.681232, lon.=26.344982, Alt.=174.033325m. Speed=5.112000m/h.</desc>
<speed>1.420000</speed>
</trkpt>
<trkpt lat="55.681225" lon="26.344965">
<ele>174.357544</ele>
<time>2010-07-18T09:28:26Z</time>
<desc>lat.=55.681225, lon.=26.344965, Alt.=174.357544m. Speed=4.104000m/h.</desc>
<speed>1.140000</speed>
</trkpt>
<trkpt lat="55.681210" lon="26.344948">
<ele>174.728638</ele>
<time>2010-07-18T09:28:27Z</time>
<desc>lat.=55.681210, lon.=26.344948, Alt.=174.728638m. Speed=3.348000m/h.</desc>
<speed>0.930000</speed>
</trkpt>
<trkpt lat="55.681198" lon="26.344944">
<ele>174.685669</ele>
<time>2010-07-18T09:28:28Z</time>
<desc>lat.=55.681198, lon.=26.344944, Alt.=174.685669m. Speed=2.592000m/h.</desc>
<speed>0.720000</speed>
</trkpt>
<trkpt lat="55.681194" lon="26.344938">
<ele>174.752075</ele>
<time>2010-07-18T09:28:29Z</time>
<desc>lat.=55.681194, lon.=26.344938, Alt.=174.752075m. Speed=0.828000m/h.</desc>
<speed>0.230000</speed>
</trkpt>
<trkpt lat="55.681194" lon="26.344938">
<ele>174.755981</ele>
<time>2010-07-18T09:28:30Z</time>
<desc>lat.=55.681194, lon.=26.344938, Alt.=174.755981m. Speed=0.468000m/h.</desc>
<speed>0.130000</speed>
</trkpt>
<trkpt lat="55.681190" lon="26.344934">
<ele>174.744263</ele>
<time>2010-07-18T09:28:31Z</time>
<desc>lat.=55.681190, lon.=26.344934, Alt.=174.744263m. Speed=1.044000m/h.</desc>
<speed>0.290000</speed>
</trkpt>
<trkpt lat="55.681179" lon="26.344931">
<ele>174.240356</ele>
<time>2010-07-18T09:28:32Z</time>
<desc>lat.=55.681179, lon.=26.344931, Alt.=174.240356m. Speed=1.980000m/h.</desc>
<speed>0.550000</speed>
</trkpt>
<trkpt lat="55.681171" lon="26.344923">
<ele>174.271606</ele>
<time>2010-07-18T09:28:33Z</time>
<desc>lat.=55.681171, lon.=26.344923, Alt.=174.271606m. Speed=3.636000m/h.</desc>
<speed>1.010000</speed>
</trkpt>
<trkpt lat="55.681160" lon="26.344917">
<ele>174.185669</ele>
<time>2010-07-18T09:28:34Z</time>
<desc>lat.=55.681160, lon.=26.344917, Alt.=174.185669m. Speed=5.220000m/h.</desc>
<speed>1.450000</speed>
</trkpt>
<trkpt lat="55.681141" lon="26.344913">
<ele>173.927856</ele>
<time>2010-07-18T09:28:35Z</time>
<desc>lat.=55.681141, lon.=26.344913, Alt.=173.927856m. Speed=6.480000m/h.</desc>
<speed>1.800000</speed>
</trkpt>
<trkpt lat="55.681118" lon="26.344910">
<ele>173.978638</ele>
<time>2010-07-18T09:28:36Z</time>
<desc>lat.=55.681118, lon.=26.344910, Alt.=173.978638m. Speed=8.028000m/h.</desc>
<speed>2.230000</speed>
</trkpt>
<trkpt lat="55.681099" lon="26.344898">
<ele>174.127075</ele>
<time>2010-07-18T09:28:37Z</time>
<desc>lat.=55.681099, lon.=26.344898, Alt.=174.127075m. Speed=7.776000m/h.</desc>
<speed>2.160000</speed>
</trkpt>
<trkpt lat="55.681080" lon="26.344877">
<ele>174.982544</ele>
<time>2010-07-18T09:28:38Z</time>
<desc>lat.=55.681080, lon.=26.344877, Alt.=174.982544m. Speed=7.992000m/h.</desc>
<speed>2.220000</speed>
</trkpt>
<trkpt lat="55.681057" lon="26.344862">
<ele>175.334106</ele>
<time>2010-07-18T09:28:39Z</time>
<desc>lat.=55.681057, lon.=26.344862, Alt.=175.334106m. Speed=8.460000m/h.</desc>
<speed>2.350000</speed>
</trkpt>
<trkpt lat="55.681038" lon="26.344851">
<ele>175.412231</ele>
<time>2010-07-18T09:28:40Z</time>
<desc>lat.=55.681038, lon.=26.344851, Alt.=175.412231m. Speed=8.856000m/h.</desc>
<speed>2.460000</speed>
</trkpt>
<trkpt lat="55.681015" lon="26.344833">
<ele>175.634888</ele>
<time>2010-07-18T09:28:41Z</time>
<desc>lat.=55.681015, lon.=26.344833, Alt.=175.634888m. Speed=9.144000m/h.</desc>
<speed>2.540000</speed>
</trkpt>
<trkpt lat="55.680992" lon="26.344822">
<ele>175.705200</ele>
<time>2010-07-18T09:28:42Z</time>
<desc>lat.=55.680992, lon.=26.344822, Alt.=175.705200m. Speed=9.756000m/h.</desc>
<speed>2.710000</speed>
</trkpt>
<trkpt lat="55.680969" lon="26.344812">
<ele>175.728638</ele>
<time>2010-07-18T09:28:43Z</time>
<desc>lat.=55.680969, lon.=26.344812, Alt.=175.728638m. Speed=10.080000m/h.</desc>
<speed>2.800000</speed>
</trkpt>
<trkpt lat="55.680946" lon="26.344799">
<ele>175.689575</ele>
<time>2010-07-18T09:28:44Z</time>
<desc>lat.=55.680946, lon.=26.344799, Alt.=175.689575m. Speed=11.088000m/h.</desc>
<speed>3.080000</speed>
</trkpt>
<trkpt lat="55.680920" lon="26.344786">
<ele>175.673950</ele>
<time>2010-07-18T09:28:45Z</time>
<desc>lat.=55.680920, lon.=26.344786, Alt.=175.673950m. Speed=11.268000m/h.</desc>
<speed>3.130000</speed>
</trkpt>
<trkpt lat="55.680893" lon="26.344772">
<ele>175.838013</ele>
<time>2010-07-18T09:28:46Z</time>
<desc>lat.=55.680893, lon.=26.344772, Alt.=175.838013m. Speed=11.232000m/h.</desc>
<speed>3.120000</speed>
</trkpt>
<trkpt lat="55.680866" lon="26.344753">
<ele>175.439575</ele>
<time>2010-07-18T09:28:47Z</time>
<desc>lat.=55.680866, lon.=26.344753, Alt.=175.439575m. Speed=12.060000m/h.</desc>
<speed>3.350000</speed>
</trkpt>
<trkpt lat="55.680840" lon="26.344736">
<ele>175.306763</ele>
<time>2010-07-18T09:28:48Z</time>
<desc>lat.=55.680840, lon.=26.344736, Alt.=175.306763m. Speed=12.672000m/h.</desc>
<speed>3.520000</speed>
</trkpt>
<trkpt lat="55.680809" lon="26.344717">
<ele>175.232544</ele>
<time>2010-07-18T09:28:49Z</time>
<desc>lat.=55.680809, lon.=26.344717, Alt.=175.232544m. Speed=13.176000m/h.</desc>
<speed>3.660000</speed>
</trkpt>
<trkpt lat="55.680779" lon="26.344698">
<ele>175.177856</ele>
<time>2010-07-18T09:28:50Z</time>
<desc>lat.=55.680779, lon.=26.344698, Alt.=175.177856m. Speed=13.680000m/h.</desc>
<speed>3.800000</speed>
</trkpt>
<trkpt lat="55.680744" lon="26.344675">
<ele>175.232544</ele>
<time>2010-07-18T09:28:51Z</time>
<desc>lat.=55.680744, lon.=26.344675, Alt.=175.232544m. Speed=15.012000m/h.</desc>
<speed>4.170000</speed>
</trkpt>
<trkpt lat="55.680706" lon="26.344654">
<ele>175.377075</ele>
<time>2010-07-18T09:28:52Z</time>
<desc>lat.=55.680706, lon.=26.344654, Alt.=175.377075m. Speed=15.840000m/h.</desc>
<speed>4.400000</speed>
</trkpt>
<trkpt lat="55.680668" lon="26.344629">
<ele>175.322388</ele>
<time>2010-07-18T09:28:53Z</time>
<desc>lat.=55.680668, lon.=26.344629, Alt.=175.322388m. Speed=17.243999m/h.</desc>
<speed>4.790000</speed>
</trkpt>
<trkpt lat="55.680626" lon="26.344604">
<ele>175.459106</ele>
<time>2010-07-18T09:28:54Z</time>
<desc>lat.=55.680626, lon.=26.344604, Alt.=175.459106m. Speed=18.468000m/h.</desc>
<speed>5.130000</speed>
</trkpt>
<trkpt lat="55.680584" lon="26.344576">
<ele>175.396606</ele>
<time>2010-07-18T09:28:55Z</time>
<desc>lat.=55.680584, lon.=26.344576, Alt.=175.396606m. Speed=19.476000m/h.</desc>
<speed>5.410000</speed>
</trkpt>
<trkpt lat="55.680531" lon="26.344540">
<ele>174.357544</ele>
<time>2010-07-18T09:28:56Z</time>
<desc>lat.=55.680531, lon.=26.344540, Alt.=174.357544m. Speed=20.808001m/h.</desc>
<speed>5.780000</speed>
</trkpt>
<trkpt lat="55.680481" lon="26.344503">
<ele>174.189575</ele>
<time>2010-07-18T09:28:57Z</time>
<desc>lat.=55.680481, lon.=26.344503, Alt.=174.189575m. Speed=21.816000m/h.</desc>
<speed>6.060000</speed>
</trkpt>
<trkpt lat="55.680435" lon="26.344467">
<ele>174.033325</ele>
<time>2010-07-18T09:28:58Z</time>
<desc>lat.=55.680435, lon.=26.344467, Alt.=174.033325m. Speed=21.924000m/h.</desc>
<speed>6.090000</speed>
</trkpt>
<trkpt lat="55.680382" lon="26.344427">
<ele>173.951294</ele>
<time>2010-07-18T09:28:59Z</time>
<desc>lat.=55.680382, lon.=26.344427, Alt.=173.951294m. Speed=23.796000m/h.</desc>
<speed>6.610000</speed>
</trkpt>
<trkpt lat="55.680325" lon="26.344387">
<ele>173.908325</ele>
<time>2010-07-18T09:29:00Z</time>
<desc>lat.=55.680325, lon.=26.344387, Alt.=173.908325m. Speed=24.840000m/h.</desc>
<speed>6.900000</speed>
</trkpt>
<trkpt lat="55.680267" lon="26.344345">
<ele>173.880981</ele>
<time>2010-07-18T09:29:01Z</time>
<desc>lat.=55.680267, lon.=26.344345, Alt.=173.880981m. Speed=23.219999m/h.</desc>
<speed>6.450000</speed>
</trkpt>
<trkpt lat="55.680214" lon="26.344309">
<ele>173.880981</ele>
<time>2010-07-18T09:29:02Z</time>
<desc>lat.=55.680214, lon.=26.344309, Alt.=173.880981m. Speed=22.427999m/h.</desc>
<speed>6.230000</speed>
</trkpt>
<trkpt lat="55.680161" lon="26.344278">
<ele>173.990356</ele>
<time>2010-07-18T09:29:03Z</time>
<desc>lat.=55.680161, lon.=26.344278, Alt.=173.990356m. Speed=22.068001m/h.</desc>
<speed>6.130000</speed>
</trkpt>
<trkpt lat="55.680107" lon="26.344254">
<ele>173.966919</ele>
<time>2010-07-18T09:29:04Z</time>
<desc>lat.=55.680107, lon.=26.344254, Alt.=173.966919m. Speed=21.167999m/h.</desc>
<speed>5.880000</speed>
</trkpt>
<trkpt lat="55.680050" lon="26.344236">
<ele>173.670044</ele>
<time>2010-07-18T09:29:05Z</time>
<desc>lat.=55.680050, lon.=26.344236, Alt.=173.670044m. Speed=21.420000m/h.</desc>
<speed>5.950000</speed>
</trkpt>
<trkpt lat="55.680000" lon="26.344229">
<ele>173.548950</ele>
<time>2010-07-18T09:29:06Z</time>
<desc>lat.=55.680000, lon.=26.344229, Alt.=173.548950m. Speed=21.672001m/h.</desc>
<speed>6.020000</speed>
</trkpt>
<trkpt lat="55.679947" lon="26.344233">
<ele>173.013794</ele>
<time>2010-07-18T09:29:07Z</time>
<desc>lat.=55.679947, lon.=26.344233, Alt.=173.013794m. Speed=22.427999m/h.</desc>
<speed>6.230000</speed>
</trkpt>
<trkpt lat="55.679890" lon="26.344231">
<ele>172.884888</ele>
<time>2010-07-18T09:29:08Z</time>
<desc>lat.=55.679890, lon.=26.344231, Alt.=172.884888m. Speed=22.572001m/h.</desc>
<speed>6.270000</speed>
</trkpt>
<trkpt lat="55.679832" lon="26.344234">
<ele>172.677856</ele>
<time>2010-07-18T09:29:09Z</time>
<desc>lat.=55.679832, lon.=26.344234, Alt.=172.677856m. Speed=22.247999m/h.</desc>
<speed>6.180000</speed>
</trkpt>
<trkpt lat="55.679779" lon="26.344254">
<ele>172.556763</ele>
<time>2010-07-18T09:29:10Z</time>
<desc>lat.=55.679779, lon.=26.344254, Alt.=172.556763m. Speed=22.716000m/h.</desc>
<speed>6.310000</speed>
</trkpt>
<trkpt lat="55.679726" lon="26.344276">
<ele>172.408325</ele>
<time>2010-07-18T09:29:11Z</time>
<desc>lat.=55.679726, lon.=26.344276, Alt.=172.408325m. Speed=22.752001m/h.</desc>
<speed>6.320000</speed>
</trkpt>
<trkpt lat="55.679672" lon="26.344315">
<ele>172.173950</ele>
<time>2010-07-18T09:29:12Z</time>
<desc>lat.=55.679672, lon.=26.344315, Alt.=172.173950m. Speed=22.608000m/h.</desc>
<speed>6.280000</speed>
</trkpt>
<trkpt lat="55.679623" lon="26.344353">
<ele>171.931763</ele>
<time>2010-07-18T09:29:13Z</time>
<desc>lat.=55.679623, lon.=26.344353, Alt.=171.931763m. Speed=22.247999m/h.</desc>
<speed>6.180000</speed>
</trkpt>
<trkpt lat="55.679573" lon="26.344395">
<ele>170.927856</ele>
<time>2010-07-18T09:29:14Z</time>
<desc>lat.=55.679573, lon.=26.344395, Alt.=170.927856m. Speed=21.996000m/h.</desc>
<speed>6.110000</speed>
</trkpt>
<trkpt lat="55.679523" lon="26.344439">
<ele>170.677856</ele>
<time>2010-07-18T09:29:15Z</time>
<desc>lat.=55.679523, lon.=26.344439, Alt.=170.677856m. Speed=21.455999m/h.</desc>
<speed>5.960000</speed>
</trkpt>
<trkpt lat="55.679478" lon="26.344477">
<ele>170.193481</ele>
<time>2010-07-18T09:29:16Z</time>
<desc>lat.=55.679478, lon.=26.344477, Alt.=170.193481m. Speed=20.591999m/h.</desc>
<speed>5.720000</speed>
</trkpt>
<trkpt lat="55.679432" lon="26.344511">
<ele>169.509888</ele>
<time>2010-07-18T09:29:17Z</time>
<desc>lat.=55.679432, lon.=26.344511, Alt.=169.509888m. Speed=20.412001m/h.</desc>
<speed>5.670000</speed>
</trkpt>
<trkpt lat="55.679386" lon="26.344543">
<ele>169.005981</ele>
<time>2010-07-18T09:29:18Z</time>
<desc>lat.=55.679386, lon.=26.344543, Alt.=169.005981m. Speed=19.799999m/h.</desc>
<speed>5.500000</speed>
</trkpt>
<trkpt lat="55.679340" lon="26.344578">
<ele>168.724731</ele>
<time>2010-07-18T09:29:19Z</time>
<desc>lat.=55.679340, lon.=26.344578, Alt.=168.724731m. Speed=19.080000m/h.</desc>
<speed>5.300000</speed>
</trkpt>
<trkpt lat="55.679298" lon="26.344618">
<ele>168.529419</ele>
<time>2010-07-18T09:29:20Z</time>
<desc>lat.=55.679298, lon.=26.344618, Alt.=168.529419m. Speed=18.827999m/h.</desc>
<speed>5.230000</speed>
</trkpt>
<trkpt lat="55.679256" lon="26.344650">
<ele>168.459106</ele>
<time>2010-07-18T09:29:21Z</time>
<desc>lat.=55.679256, lon.=26.344650, Alt.=168.459106m. Speed=18.143999m/h.</desc>
<speed>5.040000</speed>
</trkpt>
<trkpt lat="55.679211" lon="26.344681">
<ele>168.279419</ele>
<time>2010-07-18T09:29:22Z</time>
<desc>lat.=55.679211, lon.=26.344681, Alt.=168.279419m. Speed=17.424000m/h.</desc>
<speed>4.840000</speed>
</trkpt>
<trkpt lat="55.679173" lon="26.344715">
<ele>168.341919</ele>
<time>2010-07-18T09:29:23Z</time>
<desc>lat.=55.679173, lon.=26.344715, Alt.=168.341919m. Speed=16.955999m/h.</desc>
<speed>4.710000</speed>
</trkpt>
<trkpt lat="55.679134" lon="26.344746">
<ele>168.341919</ele>
<time>2010-07-18T09:29:24Z</time>
<desc>lat.=55.679134, lon.=26.344746, Alt.=168.341919m. Speed=15.516000m/h.</desc>
<speed>4.310000</speed>
</trkpt>
<trkpt lat="55.679096" lon="26.344776">
<ele>168.392700</ele>
<time>2010-07-18T09:29:25Z</time>
<desc>lat.=55.679096, lon.=26.344776, Alt.=168.392700m. Speed=17.100000m/h.</desc>
<speed>4.750000</speed>
</trkpt>
<trkpt lat="55.679054" lon="26.344809">
<ele>168.416138</ele>
<time>2010-07-18T09:29:26Z</time>
<desc>lat.=55.679054, lon.=26.344809, Alt.=168.416138m. Speed=16.596001m/h.</desc>
<speed>4.610000</speed>
</trkpt>
<trkpt lat="55.679016" lon="26.344839">
<ele>168.091919</ele>
<time>2010-07-18T09:29:27Z</time>
<desc>lat.=55.679016, lon.=26.344839, Alt.=168.091919m. Speed=16.559999m/h.</desc>
<speed>4.600000</speed>
</trkpt>
<trkpt lat="55.678982" lon="26.344870">
<ele>167.787231</ele>
<time>2010-07-18T09:29:28Z</time>
<desc>lat.=55.678982, lon.=26.344870, Alt.=167.787231m. Speed=15.840000m/h.</desc>
<speed>4.400000</speed>
</trkpt>
<trkpt lat="55.678944" lon="26.344896">
<ele>167.416138</ele>
<time>2010-07-18T09:29:29Z</time>
<desc>lat.=55.678944, lon.=26.344896, Alt.=167.416138m. Speed=14.508000m/h.</desc>
<speed>4.030000</speed>
</trkpt>
<trkpt lat="55.678913" lon="26.344925">
<ele>167.439575</ele>
<time>2010-07-18T09:29:30Z</time>
<desc>lat.=55.678913, lon.=26.344925, Alt.=167.439575m. Speed=13.176000m/h.</desc>
<speed>3.660000</speed>
</trkpt>
<trkpt lat="55.678886" lon="26.344944">
<ele>167.205200</ele>
<time>2010-07-18T09:29:31Z</time>
<desc>lat.=55.678886, lon.=26.344944, Alt.=167.205200m. Speed=12.852000m/h.</desc>
<speed>3.570000</speed>
</trkpt>
<trkpt lat="55.678856" lon="26.344971">
<ele>166.791138</ele>
<time>2010-07-18T09:29:32Z</time>
<desc>lat.=55.678856, lon.=26.344971, Alt.=166.791138m. Speed=13.536000m/h.</desc>
<speed>3.760000</speed>
</trkpt>
<trkpt lat="55.678825" lon="26.344986">
<ele>166.900513</ele>
<time>2010-07-18T09:29:33Z</time>
<desc>lat.=55.678825, lon.=26.344986, Alt.=166.900513m. Speed=13.140000m/h.</desc>
<speed>3.650000</speed>
</trkpt>
<trkpt lat="55.678795" lon="26.345009">
<ele>166.744263</ele>
<time>2010-07-18T09:29:34Z</time>
<desc>lat.=55.678795, lon.=26.345009, Alt.=166.744263m. Speed=11.952000m/h.</desc>
<speed>3.320000</speed>
</trkpt>
<trkpt lat="55.678772" lon="26.345039">
<ele>166.556763</ele>
<time>2010-07-18T09:29:35Z</time>
<desc>lat.=55.678772, lon.=26.345039, Alt.=166.556763m. Speed=11.664000m/h.</desc>
<speed>3.240000</speed>
</trkpt>
<trkpt lat="55.678753" lon="26.345078">
<ele>166.588013</ele>
<time>2010-07-18T09:29:36Z</time>
<desc>lat.=55.678753, lon.=26.345078, Alt.=166.588013m. Speed=10.692000m/h.</desc>
<speed>2.970000</speed>
</trkpt>
<trkpt lat="55.678734" lon="26.345114">
<ele>166.564575</ele>
<time>2010-07-18T09:29:37Z</time>
<desc>lat.=55.678734, lon.=26.345114, Alt.=166.564575m. Speed=10.440000m/h.</desc>
<speed>2.900000</speed>
</trkpt>
<trkpt lat="55.678719" lon="26.345156">
<ele>166.576294</ele>
<time>2010-07-18T09:29:38Z</time>
<desc>lat.=55.678719, lon.=26.345156, Alt.=166.576294m. Speed=9.540000m/h.</desc>
<speed>2.650000</speed>
</trkpt>
<trkpt lat="55.678711" lon="26.345198">
<ele>166.408325</ele>
<time>2010-07-18T09:29:39Z</time>
<desc>lat.=55.678711, lon.=26.345198, Alt.=166.408325m. Speed=9.936000m/h.</desc>
<speed>2.760000</speed>
</trkpt>
<trkpt lat="55.678711" lon="26.345242">
<ele>166.306763</ele>
<time>2010-07-18T09:29:40Z</time>
<desc>lat.=55.678711, lon.=26.345242, Alt.=166.306763m. Speed=10.476000m/h.</desc>
<speed>2.910000</speed>
</trkpt>
<trkpt lat="55.678715" lon="26.345282">
<ele>166.244263</ele>
<time>2010-07-18T09:29:41Z</time>
<desc>lat.=55.678715, lon.=26.345282, Alt.=166.244263m. Speed=11.052000m/h.</desc>
<speed>3.070000</speed>
</trkpt>
<trkpt lat="55.678719" lon="26.345327">
<ele>166.127075</ele>
<time>2010-07-18T09:29:42Z</time>
<desc>lat.=55.678719, lon.=26.345327, Alt.=166.127075m. Speed=10.944000m/h.</desc>
<speed>3.040000</speed>
</trkpt>
<trkpt lat="55.678719" lon="26.345375">
<ele>165.701294</ele>
<time>2010-07-18T09:29:43Z</time>
<desc>lat.=55.678719, lon.=26.345375, Alt.=165.701294m. Speed=11.628000m/h.</desc>
<speed>3.230000</speed>
</trkpt>
<trkpt lat="55.678722" lon="26.345421">
<ele>165.279419</ele>
<time>2010-07-18T09:29:44Z</time>
<desc>lat.=55.678722, lon.=26.345421, Alt.=165.279419m. Speed=11.700000m/h.</desc>
<speed>3.250000</speed>
</trkpt>
<trkpt lat="55.678730" lon="26.345470">
<ele>164.896606</ele>
<time>2010-07-18T09:29:45Z</time>
<desc>lat.=55.678730, lon.=26.345470, Alt.=164.896606m. Speed=11.520000m/h.</desc>
<speed>3.200000</speed>
</trkpt>
<trkpt lat="55.678738" lon="26.345516">
<ele>164.857544</ele>
<time>2010-07-18T09:29:46Z</time>
<desc>lat.=55.678738, lon.=26.345516, Alt.=164.857544m. Speed=10.584000m/h.</desc>
<speed>2.940000</speed>
</trkpt>
<trkpt lat="55.678745" lon="26.345558">
<ele>164.966919</ele>
<time>2010-07-18T09:29:47Z</time>
<desc>lat.=55.678745, lon.=26.345558, Alt.=164.966919m. Speed=9.108000m/h.</desc>
<speed>2.530000</speed>
</trkpt>
<trkpt lat="55.678753" lon="26.345591">
<ele>165.287231</ele>
<time>2010-07-18T09:29:48Z</time>
<desc>lat.=55.678753, lon.=26.345591, Alt.=165.287231m. Speed=6.516000m/h.</desc>
<speed>1.810000</speed>
</trkpt>
<trkpt lat="55.678753" lon="26.345612">
<ele>165.326294</ele>
<time>2010-07-18T09:29:49Z</time>
<desc>lat.=55.678753, lon.=26.345612, Alt.=165.326294m. Speed=2.664000m/h.</desc>
<speed>0.740000</speed>
</trkpt>
<trkpt lat="55.678753" lon="26.345617">
<ele>165.334106</ele>
<time>2010-07-18T09:29:50Z</time>
<desc>lat.=55.678753, lon.=26.345617, Alt.=165.334106m. Speed=1.044000m/h.</desc>
<speed>0.290000</speed>
</trkpt>
<trkpt lat="55.678753" lon="26.345617">
<ele>165.423950</ele>
<time>2010-07-18T09:29:51Z</time>
<desc>lat.=55.678753, lon.=26.345617, Alt.=165.423950m. Speed=0.936000m/h.</desc>
<speed>0.260000</speed>
</trkpt>
<trkpt lat="55.678753" lon="26.345617">
<ele>165.291138</ele>
<time>2010-07-18T09:29:52Z</time>
<desc>lat.=55.678753, lon.=26.345617, Alt.=165.291138m. Speed=0.756000m/h.</desc>
<speed>0.210000</speed>
</trkpt>
<trkpt lat="55.678749" lon="26.345619">
<ele>165.279419</ele>
<time>2010-07-18T09:29:53Z</time>
<desc>lat.=55.678749, lon.=26.345619, Alt.=165.279419m. Speed=0.828000m/h.</desc>
<speed>0.230000</speed>
</trkpt>
<trkpt lat="55.678749" lon="26.345619">
<ele>165.279419</ele>
<time>2010-07-18T09:29:54Z</time>
<desc>lat.=55.678749, lon.=26.345619, Alt.=165.279419m. Speed=0.036000m/h.</desc>
<speed>0.010000</speed>
</trkpt>
<trkpt lat="55.678749" lon="26.345621">
<ele>165.283325</ele>
<time>2010-07-18T09:29:55Z</time>
<desc>lat.=55.678749, lon.=26.345621, Alt.=165.283325m. Speed=0.144000m/h.</desc>
<speed>0.040000</speed>
</trkpt>
<trkpt lat="55.678749" lon="26.345619">
<ele>165.283325</ele>
<time>2010-07-18T09:29:56Z</time>
<desc>lat.=55.678749, lon.=26.345619, Alt.=165.283325m. Speed=0.000000m/h.</desc>
<speed>0.000000</speed>
</trkpt>
<trkpt lat="55.678749" lon="26.345619">
<ele>165.283325</ele>
<time>2010-07-18T09:29:57Z</time>
<desc>lat.=55.678749, lon.=26.345619, Alt.=165.283325m. Speed=0.108000m/h.</desc>
<speed>0.030000</speed>
</trkpt>
<trkpt lat="55.678749" lon="26.345619">
<ele>165.287231</ele>
<time>2010-07-18T09:29:58Z</time>
<desc>lat.=55.678749, lon.=26.345619, Alt.=165.287231m. Speed=0.108000m/h.</desc>
<speed>0.030000</speed>
</trkpt>
<trkpt lat="55.678749" lon="26.345619">
<ele>165.295044</ele>
<time>2010-07-18T09:29:59Z</time>
<desc>lat.=55.678749, lon.=26.345619, Alt.=165.295044m. Speed=0.216000m/h.</desc>
<speed>0.060000</speed>
</trkpt>
<trkpt lat="55.678749" lon="26.345619">
<ele>165.314575</ele>
<time>2010-07-18T09:30:00Z</time>
<desc>lat.=55.678749, lon.=26.345619, Alt.=165.314575m. Speed=0.360000m/h.</desc>
<speed>0.100000</speed>
</trkpt>
<trkpt lat="55.678749" lon="26.345621">
<ele>165.341919</ele>
<time>2010-07-18T09:30:01Z</time>
<desc>lat.=55.678749, lon.=26.345621, Alt.=165.341919m. Speed=0.144000m/h.</desc>
<speed>0.040000</speed>
</trkpt>
<trkpt lat="55.678749" lon="26.345623">
<ele>165.353638</ele>
<time>2010-07-18T09:30:02Z</time>
<desc>lat.=55.678749, lon.=26.345623, Alt.=165.353638m. Speed=0.036000m/h.</desc>
<speed>0.010000</speed>
</trkpt>
<trkpt lat="55.678749" lon="26.345623">
<ele>165.357544</ele>
<time>2010-07-18T09:30:03Z</time>
<desc>lat.=55.678749, lon.=26.345623, Alt.=165.357544m. Speed=0.000000m/h.</desc>
<speed>0.000000</speed>
</trkpt>
<trkpt lat="55.678749" lon="26.345623">
<ele>165.357544</ele>
<time>2010-07-18T09:30:04Z</time>
<desc>lat.=55.678749, lon.=26.345623, Alt.=165.357544m. Speed=0.000000m/h.</desc>
<speed>0.000000</speed>
</trkpt>
<trkpt lat="55.678749" lon="26.345623">
<ele>165.361450</ele>
<time>2010-07-18T09:30:05Z</time>
<desc>lat.=55.678749, lon.=26.345623, Alt.=165.361450m. Speed=0.108000m/h.</desc>
<speed>0.030000</speed>
</trkpt>
<trkpt lat="55.678749" lon="26.345623">
<ele>165.373169</ele>
<time>2010-07-18T09:30:06Z</time>
<desc>lat.=55.678749, lon.=26.345623, Alt.=165.373169m. Speed=0.000000m/h.</desc>
<speed>0.000000</speed>
</trkpt>
<trkpt lat="55.678749" lon="26.345623">
<ele>165.388794</ele>
<time>2010-07-18T09:30:07Z</time>
<desc>lat.=55.678749, lon.=26.345623, Alt.=165.388794m. Speed=0.072000m/h.</desc>
<speed>0.020000</speed>
</trkpt>
<trkpt lat="55.678749" lon="26.345623">
<ele>165.404419</ele>
<time>2010-07-18T09:30:08Z</time>
<desc>lat.=55.678749, lon.=26.345623, Alt.=165.404419m. Speed=0.144000m/h.</desc>
<speed>0.040000</speed>
</trkpt>
<trkpt lat="55.678749" lon="26.345621">
<ele>165.427856</ele>
<time>2010-07-18T09:30:09Z</time>
<desc>lat.=55.678749, lon.=26.345621, Alt.=165.427856m. Speed=0.360000m/h.</desc>
<speed>0.100000</speed>
</trkpt>
<trkpt lat="55.678749" lon="26.345621">
<ele>165.439575</ele>
<time>2010-07-18T09:30:10Z</time>
<desc>lat.=55.678749, lon.=26.345621, Alt.=165.439575m. Speed=0.468000m/h.</desc>
<speed>0.130000</speed>
</trkpt>
<trkpt lat="55.678749" lon="26.345619">
<ele>165.451294</ele>
<time>2010-07-18T09:30:11Z</time>
<desc>lat.=55.678749, lon.=26.345619, Alt.=165.451294m. Speed=0.360000m/h.</desc>
<speed>0.100000</speed>
</trkpt>
<trkpt lat="55.678749" lon="26.345617">
<ele>165.463013</ele>
<time>2010-07-18T09:30:12Z</time>
<desc>lat.=55.678749, lon.=26.345617, Alt.=165.463013m. Speed=0.000000m/h.</desc>
<speed>0.000000</speed>
</trkpt>
<trkpt lat="55.678749" lon="26.345617">
<ele>165.474731</ele>
<time>2010-07-18T09:30:13Z</time>
<desc>lat.=55.678749, lon.=26.345617, Alt.=165.474731m. Speed=0.036000m/h.</desc>
<speed>0.010000</speed>
</trkpt>
<trkpt lat="55.678749" lon="26.345617">
<ele>165.490356</ele>
<time>2010-07-18T09:30:14Z</time>
<desc>lat.=55.678749, lon.=26.345617, Alt.=165.490356m. Speed=0.072000m/h.</desc>
<speed>0.020000</speed>
</trkpt>
<trkpt lat="55.678749" lon="26.345617">
<ele>165.498169</ele>
<time>2010-07-18T09:30:15Z</time>
<desc>lat.=55.678749, lon.=26.345617, Alt.=165.498169m. Speed=0.000000m/h.</desc>
<speed>0.000000</speed>
</trkpt>
<trkpt lat="55.678749" lon="26.345617">
<ele>165.498169</ele>
<time>2010-07-18T09:30:16Z</time>
<desc>lat.=55.678749, lon.=26.345617, Alt.=165.498169m. Speed=0.396000m/h.</desc>
<speed>0.110000</speed>
</trkpt>
<trkpt lat="55.678749" lon="26.345619">
<ele>165.517700</ele>
<time>2010-07-18T09:30:17Z</time>
<desc>lat.=55.678749, lon.=26.345619, Alt.=165.517700m. Speed=0.252000m/h.</desc>
<speed>0.070000</speed>
</trkpt>
<trkpt lat="55.678749" lon="26.345619">
<ele>165.545044</ele>
<time>2010-07-18T09:30:18Z</time>
<desc>lat.=55.678749, lon.=26.345619, Alt.=165.545044m. Speed=0.252000m/h.</desc>
<speed>0.070000</speed>
</trkpt>
<trkpt lat="55.678749" lon="26.345619">
<ele>165.568481</ele>
<time>2010-07-18T09:30:19Z</time>
<desc>lat.=55.678749, lon.=26.345619, Alt.=165.568481m. Speed=0.576000m/h.</desc>
<speed>0.160000</speed>
</trkpt>
<trkpt lat="55.678749" lon="26.345623">
<ele>165.599731</ele>
<time>2010-07-18T09:30:20Z</time>
<desc>lat.=55.678749, lon.=26.345623, Alt.=165.599731m. Speed=0.108000m/h.</desc>
<speed>0.030000</speed>
</trkpt>
<trkpt lat="55.678749" lon="26.345623">
<ele>165.634888</ele>
<time>2010-07-18T09:30:21Z</time>
<desc>lat.=55.678749, lon.=26.345623, Alt.=165.634888m. Speed=0.072000m/h.</desc>
<speed>0.020000</speed>
</trkpt>
<trkpt lat="55.678749" lon="26.345621">
<ele>165.662231</ele>
<time>2010-07-18T09:30:22Z</time>
<desc>lat.=55.678749, lon.=26.345621, Alt.=165.662231m. Speed=0.036000m/h.</desc>
<speed>0.010000</speed>
</trkpt>
<trkpt lat="55.678749" lon="26.345621">
<ele>165.701294</ele>
<time>2010-07-18T09:30:23Z</time>
<desc>lat.=55.678749, lon.=26.345621, Alt.=165.701294m. Speed=0.000000m/h.</desc>
<speed>0.000000</speed>
</trkpt>
<trkpt lat="55.678749" lon="26.345623">
<ele>165.732544</ele>
<time>2010-07-18T09:30:24Z</time>
<desc>lat.=55.678749, lon.=26.345623, Alt.=165.732544m. Speed=0.000000m/h.</desc>
<speed>0.000000</speed>
</trkpt>
<trkpt lat="55.678749" lon="26.345623">
<ele>165.771606</ele>
<time>2010-07-18T09:30:25Z</time>
<desc>lat.=55.678749, lon.=26.345623, Alt.=165.771606m. Speed=0.072000m/h.</desc>
<speed>0.020000</speed>
</trkpt>
<trkpt lat="55.678749" lon="26.345623">
<ele>165.818481</ele>
<time>2010-07-18T09:30:26Z</time>
<desc>lat.=55.678749, lon.=26.345623, Alt.=165.818481m. Speed=0.144000m/h.</desc>
<speed>0.040000</speed>
</trkpt>
<trkpt lat="55.678749" lon="26.345623">
<ele>165.861450</ele>
<time>2010-07-18T09:30:27Z</time>
<desc>lat.=55.678749, lon.=26.345623, Alt.=165.861450m. Speed=0.108000m/h.</desc>
<speed>0.030000</speed>
</trkpt>
<trkpt lat="55.678749" lon="26.345623">
<ele>165.908325</ele>
<time>2010-07-18T09:30:28Z</time>
<desc>lat.=55.678749, lon.=26.345623, Alt.=165.908325m. Speed=0.252000m/h.</desc>
<speed>0.070000</speed>
</trkpt>
<trkpt lat="55.678749" lon="26.345625">
<ele>165.943481</ele>
<time>2010-07-18T09:30:29Z</time>
<desc>lat.=55.678749, lon.=26.345625, Alt.=165.943481m. Speed=0.468000m/h.</desc>
<speed>0.130000</speed>
</trkpt>
<trkpt lat="55.678749" lon="26.345627">
<ele>165.990356</ele>
<time>2010-07-18T09:30:30Z</time>
<desc>lat.=55.678749, lon.=26.345627, Alt.=165.990356m. Speed=0.036000m/h.</desc>
<speed>0.010000</speed>
</trkpt>
<trkpt lat="55.678749" lon="26.345627">
<ele>166.002075</ele>
<time>2010-07-18T09:30:31Z</time>
<desc>lat.=55.678749, lon.=26.345627, Alt.=166.002075m. Speed=0.108000m/h.</desc>
<speed>0.030000</speed>
</trkpt>
<trkpt lat="55.678749" lon="26.345627">
<ele>166.005981</ele>
<time>2010-07-18T09:30:32Z</time>
<desc>lat.=55.678749, lon.=26.345627, Alt.=166.005981m. Speed=0.072000m/h.</desc>
<speed>0.020000</speed>
</trkpt>
<trkpt lat="55.678749" lon="26.345627">
<ele>166.013794</ele>
<time>2010-07-18T09:30:33Z</time>
<desc>lat.=55.678749, lon.=26.345627, Alt.=166.013794m. Speed=0.108000m/h.</desc>
<speed>0.030000</speed>
</trkpt>
<trkpt lat="55.678749" lon="26.345627">
<ele>166.017700</ele>
<time>2010-07-18T09:30:34Z</time>
<desc>lat.=55.678749, lon.=26.345627, Alt.=166.017700m. Speed=0.036000m/h.</desc>
<speed>0.010000</speed>
</trkpt>
<trkpt lat="55.678749" lon="26.345627">
<ele>166.025513</ele>
<time>2010-07-18T09:30:35Z</time>
<desc>lat.=55.678749, lon.=26.345627, Alt.=166.025513m. Speed=0.036000m/h.</desc>
<speed>0.010000</speed>
</trkpt>
<trkpt lat="55.678749" lon="26.345627">
<ele>166.033325</ele>
<time>2010-07-18T09:30:36Z</time>
<desc>lat.=55.678749, lon.=26.345627, Alt.=166.033325m. Speed=0.036000m/h.</desc>
<speed>0.010000</speed>
</trkpt>
<trkpt lat="55.678749" lon="26.345627">
<ele>166.041138</ele>
<time>2010-07-18T09:30:37Z</time>
<desc>lat.=55.678749, lon.=26.345627, Alt.=166.041138m. Speed=0.036000m/h.</desc>
<speed>0.010000</speed>
</trkpt>
<trkpt lat="55.678749" lon="26.345627">
<ele>166.048950</ele>
<time>2010-07-18T09:30:38Z</time>
<desc>lat.=55.678749, lon.=26.345627, Alt.=166.048950m. Speed=0.072000m/h.</desc>
<speed>0.020000</speed>
</trkpt>
<trkpt lat="55.678749" lon="26.345627">
<ele>166.060669</ele>
<time>2010-07-18T09:30:39Z</time>
<desc>lat.=55.678749, lon.=26.345627, Alt.=166.060669m. Speed=0.108000m/h.</desc>
<speed>0.030000</speed>
</trkpt>
<trkpt lat="55.678749" lon="26.345627">
<ele>166.060669</ele>
<time>2010-07-18T09:30:40Z</time>
<desc>lat.=55.678749, lon.=26.345627, Alt.=166.060669m. Speed=0.072000m/h.</desc>
<speed>0.020000</speed>
</trkpt>
<trkpt lat="55.678749" lon="26.345627">
<ele>166.064575</ele>
<time>2010-07-18T09:30:41Z</time>
<desc>lat.=55.678749, lon.=26.345627, Alt.=166.064575m. Speed=0.036000m/h.</desc>
<speed>0.010000</speed>
</trkpt>
<trkpt lat="55.678749" lon="26.345629">
<ele>166.072388</ele>
<time>2010-07-18T09:30:42Z</time>
<desc>lat.=55.678749, lon.=26.345629, Alt.=166.072388m. Speed=0.108000m/h.</desc>
<speed>0.030000</speed>
</trkpt>
<trkpt lat="55.678749" lon="26.345629">
<ele>166.091919</ele>
<time>2010-07-18T09:30:43Z</time>
<desc>lat.=55.678749, lon.=26.345629, Alt.=166.091919m. Speed=0.036000m/h.</desc>
<speed>0.010000</speed>
</trkpt>
<trkpt lat="55.678749" lon="26.345629">
<ele>166.095825</ele>
<time>2010-07-18T09:30:44Z</time>
<desc>lat.=55.678749, lon.=26.345629, Alt.=166.095825m. Speed=0.072000m/h.</desc>
<speed>0.020000</speed>
</trkpt>
<trkpt lat="55.678749" lon="26.345629">
<ele>166.115356</ele>
<time>2010-07-18T09:30:45Z</time>
<desc>lat.=55.678749, lon.=26.345629, Alt.=166.115356m. Speed=0.108000m/h.</desc>
<speed>0.030000</speed>
</trkpt>
<trkpt lat="55.678749" lon="26.345629">
<ele>166.134888</ele>
<time>2010-07-18T09:30:46Z</time>
<desc>lat.=55.678749, lon.=26.345629, Alt.=166.134888m. Speed=0.072000m/h.</desc>
<speed>0.020000</speed>
</trkpt>
<trkpt lat="55.678749" lon="26.345629">
<ele>166.150513</ele>
<time>2010-07-18T09:30:47Z</time>
<desc>lat.=55.678749, lon.=26.345629, Alt.=166.150513m. Speed=0.036000m/h.</desc>
<speed>0.010000</speed>
</trkpt>
<trkpt lat="55.678749" lon="26.345629">
<ele>166.166138</ele>
<time>2010-07-18T09:30:48Z</time>
<desc>lat.=55.678749, lon.=26.345629, Alt.=166.166138m. Speed=0.144000m/h.</desc>
<speed>0.040000</speed>
</trkpt>
<trkpt lat="55.678749" lon="26.345629">
<ele>166.177856</ele>
<time>2010-07-18T09:30:49Z</time>
<desc>lat.=55.678749, lon.=26.345629, Alt.=166.177856m. Speed=0.144000m/h.</desc>
<speed>0.040000</speed>
</trkpt>
<trkpt lat="55.678749" lon="26.345629">
<ele>166.185669</ele>
<time>2010-07-18T09:30:50Z</time>
<desc>lat.=55.678749, lon.=26.345629, Alt.=166.185669m. Speed=0.036000m/h.</desc>
<speed>0.010000</speed>
</trkpt>
<trkpt lat="55.678749" lon="26.345629">
<ele>166.189575</ele>
<time>2010-07-18T09:30:51Z</time>
<desc>lat.=55.678749, lon.=26.345629, Alt.=166.189575m. Speed=0.072000m/h.</desc>
<speed>0.020000</speed>
</trkpt>
<trkpt lat="55.678749" lon="26.345629">
<ele>166.193481</ele>
<time>2010-07-18T09:30:52Z</time>
<desc>lat.=55.678749, lon.=26.345629, Alt.=166.193481m. Speed=0.144000m/h.</desc>
<speed>0.040000</speed>
</trkpt>
<trkpt lat="55.678749" lon="26.345629">
<ele>166.185669</ele>
<time>2010-07-18T09:30:53Z</time>
<desc>lat.=55.678749, lon.=26.345629, Alt.=166.185669m. Speed=0.072000m/h.</desc>
<speed>0.020000</speed>
</trkpt>
<trkpt lat="55.678749" lon="26.345629">
<ele>166.173950</ele>
<time>2010-07-18T09:30:54Z</time>
<desc>lat.=55.678749, lon.=26.345629, Alt.=166.173950m. Speed=0.144000m/h.</desc>
<speed>0.040000</speed>
</trkpt>
<trkpt lat="55.678749" lon="26.345629">
<ele>166.170044</ele>
<time>2010-07-18T09:30:55Z</time>
<desc>lat.=55.678749, lon.=26.345629, Alt.=166.170044m. Speed=0.072000m/h.</desc>
<speed>0.020000</speed>
</trkpt>
<trkpt lat="55.678749" lon="26.345631">
<ele>166.166138</ele>
<time>2010-07-18T09:30:56Z</time>
<desc>lat.=55.678749, lon.=26.345631, Alt.=166.166138m. Speed=1.152000m/h.</desc>
<speed>0.320000</speed>
</trkpt>
<trkpt lat="55.678749" lon="26.345634">
<ele>166.162231</ele>
<time>2010-07-18T09:30:57Z</time>
<desc>lat.=55.678749, lon.=26.345634, Alt.=166.162231m. Speed=3.924000m/h.</desc>
<speed>1.090000</speed>
</trkpt>
<trkpt lat="55.678757" lon="26.345657">
<ele>166.947388</ele>
<time>2010-07-18T09:30:58Z</time>
<desc>lat.=55.678757, lon.=26.345657, Alt.=166.947388m. Speed=6.840000m/h.</desc>
<speed>1.900000</speed>
</trkpt>
<trkpt lat="55.678753" lon="26.345697">
<ele>166.623169</ele>
<time>2010-07-18T09:30:59Z</time>
<desc>lat.=55.678753, lon.=26.345697, Alt.=166.623169m. Speed=8.568000m/h.</desc>
<speed>2.380000</speed>
</trkpt>
<trkpt lat="55.678745" lon="26.345741">
<ele>166.279419</ele>
<time>2010-07-18T09:31:00Z</time>
<desc>lat.=55.678745, lon.=26.345741, Alt.=166.279419m. Speed=10.440000m/h.</desc>
<speed>2.900000</speed>
</trkpt>
<trkpt lat="55.678753" lon="26.345787">
<ele>166.474731</ele>
<time>2010-07-18T09:31:01Z</time>
<desc>lat.=55.678753, lon.=26.345787, Alt.=166.474731m. Speed=12.708000m/h.</desc>
<speed>3.530000</speed>
</trkpt>
<trkpt lat="55.678780" lon="26.345858">
<ele>165.920044</ele>
<time>2010-07-18T09:31:02Z</time>
<desc>lat.=55.678780, lon.=26.345858, Alt.=165.920044m. Speed=14.688000m/h.</desc>
<speed>4.080000</speed>
</trkpt>
<trkpt lat="55.678799" lon="26.345928">
<ele>165.545044</ele>
<time>2010-07-18T09:31:03Z</time>
<desc>lat.=55.678799, lon.=26.345928, Alt.=165.545044m. Speed=13.968000m/h.</desc>
<speed>3.880000</speed>
</trkpt>
<trkpt lat="55.678814" lon="26.345985">
<ele>165.834106</ele>
<time>2010-07-18T09:31:04Z</time>
<desc>lat.=55.678814, lon.=26.345985, Alt.=165.834106m. Speed=12.672000m/h.</desc>
<speed>3.520000</speed>
</trkpt>
<trkpt lat="55.678825" lon="26.346037">
<ele>166.400513</ele>
<time>2010-07-18T09:31:05Z</time>
<desc>lat.=55.678825, lon.=26.346037, Alt.=166.400513m. Speed=12.744000m/h.</desc>
<speed>3.540000</speed>
</trkpt>
<trkpt lat="55.678841" lon="26.346100">
<ele>166.076294</ele>
<time>2010-07-18T09:31:06Z</time>
<desc>lat.=55.678841, lon.=26.346100, Alt.=166.076294m. Speed=12.600000m/h.</desc>
<speed>3.500000</speed>
</trkpt>
<trkpt lat="55.678856" lon="26.346161">
<ele>166.005981</ele>
<time>2010-07-18T09:31:07Z</time>
<desc>lat.=55.678856, lon.=26.346161, Alt.=166.005981m. Speed=14.220000m/h.</desc>
<speed>3.950000</speed>
</trkpt>
<trkpt lat="55.678864" lon="26.346222">
<ele>166.150513</ele>
<time>2010-07-18T09:31:08Z</time>
<desc>lat.=55.678864, lon.=26.346222, Alt.=166.150513m. Speed=14.256000m/h.</desc>
<speed>3.960000</speed>
</trkpt>
<trkpt lat="55.678860" lon="26.346302">
<ele>166.224731</ele>
<time>2010-07-18T09:31:09Z</time>
<desc>lat.=55.678860, lon.=26.346302, Alt.=166.224731m. Speed=14.976000m/h.</desc>
<speed>4.160000</speed>
</trkpt>
<trkpt lat="55.678860" lon="26.346375">
<ele>166.205200</ele>
<time>2010-07-18T09:31:10Z</time>
<desc>lat.=55.678860, lon.=26.346375, Alt.=166.205200m. Speed=15.120000m/h.</desc>
<speed>4.200000</speed>
</trkpt>
<trkpt lat="55.678867" lon="26.346443">
<ele>165.986450</ele>
<time>2010-07-18T09:31:11Z</time>
<desc>lat.=55.678867, lon.=26.346443, Alt.=165.986450m. Speed=15.156000m/h.</desc>
<speed>4.210000</speed>
</trkpt>
<trkpt lat="55.678875" lon="26.346508">
<ele>166.158325</ele>
<time>2010-07-18T09:31:12Z</time>
<desc>lat.=55.678875, lon.=26.346508, Alt.=166.158325m. Speed=15.048000m/h.</desc>
<speed>4.180000</speed>
</trkpt>
<trkpt lat="55.678883" lon="26.346575">
<ele>166.404419</ele>
<time>2010-07-18T09:31:13Z</time>
<desc>lat.=55.678883, lon.=26.346575, Alt.=166.404419m. Speed=15.480000m/h.</desc>
<speed>4.300000</speed>
</trkpt>
<trkpt lat="55.678890" lon="26.346645">
<ele>166.193481</ele>
<time>2010-07-18T09:31:14Z</time>
<desc>lat.=55.678890, lon.=26.346645, Alt.=166.193481m. Speed=15.516000m/h.</desc>
<speed>4.310000</speed>
</trkpt>
<trkpt lat="55.678909" lon="26.346725">
<ele>165.654419</ele>
<time>2010-07-18T09:31:15Z</time>
<desc>lat.=55.678909, lon.=26.346725, Alt.=165.654419m. Speed=16.596001m/h.</desc>
<speed>4.610000</speed>
</trkpt>
<trkpt lat="55.678913" lon="26.346790">
<ele>167.154419</ele>
<time>2010-07-18T09:31:16Z</time>
<desc>lat.=55.678913, lon.=26.346790, Alt.=167.154419m. Speed=15.768000m/h.</desc>
<speed>4.380000</speed>
</trkpt>
<trkpt lat="55.678917" lon="26.346853">
<ele>167.666138</ele>
<time>2010-07-18T09:31:17Z</time>
<desc>lat.=55.678917, lon.=26.346853, Alt.=167.666138m. Speed=15.048000m/h.</desc>
<speed>4.180000</speed>
</trkpt>
<trkpt lat="55.678928" lon="26.346909">
<ele>167.396606</ele>
<time>2010-07-18T09:31:18Z</time>
<desc>lat.=55.678928, lon.=26.346909, Alt.=167.396606m. Speed=14.940000m/h.</desc>
<speed>4.150000</speed>
</trkpt>
<trkpt lat="55.678951" lon="26.346983">
<ele>167.181763</ele>
<time>2010-07-18T09:31:19Z</time>
<desc>lat.=55.678951, lon.=26.346983, Alt.=167.181763m. Speed=16.379999m/h.</desc>
<speed>4.550000</speed>
</trkpt>
<trkpt lat="55.678955" lon="26.347057">
<ele>167.111450</ele>
<time>2010-07-18T09:31:20Z</time>
<desc>lat.=55.678955, lon.=26.347057, Alt.=167.111450m. Speed=16.920000m/h.</desc>
<speed>4.700000</speed>
</trkpt>
<trkpt lat="55.678974" lon="26.347151">
<ele>166.318481</ele>
<time>2010-07-18T09:31:21Z</time>
<desc>lat.=55.678974, lon.=26.347151, Alt.=166.318481m. Speed=17.568001m/h.</desc>
<speed>4.880000</speed>
</trkpt>
<trkpt lat="55.678986" lon="26.347225">
<ele>165.994263</ele>
<time>2010-07-18T09:31:22Z</time>
<desc>lat.=55.678986, lon.=26.347225, Alt.=165.994263m. Speed=14.904000m/h.</desc>
<speed>4.140000</speed>
</trkpt>
<trkpt lat="55.678993" lon="26.347296">
<ele>165.798950</ele>
<time>2010-07-18T09:31:23Z</time>
<desc>lat.=55.678993, lon.=26.347296, Alt.=165.798950m. Speed=15.660000m/h.</desc>
<speed>4.350000</speed>
</trkpt>
<trkpt lat="55.679001" lon="26.347372">
<ele>165.494263</ele>
<time>2010-07-18T09:31:24Z</time>
<desc>lat.=55.679001, lon.=26.347372, Alt.=165.494263m. Speed=17.568001m/h.</desc>
<speed>4.880000</speed>
</trkpt>
<trkpt lat="55.679005" lon="26.347439">
<ele>165.314575</ele>
<time>2010-07-18T09:31:25Z</time>
<desc>lat.=55.679005, lon.=26.347439, Alt.=165.314575m. Speed=13.932000m/h.</desc>
<speed>3.870000</speed>
</trkpt>
<trkpt lat="55.679016" lon="26.347515">
<ele>164.798950</ele>
<time>2010-07-18T09:31:26Z</time>
<desc>lat.=55.679016, lon.=26.347515, Alt.=164.798950m. Speed=15.840000m/h.</desc>
<speed>4.400000</speed>
</trkpt>
<trkpt lat="55.679039" lon="26.347591">
<ele>164.361450</ele>
<time>2010-07-18T09:31:27Z</time>
<desc>lat.=55.679039, lon.=26.347591, Alt.=164.361450m. Speed=16.416000m/h.</desc>
<speed>4.560000</speed>
</trkpt>
<trkpt lat="55.679047" lon="26.347660">
<ele>164.002075</ele>
<time>2010-07-18T09:31:28Z</time>
<desc>lat.=55.679047, lon.=26.347660, Alt.=164.002075m. Speed=14.976000m/h.</desc>
<speed>4.160000</speed>
</trkpt>
<trkpt lat="55.679058" lon="26.347729">
<ele>163.091919</ele>
<time>2010-07-18T09:31:29Z</time>
<desc>lat.=55.679058, lon.=26.347729, Alt.=163.091919m. Speed=15.228000m/h.</desc>
<speed>4.230000</speed>
</trkpt>
<trkpt lat="55.679070" lon="26.347780">
<ele>162.513794</ele>
<time>2010-07-18T09:31:30Z</time>
<desc>lat.=55.679070, lon.=26.347780, Alt.=162.513794m. Speed=11.880000m/h.</desc>
<speed>3.300000</speed>
</trkpt>
<trkpt lat="55.679077" lon="26.347836">
<ele>161.814575</ele>
<time>2010-07-18T09:31:31Z</time>
<desc>lat.=55.679077, lon.=26.347836, Alt.=161.814575m. Speed=12.672000m/h.</desc>
<speed>3.520000</speed>
</trkpt>
<trkpt lat="55.679070" lon="26.347906">
<ele>162.752075</ele>
<time>2010-07-18T09:31:32Z</time>
<desc>lat.=55.679070, lon.=26.347906, Alt.=162.752075m. Speed=14.148000m/h.</desc>
<speed>3.930000</speed>
</trkpt>
<trkpt lat="55.679077" lon="26.347965">
<ele>162.271606</ele>
<time>2010-07-18T09:31:33Z</time>
<desc>lat.=55.679077, lon.=26.347965, Alt.=162.271606m. Speed=16.704000m/h.</desc>
<speed>4.640000</speed>
</trkpt>
<trkpt lat="55.679100" lon="26.348034">
<ele>161.994263</ele>
<time>2010-07-18T09:31:34Z</time>
<desc>lat.=55.679100, lon.=26.348034, Alt.=161.994263m. Speed=12.672000m/h.</desc>
<speed>3.520000</speed>
</trkpt>
<trkpt lat="55.679134" lon="26.348112">
<ele>160.830200</ele>
<time>2010-07-18T09:31:35Z</time>
<desc>lat.=55.679134, lon.=26.348112, Alt.=160.830200m. Speed=11.844000m/h.</desc>
<speed>3.290000</speed>
</trkpt>
<trkpt lat="55.679150" lon="26.348190">
<ele>159.955200</ele>
<time>2010-07-18T09:31:36Z</time>
<desc>lat.=55.679150, lon.=26.348190, Alt.=159.955200m. Speed=15.552000m/h.</desc>
<speed>4.320000</speed>
</trkpt>
<trkpt lat="55.679161" lon="26.348259">
<ele>159.295044</ele>
<time>2010-07-18T09:31:37Z</time>
<desc>lat.=55.679161, lon.=26.348259, Alt.=159.295044m. Speed=12.312000m/h.</desc>
<speed>3.420000</speed>
</trkpt>
<trkpt lat="55.679176" lon="26.348320">
<ele>158.685669</ele>
<time>2010-07-18T09:31:38Z</time>
<desc>lat.=55.679176, lon.=26.348320, Alt.=158.685669m. Speed=11.700000m/h.</desc>
<speed>3.250000</speed>
</trkpt>
<trkpt lat="55.679176" lon="26.348389">
<ele>158.185669</ele>
<time>2010-07-18T09:31:39Z</time>
<desc>lat.=55.679176, lon.=26.348389, Alt.=158.185669m. Speed=12.348000m/h.</desc>
<speed>3.430000</speed>
</trkpt>
<trkpt lat="55.679184" lon="26.348461">
<ele>158.892700</ele>
<time>2010-07-18T09:31:40Z</time>
<desc>lat.=55.679184, lon.=26.348461, Alt.=158.892700m. Speed=13.068000m/h.</desc>
<speed>3.630000</speed>
</trkpt>
<trkpt lat="55.679165" lon="26.348568">
<ele>158.517700</ele>
<time>2010-07-18T09:31:41Z</time>
<desc>lat.=55.679165, lon.=26.348568, Alt.=158.517700m. Speed=15.804000m/h.</desc>
<speed>4.390000</speed>
</trkpt>
<trkpt lat="55.679161" lon="26.348660">
<ele>158.923950</ele>
<time>2010-07-18T09:31:42Z</time>
<desc>lat.=55.679161, lon.=26.348660, Alt.=158.923950m. Speed=15.696000m/h.</desc>
<speed>4.360000</speed>
</trkpt>
<trkpt lat="55.679173" lon="26.348761">
<ele>159.123169</ele>
<time>2010-07-18T09:31:43Z</time>
<desc>lat.=55.679173, lon.=26.348761, Alt.=159.123169m. Speed=15.732000m/h.</desc>
<speed>4.370000</speed>
</trkpt>
<trkpt lat="55.679180" lon="26.348850">
<ele>159.142700</ele>
<time>2010-07-18T09:31:44Z</time>
<desc>lat.=55.679180, lon.=26.348850, Alt.=159.142700m. Speed=14.508000m/h.</desc>
<speed>4.030000</speed>
</trkpt>
<trkpt lat="55.679188" lon="26.348907">
<ele>159.744263</ele>
<time>2010-07-18T09:31:45Z</time>
<desc>lat.=55.679188, lon.=26.348907, Alt.=159.744263m. Speed=10.332000m/h.</desc>
<speed>2.870000</speed>
</trkpt>
<trkpt lat="55.679195" lon="26.348961">
<ele>159.642700</ele>
<time>2010-07-18T09:31:46Z</time>
<desc>lat.=55.679195, lon.=26.348961, Alt.=159.642700m. Speed=12.168000m/h.</desc>
<speed>3.380000</speed>
</trkpt>
<trkpt lat="55.679199" lon="26.349020">
<ele>159.201294</ele>
<time>2010-07-18T09:31:47Z</time>
<desc>lat.=55.679199, lon.=26.349020, Alt.=159.201294m. Speed=13.320000m/h.</desc>
<speed>3.700000</speed>
</trkpt>
<trkpt lat="55.679211" lon="26.349073">
<ele>158.740356</ele>
<time>2010-07-18T09:31:48Z</time>
<desc>lat.=55.679211, lon.=26.349073, Alt.=158.740356m. Speed=10.764000m/h.</desc>
<speed>2.990000</speed>
</trkpt>
<trkpt lat="55.679222" lon="26.349134">
<ele>157.877075</ele>
<time>2010-07-18T09:31:49Z</time>
<desc>lat.=55.679222, lon.=26.349134, Alt.=157.877075m. Speed=14.976000m/h.</desc>
<speed>4.160000</speed>
</trkpt>
<trkpt lat="55.679234" lon="26.349194">
<ele>157.818481</ele>
<time>2010-07-18T09:31:50Z</time>
<desc>lat.=55.679234, lon.=26.349194, Alt.=157.818481m. Speed=12.096000m/h.</desc>
<speed>3.360000</speed>
</trkpt>
<trkpt lat="55.679260" lon="26.349268">
<ele>156.818481</ele>
<time>2010-07-18T09:31:51Z</time>
<desc>lat.=55.679260, lon.=26.349268, Alt.=156.818481m. Speed=15.552000m/h.</desc>
<speed>4.320000</speed>
</trkpt>
<trkpt lat="55.679276" lon="26.349327">
<ele>156.384888</ele>
<time>2010-07-18T09:31:52Z</time>
<desc>lat.=55.679276, lon.=26.349327, Alt.=156.384888m. Speed=12.600000m/h.</desc>
<speed>3.500000</speed>
</trkpt>
<trkpt lat="55.679298" lon="26.349392">
<ele>155.525513</ele>
<time>2010-07-18T09:31:53Z</time>
<desc>lat.=55.679298, lon.=26.349392, Alt.=155.525513m. Speed=15.048000m/h.</desc>
<speed>4.180000</speed>
</trkpt>
<trkpt lat="55.679314" lon="26.349470">
<ele>155.447388</ele>
<time>2010-07-18T09:31:54Z</time>
<desc>lat.=55.679314, lon.=26.349470, Alt.=155.447388m. Speed=16.955999m/h.</desc>
<speed>4.710000</speed>
</trkpt>
<trkpt lat="55.679325" lon="26.349533">
<ele>154.775513</ele>
<time>2010-07-18T09:31:55Z</time>
<desc>lat.=55.679325, lon.=26.349533, Alt.=154.775513m. Speed=10.728000m/h.</desc>
<speed>2.980000</speed>
</trkpt>
<trkpt lat="55.679333" lon="26.349600">
<ele>153.056763</ele>
<time>2010-07-18T09:31:56Z</time>
<desc>lat.=55.679333, lon.=26.349600, Alt.=153.056763m. Speed=14.400000m/h.</desc>
<speed>4.000000</speed>
</trkpt>
<trkpt lat="55.679352" lon="26.349670">
<ele>152.767700</ele>
<time>2010-07-18T09:31:57Z</time>
<desc>lat.=55.679352, lon.=26.349670, Alt.=152.767700m. Speed=14.724000m/h.</desc>
<speed>4.090000</speed>
</trkpt>
<trkpt lat="55.679371" lon="26.349747">
<ele>151.920044</ele>
<time>2010-07-18T09:31:58Z</time>
<desc>lat.=55.679371, lon.=26.349747, Alt.=151.920044m. Speed=12.780000m/h.</desc>
<speed>3.550000</speed>
</trkpt>
<trkpt lat="55.679401" lon="26.349834">
<ele>150.271606</ele>
<time>2010-07-18T09:31:59Z</time>
<desc>lat.=55.679401, lon.=26.349834, Alt.=150.271606m. Speed=17.604000m/h.</desc>
<speed>4.890000</speed>
</trkpt>
<trkpt lat="55.679443" lon="26.349928">
<ele>149.548950</ele>
<time>2010-07-18T09:32:00Z</time>
<desc>lat.=55.679443, lon.=26.349928, Alt.=149.548950m. Speed=17.568001m/h.</desc>
<speed>4.880000</speed>
</trkpt>
<trkpt lat="55.679478" lon="26.350023">
<ele>151.701294</ele>
<time>2010-07-18T09:32:01Z</time>
<desc>lat.=55.679478, lon.=26.350023, Alt.=151.701294m. Speed=16.884001m/h.</desc>
<speed>4.690000</speed>
</trkpt>
<trkpt lat="55.679501" lon="26.350107">
<ele>151.545044</ele>
<time>2010-07-18T09:32:02Z</time>
<desc>lat.=55.679501, lon.=26.350107, Alt.=151.545044m. Speed=18.143999m/h.</desc>
<speed>5.040000</speed>
</trkpt>
<trkpt lat="55.679523" lon="26.350191">
<ele>150.291138</ele>
<time>2010-07-18T09:32:03Z</time>
<desc>lat.=55.679523, lon.=26.350191, Alt.=150.291138m. Speed=16.524000m/h.</desc>
<speed>4.590000</speed>
</trkpt>
<trkpt lat="55.679535" lon="26.350283">
<ele>149.029419</ele>
<time>2010-07-18T09:32:04Z</time>
<desc>lat.=55.679535, lon.=26.350283, Alt.=149.029419m. Speed=19.728001m/h.</desc>
<speed>5.480000</speed>
</trkpt>
<trkpt lat="55.679550" lon="26.350386">
<ele>148.021606</ele>
<time>2010-07-18T09:32:05Z</time>
<desc>lat.=55.679550, lon.=26.350386, Alt.=148.021606m. Speed=20.591999m/h.</desc>
<speed>5.720000</speed>
</trkpt>
<trkpt lat="55.679569" lon="26.350498">
<ele>146.935669</ele>
<time>2010-07-18T09:32:06Z</time>
<desc>lat.=55.679569, lon.=26.350498, Alt.=146.935669m. Speed=22.104000m/h.</desc>
<speed>6.140000</speed>
</trkpt>
<trkpt lat="55.679596" lon="26.350594">
<ele>146.232544</ele>
<time>2010-07-18T09:32:07Z</time>
<desc>lat.=55.679596, lon.=26.350594, Alt.=146.232544m. Speed=22.104000m/h.</desc>
<speed>6.140000</speed>
</trkpt>
<trkpt lat="55.679626" lon="26.350691">
<ele>145.951294</ele>
<time>2010-07-18T09:32:08Z</time>
<desc>lat.=55.679626, lon.=26.350691, Alt.=145.951294m. Speed=21.816000m/h.</desc>
<speed>6.060000</speed>
</trkpt>
<trkpt lat="55.679649" lon="26.350786">
<ele>145.822388</ele>
<time>2010-07-18T09:32:09Z</time>
<desc>lat.=55.679649, lon.=26.350786, Alt.=145.822388m. Speed=22.752001m/h.</desc>
<speed>6.320000</speed>
</trkpt>
<trkpt lat="55.679680" lon="26.350891">
<ele>144.947388</ele>
<time>2010-07-18T09:32:10Z</time>
<desc>lat.=55.679680, lon.=26.350891, Alt.=144.947388m. Speed=24.336000m/h.</desc>
<speed>6.760000</speed>
</trkpt>
<trkpt lat="55.679703" lon="26.351013">
<ele>143.588013</ele>
<time>2010-07-18T09:32:11Z</time>
<desc>lat.=55.679703, lon.=26.351013, Alt.=143.588013m. Speed=26.280001m/h.</desc>
<speed>7.300000</speed>
</trkpt>
<trkpt lat="55.679733" lon="26.351122">
<ele>142.830200</ele>
<time>2010-07-18T09:32:12Z</time>
<desc>lat.=55.679733, lon.=26.351122, Alt.=142.830200m. Speed=26.100000m/h.</desc>
<speed>7.250000</speed>
</trkpt>
<trkpt lat="55.679768" lon="26.351231">
<ele>141.916138</ele>
<time>2010-07-18T09:32:13Z</time>
<desc>lat.=55.679768, lon.=26.351231, Alt.=141.916138m. Speed=26.712000m/h.</desc>
<speed>7.420000</speed>
</trkpt>
<trkpt lat="55.679798" lon="26.351347">
<ele>141.502075</ele>
<time>2010-07-18T09:32:14Z</time>
<desc>lat.=55.679798, lon.=26.351347, Alt.=141.502075m. Speed=27.180000m/h.</desc>
<speed>7.550000</speed>
</trkpt>
<trkpt lat="55.679829" lon="26.351467">
<ele>141.037231</ele>
<time>2010-07-18T09:32:15Z</time>
<desc>lat.=55.679829, lon.=26.351467, Alt.=141.037231m. Speed=27.972000m/h.</desc>
<speed>7.770000</speed>
</trkpt>
<trkpt lat="55.679863" lon="26.351591">
<ele>140.091919</ele>
<time>2010-07-18T09:32:16Z</time>
<desc>lat.=55.679863, lon.=26.351591, Alt.=140.091919m. Speed=28.980000m/h.</desc>
<speed>8.050000</speed>
</trkpt>
<trkpt lat="55.679890" lon="26.351721">
<ele>139.115356</ele>
<time>2010-07-18T09:32:17Z</time>
<desc>lat.=55.679890, lon.=26.351721, Alt.=139.115356m. Speed=29.952000m/h.</desc>
<speed>8.320000</speed>
</trkpt>
<trkpt lat="55.679924" lon="26.351864">
<ele>138.990356</ele>
<time>2010-07-18T09:32:18Z</time>
<desc>lat.=55.679924, lon.=26.351864, Alt.=138.990356m. Speed=30.743999m/h.</desc>
<speed>8.540000</speed>
</trkpt>
<trkpt lat="55.679962" lon="26.351999">
<ele>139.302856</ele>
<time>2010-07-18T09:32:19Z</time>
<desc>lat.=55.679962, lon.=26.351999, Alt.=139.302856m. Speed=31.464001m/h.</desc>
<speed>8.740000</speed>
</trkpt>
<trkpt lat="55.680004" lon="26.352127">
<ele>138.502075</ele>
<time>2010-07-18T09:32:20Z</time>
<desc>lat.=55.680004, lon.=26.352127, Alt.=138.502075m. Speed=32.112000m/h.</desc>
<speed>8.920000</speed>
</trkpt>
<trkpt lat="55.680042" lon="26.352255">
<ele>137.470825</ele>
<time>2010-07-18T09:32:21Z</time>
<desc>lat.=55.680042, lon.=26.352255, Alt.=137.470825m. Speed=32.796001m/h.</desc>
<speed>9.110000</speed>
</trkpt>
<trkpt lat="55.680080" lon="26.352386">
<ele>136.713013</ele>
<time>2010-07-18T09:32:22Z</time>
<desc>lat.=55.680080, lon.=26.352386, Alt.=136.713013m. Speed=33.084000m/h.</desc>
<speed>9.190000</speed>
</trkpt>
<trkpt lat="55.680130" lon="26.352518">
<ele>136.060669</ele>
<time>2010-07-18T09:32:23Z</time>
<desc>lat.=55.680130, lon.=26.352518, Alt.=136.060669m. Speed=33.515999m/h.</desc>
<speed>9.310000</speed>
</trkpt>
<trkpt lat="55.680172" lon="26.352648">
<ele>135.740356</ele>
<time>2010-07-18T09:32:24Z</time>
<desc>lat.=55.680172, lon.=26.352648, Alt.=135.740356m. Speed=33.480000m/h.</desc>
<speed>9.300000</speed>
</trkpt>
<trkpt lat="55.680218" lon="26.352779">
<ele>135.869263</ele>
<time>2010-07-18T09:32:25Z</time>
<desc>lat.=55.680218, lon.=26.352779, Alt.=135.869263m. Speed=34.127998m/h.</desc>
<speed>9.480000</speed>
</trkpt>
<trkpt lat="55.680256" lon="26.352917">
<ele>135.295044</ele>
<time>2010-07-18T09:32:26Z</time>
<desc>lat.=55.680256, lon.=26.352917, Alt.=135.295044m. Speed=34.127998m/h.</desc>
<speed>9.480000</speed>
</trkpt>
<trkpt lat="55.680283" lon="26.353064">
<ele>133.951294</ele>
<time>2010-07-18T09:32:27Z</time>
<desc>lat.=55.680283, lon.=26.353064, Alt.=133.951294m. Speed=34.236000m/h.</desc>
<speed>9.510000</speed>
</trkpt>
<trkpt lat="55.680321" lon="26.353199">
<ele>133.232544</ele>
<time>2010-07-18T09:32:28Z</time>
<desc>lat.=55.680321, lon.=26.353199, Alt.=133.232544m. Speed=33.551998m/h.</desc>
<speed>9.319999</speed>
</trkpt>
<trkpt lat="55.680359" lon="26.353331">
<ele>132.705200</ele>
<time>2010-07-18T09:32:29Z</time>
<desc>lat.=55.680359, lon.=26.353331, Alt.=132.705200m. Speed=33.084000m/h.</desc>
<speed>9.190000</speed>
</trkpt>
<trkpt lat="55.680397" lon="26.353468">
<ele>132.623169</ele>
<time>2010-07-18T09:32:30Z</time>
<desc>lat.=55.680397, lon.=26.353468, Alt.=132.623169m. Speed=32.400002m/h.</desc>
<speed>9.000000</speed>
</trkpt>
<trkpt lat="55.680458" lon="26.353607">
<ele>135.447388</ele>
<time>2010-07-18T09:32:31Z</time>
<desc>lat.=55.680458, lon.=26.353607, Alt.=135.447388m. Speed=33.480000m/h.</desc>
<speed>9.300000</speed>
</trkpt>
<trkpt lat="55.680504" lon="26.353741">
<ele>135.748169</ele>
<time>2010-07-18T09:32:32Z</time>
<desc>lat.=55.680504, lon.=26.353741, Alt.=135.748169m. Speed=32.903999m/h.</desc>
<speed>9.140000</speed>
</trkpt>
<trkpt lat="55.680561" lon="26.353880">
<ele>138.978638</ele>
<time>2010-07-18T09:32:33Z</time>
<desc>lat.=55.680561, lon.=26.353880, Alt.=138.978638m. Speed=32.796001m/h.</desc>
<speed>9.110000</speed>
</trkpt>
<trkpt lat="55.680607" lon="26.354010">
<ele>139.373169</ele>
<time>2010-07-18T09:32:34Z</time>
<desc>lat.=55.680607, lon.=26.354010, Alt.=139.373169m. Speed=32.220001m/h.</desc>
<speed>8.950000</speed>
</trkpt>
<trkpt lat="55.680656" lon="26.354139">
<ele>140.482544</ele>
<time>2010-07-18T09:32:35Z</time>
<desc>lat.=55.680656, lon.=26.354139, Alt.=140.482544m. Speed=32.112000m/h.</desc>
<speed>8.920000</speed>
</trkpt>
<trkpt lat="55.680706" lon="26.354273">
<ele>141.795044</ele>
<time>2010-07-18T09:32:36Z</time>
<desc>lat.=55.680706, lon.=26.354273, Alt.=141.795044m. Speed=31.572001m/h.</desc>
<speed>8.770000</speed>
</trkpt>
<trkpt lat="55.680756" lon="26.354399">
<ele>143.814575</ele>
<time>2010-07-18T09:32:37Z</time>
<desc>lat.=55.680756, lon.=26.354399, Alt.=143.814575m. Speed=30.851999m/h.</desc>
<speed>8.570000</speed>
</trkpt>
<trkpt lat="55.680798" lon="26.354515">
<ele>144.658325</ele>
<time>2010-07-18T09:32:38Z</time>
<desc>lat.=55.680798, lon.=26.354515, Alt.=144.658325m. Speed=29.879999m/h.</desc>
<speed>8.300000</speed>
</trkpt>
<trkpt lat="55.680851" lon="26.354622">
<ele>146.775513</ele>
<time>2010-07-18T09:32:39Z</time>
<desc>lat.=55.680851, lon.=26.354622, Alt.=146.775513m. Speed=27.396000m/h.</desc>
<speed>7.610000</speed>
</trkpt>
<trkpt lat="55.680885" lon="26.354734">
<ele>146.588013</ele>
<time>2010-07-18T09:32:40Z</time>
<desc>lat.=55.680885, lon.=26.354734, Alt.=146.588013m. Speed=27.684000m/h.</desc>
<speed>7.690000</speed>
</trkpt>
<trkpt lat="55.680920" lon="26.354845">
<ele>147.134888</ele>
<time>2010-07-18T09:32:41Z</time>
<desc>lat.=55.680920, lon.=26.354845, Alt.=147.134888m. Speed=26.747999m/h.</desc>
<speed>7.430000</speed>
</trkpt>
<trkpt lat="55.680954" lon="26.354952">
<ele>147.455200</ele>
<time>2010-07-18T09:32:42Z</time>
<desc>lat.=55.680954, lon.=26.354952, Alt.=147.455200m. Speed=26.712000m/h.</desc>
<speed>7.420000</speed>
</trkpt>
<trkpt lat="55.680988" lon="26.355062">
<ele>147.599731</ele>
<time>2010-07-18T09:32:43Z</time>
<desc>lat.=55.680988, lon.=26.355062, Alt.=147.599731m. Speed=26.964001m/h.</desc>
<speed>7.490000</speed>
</trkpt>
<trkpt lat="55.681030" lon="26.355179">
<ele>148.088013</ele>
<time>2010-07-18T09:32:44Z</time>
<desc>lat.=55.681030, lon.=26.355179, Alt.=148.088013m. Speed=27.540001m/h.</desc>
<speed>7.650000</speed>
</trkpt>
<trkpt lat="55.681065" lon="26.355284">
<ele>147.943481</ele>
<time>2010-07-18T09:32:45Z</time>
<desc>lat.=55.681065, lon.=26.355284, Alt.=147.943481m. Speed=27.216000m/h.</desc>
<speed>7.560000</speed>
</trkpt>
<trkpt lat="55.681099" lon="26.355389">
<ele>147.900513</ele>
<time>2010-07-18T09:32:46Z</time>
<desc>lat.=55.681099, lon.=26.355389, Alt.=147.900513m. Speed=27.143999m/h.</desc>
<speed>7.540000</speed>
</trkpt>
<trkpt lat="55.681133" lon="26.355490">
<ele>148.029419</ele>
<time>2010-07-18T09:32:47Z</time>
<desc>lat.=55.681133, lon.=26.355490, Alt.=148.029419m. Speed=26.568001m/h.</desc>
<speed>7.380000</speed>
</trkpt>
<trkpt lat="55.681168" lon="26.355591">
<ele>147.916138</ele>
<time>2010-07-18T09:32:48Z</time>
<desc>lat.=55.681168, lon.=26.355591, Alt.=147.916138m. Speed=26.639999m/h.</desc>
<speed>7.400000</speed>
</trkpt>
<trkpt lat="55.681202" lon="26.355698">
<ele>147.892700</ele>
<time>2010-07-18T09:32:49Z</time>
<desc>lat.=55.681202, lon.=26.355698, Alt.=147.892700m. Speed=26.676001m/h.</desc>
<speed>7.410000</speed>
</trkpt>
<trkpt lat="55.681232" lon="26.355804">
<ele>147.752075</ele>
<time>2010-07-18T09:32:50Z</time>
<desc>lat.=55.681232, lon.=26.355804, Alt.=147.752075m. Speed=26.676001m/h.</desc>
<speed>7.410000</speed>
</trkpt>
<trkpt lat="55.681271" lon="26.355913">
<ele>147.591919</ele>
<time>2010-07-18T09:32:51Z</time>
<desc>lat.=55.681271, lon.=26.355913, Alt.=147.591919m. Speed=27.108000m/h.</desc>
<speed>7.530000</speed>
</trkpt>
<trkpt lat="55.681309" lon="26.356010">
<ele>147.463013</ele>
<time>2010-07-18T09:32:52Z</time>
<desc>lat.=55.681309, lon.=26.356010, Alt.=147.463013m. Speed=25.200001m/h.</desc>
<speed>7.000000</speed>
</trkpt>
<trkpt lat="55.681343" lon="26.356110">
<ele>147.084106</ele>
<time>2010-07-18T09:32:53Z</time>
<desc>lat.=55.681343, lon.=26.356110, Alt.=147.084106m. Speed=26.316000m/h.</desc>
<speed>7.310000</speed>
</trkpt>
<trkpt lat="55.681374" lon="26.356215">
<ele>146.736450</ele>
<time>2010-07-18T09:32:54Z</time>
<desc>lat.=55.681374, lon.=26.356215, Alt.=146.736450m. Speed=25.740000m/h.</desc>
<speed>7.150000</speed>
</trkpt>
<trkpt lat="55.681400" lon="26.356308">
<ele>146.638794</ele>
<time>2010-07-18T09:32:55Z</time>
<desc>lat.=55.681400, lon.=26.356308, Alt.=146.638794m. Speed=23.472000m/h.</desc>
<speed>6.520000</speed>
</trkpt>
<trkpt lat="55.681416" lon="26.356400">
<ele>146.420044</ele>
<time>2010-07-18T09:32:56Z</time>
<desc>lat.=55.681416, lon.=26.356400, Alt.=146.420044m. Speed=21.312000m/h.</desc>
<speed>5.920000</speed>
</trkpt>
<trkpt lat="55.681438" lon="26.356497">
<ele>146.255981</ele>
<time>2010-07-18T09:32:57Z</time>
<desc>lat.=55.681438, lon.=26.356497, Alt.=146.255981m. Speed=22.068001m/h.</desc>
<speed>6.130000</speed>
</trkpt>
<trkpt lat="55.681465" lon="26.356586">
<ele>146.052856</ele>
<time>2010-07-18T09:32:58Z</time>
<desc>lat.=55.681465, lon.=26.356586, Alt.=146.052856m. Speed=22.356001m/h.</desc>
<speed>6.210000</speed>
</trkpt>
<trkpt lat="55.681492" lon="26.356670">
<ele>146.060669</ele>
<time>2010-07-18T09:32:59Z</time>
<desc>lat.=55.681492, lon.=26.356670, Alt.=146.060669m. Speed=19.980000m/h.</desc>
<speed>5.550000</speed>
</trkpt>
<trkpt lat="55.681522" lon="26.356747">
<ele>145.908325</ele>
<time>2010-07-18T09:33:00Z</time>
<desc>lat.=55.681522, lon.=26.356747, Alt.=145.908325m. Speed=19.691999m/h.</desc>
<speed>5.470000</speed>
</trkpt>
<trkpt lat="55.681553" lon="26.356821">
<ele>145.775513</ele>
<time>2010-07-18T09:33:01Z</time>
<desc>lat.=55.681553, lon.=26.356821, Alt.=145.775513m. Speed=20.160000m/h.</desc>
<speed>5.600000</speed>
</trkpt>
<trkpt lat="55.681568" lon="26.356892">
<ele>145.365356</ele>
<time>2010-07-18T09:33:02Z</time>
<desc>lat.=55.681568, lon.=26.356892, Alt.=145.365356m. Speed=15.120000m/h.</desc>
<speed>4.200000</speed>
</trkpt>
<trkpt lat="55.681587" lon="26.356955">
<ele>144.877075</ele>
<time>2010-07-18T09:33:03Z</time>
<desc>lat.=55.681587, lon.=26.356955, Alt.=144.877075m. Speed=14.796000m/h.</desc>
<speed>4.110000</speed>
</trkpt>
<trkpt lat="55.681610" lon="26.357012">
<ele>144.552856</ele>
<time>2010-07-18T09:33:04Z</time>
<desc>lat.=55.681610, lon.=26.357012, Alt.=144.552856m. Speed=12.996000m/h.</desc>
<speed>3.610000</speed>
</trkpt>
<trkpt lat="55.681637" lon="26.357071">
<ele>144.521606</ele>
<time>2010-07-18T09:33:05Z</time>
<desc>lat.=55.681637, lon.=26.357071, Alt.=144.521606m. Speed=14.436000m/h.</desc>
<speed>4.010000</speed>
</trkpt>
<trkpt lat="55.681660" lon="26.357143">
<ele>144.150513</ele>
<time>2010-07-18T09:33:06Z</time>
<desc>lat.=55.681660, lon.=26.357143, Alt.=144.150513m. Speed=16.200001m/h.</desc>
<speed>4.500000</speed>
</trkpt>
<trkpt lat="55.681698" lon="26.357216">
<ele>143.822388</ele>
<time>2010-07-18T09:33:07Z</time>
<desc>lat.=55.681698, lon.=26.357216, Alt.=143.822388m. Speed=15.912000m/h.</desc>
<speed>4.420000</speed>
</trkpt>
<trkpt lat="55.681732" lon="26.357292">
<ele>142.759888</ele>
<time>2010-07-18T09:33:08Z</time>
<desc>lat.=55.681732, lon.=26.357292, Alt.=142.759888m. Speed=15.732000m/h.</desc>
<speed>4.370000</speed>
</trkpt>
<trkpt lat="55.681751" lon="26.357367">
<ele>143.170044</ele>
<time>2010-07-18T09:33:09Z</time>
<desc>lat.=55.681751, lon.=26.357367, Alt.=143.170044m. Speed=14.436000m/h.</desc>
<speed>4.010000</speed>
</trkpt>
<trkpt lat="55.681782" lon="26.357445">
<ele>143.564575</ele>
<time>2010-07-18T09:33:10Z</time>
<desc>lat.=55.681782, lon.=26.357445, Alt.=143.564575m. Speed=14.076000m/h.</desc>
<speed>3.910000</speed>
</trkpt>
<trkpt lat="55.681805" lon="26.357521">
<ele>144.013794</ele>
<time>2010-07-18T09:33:11Z</time>
<desc>lat.=55.681805, lon.=26.357521, Alt.=144.013794m. Speed=15.660000m/h.</desc>
<speed>4.350000</speed>
</trkpt>
<trkpt lat="55.681831" lon="26.357590">
<ele>143.916138</ele>
<time>2010-07-18T09:33:12Z</time>
<desc>lat.=55.681831, lon.=26.357590, Alt.=143.916138m. Speed=15.840000m/h.</desc>
<speed>4.400000</speed>
</trkpt>
<trkpt lat="55.681862" lon="26.357658">
<ele>143.880981</ele>
<time>2010-07-18T09:33:13Z</time>
<desc>lat.=55.681862, lon.=26.357658, Alt.=143.880981m. Speed=16.452000m/h.</desc>
<speed>4.570000</speed>
</trkpt>
<trkpt lat="55.681885" lon="26.357729">
<ele>143.892700</ele>
<time>2010-07-18T09:33:14Z</time>
<desc>lat.=55.681885, lon.=26.357729, Alt.=143.892700m. Speed=14.256000m/h.</desc>
<speed>3.960000</speed>
</trkpt>
<trkpt lat="55.681900" lon="26.357792">
<ele>144.091919</ele>
<time>2010-07-18T09:33:15Z</time>
<desc>lat.=55.681900, lon.=26.357792, Alt.=144.091919m. Speed=13.644000m/h.</desc>
<speed>3.790000</speed>
</trkpt>
<trkpt lat="55.681927" lon="26.357868">
<ele>143.713013</ele>
<time>2010-07-18T09:33:16Z</time>
<desc>lat.=55.681927, lon.=26.357868, Alt.=143.713013m. Speed=16.308001m/h.</desc>
<speed>4.530000</speed>
</trkpt>
<trkpt lat="55.681934" lon="26.357958">
<ele>142.689575</ele>
<time>2010-07-18T09:33:17Z</time>
<desc>lat.=55.681934, lon.=26.357958, Alt.=142.689575m. Speed=15.264000m/h.</desc>
<speed>4.240000</speed>
</trkpt>
<trkpt lat="55.681942" lon="26.358027">
<ele>142.338013</ele>
<time>2010-07-18T09:33:18Z</time>
<desc>lat.=55.681942, lon.=26.358027, Alt.=142.338013m. Speed=13.500000m/h.</desc>
<speed>3.750000</speed>
</trkpt>
<trkpt lat="55.681965" lon="26.358105">
<ele>142.021606</ele>
<time>2010-07-18T09:33:19Z</time>
<desc>lat.=55.681965, lon.=26.358105, Alt.=142.021606m. Speed=19.080000m/h.</desc>
<speed>5.300000</speed>
</trkpt>
<trkpt lat="55.681999" lon="26.358204">
<ele>140.947388</ele>
<time>2010-07-18T09:33:20Z</time>
<desc>lat.=55.681999, lon.=26.358204, Alt.=140.947388m. Speed=19.728001m/h.</desc>
<speed>5.480000</speed>
</trkpt>
<trkpt lat="55.682022" lon="26.358282">
<ele>140.533325</ele>
<time>2010-07-18T09:33:21Z</time>
<desc>lat.=55.682022, lon.=26.358282, Alt.=140.533325m. Speed=17.388000m/h.</desc>
<speed>4.830000</speed>
</trkpt>
<trkpt lat="55.682049" lon="26.358366">
<ele>139.916138</ele>
<time>2010-07-18T09:33:22Z</time>
<desc>lat.=55.682049, lon.=26.358366, Alt.=139.916138m. Speed=18.864000m/h.</desc>
<speed>5.240000</speed>
</trkpt>
<trkpt lat="55.682083" lon="26.358438">
<ele>139.263794</ele>
<time>2010-07-18T09:33:23Z</time>
<desc>lat.=55.682083, lon.=26.358438, Alt.=139.263794m. Speed=18.900000m/h.</desc>
<speed>5.250000</speed>
</trkpt>
<trkpt lat="55.682106" lon="26.358521">
<ele>138.533325</ele>
<time>2010-07-18T09:33:24Z</time>
<desc>lat.=55.682106, lon.=26.358521, Alt.=138.533325m. Speed=19.691999m/h.</desc>
<speed>5.470000</speed>
</trkpt>
<trkpt lat="55.682129" lon="26.358606">
<ele>137.673950</ele>
<time>2010-07-18T09:33:25Z</time>
<desc>lat.=55.682129, lon.=26.358606, Alt.=137.673950m. Speed=19.476000m/h.</desc>
<speed>5.410000</speed>
</trkpt>
<trkpt lat="55.682159" lon="26.358702">
<ele>136.845825</ele>
<time>2010-07-18T09:33:26Z</time>
<desc>lat.=55.682159, lon.=26.358702, Alt.=136.845825m. Speed=21.240000m/h.</desc>
<speed>5.900000</speed>
</trkpt>
<trkpt lat="55.682194" lon="26.358805">
<ele>136.099731</ele>
<time>2010-07-18T09:33:27Z</time>
<desc>lat.=55.682194, lon.=26.358805, Alt.=136.099731m. Speed=21.672001m/h.</desc>
<speed>6.020000</speed>
</trkpt>
<trkpt lat="55.682217" lon="26.358904">
<ele>135.384888</ele>
<time>2010-07-18T09:33:28Z</time>
<desc>lat.=55.682217, lon.=26.358904, Alt.=135.384888m. Speed=23.148001m/h.</desc>
<speed>6.430000</speed>
</trkpt>
<trkpt lat="55.682240" lon="26.359009">
<ele>134.689575</ele>
<time>2010-07-18T09:33:29Z</time>
<desc>lat.=55.682240, lon.=26.359009, Alt.=134.689575m. Speed=25.200001m/h.</desc>
<speed>7.000000</speed>
</trkpt>
<trkpt lat="55.682274" lon="26.359144">
<ele>136.072388</ele>
<time>2010-07-18T09:33:30Z</time>
<desc>lat.=55.682274, lon.=26.359144, Alt.=136.072388m. Speed=26.459999m/h.</desc>
<speed>7.350000</speed>
</trkpt>
<trkpt lat="55.682308" lon="26.359257">
<ele>135.959106</ele>
<time>2010-07-18T09:33:31Z</time>
<desc>lat.=55.682308, lon.=26.359257, Alt.=135.959106m. Speed=25.667999m/h.</desc>
<speed>7.130000</speed>
</trkpt>
<trkpt lat="55.682339" lon="26.359365">
<ele>135.525513</ele>
<time>2010-07-18T09:33:32Z</time>
<desc>lat.=55.682339, lon.=26.359365, Alt.=135.525513m. Speed=28.152000m/h.</desc>
<speed>7.820000</speed>
</trkpt>
<trkpt lat="55.682373" lon="26.359484">
<ele>135.173950</ele>
<time>2010-07-18T09:33:33Z</time>
<desc>lat.=55.682373, lon.=26.359484, Alt.=135.173950m. Speed=29.483999m/h.</desc>
<speed>8.190000</speed>
</trkpt>
<trkpt lat="55.682400" lon="26.359606">
<ele>134.705200</ele>
<time>2010-07-18T09:33:34Z</time>
<desc>lat.=55.682400, lon.=26.359606, Alt.=134.705200m. Speed=30.384001m/h.</desc>
<speed>8.440000</speed>
</trkpt>
<trkpt lat="55.682442" lon="26.359760">
<ele>136.189575</ele>
<time>2010-07-18T09:33:35Z</time>
<desc>lat.=55.682442, lon.=26.359760, Alt.=136.189575m. Speed=30.492001m/h.</desc>
<speed>8.470000</speed>
</trkpt>
<trkpt lat="55.682468" lon="26.359901">
<ele>136.802856</ele>
<time>2010-07-18T09:33:36Z</time>
<desc>lat.=55.682468, lon.=26.359901, Alt.=136.802856m. Speed=30.563999m/h.</desc>
<speed>8.490000</speed>
</trkpt>
<trkpt lat="55.682495" lon="26.360035">
<ele>136.564575</ele>
<time>2010-07-18T09:33:37Z</time>
<desc>lat.=55.682495, lon.=26.360035, Alt.=136.564575m. Speed=31.032000m/h.</desc>
<speed>8.620000</speed>
</trkpt>
<trkpt lat="55.682518" lon="26.360174">
<ele>136.404419</ele>
<time>2010-07-18T09:33:38Z</time>
<desc>lat.=55.682518, lon.=26.360174, Alt.=136.404419m. Speed=32.256001m/h.</desc>
<speed>8.960000</speed>
</trkpt>
<trkpt lat="55.682552" lon="26.360308">
<ele>135.912231</ele>
<time>2010-07-18T09:33:39Z</time>
<desc>lat.=55.682552, lon.=26.360308, Alt.=135.912231m. Speed=32.616001m/h.</desc>
<speed>9.060000</speed>
</trkpt>
<trkpt lat="55.682583" lon="26.360445">
<ele>135.295044</ele>
<time>2010-07-18T09:33:40Z</time>
<desc>lat.=55.682583, lon.=26.360445, Alt.=135.295044m. Speed=32.796001m/h.</desc>
<speed>9.110000</speed>
</trkpt>
<trkpt lat="55.682606" lon="26.360603">
<ele>133.173950</ele>
<time>2010-07-18T09:33:41Z</time>
<desc>lat.=55.682606, lon.=26.360603, Alt.=133.173950m. Speed=33.984001m/h.</desc>
<speed>9.440000</speed>
</trkpt>
<trkpt lat="55.682644" lon="26.360746">
<ele>133.060669</ele>
<time>2010-07-18T09:33:42Z</time>
<desc>lat.=55.682644, lon.=26.360746, Alt.=133.060669m. Speed=34.776001m/h.</desc>
<speed>9.660000</speed>
</trkpt>
<trkpt lat="55.682678" lon="26.360891">
<ele>131.880981</ele>
<time>2010-07-18T09:33:43Z</time>
<desc>lat.=55.682678, lon.=26.360891, Alt.=131.880981m. Speed=35.568001m/h.</desc>
<speed>9.880000</speed>
</trkpt>
<trkpt lat="55.682716" lon="26.361036">
<ele>130.716919</ele>
<time>2010-07-18T09:33:44Z</time>
<desc>lat.=55.682716, lon.=26.361036, Alt.=130.716919m. Speed=35.855999m/h.</desc>
<speed>9.960000</speed>
</trkpt>
<trkpt lat="55.682747" lon="26.361185">
<ele>129.537231</ele>
<time>2010-07-18T09:33:45Z</time>
<desc>lat.=55.682747, lon.=26.361185, Alt.=129.537231m. Speed=36.360001m/h.</desc>
<speed>10.100000</speed>
</trkpt>
<trkpt lat="55.682781" lon="26.361334">
<ele>128.724731</ele>
<time>2010-07-18T09:33:46Z</time>
<desc>lat.=55.682781, lon.=26.361334, Alt.=128.724731m. Speed=36.720001m/h.</desc>
<speed>10.200000</speed>
</trkpt>
<trkpt lat="55.682819" lon="26.361481">
<ele>128.490356</ele>
<time>2010-07-18T09:33:47Z</time>
<desc>lat.=55.682819, lon.=26.361481, Alt.=128.490356m. Speed=36.000000m/h.</desc>
<speed>10.000000</speed>
</trkpt>
<trkpt lat="55.682854" lon="26.361626">
<ele>128.103638</ele>
<time>2010-07-18T09:33:48Z</time>
<desc>lat.=55.682854, lon.=26.361626, Alt.=128.103638m. Speed=36.216000m/h.</desc>
<speed>10.060000</speed>
</trkpt>
<trkpt lat="55.682888" lon="26.361773">
<ele>127.344788</ele>
<time>2010-07-18T09:33:49Z</time>
<desc>lat.=55.682888, lon.=26.361773, Alt.=127.344788m. Speed=35.532001m/h.</desc>
<speed>9.870000</speed>
</trkpt>
<trkpt lat="55.682922" lon="26.361914">
<ele>126.729553</ele>
<time>2010-07-18T09:33:50Z</time>
<desc>lat.=55.682922, lon.=26.361914, Alt.=126.729553m. Speed=35.208000m/h.</desc>
<speed>9.780000</speed>
</trkpt>
<trkpt lat="55.682957" lon="26.362059">
<ele>126.471741</ele>
<time>2010-07-18T09:33:51Z</time>
<desc>lat.=55.682957, lon.=26.362059, Alt.=126.471741m. Speed=34.919998m/h.</desc>
<speed>9.699999</speed>
</trkpt>
<trkpt lat="55.682983" lon="26.362206">
<ele>126.159241</ele>
<time>2010-07-18T09:33:52Z</time>
<desc>lat.=55.682983, lon.=26.362206, Alt.=126.159241m. Speed=34.560001m/h.</desc>
<speed>9.600000</speed>
</trkpt>
<trkpt lat="55.683014" lon="26.362347">
<ele>126.235413</ele>
<time>2010-07-18T09:33:53Z</time>
<desc>lat.=55.683014, lon.=26.362347, Alt.=126.235413m. Speed=34.416000m/h.</desc>
<speed>9.560000</speed>
</trkpt>
<trkpt lat="55.683048" lon="26.362488">
<ele>125.997131</ele>
<time>2010-07-18T09:33:54Z</time>
<desc>lat.=55.683048, lon.=26.362488, Alt.=125.997131m. Speed=33.299999m/h.</desc>
<speed>9.250000</speed>
</trkpt>
<trkpt lat="55.683083" lon="26.362625">
<ele>125.934631</ele>
<time>2010-07-18T09:33:55Z</time>
<desc>lat.=55.683083, lon.=26.362625, Alt.=125.934631m. Speed=32.688000m/h.</desc>
<speed>9.080000</speed>
</trkpt>
<trkpt lat="55.683132" lon="26.362764">
<ele>126.083069</ele>
<time>2010-07-18T09:33:56Z</time>
<desc>lat.=55.683132, lon.=26.362764, Alt.=126.083069m. Speed=32.832001m/h.</desc>
<speed>9.120000</speed>
</trkpt>
<trkpt lat="55.683167" lon="26.362890">
<ele>126.460022</ele>
<time>2010-07-18T09:33:57Z</time>
<desc>lat.=55.683167, lon.=26.362890, Alt.=126.460022m. Speed=30.563999m/h.</desc>
<speed>8.490000</speed>
</trkpt>
<trkpt lat="55.683197" lon="26.363014">
<ele>126.858459</ele>
<time>2010-07-18T09:33:58Z</time>
<desc>lat.=55.683197, lon.=26.363014, Alt.=126.858459m. Speed=29.304001m/h.</desc>
<speed>8.140000</speed>
</trkpt>
<trkpt lat="55.683224" lon="26.363134">
<ele>127.254944</ele>
<time>2010-07-18T09:33:59Z</time>
<desc>lat.=55.683224, lon.=26.363134, Alt.=127.254944m. Speed=28.620001m/h.</desc>
<speed>7.950000</speed>
</trkpt>
<trkpt lat="55.683254" lon="26.363262">
<ele>127.620178</ele>
<time>2010-07-18T09:34:00Z</time>
<desc>lat.=55.683254, lon.=26.363262, Alt.=127.620178m. Speed=28.872000m/h.</desc>
<speed>8.020000</speed>
</trkpt>
<trkpt lat="55.683300" lon="26.363392">
<ele>128.123169</ele>
<time>2010-07-18T09:34:01Z</time>
<desc>lat.=55.683300, lon.=26.363392, Alt.=128.123169m. Speed=28.908001m/h.</desc>
<speed>8.030000</speed>
</trkpt>
<trkpt lat="55.683346" lon="26.363520">
<ele>128.896606</ele>
<time>2010-07-18T09:34:02Z</time>
<desc>lat.=55.683346, lon.=26.363520, Alt.=128.896606m. Speed=29.016001m/h.</desc>
<speed>8.060000</speed>
</trkpt>
<trkpt lat="55.683380" lon="26.363644">
<ele>129.947388</ele>
<time>2010-07-18T09:34:03Z</time>
<desc>lat.=55.683380, lon.=26.363644, Alt.=129.947388m. Speed=27.684000m/h.</desc>
<speed>7.690000</speed>
</trkpt>
<trkpt lat="55.683399" lon="26.363771">
<ele>129.498169</ele>
<time>2010-07-18T09:34:04Z</time>
<desc>lat.=55.683399, lon.=26.363771, Alt.=129.498169m. Speed=26.243999m/h.</desc>
<speed>7.290000</speed>
</trkpt>
<trkpt lat="55.683437" lon="26.363878">
<ele>129.963013</ele>
<time>2010-07-18T09:34:05Z</time>
<desc>lat.=55.683437, lon.=26.363878, Alt.=129.963013m. Speed=25.884001m/h.</desc>
<speed>7.190000</speed>
</trkpt>
<trkpt lat="55.683472" lon="26.364012">
<ele>130.810669</ele>
<time>2010-07-18T09:34:06Z</time>
<desc>lat.=55.683472, lon.=26.364012, Alt.=130.810669m. Speed=26.172001m/h.</desc>
<speed>7.270000</speed>
</trkpt>
<trkpt lat="55.683495" lon="26.364128">
<ele>130.888794</ele>
<time>2010-07-18T09:34:07Z</time>
<desc>lat.=55.683495, lon.=26.364128, Alt.=130.888794m. Speed=24.948000m/h.</desc>
<speed>6.930000</speed>
</trkpt>
<trkpt lat="55.683517" lon="26.364229">
<ele>131.552856</ele>
<time>2010-07-18T09:34:08Z</time>
<desc>lat.=55.683517, lon.=26.364229, Alt.=131.552856m. Speed=24.660000m/h.</desc>
<speed>6.850000</speed>
</trkpt>
<trkpt lat="55.683548" lon="26.364336">
<ele>132.099731</ele>
<time>2010-07-18T09:34:09Z</time>
<desc>lat.=55.683548, lon.=26.364336, Alt.=132.099731m. Speed=24.156000m/h.</desc>
<speed>6.710000</speed>
</trkpt>
<trkpt lat="55.683575" lon="26.364439">
<ele>132.482544</ele>
<time>2010-07-18T09:34:10Z</time>
<desc>lat.=55.683575, lon.=26.364439, Alt.=132.482544m. Speed=23.868000m/h.</desc>
<speed>6.630000</speed>
</trkpt>
<trkpt lat="55.683605" lon="26.364536">
<ele>132.607544</ele>
<time>2010-07-18T09:34:11Z</time>
<desc>lat.=55.683605, lon.=26.364536, Alt.=132.607544m. Speed=23.148001m/h.</desc>
<speed>6.430000</speed>
</trkpt>
<trkpt lat="55.683628" lon="26.364634">
<ele>132.869263</ele>
<time>2010-07-18T09:34:12Z</time>
<desc>lat.=55.683628, lon.=26.364634, Alt.=132.869263m. Speed=22.752001m/h.</desc>
<speed>6.320000</speed>
</trkpt>
<trkpt lat="55.683659" lon="26.364727">
<ele>134.009888</ele>
<time>2010-07-18T09:34:13Z</time>
<desc>lat.=55.683659, lon.=26.364727, Alt.=134.009888m. Speed=22.788000m/h.</desc>
<speed>6.330000</speed>
</trkpt>
<trkpt lat="55.683693" lon="26.364826">
<ele>135.439575</ele>
<time>2010-07-18T09:34:14Z</time>
<desc>lat.=55.683693, lon.=26.364826, Alt.=135.439575m. Speed=22.608000m/h.</desc>
<speed>6.280000</speed>
</trkpt>
<trkpt lat="55.683716" lon="26.364922">
<ele>135.877075</ele>
<time>2010-07-18T09:34:15Z</time>
<desc>lat.=55.683716, lon.=26.364922, Alt.=135.877075m. Speed=22.139999m/h.</desc>
<speed>6.150000</speed>
</trkpt>
<trkpt lat="55.683746" lon="26.365007">
<ele>137.232544</ele>
<time>2010-07-18T09:34:16Z</time>
<desc>lat.=55.683746, lon.=26.365007, Alt.=137.232544m. Speed=20.808001m/h.</desc>
<speed>5.780000</speed>
</trkpt>
<trkpt lat="55.683769" lon="26.365082">
<ele>137.814575</ele>
<time>2010-07-18T09:34:17Z</time>
<desc>lat.=55.683769, lon.=26.365082, Alt.=137.814575m. Speed=19.511999m/h.</desc>
<speed>5.420000</speed>
</trkpt>
<trkpt lat="55.683796" lon="26.365158">
<ele>138.677856</ele>
<time>2010-07-18T09:34:18Z</time>
<desc>lat.=55.683796, lon.=26.365158, Alt.=138.677856m. Speed=19.044001m/h.</desc>
<speed>5.290000</speed>
</trkpt>
<trkpt lat="55.683826" lon="26.365240">
<ele>139.927856</ele>
<time>2010-07-18T09:34:19Z</time>
<desc>lat.=55.683826, lon.=26.365240, Alt.=139.927856m. Speed=18.360001m/h.</desc>
<speed>5.100000</speed>
</trkpt>
<trkpt lat="55.683846" lon="26.365311">
<ele>139.627075</ele>
<time>2010-07-18T09:34:20Z</time>
<desc>lat.=55.683846, lon.=26.365311, Alt.=139.627075m. Speed=17.424000m/h.</desc>
<speed>4.840000</speed>
</trkpt>
<trkpt lat="55.683865" lon="26.365383">
<ele>139.869263</ele>
<time>2010-07-18T09:34:21Z</time>
<desc>lat.=55.683865, lon.=26.365383, Alt.=139.869263m. Speed=16.775999m/h.</desc>
<speed>4.660000</speed>
</trkpt>
<trkpt lat="55.683880" lon="26.365454">
<ele>139.193481</ele>
<time>2010-07-18T09:34:22Z</time>
<desc>lat.=55.683880, lon.=26.365454, Alt.=139.193481m. Speed=16.308001m/h.</desc>
<speed>4.530000</speed>
</trkpt>
<trkpt lat="55.683891" lon="26.365517">
<ele>138.486450</ele>
<time>2010-07-18T09:34:23Z</time>
<desc>lat.=55.683891, lon.=26.365517, Alt.=138.486450m. Speed=16.848000m/h.</desc>
<speed>4.680000</speed>
</trkpt>
<trkpt lat="55.683918" lon="26.365585">
<ele>139.107544</ele>
<time>2010-07-18T09:34:24Z</time>
<desc>lat.=55.683918, lon.=26.365585, Alt.=139.107544m. Speed=16.379999m/h.</desc>
<speed>4.550000</speed>
</trkpt>
<trkpt lat="55.683937" lon="26.365650">
<ele>139.517700</ele>
<time>2010-07-18T09:34:25Z</time>
<desc>lat.=55.683937, lon.=26.365650, Alt.=139.517700m. Speed=16.416000m/h.</desc>
<speed>4.560000</speed>
</trkpt>
<trkpt lat="55.683964" lon="26.365717">
<ele>140.107544</ele>
<time>2010-07-18T09:34:26Z</time>
<desc>lat.=55.683964, lon.=26.365717, Alt.=140.107544m. Speed=16.704000m/h.</desc>
<speed>4.640000</speed>
</trkpt>
<trkpt lat="55.683990" lon="26.365784">
<ele>141.025513</ele>
<time>2010-07-18T09:34:27Z</time>
<desc>lat.=55.683990, lon.=26.365784, Alt.=141.025513m. Speed=16.920000m/h.</desc>
<speed>4.700000</speed>
</trkpt>
<trkpt lat="55.684025" lon="26.365849">
<ele>141.912231</ele>
<time>2010-07-18T09:34:28Z</time>
<desc>lat.=55.684025, lon.=26.365849, Alt.=141.912231m. Speed=17.496000m/h.</desc>
<speed>4.860000</speed>
</trkpt>
<trkpt lat="55.684044" lon="26.365931">
<ele>141.990356</ele>
<time>2010-07-18T09:34:29Z</time>
<desc>lat.=55.684044, lon.=26.365931, Alt.=141.990356m. Speed=18.180000m/h.</desc>
<speed>5.050000</speed>
</trkpt>
<trkpt lat="55.684063" lon="26.366007">
<ele>141.888794</ele>
<time>2010-07-18T09:34:30Z</time>
<desc>lat.=55.684063, lon.=26.366007, Alt.=141.888794m. Speed=18.756001m/h.</desc>
<speed>5.210000</speed>
</trkpt>
<trkpt lat="55.684082" lon="26.366087">
<ele>141.814575</ele>
<time>2010-07-18T09:34:31Z</time>
<desc>lat.=55.684082, lon.=26.366087, Alt.=141.814575m. Speed=19.332001m/h.</desc>
<speed>5.370000</speed>
</trkpt>
<trkpt lat="55.684101" lon="26.366175">
<ele>141.529419</ele>
<time>2010-07-18T09:34:32Z</time>
<desc>lat.=55.684101, lon.=26.366175, Alt.=141.529419m. Speed=20.052000m/h.</desc>
<speed>5.570000</speed>
</trkpt>
<trkpt lat="55.684124" lon="26.366262">
<ele>141.154419</ele>
<time>2010-07-18T09:34:33Z</time>
<desc>lat.=55.684124, lon.=26.366262, Alt.=141.154419m. Speed=20.520000m/h.</desc>
<speed>5.700000</speed>
</trkpt>
<trkpt lat="55.684139" lon="26.366346">
<ele>141.236450</ele>
<time>2010-07-18T09:34:34Z</time>
<desc>lat.=55.684139, lon.=26.366346, Alt.=141.236450m. Speed=20.591999m/h.</desc>
<speed>5.720000</speed>
</trkpt>
<trkpt lat="55.684158" lon="26.366434">
<ele>141.279419</ele>
<time>2010-07-18T09:34:35Z</time>
<desc>lat.=55.684158, lon.=26.366434, Alt.=141.279419m. Speed=21.420000m/h.</desc>
<speed>5.950000</speed>
</trkpt>
<trkpt lat="55.684177" lon="26.366522">
<ele>141.041138</ele>
<time>2010-07-18T09:34:36Z</time>
<desc>lat.=55.684177, lon.=26.366522, Alt.=141.041138m. Speed=21.708000m/h.</desc>
<speed>6.030000</speed>
</trkpt>
<trkpt lat="55.684196" lon="26.366611">
<ele>140.713013</ele>
<time>2010-07-18T09:34:37Z</time>
<desc>lat.=55.684196, lon.=26.366611, Alt.=140.713013m. Speed=22.823999m/h.</desc>
<speed>6.340000</speed>
</trkpt>
<trkpt lat="55.684219" lon="26.366713">
<ele>140.502075</ele>
<time>2010-07-18T09:34:38Z</time>
<desc>lat.=55.684219, lon.=26.366713, Alt.=140.502075m. Speed=24.048000m/h.</desc>
<speed>6.680000</speed>
</trkpt>
<trkpt lat="55.684242" lon="26.366810">
<ele>140.548950</ele>
<time>2010-07-18T09:34:39Z</time>
<desc>lat.=55.684242, lon.=26.366810, Alt.=140.548950m. Speed=24.156000m/h.</desc>
<speed>6.710000</speed>
</trkpt>
<trkpt lat="55.684269" lon="26.366901">
<ele>140.423950</ele>
<time>2010-07-18T09:34:40Z</time>
<desc>lat.=55.684269, lon.=26.366901, Alt.=140.423950m. Speed=23.004000m/h.</desc>
<speed>6.390000</speed>
</trkpt>
<trkpt lat="55.684296" lon="26.367002">
<ele>139.994263</ele>
<time>2010-07-18T09:34:41Z</time>
<desc>lat.=55.684296, lon.=26.367002, Alt.=139.994263m. Speed=23.868000m/h.</desc>
<speed>6.630000</speed>
</trkpt>
<trkpt lat="55.684319" lon="26.367105">
<ele>139.630981</ele>
<time>2010-07-18T09:34:42Z</time>
<desc>lat.=55.684319, lon.=26.367105, Alt.=139.630981m. Speed=24.372000m/h.</desc>
<speed>6.770000</speed>
</trkpt>
<trkpt lat="55.684341" lon="26.367208">
<ele>139.494263</ele>
<time>2010-07-18T09:34:43Z</time>
<desc>lat.=55.684341, lon.=26.367208, Alt.=139.494263m. Speed=24.228001m/h.</desc>
<speed>6.730000</speed>
</trkpt>
<trkpt lat="55.684364" lon="26.367310">
<ele>139.275513</ele>
<time>2010-07-18T09:34:44Z</time>
<desc>lat.=55.684364, lon.=26.367310, Alt.=139.275513m. Speed=25.128000m/h.</desc>
<speed>6.980000</speed>
</trkpt>
<trkpt lat="55.684391" lon="26.367411">
<ele>139.197388</ele>
<time>2010-07-18T09:34:45Z</time>
<desc>lat.=55.684391, lon.=26.367411, Alt.=139.197388m. Speed=25.379999m/h.</desc>
<speed>7.050000</speed>
</trkpt>
<trkpt lat="55.684414" lon="26.367517">
<ele>139.349731</ele>
<time>2010-07-18T09:34:46Z</time>
<desc>lat.=55.684414, lon.=26.367517, Alt.=139.349731m. Speed=25.091999m/h.</desc>
<speed>6.970000</speed>
</trkpt>
<trkpt lat="55.684437" lon="26.367615">
<ele>139.572388</ele>
<time>2010-07-18T09:34:47Z</time>
<desc>lat.=55.684437, lon.=26.367615, Alt.=139.572388m. Speed=24.191999m/h.</desc>
<speed>6.720000</speed>
</trkpt>
<trkpt lat="55.684471" lon="26.367676">
<ele>140.728638</ele>
<time>2010-07-18T09:34:48Z</time>
<desc>lat.=55.684471, lon.=26.367676, Alt.=140.728638m. Speed=22.427999m/h.</desc>
<speed>6.230000</speed>
</trkpt>
<trkpt lat="55.684494" lon="26.367764">
<ele>141.076294</ele>
<time>2010-07-18T09:34:49Z</time>
<desc>lat.=55.684494, lon.=26.367764, Alt.=141.076294m. Speed=22.427999m/h.</desc>
<speed>6.230000</speed>
</trkpt>
<trkpt lat="55.684505" lon="26.367870">
<ele>140.963013</ele>
<time>2010-07-18T09:34:50Z</time>
<desc>lat.=55.684505, lon.=26.367870, Alt.=140.963013m. Speed=24.299999m/h.</desc>
<speed>6.750000</speed>
</trkpt>
<trkpt lat="55.684505" lon="26.367983">
<ele>140.556763</ele>
<time>2010-07-18T09:34:51Z</time>
<desc>lat.=55.684505, lon.=26.367983, Alt.=140.556763m. Speed=24.156000m/h.</desc>
<speed>6.710000</speed>
</trkpt>
<trkpt lat="55.684505" lon="26.368086">
<ele>140.396606</ele>
<time>2010-07-18T09:34:52Z</time>
<desc>lat.=55.684505, lon.=26.368086, Alt.=140.396606m. Speed=22.968000m/h.</desc>
<speed>6.380000</speed>
</trkpt>
<trkpt lat="55.684509" lon="26.368187">
<ele>140.306763</ele>
<time>2010-07-18T09:34:53Z</time>
<desc>lat.=55.684509, lon.=26.368187, Alt.=140.306763m. Speed=23.112000m/h.</desc>
<speed>6.420000</speed>
</trkpt>
<trkpt lat="55.684505" lon="26.368296">
<ele>140.295044</ele>
<time>2010-07-18T09:34:54Z</time>
<desc>lat.=55.684505, lon.=26.368296, Alt.=140.295044m. Speed=23.472000m/h.</desc>
<speed>6.520000</speed>
</trkpt>
<trkpt lat="55.684505" lon="26.368401">
<ele>139.939575</ele>
<time>2010-07-18T09:34:55Z</time>
<desc>lat.=55.684505, lon.=26.368401, Alt.=139.939575m. Speed=22.823999m/h.</desc>
<speed>6.340000</speed>
</trkpt>
<trkpt lat="55.684517" lon="26.368509">
<ele>139.943481</ele>
<time>2010-07-18T09:34:56Z</time>
<desc>lat.=55.684517, lon.=26.368509, Alt.=139.943481m. Speed=22.608000m/h.</desc>
<speed>6.280000</speed>
</trkpt>
<trkpt lat="55.684536" lon="26.368614">
<ele>139.654419</ele>
<time>2010-07-18T09:34:57Z</time>
<desc>lat.=55.684536, lon.=26.368614, Alt.=139.654419m. Speed=22.320000m/h.</desc>
<speed>6.200000</speed>
</trkpt>
<trkpt lat="55.684540" lon="26.368713">
<ele>139.396606</ele>
<time>2010-07-18T09:34:58Z</time>
<desc>lat.=55.684540, lon.=26.368713, Alt.=139.396606m. Speed=21.420000m/h.</desc>
<speed>5.950000</speed>
</trkpt>
<trkpt lat="55.684540" lon="26.368813">
<ele>139.197388</ele>
<time>2010-07-18T09:34:59Z</time>
<desc>lat.=55.684540, lon.=26.368813, Alt.=139.197388m. Speed=21.204000m/h.</desc>
<speed>5.890000</speed>
</trkpt>
<trkpt lat="55.684532" lon="26.368912">
<ele>138.724731</ele>
<time>2010-07-18T09:35:00Z</time>
<desc>lat.=55.684532, lon.=26.368912, Alt.=138.724731m. Speed=20.808001m/h.</desc>
<speed>5.780000</speed>
</trkpt>
<trkpt lat="55.684532" lon="26.369005">
<ele>138.380981</ele>
<time>2010-07-18T09:35:01Z</time>
<desc>lat.=55.684532, lon.=26.369005, Alt.=138.380981m. Speed=20.195999m/h.</desc>
<speed>5.610000</speed>
</trkpt>
<trkpt lat="55.684517" lon="26.369102">
<ele>138.138794</ele>
<time>2010-07-18T09:35:02Z</time>
<desc>lat.=55.684517, lon.=26.369102, Alt.=138.138794m. Speed=21.059999m/h.</desc>
<speed>5.850000</speed>
</trkpt>
<trkpt lat="55.684505" lon="26.369186">
<ele>138.002075</ele>
<time>2010-07-18T09:35:03Z</time>
<desc>lat.=55.684505, lon.=26.369186, Alt.=138.002075m. Speed=19.296000m/h.</desc>
<speed>5.360000</speed>
</trkpt>
<trkpt lat="55.684494" lon="26.369274">
<ele>138.056763</ele>
<time>2010-07-18T09:35:04Z</time>
<desc>lat.=55.684494, lon.=26.369274, Alt.=138.056763m. Speed=19.080000m/h.</desc>
<speed>5.300000</speed>
</trkpt>
<trkpt lat="55.684486" lon="26.369364">
<ele>137.627075</ele>
<time>2010-07-18T09:35:05Z</time>
<desc>lat.=55.684486, lon.=26.369364, Alt.=137.627075m. Speed=20.340000m/h.</desc>
<speed>5.650000</speed>
</trkpt>
<trkpt lat="55.684464" lon="26.369453">
<ele>137.838013</ele>
<time>2010-07-18T09:35:06Z</time>
<desc>lat.=55.684464, lon.=26.369453, Alt.=137.838013m. Speed=20.016001m/h.</desc>
<speed>5.560000</speed>
</trkpt>
<trkpt lat="55.684441" lon="26.369541">
<ele>137.560669</ele>
<time>2010-07-18T09:35:07Z</time>
<desc>lat.=55.684441, lon.=26.369541, Alt.=137.560669m. Speed=24.444000m/h.</desc>
<speed>6.790000</speed>
</trkpt>
<trkpt lat="55.684422" lon="26.369633">
<ele>137.123169</ele>
<time>2010-07-18T09:35:08Z</time>
<desc>lat.=55.684422, lon.=26.369633, Alt.=137.123169m. Speed=20.124001m/h.</desc>
<speed>5.590000</speed>
</trkpt>
<trkpt lat="55.684410" lon="26.369719">
<ele>136.615356</ele>
<time>2010-07-18T09:35:09Z</time>
<desc>lat.=55.684410, lon.=26.369719, Alt.=136.615356m. Speed=18.396000m/h.</desc>
<speed>5.110000</speed>
</trkpt>
<trkpt lat="55.684402" lon="26.369801">
<ele>136.205200</ele>
<time>2010-07-18T09:35:10Z</time>
<desc>lat.=55.684402, lon.=26.369801, Alt.=136.205200m. Speed=17.892000m/h.</desc>
<speed>4.970000</speed>
</trkpt>
<trkpt lat="55.684387" lon="26.369881">
<ele>135.509888</ele>
<time>2010-07-18T09:35:11Z</time>
<desc>lat.=55.684387, lon.=26.369881, Alt.=135.509888m. Speed=17.424000m/h.</desc>
<speed>4.840000</speed>
</trkpt>
<trkpt lat="55.684376" lon="26.369965">
<ele>133.658325</ele>
<time>2010-07-18T09:35:12Z</time>
<desc>lat.=55.684376, lon.=26.369965, Alt.=133.658325m. Speed=16.992001m/h.</desc>
<speed>4.720000</speed>
</trkpt>
<trkpt lat="55.684368" lon="26.370037">
<ele>133.029419</ele>
<time>2010-07-18T09:35:13Z</time>
<desc>lat.=55.684368, lon.=26.370037, Alt.=133.029419m. Speed=14.940000m/h.</desc>
<speed>4.150000</speed>
</trkpt>
<trkpt lat="55.684364" lon="26.370106">
<ele>132.470825</ele>
<time>2010-07-18T09:35:14Z</time>
<desc>lat.=55.684364, lon.=26.370106, Alt.=132.470825m. Speed=13.572000m/h.</desc>
<speed>3.770000</speed>
</trkpt>
<trkpt lat="55.684361" lon="26.370171">
<ele>131.998169</ele>
<time>2010-07-18T09:35:15Z</time>
<desc>lat.=55.684361, lon.=26.370171, Alt.=131.998169m. Speed=13.356000m/h.</desc>
<speed>3.710000</speed>
</trkpt>
<trkpt lat="55.684353" lon="26.370235">
<ele>131.474731</ele>
<time>2010-07-18T09:35:16Z</time>
<desc>lat.=55.684353, lon.=26.370235, Alt.=131.474731m. Speed=13.356000m/h.</desc>
<speed>3.710000</speed>
</trkpt>
<trkpt lat="55.684364" lon="26.370296">
<ele>132.255981</ele>
<time>2010-07-18T09:35:17Z</time>
<desc>lat.=55.684364, lon.=26.370296, Alt.=132.255981m. Speed=10.404000m/h.</desc>
<speed>2.890000</speed>
</trkpt>
<trkpt lat="55.684361" lon="26.370344">
<ele>131.427856</ele>
<time>2010-07-18T09:35:18Z</time>
<desc>lat.=55.684361, lon.=26.370344, Alt.=131.427856m. Speed=10.008000m/h.</desc>
<speed>2.780000</speed>
</trkpt>
<trkpt lat="55.684357" lon="26.370386">
<ele>130.931763</ele>
<time>2010-07-18T09:35:19Z</time>
<desc>lat.=55.684357, lon.=26.370386, Alt.=130.931763m. Speed=8.820000m/h.</desc>
<speed>2.450000</speed>
</trkpt>
<trkpt lat="55.684353" lon="26.370428">
<ele>130.486450</ele>
<time>2010-07-18T09:35:20Z</time>
<desc>lat.=55.684353, lon.=26.370428, Alt.=130.486450m. Speed=9.000000m/h.</desc>
<speed>2.500000</speed>
</trkpt>
<trkpt lat="55.684353" lon="26.370474">
<ele>130.521606</ele>
<time>2010-07-18T09:35:21Z</time>
<desc>lat.=55.684353, lon.=26.370474, Alt.=130.521606m. Speed=9.612000m/h.</desc>
<speed>2.670000</speed>
</trkpt>
<trkpt lat="55.684364" lon="26.370506">
<ele>130.287231</ele>
<time>2010-07-18T09:35:22Z</time>
<desc>lat.=55.684364, lon.=26.370506, Alt.=130.287231m. Speed=10.548000m/h.</desc>
<speed>2.930000</speed>
</trkpt>
<trkpt lat="55.684372" lon="26.370548">
<ele>130.338013</ele>
<time>2010-07-18T09:35:23Z</time>
<desc>lat.=55.684372, lon.=26.370548, Alt.=130.338013m. Speed=8.352000m/h.</desc>
<speed>2.320000</speed>
</trkpt>
<trkpt lat="55.684372" lon="26.370592">
<ele>130.146606</ele>
<time>2010-07-18T09:35:24Z</time>
<desc>lat.=55.684372, lon.=26.370592, Alt.=130.146606m. Speed=9.396000m/h.</desc>
<speed>2.610000</speed>
</trkpt>
<trkpt lat="55.684368" lon="26.370642">
<ele>130.732544</ele>
<time>2010-07-18T09:35:25Z</time>
<desc>lat.=55.684368, lon.=26.370642, Alt.=130.732544m. Speed=10.440000m/h.</desc>
<speed>2.900000</speed>
</trkpt>
<trkpt lat="55.684357" lon="26.370687">
<ele>130.654419</ele>
<time>2010-07-18T09:35:26Z</time>
<desc>lat.=55.684357, lon.=26.370687, Alt.=130.654419m. Speed=10.944000m/h.</desc>
<speed>3.040000</speed>
</trkpt>
<trkpt lat="55.684345" lon="26.370739">
<ele>130.502075</ele>
<time>2010-07-18T09:35:27Z</time>
<desc>lat.=55.684345, lon.=26.370739, Alt.=130.502075m. Speed=12.708000m/h.</desc>
<speed>3.530000</speed>
</trkpt>
<trkpt lat="55.684334" lon="26.370781">
<ele>131.931763</ele>
<time>2010-07-18T09:35:28Z</time>
<desc>lat.=55.684334, lon.=26.370781, Alt.=131.931763m. Speed=10.728000m/h.</desc>
<speed>2.980000</speed>
</trkpt>
<trkpt lat="55.684334" lon="26.370836">
<ele>132.877075</ele>
<time>2010-07-18T09:35:29Z</time>
<desc>lat.=55.684334, lon.=26.370836, Alt.=132.877075m. Speed=11.880000m/h.</desc>
<speed>3.300000</speed>
</trkpt>
<trkpt lat="55.684322" lon="26.370886">
<ele>133.162231</ele>
<time>2010-07-18T09:35:30Z</time>
<desc>lat.=55.684322, lon.=26.370886, Alt.=133.162231m. Speed=12.888000m/h.</desc>
<speed>3.580000</speed>
</trkpt>
<trkpt lat="55.684311" lon="26.370949">
<ele>132.900513</ele>
<time>2010-07-18T09:35:31Z</time>
<desc>lat.=55.684311, lon.=26.370949, Alt.=132.900513m. Speed=14.076000m/h.</desc>
<speed>3.910000</speed>
</trkpt>
<trkpt lat="55.684296" lon="26.371010">
<ele>132.767700</ele>
<time>2010-07-18T09:35:32Z</time>
<desc>lat.=55.684296, lon.=26.371010, Alt.=132.767700m. Speed=14.508000m/h.</desc>
<speed>4.030000</speed>
</trkpt>
<trkpt lat="55.684288" lon="26.371078">
<ele>132.048950</ele>
<time>2010-07-18T09:35:33Z</time>
<desc>lat.=55.684288, lon.=26.371078, Alt.=132.048950m. Speed=14.472000m/h.</desc>
<speed>4.020000</speed>
</trkpt>
<trkpt lat="55.684277" lon="26.371134">
<ele>132.787231</ele>
<time>2010-07-18T09:35:34Z</time>
<desc>lat.=55.684277, lon.=26.371134, Alt.=132.787231m. Speed=14.796000m/h.</desc>
<speed>4.110000</speed>
</trkpt>
<trkpt lat="55.684258" lon="26.371189">
<ele>133.935669</ele>
<time>2010-07-18T09:35:35Z</time>
<desc>lat.=55.684258, lon.=26.371189, Alt.=133.935669m. Speed=15.300000m/h.</desc>
<speed>4.250000</speed>
</trkpt>
<trkpt lat="55.684242" lon="26.371250">
<ele>134.166138</ele>
<time>2010-07-18T09:35:36Z</time>
<desc>lat.=55.684242, lon.=26.371250, Alt.=134.166138m. Speed=14.580000m/h.</desc>
<speed>4.050000</speed>
</trkpt>
<trkpt lat="55.684231" lon="26.371313">
<ele>134.302856</ele>
<time>2010-07-18T09:35:37Z</time>
<desc>lat.=55.684231, lon.=26.371313, Alt.=134.302856m. Speed=15.192000m/h.</desc>
<speed>4.220000</speed>
</trkpt>
<trkpt lat="55.684231" lon="26.371384">
<ele>134.927856</ele>
<time>2010-07-18T09:35:38Z</time>
<desc>lat.=55.684231, lon.=26.371384, Alt.=134.927856m. Speed=14.112000m/h.</desc>
<speed>3.920000</speed>
</trkpt>
<trkpt lat="55.684238" lon="26.371447">
<ele>134.459106</ele>
<time>2010-07-18T09:35:39Z</time>
<desc>lat.=55.684238, lon.=26.371447, Alt.=134.459106m. Speed=13.320000m/h.</desc>
<speed>3.700000</speed>
</trkpt>
<trkpt lat="55.684242" lon="26.371508">
<ele>134.580200</ele>
<time>2010-07-18T09:35:40Z</time>
<desc>lat.=55.684242, lon.=26.371508, Alt.=134.580200m. Speed=12.816000m/h.</desc>
<speed>3.560000</speed>
</trkpt>
<trkpt lat="55.684235" lon="26.371565">
<ele>134.595825</ele>
<time>2010-07-18T09:35:41Z</time>
<desc>lat.=55.684235, lon.=26.371565, Alt.=134.595825m. Speed=13.536000m/h.</desc>
<speed>3.760000</speed>
</trkpt>
<trkpt lat="55.684223" lon="26.371643">
<ele>133.584106</ele>
<time>2010-07-18T09:35:42Z</time>
<desc>lat.=55.684223, lon.=26.371643, Alt.=133.584106m. Speed=16.271999m/h.</desc>
<speed>4.520000</speed>
</trkpt>
<trkpt lat="55.684216" lon="26.371706">
<ele>134.193481</ele>
<time>2010-07-18T09:35:43Z</time>
<desc>lat.=55.684216, lon.=26.371706, Alt.=134.193481m. Speed=14.076000m/h.</desc>
<speed>3.910000</speed>
</trkpt>
<trkpt lat="55.684219" lon="26.371778">
<ele>133.927856</ele>
<time>2010-07-18T09:35:44Z</time>
<desc>lat.=55.684219, lon.=26.371778, Alt.=133.927856m. Speed=14.364000m/h.</desc>
<speed>3.990000</speed>
</trkpt>
<trkpt lat="55.684196" lon="26.371861">
<ele>132.884888</ele>
<time>2010-07-18T09:35:45Z</time>
<desc>lat.=55.684196, lon.=26.371861, Alt.=132.884888m. Speed=18.323999m/h.</desc>
<speed>5.090000</speed>
</trkpt>
<trkpt lat="55.684174" lon="26.371943">
<ele>132.185669</ele>
<time>2010-07-18T09:35:46Z</time>
<desc>lat.=55.684174, lon.=26.371943, Alt.=132.185669m. Speed=18.360001m/h.</desc>
<speed>5.100000</speed>
</trkpt>
<trkpt lat="55.684155" lon="26.372028">
<ele>131.877075</ele>
<time>2010-07-18T09:35:47Z</time>
<desc>lat.=55.684155, lon.=26.372028, Alt.=131.877075m. Speed=17.856001m/h.</desc>
<speed>4.960000</speed>
</trkpt>
<trkpt lat="55.684139" lon="26.372118">
<ele>131.502075</ele>
<time>2010-07-18T09:35:48Z</time>
<desc>lat.=55.684139, lon.=26.372118, Alt.=131.502075m. Speed=17.351999m/h.</desc>
<speed>4.820000</speed>
</trkpt>
<trkpt lat="55.684120" lon="26.372192">
<ele>131.373169</ele>
<time>2010-07-18T09:35:49Z</time>
<desc>lat.=55.684120, lon.=26.372192, Alt.=131.373169m. Speed=18.108000m/h.</desc>
<speed>5.030000</speed>
</trkpt>
<trkpt lat="55.684113" lon="26.372271">
<ele>131.572388</ele>
<time>2010-07-18T09:35:50Z</time>
<desc>lat.=55.684113, lon.=26.372271, Alt.=131.572388m. Speed=14.184000m/h.</desc>
<speed>3.940000</speed>
</trkpt>
<trkpt lat="55.684116" lon="26.372345">
<ele>131.822388</ele>
<time>2010-07-18T09:35:51Z</time>
<desc>lat.=55.684116, lon.=26.372345, Alt.=131.822388m. Speed=13.356000m/h.</desc>
<speed>3.710000</speed>
</trkpt>
<trkpt lat="55.684105" lon="26.372406">
<ele>131.806763</ele>
<time>2010-07-18T09:35:52Z</time>
<desc>lat.=55.684105, lon.=26.372406, Alt.=131.806763m. Speed=12.240000m/h.</desc>
<speed>3.400000</speed>
</trkpt>
<trkpt lat="55.684093" lon="26.372461">
<ele>131.982544</ele>
<time>2010-07-18T09:35:53Z</time>
<desc>lat.=55.684093, lon.=26.372461, Alt.=131.982544m. Speed=12.600000m/h.</desc>
<speed>3.500000</speed>
</trkpt>
<trkpt lat="55.684086" lon="26.372515">
<ele>132.041138</ele>
<time>2010-07-18T09:35:54Z</time>
<desc>lat.=55.684086, lon.=26.372515, Alt.=132.041138m. Speed=10.944000m/h.</desc>
<speed>3.040000</speed>
</trkpt>
<trkpt lat="55.684078" lon="26.372564">
<ele>131.744263</ele>
<time>2010-07-18T09:35:55Z</time>
<desc>lat.=55.684078, lon.=26.372564, Alt.=131.744263m. Speed=10.296000m/h.</desc>
<speed>2.860000</speed>
</trkpt>
<trkpt lat="55.684071" lon="26.372616">
<ele>131.459106</ele>
<time>2010-07-18T09:35:56Z</time>
<desc>lat.=55.684071, lon.=26.372616, Alt.=131.459106m. Speed=9.792000m/h.</desc>
<speed>2.720000</speed>
</trkpt>
<trkpt lat="55.684067" lon="26.372662">
<ele>131.095825</ele>
<time>2010-07-18T09:35:57Z</time>
<desc>lat.=55.684067, lon.=26.372662, Alt.=131.095825m. Speed=9.576000m/h.</desc>
<speed>2.660000</speed>
</trkpt>
<trkpt lat="55.684059" lon="26.372702">
<ele>130.466919</ele>
<time>2010-07-18T09:35:58Z</time>
<desc>lat.=55.684059, lon.=26.372702, Alt.=130.466919m. Speed=9.072000m/h.</desc>
<speed>2.520000</speed>
</trkpt>
<trkpt lat="55.684052" lon="26.372746">
<ele>130.177856</ele>
<time>2010-07-18T09:35:59Z</time>
<desc>lat.=55.684052, lon.=26.372746, Alt.=130.177856m. Speed=7.884000m/h.</desc>
<speed>2.190000</speed>
</trkpt>
<trkpt lat="55.684044" lon="26.372787">
<ele>130.181763</ele>
<time>2010-07-18T09:36:00Z</time>
<desc>lat.=55.684044, lon.=26.372787, Alt.=130.181763m. Speed=7.380000m/h.</desc>
<speed>2.050000</speed>
</trkpt>
<trkpt lat="55.684040" lon="26.372818">
<ele>130.552856</ele>
<time>2010-07-18T09:36:01Z</time>
<desc>lat.=55.684040, lon.=26.372818, Alt.=130.552856m. Speed=6.876000m/h.</desc>
<speed>1.910000</speed>
</trkpt>
<trkpt lat="55.684032" lon="26.372852">
<ele>130.923950</ele>
<time>2010-07-18T09:36:02Z</time>
<desc>lat.=55.684032, lon.=26.372852, Alt.=130.923950m. Speed=7.416000m/h.</desc>
<speed>2.060000</speed>
</trkpt>
<trkpt lat="55.684017" lon="26.372892">
<ele>131.002075</ele>
<time>2010-07-18T09:36:03Z</time>
<desc>lat.=55.684017, lon.=26.372892, Alt.=131.002075m. Speed=7.128000m/h.</desc>
<speed>1.980000</speed>
</trkpt>
<trkpt lat="55.684002" lon="26.372921">
<ele>131.295044</ele>
<time>2010-07-18T09:36:04Z</time>
<desc>lat.=55.684002, lon.=26.372921, Alt.=131.295044m. Speed=6.804000m/h.</desc>
<speed>1.890000</speed>
</trkpt>
<trkpt lat="55.683994" lon="26.372955">
<ele>131.744263</ele>
<time>2010-07-18T09:36:05Z</time>
<desc>lat.=55.683994, lon.=26.372955, Alt.=131.744263m. Speed=7.092000m/h.</desc>
<speed>1.970000</speed>
</trkpt>
<trkpt lat="55.683983" lon="26.372992">
<ele>132.295044</ele>
<time>2010-07-18T09:36:06Z</time>
<desc>lat.=55.683983, lon.=26.372992, Alt.=132.295044m. Speed=8.136000m/h.</desc>
<speed>2.260000</speed>
</trkpt>
<trkpt lat="55.683975" lon="26.373022">
<ele>132.865356</ele>
<time>2010-07-18T09:36:07Z</time>
<desc>lat.=55.683975, lon.=26.373022, Alt.=132.865356m. Speed=5.508000m/h.</desc>
<speed>1.530000</speed>
</trkpt>
<trkpt lat="55.683975" lon="26.373045">
<ele>132.963013</ele>
<time>2010-07-18T09:36:08Z</time>
<desc>lat.=55.683975, lon.=26.373045, Alt.=132.963013m. Speed=4.428000m/h.</desc>
<speed>1.230000</speed>
</trkpt>
<trkpt lat="55.683975" lon="26.373068">
<ele>133.252075</ele>
<time>2010-07-18T09:36:09Z</time>
<desc>lat.=55.683975, lon.=26.373068, Alt.=133.252075m. Speed=5.832000m/h.</desc>
<speed>1.620000</speed>
</trkpt>
<trkpt lat="55.683971" lon="26.373098">
<ele>133.693481</ele>
<time>2010-07-18T09:36:10Z</time>
<desc>lat.=55.683971, lon.=26.373098, Alt.=133.693481m. Speed=5.760000m/h.</desc>
<speed>1.600000</speed>
</trkpt>
<trkpt lat="55.683975" lon="26.373144">
<ele>134.341919</ele>
<time>2010-07-18T09:36:11Z</time>
<desc>lat.=55.683975, lon.=26.373144, Alt.=134.341919m. Speed=7.272000m/h.</desc>
<speed>2.020000</speed>
</trkpt>
<trkpt lat="55.683968" lon="26.373217">
<ele>133.963013</ele>
<time>2010-07-18T09:36:12Z</time>
<desc>lat.=55.683968, lon.=26.373217, Alt.=133.963013m. Speed=9.972000m/h.</desc>
<speed>2.770000</speed>
</trkpt>
<trkpt lat="55.683956" lon="26.373278">
<ele>133.451294</ele>
<time>2010-07-18T09:36:13Z</time>
<desc>lat.=55.683956, lon.=26.373278, Alt.=133.451294m. Speed=11.196000m/h.</desc>
<speed>3.110000</speed>
</trkpt>
<trkpt lat="55.683945" lon="26.373343">
<ele>133.263794</ele>
<time>2010-07-18T09:36:14Z</time>
<desc>lat.=55.683945, lon.=26.373343, Alt.=133.263794m. Speed=12.168000m/h.</desc>
<speed>3.380000</speed>
</trkpt>
<trkpt lat="55.683929" lon="26.373407">
<ele>133.869263</ele>
<time>2010-07-18T09:36:15Z</time>
<desc>lat.=55.683929, lon.=26.373407, Alt.=133.869263m. Speed=13.176000m/h.</desc>
<speed>3.660000</speed>
</trkpt>
<trkpt lat="55.683914" lon="26.373463">
<ele>133.599731</ele>
<time>2010-07-18T09:36:16Z</time>
<desc>lat.=55.683914, lon.=26.373463, Alt.=133.599731m. Speed=12.348000m/h.</desc>
<speed>3.430000</speed>
</trkpt>
<trkpt lat="55.683907" lon="26.373535">
<ele>133.377075</ele>
<time>2010-07-18T09:36:17Z</time>
<desc>lat.=55.683907, lon.=26.373535, Alt.=133.377075m. Speed=13.320000m/h.</desc>
<speed>3.700000</speed>
</trkpt>
<trkpt lat="55.683899" lon="26.373598">
<ele>133.666138</ele>
<time>2010-07-18T09:36:18Z</time>
<desc>lat.=55.683899, lon.=26.373598, Alt.=133.666138m. Speed=14.148000m/h.</desc>
<speed>3.930000</speed>
</trkpt>
<trkpt lat="55.683887" lon="26.373657">
<ele>133.568481</ele>
<time>2010-07-18T09:36:19Z</time>
<desc>lat.=55.683887, lon.=26.373657, Alt.=133.568481m. Speed=13.392000m/h.</desc>
<speed>3.720000</speed>
</trkpt>
<trkpt lat="55.683884" lon="26.373718">
<ele>133.349731</ele>
<time>2010-07-18T09:36:20Z</time>
<desc>lat.=55.683884, lon.=26.373718, Alt.=133.349731m. Speed=13.536000m/h.</desc>
<speed>3.760000</speed>
</trkpt>
<trkpt lat="55.683872" lon="26.373777">
<ele>133.463013</ele>
<time>2010-07-18T09:36:21Z</time>
<desc>lat.=55.683872, lon.=26.373777, Alt.=133.463013m. Speed=13.248000m/h.</desc>
<speed>3.680000</speed>
</trkpt>
<trkpt lat="55.683861" lon="26.373835">
<ele>133.341919</ele>
<time>2010-07-18T09:36:22Z</time>
<desc>lat.=55.683861, lon.=26.373835, Alt.=133.341919m. Speed=12.600000m/h.</desc>
<speed>3.500000</speed>
</trkpt>
<trkpt lat="55.683853" lon="26.373890">
<ele>132.994263</ele>
<time>2010-07-18T09:36:23Z</time>
<desc>lat.=55.683853, lon.=26.373890, Alt.=132.994263m. Speed=13.392000m/h.</desc>
<speed>3.720000</speed>
</trkpt>
<trkpt lat="55.683838" lon="26.373953">
<ele>132.654419</ele>
<time>2010-07-18T09:36:24Z</time>
<desc>lat.=55.683838, lon.=26.373953, Alt.=132.654419m. Speed=13.392000m/h.</desc>
<speed>3.720000</speed>
</trkpt>
<trkpt lat="55.683830" lon="26.374008">
<ele>132.814575</ele>
<time>2010-07-18T09:36:25Z</time>
<desc>lat.=55.683830, lon.=26.374008, Alt.=132.814575m. Speed=12.996000m/h.</desc>
<speed>3.610000</speed>
</trkpt>
<trkpt lat="55.683823" lon="26.374062">
<ele>133.252075</ele>
<time>2010-07-18T09:36:26Z</time>
<desc>lat.=55.683823, lon.=26.374062, Alt.=133.252075m. Speed=12.456000m/h.</desc>
<speed>3.460000</speed>
</trkpt>
<trkpt lat="55.683815" lon="26.374109">
<ele>133.345825</ele>
<time>2010-07-18T09:36:27Z</time>
<desc>lat.=55.683815, lon.=26.374109, Alt.=133.345825m. Speed=10.116000m/h.</desc>
<speed>2.810000</speed>
</trkpt>
<trkpt lat="55.683819" lon="26.374159">
<ele>133.947388</ele>
<time>2010-07-18T09:36:28Z</time>
<desc>lat.=55.683819, lon.=26.374159, Alt.=133.947388m. Speed=9.072000m/h.</desc>
<speed>2.520000</speed>
</trkpt>
<trkpt lat="55.683823" lon="26.374205">
<ele>134.560669</ele>
<time>2010-07-18T09:36:29Z</time>
<desc>lat.=55.683823, lon.=26.374205, Alt.=134.560669m. Speed=8.424000m/h.</desc>
<speed>2.340000</speed>
</trkpt>
<trkpt lat="55.683823" lon="26.374235">
<ele>135.740356</ele>
<time>2010-07-18T09:36:30Z</time>
<desc>lat.=55.683823, lon.=26.374235, Alt.=135.740356m. Speed=7.740000m/h.</desc>
<speed>2.150000</speed>
</trkpt>
<trkpt lat="55.683819" lon="26.374264">
<ele>135.689575</ele>
<time>2010-07-18T09:36:31Z</time>
<desc>lat.=55.683819, lon.=26.374264, Alt.=135.689575m. Speed=4.716000m/h.</desc>
<speed>1.310000</speed>
</trkpt>
<trkpt lat="55.683807" lon="26.374298">
<ele>135.619263</ele>
<time>2010-07-18T09:36:32Z</time>
<desc>lat.=55.683807, lon.=26.374298, Alt.=135.619263m. Speed=5.544000m/h.</desc>
<speed>1.540000</speed>
</trkpt>
<trkpt lat="55.683807" lon="26.374327">
<ele>135.978638</ele>
<time>2010-07-18T09:36:33Z</time>
<desc>lat.=55.683807, lon.=26.374327, Alt.=135.978638m. Speed=6.084000m/h.</desc>
<speed>1.690000</speed>
</trkpt>
<trkpt lat="55.683804" lon="26.374357">
<ele>136.521606</ele>
<time>2010-07-18T09:36:34Z</time>
<desc>lat.=55.683804, lon.=26.374357, Alt.=136.521606m. Speed=7.236000m/h.</desc>
<speed>2.010000</speed>
</trkpt>
<trkpt lat="55.683800" lon="26.374390">
<ele>136.806763</ele>
<time>2010-07-18T09:36:35Z</time>
<desc>lat.=55.683800, lon.=26.374390, Alt.=136.806763m. Speed=7.560000m/h.</desc>
<speed>2.100000</speed>
</trkpt>
<trkpt lat="55.683796" lon="26.374422">
<ele>136.818481</ele>
<time>2010-07-18T09:36:36Z</time>
<desc>lat.=55.683796, lon.=26.374422, Alt.=136.818481m. Speed=6.804000m/h.</desc>
<speed>1.890000</speed>
</trkpt>
<trkpt lat="55.683792" lon="26.374445">
<ele>136.709106</ele>
<time>2010-07-18T09:36:37Z</time>
<desc>lat.=55.683792, lon.=26.374445, Alt.=136.709106m. Speed=5.112000m/h.</desc>
<speed>1.420000</speed>
</trkpt>
<trkpt lat="55.683792" lon="26.374468">
<ele>136.763794</ele>
<time>2010-07-18T09:36:38Z</time>
<desc>lat.=55.683792, lon.=26.374468, Alt.=136.763794m. Speed=3.672000m/h.</desc>
<speed>1.020000</speed>
</trkpt>
<trkpt lat="55.683784" lon="26.374487">
<ele>137.283325</ele>
<time>2010-07-18T09:36:39Z</time>
<desc>lat.=55.683784, lon.=26.374487, Alt.=137.283325m. Speed=6.912000m/h.</desc>
<speed>1.920000</speed>
</trkpt>
<trkpt lat="55.683777" lon="26.374512">
<ele>137.470825</ele>
<time>2010-07-18T09:36:40Z</time>
<desc>lat.=55.683777, lon.=26.374512, Alt.=137.470825m. Speed=6.192000m/h.</desc>
<speed>1.720000</speed>
</trkpt>
<trkpt lat="55.683781" lon="26.374548">
<ele>137.736450</ele>
<time>2010-07-18T09:36:41Z</time>
<desc>lat.=55.683781, lon.=26.374548, Alt.=137.736450m. Speed=7.776000m/h.</desc>
<speed>2.160000</speed>
</trkpt>
<trkpt lat="55.683781" lon="26.374582">
<ele>137.771606</ele>
<time>2010-07-18T09:36:42Z</time>
<desc>lat.=55.683781, lon.=26.374582, Alt.=137.771606m. Speed=6.372000m/h.</desc>
<speed>1.770000</speed>
</trkpt>
<trkpt lat="55.683773" lon="26.374617">
<ele>137.892700</ele>
<time>2010-07-18T09:36:43Z</time>
<desc>lat.=55.683773, lon.=26.374617, Alt.=137.892700m. Speed=6.300000m/h.</desc>
<speed>1.750000</speed>
</trkpt>
<trkpt lat="55.683765" lon="26.374640">
<ele>138.025513</ele>
<time>2010-07-18T09:36:44Z</time>
<desc>lat.=55.683765, lon.=26.374640, Alt.=138.025513m. Speed=6.372000m/h.</desc>
<speed>1.770000</speed>
</trkpt>
<trkpt lat="55.683769" lon="26.374674">
<ele>137.720825</ele>
<time>2010-07-18T09:36:45Z</time>
<desc>lat.=55.683769, lon.=26.374674, Alt.=137.720825m. Speed=6.552000m/h.</desc>
<speed>1.820000</speed>
</trkpt>
<trkpt lat="55.683765" lon="26.374702">
<ele>137.888794</ele>
<time>2010-07-18T09:36:46Z</time>
<desc>lat.=55.683765, lon.=26.374702, Alt.=137.888794m. Speed=6.660000m/h.</desc>
<speed>1.850000</speed>
</trkpt>
<trkpt lat="55.683765" lon="26.374733">
<ele>137.888794</ele>
<time>2010-07-18T09:36:47Z</time>
<desc>lat.=55.683765, lon.=26.374733, Alt.=137.888794m. Speed=6.480000m/h.</desc>
<speed>1.800000</speed>
</trkpt>
<trkpt lat="55.683762" lon="26.374763">
<ele>137.841919</ele>
<time>2010-07-18T09:36:48Z</time>
<desc>lat.=55.683762, lon.=26.374763, Alt.=137.841919m. Speed=7.488000m/h.</desc>
<speed>2.080000</speed>
</trkpt>
<trkpt lat="55.683758" lon="26.374811">
<ele>138.084106</ele>
<time>2010-07-18T09:36:49Z</time>
<desc>lat.=55.683758, lon.=26.374811, Alt.=138.084106m. Speed=8.676000m/h.</desc>
<speed>2.410000</speed>
</trkpt>
<trkpt lat="55.683750" lon="26.374855">
<ele>137.998169</ele>
<time>2010-07-18T09:36:50Z</time>
<desc>lat.=55.683750, lon.=26.374855, Alt.=137.998169m. Speed=10.224000m/h.</desc>
<speed>2.840000</speed>
</trkpt>
<trkpt lat="55.683743" lon="26.374901">
<ele>137.818481</ele>
<time>2010-07-18T09:36:51Z</time>
<desc>lat.=55.683743, lon.=26.374901, Alt.=137.818481m. Speed=11.376000m/h.</desc>
<speed>3.160000</speed>
</trkpt>
<trkpt lat="55.683739" lon="26.374947">
<ele>138.037231</ele>
<time>2010-07-18T09:36:52Z</time>
<desc>lat.=55.683739, lon.=26.374947, Alt.=138.037231m. Speed=9.684000m/h.</desc>
<speed>2.690000</speed>
</trkpt>
<trkpt lat="55.683739" lon="26.374994">
<ele>138.435669</ele>
<time>2010-07-18T09:36:53Z</time>
<desc>lat.=55.683739, lon.=26.374994, Alt.=138.435669m. Speed=10.584000m/h.</desc>
<speed>2.940000</speed>
</trkpt>
<trkpt lat="55.683735" lon="26.375036">
<ele>138.693481</ele>
<time>2010-07-18T09:36:54Z</time>
<desc>lat.=55.683735, lon.=26.375036, Alt.=138.693481m. Speed=10.476000m/h.</desc>
<speed>2.910000</speed>
</trkpt>
<trkpt lat="55.683735" lon="26.375084">
<ele>138.857544</ele>
<time>2010-07-18T09:36:55Z</time>
<desc>lat.=55.683735, lon.=26.375084, Alt.=138.857544m. Speed=11.592000m/h.</desc>
<speed>3.220000</speed>
</trkpt>
<trkpt lat="55.683723" lon="26.375139">
<ele>138.517700</ele>
<time>2010-07-18T09:36:56Z</time>
<desc>lat.=55.683723, lon.=26.375139, Alt.=138.517700m. Speed=12.132000m/h.</desc>
<speed>3.370000</speed>
</trkpt>
<trkpt lat="55.683720" lon="26.375195">
<ele>138.088013</ele>
<time>2010-07-18T09:36:57Z</time>
<desc>lat.=55.683720, lon.=26.375195, Alt.=138.088013m. Speed=12.780000m/h.</desc>
<speed>3.550000</speed>
</trkpt>
<trkpt lat="55.683720" lon="26.375250">
<ele>137.998169</ele>
<time>2010-07-18T09:36:58Z</time>
<desc>lat.=55.683720, lon.=26.375250, Alt.=137.998169m. Speed=13.284000m/h.</desc>
<speed>3.690000</speed>
</trkpt>
<trkpt lat="55.683716" lon="26.375311">
<ele>137.709106</ele>
<time>2010-07-18T09:36:59Z</time>
<desc>lat.=55.683716, lon.=26.375311, Alt.=137.709106m. Speed=14.580000m/h.</desc>
<speed>4.050000</speed>
</trkpt>
<trkpt lat="55.683716" lon="26.375372">
<ele>137.791138</ele>
<time>2010-07-18T09:37:00Z</time>
<desc>lat.=55.683716, lon.=26.375372, Alt.=137.791138m. Speed=14.292000m/h.</desc>
<speed>3.970000</speed>
</trkpt>
<trkpt lat="55.683712" lon="26.375435">
<ele>137.908325</ele>
<time>2010-07-18T09:37:01Z</time>
<desc>lat.=55.683712, lon.=26.375435, Alt.=137.908325m. Speed=14.328000m/h.</desc>
<speed>3.980000</speed>
</trkpt>
<trkpt lat="55.683716" lon="26.375504">
<ele>137.966919</ele>
<time>2010-07-18T09:37:02Z</time>
<desc>lat.=55.683716, lon.=26.375504, Alt.=137.966919m. Speed=17.280001m/h.</desc>
<speed>4.800000</speed>
</trkpt>
<trkpt lat="55.683716" lon="26.375578">
<ele>138.005981</ele>
<time>2010-07-18T09:37:03Z</time>
<desc>lat.=55.683716, lon.=26.375578, Alt.=138.005981m. Speed=18.288000m/h.</desc>
<speed>5.080000</speed>
</trkpt>
<trkpt lat="55.683712" lon="26.375656">
<ele>137.880981</ele>
<time>2010-07-18T09:37:04Z</time>
<desc>lat.=55.683712, lon.=26.375656, Alt.=137.880981m. Speed=18.143999m/h.</desc>
<speed>5.040000</speed>
</trkpt>
<trkpt lat="55.683704" lon="26.375734">
<ele>137.318481</ele>
<time>2010-07-18T09:37:05Z</time>
<desc>lat.=55.683704, lon.=26.375734, Alt.=137.318481m. Speed=18.468000m/h.</desc>
<speed>5.130000</speed>
</trkpt>
<trkpt lat="55.683712" lon="26.375832">
<ele>137.904419</ele>
<time>2010-07-18T09:37:06Z</time>
<desc>lat.=55.683712, lon.=26.375832, Alt.=137.904419m. Speed=20.304001m/h.</desc>
<speed>5.640000</speed>
</trkpt>
<trkpt lat="55.683704" lon="26.375929">
<ele>136.990356</ele>
<time>2010-07-18T09:37:07Z</time>
<desc>lat.=55.683704, lon.=26.375929, Alt.=136.990356m. Speed=21.275999m/h.</desc>
<speed>5.910000</speed>
</trkpt>
<trkpt lat="55.683697" lon="26.376032">
<ele>136.435669</ele>
<time>2010-07-18T09:37:08Z</time>
<desc>lat.=55.683697, lon.=26.376032, Alt.=136.435669m. Speed=22.032000m/h.</desc>
<speed>6.120000</speed>
</trkpt>
<trkpt lat="55.683689" lon="26.376144">
<ele>135.209106</ele>
<time>2010-07-18T09:37:09Z</time>
<desc>lat.=55.683689, lon.=26.376144, Alt.=135.209106m. Speed=22.608000m/h.</desc>
<speed>6.280000</speed>
</trkpt>
<trkpt lat="55.683685" lon="26.376249">
<ele>134.752075</ele>
<time>2010-07-18T09:37:10Z</time>
<desc>lat.=55.683685, lon.=26.376249, Alt.=134.752075m. Speed=23.184000m/h.</desc>
<speed>6.440000</speed>
</trkpt>
<trkpt lat="55.683685" lon="26.376356">
<ele>134.521606</ele>
<time>2010-07-18T09:37:11Z</time>
<desc>lat.=55.683685, lon.=26.376356, Alt.=134.521606m. Speed=23.076000m/h.</desc>
<speed>6.410000</speed>
</trkpt>
<trkpt lat="55.683685" lon="26.376457">
<ele>134.588013</ele>
<time>2010-07-18T09:37:12Z</time>
<desc>lat.=55.683685, lon.=26.376457, Alt.=134.588013m. Speed=23.040001m/h.</desc>
<speed>6.400000</speed>
</trkpt>
<trkpt lat="55.683681" lon="26.376564">
<ele>134.361450</ele>
<time>2010-07-18T09:37:13Z</time>
<desc>lat.=55.683681, lon.=26.376564, Alt.=134.361450m. Speed=23.327999m/h.</desc>
<speed>6.480000</speed>
</trkpt>
<trkpt lat="55.683689" lon="26.376669">
<ele>135.138794</ele>
<time>2010-07-18T09:37:14Z</time>
<desc>lat.=55.683689, lon.=26.376669, Alt.=135.138794m. Speed=23.040001m/h.</desc>
<speed>6.400000</speed>
</trkpt>
<trkpt lat="55.683685" lon="26.376772">
<ele>135.045044</ele>
<time>2010-07-18T09:37:15Z</time>
<desc>lat.=55.683685, lon.=26.376772, Alt.=135.045044m. Speed=22.860001m/h.</desc>
<speed>6.350000</speed>
</trkpt>
<trkpt lat="55.683681" lon="26.376877">
<ele>134.623169</ele>
<time>2010-07-18T09:37:16Z</time>
<desc>lat.=55.683681, lon.=26.376877, Alt.=134.623169m. Speed=22.572001m/h.</desc>
<speed>6.270000</speed>
</trkpt>
<trkpt lat="55.683674" lon="26.376976">
<ele>134.470825</ele>
<time>2010-07-18T09:37:17Z</time>
<desc>lat.=55.683674, lon.=26.376976, Alt.=134.470825m. Speed=22.247999m/h.</desc>
<speed>6.180000</speed>
</trkpt>
<trkpt lat="55.683666" lon="26.377075">
<ele>134.060669</ele>
<time>2010-07-18T09:37:18Z</time>
<desc>lat.=55.683666, lon.=26.377075, Alt.=134.060669m. Speed=21.600000m/h.</desc>
<speed>6.000000</speed>
</trkpt>
<trkpt lat="55.683662" lon="26.377169">
<ele>133.947388</ele>
<time>2010-07-18T09:37:19Z</time>
<desc>lat.=55.683662, lon.=26.377169, Alt.=133.947388m. Speed=20.988001m/h.</desc>
<speed>5.830000</speed>
</trkpt>
<trkpt lat="55.683666" lon="26.377260">
<ele>134.072388</ele>
<time>2010-07-18T09:37:20Z</time>
<desc>lat.=55.683666, lon.=26.377260, Alt.=134.072388m. Speed=19.944000m/h.</desc>
<speed>5.540000</speed>
</trkpt>
<trkpt lat="55.683666" lon="26.377352">
<ele>134.338013</ele>
<time>2010-07-18T09:37:21Z</time>
<desc>lat.=55.683666, lon.=26.377352, Alt.=134.338013m. Speed=19.403999m/h.</desc>
<speed>5.390000</speed>
</trkpt>
<trkpt lat="55.683666" lon="26.377438">
<ele>134.689575</ele>
<time>2010-07-18T09:37:22Z</time>
<desc>lat.=55.683666, lon.=26.377438, Alt.=134.689575m. Speed=19.584000m/h.</desc>
<speed>5.440000</speed>
</trkpt>
<trkpt lat="55.683670" lon="26.377520">
<ele>135.869263</ele>
<time>2010-07-18T09:37:23Z</time>
<desc>lat.=55.683670, lon.=26.377520, Alt.=135.869263m. Speed=19.007999m/h.</desc>
<speed>5.280000</speed>
</trkpt>
<trkpt lat="55.683670" lon="26.377602">
<ele>136.111450</ele>
<time>2010-07-18T09:37:24Z</time>
<desc>lat.=55.683670, lon.=26.377602, Alt.=136.111450m. Speed=17.856001m/h.</desc>
<speed>4.960000</speed>
</trkpt>
<trkpt lat="55.683670" lon="26.377678">
<ele>136.150513</ele>
<time>2010-07-18T09:37:25Z</time>
<desc>lat.=55.683670, lon.=26.377678, Alt.=136.150513m. Speed=17.208000m/h.</desc>
<speed>4.780000</speed>
</trkpt>
<trkpt lat="55.683670" lon="26.377750">
<ele>136.220825</ele>
<time>2010-07-18T09:37:26Z</time>
<desc>lat.=55.683670, lon.=26.377750, Alt.=136.220825m. Speed=16.379999m/h.</desc>
<speed>4.550000</speed>
</trkpt>
<trkpt lat="55.683674" lon="26.377819">
<ele>136.400513</ele>
<time>2010-07-18T09:37:27Z</time>
<desc>lat.=55.683674, lon.=26.377819, Alt.=136.400513m. Speed=15.768000m/h.</desc>
<speed>4.380000</speed>
</trkpt>
<trkpt lat="55.683678" lon="26.377884">
<ele>136.662231</ele>
<time>2010-07-18T09:37:28Z</time>
<desc>lat.=55.683678, lon.=26.377884, Alt.=136.662231m. Speed=15.192000m/h.</desc>
<speed>4.220000</speed>
</trkpt>
<trkpt lat="55.683681" lon="26.377951">
<ele>136.869263</ele>
<time>2010-07-18T09:37:29Z</time>
<desc>lat.=55.683681, lon.=26.377951, Alt.=136.869263m. Speed=14.508000m/h.</desc>
<speed>4.030000</speed>
</trkpt>
<trkpt lat="55.683681" lon="26.378014">
<ele>136.947388</ele>
<time>2010-07-18T09:37:30Z</time>
<desc>lat.=55.683681, lon.=26.378014, Alt.=136.947388m. Speed=13.392000m/h.</desc>
<speed>3.720000</speed>
</trkpt>
<trkpt lat="55.683681" lon="26.378073">
<ele>137.353638</ele>
<time>2010-07-18T09:37:31Z</time>
<desc>lat.=55.683681, lon.=26.378073, Alt.=137.353638m. Speed=13.032000m/h.</desc>
<speed>3.620000</speed>
</trkpt>
<trkpt lat="55.683681" lon="26.378132">
<ele>137.416138</ele>
<time>2010-07-18T09:37:32Z</time>
<desc>lat.=55.683681, lon.=26.378132, Alt.=137.416138m. Speed=13.500000m/h.</desc>
<speed>3.750000</speed>
</trkpt>
<trkpt lat="55.683678" lon="26.378195">
<ele>137.322388</ele>
<time>2010-07-18T09:37:33Z</time>
<desc>lat.=55.683678, lon.=26.378195, Alt.=137.322388m. Speed=13.572000m/h.</desc>
<speed>3.770000</speed>
</trkpt>
<trkpt lat="55.683678" lon="26.378254">
<ele>137.451294</ele>
<time>2010-07-18T09:37:34Z</time>
<desc>lat.=55.683678, lon.=26.378254, Alt.=137.451294m. Speed=13.896000m/h.</desc>
<speed>3.860000</speed>
</trkpt>
<trkpt lat="55.683670" lon="26.378325">
<ele>137.365356</ele>
<time>2010-07-18T09:37:35Z</time>
<desc>lat.=55.683670, lon.=26.378325, Alt.=137.365356m. Speed=14.904000m/h.</desc>
<speed>4.140000</speed>
</trkpt>
<trkpt lat="55.683670" lon="26.378384">
<ele>137.213013</ele>
<time>2010-07-18T09:37:36Z</time>
<desc>lat.=55.683670, lon.=26.378384, Alt.=137.213013m. Speed=13.464000m/h.</desc>
<speed>3.740000</speed>
</trkpt>
<trkpt lat="55.683674" lon="26.378443">
<ele>137.314575</ele>
<time>2010-07-18T09:37:37Z</time>
<desc>lat.=55.683674, lon.=26.378443, Alt.=137.314575m. Speed=12.132000m/h.</desc>
<speed>3.370000</speed>
</trkpt>
<trkpt lat="55.683681" lon="26.378496">
<ele>137.326294</ele>
<time>2010-07-18T09:37:38Z</time>
<desc>lat.=55.683681, lon.=26.378496, Alt.=137.326294m. Speed=11.484000m/h.</desc>
<speed>3.190000</speed>
</trkpt>
<trkpt lat="55.683681" lon="26.378553">
<ele>137.373169</ele>
<time>2010-07-18T09:37:39Z</time>
<desc>lat.=55.683681, lon.=26.378553, Alt.=137.373169m. Speed=13.140000m/h.</desc>
<speed>3.650000</speed>
</trkpt>
<trkpt lat="55.683681" lon="26.378613">
<ele>137.502075</ele>
<time>2010-07-18T09:37:40Z</time>
<desc>lat.=55.683681, lon.=26.378613, Alt.=137.502075m. Speed=13.356000m/h.</desc>
<speed>3.710000</speed>
</trkpt>
<trkpt lat="55.683681" lon="26.378681">
<ele>137.478638</ele>
<time>2010-07-18T09:37:41Z</time>
<desc>lat.=55.683681, lon.=26.378681, Alt.=137.478638m. Speed=12.636000m/h.</desc>
<speed>3.510000</speed>
</trkpt>
<trkpt lat="55.683678" lon="26.378742">
<ele>137.755981</ele>
<time>2010-07-18T09:37:42Z</time>
<desc>lat.=55.683678, lon.=26.378742, Alt.=137.755981m. Speed=13.068000m/h.</desc>
<speed>3.630000</speed>
</trkpt>
<trkpt lat="55.683674" lon="26.378796">
<ele>138.099731</ele>
<time>2010-07-18T09:37:43Z</time>
<desc>lat.=55.683674, lon.=26.378796, Alt.=138.099731m. Speed=12.924000m/h.</desc>
<speed>3.590000</speed>
</trkpt>
<trkpt lat="55.683670" lon="26.378853">
<ele>138.396606</ele>
<time>2010-07-18T09:37:44Z</time>
<desc>lat.=55.683670, lon.=26.378853, Alt.=138.396606m. Speed=12.744000m/h.</desc>
<speed>3.540000</speed>
</trkpt>
<trkpt lat="55.683666" lon="26.378908">
<ele>138.673950</ele>
<time>2010-07-18T09:37:45Z</time>
<desc>lat.=55.683666, lon.=26.378908, Alt.=138.673950m. Speed=12.456000m/h.</desc>
<speed>3.460000</speed>
</trkpt>
<trkpt lat="55.683659" lon="26.378965">
<ele>139.056763</ele>
<time>2010-07-18T09:37:46Z</time>
<desc>lat.=55.683659, lon.=26.378965, Alt.=139.056763m. Speed=12.276000m/h.</desc>
<speed>3.410000</speed>
</trkpt>
<trkpt lat="55.683659" lon="26.379019">
<ele>140.505981</ele>
<time>2010-07-18T09:37:47Z</time>
<desc>lat.=55.683659, lon.=26.379019, Alt.=140.505981m. Speed=11.592000m/h.</desc>
<speed>3.220000</speed>
</trkpt>
<trkpt lat="55.683662" lon="26.379061">
<ele>142.584106</ele>
<time>2010-07-18T09:37:48Z</time>
<desc>lat.=55.683662, lon.=26.379061, Alt.=142.584106m. Speed=9.756000m/h.</desc>
<speed>2.710000</speed>
</trkpt>
<trkpt lat="55.683659" lon="26.379105">
<ele>143.545044</ele>
<time>2010-07-18T09:37:49Z</time>
<desc>lat.=55.683659, lon.=26.379105, Alt.=143.545044m. Speed=9.180000m/h.</desc>
<speed>2.550000</speed>
</trkpt>
<trkpt lat="55.683659" lon="26.379148">
<ele>144.525513</ele>
<time>2010-07-18T09:37:50Z</time>
<desc>lat.=55.683659, lon.=26.379148, Alt.=144.525513m. Speed=9.432000m/h.</desc>
<speed>2.620000</speed>
</trkpt>
<trkpt lat="55.683651" lon="26.379190">
<ele>145.150513</ele>
<time>2010-07-18T09:37:51Z</time>
<desc>lat.=55.683651, lon.=26.379190, Alt.=145.150513m. Speed=9.288000m/h.</desc>
<speed>2.580000</speed>
</trkpt>
<trkpt lat="55.683643" lon="26.379221">
<ele>145.564575</ele>
<time>2010-07-18T09:37:52Z</time>
<desc>lat.=55.683643, lon.=26.379221, Alt.=145.564575m. Speed=7.740000m/h.</desc>
<speed>2.150000</speed>
</trkpt>
<trkpt lat="55.683640" lon="26.379259">
<ele>144.017700</ele>
<time>2010-07-18T09:37:53Z</time>
<desc>lat.=55.683640, lon.=26.379259, Alt.=144.017700m. Speed=7.704000m/h.</desc>
<speed>2.140000</speed>
</trkpt>
<trkpt lat="55.683632" lon="26.379290">
<ele>144.244263</ele>
<time>2010-07-18T09:37:54Z</time>
<desc>lat.=55.683632, lon.=26.379290, Alt.=144.244263m. Speed=8.748000m/h.</desc>
<speed>2.430000</speed>
</trkpt>
<trkpt lat="55.683624" lon="26.379333">
<ele>144.103638</ele>
<time>2010-07-18T09:37:55Z</time>
<desc>lat.=55.683624, lon.=26.379333, Alt.=144.103638m. Speed=10.368000m/h.</desc>
<speed>2.880000</speed>
</trkpt>
<trkpt lat="55.683620" lon="26.379387">
<ele>142.900513</ele>
<time>2010-07-18T09:37:56Z</time>
<desc>lat.=55.683620, lon.=26.379387, Alt.=142.900513m. Speed=10.440000m/h.</desc>
<speed>2.900000</speed>
</trkpt>
<trkpt lat="55.683609" lon="26.379431">
<ele>142.908325</ele>
<time>2010-07-18T09:37:57Z</time>
<desc>lat.=55.683609, lon.=26.379431, Alt.=142.908325m. Speed=10.368000m/h.</desc>
<speed>2.880000</speed>
</trkpt>
<trkpt lat="55.683598" lon="26.379477">
<ele>143.091919</ele>
<time>2010-07-18T09:37:58Z</time>
<desc>lat.=55.683598, lon.=26.379477, Alt.=143.091919m. Speed=11.700000m/h.</desc>
<speed>3.250000</speed>
</trkpt>
<trkpt lat="55.683590" lon="26.379532">
<ele>142.787231</ele>
<time>2010-07-18T09:37:59Z</time>
<desc>lat.=55.683590, lon.=26.379532, Alt.=142.787231m. Speed=12.168000m/h.</desc>
<speed>3.380000</speed>
</trkpt>
<trkpt lat="55.683582" lon="26.379587">
<ele>142.955200</ele>
<time>2010-07-18T09:38:00Z</time>
<desc>lat.=55.683582, lon.=26.379587, Alt.=142.955200m. Speed=12.636000m/h.</desc>
<speed>3.510000</speed>
</trkpt>
<trkpt lat="55.683575" lon="26.379646">
<ele>142.779419</ele>
<time>2010-07-18T09:38:01Z</time>
<desc>lat.=55.683575, lon.=26.379646, Alt.=142.779419m. Speed=12.168000m/h.</desc>
<speed>3.380000</speed>
</trkpt>
<trkpt lat="55.683567" lon="26.379694">
<ele>143.279419</ele>
<time>2010-07-18T09:38:02Z</time>
<desc>lat.=55.683567, lon.=26.379694, Alt.=143.279419m. Speed=10.656000m/h.</desc>
<speed>2.960000</speed>
</trkpt>
<trkpt lat="55.683563" lon="26.379744">
<ele>143.744263</ele>
<time>2010-07-18T09:38:03Z</time>
<desc>lat.=55.683563, lon.=26.379744, Alt.=143.744263m. Speed=10.836000m/h.</desc>
<speed>3.010000</speed>
</trkpt>
<trkpt lat="55.683559" lon="26.379797">
<ele>144.427856</ele>
<time>2010-07-18T09:38:04Z</time>
<desc>lat.=55.683559, lon.=26.379797, Alt.=144.427856m. Speed=11.952000m/h.</desc>
<speed>3.320000</speed>
</trkpt>
<trkpt lat="55.683548" lon="26.379854">
<ele>144.545044</ele>
<time>2010-07-18T09:38:05Z</time>
<desc>lat.=55.683548, lon.=26.379854, Alt.=144.545044m. Speed=12.924000m/h.</desc>
<speed>3.590000</speed>
</trkpt>
<trkpt lat="55.683537" lon="26.379911">
<ele>144.826294</ele>
<time>2010-07-18T09:38:06Z</time>
<desc>lat.=55.683537, lon.=26.379911, Alt.=144.826294m. Speed=12.960000m/h.</desc>
<speed>3.600000</speed>
</trkpt>
<trkpt lat="55.683525" lon="26.379974">
<ele>144.779419</ele>
<time>2010-07-18T09:38:07Z</time>
<desc>lat.=55.683525, lon.=26.379974, Alt.=144.779419m. Speed=12.456000m/h.</desc>
<speed>3.460000</speed>
</trkpt>
<trkpt lat="55.683506" lon="26.380028">
<ele>143.646606</ele>
<time>2010-07-18T09:38:08Z</time>
<desc>lat.=55.683506, lon.=26.380028, Alt.=143.646606m. Speed=11.016000m/h.</desc>
<speed>3.060000</speed>
</trkpt>
<trkpt lat="55.683495" lon="26.380081">
<ele>143.564575</ele>
<time>2010-07-18T09:38:09Z</time>
<desc>lat.=55.683495, lon.=26.380081, Alt.=143.564575m. Speed=12.888000m/h.</desc>
<speed>3.580000</speed>
</trkpt>
<trkpt lat="55.683487" lon="26.380138">
<ele>143.947388</ele>
<time>2010-07-18T09:38:10Z</time>
<desc>lat.=55.683487, lon.=26.380138, Alt.=143.947388m. Speed=14.544000m/h.</desc>
<speed>4.040000</speed>
</trkpt>
<trkpt lat="55.683468" lon="26.380192">
<ele>143.998169</ele>
<time>2010-07-18T09:38:11Z</time>
<desc>lat.=55.683468, lon.=26.380192, Alt.=143.998169m. Speed=12.348000m/h.</desc>
<speed>3.430000</speed>
</trkpt>
<trkpt lat="55.683456" lon="26.380241">
<ele>144.177856</ele>
<time>2010-07-18T09:38:12Z</time>
<desc>lat.=55.683456, lon.=26.380241, Alt.=144.177856m. Speed=11.088000m/h.</desc>
<speed>3.080000</speed>
</trkpt>
<trkpt lat="55.683445" lon="26.380285">
<ele>144.345825</ele>
<time>2010-07-18T09:38:13Z</time>
<desc>lat.=55.683445, lon.=26.380285, Alt.=144.345825m. Speed=10.728000m/h.</desc>
<speed>2.980000</speed>
</trkpt>
<trkpt lat="55.683434" lon="26.380325">
<ele>144.341919</ele>
<time>2010-07-18T09:38:14Z</time>
<desc>lat.=55.683434, lon.=26.380325, Alt.=144.341919m. Speed=10.548000m/h.</desc>
<speed>2.930000</speed>
</trkpt>
<trkpt lat="55.683418" lon="26.380365">
<ele>144.580200</ele>
<time>2010-07-18T09:38:15Z</time>
<desc>lat.=55.683418, lon.=26.380365, Alt.=144.580200m. Speed=10.836000m/h.</desc>
<speed>3.010000</speed>
</trkpt>
<trkpt lat="55.683411" lon="26.380415">
<ele>145.615356</ele>
<time>2010-07-18T09:38:16Z</time>
<desc>lat.=55.683411, lon.=26.380415, Alt.=145.615356m. Speed=10.620000m/h.</desc>
<speed>2.950000</speed>
</trkpt>
<trkpt lat="55.683399" lon="26.380461">
<ele>146.267700</ele>
<time>2010-07-18T09:38:17Z</time>
<desc>lat.=55.683399, lon.=26.380461, Alt.=146.267700m. Speed=11.628000m/h.</desc>
<speed>3.230000</speed>
</trkpt>
<trkpt lat="55.683380" lon="26.380507">
<ele>146.748169</ele>
<time>2010-07-18T09:38:18Z</time>
<desc>lat.=55.683380, lon.=26.380507, Alt.=146.748169m. Speed=12.384000m/h.</desc>
<speed>3.440000</speed>
</trkpt>
<trkpt lat="55.683365" lon="26.380550">
<ele>147.990356</ele>
<time>2010-07-18T09:38:19Z</time>
<desc>lat.=55.683365, lon.=26.380550, Alt.=147.990356m. Speed=12.276000m/h.</desc>
<speed>3.410000</speed>
</trkpt>
<trkpt lat="55.683342" lon="26.380598">
<ele>149.568481</ele>
<time>2010-07-18T09:38:20Z</time>
<desc>lat.=55.683342, lon.=26.380598, Alt.=149.568481m. Speed=13.536000m/h.</desc>
<speed>3.760000</speed>
</trkpt>
<trkpt lat="55.683323" lon="26.380648">
<ele>149.986450</ele>
<time>2010-07-18T09:38:21Z</time>
<desc>lat.=55.683323, lon.=26.380648, Alt.=149.986450m. Speed=13.284000m/h.</desc>
<speed>3.690000</speed>
</trkpt>
<trkpt lat="55.683304" lon="26.380697">
<ele>150.767700</ele>
<time>2010-07-18T09:38:22Z</time>
<desc>lat.=55.683304, lon.=26.380697, Alt.=150.767700m. Speed=12.168000m/h.</desc>
<speed>3.380000</speed>
</trkpt>
<trkpt lat="55.683285" lon="26.380739">
<ele>151.423950</ele>
<time>2010-07-18T09:38:23Z</time>
<desc>lat.=55.683285, lon.=26.380739, Alt.=151.423950m. Speed=11.880000m/h.</desc>
<speed>3.300000</speed>
</trkpt>
<trkpt lat="55.683266" lon="26.380787">
<ele>151.869263</ele>
<time>2010-07-18T09:38:24Z</time>
<desc>lat.=55.683266, lon.=26.380787, Alt.=151.869263m. Speed=13.140000m/h.</desc>
<speed>3.650000</speed>
</trkpt>
<trkpt lat="55.683243" lon="26.380835">
<ele>151.513794</ele>
<time>2010-07-18T09:38:25Z</time>
<desc>lat.=55.683243, lon.=26.380835, Alt.=151.513794m. Speed=13.356000m/h.</desc>
<speed>3.710000</speed>
</trkpt>
<trkpt lat="55.683216" lon="26.380884">
<ele>151.115356</ele>
<time>2010-07-18T09:38:26Z</time>
<desc>lat.=55.683216, lon.=26.380884, Alt.=151.115356m. Speed=12.996000m/h.</desc>
<speed>3.610000</speed>
</trkpt>
<trkpt lat="55.683193" lon="26.380934">
<ele>151.103638</ele>
<time>2010-07-18T09:38:27Z</time>
<desc>lat.=55.683193, lon.=26.380934, Alt.=151.103638m. Speed=13.932000m/h.</desc>
<speed>3.870000</speed>
</trkpt>
<trkpt lat="55.683167" lon="26.380981">
<ele>150.740356</ele>
<time>2010-07-18T09:38:28Z</time>
<desc>lat.=55.683167, lon.=26.380981, Alt.=150.740356m. Speed=12.636000m/h.</desc>
<speed>3.510000</speed>
</trkpt>
<trkpt lat="55.683147" lon="26.381025">
<ele>150.865356</ele>
<time>2010-07-18T09:38:29Z</time>
<desc>lat.=55.683147, lon.=26.381025, Alt.=150.865356m. Speed=11.412000m/h.</desc>
<speed>3.170000</speed>
</trkpt>
<trkpt lat="55.683125" lon="26.381071">
<ele>151.197388</ele>
<time>2010-07-18T09:38:30Z</time>
<desc>lat.=55.683125, lon.=26.381071, Alt.=151.197388m. Speed=10.872000m/h.</desc>
<speed>3.020000</speed>
</trkpt>
<trkpt lat="55.683109" lon="26.381109">
<ele>152.240356</ele>
<time>2010-07-18T09:38:31Z</time>
<desc>lat.=55.683109, lon.=26.381109, Alt.=152.240356m. Speed=11.304000m/h.</desc>
<speed>3.140000</speed>
</trkpt>
<trkpt lat="55.683090" lon="26.381147">
<ele>152.689575</ele>
<time>2010-07-18T09:38:32Z</time>
<desc>lat.=55.683090, lon.=26.381147, Alt.=152.689575m. Speed=12.204000m/h.</desc>
<speed>3.390000</speed>
</trkpt>
<trkpt lat="55.683067" lon="26.381187">
<ele>152.920044</ele>
<time>2010-07-18T09:38:33Z</time>
<desc>lat.=55.683067, lon.=26.381187, Alt.=152.920044m. Speed=13.068000m/h.</desc>
<speed>3.630000</speed>
</trkpt>
<trkpt lat="55.683048" lon="26.381235">
<ele>153.005981</ele>
<time>2010-07-18T09:38:34Z</time>
<desc>lat.=55.683048, lon.=26.381235, Alt.=153.005981m. Speed=13.968000m/h.</desc>
<speed>3.880000</speed>
</trkpt>
<trkpt lat="55.683022" lon="26.381281">
<ele>153.068481</ele>
<time>2010-07-18T09:38:35Z</time>
<desc>lat.=55.683022, lon.=26.381281, Alt.=153.068481m. Speed=13.608000m/h.</desc>
<speed>3.780000</speed>
</trkpt>
<trkpt lat="55.683002" lon="26.381325">
<ele>153.041138</ele>
<time>2010-07-18T09:38:36Z</time>
<desc>lat.=55.683002, lon.=26.381325, Alt.=153.041138m. Speed=13.788000m/h.</desc>
<speed>3.830000</speed>
</trkpt>
<trkpt lat="55.682976" lon="26.381369">
<ele>152.970825</ele>
<time>2010-07-18T09:38:37Z</time>
<desc>lat.=55.682976, lon.=26.381369, Alt.=152.970825m. Speed=13.212000m/h.</desc>
<speed>3.670000</speed>
</trkpt>
<trkpt lat="55.682949" lon="26.381418">
<ele>153.048950</ele>
<time>2010-07-18T09:38:38Z</time>
<desc>lat.=55.682949, lon.=26.381418, Alt.=153.048950m. Speed=13.176000m/h.</desc>
<speed>3.660000</speed>
</trkpt>
<trkpt lat="55.682930" lon="26.381462">
<ele>153.572388</ele>
<time>2010-07-18T09:38:39Z</time>
<desc>lat.=55.682930, lon.=26.381462, Alt.=153.572388m. Speed=12.492000m/h.</desc>
<speed>3.470000</speed>
</trkpt>
<trkpt lat="55.682907" lon="26.381506">
<ele>153.435669</ele>
<time>2010-07-18T09:38:40Z</time>
<desc>lat.=55.682907, lon.=26.381506, Alt.=153.435669m. Speed=12.816000m/h.</desc>
<speed>3.560000</speed>
</trkpt>
<trkpt lat="55.682884" lon="26.381542">
<ele>153.216919</ele>
<time>2010-07-18T09:38:41Z</time>
<desc>lat.=55.682884, lon.=26.381542, Alt.=153.216919m. Speed=13.284000m/h.</desc>
<speed>3.690000</speed>
</trkpt>
<trkpt lat="55.682858" lon="26.381580">
<ele>152.978638</ele>
<time>2010-07-18T09:38:42Z</time>
<desc>lat.=55.682858, lon.=26.381580, Alt.=152.978638m. Speed=13.680000m/h.</desc>
<speed>3.800000</speed>
</trkpt>
<trkpt lat="55.682831" lon="26.381624">
<ele>152.552856</ele>
<time>2010-07-18T09:38:43Z</time>
<desc>lat.=55.682831, lon.=26.381624, Alt.=152.552856m. Speed=13.968000m/h.</desc>
<speed>3.880000</speed>
</trkpt>
<trkpt lat="55.682804" lon="26.381670">
<ele>152.478638</ele>
<time>2010-07-18T09:38:44Z</time>
<desc>lat.=55.682804, lon.=26.381670, Alt.=152.478638m. Speed=15.300000m/h.</desc>
<speed>4.250000</speed>
</trkpt>
<trkpt lat="55.682774" lon="26.381720">
<ele>152.205200</ele>
<time>2010-07-18T09:38:45Z</time>
<desc>lat.=55.682774, lon.=26.381720, Alt.=152.205200m. Speed=15.588000m/h.</desc>
<speed>4.330000</speed>
</trkpt>
<trkpt lat="55.682743" lon="26.381767">
<ele>152.060669</ele>
<time>2010-07-18T09:38:46Z</time>
<desc>lat.=55.682743, lon.=26.381767, Alt.=152.060669m. Speed=14.904000m/h.</desc>
<speed>4.140000</speed>
</trkpt>
<trkpt lat="55.682716" lon="26.381817">
<ele>152.088013</ele>
<time>2010-07-18T09:38:47Z</time>
<desc>lat.=55.682716, lon.=26.381817, Alt.=152.088013m. Speed=13.824000m/h.</desc>
<speed>3.840000</speed>
</trkpt>
<trkpt lat="55.682697" lon="26.381859">
<ele>152.345825</ele>
<time>2010-07-18T09:38:48Z</time>
<desc>lat.=55.682697, lon.=26.381859, Alt.=152.345825m. Speed=12.456000m/h.</desc>
<speed>3.460000</speed>
</trkpt>
<trkpt lat="55.682678" lon="26.381893">
<ele>152.525513</ele>
<time>2010-07-18T09:38:49Z</time>
<desc>lat.=55.682678, lon.=26.381893, Alt.=152.525513m. Speed=11.700000m/h.</desc>
<speed>3.250000</speed>
</trkpt>
<trkpt lat="55.682655" lon="26.381927">
<ele>152.611450</ele>
<time>2010-07-18T09:38:50Z</time>
<desc>lat.=55.682655, lon.=26.381927, Alt.=152.611450m. Speed=11.052000m/h.</desc>
<speed>3.070000</speed>
</trkpt>
<trkpt lat="55.682636" lon="26.381958">
<ele>152.591919</ele>
<time>2010-07-18T09:38:51Z</time>
<desc>lat.=55.682636, lon.=26.381958, Alt.=152.591919m. Speed=11.052000m/h.</desc>
<speed>3.070000</speed>
</trkpt>
<trkpt lat="55.682613" lon="26.381989">
<ele>152.591919</ele>
<time>2010-07-18T09:38:52Z</time>
<desc>lat.=55.682613, lon.=26.381989, Alt.=152.591919m. Speed=11.016000m/h.</desc>
<speed>3.060000</speed>
</trkpt>
<trkpt lat="55.682590" lon="26.382025">
<ele>152.634888</ele>
<time>2010-07-18T09:38:53Z</time>
<desc>lat.=55.682590, lon.=26.382025, Alt.=152.634888m. Speed=11.844000m/h.</desc>
<speed>3.290000</speed>
</trkpt>
<trkpt lat="55.682568" lon="26.382061">
<ele>152.798950</ele>
<time>2010-07-18T09:38:54Z</time>
<desc>lat.=55.682568, lon.=26.382061, Alt.=152.798950m. Speed=12.276000m/h.</desc>
<speed>3.410000</speed>
</trkpt>
<trkpt lat="55.682545" lon="26.382097">
<ele>152.795044</ele>
<time>2010-07-18T09:38:55Z</time>
<desc>lat.=55.682545, lon.=26.382097, Alt.=152.795044m. Speed=12.168000m/h.</desc>
<speed>3.380000</speed>
</trkpt>
<trkpt lat="55.682526" lon="26.382132">
<ele>152.865356</ele>
<time>2010-07-18T09:38:56Z</time>
<desc>lat.=55.682526, lon.=26.382132, Alt.=152.865356m. Speed=11.124000m/h.</desc>
<speed>3.090000</speed>
</trkpt>
<trkpt lat="55.682503" lon="26.382166">
<ele>152.908325</ele>
<time>2010-07-18T09:38:57Z</time>
<desc>lat.=55.682503, lon.=26.382166, Alt.=152.908325m. Speed=11.736000m/h.</desc>
<speed>3.260000</speed>
</trkpt>
<trkpt lat="55.682480" lon="26.382202">
<ele>152.834106</ele>
<time>2010-07-18T09:38:58Z</time>
<desc>lat.=55.682480, lon.=26.382202, Alt.=152.834106m. Speed=12.060000m/h.</desc>
<speed>3.350000</speed>
</trkpt>
<trkpt lat="55.682461" lon="26.382242">
<ele>153.103638</ele>
<time>2010-07-18T09:38:59Z</time>
<desc>lat.=55.682461, lon.=26.382242, Alt.=153.103638m. Speed=13.068000m/h.</desc>
<speed>3.630000</speed>
</trkpt>
<trkpt lat="55.682438" lon="26.382284">
<ele>153.123169</ele>
<time>2010-07-18T09:39:00Z</time>
<desc>lat.=55.682438, lon.=26.382284, Alt.=153.123169m. Speed=13.428000m/h.</desc>
<speed>3.730000</speed>
</trkpt>
<trkpt lat="55.682415" lon="26.382324">
<ele>153.041138</ele>
<time>2010-07-18T09:39:01Z</time>
<desc>lat.=55.682415, lon.=26.382324, Alt.=153.041138m. Speed=13.572000m/h.</desc>
<speed>3.770000</speed>
</trkpt>
<trkpt lat="55.682392" lon="26.382366">
<ele>153.002075</ele>
<time>2010-07-18T09:39:02Z</time>
<desc>lat.=55.682392, lon.=26.382366, Alt.=153.002075m. Speed=13.500000m/h.</desc>
<speed>3.750000</speed>
</trkpt>
<trkpt lat="55.682369" lon="26.382408">
<ele>153.080200</ele>
<time>2010-07-18T09:39:03Z</time>
<desc>lat.=55.682369, lon.=26.382408, Alt.=153.080200m. Speed=13.500000m/h.</desc>
<speed>3.750000</speed>
</trkpt>
<trkpt lat="55.682346" lon="26.382452">
<ele>152.865356</ele>
<time>2010-07-18T09:39:04Z</time>
<desc>lat.=55.682346, lon.=26.382452, Alt.=152.865356m. Speed=14.004000m/h.</desc>
<speed>3.890000</speed>
</trkpt>
<trkpt lat="55.682320" lon="26.382490">
<ele>152.599731</ele>
<time>2010-07-18T09:39:05Z</time>
<desc>lat.=55.682320, lon.=26.382490, Alt.=152.599731m. Speed=13.932000m/h.</desc>
<speed>3.870000</speed>
</trkpt>
<trkpt lat="55.682293" lon="26.382534">
<ele>152.541138</ele>
<time>2010-07-18T09:39:06Z</time>
<desc>lat.=55.682293, lon.=26.382534, Alt.=152.541138m. Speed=14.472000m/h.</desc>
<speed>4.020000</speed>
</trkpt>
<trkpt lat="55.682270" lon="26.382578">
<ele>152.728638</ele>
<time>2010-07-18T09:39:07Z</time>
<desc>lat.=55.682270, lon.=26.382578, Alt.=152.728638m. Speed=14.760000m/h.</desc>
<speed>4.100000</speed>
</trkpt>
<trkpt lat="55.682243" lon="26.382614">
<ele>152.884888</ele>
<time>2010-07-18T09:39:08Z</time>
<desc>lat.=55.682243, lon.=26.382614, Alt.=152.884888m. Speed=13.968000m/h.</desc>
<speed>3.880000</speed>
</trkpt>
<trkpt lat="55.682217" lon="26.382652">
<ele>153.115356</ele>
<time>2010-07-18T09:39:09Z</time>
<desc>lat.=55.682217, lon.=26.382652, Alt.=153.115356m. Speed=13.248000m/h.</desc>
<speed>3.680000</speed>
</trkpt>
<trkpt lat="55.682194" lon="26.382692">
<ele>153.033325</ele>
<time>2010-07-18T09:39:10Z</time>
<desc>lat.=55.682194, lon.=26.382692, Alt.=153.033325m. Speed=12.492000m/h.</desc>
<speed>3.470000</speed>
</trkpt>
<trkpt lat="55.682171" lon="26.382729">
<ele>152.998169</ele>
<time>2010-07-18T09:39:11Z</time>
<desc>lat.=55.682171, lon.=26.382729, Alt.=152.998169m. Speed=11.952000m/h.</desc>
<speed>3.320000</speed>
</trkpt>
<trkpt lat="55.682148" lon="26.382765">
<ele>153.185669</ele>
<time>2010-07-18T09:39:12Z</time>
<desc>lat.=55.682148, lon.=26.382765, Alt.=153.185669m. Speed=12.132000m/h.</desc>
<speed>3.370000</speed>
</trkpt>
<trkpt lat="55.682125" lon="26.382801">
<ele>153.013794</ele>
<time>2010-07-18T09:39:13Z</time>
<desc>lat.=55.682125, lon.=26.382801, Alt.=153.013794m. Speed=12.816000m/h.</desc>
<speed>3.560000</speed>
</trkpt>
<trkpt lat="55.682098" lon="26.382837">
<ele>152.927856</ele>
<time>2010-07-18T09:39:14Z</time>
<desc>lat.=55.682098, lon.=26.382837, Alt.=152.927856m. Speed=13.032000m/h.</desc>
<speed>3.620000</speed>
</trkpt>
<trkpt lat="55.682072" lon="26.382875">
<ele>152.865356</ele>
<time>2010-07-18T09:39:15Z</time>
<desc>lat.=55.682072, lon.=26.382875, Alt.=152.865356m. Speed=14.112000m/h.</desc>
<speed>3.920000</speed>
</trkpt>
<trkpt lat="55.682045" lon="26.382917">
<ele>152.888794</ele>
<time>2010-07-18T09:39:16Z</time>
<desc>lat.=55.682045, lon.=26.382917, Alt.=152.888794m. Speed=15.552000m/h.</desc>
<speed>4.320000</speed>
</trkpt>
<trkpt lat="55.682014" lon="26.382963">
<ele>152.650513</ele>
<time>2010-07-18T09:39:17Z</time>
<desc>lat.=55.682014, lon.=26.382963, Alt.=152.650513m. Speed=16.740000m/h.</desc>
<speed>4.650000</speed>
</trkpt>
<trkpt lat="55.681984" lon="26.383013">
<ele>152.505981</ele>
<time>2010-07-18T09:39:18Z</time>
<desc>lat.=55.681984, lon.=26.383013, Alt.=152.505981m. Speed=17.208000m/h.</desc>
<speed>4.780000</speed>
</trkpt>
<trkpt lat="55.681950" lon="26.383064">
<ele>152.615356</ele>
<time>2010-07-18T09:39:19Z</time>
<desc>lat.=55.681950, lon.=26.383064, Alt.=152.615356m. Speed=17.424000m/h.</desc>
<speed>4.840000</speed>
</trkpt>
<trkpt lat="55.681915" lon="26.383116">
<ele>152.338013</ele>
<time>2010-07-18T09:39:20Z</time>
<desc>lat.=55.681915, lon.=26.383116, Alt.=152.338013m. Speed=17.604000m/h.</desc>
<speed>4.890000</speed>
</trkpt>
<trkpt lat="55.681881" lon="26.383163">
<ele>152.150513</ele>
<time>2010-07-18T09:39:21Z</time>
<desc>lat.=55.681881, lon.=26.383163, Alt.=152.150513m. Speed=17.712000m/h.</desc>
<speed>4.920000</speed>
</trkpt>
<trkpt lat="55.681847" lon="26.383215">
<ele>151.978638</ele>
<time>2010-07-18T09:39:22Z</time>
<desc>lat.=55.681847, lon.=26.383215, Alt.=151.978638m. Speed=18.252001m/h.</desc>
<speed>5.070000</speed>
</trkpt>
<trkpt lat="55.681812" lon="26.383268">
<ele>151.713013</ele>
<time>2010-07-18T09:39:23Z</time>
<desc>lat.=55.681812, lon.=26.383268, Alt.=151.713013m. Speed=18.612000m/h.</desc>
<speed>5.170000</speed>
</trkpt>
<trkpt lat="55.681778" lon="26.383324">
<ele>151.482544</ele>
<time>2010-07-18T09:39:24Z</time>
<desc>lat.=55.681778, lon.=26.383324, Alt.=151.482544m. Speed=19.152000m/h.</desc>
<speed>5.320000</speed>
</trkpt>
<trkpt lat="55.681744" lon="26.383379">
<ele>151.232544</ele>
<time>2010-07-18T09:39:25Z</time>
<desc>lat.=55.681744, lon.=26.383379, Alt.=151.232544m. Speed=19.440001m/h.</desc>
<speed>5.400000</speed>
</trkpt>
<trkpt lat="55.681709" lon="26.383436">
<ele>151.076294</ele>
<time>2010-07-18T09:39:26Z</time>
<desc>lat.=55.681709, lon.=26.383436, Alt.=151.076294m. Speed=19.799999m/h.</desc>
<speed>5.500000</speed>
</trkpt>
<trkpt lat="55.681671" lon="26.383495">
<ele>150.951294</ele>
<time>2010-07-18T09:39:27Z</time>
<desc>lat.=55.681671, lon.=26.383495, Alt.=150.951294m. Speed=20.195999m/h.</desc>
<speed>5.610000</speed>
</trkpt>
<trkpt lat="55.681633" lon="26.383553">
<ele>150.783325</ele>
<time>2010-07-18T09:39:28Z</time>
<desc>lat.=55.681633, lon.=26.383553, Alt.=150.783325m. Speed=20.591999m/h.</desc>
<speed>5.720000</speed>
</trkpt>
<trkpt lat="55.681595" lon="26.383615">
<ele>150.662231</ele>
<time>2010-07-18T09:39:29Z</time>
<desc>lat.=55.681595, lon.=26.383615, Alt.=150.662231m. Speed=21.096001m/h.</desc>
<speed>5.860000</speed>
</trkpt>
<trkpt lat="55.681557" lon="26.383678">
<ele>150.568481</ele>
<time>2010-07-18T09:39:30Z</time>
<desc>lat.=55.681557, lon.=26.383678, Alt.=150.568481m. Speed=21.204000m/h.</desc>
<speed>5.890000</speed>
</trkpt>
<trkpt lat="55.681519" lon="26.383749">
<ele>150.466919</ele>
<time>2010-07-18T09:39:31Z</time>
<desc>lat.=55.681519, lon.=26.383749, Alt.=150.466919m. Speed=21.348000m/h.</desc>
<speed>5.930000</speed>
</trkpt>
<trkpt lat="55.681480" lon="26.383818">
<ele>150.420044</ele>
<time>2010-07-18T09:39:32Z</time>
<desc>lat.=55.681480, lon.=26.383818, Alt.=150.420044m. Speed=21.312000m/h.</desc>
<speed>5.920000</speed>
</trkpt>
<trkpt lat="55.681446" lon="26.383886">
<ele>150.259888</ele>
<time>2010-07-18T09:39:33Z</time>
<desc>lat.=55.681446, lon.=26.383886, Alt.=150.259888m. Speed=21.275999m/h.</desc>
<speed>5.910000</speed>
</trkpt>
<trkpt lat="55.681408" lon="26.383957">
<ele>150.232544</ele>
<time>2010-07-18T09:39:34Z</time>
<desc>lat.=55.681408, lon.=26.383957, Alt.=150.232544m. Speed=21.024000m/h.</desc>
<speed>5.840000</speed>
</trkpt>
<trkpt lat="55.681377" lon="26.384035">
<ele>150.166138</ele>
<time>2010-07-18T09:39:35Z</time>
<desc>lat.=55.681377, lon.=26.384035, Alt.=150.166138m. Speed=21.059999m/h.</desc>
<speed>5.850000</speed>
</trkpt>
<trkpt lat="55.681343" lon="26.384109">
<ele>149.970825</ele>
<time>2010-07-18T09:39:36Z</time>
<desc>lat.=55.681343, lon.=26.384109, Alt.=149.970825m. Speed=21.275999m/h.</desc>
<speed>5.910000</speed>
</trkpt>
<trkpt lat="55.681309" lon="26.384186">
<ele>149.978638</ele>
<time>2010-07-18T09:39:37Z</time>
<desc>lat.=55.681309, lon.=26.384186, Alt.=149.978638m. Speed=21.672001m/h.</desc>
<speed>6.020000</speed>
</trkpt>
<trkpt lat="55.681278" lon="26.384270">
<ele>149.830200</ele>
<time>2010-07-18T09:39:38Z</time>
<desc>lat.=55.681278, lon.=26.384270, Alt.=149.830200m. Speed=21.996000m/h.</desc>
<speed>6.110000</speed>
</trkpt>
<trkpt lat="55.681248" lon="26.384356">
<ele>149.384888</ele>
<time>2010-07-18T09:39:39Z</time>
<desc>lat.=55.681248, lon.=26.384356, Alt.=149.384888m. Speed=22.572001m/h.</desc>
<speed>6.270000</speed>
</trkpt>
<trkpt lat="55.681221" lon="26.384447">
<ele>149.150513</ele>
<time>2010-07-18T09:39:40Z</time>
<desc>lat.=55.681221, lon.=26.384447, Alt.=149.150513m. Speed=23.040001m/h.</desc>
<speed>6.400000</speed>
</trkpt>
<trkpt lat="55.681198" lon="26.384539">
<ele>148.880981</ele>
<time>2010-07-18T09:39:41Z</time>
<desc>lat.=55.681198, lon.=26.384539, Alt.=148.880981m. Speed=23.615999m/h.</desc>
<speed>6.560000</speed>
</trkpt>
<trkpt lat="55.681171" lon="26.384632">
<ele>148.709106</ele>
<time>2010-07-18T09:39:42Z</time>
<desc>lat.=55.681171, lon.=26.384632, Alt.=148.709106m. Speed=24.011999m/h.</desc>
<speed>6.670000</speed>
</trkpt>
<trkpt lat="55.681145" lon="26.384731">
<ele>148.427856</ele>
<time>2010-07-18T09:39:43Z</time>
<desc>lat.=55.681145, lon.=26.384731, Alt.=148.427856m. Speed=24.516001m/h.</desc>
<speed>6.810000</speed>
</trkpt>
<trkpt lat="55.681122" lon="26.384838">
<ele>148.287231</ele>
<time>2010-07-18T09:39:44Z</time>
<desc>lat.=55.681122, lon.=26.384838, Alt.=148.287231m. Speed=25.344000m/h.</desc>
<speed>7.040000</speed>
</trkpt>
<trkpt lat="55.681103" lon="26.384945">
<ele>147.963013</ele>
<time>2010-07-18T09:39:45Z</time>
<desc>lat.=55.681103, lon.=26.384945, Alt.=147.963013m. Speed=25.812000m/h.</desc>
<speed>7.170000</speed>
</trkpt>
<trkpt lat="55.681080" lon="26.385057">
<ele>147.697388</ele>
<time>2010-07-18T09:39:46Z</time>
<desc>lat.=55.681080, lon.=26.385057, Alt.=147.697388m. Speed=26.100000m/h.</desc>
<speed>7.250000</speed>
</trkpt>
<trkpt lat="55.681068" lon="26.385174">
<ele>147.498169</ele>
<time>2010-07-18T09:39:47Z</time>
<desc>lat.=55.681068, lon.=26.385174, Alt.=147.498169m. Speed=26.351999m/h.</desc>
<speed>7.320000</speed>
</trkpt>
<trkpt lat="55.681057" lon="26.385290">
<ele>147.482544</ele>
<time>2010-07-18T09:39:48Z</time>
<desc>lat.=55.681057, lon.=26.385290, Alt.=147.482544m. Speed=26.927999m/h.</desc>
<speed>7.480000</speed>
</trkpt>
<trkpt lat="55.681046" lon="26.385410">
<ele>147.607544</ele>
<time>2010-07-18T09:39:49Z</time>
<desc>lat.=55.681046, lon.=26.385410, Alt.=147.607544m. Speed=27.431999m/h.</desc>
<speed>7.620000</speed>
</trkpt>
<trkpt lat="55.681034" lon="26.385532">
<ele>147.478638</ele>
<time>2010-07-18T09:39:50Z</time>
<desc>lat.=55.681034, lon.=26.385532, Alt.=147.478638m. Speed=27.756001m/h.</desc>
<speed>7.710000</speed>
</trkpt>
<trkpt lat="55.681026" lon="26.385662">
<ele>147.232544</ele>
<time>2010-07-18T09:39:51Z</time>
<desc>lat.=55.681026, lon.=26.385662, Alt.=147.232544m. Speed=28.224001m/h.</desc>
<speed>7.840000</speed>
</trkpt>
<trkpt lat="55.681019" lon="26.385786">
<ele>147.005981</ele>
<time>2010-07-18T09:39:52Z</time>
<desc>lat.=55.681019, lon.=26.385786, Alt.=147.005981m. Speed=27.936001m/h.</desc>
<speed>7.760000</speed>
</trkpt>
<trkpt lat="55.681019" lon="26.385910">
<ele>146.888794</ele>
<time>2010-07-18T09:39:53Z</time>
<desc>lat.=55.681019, lon.=26.385910, Alt.=146.888794m. Speed=27.612000m/h.</desc>
<speed>7.670000</speed>
</trkpt>
<trkpt lat="55.681023" lon="26.386032">
<ele>146.970825</ele>
<time>2010-07-18T09:39:54Z</time>
<desc>lat.=55.681023, lon.=26.386032, Alt.=146.970825m. Speed=27.108000m/h.</desc>
<speed>7.530000</speed>
</trkpt>
<trkpt lat="55.681026" lon="26.386152">
<ele>147.056763</ele>
<time>2010-07-18T09:39:55Z</time>
<desc>lat.=55.681026, lon.=26.386152, Alt.=147.056763m. Speed=27.108000m/h.</desc>
<speed>7.530000</speed>
</trkpt>
<trkpt lat="55.681034" lon="26.386274">
<ele>147.052856</ele>
<time>2010-07-18T09:39:56Z</time>
<desc>lat.=55.681034, lon.=26.386274, Alt.=147.052856m. Speed=27.252001m/h.</desc>
<speed>7.570000</speed>
</trkpt>
<trkpt lat="55.681042" lon="26.386393">
<ele>147.197388</ele>
<time>2010-07-18T09:39:57Z</time>
<desc>lat.=55.681042, lon.=26.386393, Alt.=147.197388m. Speed=27.035999m/h.</desc>
<speed>7.510000</speed>
</trkpt>
<trkpt lat="55.681046" lon="26.386509">
<ele>147.349731</ele>
<time>2010-07-18T09:39:58Z</time>
<desc>lat.=55.681046, lon.=26.386509, Alt.=147.349731m. Speed=26.388000m/h.</desc>
<speed>7.330000</speed>
</trkpt>
<trkpt lat="55.681049" lon="26.386625">
<ele>147.693481</ele>
<time>2010-07-18T09:39:59Z</time>
<desc>lat.=55.681049, lon.=26.386625, Alt.=147.693481m. Speed=25.775999m/h.</desc>
<speed>7.160000</speed>
</trkpt>
<trkpt lat="55.681057" lon="26.386740">
<ele>148.162231</ele>
<time>2010-07-18T09:40:00Z</time>
<desc>lat.=55.681057, lon.=26.386740, Alt.=148.162231m. Speed=25.091999m/h.</desc>
<speed>6.970000</speed>
</trkpt>
<trkpt lat="55.681065" lon="26.386848">
<ele>148.627075</ele>
<time>2010-07-18T09:40:01Z</time>
<desc>lat.=55.681065, lon.=26.386848, Alt.=148.627075m. Speed=23.868000m/h.</desc>
<speed>6.630000</speed>
</trkpt>
<trkpt lat="55.681072" lon="26.386951">
<ele>149.107544</ele>
<time>2010-07-18T09:40:02Z</time>
<desc>lat.=55.681072, lon.=26.386951, Alt.=149.107544m. Speed=22.608000m/h.</desc>
<speed>6.280000</speed>
</trkpt>
<trkpt lat="55.681080" lon="26.387047">
<ele>149.451294</ele>
<time>2010-07-18T09:40:03Z</time>
<desc>lat.=55.681080, lon.=26.387047, Alt.=149.451294m. Speed=20.736000m/h.</desc>
<speed>5.760000</speed>
</trkpt>
<trkpt lat="55.681084" lon="26.387131">
<ele>149.763794</ele>
<time>2010-07-18T09:40:04Z</time>
<desc>lat.=55.681084, lon.=26.387131, Alt.=149.763794m. Speed=18.252001m/h.</desc>
<speed>5.070000</speed>
</trkpt>
<trkpt lat="55.681091" lon="26.387205">
<ele>150.017700</ele>
<time>2010-07-18T09:40:05Z</time>
<desc>lat.=55.681091, lon.=26.387205, Alt.=150.017700m. Speed=16.596001m/h.</desc>
<speed>4.610000</speed>
</trkpt>
<trkpt lat="55.681099" lon="26.387272">
<ele>150.627075</ele>
<time>2010-07-18T09:40:06Z</time>
<desc>lat.=55.681099, lon.=26.387272, Alt.=150.627075m. Speed=14.760000m/h.</desc>
<speed>4.100000</speed>
</trkpt>
<trkpt lat="55.681099" lon="26.387329">
<ele>151.127075</ele>
<time>2010-07-18T09:40:07Z</time>
<desc>lat.=55.681099, lon.=26.387329, Alt.=151.127075m. Speed=13.356000m/h.</desc>
<speed>3.710000</speed>
</trkpt>
<trkpt lat="55.681103" lon="26.387384">
<ele>151.685669</ele>
<time>2010-07-18T09:40:08Z</time>
<desc>lat.=55.681103, lon.=26.387384, Alt.=151.685669m. Speed=12.456000m/h.</desc>
<speed>3.460000</speed>
</trkpt>
<trkpt lat="55.681107" lon="26.387436">
<ele>151.701294</ele>
<time>2010-07-18T09:40:09Z</time>
<desc>lat.=55.681107, lon.=26.387436, Alt.=151.701294m. Speed=11.988000m/h.</desc>
<speed>3.330000</speed>
</trkpt>
<trkpt lat="55.681110" lon="26.387484">
<ele>151.865356</ele>
<time>2010-07-18T09:40:10Z</time>
<desc>lat.=55.681110, lon.=26.387484, Alt.=151.865356m. Speed=10.836000m/h.</desc>
<speed>3.010000</speed>
</trkpt>
<trkpt lat="55.681114" lon="26.387526">
<ele>150.673950</ele>
<time>2010-07-18T09:40:11Z</time>
<desc>lat.=55.681114, lon.=26.387526, Alt.=150.673950m. Speed=10.044000m/h.</desc>
<speed>2.790000</speed>
</trkpt>
<trkpt lat="55.681118" lon="26.387569">
<ele>150.541138</ele>
<time>2010-07-18T09:40:12Z</time>
<desc>lat.=55.681118, lon.=26.387569, Alt.=150.541138m. Speed=8.748000m/h.</desc>
<speed>2.430000</speed>
</trkpt>
<trkpt lat="55.681122" lon="26.387606">
<ele>150.279419</ele>
<time>2010-07-18T09:40:13Z</time>
<desc>lat.=55.681122, lon.=26.387606, Alt.=150.279419m. Speed=8.424000m/h.</desc>
<speed>2.340000</speed>
</trkpt>
<trkpt lat="55.681126" lon="26.387638">
<ele>149.931763</ele>
<time>2010-07-18T09:40:14Z</time>
<desc>lat.=55.681126, lon.=26.387638, Alt.=149.931763m. Speed=7.524000m/h.</desc>
<speed>2.090000</speed>
</trkpt>
<trkpt lat="55.681126" lon="26.387672">
<ele>149.677856</ele>
<time>2010-07-18T09:40:15Z</time>
<desc>lat.=55.681126, lon.=26.387672, Alt.=149.677856m. Speed=8.604000m/h.</desc>
<speed>2.390000</speed>
</trkpt>
<trkpt lat="55.681129" lon="26.387709">
<ele>149.185669</ele>
<time>2010-07-18T09:40:16Z</time>
<desc>lat.=55.681129, lon.=26.387709, Alt.=149.185669m. Speed=8.712000m/h.</desc>
<speed>2.420000</speed>
</trkpt>
<trkpt lat="55.681129" lon="26.387743">
<ele>148.088013</ele>
<time>2010-07-18T09:40:17Z</time>
<desc>lat.=55.681129, lon.=26.387743, Alt.=148.088013m. Speed=8.604000m/h.</desc>
<speed>2.390000</speed>
</trkpt>
<trkpt lat="55.681133" lon="26.387787">
<ele>147.966919</ele>
<time>2010-07-18T09:40:18Z</time>
<desc>lat.=55.681133, lon.=26.387787, Alt.=147.966919m. Speed=8.676000m/h.</desc>
<speed>2.410000</speed>
</trkpt>
<trkpt lat="55.681141" lon="26.387821">
<ele>146.986450</ele>
<time>2010-07-18T09:40:19Z</time>
<desc>lat.=55.681141, lon.=26.387821, Alt.=146.986450m. Speed=7.812000m/h.</desc>
<speed>2.170000</speed>
</trkpt>
<trkpt lat="55.681141" lon="26.387857">
<ele>146.505981</ele>
<time>2010-07-18T09:40:20Z</time>
<desc>lat.=55.681141, lon.=26.387857, Alt.=146.505981m. Speed=6.984000m/h.</desc>
<speed>1.940000</speed>
</trkpt>
<trkpt lat="55.681145" lon="26.387888">
<ele>146.146606</ele>
<time>2010-07-18T09:40:21Z</time>
<desc>lat.=55.681145, lon.=26.387888, Alt.=146.146606m. Speed=6.588000m/h.</desc>
<speed>1.830000</speed>
</trkpt>
<trkpt lat="55.681145" lon="26.387920">
<ele>145.865356</ele>
<time>2010-07-18T09:40:22Z</time>
<desc>lat.=55.681145, lon.=26.387920, Alt.=145.865356m. Speed=8.424000m/h.</desc>
<speed>2.340000</speed>
</trkpt>
<trkpt lat="55.681141" lon="26.387962">
<ele>145.748169</ele>
<time>2010-07-18T09:40:23Z</time>
<desc>lat.=55.681141, lon.=26.387962, Alt.=145.748169m. Speed=8.244000m/h.</desc>
<speed>2.290000</speed>
</trkpt>
<trkpt lat="55.681133" lon="26.388008">
<ele>145.521606</ele>
<time>2010-07-18T09:40:24Z</time>
<desc>lat.=55.681133, lon.=26.388008, Alt.=145.521606m. Speed=9.396000m/h.</desc>
<speed>2.610000</speed>
</trkpt>
<trkpt lat="55.681126" lon="26.388062">
<ele>145.861450</ele>
<time>2010-07-18T09:40:25Z</time>
<desc>lat.=55.681126, lon.=26.388062, Alt.=145.861450m. Speed=9.612000m/h.</desc>
<speed>2.670000</speed>
</trkpt>
<trkpt lat="55.681122" lon="26.388109">
<ele>145.732544</ele>
<time>2010-07-18T09:40:26Z</time>
<desc>lat.=55.681122, lon.=26.388109, Alt.=145.732544m. Speed=9.504000m/h.</desc>
<speed>2.640000</speed>
</trkpt>
<trkpt lat="55.681129" lon="26.388149">
<ele>145.310669</ele>
<time>2010-07-18T09:40:27Z</time>
<desc>lat.=55.681129, lon.=26.388149, Alt.=145.310669m. Speed=10.368000m/h.</desc>
<speed>2.880000</speed>
</trkpt>
<trkpt lat="55.681133" lon="26.388195">
<ele>145.283325</ele>
<time>2010-07-18T09:40:28Z</time>
<desc>lat.=55.681133, lon.=26.388195, Alt.=145.283325m. Speed=10.260000m/h.</desc>
<speed>2.850000</speed>
</trkpt>
<trkpt lat="55.681137" lon="26.388245">
<ele>145.365356</ele>
<time>2010-07-18T09:40:29Z</time>
<desc>lat.=55.681137, lon.=26.388245, Alt.=145.365356m. Speed=10.584000m/h.</desc>
<speed>2.940000</speed>
</trkpt>
<trkpt lat="55.681141" lon="26.388290">
<ele>145.259888</ele>
<time>2010-07-18T09:40:30Z</time>
<desc>lat.=55.681141, lon.=26.388290, Alt.=145.259888m. Speed=10.692000m/h.</desc>
<speed>2.970000</speed>
</trkpt>
<trkpt lat="55.681141" lon="26.388342">
<ele>144.970825</ele>
<time>2010-07-18T09:40:31Z</time>
<desc>lat.=55.681141, lon.=26.388342, Alt.=144.970825m. Speed=11.556000m/h.</desc>
<speed>3.210000</speed>
</trkpt>
<trkpt lat="55.681137" lon="26.388397">
<ele>144.931763</ele>
<time>2010-07-18T09:40:32Z</time>
<desc>lat.=55.681137, lon.=26.388397, Alt.=144.931763m. Speed=11.592000m/h.</desc>
<speed>3.220000</speed>
</trkpt>
<trkpt lat="55.681141" lon="26.388453">
<ele>145.548950</ele>
<time>2010-07-18T09:40:33Z</time>
<desc>lat.=55.681141, lon.=26.388453, Alt.=145.548950m. Speed=12.960000m/h.</desc>
<speed>3.600000</speed>
</trkpt>
<trkpt lat="55.681141" lon="26.388512">
<ele>145.392700</ele>
<time>2010-07-18T09:40:34Z</time>
<desc>lat.=55.681141, lon.=26.388512, Alt.=145.392700m. Speed=13.608000m/h.</desc>
<speed>3.780000</speed>
</trkpt>
<trkpt lat="55.681145" lon="26.388575">
<ele>145.627075</ele>
<time>2010-07-18T09:40:35Z</time>
<desc>lat.=55.681145, lon.=26.388575, Alt.=145.627075m. Speed=14.364000m/h.</desc>
<speed>3.990000</speed>
</trkpt>
<trkpt lat="55.681149" lon="26.388638">
<ele>145.673950</ele>
<time>2010-07-18T09:40:36Z</time>
<desc>lat.=55.681149, lon.=26.388638, Alt.=145.673950m. Speed=14.220000m/h.</desc>
<speed>3.950000</speed>
</trkpt>
<trkpt lat="55.681152" lon="26.388700">
<ele>145.580200</ele>
<time>2010-07-18T09:40:37Z</time>
<desc>lat.=55.681152, lon.=26.388700, Alt.=145.580200m. Speed=13.968000m/h.</desc>
<speed>3.880000</speed>
</trkpt>
<trkpt lat="55.681152" lon="26.388763">
<ele>145.420044</ele>
<time>2010-07-18T09:40:38Z</time>
<desc>lat.=55.681152, lon.=26.388763, Alt.=145.420044m. Speed=14.760000m/h.</desc>
<speed>4.100000</speed>
</trkpt>
<trkpt lat="55.681156" lon="26.388828">
<ele>145.349731</ele>
<time>2010-07-18T09:40:39Z</time>
<desc>lat.=55.681156, lon.=26.388828, Alt.=145.349731m. Speed=15.300000m/h.</desc>
<speed>4.250000</speed>
</trkpt>
<trkpt lat="55.681160" lon="26.388893">
<ele>145.318481</ele>
<time>2010-07-18T09:40:40Z</time>
<desc>lat.=55.681160, lon.=26.388893, Alt.=145.318481m. Speed=15.696000m/h.</desc>
<speed>4.360000</speed>
</trkpt>
<trkpt lat="55.681160" lon="26.388966">
<ele>145.142700</ele>
<time>2010-07-18T09:40:41Z</time>
<desc>lat.=55.681160, lon.=26.388966, Alt.=145.142700m. Speed=15.948000m/h.</desc>
<speed>4.430000</speed>
</trkpt>
<trkpt lat="55.681164" lon="26.389038">
<ele>144.900513</ele>
<time>2010-07-18T09:40:42Z</time>
<desc>lat.=55.681164, lon.=26.389038, Alt.=144.900513m. Speed=16.848000m/h.</desc>
<speed>4.680000</speed>
</trkpt>
<trkpt lat="55.681168" lon="26.389122">
<ele>144.795044</ele>
<time>2010-07-18T09:40:43Z</time>
<desc>lat.=55.681168, lon.=26.389122, Alt.=144.795044m. Speed=19.007999m/h.</desc>
<speed>5.280000</speed>
</trkpt>
<trkpt lat="55.681171" lon="26.389212">
<ele>144.935669</ele>
<time>2010-07-18T09:40:44Z</time>
<desc>lat.=55.681171, lon.=26.389212, Alt.=144.935669m. Speed=20.268000m/h.</desc>
<speed>5.630000</speed>
</trkpt>
<trkpt lat="55.681175" lon="26.389307">
<ele>144.849731</ele>
<time>2010-07-18T09:40:45Z</time>
<desc>lat.=55.681175, lon.=26.389307, Alt.=144.849731m. Speed=22.176001m/h.</desc>
<speed>6.160000</speed>
</trkpt>
<trkpt lat="55.681183" lon="26.389410">
<ele>144.963013</ele>
<time>2010-07-18T09:40:46Z</time>
<desc>lat.=55.681183, lon.=26.389410, Alt.=144.963013m. Speed=22.176001m/h.</desc>
<speed>6.160000</speed>
</trkpt>
<trkpt lat="55.681187" lon="26.389513">
<ele>144.947388</ele>
<time>2010-07-18T09:40:47Z</time>
<desc>lat.=55.681187, lon.=26.389513, Alt.=144.947388m. Speed=21.780001m/h.</desc>
<speed>6.050000</speed>
</trkpt>
<trkpt lat="55.681194" lon="26.389616">
<ele>144.923950</ele>
<time>2010-07-18T09:40:48Z</time>
<desc>lat.=55.681194, lon.=26.389616, Alt.=144.923950m. Speed=21.240000m/h.</desc>
<speed>5.900000</speed>
</trkpt>
<trkpt lat="55.681198" lon="26.389709">
<ele>144.841919</ele>
<time>2010-07-18T09:40:49Z</time>
<desc>lat.=55.681198, lon.=26.389709, Alt.=144.841919m. Speed=20.952000m/h.</desc>
<speed>5.820000</speed>
</trkpt>
<trkpt lat="55.681202" lon="26.389801">
<ele>144.685669</ele>
<time>2010-07-18T09:40:50Z</time>
<desc>lat.=55.681202, lon.=26.389801, Alt.=144.685669m. Speed=20.916000m/h.</desc>
<speed>5.810000</speed>
</trkpt>
<trkpt lat="55.681206" lon="26.389896">
<ele>144.341919</ele>
<time>2010-07-18T09:40:51Z</time>
<desc>lat.=55.681206, lon.=26.389896, Alt.=144.341919m. Speed=21.851999m/h.</desc>
<speed>6.070000</speed>
</trkpt>
<trkpt lat="55.681210" lon="26.389990">
<ele>144.142700</ele>
<time>2010-07-18T09:40:52Z</time>
<desc>lat.=55.681210, lon.=26.389990, Alt.=144.142700m. Speed=20.195999m/h.</desc>
<speed>5.610000</speed>
</trkpt>
<trkpt lat="55.681221" lon="26.390079">
<ele>143.877075</ele>
<time>2010-07-18T09:40:53Z</time>
<desc>lat.=55.681221, lon.=26.390079, Alt.=143.877075m. Speed=20.879999m/h.</desc>
<speed>5.800000</speed>
</trkpt>
<trkpt lat="55.681229" lon="26.390165">
<ele>143.619263</ele>
<time>2010-07-18T09:40:54Z</time>
<desc>lat.=55.681229, lon.=26.390165, Alt.=143.619263m. Speed=19.656000m/h.</desc>
<speed>5.460000</speed>
</trkpt>
<trkpt lat="55.681236" lon="26.390240">
<ele>143.201294</ele>
<time>2010-07-18T09:40:55Z</time>
<desc>lat.=55.681236, lon.=26.390240, Alt.=143.201294m. Speed=15.912000m/h.</desc>
<speed>4.420000</speed>
</trkpt>
<trkpt lat="55.681252" lon="26.390318">
<ele>141.216919</ele>
<time>2010-07-18T09:40:56Z</time>
<desc>lat.=55.681252, lon.=26.390318, Alt.=141.216919m. Speed=18.719999m/h.</desc>
<speed>5.200000</speed>
</trkpt>
<trkpt lat="55.681263" lon="26.390400">
<ele>139.900513</ele>
<time>2010-07-18T09:40:57Z</time>
<desc>lat.=55.681263, lon.=26.390400, Alt.=139.900513m. Speed=18.684000m/h.</desc>
<speed>5.190000</speed>
</trkpt>
<trkpt lat="55.681271" lon="26.390478">
<ele>139.103638</ele>
<time>2010-07-18T09:40:58Z</time>
<desc>lat.=55.681271, lon.=26.390478, Alt.=139.103638m. Speed=18.792000m/h.</desc>
<speed>5.220000</speed>
</trkpt>
<trkpt lat="55.681282" lon="26.390558">
<ele>138.564575</ele>
<time>2010-07-18T09:40:59Z</time>
<desc>lat.=55.681282, lon.=26.390558, Alt.=138.564575m. Speed=18.468000m/h.</desc>
<speed>5.130000</speed>
</trkpt>
<trkpt lat="55.681301" lon="26.390635">
<ele>139.353638</ele>
<time>2010-07-18T09:41:00Z</time>
<desc>lat.=55.681301, lon.=26.390635, Alt.=139.353638m. Speed=18.323999m/h.</desc>
<speed>5.090000</speed>
</trkpt>
<trkpt lat="55.681309" lon="26.390717">
<ele>140.470825</ele>
<time>2010-07-18T09:41:01Z</time>
<desc>lat.=55.681309, lon.=26.390717, Alt.=140.470825m. Speed=18.180000m/h.</desc>
<speed>5.050000</speed>
</trkpt>
<trkpt lat="55.681313" lon="26.390793">
<ele>141.345825</ele>
<time>2010-07-18T09:41:02Z</time>
<desc>lat.=55.681313, lon.=26.390793, Alt.=141.345825m. Speed=17.747999m/h.</desc>
<speed>4.930000</speed>
</trkpt>
<trkpt lat="55.681305" lon="26.390890">
<ele>142.525513</ele>
<time>2010-07-18T09:41:03Z</time>
<desc>lat.=55.681305, lon.=26.390890, Alt.=142.525513m. Speed=17.388000m/h.</desc>
<speed>4.830000</speed>
</trkpt>
<trkpt lat="55.681309" lon="26.390970">
<ele>143.873169</ele>
<time>2010-07-18T09:41:04Z</time>
<desc>lat.=55.681309, lon.=26.390970, Alt.=143.873169m. Speed=16.308001m/h.</desc>
<speed>4.530000</speed>
</trkpt>
<trkpt lat="55.681313" lon="26.391039">
<ele>143.470825</ele>
<time>2010-07-18T09:41:05Z</time>
<desc>lat.=55.681313, lon.=26.391039, Alt.=143.470825m. Speed=14.652000m/h.</desc>
<speed>4.070000</speed>
</trkpt>
<trkpt lat="55.681320" lon="26.391094">
<ele>143.216919</ele>
<time>2010-07-18T09:41:06Z</time>
<desc>lat.=55.681320, lon.=26.391094, Alt.=143.216919m. Speed=12.996000m/h.</desc>
<speed>3.610000</speed>
</trkpt>
<trkpt lat="55.681320" lon="26.391148">
<ele>143.509888</ele>
<time>2010-07-18T09:41:07Z</time>
<desc>lat.=55.681320, lon.=26.391148, Alt.=143.509888m. Speed=10.800000m/h.</desc>
<speed>3.000000</speed>
</trkpt>
<trkpt lat="55.681324" lon="26.391191">
<ele>143.650513</ele>
<time>2010-07-18T09:41:08Z</time>
<desc>lat.=55.681324, lon.=26.391191, Alt.=143.650513m. Speed=8.856000m/h.</desc>
<speed>2.460000</speed>
</trkpt>
<trkpt lat="55.681328" lon="26.391228">
<ele>143.541138</ele>
<time>2010-07-18T09:41:09Z</time>
<desc>lat.=55.681328, lon.=26.391228, Alt.=143.541138m. Speed=9.072000m/h.</desc>
<speed>2.520000</speed>
</trkpt>
<trkpt lat="55.681328" lon="26.391270">
<ele>143.525513</ele>
<time>2010-07-18T09:41:10Z</time>
<desc>lat.=55.681328, lon.=26.391270, Alt.=143.525513m. Speed=9.576000m/h.</desc>
<speed>2.660000</speed>
</trkpt>
<trkpt lat="55.681332" lon="26.391315">
<ele>143.873169</ele>
<time>2010-07-18T09:41:11Z</time>
<desc>lat.=55.681332, lon.=26.391315, Alt.=143.873169m. Speed=9.684000m/h.</desc>
<speed>2.690000</speed>
</trkpt>
<trkpt lat="55.681332" lon="26.391361">
<ele>144.068481</ele>
<time>2010-07-18T09:41:12Z</time>
<desc>lat.=55.681332, lon.=26.391361, Alt.=144.068481m. Speed=9.396000m/h.</desc>
<speed>2.610000</speed>
</trkpt>
<trkpt lat="55.681332" lon="26.391403">
<ele>143.533325</ele>
<time>2010-07-18T09:41:13Z</time>
<desc>lat.=55.681332, lon.=26.391403, Alt.=143.533325m. Speed=8.892000m/h.</desc>
<speed>2.470000</speed>
</trkpt>
<trkpt lat="55.681335" lon="26.391445">
<ele>143.349731</ele>
<time>2010-07-18T09:41:14Z</time>
<desc>lat.=55.681335, lon.=26.391445, Alt.=143.349731m. Speed=9.468000m/h.</desc>
<speed>2.630000</speed>
</trkpt>
<trkpt lat="55.681335" lon="26.391487">
<ele>143.439575</ele>
<time>2010-07-18T09:41:15Z</time>
<desc>lat.=55.681335, lon.=26.391487, Alt.=143.439575m. Speed=9.576000m/h.</desc>
<speed>2.660000</speed>
</trkpt>
<trkpt lat="55.681339" lon="26.391533">
<ele>143.189575</ele>
<time>2010-07-18T09:41:16Z</time>
<desc>lat.=55.681339, lon.=26.391533, Alt.=143.189575m. Speed=9.828000m/h.</desc>
<speed>2.730000</speed>
</trkpt>
<trkpt lat="55.681343" lon="26.391579">
<ele>143.009888</ele>
<time>2010-07-18T09:41:17Z</time>
<desc>lat.=55.681343, lon.=26.391579, Alt.=143.009888m. Speed=10.440000m/h.</desc>
<speed>2.900000</speed>
</trkpt>
<trkpt lat="55.681343" lon="26.391623">
<ele>142.841919</ele>
<time>2010-07-18T09:41:18Z</time>
<desc>lat.=55.681343, lon.=26.391623, Alt.=142.841919m. Speed=10.188000m/h.</desc>
<speed>2.830000</speed>
</trkpt>
<trkpt lat="55.681347" lon="26.391665">
<ele>142.552856</ele>
<time>2010-07-18T09:41:19Z</time>
<desc>lat.=55.681347, lon.=26.391665, Alt.=142.552856m. Speed=9.288000m/h.</desc>
<speed>2.580000</speed>
</trkpt>
<trkpt lat="55.681351" lon="26.391705">
<ele>142.357544</ele>
<time>2010-07-18T09:41:20Z</time>
<desc>lat.=55.681351, lon.=26.391705, Alt.=142.357544m. Speed=9.504000m/h.</desc>
<speed>2.640000</speed>
</trkpt>
<trkpt lat="55.681355" lon="26.391737">
<ele>142.189575</ele>
<time>2010-07-18T09:41:21Z</time>
<desc>lat.=55.681355, lon.=26.391737, Alt.=142.189575m. Speed=7.380000m/h.</desc>
<speed>2.050000</speed>
</trkpt>
<trkpt lat="55.681358" lon="26.391762">
<ele>142.806763</ele>
<time>2010-07-18T09:41:22Z</time>
<desc>lat.=55.681358, lon.=26.391762, Alt.=142.806763m. Speed=5.328000m/h.</desc>
<speed>1.480000</speed>
</trkpt>
<trkpt lat="55.681358" lon="26.391783">
<ele>142.900513</ele>
<time>2010-07-18T09:41:23Z</time>
<desc>lat.=55.681358, lon.=26.391783, Alt.=142.900513m. Speed=5.292000m/h.</desc>
<speed>1.470000</speed>
</trkpt>
<trkpt lat="55.681362" lon="26.391806">
<ele>142.982544</ele>
<time>2010-07-18T09:41:24Z</time>
<desc>lat.=55.681362, lon.=26.391806, Alt.=142.982544m. Speed=5.652000m/h.</desc>
<speed>1.570000</speed>
</trkpt>
<trkpt lat="55.681366" lon="26.391827">
<ele>143.490356</ele>
<time>2010-07-18T09:41:25Z</time>
<desc>lat.=55.681366, lon.=26.391827, Alt.=143.490356m. Speed=5.148000m/h.</desc>
<speed>1.430000</speed>
</trkpt>
<trkpt lat="55.681370" lon="26.391851">
<ele>143.849731</ele>
<time>2010-07-18T09:41:26Z</time>
<desc>lat.=55.681370, lon.=26.391851, Alt.=143.849731m. Speed=6.804000m/h.</desc>
<speed>1.890000</speed>
</trkpt>
<trkpt lat="55.681370" lon="26.391880">
<ele>143.810669</ele>
<time>2010-07-18T09:41:27Z</time>
<desc>lat.=55.681370, lon.=26.391880, Alt.=143.810669m. Speed=7.560000m/h.</desc>
<speed>2.100000</speed>
</trkpt>
<trkpt lat="55.681374" lon="26.391912">
<ele>143.994263</ele>
<time>2010-07-18T09:41:28Z</time>
<desc>lat.=55.681374, lon.=26.391912, Alt.=143.994263m. Speed=7.488000m/h.</desc>
<speed>2.080000</speed>
</trkpt>
<trkpt lat="55.681374" lon="26.391947">
<ele>143.963013</ele>
<time>2010-07-18T09:41:29Z</time>
<desc>lat.=55.681374, lon.=26.391947, Alt.=143.963013m. Speed=7.596000m/h.</desc>
<speed>2.110000</speed>
</trkpt>
<trkpt lat="55.681377" lon="26.391983">
<ele>144.349731</ele>
<time>2010-07-18T09:41:30Z</time>
<desc>lat.=55.681377, lon.=26.391983, Alt.=144.349731m. Speed=8.532000m/h.</desc>
<speed>2.370000</speed>
</trkpt>
<trkpt lat="55.681377" lon="26.392025">
<ele>144.435669</ele>
<time>2010-07-18T09:41:31Z</time>
<desc>lat.=55.681377, lon.=26.392025, Alt.=144.435669m. Speed=9.684000m/h.</desc>
<speed>2.690000</speed>
</trkpt>
<trkpt lat="55.681374" lon="26.392063">
<ele>144.798950</ele>
<time>2010-07-18T09:41:32Z</time>
<desc>lat.=55.681374, lon.=26.392063, Alt.=144.798950m. Speed=7.596000m/h.</desc>
<speed>2.110000</speed>
</trkpt>
<trkpt lat="55.681374" lon="26.392094">
<ele>145.275513</ele>
<time>2010-07-18T09:41:33Z</time>
<desc>lat.=55.681374, lon.=26.392094, Alt.=145.275513m. Speed=7.596000m/h.</desc>
<speed>2.110000</speed>
</trkpt>
<trkpt lat="55.681374" lon="26.392128">
<ele>145.380981</ele>
<time>2010-07-18T09:41:34Z</time>
<desc>lat.=55.681374, lon.=26.392128, Alt.=145.380981m. Speed=7.596000m/h.</desc>
<speed>2.110000</speed>
</trkpt>
<trkpt lat="55.681377" lon="26.392160">
<ele>145.697388</ele>
<time>2010-07-18T09:41:35Z</time>
<desc>lat.=55.681377, lon.=26.392160, Alt.=145.697388m. Speed=8.316000m/h.</desc>
<speed>2.310000</speed>
</trkpt>
<trkpt lat="55.681381" lon="26.392200">
<ele>145.568481</ele>
<time>2010-07-18T09:41:36Z</time>
<desc>lat.=55.681381, lon.=26.392200, Alt.=145.568481m. Speed=8.496000m/h.</desc>
<speed>2.360000</speed>
</trkpt>
<trkpt lat="55.681385" lon="26.392239">
<ele>145.873169</ele>
<time>2010-07-18T09:41:37Z</time>
<desc>lat.=55.681385, lon.=26.392239, Alt.=145.873169m. Speed=8.496000m/h.</desc>
<speed>2.360000</speed>
</trkpt>
<trkpt lat="55.681393" lon="26.392269">
<ele>146.896606</ele>
<time>2010-07-18T09:41:38Z</time>
<desc>lat.=55.681393, lon.=26.392269, Alt.=146.896606m. Speed=8.352000m/h.</desc>
<speed>2.320000</speed>
</trkpt>
<trkpt lat="55.681396" lon="26.392303">
<ele>147.084106</ele>
<time>2010-07-18T09:41:39Z</time>
<desc>lat.=55.681396, lon.=26.392303, Alt.=147.084106m. Speed=8.208000m/h.</desc>
<speed>2.280000</speed>
</trkpt>
<trkpt lat="55.681396" lon="26.392342">
<ele>147.279419</ele>
<time>2010-07-18T09:41:40Z</time>
<desc>lat.=55.681396, lon.=26.392342, Alt.=147.279419m. Speed=8.244000m/h.</desc>
<speed>2.290000</speed>
</trkpt>
<trkpt lat="55.681400" lon="26.392376">
<ele>147.588013</ele>
<time>2010-07-18T09:41:41Z</time>
<desc>lat.=55.681400, lon.=26.392376, Alt.=147.588013m. Speed=8.208000m/h.</desc>
<speed>2.280000</speed>
</trkpt>
<trkpt lat="55.681404" lon="26.392412">
<ele>147.947388</ele>
<time>2010-07-18T09:41:42Z</time>
<desc>lat.=55.681404, lon.=26.392412, Alt.=147.947388m. Speed=8.352000m/h.</desc>
<speed>2.320000</speed>
</trkpt>
<trkpt lat="55.681404" lon="26.392452">
<ele>148.783325</ele>
<time>2010-07-18T09:41:43Z</time>
<desc>lat.=55.681404, lon.=26.392452, Alt.=148.783325m. Speed=8.604000m/h.</desc>
<speed>2.390000</speed>
</trkpt>
<trkpt lat="55.681408" lon="26.392490">
<ele>150.095825</ele>
<time>2010-07-18T09:41:44Z</time>
<desc>lat.=55.681408, lon.=26.392490, Alt.=150.095825m. Speed=8.208000m/h.</desc>
<speed>2.280000</speed>
</trkpt>
<trkpt lat="55.681408" lon="26.392525">
<ele>150.455200</ele>
<time>2010-07-18T09:41:45Z</time>
<desc>lat.=55.681408, lon.=26.392525, Alt.=150.455200m. Speed=8.388000m/h.</desc>
<speed>2.330000</speed>
</trkpt>
<trkpt lat="55.681408" lon="26.392565">
<ele>149.498169</ele>
<time>2010-07-18T09:41:46Z</time>
<desc>lat.=55.681408, lon.=26.392565, Alt.=149.498169m. Speed=7.416000m/h.</desc>
<speed>2.060000</speed>
</trkpt>
<trkpt lat="55.681416" lon="26.392603">
<ele>149.923950</ele>
<time>2010-07-18T09:41:47Z</time>
<desc>lat.=55.681416, lon.=26.392603, Alt.=149.923950m. Speed=9.576000m/h.</desc>
<speed>2.660000</speed>
</trkpt>
<trkpt lat="55.681423" lon="26.392645">
<ele>151.177856</ele>
<time>2010-07-18T09:41:48Z</time>
<desc>lat.=55.681423, lon.=26.392645, Alt.=151.177856m. Speed=8.388000m/h.</desc>
<speed>2.330000</speed>
</trkpt>
<trkpt lat="55.681431" lon="26.392687">
<ele>151.505981</ele>
<time>2010-07-18T09:41:49Z</time>
<desc>lat.=55.681431, lon.=26.392687, Alt.=151.505981m. Speed=9.792000m/h.</desc>
<speed>2.720000</speed>
</trkpt>
<trkpt lat="55.681435" lon="26.392725">
<ele>152.205200</ele>
<time>2010-07-18T09:41:50Z</time>
<desc>lat.=55.681435, lon.=26.392725, Alt.=152.205200m. Speed=8.784000m/h.</desc>
<speed>2.440000</speed>
</trkpt>
<trkpt lat="55.681435" lon="26.392759">
<ele>151.466919</ele>
<time>2010-07-18T09:41:51Z</time>
<desc>lat.=55.681435, lon.=26.392759, Alt.=151.466919m. Speed=7.020000m/h.</desc>
<speed>1.950000</speed>
</trkpt>
<trkpt lat="55.681438" lon="26.392788">
<ele>150.892700</ele>
<time>2010-07-18T09:41:52Z</time>
<desc>lat.=55.681438, lon.=26.392788, Alt.=150.892700m. Speed=6.048000m/h.</desc>
<speed>1.680000</speed>
</trkpt>
<trkpt lat="55.681442" lon="26.392815">
<ele>151.349731</ele>
<time>2010-07-18T09:41:53Z</time>
<desc>lat.=55.681442, lon.=26.392815, Alt.=151.349731m. Speed=5.220000m/h.</desc>
<speed>1.450000</speed>
</trkpt>
<trkpt lat="55.681442" lon="26.392838">
<ele>151.134888</ele>
<time>2010-07-18T09:41:54Z</time>
<desc>lat.=55.681442, lon.=26.392838, Alt.=151.134888m. Speed=6.336000m/h.</desc>
<speed>1.760000</speed>
</trkpt>
<trkpt lat="55.681446" lon="26.392853">
<ele>151.619263</ele>
<time>2010-07-18T09:41:55Z</time>
<desc>lat.=55.681446, lon.=26.392853, Alt.=151.619263m. Speed=5.148000m/h.</desc>
<speed>1.430000</speed>
</trkpt>
<trkpt lat="55.681450" lon="26.392874">
<ele>151.744263</ele>
<time>2010-07-18T09:41:56Z</time>
<desc>lat.=55.681450, lon.=26.392874, Alt.=151.744263m. Speed=6.984000m/h.</desc>
<speed>1.940000</speed>
</trkpt>
<trkpt lat="55.681458" lon="26.392906">
<ele>151.904419</ele>
<time>2010-07-18T09:41:57Z</time>
<desc>lat.=55.681458, lon.=26.392906, Alt.=151.904419m. Speed=7.020000m/h.</desc>
<speed>1.950000</speed>
</trkpt>
<trkpt lat="55.681458" lon="26.392935">
<ele>151.771606</ele>
<time>2010-07-18T09:41:58Z</time>
<desc>lat.=55.681458, lon.=26.392935, Alt.=151.771606m. Speed=7.488000m/h.</desc>
<speed>2.080000</speed>
</trkpt>
<trkpt lat="55.681458" lon="26.392965">
<ele>151.697388</ele>
<time>2010-07-18T09:41:59Z</time>
<desc>lat.=55.681458, lon.=26.392965, Alt.=151.697388m. Speed=7.776000m/h.</desc>
<speed>2.160000</speed>
</trkpt>
<trkpt lat="55.681461" lon="26.393000">
<ele>151.521606</ele>
<time>2010-07-18T09:42:00Z</time>
<desc>lat.=55.681461, lon.=26.393000, Alt.=151.521606m. Speed=7.776000m/h.</desc>
<speed>2.160000</speed>
</trkpt>
<trkpt lat="55.681465" lon="26.393026">
<ele>151.658325</ele>
<time>2010-07-18T09:42:01Z</time>
<desc>lat.=55.681465, lon.=26.393026, Alt.=151.658325m. Speed=6.048000m/h.</desc>
<speed>1.680000</speed>
</trkpt>
<trkpt lat="55.681465" lon="26.393047">
<ele>151.611450</ele>
<time>2010-07-18T09:42:02Z</time>
<desc>lat.=55.681465, lon.=26.393047, Alt.=151.611450m. Speed=7.236000m/h.</desc>
<speed>2.010000</speed>
</trkpt>
<trkpt lat="55.681473" lon="26.393080">
<ele>151.400513</ele>
<time>2010-07-18T09:42:03Z</time>
<desc>lat.=55.681473, lon.=26.393080, Alt.=151.400513m. Speed=7.920000m/h.</desc>
<speed>2.200000</speed>
</trkpt>
<trkpt lat="55.681477" lon="26.393110">
<ele>151.564575</ele>
<time>2010-07-18T09:42:04Z</time>
<desc>lat.=55.681477, lon.=26.393110, Alt.=151.564575m. Speed=7.992000m/h.</desc>
<speed>2.220000</speed>
</trkpt>
<trkpt lat="55.681477" lon="26.393143">
<ele>151.435669</ele>
<time>2010-07-18T09:42:05Z</time>
<desc>lat.=55.681477, lon.=26.393143, Alt.=151.435669m. Speed=7.488000m/h.</desc>
<speed>2.080000</speed>
</trkpt>
<trkpt lat="55.681477" lon="26.393175">
<ele>151.349731</ele>
<time>2010-07-18T09:42:06Z</time>
<desc>lat.=55.681477, lon.=26.393175, Alt.=151.349731m. Speed=6.876000m/h.</desc>
<speed>1.910000</speed>
</trkpt>
<trkpt lat="55.681477" lon="26.393204">
<ele>151.420044</ele>
<time>2010-07-18T09:42:07Z</time>
<desc>lat.=55.681477, lon.=26.393204, Alt.=151.420044m. Speed=7.380000m/h.</desc>
<speed>2.050000</speed>
</trkpt>
<trkpt lat="55.681473" lon="26.393240">
<ele>151.295044</ele>
<time>2010-07-18T09:42:08Z</time>
<desc>lat.=55.681473, lon.=26.393240, Alt.=151.295044m. Speed=8.496000m/h.</desc>
<speed>2.360000</speed>
</trkpt>
<trkpt lat="55.681473" lon="26.393280">
<ele>151.486450</ele>
<time>2010-07-18T09:42:09Z</time>
<desc>lat.=55.681473, lon.=26.393280, Alt.=151.486450m. Speed=9.648000m/h.</desc>
<speed>2.680000</speed>
</trkpt>
<trkpt lat="55.681477" lon="26.393318">
<ele>151.408325</ele>
<time>2010-07-18T09:42:10Z</time>
<desc>lat.=55.681477, lon.=26.393318, Alt.=151.408325m. Speed=8.496000m/h.</desc>
<speed>2.360000</speed>
</trkpt>
<trkpt lat="55.681477" lon="26.393354">
<ele>151.388794</ele>
<time>2010-07-18T09:42:11Z</time>
<desc>lat.=55.681477, lon.=26.393354, Alt.=151.388794m. Speed=8.640000m/h.</desc>
<speed>2.400000</speed>
</trkpt>
<trkpt lat="55.681477" lon="26.393391">
<ele>151.439575</ele>
<time>2010-07-18T09:42:12Z</time>
<desc>lat.=55.681477, lon.=26.393391, Alt.=151.439575m. Speed=8.568000m/h.</desc>
<speed>2.380000</speed>
</trkpt>
<trkpt lat="55.681480" lon="26.393427">
<ele>151.439575</ele>
<time>2010-07-18T09:42:13Z</time>
<desc>lat.=55.681480, lon.=26.393427, Alt.=151.439575m. Speed=8.712000m/h.</desc>
<speed>2.420000</speed>
</trkpt>
<trkpt lat="55.681484" lon="26.393465">
<ele>151.322388</ele>
<time>2010-07-18T09:42:14Z</time>
<desc>lat.=55.681484, lon.=26.393465, Alt.=151.322388m. Speed=6.804000m/h.</desc>
<speed>1.890000</speed>
</trkpt>
<trkpt lat="55.681488" lon="26.393501">
<ele>151.111450</ele>
<time>2010-07-18T09:42:15Z</time>
<desc>lat.=55.681488, lon.=26.393501, Alt.=151.111450m. Speed=6.120000m/h.</desc>
<speed>1.700000</speed>
</trkpt>
<trkpt lat="55.681488" lon="26.393534">
<ele>151.404419</ele>
<time>2010-07-18T09:42:16Z</time>
<desc>lat.=55.681488, lon.=26.393534, Alt.=151.404419m. Speed=6.084000m/h.</desc>
<speed>1.690000</speed>
</trkpt>
<trkpt lat="55.681484" lon="26.393578">
<ele>151.431763</ele>
<time>2010-07-18T09:42:17Z</time>
<desc>lat.=55.681484, lon.=26.393578, Alt.=151.431763m. Speed=9.108000m/h.</desc>
<speed>2.530000</speed>
</trkpt>
<trkpt lat="55.681484" lon="26.393627">
<ele>151.373169</ele>
<time>2010-07-18T09:42:18Z</time>
<desc>lat.=55.681484, lon.=26.393627, Alt.=151.373169m. Speed=10.116000m/h.</desc>
<speed>2.810000</speed>
</trkpt>
<trkpt lat="55.681488" lon="26.393677">
<ele>151.091919</ele>
<time>2010-07-18T09:42:19Z</time>
<desc>lat.=55.681488, lon.=26.393677, Alt.=151.091919m. Speed=11.088000m/h.</desc>
<speed>3.080000</speed>
</trkpt>
<trkpt lat="55.681492" lon="26.393736">
<ele>151.064575</ele>
<time>2010-07-18T09:42:20Z</time>
<desc>lat.=55.681492, lon.=26.393736, Alt.=151.064575m. Speed=11.880000m/h.</desc>
<speed>3.300000</speed>
</trkpt>
<trkpt lat="55.681499" lon="26.393793">
<ele>152.685669</ele>
<time>2010-07-18T09:42:21Z</time>
<desc>lat.=55.681499, lon.=26.393793, Alt.=152.685669m. Speed=12.528000m/h.</desc>
<speed>3.480000</speed>
</trkpt>
<trkpt lat="55.681507" lon="26.393850">
<ele>153.392700</ele>
<time>2010-07-18T09:42:22Z</time>
<desc>lat.=55.681507, lon.=26.393850, Alt.=153.392700m. Speed=12.672000m/h.</desc>
<speed>3.520000</speed>
</trkpt>
<trkpt lat="55.681511" lon="26.393919">
<ele>152.662231</ele>
<time>2010-07-18T09:42:23Z</time>
<desc>lat.=55.681511, lon.=26.393919, Alt.=152.662231m. Speed=14.508000m/h.</desc>
<speed>4.030000</speed>
</trkpt>
<trkpt lat="55.681519" lon="26.393982">
<ele>152.912231</ele>
<time>2010-07-18T09:42:24Z</time>
<desc>lat.=55.681519, lon.=26.393982, Alt.=152.912231m. Speed=13.608000m/h.</desc>
<speed>3.780000</speed>
</trkpt>
<trkpt lat="55.681519" lon="26.394056">
<ele>152.634888</ele>
<time>2010-07-18T09:42:25Z</time>
<desc>lat.=55.681519, lon.=26.394056, Alt.=152.634888m. Speed=15.408000m/h.</desc>
<speed>4.280000</speed>
</trkpt>
<trkpt lat="55.681519" lon="26.394138">
<ele>152.584106</ele>
<time>2010-07-18T09:42:26Z</time>
<desc>lat.=55.681519, lon.=26.394138, Alt.=152.584106m. Speed=16.128000m/h.</desc>
<speed>4.480000</speed>
</trkpt>
<trkpt lat="55.681522" lon="26.394213">
<ele>152.595825</ele>
<time>2010-07-18T09:42:27Z</time>
<desc>lat.=55.681522, lon.=26.394213, Alt.=152.595825m. Speed=16.955999m/h.</desc>
<speed>4.710000</speed>
</trkpt>
<trkpt lat="55.681522" lon="26.394293">
<ele>151.767700</ele>
<time>2010-07-18T09:42:28Z</time>
<desc>lat.=55.681522, lon.=26.394293, Alt.=151.767700m. Speed=16.200001m/h.</desc>
<speed>4.500000</speed>
</trkpt>
<trkpt lat="55.681526" lon="26.394360">
<ele>151.459106</ele>
<time>2010-07-18T09:42:29Z</time>
<desc>lat.=55.681526, lon.=26.394360, Alt.=151.459106m. Speed=14.148000m/h.</desc>
<speed>3.930000</speed>
</trkpt>
<trkpt lat="55.681534" lon="26.394417">
<ele>151.677856</ele>
<time>2010-07-18T09:42:30Z</time>
<desc>lat.=55.681534, lon.=26.394417, Alt.=151.677856m. Speed=12.888000m/h.</desc>
<speed>3.580000</speed>
</trkpt>
<trkpt lat="55.681538" lon="26.394468">
<ele>151.513794</ele>
<time>2010-07-18T09:42:31Z</time>
<desc>lat.=55.681538, lon.=26.394468, Alt.=151.513794m. Speed=11.952000m/h.</desc>
<speed>3.320000</speed>
</trkpt>
<trkpt lat="55.681545" lon="26.394531">
<ele>151.849731</ele>
<time>2010-07-18T09:42:32Z</time>
<desc>lat.=55.681545, lon.=26.394531, Alt.=151.849731m. Speed=13.176000m/h.</desc>
<speed>3.660000</speed>
</trkpt>
<trkpt lat="55.681549" lon="26.394587">
<ele>152.142700</ele>
<time>2010-07-18T09:42:33Z</time>
<desc>lat.=55.681549, lon.=26.394587, Alt.=152.142700m. Speed=12.600000m/h.</desc>
<speed>3.500000</speed>
</trkpt>
<trkpt lat="55.681553" lon="26.394648">
<ele>152.193481</ele>
<time>2010-07-18T09:42:34Z</time>
<desc>lat.=55.681553, lon.=26.394648, Alt.=152.193481m. Speed=12.672000m/h.</desc>
<speed>3.520000</speed>
</trkpt>
<trkpt lat="55.681561" lon="26.394703">
<ele>152.431763</ele>
<time>2010-07-18T09:42:35Z</time>
<desc>lat.=55.681561, lon.=26.394703, Alt.=152.431763m. Speed=12.456000m/h.</desc>
<speed>3.460000</speed>
</trkpt>
<trkpt lat="55.681561" lon="26.394760">
<ele>152.545044</ele>
<time>2010-07-18T09:42:36Z</time>
<desc>lat.=55.681561, lon.=26.394760, Alt.=152.545044m. Speed=12.528000m/h.</desc>
<speed>3.480000</speed>
</trkpt>
<trkpt lat="55.681561" lon="26.394821">
<ele>152.822388</ele>
<time>2010-07-18T09:42:37Z</time>
<desc>lat.=55.681561, lon.=26.394821, Alt.=152.822388m. Speed=13.284000m/h.</desc>
<speed>3.690000</speed>
</trkpt>
<trkpt lat="55.681561" lon="26.394884">
<ele>153.009888</ele>
<time>2010-07-18T09:42:38Z</time>
<desc>lat.=55.681561, lon.=26.394884, Alt.=153.009888m. Speed=13.644000m/h.</desc>
<speed>3.790000</speed>
</trkpt>
<trkpt lat="55.681564" lon="26.394945">
<ele>152.623169</ele>
<time>2010-07-18T09:42:39Z</time>
<desc>lat.=55.681564, lon.=26.394945, Alt.=152.623169m. Speed=14.580000m/h.</desc>
<speed>4.050000</speed>
</trkpt>
<trkpt lat="55.681568" lon="26.395006">
<ele>152.927856</ele>
<time>2010-07-18T09:42:40Z</time>
<desc>lat.=55.681568, lon.=26.395006, Alt.=152.927856m. Speed=14.760000m/h.</desc>
<speed>4.100000</speed>
</trkpt>
<trkpt lat="55.681572" lon="26.395067">
<ele>152.662231</ele>
<time>2010-07-18T09:42:41Z</time>
<desc>lat.=55.681572, lon.=26.395067, Alt.=152.662231m. Speed=14.652000m/h.</desc>
<speed>4.070000</speed>
</trkpt>
<trkpt lat="55.681576" lon="26.395132">
<ele>152.400513</ele>
<time>2010-07-18T09:42:42Z</time>
<desc>lat.=55.681576, lon.=26.395132, Alt.=152.400513m. Speed=14.760000m/h.</desc>
<speed>4.100000</speed>
</trkpt>
<trkpt lat="55.681576" lon="26.395199">
<ele>151.927856</ele>
<time>2010-07-18T09:42:43Z</time>
<desc>lat.=55.681576, lon.=26.395199, Alt.=151.927856m. Speed=15.156000m/h.</desc>
<speed>4.210000</speed>
</trkpt>
<trkpt lat="55.681583" lon="26.395267">
<ele>152.314575</ele>
<time>2010-07-18T09:42:44Z</time>
<desc>lat.=55.681583, lon.=26.395267, Alt.=152.314575m. Speed=15.732000m/h.</desc>
<speed>4.370000</speed>
</trkpt>
<trkpt lat="55.681587" lon="26.395334">
<ele>152.673950</ele>
<time>2010-07-18T09:42:45Z</time>
<desc>lat.=55.681587, lon.=26.395334, Alt.=152.673950m. Speed=16.020000m/h.</desc>
<speed>4.450000</speed>
</trkpt>
<trkpt lat="55.681591" lon="26.395403">
<ele>152.752075</ele>
<time>2010-07-18T09:42:46Z</time>
<desc>lat.=55.681591, lon.=26.395403, Alt.=152.752075m. Speed=15.876000m/h.</desc>
<speed>4.410000</speed>
</trkpt>
<trkpt lat="55.681595" lon="26.395473">
<ele>152.404419</ele>
<time>2010-07-18T09:42:47Z</time>
<desc>lat.=55.681595, lon.=26.395473, Alt.=152.404419m. Speed=15.840000m/h.</desc>
<speed>4.400000</speed>
</trkpt>
<trkpt lat="55.681602" lon="26.395546">
<ele>152.713013</ele>
<time>2010-07-18T09:42:48Z</time>
<desc>lat.=55.681602, lon.=26.395546, Alt.=152.713013m. Speed=15.768000m/h.</desc>
<speed>4.380000</speed>
</trkpt>
<trkpt lat="55.681610" lon="26.395615">
<ele>153.255981</ele>
<time>2010-07-18T09:42:49Z</time>
<desc>lat.=55.681610, lon.=26.395615, Alt.=153.255981m. Speed=15.696000m/h.</desc>
<speed>4.360000</speed>
</trkpt>
<trkpt lat="55.681610" lon="26.395683">
<ele>153.189575</ele>
<time>2010-07-18T09:42:50Z</time>
<desc>lat.=55.681610, lon.=26.395683, Alt.=153.189575m. Speed=15.768000m/h.</desc>
<speed>4.380000</speed>
</trkpt>
<trkpt lat="55.681614" lon="26.395754">
<ele>152.970825</ele>
<time>2010-07-18T09:42:51Z</time>
<desc>lat.=55.681614, lon.=26.395754, Alt.=152.970825m. Speed=16.091999m/h.</desc>
<speed>4.470000</speed>
</trkpt>
<trkpt lat="55.681618" lon="26.395824">
<ele>152.908325</ele>
<time>2010-07-18T09:42:52Z</time>
<desc>lat.=55.681618, lon.=26.395824, Alt.=152.908325m. Speed=15.876000m/h.</desc>
<speed>4.410000</speed>
</trkpt>
<trkpt lat="55.681622" lon="26.395895">
<ele>153.068481</ele>
<time>2010-07-18T09:42:53Z</time>
<desc>lat.=55.681622, lon.=26.395895, Alt.=153.068481m. Speed=16.020000m/h.</desc>
<speed>4.450000</speed>
</trkpt>
<trkpt lat="55.681625" lon="26.395960">
<ele>152.865356</ele>
<time>2010-07-18T09:42:54Z</time>
<desc>lat.=55.681625, lon.=26.395960, Alt.=152.865356m. Speed=14.508000m/h.</desc>
<speed>4.030000</speed>
</trkpt>
<trkpt lat="55.681633" lon="26.396019">
<ele>152.884888</ele>
<time>2010-07-18T09:42:55Z</time>
<desc>lat.=55.681633, lon.=26.396019, Alt.=152.884888m. Speed=13.428000m/h.</desc>
<speed>3.730000</speed>
</trkpt>
<trkpt lat="55.681633" lon="26.396078">
<ele>152.795044</ele>
<time>2010-07-18T09:42:56Z</time>
<desc>lat.=55.681633, lon.=26.396078, Alt.=152.795044m. Speed=12.204000m/h.</desc>
<speed>3.390000</speed>
</trkpt>
<trkpt lat="55.681633" lon="26.396132">
<ele>152.888794</ele>
<time>2010-07-18T09:42:57Z</time>
<desc>lat.=55.681633, lon.=26.396132, Alt.=152.888794m. Speed=11.016000m/h.</desc>
<speed>3.060000</speed>
</trkpt>
<trkpt lat="55.681633" lon="26.396181">
<ele>152.173950</ele>
<time>2010-07-18T09:42:58Z</time>
<desc>lat.=55.681633, lon.=26.396181, Alt.=152.173950m. Speed=9.828000m/h.</desc>
<speed>2.730000</speed>
</trkpt>
<trkpt lat="55.681637" lon="26.396223">
<ele>153.048950</ele>
<time>2010-07-18T09:42:59Z</time>
<desc>lat.=55.681637, lon.=26.396223, Alt.=153.048950m. Speed=8.964000m/h.</desc>
<speed>2.490000</speed>
</trkpt>
<trkpt lat="55.681641" lon="26.396263">
<ele>153.029419</ele>
<time>2010-07-18T09:43:00Z</time>
<desc>lat.=55.681641, lon.=26.396263, Alt.=153.029419m. Speed=9.864000m/h.</desc>
<speed>2.740000</speed>
</trkpt>
<trkpt lat="55.681641" lon="26.396309">
<ele>153.455200</ele>
<time>2010-07-18T09:43:01Z</time>
<desc>lat.=55.681641, lon.=26.396309, Alt.=153.455200m. Speed=10.512000m/h.</desc>
<speed>2.920000</speed>
</trkpt>
<trkpt lat="55.681644" lon="26.396357">
<ele>153.505981</ele>
<time>2010-07-18T09:43:02Z</time>
<desc>lat.=55.681644, lon.=26.396357, Alt.=153.505981m. Speed=11.628000m/h.</desc>
<speed>3.230000</speed>
</trkpt>
<trkpt lat="55.681648" lon="26.396408">
<ele>153.810669</ele>
<time>2010-07-18T09:43:03Z</time>
<desc>lat.=55.681648, lon.=26.396408, Alt.=153.810669m. Speed=11.340000m/h.</desc>
<speed>3.150000</speed>
</trkpt>
<trkpt lat="55.681652" lon="26.396460">
<ele>154.283325</ele>
<time>2010-07-18T09:43:04Z</time>
<desc>lat.=55.681652, lon.=26.396460, Alt.=154.283325m. Speed=11.520000m/h.</desc>
<speed>3.200000</speed>
</trkpt>
<trkpt lat="55.681656" lon="26.396515">
<ele>154.728638</ele>
<time>2010-07-18T09:43:05Z</time>
<desc>lat.=55.681656, lon.=26.396515, Alt.=154.728638m. Speed=12.276000m/h.</desc>
<speed>3.410000</speed>
</trkpt>
<trkpt lat="55.681664" lon="26.396574">
<ele>154.818481</ele>
<time>2010-07-18T09:43:06Z</time>
<desc>lat.=55.681664, lon.=26.396574, Alt.=154.818481m. Speed=12.852000m/h.</desc>
<speed>3.570000</speed>
</trkpt>
<trkpt lat="55.681660" lon="26.396637">
<ele>154.088013</ele>
<time>2010-07-18T09:43:07Z</time>
<desc>lat.=55.681660, lon.=26.396637, Alt.=154.088013m. Speed=12.852000m/h.</desc>
<speed>3.570000</speed>
</trkpt>
<trkpt lat="55.681664" lon="26.396698">
<ele>154.240356</ele>
<time>2010-07-18T09:43:08Z</time>
<desc>lat.=55.681664, lon.=26.396698, Alt.=154.240356m. Speed=13.068000m/h.</desc>
<speed>3.630000</speed>
</trkpt>
<trkpt lat="55.681664" lon="26.396763">
<ele>153.939575</ele>
<time>2010-07-18T09:43:09Z</time>
<desc>lat.=55.681664, lon.=26.396763, Alt.=153.939575m. Speed=13.032000m/h.</desc>
<speed>3.620000</speed>
</trkpt>
<trkpt lat="55.681671" lon="26.396820">
<ele>154.533325</ele>
<time>2010-07-18T09:43:10Z</time>
<desc>lat.=55.681671, lon.=26.396820, Alt.=154.533325m. Speed=13.248000m/h.</desc>
<speed>3.680000</speed>
</trkpt>
<trkpt lat="55.681667" lon="26.396885">
<ele>154.314575</ele>
<time>2010-07-18T09:43:11Z</time>
<desc>lat.=55.681667, lon.=26.396885, Alt.=154.314575m. Speed=13.356000m/h.</desc>
<speed>3.710000</speed>
</trkpt>
<trkpt lat="55.681667" lon="26.396950">
<ele>154.056763</ele>
<time>2010-07-18T09:43:12Z</time>
<desc>lat.=55.681667, lon.=26.396950, Alt.=154.056763m. Speed=13.248000m/h.</desc>
<speed>3.680000</speed>
</trkpt>
<trkpt lat="55.681667" lon="26.397017">
<ele>153.591919</ele>
<time>2010-07-18T09:43:13Z</time>
<desc>lat.=55.681667, lon.=26.397017, Alt.=153.591919m. Speed=13.608000m/h.</desc>
<speed>3.780000</speed>
</trkpt>
<trkpt lat="55.681671" lon="26.397078">
<ele>153.451294</ele>
<time>2010-07-18T09:43:14Z</time>
<desc>lat.=55.681671, lon.=26.397078, Alt.=153.451294m. Speed=12.888000m/h.</desc>
<speed>3.580000</speed>
</trkpt>
<trkpt lat="55.681679" lon="26.397141">
<ele>153.091919</ele>
<time>2010-07-18T09:43:15Z</time>
<desc>lat.=55.681679, lon.=26.397141, Alt.=153.091919m. Speed=12.456000m/h.</desc>
<speed>3.460000</speed>
</trkpt>
<trkpt lat="55.681683" lon="26.397198">
<ele>152.435669</ele>
<time>2010-07-18T09:43:16Z</time>
<desc>lat.=55.681683, lon.=26.397198, Alt.=152.435669m. Speed=12.168000m/h.</desc>
<speed>3.380000</speed>
</trkpt>
<trkpt lat="55.681686" lon="26.397253">
<ele>152.494263</ele>
<time>2010-07-18T09:43:17Z</time>
<desc>lat.=55.681686, lon.=26.397253, Alt.=152.494263m. Speed=12.348000m/h.</desc>
<speed>3.430000</speed>
</trkpt>
<trkpt lat="55.681690" lon="26.397305">
<ele>152.685669</ele>
<time>2010-07-18T09:43:18Z</time>
<desc>lat.=55.681690, lon.=26.397305, Alt.=152.685669m. Speed=11.376000m/h.</desc>
<speed>3.160000</speed>
</trkpt>
<trkpt lat="55.681698" lon="26.397352">
<ele>152.853638</ele>
<time>2010-07-18T09:43:19Z</time>
<desc>lat.=55.681698, lon.=26.397352, Alt.=152.853638m. Speed=12.168000m/h.</desc>
<speed>3.380000</speed>
</trkpt>
<trkpt lat="55.681702" lon="26.397404">
<ele>153.185669</ele>
<time>2010-07-18T09:43:20Z</time>
<desc>lat.=55.681702, lon.=26.397404, Alt.=153.185669m. Speed=12.204000m/h.</desc>
<speed>3.390000</speed>
</trkpt>
<trkpt lat="55.681698" lon="26.397461">
<ele>152.533325</ele>
<time>2010-07-18T09:43:21Z</time>
<desc>lat.=55.681698, lon.=26.397461, Alt.=152.533325m. Speed=11.700000m/h.</desc>
<speed>3.250000</speed>
</trkpt>
<trkpt lat="55.681698" lon="26.397514">
<ele>152.744263</ele>
<time>2010-07-18T09:43:22Z</time>
<desc>lat.=55.681698, lon.=26.397514, Alt.=152.744263m. Speed=11.412000m/h.</desc>
<speed>3.170000</speed>
</trkpt>
<trkpt lat="55.681702" lon="26.397562">
<ele>153.822388</ele>
<time>2010-07-18T09:43:23Z</time>
<desc>lat.=55.681702, lon.=26.397562, Alt.=153.822388m. Speed=11.664000m/h.</desc>
<speed>3.240000</speed>
</trkpt>
<trkpt lat="55.681702" lon="26.397614">
<ele>153.408325</ele>
<time>2010-07-18T09:43:24Z</time>
<desc>lat.=55.681702, lon.=26.397614, Alt.=153.408325m. Speed=11.412000m/h.</desc>
<speed>3.170000</speed>
</trkpt>
<trkpt lat="55.681705" lon="26.397663">
<ele>153.267700</ele>
<time>2010-07-18T09:43:25Z</time>
<desc>lat.=55.681705, lon.=26.397663, Alt.=153.267700m. Speed=11.016000m/h.</desc>
<speed>3.060000</speed>
</trkpt>
<trkpt lat="55.681709" lon="26.397711">
<ele>153.658325</ele>
<time>2010-07-18T09:43:26Z</time>
<desc>lat.=55.681709, lon.=26.397711, Alt.=153.658325m. Speed=11.160000m/h.</desc>
<speed>3.100000</speed>
</trkpt>
<trkpt lat="55.681705" lon="26.397753">
<ele>153.291138</ele>
<time>2010-07-18T09:43:27Z</time>
<desc>lat.=55.681705, lon.=26.397753, Alt.=153.291138m. Speed=8.316000m/h.</desc>
<speed>2.310000</speed>
</trkpt>
<trkpt lat="55.681702" lon="26.397791">
<ele>153.388794</ele>
<time>2010-07-18T09:43:28Z</time>
<desc>lat.=55.681702, lon.=26.397791, Alt.=153.388794m. Speed=7.344000m/h.</desc>
<speed>2.040000</speed>
</trkpt>
<trkpt lat="55.681705" lon="26.397833">
<ele>153.330200</ele>
<time>2010-07-18T09:43:29Z</time>
<desc>lat.=55.681705, lon.=26.397833, Alt.=153.330200m. Speed=8.532000m/h.</desc>
<speed>2.370000</speed>
</trkpt>
<trkpt lat="55.681705" lon="26.397875">
<ele>153.365356</ele>
<time>2010-07-18T09:43:30Z</time>
<desc>lat.=55.681705, lon.=26.397875, Alt.=153.365356m. Speed=10.548000m/h.</desc>
<speed>2.930000</speed>
</trkpt>
<trkpt lat="55.681717" lon="26.397919">
<ele>153.603638</ele>
<time>2010-07-18T09:43:31Z</time>
<desc>lat.=55.681717, lon.=26.397919, Alt.=153.603638m. Speed=8.604000m/h.</desc>
<speed>2.390000</speed>
</trkpt>
<trkpt lat="55.681717" lon="26.397953">
<ele>153.572388</ele>
<time>2010-07-18T09:43:32Z</time>
<desc>lat.=55.681717, lon.=26.397953, Alt.=153.572388m. Speed=9.252000m/h.</desc>
<speed>2.570000</speed>
</trkpt>
<trkpt lat="55.681721" lon="26.397995">
<ele>153.759888</ele>
<time>2010-07-18T09:43:33Z</time>
<desc>lat.=55.681721, lon.=26.397995, Alt.=153.759888m. Speed=8.964000m/h.</desc>
<speed>2.490000</speed>
</trkpt>
<trkpt lat="55.681725" lon="26.398027">
<ele>153.888794</ele>
<time>2010-07-18T09:43:34Z</time>
<desc>lat.=55.681725, lon.=26.398027, Alt.=153.888794m. Speed=8.424000m/h.</desc>
<speed>2.340000</speed>
</trkpt>
<trkpt lat="55.681725" lon="26.398066">
<ele>153.935669</ele>
<time>2010-07-18T09:43:35Z</time>
<desc>lat.=55.681725, lon.=26.398066, Alt.=153.935669m. Speed=9.432000m/h.</desc>
<speed>2.620000</speed>
</trkpt>
<trkpt lat="55.681728" lon="26.398109">
<ele>154.084106</ele>
<time>2010-07-18T09:43:36Z</time>
<desc>lat.=55.681728, lon.=26.398109, Alt.=154.084106m. Speed=9.108000m/h.</desc>
<speed>2.530000</speed>
</trkpt>
<trkpt lat="55.681736" lon="26.398149">
<ele>154.002075</ele>
<time>2010-07-18T09:43:37Z</time>
<desc>lat.=55.681736, lon.=26.398149, Alt.=154.002075m. Speed=9.396000m/h.</desc>
<speed>2.610000</speed>
</trkpt>
<trkpt lat="55.681740" lon="26.398188">
<ele>153.685669</ele>
<time>2010-07-18T09:43:38Z</time>
<desc>lat.=55.681740, lon.=26.398188, Alt.=153.685669m. Speed=8.892000m/h.</desc>
<speed>2.470000</speed>
</trkpt>
<trkpt lat="55.681751" lon="26.398228">
<ele>154.048950</ele>
<time>2010-07-18T09:43:39Z</time>
<desc>lat.=55.681751, lon.=26.398228, Alt.=154.048950m. Speed=10.332000m/h.</desc>
<speed>2.870000</speed>
</trkpt>
<trkpt lat="55.681751" lon="26.398266">
<ele>154.439575</ele>
<time>2010-07-18T09:43:40Z</time>
<desc>lat.=55.681751, lon.=26.398266, Alt.=154.439575m. Speed=9.648000m/h.</desc>
<speed>2.680000</speed>
</trkpt>
<trkpt lat="55.681759" lon="26.398300">
<ele>155.005981</ele>
<time>2010-07-18T09:43:41Z</time>
<desc>lat.=55.681759, lon.=26.398300, Alt.=155.005981m. Speed=9.180000m/h.</desc>
<speed>2.550000</speed>
</trkpt>
<trkpt lat="55.681767" lon="26.398338">
<ele>155.119263</ele>
<time>2010-07-18T09:43:42Z</time>
<desc>lat.=55.681767, lon.=26.398338, Alt.=155.119263m. Speed=9.180000m/h.</desc>
<speed>2.550000</speed>
</trkpt>
<trkpt lat="55.681770" lon="26.398373">
<ele>155.947388</ele>
<time>2010-07-18T09:43:43Z</time>
<desc>lat.=55.681770, lon.=26.398373, Alt.=155.947388m. Speed=8.892000m/h.</desc>
<speed>2.470000</speed>
</trkpt>
<trkpt lat="55.681770" lon="26.398415">
<ele>155.787231</ele>
<time>2010-07-18T09:43:44Z</time>
<desc>lat.=55.681770, lon.=26.398415, Alt.=155.787231m. Speed=10.512000m/h.</desc>
<speed>2.920000</speed>
</trkpt>
<trkpt lat="55.681774" lon="26.398460">
<ele>155.830200</ele>
<time>2010-07-18T09:43:45Z</time>
<desc>lat.=55.681774, lon.=26.398460, Alt.=155.830200m. Speed=11.268000m/h.</desc>
<speed>3.130000</speed>
</trkpt>
<trkpt lat="55.681778" lon="26.398506">
<ele>155.931763</ele>
<time>2010-07-18T09:43:46Z</time>
<desc>lat.=55.681778, lon.=26.398506, Alt.=155.931763m. Speed=10.692000m/h.</desc>
<speed>2.970000</speed>
</trkpt>
<trkpt lat="55.681782" lon="26.398550">
<ele>155.923950</ele>
<time>2010-07-18T09:43:47Z</time>
<desc>lat.=55.681782, lon.=26.398550, Alt.=155.923950m. Speed=10.044000m/h.</desc>
<speed>2.790000</speed>
</trkpt>
<trkpt lat="55.681782" lon="26.398594">
<ele>155.795044</ele>
<time>2010-07-18T09:43:48Z</time>
<desc>lat.=55.681782, lon.=26.398594, Alt.=155.795044m. Speed=9.576000m/h.</desc>
<speed>2.660000</speed>
</trkpt>
<trkpt lat="55.681782" lon="26.398640">
<ele>156.045044</ele>
<time>2010-07-18T09:43:49Z</time>
<desc>lat.=55.681782, lon.=26.398640, Alt.=156.045044m. Speed=9.612000m/h.</desc>
<speed>2.670000</speed>
</trkpt>
<trkpt lat="55.681782" lon="26.398684">
<ele>155.974731</ele>
<time>2010-07-18T09:43:50Z</time>
<desc>lat.=55.681782, lon.=26.398684, Alt.=155.974731m. Speed=10.044000m/h.</desc>
<speed>2.790000</speed>
</trkpt>
<trkpt lat="55.681782" lon="26.398727">
<ele>155.771606</ele>
<time>2010-07-18T09:43:51Z</time>
<desc>lat.=55.681782, lon.=26.398727, Alt.=155.771606m. Speed=10.260000m/h.</desc>
<speed>2.850000</speed>
</trkpt>
<trkpt lat="55.681782" lon="26.398769">
<ele>155.548950</ele>
<time>2010-07-18T09:43:52Z</time>
<desc>lat.=55.681782, lon.=26.398769, Alt.=155.548950m. Speed=10.152000m/h.</desc>
<speed>2.820000</speed>
</trkpt>
<trkpt lat="55.681786" lon="26.398809">
<ele>155.486450</ele>
<time>2010-07-18T09:43:53Z</time>
<desc>lat.=55.681786, lon.=26.398809, Alt.=155.486450m. Speed=9.864000m/h.</desc>
<speed>2.740000</speed>
</trkpt>
<trkpt lat="55.681786" lon="26.398859">
<ele>155.158325</ele>
<time>2010-07-18T09:43:54Z</time>
<desc>lat.=55.681786, lon.=26.398859, Alt.=155.158325m. Speed=9.396000m/h.</desc>
<speed>2.610000</speed>
</trkpt>
<trkpt lat="55.681789" lon="26.398907">
<ele>154.880981</ele>
<time>2010-07-18T09:43:55Z</time>
<desc>lat.=55.681789, lon.=26.398907, Alt.=154.880981m. Speed=9.540000m/h.</desc>
<speed>2.650000</speed>
</trkpt>
<trkpt lat="55.681793" lon="26.398949">
<ele>155.224731</ele>
<time>2010-07-18T09:43:56Z</time>
<desc>lat.=55.681793, lon.=26.398949, Alt.=155.224731m. Speed=9.828000m/h.</desc>
<speed>2.730000</speed>
</trkpt>
<trkpt lat="55.681793" lon="26.398998">
<ele>155.576294</ele>
<time>2010-07-18T09:43:57Z</time>
<desc>lat.=55.681793, lon.=26.398998, Alt.=155.576294m. Speed=10.620000m/h.</desc>
<speed>2.950000</speed>
</trkpt>
<trkpt lat="55.681789" lon="26.399050">
<ele>155.291138</ele>
<time>2010-07-18T09:43:58Z</time>
<desc>lat.=55.681789, lon.=26.399050, Alt.=155.291138m. Speed=10.260000m/h.</desc>
<speed>2.850000</speed>
</trkpt>
<trkpt lat="55.681793" lon="26.399096">
<ele>155.486450</ele>
<time>2010-07-18T09:43:59Z</time>
<desc>lat.=55.681793, lon.=26.399096, Alt.=155.486450m. Speed=8.352000m/h.</desc>
<speed>2.320000</speed>
</trkpt>
<trkpt lat="55.681789" lon="26.399124">
<ele>155.056763</ele>
<time>2010-07-18T09:44:00Z</time>
<desc>lat.=55.681789, lon.=26.399124, Alt.=155.056763m. Speed=6.264000m/h.</desc>
<speed>1.740000</speed>
</trkpt>
<trkpt lat="55.681789" lon="26.399149">
<ele>155.185669</ele>
<time>2010-07-18T09:44:01Z</time>
<desc>lat.=55.681789, lon.=26.399149, Alt.=155.185669m. Speed=4.896000m/h.</desc>
<speed>1.360000</speed>
</trkpt>
<trkpt lat="55.681793" lon="26.399178">
<ele>155.728638</ele>
<time>2010-07-18T09:44:02Z</time>
<desc>lat.=55.681793, lon.=26.399178, Alt.=155.728638m. Speed=4.860000m/h.</desc>
<speed>1.350000</speed>
</trkpt>
<trkpt lat="55.681793" lon="26.399197">
<ele>155.236450</ele>
<time>2010-07-18T09:44:03Z</time>
<desc>lat.=55.681793, lon.=26.399197, Alt.=155.236450m. Speed=4.644000m/h.</desc>
<speed>1.290000</speed>
</trkpt>
<trkpt lat="55.681793" lon="26.399220">
<ele>154.787231</ele>
<time>2010-07-18T09:44:04Z</time>
<desc>lat.=55.681793, lon.=26.399220, Alt.=154.787231m. Speed=4.680000m/h.</desc>
<speed>1.300000</speed>
</trkpt>
<trkpt lat="55.681789" lon="26.399225">
<ele>154.943481</ele>
<time>2010-07-18T09:44:05Z</time>
<desc>lat.=55.681789, lon.=26.399225, Alt.=154.943481m. Speed=2.448000m/h.</desc>
<speed>0.680000</speed>
</trkpt>
<trkpt lat="55.681789" lon="26.399229">
<ele>154.814575</ele>
<time>2010-07-18T09:44:06Z</time>
<desc>lat.=55.681789, lon.=26.399229, Alt.=154.814575m. Speed=0.288000m/h.</desc>
<speed>0.080000</speed>
</trkpt>
<trkpt lat="55.681793" lon="26.399227">
<ele>154.857544</ele>
<time>2010-07-18T09:44:07Z</time>
<desc>lat.=55.681793, lon.=26.399227, Alt.=154.857544m. Speed=0.216000m/h.</desc>
<speed>0.060000</speed>
</trkpt>
<trkpt lat="55.681786" lon="26.399231">
<ele>154.443481</ele>
<time>2010-07-18T09:44:08Z</time>
<desc>lat.=55.681786, lon.=26.399231, Alt.=154.443481m. Speed=0.432000m/h.</desc>
<speed>0.120000</speed>
</trkpt>
<trkpt lat="55.681786" lon="26.399231">
<ele>154.466919</ele>
<time>2010-07-18T09:44:09Z</time>
<desc>lat.=55.681786, lon.=26.399231, Alt.=154.466919m. Speed=0.324000m/h.</desc>
<speed>0.090000</speed>
</trkpt>
<trkpt lat="55.681786" lon="26.399231">
<ele>154.502075</ele>
<time>2010-07-18T09:44:10Z</time>
<desc>lat.=55.681786, lon.=26.399231, Alt.=154.502075m. Speed=0.216000m/h.</desc>
<speed>0.060000</speed>
</trkpt>
<trkpt lat="55.681786" lon="26.399231">
<ele>154.537231</ele>
<time>2010-07-18T09:44:11Z</time>
<desc>lat.=55.681786, lon.=26.399231, Alt.=154.537231m. Speed=0.072000m/h.</desc>
<speed>0.020000</speed>
</trkpt>
<trkpt lat="55.681786" lon="26.399231">
<ele>154.572388</ele>
<time>2010-07-18T09:44:12Z</time>
<desc>lat.=55.681786, lon.=26.399231, Alt.=154.572388m. Speed=0.036000m/h.</desc>
<speed>0.010000</speed>
</trkpt>
<trkpt lat="55.681786" lon="26.399231">
<ele>154.591919</ele>
<time>2010-07-18T09:44:13Z</time>
<desc>lat.=55.681786, lon.=26.399231, Alt.=154.591919m. Speed=0.036000m/h.</desc>
<speed>0.010000</speed>
</trkpt>
<trkpt lat="55.681786" lon="26.399231">
<ele>154.603638</ele>
<time>2010-07-18T09:44:14Z</time>
<desc>lat.=55.681786, lon.=26.399231, Alt.=154.603638m. Speed=0.000000m/h.</desc>
<speed>0.000000</speed>
</trkpt>
<trkpt lat="55.681786" lon="26.399231">
<ele>154.611450</ele>
<time>2010-07-18T09:44:15Z</time>
<desc>lat.=55.681786, lon.=26.399231, Alt.=154.611450m. Speed=0.000000m/h.</desc>
<speed>0.000000</speed>
</trkpt>
<trkpt lat="55.681786" lon="26.399231">
<ele>154.615356</ele>
<time>2010-07-18T09:44:16Z</time>
<desc>lat.=55.681786, lon.=26.399231, Alt.=154.615356m. Speed=0.036000m/h.</desc>
<speed>0.010000</speed>
</trkpt>
<trkpt lat="55.681786" lon="26.399231">
<ele>154.623169</ele>
<time>2010-07-18T09:44:17Z</time>
<desc>lat.=55.681786, lon.=26.399231, Alt.=154.623169m. Speed=0.000000m/h.</desc>
<speed>0.000000</speed>
</trkpt>
<trkpt lat="55.681786" lon="26.399231">
<ele>154.630981</ele>
<time>2010-07-18T09:44:18Z</time>
<desc>lat.=55.681786, lon.=26.399231, Alt.=154.630981m. Speed=0.000000m/h.</desc>
<speed>0.000000</speed>
</trkpt>
<trkpt lat="55.681786" lon="26.399231">
<ele>154.634888</ele>
<time>2010-07-18T09:44:19Z</time>
<desc>lat.=55.681786, lon.=26.399231, Alt.=154.634888m. Speed=0.072000m/h.</desc>
<speed>0.020000</speed>
</trkpt>
<trkpt lat="55.681786" lon="26.399231">
<ele>154.619263</ele>
<time>2010-07-18T09:44:20Z</time>
<desc>lat.=55.681786, lon.=26.399231, Alt.=154.619263m. Speed=0.108000m/h.</desc>
<speed>0.030000</speed>
</trkpt>
<trkpt lat="55.681786" lon="26.399231">
<ele>154.619263</ele>
<time>2010-07-18T09:44:21Z</time>
<desc>lat.=55.681786, lon.=26.399231, Alt.=154.619263m. Speed=0.000000m/h.</desc>
<speed>0.000000</speed>
</trkpt>
<trkpt lat="55.681786" lon="26.399229">
<ele>154.619263</ele>
<time>2010-07-18T09:44:22Z</time>
<desc>lat.=55.681786, lon.=26.399229, Alt.=154.619263m. Speed=0.036000m/h.</desc>
<speed>0.010000</speed>
</trkpt>
<trkpt lat="55.681786" lon="26.399229">
<ele>154.611450</ele>
<time>2010-07-18T09:44:23Z</time>
<desc>lat.=55.681786, lon.=26.399229, Alt.=154.611450m. Speed=0.000000m/h.</desc>
<speed>0.000000</speed>
</trkpt>
<trkpt lat="55.681786" lon="26.399229">
<ele>154.615356</ele>
<time>2010-07-18T09:44:24Z</time>
<desc>lat.=55.681786, lon.=26.399229, Alt.=154.615356m. Speed=0.036000m/h.</desc>
<speed>0.010000</speed>
</trkpt>
<trkpt lat="55.681786" lon="26.399229">
<ele>154.607544</ele>
<time>2010-07-18T09:44:25Z</time>
<desc>lat.=55.681786, lon.=26.399229, Alt.=154.607544m. Speed=0.000000m/h.</desc>
<speed>0.000000</speed>
</trkpt>
<trkpt lat="55.681786" lon="26.399229">
<ele>154.615356</ele>
<time>2010-07-18T09:44:26Z</time>
<desc>lat.=55.681786, lon.=26.399229, Alt.=154.615356m. Speed=0.000000m/h.</desc>
<speed>0.000000</speed>
</trkpt>
<trkpt lat="55.681786" lon="26.399229">
<ele>154.615356</ele>
<time>2010-07-18T09:44:27Z</time>
<desc>lat.=55.681786, lon.=26.399229, Alt.=154.615356m. Speed=0.000000m/h.</desc>
<speed>0.000000</speed>
</trkpt>
<trkpt lat="55.681786" lon="26.399229">
<ele>154.623169</ele>
<time>2010-07-18T09:44:28Z</time>
<desc>lat.=55.681786, lon.=26.399229, Alt.=154.623169m. Speed=0.108000m/h.</desc>
<speed>0.030000</speed>
</trkpt>
<trkpt lat="55.681786" lon="26.399229">
<ele>154.607544</ele>
<time>2010-07-18T09:44:29Z</time>
<desc>lat.=55.681786, lon.=26.399229, Alt.=154.607544m. Speed=0.072000m/h.</desc>
<speed>0.020000</speed>
</trkpt>
<trkpt lat="55.681786" lon="26.399229">
<ele>154.576294</ele>
<time>2010-07-18T09:44:30Z</time>
<desc>lat.=55.681786, lon.=26.399229, Alt.=154.576294m. Speed=0.072000m/h.</desc>
<speed>0.020000</speed>
</trkpt>
<trkpt lat="55.681786" lon="26.399229">
<ele>154.564575</ele>
<time>2010-07-18T09:44:31Z</time>
<desc>lat.=55.681786, lon.=26.399229, Alt.=154.564575m. Speed=0.000000m/h.</desc>
<speed>0.000000</speed>
</trkpt>
<trkpt lat="55.681786" lon="26.399229">
<ele>154.568481</ele>
<time>2010-07-18T09:44:32Z</time>
<desc>lat.=55.681786, lon.=26.399229, Alt.=154.568481m. Speed=0.180000m/h.</desc>
<speed>0.050000</speed>
</trkpt>
<trkpt lat="55.681786" lon="26.399229">
<ele>154.591919</ele>
<time>2010-07-18T09:44:33Z</time>
<desc>lat.=55.681786, lon.=26.399229, Alt.=154.591919m. Speed=0.108000m/h.</desc>
<speed>0.030000</speed>
</trkpt>
<trkpt lat="55.681786" lon="26.399229">
<ele>154.607544</ele>
<time>2010-07-18T09:44:34Z</time>
<desc>lat.=55.681786, lon.=26.399229, Alt.=154.607544m. Speed=0.144000m/h.</desc>
<speed>0.040000</speed>
</trkpt>
<trkpt lat="55.681786" lon="26.399229">
<ele>154.603638</ele>
<time>2010-07-18T09:44:35Z</time>
<desc>lat.=55.681786, lon.=26.399229, Alt.=154.603638m. Speed=0.000000m/h.</desc>
<speed>0.000000</speed>
</trkpt>
<trkpt lat="55.681786" lon="26.399229">
<ele>154.599731</ele>
<time>2010-07-18T09:44:36Z</time>
<desc>lat.=55.681786, lon.=26.399229, Alt.=154.599731m. Speed=0.288000m/h.</desc>
<speed>0.080000</speed>
</trkpt>
<trkpt lat="55.681786" lon="26.399229">
<ele>154.623169</ele>
<time>2010-07-18T09:44:37Z</time>
<desc>lat.=55.681786, lon.=26.399229, Alt.=154.623169m. Speed=0.000000m/h.</desc>
<speed>0.000000</speed>
</trkpt>
<trkpt lat="55.681786" lon="26.399227">
<ele>154.619263</ele>
<time>2010-07-18T09:44:38Z</time>
<desc>lat.=55.681786, lon.=26.399227, Alt.=154.619263m. Speed=0.036000m/h.</desc>
<speed>0.010000</speed>
</trkpt>
<trkpt lat="55.681786" lon="26.399227">
<ele>154.627075</ele>
<time>2010-07-18T09:44:39Z</time>
<desc>lat.=55.681786, lon.=26.399227, Alt.=154.627075m. Speed=0.036000m/h.</desc>
<speed>0.010000</speed>
</trkpt>
<trkpt lat="55.681786" lon="26.399227">
<ele>154.630981</ele>
<time>2010-07-18T09:44:40Z</time>
<desc>lat.=55.681786, lon.=26.399227, Alt.=154.630981m. Speed=0.000000m/h.</desc>
<speed>0.000000</speed>
</trkpt>
<trkpt lat="55.681786" lon="26.399227">
<ele>154.634888</ele>
<time>2010-07-18T09:44:41Z</time>
<desc>lat.=55.681786, lon.=26.399227, Alt.=154.634888m. Speed=0.036000m/h.</desc>
<speed>0.010000</speed>
</trkpt>
<trkpt lat="55.681786" lon="26.399227">
<ele>154.638794</ele>
<time>2010-07-18T09:44:42Z</time>
<desc>lat.=55.681786, lon.=26.399227, Alt.=154.638794m. Speed=0.000000m/h.</desc>
<speed>0.000000</speed>
</trkpt>
<trkpt lat="55.681786" lon="26.399227">
<ele>154.642700</ele>
<time>2010-07-18T09:44:43Z</time>
<desc>lat.=55.681786, lon.=26.399227, Alt.=154.642700m. Speed=0.000000m/h.</desc>
<speed>0.000000</speed>
</trkpt>
<trkpt lat="55.681786" lon="26.399227">
<ele>154.642700</ele>
<time>2010-07-18T09:44:44Z</time>
<desc>lat.=55.681786, lon.=26.399227, Alt.=154.642700m. Speed=0.036000m/h.</desc>
<speed>0.010000</speed>
</trkpt>
<trkpt lat="55.681786" lon="26.399227">
<ele>154.642700</ele>
<time>2010-07-18T09:44:45Z</time>
<desc>lat.=55.681786, lon.=26.399227, Alt.=154.642700m. Speed=0.036000m/h.</desc>
<speed>0.010000</speed>
</trkpt>
<trkpt lat="55.681786" lon="26.399227">
<ele>154.642700</ele>
<time>2010-07-18T09:44:46Z</time>
<desc>lat.=55.681786, lon.=26.399227, Alt.=154.642700m. Speed=0.000000m/h.</desc>
<speed>0.000000</speed>
</trkpt>
<trkpt lat="55.681786" lon="26.399227">
<ele>154.646606</ele>
<time>2010-07-18T09:44:47Z</time>
<desc>lat.=55.681786, lon.=26.399227, Alt.=154.646606m. Speed=0.036000m/h.</desc>
<speed>0.010000</speed>
</trkpt>
<trkpt lat="55.681786" lon="26.399227">
<ele>154.646606</ele>
<time>2010-07-18T09:44:48Z</time>
<desc>lat.=55.681786, lon.=26.399227, Alt.=154.646606m. Speed=0.000000m/h.</desc>
<speed>0.000000</speed>
</trkpt>
<trkpt lat="55.681786" lon="26.399227">
<ele>154.650513</ele>
<time>2010-07-18T09:44:49Z</time>
<desc>lat.=55.681786, lon.=26.399227, Alt.=154.650513m. Speed=0.000000m/h.</desc>
<speed>0.000000</speed>
</trkpt>
<trkpt lat="55.681786" lon="26.399227">
<ele>154.654419</ele>
<time>2010-07-18T09:44:50Z</time>
<desc>lat.=55.681786, lon.=26.399227, Alt.=154.654419m. Speed=0.000000m/h.</desc>
<speed>0.000000</speed>
</trkpt>
<trkpt lat="55.681786" lon="26.399227">
<ele>154.654419</ele>
<time>2010-07-18T09:44:51Z</time>
<desc>lat.=55.681786, lon.=26.399227, Alt.=154.654419m. Speed=0.000000m/h.</desc>
<speed>0.000000</speed>
</trkpt>
<trkpt lat="55.681786" lon="26.399227">
<ele>154.658325</ele>
<time>2010-07-18T09:44:52Z</time>
<desc>lat.=55.681786, lon.=26.399227, Alt.=154.658325m. Speed=0.036000m/h.</desc>
<speed>0.010000</speed>
</trkpt>
<trkpt lat="55.681786" lon="26.399227">
<ele>154.658325</ele>
<time>2010-07-18T09:44:53Z</time>
<desc>lat.=55.681786, lon.=26.399227, Alt.=154.658325m. Speed=0.036000m/h.</desc>
<speed>0.010000</speed>
</trkpt>
<trkpt lat="55.681786" lon="26.399227">
<ele>154.662231</ele>
<time>2010-07-18T09:44:54Z</time>
<desc>lat.=55.681786, lon.=26.399227, Alt.=154.662231m. Speed=0.000000m/h.</desc>
<speed>0.000000</speed>
</trkpt>
<trkpt lat="55.681786" lon="26.399227">
<ele>154.666138</ele>
<time>2010-07-18T09:44:55Z</time>
<desc>lat.=55.681786, lon.=26.399227, Alt.=154.666138m. Speed=0.000000m/h.</desc>
<speed>0.000000</speed>
</trkpt>
<trkpt lat="55.681786" lon="26.399227">
<ele>154.673950</ele>
<time>2010-07-18T09:44:56Z</time>
<desc>lat.=55.681786, lon.=26.399227, Alt.=154.673950m. Speed=0.000000m/h.</desc>
<speed>0.000000</speed>
</trkpt>
<trkpt lat="55.681786" lon="26.399227">
<ele>154.677856</ele>
<time>2010-07-18T09:44:57Z</time>
<desc>lat.=55.681786, lon.=26.399227, Alt.=154.677856m. Speed=0.000000m/h.</desc>
<speed>0.000000</speed>
</trkpt>
<trkpt lat="55.681786" lon="26.399227">
<ele>154.681763</ele>
<time>2010-07-18T09:44:58Z</time>
<desc>lat.=55.681786, lon.=26.399227, Alt.=154.681763m. Speed=0.036000m/h.</desc>
<speed>0.010000</speed>
</trkpt>
<trkpt lat="55.681786" lon="26.399227">
<ele>154.693481</ele>
<time>2010-07-18T09:44:59Z</time>
<desc>lat.=55.681786, lon.=26.399227, Alt.=154.693481m. Speed=0.072000m/h.</desc>
<speed>0.020000</speed>
</trkpt>
<trkpt lat="55.681786" lon="26.399227">
<ele>154.697388</ele>
<time>2010-07-18T09:45:00Z</time>
<desc>lat.=55.681786, lon.=26.399227, Alt.=154.697388m. Speed=0.036000m/h.</desc>
<speed>0.010000</speed>
</trkpt>
<trkpt lat="55.681786" lon="26.399227">
<ele>154.705200</ele>
<time>2010-07-18T09:45:01Z</time>
<desc>lat.=55.681786, lon.=26.399227, Alt.=154.705200m. Speed=0.000000m/h.</desc>
<speed>0.000000</speed>
</trkpt>
<trkpt lat="55.681786" lon="26.399227">
<ele>154.705200</ele>
<time>2010-07-18T09:45:02Z</time>
<desc>lat.=55.681786, lon.=26.399227, Alt.=154.705200m. Speed=0.036000m/h.</desc>
<speed>0.010000</speed>
</trkpt>
<trkpt lat="55.681786" lon="26.399227">
<ele>154.709106</ele>
<time>2010-07-18T09:45:03Z</time>
<desc>lat.=55.681786, lon.=26.399227, Alt.=154.709106m. Speed=0.036000m/h.</desc>
<speed>0.010000</speed>
</trkpt>
<trkpt lat="55.681786" lon="26.399227">
<ele>154.709106</ele>
<time>2010-07-18T09:45:04Z</time>
<desc>lat.=55.681786, lon.=26.399227, Alt.=154.709106m. Speed=0.000000m/h.</desc>
<speed>0.000000</speed>
</trkpt>
<trkpt lat="55.681786" lon="26.399227">
<ele>154.716919</ele>
<time>2010-07-18T09:45:05Z</time>
<desc>lat.=55.681786, lon.=26.399227, Alt.=154.716919m. Speed=0.144000m/h.</desc>
<speed>0.040000</speed>
</trkpt>
<trkpt lat="55.681786" lon="26.399227">
<ele>154.716919</ele>
<time>2010-07-18T09:45:06Z</time>
<desc>lat.=55.681786, lon.=26.399227, Alt.=154.716919m. Speed=0.756000m/h.</desc>
<speed>0.210000</speed>
</trkpt>
<trkpt lat="55.681786" lon="26.399227">
<ele>154.716919</ele>
<time>2010-07-18T09:45:07Z</time>
<desc>lat.=55.681786, lon.=26.399227, Alt.=154.716919m. Speed=3.960000m/h.</desc>
<speed>1.100000</speed>
</trkpt>
<trkpt lat="55.681786" lon="26.399242">
<ele>154.841919</ele>
<time>2010-07-18T09:45:08Z</time>
<desc>lat.=55.681786, lon.=26.399242, Alt.=154.841919m. Speed=3.888000m/h.</desc>
<speed>1.080000</speed>
</trkpt>
<trkpt lat="55.681793" lon="26.399267">
<ele>154.888794</ele>
<time>2010-07-18T09:45:09Z</time>
<desc>lat.=55.681793, lon.=26.399267, Alt.=154.888794m. Speed=7.056000m/h.</desc>
<speed>1.960000</speed>
</trkpt>
<trkpt lat="55.681797" lon="26.399303">
<ele>154.923950</ele>
<time>2010-07-18T09:45:10Z</time>
<desc>lat.=55.681797, lon.=26.399303, Alt.=154.923950m. Speed=7.992000m/h.</desc>
<speed>2.220000</speed>
</trkpt>
<trkpt lat="55.681805" lon="26.399342">
<ele>155.013794</ele>
<time>2010-07-18T09:45:11Z</time>
<desc>lat.=55.681805, lon.=26.399342, Alt.=155.013794m. Speed=8.316000m/h.</desc>
<speed>2.310000</speed>
</trkpt>
<trkpt lat="55.681808" lon="26.399382">
<ele>155.377075</ele>
<time>2010-07-18T09:45:12Z</time>
<desc>lat.=55.681808, lon.=26.399382, Alt.=155.377075m. Speed=9.324000m/h.</desc>
<speed>2.590000</speed>
</trkpt>
<trkpt lat="55.681816" lon="26.399427">
<ele>155.189575</ele>
<time>2010-07-18T09:45:13Z</time>
<desc>lat.=55.681816, lon.=26.399427, Alt.=155.189575m. Speed=9.756000m/h.</desc>
<speed>2.710000</speed>
</trkpt>
<trkpt lat="55.681828" lon="26.399471">
<ele>155.123169</ele>
<time>2010-07-18T09:45:14Z</time>
<desc>lat.=55.681828, lon.=26.399471, Alt.=155.123169m. Speed=10.440000m/h.</desc>
<speed>2.900000</speed>
</trkpt>
<trkpt lat="55.681831" lon="26.399521">
<ele>155.103638</ele>
<time>2010-07-18T09:45:15Z</time>
<desc>lat.=55.681831, lon.=26.399521, Alt.=155.103638m. Speed=11.592000m/h.</desc>
<speed>3.220000</speed>
</trkpt>
<trkpt lat="55.681835" lon="26.399574">
<ele>155.005981</ele>
<time>2010-07-18T09:45:16Z</time>
<desc>lat.=55.681835, lon.=26.399574, Alt.=155.005981m. Speed=13.464000m/h.</desc>
<speed>3.740000</speed>
</trkpt>
<trkpt lat="55.681835" lon="26.399635">
<ele>155.005981</ele>
<time>2010-07-18T09:45:17Z</time>
<desc>lat.=55.681835, lon.=26.399635, Alt.=155.005981m. Speed=13.572000m/h.</desc>
<speed>3.770000</speed>
</trkpt>
<trkpt lat="55.681839" lon="26.399698">
<ele>154.970825</ele>
<time>2010-07-18T09:45:18Z</time>
<desc>lat.=55.681839, lon.=26.399698, Alt.=154.970825m. Speed=15.480000m/h.</desc>
<speed>4.300000</speed>
</trkpt>
<trkpt lat="55.681843" lon="26.399761">
<ele>155.384888</ele>
<time>2010-07-18T09:45:19Z</time>
<desc>lat.=55.681843, lon.=26.399761, Alt.=155.384888m. Speed=16.236000m/h.</desc>
<speed>4.510000</speed>
</trkpt>
<trkpt lat="55.681850" lon="26.399832">
<ele>155.755981</ele>
<time>2010-07-18T09:45:20Z</time>
<desc>lat.=55.681850, lon.=26.399832, Alt.=155.755981m. Speed=17.351999m/h.</desc>
<speed>4.820000</speed>
</trkpt>
<trkpt lat="55.681854" lon="26.399910">
<ele>155.607544</ele>
<time>2010-07-18T09:45:21Z</time>
<desc>lat.=55.681854, lon.=26.399910, Alt.=155.607544m. Speed=18.108000m/h.</desc>
<speed>5.030000</speed>
</trkpt>
<trkpt lat="55.681862" lon="26.399992">
<ele>155.755981</ele>
<time>2010-07-18T09:45:22Z</time>
<desc>lat.=55.681862, lon.=26.399992, Alt.=155.755981m. Speed=17.747999m/h.</desc>
<speed>4.930000</speed>
</trkpt>
<trkpt lat="55.681870" lon="26.400068">
<ele>155.873169</ele>
<time>2010-07-18T09:45:23Z</time>
<desc>lat.=55.681870, lon.=26.400068, Alt.=155.873169m. Speed=17.388000m/h.</desc>
<speed>4.830000</speed>
</trkpt>
<trkpt lat="55.681877" lon="26.400145">
<ele>156.025513</ele>
<time>2010-07-18T09:45:24Z</time>
<desc>lat.=55.681877, lon.=26.400145, Alt.=156.025513m. Speed=16.704000m/h.</desc>
<speed>4.640000</speed>
</trkpt>
<trkpt lat="55.681881" lon="26.400217">
<ele>156.115356</ele>
<time>2010-07-18T09:45:25Z</time>
<desc>lat.=55.681881, lon.=26.400217, Alt.=156.115356m. Speed=16.452000m/h.</desc>
<speed>4.570000</speed>
</trkpt>
<trkpt lat="55.681885" lon="26.400290">
<ele>156.295044</ele>
<time>2010-07-18T09:45:26Z</time>
<desc>lat.=55.681885, lon.=26.400290, Alt.=156.295044m. Speed=16.200001m/h.</desc>
<speed>4.500000</speed>
</trkpt>
<trkpt lat="55.681892" lon="26.400358">
<ele>156.338013</ele>
<time>2010-07-18T09:45:27Z</time>
<desc>lat.=55.681892, lon.=26.400358, Alt.=156.338013m. Speed=14.868000m/h.</desc>
<speed>4.130000</speed>
</trkpt>
<trkpt lat="55.681896" lon="26.400425">
<ele>156.404419</ele>
<time>2010-07-18T09:45:28Z</time>
<desc>lat.=55.681896, lon.=26.400425, Alt.=156.404419m. Speed=16.308001m/h.</desc>
<speed>4.530000</speed>
</trkpt>
<trkpt lat="55.681904" lon="26.400499">
<ele>156.443481</ele>
<time>2010-07-18T09:45:29Z</time>
<desc>lat.=55.681904, lon.=26.400499, Alt.=156.443481m. Speed=17.820000m/h.</desc>
<speed>4.950000</speed>
</trkpt>
<trkpt lat="55.681908" lon="26.400576">
<ele>155.966919</ele>
<time>2010-07-18T09:45:30Z</time>
<desc>lat.=55.681908, lon.=26.400576, Alt.=155.966919m. Speed=17.820000m/h.</desc>
<speed>4.950000</speed>
</trkpt>
<trkpt lat="55.681911" lon="26.400652">
<ele>155.955200</ele>
<time>2010-07-18T09:45:31Z</time>
<desc>lat.=55.681911, lon.=26.400652, Alt.=155.955200m. Speed=17.532000m/h.</desc>
<speed>4.870000</speed>
</trkpt>
<trkpt lat="55.681915" lon="26.400728">
<ele>155.744263</ele>
<time>2010-07-18T09:45:32Z</time>
<desc>lat.=55.681915, lon.=26.400728, Alt.=155.744263m. Speed=17.820000m/h.</desc>
<speed>4.950000</speed>
</trkpt>
<trkpt lat="55.681923" lon="26.400808">
<ele>155.728638</ele>
<time>2010-07-18T09:45:33Z</time>
<desc>lat.=55.681923, lon.=26.400808, Alt.=155.728638m. Speed=18.035999m/h.</desc>
<speed>5.010000</speed>
</trkpt>
<trkpt lat="55.681927" lon="26.400888">
<ele>155.771606</ele>
<time>2010-07-18T09:45:34Z</time>
<desc>lat.=55.681927, lon.=26.400888, Alt.=155.771606m. Speed=18.143999m/h.</desc>
<speed>5.040000</speed>
</trkpt>
<trkpt lat="55.681931" lon="26.400972">
<ele>155.646606</ele>
<time>2010-07-18T09:45:35Z</time>
<desc>lat.=55.681931, lon.=26.400972, Alt.=155.646606m. Speed=19.080000m/h.</desc>
<speed>5.300000</speed>
</trkpt>
<trkpt lat="55.681934" lon="26.401060">
<ele>155.146606</ele>
<time>2010-07-18T09:45:36Z</time>
<desc>lat.=55.681934, lon.=26.401060, Alt.=155.146606m. Speed=19.440001m/h.</desc>
<speed>5.400000</speed>
</trkpt>
<trkpt lat="55.681934" lon="26.401155">
<ele>154.306763</ele>
<time>2010-07-18T09:45:37Z</time>
<desc>lat.=55.681934, lon.=26.401155, Alt.=154.306763m. Speed=19.872000m/h.</desc>
<speed>5.520000</speed>
</trkpt>
<trkpt lat="55.681938" lon="26.401251">
<ele>153.935669</ele>
<time>2010-07-18T09:45:38Z</time>
<desc>lat.=55.681938, lon.=26.401251, Alt.=153.935669m. Speed=20.988001m/h.</desc>
<speed>5.830000</speed>
</trkpt>
<trkpt lat="55.681942" lon="26.401352">
<ele>153.568481</ele>
<time>2010-07-18T09:45:39Z</time>
<desc>lat.=55.681942, lon.=26.401352, Alt.=153.568481m. Speed=21.816000m/h.</desc>
<speed>6.060000</speed>
</trkpt>
<trkpt lat="55.681946" lon="26.401463">
<ele>152.572388</ele>
<time>2010-07-18T09:45:40Z</time>
<desc>lat.=55.681946, lon.=26.401463, Alt.=152.572388m. Speed=22.716000m/h.</desc>
<speed>6.310000</speed>
</trkpt>
<trkpt lat="55.681946" lon="26.401575">
<ele>151.724731</ele>
<time>2010-07-18T09:45:41Z</time>
<desc>lat.=55.681946, lon.=26.401575, Alt.=151.724731m. Speed=23.724001m/h.</desc>
<speed>6.590000</speed>
</trkpt>
<trkpt lat="55.681953" lon="26.401688">
<ele>151.088013</ele>
<time>2010-07-18T09:45:42Z</time>
<desc>lat.=55.681953, lon.=26.401688, Alt.=151.088013m. Speed=25.091999m/h.</desc>
<speed>6.970000</speed>
</trkpt>
<trkpt lat="55.681961" lon="26.401806">
<ele>150.545044</ele>
<time>2010-07-18T09:45:43Z</time>
<desc>lat.=55.681961, lon.=26.401806, Alt.=150.545044m. Speed=26.243999m/h.</desc>
<speed>7.290000</speed>
</trkpt>
<trkpt lat="55.681969" lon="26.401928">
<ele>150.052856</ele>
<time>2010-07-18T09:45:44Z</time>
<desc>lat.=55.681969, lon.=26.401928, Alt.=150.052856m. Speed=27.396000m/h.</desc>
<speed>7.610000</speed>
</trkpt>
<trkpt lat="55.681976" lon="26.402052">
<ele>149.552856</ele>
<time>2010-07-18T09:45:45Z</time>
<desc>lat.=55.681976, lon.=26.402052, Alt.=149.552856m. Speed=28.044001m/h.</desc>
<speed>7.790000</speed>
</trkpt>
<trkpt lat="55.681980" lon="26.402176">
<ele>148.486450</ele>
<time>2010-07-18T09:45:46Z</time>
<desc>lat.=55.681980, lon.=26.402176, Alt.=148.486450m. Speed=27.684000m/h.</desc>
<speed>7.690000</speed>
</trkpt>
<trkpt lat="55.681984" lon="26.402302">
<ele>147.634888</ele>
<time>2010-07-18T09:45:47Z</time>
<desc>lat.=55.681984, lon.=26.402302, Alt.=147.634888m. Speed=28.188000m/h.</desc>
<speed>7.830000</speed>
</trkpt>
<trkpt lat="55.681988" lon="26.402430">
<ele>146.884888</ele>
<time>2010-07-18T09:45:48Z</time>
<desc>lat.=55.681988, lon.=26.402430, Alt.=146.884888m. Speed=28.764000m/h.</desc>
<speed>7.990000</speed>
</trkpt>
<trkpt lat="55.681992" lon="26.402559">
<ele>145.998169</ele>
<time>2010-07-18T09:45:49Z</time>
<desc>lat.=55.681992, lon.=26.402559, Alt.=145.998169m. Speed=29.087999m/h.</desc>
<speed>8.080000</speed>
</trkpt>
<trkpt lat="55.681995" lon="26.402693">
<ele>145.123169</ele>
<time>2010-07-18T09:45:50Z</time>
<desc>lat.=55.681995, lon.=26.402693, Alt.=145.123169m. Speed=29.591999m/h.</desc>
<speed>8.220000</speed>
</trkpt>
<trkpt lat="55.682003" lon="26.402828">
<ele>144.396606</ele>
<time>2010-07-18T09:45:51Z</time>
<desc>lat.=55.682003, lon.=26.402828, Alt.=144.396606m. Speed=30.708000m/h.</desc>
<speed>8.530000</speed>
</trkpt>
<trkpt lat="55.682014" lon="26.402966">
<ele>143.728638</ele>
<time>2010-07-18T09:45:52Z</time>
<desc>lat.=55.682014, lon.=26.402966, Alt.=143.728638m. Speed=31.643999m/h.</desc>
<speed>8.790000</speed>
</trkpt>
<trkpt lat="55.682026" lon="26.403109">
<ele>143.103638</ele>
<time>2010-07-18T09:45:53Z</time>
<desc>lat.=55.682026, lon.=26.403109, Alt.=143.103638m. Speed=32.076000m/h.</desc>
<speed>8.910000</speed>
</trkpt>
<trkpt lat="55.682041" lon="26.403252">
<ele>142.486450</ele>
<time>2010-07-18T09:45:54Z</time>
<desc>lat.=55.682041, lon.=26.403252, Alt.=142.486450m. Speed=32.292000m/h.</desc>
<speed>8.970000</speed>
</trkpt>
<trkpt lat="55.682053" lon="26.403395">
<ele>141.853638</ele>
<time>2010-07-18T09:45:55Z</time>
<desc>lat.=55.682053, lon.=26.403395, Alt.=141.853638m. Speed=32.472000m/h.</desc>
<speed>9.020000</speed>
</trkpt>
<trkpt lat="55.682068" lon="26.403538">
<ele>141.193481</ele>
<time>2010-07-18T09:45:56Z</time>
<desc>lat.=55.682068, lon.=26.403538, Alt.=141.193481m. Speed=32.759998m/h.</desc>
<speed>9.100000</speed>
</trkpt>
<trkpt lat="55.682083" lon="26.403690">
<ele>142.384888</ele>
<time>2010-07-18T09:45:57Z</time>
<desc>lat.=55.682083, lon.=26.403690, Alt.=142.384888m. Speed=33.444000m/h.</desc>
<speed>9.290000</speed>
</trkpt>
<trkpt lat="55.682098" lon="26.403839">
<ele>142.287231</ele>
<time>2010-07-18T09:45:58Z</time>
<desc>lat.=55.682098, lon.=26.403839, Alt.=142.287231m. Speed=33.695999m/h.</desc>
<speed>9.360000</speed>
</trkpt>
<trkpt lat="55.682114" lon="26.403988">
<ele>142.162231</ele>
<time>2010-07-18T09:45:59Z</time>
<desc>lat.=55.682114, lon.=26.403988, Alt.=142.162231m. Speed=33.515999m/h.</desc>
<speed>9.310000</speed>
</trkpt>
<trkpt lat="55.682133" lon="26.404133">
<ele>142.064575</ele>
<time>2010-07-18T09:46:00Z</time>
<desc>lat.=55.682133, lon.=26.404133, Alt.=142.064575m. Speed=33.048000m/h.</desc>
<speed>9.180000</speed>
</trkpt>
<trkpt lat="55.682152" lon="26.404276">
<ele>142.005981</ele>
<time>2010-07-18T09:46:01Z</time>
<desc>lat.=55.682152, lon.=26.404276, Alt.=142.005981m. Speed=32.652000m/h.</desc>
<speed>9.070000</speed>
</trkpt>
<trkpt lat="55.682171" lon="26.404413">
<ele>141.916138</ele>
<time>2010-07-18T09:46:02Z</time>
<desc>lat.=55.682171, lon.=26.404413, Alt.=141.916138m. Speed=31.896000m/h.</desc>
<speed>8.860000</speed>
</trkpt>
<trkpt lat="55.682194" lon="26.404551">
<ele>141.861450</ele>
<time>2010-07-18T09:46:03Z</time>
<desc>lat.=55.682194, lon.=26.404551, Alt.=141.861450m. Speed=31.356001m/h.</desc>
<speed>8.710000</speed>
</trkpt>
<trkpt lat="55.682213" lon="26.404684">
<ele>141.810669</ele>
<time>2010-07-18T09:46:04Z</time>
<desc>lat.=55.682213, lon.=26.404684, Alt.=141.810669m. Speed=30.816000m/h.</desc>
<speed>8.560000</speed>
</trkpt>
<trkpt lat="55.682236" lon="26.404814">
<ele>141.681763</ele>
<time>2010-07-18T09:46:05Z</time>
<desc>lat.=55.682236, lon.=26.404814, Alt.=141.681763m. Speed=30.275999m/h.</desc>
<speed>8.410000</speed>
</trkpt>
<trkpt lat="55.682259" lon="26.404934">
<ele>141.759888</ele>
<time>2010-07-18T09:46:06Z</time>
<desc>lat.=55.682259, lon.=26.404934, Alt.=141.759888m. Speed=29.483999m/h.</desc>
<speed>8.190000</speed>
</trkpt>
<trkpt lat="55.682285" lon="26.405045">
<ele>141.877075</ele>
<time>2010-07-18T09:46:07Z</time>
<desc>lat.=55.682285, lon.=26.405045, Alt.=141.877075m. Speed=28.260000m/h.</desc>
<speed>7.850000</speed>
</trkpt>
<trkpt lat="55.682312" lon="26.405149">
<ele>141.892700</ele>
<time>2010-07-18T09:46:08Z</time>
<desc>lat.=55.682312, lon.=26.405149, Alt.=141.892700m. Speed=27.288000m/h.</desc>
<speed>7.580000</speed>
</trkpt>
<trkpt lat="55.682323" lon="26.405262">
<ele>142.029419</ele>
<time>2010-07-18T09:46:09Z</time>
<desc>lat.=55.682323, lon.=26.405262, Alt.=142.029419m. Speed=26.028000m/h.</desc>
<speed>7.230000</speed>
</trkpt>
<trkpt lat="55.682343" lon="26.405367">
<ele>142.166138</ele>
<time>2010-07-18T09:46:10Z</time>
<desc>lat.=55.682343, lon.=26.405367, Alt.=142.166138m. Speed=24.011999m/h.</desc>
<speed>6.670000</speed>
</trkpt>
<trkpt lat="55.682350" lon="26.405470">
<ele>142.377075</ele>
<time>2010-07-18T09:46:11Z</time>
<desc>lat.=55.682350, lon.=26.405470, Alt.=142.377075m. Speed=22.931999m/h.</desc>
<speed>6.370000</speed>
</trkpt>
<trkpt lat="55.682362" lon="26.405561">
<ele>142.623169</ele>
<time>2010-07-18T09:46:12Z</time>
<desc>lat.=55.682362, lon.=26.405561, Alt.=142.623169m. Speed=20.736000m/h.</desc>
<speed>5.760000</speed>
</trkpt>
<trkpt lat="55.682377" lon="26.405647">
<ele>143.123169</ele>
<time>2010-07-18T09:46:13Z</time>
<desc>lat.=55.682377, lon.=26.405647, Alt.=143.123169m. Speed=20.844000m/h.</desc>
<speed>5.790000</speed>
</trkpt>
<trkpt lat="55.682384" lon="26.405735">
<ele>143.463013</ele>
<time>2010-07-18T09:46:14Z</time>
<desc>lat.=55.682384, lon.=26.405735, Alt.=143.463013m. Speed=20.412001m/h.</desc>
<speed>5.670000</speed>
</trkpt>
<trkpt lat="55.682392" lon="26.405817">
<ele>143.611450</ele>
<time>2010-07-18T09:46:15Z</time>
<desc>lat.=55.682392, lon.=26.405817, Alt.=143.611450m. Speed=19.908001m/h.</desc>
<speed>5.530000</speed>
</trkpt>
<trkpt lat="55.682404" lon="26.405897">
<ele>143.775513</ele>
<time>2010-07-18T09:46:16Z</time>
<desc>lat.=55.682404, lon.=26.405897, Alt.=143.775513m. Speed=19.872000m/h.</desc>
<speed>5.520000</speed>
</trkpt>
<trkpt lat="55.682415" lon="26.405975">
<ele>143.912231</ele>
<time>2010-07-18T09:46:17Z</time>
<desc>lat.=55.682415, lon.=26.405975, Alt.=143.912231m. Speed=19.403999m/h.</desc>
<speed>5.390000</speed>
</trkpt>
<trkpt lat="55.682434" lon="26.406050">
<ele>143.994263</ele>
<time>2010-07-18T09:46:18Z</time>
<desc>lat.=55.682434, lon.=26.406050, Alt.=143.994263m. Speed=19.368000m/h.</desc>
<speed>5.380000</speed>
</trkpt>
<trkpt lat="55.682453" lon="26.406132">
<ele>144.213013</ele>
<time>2010-07-18T09:46:19Z</time>
<desc>lat.=55.682453, lon.=26.406132, Alt.=144.213013m. Speed=19.799999m/h.</desc>
<speed>5.500000</speed>
</trkpt>
<trkpt lat="55.682465" lon="26.406223">
<ele>144.646606</ele>
<time>2010-07-18T09:46:20Z</time>
<desc>lat.=55.682465, lon.=26.406223, Alt.=144.646606m. Speed=20.736000m/h.</desc>
<speed>5.760000</speed>
</trkpt>
<trkpt lat="55.682476" lon="26.406309">
<ele>145.146606</ele>
<time>2010-07-18T09:46:21Z</time>
<desc>lat.=55.682476, lon.=26.406309, Alt.=145.146606m. Speed=20.412001m/h.</desc>
<speed>5.670000</speed>
</trkpt>
<trkpt lat="55.682495" lon="26.406393">
<ele>145.384888</ele>
<time>2010-07-18T09:46:22Z</time>
<desc>lat.=55.682495, lon.=26.406393, Alt.=145.384888m. Speed=19.836000m/h.</desc>
<speed>5.510000</speed>
</trkpt>
<trkpt lat="55.682514" lon="26.406471">
<ele>145.486450</ele>
<time>2010-07-18T09:46:23Z</time>
<desc>lat.=55.682514, lon.=26.406471, Alt.=145.486450m. Speed=18.972000m/h.</desc>
<speed>5.270000</speed>
</trkpt>
<trkpt lat="55.682537" lon="26.406548">
<ele>145.533325</ele>
<time>2010-07-18T09:46:24Z</time>
<desc>lat.=55.682537, lon.=26.406548, Alt.=145.533325m. Speed=18.360001m/h.</desc>
<speed>5.100000</speed>
</trkpt>
<trkpt lat="55.682552" lon="26.406620">
<ele>145.408325</ele>
<time>2010-07-18T09:46:25Z</time>
<desc>lat.=55.682552, lon.=26.406620, Alt.=145.408325m. Speed=17.424000m/h.</desc>
<speed>4.840000</speed>
</trkpt>
<trkpt lat="55.682556" lon="26.406700">
<ele>144.990356</ele>
<time>2010-07-18T09:46:26Z</time>
<desc>lat.=55.682556, lon.=26.406700, Alt.=144.990356m. Speed=18.756001m/h.</desc>
<speed>5.210000</speed>
</trkpt>
<trkpt lat="55.682568" lon="26.406778">
<ele>145.353638</ele>
<time>2010-07-18T09:46:27Z</time>
<desc>lat.=55.682568, lon.=26.406778, Alt.=145.353638m. Speed=18.648001m/h.</desc>
<speed>5.180000</speed>
</trkpt>
<trkpt lat="55.682579" lon="26.406864">
<ele>145.619263</ele>
<time>2010-07-18T09:46:28Z</time>
<desc>lat.=55.682579, lon.=26.406864, Alt.=145.619263m. Speed=20.052000m/h.</desc>
<speed>5.570000</speed>
</trkpt>
<trkpt lat="55.682598" lon="26.406946">
<ele>145.630981</ele>
<time>2010-07-18T09:46:29Z</time>
<desc>lat.=55.682598, lon.=26.406946, Alt.=145.630981m. Speed=21.096001m/h.</desc>
<speed>5.860000</speed>
</trkpt>
<trkpt lat="55.682613" lon="26.407036">
<ele>145.775513</ele>
<time>2010-07-18T09:46:30Z</time>
<desc>lat.=55.682613, lon.=26.407036, Alt.=145.775513m. Speed=20.916000m/h.</desc>
<speed>5.810000</speed>
</trkpt>
<trkpt lat="55.682636" lon="26.407118">
<ele>145.795044</ele>
<time>2010-07-18T09:46:31Z</time>
<desc>lat.=55.682636, lon.=26.407118, Alt.=145.795044m. Speed=20.232000m/h.</desc>
<speed>5.620000</speed>
</trkpt>
<trkpt lat="55.682652" lon="26.407207">
<ele>146.088013</ele>
<time>2010-07-18T09:46:32Z</time>
<desc>lat.=55.682652, lon.=26.407207, Alt.=146.088013m. Speed=19.620001m/h.</desc>
<speed>5.450000</speed>
</trkpt>
<trkpt lat="55.682674" lon="26.407291">
<ele>146.599731</ele>
<time>2010-07-18T09:46:33Z</time>
<desc>lat.=55.682674, lon.=26.407291, Alt.=146.599731m. Speed=19.656000m/h.</desc>
<speed>5.460000</speed>
</trkpt>
<trkpt lat="55.682686" lon="26.407377">
<ele>146.451294</ele>
<time>2010-07-18T09:46:34Z</time>
<desc>lat.=55.682686, lon.=26.407377, Alt.=146.451294m. Speed=21.312000m/h.</desc>
<speed>5.920000</speed>
</trkpt>
<trkpt lat="55.682705" lon="26.407469">
<ele>146.849731</ele>
<time>2010-07-18T09:46:35Z</time>
<desc>lat.=55.682705, lon.=26.407469, Alt.=146.849731m. Speed=21.132000m/h.</desc>
<speed>5.870000</speed>
</trkpt>
<trkpt lat="55.682713" lon="26.407566">
<ele>148.369263</ele>
<time>2010-07-18T09:46:36Z</time>
<desc>lat.=55.682713, lon.=26.407566, Alt.=148.369263m. Speed=25.020000m/h.</desc>
<speed>6.950000</speed>
</trkpt>
<trkpt lat="55.682732" lon="26.407654">
<ele>147.642700</ele>
<time>2010-07-18T09:46:37Z</time>
<desc>lat.=55.682732, lon.=26.407654, Alt.=147.642700m. Speed=20.448000m/h.</desc>
<speed>5.680000</speed>
</trkpt>
<trkpt lat="55.682747" lon="26.407740">
<ele>147.986450</ele>
<time>2010-07-18T09:46:38Z</time>
<desc>lat.=55.682747, lon.=26.407740, Alt.=147.986450m. Speed=19.728001m/h.</desc>
<speed>5.480000</speed>
</trkpt>
<trkpt lat="55.682770" lon="26.407824">
<ele>148.474731</ele>
<time>2010-07-18T09:46:39Z</time>
<desc>lat.=55.682770, lon.=26.407824, Alt.=148.474731m. Speed=20.268000m/h.</desc>
<speed>5.630000</speed>
</trkpt>
<trkpt lat="55.682789" lon="26.407904">
<ele>148.900513</ele>
<time>2010-07-18T09:46:40Z</time>
<desc>lat.=55.682789, lon.=26.407904, Alt.=148.900513m. Speed=19.836000m/h.</desc>
<speed>5.510000</speed>
</trkpt>
<trkpt lat="55.682812" lon="26.407988">
<ele>150.173950</ele>
<time>2010-07-18T09:46:41Z</time>
<desc>lat.=55.682812, lon.=26.407988, Alt.=150.173950m. Speed=20.375999m/h.</desc>
<speed>5.660000</speed>
</trkpt>
<trkpt lat="55.682838" lon="26.408068">
<ele>151.310669</ele>
<time>2010-07-18T09:46:42Z</time>
<desc>lat.=55.682838, lon.=26.408068, Alt.=151.310669m. Speed=18.936001m/h.</desc>
<speed>5.260000</speed>
</trkpt>
<trkpt lat="55.682869" lon="26.408136">
<ele>150.638794</ele>
<time>2010-07-18T09:46:43Z</time>
<desc>lat.=55.682869, lon.=26.408136, Alt.=150.638794m. Speed=18.719999m/h.</desc>
<speed>5.200000</speed>
</trkpt>
<trkpt lat="55.682892" lon="26.408205">
<ele>150.447388</ele>
<time>2010-07-18T09:46:44Z</time>
<desc>lat.=55.682892, lon.=26.408205, Alt.=150.447388m. Speed=18.216000m/h.</desc>
<speed>5.060000</speed>
</trkpt>
<trkpt lat="55.682915" lon="26.408276">
<ele>150.732544</ele>
<time>2010-07-18T09:46:45Z</time>
<desc>lat.=55.682915, lon.=26.408276, Alt.=150.732544m. Speed=17.424000m/h.</desc>
<speed>4.840000</speed>
</trkpt>
<trkpt lat="55.682930" lon="26.408346">
<ele>151.060669</ele>
<time>2010-07-18T09:46:46Z</time>
<desc>lat.=55.682930, lon.=26.408346, Alt.=151.060669m. Speed=16.632000m/h.</desc>
<speed>4.620000</speed>
</trkpt>
<trkpt lat="55.682945" lon="26.408407">
<ele>151.259888</ele>
<time>2010-07-18T09:46:47Z</time>
<desc>lat.=55.682945, lon.=26.408407, Alt.=151.259888m. Speed=16.379999m/h.</desc>
<speed>4.550000</speed>
</trkpt>
<trkpt lat="55.682957" lon="26.408468">
<ele>151.232544</ele>
<time>2010-07-18T09:46:48Z</time>
<desc>lat.=55.682957, lon.=26.408468, Alt.=151.232544m. Speed=15.300000m/h.</desc>
<speed>4.250000</speed>
</trkpt>
<trkpt lat="55.682972" lon="26.408529">
<ele>151.295044</ele>
<time>2010-07-18T09:46:49Z</time>
<desc>lat.=55.682972, lon.=26.408529, Alt.=151.295044m. Speed=14.616000m/h.</desc>
<speed>4.060000</speed>
</trkpt>
<trkpt lat="55.682987" lon="26.408587">
<ele>151.541138</ele>
<time>2010-07-18T09:46:50Z</time>
<desc>lat.=55.682987, lon.=26.408587, Alt.=151.541138m. Speed=14.328000m/h.</desc>
<speed>3.980000</speed>
</trkpt>
<trkpt lat="55.683002" lon="26.408640">
<ele>151.732544</ele>
<time>2010-07-18T09:46:51Z</time>
<desc>lat.=55.683002, lon.=26.408640, Alt.=151.732544m. Speed=13.212000m/h.</desc>
<speed>3.670000</speed>
</trkpt>
<trkpt lat="55.683014" lon="26.408689">
<ele>151.724731</ele>
<time>2010-07-18T09:46:52Z</time>
<desc>lat.=55.683014, lon.=26.408689, Alt.=151.724731m. Speed=13.068000m/h.</desc>
<speed>3.630000</speed>
</trkpt>
<trkpt lat="55.683033" lon="26.408739">
<ele>151.818481</ele>
<time>2010-07-18T09:46:53Z</time>
<desc>lat.=55.683033, lon.=26.408739, Alt.=151.818481m. Speed=14.004000m/h.</desc>
<speed>3.890000</speed>
</trkpt>
<trkpt lat="55.683048" lon="26.408798">
<ele>152.052856</ele>
<time>2010-07-18T09:46:54Z</time>
<desc>lat.=55.683048, lon.=26.408798, Alt.=152.052856m. Speed=13.896000m/h.</desc>
<speed>3.860000</speed>
</trkpt>
<trkpt lat="55.683060" lon="26.408859">
<ele>151.951294</ele>
<time>2010-07-18T09:46:55Z</time>
<desc>lat.=55.683060, lon.=26.408859, Alt.=151.951294m. Speed=14.508000m/h.</desc>
<speed>4.030000</speed>
</trkpt>
<trkpt lat="55.683079" lon="26.408916">
<ele>152.072388</ele>
<time>2010-07-18T09:46:56Z</time>
<desc>lat.=55.683079, lon.=26.408916, Alt.=152.072388m. Speed=14.472000m/h.</desc>
<speed>4.020000</speed>
</trkpt>
<trkpt lat="55.683098" lon="26.408972">
<ele>152.252075</ele>
<time>2010-07-18T09:46:57Z</time>
<desc>lat.=55.683098, lon.=26.408972, Alt.=152.252075m. Speed=14.256000m/h.</desc>
<speed>3.960000</speed>
</trkpt>
<trkpt lat="55.683109" lon="26.409031">
<ele>152.673950</ele>
<time>2010-07-18T09:46:58Z</time>
<desc>lat.=55.683109, lon.=26.409031, Alt.=152.673950m. Speed=13.788000m/h.</desc>
<speed>3.830000</speed>
</trkpt>
<trkpt lat="55.683125" lon="26.409088">
<ele>152.630981</ele>
<time>2010-07-18T09:46:59Z</time>
<desc>lat.=55.683125, lon.=26.409088, Alt.=152.630981m. Speed=13.392000m/h.</desc>
<speed>3.720000</speed>
</trkpt>
<trkpt lat="55.683147" lon="26.409134">
<ele>151.490356</ele>
<time>2010-07-18T09:47:00Z</time>
<desc>lat.=55.683147, lon.=26.409134, Alt.=151.490356m. Speed=13.104000m/h.</desc>
<speed>3.640000</speed>
</trkpt>
<trkpt lat="55.683159" lon="26.409197">
<ele>151.353638</ele>
<time>2010-07-18T09:47:01Z</time>
<desc>lat.=55.683159, lon.=26.409197, Alt.=151.353638m. Speed=14.004000m/h.</desc>
<speed>3.890000</speed>
</trkpt>
<trkpt lat="55.683174" lon="26.409258">
<ele>151.595825</ele>
<time>2010-07-18T09:47:02Z</time>
<desc>lat.=55.683174, lon.=26.409258, Alt.=151.595825m. Speed=13.968000m/h.</desc>
<speed>3.880000</speed>
</trkpt>
<trkpt lat="55.683182" lon="26.409323">
<ele>151.404419</ele>
<time>2010-07-18T09:47:03Z</time>
<desc>lat.=55.683182, lon.=26.409323, Alt.=151.404419m. Speed=14.508000m/h.</desc>
<speed>4.030000</speed>
</trkpt>
<trkpt lat="55.683186" lon="26.409395">
<ele>150.787231</ele>
<time>2010-07-18T09:47:04Z</time>
<desc>lat.=55.683186, lon.=26.409395, Alt.=150.787231m. Speed=15.120000m/h.</desc>
<speed>4.200000</speed>
</trkpt>
<trkpt lat="55.683201" lon="26.409454">
<ele>150.193481</ele>
<time>2010-07-18T09:47:05Z</time>
<desc>lat.=55.683201, lon.=26.409454, Alt.=150.193481m. Speed=13.104000m/h.</desc>
<speed>3.640000</speed>
</trkpt>
<trkpt lat="55.683205" lon="26.409527">
<ele>148.892700</ele>
<time>2010-07-18T09:47:06Z</time>
<desc>lat.=55.683205, lon.=26.409527, Alt.=148.892700m. Speed=15.192000m/h.</desc>
<speed>4.220000</speed>
</trkpt>
<trkpt lat="55.683220" lon="26.409594">
<ele>148.814575</ele>
<time>2010-07-18T09:47:07Z</time>
<desc>lat.=55.683220, lon.=26.409594, Alt.=148.814575m. Speed=16.128000m/h.</desc>
<speed>4.480000</speed>
</trkpt>
<trkpt lat="55.683235" lon="26.409662">
<ele>148.673950</ele>
<time>2010-07-18T09:47:08Z</time>
<desc>lat.=55.683235, lon.=26.409662, Alt.=148.673950m. Speed=15.912000m/h.</desc>
<speed>4.420000</speed>
</trkpt>
<trkpt lat="55.683247" lon="26.409727">
<ele>148.392700</ele>
<time>2010-07-18T09:47:09Z</time>
<desc>lat.=55.683247, lon.=26.409727, Alt.=148.392700m. Speed=15.768000m/h.</desc>
<speed>4.380000</speed>
</trkpt>
<trkpt lat="55.683262" lon="26.409790">
<ele>148.537231</ele>
<time>2010-07-18T09:47:10Z</time>
<desc>lat.=55.683262, lon.=26.409790, Alt.=148.537231m. Speed=15.300000m/h.</desc>
<speed>4.250000</speed>
</trkpt>
<trkpt lat="55.683270" lon="26.409870">
<ele>147.787231</ele>
<time>2010-07-18T09:47:11Z</time>
<desc>lat.=55.683270, lon.=26.409870, Alt.=147.787231m. Speed=15.696000m/h.</desc>
<speed>4.360000</speed>
</trkpt>
<trkpt lat="55.683277" lon="26.409941">
<ele>147.427856</ele>
<time>2010-07-18T09:47:12Z</time>
<desc>lat.=55.683277, lon.=26.409941, Alt.=147.427856m. Speed=15.912000m/h.</desc>
<speed>4.420000</speed>
</trkpt>
<trkpt lat="55.683285" lon="26.410017">
<ele>146.720825</ele>
<time>2010-07-18T09:47:13Z</time>
<desc>lat.=55.683285, lon.=26.410017, Alt.=146.720825m. Speed=16.344000m/h.</desc>
<speed>4.540000</speed>
</trkpt>
<trkpt lat="55.683296" lon="26.410089">
<ele>146.330200</ele>
<time>2010-07-18T09:47:14Z</time>
<desc>lat.=55.683296, lon.=26.410089, Alt.=146.330200m. Speed=16.056000m/h.</desc>
<speed>4.460000</speed>
</trkpt>
<trkpt lat="55.683311" lon="26.410156">
<ele>146.306763</ele>
<time>2010-07-18T09:47:15Z</time>
<desc>lat.=55.683311, lon.=26.410156, Alt.=146.306763m. Speed=16.379999m/h.</desc>
<speed>4.550000</speed>
</trkpt>
<trkpt lat="55.683327" lon="26.410223">
<ele>146.041138</ele>
<time>2010-07-18T09:47:16Z</time>
<desc>lat.=55.683327, lon.=26.410223, Alt.=146.041138m. Speed=16.812000m/h.</desc>
<speed>4.670000</speed>
</trkpt>
<trkpt lat="55.683342" lon="26.410292">
<ele>145.701294</ele>
<time>2010-07-18T09:47:17Z</time>
<desc>lat.=55.683342, lon.=26.410292, Alt.=145.701294m. Speed=16.416000m/h.</desc>
<speed>4.560000</speed>
</trkpt>
<trkpt lat="55.683361" lon="26.410353">
<ele>145.787231</ele>
<time>2010-07-18T09:47:18Z</time>
<desc>lat.=55.683361, lon.=26.410353, Alt.=145.787231m. Speed=15.768000m/h.</desc>
<speed>4.380000</speed>
</trkpt>
<trkpt lat="55.683376" lon="26.410421">
<ele>145.353638</ele>
<time>2010-07-18T09:47:19Z</time>
<desc>lat.=55.683376, lon.=26.410421, Alt.=145.353638m. Speed=15.264000m/h.</desc>
<speed>4.240000</speed>
</trkpt>
<trkpt lat="55.683392" lon="26.410484">
<ele>145.228638</ele>
<time>2010-07-18T09:47:20Z</time>
<desc>lat.=55.683392, lon.=26.410484, Alt.=145.228638m. Speed=15.228000m/h.</desc>
<speed>4.230000</speed>
</trkpt>
<trkpt lat="55.683407" lon="26.410553">
<ele>144.869263</ele>
<time>2010-07-18T09:47:21Z</time>
<desc>lat.=55.683407, lon.=26.410553, Alt.=144.869263m. Speed=15.120000m/h.</desc>
<speed>4.200000</speed>
</trkpt>
<trkpt lat="55.683418" lon="26.410616">
<ele>144.634888</ele>
<time>2010-07-18T09:47:22Z</time>
<desc>lat.=55.683418, lon.=26.410616, Alt.=144.634888m. Speed=15.192000m/h.</desc>
<speed>4.220000</speed>
</trkpt>
<trkpt lat="55.683434" lon="26.410681">
<ele>144.427856</ele>
<time>2010-07-18T09:47:23Z</time>
<desc>lat.=55.683434, lon.=26.410681, Alt.=144.427856m. Speed=15.300000m/h.</desc>
<speed>4.250000</speed>
</trkpt>
<trkpt lat="55.683449" lon="26.410746">
<ele>144.466919</ele>
<time>2010-07-18T09:47:24Z</time>
<desc>lat.=55.683449, lon.=26.410746, Alt.=144.466919m. Speed=15.624000m/h.</desc>
<speed>4.340000</speed>
</trkpt>
<trkpt lat="55.683468" lon="26.410814">
<ele>144.279419</ele>
<time>2010-07-18T09:47:25Z</time>
<desc>lat.=55.683468, lon.=26.410814, Alt.=144.279419m. Speed=16.416000m/h.</desc>
<speed>4.560000</speed>
</trkpt>
<trkpt lat="55.683487" lon="26.410881">
<ele>144.255981</ele>
<time>2010-07-18T09:47:26Z</time>
<desc>lat.=55.683487, lon.=26.410881, Alt.=144.255981m. Speed=17.172001m/h.</desc>
<speed>4.770000</speed>
</trkpt>
<trkpt lat="55.683514" lon="26.410944">
<ele>144.404419</ele>
<time>2010-07-18T09:47:27Z</time>
<desc>lat.=55.683514, lon.=26.410944, Alt.=144.404419m. Speed=17.784000m/h.</desc>
<speed>4.940000</speed>
</trkpt>
<trkpt lat="55.683537" lon="26.411013">
<ele>144.728638</ele>
<time>2010-07-18T09:47:28Z</time>
<desc>lat.=55.683537, lon.=26.411013, Alt.=144.728638m. Speed=18.648001m/h.</desc>
<speed>5.180000</speed>
</trkpt>
<trkpt lat="55.683559" lon="26.411089">
<ele>144.572388</ele>
<time>2010-07-18T09:47:29Z</time>
<desc>lat.=55.683559, lon.=26.411089, Alt.=144.572388m. Speed=19.799999m/h.</desc>
<speed>5.500000</speed>
</trkpt>
<trkpt lat="55.683578" lon="26.411173">
<ele>144.505981</ele>
<time>2010-07-18T09:47:30Z</time>
<desc>lat.=55.683578, lon.=26.411173, Alt.=144.505981m. Speed=20.736000m/h.</desc>
<speed>5.760000</speed>
</trkpt>
<trkpt lat="55.683598" lon="26.411263">
<ele>143.927856</ele>
<time>2010-07-18T09:47:31Z</time>
<desc>lat.=55.683598, lon.=26.411263, Alt.=143.927856m. Speed=22.104000m/h.</desc>
<speed>6.140000</speed>
</trkpt>
<trkpt lat="55.683620" lon="26.411358">
<ele>143.603638</ele>
<time>2010-07-18T09:47:32Z</time>
<desc>lat.=55.683620, lon.=26.411358, Alt.=143.603638m. Speed=23.436001m/h.</desc>
<speed>6.510000</speed>
</trkpt>
<trkpt lat="55.683643" lon="26.411457">
<ele>143.416138</ele>
<time>2010-07-18T09:47:33Z</time>
<desc>lat.=55.683643, lon.=26.411457, Alt.=143.416138m. Speed=24.840000m/h.</desc>
<speed>6.900000</speed>
</trkpt>
<trkpt lat="55.683670" lon="26.411560">
<ele>143.173950</ele>
<time>2010-07-18T09:47:34Z</time>
<desc>lat.=55.683670, lon.=26.411560, Alt.=143.173950m. Speed=26.280001m/h.</desc>
<speed>7.300000</speed>
</trkpt>
<trkpt lat="55.683701" lon="26.411673">
<ele>142.795044</ele>
<time>2010-07-18T09:47:35Z</time>
<desc>lat.=55.683701, lon.=26.411673, Alt.=142.795044m. Speed=27.792000m/h.</desc>
<speed>7.720000</speed>
</trkpt>
<trkpt lat="55.683727" lon="26.411793">
<ele>142.459106</ele>
<time>2010-07-18T09:47:36Z</time>
<desc>lat.=55.683727, lon.=26.411793, Alt.=142.459106m. Speed=28.728001m/h.</desc>
<speed>7.980000</speed>
</trkpt>
<trkpt lat="55.683758" lon="26.411915">
<ele>142.076294</ele>
<time>2010-07-18T09:47:37Z</time>
<desc>lat.=55.683758, lon.=26.411915, Alt.=142.076294m. Speed=29.952000m/h.</desc>
<speed>8.320000</speed>
</trkpt>
<trkpt lat="55.683781" lon="26.412041">
<ele>141.814575</ele>
<time>2010-07-18T09:47:38Z</time>
<desc>lat.=55.683781, lon.=26.412041, Alt.=141.814575m. Speed=30.816000m/h.</desc>
<speed>8.560000</speed>
</trkpt>
<trkpt lat="55.683807" lon="26.412170">
<ele>141.634888</ele>
<time>2010-07-18T09:47:39Z</time>
<desc>lat.=55.683807, lon.=26.412170, Alt.=141.634888m. Speed=30.743999m/h.</desc>
<speed>8.540000</speed>
</trkpt>
<trkpt lat="55.683838" lon="26.412296">
<ele>141.650513</ele>
<time>2010-07-18T09:47:40Z</time>
<desc>lat.=55.683838, lon.=26.412296, Alt.=141.650513m. Speed=30.420000m/h.</desc>
<speed>8.450000</speed>
</trkpt>
<trkpt lat="55.683865" lon="26.412420">
<ele>141.638794</ele>
<time>2010-07-18T09:47:41Z</time>
<desc>lat.=55.683865, lon.=26.412420, Alt.=141.638794m. Speed=29.232000m/h.</desc>
<speed>8.120000</speed>
</trkpt>
<trkpt lat="55.683891" lon="26.412537">
<ele>141.654419</ele>
<time>2010-07-18T09:47:42Z</time>
<desc>lat.=55.683891, lon.=26.412537, Alt.=141.654419m. Speed=28.007999m/h.</desc>
<speed>7.780000</speed>
</trkpt>
<trkpt lat="55.683922" lon="26.412643">
<ele>141.888794</ele>
<time>2010-07-18T09:47:43Z</time>
<desc>lat.=55.683922, lon.=26.412643, Alt.=141.888794m. Speed=26.639999m/h.</desc>
<speed>7.400000</speed>
</trkpt>
<trkpt lat="55.683945" lon="26.412748">
<ele>141.693481</ele>
<time>2010-07-18T09:47:44Z</time>
<desc>lat.=55.683945, lon.=26.412748, Alt.=141.693481m. Speed=24.695999m/h.</desc>
<speed>6.860000</speed>
</trkpt>
<trkpt lat="55.683971" lon="26.412842">
<ele>141.537231</ele>
<time>2010-07-18T09:47:45Z</time>
<desc>lat.=55.683971, lon.=26.412842, Alt.=141.537231m. Speed=22.823999m/h.</desc>
<speed>6.340000</speed>
</trkpt>
<trkpt lat="55.683990" lon="26.412931">
<ele>141.388794</ele>
<time>2010-07-18T09:47:46Z</time>
<desc>lat.=55.683990, lon.=26.412931, Alt.=141.388794m. Speed=22.320000m/h.</desc>
<speed>6.200000</speed>
</trkpt>
<trkpt lat="55.684013" lon="26.413019">
<ele>141.283325</ele>
<time>2010-07-18T09:47:47Z</time>
<desc>lat.=55.684013, lon.=26.413019, Alt.=141.283325m. Speed=21.708000m/h.</desc>
<speed>6.030000</speed>
</trkpt>
<trkpt lat="55.684032" lon="26.413107">
<ele>142.334106</ele>
<time>2010-07-18T09:47:48Z</time>
<desc>lat.=55.684032, lon.=26.413107, Alt.=142.334106m. Speed=22.284000m/h.</desc>
<speed>6.190000</speed>
</trkpt>
<trkpt lat="55.684055" lon="26.413195">
<ele>142.271606</ele>
<time>2010-07-18T09:47:49Z</time>
<desc>lat.=55.684055, lon.=26.413195, Alt.=142.271606m. Speed=21.420000m/h.</desc>
<speed>5.950000</speed>
</trkpt>
<trkpt lat="55.684074" lon="26.413279">
<ele>142.123169</ele>
<time>2010-07-18T09:47:50Z</time>
<desc>lat.=55.684074, lon.=26.413279, Alt.=142.123169m. Speed=21.096001m/h.</desc>
<speed>5.860000</speed>
</trkpt>
<trkpt lat="55.684097" lon="26.413359">
<ele>142.138794</ele>
<time>2010-07-18T09:47:51Z</time>
<desc>lat.=55.684097, lon.=26.413359, Alt.=142.138794m. Speed=20.591999m/h.</desc>
<speed>5.720000</speed>
</trkpt>
<trkpt lat="55.684116" lon="26.413441">
<ele>142.041138</ele>
<time>2010-07-18T09:47:52Z</time>
<desc>lat.=55.684116, lon.=26.413441, Alt.=142.041138m. Speed=20.916000m/h.</desc>
<speed>5.810000</speed>
</trkpt>
<trkpt lat="55.684139" lon="26.413527">
<ele>141.877075</ele>
<time>2010-07-18T09:47:53Z</time>
<desc>lat.=55.684139, lon.=26.413527, Alt.=141.877075m. Speed=21.492001m/h.</desc>
<speed>5.970000</speed>
</trkpt>
<trkpt lat="55.684155" lon="26.413616">
<ele>141.767700</ele>
<time>2010-07-18T09:47:54Z</time>
<desc>lat.=55.684155, lon.=26.413616, Alt.=141.767700m. Speed=21.420000m/h.</desc>
<speed>5.950000</speed>
</trkpt>
<trkpt lat="55.684170" lon="26.413712">
<ele>141.830200</ele>
<time>2010-07-18T09:47:55Z</time>
<desc>lat.=55.684170, lon.=26.413712, Alt.=141.830200m. Speed=21.204000m/h.</desc>
<speed>5.890000</speed>
</trkpt>
<trkpt lat="55.684189" lon="26.413805">
<ele>141.693481</ele>
<time>2010-07-18T09:47:56Z</time>
<desc>lat.=55.684189, lon.=26.413805, Alt.=141.693481m. Speed=20.879999m/h.</desc>
<speed>5.800000</speed>
</trkpt>
<trkpt lat="55.684208" lon="26.413895">
<ele>141.451294</ele>
<time>2010-07-18T09:47:57Z</time>
<desc>lat.=55.684208, lon.=26.413895, Alt.=141.451294m. Speed=20.375999m/h.</desc>
<speed>5.660000</speed>
</trkpt>
<trkpt lat="55.684223" lon="26.413980">
<ele>141.615356</ele>
<time>2010-07-18T09:47:58Z</time>
<desc>lat.=55.684223, lon.=26.413980, Alt.=141.615356m. Speed=19.691999m/h.</desc>
<speed>5.470000</speed>
</trkpt>
<trkpt lat="55.684246" lon="26.414063">
<ele>142.048950</ele>
<time>2010-07-18T09:47:59Z</time>
<desc>lat.=55.684246, lon.=26.414063, Alt.=142.048950m. Speed=19.007999m/h.</desc>
<speed>5.280000</speed>
</trkpt>
<trkpt lat="55.684265" lon="26.414137">
<ele>142.201294</ele>
<time>2010-07-18T09:48:00Z</time>
<desc>lat.=55.684265, lon.=26.414137, Alt.=142.201294m. Speed=19.584000m/h.</desc>
<speed>5.440000</speed>
</trkpt>
<trkpt lat="55.684280" lon="26.414209">
<ele>142.576294</ele>
<time>2010-07-18T09:48:01Z</time>
<desc>lat.=55.684280, lon.=26.414209, Alt.=142.576294m. Speed=18.827999m/h.</desc>
<speed>5.230000</speed>
</trkpt>
<trkpt lat="55.684299" lon="26.414280">
<ele>142.588013</ele>
<time>2010-07-18T09:48:02Z</time>
<desc>lat.=55.684299, lon.=26.414280, Alt.=142.588013m. Speed=18.504000m/h.</desc>
<speed>5.140000</speed>
</trkpt>
<trkpt lat="55.684311" lon="26.414354">
<ele>142.576294</ele>
<time>2010-07-18T09:48:03Z</time>
<desc>lat.=55.684311, lon.=26.414354, Alt.=142.576294m. Speed=18.540001m/h.</desc>
<speed>5.150000</speed>
</trkpt>
<trkpt lat="55.684330" lon="26.414431">
<ele>143.209106</ele>
<time>2010-07-18T09:48:04Z</time>
<desc>lat.=55.684330, lon.=26.414431, Alt.=143.209106m. Speed=19.044001m/h.</desc>
<speed>5.290000</speed>
</trkpt>
<trkpt lat="55.684345" lon="26.414511">
<ele>143.404419</ele>
<time>2010-07-18T09:48:05Z</time>
<desc>lat.=55.684345, lon.=26.414511, Alt.=143.404419m. Speed=18.936001m/h.</desc>
<speed>5.260000</speed>
</trkpt>
<trkpt lat="55.684364" lon="26.414585">
<ele>143.572388</ele>
<time>2010-07-18T09:48:06Z</time>
<desc>lat.=55.684364, lon.=26.414585, Alt.=143.572388m. Speed=19.368000m/h.</desc>
<speed>5.380000</speed>
</trkpt>
<trkpt lat="55.684387" lon="26.414660">
<ele>143.814575</ele>
<time>2010-07-18T09:48:07Z</time>
<desc>lat.=55.684387, lon.=26.414660, Alt.=143.814575m. Speed=19.152000m/h.</desc>
<speed>5.320000</speed>
</trkpt>
<trkpt lat="55.684406" lon="26.414740">
<ele>144.130981</ele>
<time>2010-07-18T09:48:08Z</time>
<desc>lat.=55.684406, lon.=26.414740, Alt.=144.130981m. Speed=19.980000m/h.</desc>
<speed>5.550000</speed>
</trkpt>
<trkpt lat="55.684422" lon="26.414824">
<ele>144.384888</ele>
<time>2010-07-18T09:48:09Z</time>
<desc>lat.=55.684422, lon.=26.414824, Alt.=144.384888m. Speed=20.232000m/h.</desc>
<speed>5.620000</speed>
</trkpt>
<trkpt lat="55.684441" lon="26.414907">
<ele>144.849731</ele>
<time>2010-07-18T09:48:10Z</time>
<desc>lat.=55.684441, lon.=26.414907, Alt.=144.849731m. Speed=20.628000m/h.</desc>
<speed>5.730000</speed>
</trkpt>
<trkpt lat="55.684460" lon="26.414988">
<ele>145.173950</ele>
<time>2010-07-18T09:48:11Z</time>
<desc>lat.=55.684460, lon.=26.414988, Alt.=145.173950m. Speed=20.195999m/h.</desc>
<speed>5.610000</speed>
</trkpt>
<trkpt lat="55.684483" lon="26.415073">
<ele>144.892700</ele>
<time>2010-07-18T09:48:12Z</time>
<desc>lat.=55.684483, lon.=26.415073, Alt.=144.892700m. Speed=20.232000m/h.</desc>
<speed>5.620000</speed>
</trkpt>
<trkpt lat="55.684505" lon="26.415154">
<ele>145.095825</ele>
<time>2010-07-18T09:48:13Z</time>
<desc>lat.=55.684505, lon.=26.415154, Alt.=145.095825m. Speed=20.016001m/h.</desc>
<speed>5.560000</speed>
</trkpt>
<trkpt lat="55.684532" lon="26.415234">
<ele>145.529419</ele>
<time>2010-07-18T09:48:14Z</time>
<desc>lat.=55.684532, lon.=26.415234, Alt.=145.529419m. Speed=19.908001m/h.</desc>
<speed>5.530000</speed>
</trkpt>
<trkpt lat="55.684551" lon="26.415318">
<ele>145.263794</ele>
<time>2010-07-18T09:48:15Z</time>
<desc>lat.=55.684551, lon.=26.415318, Alt.=145.263794m. Speed=20.124001m/h.</desc>
<speed>5.590000</speed>
</trkpt>
<trkpt lat="55.684563" lon="26.415403">
<ele>145.088013</ele>
<time>2010-07-18T09:48:16Z</time>
<desc>lat.=55.684563, lon.=26.415403, Alt.=145.088013m. Speed=19.944000m/h.</desc>
<speed>5.540000</speed>
</trkpt>
<trkpt lat="55.684582" lon="26.415489">
<ele>145.052856</ele>
<time>2010-07-18T09:48:17Z</time>
<desc>lat.=55.684582, lon.=26.415489, Alt.=145.052856m. Speed=21.167999m/h.</desc>
<speed>5.880000</speed>
</trkpt>
<trkpt lat="55.684601" lon="26.415577">
<ele>144.752075</ele>
<time>2010-07-18T09:48:18Z</time>
<desc>lat.=55.684601, lon.=26.415577, Alt.=144.752075m. Speed=21.240000m/h.</desc>
<speed>5.900000</speed>
</trkpt>
<trkpt lat="55.684620" lon="26.415670">
<ele>144.525513</ele>
<time>2010-07-18T09:48:19Z</time>
<desc>lat.=55.684620, lon.=26.415670, Alt.=144.525513m. Speed=22.320000m/h.</desc>
<speed>6.200000</speed>
</trkpt>
<trkpt lat="55.684643" lon="26.415768">
<ele>144.341919</ele>
<time>2010-07-18T09:48:20Z</time>
<desc>lat.=55.684643, lon.=26.415768, Alt.=144.341919m. Speed=22.968000m/h.</desc>
<speed>6.380000</speed>
</trkpt>
<trkpt lat="55.684669" lon="26.415861">
<ele>144.392700</ele>
<time>2010-07-18T09:48:21Z</time>
<desc>lat.=55.684669, lon.=26.415861, Alt.=144.392700m. Speed=24.480000m/h.</desc>
<speed>6.800000</speed>
</trkpt>
<trkpt lat="55.684696" lon="26.415964">
<ele>144.205200</ele>
<time>2010-07-18T09:48:22Z</time>
<desc>lat.=55.684696, lon.=26.415964, Alt.=144.205200m. Speed=25.452000m/h.</desc>
<speed>7.070000</speed>
</trkpt>
<trkpt lat="55.684723" lon="26.416073">
<ele>143.838013</ele>
<time>2010-07-18T09:48:23Z</time>
<desc>lat.=55.684723, lon.=26.416073, Alt.=143.838013m. Speed=26.639999m/h.</desc>
<speed>7.400000</speed>
</trkpt>
<trkpt lat="55.684746" lon="26.416197">
<ele>142.826294</ele>
<time>2010-07-18T09:48:24Z</time>
<desc>lat.=55.684746, lon.=26.416197, Alt.=142.826294m. Speed=28.511999m/h.</desc>
<speed>7.920000</speed>
</trkpt>
<trkpt lat="55.684772" lon="26.416321">
<ele>142.162231</ele>
<time>2010-07-18T09:48:25Z</time>
<desc>lat.=55.684772, lon.=26.416321, Alt.=142.162231m. Speed=30.528000m/h.</desc>
<speed>8.480000</speed>
</trkpt>
<trkpt lat="55.684803" lon="26.416456">
<ele>141.697388</ele>
<time>2010-07-18T09:48:26Z</time>
<desc>lat.=55.684803, lon.=26.416456, Alt.=141.697388m. Speed=32.363998m/h.</desc>
<speed>8.990000</speed>
</trkpt>
<trkpt lat="55.684837" lon="26.416594">
<ele>141.056763</ele>
<time>2010-07-18T09:48:27Z</time>
<desc>lat.=55.684837, lon.=26.416594, Alt.=141.056763m. Speed=33.768002m/h.</desc>
<speed>9.380000</speed>
</trkpt>
<trkpt lat="55.684872" lon="26.416740">
<ele>140.463013</ele>
<time>2010-07-18T09:48:28Z</time>
<desc>lat.=55.684872, lon.=26.416740, Alt.=140.463013m. Speed=35.639999m/h.</desc>
<speed>9.900000</speed>
</trkpt>
<trkpt lat="55.684910" lon="26.416895">
<ele>140.291138</ele>
<time>2010-07-18T09:48:29Z</time>
<desc>lat.=55.684910, lon.=26.416895, Alt.=140.291138m. Speed=38.304001m/h.</desc>
<speed>10.640000</speed>
</trkpt>
<trkpt lat="55.684944" lon="26.417061">
<ele>139.396606</ele>
<time>2010-07-18T09:48:30Z</time>
<desc>lat.=55.684944, lon.=26.417061, Alt.=139.396606m. Speed=39.023998m/h.</desc>
<speed>10.840000</speed>
</trkpt>
<trkpt lat="55.684982" lon="26.417225">
<ele>139.220825</ele>
<time>2010-07-18T09:48:31Z</time>
<desc>lat.=55.684982, lon.=26.417225, Alt.=139.220825m. Speed=40.391998m/h.</desc>
<speed>11.220000</speed>
</trkpt>
<trkpt lat="55.685024" lon="26.417393">
<ele>138.810669</ele>
<time>2010-07-18T09:48:32Z</time>
<desc>lat.=55.685024, lon.=26.417393, Alt.=138.810669m. Speed=40.931999m/h.</desc>
<speed>11.370000</speed>
</trkpt>
<trkpt lat="55.685062" lon="26.417566">
<ele>138.318481</ele>
<time>2010-07-18T09:48:33Z</time>
<desc>lat.=55.685062, lon.=26.417566, Alt.=138.318481m. Speed=41.400002m/h.</desc>
<speed>11.500000</speed>
</trkpt>
<trkpt lat="55.685101" lon="26.417736">
<ele>138.005981</ele>
<time>2010-07-18T09:48:34Z</time>
<desc>lat.=55.685101, lon.=26.417736, Alt.=138.005981m. Speed=41.868000m/h.</desc>
<speed>11.630000</speed>
</trkpt>
<trkpt lat="55.685139" lon="26.417910">
<ele>137.814575</ele>
<time>2010-07-18T09:48:35Z</time>
<desc>lat.=55.685139, lon.=26.417910, Alt.=137.814575m. Speed=41.976002m/h.</desc>
<speed>11.660000</speed>
</trkpt>
<trkpt lat="55.685173" lon="26.418079">
<ele>137.681763</ele>
<time>2010-07-18T09:48:36Z</time>
<desc>lat.=55.685173, lon.=26.418079, Alt.=137.681763m. Speed=41.759998m/h.</desc>
<speed>11.600000</speed>
</trkpt>
<trkpt lat="55.685211" lon="26.418245">
<ele>137.877075</ele>
<time>2010-07-18T09:48:37Z</time>
<desc>lat.=55.685211, lon.=26.418245, Alt.=137.877075m. Speed=40.787998m/h.</desc>
<speed>11.329999</speed>
</trkpt>
<trkpt lat="55.685249" lon="26.418407">
<ele>138.377075</ele>
<time>2010-07-18T09:48:38Z</time>
<desc>lat.=55.685249, lon.=26.418407, Alt.=138.377075m. Speed=39.528000m/h.</desc>
<speed>10.980000</speed>
</trkpt>
<trkpt lat="55.685287" lon="26.418570">
<ele>138.873169</ele>
<time>2010-07-18T09:48:39Z</time>
<desc>lat.=55.685287, lon.=26.418570, Alt.=138.873169m. Speed=38.736000m/h.</desc>
<speed>10.760000</speed>
</trkpt>
<trkpt lat="55.685326" lon="26.418728">
<ele>139.338013</ele>
<time>2010-07-18T09:48:40Z</time>
<desc>lat.=55.685326, lon.=26.418728, Alt.=139.338013m. Speed=37.512001m/h.</desc>
<speed>10.420000</speed>
</trkpt>
<trkpt lat="55.685364" lon="26.418877">
<ele>140.150513</ele>
<time>2010-07-18T09:48:41Z</time>
<desc>lat.=55.685364, lon.=26.418877, Alt.=140.150513m. Speed=36.396000m/h.</desc>
<speed>10.110000</speed>
</trkpt>
<trkpt lat="55.685402" lon="26.419024">
<ele>140.728638</ele>
<time>2010-07-18T09:48:42Z</time>
<desc>lat.=55.685402, lon.=26.419024, Alt.=140.728638m. Speed=35.424000m/h.</desc>
<speed>9.840000</speed>
</trkpt>
<trkpt lat="55.685436" lon="26.419165">
<ele>141.052856</ele>
<time>2010-07-18T09:48:43Z</time>
<desc>lat.=55.685436, lon.=26.419165, Alt.=141.052856m. Speed=34.236000m/h.</desc>
<speed>9.510000</speed>
</trkpt>
<trkpt lat="55.685471" lon="26.419302">
<ele>141.662231</ele>
<time>2010-07-18T09:48:44Z</time>
<desc>lat.=55.685471, lon.=26.419302, Alt.=141.662231m. Speed=33.084000m/h.</desc>
<speed>9.190000</speed>
</trkpt>
<trkpt lat="55.685501" lon="26.419436">
<ele>142.025513</ele>
<time>2010-07-18T09:48:45Z</time>
<desc>lat.=55.685501, lon.=26.419436, Alt.=142.025513m. Speed=32.327999m/h.</desc>
<speed>8.980000</speed>
</trkpt>
<trkpt lat="55.685532" lon="26.419565">
<ele>142.810669</ele>
<time>2010-07-18T09:48:46Z</time>
<desc>lat.=55.685532, lon.=26.419565, Alt.=142.810669m. Speed=31.392000m/h.</desc>
<speed>8.720000</speed>
</trkpt>
<trkpt lat="55.685562" lon="26.419689">
<ele>143.927856</ele>
<time>2010-07-18T09:48:47Z</time>
<desc>lat.=55.685562, lon.=26.419689, Alt.=143.927856m. Speed=30.492001m/h.</desc>
<speed>8.470000</speed>
</trkpt>
<trkpt lat="55.685593" lon="26.419811">
<ele>144.916138</ele>
<time>2010-07-18T09:48:48Z</time>
<desc>lat.=55.685593, lon.=26.419811, Alt.=144.916138m. Speed=29.771999m/h.</desc>
<speed>8.270000</speed>
</trkpt>
<trkpt lat="55.685623" lon="26.419928">
<ele>145.513794</ele>
<time>2010-07-18T09:48:49Z</time>
<desc>lat.=55.685623, lon.=26.419928, Alt.=145.513794m. Speed=28.691999m/h.</desc>
<speed>7.970000</speed>
</trkpt>
<trkpt lat="55.685646" lon="26.420042">
<ele>146.693481</ele>
<time>2010-07-18T09:48:50Z</time>
<desc>lat.=55.685646, lon.=26.420042, Alt.=146.693481m. Speed=27.719999m/h.</desc>
<speed>7.700000</speed>
</trkpt>
<trkpt lat="55.685677" lon="26.420151">
<ele>147.724731</ele>
<time>2010-07-18T09:48:51Z</time>
<desc>lat.=55.685677, lon.=26.420151, Alt.=147.724731m. Speed=26.639999m/h.</desc>
<speed>7.400000</speed>
</trkpt>
<trkpt lat="55.685711" lon="26.420254">
<ele>148.466919</ele>
<time>2010-07-18T09:48:52Z</time>
<desc>lat.=55.685711, lon.=26.420254, Alt.=148.466919m. Speed=25.884001m/h.</desc>
<speed>7.190000</speed>
</trkpt>
<trkpt lat="55.685730" lon="26.420359">
<ele>148.236450</ele>
<time>2010-07-18T09:48:53Z</time>
<desc>lat.=55.685730, lon.=26.420359, Alt.=148.236450m. Speed=24.480000m/h.</desc>
<speed>6.800000</speed>
</trkpt>
<trkpt lat="55.685741" lon="26.420460">
<ele>147.611450</ele>
<time>2010-07-18T09:48:54Z</time>
<desc>lat.=55.685741, lon.=26.420460, Alt.=147.611450m. Speed=23.544001m/h.</desc>
<speed>6.540000</speed>
</trkpt>
<trkpt lat="55.685764" lon="26.420557">
<ele>147.865356</ele>
<time>2010-07-18T09:48:55Z</time>
<desc>lat.=55.685764, lon.=26.420557, Alt.=147.865356m. Speed=23.004000m/h.</desc>
<speed>6.390000</speed>
</trkpt>
<trkpt lat="55.685783" lon="26.420647">
<ele>147.630981</ele>
<time>2010-07-18T09:48:56Z</time>
<desc>lat.=55.685783, lon.=26.420647, Alt.=147.630981m. Speed=22.212000m/h.</desc>
<speed>6.170000</speed>
</trkpt>
<trkpt lat="55.685814" lon="26.420729">
<ele>148.896606</ele>
<time>2010-07-18T09:48:57Z</time>
<desc>lat.=55.685814, lon.=26.420729, Alt.=148.896606m. Speed=21.024000m/h.</desc>
<speed>5.840000</speed>
</trkpt>
<trkpt lat="55.685833" lon="26.420815">
<ele>148.713013</ele>
<time>2010-07-18T09:48:58Z</time>
<desc>lat.=55.685833, lon.=26.420815, Alt.=148.713013m. Speed=20.591999m/h.</desc>
<speed>5.720000</speed>
</trkpt>
<trkpt lat="55.685852" lon="26.420893">
<ele>148.216919</ele>
<time>2010-07-18T09:48:59Z</time>
<desc>lat.=55.685852, lon.=26.420893, Alt.=148.216919m. Speed=20.556000m/h.</desc>
<speed>5.710000</speed>
</trkpt>
<trkpt lat="55.685867" lon="26.420975">
<ele>147.502075</ele>
<time>2010-07-18T09:49:00Z</time>
<desc>lat.=55.685867, lon.=26.420975, Alt.=147.502075m. Speed=20.195999m/h.</desc>
<speed>5.610000</speed>
</trkpt>
<trkpt lat="55.685883" lon="26.421057">
<ele>147.291138</ele>
<time>2010-07-18T09:49:01Z</time>
<desc>lat.=55.685883, lon.=26.421057, Alt.=147.291138m. Speed=19.620001m/h.</desc>
<speed>5.450000</speed>
</trkpt>
<trkpt lat="55.685902" lon="26.421137">
<ele>147.720825</ele>
<time>2010-07-18T09:49:02Z</time>
<desc>lat.=55.685902, lon.=26.421137, Alt.=147.720825m. Speed=19.007999m/h.</desc>
<speed>5.280000</speed>
</trkpt>
<trkpt lat="55.685921" lon="26.421207">
<ele>148.107544</ele>
<time>2010-07-18T09:49:03Z</time>
<desc>lat.=55.685921, lon.=26.421207, Alt.=148.107544m. Speed=17.280001m/h.</desc>
<speed>4.800000</speed>
</trkpt>
<trkpt lat="55.685944" lon="26.421272">
<ele>148.713013</ele>
<time>2010-07-18T09:49:04Z</time>
<desc>lat.=55.685944, lon.=26.421272, Alt.=148.713013m. Speed=16.091999m/h.</desc>
<speed>4.470000</speed>
</trkpt>
<trkpt lat="55.685963" lon="26.421331">
<ele>148.654419</ele>
<time>2010-07-18T09:49:05Z</time>
<desc>lat.=55.685963, lon.=26.421331, Alt.=148.654419m. Speed=15.624000m/h.</desc>
<speed>4.340000</speed>
</trkpt>
<trkpt lat="55.685978" lon="26.421392">
<ele>148.970825</ele>
<time>2010-07-18T09:49:06Z</time>
<desc>lat.=55.685978, lon.=26.421392, Alt.=148.970825m. Speed=14.688000m/h.</desc>
<speed>4.080000</speed>
</trkpt>
<trkpt lat="55.685993" lon="26.421452">
<ele>149.127075</ele>
<time>2010-07-18T09:49:07Z</time>
<desc>lat.=55.685993, lon.=26.421452, Alt.=149.127075m. Speed=14.688000m/h.</desc>
<speed>4.080000</speed>
</trkpt>
<trkpt lat="55.686005" lon="26.421513">
<ele>149.400513</ele>
<time>2010-07-18T09:49:08Z</time>
<desc>lat.=55.686005, lon.=26.421513, Alt.=149.400513m. Speed=14.508000m/h.</desc>
<speed>4.030000</speed>
</trkpt>
<trkpt lat="55.686016" lon="26.421574">
<ele>149.388794</ele>
<time>2010-07-18T09:49:09Z</time>
<desc>lat.=55.686016, lon.=26.421574, Alt.=149.388794m. Speed=14.292000m/h.</desc>
<speed>3.970000</speed>
</trkpt>
<trkpt lat="55.686028" lon="26.421633">
<ele>149.533325</ele>
<time>2010-07-18T09:49:10Z</time>
<desc>lat.=55.686028, lon.=26.421633, Alt.=149.533325m. Speed=13.896000m/h.</desc>
<speed>3.860000</speed>
</trkpt>
<trkpt lat="55.686043" lon="26.421694">
<ele>149.685669</ele>
<time>2010-07-18T09:49:11Z</time>
<desc>lat.=55.686043, lon.=26.421694, Alt.=149.685669m. Speed=13.824000m/h.</desc>
<speed>3.840000</speed>
</trkpt>
<trkpt lat="55.686054" lon="26.421753">
<ele>149.873169</ele>
<time>2010-07-18T09:49:12Z</time>
<desc>lat.=55.686054, lon.=26.421753, Alt.=149.873169m. Speed=14.328000m/h.</desc>
<speed>3.980000</speed>
</trkpt>
<trkpt lat="55.686069" lon="26.421812">
<ele>149.998169</ele>
<time>2010-07-18T09:49:13Z</time>
<desc>lat.=55.686069, lon.=26.421812, Alt.=149.998169m. Speed=14.112000m/h.</desc>
<speed>3.920000</speed>
</trkpt>
<trkpt lat="55.686081" lon="26.421867">
<ele>150.091919</ele>
<time>2010-07-18T09:49:14Z</time>
<desc>lat.=55.686081, lon.=26.421867, Alt.=150.091919m. Speed=14.832000m/h.</desc>
<speed>4.120000</speed>
</trkpt>
<trkpt lat="55.686096" lon="26.421930">
<ele>150.298950</ele>
<time>2010-07-18T09:49:15Z</time>
<desc>lat.=55.686096, lon.=26.421930, Alt.=150.298950m. Speed=15.156000m/h.</desc>
<speed>4.210000</speed>
</trkpt>
<trkpt lat="55.686111" lon="26.421986">
<ele>150.884888</ele>
<time>2010-07-18T09:49:16Z</time>
<desc>lat.=55.686111, lon.=26.421986, Alt.=150.884888m. Speed=13.140000m/h.</desc>
<speed>3.650000</speed>
</trkpt>
<trkpt lat="55.686123" lon="26.422033">
<ele>151.193481</ele>
<time>2010-07-18T09:49:17Z</time>
<desc>lat.=55.686123, lon.=26.422033, Alt.=151.193481m. Speed=11.592000m/h.</desc>
<speed>3.220000</speed>
</trkpt>
<trkpt lat="55.686134" lon="26.422075">
<ele>151.041138</ele>
<time>2010-07-18T09:49:18Z</time>
<desc>lat.=55.686134, lon.=26.422075, Alt.=151.041138m. Speed=10.584000m/h.</desc>
<speed>2.940000</speed>
</trkpt>
<trkpt lat="55.686134" lon="26.422115">
<ele>150.341919</ele>
<time>2010-07-18T09:49:19Z</time>
<desc>lat.=55.686134, lon.=26.422115, Alt.=150.341919m. Speed=10.260000m/h.</desc>
<speed>2.850000</speed>
</trkpt>
<trkpt lat="55.686146" lon="26.422155">
<ele>150.427856</ele>
<time>2010-07-18T09:49:20Z</time>
<desc>lat.=55.686146, lon.=26.422155, Alt.=150.427856m. Speed=10.908000m/h.</desc>
<speed>3.030000</speed>
</trkpt>
<trkpt lat="55.686153" lon="26.422197">
<ele>150.580200</ele>
<time>2010-07-18T09:49:21Z</time>
<desc>lat.=55.686153, lon.=26.422197, Alt.=150.580200m. Speed=11.124000m/h.</desc>
<speed>3.090000</speed>
</trkpt>
<trkpt lat="55.686165" lon="26.422241">
<ele>150.779419</ele>
<time>2010-07-18T09:49:22Z</time>
<desc>lat.=55.686165, lon.=26.422241, Alt.=150.779419m. Speed=12.024000m/h.</desc>
<speed>3.340000</speed>
</trkpt>
<trkpt lat="55.686176" lon="26.422291">
<ele>151.302856</ele>
<time>2010-07-18T09:49:23Z</time>
<desc>lat.=55.686176, lon.=26.422291, Alt.=151.302856m. Speed=12.168000m/h.</desc>
<speed>3.380000</speed>
</trkpt>
<trkpt lat="55.686192" lon="26.422337">
<ele>151.521606</ele>
<time>2010-07-18T09:49:24Z</time>
<desc>lat.=55.686192, lon.=26.422337, Alt.=151.521606m. Speed=12.132000m/h.</desc>
<speed>3.370000</speed>
</trkpt>
<trkpt lat="55.686203" lon="26.422386">
<ele>151.041138</ele>
<time>2010-07-18T09:49:25Z</time>
<desc>lat.=55.686203, lon.=26.422386, Alt.=151.041138m. Speed=11.592000m/h.</desc>
<speed>3.220000</speed>
</trkpt>
<trkpt lat="55.686211" lon="26.422436">
<ele>150.720825</ele>
<time>2010-07-18T09:49:26Z</time>
<desc>lat.=55.686211, lon.=26.422436, Alt.=150.720825m. Speed=11.520000m/h.</desc>
<speed>3.200000</speed>
</trkpt>
<trkpt lat="55.686214" lon="26.422480">
<ele>150.064575</ele>
<time>2010-07-18T09:49:27Z</time>
<desc>lat.=55.686214, lon.=26.422480, Alt.=150.064575m. Speed=11.880000m/h.</desc>
<speed>3.300000</speed>
</trkpt>
<trkpt lat="55.686218" lon="26.422529">
<ele>149.283325</ele>
<time>2010-07-18T09:49:28Z</time>
<desc>lat.=55.686218, lon.=26.422529, Alt.=149.283325m. Speed=12.708000m/h.</desc>
<speed>3.530000</speed>
</trkpt>
<trkpt lat="55.686230" lon="26.422579">
<ele>149.287231</ele>
<time>2010-07-18T09:49:29Z</time>
<desc>lat.=55.686230, lon.=26.422579, Alt.=149.287231m. Speed=12.852000m/h.</desc>
<speed>3.570000</speed>
</trkpt>
<trkpt lat="55.686245" lon="26.422630">
<ele>149.123169</ele>
<time>2010-07-18T09:49:30Z</time>
<desc>lat.=55.686245, lon.=26.422630, Alt.=149.123169m. Speed=13.824000m/h.</desc>
<speed>3.840000</speed>
</trkpt>
<trkpt lat="55.686260" lon="26.422689">
<ele>149.021606</ele>
<time>2010-07-18T09:49:31Z</time>
<desc>lat.=55.686260, lon.=26.422689, Alt.=149.021606m. Speed=14.832000m/h.</desc>
<speed>4.120000</speed>
</trkpt>
<trkpt lat="55.686275" lon="26.422756">
<ele>149.002075</ele>
<time>2010-07-18T09:49:32Z</time>
<desc>lat.=55.686275, lon.=26.422756, Alt.=149.002075m. Speed=16.236000m/h.</desc>
<speed>4.510000</speed>
</trkpt>
<trkpt lat="55.686295" lon="26.422827">
<ele>148.920044</ele>
<time>2010-07-18T09:49:33Z</time>
<desc>lat.=55.686295, lon.=26.422827, Alt.=148.920044m. Speed=18.396000m/h.</desc>
<speed>5.110000</speed>
</trkpt>
<trkpt lat="55.686314" lon="26.422903">
<ele>148.447388</ele>
<time>2010-07-18T09:49:34Z</time>
<desc>lat.=55.686314, lon.=26.422903, Alt.=148.447388m. Speed=19.511999m/h.</desc>
<speed>5.420000</speed>
</trkpt>
<trkpt lat="55.686337" lon="26.422991">
<ele>148.306763</ele>
<time>2010-07-18T09:49:35Z</time>
<desc>lat.=55.686337, lon.=26.422991, Alt.=148.306763m. Speed=21.132000m/h.</desc>
<speed>5.870000</speed>
</trkpt>
<trkpt lat="55.686359" lon="26.423084">
<ele>148.248169</ele>
<time>2010-07-18T09:49:36Z</time>
<desc>lat.=55.686359, lon.=26.423084, Alt.=148.248169m. Speed=22.500000m/h.</desc>
<speed>6.250000</speed>
</trkpt>
<trkpt lat="55.686386" lon="26.423183">
<ele>147.935669</ele>
<time>2010-07-18T09:49:37Z</time>
<desc>lat.=55.686386, lon.=26.423183, Alt.=147.935669m. Speed=23.796000m/h.</desc>
<speed>6.610000</speed>
</trkpt>
<trkpt lat="55.686409" lon="26.423288">
<ele>147.763794</ele>
<time>2010-07-18T09:49:38Z</time>
<desc>lat.=55.686409, lon.=26.423288, Alt.=147.763794m. Speed=25.236000m/h.</desc>
<speed>7.010000</speed>
</trkpt>
<trkpt lat="55.686440" lon="26.423395">
<ele>147.681763</ele>
<time>2010-07-18T09:49:39Z</time>
<desc>lat.=55.686440, lon.=26.423395, Alt.=147.681763m. Speed=26.136000m/h.</desc>
<speed>7.260000</speed>
</trkpt>
<trkpt lat="55.686466" lon="26.423504">
<ele>147.435669</ele>
<time>2010-07-18T09:49:40Z</time>
<desc>lat.=55.686466, lon.=26.423504, Alt.=147.435669m. Speed=27.504000m/h.</desc>
<speed>7.640000</speed>
</trkpt>
<trkpt lat="55.686493" lon="26.423618">
<ele>147.045044</ele>
<time>2010-07-18T09:49:41Z</time>
<desc>lat.=55.686493, lon.=26.423618, Alt.=147.045044m. Speed=28.980000m/h.</desc>
<speed>8.050000</speed>
</trkpt>
<trkpt lat="55.686520" lon="26.423738">
<ele>146.334106</ele>
<time>2010-07-18T09:49:42Z</time>
<desc>lat.=55.686520, lon.=26.423738, Alt.=146.334106m. Speed=29.268000m/h.</desc>
<speed>8.130000</speed>
</trkpt>
<trkpt lat="55.686546" lon="26.423866">
<ele>145.849731</ele>
<time>2010-07-18T09:49:43Z</time>
<desc>lat.=55.686546, lon.=26.423866, Alt.=145.849731m. Speed=30.888000m/h.</desc>
<speed>8.580000</speed>
</trkpt>
<trkpt lat="55.686577" lon="26.423996">
<ele>145.548950</ele>
<time>2010-07-18T09:49:44Z</time>
<desc>lat.=55.686577, lon.=26.423996, Alt.=145.548950m. Speed=32.256001m/h.</desc>
<speed>8.960000</speed>
</trkpt>
<trkpt lat="55.686607" lon="26.424128">
<ele>147.095825</ele>
<time>2010-07-18T09:49:45Z</time>
<desc>lat.=55.686607, lon.=26.424128, Alt.=147.095825m. Speed=31.464001m/h.</desc>
<speed>8.740000</speed>
</trkpt>
<trkpt lat="55.686634" lon="26.424253">
<ele>146.693481</ele>
<time>2010-07-18T09:49:46Z</time>
<desc>lat.=55.686634, lon.=26.424253, Alt.=146.693481m. Speed=30.600000m/h.</desc>
<speed>8.500000</speed>
</trkpt>
<trkpt lat="55.686665" lon="26.424379">
<ele>146.123169</ele>
<time>2010-07-18T09:49:47Z</time>
<desc>lat.=55.686665, lon.=26.424379, Alt.=146.123169m. Speed=30.672001m/h.</desc>
<speed>8.520000</speed>
</trkpt>
<trkpt lat="55.686691" lon="26.424505">
<ele>145.978638</ele>
<time>2010-07-18T09:49:48Z</time>
<desc>lat.=55.686691, lon.=26.424505, Alt.=145.978638m. Speed=30.024000m/h.</desc>
<speed>8.340000</speed>
</trkpt>
<trkpt lat="55.686718" lon="26.424629">
<ele>146.248169</ele>
<time>2010-07-18T09:49:49Z</time>
<desc>lat.=55.686718, lon.=26.424629, Alt.=146.248169m. Speed=29.483999m/h.</desc>
<speed>8.190000</speed>
</trkpt>
<trkpt lat="55.686745" lon="26.424751">
<ele>146.306763</ele>
<time>2010-07-18T09:49:50Z</time>
<desc>lat.=55.686745, lon.=26.424751, Alt.=146.306763m. Speed=29.160000m/h.</desc>
<speed>8.100000</speed>
</trkpt>
<trkpt lat="55.686771" lon="26.424868">
<ele>146.345825</ele>
<time>2010-07-18T09:49:51Z</time>
<desc>lat.=55.686771, lon.=26.424868, Alt.=146.345825m. Speed=28.511999m/h.</desc>
<speed>7.920000</speed>
</trkpt>
<trkpt lat="55.686794" lon="26.424980">
<ele>146.248169</ele>
<time>2010-07-18T09:49:52Z</time>
<desc>lat.=55.686794, lon.=26.424980, Alt.=146.248169m. Speed=27.900000m/h.</desc>
<speed>7.750000</speed>
</trkpt>
<trkpt lat="55.686821" lon="26.425095">
<ele>146.502075</ele>
<time>2010-07-18T09:49:53Z</time>
<desc>lat.=55.686821, lon.=26.425095, Alt.=146.502075m. Speed=27.288000m/h.</desc>
<speed>7.580000</speed>
</trkpt>
<trkpt lat="55.686852" lon="26.425205">
<ele>146.713013</ele>
<time>2010-07-18T09:49:54Z</time>
<desc>lat.=55.686852, lon.=26.425205, Alt.=146.713013m. Speed=26.964001m/h.</desc>
<speed>7.490000</speed>
</trkpt>
<trkpt lat="55.686874" lon="26.425316">
<ele>146.677856</ele>
<time>2010-07-18T09:49:55Z</time>
<desc>lat.=55.686874, lon.=26.425316, Alt.=146.677856m. Speed=26.892000m/h.</desc>
<speed>7.470000</speed>
</trkpt>
<trkpt lat="55.686901" lon="26.425423">
<ele>146.490356</ele>
<time>2010-07-18T09:49:56Z</time>
<desc>lat.=55.686901, lon.=26.425423, Alt.=146.490356m. Speed=26.964001m/h.</desc>
<speed>7.490000</speed>
</trkpt>
<trkpt lat="55.686928" lon="26.425533">
<ele>146.591919</ele>
<time>2010-07-18T09:49:57Z</time>
<desc>lat.=55.686928, lon.=26.425533, Alt.=146.591919m. Speed=26.892000m/h.</desc>
<speed>7.470000</speed>
</trkpt>
<trkpt lat="55.686954" lon="26.425640">
<ele>146.771606</ele>
<time>2010-07-18T09:49:58Z</time>
<desc>lat.=55.686954, lon.=26.425640, Alt.=146.771606m. Speed=26.639999m/h.</desc>
<speed>7.400000</speed>
</trkpt>
<trkpt lat="55.686977" lon="26.425745">
<ele>147.005981</ele>
<time>2010-07-18T09:49:59Z</time>
<desc>lat.=55.686977, lon.=26.425745, Alt.=147.005981m. Speed=25.992001m/h.</desc>
<speed>7.220000</speed>
</trkpt>
<trkpt lat="55.687000" lon="26.425848">
<ele>146.904419</ele>
<time>2010-07-18T09:50:00Z</time>
<desc>lat.=55.687000, lon.=26.425848, Alt.=146.904419m. Speed=25.488001m/h.</desc>
<speed>7.080000</speed>
</trkpt>
<trkpt lat="55.687023" lon="26.425947">
<ele>146.998169</ele>
<time>2010-07-18T09:50:01Z</time>
<desc>lat.=55.687023, lon.=26.425947, Alt.=146.998169m. Speed=24.552000m/h.</desc>
<speed>6.820000</speed>
</trkpt>
<trkpt lat="55.687050" lon="26.426039">
<ele>147.322388</ele>
<time>2010-07-18T09:50:02Z</time>
<desc>lat.=55.687050, lon.=26.426039, Alt.=147.322388m. Speed=23.760000m/h.</desc>
<speed>6.600000</speed>
</trkpt>
<trkpt lat="55.687069" lon="26.426134">
<ele>147.271606</ele>
<time>2010-07-18T09:50:03Z</time>
<desc>lat.=55.687069, lon.=26.426134, Alt.=147.271606m. Speed=22.320000m/h.</desc>
<speed>6.200000</speed>
</trkpt>
<trkpt lat="55.687092" lon="26.426220">
<ele>147.045044</ele>
<time>2010-07-18T09:50:04Z</time>
<desc>lat.=55.687092, lon.=26.426220, Alt.=147.045044m. Speed=21.024000m/h.</desc>
<speed>5.840000</speed>
</trkpt>
<trkpt lat="55.687111" lon="26.426308">
<ele>147.130981</ele>
<time>2010-07-18T09:50:05Z</time>
<desc>lat.=55.687111, lon.=26.426308, Alt.=147.130981m. Speed=20.016001m/h.</desc>
<speed>5.560000</speed>
</trkpt>
<trkpt lat="55.687130" lon="26.426386">
<ele>147.662231</ele>
<time>2010-07-18T09:50:06Z</time>
<desc>lat.=55.687130, lon.=26.426386, Alt.=147.662231m. Speed=18.792000m/h.</desc>
<speed>5.220000</speed>
</trkpt>
<trkpt lat="55.687157" lon="26.426453">
<ele>148.685669</ele>
<time>2010-07-18T09:50:07Z</time>
<desc>lat.=55.687157, lon.=26.426453, Alt.=148.685669m. Speed=17.639999m/h.</desc>
<speed>4.900000</speed>
</trkpt>
<trkpt lat="55.687176" lon="26.426523">
<ele>149.209106</ele>
<time>2010-07-18T09:50:08Z</time>
<desc>lat.=55.687176, lon.=26.426523, Alt.=149.209106m. Speed=15.948000m/h.</desc>
<speed>4.430000</speed>
</trkpt>
<trkpt lat="55.687191" lon="26.426586">
<ele>149.158325</ele>
<time>2010-07-18T09:50:09Z</time>
<desc>lat.=55.687191, lon.=26.426586, Alt.=149.158325m. Speed=15.048000m/h.</desc>
<speed>4.180000</speed>
</trkpt>
<trkpt lat="55.687195" lon="26.426640">
<ele>148.263794</ele>
<time>2010-07-18T09:50:10Z</time>
<desc>lat.=55.687195, lon.=26.426640, Alt.=148.263794m. Speed=14.076000m/h.</desc>
<speed>3.910000</speed>
</trkpt>
<trkpt lat="55.687206" lon="26.426693">
<ele>148.287231</ele>
<time>2010-07-18T09:50:11Z</time>
<desc>lat.=55.687206, lon.=26.426693, Alt.=148.287231m. Speed=13.716000m/h.</desc>
<speed>3.810000</speed>
</trkpt>
<trkpt lat="55.687218" lon="26.426750">
<ele>148.224731</ele>
<time>2010-07-18T09:50:12Z</time>
<desc>lat.=55.687218, lon.=26.426750, Alt.=148.224731m. Speed=14.004000m/h.</desc>
<speed>3.890000</speed>
</trkpt>
<trkpt lat="55.687229" lon="26.426805">
<ele>148.439575</ele>
<time>2010-07-18T09:50:13Z</time>
<desc>lat.=55.687229, lon.=26.426805, Alt.=148.439575m. Speed=14.364000m/h.</desc>
<speed>3.990000</speed>
</trkpt>
<trkpt lat="55.687237" lon="26.426863">
<ele>148.084106</ele>
<time>2010-07-18T09:50:14Z</time>
<desc>lat.=55.687237, lon.=26.426863, Alt.=148.084106m. Speed=14.436000m/h.</desc>
<speed>4.010000</speed>
</trkpt>
<trkpt lat="55.687248" lon="26.426920">
<ele>148.072388</ele>
<time>2010-07-18T09:50:15Z</time>
<desc>lat.=55.687248, lon.=26.426920, Alt.=148.072388m. Speed=13.824000m/h.</desc>
<speed>3.840000</speed>
</trkpt>
<trkpt lat="55.687260" lon="26.426977">
<ele>148.228638</ele>
<time>2010-07-18T09:50:16Z</time>
<desc>lat.=55.687260, lon.=26.426977, Alt.=148.228638m. Speed=13.356000m/h.</desc>
<speed>3.710000</speed>
</trkpt>
<trkpt lat="55.687271" lon="26.427031">
<ele>148.302856</ele>
<time>2010-07-18T09:50:17Z</time>
<desc>lat.=55.687271, lon.=26.427031, Alt.=148.302856m. Speed=12.672000m/h.</desc>
<speed>3.520000</speed>
</trkpt>
<trkpt lat="55.687290" lon="26.427086">
<ele>149.185669</ele>
<time>2010-07-18T09:50:18Z</time>
<desc>lat.=55.687290, lon.=26.427086, Alt.=149.185669m. Speed=12.312000m/h.</desc>
<speed>3.420000</speed>
</trkpt>
<trkpt lat="55.687302" lon="26.427135">
<ele>149.084106</ele>
<time>2010-07-18T09:50:19Z</time>
<desc>lat.=55.687302, lon.=26.427135, Alt.=149.084106m. Speed=12.744000m/h.</desc>
<speed>3.540000</speed>
</trkpt>
<trkpt lat="55.687317" lon="26.427191">
<ele>148.880981</ele>
<time>2010-07-18T09:50:20Z</time>
<desc>lat.=55.687317, lon.=26.427191, Alt.=148.880981m. Speed=13.356000m/h.</desc>
<speed>3.710000</speed>
</trkpt>
<trkpt lat="55.687325" lon="26.427248">
<ele>148.029419</ele>
<time>2010-07-18T09:50:21Z</time>
<desc>lat.=55.687325, lon.=26.427248, Alt.=148.029419m. Speed=13.248000m/h.</desc>
<speed>3.680000</speed>
</trkpt>
<trkpt lat="55.687336" lon="26.427303">
<ele>147.818481</ele>
<time>2010-07-18T09:50:22Z</time>
<desc>lat.=55.687336, lon.=26.427303, Alt.=147.818481m. Speed=13.608000m/h.</desc>
<speed>3.780000</speed>
</trkpt>
<trkpt lat="55.687347" lon="26.427362">
<ele>147.259888</ele>
<time>2010-07-18T09:50:23Z</time>
<desc>lat.=55.687347, lon.=26.427362, Alt.=147.259888m. Speed=14.580000m/h.</desc>
<speed>4.050000</speed>
</trkpt>
<trkpt lat="55.687363" lon="26.427425">
<ele>147.119263</ele>
<time>2010-07-18T09:50:24Z</time>
<desc>lat.=55.687363, lon.=26.427425, Alt.=147.119263m. Speed=15.156000m/h.</desc>
<speed>4.210000</speed>
</trkpt>
<trkpt lat="55.687378" lon="26.427494">
<ele>147.134888</ele>
<time>2010-07-18T09:50:25Z</time>
<desc>lat.=55.687378, lon.=26.427494, Alt.=147.134888m. Speed=16.488001m/h.</desc>
<speed>4.580000</speed>
</trkpt>
<trkpt lat="55.687397" lon="26.427565">
<ele>147.048950</ele>
<time>2010-07-18T09:50:26Z</time>
<desc>lat.=55.687397, lon.=26.427565, Alt.=147.048950m. Speed=17.424000m/h.</desc>
<speed>4.840000</speed>
</trkpt>
<trkpt lat="55.687420" lon="26.427639">
<ele>146.615356</ele>
<time>2010-07-18T09:50:27Z</time>
<desc>lat.=55.687420, lon.=26.427639, Alt.=146.615356m. Speed=19.368000m/h.</desc>
<speed>5.380000</speed>
</trkpt>
<trkpt lat="55.687443" lon="26.427725">
<ele>146.466919</ele>
<time>2010-07-18T09:50:28Z</time>
<desc>lat.=55.687443, lon.=26.427725, Alt.=146.466919m. Speed=21.024000m/h.</desc>
<speed>5.840000</speed>
</trkpt>
<trkpt lat="55.687466" lon="26.427816">
<ele>146.412231</ele>
<time>2010-07-18T09:50:29Z</time>
<desc>lat.=55.687466, lon.=26.427816, Alt.=146.412231m. Speed=22.032000m/h.</desc>
<speed>6.120000</speed>
</trkpt>
<trkpt lat="55.687489" lon="26.427912">
<ele>146.029419</ele>
<time>2010-07-18T09:50:30Z</time>
<desc>lat.=55.687489, lon.=26.427912, Alt.=146.029419m. Speed=23.292000m/h.</desc>
<speed>6.470000</speed>
</trkpt>
<trkpt lat="55.687515" lon="26.428011">
<ele>146.064575</ele>
<time>2010-07-18T09:50:31Z</time>
<desc>lat.=55.687515, lon.=26.428011, Alt.=146.064575m. Speed=23.615999m/h.</desc>
<speed>6.560000</speed>
</trkpt>
<trkpt lat="55.687538" lon="26.428112">
<ele>145.713013</ele>
<time>2010-07-18T09:50:32Z</time>
<desc>lat.=55.687538, lon.=26.428112, Alt.=145.713013m. Speed=24.624001m/h.</desc>
<speed>6.840000</speed>
</trkpt>
<trkpt lat="55.687561" lon="26.428213">
<ele>145.451294</ele>
<time>2010-07-18T09:50:33Z</time>
<desc>lat.=55.687561, lon.=26.428213, Alt.=145.451294m. Speed=25.596001m/h.</desc>
<speed>7.110000</speed>
</trkpt>
<trkpt lat="55.687588" lon="26.428322">
<ele>144.431763</ele>
<time>2010-07-18T09:50:34Z</time>
<desc>lat.=55.687588, lon.=26.428322, Alt.=144.431763m. Speed=26.388000m/h.</desc>
<speed>7.330000</speed>
</trkpt>
<trkpt lat="55.687611" lon="26.428432">
<ele>143.775513</ele>
<time>2010-07-18T09:50:35Z</time>
<desc>lat.=55.687611, lon.=26.428432, Alt.=143.775513m. Speed=27.288000m/h.</desc>
<speed>7.580000</speed>
</trkpt>
<trkpt lat="55.687630" lon="26.428555">
<ele>142.990356</ele>
<time>2010-07-18T09:50:36Z</time>
<desc>lat.=55.687630, lon.=26.428555, Alt.=142.990356m. Speed=27.936001m/h.</desc>
<speed>7.760000</speed>
</trkpt>
<trkpt lat="55.687656" lon="26.428677">
<ele>142.646606</ele>
<time>2010-07-18T09:50:37Z</time>
<desc>lat.=55.687656, lon.=26.428677, Alt.=142.646606m. Speed=28.656000m/h.</desc>
<speed>7.960000</speed>
</trkpt>
<trkpt lat="55.687683" lon="26.428799">
<ele>142.240356</ele>
<time>2010-07-18T09:50:38Z</time>
<desc>lat.=55.687683, lon.=26.428799, Alt.=142.240356m. Speed=29.412001m/h.</desc>
<speed>8.170000</speed>
</trkpt>
<trkpt lat="55.687710" lon="26.428921">
<ele>142.088013</ele>
<time>2010-07-18T09:50:39Z</time>
<desc>lat.=55.687710, lon.=26.428921, Alt.=142.088013m. Speed=29.628000m/h.</desc>
<speed>8.230000</speed>
</trkpt>
<trkpt lat="55.687737" lon="26.429041">
<ele>141.802856</ele>
<time>2010-07-18T09:50:40Z</time>
<desc>lat.=55.687737, lon.=26.429041, Alt.=141.802856m. Speed=29.700001m/h.</desc>
<speed>8.250000</speed>
</trkpt>
<trkpt lat="55.687767" lon="26.429161">
<ele>141.556763</ele>
<time>2010-07-18T09:50:41Z</time>
<desc>lat.=55.687767, lon.=26.429161, Alt.=141.556763m. Speed=29.771999m/h.</desc>
<speed>8.270000</speed>
</trkpt>
<trkpt lat="55.687790" lon="26.429287">
<ele>140.423950</ele>
<time>2010-07-18T09:50:42Z</time>
<desc>lat.=55.687790, lon.=26.429287, Alt.=140.423950m. Speed=29.771999m/h.</desc>
<speed>8.270000</speed>
</trkpt>
<trkpt lat="55.687817" lon="26.429411">
<ele>140.412231</ele>
<time>2010-07-18T09:50:43Z</time>
<desc>lat.=55.687817, lon.=26.429411, Alt.=140.412231m. Speed=30.708000m/h.</desc>
<speed>8.530000</speed>
</trkpt>
<trkpt lat="55.687847" lon="26.429535">
<ele>140.423950</ele>
<time>2010-07-18T09:50:44Z</time>
<desc>lat.=55.687847, lon.=26.429535, Alt.=140.423950m. Speed=31.104000m/h.</desc>
<speed>8.640000</speed>
</trkpt>
<trkpt lat="55.687878" lon="26.429665">
<ele>139.927856</ele>
<time>2010-07-18T09:50:45Z</time>
<desc>lat.=55.687878, lon.=26.429665, Alt.=139.927856m. Speed=32.183998m/h.</desc>
<speed>8.939999</speed>
</trkpt>
<trkpt lat="55.687908" lon="26.429792">
<ele>139.580200</ele>
<time>2010-07-18T09:50:46Z</time>
<desc>lat.=55.687908, lon.=26.429792, Alt.=139.580200m. Speed=32.040001m/h.</desc>
<speed>8.900000</speed>
</trkpt>
<trkpt lat="55.687935" lon="26.429924">
<ele>138.783325</ele>
<time>2010-07-18T09:50:47Z</time>
<desc>lat.=55.687935, lon.=26.429924, Alt.=138.783325m. Speed=32.004002m/h.</desc>
<speed>8.890000</speed>
</trkpt>
<trkpt lat="55.687965" lon="26.430056">
<ele>138.556763</ele>
<time>2010-07-18T09:50:48Z</time>
<desc>lat.=55.687965, lon.=26.430056, Alt.=138.556763m. Speed=32.004002m/h.</desc>
<speed>8.890000</speed>
</trkpt>
<trkpt lat="55.688000" lon="26.430183">
<ele>138.341919</ele>
<time>2010-07-18T09:50:49Z</time>
<desc>lat.=55.688000, lon.=26.430183, Alt.=138.341919m. Speed=32.076000m/h.</desc>
<speed>8.910000</speed>
</trkpt>
<trkpt lat="55.688030" lon="26.430313">
<ele>137.908325</ele>
<time>2010-07-18T09:50:50Z</time>
<desc>lat.=55.688030, lon.=26.430313, Alt.=137.908325m. Speed=32.327999m/h.</desc>
<speed>8.980000</speed>
</trkpt>
<trkpt lat="55.688061" lon="26.430441">
<ele>137.759888</ele>
<time>2010-07-18T09:50:51Z</time>
<desc>lat.=55.688061, lon.=26.430441, Alt.=137.759888m. Speed=32.256001m/h.</desc>
<speed>8.960000</speed>
</trkpt>
<trkpt lat="55.688091" lon="26.430569">
<ele>137.576294</ele>
<time>2010-07-18T09:50:52Z</time>
<desc>lat.=55.688091, lon.=26.430569, Alt.=137.576294m. Speed=32.183998m/h.</desc>
<speed>8.939999</speed>
</trkpt>
<trkpt lat="55.688122" lon="26.430700">
<ele>137.142700</ele>
<time>2010-07-18T09:50:53Z</time>
<desc>lat.=55.688122, lon.=26.430700, Alt.=137.142700m. Speed=32.076000m/h.</desc>
<speed>8.910000</speed>
</trkpt>
<trkpt lat="55.688148" lon="26.430830">
<ele>136.505981</ele>
<time>2010-07-18T09:50:54Z</time>
<desc>lat.=55.688148, lon.=26.430830, Alt.=136.505981m. Speed=32.220001m/h.</desc>
<speed>8.950000</speed>
</trkpt>
<trkpt lat="55.688183" lon="26.430960">
<ele>136.404419</ele>
<time>2010-07-18T09:50:55Z</time>
<desc>lat.=55.688183, lon.=26.430960, Alt.=136.404419m. Speed=32.220001m/h.</desc>
<speed>8.950000</speed>
</trkpt>
<trkpt lat="55.688213" lon="26.431087">
<ele>136.427856</ele>
<time>2010-07-18T09:50:56Z</time>
<desc>lat.=55.688213, lon.=26.431087, Alt.=136.427856m. Speed=31.788000m/h.</desc>
<speed>8.830000</speed>
</trkpt>
<trkpt lat="55.688244" lon="26.431217">
<ele>136.384888</ele>
<time>2010-07-18T09:50:57Z</time>
<desc>lat.=55.688244, lon.=26.431217, Alt.=136.384888m. Speed=31.212000m/h.</desc>
<speed>8.670000</speed>
</trkpt>
<trkpt lat="55.688271" lon="26.431343">
<ele>136.431763</ele>
<time>2010-07-18T09:50:58Z</time>
<desc>lat.=55.688271, lon.=26.431343, Alt.=136.431763m. Speed=30.528000m/h.</desc>
<speed>8.480000</speed>
</trkpt>
<trkpt lat="55.688297" lon="26.431467">
<ele>136.545044</ele>
<time>2010-07-18T09:50:59Z</time>
<desc>lat.=55.688297, lon.=26.431467, Alt.=136.545044m. Speed=29.736000m/h.</desc>
<speed>8.260000</speed>
</trkpt>
<trkpt lat="55.688328" lon="26.431587">
<ele>136.646606</ele>
<time>2010-07-18T09:51:00Z</time>
<desc>lat.=55.688328, lon.=26.431587, Alt.=136.646606m. Speed=29.700001m/h.</desc>
<speed>8.250000</speed>
</trkpt>
<trkpt lat="55.688354" lon="26.431707">
<ele>136.787231</ele>
<time>2010-07-18T09:51:01Z</time>
<desc>lat.=55.688354, lon.=26.431707, Alt.=136.787231m. Speed=29.232000m/h.</desc>
<speed>8.120000</speed>
</trkpt>
<trkpt lat="55.688381" lon="26.431826">
<ele>137.373169</ele>
<time>2010-07-18T09:51:02Z</time>
<desc>lat.=55.688381, lon.=26.431826, Alt.=137.373169m. Speed=27.684000m/h.</desc>
<speed>7.690000</speed>
</trkpt>
<trkpt lat="55.688408" lon="26.431938">
<ele>138.380981</ele>
<time>2010-07-18T09:51:03Z</time>
<desc>lat.=55.688408, lon.=26.431938, Alt.=138.380981m. Speed=25.812000m/h.</desc>
<speed>7.170000</speed>
</trkpt>
<trkpt lat="55.688435" lon="26.432043">
<ele>138.830200</ele>
<time>2010-07-18T09:51:04Z</time>
<desc>lat.=55.688435, lon.=26.432043, Alt.=138.830200m. Speed=25.128000m/h.</desc>
<speed>6.980000</speed>
</trkpt>
<trkpt lat="55.688457" lon="26.432146">
<ele>139.236450</ele>
<time>2010-07-18T09:51:05Z</time>
<desc>lat.=55.688457, lon.=26.432146, Alt.=139.236450m. Speed=23.940001m/h.</desc>
<speed>6.650000</speed>
</trkpt>
<trkpt lat="55.688480" lon="26.432241">
<ele>139.627075</ele>
<time>2010-07-18T09:51:06Z</time>
<desc>lat.=55.688480, lon.=26.432241, Alt.=139.627075m. Speed=22.320000m/h.</desc>
<speed>6.200000</speed>
</trkpt>
<trkpt lat="55.688503" lon="26.432327">
<ele>140.045044</ele>
<time>2010-07-18T09:51:07Z</time>
<desc>lat.=55.688503, lon.=26.432327, Alt.=140.045044m. Speed=20.916000m/h.</desc>
<speed>5.810000</speed>
</trkpt>
<trkpt lat="55.688526" lon="26.432409">
<ele>140.826294</ele>
<time>2010-07-18T09:51:08Z</time>
<desc>lat.=55.688526, lon.=26.432409, Alt.=140.826294m. Speed=19.691999m/h.</desc>
<speed>5.470000</speed>
</trkpt>
<trkpt lat="55.688545" lon="26.432491">
<ele>141.482544</ele>
<time>2010-07-18T09:51:09Z</time>
<desc>lat.=55.688545, lon.=26.432491, Alt.=141.482544m. Speed=18.648001m/h.</desc>
<speed>5.180000</speed>
</trkpt>
<trkpt lat="55.688564" lon="26.432566">
<ele>142.638794</ele>
<time>2010-07-18T09:51:10Z</time>
<desc>lat.=55.688564, lon.=26.432566, Alt.=142.638794m. Speed=16.559999m/h.</desc>
<speed>4.600000</speed>
</trkpt>
<trkpt lat="55.688580" lon="26.432631">
<ele>143.115356</ele>
<time>2010-07-18T09:51:11Z</time>
<desc>lat.=55.688580, lon.=26.432631, Alt.=143.115356m. Speed=14.976000m/h.</desc>
<speed>4.160000</speed>
</trkpt>
<trkpt lat="55.688591" lon="26.432692">
<ele>143.802856</ele>
<time>2010-07-18T09:51:12Z</time>
<desc>lat.=55.688591, lon.=26.432692, Alt.=143.802856m. Speed=14.436000m/h.</desc>
<speed>4.010000</speed>
</trkpt>
<trkpt lat="55.688606" lon="26.432751">
<ele>144.650513</ele>
<time>2010-07-18T09:51:13Z</time>
<desc>lat.=55.688606, lon.=26.432751, Alt.=144.650513m. Speed=14.364000m/h.</desc>
<speed>3.990000</speed>
</trkpt>
<trkpt lat="55.688622" lon="26.432812">
<ele>145.119263</ele>
<time>2010-07-18T09:51:14Z</time>
<desc>lat.=55.688622, lon.=26.432812, Alt.=145.119263m. Speed=14.580000m/h.</desc>
<speed>4.050000</speed>
</trkpt>
<trkpt lat="55.688637" lon="26.432873">
<ele>145.697388</ele>
<time>2010-07-18T09:51:15Z</time>
<desc>lat.=55.688637, lon.=26.432873, Alt.=145.697388m. Speed=14.580000m/h.</desc>
<speed>4.050000</speed>
</trkpt>
<trkpt lat="55.688656" lon="26.432926">
<ele>147.841919</ele>
<time>2010-07-18T09:51:16Z</time>
<desc>lat.=55.688656, lon.=26.432926, Alt.=147.841919m. Speed=14.796000m/h.</desc>
<speed>4.110000</speed>
</trkpt>
<trkpt lat="55.688671" lon="26.432985">
<ele>147.834106</ele>
<time>2010-07-18T09:51:17Z</time>
<desc>lat.=55.688671, lon.=26.432985, Alt.=147.834106m. Speed=14.940000m/h.</desc>
<speed>4.150000</speed>
</trkpt>
<trkpt lat="55.688683" lon="26.433048">
<ele>147.810669</ele>
<time>2010-07-18T09:51:18Z</time>
<desc>lat.=55.688683, lon.=26.433048, Alt.=147.810669m. Speed=15.264000m/h.</desc>
<speed>4.240000</speed>
</trkpt>
<trkpt lat="55.688690" lon="26.433111">
<ele>147.295044</ele>
<time>2010-07-18T09:51:19Z</time>
<desc>lat.=55.688690, lon.=26.433111, Alt.=147.295044m. Speed=15.444000m/h.</desc>
<speed>4.290000</speed>
</trkpt>
<trkpt lat="55.688705" lon="26.433176">
<ele>147.634888</ele>
<time>2010-07-18T09:51:20Z</time>
<desc>lat.=55.688705, lon.=26.433176, Alt.=147.634888m. Speed=15.588000m/h.</desc>
<speed>4.330000</speed>
</trkpt>
<trkpt lat="55.688725" lon="26.433239">
<ele>148.084106</ele>
<time>2010-07-18T09:51:21Z</time>
<desc>lat.=55.688725, lon.=26.433239, Alt.=148.084106m. Speed=15.192000m/h.</desc>
<speed>4.220000</speed>
</trkpt>
<trkpt lat="55.688740" lon="26.433300">
<ele>148.517700</ele>
<time>2010-07-18T09:51:22Z</time>
<desc>lat.=55.688740, lon.=26.433300, Alt.=148.517700m. Speed=13.932000m/h.</desc>
<speed>3.870000</speed>
</trkpt>
<trkpt lat="55.688747" lon="26.433357">
<ele>148.224731</ele>
<time>2010-07-18T09:51:23Z</time>
<desc>lat.=55.688747, lon.=26.433357, Alt.=148.224731m. Speed=13.356000m/h.</desc>
<speed>3.710000</speed>
</trkpt>
<trkpt lat="55.688763" lon="26.433413">
<ele>148.505981</ele>
<time>2010-07-18T09:51:24Z</time>
<desc>lat.=55.688763, lon.=26.433413, Alt.=148.505981m. Speed=13.212000m/h.</desc>
<speed>3.670000</speed>
</trkpt>
<trkpt lat="55.688774" lon="26.433466">
<ele>148.822388</ele>
<time>2010-07-18T09:51:25Z</time>
<desc>lat.=55.688774, lon.=26.433466, Alt.=148.822388m. Speed=13.572000m/h.</desc>
<speed>3.770000</speed>
</trkpt>
<trkpt lat="55.688786" lon="26.433523">
<ele>149.080200</ele>
<time>2010-07-18T09:51:26Z</time>
<desc>lat.=55.688786, lon.=26.433523, Alt.=149.080200m. Speed=13.896000m/h.</desc>
<speed>3.860000</speed>
</trkpt>
<trkpt lat="55.688797" lon="26.433580">
<ele>149.166138</ele>
<time>2010-07-18T09:51:27Z</time>
<desc>lat.=55.688797, lon.=26.433580, Alt.=149.166138m. Speed=14.076000m/h.</desc>
<speed>3.910000</speed>
</trkpt>
<trkpt lat="55.688805" lon="26.433638">
<ele>148.896606</ele>
<time>2010-07-18T09:51:28Z</time>
<desc>lat.=55.688805, lon.=26.433638, Alt.=148.896606m. Speed=14.436000m/h.</desc>
<speed>4.010000</speed>
</trkpt>
<trkpt lat="55.688808" lon="26.433701">
<ele>148.740356</ele>
<time>2010-07-18T09:51:29Z</time>
<desc>lat.=55.688808, lon.=26.433701, Alt.=148.740356m. Speed=14.112000m/h.</desc>
<speed>3.920000</speed>
</trkpt>
<trkpt lat="55.688816" lon="26.433756">
<ele>148.884888</ele>
<time>2010-07-18T09:51:30Z</time>
<desc>lat.=55.688816, lon.=26.433756, Alt.=148.884888m. Speed=12.348000m/h.</desc>
<speed>3.430000</speed>
</trkpt>
<trkpt lat="55.688828" lon="26.433800">
<ele>149.080200</ele>
<time>2010-07-18T09:51:31Z</time>
<desc>lat.=55.688828, lon.=26.433800, Alt.=149.080200m. Speed=11.052000m/h.</desc>
<speed>3.070000</speed>
</trkpt>
<trkpt lat="55.688835" lon="26.433844">
<ele>149.088013</ele>
<time>2010-07-18T09:51:32Z</time>
<desc>lat.=55.688835, lon.=26.433844, Alt.=149.088013m. Speed=10.872000m/h.</desc>
<speed>3.020000</speed>
</trkpt>
<trkpt lat="55.688843" lon="26.433884">
<ele>148.943481</ele>
<time>2010-07-18T09:51:33Z</time>
<desc>lat.=55.688843, lon.=26.433884, Alt.=148.943481m. Speed=10.476000m/h.</desc>
<speed>2.910000</speed>
</trkpt>
<trkpt lat="55.688850" lon="26.433926">
<ele>149.213013</ele>
<time>2010-07-18T09:51:34Z</time>
<desc>lat.=55.688850, lon.=26.433926, Alt.=149.213013m. Speed=10.476000m/h.</desc>
<speed>2.910000</speed>
</trkpt>
<trkpt lat="55.688858" lon="26.433968">
<ele>149.142700</ele>
<time>2010-07-18T09:51:35Z</time>
<desc>lat.=55.688858, lon.=26.433968, Alt.=149.142700m. Speed=10.512000m/h.</desc>
<speed>2.920000</speed>
</trkpt>
<trkpt lat="55.688862" lon="26.434011">
<ele>149.142700</ele>
<time>2010-07-18T09:51:36Z</time>
<desc>lat.=55.688862, lon.=26.434011, Alt.=149.142700m. Speed=10.620000m/h.</desc>
<speed>2.950000</speed>
</trkpt>
<trkpt lat="55.688869" lon="26.434055">
<ele>149.701294</ele>
<time>2010-07-18T09:51:37Z</time>
<desc>lat.=55.688869, lon.=26.434055, Alt.=149.701294m. Speed=11.448000m/h.</desc>
<speed>3.180000</speed>
</trkpt>
<trkpt lat="55.688869" lon="26.434109">
<ele>149.041138</ele>
<time>2010-07-18T09:51:38Z</time>
<desc>lat.=55.688869, lon.=26.434109, Alt.=149.041138m. Speed=11.772000m/h.</desc>
<speed>3.270000</speed>
</trkpt>
<trkpt lat="55.688877" lon="26.434162">
<ele>148.830200</ele>
<time>2010-07-18T09:51:39Z</time>
<desc>lat.=55.688877, lon.=26.434162, Alt.=148.830200m. Speed=13.032000m/h.</desc>
<speed>3.620000</speed>
</trkpt>
<trkpt lat="55.688885" lon="26.434217">
<ele>148.978638</ele>
<time>2010-07-18T09:51:40Z</time>
<desc>lat.=55.688885, lon.=26.434217, Alt.=148.978638m. Speed=13.104000m/h.</desc>
<speed>3.640000</speed>
</trkpt>
<trkpt lat="55.688892" lon="26.434275">
<ele>149.236450</ele>
<time>2010-07-18T09:51:41Z</time>
<desc>lat.=55.688892, lon.=26.434275, Alt.=149.236450m. Speed=13.248000m/h.</desc>
<speed>3.680000</speed>
</trkpt>
<trkpt lat="55.688904" lon="26.434332">
<ele>149.591919</ele>
<time>2010-07-18T09:51:42Z</time>
<desc>lat.=55.688904, lon.=26.434332, Alt.=149.591919m. Speed=12.960000m/h.</desc>
<speed>3.600000</speed>
</trkpt>
<trkpt lat="55.688915" lon="26.434389">
<ele>149.705200</ele>
<time>2010-07-18T09:51:43Z</time>
<desc>lat.=55.688915, lon.=26.434389, Alt.=149.705200m. Speed=12.852000m/h.</desc>
<speed>3.570000</speed>
</trkpt>
<trkpt lat="55.688923" lon="26.434444">
<ele>150.392700</ele>
<time>2010-07-18T09:51:44Z</time>
<desc>lat.=55.688923, lon.=26.434444, Alt.=150.392700m. Speed=12.924000m/h.</desc>
<speed>3.590000</speed>
</trkpt>
<trkpt lat="55.688931" lon="26.434505">
<ele>150.806763</ele>
<time>2010-07-18T09:51:45Z</time>
<desc>lat.=55.688931, lon.=26.434505, Alt.=150.806763m. Speed=13.896000m/h.</desc>
<speed>3.860000</speed>
</trkpt>
<trkpt lat="55.688931" lon="26.434570">
<ele>150.412231</ele>
<time>2010-07-18T09:51:46Z</time>
<desc>lat.=55.688931, lon.=26.434570, Alt.=150.412231m. Speed=14.364000m/h.</desc>
<speed>3.990000</speed>
</trkpt>
<trkpt lat="55.688938" lon="26.434631">
<ele>150.005981</ele>
<time>2010-07-18T09:51:47Z</time>
<desc>lat.=55.688938, lon.=26.434631, Alt.=150.005981m. Speed=14.508000m/h.</desc>
<speed>4.030000</speed>
</trkpt>
<trkpt lat="55.688946" lon="26.434692">
<ele>149.822388</ele>
<time>2010-07-18T09:51:48Z</time>
<desc>lat.=55.688946, lon.=26.434692, Alt.=149.822388m. Speed=14.544000m/h.</desc>
<speed>4.040000</speed>
</trkpt>
<trkpt lat="55.688950" lon="26.434761">
<ele>149.998169</ele>
<time>2010-07-18T09:51:49Z</time>
<desc>lat.=55.688950, lon.=26.434761, Alt.=149.998169m. Speed=15.048000m/h.</desc>
<speed>4.180000</speed>
</trkpt>
<trkpt lat="55.688953" lon="26.434828">
<ele>149.912231</ele>
<time>2010-07-18T09:51:50Z</time>
<desc>lat.=55.688953, lon.=26.434828, Alt.=149.912231m. Speed=15.156000m/h.</desc>
<speed>4.210000</speed>
</trkpt>
<trkpt lat="55.688961" lon="26.434891">
<ele>150.177856</ele>
<time>2010-07-18T09:51:51Z</time>
<desc>lat.=55.688961, lon.=26.434891, Alt.=150.177856m. Speed=13.896000m/h.</desc>
<speed>3.860000</speed>
</trkpt>
<trkpt lat="55.688969" lon="26.434948">
<ele>150.134888</ele>
<time>2010-07-18T09:51:52Z</time>
<desc>lat.=55.688969, lon.=26.434948, Alt.=150.134888m. Speed=12.564000m/h.</desc>
<speed>3.490000</speed>
</trkpt>
<trkpt lat="55.688972" lon="26.435003">
<ele>150.470825</ele>
<time>2010-07-18T09:51:53Z</time>
<desc>lat.=55.688972, lon.=26.435003, Alt.=150.470825m. Speed=11.700000m/h.</desc>
<speed>3.250000</speed>
</trkpt>
<trkpt lat="55.688976" lon="26.435053">
<ele>150.369263</ele>
<time>2010-07-18T09:51:54Z</time>
<desc>lat.=55.688976, lon.=26.435053, Alt.=150.369263m. Speed=10.836000m/h.</desc>
<speed>3.010000</speed>
</trkpt>
<trkpt lat="55.688976" lon="26.435093">
<ele>149.912231</ele>
<time>2010-07-18T09:51:55Z</time>
<desc>lat.=55.688976, lon.=26.435093, Alt.=149.912231m. Speed=9.792000m/h.</desc>
<speed>2.720000</speed>
</trkpt>
<trkpt lat="55.688976" lon="26.435122">
<ele>149.537231</ele>
<time>2010-07-18T09:51:56Z</time>
<desc>lat.=55.688976, lon.=26.435122, Alt.=149.537231m. Speed=5.256000m/h.</desc>
<speed>1.460000</speed>
</trkpt>
<trkpt lat="55.688969" lon="26.435131">
<ele>148.201294</ele>
<time>2010-07-18T09:51:57Z</time>
<desc>lat.=55.688969, lon.=26.435131, Alt.=148.201294m. Speed=0.576000m/h.</desc>
<speed>0.160000</speed>
</trkpt>
<trkpt lat="55.688972" lon="26.435129">
<ele>148.474731</ele>
<time>2010-07-18T09:51:58Z</time>
<desc>lat.=55.688972, lon.=26.435129, Alt.=148.474731m. Speed=0.612000m/h.</desc>
<speed>0.170000</speed>
</trkpt>
<trkpt lat="55.688976" lon="26.435127">
<ele>148.556763</ele>
<time>2010-07-18T09:51:59Z</time>
<desc>lat.=55.688976, lon.=26.435127, Alt.=148.556763m. Speed=0.684000m/h.</desc>
<speed>0.190000</speed>
</trkpt>
<trkpt lat="55.688976" lon="26.435125">
<ele>148.584106</ele>
<time>2010-07-18T09:52:00Z</time>
<desc>lat.=55.688976, lon.=26.435125, Alt.=148.584106m. Speed=0.324000m/h.</desc>
<speed>0.090000</speed>
</trkpt>
<trkpt lat="55.688976" lon="26.435125">
<ele>148.416138</ele>
<time>2010-07-18T09:52:01Z</time>
<desc>lat.=55.688976, lon.=26.435125, Alt.=148.416138m. Speed=0.468000m/h.</desc>
<speed>0.130000</speed>
</trkpt>
<trkpt lat="55.688976" lon="26.435123">
<ele>148.295044</ele>
<time>2010-07-18T09:52:02Z</time>
<desc>lat.=55.688976, lon.=26.435123, Alt.=148.295044m. Speed=0.324000m/h.</desc>
<speed>0.090000</speed>
</trkpt>
<trkpt lat="55.688976" lon="26.435122">
<ele>148.209106</ele>
<time>2010-07-18T09:52:03Z</time>
<desc>lat.=55.688976, lon.=26.435122, Alt.=148.209106m. Speed=0.432000m/h.</desc>
<speed>0.120000</speed>
</trkpt>
<trkpt lat="55.688976" lon="26.435123">
<ele>148.142700</ele>
<time>2010-07-18T09:52:04Z</time>
<desc>lat.=55.688976, lon.=26.435123, Alt.=148.142700m. Speed=0.360000m/h.</desc>
<speed>0.100000</speed>
</trkpt>
<trkpt lat="55.688976" lon="26.435122">
<ele>148.088013</ele>
<time>2010-07-18T09:52:05Z</time>
<desc>lat.=55.688976, lon.=26.435122, Alt.=148.088013m. Speed=0.180000m/h.</desc>
<speed>0.050000</speed>
</trkpt>
<trkpt lat="55.688976" lon="26.435122">
<ele>148.048950</ele>
<time>2010-07-18T09:52:06Z</time>
<desc>lat.=55.688976, lon.=26.435122, Alt.=148.048950m. Speed=0.540000m/h.</desc>
<speed>0.150000</speed>
</trkpt>
<trkpt lat="55.688976" lon="26.435120">
<ele>148.013794</ele>
<time>2010-07-18T09:52:07Z</time>
<desc>lat.=55.688976, lon.=26.435120, Alt.=148.013794m. Speed=0.324000m/h.</desc>
<speed>0.090000</speed>
</trkpt>
<trkpt lat="55.688976" lon="26.435122">
<ele>147.986450</ele>
<time>2010-07-18T09:52:08Z</time>
<desc>lat.=55.688976, lon.=26.435122, Alt.=147.986450m. Speed=0.612000m/h.</desc>
<speed>0.170000</speed>
</trkpt>
<trkpt lat="55.688972" lon="26.435120">
<ele>147.963013</ele>
<time>2010-07-18T09:52:09Z</time>
<desc>lat.=55.688972, lon.=26.435120, Alt.=147.963013m. Speed=0.144000m/h.</desc>
<speed>0.040000</speed>
</trkpt>
<trkpt lat="55.688972" lon="26.435120">
<ele>147.943481</ele>
<time>2010-07-18T09:52:10Z</time>
<desc>lat.=55.688972, lon.=26.435120, Alt.=147.943481m. Speed=0.684000m/h.</desc>
<speed>0.190000</speed>
</trkpt>
<trkpt lat="55.688972" lon="26.435120">
<ele>147.927856</ele>
<time>2010-07-18T09:52:11Z</time>
<desc>lat.=55.688972, lon.=26.435120, Alt.=147.927856m. Speed=0.252000m/h.</desc>
<speed>0.070000</speed>
</trkpt>
<trkpt lat="55.688972" lon="26.435120">
<ele>147.916138</ele>
<time>2010-07-18T09:52:12Z</time>
<desc>lat.=55.688972, lon.=26.435120, Alt.=147.916138m. Speed=0.108000m/h.</desc>
<speed>0.030000</speed>
</trkpt>
<trkpt lat="55.688972" lon="26.435118">
<ele>147.908325</ele>
<time>2010-07-18T09:52:13Z</time>
<desc>lat.=55.688972, lon.=26.435118, Alt.=147.908325m. Speed=0.216000m/h.</desc>
<speed>0.060000</speed>
</trkpt>
<trkpt lat="55.688969" lon="26.435118">
<ele>147.900513</ele>
<time>2010-07-18T09:52:14Z</time>
<desc>lat.=55.688969, lon.=26.435118, Alt.=147.900513m. Speed=0.504000m/h.</desc>
<speed>0.140000</speed>
</trkpt>
<trkpt lat="55.688969" lon="26.435116">
<ele>147.892700</ele>
<time>2010-07-18T09:52:15Z</time>
<desc>lat.=55.688969, lon.=26.435116, Alt.=147.892700m. Speed=0.396000m/h.</desc>
<speed>0.110000</speed>
</trkpt>
<trkpt lat="55.688969" lon="26.435114">
<ele>147.884888</ele>
<time>2010-07-18T09:52:16Z</time>
<desc>lat.=55.688969, lon.=26.435114, Alt.=147.884888m. Speed=0.396000m/h.</desc>
<speed>0.110000</speed>
</trkpt>
<trkpt lat="55.688969" lon="26.435112">
<ele>147.880981</ele>
<time>2010-07-18T09:52:17Z</time>
<desc>lat.=55.688969, lon.=26.435112, Alt.=147.880981m. Speed=0.396000m/h.</desc>
<speed>0.110000</speed>
</trkpt>
<trkpt lat="55.688972" lon="26.435112">
<ele>147.880981</ele>
<time>2010-07-18T09:52:18Z</time>
<desc>lat.=55.688972, lon.=26.435112, Alt.=147.880981m. Speed=0.540000m/h.</desc>
<speed>0.150000</speed>
</trkpt>
<trkpt lat="55.688972" lon="26.435110">
<ele>147.877075</ele>
<time>2010-07-18T09:52:19Z</time>
<desc>lat.=55.688972, lon.=26.435110, Alt.=147.877075m. Speed=0.540000m/h.</desc>
<speed>0.150000</speed>
</trkpt>
<trkpt lat="55.688972" lon="26.435110">
<ele>147.873169</ele>
<time>2010-07-18T09:52:20Z</time>
<desc>lat.=55.688972, lon.=26.435110, Alt.=147.873169m. Speed=0.648000m/h.</desc>
<speed>0.180000</speed>
</trkpt>
<trkpt lat="55.688972" lon="26.435106">
<ele>147.869263</ele>
<time>2010-07-18T09:52:21Z</time>
<desc>lat.=55.688972, lon.=26.435106, Alt.=147.869263m. Speed=0.396000m/h.</desc>
<speed>0.110000</speed>
</trkpt>
<trkpt lat="55.688972" lon="26.435104">
<ele>147.865356</ele>
<time>2010-07-18T09:52:22Z</time>
<desc>lat.=55.688972, lon.=26.435104, Alt.=147.865356m. Speed=0.684000m/h.</desc>
<speed>0.190000</speed>
</trkpt>
<trkpt lat="55.688976" lon="26.435102">
<ele>147.861450</ele>
<time>2010-07-18T09:52:23Z</time>
<desc>lat.=55.688976, lon.=26.435102, Alt.=147.861450m. Speed=0.252000m/h.</desc>
<speed>0.070000</speed>
</trkpt>
<trkpt lat="55.688976" lon="26.435102">
<ele>147.853638</ele>
<time>2010-07-18T09:52:24Z</time>
<desc>lat.=55.688976, lon.=26.435102, Alt.=147.853638m. Speed=0.360000m/h.</desc>
<speed>0.100000</speed>
</trkpt>
<trkpt lat="55.688976" lon="26.435101">
<ele>147.849731</ele>
<time>2010-07-18T09:52:25Z</time>
<desc>lat.=55.688976, lon.=26.435101, Alt.=147.849731m. Speed=0.576000m/h.</desc>
<speed>0.160000</speed>
</trkpt>
<trkpt lat="55.688976" lon="26.435099">
<ele>147.845825</ele>
<time>2010-07-18T09:52:26Z</time>
<desc>lat.=55.688976, lon.=26.435099, Alt.=147.845825m. Speed=0.324000m/h.</desc>
<speed>0.090000</speed>
</trkpt>
<trkpt lat="55.688976" lon="26.435097">
<ele>147.841919</ele>
<time>2010-07-18T09:52:27Z</time>
<desc>lat.=55.688976, lon.=26.435097, Alt.=147.841919m. Speed=0.360000m/h.</desc>
<speed>0.100000</speed>
</trkpt>
<trkpt lat="55.688976" lon="26.435097">
<ele>147.841919</ele>
<time>2010-07-18T09:52:28Z</time>
<desc>lat.=55.688976, lon.=26.435097, Alt.=147.841919m. Speed=0.360000m/h.</desc>
<speed>0.100000</speed>
</trkpt>
<trkpt lat="55.688980" lon="26.435097">
<ele>147.841919</ele>
<time>2010-07-18T09:52:29Z</time>
<desc>lat.=55.688980, lon.=26.435097, Alt.=147.841919m. Speed=0.612000m/h.</desc>
<speed>0.170000</speed>
</trkpt>
<trkpt lat="55.688980" lon="26.435101">
<ele>147.845825</ele>
<time>2010-07-18T09:52:30Z</time>
<desc>lat.=55.688980, lon.=26.435101, Alt.=147.845825m. Speed=1.512000m/h.</desc>
<speed>0.420000</speed>
</trkpt>
<trkpt lat="55.688980" lon="26.435106">
<ele>147.841919</ele>
<time>2010-07-18T09:52:31Z</time>
<desc>lat.=55.688980, lon.=26.435106, Alt.=147.841919m. Speed=2.844000m/h.</desc>
<speed>0.790000</speed>
</trkpt>
<trkpt lat="55.688980" lon="26.435120">
<ele>147.841919</ele>
<time>2010-07-18T09:52:32Z</time>
<desc>lat.=55.688980, lon.=26.435120, Alt.=147.841919m. Speed=5.400000m/h.</desc>
<speed>1.500000</speed>
</trkpt>
<trkpt lat="55.688988" lon="26.435173">
<ele>147.627075</ele>
<time>2010-07-18T09:52:33Z</time>
<desc>lat.=55.688988, lon.=26.435173, Alt.=147.627075m. Speed=9.324000m/h.</desc>
<speed>2.590000</speed>
</trkpt>
<trkpt lat="55.688992" lon="26.435223">
<ele>147.720825</ele>
<time>2010-07-18T09:52:34Z</time>
<desc>lat.=55.688992, lon.=26.435223, Alt.=147.720825m. Speed=10.404000m/h.</desc>
<speed>2.890000</speed>
</trkpt>
<trkpt lat="55.688995" lon="26.435274">
<ele>147.849731</ele>
<time>2010-07-18T09:52:35Z</time>
<desc>lat.=55.688995, lon.=26.435274, Alt.=147.849731m. Speed=8.316000m/h.</desc>
<speed>2.310000</speed>
</trkpt>
<trkpt lat="55.688999" lon="26.435308">
<ele>148.127075</ele>
<time>2010-07-18T09:52:36Z</time>
<desc>lat.=55.688999, lon.=26.435308, Alt.=148.127075m. Speed=8.856000m/h.</desc>
<speed>2.460000</speed>
</trkpt>
<trkpt lat="55.689003" lon="26.435347">
<ele>148.318481</ele>
<time>2010-07-18T09:52:37Z</time>
<desc>lat.=55.689003, lon.=26.435347, Alt.=148.318481m. Speed=9.432000m/h.</desc>
<speed>2.620000</speed>
</trkpt>
<trkpt lat="55.689003" lon="26.435381">
<ele>148.341919</ele>
<time>2010-07-18T09:52:38Z</time>
<desc>lat.=55.689003, lon.=26.435381, Alt.=148.341919m. Speed=10.044000m/h.</desc>
<speed>2.790000</speed>
</trkpt>
<trkpt lat="55.689007" lon="26.435438">
<ele>147.923950</ele>
<time>2010-07-18T09:52:39Z</time>
<desc>lat.=55.689007, lon.=26.435438, Alt.=147.923950m. Speed=10.836000m/h.</desc>
<speed>3.010000</speed>
</trkpt>
<trkpt lat="55.689011" lon="26.435492">
<ele>146.056763</ele>
<time>2010-07-18T09:52:40Z</time>
<desc>lat.=55.689011, lon.=26.435492, Alt.=146.056763m. Speed=12.852000m/h.</desc>
<speed>3.570000</speed>
</trkpt>
<trkpt lat="55.689014" lon="26.435551">
<ele>145.646606</ele>
<time>2010-07-18T09:52:41Z</time>
<desc>lat.=55.689014, lon.=26.435551, Alt.=145.646606m. Speed=14.472000m/h.</desc>
<speed>4.020000</speed>
</trkpt>
<trkpt lat="55.689022" lon="26.435616">
<ele>145.455200</ele>
<time>2010-07-18T09:52:42Z</time>
<desc>lat.=55.689022, lon.=26.435616, Alt.=145.455200m. Speed=15.480000m/h.</desc>
<speed>4.300000</speed>
</trkpt>
<trkpt lat="55.689022" lon="26.435686">
<ele>145.470825</ele>
<time>2010-07-18T09:52:43Z</time>
<desc>lat.=55.689022, lon.=26.435686, Alt.=145.470825m. Speed=16.488001m/h.</desc>
<speed>4.580000</speed>
</trkpt>
<trkpt lat="55.689026" lon="26.435764">
<ele>145.923950</ele>
<time>2010-07-18T09:52:44Z</time>
<desc>lat.=55.689026, lon.=26.435764, Alt.=145.923950m. Speed=17.712000m/h.</desc>
<speed>4.920000</speed>
</trkpt>
<trkpt lat="55.689030" lon="26.435844">
<ele>146.045044</ele>
<time>2010-07-18T09:52:45Z</time>
<desc>lat.=55.689030, lon.=26.435844, Alt.=146.045044m. Speed=18.972000m/h.</desc>
<speed>5.270000</speed>
</trkpt>
<trkpt lat="55.689030" lon="26.435930">
<ele>146.041138</ele>
<time>2010-07-18T09:52:46Z</time>
<desc>lat.=55.689030, lon.=26.435930, Alt.=146.041138m. Speed=19.656000m/h.</desc>
<speed>5.460000</speed>
</trkpt>
<trkpt lat="55.689030" lon="26.436016">
<ele>146.060669</ele>
<time>2010-07-18T09:52:47Z</time>
<desc>lat.=55.689030, lon.=26.436016, Alt.=146.060669m. Speed=20.268000m/h.</desc>
<speed>5.630000</speed>
</trkpt>
<trkpt lat="55.689026" lon="26.436108">
<ele>145.959106</ele>
<time>2010-07-18T09:52:48Z</time>
<desc>lat.=55.689026, lon.=26.436108, Alt.=145.959106m. Speed=20.591999m/h.</desc>
<speed>5.720000</speed>
</trkpt>
<trkpt lat="55.689026" lon="26.436199">
<ele>145.775513</ele>
<time>2010-07-18T09:52:49Z</time>
<desc>lat.=55.689026, lon.=26.436199, Alt.=145.775513m. Speed=21.059999m/h.</desc>
<speed>5.850000</speed>
</trkpt>
<trkpt lat="55.689022" lon="26.436296">
<ele>145.642700</ele>
<time>2010-07-18T09:52:50Z</time>
<desc>lat.=55.689022, lon.=26.436296, Alt.=145.642700m. Speed=21.420000m/h.</desc>
<speed>5.950000</speed>
</trkpt>
<trkpt lat="55.689022" lon="26.436390">
<ele>145.740356</ele>
<time>2010-07-18T09:52:51Z</time>
<desc>lat.=55.689022, lon.=26.436390, Alt.=145.740356m. Speed=21.636000m/h.</desc>
<speed>6.010000</speed>
</trkpt>
<trkpt lat="55.689018" lon="26.436485">
<ele>145.607544</ele>
<time>2010-07-18T09:52:52Z</time>
<desc>lat.=55.689018, lon.=26.436485, Alt.=145.607544m. Speed=21.888000m/h.</desc>
<speed>6.080000</speed>
</trkpt>
<trkpt lat="55.689014" lon="26.436584">
<ele>145.541138</ele>
<time>2010-07-18T09:52:53Z</time>
<desc>lat.=55.689014, lon.=26.436584, Alt.=145.541138m. Speed=21.816000m/h.</desc>
<speed>6.060000</speed>
</trkpt>
<trkpt lat="55.689011" lon="26.436680">
<ele>145.400513</ele>
<time>2010-07-18T09:52:54Z</time>
<desc>lat.=55.689011, lon.=26.436680, Alt.=145.400513m. Speed=21.851999m/h.</desc>
<speed>6.070000</speed>
</trkpt>
<trkpt lat="55.689003" lon="26.436775">
<ele>145.295044</ele>
<time>2010-07-18T09:52:55Z</time>
<desc>lat.=55.689003, lon.=26.436775, Alt.=145.295044m. Speed=22.104000m/h.</desc>
<speed>6.140000</speed>
</trkpt>
<trkpt lat="55.688999" lon="26.436878">
<ele>145.486450</ele>
<time>2010-07-18T09:52:56Z</time>
<desc>lat.=55.688999, lon.=26.436878, Alt.=145.486450m. Speed=22.104000m/h.</desc>
<speed>6.140000</speed>
</trkpt>
<trkpt lat="55.688992" lon="26.436979">
<ele>145.584106</ele>
<time>2010-07-18T09:52:57Z</time>
<desc>lat.=55.688992, lon.=26.436979, Alt.=145.584106m. Speed=22.427999m/h.</desc>
<speed>6.230000</speed>
</trkpt>
<trkpt lat="55.688984" lon="26.437078">
<ele>145.591919</ele>
<time>2010-07-18T09:52:58Z</time>
<desc>lat.=55.688984, lon.=26.437078, Alt.=145.591919m. Speed=22.464001m/h.</desc>
<speed>6.240000</speed>
</trkpt>
<trkpt lat="55.688980" lon="26.437183">
<ele>145.252075</ele>
<time>2010-07-18T09:52:59Z</time>
<desc>lat.=55.688980, lon.=26.437183, Alt.=145.252075m. Speed=22.608000m/h.</desc>
<speed>6.280000</speed>
</trkpt>
<trkpt lat="55.688972" lon="26.437286">
<ele>145.029419</ele>
<time>2010-07-18T09:53:00Z</time>
<desc>lat.=55.688972, lon.=26.437286, Alt.=145.029419m. Speed=22.716000m/h.</desc>
<speed>6.310000</speed>
</trkpt>
<trkpt lat="55.688969" lon="26.437382">
<ele>145.365356</ele>
<time>2010-07-18T09:53:01Z</time>
<desc>lat.=55.688969, lon.=26.437382, Alt.=145.365356m. Speed=22.860001m/h.</desc>
<speed>6.350000</speed>
</trkpt>
<trkpt lat="55.688961" lon="26.437490">
<ele>144.818481</ele>
<time>2010-07-18T09:53:02Z</time>
<desc>lat.=55.688961, lon.=26.437490, Alt.=144.818481m. Speed=22.931999m/h.</desc>
<speed>6.370000</speed>
</trkpt>
<trkpt lat="55.688957" lon="26.437593">
<ele>144.955200</ele>
<time>2010-07-18T09:53:03Z</time>
<desc>lat.=55.688957, lon.=26.437593, Alt.=144.955200m. Speed=22.823999m/h.</desc>
<speed>6.340000</speed>
</trkpt>
<trkpt lat="55.688953" lon="26.437696">
<ele>145.150513</ele>
<time>2010-07-18T09:53:04Z</time>
<desc>lat.=55.688953, lon.=26.437696, Alt.=145.150513m. Speed=22.860001m/h.</desc>
<speed>6.350000</speed>
</trkpt>
<trkpt lat="55.688946" lon="26.437799">
<ele>145.228638</ele>
<time>2010-07-18T09:53:05Z</time>
<desc>lat.=55.688946, lon.=26.437799, Alt.=145.228638m. Speed=22.716000m/h.</desc>
<speed>6.310000</speed>
</trkpt>
<trkpt lat="55.688938" lon="26.437901">
<ele>145.423950</ele>
<time>2010-07-18T09:53:06Z</time>
<desc>lat.=55.688938, lon.=26.437901, Alt.=145.423950m. Speed=23.004000m/h.</desc>
<speed>6.390000</speed>
</trkpt>
<trkpt lat="55.688934" lon="26.438000">
<ele>145.685669</ele>
<time>2010-07-18T09:53:07Z</time>
<desc>lat.=55.688934, lon.=26.438000, Alt.=145.685669m. Speed=23.292000m/h.</desc>
<speed>6.470000</speed>
</trkpt>
<trkpt lat="55.688931" lon="26.438105">
<ele>145.791138</ele>
<time>2010-07-18T09:53:08Z</time>
<desc>lat.=55.688931, lon.=26.438105, Alt.=145.791138m. Speed=23.615999m/h.</desc>
<speed>6.560000</speed>
</trkpt>
<trkpt lat="55.688927" lon="26.438208">
<ele>146.013794</ele>
<time>2010-07-18T09:53:09Z</time>
<desc>lat.=55.688927, lon.=26.438208, Alt.=146.013794m. Speed=23.544001m/h.</desc>
<speed>6.540000</speed>
</trkpt>
<trkpt lat="55.688923" lon="26.438313">
<ele>146.080200</ele>
<time>2010-07-18T09:53:10Z</time>
<desc>lat.=55.688923, lon.=26.438313, Alt.=146.080200m. Speed=23.436001m/h.</desc>
<speed>6.510000</speed>
</trkpt>
<trkpt lat="55.688919" lon="26.438417">
<ele>146.224731</ele>
<time>2010-07-18T09:53:11Z</time>
<desc>lat.=55.688919, lon.=26.438417, Alt.=146.224731m. Speed=23.436001m/h.</desc>
<speed>6.510000</speed>
</trkpt>
<trkpt lat="55.688911" lon="26.438520">
<ele>146.283325</ele>
<time>2010-07-18T09:53:12Z</time>
<desc>lat.=55.688911, lon.=26.438520, Alt.=146.283325m. Speed=23.004000m/h.</desc>
<speed>6.390000</speed>
</trkpt>
<trkpt lat="55.688908" lon="26.438622">
<ele>146.517700</ele>
<time>2010-07-18T09:53:13Z</time>
<desc>lat.=55.688908, lon.=26.438622, Alt.=146.517700m. Speed=22.464001m/h.</desc>
<speed>6.240000</speed>
</trkpt>
<trkpt lat="55.688904" lon="26.438725">
<ele>146.552856</ele>
<time>2010-07-18T09:53:14Z</time>
<desc>lat.=55.688904, lon.=26.438725, Alt.=146.552856m. Speed=22.464001m/h.</desc>
<speed>6.240000</speed>
</trkpt>
<trkpt lat="55.688900" lon="26.438826">
<ele>146.763794</ele>
<time>2010-07-18T09:53:15Z</time>
<desc>lat.=55.688900, lon.=26.438826, Alt.=146.763794m. Speed=22.716000m/h.</desc>
<speed>6.310000</speed>
</trkpt>
<trkpt lat="55.688892" lon="26.438925">
<ele>146.771606</ele>
<time>2010-07-18T09:53:16Z</time>
<desc>lat.=55.688892, lon.=26.438925, Alt.=146.771606m. Speed=22.139999m/h.</desc>
<speed>6.150000</speed>
</trkpt>
<trkpt lat="55.688889" lon="26.439024">
<ele>146.818481</ele>
<time>2010-07-18T09:53:17Z</time>
<desc>lat.=55.688889, lon.=26.439024, Alt.=146.818481m. Speed=22.104000m/h.</desc>
<speed>6.140000</speed>
</trkpt>
<trkpt lat="55.688885" lon="26.439117">
<ele>146.845825</ele>
<time>2010-07-18T09:53:18Z</time>
<desc>lat.=55.688885, lon.=26.439117, Alt.=146.845825m. Speed=21.780001m/h.</desc>
<speed>6.050000</speed>
</trkpt>
<trkpt lat="55.688881" lon="26.439215">
<ele>146.666138</ele>
<time>2010-07-18T09:53:19Z</time>
<desc>lat.=55.688881, lon.=26.439215, Alt.=146.666138m. Speed=21.708000m/h.</desc>
<speed>6.030000</speed>
</trkpt>
<trkpt lat="55.688873" lon="26.439310">
<ele>146.572388</ele>
<time>2010-07-18T09:53:20Z</time>
<desc>lat.=55.688873, lon.=26.439310, Alt.=146.572388m. Speed=21.636000m/h.</desc>
<speed>6.010000</speed>
</trkpt>
<trkpt lat="55.688869" lon="26.439402">
<ele>146.912231</ele>
<time>2010-07-18T09:53:21Z</time>
<desc>lat.=55.688869, lon.=26.439402, Alt.=146.912231m. Speed=21.672001m/h.</desc>
<speed>6.020000</speed>
</trkpt>
<trkpt lat="55.688866" lon="26.439491">
<ele>147.822388</ele>
<time>2010-07-18T09:53:22Z</time>
<desc>lat.=55.688866, lon.=26.439491, Alt.=147.822388m. Speed=20.556000m/h.</desc>
<speed>5.710000</speed>
</trkpt>
<trkpt lat="55.688858" lon="26.439587">
<ele>148.088013</ele>
<time>2010-07-18T09:53:23Z</time>
<desc>lat.=55.688858, lon.=26.439587, Alt.=148.088013m. Speed=21.563999m/h.</desc>
<speed>5.990000</speed>
</trkpt>
<trkpt lat="55.688854" lon="26.439682">
<ele>148.459106</ele>
<time>2010-07-18T09:53:24Z</time>
<desc>lat.=55.688854, lon.=26.439682, Alt.=148.459106m. Speed=21.708000m/h.</desc>
<speed>6.030000</speed>
</trkpt>
<trkpt lat="55.688850" lon="26.439783">
<ele>148.752075</ele>
<time>2010-07-18T09:53:25Z</time>
<desc>lat.=55.688850, lon.=26.439783, Alt.=148.752075m. Speed=22.068001m/h.</desc>
<speed>6.130000</speed>
</trkpt>
<trkpt lat="55.688847" lon="26.439886">
<ele>148.541138</ele>
<time>2010-07-18T09:53:26Z</time>
<desc>lat.=55.688847, lon.=26.439886, Alt.=148.541138m. Speed=22.931999m/h.</desc>
<speed>6.370000</speed>
</trkpt>
<trkpt lat="55.688843" lon="26.439989">
<ele>148.088013</ele>
<time>2010-07-18T09:53:27Z</time>
<desc>lat.=55.688843, lon.=26.439989, Alt.=148.088013m. Speed=23.724001m/h.</desc>
<speed>6.590000</speed>
</trkpt>
<trkpt lat="55.688839" lon="26.440096">
<ele>148.068481</ele>
<time>2010-07-18T09:53:28Z</time>
<desc>lat.=55.688839, lon.=26.440096, Alt.=148.068481m. Speed=24.948000m/h.</desc>
<speed>6.930000</speed>
</trkpt>
<trkpt lat="55.688831" lon="26.440207">
<ele>147.818481</ele>
<time>2010-07-18T09:53:29Z</time>
<desc>lat.=55.688831, lon.=26.440207, Alt.=147.818481m. Speed=25.379999m/h.</desc>
<speed>7.050000</speed>
</trkpt>
<trkpt lat="55.688828" lon="26.440321">
<ele>147.310669</ele>
<time>2010-07-18T09:53:30Z</time>
<desc>lat.=55.688828, lon.=26.440321, Alt.=147.310669m. Speed=25.955999m/h.</desc>
<speed>7.210000</speed>
</trkpt>
<trkpt lat="55.688820" lon="26.440437">
<ele>146.970825</ele>
<time>2010-07-18T09:53:31Z</time>
<desc>lat.=55.688820, lon.=26.440437, Alt.=146.970825m. Speed=26.388000m/h.</desc>
<speed>7.330000</speed>
</trkpt>
<trkpt lat="55.688820" lon="26.440552">
<ele>146.521606</ele>
<time>2010-07-18T09:53:32Z</time>
<desc>lat.=55.688820, lon.=26.440552, Alt.=146.521606m. Speed=26.496000m/h.</desc>
<speed>7.360000</speed>
</trkpt>
<trkpt lat="55.688812" lon="26.440668">
<ele>146.365356</ele>
<time>2010-07-18T09:53:33Z</time>
<desc>lat.=55.688812, lon.=26.440668, Alt.=146.365356m. Speed=26.856001m/h.</desc>
<speed>7.460000</speed>
</trkpt>
<trkpt lat="55.688808" lon="26.440788">
<ele>146.103638</ele>
<time>2010-07-18T09:53:34Z</time>
<desc>lat.=55.688808, lon.=26.440788, Alt.=146.103638m. Speed=26.063999m/h.</desc>
<speed>7.240000</speed>
</trkpt>
<trkpt lat="55.688805" lon="26.440905">
<ele>146.056763</ele>
<time>2010-07-18T09:53:35Z</time>
<desc>lat.=55.688805, lon.=26.440905, Alt.=146.056763m. Speed=26.532000m/h.</desc>
<speed>7.370000</speed>
</trkpt>
<trkpt lat="55.688801" lon="26.441025">
<ele>146.134888</ele>
<time>2010-07-18T09:53:36Z</time>
<desc>lat.=55.688801, lon.=26.441025, Alt.=146.134888m. Speed=26.927999m/h.</desc>
<speed>7.480000</speed>
</trkpt>
<trkpt lat="55.688793" lon="26.441143">
<ele>146.490356</ele>
<time>2010-07-18T09:53:37Z</time>
<desc>lat.=55.688793, lon.=26.441143, Alt.=146.490356m. Speed=26.280001m/h.</desc>
<speed>7.300000</speed>
</trkpt>
<trkpt lat="55.688789" lon="26.441265">
<ele>147.525513</ele>
<time>2010-07-18T09:53:38Z</time>
<desc>lat.=55.688789, lon.=26.441265, Alt.=147.525513m. Speed=26.063999m/h.</desc>
<speed>7.240000</speed>
</trkpt>
<trkpt lat="55.688786" lon="26.441380">
<ele>147.681763</ele>
<time>2010-07-18T09:53:39Z</time>
<desc>lat.=55.688786, lon.=26.441380, Alt.=147.681763m. Speed=25.596001m/h.</desc>
<speed>7.110000</speed>
</trkpt>
<trkpt lat="55.688782" lon="26.441494">
<ele>147.830200</ele>
<time>2010-07-18T09:53:40Z</time>
<desc>lat.=55.688782, lon.=26.441494, Alt.=147.830200m. Speed=24.948000m/h.</desc>
<speed>6.930000</speed>
</trkpt>
<trkpt lat="55.688774" lon="26.441607">
<ele>148.084106</ele>
<time>2010-07-18T09:53:41Z</time>
<desc>lat.=55.688774, lon.=26.441607, Alt.=148.084106m. Speed=24.444000m/h.</desc>
<speed>6.790000</speed>
</trkpt>
<trkpt lat="55.688766" lon="26.441717">
<ele>148.263794</ele>
<time>2010-07-18T09:53:42Z</time>
<desc>lat.=55.688766, lon.=26.441717, Alt.=148.263794m. Speed=23.832001m/h.</desc>
<speed>6.620000</speed>
</trkpt>
<trkpt lat="55.688763" lon="26.441820">
<ele>148.388794</ele>
<time>2010-07-18T09:53:43Z</time>
<desc>lat.=55.688763, lon.=26.441820, Alt.=148.388794m. Speed=24.408001m/h.</desc>
<speed>6.780000</speed>
</trkpt>
<trkpt lat="55.688763" lon="26.441923">
<ele>148.646606</ele>
<time>2010-07-18T09:53:44Z</time>
<desc>lat.=55.688763, lon.=26.441923, Alt.=148.646606m. Speed=22.680000m/h.</desc>
<speed>6.300000</speed>
</trkpt>
<trkpt lat="55.688759" lon="26.442024">
<ele>148.388794</ele>
<time>2010-07-18T09:53:45Z</time>
<desc>lat.=55.688759, lon.=26.442024, Alt.=148.388794m. Speed=21.672001m/h.</desc>
<speed>6.020000</speed>
</trkpt>
<trkpt lat="55.688755" lon="26.442125">
<ele>148.572388</ele>
<time>2010-07-18T09:53:46Z</time>
<desc>lat.=55.688755, lon.=26.442125, Alt.=148.572388m. Speed=20.808001m/h.</desc>
<speed>5.780000</speed>
</trkpt>
<trkpt lat="55.688751" lon="26.442213">
<ele>148.404419</ele>
<time>2010-07-18T09:53:47Z</time>
<desc>lat.=55.688751, lon.=26.442213, Alt.=148.404419m. Speed=19.836000m/h.</desc>
<speed>5.510000</speed>
</trkpt>
<trkpt lat="55.688747" lon="26.442299">
<ele>148.228638</ele>
<time>2010-07-18T09:53:48Z</time>
<desc>lat.=55.688747, lon.=26.442299, Alt.=148.228638m. Speed=19.044001m/h.</desc>
<speed>5.290000</speed>
</trkpt>
<trkpt lat="55.688747" lon="26.442383">
<ele>147.791138</ele>
<time>2010-07-18T09:53:49Z</time>
<desc>lat.=55.688747, lon.=26.442383, Alt.=147.791138m. Speed=18.540001m/h.</desc>
<speed>5.150000</speed>
</trkpt>
<trkpt lat="55.688744" lon="26.442463">
<ele>147.685669</ele>
<time>2010-07-18T09:53:50Z</time>
<desc>lat.=55.688744, lon.=26.442463, Alt.=147.685669m. Speed=17.496000m/h.</desc>
<speed>4.860000</speed>
</trkpt>
<trkpt lat="55.688744" lon="26.442535">
<ele>147.482544</ele>
<time>2010-07-18T09:53:51Z</time>
<desc>lat.=55.688744, lon.=26.442535, Alt.=147.482544m. Speed=16.200001m/h.</desc>
<speed>4.500000</speed>
</trkpt>
<trkpt lat="55.688740" lon="26.442602">
<ele>144.923950</ele>
<time>2010-07-18T09:53:52Z</time>
<desc>lat.=55.688740, lon.=26.442602, Alt.=144.923950m. Speed=15.984000m/h.</desc>
<speed>4.440000</speed>
</trkpt>
<trkpt lat="55.688740" lon="26.442671">
<ele>145.115356</ele>
<time>2010-07-18T09:53:53Z</time>
<desc>lat.=55.688740, lon.=26.442671, Alt.=145.115356m. Speed=15.588000m/h.</desc>
<speed>4.330000</speed>
</trkpt>
<trkpt lat="55.688740" lon="26.442736">
<ele>145.263794</ele>
<time>2010-07-18T09:53:54Z</time>
<desc>lat.=55.688740, lon.=26.442736, Alt.=145.263794m. Speed=15.336000m/h.</desc>
<speed>4.260000</speed>
</trkpt>
<trkpt lat="55.688747" lon="26.442801">
<ele>146.248169</ele>
<time>2010-07-18T09:53:55Z</time>
<desc>lat.=55.688747, lon.=26.442801, Alt.=146.248169m. Speed=15.732000m/h.</desc>
<speed>4.370000</speed>
</trkpt>
<trkpt lat="55.688751" lon="26.442873">
<ele>146.482544</ele>
<time>2010-07-18T09:53:56Z</time>
<desc>lat.=55.688751, lon.=26.442873, Alt.=146.482544m. Speed=16.271999m/h.</desc>
<speed>4.520000</speed>
</trkpt>
<trkpt lat="55.688751" lon="26.442951">
<ele>145.673950</ele>
<time>2010-07-18T09:53:57Z</time>
<desc>lat.=55.688751, lon.=26.442951, Alt.=145.673950m. Speed=17.172001m/h.</desc>
<speed>4.770000</speed>
</trkpt>
<trkpt lat="55.688751" lon="26.443037">
<ele>145.591919</ele>
<time>2010-07-18T09:53:58Z</time>
<desc>lat.=55.688751, lon.=26.443037, Alt.=145.591919m. Speed=18.468000m/h.</desc>
<speed>5.130000</speed>
</trkpt>
<trkpt lat="55.688747" lon="26.443125">
<ele>145.787231</ele>
<time>2010-07-18T09:53:59Z</time>
<desc>lat.=55.688747, lon.=26.443125, Alt.=145.787231m. Speed=18.900000m/h.</desc>
<speed>5.250000</speed>
</trkpt>
<trkpt lat="55.688740" lon="26.443209">
<ele>145.287231</ele>
<time>2010-07-18T09:54:00Z</time>
<desc>lat.=55.688740, lon.=26.443209, Alt.=145.287231m. Speed=19.115999m/h.</desc>
<speed>5.310000</speed>
</trkpt>
<trkpt lat="55.688732" lon="26.443295">
<ele>144.826294</ele>
<time>2010-07-18T09:54:01Z</time>
<desc>lat.=55.688732, lon.=26.443295, Alt.=144.826294m. Speed=18.900000m/h.</desc>
<speed>5.250000</speed>
</trkpt>
<trkpt lat="55.688725" lon="26.443375">
<ele>143.998169</ele>
<time>2010-07-18T09:54:02Z</time>
<desc>lat.=55.688725, lon.=26.443375, Alt.=143.998169m. Speed=19.224001m/h.</desc>
<speed>5.340000</speed>
</trkpt>
<trkpt lat="55.688717" lon="26.443453">
<ele>143.880981</ele>
<time>2010-07-18T09:54:03Z</time>
<desc>lat.=55.688717, lon.=26.443453, Alt.=143.880981m. Speed=17.820000m/h.</desc>
<speed>4.950000</speed>
</trkpt>
<trkpt lat="55.688713" lon="26.443527">
<ele>143.728638</ele>
<time>2010-07-18T09:54:04Z</time>
<desc>lat.=55.688713, lon.=26.443527, Alt.=143.728638m. Speed=16.920000m/h.</desc>
<speed>4.700000</speed>
</trkpt>
<trkpt lat="55.688709" lon="26.443604">
<ele>143.740356</ele>
<time>2010-07-18T09:54:05Z</time>
<desc>lat.=55.688709, lon.=26.443604, Alt.=143.740356m. Speed=17.136000m/h.</desc>
<speed>4.760000</speed>
</trkpt>
<trkpt lat="55.688702" lon="26.443686">
<ele>143.216919</ele>
<time>2010-07-18T09:54:06Z</time>
<desc>lat.=55.688702, lon.=26.443686, Alt.=143.216919m. Speed=16.884001m/h.</desc>
<speed>4.690000</speed>
</trkpt>
<trkpt lat="55.688698" lon="26.443764">
<ele>143.295044</ele>
<time>2010-07-18T09:54:07Z</time>
<desc>lat.=55.688698, lon.=26.443764, Alt.=143.295044m. Speed=17.639999m/h.</desc>
<speed>4.900000</speed>
</trkpt>
<trkpt lat="55.688694" lon="26.443844">
<ele>143.447388</ele>
<time>2010-07-18T09:54:08Z</time>
<desc>lat.=55.688694, lon.=26.443844, Alt.=143.447388m. Speed=19.080000m/h.</desc>
<speed>5.300000</speed>
</trkpt>
<trkpt lat="55.688694" lon="26.443926">
<ele>143.634888</ele>
<time>2010-07-18T09:54:09Z</time>
<desc>lat.=55.688694, lon.=26.443926, Alt.=143.634888m. Speed=18.684000m/h.</desc>
<speed>5.190000</speed>
</trkpt>
<trkpt lat="55.688690" lon="26.444010">
<ele>143.673950</ele>
<time>2010-07-18T09:54:10Z</time>
<desc>lat.=55.688690, lon.=26.444010, Alt.=143.673950m. Speed=19.152000m/h.</desc>
<speed>5.320000</speed>
</trkpt>
<trkpt lat="55.688683" lon="26.444096">
<ele>143.541138</ele>
<time>2010-07-18T09:54:11Z</time>
<desc>lat.=55.688683, lon.=26.444096, Alt.=143.541138m. Speed=19.476000m/h.</desc>
<speed>5.410000</speed>
</trkpt>
<trkpt lat="55.688679" lon="26.444183">
<ele>143.494263</ele>
<time>2010-07-18T09:54:12Z</time>
<desc>lat.=55.688679, lon.=26.444183, Alt.=143.494263m. Speed=19.188000m/h.</desc>
<speed>5.330000</speed>
</trkpt>
<trkpt lat="55.688671" lon="26.444267">
<ele>143.505981</ele>
<time>2010-07-18T09:54:13Z</time>
<desc>lat.=55.688671, lon.=26.444267, Alt.=143.505981m. Speed=18.000000m/h.</desc>
<speed>5.000000</speed>
</trkpt>
<trkpt lat="55.688667" lon="26.444349">
<ele>143.560669</ele>
<time>2010-07-18T09:54:14Z</time>
<desc>lat.=55.688667, lon.=26.444349, Alt.=143.560669m. Speed=17.639999m/h.</desc>
<speed>4.900000</speed>
</trkpt>
<trkpt lat="55.688663" lon="26.444426">
<ele>143.873169</ele>
<time>2010-07-18T09:54:15Z</time>
<desc>lat.=55.688663, lon.=26.444426, Alt.=143.873169m. Speed=17.243999m/h.</desc>
<speed>4.790000</speed>
</trkpt>
<trkpt lat="55.688663" lon="26.444498">
<ele>143.931763</ele>
<time>2010-07-18T09:54:16Z</time>
<desc>lat.=55.688663, lon.=26.444498, Alt.=143.931763m. Speed=17.136000m/h.</desc>
<speed>4.760000</speed>
</trkpt>
<trkpt lat="55.688660" lon="26.444571">
<ele>144.029419</ele>
<time>2010-07-18T09:54:17Z</time>
<desc>lat.=55.688660, lon.=26.444571, Alt.=144.029419m. Speed=17.136000m/h.</desc>
<speed>4.760000</speed>
</trkpt>
<trkpt lat="55.688656" lon="26.444643">
<ele>143.982544</ele>
<time>2010-07-18T09:54:18Z</time>
<desc>lat.=55.688656, lon.=26.444643, Alt.=143.982544m. Speed=16.955999m/h.</desc>
<speed>4.710000</speed>
</trkpt>
<trkpt lat="55.688652" lon="26.444715">
<ele>143.970825</ele>
<time>2010-07-18T09:54:19Z</time>
<desc>lat.=55.688652, lon.=26.444715, Alt.=143.970825m. Speed=16.308001m/h.</desc>
<speed>4.530000</speed>
</trkpt>
<trkpt lat="55.688644" lon="26.444790">
<ele>144.029419</ele>
<time>2010-07-18T09:54:20Z</time>
<desc>lat.=55.688644, lon.=26.444790, Alt.=144.029419m. Speed=16.020000m/h.</desc>
<speed>4.450000</speed>
</trkpt>
<trkpt lat="55.688637" lon="26.444864">
<ele>144.037231</ele>
<time>2010-07-18T09:54:21Z</time>
<desc>lat.=55.688637, lon.=26.444864, Alt.=144.037231m. Speed=16.667999m/h.</desc>
<speed>4.630000</speed>
</trkpt>
<trkpt lat="55.688633" lon="26.444937">
<ele>144.099731</ele>
<time>2010-07-18T09:54:22Z</time>
<desc>lat.=55.688633, lon.=26.444937, Alt.=144.099731m. Speed=16.740000m/h.</desc>
<speed>4.650000</speed>
</trkpt>
<trkpt lat="55.688629" lon="26.445013">
<ele>144.134888</ele>
<time>2010-07-18T09:54:23Z</time>
<desc>lat.=55.688629, lon.=26.445013, Alt.=144.134888m. Speed=17.856001m/h.</desc>
<speed>4.960000</speed>
</trkpt>
<trkpt lat="55.688625" lon="26.445091">
<ele>144.509888</ele>
<time>2010-07-18T09:54:24Z</time>
<desc>lat.=55.688625, lon.=26.445091, Alt.=144.509888m. Speed=18.827999m/h.</desc>
<speed>5.230000</speed>
</trkpt>
<trkpt lat="55.688622" lon="26.445179">
<ele>144.439575</ele>
<time>2010-07-18T09:54:25Z</time>
<desc>lat.=55.688622, lon.=26.445179, Alt.=144.439575m. Speed=19.044001m/h.</desc>
<speed>5.290000</speed>
</trkpt>
<trkpt lat="55.688618" lon="26.445261">
<ele>144.623169</ele>
<time>2010-07-18T09:54:26Z</time>
<desc>lat.=55.688618, lon.=26.445261, Alt.=144.623169m. Speed=18.612000m/h.</desc>
<speed>5.170000</speed>
</trkpt>
<trkpt lat="55.688614" lon="26.445339">
<ele>144.650513</ele>
<time>2010-07-18T09:54:27Z</time>
<desc>lat.=55.688614, lon.=26.445339, Alt.=144.650513m. Speed=17.820000m/h.</desc>
<speed>4.950000</speed>
</trkpt>
<trkpt lat="55.688614" lon="26.445419">
<ele>144.533325</ele>
<time>2010-07-18T09:54:28Z</time>
<desc>lat.=55.688614, lon.=26.445419, Alt.=144.533325m. Speed=17.280001m/h.</desc>
<speed>4.800000</speed>
</trkpt>
<trkpt lat="55.688610" lon="26.445494">
<ele>144.630981</ele>
<time>2010-07-18T09:54:29Z</time>
<desc>lat.=55.688610, lon.=26.445494, Alt.=144.630981m. Speed=16.488001m/h.</desc>
<speed>4.580000</speed>
</trkpt>
<trkpt lat="55.688606" lon="26.445566">
<ele>144.662231</ele>
<time>2010-07-18T09:54:30Z</time>
<desc>lat.=55.688606, lon.=26.445566, Alt.=144.662231m. Speed=15.768000m/h.</desc>
<speed>4.380000</speed>
</trkpt>
<trkpt lat="55.688602" lon="26.445637">
<ele>144.728638</ele>
<time>2010-07-18T09:54:31Z</time>
<desc>lat.=55.688602, lon.=26.445637, Alt.=144.728638m. Speed=15.084000m/h.</desc>
<speed>4.190000</speed>
</trkpt>
<trkpt lat="55.688599" lon="26.445700">
<ele>144.916138</ele>
<time>2010-07-18T09:54:32Z</time>
<desc>lat.=55.688599, lon.=26.445700, Alt.=144.916138m. Speed=14.760000m/h.</desc>
<speed>4.100000</speed>
</trkpt>
<trkpt lat="55.688595" lon="26.445759">
<ele>145.119263</ele>
<time>2010-07-18T09:54:33Z</time>
<desc>lat.=55.688595, lon.=26.445759, Alt.=145.119263m. Speed=13.932000m/h.</desc>
<speed>3.870000</speed>
</trkpt>
<trkpt lat="55.688591" lon="26.445824">
<ele>145.080200</ele>
<time>2010-07-18T09:54:34Z</time>
<desc>lat.=55.688591, lon.=26.445824, Alt.=145.080200m. Speed=14.472000m/h.</desc>
<speed>4.020000</speed>
</trkpt>
<trkpt lat="55.688591" lon="26.445885">
<ele>145.025513</ele>
<time>2010-07-18T09:54:35Z</time>
<desc>lat.=55.688591, lon.=26.445885, Alt.=145.025513m. Speed=15.012000m/h.</desc>
<speed>4.170000</speed>
</trkpt>
<trkpt lat="55.688591" lon="26.445944">
<ele>144.986450</ele>
<time>2010-07-18T09:54:36Z</time>
<desc>lat.=55.688591, lon.=26.445944, Alt.=144.986450m. Speed=15.120000m/h.</desc>
<speed>4.200000</speed>
</trkpt>
<trkpt lat="55.688595" lon="26.446007">
<ele>144.982544</ele>
<time>2010-07-18T09:54:37Z</time>
<desc>lat.=55.688595, lon.=26.446007, Alt.=144.982544m. Speed=15.192000m/h.</desc>
<speed>4.220000</speed>
</trkpt>
<trkpt lat="55.688591" lon="26.446070">
<ele>145.037231</ele>
<time>2010-07-18T09:54:38Z</time>
<desc>lat.=55.688591, lon.=26.446070, Alt.=145.037231m. Speed=15.012000m/h.</desc>
<speed>4.170000</speed>
</trkpt>
<trkpt lat="55.688591" lon="26.446135">
<ele>145.162231</ele>
<time>2010-07-18T09:54:39Z</time>
<desc>lat.=55.688591, lon.=26.446135, Alt.=145.162231m. Speed=14.760000m/h.</desc>
<speed>4.100000</speed>
</trkpt>
<trkpt lat="55.688591" lon="26.446198">
<ele>145.193481</ele>
<time>2010-07-18T09:54:40Z</time>
<desc>lat.=55.688591, lon.=26.446198, Alt.=145.193481m. Speed=14.688000m/h.</desc>
<speed>4.080000</speed>
</trkpt>
<trkpt lat="55.688591" lon="26.446262">
<ele>145.213013</ele>
<time>2010-07-18T09:54:41Z</time>
<desc>lat.=55.688591, lon.=26.446262, Alt.=145.213013m. Speed=14.868000m/h.</desc>
<speed>4.130000</speed>
</trkpt>
<trkpt lat="55.688595" lon="26.446327">
<ele>145.392700</ele>
<time>2010-07-18T09:54:42Z</time>
<desc>lat.=55.688595, lon.=26.446327, Alt.=145.392700m. Speed=14.760000m/h.</desc>
<speed>4.100000</speed>
</trkpt>
<trkpt lat="55.688595" lon="26.446390">
<ele>145.478638</ele>
<time>2010-07-18T09:54:43Z</time>
<desc>lat.=55.688595, lon.=26.446390, Alt.=145.478638m. Speed=15.048000m/h.</desc>
<speed>4.180000</speed>
</trkpt>
<trkpt lat="55.688599" lon="26.446453">
<ele>145.771606</ele>
<time>2010-07-18T09:54:44Z</time>
<desc>lat.=55.688599, lon.=26.446453, Alt.=145.771606m. Speed=15.300000m/h.</desc>
<speed>4.250000</speed>
</trkpt>
<trkpt lat="55.688602" lon="26.446520">
<ele>145.990356</ele>
<time>2010-07-18T09:54:45Z</time>
<desc>lat.=55.688602, lon.=26.446520, Alt.=145.990356m. Speed=15.732000m/h.</desc>
<speed>4.370000</speed>
</trkpt>
<trkpt lat="55.688602" lon="26.446587">
<ele>146.248169</ele>
<time>2010-07-18T09:54:46Z</time>
<desc>lat.=55.688602, lon.=26.446587, Alt.=146.248169m. Speed=15.768000m/h.</desc>
<speed>4.380000</speed>
</trkpt>
<trkpt lat="55.688610" lon="26.446655">
<ele>146.670044</ele>
<time>2010-07-18T09:54:47Z</time>
<desc>lat.=55.688610, lon.=26.446655, Alt.=146.670044m. Speed=15.840000m/h.</desc>
<speed>4.400000</speed>
</trkpt>
<trkpt lat="55.688614" lon="26.446724">
<ele>146.994263</ele>
<time>2010-07-18T09:54:48Z</time>
<desc>lat.=55.688614, lon.=26.446724, Alt.=146.994263m. Speed=16.020000m/h.</desc>
<speed>4.450000</speed>
</trkpt>
<trkpt lat="55.688618" lon="26.446795">
<ele>147.142700</ele>
<time>2010-07-18T09:54:49Z</time>
<desc>lat.=55.688618, lon.=26.446795, Alt.=147.142700m. Speed=16.020000m/h.</desc>
<speed>4.450000</speed>
</trkpt>
<trkpt lat="55.688622" lon="26.446867">
<ele>147.232544</ele>
<time>2010-07-18T09:54:50Z</time>
<desc>lat.=55.688622, lon.=26.446867, Alt.=147.232544m. Speed=15.912000m/h.</desc>
<speed>4.420000</speed>
</trkpt>
<trkpt lat="55.688625" lon="26.446938">
<ele>147.529419</ele>
<time>2010-07-18T09:54:51Z</time>
<desc>lat.=55.688625, lon.=26.446938, Alt.=147.529419m. Speed=15.516000m/h.</desc>
<speed>4.310000</speed>
</trkpt>
<trkpt lat="55.688633" lon="26.447004">
<ele>147.787231</ele>
<time>2010-07-18T09:54:52Z</time>
<desc>lat.=55.688633, lon.=26.447004, Alt.=147.787231m. Speed=15.660000m/h.</desc>
<speed>4.350000</speed>
</trkpt>
<trkpt lat="55.688641" lon="26.447077">
<ele>148.181763</ele>
<time>2010-07-18T09:54:53Z</time>
<desc>lat.=55.688641, lon.=26.447077, Alt.=148.181763m. Speed=15.912000m/h.</desc>
<speed>4.420000</speed>
</trkpt>
<trkpt lat="55.688648" lon="26.447144">
<ele>148.435669</ele>
<time>2010-07-18T09:54:54Z</time>
<desc>lat.=55.688648, lon.=26.447144, Alt.=148.435669m. Speed=15.336000m/h.</desc>
<speed>4.260000</speed>
</trkpt>
<trkpt lat="55.688652" lon="26.447212">
<ele>148.814575</ele>
<time>2010-07-18T09:54:55Z</time>
<desc>lat.=55.688652, lon.=26.447212, Alt.=148.814575m. Speed=15.372000m/h.</desc>
<speed>4.270000</speed>
</trkpt>
<trkpt lat="55.688660" lon="26.447279">
<ele>149.138794</ele>
<time>2010-07-18T09:54:56Z</time>
<desc>lat.=55.688660, lon.=26.447279, Alt.=149.138794m. Speed=15.048000m/h.</desc>
<speed>4.180000</speed>
</trkpt>
<trkpt lat="55.688663" lon="26.447348">
<ele>149.298950</ele>
<time>2010-07-18T09:54:57Z</time>
<desc>lat.=55.688663, lon.=26.447348, Alt.=149.298950m. Speed=15.300000m/h.</desc>
<speed>4.250000</speed>
</trkpt>
<trkpt lat="55.688667" lon="26.447416">
<ele>149.509888</ele>
<time>2010-07-18T09:54:58Z</time>
<desc>lat.=55.688667, lon.=26.447416, Alt.=149.509888m. Speed=15.552000m/h.</desc>
<speed>4.320000</speed>
</trkpt>
<trkpt lat="55.688675" lon="26.447489">
<ele>149.853638</ele>
<time>2010-07-18T09:54:59Z</time>
<desc>lat.=55.688675, lon.=26.447489, Alt.=149.853638m. Speed=15.804000m/h.</desc>
<speed>4.390000</speed>
</trkpt>
<trkpt lat="55.688686" lon="26.447559">
<ele>150.576294</ele>
<time>2010-07-18T09:55:00Z</time>
<desc>lat.=55.688686, lon.=26.447559, Alt.=150.576294m. Speed=15.876000m/h.</desc>
<speed>4.410000</speed>
</trkpt>
<trkpt lat="55.688698" lon="26.447630">
<ele>150.947388</ele>
<time>2010-07-18T09:55:01Z</time>
<desc>lat.=55.688698, lon.=26.447630, Alt.=150.947388m. Speed=15.912000m/h.</desc>
<speed>4.420000</speed>
</trkpt>
<trkpt lat="55.688705" lon="26.447699">
<ele>151.088013</ele>
<time>2010-07-18T09:55:02Z</time>
<desc>lat.=55.688705, lon.=26.447699, Alt.=151.088013m. Speed=16.091999m/h.</desc>
<speed>4.470000</speed>
</trkpt>
<trkpt lat="55.688717" lon="26.447767">
<ele>151.377075</ele>
<time>2010-07-18T09:55:03Z</time>
<desc>lat.=55.688717, lon.=26.447767, Alt.=151.377075m. Speed=16.416000m/h.</desc>
<speed>4.560000</speed>
</trkpt>
<trkpt lat="55.688725" lon="26.447836">
<ele>151.830200</ele>
<time>2010-07-18T09:55:04Z</time>
<desc>lat.=55.688725, lon.=26.447836, Alt.=151.830200m. Speed=15.948000m/h.</desc>
<speed>4.430000</speed>
</trkpt>
<trkpt lat="55.688732" lon="26.447903">
<ele>152.279419</ele>
<time>2010-07-18T09:55:05Z</time>
<desc>lat.=55.688732, lon.=26.447903, Alt.=152.279419m. Speed=14.400000m/h.</desc>
<speed>4.000000</speed>
</trkpt>
<trkpt lat="55.688744" lon="26.447962">
<ele>153.009888</ele>
<time>2010-07-18T09:55:06Z</time>
<desc>lat.=55.688744, lon.=26.447962, Alt.=153.009888m. Speed=13.716000m/h.</desc>
<speed>3.810000</speed>
</trkpt>
<trkpt lat="55.688751" lon="26.448021">
<ele>153.560669</ele>
<time>2010-07-18T09:55:07Z</time>
<desc>lat.=55.688751, lon.=26.448021, Alt.=153.560669m. Speed=14.076000m/h.</desc>
<speed>3.910000</speed>
</trkpt>
<trkpt lat="55.688759" lon="26.448080">
<ele>153.865356</ele>
<time>2010-07-18T09:55:08Z</time>
<desc>lat.=55.688759, lon.=26.448080, Alt.=153.865356m. Speed=14.184000m/h.</desc>
<speed>3.940000</speed>
</trkpt>
<trkpt lat="55.688763" lon="26.448143">
<ele>153.974731</ele>
<time>2010-07-18T09:55:09Z</time>
<desc>lat.=55.688763, lon.=26.448143, Alt.=153.974731m. Speed=13.716000m/h.</desc>
<speed>3.810000</speed>
</trkpt>
<trkpt lat="55.688766" lon="26.448198">
<ele>154.170044</ele>
<time>2010-07-18T09:55:10Z</time>
<desc>lat.=55.688766, lon.=26.448198, Alt.=154.170044m. Speed=13.176000m/h.</desc>
<speed>3.660000</speed>
</trkpt>
<trkpt lat="55.688770" lon="26.448254">
<ele>154.193481</ele>
<time>2010-07-18T09:55:11Z</time>
<desc>lat.=55.688770, lon.=26.448254, Alt.=154.193481m. Speed=13.104000m/h.</desc>
<speed>3.640000</speed>
</trkpt>
<trkpt lat="55.688778" lon="26.448309">
<ele>154.033325</ele>
<time>2010-07-18T09:55:12Z</time>
<desc>lat.=55.688778, lon.=26.448309, Alt.=154.033325m. Speed=13.248000m/h.</desc>
<speed>3.680000</speed>
</trkpt>
<trkpt lat="55.688789" lon="26.448364">
<ele>154.470825</ele>
<time>2010-07-18T09:55:13Z</time>
<desc>lat.=55.688789, lon.=26.448364, Alt.=154.470825m. Speed=13.932000m/h.</desc>
<speed>3.870000</speed>
</trkpt>
<trkpt lat="55.688805" lon="26.448421">
<ele>154.572388</ele>
<time>2010-07-18T09:55:14Z</time>
<desc>lat.=55.688805, lon.=26.448421, Alt.=154.572388m. Speed=14.580000m/h.</desc>
<speed>4.050000</speed>
</trkpt>
<trkpt lat="55.688820" lon="26.448484">
<ele>154.584106</ele>
<time>2010-07-18T09:55:15Z</time>
<desc>lat.=55.688820, lon.=26.448484, Alt.=154.584106m. Speed=16.056000m/h.</desc>
<speed>4.460000</speed>
</trkpt>
<trkpt lat="55.688835" lon="26.448557">
<ele>154.912231</ele>
<time>2010-07-18T09:55:16Z</time>
<desc>lat.=55.688835, lon.=26.448557, Alt.=154.912231m. Speed=17.351999m/h.</desc>
<speed>4.820000</speed>
</trkpt>
<trkpt lat="55.688858" lon="26.448633">
<ele>154.568481</ele>
<time>2010-07-18T09:55:17Z</time>
<desc>lat.=55.688858, lon.=26.448633, Alt.=154.568481m. Speed=18.540001m/h.</desc>
<speed>5.150000</speed>
</trkpt>
<trkpt lat="55.688873" lon="26.448713">
<ele>154.482544</ele>
<time>2010-07-18T09:55:18Z</time>
<desc>lat.=55.688873, lon.=26.448713, Alt.=154.482544m. Speed=19.728001m/h.</desc>
<speed>5.480000</speed>
</trkpt>
<trkpt lat="55.688889" lon="26.448803">
<ele>154.416138</ele>
<time>2010-07-18T09:55:19Z</time>
<desc>lat.=55.688889, lon.=26.448803, Alt.=154.416138m. Speed=20.879999m/h.</desc>
<speed>5.800000</speed>
</trkpt>
<trkpt lat="55.688908" lon="26.448898">
<ele>154.275513</ele>
<time>2010-07-18T09:55:20Z</time>
<desc>lat.=55.688908, lon.=26.448898, Alt.=154.275513m. Speed=22.032000m/h.</desc>
<speed>6.120000</speed>
</trkpt>
<trkpt lat="55.688923" lon="26.448992">
<ele>154.197388</ele>
<time>2010-07-18T09:55:21Z</time>
<desc>lat.=55.688923, lon.=26.448992, Alt.=154.197388m. Speed=22.752001m/h.</desc>
<speed>6.320000</speed>
</trkpt>
<trkpt lat="55.688946" lon="26.449093">
<ele>154.095825</ele>
<time>2010-07-18T09:55:22Z</time>
<desc>lat.=55.688946, lon.=26.449093, Alt.=154.095825m. Speed=23.580000m/h.</desc>
<speed>6.550000</speed>
</trkpt>
<trkpt lat="55.688972" lon="26.449194">
<ele>154.267700</ele>
<time>2010-07-18T09:55:23Z</time>
<desc>lat.=55.688972, lon.=26.449194, Alt.=154.267700m. Speed=24.875999m/h.</desc>
<speed>6.910000</speed>
</trkpt>
<trkpt lat="55.688995" lon="26.449299">
<ele>154.435669</ele>
<time>2010-07-18T09:55:24Z</time>
<desc>lat.=55.688995, lon.=26.449299, Alt.=154.435669m. Speed=24.912001m/h.</desc>
<speed>6.920000</speed>
</trkpt>
<trkpt lat="55.689022" lon="26.449404">
<ele>154.400513</ele>
<time>2010-07-18T09:55:25Z</time>
<desc>lat.=55.689022, lon.=26.449404, Alt.=154.400513m. Speed=25.379999m/h.</desc>
<speed>7.050000</speed>
</trkpt>
<trkpt lat="55.689045" lon="26.449511">
<ele>154.209106</ele>
<time>2010-07-18T09:55:26Z</time>
<desc>lat.=55.689045, lon.=26.449511, Alt.=154.209106m. Speed=25.812000m/h.</desc>
<speed>7.170000</speed>
</trkpt>
<trkpt lat="55.689072" lon="26.449615">
<ele>154.099731</ele>
<time>2010-07-18T09:55:27Z</time>
<desc>lat.=55.689072, lon.=26.449615, Alt.=154.099731m. Speed=25.704000m/h.</desc>
<speed>7.140000</speed>
</trkpt>
<trkpt lat="55.689098" lon="26.449720">
<ele>153.884888</ele>
<time>2010-07-18T09:55:28Z</time>
<desc>lat.=55.689098, lon.=26.449720, Alt.=153.884888m. Speed=25.704000m/h.</desc>
<speed>7.140000</speed>
</trkpt>
<trkpt lat="55.689125" lon="26.449825">
<ele>153.771606</ele>
<time>2010-07-18T09:55:29Z</time>
<desc>lat.=55.689125, lon.=26.449825, Alt.=153.771606m. Speed=25.271999m/h.</desc>
<speed>7.020000</speed>
</trkpt>
<trkpt lat="55.689152" lon="26.449924">
<ele>153.603638</ele>
<time>2010-07-18T09:55:30Z</time>
<desc>lat.=55.689152, lon.=26.449924, Alt.=153.603638m. Speed=24.768000m/h.</desc>
<speed>6.880000</speed>
</trkpt>
<trkpt lat="55.689175" lon="26.450022">
<ele>153.552856</ele>
<time>2010-07-18T09:55:31Z</time>
<desc>lat.=55.689175, lon.=26.450022, Alt.=153.552856m. Speed=23.796000m/h.</desc>
<speed>6.610000</speed>
</trkpt>
<trkpt lat="55.689198" lon="26.450117">
<ele>153.205200</ele>
<time>2010-07-18T09:55:32Z</time>
<desc>lat.=55.689198, lon.=26.450117, Alt.=153.205200m. Speed=23.544001m/h.</desc>
<speed>6.540000</speed>
</trkpt>
<trkpt lat="55.689224" lon="26.450214">
<ele>153.056763</ele>
<time>2010-07-18T09:55:33Z</time>
<desc>lat.=55.689224, lon.=26.450214, Alt.=153.056763m. Speed=23.184000m/h.</desc>
<speed>6.440000</speed>
</trkpt>
<trkpt lat="55.689255" lon="26.450304">
<ele>152.884888</ele>
<time>2010-07-18T09:55:34Z</time>
<desc>lat.=55.689255, lon.=26.450304, Alt.=152.884888m. Speed=23.004000m/h.</desc>
<speed>6.390000</speed>
</trkpt>
<trkpt lat="55.689281" lon="26.450394">
<ele>152.595825</ele>
<time>2010-07-18T09:55:35Z</time>
<desc>lat.=55.689281, lon.=26.450394, Alt.=152.595825m. Speed=22.680000m/h.</desc>
<speed>6.300000</speed>
</trkpt>
<trkpt lat="55.689308" lon="26.450480">
<ele>152.205200</ele>
<time>2010-07-18T09:55:36Z</time>
<desc>lat.=55.689308, lon.=26.450480, Alt.=152.205200m. Speed=22.356001m/h.</desc>
<speed>6.210000</speed>
</trkpt>
<trkpt lat="55.689335" lon="26.450565">
<ele>151.974731</ele>
<time>2010-07-18T09:55:37Z</time>
<desc>lat.=55.689335, lon.=26.450565, Alt.=151.974731m. Speed=22.212000m/h.</desc>
<speed>6.170000</speed>
</trkpt>
<trkpt lat="55.689362" lon="26.450649">
<ele>151.646606</ele>
<time>2010-07-18T09:55:38Z</time>
<desc>lat.=55.689362, lon.=26.450649, Alt.=151.646606m. Speed=21.851999m/h.</desc>
<speed>6.070000</speed>
</trkpt>
<trkpt lat="55.689392" lon="26.450731">
<ele>151.482544</ele>
<time>2010-07-18T09:55:39Z</time>
<desc>lat.=55.689392, lon.=26.450731, Alt.=151.482544m. Speed=21.851999m/h.</desc>
<speed>6.070000</speed>
</trkpt>
<trkpt lat="55.689426" lon="26.450809">
<ele>151.423950</ele>
<time>2010-07-18T09:55:40Z</time>
<desc>lat.=55.689426, lon.=26.450809, Alt.=151.423950m. Speed=21.420000m/h.</desc>
<speed>5.950000</speed>
</trkpt>
<trkpt lat="55.689457" lon="26.450888">
<ele>151.201294</ele>
<time>2010-07-18T09:55:41Z</time>
<desc>lat.=55.689457, lon.=26.450888, Alt.=151.201294m. Speed=21.528000m/h.</desc>
<speed>5.980000</speed>
</trkpt>
<trkpt lat="55.689491" lon="26.450964">
<ele>150.978638</ele>
<time>2010-07-18T09:55:42Z</time>
<desc>lat.=55.689491, lon.=26.450964, Alt.=150.978638m. Speed=21.492001m/h.</desc>
<speed>5.970000</speed>
</trkpt>
<trkpt lat="55.689522" lon="26.451038">
<ele>150.943481</ele>
<time>2010-07-18T09:55:43Z</time>
<desc>lat.=55.689522, lon.=26.451038, Alt.=150.943481m. Speed=21.204000m/h.</desc>
<speed>5.890000</speed>
</trkpt>
<trkpt lat="55.689552" lon="26.451115">
<ele>150.838013</ele>
<time>2010-07-18T09:55:44Z</time>
<desc>lat.=55.689552, lon.=26.451115, Alt.=150.838013m. Speed=20.664000m/h.</desc>
<speed>5.740000</speed>
</trkpt>
<trkpt lat="55.689579" lon="26.451187">
<ele>151.068481</ele>
<time>2010-07-18T09:55:45Z</time>
<desc>lat.=55.689579, lon.=26.451187, Alt.=151.068481m. Speed=20.340000m/h.</desc>
<speed>5.650000</speed>
</trkpt>
<trkpt lat="55.689610" lon="26.451258">
<ele>151.099731</ele>
<time>2010-07-18T09:55:46Z</time>
<desc>lat.=55.689610, lon.=26.451258, Alt.=151.099731m. Speed=19.908001m/h.</desc>
<speed>5.530000</speed>
</trkpt>
<trkpt lat="55.689636" lon="26.451326">
<ele>151.080200</ele>
<time>2010-07-18T09:55:47Z</time>
<desc>lat.=55.689636, lon.=26.451326, Alt.=151.080200m. Speed=19.440001m/h.</desc>
<speed>5.400000</speed>
</trkpt>
<trkpt lat="55.689667" lon="26.451391">
<ele>151.009888</ele>
<time>2010-07-18T09:55:48Z</time>
<desc>lat.=55.689667, lon.=26.451391, Alt.=151.009888m. Speed=19.511999m/h.</desc>
<speed>5.420000</speed>
</trkpt>
<trkpt lat="55.689697" lon="26.451450">
<ele>150.900513</ele>
<time>2010-07-18T09:55:49Z</time>
<desc>lat.=55.689697, lon.=26.451450, Alt.=150.900513m. Speed=19.080000m/h.</desc>
<speed>5.300000</speed>
</trkpt>
<trkpt lat="55.689735" lon="26.451515">
<ele>151.099731</ele>
<time>2010-07-18T09:55:50Z</time>
<desc>lat.=55.689735, lon.=26.451515, Alt.=151.099731m. Speed=19.403999m/h.</desc>
<speed>5.390000</speed>
</trkpt>
<trkpt lat="55.689766" lon="26.451574">
<ele>150.853638</ele>
<time>2010-07-18T09:55:51Z</time>
<desc>lat.=55.689766, lon.=26.451574, Alt.=150.853638m. Speed=17.676001m/h.</desc>
<speed>4.910000</speed>
</trkpt>
<trkpt lat="55.689796" lon="26.451633">
<ele>150.400513</ele>
<time>2010-07-18T09:55:52Z</time>
<desc>lat.=55.689796, lon.=26.451633, Alt.=150.400513m. Speed=18.576000m/h.</desc>
<speed>5.160000</speed>
</trkpt>
<trkpt lat="55.689823" lon="26.451700">
<ele>150.220825</ele>
<time>2010-07-18T09:55:53Z</time>
<desc>lat.=55.689823, lon.=26.451700, Alt.=150.220825m. Speed=18.719999m/h.</desc>
<speed>5.200000</speed>
</trkpt>
<trkpt lat="55.689850" lon="26.451761">
<ele>150.404419</ele>
<time>2010-07-18T09:55:54Z</time>
<desc>lat.=55.689850, lon.=26.451761, Alt.=150.404419m. Speed=16.488001m/h.</desc>
<speed>4.580000</speed>
</trkpt>
<trkpt lat="55.689880" lon="26.451820">
<ele>150.908325</ele>
<time>2010-07-18T09:55:55Z</time>
<desc>lat.=55.689880, lon.=26.451820, Alt.=150.908325m. Speed=19.872000m/h.</desc>
<speed>5.520000</speed>
</trkpt>
<trkpt lat="55.689915" lon="26.451889">
<ele>151.185669</ele>
<time>2010-07-18T09:55:56Z</time>
<desc>lat.=55.689915, lon.=26.451889, Alt.=151.185669m. Speed=20.268000m/h.</desc>
<speed>5.630000</speed>
</trkpt>
<trkpt lat="55.689945" lon="26.451962">
<ele>150.939575</ele>
<time>2010-07-18T09:55:57Z</time>
<desc>lat.=55.689945, lon.=26.451962, Alt.=150.939575m. Speed=20.591999m/h.</desc>
<speed>5.720000</speed>
</trkpt>
<trkpt lat="55.689980" lon="26.452036">
<ele>150.478638</ele>
<time>2010-07-18T09:55:58Z</time>
<desc>lat.=55.689980, lon.=26.452036, Alt.=150.478638m. Speed=21.059999m/h.</desc>
<speed>5.850000</speed>
</trkpt>
<trkpt lat="55.690014" lon="26.452106">
<ele>150.373169</ele>
<time>2010-07-18T09:55:59Z</time>
<desc>lat.=55.690014, lon.=26.452106, Alt.=150.373169m. Speed=20.916000m/h.</desc>
<speed>5.810000</speed>
</trkpt>
<trkpt lat="55.690044" lon="26.452181">
<ele>149.877075</ele>
<time>2010-07-18T09:56:00Z</time>
<desc>lat.=55.690044, lon.=26.452181, Alt.=149.877075m. Speed=21.275999m/h.</desc>
<speed>5.910000</speed>
</trkpt>
<trkpt lat="55.690079" lon="26.452251">
<ele>149.584106</ele>
<time>2010-07-18T09:56:01Z</time>
<desc>lat.=55.690079, lon.=26.452251, Alt.=149.584106m. Speed=21.600000m/h.</desc>
<speed>6.000000</speed>
</trkpt>
<trkpt lat="55.690109" lon="26.452328">
<ele>149.474731</ele>
<time>2010-07-18T09:56:02Z</time>
<desc>lat.=55.690109, lon.=26.452328, Alt.=149.474731m. Speed=22.320000m/h.</desc>
<speed>6.200000</speed>
</trkpt>
<trkpt lat="55.690144" lon="26.452408">
<ele>149.384888</ele>
<time>2010-07-18T09:56:03Z</time>
<desc>lat.=55.690144, lon.=26.452408, Alt.=149.384888m. Speed=22.860001m/h.</desc>
<speed>6.350000</speed>
</trkpt>
<trkpt lat="55.690178" lon="26.452482">
<ele>149.041138</ele>
<time>2010-07-18T09:56:04Z</time>
<desc>lat.=55.690178, lon.=26.452482, Alt.=149.041138m. Speed=22.392000m/h.</desc>
<speed>6.220000</speed>
</trkpt>
<trkpt lat="55.690212" lon="26.452566">
<ele>148.111450</ele>
<time>2010-07-18T09:56:05Z</time>
<desc>lat.=55.690212, lon.=26.452566, Alt.=148.111450m. Speed=23.219999m/h.</desc>
<speed>6.450000</speed>
</trkpt>
<trkpt lat="55.690247" lon="26.452646">
<ele>147.369263</ele>
<time>2010-07-18T09:56:06Z</time>
<desc>lat.=55.690247, lon.=26.452646, Alt.=147.369263m. Speed=23.327999m/h.</desc>
<speed>6.480000</speed>
</trkpt>
<trkpt lat="55.690285" lon="26.452730">
<ele>147.205200</ele>
<time>2010-07-18T09:56:07Z</time>
<desc>lat.=55.690285, lon.=26.452730, Alt.=147.205200m. Speed=24.336000m/h.</desc>
<speed>6.760000</speed>
</trkpt>
<trkpt lat="55.690323" lon="26.452818">
<ele>146.533325</ele>
<time>2010-07-18T09:56:08Z</time>
<desc>lat.=55.690323, lon.=26.452818, Alt.=146.533325m. Speed=24.695999m/h.</desc>
<speed>6.860000</speed>
</trkpt>
<trkpt lat="55.690369" lon="26.452902">
<ele>146.654419</ele>
<time>2010-07-18T09:56:09Z</time>
<desc>lat.=55.690369, lon.=26.452902, Alt.=146.654419m. Speed=23.327999m/h.</desc>
<speed>6.480000</speed>
</trkpt>
<trkpt lat="55.690411" lon="26.452993">
<ele>146.568481</ele>
<time>2010-07-18T09:56:10Z</time>
<desc>lat.=55.690411, lon.=26.452993, Alt.=146.568481m. Speed=26.136000m/h.</desc>
<speed>7.260000</speed>
</trkpt>
<trkpt lat="55.690456" lon="26.453091">
<ele>146.869263</ele>
<time>2010-07-18T09:56:11Z</time>
<desc>lat.=55.690456, lon.=26.453091, Alt.=146.869263m. Speed=26.964001m/h.</desc>
<speed>7.490000</speed>
</trkpt>
<trkpt lat="55.690498" lon="26.453190">
<ele>146.451294</ele>
<time>2010-07-18T09:56:12Z</time>
<desc>lat.=55.690498, lon.=26.453190, Alt.=146.451294m. Speed=27.792000m/h.</desc>
<speed>7.720000</speed>
</trkpt>
<trkpt lat="55.690540" lon="26.453289">
<ele>146.103638</ele>
<time>2010-07-18T09:56:13Z</time>
<desc>lat.=55.690540, lon.=26.453289, Alt.=146.103638m. Speed=27.864000m/h.</desc>
<speed>7.740000</speed>
</trkpt>
<trkpt lat="55.690586" lon="26.453388">
<ele>145.732544</ele>
<time>2010-07-18T09:56:14Z</time>
<desc>lat.=55.690586, lon.=26.453388, Alt.=145.732544m. Speed=28.944000m/h.</desc>
<speed>8.040000</speed>
</trkpt>
<trkpt lat="55.690632" lon="26.453487">
<ele>145.595825</ele>
<time>2010-07-18T09:56:15Z</time>
<desc>lat.=55.690632, lon.=26.453487, Alt.=145.595825m. Speed=28.620001m/h.</desc>
<speed>7.950000</speed>
</trkpt>
<trkpt lat="55.690678" lon="26.453588">
<ele>145.330200</ele>
<time>2010-07-18T09:56:16Z</time>
<desc>lat.=55.690678, lon.=26.453588, Alt.=145.330200m. Speed=28.836000m/h.</desc>
<speed>8.010000</speed>
</trkpt>
<trkpt lat="55.690720" lon="26.453688">
<ele>144.775513</ele>
<time>2010-07-18T09:56:17Z</time>
<desc>lat.=55.690720, lon.=26.453688, Alt.=144.775513m. Speed=29.520000m/h.</desc>
<speed>8.200000</speed>
</trkpt>
<trkpt lat="55.690765" lon="26.453796">
<ele>144.330200</ele>
<time>2010-07-18T09:56:18Z</time>
<desc>lat.=55.690765, lon.=26.453796, Alt.=144.330200m. Speed=29.628000m/h.</desc>
<speed>8.230000</speed>
</trkpt>
<trkpt lat="55.690811" lon="26.453899">
<ele>144.142700</ele>
<time>2010-07-18T09:56:19Z</time>
<desc>lat.=55.690811, lon.=26.453899, Alt.=144.142700m. Speed=29.628000m/h.</desc>
<speed>8.230000</speed>
</trkpt>
<trkpt lat="55.690857" lon="26.454006">
<ele>143.713013</ele>
<time>2010-07-18T09:56:20Z</time>
<desc>lat.=55.690857, lon.=26.454006, Alt.=143.713013m. Speed=29.340000m/h.</desc>
<speed>8.150000</speed>
</trkpt>
<trkpt lat="55.690907" lon="26.454111">
<ele>143.802856</ele>
<time>2010-07-18T09:56:21Z</time>
<desc>lat.=55.690907, lon.=26.454111, Alt.=143.802856m. Speed=28.728001m/h.</desc>
<speed>7.980000</speed>
</trkpt>
<trkpt lat="55.690956" lon="26.454208">
<ele>144.716919</ele>
<time>2010-07-18T09:56:22Z</time>
<desc>lat.=55.690956, lon.=26.454208, Alt.=144.716919m. Speed=28.296000m/h.</desc>
<speed>7.860000</speed>
</trkpt>
<trkpt lat="55.691010" lon="26.454304">
<ele>144.994263</ele>
<time>2010-07-18T09:56:23Z</time>
<desc>lat.=55.691010, lon.=26.454304, Alt.=144.994263m. Speed=27.612000m/h.</desc>
<speed>7.670000</speed>
</trkpt>
<trkpt lat="55.691051" lon="26.454399">
<ele>144.795044</ele>
<time>2010-07-18T09:56:24Z</time>
<desc>lat.=55.691051, lon.=26.454399, Alt.=144.795044m. Speed=27.072001m/h.</desc>
<speed>7.520000</speed>
</trkpt>
<trkpt lat="55.691093" lon="26.454491">
<ele>144.892700</ele>
<time>2010-07-18T09:56:25Z</time>
<desc>lat.=55.691093, lon.=26.454491, Alt.=144.892700m. Speed=26.496000m/h.</desc>
<speed>7.360000</speed>
</trkpt>
<trkpt lat="55.691135" lon="26.454580">
<ele>144.904419</ele>
<time>2010-07-18T09:56:26Z</time>
<desc>lat.=55.691135, lon.=26.454580, Alt.=144.904419m. Speed=25.812000m/h.</desc>
<speed>7.170000</speed>
</trkpt>
<trkpt lat="55.691177" lon="26.454672">
<ele>144.802856</ele>
<time>2010-07-18T09:56:27Z</time>
<desc>lat.=55.691177, lon.=26.454672, Alt.=144.802856m. Speed=25.416000m/h.</desc>
<speed>7.060000</speed>
</trkpt>
<trkpt lat="55.691219" lon="26.454758">
<ele>144.666138</ele>
<time>2010-07-18T09:56:28Z</time>
<desc>lat.=55.691219, lon.=26.454758, Alt.=144.666138m. Speed=24.912001m/h.</desc>
<speed>6.920000</speed>
</trkpt>
<trkpt lat="55.691254" lon="26.454844">
<ele>144.513794</ele>
<time>2010-07-18T09:56:29Z</time>
<desc>lat.=55.691254, lon.=26.454844, Alt.=144.513794m. Speed=24.444000m/h.</desc>
<speed>6.790000</speed>
</trkpt>
<trkpt lat="55.691292" lon="26.454929">
<ele>144.521606</ele>
<time>2010-07-18T09:56:30Z</time>
<desc>lat.=55.691292, lon.=26.454929, Alt.=144.521606m. Speed=23.832001m/h.</desc>
<speed>6.620000</speed>
</trkpt>
<trkpt lat="55.691326" lon="26.455013">
<ele>144.623169</ele>
<time>2010-07-18T09:56:31Z</time>
<desc>lat.=55.691326, lon.=26.455013, Alt.=144.623169m. Speed=23.004000m/h.</desc>
<speed>6.390000</speed>
</trkpt>
<trkpt lat="55.691360" lon="26.455093">
<ele>144.806763</ele>
<time>2010-07-18T09:56:32Z</time>
<desc>lat.=55.691360, lon.=26.455093, Alt.=144.806763m. Speed=22.356001m/h.</desc>
<speed>6.210000</speed>
</trkpt>
<trkpt lat="55.691395" lon="26.455173">
<ele>144.970825</ele>
<time>2010-07-18T09:56:33Z</time>
<desc>lat.=55.691395, lon.=26.455173, Alt.=144.970825m. Speed=21.959999m/h.</desc>
<speed>6.100000</speed>
</trkpt>
<trkpt lat="55.691429" lon="26.455246">
<ele>144.834106</ele>
<time>2010-07-18T09:56:34Z</time>
<desc>lat.=55.691429, lon.=26.455246, Alt.=144.834106m. Speed=19.548000m/h.</desc>
<speed>5.430000</speed>
</trkpt>
<trkpt lat="55.691463" lon="26.455318">
<ele>144.650513</ele>
<time>2010-07-18T09:56:35Z</time>
<desc>lat.=55.691463, lon.=26.455318, Alt.=144.650513m. Speed=20.124001m/h.</desc>
<speed>5.590000</speed>
</trkpt>
<trkpt lat="55.691494" lon="26.455389">
<ele>144.478638</ele>
<time>2010-07-18T09:56:36Z</time>
<desc>lat.=55.691494, lon.=26.455389, Alt.=144.478638m. Speed=19.620001m/h.</desc>
<speed>5.450000</speed>
</trkpt>
<trkpt lat="55.691521" lon="26.455456">
<ele>144.275513</ele>
<time>2010-07-18T09:56:37Z</time>
<desc>lat.=55.691521, lon.=26.455456, Alt.=144.275513m. Speed=19.115999m/h.</desc>
<speed>5.310000</speed>
</trkpt>
<trkpt lat="55.691547" lon="26.455521">
<ele>144.095825</ele>
<time>2010-07-18T09:56:38Z</time>
<desc>lat.=55.691547, lon.=26.455521, Alt.=144.095825m. Speed=18.719999m/h.</desc>
<speed>5.200000</speed>
</trkpt>
<trkpt lat="55.691578" lon="26.455585">
<ele>144.045044</ele>
<time>2010-07-18T09:56:39Z</time>
<desc>lat.=55.691578, lon.=26.455585, Alt.=144.045044m. Speed=18.143999m/h.</desc>
<speed>5.040000</speed>
</trkpt>
<trkpt lat="55.691601" lon="26.455647">
<ele>143.845825</ele>
<time>2010-07-18T09:56:40Z</time>
<desc>lat.=55.691601, lon.=26.455647, Alt.=143.845825m. Speed=17.568001m/h.</desc>
<speed>4.880000</speed>
</trkpt>
<trkpt lat="55.691628" lon="26.455706">
<ele>143.826294</ele>
<time>2010-07-18T09:56:41Z</time>
<desc>lat.=55.691628, lon.=26.455706, Alt.=143.826294m. Speed=17.136000m/h.</desc>
<speed>4.760000</speed>
</trkpt>
<trkpt lat="55.691654" lon="26.455761">
<ele>143.873169</ele>
<time>2010-07-18T09:56:42Z</time>
<desc>lat.=55.691654, lon.=26.455761, Alt.=143.873169m. Speed=16.559999m/h.</desc>
<speed>4.600000</speed>
</trkpt>
<trkpt lat="55.691677" lon="26.455816">
<ele>143.935669</ele>
<time>2010-07-18T09:56:43Z</time>
<desc>lat.=55.691677, lon.=26.455816, Alt.=143.935669m. Speed=15.552000m/h.</desc>
<speed>4.320000</speed>
</trkpt>
<trkpt lat="55.691704" lon="26.455868">
<ele>143.896606</ele>
<time>2010-07-18T09:56:44Z</time>
<desc>lat.=55.691704, lon.=26.455868, Alt.=143.896606m. Speed=14.976000m/h.</desc>
<speed>4.160000</speed>
</trkpt>
<trkpt lat="55.691727" lon="26.455914">
<ele>143.978638</ele>
<time>2010-07-18T09:56:45Z</time>
<desc>lat.=55.691727, lon.=26.455914, Alt.=143.978638m. Speed=14.220000m/h.</desc>
<speed>3.950000</speed>
</trkpt>
<trkpt lat="55.691750" lon="26.455957">
<ele>144.123169</ele>
<time>2010-07-18T09:56:46Z</time>
<desc>lat.=55.691750, lon.=26.455957, Alt.=144.123169m. Speed=13.320000m/h.</desc>
<speed>3.700000</speed>
</trkpt>
<trkpt lat="55.691769" lon="26.456005">
<ele>144.045044</ele>
<time>2010-07-18T09:56:47Z</time>
<desc>lat.=55.691769, lon.=26.456005, Alt.=144.045044m. Speed=11.484000m/h.</desc>
<speed>3.190000</speed>
</trkpt>
<trkpt lat="55.691784" lon="26.456045">
<ele>143.677856</ele>
<time>2010-07-18T09:56:48Z</time>
<desc>lat.=55.691784, lon.=26.456045, Alt.=143.677856m. Speed=10.908000m/h.</desc>
<speed>3.030000</speed>
</trkpt>
<trkpt lat="55.691799" lon="26.456085">
<ele>143.502075</ele>
<time>2010-07-18T09:56:49Z</time>
<desc>lat.=55.691799, lon.=26.456085, Alt.=143.502075m. Speed=11.052000m/h.</desc>
<speed>3.070000</speed>
</trkpt>
<trkpt lat="55.691811" lon="26.456129">
<ele>143.341919</ele>
<time>2010-07-18T09:56:50Z</time>
<desc>lat.=55.691811, lon.=26.456129, Alt.=143.341919m. Speed=10.728000m/h.</desc>
<speed>2.980000</speed>
</trkpt>
<trkpt lat="55.691818" lon="26.456173">
<ele>142.681763</ele>
<time>2010-07-18T09:56:51Z</time>
<desc>lat.=55.691818, lon.=26.456173, Alt.=142.681763m. Speed=9.972000m/h.</desc>
<speed>2.770000</speed>
</trkpt>
<trkpt lat="55.691833" lon="26.456213">
<ele>142.552856</ele>
<time>2010-07-18T09:56:52Z</time>
<desc>lat.=55.691833, lon.=26.456213, Alt.=142.552856m. Speed=9.504000m/h.</desc>
<speed>2.640000</speed>
</trkpt>
<trkpt lat="55.691845" lon="26.456245">
<ele>142.232544</ele>
<time>2010-07-18T09:56:53Z</time>
<desc>lat.=55.691845, lon.=26.456245, Alt.=142.232544m. Speed=9.144000m/h.</desc>
<speed>2.540000</speed>
</trkpt>
<trkpt lat="55.691860" lon="26.456270">
<ele>142.111450</ele>
<time>2010-07-18T09:56:54Z</time>
<desc>lat.=55.691860, lon.=26.456270, Alt.=142.111450m. Speed=8.028000m/h.</desc>
<speed>2.230000</speed>
</trkpt>
<trkpt lat="55.691883" lon="26.456291">
<ele>142.435669</ele>
<time>2010-07-18T09:56:55Z</time>
<desc>lat.=55.691883, lon.=26.456291, Alt.=142.435669m. Speed=8.244000m/h.</desc>
<speed>2.290000</speed>
</trkpt>
<trkpt lat="55.691906" lon="26.456295">
<ele>142.107544</ele>
<time>2010-07-18T09:56:56Z</time>
<desc>lat.=55.691906, lon.=26.456295, Alt.=142.107544m. Speed=6.336000m/h.</desc>
<speed>1.760000</speed>
</trkpt>
<trkpt lat="55.691921" lon="26.456291">
<ele>142.068481</ele>
<time>2010-07-18T09:56:57Z</time>
<desc>lat.=55.691921, lon.=26.456291, Alt.=142.068481m. Speed=6.048000m/h.</desc>
<speed>1.680000</speed>
</trkpt>
<trkpt lat="55.691933" lon="26.456280">
<ele>142.310669</ele>
<time>2010-07-18T09:56:58Z</time>
<desc>lat.=55.691933, lon.=26.456280, Alt.=142.310669m. Speed=5.508000m/h.</desc>
<speed>1.530000</speed>
</trkpt>
<trkpt lat="55.691940" lon="26.456251">
<ele>142.650513</ele>
<time>2010-07-18T09:56:59Z</time>
<desc>lat.=55.691940, lon.=26.456251, Alt.=142.650513m. Speed=5.040000m/h.</desc>
<speed>1.400000</speed>
</trkpt>
<trkpt lat="55.691936" lon="26.456223">
<ele>142.900513</ele>
<time>2010-07-18T09:57:00Z</time>
<desc>lat.=55.691936, lon.=26.456223, Alt.=142.900513m. Speed=4.896000m/h.</desc>
<speed>1.360000</speed>
</trkpt>
<trkpt lat="55.691929" lon="26.456198">
<ele>142.896606</ele>
<time>2010-07-18T09:57:01Z</time>
<desc>lat.=55.691929, lon.=26.456198, Alt.=142.896606m. Speed=5.688000m/h.</desc>
<speed>1.580000</speed>
</trkpt>
<trkpt lat="55.691917" lon="26.456179">
<ele>142.630981</ele>
<time>2010-07-18T09:57:02Z</time>
<desc>lat.=55.691917, lon.=26.456179, Alt.=142.630981m. Speed=5.292000m/h.</desc>
<speed>1.470000</speed>
</trkpt>
<trkpt lat="55.691906" lon="26.456167">
<ele>142.490356</ele>
<time>2010-07-18T09:57:03Z</time>
<desc>lat.=55.691906, lon.=26.456167, Alt.=142.490356m. Speed=4.464000m/h.</desc>
<speed>1.240000</speed>
</trkpt>
<trkpt lat="55.691895" lon="26.456150">
<ele>142.474731</ele>
<time>2010-07-18T09:57:04Z</time>
<desc>lat.=55.691895, lon.=26.456150, Alt.=142.474731m. Speed=5.508000m/h.</desc>
<speed>1.530000</speed>
</trkpt>
<trkpt lat="55.691879" lon="26.456133">
<ele>142.408325</ele>
<time>2010-07-18T09:57:05Z</time>
<desc>lat.=55.691879, lon.=26.456133, Alt.=142.408325m. Speed=5.184000m/h.</desc>
<speed>1.440000</speed>
</trkpt>
<trkpt lat="55.691872" lon="26.456120">
<ele>142.392700</ele>
<time>2010-07-18T09:57:06Z</time>
<desc>lat.=55.691872, lon.=26.456120, Alt.=142.392700m. Speed=5.148000m/h.</desc>
<speed>1.430000</speed>
</trkpt>
<trkpt lat="55.691860" lon="26.456114">
<ele>142.338013</ele>
<time>2010-07-18T09:57:07Z</time>
<desc>lat.=55.691860, lon.=26.456114, Alt.=142.338013m. Speed=3.960000m/h.</desc>
<speed>1.100000</speed>
</trkpt>
<trkpt lat="55.691849" lon="26.456120">
<ele>142.338013</ele>
<time>2010-07-18T09:57:08Z</time>
<desc>lat.=55.691849, lon.=26.456120, Alt.=142.338013m. Speed=6.624000m/h.</desc>
<speed>1.840000</speed>
</trkpt>
<trkpt lat="55.691841" lon="26.456139">
<ele>142.334106</ele>
<time>2010-07-18T09:57:09Z</time>
<desc>lat.=55.691841, lon.=26.456139, Alt.=142.334106m. Speed=7.164000m/h.</desc>
<speed>1.990000</speed>
</trkpt>
<trkpt lat="55.691849" lon="26.456167">
<ele>142.380981</ele>
<time>2010-07-18T09:57:10Z</time>
<desc>lat.=55.691849, lon.=26.456167, Alt.=142.380981m. Speed=7.848000m/h.</desc>
<speed>2.180000</speed>
</trkpt>
<trkpt lat="55.691864" lon="26.456198">
<ele>142.377075</ele>
<time>2010-07-18T09:57:11Z</time>
<desc>lat.=55.691864, lon.=26.456198, Alt.=142.377075m. Speed=9.684000m/h.</desc>
<speed>2.690000</speed>
</trkpt>
<trkpt lat="55.691883" lon="26.456236">
<ele>142.482544</ele>
<time>2010-07-18T09:57:12Z</time>
<desc>lat.=55.691883, lon.=26.456236, Alt.=142.482544m. Speed=10.332000m/h.</desc>
<speed>2.870000</speed>
</trkpt>
<trkpt lat="55.691898" lon="26.456274">
<ele>142.814575</ele>
<time>2010-07-18T09:57:13Z</time>
<desc>lat.=55.691898, lon.=26.456274, Alt.=142.814575m. Speed=10.836000m/h.</desc>
<speed>3.010000</speed>
</trkpt>
<trkpt lat="55.691925" lon="26.456314">
<ele>142.486450</ele>
<time>2010-07-18T09:57:14Z</time>
<desc>lat.=55.691925, lon.=26.456314, Alt.=142.486450m. Speed=13.212000m/h.</desc>
<speed>3.670000</speed>
</trkpt>
<trkpt lat="55.691948" lon="26.456356">
<ele>141.916138</ele>
<time>2010-07-18T09:57:15Z</time>
<desc>lat.=55.691948, lon.=26.456356, Alt.=141.916138m. Speed=12.384000m/h.</desc>
<speed>3.440000</speed>
</trkpt>
<trkpt lat="55.691975" lon="26.456396">
<ele>140.537231</ele>
<time>2010-07-18T09:57:16Z</time>
<desc>lat.=55.691975, lon.=26.456396, Alt.=140.537231m. Speed=14.112000m/h.</desc>
<speed>3.920000</speed>
</trkpt>
<trkpt lat="55.691994" lon="26.456444">
<ele>140.150513</ele>
<time>2010-07-18T09:57:17Z</time>
<desc>lat.=55.691994, lon.=26.456444, Alt.=140.150513m. Speed=15.228000m/h.</desc>
<speed>4.230000</speed>
</trkpt>
<trkpt lat="55.692020" lon="26.456490">
<ele>140.279419</ele>
<time>2010-07-18T09:57:18Z</time>
<desc>lat.=55.692020, lon.=26.456490, Alt.=140.279419m. Speed=15.012000m/h.</desc>
<speed>4.170000</speed>
</trkpt>
<trkpt lat="55.692047" lon="26.456541">
<ele>140.369263</ele>
<time>2010-07-18T09:57:19Z</time>
<desc>lat.=55.692047, lon.=26.456541, Alt.=140.369263m. Speed=15.084000m/h.</desc>
<speed>4.190000</speed>
</trkpt>
<trkpt lat="55.692066" lon="26.456596">
<ele>140.193481</ele>
<time>2010-07-18T09:57:20Z</time>
<desc>lat.=55.692066, lon.=26.456596, Alt.=140.193481m. Speed=15.768000m/h.</desc>
<speed>4.380000</speed>
</trkpt>
<trkpt lat="55.692089" lon="26.456652">
<ele>140.068481</ele>
<time>2010-07-18T09:57:21Z</time>
<desc>lat.=55.692089, lon.=26.456652, Alt.=140.068481m. Speed=15.804000m/h.</desc>
<speed>4.390000</speed>
</trkpt>
<trkpt lat="55.692112" lon="26.456709">
<ele>140.037231</ele>
<time>2010-07-18T09:57:22Z</time>
<desc>lat.=55.692112, lon.=26.456709, Alt.=140.037231m. Speed=15.912000m/h.</desc>
<speed>4.420000</speed>
</trkpt>
<trkpt lat="55.692139" lon="26.456764">
<ele>140.189575</ele>
<time>2010-07-18T09:57:23Z</time>
<desc>lat.=55.692139, lon.=26.456764, Alt.=140.189575m. Speed=15.984000m/h.</desc>
<speed>4.440000</speed>
</trkpt>
<trkpt lat="55.692169" lon="26.456818">
<ele>140.166138</ele>
<time>2010-07-18T09:57:24Z</time>
<desc>lat.=55.692169, lon.=26.456818, Alt.=140.166138m. Speed=16.020000m/h.</desc>
<speed>4.450000</speed>
</trkpt>
<trkpt lat="55.692200" lon="26.456867">
<ele>140.177856</ele>
<time>2010-07-18T09:57:25Z</time>
<desc>lat.=55.692200, lon.=26.456867, Alt.=140.177856m. Speed=16.344000m/h.</desc>
<speed>4.540000</speed>
</trkpt>
<trkpt lat="55.692223" lon="26.456926">
<ele>140.213013</ele>
<time>2010-07-18T09:57:26Z</time>
<desc>lat.=55.692223, lon.=26.456926, Alt.=140.213013m. Speed=16.524000m/h.</desc>
<speed>4.590000</speed>
</trkpt>
<trkpt lat="55.692245" lon="26.456987">
<ele>140.177856</ele>
<time>2010-07-18T09:57:27Z</time>
<desc>lat.=55.692245, lon.=26.456987, Alt.=140.177856m. Speed=16.740000m/h.</desc>
<speed>4.650000</speed>
</trkpt>
<trkpt lat="55.692268" lon="26.457050">
<ele>140.162231</ele>
<time>2010-07-18T09:57:28Z</time>
<desc>lat.=55.692268, lon.=26.457050, Alt.=140.162231m. Speed=17.063999m/h.</desc>
<speed>4.740000</speed>
</trkpt>
<trkpt lat="55.692295" lon="26.457111">
<ele>140.134888</ele>
<time>2010-07-18T09:57:29Z</time>
<desc>lat.=55.692295, lon.=26.457111, Alt.=140.134888m. Speed=17.639999m/h.</desc>
<speed>4.900000</speed>
</trkpt>
<trkpt lat="55.692322" lon="26.457172">
<ele>140.095825</ele>
<time>2010-07-18T09:57:30Z</time>
<desc>lat.=55.692322, lon.=26.457172, Alt.=140.095825m. Speed=17.892000m/h.</desc>
<speed>4.970000</speed>
</trkpt>
<trkpt lat="55.692352" lon="26.457239">
<ele>140.427856</ele>
<time>2010-07-18T09:57:31Z</time>
<desc>lat.=55.692352, lon.=26.457239, Alt.=140.427856m. Speed=18.323999m/h.</desc>
<speed>5.090000</speed>
</trkpt>
<trkpt lat="55.692383" lon="26.457302">
<ele>140.349731</ele>
<time>2010-07-18T09:57:32Z</time>
<desc>lat.=55.692383, lon.=26.457302, Alt.=140.349731m. Speed=18.396000m/h.</desc>
<speed>5.110000</speed>
</trkpt>
<trkpt lat="55.692413" lon="26.457369">
<ele>140.334106</ele>
<time>2010-07-18T09:57:33Z</time>
<desc>lat.=55.692413, lon.=26.457369, Alt.=140.334106m. Speed=18.684000m/h.</desc>
<speed>5.190000</speed>
</trkpt>
<trkpt lat="55.692436" lon="26.457430">
<ele>140.353638</ele>
<time>2010-07-18T09:57:34Z</time>
<desc>lat.=55.692436, lon.=26.457430, Alt.=140.353638m. Speed=18.972000m/h.</desc>
<speed>5.270000</speed>
</trkpt>
<trkpt lat="55.692467" lon="26.457493">
<ele>140.509888</ele>
<time>2010-07-18T09:57:35Z</time>
<desc>lat.=55.692467, lon.=26.457493, Alt.=140.509888m. Speed=20.736000m/h.</desc>
<speed>5.760000</speed>
</trkpt>
<trkpt lat="55.692501" lon="26.457565">
<ele>140.662231</ele>
<time>2010-07-18T09:57:36Z</time>
<desc>lat.=55.692501, lon.=26.457565, Alt.=140.662231m. Speed=21.348000m/h.</desc>
<speed>5.930000</speed>
</trkpt>
<trkpt lat="55.692532" lon="26.457644">
<ele>140.369263</ele>
<time>2010-07-18T09:57:37Z</time>
<desc>lat.=55.692532, lon.=26.457644, Alt.=140.369263m. Speed=21.636000m/h.</desc>
<speed>6.010000</speed>
</trkpt>
<trkpt lat="55.692562" lon="26.457722">
<ele>139.920044</ele>
<time>2010-07-18T09:57:38Z</time>
<desc>lat.=55.692562, lon.=26.457722, Alt.=139.920044m. Speed=21.743999m/h.</desc>
<speed>6.040000</speed>
</trkpt>
<trkpt lat="55.692593" lon="26.457802">
<ele>139.849731</ele>
<time>2010-07-18T09:57:39Z</time>
<desc>lat.=55.692593, lon.=26.457802, Alt.=139.849731m. Speed=22.068001m/h.</desc>
<speed>6.130000</speed>
</trkpt>
<trkpt lat="55.692627" lon="26.457888">
<ele>139.689575</ele>
<time>2010-07-18T09:57:40Z</time>
<desc>lat.=55.692627, lon.=26.457888, Alt.=139.689575m. Speed=22.247999m/h.</desc>
<speed>6.180000</speed>
</trkpt>
<trkpt lat="55.692661" lon="26.457966">
<ele>140.209106</ele>
<time>2010-07-18T09:57:41Z</time>
<desc>lat.=55.692661, lon.=26.457966, Alt.=140.209106m. Speed=20.448000m/h.</desc>
<speed>5.680000</speed>
</trkpt>
<trkpt lat="55.692699" lon="26.458042">
<ele>140.630981</ele>
<time>2010-07-18T09:57:42Z</time>
<desc>lat.=55.692699, lon.=26.458042, Alt.=140.630981m. Speed=21.780001m/h.</desc>
<speed>6.050000</speed>
</trkpt>
<trkpt lat="55.692734" lon="26.458118">
<ele>141.084106</ele>
<time>2010-07-18T09:57:43Z</time>
<desc>lat.=55.692734, lon.=26.458118, Alt.=141.084106m. Speed=21.600000m/h.</desc>
<speed>6.000000</speed>
</trkpt>
<trkpt lat="55.692764" lon="26.458199">
<ele>141.189575</ele>
<time>2010-07-18T09:57:44Z</time>
<desc>lat.=55.692764, lon.=26.458199, Alt.=141.189575m. Speed=21.204000m/h.</desc>
<speed>5.890000</speed>
</trkpt>
<trkpt lat="55.692795" lon="26.458279">
<ele>141.283325</ele>
<time>2010-07-18T09:57:45Z</time>
<desc>lat.=55.692795, lon.=26.458279, Alt.=141.283325m. Speed=20.916000m/h.</desc>
<speed>5.810000</speed>
</trkpt>
<trkpt lat="55.692825" lon="26.458357">
<ele>141.326294</ele>
<time>2010-07-18T09:57:46Z</time>
<desc>lat.=55.692825, lon.=26.458357, Alt.=141.326294m. Speed=20.520000m/h.</desc>
<speed>5.700000</speed>
</trkpt>
<trkpt lat="55.692852" lon="26.458441">
<ele>141.388794</ele>
<time>2010-07-18T09:57:47Z</time>
<desc>lat.=55.692852, lon.=26.458441, Alt.=141.388794m. Speed=19.728001m/h.</desc>
<speed>5.480000</speed>
</trkpt>
<trkpt lat="55.692875" lon="26.458527">
<ele>142.002075</ele>
<time>2010-07-18T09:57:48Z</time>
<desc>lat.=55.692875, lon.=26.458527, Alt.=142.002075m. Speed=19.691999m/h.</desc>
<speed>5.470000</speed>
</trkpt>
<trkpt lat="55.692894" lon="26.458601">
<ele>142.130981</ele>
<time>2010-07-18T09:57:49Z</time>
<desc>lat.=55.692894, lon.=26.458601, Alt.=142.130981m. Speed=18.648001m/h.</desc>
<speed>5.180000</speed>
</trkpt>
<trkpt lat="55.692913" lon="26.458675">
<ele>142.009888</ele>
<time>2010-07-18T09:57:50Z</time>
<desc>lat.=55.692913, lon.=26.458675, Alt.=142.009888m. Speed=18.468000m/h.</desc>
<speed>5.130000</speed>
</trkpt>
<trkpt lat="55.692932" lon="26.458750">
<ele>141.970825</ele>
<time>2010-07-18T09:57:51Z</time>
<desc>lat.=55.692932, lon.=26.458750, Alt.=141.970825m. Speed=18.252001m/h.</desc>
<speed>5.070000</speed>
</trkpt>
<trkpt lat="55.692947" lon="26.458818">
<ele>141.599731</ele>
<time>2010-07-18T09:57:52Z</time>
<desc>lat.=55.692947, lon.=26.458818, Alt.=141.599731m. Speed=19.152000m/h.</desc>
<speed>5.320000</speed>
</trkpt>
<trkpt lat="55.692966" lon="26.458899">
<ele>141.552856</ele>
<time>2010-07-18T09:57:53Z</time>
<desc>lat.=55.692966, lon.=26.458899, Alt.=141.552856m. Speed=19.584000m/h.</desc>
<speed>5.440000</speed>
</trkpt>
<trkpt lat="55.692986" lon="26.458975">
<ele>141.525513</ele>
<time>2010-07-18T09:57:54Z</time>
<desc>lat.=55.692986, lon.=26.458975, Alt.=141.525513m. Speed=19.332001m/h.</desc>
<speed>5.370000</speed>
</trkpt>
<trkpt lat="55.693005" lon="26.459057">
<ele>141.884888</ele>
<time>2010-07-18T09:57:55Z</time>
<desc>lat.=55.693005, lon.=26.459057, Alt.=141.884888m. Speed=20.087999m/h.</desc>
<speed>5.580000</speed>
</trkpt>
<trkpt lat="55.693027" lon="26.459131">
<ele>141.963013</ele>
<time>2010-07-18T09:57:56Z</time>
<desc>lat.=55.693027, lon.=26.459131, Alt.=141.963013m. Speed=20.052000m/h.</desc>
<speed>5.570000</speed>
</trkpt>
<trkpt lat="55.693054" lon="26.459208">
<ele>142.322388</ele>
<time>2010-07-18T09:57:57Z</time>
<desc>lat.=55.693054, lon.=26.459208, Alt.=142.322388m. Speed=20.375999m/h.</desc>
<speed>5.660000</speed>
</trkpt>
<trkpt lat="55.693073" lon="26.459286">
<ele>142.322388</ele>
<time>2010-07-18T09:57:58Z</time>
<desc>lat.=55.693073, lon.=26.459286, Alt.=142.322388m. Speed=17.964001m/h.</desc>
<speed>4.990000</speed>
</trkpt>
<trkpt lat="55.693089" lon="26.459360">
<ele>142.584106</ele>
<time>2010-07-18T09:57:59Z</time>
<desc>lat.=55.693089, lon.=26.459360, Alt.=142.584106m. Speed=19.403999m/h.</desc>
<speed>5.390000</speed>
</trkpt>
<trkpt lat="55.693104" lon="26.459442">
<ele>142.798950</ele>
<time>2010-07-18T09:58:00Z</time>
<desc>lat.=55.693104, lon.=26.459442, Alt.=142.798950m. Speed=19.007999m/h.</desc>
<speed>5.280000</speed>
</trkpt>
<trkpt lat="55.693123" lon="26.459517">
<ele>142.599731</ele>
<time>2010-07-18T09:58:01Z</time>
<desc>lat.=55.693123, lon.=26.459517, Alt.=142.599731m. Speed=18.468000m/h.</desc>
<speed>5.130000</speed>
</trkpt>
<trkpt lat="55.693138" lon="26.459591">
<ele>142.615356</ele>
<time>2010-07-18T09:58:02Z</time>
<desc>lat.=55.693138, lon.=26.459591, Alt.=142.615356m. Speed=19.007999m/h.</desc>
<speed>5.280000</speed>
</trkpt>
<trkpt lat="55.693165" lon="26.459671">
<ele>142.795044</ele>
<time>2010-07-18T09:58:03Z</time>
<desc>lat.=55.693165, lon.=26.459671, Alt.=142.795044m. Speed=20.052000m/h.</desc>
<speed>5.570000</speed>
</trkpt>
<trkpt lat="55.693180" lon="26.459745">
<ele>143.080200</ele>
<time>2010-07-18T09:58:04Z</time>
<desc>lat.=55.693180, lon.=26.459745, Alt.=143.080200m. Speed=18.972000m/h.</desc>
<speed>5.270000</speed>
</trkpt>
<trkpt lat="55.693203" lon="26.459810">
<ele>142.576294</ele>
<time>2010-07-18T09:58:05Z</time>
<desc>lat.=55.693203, lon.=26.459810, Alt.=142.576294m. Speed=16.992001m/h.</desc>
<speed>4.720000</speed>
</trkpt>
<trkpt lat="55.693222" lon="26.459871">
<ele>141.970825</ele>
<time>2010-07-18T09:58:06Z</time>
<desc>lat.=55.693222, lon.=26.459871, Alt.=141.970825m. Speed=16.812000m/h.</desc>
<speed>4.670000</speed>
</trkpt>
<trkpt lat="55.693241" lon="26.459929">
<ele>141.005981</ele>
<time>2010-07-18T09:58:07Z</time>
<desc>lat.=55.693241, lon.=26.459929, Alt.=141.005981m. Speed=15.480000m/h.</desc>
<speed>4.300000</speed>
</trkpt>
<trkpt lat="55.693268" lon="26.459984">
<ele>140.724731</ele>
<time>2010-07-18T09:58:08Z</time>
<desc>lat.=55.693268, lon.=26.459984, Alt.=140.724731m. Speed=16.524000m/h.</desc>
<speed>4.590000</speed>
</trkpt>
<trkpt lat="55.693287" lon="26.460049">
<ele>140.306763</ele>
<time>2010-07-18T09:58:09Z</time>
<desc>lat.=55.693287, lon.=26.460049, Alt.=140.306763m. Speed=15.228000m/h.</desc>
<speed>4.230000</speed>
</trkpt>
<trkpt lat="55.693306" lon="26.460089">
<ele>139.935669</ele>
<time>2010-07-18T09:58:10Z</time>
<desc>lat.=55.693306, lon.=26.460089, Alt.=139.935669m. Speed=6.444000m/h.</desc>
<speed>1.790000</speed>
</trkpt>
<trkpt lat="55.693325" lon="26.460114">
<ele>140.095825</ele>
<time>2010-07-18T09:58:11Z</time>
<desc>lat.=55.693325, lon.=26.460114, Alt.=140.095825m. Speed=11.808000m/h.</desc>
<speed>3.280000</speed>
</trkpt>
<trkpt lat="55.693348" lon="26.460155">
<ele>140.330200</ele>
<time>2010-07-18T09:58:12Z</time>
<desc>lat.=55.693348, lon.=26.460155, Alt.=140.330200m. Speed=11.628000m/h.</desc>
<speed>3.230000</speed>
</trkpt>
<trkpt lat="55.693371" lon="26.460194">
<ele>140.591919</ele>
<time>2010-07-18T09:58:13Z</time>
<desc>lat.=55.693371, lon.=26.460194, Alt.=140.591919m. Speed=11.880000m/h.</desc>
<speed>3.300000</speed>
</trkpt>
<trkpt lat="55.693390" lon="26.460222">
<ele>140.412231</ele>
<time>2010-07-18T09:58:14Z</time>
<desc>lat.=55.693390, lon.=26.460222, Alt.=140.412231m. Speed=10.944000m/h.</desc>
<speed>3.040000</speed>
</trkpt>
<trkpt lat="55.693432" lon="26.460230">
<ele>141.498169</ele>
<time>2010-07-18T09:58:15Z</time>
<desc>lat.=55.693432, lon.=26.460230, Alt.=141.498169m. Speed=9.648000m/h.</desc>
<speed>2.680000</speed>
</trkpt>
<trkpt lat="55.693447" lon="26.460249">
<ele>140.900513</ele>
<time>2010-07-18T09:58:16Z</time>
<desc>lat.=55.693447, lon.=26.460249, Alt.=140.900513m. Speed=7.308000m/h.</desc>
<speed>2.030000</speed>
</trkpt>
<trkpt lat="55.693466" lon="26.460253">
<ele>139.877075</ele>
<time>2010-07-18T09:58:17Z</time>
<desc>lat.=55.693466, lon.=26.460253, Alt.=139.877075m. Speed=7.884000m/h.</desc>
<speed>2.190000</speed>
</trkpt>
<trkpt lat="55.693481" lon="26.460260">
<ele>139.634888</ele>
<time>2010-07-18T09:58:18Z</time>
<desc>lat.=55.693481, lon.=26.460260, Alt.=139.634888m. Speed=6.084000m/h.</desc>
<speed>1.690000</speed>
</trkpt>
<trkpt lat="55.693485" lon="26.460272">
<ele>139.209106</ele>
<time>2010-07-18T09:58:19Z</time>
<desc>lat.=55.693485, lon.=26.460272, Alt.=139.209106m. Speed=4.716000m/h.</desc>
<speed>1.310000</speed>
</trkpt>
<trkpt lat="55.693493" lon="26.460278">
<ele>138.451294</ele>
<time>2010-07-18T09:58:20Z</time>
<desc>lat.=55.693493, lon.=26.460278, Alt.=138.451294m. Speed=4.428000m/h.</desc>
<speed>1.230000</speed>
</trkpt>
<trkpt lat="55.693501" lon="26.460279">
<ele>135.568481</ele>
<time>2010-07-18T09:58:21Z</time>
<desc>lat.=55.693501, lon.=26.460279, Alt.=135.568481m. Speed=4.752000m/h.</desc>
<speed>1.320000</speed>
</trkpt>
<trkpt lat="55.693520" lon="26.460285">
<ele>134.955200</ele>
<time>2010-07-18T09:58:22Z</time>
<desc>lat.=55.693520, lon.=26.460285, Alt.=134.955200m. Speed=5.076000m/h.</desc>
<speed>1.410000</speed>
</trkpt>
<trkpt lat="55.693527" lon="26.460270">
<ele>135.295044</ele>
<time>2010-07-18T09:58:23Z</time>
<desc>lat.=55.693527, lon.=26.460270, Alt.=135.295044m. Speed=5.508000m/h.</desc>
<speed>1.530000</speed>
</trkpt>
<trkpt lat="55.693535" lon="26.460255">
<ele>135.701294</ele>
<time>2010-07-18T09:58:24Z</time>
<desc>lat.=55.693535, lon.=26.460255, Alt.=135.701294m. Speed=4.248000m/h.</desc>
<speed>1.180000</speed>
</trkpt>
<trkpt lat="55.693539" lon="26.460245">
<ele>136.400513</ele>
<time>2010-07-18T09:58:25Z</time>
<desc>lat.=55.693539, lon.=26.460245, Alt.=136.400513m. Speed=2.412000m/h.</desc>
<speed>0.670000</speed>
</trkpt>
<trkpt lat="55.693535" lon="26.460245">
<ele>136.213013</ele>
<time>2010-07-18T09:58:26Z</time>
<desc>lat.=55.693535, lon.=26.460245, Alt.=136.213013m. Speed=1.296000m/h.</desc>
<speed>0.360000</speed>
</trkpt>
<trkpt lat="55.693531" lon="26.460251">
<ele>136.220825</ele>
<time>2010-07-18T09:58:27Z</time>
<desc>lat.=55.693531, lon.=26.460251, Alt.=136.220825m. Speed=1.440000m/h.</desc>
<speed>0.400000</speed>
</trkpt>
<trkpt lat="55.693527" lon="26.460247">
<ele>136.201294</ele>
<time>2010-07-18T09:58:28Z</time>
<desc>lat.=55.693527, lon.=26.460247, Alt.=136.201294m. Speed=1.260000m/h.</desc>
<speed>0.350000</speed>
</trkpt>
<trkpt lat="55.693527" lon="26.460243">
<ele>136.330200</ele>
<time>2010-07-18T09:58:29Z</time>
<desc>lat.=55.693527, lon.=26.460243, Alt.=136.330200m. Speed=1.764000m/h.</desc>
<speed>0.490000</speed>
</trkpt>
<trkpt lat="55.693531" lon="26.460236">
<ele>136.451294</ele>
<time>2010-07-18T09:58:30Z</time>
<desc>lat.=55.693531, lon.=26.460236, Alt.=136.451294m. Speed=1.080000m/h.</desc>
<speed>0.300000</speed>
</trkpt>
<trkpt lat="55.693531" lon="26.460232">
<ele>136.572388</ele>
<time>2010-07-18T09:58:31Z</time>
<desc>lat.=55.693531, lon.=26.460232, Alt.=136.572388m. Speed=0.396000m/h.</desc>
<speed>0.110000</speed>
</trkpt>
<trkpt lat="55.693531" lon="26.460232">
<ele>136.677856</ele>
<time>2010-07-18T09:58:32Z</time>
<desc>lat.=55.693531, lon.=26.460232, Alt.=136.677856m. Speed=0.288000m/h.</desc>
<speed>0.080000</speed>
</trkpt>
<trkpt lat="55.693531" lon="26.460234">
<ele>136.767700</ele>
<time>2010-07-18T09:58:33Z</time>
<desc>lat.=55.693531, lon.=26.460234, Alt.=136.767700m. Speed=0.216000m/h.</desc>
<speed>0.060000</speed>
</trkpt>
<trkpt lat="55.693531" lon="26.460232">
<ele>136.834106</ele>
<time>2010-07-18T09:58:34Z</time>
<desc>lat.=55.693531, lon.=26.460232, Alt.=136.834106m. Speed=0.684000m/h.</desc>
<speed>0.190000</speed>
</trkpt>
<trkpt lat="55.693531" lon="26.460232">
<ele>136.884888</ele>
<time>2010-07-18T09:58:35Z</time>
<desc>lat.=55.693531, lon.=26.460232, Alt.=136.884888m. Speed=0.612000m/h.</desc>
<speed>0.170000</speed>
</trkpt>
<trkpt lat="55.693535" lon="26.460230">
<ele>136.927856</ele>
<time>2010-07-18T09:58:36Z</time>
<desc>lat.=55.693535, lon.=26.460230, Alt.=136.927856m. Speed=0.756000m/h.</desc>
<speed>0.210000</speed>
</trkpt>
<trkpt lat="55.693535" lon="26.460230">
<ele>136.963013</ele>
<time>2010-07-18T09:58:37Z</time>
<desc>lat.=55.693535, lon.=26.460230, Alt.=136.963013m. Speed=0.684000m/h.</desc>
<speed>0.190000</speed>
</trkpt>
<trkpt lat="55.693539" lon="26.460230">
<ele>136.990356</ele>
<time>2010-07-18T09:58:38Z</time>
<desc>lat.=55.693539, lon.=26.460230, Alt.=136.990356m. Speed=0.684000m/h.</desc>
<speed>0.190000</speed>
</trkpt>
<trkpt lat="55.693539" lon="26.460228">
<ele>137.002075</ele>
<time>2010-07-18T09:58:39Z</time>
<desc>lat.=55.693539, lon.=26.460228, Alt.=137.002075m. Speed=0.576000m/h.</desc>
<speed>0.160000</speed>
</trkpt>
<trkpt lat="55.693542" lon="26.460230">
<ele>137.017700</ele>
<time>2010-07-18T09:58:40Z</time>
<desc>lat.=55.693542, lon.=26.460230, Alt.=137.017700m. Speed=0.612000m/h.</desc>
<speed>0.170000</speed>
</trkpt>
<trkpt lat="55.693542" lon="26.460230">
<ele>137.033325</ele>
<time>2010-07-18T09:58:41Z</time>
<desc>lat.=55.693542, lon.=26.460230, Alt.=137.033325m. Speed=0.288000m/h.</desc>
<speed>0.080000</speed>
</trkpt>
<trkpt lat="55.693542" lon="26.460230">
<ele>137.056763</ele>
<time>2010-07-18T09:58:42Z</time>
<desc>lat.=55.693542, lon.=26.460230, Alt.=137.056763m. Speed=0.288000m/h.</desc>
<speed>0.080000</speed>
</trkpt>
<trkpt lat="55.693542" lon="26.460230">
<ele>137.076294</ele>
<time>2010-07-18T09:58:43Z</time>
<desc>lat.=55.693542, lon.=26.460230, Alt.=137.076294m. Speed=0.504000m/h.</desc>
<speed>0.140000</speed>
</trkpt>
<trkpt lat="55.693546" lon="26.460230">
<ele>137.084106</ele>
<time>2010-07-18T09:58:44Z</time>
<desc>lat.=55.693546, lon.=26.460230, Alt.=137.084106m. Speed=0.000000m/h.</desc>
<speed>0.000000</speed>
</trkpt>
<trkpt lat="55.693546" lon="26.460230">
<ele>137.068481</ele>
<time>2010-07-18T09:58:45Z</time>
<desc>lat.=55.693546, lon.=26.460230, Alt.=137.068481m. Speed=0.000000m/h.</desc>
<speed>0.000000</speed>
</trkpt>
<trkpt lat="55.693546" lon="26.460230">
<ele>137.060669</ele>
<time>2010-07-18T09:58:46Z</time>
<desc>lat.=55.693546, lon.=26.460230, Alt.=137.060669m. Speed=0.000000m/h.</desc>
<speed>0.000000</speed>
</trkpt>
<trkpt lat="55.693546" lon="26.460230">
<ele>137.056763</ele>
<time>2010-07-18T09:58:47Z</time>
<desc>lat.=55.693546, lon.=26.460230, Alt.=137.056763m. Speed=0.108000m/h.</desc>
<speed>0.030000</speed>
</trkpt>
<trkpt lat="55.693546" lon="26.460230">
<ele>137.052856</ele>
<time>2010-07-18T09:58:48Z</time>
<desc>lat.=55.693546, lon.=26.460230, Alt.=137.052856m. Speed=0.000000m/h.</desc>
<speed>0.000000</speed>
</trkpt>
<trkpt lat="55.693546" lon="26.460230">
<ele>137.056763</ele>
<time>2010-07-18T09:58:49Z</time>
<desc>lat.=55.693546, lon.=26.460230, Alt.=137.056763m. Speed=0.036000m/h.</desc>
<speed>0.010000</speed>
</trkpt>
<trkpt lat="55.693546" lon="26.460230">
<ele>137.072388</ele>
<time>2010-07-18T09:58:50Z</time>
<desc>lat.=55.693546, lon.=26.460230, Alt.=137.072388m. Speed=0.108000m/h.</desc>
<speed>0.030000</speed>
</trkpt>
<trkpt lat="55.693546" lon="26.460230">
<ele>137.091919</ele>
<time>2010-07-18T09:58:51Z</time>
<desc>lat.=55.693546, lon.=26.460230, Alt.=137.091919m. Speed=0.540000m/h.</desc>
<speed>0.150000</speed>
</trkpt>
<trkpt lat="55.693546" lon="26.460232">
<ele>137.080200</ele>
<time>2010-07-18T09:58:52Z</time>
<desc>lat.=55.693546, lon.=26.460232, Alt.=137.080200m. Speed=0.144000m/h.</desc>
<speed>0.040000</speed>
</trkpt>
<trkpt lat="55.693546" lon="26.460232">
<ele>137.064575</ele>
<time>2010-07-18T09:58:53Z</time>
<desc>lat.=55.693546, lon.=26.460232, Alt.=137.064575m. Speed=0.072000m/h.</desc>
<speed>0.020000</speed>
</trkpt>
<trkpt lat="55.693546" lon="26.460232">
<ele>137.060669</ele>
<time>2010-07-18T09:58:54Z</time>
<desc>lat.=55.693546, lon.=26.460232, Alt.=137.060669m. Speed=0.216000m/h.</desc>
<speed>0.060000</speed>
</trkpt>
<trkpt lat="55.693546" lon="26.460232">
<ele>137.060669</ele>
<time>2010-07-18T09:58:55Z</time>
<desc>lat.=55.693546, lon.=26.460232, Alt.=137.060669m. Speed=0.144000m/h.</desc>
<speed>0.040000</speed>
</trkpt>
<trkpt lat="55.693546" lon="26.460232">
<ele>137.056763</ele>
<time>2010-07-18T09:58:56Z</time>
<desc>lat.=55.693546, lon.=26.460232, Alt.=137.056763m. Speed=0.216000m/h.</desc>
<speed>0.060000</speed>
</trkpt>
<trkpt lat="55.693546" lon="26.460232">
<ele>137.052856</ele>
<time>2010-07-18T09:58:57Z</time>
<desc>lat.=55.693546, lon.=26.460232, Alt.=137.052856m. Speed=0.180000m/h.</desc>
<speed>0.050000</speed>
</trkpt>
<trkpt lat="55.693546" lon="26.460232">
<ele>137.048950</ele>
<time>2010-07-18T09:58:58Z</time>
<desc>lat.=55.693546, lon.=26.460232, Alt.=137.048950m. Speed=0.144000m/h.</desc>
<speed>0.040000</speed>
</trkpt>
<trkpt lat="55.693546" lon="26.460234">
<ele>137.048950</ele>
<time>2010-07-18T09:58:59Z</time>
<desc>lat.=55.693546, lon.=26.460234, Alt.=137.048950m. Speed=0.144000m/h.</desc>
<speed>0.040000</speed>
</trkpt>
<trkpt lat="55.693546" lon="26.460234">
<ele>137.041138</ele>
<time>2010-07-18T09:59:00Z</time>
<desc>lat.=55.693546, lon.=26.460234, Alt.=137.041138m. Speed=0.144000m/h.</desc>
<speed>0.040000</speed>
</trkpt>
<trkpt lat="55.693546" lon="26.460234">
<ele>137.037231</ele>
<time>2010-07-18T09:59:01Z</time>
<desc>lat.=55.693546, lon.=26.460234, Alt.=137.037231m. Speed=0.072000m/h.</desc>
<speed>0.020000</speed>
</trkpt>
<trkpt lat="55.693546" lon="26.460234">
<ele>137.037231</ele>
<time>2010-07-18T09:59:02Z</time>
<desc>lat.=55.693546, lon.=26.460234, Alt.=137.037231m. Speed=0.036000m/h.</desc>
<speed>0.010000</speed>
</trkpt>
<trkpt lat="55.693546" lon="26.460234">
<ele>137.037231</ele>
<time>2010-07-18T09:59:03Z</time>
<desc>lat.=55.693546, lon.=26.460234, Alt.=137.037231m. Speed=0.108000m/h.</desc>
<speed>0.030000</speed>
</trkpt>
<trkpt lat="55.693546" lon="26.460234">
<ele>137.037231</ele>
<time>2010-07-18T09:59:04Z</time>
<desc>lat.=55.693546, lon.=26.460234, Alt.=137.037231m. Speed=0.072000m/h.</desc>
<speed>0.020000</speed>
</trkpt>
<trkpt lat="55.693546" lon="26.460234">
<ele>137.048950</ele>
<time>2010-07-18T09:59:05Z</time>
<desc>lat.=55.693546, lon.=26.460234, Alt.=137.048950m. Speed=0.180000m/h.</desc>
<speed>0.050000</speed>
</trkpt>
<trkpt lat="55.693546" lon="26.460236">
<ele>137.041138</ele>
<time>2010-07-18T09:59:06Z</time>
<desc>lat.=55.693546, lon.=26.460236, Alt.=137.041138m. Speed=0.180000m/h.</desc>
<speed>0.050000</speed>
</trkpt>
<trkpt lat="55.693546" lon="26.460234">
<ele>137.041138</ele>
<time>2010-07-18T09:59:07Z</time>
<desc>lat.=55.693546, lon.=26.460234, Alt.=137.041138m. Speed=0.144000m/h.</desc>
<speed>0.040000</speed>
</trkpt>
<trkpt lat="55.693546" lon="26.460236">
<ele>137.037231</ele>
<time>2010-07-18T09:59:08Z</time>
<desc>lat.=55.693546, lon.=26.460236, Alt.=137.037231m. Speed=0.144000m/h.</desc>
<speed>0.040000</speed>
</trkpt>
<trkpt lat="55.693546" lon="26.460234">
<ele>137.041138</ele>
<time>2010-07-18T09:59:09Z</time>
<desc>lat.=55.693546, lon.=26.460234, Alt.=137.041138m. Speed=0.036000m/h.</desc>
<speed>0.010000</speed>
</trkpt>
<trkpt lat="55.693546" lon="26.460234">
<ele>137.045044</ele>
<time>2010-07-18T09:59:10Z</time>
<desc>lat.=55.693546, lon.=26.460234, Alt.=137.045044m. Speed=0.036000m/h.</desc>
<speed>0.010000</speed>
</trkpt>
<trkpt lat="55.693546" lon="26.460234">
<ele>137.045044</ele>
<time>2010-07-18T09:59:11Z</time>
<desc>lat.=55.693546, lon.=26.460234, Alt.=137.045044m. Speed=0.036000m/h.</desc>
<speed>0.010000</speed>
</trkpt>
<trkpt lat="55.693550" lon="26.460234">
<ele>137.041138</ele>
<time>2010-07-18T09:59:12Z</time>
<desc>lat.=55.693550, lon.=26.460234, Alt.=137.041138m. Speed=0.144000m/h.</desc>
<speed>0.040000</speed>
</trkpt>
<trkpt lat="55.693550" lon="26.460234">
<ele>137.041138</ele>
<time>2010-07-18T09:59:13Z</time>
<desc>lat.=55.693550, lon.=26.460234, Alt.=137.041138m. Speed=0.036000m/h.</desc>
<speed>0.010000</speed>
</trkpt>
<trkpt lat="55.693550" lon="26.460234">
<ele>137.037231</ele>
<time>2010-07-18T09:59:14Z</time>
<desc>lat.=55.693550, lon.=26.460234, Alt.=137.037231m. Speed=0.036000m/h.</desc>
<speed>0.010000</speed>
</trkpt>
<trkpt lat="55.693550" lon="26.460234">
<ele>137.033325</ele>
<time>2010-07-18T09:59:15Z</time>
<desc>lat.=55.693550, lon.=26.460234, Alt.=137.033325m. Speed=0.072000m/h.</desc>
<speed>0.020000</speed>
</trkpt>
<trkpt lat="55.693550" lon="26.460234">
<ele>137.033325</ele>
<time>2010-07-18T09:59:16Z</time>
<desc>lat.=55.693550, lon.=26.460234, Alt.=137.033325m. Speed=0.072000m/h.</desc>
<speed>0.020000</speed>
</trkpt>
<trkpt lat="55.693550" lon="26.460234">
<ele>137.029419</ele>
<time>2010-07-18T09:59:17Z</time>
<desc>lat.=55.693550, lon.=26.460234, Alt.=137.029419m. Speed=0.072000m/h.</desc>
<speed>0.020000</speed>
</trkpt>
<trkpt lat="55.693550" lon="26.460234">
<ele>137.025513</ele>
<time>2010-07-18T09:59:18Z</time>
<desc>lat.=55.693550, lon.=26.460234, Alt.=137.025513m. Speed=0.036000m/h.</desc>
<speed>0.010000</speed>
</trkpt>
<trkpt lat="55.693550" lon="26.460234">
<ele>137.025513</ele>
<time>2010-07-18T09:59:19Z</time>
<desc>lat.=55.693550, lon.=26.460234, Alt.=137.025513m. Speed=0.000000m/h.</desc>
<speed>0.000000</speed>
</trkpt>
<trkpt lat="55.693550" lon="26.460234">
<ele>137.025513</ele>
<time>2010-07-18T09:59:20Z</time>
<desc>lat.=55.693550, lon.=26.460234, Alt.=137.025513m. Speed=0.000000m/h.</desc>
<speed>0.000000</speed>
</trkpt>
<trkpt lat="55.693550" lon="26.460234">
<ele>137.029419</ele>
<time>2010-07-18T09:59:21Z</time>
<desc>lat.=55.693550, lon.=26.460234, Alt.=137.029419m. Speed=0.000000m/h.</desc>
<speed>0.000000</speed>
</trkpt>
<trkpt lat="55.693550" lon="26.460234">
<ele>137.021606</ele>
<time>2010-07-18T09:59:22Z</time>
<desc>lat.=55.693550, lon.=26.460234, Alt.=137.021606m. Speed=0.036000m/h.</desc>
<speed>0.010000</speed>
</trkpt>
<trkpt lat="55.693550" lon="26.460234">
<ele>137.025513</ele>
<time>2010-07-18T09:59:23Z</time>
<desc>lat.=55.693550, lon.=26.460234, Alt.=137.025513m. Speed=0.000000m/h.</desc>
<speed>0.000000</speed>
</trkpt>
<trkpt lat="55.693550" lon="26.460234">
<ele>137.029419</ele>
<time>2010-07-18T09:59:24Z</time>
<desc>lat.=55.693550, lon.=26.460234, Alt.=137.029419m. Speed=0.036000m/h.</desc>
<speed>0.010000</speed>
</trkpt>
<trkpt lat="55.693550" lon="26.460234">
<ele>137.033325</ele>
<time>2010-07-18T09:59:25Z</time>
<desc>lat.=55.693550, lon.=26.460234, Alt.=137.033325m. Speed=0.000000m/h.</desc>
<speed>0.000000</speed>
</trkpt>
<trkpt lat="55.693550" lon="26.460234">
<ele>137.033325</ele>
<time>2010-07-18T09:59:26Z</time>
<desc>lat.=55.693550, lon.=26.460234, Alt.=137.033325m. Speed=0.072000m/h.</desc>
<speed>0.020000</speed>
</trkpt>
<trkpt lat="55.693550" lon="26.460234">
<ele>137.029419</ele>
<time>2010-07-18T09:59:27Z</time>
<desc>lat.=55.693550, lon.=26.460234, Alt.=137.029419m. Speed=0.072000m/h.</desc>
<speed>0.020000</speed>
</trkpt>
<trkpt lat="55.693550" lon="26.460234">
<ele>137.025513</ele>
<time>2010-07-18T09:59:28Z</time>
<desc>lat.=55.693550, lon.=26.460234, Alt.=137.025513m. Speed=0.000000m/h.</desc>
<speed>0.000000</speed>
</trkpt>
<trkpt lat="55.693550" lon="26.460234">
<ele>137.017700</ele>
<time>2010-07-18T09:59:29Z</time>
<desc>lat.=55.693550, lon.=26.460234, Alt.=137.017700m. Speed=0.072000m/h.</desc>
<speed>0.020000</speed>
</trkpt>
<trkpt lat="55.693550" lon="26.460234">
<ele>137.009888</ele>
<time>2010-07-18T09:59:30Z</time>
<desc>lat.=55.693550, lon.=26.460234, Alt.=137.009888m. Speed=0.036000m/h.</desc>
<speed>0.010000</speed>
</trkpt>
<trkpt lat="55.693550" lon="26.460234">
<ele>137.005981</ele>
<time>2010-07-18T09:59:31Z</time>
<desc>lat.=55.693550, lon.=26.460234, Alt.=137.005981m. Speed=0.036000m/h.</desc>
<speed>0.010000</speed>
</trkpt>
<trkpt lat="55.693550" lon="26.460234">
<ele>137.002075</ele>
<time>2010-07-18T09:59:32Z</time>
<desc>lat.=55.693550, lon.=26.460234, Alt.=137.002075m. Speed=0.036000m/h.</desc>
<speed>0.010000</speed>
</trkpt>
<trkpt lat="55.693550" lon="26.460234">
<ele>136.994263</ele>
<time>2010-07-18T09:59:33Z</time>
<desc>lat.=55.693550, lon.=26.460234, Alt.=136.994263m. Speed=0.000000m/h.</desc>
<speed>0.000000</speed>
</trkpt>
<trkpt lat="55.693550" lon="26.460234">
<ele>137.002075</ele>
<time>2010-07-18T09:59:34Z</time>
<desc>lat.=55.693550, lon.=26.460234, Alt.=137.002075m. Speed=0.036000m/h.</desc>
<speed>0.010000</speed>
</trkpt>
<trkpt lat="55.693550" lon="26.460234">
<ele>136.998169</ele>
<time>2010-07-18T09:59:35Z</time>
<desc>lat.=55.693550, lon.=26.460234, Alt.=136.998169m. Speed=0.072000m/h.</desc>
<speed>0.020000</speed>
</trkpt>
<trkpt lat="55.693550" lon="26.460234">
<ele>137.002075</ele>
<time>2010-07-18T09:59:36Z</time>
<desc>lat.=55.693550, lon.=26.460234, Alt.=137.002075m. Speed=0.036000m/h.</desc>
<speed>0.010000</speed>
</trkpt>
<trkpt lat="55.693550" lon="26.460234">
<ele>137.005981</ele>
<time>2010-07-18T09:59:37Z</time>
<desc>lat.=55.693550, lon.=26.460234, Alt.=137.005981m. Speed=0.000000m/h.</desc>
<speed>0.000000</speed>
</trkpt>
<trkpt lat="55.693550" lon="26.460234">
<ele>137.021606</ele>
<time>2010-07-18T09:59:38Z</time>
<desc>lat.=55.693550, lon.=26.460234, Alt.=137.021606m. Speed=0.036000m/h.</desc>
<speed>0.010000</speed>
</trkpt>
<trkpt lat="55.693550" lon="26.460234">
<ele>137.037231</ele>
<time>2010-07-18T09:59:39Z</time>
<desc>lat.=55.693550, lon.=26.460234, Alt.=137.037231m. Speed=0.036000m/h.</desc>
<speed>0.010000</speed>
</trkpt>
<trkpt lat="55.693550" lon="26.460234">
<ele>137.045044</ele>
<time>2010-07-18T09:59:40Z</time>
<desc>lat.=55.693550, lon.=26.460234, Alt.=137.045044m. Speed=0.036000m/h.</desc>
<speed>0.010000</speed>
</trkpt>
<trkpt lat="55.693550" lon="26.460234">
<ele>137.052856</ele>
<time>2010-07-18T09:59:41Z</time>
<desc>lat.=55.693550, lon.=26.460234, Alt.=137.052856m. Speed=0.036000m/h.</desc>
<speed>0.010000</speed>
</trkpt>
<trkpt lat="55.693550" lon="26.460234">
<ele>137.060669</ele>
<time>2010-07-18T09:59:42Z</time>
<desc>lat.=55.693550, lon.=26.460234, Alt.=137.060669m. Speed=0.000000m/h.</desc>
<speed>0.000000</speed>
</trkpt>
<trkpt lat="55.693550" lon="26.460234">
<ele>137.056763</ele>
<time>2010-07-18T09:59:43Z</time>
<desc>lat.=55.693550, lon.=26.460234, Alt.=137.056763m. Speed=0.000000m/h.</desc>
<speed>0.000000</speed>
</trkpt>
<trkpt lat="55.693550" lon="26.460234">
<ele>137.052856</ele>
<time>2010-07-18T09:59:44Z</time>
<desc>lat.=55.693550, lon.=26.460234, Alt.=137.052856m. Speed=0.036000m/h.</desc>
<speed>0.010000</speed>
</trkpt>
<trkpt lat="55.693550" lon="26.460234">
<ele>137.048950</ele>
<time>2010-07-18T09:59:45Z</time>
<desc>lat.=55.693550, lon.=26.460234, Alt.=137.048950m. Speed=0.036000m/h.</desc>
<speed>0.010000</speed>
</trkpt>
<trkpt lat="55.693550" lon="26.460234">
<ele>137.041138</ele>
<time>2010-07-18T09:59:46Z</time>
<desc>lat.=55.693550, lon.=26.460234, Alt.=137.041138m. Speed=0.036000m/h.</desc>
<speed>0.010000</speed>
</trkpt>
<trkpt lat="55.693550" lon="26.460234">
<ele>137.033325</ele>
<time>2010-07-18T09:59:47Z</time>
<desc>lat.=55.693550, lon.=26.460234, Alt.=137.033325m. Speed=0.036000m/h.</desc>
<speed>0.010000</speed>
</trkpt>
<trkpt lat="55.693550" lon="26.460234">
<ele>137.033325</ele>
<time>2010-07-18T09:59:48Z</time>
<desc>lat.=55.693550, lon.=26.460234, Alt.=137.033325m. Speed=0.036000m/h.</desc>
<speed>0.010000</speed>
</trkpt>
<trkpt lat="55.693550" lon="26.460234">
<ele>137.029419</ele>
<time>2010-07-18T09:59:49Z</time>
<desc>lat.=55.693550, lon.=26.460234, Alt.=137.029419m. Speed=0.036000m/h.</desc>
<speed>0.010000</speed>
</trkpt>
<trkpt lat="55.693550" lon="26.460234">
<ele>137.021606</ele>
<time>2010-07-18T09:59:50Z</time>
<desc>lat.=55.693550, lon.=26.460234, Alt.=137.021606m. Speed=0.036000m/h.</desc>
<speed>0.010000</speed>
</trkpt>
<trkpt lat="55.693550" lon="26.460234">
<ele>137.021606</ele>
<time>2010-07-18T09:59:51Z</time>
<desc>lat.=55.693550, lon.=26.460234, Alt.=137.021606m. Speed=0.036000m/h.</desc>
<speed>0.010000</speed>
</trkpt>
<trkpt lat="55.693550" lon="26.460234">
<ele>137.021606</ele>
<time>2010-07-18T09:59:52Z</time>
<desc>lat.=55.693550, lon.=26.460234, Alt.=137.021606m. Speed=0.000000m/h.</desc>
<speed>0.000000</speed>
</trkpt>
<trkpt lat="55.693550" lon="26.460234">
<ele>137.013794</ele>
<time>2010-07-18T09:59:53Z</time>
<desc>lat.=55.693550, lon.=26.460234, Alt.=137.013794m. Speed=0.000000m/h.</desc>
<speed>0.000000</speed>
</trkpt>
<trkpt lat="55.693550" lon="26.460234">
<ele>136.998169</ele>
<time>2010-07-18T09:59:54Z</time>
<desc>lat.=55.693550, lon.=26.460234, Alt.=136.998169m. Speed=0.036000m/h.</desc>
<speed>0.010000</speed>
</trkpt>
<trkpt lat="55.693550" lon="26.460234">
<ele>136.994263</ele>
<time>2010-07-18T09:59:55Z</time>
<desc>lat.=55.693550, lon.=26.460234, Alt.=136.994263m. Speed=0.144000m/h.</desc>
<speed>0.040000</speed>
</trkpt>
<trkpt lat="55.693550" lon="26.460234">
<ele>136.982544</ele>
<time>2010-07-18T09:59:56Z</time>
<desc>lat.=55.693550, lon.=26.460234, Alt.=136.982544m. Speed=0.072000m/h.</desc>
<speed>0.020000</speed>
</trkpt>
<trkpt lat="55.693550" lon="26.460234">
<ele>136.966919</ele>
<time>2010-07-18T09:59:57Z</time>
<desc>lat.=55.693550, lon.=26.460234, Alt.=136.966919m. Speed=0.036000m/h.</desc>
<speed>0.010000</speed>
</trkpt>
<trkpt lat="55.693550" lon="26.460234">
<ele>136.963013</ele>
<time>2010-07-18T09:59:58Z</time>
<desc>lat.=55.693550, lon.=26.460234, Alt.=136.963013m. Speed=0.000000m/h.</desc>
<speed>0.000000</speed>
</trkpt>
<trkpt lat="55.693550" lon="26.460234">
<ele>136.959106</ele>
<time>2010-07-18T09:59:59Z</time>
<desc>lat.=55.693550, lon.=26.460234, Alt.=136.959106m. Speed=0.072000m/h.</desc>
<speed>0.020000</speed>
</trkpt>
<trkpt lat="55.693550" lon="26.460234">
<ele>136.947388</ele>
<time>2010-07-18T10:00:00Z</time>
<desc>lat.=55.693550, lon.=26.460234, Alt.=136.947388m. Speed=0.036000m/h.</desc>
<speed>0.010000</speed>
</trkpt>
<trkpt lat="55.693550" lon="26.460234">
<ele>136.939575</ele>
<time>2010-07-18T10:00:01Z</time>
<desc>lat.=55.693550, lon.=26.460234, Alt.=136.939575m. Speed=0.000000m/h.</desc>
<speed>0.000000</speed>
</trkpt>
<trkpt lat="55.693550" lon="26.460234">
<ele>136.947388</ele>
<time>2010-07-18T10:00:02Z</time>
<desc>lat.=55.693550, lon.=26.460234, Alt.=136.947388m. Speed=0.180000m/h.</desc>
<speed>0.050000</speed>
</trkpt>
<trkpt lat="55.693550" lon="26.460234">
<ele>136.947388</ele>
<time>2010-07-18T10:00:03Z</time>
<desc>lat.=55.693550, lon.=26.460234, Alt.=136.947388m. Speed=0.000000m/h.</desc>
<speed>0.000000</speed>
</trkpt>
<trkpt lat="55.693550" lon="26.460234">
<ele>136.943481</ele>
<time>2010-07-18T10:00:04Z</time>
<desc>lat.=55.693550, lon.=26.460234, Alt.=136.943481m. Speed=0.036000m/h.</desc>
<speed>0.010000</speed>
</trkpt>
<trkpt lat="55.693550" lon="26.460234">
<ele>136.951294</ele>
<time>2010-07-18T10:00:05Z</time>
<desc>lat.=55.693550, lon.=26.460234, Alt.=136.951294m. Speed=0.072000m/h.</desc>
<speed>0.020000</speed>
</trkpt>
<trkpt lat="55.693550" lon="26.460234">
<ele>136.955200</ele>
<time>2010-07-18T10:00:06Z</time>
<desc>lat.=55.693550, lon.=26.460234, Alt.=136.955200m. Speed=0.072000m/h.</desc>
<speed>0.020000</speed>
</trkpt>
<trkpt lat="55.693550" lon="26.460234">
<ele>136.955200</ele>
<time>2010-07-18T10:00:07Z</time>
<desc>lat.=55.693550, lon.=26.460234, Alt.=136.955200m. Speed=0.000000m/h.</desc>
<speed>0.000000</speed>
</trkpt>
<trkpt lat="55.693550" lon="26.460234">
<ele>136.959106</ele>
<time>2010-07-18T10:00:08Z</time>
<desc>lat.=55.693550, lon.=26.460234, Alt.=136.959106m. Speed=0.072000m/h.</desc>
<speed>0.020000</speed>
</trkpt>
<trkpt lat="55.693550" lon="26.460236">
<ele>136.966919</ele>
<time>2010-07-18T10:00:09Z</time>
<desc>lat.=55.693550, lon.=26.460236, Alt.=136.966919m. Speed=0.180000m/h.</desc>
<speed>0.050000</speed>
</trkpt>
<trkpt lat="55.693550" lon="26.460236">
<ele>136.974731</ele>
<time>2010-07-18T10:00:10Z</time>
<desc>lat.=55.693550, lon.=26.460236, Alt.=136.974731m. Speed=0.180000m/h.</desc>
<speed>0.050000</speed>
</trkpt>
<trkpt lat="55.693550" lon="26.460236">
<ele>136.978638</ele>
<time>2010-07-18T10:00:11Z</time>
<desc>lat.=55.693550, lon.=26.460236, Alt.=136.978638m. Speed=0.072000m/h.</desc>
<speed>0.020000</speed>
</trkpt>
<trkpt lat="55.693550" lon="26.460236">
<ele>136.978638</ele>
<time>2010-07-18T10:00:12Z</time>
<desc>lat.=55.693550, lon.=26.460236, Alt.=136.978638m. Speed=0.036000m/h.</desc>
<speed>0.010000</speed>
</trkpt>
<trkpt lat="55.693550" lon="26.460236">
<ele>136.978638</ele>
<time>2010-07-18T10:00:13Z</time>
<desc>lat.=55.693550, lon.=26.460236, Alt.=136.978638m. Speed=0.036000m/h.</desc>
<speed>0.010000</speed>
</trkpt>
<trkpt lat="55.693550" lon="26.460236">
<ele>136.978638</ele>
<time>2010-07-18T10:00:14Z</time>
<desc>lat.=55.693550, lon.=26.460236, Alt.=136.978638m. Speed=0.000000m/h.</desc>
<speed>0.000000</speed>
</trkpt>
<trkpt lat="55.693550" lon="26.460236">
<ele>136.974731</ele>
<time>2010-07-18T10:00:15Z</time>
<desc>lat.=55.693550, lon.=26.460236, Alt.=136.974731m. Speed=0.108000m/h.</desc>
<speed>0.030000</speed>
</trkpt>
<trkpt lat="55.693554" lon="26.460236">
<ele>136.982544</ele>
<time>2010-07-18T10:00:16Z</time>
<desc>lat.=55.693554, lon.=26.460236, Alt.=136.982544m. Speed=0.216000m/h.</desc>
<speed>0.060000</speed>
</trkpt>
<trkpt lat="55.693554" lon="26.460236">
<ele>136.982544</ele>
<time>2010-07-18T10:00:17Z</time>
<desc>lat.=55.693554, lon.=26.460236, Alt.=136.982544m. Speed=0.144000m/h.</desc>
<speed>0.040000</speed>
</trkpt>
<trkpt lat="55.693554" lon="26.460236">
<ele>136.990356</ele>
<time>2010-07-18T10:00:18Z</time>
<desc>lat.=55.693554, lon.=26.460236, Alt.=136.990356m. Speed=0.324000m/h.</desc>
<speed>0.090000</speed>
</trkpt>
<trkpt lat="55.693554" lon="26.460236">
<ele>136.998169</ele>
<time>2010-07-18T10:00:19Z</time>
<desc>lat.=55.693554, lon.=26.460236, Alt.=136.998169m. Speed=0.216000m/h.</desc>
<speed>0.060000</speed>
</trkpt>
<trkpt lat="55.693554" lon="26.460236">
<ele>137.002075</ele>
<time>2010-07-18T10:00:20Z</time>
<desc>lat.=55.693554, lon.=26.460236, Alt.=137.002075m. Speed=0.144000m/h.</desc>
<speed>0.040000</speed>
</trkpt>
<trkpt lat="55.693554" lon="26.460238">
<ele>137.009888</ele>
<time>2010-07-18T10:00:21Z</time>
<desc>lat.=55.693554, lon.=26.460238, Alt.=137.009888m. Speed=0.180000m/h.</desc>
<speed>0.050000</speed>
</trkpt>
<trkpt lat="55.693554" lon="26.460238">
<ele>137.017700</ele>
<time>2010-07-18T10:00:22Z</time>
<desc>lat.=55.693554, lon.=26.460238, Alt.=137.017700m. Speed=0.108000m/h.</desc>
<speed>0.030000</speed>
</trkpt>
<trkpt lat="55.693554" lon="26.460238">
<ele>137.021606</ele>
<time>2010-07-18T10:00:23Z</time>
<desc>lat.=55.693554, lon.=26.460238, Alt.=137.021606m. Speed=0.108000m/h.</desc>
<speed>0.030000</speed>
</trkpt>
<trkpt lat="55.693554" lon="26.460238">
<ele>137.025513</ele>
<time>2010-07-18T10:00:24Z</time>
<desc>lat.=55.693554, lon.=26.460238, Alt.=137.025513m. Speed=0.216000m/h.</desc>
<speed>0.060000</speed>
</trkpt>
<trkpt lat="55.693554" lon="26.460238">
<ele>137.033325</ele>
<time>2010-07-18T10:00:25Z</time>
<desc>lat.=55.693554, lon.=26.460238, Alt.=137.033325m. Speed=0.324000m/h.</desc>
<speed>0.090000</speed>
</trkpt>
<trkpt lat="55.693554" lon="26.460238">
<ele>137.037231</ele>
<time>2010-07-18T10:00:26Z</time>
<desc>lat.=55.693554, lon.=26.460238, Alt.=137.037231m. Speed=0.252000m/h.</desc>
<speed>0.070000</speed>
</trkpt>
<trkpt lat="55.693554" lon="26.460238">
<ele>137.045044</ele>
<time>2010-07-18T10:00:27Z</time>
<desc>lat.=55.693554, lon.=26.460238, Alt.=137.045044m. Speed=0.216000m/h.</desc>
<speed>0.060000</speed>
</trkpt>
<trkpt lat="55.693554" lon="26.460238">
<ele>137.048950</ele>
<time>2010-07-18T10:00:28Z</time>
<desc>lat.=55.693554, lon.=26.460238, Alt.=137.048950m. Speed=0.216000m/h.</desc>
<speed>0.060000</speed>
</trkpt>
<trkpt lat="55.693554" lon="26.460239">
<ele>137.048950</ele>
<time>2010-07-18T10:00:29Z</time>
<desc>lat.=55.693554, lon.=26.460239, Alt.=137.048950m. Speed=0.036000m/h.</desc>
<speed>0.010000</speed>
</trkpt>
<trkpt lat="55.693554" lon="26.460239">
<ele>137.052856</ele>
<time>2010-07-18T10:00:30Z</time>
<desc>lat.=55.693554, lon.=26.460239, Alt.=137.052856m. Speed=0.144000m/h.</desc>
<speed>0.040000</speed>
</trkpt>
<trkpt lat="55.693558" lon="26.460239">
<ele>137.056763</ele>
<time>2010-07-18T10:00:31Z</time>
<desc>lat.=55.693558, lon.=26.460239, Alt.=137.056763m. Speed=0.180000m/h.</desc>
<speed>0.050000</speed>
</trkpt>
<trkpt lat="55.693558" lon="26.460239">
<ele>137.060669</ele>
<time>2010-07-18T10:00:32Z</time>
<desc>lat.=55.693558, lon.=26.460239, Alt.=137.060669m. Speed=0.252000m/h.</desc>
<speed>0.070000</speed>
</trkpt>
<trkpt lat="55.693558" lon="26.460239">
<ele>137.060669</ele>
<time>2010-07-18T10:00:33Z</time>
<desc>lat.=55.693558, lon.=26.460239, Alt.=137.060669m. Speed=0.180000m/h.</desc>
<speed>0.050000</speed>
</trkpt>
<trkpt lat="55.693558" lon="26.460239">
<ele>137.060669</ele>
<time>2010-07-18T10:00:34Z</time>
<desc>lat.=55.693558, lon.=26.460239, Alt.=137.060669m. Speed=0.000000m/h.</desc>
<speed>0.000000</speed>
</trkpt>
<trkpt lat="55.693558" lon="26.460241">
<ele>137.064575</ele>
<time>2010-07-18T10:00:35Z</time>
<desc>lat.=55.693558, lon.=26.460241, Alt.=137.064575m. Speed=0.180000m/h.</desc>
<speed>0.050000</speed>
</trkpt>
<trkpt lat="55.693558" lon="26.460241">
<ele>137.068481</ele>
<time>2010-07-18T10:00:36Z</time>
<desc>lat.=55.693558, lon.=26.460241, Alt.=137.068481m. Speed=0.144000m/h.</desc>
<speed>0.040000</speed>
</trkpt>
<trkpt lat="55.693558" lon="26.460241">
<ele>137.068481</ele>
<time>2010-07-18T10:00:37Z</time>
<desc>lat.=55.693558, lon.=26.460241, Alt.=137.068481m. Speed=0.036000m/h.</desc>
<speed>0.010000</speed>
</trkpt>
<trkpt lat="55.693562" lon="26.460241">
<ele>137.068481</ele>
<time>2010-07-18T10:00:38Z</time>
<desc>lat.=55.693562, lon.=26.460241, Alt.=137.068481m. Speed=0.000000m/h.</desc>
<speed>0.000000</speed>
</trkpt>
<trkpt lat="55.693562" lon="26.460241">
<ele>137.064575</ele>
<time>2010-07-18T10:00:39Z</time>
<desc>lat.=55.693562, lon.=26.460241, Alt.=137.064575m. Speed=0.144000m/h.</desc>
<speed>0.040000</speed>
</trkpt>
<trkpt lat="55.693562" lon="26.460241">
<ele>137.064575</ele>
<time>2010-07-18T10:00:40Z</time>
<desc>lat.=55.693562, lon.=26.460241, Alt.=137.064575m. Speed=0.072000m/h.</desc>
<speed>0.020000</speed>
</trkpt>
<trkpt lat="55.693562" lon="26.460241">
<ele>137.064575</ele>
<time>2010-07-18T10:00:41Z</time>
<desc>lat.=55.693562, lon.=26.460241, Alt.=137.064575m. Speed=0.144000m/h.</desc>
<speed>0.040000</speed>
</trkpt>
<trkpt lat="55.693562" lon="26.460241">
<ele>137.064575</ele>
<time>2010-07-18T10:00:42Z</time>
<desc>lat.=55.693562, lon.=26.460241, Alt.=137.064575m. Speed=0.072000m/h.</desc>
<speed>0.020000</speed>
</trkpt>
<trkpt lat="55.693562" lon="26.460241">
<ele>137.060669</ele>
<time>2010-07-18T10:00:43Z</time>
<desc>lat.=55.693562, lon.=26.460241, Alt.=137.060669m. Speed=0.000000m/h.</desc>
<speed>0.000000</speed>
</trkpt>
<trkpt lat="55.693562" lon="26.460241">
<ele>137.060669</ele>
<time>2010-07-18T10:00:44Z</time>
<desc>lat.=55.693562, lon.=26.460241, Alt.=137.060669m. Speed=0.108000m/h.</desc>
<speed>0.030000</speed>
</trkpt>
<trkpt lat="55.693562" lon="26.460243">
<ele>137.060669</ele>
<time>2010-07-18T10:00:45Z</time>
<desc>lat.=55.693562, lon.=26.460243, Alt.=137.060669m. Speed=0.108000m/h.</desc>
<speed>0.030000</speed>
</trkpt>
<trkpt lat="55.693562" lon="26.460243">
<ele>137.064575</ele>
<time>2010-07-18T10:00:46Z</time>
<desc>lat.=55.693562, lon.=26.460243, Alt.=137.064575m. Speed=0.072000m/h.</desc>
<speed>0.020000</speed>
</trkpt>
<trkpt lat="55.693562" lon="26.460243">
<ele>137.060669</ele>
<time>2010-07-18T10:00:47Z</time>
<desc>lat.=55.693562, lon.=26.460243, Alt.=137.060669m. Speed=0.108000m/h.</desc>
<speed>0.030000</speed>
</trkpt>
<trkpt lat="55.693562" lon="26.460243">
<ele>137.060669</ele>
<time>2010-07-18T10:00:48Z</time>
<desc>lat.=55.693562, lon.=26.460243, Alt.=137.060669m. Speed=0.144000m/h.</desc>
<speed>0.040000</speed>
</trkpt>
<trkpt lat="55.693562" lon="26.460243">
<ele>137.060669</ele>
<time>2010-07-18T10:00:49Z</time>
<desc>lat.=55.693562, lon.=26.460243, Alt.=137.060669m. Speed=0.072000m/h.</desc>
<speed>0.020000</speed>
</trkpt>
<trkpt lat="55.693562" lon="26.460243">
<ele>137.056763</ele>
<time>2010-07-18T10:00:50Z</time>
<desc>lat.=55.693562, lon.=26.460243, Alt.=137.056763m. Speed=0.036000m/h.</desc>
<speed>0.010000</speed>
</trkpt>
<trkpt lat="55.693562" lon="26.460243">
<ele>137.056763</ele>
<time>2010-07-18T10:00:51Z</time>
<desc>lat.=55.693562, lon.=26.460243, Alt.=137.056763m. Speed=0.108000m/h.</desc>
<speed>0.030000</speed>
</trkpt>
<trkpt lat="55.693562" lon="26.460243">
<ele>137.052856</ele>
<time>2010-07-18T10:00:52Z</time>
<desc>lat.=55.693562, lon.=26.460243, Alt.=137.052856m. Speed=0.180000m/h.</desc>
<speed>0.050000</speed>
</trkpt>
<trkpt lat="55.693562" lon="26.460243">
<ele>137.048950</ele>
<time>2010-07-18T10:00:53Z</time>
<desc>lat.=55.693562, lon.=26.460243, Alt.=137.048950m. Speed=0.036000m/h.</desc>
<speed>0.010000</speed>
</trkpt>
<trkpt lat="55.693562" lon="26.460243">
<ele>137.045044</ele>
<time>2010-07-18T10:00:54Z</time>
<desc>lat.=55.693562, lon.=26.460243, Alt.=137.045044m. Speed=0.108000m/h.</desc>
<speed>0.030000</speed>
</trkpt>
<trkpt lat="55.693562" lon="26.460243">
<ele>137.041138</ele>
<time>2010-07-18T10:00:55Z</time>
<desc>lat.=55.693562, lon.=26.460243, Alt.=137.041138m. Speed=0.000000m/h.</desc>
<speed>0.000000</speed>
</trkpt>
<trkpt lat="55.693562" lon="26.460243">
<ele>137.037231</ele>
<time>2010-07-18T10:00:56Z</time>
<desc>lat.=55.693562, lon.=26.460243, Alt.=137.037231m. Speed=0.108000m/h.</desc>
<speed>0.030000</speed>
</trkpt>
<trkpt lat="55.693562" lon="26.460245">
<ele>137.033325</ele>
<time>2010-07-18T10:00:57Z</time>
<desc>lat.=55.693562, lon.=26.460245, Alt.=137.033325m. Speed=0.144000m/h.</desc>
<speed>0.040000</speed>
</trkpt>
<trkpt lat="55.693565" lon="26.460245">
<ele>137.029419</ele>
<time>2010-07-18T10:00:58Z</time>
<desc>lat.=55.693565, lon.=26.460245, Alt.=137.029419m. Speed=0.072000m/h.</desc>
<speed>0.020000</speed>
</trkpt>
<trkpt lat="55.693565" lon="26.460245">
<ele>137.029419</ele>
<time>2010-07-18T10:00:59Z</time>
<desc>lat.=55.693565, lon.=26.460245, Alt.=137.029419m. Speed=0.108000m/h.</desc>
<speed>0.030000</speed>
</trkpt>
<trkpt lat="55.693565" lon="26.460245">
<ele>137.029419</ele>
<time>2010-07-18T10:01:00Z</time>
<desc>lat.=55.693565, lon.=26.460245, Alt.=137.029419m. Speed=0.216000m/h.</desc>
<speed>0.060000</speed>
</trkpt>
<trkpt lat="55.693565" lon="26.460245">
<ele>137.025513</ele>
<time>2010-07-18T10:01:01Z</time>
<desc>lat.=55.693565, lon.=26.460245, Alt.=137.025513m. Speed=0.180000m/h.</desc>
<speed>0.050000</speed>
</trkpt>
<trkpt lat="55.693565" lon="26.460245">
<ele>137.025513</ele>
<time>2010-07-18T10:01:02Z</time>
<desc>lat.=55.693565, lon.=26.460245, Alt.=137.025513m. Speed=0.072000m/h.</desc>
<speed>0.020000</speed>
</trkpt>
<trkpt lat="55.693565" lon="26.460245">
<ele>137.025513</ele>
<time>2010-07-18T10:01:03Z</time>
<desc>lat.=55.693565, lon.=26.460245, Alt.=137.025513m. Speed=0.216000m/h.</desc>
<speed>0.060000</speed>
</trkpt>
<trkpt lat="55.693565" lon="26.460245">
<ele>137.021606</ele>
<time>2010-07-18T10:01:04Z</time>
<desc>lat.=55.693565, lon.=26.460245, Alt.=137.021606m. Speed=0.180000m/h.</desc>
<speed>0.050000</speed>
</trkpt>
<trkpt lat="55.693565" lon="26.460245">
<ele>137.013794</ele>
<time>2010-07-18T10:01:05Z</time>
<desc>lat.=55.693565, lon.=26.460245, Alt.=137.013794m. Speed=0.144000m/h.</desc>
<speed>0.040000</speed>
</trkpt>
<trkpt lat="55.693565" lon="26.460247">
<ele>137.005981</ele>
<time>2010-07-18T10:01:06Z</time>
<desc>lat.=55.693565, lon.=26.460247, Alt.=137.005981m. Speed=0.144000m/h.</desc>
<speed>0.040000</speed>
</trkpt>
<trkpt lat="55.693565" lon="26.460247">
<ele>137.002075</ele>
<time>2010-07-18T10:01:07Z</time>
<desc>lat.=55.693565, lon.=26.460247, Alt.=137.002075m. Speed=0.180000m/h.</desc>
<speed>0.050000</speed>
</trkpt>
<trkpt lat="55.693565" lon="26.460247">
<ele>136.994263</ele>
<time>2010-07-18T10:01:08Z</time>
<desc>lat.=55.693565, lon.=26.460247, Alt.=136.994263m. Speed=0.180000m/h.</desc>
<speed>0.050000</speed>
</trkpt>
<trkpt lat="55.693565" lon="26.460247">
<ele>136.990356</ele>
<time>2010-07-18T10:01:09Z</time>
<desc>lat.=55.693565, lon.=26.460247, Alt.=136.990356m. Speed=0.180000m/h.</desc>
<speed>0.050000</speed>
</trkpt>
<trkpt lat="55.693565" lon="26.460247">
<ele>136.986450</ele>
<time>2010-07-18T10:01:10Z</time>
<desc>lat.=55.693565, lon.=26.460247, Alt.=136.986450m. Speed=0.144000m/h.</desc>
<speed>0.040000</speed>
</trkpt>
<trkpt lat="55.693565" lon="26.460247">
<ele>136.986450</ele>
<time>2010-07-18T10:01:11Z</time>
<desc>lat.=55.693565, lon.=26.460247, Alt.=136.986450m. Speed=0.252000m/h.</desc>
<speed>0.070000</speed>
</trkpt>
<trkpt lat="55.693565" lon="26.460247">
<ele>136.982544</ele>
<time>2010-07-18T10:01:12Z</time>
<desc>lat.=55.693565, lon.=26.460247, Alt.=136.982544m. Speed=0.180000m/h.</desc>
<speed>0.050000</speed>
</trkpt>
<trkpt lat="55.693565" lon="26.460247">
<ele>136.982544</ele>
<time>2010-07-18T10:01:13Z</time>
<desc>lat.=55.693565, lon.=26.460247, Alt.=136.982544m. Speed=0.072000m/h.</desc>
<speed>0.020000</speed>
</trkpt>
<trkpt lat="55.693565" lon="26.460249">
<ele>136.982544</ele>
<time>2010-07-18T10:01:14Z</time>
<desc>lat.=55.693565, lon.=26.460249, Alt.=136.982544m. Speed=0.036000m/h.</desc>
<speed>0.010000</speed>
</trkpt>
<trkpt lat="55.693565" lon="26.460249">
<ele>136.982544</ele>
<time>2010-07-18T10:01:15Z</time>
<desc>lat.=55.693565, lon.=26.460249, Alt.=136.982544m. Speed=0.036000m/h.</desc>
<speed>0.010000</speed>
</trkpt>
<trkpt lat="55.693565" lon="26.460249">
<ele>136.982544</ele>
<time>2010-07-18T10:01:16Z</time>
<desc>lat.=55.693565, lon.=26.460249, Alt.=136.982544m. Speed=0.000000m/h.</desc>
<speed>0.000000</speed>
</trkpt>
<trkpt lat="55.693565" lon="26.460249">
<ele>136.982544</ele>
<time>2010-07-18T10:01:17Z</time>
<desc>lat.=55.693565, lon.=26.460249, Alt.=136.982544m. Speed=0.000000m/h.</desc>
<speed>0.000000</speed>
</trkpt>
<trkpt lat="55.693565" lon="26.460249">
<ele>136.982544</ele>
<time>2010-07-18T10:01:18Z</time>
<desc>lat.=55.693565, lon.=26.460249, Alt.=136.982544m. Speed=0.108000m/h.</desc>
<speed>0.030000</speed>
</trkpt>
<trkpt lat="55.693569" lon="26.460249">
<ele>136.978638</ele>
<time>2010-07-18T10:01:19Z</time>
<desc>lat.=55.693569, lon.=26.460249, Alt.=136.978638m. Speed=0.072000m/h.</desc>
<speed>0.020000</speed>
</trkpt>
<trkpt lat="55.693569" lon="26.460249">
<ele>136.978638</ele>
<time>2010-07-18T10:01:20Z</time>
<desc>lat.=55.693569, lon.=26.460249, Alt.=136.978638m. Speed=0.000000m/h.</desc>
<speed>0.000000</speed>
</trkpt>
<trkpt lat="55.693569" lon="26.460249">
<ele>136.974731</ele>
<time>2010-07-18T10:01:21Z</time>
<desc>lat.=55.693569, lon.=26.460249, Alt.=136.974731m. Speed=0.000000m/h.</desc>
<speed>0.000000</speed>
</trkpt>
<trkpt lat="55.693569" lon="26.460249">
<ele>136.974731</ele>
<time>2010-07-18T10:01:22Z</time>
<desc>lat.=55.693569, lon.=26.460249, Alt.=136.974731m. Speed=0.072000m/h.</desc>
<speed>0.020000</speed>
</trkpt>
<trkpt lat="55.693569" lon="26.460249">
<ele>136.974731</ele>
<time>2010-07-18T10:01:23Z</time>
<desc>lat.=55.693569, lon.=26.460249, Alt.=136.974731m. Speed=0.144000m/h.</desc>
<speed>0.040000</speed>
</trkpt>
<trkpt lat="55.693569" lon="26.460249">
<ele>136.970825</ele>
<time>2010-07-18T10:01:24Z</time>
<desc>lat.=55.693569, lon.=26.460249, Alt.=136.970825m. Speed=0.108000m/h.</desc>
<speed>0.030000</speed>
</trkpt>
<trkpt lat="55.693569" lon="26.460249">
<ele>136.970825</ele>
<time>2010-07-18T10:01:25Z</time>
<desc>lat.=55.693569, lon.=26.460249, Alt.=136.970825m. Speed=0.144000m/h.</desc>
<speed>0.040000</speed>
</trkpt>
<trkpt lat="55.693569" lon="26.460249">
<ele>136.974731</ele>
<time>2010-07-18T10:01:26Z</time>
<desc>lat.=55.693569, lon.=26.460249, Alt.=136.974731m. Speed=0.108000m/h.</desc>
<speed>0.030000</speed>
</trkpt>
<trkpt lat="55.693569" lon="26.460249">
<ele>136.982544</ele>
<time>2010-07-18T10:01:27Z</time>
<desc>lat.=55.693569, lon.=26.460249, Alt.=136.982544m. Speed=0.108000m/h.</desc>
<speed>0.030000</speed>
</trkpt>
<trkpt lat="55.693569" lon="26.460249">
<ele>136.986450</ele>
<time>2010-07-18T10:01:28Z</time>
<desc>lat.=55.693569, lon.=26.460249, Alt.=136.986450m. Speed=0.072000m/h.</desc>
<speed>0.020000</speed>
</trkpt>
<trkpt lat="55.693569" lon="26.460249">
<ele>136.990356</ele>
<time>2010-07-18T10:01:29Z</time>
<desc>lat.=55.693569, lon.=26.460249, Alt.=136.990356m. Speed=0.144000m/h.</desc>
<speed>0.040000</speed>
</trkpt>
<trkpt lat="55.693569" lon="26.460251">
<ele>136.994263</ele>
<time>2010-07-18T10:01:30Z</time>
<desc>lat.=55.693569, lon.=26.460251, Alt.=136.994263m. Speed=0.108000m/h.</desc>
<speed>0.030000</speed>
</trkpt>
<trkpt lat="55.693569" lon="26.460251">
<ele>136.990356</ele>
<time>2010-07-18T10:01:31Z</time>
<desc>lat.=55.693569, lon.=26.460251, Alt.=136.990356m. Speed=0.180000m/h.</desc>
<speed>0.050000</speed>
</trkpt>
<trkpt lat="55.693569" lon="26.460251">
<ele>136.990356</ele>
<time>2010-07-18T10:01:32Z</time>
<desc>lat.=55.693569, lon.=26.460251, Alt.=136.990356m. Speed=0.144000m/h.</desc>
<speed>0.040000</speed>
</trkpt>
<trkpt lat="55.693569" lon="26.460251">
<ele>136.990356</ele>
<time>2010-07-18T10:01:33Z</time>
<desc>lat.=55.693569, lon.=26.460251, Alt.=136.990356m. Speed=0.180000m/h.</desc>
<speed>0.050000</speed>
</trkpt>
<trkpt lat="55.693569" lon="26.460251">
<ele>136.986450</ele>
<time>2010-07-18T10:01:34Z</time>
<desc>lat.=55.693569, lon.=26.460251, Alt.=136.986450m. Speed=0.108000m/h.</desc>
<speed>0.030000</speed>
</trkpt>
<trkpt lat="55.693569" lon="26.460251">
<ele>136.986450</ele>
<time>2010-07-18T10:01:35Z</time>
<desc>lat.=55.693569, lon.=26.460251, Alt.=136.986450m. Speed=0.072000m/h.</desc>
<speed>0.020000</speed>
</trkpt>
<trkpt lat="55.693569" lon="26.460251">
<ele>136.986450</ele>
<time>2010-07-18T10:01:36Z</time>
<desc>lat.=55.693569, lon.=26.460251, Alt.=136.986450m. Speed=0.036000m/h.</desc>
<speed>0.010000</speed>
</trkpt>
<trkpt lat="55.693569" lon="26.460251">
<ele>136.990356</ele>
<time>2010-07-18T10:01:37Z</time>
<desc>lat.=55.693569, lon.=26.460251, Alt.=136.990356m. Speed=0.000000m/h.</desc>
<speed>0.000000</speed>
</trkpt>
<trkpt lat="55.693569" lon="26.460251">
<ele>136.994263</ele>
<time>2010-07-18T10:01:38Z</time>
<desc>lat.=55.693569, lon.=26.460251, Alt.=136.994263m. Speed=0.144000m/h.</desc>
<speed>0.040000</speed>
</trkpt>
<trkpt lat="55.693569" lon="26.460251">
<ele>137.002075</ele>
<time>2010-07-18T10:01:39Z</time>
<desc>lat.=55.693569, lon.=26.460251, Alt.=137.002075m. Speed=0.144000m/h.</desc>
<speed>0.040000</speed>
</trkpt>
<trkpt lat="55.693569" lon="26.460251">
<ele>137.002075</ele>
<time>2010-07-18T10:01:40Z</time>
<desc>lat.=55.693569, lon.=26.460251, Alt.=137.002075m. Speed=0.108000m/h.</desc>
<speed>0.030000</speed>
</trkpt>
<trkpt lat="55.693569" lon="26.460253">
<ele>137.002075</ele>
<time>2010-07-18T10:01:41Z</time>
<desc>lat.=55.693569, lon.=26.460253, Alt.=137.002075m. Speed=0.144000m/h.</desc>
<speed>0.040000</speed>
</trkpt>
<trkpt lat="55.693569" lon="26.460253">
<ele>137.005981</ele>
<time>2010-07-18T10:01:42Z</time>
<desc>lat.=55.693569, lon.=26.460253, Alt.=137.005981m. Speed=0.144000m/h.</desc>
<speed>0.040000</speed>
</trkpt>
<trkpt lat="55.693569" lon="26.460253">
<ele>137.005981</ele>
<time>2010-07-18T10:01:43Z</time>
<desc>lat.=55.693569, lon.=26.460253, Alt.=137.005981m. Speed=0.144000m/h.</desc>
<speed>0.040000</speed>
</trkpt>
<trkpt lat="55.693569" lon="26.460253">
<ele>137.005981</ele>
<time>2010-07-18T10:01:44Z</time>
<desc>lat.=55.693569, lon.=26.460253, Alt.=137.005981m. Speed=0.072000m/h.</desc>
<speed>0.020000</speed>
</trkpt>
<trkpt lat="55.693573" lon="26.460253">
<ele>137.002075</ele>
<time>2010-07-18T10:01:45Z</time>
<desc>lat.=55.693573, lon.=26.460253, Alt.=137.002075m. Speed=0.036000m/h.</desc>
<speed>0.010000</speed>
</trkpt>
<trkpt lat="55.693573" lon="26.460253">
<ele>137.002075</ele>
<time>2010-07-18T10:01:46Z</time>
<desc>lat.=55.693573, lon.=26.460253, Alt.=137.002075m. Speed=0.000000m/h.</desc>
<speed>0.000000</speed>
</trkpt>
<trkpt lat="55.693573" lon="26.460253">
<ele>137.005981</ele>
<time>2010-07-18T10:01:47Z</time>
<desc>lat.=55.693573, lon.=26.460253, Alt.=137.005981m. Speed=0.000000m/h.</desc>
<speed>0.000000</speed>
</trkpt>
<trkpt lat="55.693573" lon="26.460253">
<ele>137.005981</ele>
<time>2010-07-18T10:01:48Z</time>
<desc>lat.=55.693573, lon.=26.460253, Alt.=137.005981m. Speed=0.036000m/h.</desc>
<speed>0.010000</speed>
</trkpt>
<trkpt lat="55.693573" lon="26.460253">
<ele>137.009888</ele>
<time>2010-07-18T10:01:49Z</time>
<desc>lat.=55.693573, lon.=26.460253, Alt.=137.009888m. Speed=0.000000m/h.</desc>
<speed>0.000000</speed>
</trkpt>
<trkpt lat="55.693573" lon="26.460253">
<ele>137.021606</ele>
<time>2010-07-18T10:01:50Z</time>
<desc>lat.=55.693573, lon.=26.460253, Alt.=137.021606m. Speed=0.036000m/h.</desc>
<speed>0.010000</speed>
</trkpt>
<trkpt lat="55.693573" lon="26.460253">
<ele>137.025513</ele>
<time>2010-07-18T10:01:51Z</time>
<desc>lat.=55.693573, lon.=26.460253, Alt.=137.025513m. Speed=0.036000m/h.</desc>
<speed>0.010000</speed>
</trkpt>
<trkpt lat="55.693573" lon="26.460253">
<ele>137.025513</ele>
<time>2010-07-18T10:01:52Z</time>
<desc>lat.=55.693573, lon.=26.460253, Alt.=137.025513m. Speed=0.000000m/h.</desc>
<speed>0.000000</speed>
</trkpt>
<trkpt lat="55.693573" lon="26.460253">
<ele>137.025513</ele>
<time>2010-07-18T10:01:53Z</time>
<desc>lat.=55.693573, lon.=26.460253, Alt.=137.025513m. Speed=0.036000m/h.</desc>
<speed>0.010000</speed>
</trkpt>
<trkpt lat="55.693573" lon="26.460255">
<ele>137.025513</ele>
<time>2010-07-18T10:01:54Z</time>
<desc>lat.=55.693573, lon.=26.460255, Alt.=137.025513m. Speed=0.036000m/h.</desc>
<speed>0.010000</speed>
</trkpt>
<trkpt lat="55.693573" lon="26.460255">
<ele>137.029419</ele>
<time>2010-07-18T10:01:55Z</time>
<desc>lat.=55.693573, lon.=26.460255, Alt.=137.029419m. Speed=0.144000m/h.</desc>
<speed>0.040000</speed>
</trkpt>
<trkpt lat="55.693573" lon="26.460255">
<ele>137.033325</ele>
<time>2010-07-18T10:01:56Z</time>
<desc>lat.=55.693573, lon.=26.460255, Alt.=137.033325m. Speed=0.108000m/h.</desc>
<speed>0.030000</speed>
</trkpt>
<trkpt lat="55.693573" lon="26.460255">
<ele>137.041138</ele>
<time>2010-07-18T10:01:57Z</time>
<desc>lat.=55.693573, lon.=26.460255, Alt.=137.041138m. Speed=0.072000m/h.</desc>
<speed>0.020000</speed>
</trkpt>
<trkpt lat="55.693573" lon="26.460255">
<ele>137.045044</ele>
<time>2010-07-18T10:01:58Z</time>
<desc>lat.=55.693573, lon.=26.460255, Alt.=137.045044m. Speed=0.000000m/h.</desc>
<speed>0.000000</speed>
</trkpt>
<trkpt lat="55.693573" lon="26.460255">
<ele>137.052856</ele>
<time>2010-07-18T10:01:59Z</time>
<desc>lat.=55.693573, lon.=26.460255, Alt.=137.052856m. Speed=0.000000m/h.</desc>
<speed>0.000000</speed>
</trkpt>
<trkpt lat="55.693573" lon="26.460255">
<ele>137.052856</ele>
<time>2010-07-18T10:02:00Z</time>
<desc>lat.=55.693573, lon.=26.460255, Alt.=137.052856m. Speed=0.036000m/h.</desc>
<speed>0.010000</speed>
</trkpt>
<trkpt lat="55.693573" lon="26.460255">
<ele>137.060669</ele>
<time>2010-07-18T10:02:01Z</time>
<desc>lat.=55.693573, lon.=26.460255, Alt.=137.060669m. Speed=0.072000m/h.</desc>
<speed>0.020000</speed>
</trkpt>
<trkpt lat="55.693573" lon="26.460255">
<ele>137.060669</ele>
<time>2010-07-18T10:02:02Z</time>
<desc>lat.=55.693573, lon.=26.460255, Alt.=137.060669m. Speed=0.036000m/h.</desc>
<speed>0.010000</speed>
</trkpt>
<trkpt lat="55.693573" lon="26.460255">
<ele>137.060669</ele>
<time>2010-07-18T10:02:03Z</time>
<desc>lat.=55.693573, lon.=26.460255, Alt.=137.060669m. Speed=0.000000m/h.</desc>
<speed>0.000000</speed>
</trkpt>
<trkpt lat="55.693573" lon="26.460255">
<ele>137.052856</ele>
<time>2010-07-18T10:02:04Z</time>
<desc>lat.=55.693573, lon.=26.460255, Alt.=137.052856m. Speed=0.000000m/h.</desc>
<speed>0.000000</speed>
</trkpt>
<trkpt lat="55.693573" lon="26.460255">
<ele>137.037231</ele>
<time>2010-07-18T10:02:05Z</time>
<desc>lat.=55.693573, lon.=26.460255, Alt.=137.037231m. Speed=0.036000m/h.</desc>
<speed>0.010000</speed>
</trkpt>
<trkpt lat="55.693573" lon="26.460255">
<ele>137.033325</ele>
<time>2010-07-18T10:02:06Z</time>
<desc>lat.=55.693573, lon.=26.460255, Alt.=137.033325m. Speed=0.000000m/h.</desc>
<speed>0.000000</speed>
</trkpt>
<trkpt lat="55.693573" lon="26.460255">
<ele>137.033325</ele>
<time>2010-07-18T10:02:07Z</time>
<desc>lat.=55.693573, lon.=26.460255, Alt.=137.033325m. Speed=0.072000m/h.</desc>
<speed>0.020000</speed>
</trkpt>
<trkpt lat="55.693573" lon="26.460255">
<ele>137.033325</ele>
<time>2010-07-18T10:02:08Z</time>
<desc>lat.=55.693573, lon.=26.460255, Alt.=137.033325m. Speed=0.036000m/h.</desc>
<speed>0.010000</speed>
</trkpt>
<trkpt lat="55.693573" lon="26.460255">
<ele>137.037231</ele>
<time>2010-07-18T10:02:09Z</time>
<desc>lat.=55.693573, lon.=26.460255, Alt.=137.037231m. Speed=0.108000m/h.</desc>
<speed>0.030000</speed>
</trkpt>
<trkpt lat="55.693573" lon="26.460255">
<ele>137.041138</ele>
<time>2010-07-18T10:02:10Z</time>
<desc>lat.=55.693573, lon.=26.460255, Alt.=137.041138m. Speed=0.000000m/h.</desc>
<speed>0.000000</speed>
</trkpt>
<trkpt lat="55.693573" lon="26.460255">
<ele>137.041138</ele>
<time>2010-07-18T10:02:11Z</time>
<desc>lat.=55.693573, lon.=26.460255, Alt.=137.041138m. Speed=0.072000m/h.</desc>
<speed>0.020000</speed>
</trkpt>
<trkpt lat="55.693573" lon="26.460255">
<ele>137.037231</ele>
<time>2010-07-18T10:02:12Z</time>
<desc>lat.=55.693573, lon.=26.460255, Alt.=137.037231m. Speed=0.108000m/h.</desc>
<speed>0.030000</speed>
</trkpt>
<trkpt lat="55.693573" lon="26.460255">
<ele>137.037231</ele>
<time>2010-07-18T10:02:13Z</time>
<desc>lat.=55.693573, lon.=26.460255, Alt.=137.037231m. Speed=0.108000m/h.</desc>
<speed>0.030000</speed>
</trkpt>
<trkpt lat="55.693573" lon="26.460255">
<ele>137.037231</ele>
<time>2010-07-18T10:02:14Z</time>
<desc>lat.=55.693573, lon.=26.460255, Alt.=137.037231m. Speed=0.000000m/h.</desc>
<speed>0.000000</speed>
</trkpt>
<trkpt lat="55.693573" lon="26.460255">
<ele>137.033325</ele>
<time>2010-07-18T10:02:15Z</time>
<desc>lat.=55.693573, lon.=26.460255, Alt.=137.033325m. Speed=0.036000m/h.</desc>
<speed>0.010000</speed>
</trkpt>
<trkpt lat="55.693573" lon="26.460255">
<ele>137.025513</ele>
<time>2010-07-18T10:02:16Z</time>
<desc>lat.=55.693573, lon.=26.460255, Alt.=137.025513m. Speed=0.000000m/h.</desc>
<speed>0.000000</speed>
</trkpt>
<trkpt lat="55.693573" lon="26.460255">
<ele>137.021606</ele>
<time>2010-07-18T10:02:17Z</time>
<desc>lat.=55.693573, lon.=26.460255, Alt.=137.021606m. Speed=0.036000m/h.</desc>
<speed>0.010000</speed>
</trkpt>
<trkpt lat="55.693573" lon="26.460255">
<ele>137.017700</ele>
<time>2010-07-18T10:02:18Z</time>
<desc>lat.=55.693573, lon.=26.460255, Alt.=137.017700m. Speed=0.036000m/h.</desc>
<speed>0.010000</speed>
</trkpt>
<trkpt lat="55.693573" lon="26.460257">
<ele>137.013794</ele>
<time>2010-07-18T10:02:19Z</time>
<desc>lat.=55.693573, lon.=26.460257, Alt.=137.013794m. Speed=0.000000m/h.</desc>
<speed>0.000000</speed>
</trkpt>
<trkpt lat="55.693573" lon="26.460255">
<ele>137.017700</ele>
<time>2010-07-18T10:02:20Z</time>
<desc>lat.=55.693573, lon.=26.460255, Alt.=137.017700m. Speed=0.000000m/h.</desc>
<speed>0.000000</speed>
</trkpt>
<trkpt lat="55.693573" lon="26.460255">
<ele>137.013794</ele>
<time>2010-07-18T10:02:21Z</time>
<desc>lat.=55.693573, lon.=26.460255, Alt.=137.013794m. Speed=0.000000m/h.</desc>
<speed>0.000000</speed>
</trkpt>
<trkpt lat="55.693573" lon="26.460255">
<ele>137.002075</ele>
<time>2010-07-18T10:02:22Z</time>
<desc>lat.=55.693573, lon.=26.460255, Alt.=137.002075m. Speed=0.000000m/h.</desc>
<speed>0.000000</speed>
</trkpt>
<trkpt lat="55.693573" lon="26.460257">
<ele>137.002075</ele>
<time>2010-07-18T10:02:23Z</time>
<desc>lat.=55.693573, lon.=26.460257, Alt.=137.002075m. Speed=0.036000m/h.</desc>
<speed>0.010000</speed>
</trkpt>
<trkpt lat="55.693573" lon="26.460257">
<ele>137.002075</ele>
<time>2010-07-18T10:02:24Z</time>
<desc>lat.=55.693573, lon.=26.460257, Alt.=137.002075m. Speed=0.108000m/h.</desc>
<speed>0.030000</speed>
</trkpt>
<trkpt lat="55.693573" lon="26.460257">
<ele>136.998169</ele>
<time>2010-07-18T10:02:25Z</time>
<desc>lat.=55.693573, lon.=26.460257, Alt.=136.998169m. Speed=0.072000m/h.</desc>
<speed>0.020000</speed>
</trkpt>
<trkpt lat="55.693573" lon="26.460257">
<ele>136.994263</ele>
<time>2010-07-18T10:02:26Z</time>
<desc>lat.=55.693573, lon.=26.460257, Alt.=136.994263m. Speed=0.108000m/h.</desc>
<speed>0.030000</speed>
</trkpt>
<trkpt lat="55.693573" lon="26.460257">
<ele>136.990356</ele>
<time>2010-07-18T10:02:27Z</time>
<desc>lat.=55.693573, lon.=26.460257, Alt.=136.990356m. Speed=0.000000m/h.</desc>
<speed>0.000000</speed>
</trkpt>
<trkpt lat="55.693573" lon="26.460257">
<ele>136.986450</ele>
<time>2010-07-18T10:02:28Z</time>
<desc>lat.=55.693573, lon.=26.460257, Alt.=136.986450m. Speed=0.108000m/h.</desc>
<speed>0.030000</speed>
</trkpt>
<trkpt lat="55.693573" lon="26.460257">
<ele>136.978638</ele>
<time>2010-07-18T10:02:29Z</time>
<desc>lat.=55.693573, lon.=26.460257, Alt.=136.978638m. Speed=0.036000m/h.</desc>
<speed>0.010000</speed>
</trkpt>
<trkpt lat="55.693573" lon="26.460257">
<ele>136.974731</ele>
<time>2010-07-18T10:02:30Z</time>
<desc>lat.=55.693573, lon.=26.460257, Alt.=136.974731m. Speed=0.000000m/h.</desc>
<speed>0.000000</speed>
</trkpt>
<trkpt lat="55.693573" lon="26.460257">
<ele>136.974731</ele>
<time>2010-07-18T10:02:31Z</time>
<desc>lat.=55.693573, lon.=26.460257, Alt.=136.974731m. Speed=0.000000m/h.</desc>
<speed>0.000000</speed>
</trkpt>
<trkpt lat="55.693573" lon="26.460257">
<ele>136.970825</ele>
<time>2010-07-18T10:02:32Z</time>
<desc>lat.=55.693573, lon.=26.460257, Alt.=136.970825m. Speed=0.000000m/h.</desc>
<speed>0.000000</speed>
</trkpt>
<trkpt lat="55.693573" lon="26.460257">
<ele>136.974731</ele>
<time>2010-07-18T10:02:33Z</time>
<desc>lat.=55.693573, lon.=26.460257, Alt.=136.974731m. Speed=0.072000m/h.</desc>
<speed>0.020000</speed>
</trkpt>
<trkpt lat="55.693573" lon="26.460257">
<ele>136.974731</ele>
<time>2010-07-18T10:02:34Z</time>
<desc>lat.=55.693573, lon.=26.460257, Alt.=136.974731m. Speed=0.108000m/h.</desc>
<speed>0.030000</speed>
</trkpt>
<trkpt lat="55.693573" lon="26.460257">
<ele>136.974731</ele>
<time>2010-07-18T10:02:35Z</time>
<desc>lat.=55.693573, lon.=26.460257, Alt.=136.974731m. Speed=0.072000m/h.</desc>
<speed>0.020000</speed>
</trkpt>
<trkpt lat="55.693573" lon="26.460257">
<ele>136.970825</ele>
<time>2010-07-18T10:02:36Z</time>
<desc>lat.=55.693573, lon.=26.460257, Alt.=136.970825m. Speed=0.036000m/h.</desc>
<speed>0.010000</speed>
</trkpt>
<trkpt lat="55.693573" lon="26.460257">
<ele>136.966919</ele>
<time>2010-07-18T10:02:37Z</time>
<desc>lat.=55.693573, lon.=26.460257, Alt.=136.966919m. Speed=0.000000m/h.</desc>
<speed>0.000000</speed>
</trkpt>
<trkpt lat="55.693573" lon="26.460257">
<ele>136.959106</ele>
<time>2010-07-18T10:02:38Z</time>
<desc>lat.=55.693573, lon.=26.460257, Alt.=136.959106m. Speed=0.000000m/h.</desc>
<speed>0.000000</speed>
</trkpt>
<trkpt lat="55.693573" lon="26.460257">
<ele>136.951294</ele>
<time>2010-07-18T10:02:39Z</time>
<desc>lat.=55.693573, lon.=26.460257, Alt.=136.951294m. Speed=0.000000m/h.</desc>
<speed>0.000000</speed>
</trkpt>
<trkpt lat="55.693573" lon="26.460257">
<ele>136.947388</ele>
<time>2010-07-18T10:02:40Z</time>
<desc>lat.=55.693573, lon.=26.460257, Alt.=136.947388m. Speed=0.000000m/h.</desc>
<speed>0.000000</speed>
</trkpt>
<trkpt lat="55.693573" lon="26.460257">
<ele>136.943481</ele>
<time>2010-07-18T10:02:41Z</time>
<desc>lat.=55.693573, lon.=26.460257, Alt.=136.943481m. Speed=0.000000m/h.</desc>
<speed>0.000000</speed>
</trkpt>
<trkpt lat="55.693573" lon="26.460257">
<ele>136.943481</ele>
<time>2010-07-18T10:02:42Z</time>
<desc>lat.=55.693573, lon.=26.460257, Alt.=136.943481m. Speed=0.000000m/h.</desc>
<speed>0.000000</speed>
</trkpt>
<trkpt lat="55.693573" lon="26.460255">
<ele>136.943481</ele>
<time>2010-07-18T10:02:43Z</time>
<desc>lat.=55.693573, lon.=26.460255, Alt.=136.943481m. Speed=0.036000m/h.</desc>
<speed>0.010000</speed>
</trkpt>
<trkpt lat="55.693573" lon="26.460255">
<ele>136.939575</ele>
<time>2010-07-18T10:02:44Z</time>
<desc>lat.=55.693573, lon.=26.460255, Alt.=136.939575m. Speed=0.000000m/h.</desc>
<speed>0.000000</speed>
</trkpt>
<trkpt lat="55.693573" lon="26.460255">
<ele>136.935669</ele>
<time>2010-07-18T10:02:45Z</time>
<desc>lat.=55.693573, lon.=26.460255, Alt.=136.935669m. Speed=0.000000m/h.</desc>
<speed>0.000000</speed>
</trkpt>
<trkpt lat="55.693573" lon="26.460255">
<ele>136.931763</ele>
<time>2010-07-18T10:02:46Z</time>
<desc>lat.=55.693573, lon.=26.460255, Alt.=136.931763m. Speed=0.072000m/h.</desc>
<speed>0.020000</speed>
</trkpt>
<trkpt lat="55.693573" lon="26.460255">
<ele>136.931763</ele>
<time>2010-07-18T10:02:47Z</time>
<desc>lat.=55.693573, lon.=26.460255, Alt.=136.931763m. Speed=0.036000m/h.</desc>
<speed>0.010000</speed>
</trkpt>
<trkpt lat="55.693573" lon="26.460255">
<ele>136.927856</ele>
<time>2010-07-18T10:02:48Z</time>
<desc>lat.=55.693573, lon.=26.460255, Alt.=136.927856m. Speed=0.000000m/h.</desc>
<speed>0.000000</speed>
</trkpt>
<trkpt lat="55.693573" lon="26.460255">
<ele>136.923950</ele>
<time>2010-07-18T10:02:49Z</time>
<desc>lat.=55.693573, lon.=26.460255, Alt.=136.923950m. Speed=0.000000m/h.</desc>
<speed>0.000000</speed>
</trkpt>
<trkpt lat="55.693573" lon="26.460255">
<ele>136.920044</ele>
<time>2010-07-18T10:02:50Z</time>
<desc>lat.=55.693573, lon.=26.460255, Alt.=136.920044m. Speed=0.000000m/h.</desc>
<speed>0.000000</speed>
</trkpt>
<trkpt lat="55.693577" lon="26.460255">
<ele>136.920044</ele>
<time>2010-07-18T10:02:51Z</time>
<desc>lat.=55.693577, lon.=26.460255, Alt.=136.920044m. Speed=0.000000m/h.</desc>
<speed>0.000000</speed>
</trkpt>
<trkpt lat="55.693577" lon="26.460255">
<ele>136.916138</ele>
<time>2010-07-18T10:02:52Z</time>
<desc>lat.=55.693577, lon.=26.460255, Alt.=136.916138m. Speed=0.000000m/h.</desc>
<speed>0.000000</speed>
</trkpt>
<trkpt lat="55.693577" lon="26.460255">
<ele>136.912231</ele>
<time>2010-07-18T10:02:53Z</time>
<desc>lat.=55.693577, lon.=26.460255, Alt.=136.912231m. Speed=0.000000m/h.</desc>
<speed>0.000000</speed>
</trkpt>
<trkpt lat="55.693577" lon="26.460255">
<ele>136.904419</ele>
<time>2010-07-18T10:02:54Z</time>
<desc>lat.=55.693577, lon.=26.460255, Alt.=136.904419m. Speed=0.000000m/h.</desc>
<speed>0.000000</speed>
</trkpt>
<trkpt lat="55.693577" lon="26.460255">
<ele>136.900513</ele>
<time>2010-07-18T10:02:55Z</time>
<desc>lat.=55.693577, lon.=26.460255, Alt.=136.900513m. Speed=0.000000m/h.</desc>
<speed>0.000000</speed>
</trkpt>
<trkpt lat="55.693577" lon="26.460255">
<ele>136.896606</ele>
<time>2010-07-18T10:02:56Z</time>
<desc>lat.=55.693577, lon.=26.460255, Alt.=136.896606m. Speed=0.036000m/h.</desc>
<speed>0.010000</speed>
</trkpt>
<trkpt lat="55.693577" lon="26.460255">
<ele>136.896606</ele>
<time>2010-07-18T10:02:57Z</time>
<desc>lat.=55.693577, lon.=26.460255, Alt.=136.896606m. Speed=0.036000m/h.</desc>
<speed>0.010000</speed>
</trkpt>
<trkpt lat="55.693577" lon="26.460255">
<ele>136.896606</ele>
<time>2010-07-18T10:02:58Z</time>
<desc>lat.=55.693577, lon.=26.460255, Alt.=136.896606m. Speed=0.000000m/h.</desc>
<speed>0.000000</speed>
</trkpt>
<trkpt lat="55.693577" lon="26.460255">
<ele>136.896606</ele>
<time>2010-07-18T10:02:59Z</time>
<desc>lat.=55.693577, lon.=26.460255, Alt.=136.896606m. Speed=0.036000m/h.</desc>
<speed>0.010000</speed>
</trkpt>
<trkpt lat="55.693577" lon="26.460257">
<ele>136.892700</ele>
<time>2010-07-18T10:03:00Z</time>
<desc>lat.=55.693577, lon.=26.460257, Alt.=136.892700m. Speed=0.000000m/h.</desc>
<speed>0.000000</speed>
</trkpt>
<trkpt lat="55.693577" lon="26.460257">
<ele>136.888794</ele>
<time>2010-07-18T10:03:01Z</time>
<desc>lat.=55.693577, lon.=26.460257, Alt.=136.888794m. Speed=0.036000m/h.</desc>
<speed>0.010000</speed>
</trkpt>
<trkpt lat="55.693577" lon="26.460257">
<ele>136.888794</ele>
<time>2010-07-18T10:03:02Z</time>
<desc>lat.=55.693577, lon.=26.460257, Alt.=136.888794m. Speed=0.000000m/h.</desc>
<speed>0.000000</speed>
</trkpt>
<trkpt lat="55.693577" lon="26.460257">
<ele>136.888794</ele>
<time>2010-07-18T10:03:03Z</time>
<desc>lat.=55.693577, lon.=26.460257, Alt.=136.888794m. Speed=0.000000m/h.</desc>
<speed>0.000000</speed>
</trkpt>
<trkpt lat="55.693577" lon="26.460257">
<ele>136.888794</ele>
<time>2010-07-18T10:03:04Z</time>
<desc>lat.=55.693577, lon.=26.460257, Alt.=136.888794m. Speed=0.000000m/h.</desc>
<speed>0.000000</speed>
</trkpt>
<trkpt lat="55.693577" lon="26.460257">
<ele>136.884888</ele>
<time>2010-07-18T10:03:05Z</time>
<desc>lat.=55.693577, lon.=26.460257, Alt.=136.884888m. Speed=0.000000m/h.</desc>
<speed>0.000000</speed>
</trkpt>
<trkpt lat="55.693577" lon="26.460257">
<ele>136.880981</ele>
<time>2010-07-18T10:03:06Z</time>
<desc>lat.=55.693577, lon.=26.460257, Alt.=136.880981m. Speed=0.036000m/h.</desc>
<speed>0.010000</speed>
</trkpt>
<trkpt lat="55.693577" lon="26.460257">
<ele>136.884888</ele>
<time>2010-07-18T10:03:07Z</time>
<desc>lat.=55.693577, lon.=26.460257, Alt.=136.884888m. Speed=0.108000m/h.</desc>
<speed>0.030000</speed>
</trkpt>
<trkpt lat="55.693577" lon="26.460257">
<ele>136.880981</ele>
<time>2010-07-18T10:03:08Z</time>
<desc>lat.=55.693577, lon.=26.460257, Alt.=136.880981m. Speed=0.108000m/h.</desc>
<speed>0.030000</speed>
</trkpt>
<trkpt lat="55.693577" lon="26.460257">
<ele>136.873169</ele>
<time>2010-07-18T10:03:09Z</time>
<desc>lat.=55.693577, lon.=26.460257, Alt.=136.873169m. Speed=0.036000m/h.</desc>
<speed>0.010000</speed>
</trkpt>
<trkpt lat="55.693577" lon="26.460257">
<ele>136.865356</ele>
<time>2010-07-18T10:03:10Z</time>
<desc>lat.=55.693577, lon.=26.460257, Alt.=136.865356m. Speed=0.036000m/h.</desc>
<speed>0.010000</speed>
</trkpt>
<trkpt lat="55.693577" lon="26.460257">
<ele>136.865356</ele>
<time>2010-07-18T10:03:11Z</time>
<desc>lat.=55.693577, lon.=26.460257, Alt.=136.865356m. Speed=0.000000m/h.</desc>
<speed>0.000000</speed>
</trkpt>
<trkpt lat="55.693577" lon="26.460257">
<ele>136.865356</ele>
<time>2010-07-18T10:03:12Z</time>
<desc>lat.=55.693577, lon.=26.460257, Alt.=136.865356m. Speed=0.108000m/h.</desc>
<speed>0.030000</speed>
</trkpt>
<trkpt lat="55.693577" lon="26.460257">
<ele>136.861450</ele>
<time>2010-07-18T10:03:13Z</time>
<desc>lat.=55.693577, lon.=26.460257, Alt.=136.861450m. Speed=0.108000m/h.</desc>
<speed>0.030000</speed>
</trkpt>
<trkpt lat="55.693577" lon="26.460257">
<ele>136.857544</ele>
<time>2010-07-18T10:03:14Z</time>
<desc>lat.=55.693577, lon.=26.460257, Alt.=136.857544m. Speed=0.000000m/h.</desc>
<speed>0.000000</speed>
</trkpt>
<trkpt lat="55.693577" lon="26.460257">
<ele>136.853638</ele>
<time>2010-07-18T10:03:15Z</time>
<desc>lat.=55.693577, lon.=26.460257, Alt.=136.853638m. Speed=0.036000m/h.</desc>
<speed>0.010000</speed>
</trkpt>
<trkpt lat="55.693577" lon="26.460257">
<ele>136.853638</ele>
<time>2010-07-18T10:03:16Z</time>
<desc>lat.=55.693577, lon.=26.460257, Alt.=136.853638m. Speed=0.072000m/h.</desc>
<speed>0.020000</speed>
</trkpt>
<trkpt lat="55.693577" lon="26.460257">
<ele>136.849731</ele>
<time>2010-07-18T10:03:17Z</time>
<desc>lat.=55.693577, lon.=26.460257, Alt.=136.849731m. Speed=0.000000m/h.</desc>
<speed>0.000000</speed>
</trkpt>
<trkpt lat="55.693577" lon="26.460257">
<ele>136.853638</ele>
<time>2010-07-18T10:03:18Z</time>
<desc>lat.=55.693577, lon.=26.460257, Alt.=136.853638m. Speed=0.072000m/h.</desc>
<speed>0.020000</speed>
</trkpt>
<trkpt lat="55.693577" lon="26.460257">
<ele>136.853638</ele>
<time>2010-07-18T10:03:19Z</time>
<desc>lat.=55.693577, lon.=26.460257, Alt.=136.853638m. Speed=0.072000m/h.</desc>
<speed>0.020000</speed>
</trkpt>
<trkpt lat="55.693577" lon="26.460257">
<ele>136.853638</ele>
<time>2010-07-18T10:03:20Z</time>
<desc>lat.=55.693577, lon.=26.460257, Alt.=136.853638m. Speed=0.000000m/h.</desc>
<speed>0.000000</speed>
</trkpt>
<trkpt lat="55.693577" lon="26.460257">
<ele>136.861450</ele>
<time>2010-07-18T10:03:21Z</time>
<desc>lat.=55.693577, lon.=26.460257, Alt.=136.861450m. Speed=0.144000m/h.</desc>
<speed>0.040000</speed>
</trkpt>
<trkpt lat="55.693577" lon="26.460257">
<ele>136.861450</ele>
<time>2010-07-18T10:03:22Z</time>
<desc>lat.=55.693577, lon.=26.460257, Alt.=136.861450m. Speed=0.108000m/h.</desc>
<speed>0.030000</speed>
</trkpt>
<trkpt lat="55.693577" lon="26.460257">
<ele>136.857544</ele>
<time>2010-07-18T10:03:23Z</time>
<desc>lat.=55.693577, lon.=26.460257, Alt.=136.857544m. Speed=0.108000m/h.</desc>
<speed>0.030000</speed>
</trkpt>
<trkpt lat="55.693577" lon="26.460257">
<ele>136.853638</ele>
<time>2010-07-18T10:03:24Z</time>
<desc>lat.=55.693577, lon.=26.460257, Alt.=136.853638m. Speed=0.036000m/h.</desc>
<speed>0.010000</speed>
</trkpt>
<trkpt lat="55.693577" lon="26.460257">
<ele>136.845825</ele>
<time>2010-07-18T10:03:25Z</time>
<desc>lat.=55.693577, lon.=26.460257, Alt.=136.845825m. Speed=0.000000m/h.</desc>
<speed>0.000000</speed>
</trkpt>
<trkpt lat="55.693577" lon="26.460257">
<ele>136.841919</ele>
<time>2010-07-18T10:03:26Z</time>
<desc>lat.=55.693577, lon.=26.460257, Alt.=136.841919m. Speed=0.036000m/h.</desc>
<speed>0.010000</speed>
</trkpt>
<trkpt lat="55.693577" lon="26.460257">
<ele>136.845825</ele>
<time>2010-07-18T10:03:27Z</time>
<desc>lat.=55.693577, lon.=26.460257, Alt.=136.845825m. Speed=0.072000m/h.</desc>
<speed>0.020000</speed>
</trkpt>
<trkpt lat="55.693577" lon="26.460257">
<ele>136.838013</ele>
<time>2010-07-18T10:03:28Z</time>
<desc>lat.=55.693577, lon.=26.460257, Alt.=136.838013m. Speed=0.000000m/h.</desc>
<speed>0.000000</speed>
</trkpt>
<trkpt lat="55.693577" lon="26.460257">
<ele>136.834106</ele>
<time>2010-07-18T10:03:29Z</time>
<desc>lat.=55.693577, lon.=26.460257, Alt.=136.834106m. Speed=0.072000m/h.</desc>
<speed>0.020000</speed>
</trkpt>
<trkpt lat="55.693577" lon="26.460257">
<ele>136.822388</ele>
<time>2010-07-18T10:03:30Z</time>
<desc>lat.=55.693577, lon.=26.460257, Alt.=136.822388m. Speed=0.072000m/h.</desc>
<speed>0.020000</speed>
</trkpt>
<trkpt lat="55.693577" lon="26.460257">
<ele>136.814575</ele>
<time>2010-07-18T10:03:31Z</time>
<desc>lat.=55.693577, lon.=26.460257, Alt.=136.814575m. Speed=0.108000m/h.</desc>
<speed>0.030000</speed>
</trkpt>
<trkpt lat="55.693577" lon="26.460257">
<ele>136.810669</ele>
<time>2010-07-18T10:03:32Z</time>
<desc>lat.=55.693577, lon.=26.460257, Alt.=136.810669m. Speed=0.144000m/h.</desc>
<speed>0.040000</speed>
</trkpt>
<trkpt lat="55.693577" lon="26.460257">
<ele>136.814575</ele>
<time>2010-07-18T10:03:33Z</time>
<desc>lat.=55.693577, lon.=26.460257, Alt.=136.814575m. Speed=0.072000m/h.</desc>
<speed>0.020000</speed>
</trkpt>
<trkpt lat="55.693577" lon="26.460257">
<ele>136.806763</ele>
<time>2010-07-18T10:03:34Z</time>
<desc>lat.=55.693577, lon.=26.460257, Alt.=136.806763m. Speed=0.108000m/h.</desc>
<speed>0.030000</speed>
</trkpt>
<trkpt lat="55.693577" lon="26.460257">
<ele>136.798950</ele>
<time>2010-07-18T10:03:35Z</time>
<desc>lat.=55.693577, lon.=26.460257, Alt.=136.798950m. Speed=0.108000m/h.</desc>
<speed>0.030000</speed>
</trkpt>
<trkpt lat="55.693577" lon="26.460258">
<ele>136.791138</ele>
<time>2010-07-18T10:03:36Z</time>
<desc>lat.=55.693577, lon.=26.460258, Alt.=136.791138m. Speed=0.072000m/h.</desc>
<speed>0.020000</speed>
</trkpt>
<trkpt lat="55.693577" lon="26.460258">
<ele>136.791138</ele>
<time>2010-07-18T10:03:37Z</time>
<desc>lat.=55.693577, lon.=26.460258, Alt.=136.791138m. Speed=0.036000m/h.</desc>
<speed>0.010000</speed>
</trkpt>
<trkpt lat="55.693577" lon="26.460258">
<ele>136.787231</ele>
<time>2010-07-18T10:03:38Z</time>
<desc>lat.=55.693577, lon.=26.460258, Alt.=136.787231m. Speed=0.000000m/h.</desc>
<speed>0.000000</speed>
</trkpt>
<trkpt lat="55.693577" lon="26.460258">
<ele>136.779419</ele>
<time>2010-07-18T10:03:39Z</time>
<desc>lat.=55.693577, lon.=26.460258, Alt.=136.779419m. Speed=0.072000m/h.</desc>
<speed>0.020000</speed>
</trkpt>
<trkpt lat="55.693577" lon="26.460258">
<ele>136.771606</ele>
<time>2010-07-18T10:03:40Z</time>
<desc>lat.=55.693577, lon.=26.460258, Alt.=136.771606m. Speed=0.072000m/h.</desc>
<speed>0.020000</speed>
</trkpt>
<trkpt lat="55.693577" lon="26.460258">
<ele>136.767700</ele>
<time>2010-07-18T10:03:41Z</time>
<desc>lat.=55.693577, lon.=26.460258, Alt.=136.767700m. Speed=0.036000m/h.</desc>
<speed>0.010000</speed>
</trkpt>
<trkpt lat="55.693577" lon="26.460258">
<ele>136.755981</ele>
<time>2010-07-18T10:03:42Z</time>
<desc>lat.=55.693577, lon.=26.460258, Alt.=136.755981m. Speed=0.036000m/h.</desc>
<speed>0.010000</speed>
</trkpt>
<trkpt lat="55.693577" lon="26.460258">
<ele>136.752075</ele>
<time>2010-07-18T10:03:43Z</time>
<desc>lat.=55.693577, lon.=26.460258, Alt.=136.752075m. Speed=0.036000m/h.</desc>
<speed>0.010000</speed>
</trkpt>
<trkpt lat="55.693577" lon="26.460258">
<ele>136.744263</ele>
<time>2010-07-18T10:03:44Z</time>
<desc>lat.=55.693577, lon.=26.460258, Alt.=136.744263m. Speed=0.072000m/h.</desc>
<speed>0.020000</speed>
</trkpt>
<trkpt lat="55.693577" lon="26.460258">
<ele>136.740356</ele>
<time>2010-07-18T10:03:45Z</time>
<desc>lat.=55.693577, lon.=26.460258, Alt.=136.740356m. Speed=0.036000m/h.</desc>
<speed>0.010000</speed>
</trkpt>
<trkpt lat="55.693577" lon="26.460258">
<ele>136.736450</ele>
<time>2010-07-18T10:03:46Z</time>
<desc>lat.=55.693577, lon.=26.460258, Alt.=136.736450m. Speed=0.036000m/h.</desc>
<speed>0.010000</speed>
</trkpt>
<trkpt lat="55.693577" lon="26.460258">
<ele>136.732544</ele>
<time>2010-07-18T10:03:47Z</time>
<desc>lat.=55.693577, lon.=26.460258, Alt.=136.732544m. Speed=0.000000m/h.</desc>
<speed>0.000000</speed>
</trkpt>
<trkpt lat="55.693577" lon="26.460258">
<ele>136.720825</ele>
<time>2010-07-18T10:03:48Z</time>
<desc>lat.=55.693577, lon.=26.460258, Alt.=136.720825m. Speed=0.072000m/h.</desc>
<speed>0.020000</speed>
</trkpt>
<trkpt lat="55.693577" lon="26.460258">
<ele>136.713013</ele>
<time>2010-07-18T10:03:49Z</time>
<desc>lat.=55.693577, lon.=26.460258, Alt.=136.713013m. Speed=0.036000m/h.</desc>
<speed>0.010000</speed>
</trkpt>
<trkpt lat="55.693577" lon="26.460258">
<ele>136.709106</ele>
<time>2010-07-18T10:03:50Z</time>
<desc>lat.=55.693577, lon.=26.460258, Alt.=136.709106m. Speed=0.000000m/h.</desc>
<speed>0.000000</speed>
</trkpt>
<trkpt lat="55.693577" lon="26.460258">
<ele>136.705200</ele>
<time>2010-07-18T10:03:51Z</time>
<desc>lat.=55.693577, lon.=26.460258, Alt.=136.705200m. Speed=0.036000m/h.</desc>
<speed>0.010000</speed>
</trkpt>
<trkpt lat="55.693577" lon="26.460258">
<ele>136.697388</ele>
<time>2010-07-18T10:03:52Z</time>
<desc>lat.=55.693577, lon.=26.460258, Alt.=136.697388m. Speed=0.000000m/h.</desc>
<speed>0.000000</speed>
</trkpt>
<trkpt lat="55.693577" lon="26.460258">
<ele>136.693481</ele>
<time>2010-07-18T10:03:53Z</time>
<desc>lat.=55.693577, lon.=26.460258, Alt.=136.693481m. Speed=0.000000m/h.</desc>
<speed>0.000000</speed>
</trkpt>
<trkpt lat="55.693577" lon="26.460258">
<ele>136.697388</ele>
<time>2010-07-18T10:03:54Z</time>
<desc>lat.=55.693577, lon.=26.460258, Alt.=136.697388m. Speed=0.000000m/h.</desc>
<speed>0.000000</speed>
</trkpt>
<trkpt lat="55.693577" lon="26.460258">
<ele>136.697388</ele>
<time>2010-07-18T10:03:55Z</time>
<desc>lat.=55.693577, lon.=26.460258, Alt.=136.697388m. Speed=0.036000m/h.</desc>
<speed>0.010000</speed>
</trkpt>
<trkpt lat="55.693577" lon="26.460258">
<ele>136.697388</ele>
<time>2010-07-18T10:03:56Z</time>
<desc>lat.=55.693577, lon.=26.460258, Alt.=136.697388m. Speed=0.036000m/h.</desc>
<speed>0.010000</speed>
</trkpt>
<trkpt lat="55.693577" lon="26.460258">
<ele>136.701294</ele>
<time>2010-07-18T10:03:57Z</time>
<desc>lat.=55.693577, lon.=26.460258, Alt.=136.701294m. Speed=0.036000m/h.</desc>
<speed>0.010000</speed>
</trkpt>
<trkpt lat="55.693577" lon="26.460258">
<ele>136.701294</ele>
<time>2010-07-18T10:03:58Z</time>
<desc>lat.=55.693577, lon.=26.460258, Alt.=136.701294m. Speed=0.072000m/h.</desc>
<speed>0.020000</speed>
</trkpt>
<trkpt lat="55.693577" lon="26.460258">
<ele>136.701294</ele>
<time>2010-07-18T10:03:59Z</time>
<desc>lat.=55.693577, lon.=26.460258, Alt.=136.701294m. Speed=0.144000m/h.</desc>
<speed>0.040000</speed>
</trkpt>
<trkpt lat="55.693577" lon="26.460258">
<ele>136.697388</ele>
<time>2010-07-18T10:04:00Z</time>
<desc>lat.=55.693577, lon.=26.460258, Alt.=136.697388m. Speed=0.144000m/h.</desc>
<speed>0.040000</speed>
</trkpt>
<trkpt lat="55.693577" lon="26.460258">
<ele>136.693481</ele>
<time>2010-07-18T10:04:01Z</time>
<desc>lat.=55.693577, lon.=26.460258, Alt.=136.693481m. Speed=0.072000m/h.</desc>
<speed>0.020000</speed>
</trkpt>
<trkpt lat="55.693577" lon="26.460258">
<ele>136.697388</ele>
<time>2010-07-18T10:04:02Z</time>
<desc>lat.=55.693577, lon.=26.460258, Alt.=136.697388m. Speed=0.144000m/h.</desc>
<speed>0.040000</speed>
</trkpt>
<trkpt lat="55.693581" lon="26.460258">
<ele>136.697388</ele>
<time>2010-07-18T10:04:03Z</time>
<desc>lat.=55.693581, lon.=26.460258, Alt.=136.697388m. Speed=0.036000m/h.</desc>
<speed>0.010000</speed>
</trkpt>
<trkpt lat="55.693581" lon="26.460258">
<ele>136.701294</ele>
<time>2010-07-18T10:04:04Z</time>
<desc>lat.=55.693581, lon.=26.460258, Alt.=136.701294m. Speed=0.108000m/h.</desc>
<speed>0.030000</speed>
</trkpt>
<trkpt lat="55.693581" lon="26.460258">
<ele>136.705200</ele>
<time>2010-07-18T10:04:05Z</time>
<desc>lat.=55.693581, lon.=26.460258, Alt.=136.705200m. Speed=0.000000m/h.</desc>
<speed>0.000000</speed>
</trkpt>
<trkpt lat="55.693581" lon="26.460258">
<ele>136.709106</ele>
<time>2010-07-18T10:04:06Z</time>
<desc>lat.=55.693581, lon.=26.460258, Alt.=136.709106m. Speed=0.072000m/h.</desc>
<speed>0.020000</speed>
</trkpt>
<trkpt lat="55.693581" lon="26.460260">
<ele>136.705200</ele>
<time>2010-07-18T10:04:07Z</time>
<desc>lat.=55.693581, lon.=26.460260, Alt.=136.705200m. Speed=0.036000m/h.</desc>
<speed>0.010000</speed>
</trkpt>
<trkpt lat="55.693581" lon="26.460260">
<ele>136.705200</ele>
<time>2010-07-18T10:04:08Z</time>
<desc>lat.=55.693581, lon.=26.460260, Alt.=136.705200m. Speed=0.072000m/h.</desc>
<speed>0.020000</speed>
</trkpt>
<trkpt lat="55.693581" lon="26.460260">
<ele>136.709106</ele>
<time>2010-07-18T10:04:09Z</time>
<desc>lat.=55.693581, lon.=26.460260, Alt.=136.709106m. Speed=0.072000m/h.</desc>
<speed>0.020000</speed>
</trkpt>
<trkpt lat="55.693581" lon="26.460260">
<ele>136.709106</ele>
<time>2010-07-18T10:04:10Z</time>
<desc>lat.=55.693581, lon.=26.460260, Alt.=136.709106m. Speed=0.144000m/h.</desc>
<speed>0.040000</speed>
</trkpt>
<trkpt lat="55.693581" lon="26.460260">
<ele>136.701294</ele>
<time>2010-07-18T10:04:11Z</time>
<desc>lat.=55.693581, lon.=26.460260, Alt.=136.701294m. Speed=0.036000m/h.</desc>
<speed>0.010000</speed>
</trkpt>
<trkpt lat="55.693581" lon="26.460260">
<ele>136.709106</ele>
<time>2010-07-18T10:04:12Z</time>
<desc>lat.=55.693581, lon.=26.460260, Alt.=136.709106m. Speed=0.144000m/h.</desc>
<speed>0.040000</speed>
</trkpt>
<trkpt lat="55.693581" lon="26.460260">
<ele>136.713013</ele>
<time>2010-07-18T10:04:13Z</time>
<desc>lat.=55.693581, lon.=26.460260, Alt.=136.713013m. Speed=0.108000m/h.</desc>
<speed>0.030000</speed>
</trkpt>
<trkpt lat="55.693581" lon="26.460260">
<ele>136.716919</ele>
<time>2010-07-18T10:04:14Z</time>
<desc>lat.=55.693581, lon.=26.460260, Alt.=136.716919m. Speed=0.072000m/h.</desc>
<speed>0.020000</speed>
</trkpt>
<trkpt lat="55.693581" lon="26.460260">
<ele>136.720825</ele>
<time>2010-07-18T10:04:15Z</time>
<desc>lat.=55.693581, lon.=26.460260, Alt.=136.720825m. Speed=0.108000m/h.</desc>
<speed>0.030000</speed>
</trkpt>
<trkpt lat="55.693581" lon="26.460260">
<ele>136.716919</ele>
<time>2010-07-18T10:04:16Z</time>
<desc>lat.=55.693581, lon.=26.460260, Alt.=136.716919m. Speed=0.108000m/h.</desc>
<speed>0.030000</speed>
</trkpt>
<trkpt lat="55.693581" lon="26.460260">
<ele>136.713013</ele>
<time>2010-07-18T10:04:17Z</time>
<desc>lat.=55.693581, lon.=26.460260, Alt.=136.713013m. Speed=0.144000m/h.</desc>
<speed>0.040000</speed>
</trkpt>
<trkpt lat="55.693581" lon="26.460260">
<ele>136.709106</ele>
<time>2010-07-18T10:04:18Z</time>
<desc>lat.=55.693581, lon.=26.460260, Alt.=136.709106m. Speed=0.108000m/h.</desc>
<speed>0.030000</speed>
</trkpt>
<trkpt lat="55.693581" lon="26.460260">
<ele>136.705200</ele>
<time>2010-07-18T10:04:19Z</time>
<desc>lat.=55.693581, lon.=26.460260, Alt.=136.705200m. Speed=0.108000m/h.</desc>
<speed>0.030000</speed>
</trkpt>
<trkpt lat="55.693581" lon="26.460260">
<ele>136.705200</ele>
<time>2010-07-18T10:04:20Z</time>
<desc>lat.=55.693581, lon.=26.460260, Alt.=136.705200m. Speed=0.072000m/h.</desc>
<speed>0.020000</speed>
</trkpt>
<trkpt lat="55.693581" lon="26.460262">
<ele>136.705200</ele>
<time>2010-07-18T10:04:21Z</time>
<desc>lat.=55.693581, lon.=26.460262, Alt.=136.705200m. Speed=0.108000m/h.</desc>
<speed>0.030000</speed>
</trkpt>
<trkpt lat="55.693581" lon="26.460262">
<ele>136.709106</ele>
<time>2010-07-18T10:04:22Z</time>
<desc>lat.=55.693581, lon.=26.460262, Alt.=136.709106m. Speed=0.144000m/h.</desc>
<speed>0.040000</speed>
</trkpt>
<trkpt lat="55.693581" lon="26.460262">
<ele>136.701294</ele>
<time>2010-07-18T10:04:23Z</time>
<desc>lat.=55.693581, lon.=26.460262, Alt.=136.701294m. Speed=0.072000m/h.</desc>
<speed>0.020000</speed>
</trkpt>
<trkpt lat="55.693581" lon="26.460262">
<ele>136.693481</ele>
<time>2010-07-18T10:04:24Z</time>
<desc>lat.=55.693581, lon.=26.460262, Alt.=136.693481m. Speed=0.072000m/h.</desc>
<speed>0.020000</speed>
</trkpt>
<trkpt lat="55.693581" lon="26.460262">
<ele>136.685669</ele>
<time>2010-07-18T10:04:25Z</time>
<desc>lat.=55.693581, lon.=26.460262, Alt.=136.685669m. Speed=0.036000m/h.</desc>
<speed>0.010000</speed>
</trkpt>
<trkpt lat="55.693581" lon="26.460262">
<ele>136.681763</ele>
<time>2010-07-18T10:04:26Z</time>
<desc>lat.=55.693581, lon.=26.460262, Alt.=136.681763m. Speed=0.144000m/h.</desc>
<speed>0.040000</speed>
</trkpt>
<trkpt lat="55.693581" lon="26.460262">
<ele>136.677856</ele>
<time>2010-07-18T10:04:27Z</time>
<desc>lat.=55.693581, lon.=26.460262, Alt.=136.677856m. Speed=0.036000m/h.</desc>
<speed>0.010000</speed>
</trkpt>
<trkpt lat="55.693581" lon="26.460262">
<ele>136.673950</ele>
<time>2010-07-18T10:04:28Z</time>
<desc>lat.=55.693581, lon.=26.460262, Alt.=136.673950m. Speed=0.000000m/h.</desc>
<speed>0.000000</speed>
</trkpt>
<trkpt lat="55.693581" lon="26.460262">
<ele>136.673950</ele>
<time>2010-07-18T10:04:29Z</time>
<desc>lat.=55.693581, lon.=26.460262, Alt.=136.673950m. Speed=0.072000m/h.</desc>
<speed>0.020000</speed>
</trkpt>
<trkpt lat="55.693581" lon="26.460262">
<ele>136.666138</ele>
<time>2010-07-18T10:04:30Z</time>
<desc>lat.=55.693581, lon.=26.460262, Alt.=136.666138m. Speed=0.036000m/h.</desc>
<speed>0.010000</speed>
</trkpt>
<trkpt lat="55.693581" lon="26.460262">
<ele>136.662231</ele>
<time>2010-07-18T10:04:31Z</time>
<desc>lat.=55.693581, lon.=26.460262, Alt.=136.662231m. Speed=0.000000m/h.</desc>
<speed>0.000000</speed>
</trkpt>
<trkpt lat="55.693581" lon="26.460262">
<ele>136.662231</ele>
<time>2010-07-18T10:04:32Z</time>
<desc>lat.=55.693581, lon.=26.460262, Alt.=136.662231m. Speed=0.072000m/h.</desc>
<speed>0.020000</speed>
</trkpt>
<trkpt lat="55.693581" lon="26.460262">
<ele>136.646606</ele>
<time>2010-07-18T10:04:33Z</time>
<desc>lat.=55.693581, lon.=26.460262, Alt.=136.646606m. Speed=0.036000m/h.</desc>
<speed>0.010000</speed>
</trkpt>
<trkpt lat="55.693581" lon="26.460262">
<ele>136.642700</ele>
<time>2010-07-18T10:04:34Z</time>
<desc>lat.=55.693581, lon.=26.460262, Alt.=136.642700m. Speed=0.000000m/h.</desc>
<speed>0.000000</speed>
</trkpt>
<trkpt lat="55.693581" lon="26.460262">
<ele>136.642700</ele>
<time>2010-07-18T10:04:35Z</time>
<desc>lat.=55.693581, lon.=26.460262, Alt.=136.642700m. Speed=0.036000m/h.</desc>
<speed>0.010000</speed>
</trkpt>
<trkpt lat="55.693581" lon="26.460262">
<ele>136.638794</ele>
<time>2010-07-18T10:04:36Z</time>
<desc>lat.=55.693581, lon.=26.460262, Alt.=136.638794m. Speed=0.000000m/h.</desc>
<speed>0.000000</speed>
</trkpt>
<trkpt lat="55.693584" lon="26.460262">
<ele>136.634888</ele>
<time>2010-07-18T10:04:37Z</time>
<desc>lat.=55.693584, lon.=26.460262, Alt.=136.634888m. Speed=0.000000m/h.</desc>
<speed>0.000000</speed>
</trkpt>
<trkpt lat="55.693584" lon="26.460262">
<ele>136.638794</ele>
<time>2010-07-18T10:04:38Z</time>
<desc>lat.=55.693584, lon.=26.460262, Alt.=136.638794m. Speed=0.036000m/h.</desc>
<speed>0.010000</speed>
</trkpt>
<trkpt lat="55.693584" lon="26.460262">
<ele>136.638794</ele>
<time>2010-07-18T10:04:39Z</time>
<desc>lat.=55.693584, lon.=26.460262, Alt.=136.638794m. Speed=0.000000m/h.</desc>
<speed>0.000000</speed>
</trkpt>
<trkpt lat="55.693584" lon="26.460262">
<ele>136.630981</ele>
<time>2010-07-18T10:04:40Z</time>
<desc>lat.=55.693584, lon.=26.460262, Alt.=136.630981m. Speed=0.000000m/h.</desc>
<speed>0.000000</speed>
</trkpt>
<trkpt lat="55.693584" lon="26.460262">
<ele>136.627075</ele>
<time>2010-07-18T10:04:41Z</time>
<desc>lat.=55.693584, lon.=26.460262, Alt.=136.627075m. Speed=0.000000m/h.</desc>
<speed>0.000000</speed>
</trkpt>
<trkpt lat="55.693584" lon="26.460262">
<ele>136.623169</ele>
<time>2010-07-18T10:04:42Z</time>
<desc>lat.=55.693584, lon.=26.460262, Alt.=136.623169m. Speed=0.036000m/h.</desc>
<speed>0.010000</speed>
</trkpt>
<trkpt lat="55.693584" lon="26.460262">
<ele>136.627075</ele>
<time>2010-07-18T10:04:43Z</time>
<desc>lat.=55.693584, lon.=26.460262, Alt.=136.627075m. Speed=0.036000m/h.</desc>
<speed>0.010000</speed>
</trkpt>
<trkpt lat="55.693584" lon="26.460262">
<ele>136.638794</ele>
<time>2010-07-18T10:04:44Z</time>
<desc>lat.=55.693584, lon.=26.460262, Alt.=136.638794m. Speed=0.108000m/h.</desc>
<speed>0.030000</speed>
</trkpt>
<trkpt lat="55.693584" lon="26.460262">
<ele>136.642700</ele>
<time>2010-07-18T10:04:45Z</time>
<desc>lat.=55.693584, lon.=26.460262, Alt.=136.642700m. Speed=0.036000m/h.</desc>
<speed>0.010000</speed>
</trkpt>
<trkpt lat="55.693584" lon="26.460262">
<ele>136.642700</ele>
<time>2010-07-18T10:04:46Z</time>
<desc>lat.=55.693584, lon.=26.460262, Alt.=136.642700m. Speed=0.000000m/h.</desc>
<speed>0.000000</speed>
</trkpt>
<trkpt lat="55.693584" lon="26.460262">
<ele>136.638794</ele>
<time>2010-07-18T10:04:47Z</time>
<desc>lat.=55.693584, lon.=26.460262, Alt.=136.638794m. Speed=0.000000m/h.</desc>
<speed>0.000000</speed>
</trkpt>
<trkpt lat="55.693584" lon="26.460264">
<ele>136.634888</ele>
<time>2010-07-18T10:04:48Z</time>
<desc>lat.=55.693584, lon.=26.460264, Alt.=136.634888m. Speed=0.072000m/h.</desc>
<speed>0.020000</speed>
</trkpt>
<trkpt lat="55.693584" lon="26.460264">
<ele>136.630981</ele>
<time>2010-07-18T10:04:49Z</time>
<desc>lat.=55.693584, lon.=26.460264, Alt.=136.630981m. Speed=0.000000m/h.</desc>
<speed>0.000000</speed>
</trkpt>
<trkpt lat="55.693584" lon="26.460264">
<ele>136.627075</ele>
<time>2010-07-18T10:04:50Z</time>
<desc>lat.=55.693584, lon.=26.460264, Alt.=136.627075m. Speed=0.036000m/h.</desc>
<speed>0.010000</speed>
</trkpt>
<trkpt lat="55.693584" lon="26.460264">
<ele>136.623169</ele>
<time>2010-07-18T10:04:51Z</time>
<desc>lat.=55.693584, lon.=26.460264, Alt.=136.623169m. Speed=0.000000m/h.</desc>
<speed>0.000000</speed>
</trkpt>
<trkpt lat="55.693584" lon="26.460264">
<ele>136.615356</ele>
<time>2010-07-18T10:04:52Z</time>
<desc>lat.=55.693584, lon.=26.460264, Alt.=136.615356m. Speed=0.000000m/h.</desc>
<speed>0.000000</speed>
</trkpt>
<trkpt lat="55.693584" lon="26.460264">
<ele>136.607544</ele>
<time>2010-07-18T10:04:53Z</time>
<desc>lat.=55.693584, lon.=26.460264, Alt.=136.607544m. Speed=0.036000m/h.</desc>
<speed>0.010000</speed>
</trkpt>
<trkpt lat="55.693584" lon="26.460264">
<ele>136.603638</ele>
<time>2010-07-18T10:04:54Z</time>
<desc>lat.=55.693584, lon.=26.460264, Alt.=136.603638m. Speed=0.000000m/h.</desc>
<speed>0.000000</speed>
</trkpt>
<trkpt lat="55.693584" lon="26.460264">
<ele>136.595825</ele>
<time>2010-07-18T10:04:55Z</time>
<desc>lat.=55.693584, lon.=26.460264, Alt.=136.595825m. Speed=0.000000m/h.</desc>
<speed>0.000000</speed>
</trkpt>
<trkpt lat="55.693584" lon="26.460264">
<ele>136.591919</ele>
<time>2010-07-18T10:04:56Z</time>
<desc>lat.=55.693584, lon.=26.460264, Alt.=136.591919m. Speed=0.000000m/h.</desc>
<speed>0.000000</speed>
</trkpt>
<trkpt lat="55.693584" lon="26.460264">
<ele>136.584106</ele>
<time>2010-07-18T10:04:57Z</time>
<desc>lat.=55.693584, lon.=26.460264, Alt.=136.584106m. Speed=0.000000m/h.</desc>
<speed>0.000000</speed>
</trkpt>
<trkpt lat="55.693584" lon="26.460264">
<ele>136.580200</ele>
<time>2010-07-18T10:04:58Z</time>
<desc>lat.=55.693584, lon.=26.460264, Alt.=136.580200m. Speed=0.000000m/h.</desc>
<speed>0.000000</speed>
</trkpt>
<trkpt lat="55.693584" lon="26.460264">
<ele>136.572388</ele>
<time>2010-07-18T10:04:59Z</time>
<desc>lat.=55.693584, lon.=26.460264, Alt.=136.572388m. Speed=0.000000m/h.</desc>
<speed>0.000000</speed>
</trkpt>
<trkpt lat="55.693584" lon="26.460264">
<ele>136.560669</ele>
<time>2010-07-18T10:05:00Z</time>
<desc>lat.=55.693584, lon.=26.460264, Alt.=136.560669m. Speed=0.036000m/h.</desc>
<speed>0.010000</speed>
</trkpt>
<trkpt lat="55.693584" lon="26.460264">
<ele>136.552856</ele>
<time>2010-07-18T10:05:01Z</time>
<desc>lat.=55.693584, lon.=26.460264, Alt.=136.552856m. Speed=0.000000m/h.</desc>
<speed>0.000000</speed>
</trkpt>
<trkpt lat="55.693584" lon="26.460264">
<ele>136.552856</ele>
<time>2010-07-18T10:05:02Z</time>
<desc>lat.=55.693584, lon.=26.460264, Alt.=136.552856m. Speed=0.000000m/h.</desc>
<speed>0.000000</speed>
</trkpt>
<trkpt lat="55.693584" lon="26.460264">
<ele>136.548950</ele>
<time>2010-07-18T10:05:03Z</time>
<desc>lat.=55.693584, lon.=26.460264, Alt.=136.548950m. Speed=0.000000m/h.</desc>
<speed>0.000000</speed>
</trkpt>
<trkpt lat="55.693584" lon="26.460264">
<ele>136.541138</ele>
<time>2010-07-18T10:05:04Z</time>
<desc>lat.=55.693584, lon.=26.460264, Alt.=136.541138m. Speed=0.000000m/h.</desc>
<speed>0.000000</speed>
</trkpt>
<trkpt lat="55.693584" lon="26.460264">
<ele>136.537231</ele>
<time>2010-07-18T10:05:05Z</time>
<desc>lat.=55.693584, lon.=26.460264, Alt.=136.537231m. Speed=0.036000m/h.</desc>
<speed>0.010000</speed>
</trkpt>
<trkpt lat="55.693584" lon="26.460264">
<ele>136.537231</ele>
<time>2010-07-18T10:05:06Z</time>
<desc>lat.=55.693584, lon.=26.460264, Alt.=136.537231m. Speed=0.036000m/h.</desc>
<speed>0.010000</speed>
</trkpt>
<trkpt lat="55.693584" lon="26.460264">
<ele>136.533325</ele>
<time>2010-07-18T10:05:07Z</time>
<desc>lat.=55.693584, lon.=26.460264, Alt.=136.533325m. Speed=0.036000m/h.</desc>
<speed>0.010000</speed>
</trkpt>
<trkpt lat="55.693584" lon="26.460264">
<ele>136.533325</ele>
<time>2010-07-18T10:05:08Z</time>
<desc>lat.=55.693584, lon.=26.460264, Alt.=136.533325m. Speed=0.036000m/h.</desc>
<speed>0.010000</speed>
</trkpt>
<trkpt lat="55.693584" lon="26.460264">
<ele>136.529419</ele>
<time>2010-07-18T10:05:09Z</time>
<desc>lat.=55.693584, lon.=26.460264, Alt.=136.529419m. Speed=0.036000m/h.</desc>
<speed>0.010000</speed>
</trkpt>
<trkpt lat="55.693584" lon="26.460264">
<ele>136.521606</ele>
<time>2010-07-18T10:05:10Z</time>
<desc>lat.=55.693584, lon.=26.460264, Alt.=136.521606m. Speed=0.036000m/h.</desc>
<speed>0.010000</speed>
</trkpt>
<trkpt lat="55.693584" lon="26.460264">
<ele>136.513794</ele>
<time>2010-07-18T10:05:11Z</time>
<desc>lat.=55.693584, lon.=26.460264, Alt.=136.513794m. Speed=0.000000m/h.</desc>
<speed>0.000000</speed>
</trkpt>
<trkpt lat="55.693584" lon="26.460264">
<ele>136.505981</ele>
<time>2010-07-18T10:05:12Z</time>
<desc>lat.=55.693584, lon.=26.460264, Alt.=136.505981m. Speed=0.036000m/h.</desc>
<speed>0.010000</speed>
</trkpt>
<trkpt lat="55.693584" lon="26.460264">
<ele>136.502075</ele>
<time>2010-07-18T10:05:13Z</time>
<desc>lat.=55.693584, lon.=26.460264, Alt.=136.502075m. Speed=0.000000m/h.</desc>
<speed>0.000000</speed>
</trkpt>
<trkpt lat="55.693584" lon="26.460264">
<ele>136.494263</ele>
<time>2010-07-18T10:05:14Z</time>
<desc>lat.=55.693584, lon.=26.460264, Alt.=136.494263m. Speed=0.000000m/h.</desc>
<speed>0.000000</speed>
</trkpt>
<trkpt lat="55.693584" lon="26.460264">
<ele>136.486450</ele>
<time>2010-07-18T10:05:15Z</time>
<desc>lat.=55.693584, lon.=26.460264, Alt.=136.486450m. Speed=0.036000m/h.</desc>
<speed>0.010000</speed>
</trkpt>
<trkpt lat="55.693584" lon="26.460264">
<ele>136.474731</ele>
<time>2010-07-18T10:05:16Z</time>
<desc>lat.=55.693584, lon.=26.460264, Alt.=136.474731m. Speed=0.000000m/h.</desc>
<speed>0.000000</speed>
</trkpt>
<trkpt lat="55.693584" lon="26.460264">
<ele>136.470825</ele>
<time>2010-07-18T10:05:17Z</time>
<desc>lat.=55.693584, lon.=26.460264, Alt.=136.470825m. Speed=0.000000m/h.</desc>
<speed>0.000000</speed>
</trkpt>
<trkpt lat="55.693584" lon="26.460264">
<ele>136.463013</ele>
<time>2010-07-18T10:05:18Z</time>
<desc>lat.=55.693584, lon.=26.460264, Alt.=136.463013m. Speed=0.000000m/h.</desc>
<speed>0.000000</speed>
</trkpt>
<trkpt lat="55.693584" lon="26.460264">
<ele>136.466919</ele>
<time>2010-07-18T10:05:19Z</time>
<desc>lat.=55.693584, lon.=26.460264, Alt.=136.466919m. Speed=0.036000m/h.</desc>
<speed>0.010000</speed>
</trkpt>
<trkpt lat="55.693584" lon="26.460264">
<ele>136.463013</ele>
<time>2010-07-18T10:05:20Z</time>
<desc>lat.=55.693584, lon.=26.460264, Alt.=136.463013m. Speed=0.072000m/h.</desc>
<speed>0.020000</speed>
</trkpt>
<trkpt lat="55.693584" lon="26.460264">
<ele>136.455200</ele>
<time>2010-07-18T10:05:21Z</time>
<desc>lat.=55.693584, lon.=26.460264, Alt.=136.455200m. Speed=0.036000m/h.</desc>
<speed>0.010000</speed>
</trkpt>
<trkpt lat="55.693584" lon="26.460264">
<ele>136.451294</ele>
<time>2010-07-18T10:05:22Z</time>
<desc>lat.=55.693584, lon.=26.460264, Alt.=136.451294m. Speed=0.000000m/h.</desc>
<speed>0.000000</speed>
</trkpt>
<trkpt lat="55.693584" lon="26.460264">
<ele>136.451294</ele>
<time>2010-07-18T10:05:23Z</time>
<desc>lat.=55.693584, lon.=26.460264, Alt.=136.451294m. Speed=0.072000m/h.</desc>
<speed>0.020000</speed>
</trkpt>
<trkpt lat="55.693584" lon="26.460264">
<ele>136.443481</ele>
<time>2010-07-18T10:05:24Z</time>
<desc>lat.=55.693584, lon.=26.460264, Alt.=136.443481m. Speed=0.036000m/h.</desc>
<speed>0.010000</speed>
</trkpt>
<trkpt lat="55.693584" lon="26.460264">
<ele>136.443481</ele>
<time>2010-07-18T10:05:25Z</time>
<desc>lat.=55.693584, lon.=26.460264, Alt.=136.443481m. Speed=0.000000m/h.</desc>
<speed>0.000000</speed>
</trkpt>
<trkpt lat="55.693584" lon="26.460264">
<ele>136.439575</ele>
<time>2010-07-18T10:05:26Z</time>
<desc>lat.=55.693584, lon.=26.460264, Alt.=136.439575m. Speed=0.036000m/h.</desc>
<speed>0.010000</speed>
</trkpt>
<trkpt lat="55.693584" lon="26.460264">
<ele>136.435669</ele>
<time>2010-07-18T10:05:27Z</time>
<desc>lat.=55.693584, lon.=26.460264, Alt.=136.435669m. Speed=0.000000m/h.</desc>
<speed>0.000000</speed>
</trkpt>
<trkpt lat="55.693584" lon="26.460264">
<ele>136.435669</ele>
<time>2010-07-18T10:05:28Z</time>
<desc>lat.=55.693584, lon.=26.460264, Alt.=136.435669m. Speed=0.072000m/h.</desc>
<speed>0.020000</speed>
</trkpt>
<trkpt lat="55.693584" lon="26.460264">
<ele>136.427856</ele>
<time>2010-07-18T10:05:29Z</time>
<desc>lat.=55.693584, lon.=26.460264, Alt.=136.427856m. Speed=0.000000m/h.</desc>
<speed>0.000000</speed>
</trkpt>
<trkpt lat="55.693584" lon="26.460264">
<ele>136.427856</ele>
<time>2010-07-18T10:05:30Z</time>
<desc>lat.=55.693584, lon.=26.460264, Alt.=136.427856m. Speed=0.000000m/h.</desc>
<speed>0.000000</speed>
</trkpt>
<trkpt lat="55.693584" lon="26.460264">
<ele>136.427856</ele>
<time>2010-07-18T10:05:31Z</time>
<desc>lat.=55.693584, lon.=26.460264, Alt.=136.427856m. Speed=0.000000m/h.</desc>
<speed>0.000000</speed>
</trkpt>
<trkpt lat="55.693584" lon="26.460264">
<ele>136.427856</ele>
<time>2010-07-18T10:05:32Z</time>
<desc>lat.=55.693584, lon.=26.460264, Alt.=136.427856m. Speed=0.000000m/h.</desc>
<speed>0.000000</speed>
</trkpt>
<trkpt lat="55.693584" lon="26.460264">
<ele>136.420044</ele>
<time>2010-07-18T10:05:33Z</time>
<desc>lat.=55.693584, lon.=26.460264, Alt.=136.420044m. Speed=0.000000m/h.</desc>
<speed>0.000000</speed>
</trkpt>
<trkpt lat="55.693584" lon="26.460264">
<ele>136.416138</ele>
<time>2010-07-18T10:05:34Z</time>
<desc>lat.=55.693584, lon.=26.460264, Alt.=136.416138m. Speed=0.000000m/h.</desc>
<speed>0.000000</speed>
</trkpt>
<trkpt lat="55.693584" lon="26.460264">
<ele>136.420044</ele>
<time>2010-07-18T10:05:35Z</time>
<desc>lat.=55.693584, lon.=26.460264, Alt.=136.420044m. Speed=0.000000m/h.</desc>
<speed>0.000000</speed>
</trkpt>
<trkpt lat="55.693584" lon="26.460264">
<ele>136.420044</ele>
<time>2010-07-18T10:05:36Z</time>
<desc>lat.=55.693584, lon.=26.460264, Alt.=136.420044m. Speed=0.000000m/h.</desc>
<speed>0.000000</speed>
</trkpt>
<trkpt lat="55.693584" lon="26.460264">
<ele>136.416138</ele>
<time>2010-07-18T10:05:37Z</time>
<desc>lat.=55.693584, lon.=26.460264, Alt.=136.416138m. Speed=0.036000m/h.</desc>
<speed>0.010000</speed>
</trkpt>
<trkpt lat="55.693584" lon="26.460262">
<ele>136.412231</ele>
<time>2010-07-18T10:05:38Z</time>
<desc>lat.=55.693584, lon.=26.460262, Alt.=136.412231m. Speed=0.000000m/h.</desc>
<speed>0.000000</speed>
</trkpt>
<trkpt lat="55.693584" lon="26.460264">
<ele>136.420044</ele>
<time>2010-07-18T10:05:39Z</time>
<desc>lat.=55.693584, lon.=26.460264, Alt.=136.420044m. Speed=0.072000m/h.</desc>
<speed>0.020000</speed>
</trkpt>
<trkpt lat="55.693584" lon="26.460264">
<ele>136.423950</ele>
<time>2010-07-18T10:05:40Z</time>
<desc>lat.=55.693584, lon.=26.460264, Alt.=136.423950m. Speed=0.036000m/h.</desc>
<speed>0.010000</speed>
</trkpt>
<trkpt lat="55.693584" lon="26.460264">
<ele>136.427856</ele>
<time>2010-07-18T10:05:41Z</time>
<desc>lat.=55.693584, lon.=26.460264, Alt.=136.427856m. Speed=0.000000m/h.</desc>
<speed>0.000000</speed>
</trkpt>
<trkpt lat="55.693584" lon="26.460264">
<ele>136.423950</ele>
<time>2010-07-18T10:05:42Z</time>
<desc>lat.=55.693584, lon.=26.460264, Alt.=136.423950m. Speed=0.000000m/h.</desc>
<speed>0.000000</speed>
</trkpt>
<trkpt lat="55.693584" lon="26.460264">
<ele>136.423950</ele>
<time>2010-07-18T10:05:43Z</time>
<desc>lat.=55.693584, lon.=26.460264, Alt.=136.423950m. Speed=0.036000m/h.</desc>
<speed>0.010000</speed>
</trkpt>
<trkpt lat="55.693584" lon="26.460264">
<ele>136.420044</ele>
<time>2010-07-18T10:05:44Z</time>
<desc>lat.=55.693584, lon.=26.460264, Alt.=136.420044m. Speed=0.000000m/h.</desc>
<speed>0.000000</speed>
</trkpt>
<trkpt lat="55.693584" lon="26.460264">
<ele>136.416138</ele>
<time>2010-07-18T10:05:45Z</time>
<desc>lat.=55.693584, lon.=26.460264, Alt.=136.416138m. Speed=0.000000m/h.</desc>
<speed>0.000000</speed>
</trkpt>
<trkpt lat="55.693584" lon="26.460264">
<ele>136.420044</ele>
<time>2010-07-18T10:05:46Z</time>
<desc>lat.=55.693584, lon.=26.460264, Alt.=136.420044m. Speed=0.000000m/h.</desc>
<speed>0.000000</speed>
</trkpt>
<trkpt lat="55.693584" lon="26.460264">
<ele>136.420044</ele>
<time>2010-07-18T10:05:47Z</time>
<desc>lat.=55.693584, lon.=26.460264, Alt.=136.420044m. Speed=0.036000m/h.</desc>
<speed>0.010000</speed>
</trkpt>
<trkpt lat="55.693584" lon="26.460264">
<ele>136.416138</ele>
<time>2010-07-18T10:05:48Z</time>
<desc>lat.=55.693584, lon.=26.460264, Alt.=136.416138m. Speed=0.036000m/h.</desc>
<speed>0.010000</speed>
</trkpt>
<trkpt lat="55.693584" lon="26.460264">
<ele>136.412231</ele>
<time>2010-07-18T10:05:49Z</time>
<desc>lat.=55.693584, lon.=26.460264, Alt.=136.412231m. Speed=0.000000m/h.</desc>
<speed>0.000000</speed>
</trkpt>
<trkpt lat="55.693584" lon="26.460264">
<ele>136.408325</ele>
<time>2010-07-18T10:05:50Z</time>
<desc>lat.=55.693584, lon.=26.460264, Alt.=136.408325m. Speed=0.000000m/h.</desc>
<speed>0.000000</speed>
</trkpt>
<trkpt lat="55.693584" lon="26.460264">
<ele>136.404419</ele>
<time>2010-07-18T10:05:51Z</time>
<desc>lat.=55.693584, lon.=26.460264, Alt.=136.404419m. Speed=0.036000m/h.</desc>
<speed>0.010000</speed>
</trkpt>
<trkpt lat="55.693584" lon="26.460262">
<ele>136.404419</ele>
<time>2010-07-18T10:05:52Z</time>
<desc>lat.=55.693584, lon.=26.460262, Alt.=136.404419m. Speed=0.000000m/h.</desc>
<speed>0.000000</speed>
</trkpt>
<trkpt lat="55.693584" lon="26.460262">
<ele>136.400513</ele>
<time>2010-07-18T10:05:53Z</time>
<desc>lat.=55.693584, lon.=26.460262, Alt.=136.400513m. Speed=0.000000m/h.</desc>
<speed>0.000000</speed>
</trkpt>
<trkpt lat="55.693584" lon="26.460262">
<ele>136.392700</ele>
<time>2010-07-18T10:05:54Z</time>
<desc>lat.=55.693584, lon.=26.460262, Alt.=136.392700m. Speed=0.036000m/h.</desc>
<speed>0.010000</speed>
</trkpt>
<trkpt lat="55.693584" lon="26.460262">
<ele>136.388794</ele>
<time>2010-07-18T10:05:55Z</time>
<desc>lat.=55.693584, lon.=26.460262, Alt.=136.388794m. Speed=0.072000m/h.</desc>
<speed>0.020000</speed>
</trkpt>
<trkpt lat="55.693584" lon="26.460262">
<ele>136.396606</ele>
<time>2010-07-18T10:05:56Z</time>
<desc>lat.=55.693584, lon.=26.460262, Alt.=136.396606m. Speed=0.000000m/h.</desc>
<speed>0.000000</speed>
</trkpt>
<trkpt lat="55.693584" lon="26.460262">
<ele>136.400513</ele>
<time>2010-07-18T10:05:57Z</time>
<desc>lat.=55.693584, lon.=26.460262, Alt.=136.400513m. Speed=0.000000m/h.</desc>
<speed>0.000000</speed>
</trkpt>
<trkpt lat="55.693584" lon="26.460264">
<ele>136.408325</ele>
<time>2010-07-18T10:05:58Z</time>
<desc>lat.=55.693584, lon.=26.460264, Alt.=136.408325m. Speed=0.072000m/h.</desc>
<speed>0.020000</speed>
</trkpt>
<trkpt lat="55.693584" lon="26.460264">
<ele>136.412231</ele>
<time>2010-07-18T10:05:59Z</time>
<desc>lat.=55.693584, lon.=26.460264, Alt.=136.412231m. Speed=0.000000m/h.</desc>
<speed>0.000000</speed>
</trkpt>
<trkpt lat="55.693584" lon="26.460264">
<ele>136.416138</ele>
<time>2010-07-18T10:06:00Z</time>
<desc>lat.=55.693584, lon.=26.460264, Alt.=136.416138m. Speed=0.072000m/h.</desc>
<speed>0.020000</speed>
</trkpt>
<trkpt lat="55.693584" lon="26.460264">
<ele>136.416138</ele>
<time>2010-07-18T10:06:01Z</time>
<desc>lat.=55.693584, lon.=26.460264, Alt.=136.416138m. Speed=0.000000m/h.</desc>
<speed>0.000000</speed>
</trkpt>
<trkpt lat="55.693584" lon="26.460264">
<ele>136.416138</ele>
<time>2010-07-18T10:06:02Z</time>
<desc>lat.=55.693584, lon.=26.460264, Alt.=136.416138m. Speed=0.000000m/h.</desc>
<speed>0.000000</speed>
</trkpt>
<trkpt lat="55.693584" lon="26.460264">
<ele>136.420044</ele>
<time>2010-07-18T10:06:03Z</time>
<desc>lat.=55.693584, lon.=26.460264, Alt.=136.420044m. Speed=0.000000m/h.</desc>
<speed>0.000000</speed>
</trkpt>
<trkpt lat="55.693584" lon="26.460264">
<ele>136.420044</ele>
<time>2010-07-18T10:06:04Z</time>
<desc>lat.=55.693584, lon.=26.460264, Alt.=136.420044m. Speed=0.036000m/h.</desc>
<speed>0.010000</speed>
</trkpt>
<trkpt lat="55.693584" lon="26.460264">
<ele>136.416138</ele>
<time>2010-07-18T10:06:05Z</time>
<desc>lat.=55.693584, lon.=26.460264, Alt.=136.416138m. Speed=0.000000m/h.</desc>
<speed>0.000000</speed>
</trkpt>
<trkpt lat="55.693584" lon="26.460264">
<ele>136.416138</ele>
<time>2010-07-18T10:06:06Z</time>
<desc>lat.=55.693584, lon.=26.460264, Alt.=136.416138m. Speed=0.036000m/h.</desc>
<speed>0.010000</speed>
</trkpt>
<trkpt lat="55.693584" lon="26.460264">
<ele>136.420044</ele>
<time>2010-07-18T10:06:07Z</time>
<desc>lat.=55.693584, lon.=26.460264, Alt.=136.420044m. Speed=0.000000m/h.</desc>
<speed>0.000000</speed>
</trkpt>
<trkpt lat="55.693584" lon="26.460264">
<ele>136.427856</ele>
<time>2010-07-18T10:06:08Z</time>
<desc>lat.=55.693584, lon.=26.460264, Alt.=136.427856m. Speed=0.108000m/h.</desc>
<speed>0.030000</speed>
</trkpt>
<trkpt lat="55.693584" lon="26.460264">
<ele>136.443481</ele>
<time>2010-07-18T10:06:09Z</time>
<desc>lat.=55.693584, lon.=26.460264, Alt.=136.443481m. Speed=0.000000m/h.</desc>
<speed>0.000000</speed>
</trkpt>
<trkpt lat="55.693584" lon="26.460264">
<ele>136.451294</ele>
<time>2010-07-18T10:06:10Z</time>
<desc>lat.=55.693584, lon.=26.460264, Alt.=136.451294m. Speed=0.036000m/h.</desc>
<speed>0.010000</speed>
</trkpt>
<trkpt lat="55.693584" lon="26.460264">
<ele>136.455200</ele>
<time>2010-07-18T10:06:11Z</time>
<desc>lat.=55.693584, lon.=26.460264, Alt.=136.455200m. Speed=0.036000m/h.</desc>
<speed>0.010000</speed>
</trkpt>
<trkpt lat="55.693588" lon="26.460264">
<ele>136.455200</ele>
<time>2010-07-18T10:06:12Z</time>
<desc>lat.=55.693588, lon.=26.460264, Alt.=136.455200m. Speed=0.036000m/h.</desc>
<speed>0.010000</speed>
</trkpt>
<trkpt lat="55.693588" lon="26.460264">
<ele>136.459106</ele>
<time>2010-07-18T10:06:13Z</time>
<desc>lat.=55.693588, lon.=26.460264, Alt.=136.459106m. Speed=0.000000m/h.</desc>
<speed>0.000000</speed>
</trkpt>
<trkpt lat="55.693588" lon="26.460264">
<ele>136.463013</ele>
<time>2010-07-18T10:06:14Z</time>
<desc>lat.=55.693588, lon.=26.460264, Alt.=136.463013m. Speed=0.072000m/h.</desc>
<speed>0.020000</speed>
</trkpt>
<trkpt lat="55.693588" lon="26.460264">
<ele>136.466919</ele>
<time>2010-07-18T10:06:15Z</time>
<desc>lat.=55.693588, lon.=26.460264, Alt.=136.466919m. Speed=0.000000m/h.</desc>
<speed>0.000000</speed>
</trkpt>
<trkpt lat="55.693588" lon="26.460264">
<ele>136.470825</ele>
<time>2010-07-18T10:06:16Z</time>
<desc>lat.=55.693588, lon.=26.460264, Alt.=136.470825m. Speed=0.072000m/h.</desc>
<speed>0.020000</speed>
</trkpt>
<trkpt lat="55.693588" lon="26.460264">
<ele>136.470825</ele>
<time>2010-07-18T10:06:17Z</time>
<desc>lat.=55.693588, lon.=26.460264, Alt.=136.470825m. Speed=0.036000m/h.</desc>
<speed>0.010000</speed>
</trkpt>
<trkpt lat="55.693588" lon="26.460264">
<ele>136.470825</ele>
<time>2010-07-18T10:06:18Z</time>
<desc>lat.=55.693588, lon.=26.460264, Alt.=136.470825m. Speed=0.036000m/h.</desc>
<speed>0.010000</speed>
</trkpt>
<trkpt lat="55.693588" lon="26.460264">
<ele>136.474731</ele>
<time>2010-07-18T10:06:19Z</time>
<desc>lat.=55.693588, lon.=26.460264, Alt.=136.474731m. Speed=0.036000m/h.</desc>
<speed>0.010000</speed>
</trkpt>
<trkpt lat="55.693588" lon="26.460264">
<ele>136.478638</ele>
<time>2010-07-18T10:06:20Z</time>
<desc>lat.=55.693588, lon.=26.460264, Alt.=136.478638m. Speed=0.072000m/h.</desc>
<speed>0.020000</speed>
</trkpt>
<trkpt lat="55.693588" lon="26.460264">
<ele>136.478638</ele>
<time>2010-07-18T10:06:21Z</time>
<desc>lat.=55.693588, lon.=26.460264, Alt.=136.478638m. Speed=0.072000m/h.</desc>
<speed>0.020000</speed>
</trkpt>
<trkpt lat="55.693588" lon="26.460264">
<ele>136.482544</ele>
<time>2010-07-18T10:06:22Z</time>
<desc>lat.=55.693588, lon.=26.460264, Alt.=136.482544m. Speed=0.072000m/h.</desc>
<speed>0.020000</speed>
</trkpt>
<trkpt lat="55.693588" lon="26.460264">
<ele>136.482544</ele>
<time>2010-07-18T10:06:23Z</time>
<desc>lat.=55.693588, lon.=26.460264, Alt.=136.482544m. Speed=0.000000m/h.</desc>
<speed>0.000000</speed>
</trkpt>
<trkpt lat="55.693588" lon="26.460264">
<ele>136.486450</ele>
<time>2010-07-18T10:06:24Z</time>
<desc>lat.=55.693588, lon.=26.460264, Alt.=136.486450m. Speed=0.000000m/h.</desc>
<speed>0.000000</speed>
</trkpt>
<trkpt lat="55.693588" lon="26.460264">
<ele>136.486450</ele>
<time>2010-07-18T10:06:25Z</time>
<desc>lat.=55.693588, lon.=26.460264, Alt.=136.486450m. Speed=0.000000m/h.</desc>
<speed>0.000000</speed>
</trkpt>
<trkpt lat="55.693588" lon="26.460264">
<ele>136.486450</ele>
<time>2010-07-18T10:06:26Z</time>
<desc>lat.=55.693588, lon.=26.460264, Alt.=136.486450m. Speed=0.000000m/h.</desc>
<speed>0.000000</speed>
</trkpt>
<trkpt lat="55.693588" lon="26.460264">
<ele>136.490356</ele>
<time>2010-07-18T10:06:27Z</time>
<desc>lat.=55.693588, lon.=26.460264, Alt.=136.490356m. Speed=0.000000m/h.</desc>
<speed>0.000000</speed>
</trkpt>
<trkpt lat="55.693588" lon="26.460264">
<ele>136.498169</ele>
<time>2010-07-18T10:06:28Z</time>
<desc>lat.=55.693588, lon.=26.460264, Alt.=136.498169m. Speed=0.036000m/h.</desc>
<speed>0.010000</speed>
</trkpt>
<trkpt lat="55.693588" lon="26.460264">
<ele>136.502075</ele>
<time>2010-07-18T10:06:29Z</time>
<desc>lat.=55.693588, lon.=26.460264, Alt.=136.502075m. Speed=0.000000m/h.</desc>
<speed>0.000000</speed>
</trkpt>
<trkpt lat="55.693588" lon="26.460264">
<ele>136.509888</ele>
<time>2010-07-18T10:06:30Z</time>
<desc>lat.=55.693588, lon.=26.460264, Alt.=136.509888m. Speed=0.036000m/h.</desc>
<speed>0.010000</speed>
</trkpt>
<trkpt lat="55.693588" lon="26.460264">
<ele>136.509888</ele>
<time>2010-07-18T10:06:31Z</time>
<desc>lat.=55.693588, lon.=26.460264, Alt.=136.509888m. Speed=0.036000m/h.</desc>
<speed>0.010000</speed>
</trkpt>
<trkpt lat="55.693588" lon="26.460264">
<ele>136.509888</ele>
<time>2010-07-18T10:06:32Z</time>
<desc>lat.=55.693588, lon.=26.460264, Alt.=136.509888m. Speed=0.000000m/h.</desc>
<speed>0.000000</speed>
</trkpt>
<trkpt lat="55.693588" lon="26.460264">
<ele>136.509888</ele>
<time>2010-07-18T10:06:33Z</time>
<desc>lat.=55.693588, lon.=26.460264, Alt.=136.509888m. Speed=0.108000m/h.</desc>
<speed>0.030000</speed>
</trkpt>
<trkpt lat="55.693588" lon="26.460264">
<ele>136.513794</ele>
<time>2010-07-18T10:06:34Z</time>
<desc>lat.=55.693588, lon.=26.460264, Alt.=136.513794m. Speed=0.036000m/h.</desc>
<speed>0.010000</speed>
</trkpt>
<trkpt lat="55.693588" lon="26.460264">
<ele>136.517700</ele>
<time>2010-07-18T10:06:35Z</time>
<desc>lat.=55.693588, lon.=26.460264, Alt.=136.517700m. Speed=0.072000m/h.</desc>
<speed>0.020000</speed>
</trkpt>
<trkpt lat="55.693588" lon="26.460264">
<ele>136.529419</ele>
<time>2010-07-18T10:06:36Z</time>
<desc>lat.=55.693588, lon.=26.460264, Alt.=136.529419m. Speed=0.108000m/h.</desc>
<speed>0.030000</speed>
</trkpt>
<trkpt lat="55.693588" lon="26.460264">
<ele>136.537231</ele>
<time>2010-07-18T10:06:37Z</time>
<desc>lat.=55.693588, lon.=26.460264, Alt.=136.537231m. Speed=0.000000m/h.</desc>
<speed>0.000000</speed>
</trkpt>
<trkpt lat="55.693588" lon="26.460264">
<ele>136.537231</ele>
<time>2010-07-18T10:06:38Z</time>
<desc>lat.=55.693588, lon.=26.460264, Alt.=136.537231m. Speed=0.036000m/h.</desc>
<speed>0.010000</speed>
</trkpt>
<trkpt lat="55.693588" lon="26.460264">
<ele>136.533325</ele>
<time>2010-07-18T10:06:39Z</time>
<desc>lat.=55.693588, lon.=26.460264, Alt.=136.533325m. Speed=0.072000m/h.</desc>
<speed>0.020000</speed>
</trkpt>
<trkpt lat="55.693588" lon="26.460266">
<ele>136.525513</ele>
<time>2010-07-18T10:06:40Z</time>
<desc>lat.=55.693588, lon.=26.460266, Alt.=136.525513m. Speed=0.216000m/h.</desc>
<speed>0.060000</speed>
</trkpt>
<trkpt lat="55.693588" lon="26.460266">
<ele>136.513794</ele>
<time>2010-07-18T10:06:41Z</time>
<desc>lat.=55.693588, lon.=26.460266, Alt.=136.513794m. Speed=0.108000m/h.</desc>
<speed>0.030000</speed>
</trkpt>
<trkpt lat="55.693588" lon="26.460266">
<ele>136.509888</ele>
<time>2010-07-18T10:06:42Z</time>
<desc>lat.=55.693588, lon.=26.460266, Alt.=136.509888m. Speed=0.036000m/h.</desc>
<speed>0.010000</speed>
</trkpt>
<trkpt lat="55.693588" lon="26.460266">
<ele>136.513794</ele>
<time>2010-07-18T10:06:43Z</time>
<desc>lat.=55.693588, lon.=26.460266, Alt.=136.513794m. Speed=0.036000m/h.</desc>
<speed>0.010000</speed>
</trkpt>
<trkpt lat="55.693588" lon="26.460266">
<ele>136.513794</ele>
<time>2010-07-18T10:06:44Z</time>
<desc>lat.=55.693588, lon.=26.460266, Alt.=136.513794m. Speed=0.000000m/h.</desc>
<speed>0.000000</speed>
</trkpt>
<trkpt lat="55.693588" lon="26.460266">
<ele>136.521606</ele>
<time>2010-07-18T10:06:45Z</time>
<desc>lat.=55.693588, lon.=26.460266, Alt.=136.521606m. Speed=0.000000m/h.</desc>
<speed>0.000000</speed>
</trkpt>
<trkpt lat="55.693588" lon="26.460266">
<ele>136.529419</ele>
<time>2010-07-18T10:06:46Z</time>
<desc>lat.=55.693588, lon.=26.460266, Alt.=136.529419m. Speed=0.000000m/h.</desc>
<speed>0.000000</speed>
</trkpt>
<trkpt lat="55.693588" lon="26.460266">
<ele>136.541138</ele>
<time>2010-07-18T10:06:47Z</time>
<desc>lat.=55.693588, lon.=26.460266, Alt.=136.541138m. Speed=0.072000m/h.</desc>
<speed>0.020000</speed>
</trkpt>
<trkpt lat="55.693588" lon="26.460266">
<ele>136.545044</ele>
<time>2010-07-18T10:06:48Z</time>
<desc>lat.=55.693588, lon.=26.460266, Alt.=136.545044m. Speed=0.108000m/h.</desc>
<speed>0.030000</speed>
</trkpt>
<trkpt lat="55.693588" lon="26.460266">
<ele>136.541138</ele>
<time>2010-07-18T10:06:49Z</time>
<desc>lat.=55.693588, lon.=26.460266, Alt.=136.541138m. Speed=0.036000m/h.</desc>
<speed>0.010000</speed>
</trkpt>
<trkpt lat="55.693588" lon="26.460266">
<ele>136.537231</ele>
<time>2010-07-18T10:06:50Z</time>
<desc>lat.=55.693588, lon.=26.460266, Alt.=136.537231m. Speed=0.072000m/h.</desc>
<speed>0.020000</speed>
</trkpt>
<trkpt lat="55.693588" lon="26.460266">
<ele>136.529419</ele>
<time>2010-07-18T10:06:51Z</time>
<desc>lat.=55.693588, lon.=26.460266, Alt.=136.529419m. Speed=0.072000m/h.</desc>
<speed>0.020000</speed>
</trkpt>
<trkpt lat="55.693588" lon="26.460266">
<ele>136.525513</ele>
<time>2010-07-18T10:06:52Z</time>
<desc>lat.=55.693588, lon.=26.460266, Alt.=136.525513m. Speed=0.036000m/h.</desc>
<speed>0.010000</speed>
</trkpt>
<trkpt lat="55.693588" lon="26.460266">
<ele>136.529419</ele>
<time>2010-07-18T10:06:53Z</time>
<desc>lat.=55.693588, lon.=26.460266, Alt.=136.529419m. Speed=0.072000m/h.</desc>
<speed>0.020000</speed>
</trkpt>
<trkpt lat="55.693588" lon="26.460266">
<ele>136.545044</ele>
<time>2010-07-18T10:06:54Z</time>
<desc>lat.=55.693588, lon.=26.460266, Alt.=136.545044m. Speed=0.036000m/h.</desc>
<speed>0.010000</speed>
</trkpt>
<trkpt lat="55.693588" lon="26.460266">
<ele>136.548950</ele>
<time>2010-07-18T10:06:55Z</time>
<desc>lat.=55.693588, lon.=26.460266, Alt.=136.548950m. Speed=0.036000m/h.</desc>
<speed>0.010000</speed>
</trkpt>
<trkpt lat="55.693588" lon="26.460266">
<ele>136.552856</ele>
<time>2010-07-18T10:06:56Z</time>
<desc>lat.=55.693588, lon.=26.460266, Alt.=136.552856m. Speed=0.108000m/h.</desc>
<speed>0.030000</speed>
</trkpt>
<trkpt lat="55.693588" lon="26.460268">
<ele>136.568481</ele>
<time>2010-07-18T10:06:57Z</time>
<desc>lat.=55.693588, lon.=26.460268, Alt.=136.568481m. Speed=0.000000m/h.</desc>
<speed>0.000000</speed>
</trkpt>
<trkpt lat="55.693588" lon="26.460268">
<ele>136.568481</ele>
<time>2010-07-18T10:06:58Z</time>
<desc>lat.=55.693588, lon.=26.460268, Alt.=136.568481m. Speed=0.144000m/h.</desc>
<speed>0.040000</speed>
</trkpt>
<trkpt lat="55.693588" lon="26.460268">
<ele>136.568481</ele>
<time>2010-07-18T10:06:59Z</time>
<desc>lat.=55.693588, lon.=26.460268, Alt.=136.568481m. Speed=0.036000m/h.</desc>
<speed>0.010000</speed>
</trkpt>
<trkpt lat="55.693588" lon="26.460268">
<ele>136.564575</ele>
<time>2010-07-18T10:07:00Z</time>
<desc>lat.=55.693588, lon.=26.460268, Alt.=136.564575m. Speed=0.036000m/h.</desc>
<speed>0.010000</speed>
</trkpt>
<trkpt lat="55.693588" lon="26.460268">
<ele>136.556763</ele>
<time>2010-07-18T10:07:01Z</time>
<desc>lat.=55.693588, lon.=26.460268, Alt.=136.556763m. Speed=0.000000m/h.</desc>
<speed>0.000000</speed>
</trkpt>
<trkpt lat="55.693588" lon="26.460268">
<ele>136.545044</ele>
<time>2010-07-18T10:07:02Z</time>
<desc>lat.=55.693588, lon.=26.460268, Alt.=136.545044m. Speed=0.108000m/h.</desc>
<speed>0.030000</speed>
</trkpt>
<trkpt lat="55.693588" lon="26.460268">
<ele>136.537231</ele>
<time>2010-07-18T10:07:03Z</time>
<desc>lat.=55.693588, lon.=26.460268, Alt.=136.537231m. Speed=0.108000m/h.</desc>
<speed>0.030000</speed>
</trkpt>
<trkpt lat="55.693588" lon="26.460268">
<ele>136.529419</ele>
<time>2010-07-18T10:07:04Z</time>
<desc>lat.=55.693588, lon.=26.460268, Alt.=136.529419m. Speed=0.036000m/h.</desc>
<speed>0.010000</speed>
</trkpt>
<trkpt lat="55.693588" lon="26.460268">
<ele>136.529419</ele>
<time>2010-07-18T10:07:05Z</time>
<desc>lat.=55.693588, lon.=26.460268, Alt.=136.529419m. Speed=0.036000m/h.</desc>
<speed>0.010000</speed>
</trkpt>
<trkpt lat="55.693588" lon="26.460268">
<ele>136.533325</ele>
<time>2010-07-18T10:07:06Z</time>
<desc>lat.=55.693588, lon.=26.460268, Alt.=136.533325m. Speed=0.108000m/h.</desc>
<speed>0.030000</speed>
</trkpt>
<trkpt lat="55.693588" lon="26.460268">
<ele>136.537231</ele>
<time>2010-07-18T10:07:07Z</time>
<desc>lat.=55.693588, lon.=26.460268, Alt.=136.537231m. Speed=0.072000m/h.</desc>
<speed>0.020000</speed>
</trkpt>
<trkpt lat="55.693588" lon="26.460268">
<ele>136.533325</ele>
<time>2010-07-18T10:07:08Z</time>
<desc>lat.=55.693588, lon.=26.460268, Alt.=136.533325m. Speed=0.036000m/h.</desc>
<speed>0.010000</speed>
</trkpt>
<trkpt lat="55.693588" lon="26.460270">
<ele>136.533325</ele>
<time>2010-07-18T10:07:09Z</time>
<desc>lat.=55.693588, lon.=26.460270, Alt.=136.533325m. Speed=0.072000m/h.</desc>
<speed>0.020000</speed>
</trkpt>
<trkpt lat="55.693588" lon="26.460270">
<ele>136.529419</ele>
<time>2010-07-18T10:07:10Z</time>
<desc>lat.=55.693588, lon.=26.460270, Alt.=136.529419m. Speed=0.036000m/h.</desc>
<speed>0.010000</speed>
</trkpt>
<trkpt lat="55.693588" lon="26.460270">
<ele>136.525513</ele>
<time>2010-07-18T10:07:11Z</time>
<desc>lat.=55.693588, lon.=26.460270, Alt.=136.525513m. Speed=0.036000m/h.</desc>
<speed>0.010000</speed>
</trkpt>
<trkpt lat="55.693588" lon="26.460270">
<ele>136.521606</ele>
<time>2010-07-18T10:07:12Z</time>
<desc>lat.=55.693588, lon.=26.460270, Alt.=136.521606m. Speed=0.036000m/h.</desc>
<speed>0.010000</speed>
</trkpt>
<trkpt lat="55.693588" lon="26.460270">
<ele>136.513794</ele>
<time>2010-07-18T10:07:13Z</time>
<desc>lat.=55.693588, lon.=26.460270, Alt.=136.513794m. Speed=0.036000m/h.</desc>
<speed>0.010000</speed>
</trkpt>
<trkpt lat="55.693588" lon="26.460270">
<ele>136.505981</ele>
<time>2010-07-18T10:07:14Z</time>
<desc>lat.=55.693588, lon.=26.460270, Alt.=136.505981m. Speed=0.036000m/h.</desc>
<speed>0.010000</speed>
</trkpt>
<trkpt lat="55.693588" lon="26.460270">
<ele>136.490356</ele>
<time>2010-07-18T10:07:15Z</time>
<desc>lat.=55.693588, lon.=26.460270, Alt.=136.490356m. Speed=0.072000m/h.</desc>
<speed>0.020000</speed>
</trkpt>
<trkpt lat="55.693588" lon="26.460270">
<ele>136.490356</ele>
<time>2010-07-18T10:07:16Z</time>
<desc>lat.=55.693588, lon.=26.460270, Alt.=136.490356m. Speed=0.072000m/h.</desc>
<speed>0.020000</speed>
</trkpt>
<trkpt lat="55.693588" lon="26.460270">
<ele>136.502075</ele>
<time>2010-07-18T10:07:17Z</time>
<desc>lat.=55.693588, lon.=26.460270, Alt.=136.502075m. Speed=0.072000m/h.</desc>
<speed>0.020000</speed>
</trkpt>
<trkpt lat="55.693588" lon="26.460270">
<ele>136.505981</ele>
<time>2010-07-18T10:07:18Z</time>
<desc>lat.=55.693588, lon.=26.460270, Alt.=136.505981m. Speed=0.000000m/h.</desc>
<speed>0.000000</speed>
</trkpt>
<trkpt lat="55.693588" lon="26.460270">
<ele>136.509888</ele>
<time>2010-07-18T10:07:19Z</time>
<desc>lat.=55.693588, lon.=26.460270, Alt.=136.509888m. Speed=0.036000m/h.</desc>
<speed>0.010000</speed>
</trkpt>
<trkpt lat="55.693588" lon="26.460270">
<ele>136.525513</ele>
<time>2010-07-18T10:07:20Z</time>
<desc>lat.=55.693588, lon.=26.460270, Alt.=136.525513m. Speed=0.072000m/h.</desc>
<speed>0.020000</speed>
</trkpt>
<trkpt lat="55.693588" lon="26.460270">
<ele>136.548950</ele>
<time>2010-07-18T10:07:21Z</time>
<desc>lat.=55.693588, lon.=26.460270, Alt.=136.548950m. Speed=0.036000m/h.</desc>
<speed>0.010000</speed>
</trkpt>
<trkpt lat="55.693588" lon="26.460270">
<ele>136.568481</ele>
<time>2010-07-18T10:07:22Z</time>
<desc>lat.=55.693588, lon.=26.460270, Alt.=136.568481m. Speed=0.000000m/h.</desc>
<speed>0.000000</speed>
</trkpt>
<trkpt lat="55.693588" lon="26.460272">
<ele>136.588013</ele>
<time>2010-07-18T10:07:23Z</time>
<desc>lat.=55.693588, lon.=26.460272, Alt.=136.588013m. Speed=0.144000m/h.</desc>
<speed>0.040000</speed>
</trkpt>
<trkpt lat="55.693588" lon="26.460272">
<ele>136.607544</ele>
<time>2010-07-18T10:07:24Z</time>
<desc>lat.=55.693588, lon.=26.460272, Alt.=136.607544m. Speed=0.108000m/h.</desc>
<speed>0.030000</speed>
</trkpt>
<trkpt lat="55.693588" lon="26.460272">
<ele>136.627075</ele>
<time>2010-07-18T10:07:25Z</time>
<desc>lat.=55.693588, lon.=26.460272, Alt.=136.627075m. Speed=0.072000m/h.</desc>
<speed>0.020000</speed>
</trkpt>
<trkpt lat="55.693588" lon="26.460272">
<ele>136.638794</ele>
<time>2010-07-18T10:07:26Z</time>
<desc>lat.=55.693588, lon.=26.460272, Alt.=136.638794m. Speed=0.036000m/h.</desc>
<speed>0.010000</speed>
</trkpt>
<trkpt lat="55.693588" lon="26.460272">
<ele>136.658325</ele>
<time>2010-07-18T10:07:27Z</time>
<desc>lat.=55.693588, lon.=26.460272, Alt.=136.658325m. Speed=0.036000m/h.</desc>
<speed>0.010000</speed>
</trkpt>
<trkpt lat="55.693592" lon="26.460272">
<ele>136.670044</ele>
<time>2010-07-18T10:07:28Z</time>
<desc>lat.=55.693592, lon.=26.460272, Alt.=136.670044m. Speed=0.108000m/h.</desc>
<speed>0.030000</speed>
</trkpt>
<trkpt lat="55.693592" lon="26.460272">
<ele>136.681763</ele>
<time>2010-07-18T10:07:29Z</time>
<desc>lat.=55.693592, lon.=26.460272, Alt.=136.681763m. Speed=0.036000m/h.</desc>
<speed>0.010000</speed>
</trkpt>
<trkpt lat="55.693592" lon="26.460272">
<ele>136.685669</ele>
<time>2010-07-18T10:07:30Z</time>
<desc>lat.=55.693592, lon.=26.460272, Alt.=136.685669m. Speed=0.036000m/h.</desc>
<speed>0.010000</speed>
</trkpt>
<trkpt lat="55.693592" lon="26.460272">
<ele>136.697388</ele>
<time>2010-07-18T10:07:31Z</time>
<desc>lat.=55.693592, lon.=26.460272, Alt.=136.697388m. Speed=0.072000m/h.</desc>
<speed>0.020000</speed>
</trkpt>
<trkpt lat="55.693592" lon="26.460272">
<ele>136.705200</ele>
<time>2010-07-18T10:07:32Z</time>
<desc>lat.=55.693592, lon.=26.460272, Alt.=136.705200m. Speed=0.072000m/h.</desc>
<speed>0.020000</speed>
</trkpt>
<trkpt lat="55.693592" lon="26.460272">
<ele>136.720825</ele>
<time>2010-07-18T10:07:33Z</time>
<desc>lat.=55.693592, lon.=26.460272, Alt.=136.720825m. Speed=0.072000m/h.</desc>
<speed>0.020000</speed>
</trkpt>
<trkpt lat="55.693592" lon="26.460272">
<ele>136.724731</ele>
<time>2010-07-18T10:07:34Z</time>
<desc>lat.=55.693592, lon.=26.460272, Alt.=136.724731m. Speed=0.036000m/h.</desc>
<speed>0.010000</speed>
</trkpt>
<trkpt lat="55.693592" lon="26.460272">
<ele>136.744263</ele>
<time>2010-07-18T10:07:35Z</time>
<desc>lat.=55.693592, lon.=26.460272, Alt.=136.744263m. Speed=0.108000m/h.</desc>
<speed>0.030000</speed>
</trkpt>
<trkpt lat="55.693592" lon="26.460272">
<ele>136.755981</ele>
<time>2010-07-18T10:07:36Z</time>
<desc>lat.=55.693592, lon.=26.460272, Alt.=136.755981m. Speed=0.072000m/h.</desc>
<speed>0.020000</speed>
</trkpt>
<trkpt lat="55.693592" lon="26.460272">
<ele>136.767700</ele>
<time>2010-07-18T10:07:37Z</time>
<desc>lat.=55.693592, lon.=26.460272, Alt.=136.767700m. Speed=0.072000m/h.</desc>
<speed>0.020000</speed>
</trkpt>
<trkpt lat="55.693592" lon="26.460272">
<ele>136.783325</ele>
<time>2010-07-18T10:07:38Z</time>
<desc>lat.=55.693592, lon.=26.460272, Alt.=136.783325m. Speed=0.108000m/h.</desc>
<speed>0.030000</speed>
</trkpt>
<trkpt lat="55.693592" lon="26.460272">
<ele>136.798950</ele>
<time>2010-07-18T10:07:39Z</time>
<desc>lat.=55.693592, lon.=26.460272, Alt.=136.798950m. Speed=0.036000m/h.</desc>
<speed>0.010000</speed>
</trkpt>
<trkpt lat="55.693592" lon="26.460274">
<ele>136.818481</ele>
<time>2010-07-18T10:07:40Z</time>
<desc>lat.=55.693592, lon.=26.460274, Alt.=136.818481m. Speed=0.072000m/h.</desc>
<speed>0.020000</speed>
</trkpt>
<trkpt lat="55.693592" lon="26.460274">
<ele>136.838013</ele>
<time>2010-07-18T10:07:41Z</time>
<desc>lat.=55.693592, lon.=26.460274, Alt.=136.838013m. Speed=0.072000m/h.</desc>
<speed>0.020000</speed>
</trkpt>
<trkpt lat="55.693592" lon="26.460274">
<ele>136.857544</ele>
<time>2010-07-18T10:07:42Z</time>
<desc>lat.=55.693592, lon.=26.460274, Alt.=136.857544m. Speed=0.108000m/h.</desc>
<speed>0.030000</speed>
</trkpt>
<trkpt lat="55.693592" lon="26.460274">
<ele>136.873169</ele>
<time>2010-07-18T10:07:43Z</time>
<desc>lat.=55.693592, lon.=26.460274, Alt.=136.873169m. Speed=0.108000m/h.</desc>
<speed>0.030000</speed>
</trkpt>
<trkpt lat="55.693592" lon="26.460274">
<ele>136.888794</ele>
<time>2010-07-18T10:07:44Z</time>
<desc>lat.=55.693592, lon.=26.460274, Alt.=136.888794m. Speed=0.072000m/h.</desc>
<speed>0.020000</speed>
</trkpt>
<trkpt lat="55.693592" lon="26.460274">
<ele>136.900513</ele>
<time>2010-07-18T10:07:45Z</time>
<desc>lat.=55.693592, lon.=26.460274, Alt.=136.900513m. Speed=0.000000m/h.</desc>
<speed>0.000000</speed>
</trkpt>
<trkpt lat="55.693592" lon="26.460274">
<ele>136.908325</ele>
<time>2010-07-18T10:07:46Z</time>
<desc>lat.=55.693592, lon.=26.460274, Alt.=136.908325m. Speed=0.000000m/h.</desc>
<speed>0.000000</speed>
</trkpt>
<trkpt lat="55.693592" lon="26.460274">
<ele>136.923950</ele>
<time>2010-07-18T10:07:47Z</time>
<desc>lat.=55.693592, lon.=26.460274, Alt.=136.923950m. Speed=0.036000m/h.</desc>
<speed>0.010000</speed>
</trkpt>
<trkpt lat="55.693592" lon="26.460274">
<ele>136.939575</ele>
<time>2010-07-18T10:07:48Z</time>
<desc>lat.=55.693592, lon.=26.460274, Alt.=136.939575m. Speed=0.036000m/h.</desc>
<speed>0.010000</speed>
</trkpt>
<trkpt lat="55.693592" lon="26.460274">
<ele>136.951294</ele>
<time>2010-07-18T10:07:49Z</time>
<desc>lat.=55.693592, lon.=26.460274, Alt.=136.951294m. Speed=0.072000m/h.</desc>
<speed>0.020000</speed>
</trkpt>
<trkpt lat="55.693592" lon="26.460274">
<ele>136.955200</ele>
<time>2010-07-18T10:07:50Z</time>
<desc>lat.=55.693592, lon.=26.460274, Alt.=136.955200m. Speed=0.036000m/h.</desc>
<speed>0.010000</speed>
</trkpt>
<trkpt lat="55.693592" lon="26.460274">
<ele>136.966919</ele>
<time>2010-07-18T10:07:51Z</time>
<desc>lat.=55.693592, lon.=26.460274, Alt.=136.966919m. Speed=0.036000m/h.</desc>
<speed>0.010000</speed>
</trkpt>
<trkpt lat="55.693592" lon="26.460274">
<ele>136.978638</ele>
<time>2010-07-18T10:07:52Z</time>
<desc>lat.=55.693592, lon.=26.460274, Alt.=136.978638m. Speed=0.072000m/h.</desc>
<speed>0.020000</speed>
</trkpt>
<trkpt lat="55.693592" lon="26.460274">
<ele>136.986450</ele>
<time>2010-07-18T10:07:53Z</time>
<desc>lat.=55.693592, lon.=26.460274, Alt.=136.986450m. Speed=0.000000m/h.</desc>
<speed>0.000000</speed>
</trkpt>
<trkpt lat="55.693592" lon="26.460274">
<ele>136.998169</ele>
<time>2010-07-18T10:07:54Z</time>
<desc>lat.=55.693592, lon.=26.460274, Alt.=136.998169m. Speed=0.036000m/h.</desc>
<speed>0.010000</speed>
</trkpt>
<trkpt lat="55.693592" lon="26.460274">
<ele>137.005981</ele>
<time>2010-07-18T10:07:55Z</time>
<desc>lat.=55.693592, lon.=26.460274, Alt.=137.005981m. Speed=0.000000m/h.</desc>
<speed>0.000000</speed>
</trkpt>
<trkpt lat="55.693592" lon="26.460274">
<ele>137.017700</ele>
<time>2010-07-18T10:07:56Z</time>
<desc>lat.=55.693592, lon.=26.460274, Alt.=137.017700m. Speed=0.072000m/h.</desc>
<speed>0.020000</speed>
</trkpt>
<trkpt lat="55.693592" lon="26.460274">
<ele>137.037231</ele>
<time>2010-07-18T10:07:57Z</time>
<desc>lat.=55.693592, lon.=26.460274, Alt.=137.037231m. Speed=0.072000m/h.</desc>
<speed>0.020000</speed>
</trkpt>
<trkpt lat="55.693592" lon="26.460276">
<ele>137.052856</ele>
<time>2010-07-18T10:07:58Z</time>
<desc>lat.=55.693592, lon.=26.460276, Alt.=137.052856m. Speed=0.072000m/h.</desc>
<speed>0.020000</speed>
</trkpt>
<trkpt lat="55.693596" lon="26.460276">
<ele>137.068481</ele>
<time>2010-07-18T10:07:59Z</time>
<desc>lat.=55.693596, lon.=26.460276, Alt.=137.068481m. Speed=0.036000m/h.</desc>
<speed>0.010000</speed>
</trkpt>
<trkpt lat="55.693596" lon="26.460276">
<ele>137.084106</ele>
<time>2010-07-18T10:08:00Z</time>
<desc>lat.=55.693596, lon.=26.460276, Alt.=137.084106m. Speed=0.036000m/h.</desc>
<speed>0.010000</speed>
</trkpt>
<trkpt lat="55.693596" lon="26.460276">
<ele>137.099731</ele>
<time>2010-07-18T10:08:01Z</time>
<desc>lat.=55.693596, lon.=26.460276, Alt.=137.099731m. Speed=0.072000m/h.</desc>
<speed>0.020000</speed>
</trkpt>
<trkpt lat="55.693596" lon="26.460276">
<ele>137.111450</ele>
<time>2010-07-18T10:08:02Z</time>
<desc>lat.=55.693596, lon.=26.460276, Alt.=137.111450m. Speed=0.000000m/h.</desc>
<speed>0.000000</speed>
</trkpt>
<trkpt lat="55.693596" lon="26.460276">
<ele>137.119263</ele>
<time>2010-07-18T10:08:03Z</time>
<desc>lat.=55.693596, lon.=26.460276, Alt.=137.119263m. Speed=0.108000m/h.</desc>
<speed>0.030000</speed>
</trkpt>
<trkpt lat="55.693596" lon="26.460276">
<ele>137.127075</ele>
<time>2010-07-18T10:08:04Z</time>
<desc>lat.=55.693596, lon.=26.460276, Alt.=137.127075m. Speed=0.036000m/h.</desc>
<speed>0.010000</speed>
</trkpt>
<trkpt lat="55.693596" lon="26.460276">
<ele>137.138794</ele>
<time>2010-07-18T10:08:05Z</time>
<desc>lat.=55.693596, lon.=26.460276, Alt.=137.138794m. Speed=0.072000m/h.</desc>
<speed>0.020000</speed>
</trkpt>
<trkpt lat="55.693596" lon="26.460276">
<ele>137.146606</ele>
<time>2010-07-18T10:08:06Z</time>
<desc>lat.=55.693596, lon.=26.460276, Alt.=137.146606m. Speed=0.000000m/h.</desc>
<speed>0.000000</speed>
</trkpt>
<trkpt lat="55.693596" lon="26.460276">
<ele>137.158325</ele>
<time>2010-07-18T10:08:07Z</time>
<desc>lat.=55.693596, lon.=26.460276, Alt.=137.158325m. Speed=0.036000m/h.</desc>
<speed>0.010000</speed>
</trkpt>
<trkpt lat="55.693596" lon="26.460276">
<ele>137.170044</ele>
<time>2010-07-18T10:08:08Z</time>
<desc>lat.=55.693596, lon.=26.460276, Alt.=137.170044m. Speed=0.216000m/h.</desc>
<speed>0.060000</speed>
</trkpt>
<trkpt lat="55.693596" lon="26.460276">
<ele>137.177856</ele>
<time>2010-07-18T10:08:09Z</time>
<desc>lat.=55.693596, lon.=26.460276, Alt.=137.177856m. Speed=0.000000m/h.</desc>
<speed>0.000000</speed>
</trkpt>
<trkpt lat="55.693596" lon="26.460276">
<ele>137.189575</ele>
<time>2010-07-18T10:08:10Z</time>
<desc>lat.=55.693596, lon.=26.460276, Alt.=137.189575m. Speed=0.000000m/h.</desc>
<speed>0.000000</speed>
</trkpt>
<trkpt lat="55.693596" lon="26.460276">
<ele>137.205200</ele>
<time>2010-07-18T10:08:11Z</time>
<desc>lat.=55.693596, lon.=26.460276, Alt.=137.205200m. Speed=0.072000m/h.</desc>
<speed>0.020000</speed>
</trkpt>
<trkpt lat="55.693596" lon="26.460276">
<ele>137.220825</ele>
<time>2010-07-18T10:08:12Z</time>
<desc>lat.=55.693596, lon.=26.460276, Alt.=137.220825m. Speed=0.072000m/h.</desc>
<speed>0.020000</speed>
</trkpt>
<trkpt lat="55.693596" lon="26.460276">
<ele>137.228638</ele>
<time>2010-07-18T10:08:13Z</time>
<desc>lat.=55.693596, lon.=26.460276, Alt.=137.228638m. Speed=0.000000m/h.</desc>
<speed>0.000000</speed>
</trkpt>
<trkpt lat="55.693596" lon="26.460276">
<ele>137.236450</ele>
<time>2010-07-18T10:08:14Z</time>
<desc>lat.=55.693596, lon.=26.460276, Alt.=137.236450m. Speed=0.036000m/h.</desc>
<speed>0.010000</speed>
</trkpt>
<trkpt lat="55.693596" lon="26.460276">
<ele>137.248169</ele>
<time>2010-07-18T10:08:15Z</time>
<desc>lat.=55.693596, lon.=26.460276, Alt.=137.248169m. Speed=0.036000m/h.</desc>
<speed>0.010000</speed>
</trkpt>
<trkpt lat="55.693596" lon="26.460278">
<ele>137.259888</ele>
<time>2010-07-18T10:08:16Z</time>
<desc>lat.=55.693596, lon.=26.460278, Alt.=137.259888m. Speed=0.036000m/h.</desc>
<speed>0.010000</speed>
</trkpt>
<trkpt lat="55.693596" lon="26.460278">
<ele>137.271606</ele>
<time>2010-07-18T10:08:17Z</time>
<desc>lat.=55.693596, lon.=26.460278, Alt.=137.271606m. Speed=0.072000m/h.</desc>
<speed>0.020000</speed>
</trkpt>
<trkpt lat="55.693596" lon="26.460278">
<ele>137.283325</ele>
<time>2010-07-18T10:08:18Z</time>
<desc>lat.=55.693596, lon.=26.460278, Alt.=137.283325m. Speed=0.036000m/h.</desc>
<speed>0.010000</speed>
</trkpt>
<trkpt lat="55.693596" lon="26.460278">
<ele>137.295044</ele>
<time>2010-07-18T10:08:19Z</time>
<desc>lat.=55.693596, lon.=26.460278, Alt.=137.295044m. Speed=0.072000m/h.</desc>
<speed>0.020000</speed>
</trkpt>
<trkpt lat="55.693596" lon="26.460278">
<ele>137.302856</ele>
<time>2010-07-18T10:08:20Z</time>
<desc>lat.=55.693596, lon.=26.460278, Alt.=137.302856m. Speed=0.108000m/h.</desc>
<speed>0.030000</speed>
</trkpt>
<trkpt lat="55.693596" lon="26.460278">
<ele>137.314575</ele>
<time>2010-07-18T10:08:21Z</time>
<desc>lat.=55.693596, lon.=26.460278, Alt.=137.314575m. Speed=0.108000m/h.</desc>
<speed>0.030000</speed>
</trkpt>
<trkpt lat="55.693596" lon="26.460278">
<ele>137.322388</ele>
<time>2010-07-18T10:08:22Z</time>
<desc>lat.=55.693596, lon.=26.460278, Alt.=137.322388m. Speed=0.180000m/h.</desc>
<speed>0.050000</speed>
</trkpt>
<trkpt lat="55.693596" lon="26.460278">
<ele>137.330200</ele>
<time>2010-07-18T10:08:23Z</time>
<desc>lat.=55.693596, lon.=26.460278, Alt.=137.330200m. Speed=0.072000m/h.</desc>
<speed>0.020000</speed>
</trkpt>
<trkpt lat="55.693596" lon="26.460278">
<ele>137.338013</ele>
<time>2010-07-18T10:08:24Z</time>
<desc>lat.=55.693596, lon.=26.460278, Alt.=137.338013m. Speed=0.108000m/h.</desc>
<speed>0.030000</speed>
</trkpt>
<trkpt lat="55.693596" lon="26.460279">
<ele>137.341919</ele>
<time>2010-07-18T10:08:25Z</time>
<desc>lat.=55.693596, lon.=26.460279, Alt.=137.341919m. Speed=0.072000m/h.</desc>
<speed>0.020000</speed>
</trkpt>
<trkpt lat="55.693596" lon="26.460279">
<ele>137.345825</ele>
<time>2010-07-18T10:08:26Z</time>
<desc>lat.=55.693596, lon.=26.460279, Alt.=137.345825m. Speed=0.036000m/h.</desc>
<speed>0.010000</speed>
</trkpt>
<trkpt lat="55.693596" lon="26.460279">
<ele>137.349731</ele>
<time>2010-07-18T10:08:27Z</time>
<desc>lat.=55.693596, lon.=26.460279, Alt.=137.349731m. Speed=0.072000m/h.</desc>
<speed>0.020000</speed>
</trkpt>
<trkpt lat="55.693596" lon="26.460279">
<ele>137.353638</ele>
<time>2010-07-18T10:08:28Z</time>
<desc>lat.=55.693596, lon.=26.460279, Alt.=137.353638m. Speed=0.144000m/h.</desc>
<speed>0.040000</speed>
</trkpt>
<trkpt lat="55.693596" lon="26.460279">
<ele>137.357544</ele>
<time>2010-07-18T10:08:29Z</time>
<desc>lat.=55.693596, lon.=26.460279, Alt.=137.357544m. Speed=0.000000m/h.</desc>
<speed>0.000000</speed>
</trkpt>
<trkpt lat="55.693596" lon="26.460279">
<ele>137.361450</ele>
<time>2010-07-18T10:08:30Z</time>
<desc>lat.=55.693596, lon.=26.460279, Alt.=137.361450m. Speed=0.000000m/h.</desc>
<speed>0.000000</speed>
</trkpt>
<trkpt lat="55.693596" lon="26.460279">
<ele>137.369263</ele>
<time>2010-07-18T10:08:31Z</time>
<desc>lat.=55.693596, lon.=26.460279, Alt.=137.369263m. Speed=0.072000m/h.</desc>
<speed>0.020000</speed>
</trkpt>
<trkpt lat="55.693596" lon="26.460279">
<ele>137.373169</ele>
<time>2010-07-18T10:08:32Z</time>
<desc>lat.=55.693596, lon.=26.460279, Alt.=137.373169m. Speed=0.180000m/h.</desc>
<speed>0.050000</speed>
</trkpt>
<trkpt lat="55.693596" lon="26.460281">
<ele>137.377075</ele>
<time>2010-07-18T10:08:33Z</time>
<desc>lat.=55.693596, lon.=26.460281, Alt.=137.377075m. Speed=0.144000m/h.</desc>
<speed>0.040000</speed>
</trkpt>
<trkpt lat="55.693596" lon="26.460281">
<ele>137.377075</ele>
<time>2010-07-18T10:08:34Z</time>
<desc>lat.=55.693596, lon.=26.460281, Alt.=137.377075m. Speed=0.108000m/h.</desc>
<speed>0.030000</speed>
</trkpt>
<trkpt lat="55.693596" lon="26.460281">
<ele>137.377075</ele>
<time>2010-07-18T10:08:35Z</time>
<desc>lat.=55.693596, lon.=26.460281, Alt.=137.377075m. Speed=0.108000m/h.</desc>
<speed>0.030000</speed>
</trkpt>
<trkpt lat="55.693596" lon="26.460281">
<ele>137.377075</ele>
<time>2010-07-18T10:08:36Z</time>
<desc>lat.=55.693596, lon.=26.460281, Alt.=137.377075m. Speed=0.108000m/h.</desc>
<speed>0.030000</speed>
</trkpt>
<trkpt lat="55.693596" lon="26.460281">
<ele>137.373169</ele>
<time>2010-07-18T10:08:37Z</time>
<desc>lat.=55.693596, lon.=26.460281, Alt.=137.373169m. Speed=0.108000m/h.</desc>
<speed>0.030000</speed>
</trkpt>
<trkpt lat="55.693596" lon="26.460281">
<ele>137.369263</ele>
<time>2010-07-18T10:08:38Z</time>
<desc>lat.=55.693596, lon.=26.460281, Alt.=137.369263m. Speed=0.072000m/h.</desc>
<speed>0.020000</speed>
</trkpt>
<trkpt lat="55.693596" lon="26.460281">
<ele>137.369263</ele>
<time>2010-07-18T10:08:39Z</time>
<desc>lat.=55.693596, lon.=26.460281, Alt.=137.369263m. Speed=0.108000m/h.</desc>
<speed>0.030000</speed>
</trkpt>
<trkpt lat="55.693596" lon="26.460283">
<ele>137.369263</ele>
<time>2010-07-18T10:08:40Z</time>
<desc>lat.=55.693596, lon.=26.460283, Alt.=137.369263m. Speed=0.108000m/h.</desc>
<speed>0.030000</speed>
</trkpt>
<trkpt lat="55.693596" lon="26.460283">
<ele>137.369263</ele>
<time>2010-07-18T10:08:41Z</time>
<desc>lat.=55.693596, lon.=26.460283, Alt.=137.369263m. Speed=0.108000m/h.</desc>
<speed>0.030000</speed>
</trkpt>
<trkpt lat="55.693596" lon="26.460283">
<ele>137.373169</ele>
<time>2010-07-18T10:08:42Z</time>
<desc>lat.=55.693596, lon.=26.460283, Alt.=137.373169m. Speed=0.072000m/h.</desc>
<speed>0.020000</speed>
</trkpt>
<trkpt lat="55.693596" lon="26.460283">
<ele>137.380981</ele>
<time>2010-07-18T10:08:43Z</time>
<desc>lat.=55.693596, lon.=26.460283, Alt.=137.380981m. Speed=0.108000m/h.</desc>
<speed>0.030000</speed>
</trkpt>
<trkpt lat="55.693596" lon="26.460283">
<ele>137.380981</ele>
<time>2010-07-18T10:08:44Z</time>
<desc>lat.=55.693596, lon.=26.460283, Alt.=137.380981m. Speed=0.036000m/h.</desc>
<speed>0.010000</speed>
</trkpt>
<trkpt lat="55.693596" lon="26.460283">
<ele>137.388794</ele>
<time>2010-07-18T10:08:45Z</time>
<desc>lat.=55.693596, lon.=26.460283, Alt.=137.388794m. Speed=0.036000m/h.</desc>
<speed>0.010000</speed>
</trkpt>
<trkpt lat="55.693596" lon="26.460283">
<ele>137.400513</ele>
<time>2010-07-18T10:08:46Z</time>
<desc>lat.=55.693596, lon.=26.460283, Alt.=137.400513m. Speed=0.144000m/h.</desc>
<speed>0.040000</speed>
</trkpt>
<trkpt lat="55.693596" lon="26.460283">
<ele>137.404419</ele>
<time>2010-07-18T10:08:47Z</time>
<desc>lat.=55.693596, lon.=26.460283, Alt.=137.404419m. Speed=0.144000m/h.</desc>
<speed>0.040000</speed>
</trkpt>
<trkpt lat="55.693596" lon="26.460285">
<ele>137.412231</ele>
<time>2010-07-18T10:08:48Z</time>
<desc>lat.=55.693596, lon.=26.460285, Alt.=137.412231m. Speed=0.072000m/h.</desc>
<speed>0.020000</speed>
</trkpt>
<trkpt lat="55.693596" lon="26.460285">
<ele>137.412231</ele>
<time>2010-07-18T10:08:49Z</time>
<desc>lat.=55.693596, lon.=26.460285, Alt.=137.412231m. Speed=0.036000m/h.</desc>
<speed>0.010000</speed>
</trkpt>
<trkpt lat="55.693596" lon="26.460285">
<ele>137.412231</ele>
<time>2010-07-18T10:08:50Z</time>
<desc>lat.=55.693596, lon.=26.460285, Alt.=137.412231m. Speed=0.108000m/h.</desc>
<speed>0.030000</speed>
</trkpt>
<trkpt lat="55.693600" lon="26.460285">
<ele>137.404419</ele>
<time>2010-07-18T10:08:51Z</time>
<desc>lat.=55.693600, lon.=26.460285, Alt.=137.404419m. Speed=0.144000m/h.</desc>
<speed>0.040000</speed>
</trkpt>
<trkpt lat="55.693600" lon="26.460285">
<ele>137.400513</ele>
<time>2010-07-18T10:08:52Z</time>
<desc>lat.=55.693600, lon.=26.460285, Alt.=137.400513m. Speed=0.072000m/h.</desc>
<speed>0.020000</speed>
</trkpt>
<trkpt lat="55.693600" lon="26.460285">
<ele>137.396606</ele>
<time>2010-07-18T10:08:53Z</time>
<desc>lat.=55.693600, lon.=26.460285, Alt.=137.396606m. Speed=0.144000m/h.</desc>
<speed>0.040000</speed>
</trkpt>
<trkpt lat="55.693600" lon="26.460285">
<ele>137.388794</ele>
<time>2010-07-18T10:08:54Z</time>
<desc>lat.=55.693600, lon.=26.460285, Alt.=137.388794m. Speed=0.144000m/h.</desc>
<speed>0.040000</speed>
</trkpt>
<trkpt lat="55.693600" lon="26.460285">
<ele>137.384888</ele>
<time>2010-07-18T10:08:55Z</time>
<desc>lat.=55.693600, lon.=26.460285, Alt.=137.384888m. Speed=0.144000m/h.</desc>
<speed>0.040000</speed>
</trkpt>
<trkpt lat="55.693600" lon="26.460285">
<ele>137.380981</ele>
<time>2010-07-18T10:08:56Z</time>
<desc>lat.=55.693600, lon.=26.460285, Alt.=137.380981m. Speed=0.108000m/h.</desc>
<speed>0.030000</speed>
</trkpt>
<trkpt lat="55.693600" lon="26.460285">
<ele>137.380981</ele>
<time>2010-07-18T10:08:57Z</time>
<desc>lat.=55.693600, lon.=26.460285, Alt.=137.380981m. Speed=0.108000m/h.</desc>
<speed>0.030000</speed>
</trkpt>
<trkpt lat="55.693600" lon="26.460285">
<ele>137.373169</ele>
<time>2010-07-18T10:08:58Z</time>
<desc>lat.=55.693600, lon.=26.460285, Alt.=137.373169m. Speed=0.180000m/h.</desc>
<speed>0.050000</speed>
</trkpt>
<trkpt lat="55.693600" lon="26.460287">
<ele>137.373169</ele>
<time>2010-07-18T10:08:59Z</time>
<desc>lat.=55.693600, lon.=26.460287, Alt.=137.373169m. Speed=0.180000m/h.</desc>
<speed>0.050000</speed>
</trkpt>
<trkpt lat="55.693600" lon="26.460287">
<ele>137.369263</ele>
<time>2010-07-18T10:09:00Z</time>
<desc>lat.=55.693600, lon.=26.460287, Alt.=137.369263m. Speed=0.144000m/h.</desc>
<speed>0.040000</speed>
</trkpt>
<trkpt lat="55.693600" lon="26.460287">
<ele>137.369263</ele>
<time>2010-07-18T10:09:01Z</time>
<desc>lat.=55.693600, lon.=26.460287, Alt.=137.369263m. Speed=0.108000m/h.</desc>
<speed>0.030000</speed>
</trkpt>
<trkpt lat="55.693600" lon="26.460287">
<ele>137.373169</ele>
<time>2010-07-18T10:09:02Z</time>
<desc>lat.=55.693600, lon.=26.460287, Alt.=137.373169m. Speed=0.216000m/h.</desc>
<speed>0.060000</speed>
</trkpt>
<trkpt lat="55.693600" lon="26.460287">
<ele>137.384888</ele>
<time>2010-07-18T10:09:03Z</time>
<desc>lat.=55.693600, lon.=26.460287, Alt.=137.384888m. Speed=0.180000m/h.</desc>
<speed>0.050000</speed>
</trkpt>
<trkpt lat="55.693600" lon="26.460287">
<ele>137.388794</ele>
<time>2010-07-18T10:09:04Z</time>
<desc>lat.=55.693600, lon.=26.460287, Alt.=137.388794m. Speed=0.036000m/h.</desc>
<speed>0.010000</speed>
</trkpt>
<trkpt lat="55.693600" lon="26.460287">
<ele>137.388794</ele>
<time>2010-07-18T10:09:05Z</time>
<desc>lat.=55.693600, lon.=26.460287, Alt.=137.388794m. Speed=0.144000m/h.</desc>
<speed>0.040000</speed>
</trkpt>
<trkpt lat="55.693600" lon="26.460287">
<ele>137.388794</ele>
<time>2010-07-18T10:09:06Z</time>
<desc>lat.=55.693600, lon.=26.460287, Alt.=137.388794m. Speed=0.036000m/h.</desc>
<speed>0.010000</speed>
</trkpt>
<trkpt lat="55.693600" lon="26.460287">
<ele>137.388794</ele>
<time>2010-07-18T10:09:07Z</time>
<desc>lat.=55.693600, lon.=26.460287, Alt.=137.388794m. Speed=0.072000m/h.</desc>
<speed>0.020000</speed>
</trkpt>
<trkpt lat="55.693600" lon="26.460287">
<ele>137.388794</ele>
<time>2010-07-18T10:09:08Z</time>
<desc>lat.=55.693600, lon.=26.460287, Alt.=137.388794m. Speed=0.036000m/h.</desc>
<speed>0.010000</speed>
</trkpt>
<trkpt lat="55.693600" lon="26.460289">
<ele>137.396606</ele>
<time>2010-07-18T10:09:09Z</time>
<desc>lat.=55.693600, lon.=26.460289, Alt.=137.396606m. Speed=0.144000m/h.</desc>
<speed>0.040000</speed>
</trkpt>
<trkpt lat="55.693600" lon="26.460289">
<ele>137.392700</ele>
<time>2010-07-18T10:09:10Z</time>
<desc>lat.=55.693600, lon.=26.460289, Alt.=137.392700m. Speed=0.108000m/h.</desc>
<speed>0.030000</speed>
</trkpt>
<trkpt lat="55.693600" lon="26.460289">
<ele>137.400513</ele>
<time>2010-07-18T10:09:11Z</time>
<desc>lat.=55.693600, lon.=26.460289, Alt.=137.400513m. Speed=0.108000m/h.</desc>
<speed>0.030000</speed>
</trkpt>
<trkpt lat="55.693600" lon="26.460289">
<ele>137.408325</ele>
<time>2010-07-18T10:09:12Z</time>
<desc>lat.=55.693600, lon.=26.460289, Alt.=137.408325m. Speed=0.036000m/h.</desc>
<speed>0.010000</speed>
</trkpt>
<trkpt lat="55.693600" lon="26.460289">
<ele>137.416138</ele>
<time>2010-07-18T10:09:13Z</time>
<desc>lat.=55.693600, lon.=26.460289, Alt.=137.416138m. Speed=0.108000m/h.</desc>
<speed>0.030000</speed>
</trkpt>
<trkpt lat="55.693600" lon="26.460289">
<ele>137.423950</ele>
<time>2010-07-18T10:09:14Z</time>
<desc>lat.=55.693600, lon.=26.460289, Alt.=137.423950m. Speed=0.000000m/h.</desc>
<speed>0.000000</speed>
</trkpt>
<trkpt lat="55.693600" lon="26.460289">
<ele>137.423950</ele>
<time>2010-07-18T10:09:15Z</time>
<desc>lat.=55.693600, lon.=26.460289, Alt.=137.423950m. Speed=0.396000m/h.</desc>
<speed>0.110000</speed>
</trkpt>
<trkpt lat="55.693600" lon="26.460289">
<ele>137.416138</ele>
<time>2010-07-18T10:09:16Z</time>
<desc>lat.=55.693600, lon.=26.460289, Alt.=137.416138m. Speed=0.108000m/h.</desc>
<speed>0.030000</speed>
</trkpt>
<trkpt lat="55.693604" lon="26.460289">
<ele>137.416138</ele>
<time>2010-07-18T10:09:17Z</time>
<desc>lat.=55.693604, lon.=26.460289, Alt.=137.416138m. Speed=0.180000m/h.</desc>
<speed>0.050000</speed>
</trkpt>
<trkpt lat="55.693604" lon="26.460289">
<ele>137.412231</ele>
<time>2010-07-18T10:09:18Z</time>
<desc>lat.=55.693604, lon.=26.460289, Alt.=137.412231m. Speed=0.108000m/h.</desc>
<speed>0.030000</speed>
</trkpt>
<trkpt lat="55.693604" lon="26.460289">
<ele>137.408325</ele>
<time>2010-07-18T10:09:19Z</time>
<desc>lat.=55.693604, lon.=26.460289, Alt.=137.408325m. Speed=0.036000m/h.</desc>
<speed>0.010000</speed>
</trkpt>
<trkpt lat="55.693604" lon="26.460289">
<ele>137.404419</ele>
<time>2010-07-18T10:09:20Z</time>
<desc>lat.=55.693604, lon.=26.460289, Alt.=137.404419m. Speed=0.000000m/h.</desc>
<speed>0.000000</speed>
</trkpt>
<trkpt lat="55.693604" lon="26.460289">
<ele>137.408325</ele>
<time>2010-07-18T10:09:21Z</time>
<desc>lat.=55.693604, lon.=26.460289, Alt.=137.408325m. Speed=0.144000m/h.</desc>
<speed>0.040000</speed>
</trkpt>
<trkpt lat="55.693604" lon="26.460289">
<ele>137.412231</ele>
<time>2010-07-18T10:09:22Z</time>
<desc>lat.=55.693604, lon.=26.460289, Alt.=137.412231m. Speed=0.108000m/h.</desc>
<speed>0.030000</speed>
</trkpt>
<trkpt lat="55.693604" lon="26.460289">
<ele>137.416138</ele>
<time>2010-07-18T10:09:23Z</time>
<desc>lat.=55.693604, lon.=26.460289, Alt.=137.416138m. Speed=0.180000m/h.</desc>
<speed>0.050000</speed>
</trkpt>
<trkpt lat="55.693604" lon="26.460289">
<ele>137.423950</ele>
<time>2010-07-18T10:09:24Z</time>
<desc>lat.=55.693604, lon.=26.460289, Alt.=137.423950m. Speed=0.072000m/h.</desc>
<speed>0.020000</speed>
</trkpt>
<trkpt lat="55.693604" lon="26.460289">
<ele>137.435669</ele>
<time>2010-07-18T10:09:25Z</time>
<desc>lat.=55.693604, lon.=26.460289, Alt.=137.435669m. Speed=0.036000m/h.</desc>
<speed>0.010000</speed>
</trkpt>
<trkpt lat="55.693604" lon="26.460289">
<ele>137.443481</ele>
<time>2010-07-18T10:09:26Z</time>
<desc>lat.=55.693604, lon.=26.460289, Alt.=137.443481m. Speed=0.036000m/h.</desc>
<speed>0.010000</speed>
</trkpt>
<trkpt lat="55.693604" lon="26.460291">
<ele>137.443481</ele>
<time>2010-07-18T10:09:27Z</time>
<desc>lat.=55.693604, lon.=26.460291, Alt.=137.443481m. Speed=0.072000m/h.</desc>
<speed>0.020000</speed>
</trkpt>
<trkpt lat="55.693604" lon="26.460291">
<ele>137.439575</ele>
<time>2010-07-18T10:09:28Z</time>
<desc>lat.=55.693604, lon.=26.460291, Alt.=137.439575m. Speed=0.072000m/h.</desc>
<speed>0.020000</speed>
</trkpt>
<trkpt lat="55.693604" lon="26.460291">
<ele>137.443481</ele>
<time>2010-07-18T10:09:29Z</time>
<desc>lat.=55.693604, lon.=26.460291, Alt.=137.443481m. Speed=0.036000m/h.</desc>
<speed>0.010000</speed>
</trkpt>
<trkpt lat="55.693604" lon="26.460291">
<ele>137.447388</ele>
<time>2010-07-18T10:09:30Z</time>
<desc>lat.=55.693604, lon.=26.460291, Alt.=137.447388m. Speed=0.036000m/h.</desc>
<speed>0.010000</speed>
</trkpt>
<trkpt lat="55.693604" lon="26.460291">
<ele>137.455200</ele>
<time>2010-07-18T10:09:31Z</time>
<desc>lat.=55.693604, lon.=26.460291, Alt.=137.455200m. Speed=0.036000m/h.</desc>
<speed>0.010000</speed>
</trkpt>
<trkpt lat="55.693604" lon="26.460291">
<ele>137.455200</ele>
<time>2010-07-18T10:09:32Z</time>
<desc>lat.=55.693604, lon.=26.460291, Alt.=137.455200m. Speed=0.000000m/h.</desc>
<speed>0.000000</speed>
</trkpt>
<trkpt lat="55.693604" lon="26.460291">
<ele>137.455200</ele>
<time>2010-07-18T10:09:33Z</time>
<desc>lat.=55.693604, lon.=26.460291, Alt.=137.455200m. Speed=0.000000m/h.</desc>
<speed>0.000000</speed>
</trkpt>
<trkpt lat="55.693604" lon="26.460291">
<ele>137.455200</ele>
<time>2010-07-18T10:09:34Z</time>
<desc>lat.=55.693604, lon.=26.460291, Alt.=137.455200m. Speed=0.036000m/h.</desc>
<speed>0.010000</speed>
</trkpt>
<trkpt lat="55.693604" lon="26.460291">
<ele>137.451294</ele>
<time>2010-07-18T10:09:35Z</time>
<desc>lat.=55.693604, lon.=26.460291, Alt.=137.451294m. Speed=0.036000m/h.</desc>
<speed>0.010000</speed>
</trkpt>
<trkpt lat="55.693604" lon="26.460291">
<ele>137.447388</ele>
<time>2010-07-18T10:09:36Z</time>
<desc>lat.=55.693604, lon.=26.460291, Alt.=137.447388m. Speed=0.072000m/h.</desc>
<speed>0.020000</speed>
</trkpt>
<trkpt lat="55.693604" lon="26.460291">
<ele>137.443481</ele>
<time>2010-07-18T10:09:37Z</time>
<desc>lat.=55.693604, lon.=26.460291, Alt.=137.443481m. Speed=0.072000m/h.</desc>
<speed>0.020000</speed>
</trkpt>
<trkpt lat="55.693604" lon="26.460291">
<ele>137.447388</ele>
<time>2010-07-18T10:09:38Z</time>
<desc>lat.=55.693604, lon.=26.460291, Alt.=137.447388m. Speed=0.036000m/h.</desc>
<speed>0.010000</speed>
</trkpt>
<trkpt lat="55.693604" lon="26.460291">
<ele>137.447388</ele>
<time>2010-07-18T10:09:39Z</time>
<desc>lat.=55.693604, lon.=26.460291, Alt.=137.447388m. Speed=0.108000m/h.</desc>
<speed>0.030000</speed>
</trkpt>
<trkpt lat="55.693604" lon="26.460291">
<ele>137.451294</ele>
<time>2010-07-18T10:09:40Z</time>
<desc>lat.=55.693604, lon.=26.460291, Alt.=137.451294m. Speed=0.036000m/h.</desc>
<speed>0.010000</speed>
</trkpt>
<trkpt lat="55.693604" lon="26.460291">
<ele>137.451294</ele>
<time>2010-07-18T10:09:41Z</time>
<desc>lat.=55.693604, lon.=26.460291, Alt.=137.451294m. Speed=0.036000m/h.</desc>
<speed>0.010000</speed>
</trkpt>
<trkpt lat="55.693604" lon="26.460291">
<ele>137.451294</ele>
<time>2010-07-18T10:09:42Z</time>
<desc>lat.=55.693604, lon.=26.460291, Alt.=137.451294m. Speed=0.144000m/h.</desc>
<speed>0.040000</speed>
</trkpt>
<trkpt lat="55.693604" lon="26.460291">
<ele>137.455200</ele>
<time>2010-07-18T10:09:43Z</time>
<desc>lat.=55.693604, lon.=26.460291, Alt.=137.455200m. Speed=0.144000m/h.</desc>
<speed>0.040000</speed>
</trkpt>
<trkpt lat="55.693604" lon="26.460291">
<ele>137.459106</ele>
<time>2010-07-18T10:09:44Z</time>
<desc>lat.=55.693604, lon.=26.460291, Alt.=137.459106m. Speed=0.108000m/h.</desc>
<speed>0.030000</speed>
</trkpt>
<trkpt lat="55.693604" lon="26.460291">
<ele>137.459106</ele>
<time>2010-07-18T10:09:45Z</time>
<desc>lat.=55.693604, lon.=26.460291, Alt.=137.459106m. Speed=0.036000m/h.</desc>
<speed>0.010000</speed>
</trkpt>
<trkpt lat="55.693604" lon="26.460291">
<ele>137.466919</ele>
<time>2010-07-18T10:09:46Z</time>
<desc>lat.=55.693604, lon.=26.460291, Alt.=137.466919m. Speed=0.036000m/h.</desc>
<speed>0.010000</speed>
</trkpt>
<trkpt lat="55.693604" lon="26.460291">
<ele>137.463013</ele>
<time>2010-07-18T10:09:47Z</time>
<desc>lat.=55.693604, lon.=26.460291, Alt.=137.463013m. Speed=0.072000m/h.</desc>
<speed>0.020000</speed>
</trkpt>
<trkpt lat="55.693604" lon="26.460291">
<ele>137.459106</ele>
<time>2010-07-18T10:09:48Z</time>
<desc>lat.=55.693604, lon.=26.460291, Alt.=137.459106m. Speed=0.144000m/h.</desc>
<speed>0.040000</speed>
</trkpt>
<trkpt lat="55.693604" lon="26.460291">
<ele>137.463013</ele>
<time>2010-07-18T10:09:49Z</time>
<desc>lat.=55.693604, lon.=26.460291, Alt.=137.463013m. Speed=0.108000m/h.</desc>
<speed>0.030000</speed>
</trkpt>
<trkpt lat="55.693604" lon="26.460291">
<ele>137.474731</ele>
<time>2010-07-18T10:09:50Z</time>
<desc>lat.=55.693604, lon.=26.460291, Alt.=137.474731m. Speed=0.108000m/h.</desc>
<speed>0.030000</speed>
</trkpt>
<trkpt lat="55.693604" lon="26.460291">
<ele>137.478638</ele>
<time>2010-07-18T10:09:51Z</time>
<desc>lat.=55.693604, lon.=26.460291, Alt.=137.478638m. Speed=0.072000m/h.</desc>
<speed>0.020000</speed>
</trkpt>
<trkpt lat="55.693607" lon="26.460291">
<ele>137.490356</ele>
<time>2010-07-18T10:09:52Z</time>
<desc>lat.=55.693607, lon.=26.460291, Alt.=137.490356m. Speed=0.144000m/h.</desc>
<speed>0.040000</speed>
</trkpt>
<trkpt lat="55.693607" lon="26.460291">
<ele>137.505981</ele>
<time>2010-07-18T10:09:53Z</time>
<desc>lat.=55.693607, lon.=26.460291, Alt.=137.505981m. Speed=0.108000m/h.</desc>
<speed>0.030000</speed>
</trkpt>
<trkpt lat="55.693607" lon="26.460291">
<ele>137.521606</ele>
<time>2010-07-18T10:09:54Z</time>
<desc>lat.=55.693607, lon.=26.460291, Alt.=137.521606m. Speed=0.144000m/h.</desc>
<speed>0.040000</speed>
</trkpt>
<trkpt lat="55.693607" lon="26.460291">
<ele>137.533325</ele>
<time>2010-07-18T10:09:55Z</time>
<desc>lat.=55.693607, lon.=26.460291, Alt.=137.533325m. Speed=0.144000m/h.</desc>
<speed>0.040000</speed>
</trkpt>
<trkpt lat="55.693607" lon="26.460293">
<ele>137.537231</ele>
<time>2010-07-18T10:09:56Z</time>
<desc>lat.=55.693607, lon.=26.460293, Alt.=137.537231m. Speed=0.144000m/h.</desc>
<speed>0.040000</speed>
</trkpt>
<trkpt lat="55.693607" lon="26.460293">
<ele>137.537231</ele>
<time>2010-07-18T10:09:57Z</time>
<desc>lat.=55.693607, lon.=26.460293, Alt.=137.537231m. Speed=0.108000m/h.</desc>
<speed>0.030000</speed>
</trkpt>
<trkpt lat="55.693607" lon="26.460293">
<ele>137.545044</ele>
<time>2010-07-18T10:09:58Z</time>
<desc>lat.=55.693607, lon.=26.460293, Alt.=137.545044m. Speed=0.180000m/h.</desc>
<speed>0.050000</speed>
</trkpt>
<trkpt lat="55.693607" lon="26.460293">
<ele>137.556763</ele>
<time>2010-07-18T10:09:59Z</time>
<desc>lat.=55.693607, lon.=26.460293, Alt.=137.556763m. Speed=0.108000m/h.</desc>
<speed>0.030000</speed>
</trkpt>
<trkpt lat="55.693607" lon="26.460293">
<ele>137.572388</ele>
<time>2010-07-18T10:10:00Z</time>
<desc>lat.=55.693607, lon.=26.460293, Alt.=137.572388m. Speed=0.144000m/h.</desc>
<speed>0.040000</speed>
</trkpt>
<trkpt lat="55.693607" lon="26.460293">
<ele>137.584106</ele>
<time>2010-07-18T10:10:01Z</time>
<desc>lat.=55.693607, lon.=26.460293, Alt.=137.584106m. Speed=0.144000m/h.</desc>
<speed>0.040000</speed>
</trkpt>
<trkpt lat="55.693607" lon="26.460293">
<ele>137.588013</ele>
<time>2010-07-18T10:10:02Z</time>
<desc>lat.=55.693607, lon.=26.460293, Alt.=137.588013m. Speed=0.144000m/h.</desc>
<speed>0.040000</speed>
</trkpt>
<trkpt lat="55.693607" lon="26.460293">
<ele>137.588013</ele>
<time>2010-07-18T10:10:03Z</time>
<desc>lat.=55.693607, lon.=26.460293, Alt.=137.588013m. Speed=0.072000m/h.</desc>
<speed>0.020000</speed>
</trkpt>
<trkpt lat="55.693607" lon="26.460293">
<ele>137.591919</ele>
<time>2010-07-18T10:10:04Z</time>
<desc>lat.=55.693607, lon.=26.460293, Alt.=137.591919m. Speed=0.072000m/h.</desc>
<speed>0.020000</speed>
</trkpt>
<trkpt lat="55.693607" lon="26.460293">
<ele>137.599731</ele>
<time>2010-07-18T10:10:05Z</time>
<desc>lat.=55.693607, lon.=26.460293, Alt.=137.599731m. Speed=0.036000m/h.</desc>
<speed>0.010000</speed>
</trkpt>
<trkpt lat="55.693607" lon="26.460293">
<ele>137.603638</ele>
<time>2010-07-18T10:10:06Z</time>
<desc>lat.=55.693607, lon.=26.460293, Alt.=137.603638m. Speed=0.000000m/h.</desc>
<speed>0.000000</speed>
</trkpt>
<trkpt lat="55.693607" lon="26.460293">
<ele>137.607544</ele>
<time>2010-07-18T10:10:07Z</time>
<desc>lat.=55.693607, lon.=26.460293, Alt.=137.607544m. Speed=0.108000m/h.</desc>
<speed>0.030000</speed>
</trkpt>
<trkpt lat="55.693607" lon="26.460293">
<ele>137.607544</ele>
<time>2010-07-18T10:10:08Z</time>
<desc>lat.=55.693607, lon.=26.460293, Alt.=137.607544m. Speed=0.144000m/h.</desc>
<speed>0.040000</speed>
</trkpt>
<trkpt lat="55.693607" lon="26.460293">
<ele>137.607544</ele>
<time>2010-07-18T10:10:09Z</time>
<desc>lat.=55.693607, lon.=26.460293, Alt.=137.607544m. Speed=0.108000m/h.</desc>
<speed>0.030000</speed>
</trkpt>
<trkpt lat="55.693607" lon="26.460293">
<ele>137.615356</ele>
<time>2010-07-18T10:10:10Z</time>
<desc>lat.=55.693607, lon.=26.460293, Alt.=137.615356m. Speed=0.036000m/h.</desc>
<speed>0.010000</speed>
</trkpt>
<trkpt lat="55.693607" lon="26.460293">
<ele>137.615356</ele>
<time>2010-07-18T10:10:11Z</time>
<desc>lat.=55.693607, lon.=26.460293, Alt.=137.615356m. Speed=0.072000m/h.</desc>
<speed>0.020000</speed>
</trkpt>
<trkpt lat="55.693611" lon="26.460293">
<ele>137.619263</ele>
<time>2010-07-18T10:10:12Z</time>
<desc>lat.=55.693611, lon.=26.460293, Alt.=137.619263m. Speed=0.072000m/h.</desc>
<speed>0.020000</speed>
</trkpt>
<trkpt lat="55.693611" lon="26.460293">
<ele>137.627075</ele>
<time>2010-07-18T10:10:13Z</time>
<desc>lat.=55.693611, lon.=26.460293, Alt.=137.627075m. Speed=0.108000m/h.</desc>
<speed>0.030000</speed>
</trkpt>
<trkpt lat="55.693611" lon="26.460293">
<ele>137.627075</ele>
<time>2010-07-18T10:10:14Z</time>
<desc>lat.=55.693611, lon.=26.460293, Alt.=137.627075m. Speed=0.144000m/h.</desc>
<speed>0.040000</speed>
</trkpt>
<trkpt lat="55.693611" lon="26.460293">
<ele>137.623169</ele>
<time>2010-07-18T10:10:15Z</time>
<desc>lat.=55.693611, lon.=26.460293, Alt.=137.623169m. Speed=0.036000m/h.</desc>
<speed>0.010000</speed>
</trkpt>
<trkpt lat="55.693611" lon="26.460293">
<ele>137.623169</ele>
<time>2010-07-18T10:10:16Z</time>
<desc>lat.=55.693611, lon.=26.460293, Alt.=137.623169m. Speed=0.036000m/h.</desc>
<speed>0.010000</speed>
</trkpt>
<trkpt lat="55.693611" lon="26.460293">
<ele>137.627075</ele>
<time>2010-07-18T10:10:17Z</time>
<desc>lat.=55.693611, lon.=26.460293, Alt.=137.627075m. Speed=0.108000m/h.</desc>
<speed>0.030000</speed>
</trkpt>
<trkpt lat="55.693611" lon="26.460293">
<ele>137.634888</ele>
<time>2010-07-18T10:10:18Z</time>
<desc>lat.=55.693611, lon.=26.460293, Alt.=137.634888m. Speed=0.036000m/h.</desc>
<speed>0.010000</speed>
</trkpt>
<trkpt lat="55.693611" lon="26.460293">
<ele>137.638794</ele>
<time>2010-07-18T10:10:19Z</time>
<desc>lat.=55.693611, lon.=26.460293, Alt.=137.638794m. Speed=0.036000m/h.</desc>
<speed>0.010000</speed>
</trkpt>
<trkpt lat="55.693611" lon="26.460293">
<ele>137.638794</ele>
<time>2010-07-18T10:10:20Z</time>
<desc>lat.=55.693611, lon.=26.460293, Alt.=137.638794m. Speed=0.036000m/h.</desc>
<speed>0.010000</speed>
</trkpt>
<trkpt lat="55.693611" lon="26.460293">
<ele>137.634888</ele>
<time>2010-07-18T10:10:21Z</time>
<desc>lat.=55.693611, lon.=26.460293, Alt.=137.634888m. Speed=0.036000m/h.</desc>
<speed>0.010000</speed>
</trkpt>
<trkpt lat="55.693611" lon="26.460293">
<ele>137.646606</ele>
<time>2010-07-18T10:10:22Z</time>
<desc>lat.=55.693611, lon.=26.460293, Alt.=137.646606m. Speed=0.000000m/h.</desc>
<speed>0.000000</speed>
</trkpt>
<trkpt lat="55.693611" lon="26.460295">
<ele>137.658325</ele>
<time>2010-07-18T10:10:23Z</time>
<desc>lat.=55.693611, lon.=26.460295, Alt.=137.658325m. Speed=0.072000m/h.</desc>
<speed>0.020000</speed>
</trkpt>
<trkpt lat="55.693611" lon="26.460295">
<ele>137.673950</ele>
<time>2010-07-18T10:10:24Z</time>
<desc>lat.=55.693611, lon.=26.460295, Alt.=137.673950m. Speed=0.036000m/h.</desc>
<speed>0.010000</speed>
</trkpt>
<trkpt lat="55.693611" lon="26.460295">
<ele>137.673950</ele>
<time>2010-07-18T10:10:25Z</time>
<desc>lat.=55.693611, lon.=26.460295, Alt.=137.673950m. Speed=0.072000m/h.</desc>
<speed>0.020000</speed>
</trkpt>
<trkpt lat="55.693611" lon="26.460295">
<ele>137.681763</ele>
<time>2010-07-18T10:10:26Z</time>
<desc>lat.=55.693611, lon.=26.460295, Alt.=137.681763m. Speed=0.072000m/h.</desc>
<speed>0.020000</speed>
</trkpt>
<trkpt lat="55.693611" lon="26.460295">
<ele>137.689575</ele>
<time>2010-07-18T10:10:27Z</time>
<desc>lat.=55.693611, lon.=26.460295, Alt.=137.689575m. Speed=0.072000m/h.</desc>
<speed>0.020000</speed>
</trkpt>
<trkpt lat="55.693611" lon="26.460295">
<ele>137.709106</ele>
<time>2010-07-18T10:10:28Z</time>
<desc>lat.=55.693611, lon.=26.460295, Alt.=137.709106m. Speed=0.108000m/h.</desc>
<speed>0.030000</speed>
</trkpt>
<trkpt lat="55.693611" lon="26.460295">
<ele>137.732544</ele>
<time>2010-07-18T10:10:29Z</time>
<desc>lat.=55.693611, lon.=26.460295, Alt.=137.732544m. Speed=0.288000m/h.</desc>
<speed>0.080000</speed>
</trkpt>
<trkpt lat="55.693611" lon="26.460295">
<ele>137.744263</ele>
<time>2010-07-18T10:10:30Z</time>
<desc>lat.=55.693611, lon.=26.460295, Alt.=137.744263m. Speed=0.180000m/h.</desc>
<speed>0.050000</speed>
</trkpt>
<trkpt lat="55.693611" lon="26.460295">
<ele>137.748169</ele>
<time>2010-07-18T10:10:31Z</time>
<desc>lat.=55.693611, lon.=26.460295, Alt.=137.748169m. Speed=0.072000m/h.</desc>
<speed>0.020000</speed>
</trkpt>
<trkpt lat="55.693611" lon="26.460295">
<ele>137.752075</ele>
<time>2010-07-18T10:10:32Z</time>
<desc>lat.=55.693611, lon.=26.460295, Alt.=137.752075m. Speed=0.108000m/h.</desc>
<speed>0.030000</speed>
</trkpt>
<trkpt lat="55.693611" lon="26.460295">
<ele>137.763794</ele>
<time>2010-07-18T10:10:33Z</time>
<desc>lat.=55.693611, lon.=26.460295, Alt.=137.763794m. Speed=0.144000m/h.</desc>
<speed>0.040000</speed>
</trkpt>
<trkpt lat="55.693611" lon="26.460295">
<ele>137.775513</ele>
<time>2010-07-18T10:10:34Z</time>
<desc>lat.=55.693611, lon.=26.460295, Alt.=137.775513m. Speed=0.144000m/h.</desc>
<speed>0.040000</speed>
</trkpt>
<trkpt lat="55.693611" lon="26.460297">
<ele>137.783325</ele>
<time>2010-07-18T10:10:35Z</time>
<desc>lat.=55.693611, lon.=26.460297, Alt.=137.783325m. Speed=0.144000m/h.</desc>
<speed>0.040000</speed>
</trkpt>
<trkpt lat="55.693611" lon="26.460297">
<ele>137.787231</ele>
<time>2010-07-18T10:10:36Z</time>
<desc>lat.=55.693611, lon.=26.460297, Alt.=137.787231m. Speed=0.108000m/h.</desc>
<speed>0.030000</speed>
</trkpt>
<trkpt lat="55.693615" lon="26.460297">
<ele>137.802856</ele>
<time>2010-07-18T10:10:37Z</time>
<desc>lat.=55.693615, lon.=26.460297, Alt.=137.802856m. Speed=0.072000m/h.</desc>
<speed>0.020000</speed>
</trkpt>
<trkpt lat="55.693615" lon="26.460297">
<ele>137.814575</ele>
<time>2010-07-18T10:10:38Z</time>
<desc>lat.=55.693615, lon.=26.460297, Alt.=137.814575m. Speed=0.108000m/h.</desc>
<speed>0.030000</speed>
</trkpt>
<trkpt lat="55.693615" lon="26.460297">
<ele>137.822388</ele>
<time>2010-07-18T10:10:39Z</time>
<desc>lat.=55.693615, lon.=26.460297, Alt.=137.822388m. Speed=0.108000m/h.</desc>
<speed>0.030000</speed>
</trkpt>
<trkpt lat="55.693615" lon="26.460297">
<ele>137.830200</ele>
<time>2010-07-18T10:10:40Z</time>
<desc>lat.=55.693615, lon.=26.460297, Alt.=137.830200m. Speed=0.072000m/h.</desc>
<speed>0.020000</speed>
</trkpt>
<trkpt lat="55.693615" lon="26.460297">
<ele>137.834106</ele>
<time>2010-07-18T10:10:41Z</time>
<desc>lat.=55.693615, lon.=26.460297, Alt.=137.834106m. Speed=0.072000m/h.</desc>
<speed>0.020000</speed>
</trkpt>
<trkpt lat="55.693615" lon="26.460297">
<ele>137.845825</ele>
<time>2010-07-18T10:10:42Z</time>
<desc>lat.=55.693615, lon.=26.460297, Alt.=137.845825m. Speed=0.108000m/h.</desc>
<speed>0.030000</speed>
</trkpt>
<trkpt lat="55.693615" lon="26.460297">
<ele>137.857544</ele>
<time>2010-07-18T10:10:43Z</time>
<desc>lat.=55.693615, lon.=26.460297, Alt.=137.857544m. Speed=0.144000m/h.</desc>
<speed>0.040000</speed>
</trkpt>
<trkpt lat="55.693615" lon="26.460297">
<ele>137.861450</ele>
<time>2010-07-18T10:10:44Z</time>
<desc>lat.=55.693615, lon.=26.460297, Alt.=137.861450m. Speed=0.216000m/h.</desc>
<speed>0.060000</speed>
</trkpt>
<trkpt lat="55.693615" lon="26.460297">
<ele>137.865356</ele>
<time>2010-07-18T10:10:45Z</time>
<desc>lat.=55.693615, lon.=26.460297, Alt.=137.865356m. Speed=0.144000m/h.</desc>
<speed>0.040000</speed>
</trkpt>
<trkpt lat="55.693615" lon="26.460299">
<ele>137.877075</ele>
<time>2010-07-18T10:10:46Z</time>
<desc>lat.=55.693615, lon.=26.460299, Alt.=137.877075m. Speed=0.288000m/h.</desc>
<speed>0.080000</speed>
</trkpt>
<trkpt lat="55.693615" lon="26.460299">
<ele>137.884888</ele>
<time>2010-07-18T10:10:47Z</time>
<desc>lat.=55.693615, lon.=26.460299, Alt.=137.884888m. Speed=0.180000m/h.</desc>
<speed>0.050000</speed>
</trkpt>
<trkpt lat="55.693615" lon="26.460299">
<ele>137.896606</ele>
<time>2010-07-18T10:10:48Z</time>
<desc>lat.=55.693615, lon.=26.460299, Alt.=137.896606m. Speed=0.144000m/h.</desc>
<speed>0.040000</speed>
</trkpt>
<trkpt lat="55.693615" lon="26.460299">
<ele>137.900513</ele>
<time>2010-07-18T10:10:49Z</time>
<desc>lat.=55.693615, lon.=26.460299, Alt.=137.900513m. Speed=0.108000m/h.</desc>
<speed>0.030000</speed>
</trkpt>
<trkpt lat="55.693615" lon="26.460299">
<ele>137.904419</ele>
<time>2010-07-18T10:10:50Z</time>
<desc>lat.=55.693615, lon.=26.460299, Alt.=137.904419m. Speed=0.108000m/h.</desc>
<speed>0.030000</speed>
</trkpt>
<trkpt lat="55.693615" lon="26.460299">
<ele>137.912231</ele>
<time>2010-07-18T10:10:51Z</time>
<desc>lat.=55.693615, lon.=26.460299, Alt.=137.912231m. Speed=0.144000m/h.</desc>
<speed>0.040000</speed>
</trkpt>
<trkpt lat="55.693615" lon="26.460299">
<ele>137.927856</ele>
<time>2010-07-18T10:10:52Z</time>
<desc>lat.=55.693615, lon.=26.460299, Alt.=137.927856m. Speed=0.180000m/h.</desc>
<speed>0.050000</speed>
</trkpt>
<trkpt lat="55.693615" lon="26.460299">
<ele>137.935669</ele>
<time>2010-07-18T10:10:53Z</time>
<desc>lat.=55.693615, lon.=26.460299, Alt.=137.935669m. Speed=0.180000m/h.</desc>
<speed>0.050000</speed>
</trkpt>
<trkpt lat="55.693615" lon="26.460299">
<ele>137.939575</ele>
<time>2010-07-18T10:10:54Z</time>
<desc>lat.=55.693615, lon.=26.460299, Alt.=137.939575m. Speed=0.108000m/h.</desc>
<speed>0.030000</speed>
</trkpt>
<trkpt lat="55.693615" lon="26.460300">
<ele>137.943481</ele>
<time>2010-07-18T10:10:55Z</time>
<desc>lat.=55.693615, lon.=26.460300, Alt.=137.943481m. Speed=0.108000m/h.</desc>
<speed>0.030000</speed>
</trkpt>
<trkpt lat="55.693619" lon="26.460300">
<ele>137.955200</ele>
<time>2010-07-18T10:10:56Z</time>
<desc>lat.=55.693619, lon.=26.460300, Alt.=137.955200m. Speed=0.036000m/h.</desc>
<speed>0.010000</speed>
</trkpt>
<trkpt lat="55.693619" lon="26.460300">
<ele>137.963013</ele>
<time>2010-07-18T10:10:57Z</time>
<desc>lat.=55.693619, lon.=26.460300, Alt.=137.963013m. Speed=0.072000m/h.</desc>
<speed>0.020000</speed>
</trkpt>
<trkpt lat="55.693619" lon="26.460300">
<ele>137.966919</ele>
<time>2010-07-18T10:10:58Z</time>
<desc>lat.=55.693619, lon.=26.460300, Alt.=137.966919m. Speed=0.072000m/h.</desc>
<speed>0.020000</speed>
</trkpt>
<trkpt lat="55.693619" lon="26.460300">
<ele>137.970825</ele>
<time>2010-07-18T10:10:59Z</time>
<desc>lat.=55.693619, lon.=26.460300, Alt.=137.970825m. Speed=0.072000m/h.</desc>
<speed>0.020000</speed>
</trkpt>
<trkpt lat="55.693619" lon="26.460300">
<ele>137.974731</ele>
<time>2010-07-18T10:11:00Z</time>
<desc>lat.=55.693619, lon.=26.460300, Alt.=137.974731m. Speed=0.036000m/h.</desc>
<speed>0.010000</speed>
</trkpt>
<trkpt lat="55.693619" lon="26.460300">
<ele>137.982544</ele>
<time>2010-07-18T10:11:01Z</time>
<desc>lat.=55.693619, lon.=26.460300, Alt.=137.982544m. Speed=0.036000m/h.</desc>
<speed>0.010000</speed>
</trkpt>
<trkpt lat="55.693619" lon="26.460300">
<ele>137.986450</ele>
<time>2010-07-18T10:11:02Z</time>
<desc>lat.=55.693619, lon.=26.460300, Alt.=137.986450m. Speed=0.000000m/h.</desc>
<speed>0.000000</speed>
</trkpt>
<trkpt lat="55.693619" lon="26.460300">
<ele>137.990356</ele>
<time>2010-07-18T10:11:03Z</time>
<desc>lat.=55.693619, lon.=26.460300, Alt.=137.990356m. Speed=0.036000m/h.</desc>
<speed>0.010000</speed>
</trkpt>
<trkpt lat="55.693619" lon="26.460300">
<ele>138.002075</ele>
<time>2010-07-18T10:11:04Z</time>
<desc>lat.=55.693619, lon.=26.460300, Alt.=138.002075m. Speed=0.036000m/h.</desc>
<speed>0.010000</speed>
</trkpt>
<trkpt lat="55.693619" lon="26.460300">
<ele>138.013794</ele>
<time>2010-07-18T10:11:05Z</time>
<desc>lat.=55.693619, lon.=26.460300, Alt.=138.013794m. Speed=0.000000m/h.</desc>
<speed>0.000000</speed>
</trkpt>
<trkpt lat="55.693619" lon="26.460300">
<ele>138.021606</ele>
<time>2010-07-18T10:11:06Z</time>
<desc>lat.=55.693619, lon.=26.460300, Alt.=138.021606m. Speed=0.000000m/h.</desc>
<speed>0.000000</speed>
</trkpt>
<trkpt lat="55.693619" lon="26.460300">
<ele>138.025513</ele>
<time>2010-07-18T10:11:07Z</time>
<desc>lat.=55.693619, lon.=26.460300, Alt.=138.025513m. Speed=0.000000m/h.</desc>
<speed>0.000000</speed>
</trkpt>
<trkpt lat="55.693619" lon="26.460300">
<ele>138.037231</ele>
<time>2010-07-18T10:11:08Z</time>
<desc>lat.=55.693619, lon.=26.460300, Alt.=138.037231m. Speed=0.000000m/h.</desc>
<speed>0.000000</speed>
</trkpt>
<trkpt lat="55.693619" lon="26.460300">
<ele>138.048950</ele>
<time>2010-07-18T10:11:09Z</time>
<desc>lat.=55.693619, lon.=26.460300, Alt.=138.048950m. Speed=0.000000m/h.</desc>
<speed>0.000000</speed>
</trkpt>
<trkpt lat="55.693619" lon="26.460300">
<ele>138.060669</ele>
<time>2010-07-18T10:11:10Z</time>
<desc>lat.=55.693619, lon.=26.460300, Alt.=138.060669m. Speed=0.036000m/h.</desc>
<speed>0.010000</speed>
</trkpt>
<trkpt lat="55.693619" lon="26.460300">
<ele>138.064575</ele>
<time>2010-07-18T10:11:11Z</time>
<desc>lat.=55.693619, lon.=26.460300, Alt.=138.064575m. Speed=0.036000m/h.</desc>
<speed>0.010000</speed>
</trkpt>
<trkpt lat="55.693619" lon="26.460300">
<ele>138.072388</ele>
<time>2010-07-18T10:11:12Z</time>
<desc>lat.=55.693619, lon.=26.460300, Alt.=138.072388m. Speed=0.036000m/h.</desc>
<speed>0.010000</speed>
</trkpt>
<trkpt lat="55.693619" lon="26.460300">
<ele>138.080200</ele>
<time>2010-07-18T10:11:13Z</time>
<desc>lat.=55.693619, lon.=26.460300, Alt.=138.080200m. Speed=0.000000m/h.</desc>
<speed>0.000000</speed>
</trkpt>
<trkpt lat="55.693619" lon="26.460300">
<ele>138.084106</ele>
<time>2010-07-18T10:11:14Z</time>
<desc>lat.=55.693619, lon.=26.460300, Alt.=138.084106m. Speed=0.036000m/h.</desc>
<speed>0.010000</speed>
</trkpt>
<trkpt lat="55.693619" lon="26.460300">
<ele>138.088013</ele>
<time>2010-07-18T10:11:15Z</time>
<desc>lat.=55.693619, lon.=26.460300, Alt.=138.088013m. Speed=0.036000m/h.</desc>
<speed>0.010000</speed>
</trkpt>
<trkpt lat="55.693619" lon="26.460300">
<ele>138.091919</ele>
<time>2010-07-18T10:11:16Z</time>
<desc>lat.=55.693619, lon.=26.460300, Alt.=138.091919m. Speed=0.036000m/h.</desc>
<speed>0.010000</speed>
</trkpt>
<trkpt lat="55.693619" lon="26.460300">
<ele>138.103638</ele>
<time>2010-07-18T10:11:17Z</time>
<desc>lat.=55.693619, lon.=26.460300, Alt.=138.103638m. Speed=0.036000m/h.</desc>
<speed>0.010000</speed>
</trkpt>
<trkpt lat="55.693619" lon="26.460300">
<ele>138.107544</ele>
<time>2010-07-18T10:11:18Z</time>
<desc>lat.=55.693619, lon.=26.460300, Alt.=138.107544m. Speed=0.072000m/h.</desc>
<speed>0.020000</speed>
</trkpt>
<trkpt lat="55.693619" lon="26.460300">
<ele>138.115356</ele>
<time>2010-07-18T10:11:19Z</time>
<desc>lat.=55.693619, lon.=26.460300, Alt.=138.115356m. Speed=0.108000m/h.</desc>
<speed>0.030000</speed>
</trkpt>
<trkpt lat="55.693619" lon="26.460300">
<ele>138.123169</ele>
<time>2010-07-18T10:11:20Z</time>
<desc>lat.=55.693619, lon.=26.460300, Alt.=138.123169m. Speed=0.108000m/h.</desc>
<speed>0.030000</speed>
</trkpt>
<trkpt lat="55.693619" lon="26.460300">
<ele>138.130981</ele>
<time>2010-07-18T10:11:21Z</time>
<desc>lat.=55.693619, lon.=26.460300, Alt.=138.130981m. Speed=0.144000m/h.</desc>
<speed>0.040000</speed>
</trkpt>
<trkpt lat="55.693619" lon="26.460300">
<ele>138.130981</ele>
<time>2010-07-18T10:11:22Z</time>
<desc>lat.=55.693619, lon.=26.460300, Alt.=138.130981m. Speed=0.072000m/h.</desc>
<speed>0.020000</speed>
</trkpt>
<trkpt lat="55.693619" lon="26.460300">
<ele>138.142700</ele>
<time>2010-07-18T10:11:23Z</time>
<desc>lat.=55.693619, lon.=26.460300, Alt.=138.142700m. Speed=0.144000m/h.</desc>
<speed>0.040000</speed>
</trkpt>
<trkpt lat="55.693619" lon="26.460300">
<ele>138.154419</ele>
<time>2010-07-18T10:11:24Z</time>
<desc>lat.=55.693619, lon.=26.460300, Alt.=138.154419m. Speed=0.144000m/h.</desc>
<speed>0.040000</speed>
</trkpt>
<trkpt lat="55.693619" lon="26.460300">
<ele>138.162231</ele>
<time>2010-07-18T10:11:25Z</time>
<desc>lat.=55.693619, lon.=26.460300, Alt.=138.162231m. Speed=0.072000m/h.</desc>
<speed>0.020000</speed>
</trkpt>
<trkpt lat="55.693619" lon="26.460300">
<ele>138.162231</ele>
<time>2010-07-18T10:11:26Z</time>
<desc>lat.=55.693619, lon.=26.460300, Alt.=138.162231m. Speed=0.072000m/h.</desc>
<speed>0.020000</speed>
</trkpt>
<trkpt lat="55.693619" lon="26.460300">
<ele>138.170044</ele>
<time>2010-07-18T10:11:27Z</time>
<desc>lat.=55.693619, lon.=26.460300, Alt.=138.170044m. Speed=0.072000m/h.</desc>
<speed>0.020000</speed>
</trkpt>
<trkpt lat="55.693619" lon="26.460300">
<ele>138.173950</ele>
<time>2010-07-18T10:11:28Z</time>
<desc>lat.=55.693619, lon.=26.460300, Alt.=138.173950m. Speed=0.036000m/h.</desc>
<speed>0.010000</speed>
</trkpt>
<trkpt lat="55.693619" lon="26.460302">
<ele>138.185669</ele>
<time>2010-07-18T10:11:29Z</time>
<desc>lat.=55.693619, lon.=26.460302, Alt.=138.185669m. Speed=0.144000m/h.</desc>
<speed>0.040000</speed>
</trkpt>
<trkpt lat="55.693619" lon="26.460302">
<ele>138.189575</ele>
<time>2010-07-18T10:11:30Z</time>
<desc>lat.=55.693619, lon.=26.460302, Alt.=138.189575m. Speed=0.072000m/h.</desc>
<speed>0.020000</speed>
</trkpt>
<trkpt lat="55.693619" lon="26.460302">
<ele>138.201294</ele>
<time>2010-07-18T10:11:31Z</time>
<desc>lat.=55.693619, lon.=26.460302, Alt.=138.201294m. Speed=0.072000m/h.</desc>
<speed>0.020000</speed>
</trkpt>
<trkpt lat="55.693623" lon="26.460302">
<ele>138.209106</ele>
<time>2010-07-18T10:11:32Z</time>
<desc>lat.=55.693623, lon.=26.460302, Alt.=138.209106m. Speed=0.144000m/h.</desc>
<speed>0.040000</speed>
</trkpt>
<trkpt lat="55.693623" lon="26.460302">
<ele>138.224731</ele>
<time>2010-07-18T10:11:33Z</time>
<desc>lat.=55.693623, lon.=26.460302, Alt.=138.224731m. Speed=0.072000m/h.</desc>
<speed>0.020000</speed>
</trkpt>
<trkpt lat="55.693623" lon="26.460302">
<ele>138.228638</ele>
<time>2010-07-18T10:11:34Z</time>
<desc>lat.=55.693623, lon.=26.460302, Alt.=138.228638m. Speed=0.000000m/h.</desc>
<speed>0.000000</speed>
</trkpt>
<trkpt lat="55.693623" lon="26.460302">
<ele>138.228638</ele>
<time>2010-07-18T10:11:35Z</time>
<desc>lat.=55.693623, lon.=26.460302, Alt.=138.228638m. Speed=0.000000m/h.</desc>
<speed>0.000000</speed>
</trkpt>
<trkpt lat="55.693623" lon="26.460302">
<ele>138.228638</ele>
<time>2010-07-18T10:11:36Z</time>
<desc>lat.=55.693623, lon.=26.460302, Alt.=138.228638m. Speed=0.000000m/h.</desc>
<speed>0.000000</speed>
</trkpt>
<trkpt lat="55.693623" lon="26.460302">
<ele>138.232544</ele>
<time>2010-07-18T10:11:37Z</time>
<desc>lat.=55.693623, lon.=26.460302, Alt.=138.232544m. Speed=0.036000m/h.</desc>
<speed>0.010000</speed>
</trkpt>
<trkpt lat="55.693623" lon="26.460302">
<ele>138.244263</ele>
<time>2010-07-18T10:11:38Z</time>
<desc>lat.=55.693623, lon.=26.460302, Alt.=138.244263m. Speed=0.108000m/h.</desc>
<speed>0.030000</speed>
</trkpt>
<trkpt lat="55.693623" lon="26.460302">
<ele>138.248169</ele>
<time>2010-07-18T10:11:39Z</time>
<desc>lat.=55.693623, lon.=26.460302, Alt.=138.248169m. Speed=0.036000m/h.</desc>
<speed>0.010000</speed>
</trkpt>
<trkpt lat="55.693623" lon="26.460302">
<ele>138.255981</ele>
<time>2010-07-18T10:11:40Z</time>
<desc>lat.=55.693623, lon.=26.460302, Alt.=138.255981m. Speed=0.072000m/h.</desc>
<speed>0.020000</speed>
</trkpt>
<trkpt lat="55.693623" lon="26.460302">
<ele>138.267700</ele>
<time>2010-07-18T10:11:41Z</time>
<desc>lat.=55.693623, lon.=26.460302, Alt.=138.267700m. Speed=0.144000m/h.</desc>
<speed>0.040000</speed>
</trkpt>
<trkpt lat="55.693623" lon="26.460302">
<ele>138.275513</ele>
<time>2010-07-18T10:11:42Z</time>
<desc>lat.=55.693623, lon.=26.460302, Alt.=138.275513m. Speed=0.144000m/h.</desc>
<speed>0.040000</speed>
</trkpt>
<trkpt lat="55.693623" lon="26.460302">
<ele>138.287231</ele>
<time>2010-07-18T10:11:43Z</time>
<desc>lat.=55.693623, lon.=26.460302, Alt.=138.287231m. Speed=0.108000m/h.</desc>
<speed>0.030000</speed>
</trkpt>
<trkpt lat="55.693623" lon="26.460302">
<ele>138.291138</ele>
<time>2010-07-18T10:11:44Z</time>
<desc>lat.=55.693623, lon.=26.460302, Alt.=138.291138m. Speed=0.108000m/h.</desc>
<speed>0.030000</speed>
</trkpt>
<trkpt lat="55.693623" lon="26.460302">
<ele>138.295044</ele>
<time>2010-07-18T10:11:45Z</time>
<desc>lat.=55.693623, lon.=26.460302, Alt.=138.295044m. Speed=0.072000m/h.</desc>
<speed>0.020000</speed>
</trkpt>
<trkpt lat="55.693623" lon="26.460302">
<ele>138.295044</ele>
<time>2010-07-18T10:11:46Z</time>
<desc>lat.=55.693623, lon.=26.460302, Alt.=138.295044m. Speed=0.000000m/h.</desc>
<speed>0.000000</speed>
</trkpt>
<trkpt lat="55.693623" lon="26.460302">
<ele>138.302856</ele>
<time>2010-07-18T10:11:47Z</time>
<desc>lat.=55.693623, lon.=26.460302, Alt.=138.302856m. Speed=0.072000m/h.</desc>
<speed>0.020000</speed>
</trkpt>
<trkpt lat="55.693623" lon="26.460302">
<ele>138.314575</ele>
<time>2010-07-18T10:11:48Z</time>
<desc>lat.=55.693623, lon.=26.460302, Alt.=138.314575m. Speed=0.108000m/h.</desc>
<speed>0.030000</speed>
</trkpt>
<trkpt lat="55.693623" lon="26.460304">
<ele>138.322388</ele>
<time>2010-07-18T10:11:49Z</time>
<desc>lat.=55.693623, lon.=26.460304, Alt.=138.322388m. Speed=0.072000m/h.</desc>
<speed>0.020000</speed>
</trkpt>
<trkpt lat="55.693623" lon="26.460304">
<ele>138.330200</ele>
<time>2010-07-18T10:11:50Z</time>
<desc>lat.=55.693623, lon.=26.460304, Alt.=138.330200m. Speed=0.036000m/h.</desc>
<speed>0.010000</speed>
</trkpt>
<trkpt lat="55.693623" lon="26.460304">
<ele>138.338013</ele>
<time>2010-07-18T10:11:51Z</time>
<desc>lat.=55.693623, lon.=26.460304, Alt.=138.338013m. Speed=0.108000m/h.</desc>
<speed>0.030000</speed>
</trkpt>
<trkpt lat="55.693623" lon="26.460304">
<ele>138.345825</ele>
<time>2010-07-18T10:11:52Z</time>
<desc>lat.=55.693623, lon.=26.460304, Alt.=138.345825m. Speed=0.108000m/h.</desc>
<speed>0.030000</speed>
</trkpt>
<trkpt lat="55.693623" lon="26.460304">
<ele>138.345825</ele>
<time>2010-07-18T10:11:53Z</time>
<desc>lat.=55.693623, lon.=26.460304, Alt.=138.345825m. Speed=0.144000m/h.</desc>
<speed>0.040000</speed>
</trkpt>
<trkpt lat="55.693623" lon="26.460304">
<ele>138.349731</ele>
<time>2010-07-18T10:11:54Z</time>
<desc>lat.=55.693623, lon.=26.460304, Alt.=138.349731m. Speed=0.072000m/h.</desc>
<speed>0.020000</speed>
</trkpt>
<trkpt lat="55.693623" lon="26.460304">
<ele>138.361450</ele>
<time>2010-07-18T10:11:55Z</time>
<desc>lat.=55.693623, lon.=26.460304, Alt.=138.361450m. Speed=0.108000m/h.</desc>
<speed>0.030000</speed>
</trkpt>
<trkpt lat="55.693623" lon="26.460304">
<ele>138.361450</ele>
<time>2010-07-18T10:11:56Z</time>
<desc>lat.=55.693623, lon.=26.460304, Alt.=138.361450m. Speed=0.180000m/h.</desc>
<speed>0.050000</speed>
</trkpt>
<trkpt lat="55.693623" lon="26.460304">
<ele>138.365356</ele>
<time>2010-07-18T10:11:57Z</time>
<desc>lat.=55.693623, lon.=26.460304, Alt.=138.365356m. Speed=0.108000m/h.</desc>
<speed>0.030000</speed>
</trkpt>
<trkpt lat="55.693626" lon="26.460304">
<ele>138.373169</ele>
<time>2010-07-18T10:11:58Z</time>
<desc>lat.=55.693626, lon.=26.460304, Alt.=138.373169m. Speed=0.108000m/h.</desc>
<speed>0.030000</speed>
</trkpt>
<trkpt lat="55.693626" lon="26.460304">
<ele>138.377075</ele>
<time>2010-07-18T10:11:59Z</time>
<desc>lat.=55.693626, lon.=26.460304, Alt.=138.377075m. Speed=0.144000m/h.</desc>
<speed>0.040000</speed>
</trkpt>
<trkpt lat="55.693626" lon="26.460304">
<ele>138.388794</ele>
<time>2010-07-18T10:12:00Z</time>
<desc>lat.=55.693626, lon.=26.460304, Alt.=138.388794m. Speed=0.108000m/h.</desc>
<speed>0.030000</speed>
</trkpt>
<trkpt lat="55.693626" lon="26.460306">
<ele>138.400513</ele>
<time>2010-07-18T10:12:01Z</time>
<desc>lat.=55.693626, lon.=26.460306, Alt.=138.400513m. Speed=0.108000m/h.</desc>
<speed>0.030000</speed>
</trkpt>
<trkpt lat="55.693626" lon="26.460306">
<ele>138.412231</ele>
<time>2010-07-18T10:12:02Z</time>
<desc>lat.=55.693626, lon.=26.460306, Alt.=138.412231m. Speed=0.144000m/h.</desc>
<speed>0.040000</speed>
</trkpt>
<trkpt lat="55.693626" lon="26.460306">
<ele>138.412231</ele>
<time>2010-07-18T10:12:03Z</time>
<desc>lat.=55.693626, lon.=26.460306, Alt.=138.412231m. Speed=0.108000m/h.</desc>
<speed>0.030000</speed>
</trkpt>
<trkpt lat="55.693626" lon="26.460306">
<ele>138.420044</ele>
<time>2010-07-18T10:12:04Z</time>
<desc>lat.=55.693626, lon.=26.460306, Alt.=138.420044m. Speed=0.072000m/h.</desc>
<speed>0.020000</speed>
</trkpt>
<trkpt lat="55.693626" lon="26.460306">
<ele>138.431763</ele>
<time>2010-07-18T10:12:05Z</time>
<desc>lat.=55.693626, lon.=26.460306, Alt.=138.431763m. Speed=0.108000m/h.</desc>
<speed>0.030000</speed>
</trkpt>
<trkpt lat="55.693626" lon="26.460306">
<ele>138.435669</ele>
<time>2010-07-18T10:12:06Z</time>
<desc>lat.=55.693626, lon.=26.460306, Alt.=138.435669m. Speed=0.036000m/h.</desc>
<speed>0.010000</speed>
</trkpt>
<trkpt lat="55.693626" lon="26.460306">
<ele>138.447388</ele>
<time>2010-07-18T10:12:07Z</time>
<desc>lat.=55.693626, lon.=26.460306, Alt.=138.447388m. Speed=0.108000m/h.</desc>
<speed>0.030000</speed>
</trkpt>
<trkpt lat="55.693626" lon="26.460306">
<ele>138.459106</ele>
<time>2010-07-18T10:12:08Z</time>
<desc>lat.=55.693626, lon.=26.460306, Alt.=138.459106m. Speed=0.072000m/h.</desc>
<speed>0.020000</speed>
</trkpt>
<trkpt lat="55.693626" lon="26.460306">
<ele>138.466919</ele>
<time>2010-07-18T10:12:09Z</time>
<desc>lat.=55.693626, lon.=26.460306, Alt.=138.466919m. Speed=0.000000m/h.</desc>
<speed>0.000000</speed>
</trkpt>
<trkpt lat="55.693626" lon="26.460306">
<ele>138.478638</ele>
<time>2010-07-18T10:12:10Z</time>
<desc>lat.=55.693626, lon.=26.460306, Alt.=138.478638m. Speed=0.000000m/h.</desc>
<speed>0.000000</speed>
</trkpt>
<trkpt lat="55.693626" lon="26.460306">
<ele>138.490356</ele>
<time>2010-07-18T10:12:11Z</time>
<desc>lat.=55.693626, lon.=26.460306, Alt.=138.490356m. Speed=0.072000m/h.</desc>
<speed>0.020000</speed>
</trkpt>
<trkpt lat="55.693626" lon="26.460306">
<ele>138.494263</ele>
<time>2010-07-18T10:12:12Z</time>
<desc>lat.=55.693626, lon.=26.460306, Alt.=138.494263m. Speed=0.072000m/h.</desc>
<speed>0.020000</speed>
</trkpt>
<trkpt lat="55.693626" lon="26.460306">
<ele>138.502075</ele>
<time>2010-07-18T10:12:13Z</time>
<desc>lat.=55.693626, lon.=26.460306, Alt.=138.502075m. Speed=0.108000m/h.</desc>
<speed>0.030000</speed>
</trkpt>
<trkpt lat="55.693626" lon="26.460306">
<ele>138.509888</ele>
<time>2010-07-18T10:12:14Z</time>
<desc>lat.=55.693626, lon.=26.460306, Alt.=138.509888m. Speed=0.036000m/h.</desc>
<speed>0.010000</speed>
</trkpt>
<trkpt lat="55.693626" lon="26.460306">
<ele>138.513794</ele>
<time>2010-07-18T10:12:15Z</time>
<desc>lat.=55.693626, lon.=26.460306, Alt.=138.513794m. Speed=0.072000m/h.</desc>
<speed>0.020000</speed>
</trkpt>
<trkpt lat="55.693626" lon="26.460306">
<ele>138.521606</ele>
<time>2010-07-18T10:12:16Z</time>
<desc>lat.=55.693626, lon.=26.460306, Alt.=138.521606m. Speed=0.036000m/h.</desc>
<speed>0.010000</speed>
</trkpt>
<trkpt lat="55.693626" lon="26.460306">
<ele>138.525513</ele>
<time>2010-07-18T10:12:17Z</time>
<desc>lat.=55.693626, lon.=26.460306, Alt.=138.525513m. Speed=0.072000m/h.</desc>
<speed>0.020000</speed>
</trkpt>
<trkpt lat="55.693626" lon="26.460306">
<ele>138.525513</ele>
<time>2010-07-18T10:12:18Z</time>
<desc>lat.=55.693626, lon.=26.460306, Alt.=138.525513m. Speed=0.108000m/h.</desc>
<speed>0.030000</speed>
</trkpt>
<trkpt lat="55.693626" lon="26.460306">
<ele>138.529419</ele>
<time>2010-07-18T10:12:19Z</time>
<desc>lat.=55.693626, lon.=26.460306, Alt.=138.529419m. Speed=0.072000m/h.</desc>
<speed>0.020000</speed>
</trkpt>
<trkpt lat="55.693626" lon="26.460306">
<ele>138.533325</ele>
<time>2010-07-18T10:12:20Z</time>
<desc>lat.=55.693626, lon.=26.460306, Alt.=138.533325m. Speed=0.036000m/h.</desc>
<speed>0.010000</speed>
</trkpt>
<trkpt lat="55.693626" lon="26.460306">
<ele>138.537231</ele>
<time>2010-07-18T10:12:21Z</time>
<desc>lat.=55.693626, lon.=26.460306, Alt.=138.537231m. Speed=0.072000m/h.</desc>
<speed>0.020000</speed>
</trkpt>
<trkpt lat="55.693626" lon="26.460306">
<ele>138.548950</ele>
<time>2010-07-18T10:12:22Z</time>
<desc>lat.=55.693626, lon.=26.460306, Alt.=138.548950m. Speed=0.072000m/h.</desc>
<speed>0.020000</speed>
</trkpt>
<trkpt lat="55.693626" lon="26.460306">
<ele>138.552856</ele>
<time>2010-07-18T10:12:23Z</time>
<desc>lat.=55.693626, lon.=26.460306, Alt.=138.552856m. Speed=0.036000m/h.</desc>
<speed>0.010000</speed>
</trkpt>
<trkpt lat="55.693626" lon="26.460306">
<ele>138.556763</ele>
<time>2010-07-18T10:12:24Z</time>
<desc>lat.=55.693626, lon.=26.460306, Alt.=138.556763m. Speed=0.000000m/h.</desc>
<speed>0.000000</speed>
</trkpt>
<trkpt lat="55.693626" lon="26.460306">
<ele>138.564575</ele>
<time>2010-07-18T10:12:25Z</time>
<desc>lat.=55.693626, lon.=26.460306, Alt.=138.564575m. Speed=0.036000m/h.</desc>
<speed>0.010000</speed>
</trkpt>
<trkpt lat="55.693626" lon="26.460306">
<ele>138.564575</ele>
<time>2010-07-18T10:12:26Z</time>
<desc>lat.=55.693626, lon.=26.460306, Alt.=138.564575m. Speed=0.000000m/h.</desc>
<speed>0.000000</speed>
</trkpt>
<trkpt lat="55.693626" lon="26.460306">
<ele>138.572388</ele>
<time>2010-07-18T10:12:27Z</time>
<desc>lat.=55.693626, lon.=26.460306, Alt.=138.572388m. Speed=0.036000m/h.</desc>
<speed>0.010000</speed>
</trkpt>
<trkpt lat="55.693626" lon="26.460306">
<ele>138.580200</ele>
<time>2010-07-18T10:12:28Z</time>
<desc>lat.=55.693626, lon.=26.460306, Alt.=138.580200m. Speed=0.072000m/h.</desc>
<speed>0.020000</speed>
</trkpt>
<trkpt lat="55.693630" lon="26.460306">
<ele>138.584106</ele>
<time>2010-07-18T10:12:29Z</time>
<desc>lat.=55.693630, lon.=26.460306, Alt.=138.584106m. Speed=0.072000m/h.</desc>
<speed>0.020000</speed>
</trkpt>
<trkpt lat="55.693630" lon="26.460306">
<ele>138.591919</ele>
<time>2010-07-18T10:12:30Z</time>
<desc>lat.=55.693630, lon.=26.460306, Alt.=138.591919m. Speed=0.144000m/h.</desc>
<speed>0.040000</speed>
</trkpt>
<trkpt lat="55.693630" lon="26.460306">
<ele>138.595825</ele>
<time>2010-07-18T10:12:31Z</time>
<desc>lat.=55.693630, lon.=26.460306, Alt.=138.595825m. Speed=0.108000m/h.</desc>
<speed>0.030000</speed>
</trkpt>
<trkpt lat="55.693630" lon="26.460306">
<ele>138.599731</ele>
<time>2010-07-18T10:12:32Z</time>
<desc>lat.=55.693630, lon.=26.460306, Alt.=138.599731m. Speed=0.000000m/h.</desc>
<speed>0.000000</speed>
</trkpt>
<trkpt lat="55.693630" lon="26.460306">
<ele>138.611450</ele>
<time>2010-07-18T10:12:33Z</time>
<desc>lat.=55.693630, lon.=26.460306, Alt.=138.611450m. Speed=0.108000m/h.</desc>
<speed>0.030000</speed>
</trkpt>
<trkpt lat="55.693630" lon="26.460306">
<ele>138.619263</ele>
<time>2010-07-18T10:12:34Z</time>
<desc>lat.=55.693630, lon.=26.460306, Alt.=138.619263m. Speed=0.072000m/h.</desc>
<speed>0.020000</speed>
</trkpt>
<trkpt lat="55.693630" lon="26.460306">
<ele>138.630981</ele>
<time>2010-07-18T10:12:35Z</time>
<desc>lat.=55.693630, lon.=26.460306, Alt.=138.630981m. Speed=0.108000m/h.</desc>
<speed>0.030000</speed>
</trkpt>
<trkpt lat="55.693630" lon="26.460306">
<ele>138.638794</ele>
<time>2010-07-18T10:12:36Z</time>
<desc>lat.=55.693630, lon.=26.460306, Alt.=138.638794m. Speed=0.000000m/h.</desc>
<speed>0.000000</speed>
</trkpt>
<trkpt lat="55.693630" lon="26.460306">
<ele>138.642700</ele>
<time>2010-07-18T10:12:37Z</time>
<desc>lat.=55.693630, lon.=26.460306, Alt.=138.642700m. Speed=0.036000m/h.</desc>
<speed>0.010000</speed>
</trkpt>
<trkpt lat="55.693630" lon="26.460306">
<ele>138.650513</ele>
<time>2010-07-18T10:12:38Z</time>
<desc>lat.=55.693630, lon.=26.460306, Alt.=138.650513m. Speed=0.000000m/h.</desc>
<speed>0.000000</speed>
</trkpt>
<trkpt lat="55.693630" lon="26.460306">
<ele>138.662231</ele>
<time>2010-07-18T10:12:39Z</time>
<desc>lat.=55.693630, lon.=26.460306, Alt.=138.662231m. Speed=0.000000m/h.</desc>
<speed>0.000000</speed>
</trkpt>
<trkpt lat="55.693630" lon="26.460306">
<ele>138.666138</ele>
<time>2010-07-18T10:12:40Z</time>
<desc>lat.=55.693630, lon.=26.460306, Alt.=138.666138m. Speed=0.036000m/h.</desc>
<speed>0.010000</speed>
</trkpt>
<trkpt lat="55.693630" lon="26.460306">
<ele>138.677856</ele>
<time>2010-07-18T10:12:41Z</time>
<desc>lat.=55.693630, lon.=26.460306, Alt.=138.677856m. Speed=0.000000m/h.</desc>
<speed>0.000000</speed>
</trkpt>
<trkpt lat="55.693630" lon="26.460306">
<ele>138.681763</ele>
<time>2010-07-18T10:12:42Z</time>
<desc>lat.=55.693630, lon.=26.460306, Alt.=138.681763m. Speed=0.000000m/h.</desc>
<speed>0.000000</speed>
</trkpt>
<trkpt lat="55.693630" lon="26.460306">
<ele>138.689575</ele>
<time>2010-07-18T10:12:43Z</time>
<desc>lat.=55.693630, lon.=26.460306, Alt.=138.689575m. Speed=0.000000m/h.</desc>
<speed>0.000000</speed>
</trkpt>
<trkpt lat="55.693630" lon="26.460306">
<ele>138.705200</ele>
<time>2010-07-18T10:12:44Z</time>
<desc>lat.=55.693630, lon.=26.460306, Alt.=138.705200m. Speed=0.036000m/h.</desc>
<speed>0.010000</speed>
</trkpt>
<trkpt lat="55.693630" lon="26.460306">
<ele>138.713013</ele>
<time>2010-07-18T10:12:45Z</time>
<desc>lat.=55.693630, lon.=26.460306, Alt.=138.713013m. Speed=0.000000m/h.</desc>
<speed>0.000000</speed>
</trkpt>
<trkpt lat="55.693630" lon="26.460306">
<ele>138.728638</ele>
<time>2010-07-18T10:12:46Z</time>
<desc>lat.=55.693630, lon.=26.460306, Alt.=138.728638m. Speed=0.036000m/h.</desc>
<speed>0.010000</speed>
</trkpt>
<trkpt lat="55.693630" lon="26.460306">
<ele>138.740356</ele>
<time>2010-07-18T10:12:47Z</time>
<desc>lat.=55.693630, lon.=26.460306, Alt.=138.740356m. Speed=0.036000m/h.</desc>
<speed>0.010000</speed>
</trkpt>
<trkpt lat="55.693630" lon="26.460306">
<ele>138.752075</ele>
<time>2010-07-18T10:12:48Z</time>
<desc>lat.=55.693630, lon.=26.460306, Alt.=138.752075m. Speed=0.000000m/h.</desc>
<speed>0.000000</speed>
</trkpt>
<trkpt lat="55.693630" lon="26.460306">
<ele>138.763794</ele>
<time>2010-07-18T10:12:49Z</time>
<desc>lat.=55.693630, lon.=26.460306, Alt.=138.763794m. Speed=0.000000m/h.</desc>
<speed>0.000000</speed>
</trkpt>
<trkpt lat="55.693630" lon="26.460306">
<ele>138.767700</ele>
<time>2010-07-18T10:12:50Z</time>
<desc>lat.=55.693630, lon.=26.460306, Alt.=138.767700m. Speed=0.000000m/h.</desc>
<speed>0.000000</speed>
</trkpt>
<trkpt lat="55.693630" lon="26.460306">
<ele>138.779419</ele>
<time>2010-07-18T10:12:51Z</time>
<desc>lat.=55.693630, lon.=26.460306, Alt.=138.779419m. Speed=0.036000m/h.</desc>
<speed>0.010000</speed>
</trkpt>
<trkpt lat="55.693630" lon="26.460306">
<ele>138.787231</ele>
<time>2010-07-18T10:12:52Z</time>
<desc>lat.=55.693630, lon.=26.460306, Alt.=138.787231m. Speed=0.036000m/h.</desc>
<speed>0.010000</speed>
</trkpt>
<trkpt lat="55.693630" lon="26.460306">
<ele>138.791138</ele>
<time>2010-07-18T10:12:53Z</time>
<desc>lat.=55.693630, lon.=26.460306, Alt.=138.791138m. Speed=0.000000m/h.</desc>
<speed>0.000000</speed>
</trkpt>
<trkpt lat="55.693630" lon="26.460306">
<ele>138.798950</ele>
<time>2010-07-18T10:12:54Z</time>
<desc>lat.=55.693630, lon.=26.460306, Alt.=138.798950m. Speed=0.036000m/h.</desc>
<speed>0.010000</speed>
</trkpt>
<trkpt lat="55.693630" lon="26.460306">
<ele>138.802856</ele>
<time>2010-07-18T10:12:55Z</time>
<desc>lat.=55.693630, lon.=26.460306, Alt.=138.802856m. Speed=0.000000m/h.</desc>
<speed>0.000000</speed>
</trkpt>
<trkpt lat="55.693630" lon="26.460306">
<ele>138.810669</ele>
<time>2010-07-18T10:12:56Z</time>
<desc>lat.=55.693630, lon.=26.460306, Alt.=138.810669m. Speed=0.000000m/h.</desc>
<speed>0.000000</speed>
</trkpt>
<trkpt lat="55.693630" lon="26.460306">
<ele>138.818481</ele>
<time>2010-07-18T10:12:57Z</time>
<desc>lat.=55.693630, lon.=26.460306, Alt.=138.818481m. Speed=0.000000m/h.</desc>
<speed>0.000000</speed>
</trkpt>
<trkpt lat="55.693630" lon="26.460306">
<ele>138.822388</ele>
<time>2010-07-18T10:12:58Z</time>
<desc>lat.=55.693630, lon.=26.460306, Alt.=138.822388m. Speed=0.036000m/h.</desc>
<speed>0.010000</speed>
</trkpt>
<trkpt lat="55.693630" lon="26.460306">
<ele>138.826294</ele>
<time>2010-07-18T10:12:59Z</time>
<desc>lat.=55.693630, lon.=26.460306, Alt.=138.826294m. Speed=0.000000m/h.</desc>
<speed>0.000000</speed>
</trkpt>
<trkpt lat="55.693630" lon="26.460306">
<ele>138.826294</ele>
<time>2010-07-18T10:13:00Z</time>
<desc>lat.=55.693630, lon.=26.460306, Alt.=138.826294m. Speed=0.036000m/h.</desc>
<speed>0.010000</speed>
</trkpt>
<trkpt lat="55.693630" lon="26.460306">
<ele>138.834106</ele>
<time>2010-07-18T10:13:01Z</time>
<desc>lat.=55.693630, lon.=26.460306, Alt.=138.834106m. Speed=0.000000m/h.</desc>
<speed>0.000000</speed>
</trkpt>
<trkpt lat="55.693630" lon="26.460306">
<ele>138.841919</ele>
<time>2010-07-18T10:13:02Z</time>
<desc>lat.=55.693630, lon.=26.460306, Alt.=138.841919m. Speed=0.000000m/h.</desc>
<speed>0.000000</speed>
</trkpt>
<trkpt lat="55.693630" lon="26.460306">
<ele>138.841919</ele>
<time>2010-07-18T10:13:03Z</time>
<desc>lat.=55.693630, lon.=26.460306, Alt.=138.841919m. Speed=0.000000m/h.</desc>
<speed>0.000000</speed>
</trkpt>
<trkpt lat="55.693630" lon="26.460306">
<ele>138.849731</ele>
<time>2010-07-18T10:13:04Z</time>
<desc>lat.=55.693630, lon.=26.460306, Alt.=138.849731m. Speed=0.000000m/h.</desc>
<speed>0.000000</speed>
</trkpt>
<trkpt lat="55.693630" lon="26.460306">
<ele>138.849731</ele>
<time>2010-07-18T10:13:05Z</time>
<desc>lat.=55.693630, lon.=26.460306, Alt.=138.849731m. Speed=0.000000m/h.</desc>
<speed>0.000000</speed>
</trkpt>
<trkpt lat="55.693634" lon="26.460306">
<ele>138.857544</ele>
<time>2010-07-18T10:13:06Z</time>
<desc>lat.=55.693634, lon.=26.460306, Alt.=138.857544m. Speed=0.000000m/h.</desc>
<speed>0.000000</speed>
</trkpt>
<trkpt lat="55.693634" lon="26.460306">
<ele>138.865356</ele>
<time>2010-07-18T10:13:07Z</time>
<desc>lat.=55.693634, lon.=26.460306, Alt.=138.865356m. Speed=0.000000m/h.</desc>
<speed>0.000000</speed>
</trkpt>
<trkpt lat="55.693634" lon="26.460304">
<ele>138.869263</ele>
<time>2010-07-18T10:13:08Z</time>
<desc>lat.=55.693634, lon.=26.460304, Alt.=138.869263m. Speed=0.000000m/h.</desc>
<speed>0.000000</speed>
</trkpt>
<trkpt lat="55.693634" lon="26.460304">
<ele>138.877075</ele>
<time>2010-07-18T10:13:09Z</time>
<desc>lat.=55.693634, lon.=26.460304, Alt.=138.877075m. Speed=0.000000m/h.</desc>
<speed>0.000000</speed>
</trkpt>
<trkpt lat="55.693634" lon="26.460304">
<ele>138.877075</ele>
<time>2010-07-18T10:13:10Z</time>
<desc>lat.=55.693634, lon.=26.460304, Alt.=138.877075m. Speed=0.000000m/h.</desc>
<speed>0.000000</speed>
</trkpt>
<trkpt lat="55.693634" lon="26.460304">
<ele>138.888794</ele>
<time>2010-07-18T10:13:11Z</time>
<desc>lat.=55.693634, lon.=26.460304, Alt.=138.888794m. Speed=0.036000m/h.</desc>
<speed>0.010000</speed>
</trkpt>
<trkpt lat="55.693634" lon="26.460304">
<ele>138.896606</ele>
<time>2010-07-18T10:13:12Z</time>
<desc>lat.=55.693634, lon.=26.460304, Alt.=138.896606m. Speed=0.000000m/h.</desc>
<speed>0.000000</speed>
</trkpt>
<trkpt lat="55.693634" lon="26.460304">
<ele>138.904419</ele>
<time>2010-07-18T10:13:13Z</time>
<desc>lat.=55.693634, lon.=26.460304, Alt.=138.904419m. Speed=0.036000m/h.</desc>
<speed>0.010000</speed>
</trkpt>
<trkpt lat="55.693634" lon="26.460306">
<ele>138.912231</ele>
<time>2010-07-18T10:13:14Z</time>
<desc>lat.=55.693634, lon.=26.460306, Alt.=138.912231m. Speed=0.036000m/h.</desc>
<speed>0.010000</speed>
</trkpt>
<trkpt lat="55.693634" lon="26.460306">
<ele>138.908325</ele>
<time>2010-07-18T10:13:15Z</time>
<desc>lat.=55.693634, lon.=26.460306, Alt.=138.908325m. Speed=0.036000m/h.</desc>
<speed>0.010000</speed>
</trkpt>
<trkpt lat="55.693634" lon="26.460306">
<ele>138.916138</ele>
<time>2010-07-18T10:13:16Z</time>
<desc>lat.=55.693634, lon.=26.460306, Alt.=138.916138m. Speed=0.108000m/h.</desc>
<speed>0.030000</speed>
</trkpt>
<trkpt lat="55.693634" lon="26.460306">
<ele>138.920044</ele>
<time>2010-07-18T10:13:17Z</time>
<desc>lat.=55.693634, lon.=26.460306, Alt.=138.920044m. Speed=0.036000m/h.</desc>
<speed>0.010000</speed>
</trkpt>
<trkpt lat="55.693634" lon="26.460306">
<ele>138.927856</ele>
<time>2010-07-18T10:13:18Z</time>
<desc>lat.=55.693634, lon.=26.460306, Alt.=138.927856m. Speed=0.072000m/h.</desc>
<speed>0.020000</speed>
</trkpt>
<trkpt lat="55.693634" lon="26.460306">
<ele>138.935669</ele>
<time>2010-07-18T10:13:19Z</time>
<desc>lat.=55.693634, lon.=26.460306, Alt.=138.935669m. Speed=0.036000m/h.</desc>
<speed>0.010000</speed>
</trkpt>
<trkpt lat="55.693634" lon="26.460306">
<ele>138.935669</ele>
<time>2010-07-18T10:13:20Z</time>
<desc>lat.=55.693634, lon.=26.460306, Alt.=138.935669m. Speed=0.072000m/h.</desc>
<speed>0.020000</speed>
</trkpt>
<trkpt lat="55.693634" lon="26.460306">
<ele>138.939575</ele>
<time>2010-07-18T10:13:21Z</time>
<desc>lat.=55.693634, lon.=26.460306, Alt.=138.939575m. Speed=0.072000m/h.</desc>
<speed>0.020000</speed>
</trkpt>
<trkpt lat="55.693634" lon="26.460306">
<ele>138.939575</ele>
<time>2010-07-18T10:13:22Z</time>
<desc>lat.=55.693634, lon.=26.460306, Alt.=138.939575m. Speed=0.072000m/h.</desc>
<speed>0.020000</speed>
</trkpt>
<trkpt lat="55.693634" lon="26.460306">
<ele>138.943481</ele>
<time>2010-07-18T10:13:23Z</time>
<desc>lat.=55.693634, lon.=26.460306, Alt.=138.943481m. Speed=0.000000m/h.</desc>
<speed>0.000000</speed>
</trkpt>
<trkpt lat="55.693634" lon="26.460306">
<ele>138.947388</ele>
<time>2010-07-18T10:13:24Z</time>
<desc>lat.=55.693634, lon.=26.460306, Alt.=138.947388m. Speed=0.036000m/h.</desc>
<speed>0.010000</speed>
</trkpt>
<trkpt lat="55.693634" lon="26.460306">
<ele>138.955200</ele>
<time>2010-07-18T10:13:25Z</time>
<desc>lat.=55.693634, lon.=26.460306, Alt.=138.955200m. Speed=0.036000m/h.</desc>
<speed>0.010000</speed>
</trkpt>
<trkpt lat="55.693634" lon="26.460306">
<ele>138.959106</ele>
<time>2010-07-18T10:13:26Z</time>
<desc>lat.=55.693634, lon.=26.460306, Alt.=138.959106m. Speed=0.072000m/h.</desc>
<speed>0.020000</speed>
</trkpt>
<trkpt lat="55.693634" lon="26.460306">
<ele>138.959106</ele>
<time>2010-07-18T10:13:27Z</time>
<desc>lat.=55.693634, lon.=26.460306, Alt.=138.959106m. Speed=0.108000m/h.</desc>
<speed>0.030000</speed>
</trkpt>
<trkpt lat="55.693634" lon="26.460306">
<ele>138.966919</ele>
<time>2010-07-18T10:13:28Z</time>
<desc>lat.=55.693634, lon.=26.460306, Alt.=138.966919m. Speed=0.108000m/h.</desc>
<speed>0.030000</speed>
</trkpt>
<trkpt lat="55.693634" lon="26.460306">
<ele>138.966919</ele>
<time>2010-07-18T10:13:29Z</time>
<desc>lat.=55.693634, lon.=26.460306, Alt.=138.966919m. Speed=0.144000m/h.</desc>
<speed>0.040000</speed>
</trkpt>
<trkpt lat="55.693634" lon="26.460306">
<ele>138.970825</ele>
<time>2010-07-18T10:13:30Z</time>
<desc>lat.=55.693634, lon.=26.460306, Alt.=138.970825m. Speed=0.072000m/h.</desc>
<speed>0.020000</speed>
</trkpt>
<trkpt lat="55.693634" lon="26.460306">
<ele>138.970825</ele>
<time>2010-07-18T10:13:31Z</time>
<desc>lat.=55.693634, lon.=26.460306, Alt.=138.970825m. Speed=0.072000m/h.</desc>
<speed>0.020000</speed>
</trkpt>
<trkpt lat="55.693634" lon="26.460306">
<ele>138.966919</ele>
<time>2010-07-18T10:13:32Z</time>
<desc>lat.=55.693634, lon.=26.460306, Alt.=138.966919m. Speed=0.108000m/h.</desc>
<speed>0.030000</speed>
</trkpt>
<trkpt lat="55.693634" lon="26.460308">
<ele>138.966919</ele>
<time>2010-07-18T10:13:33Z</time>
<desc>lat.=55.693634, lon.=26.460308, Alt.=138.966919m. Speed=0.144000m/h.</desc>
<speed>0.040000</speed>
</trkpt>
<trkpt lat="55.693634" lon="26.460308">
<ele>138.970825</ele>
<time>2010-07-18T10:13:34Z</time>
<desc>lat.=55.693634, lon.=26.460308, Alt.=138.970825m. Speed=0.144000m/h.</desc>
<speed>0.040000</speed>
</trkpt>
<trkpt lat="55.693634" lon="26.460308">
<ele>138.970825</ele>
<time>2010-07-18T10:13:35Z</time>
<desc>lat.=55.693634, lon.=26.460308, Alt.=138.970825m. Speed=0.036000m/h.</desc>
<speed>0.010000</speed>
</trkpt>
<trkpt lat="55.693634" lon="26.460308">
<ele>138.974731</ele>
<time>2010-07-18T10:13:36Z</time>
<desc>lat.=55.693634, lon.=26.460308, Alt.=138.974731m. Speed=0.036000m/h.</desc>
<speed>0.010000</speed>
</trkpt>
<trkpt lat="55.693634" lon="26.460308">
<ele>138.974731</ele>
<time>2010-07-18T10:13:37Z</time>
<desc>lat.=55.693634, lon.=26.460308, Alt.=138.974731m. Speed=0.036000m/h.</desc>
<speed>0.010000</speed>
</trkpt>
<trkpt lat="55.693634" lon="26.460308">
<ele>138.966919</ele>
<time>2010-07-18T10:13:38Z</time>
<desc>lat.=55.693634, lon.=26.460308, Alt.=138.966919m. Speed=0.108000m/h.</desc>
<speed>0.030000</speed>
</trkpt>
<trkpt lat="55.693634" lon="26.460308">
<ele>138.974731</ele>
<time>2010-07-18T10:13:39Z</time>
<desc>lat.=55.693634, lon.=26.460308, Alt.=138.974731m. Speed=0.000000m/h.</desc>
<speed>0.000000</speed>
</trkpt>
<trkpt lat="55.693634" lon="26.460308">
<ele>138.970825</ele>
<time>2010-07-18T10:13:40Z</time>
<desc>lat.=55.693634, lon.=26.460308, Alt.=138.970825m. Speed=0.000000m/h.</desc>
<speed>0.000000</speed>
</trkpt>
<trkpt lat="55.693634" lon="26.460308">
<ele>138.978638</ele>
<time>2010-07-18T10:13:41Z</time>
<desc>lat.=55.693634, lon.=26.460308, Alt.=138.978638m. Speed=0.000000m/h.</desc>
<speed>0.000000</speed>
</trkpt>
<trkpt lat="55.693634" lon="26.460308">
<ele>138.978638</ele>
<time>2010-07-18T10:13:42Z</time>
<desc>lat.=55.693634, lon.=26.460308, Alt.=138.978638m. Speed=0.000000m/h.</desc>
<speed>0.000000</speed>
</trkpt>
<trkpt lat="55.693638" lon="26.460308">
<ele>138.982544</ele>
<time>2010-07-18T10:13:43Z</time>
<desc>lat.=55.693638, lon.=26.460308, Alt.=138.982544m. Speed=0.000000m/h.</desc>
<speed>0.000000</speed>
</trkpt>
<trkpt lat="55.693638" lon="26.460308">
<ele>138.986450</ele>
<time>2010-07-18T10:13:44Z</time>
<desc>lat.=55.693638, lon.=26.460308, Alt.=138.986450m. Speed=0.000000m/h.</desc>
<speed>0.000000</speed>
</trkpt>
<trkpt lat="55.693638" lon="26.460308">
<ele>138.990356</ele>
<time>2010-07-18T10:13:45Z</time>
<desc>lat.=55.693638, lon.=26.460308, Alt.=138.990356m. Speed=0.036000m/h.</desc>
<speed>0.010000</speed>
</trkpt>
<trkpt lat="55.693638" lon="26.460308">
<ele>138.994263</ele>
<time>2010-07-18T10:13:46Z</time>
<desc>lat.=55.693638, lon.=26.460308, Alt.=138.994263m. Speed=0.036000m/h.</desc>
<speed>0.010000</speed>
</trkpt>
<trkpt lat="55.693638" lon="26.460308">
<ele>138.998169</ele>
<time>2010-07-18T10:13:47Z</time>
<desc>lat.=55.693638, lon.=26.460308, Alt.=138.998169m. Speed=0.000000m/h.</desc>
<speed>0.000000</speed>
</trkpt>
<trkpt lat="55.693638" lon="26.460308">
<ele>139.002075</ele>
<time>2010-07-18T10:13:48Z</time>
<desc>lat.=55.693638, lon.=26.460308, Alt.=139.002075m. Speed=0.000000m/h.</desc>
<speed>0.000000</speed>
</trkpt>
<trkpt lat="55.693638" lon="26.460308">
<ele>139.002075</ele>
<time>2010-07-18T10:13:49Z</time>
<desc>lat.=55.693638, lon.=26.460308, Alt.=139.002075m. Speed=0.000000m/h.</desc>
<speed>0.000000</speed>
</trkpt>
<trkpt lat="55.693638" lon="26.460308">
<ele>139.009888</ele>
<time>2010-07-18T10:13:50Z</time>
<desc>lat.=55.693638, lon.=26.460308, Alt.=139.009888m. Speed=0.000000m/h.</desc>
<speed>0.000000</speed>
</trkpt>
<trkpt lat="55.693638" lon="26.460308">
<ele>139.009888</ele>
<time>2010-07-18T10:13:51Z</time>
<desc>lat.=55.693638, lon.=26.460308, Alt.=139.009888m. Speed=0.000000m/h.</desc>
<speed>0.000000</speed>
</trkpt>
<trkpt lat="55.693638" lon="26.460308">
<ele>139.013794</ele>
<time>2010-07-18T10:13:52Z</time>
<desc>lat.=55.693638, lon.=26.460308, Alt.=139.013794m. Speed=0.000000m/h.</desc>
<speed>0.000000</speed>
</trkpt>
<trkpt lat="55.693638" lon="26.460308">
<ele>139.013794</ele>
<time>2010-07-18T10:13:53Z</time>
<desc>lat.=55.693638, lon.=26.460308, Alt.=139.013794m. Speed=0.036000m/h.</desc>
<speed>0.010000</speed>
</trkpt>
<trkpt lat="55.693638" lon="26.460308">
<ele>139.017700</ele>
<time>2010-07-18T10:13:54Z</time>
<desc>lat.=55.693638, lon.=26.460308, Alt.=139.017700m. Speed=0.000000m/h.</desc>
<speed>0.000000</speed>
</trkpt>
<trkpt lat="55.693638" lon="26.460308">
<ele>139.017700</ele>
<time>2010-07-18T10:13:55Z</time>
<desc>lat.=55.693638, lon.=26.460308, Alt.=139.017700m. Speed=0.000000m/h.</desc>
<speed>0.000000</speed>
</trkpt>
<trkpt lat="55.693638" lon="26.460308">
<ele>139.021606</ele>
<time>2010-07-18T10:13:56Z</time>
<desc>lat.=55.693638, lon.=26.460308, Alt.=139.021606m. Speed=0.000000m/h.</desc>
<speed>0.000000</speed>
</trkpt>
<trkpt lat="55.693638" lon="26.460308">
<ele>139.025513</ele>
<time>2010-07-18T10:13:57Z</time>
<desc>lat.=55.693638, lon.=26.460308, Alt.=139.025513m. Speed=0.000000m/h.</desc>
<speed>0.000000</speed>
</trkpt>
<trkpt lat="55.693638" lon="26.460308">
<ele>139.025513</ele>
<time>2010-07-18T10:13:58Z</time>
<desc>lat.=55.693638, lon.=26.460308, Alt.=139.025513m. Speed=0.000000m/h.</desc>
<speed>0.000000</speed>
</trkpt>
<trkpt lat="55.693638" lon="26.460308">
<ele>139.021606</ele>
<time>2010-07-18T10:13:59Z</time>
<desc>lat.=55.693638, lon.=26.460308, Alt.=139.021606m. Speed=0.000000m/h.</desc>
<speed>0.000000</speed>
</trkpt>
<trkpt lat="55.693638" lon="26.460308">
<ele>139.021606</ele>
<time>2010-07-18T10:14:00Z</time>
<desc>lat.=55.693638, lon.=26.460308, Alt.=139.021606m. Speed=0.036000m/h.</desc>
<speed>0.010000</speed>
</trkpt>
<trkpt lat="55.693638" lon="26.460308">
<ele>139.021606</ele>
<time>2010-07-18T10:14:01Z</time>
<desc>lat.=55.693638, lon.=26.460308, Alt.=139.021606m. Speed=0.000000m/h.</desc>
<speed>0.000000</speed>
</trkpt>
<trkpt lat="55.693638" lon="26.460308">
<ele>139.025513</ele>
<time>2010-07-18T10:14:02Z</time>
<desc>lat.=55.693638, lon.=26.460308, Alt.=139.025513m. Speed=0.000000m/h.</desc>
<speed>0.000000</speed>
</trkpt>
<trkpt lat="55.693638" lon="26.460308">
<ele>139.029419</ele>
<time>2010-07-18T10:14:03Z</time>
<desc>lat.=55.693638, lon.=26.460308, Alt.=139.029419m. Speed=0.000000m/h.</desc>
<speed>0.000000</speed>
</trkpt>
<trkpt lat="55.693638" lon="26.460308">
<ele>139.033325</ele>
<time>2010-07-18T10:14:04Z</time>
<desc>lat.=55.693638, lon.=26.460308, Alt.=139.033325m. Speed=0.000000m/h.</desc>
<speed>0.000000</speed>
</trkpt>
<trkpt lat="55.693638" lon="26.460306">
<ele>139.041138</ele>
<time>2010-07-18T10:14:05Z</time>
<desc>lat.=55.693638, lon.=26.460306, Alt.=139.041138m. Speed=0.000000m/h.</desc>
<speed>0.000000</speed>
</trkpt>
<trkpt lat="55.693638" lon="26.460306">
<ele>139.045044</ele>
<time>2010-07-18T10:14:06Z</time>
<desc>lat.=55.693638, lon.=26.460306, Alt.=139.045044m. Speed=0.000000m/h.</desc>
<speed>0.000000</speed>
</trkpt>
<trkpt lat="55.693638" lon="26.460306">
<ele>139.045044</ele>
<time>2010-07-18T10:14:07Z</time>
<desc>lat.=55.693638, lon.=26.460306, Alt.=139.045044m. Speed=0.000000m/h.</desc>
<speed>0.000000</speed>
</trkpt>
<trkpt lat="55.693638" lon="26.460306">
<ele>139.048950</ele>
<time>2010-07-18T10:14:08Z</time>
<desc>lat.=55.693638, lon.=26.460306, Alt.=139.048950m. Speed=0.000000m/h.</desc>
<speed>0.000000</speed>
</trkpt>
<trkpt lat="55.693638" lon="26.460306">
<ele>139.048950</ele>
<time>2010-07-18T10:14:09Z</time>
<desc>lat.=55.693638, lon.=26.460306, Alt.=139.048950m. Speed=0.072000m/h.</desc>
<speed>0.020000</speed>
</trkpt>
<trkpt lat="55.693638" lon="26.460306">
<ele>139.048950</ele>
<time>2010-07-18T10:14:10Z</time>
<desc>lat.=55.693638, lon.=26.460306, Alt.=139.048950m. Speed=0.000000m/h.</desc>
<speed>0.000000</speed>
</trkpt>
<trkpt lat="55.693638" lon="26.460306">
<ele>139.052856</ele>
<time>2010-07-18T10:14:11Z</time>
<desc>lat.=55.693638, lon.=26.460306, Alt.=139.052856m. Speed=0.036000m/h.</desc>
<speed>0.010000</speed>
</trkpt>
<trkpt lat="55.693638" lon="26.460306">
<ele>139.056763</ele>
<time>2010-07-18T10:14:12Z</time>
<desc>lat.=55.693638, lon.=26.460306, Alt.=139.056763m. Speed=0.000000m/h.</desc>
<speed>0.000000</speed>
</trkpt>
<trkpt lat="55.693638" lon="26.460306">
<ele>139.060669</ele>
<time>2010-07-18T10:14:13Z</time>
<desc>lat.=55.693638, lon.=26.460306, Alt.=139.060669m. Speed=0.000000m/h.</desc>
<speed>0.000000</speed>
</trkpt>
<trkpt lat="55.693638" lon="26.460306">
<ele>139.064575</ele>
<time>2010-07-18T10:14:14Z</time>
<desc>lat.=55.693638, lon.=26.460306, Alt.=139.064575m. Speed=0.000000m/h.</desc>
<speed>0.000000</speed>
</trkpt>
<trkpt lat="55.693638" lon="26.460306">
<ele>139.064575</ele>
<time>2010-07-18T10:14:15Z</time>
<desc>lat.=55.693638, lon.=26.460306, Alt.=139.064575m. Speed=0.000000m/h.</desc>
<speed>0.000000</speed>
</trkpt>
<trkpt lat="55.693638" lon="26.460306">
<ele>139.068481</ele>
<time>2010-07-18T10:14:16Z</time>
<desc>lat.=55.693638, lon.=26.460306, Alt.=139.068481m. Speed=0.000000m/h.</desc>
<speed>0.000000</speed>
</trkpt>
<trkpt lat="55.693638" lon="26.460306">
<ele>139.068481</ele>
<time>2010-07-18T10:14:17Z</time>
<desc>lat.=55.693638, lon.=26.460306, Alt.=139.068481m. Speed=0.000000m/h.</desc>
<speed>0.000000</speed>
</trkpt>
<trkpt lat="55.693638" lon="26.460306">
<ele>139.072388</ele>
<time>2010-07-18T10:14:18Z</time>
<desc>lat.=55.693638, lon.=26.460306, Alt.=139.072388m. Speed=0.000000m/h.</desc>
<speed>0.000000</speed>
</trkpt>
<trkpt lat="55.693638" lon="26.460306">
<ele>139.076294</ele>
<time>2010-07-18T10:14:19Z</time>
<desc>lat.=55.693638, lon.=26.460306, Alt.=139.076294m. Speed=0.000000m/h.</desc>
<speed>0.000000</speed>
</trkpt>
<trkpt lat="55.693638" lon="26.460306">
<ele>139.080200</ele>
<time>2010-07-18T10:14:20Z</time>
<desc>lat.=55.693638, lon.=26.460306, Alt.=139.080200m. Speed=0.000000m/h.</desc>
<speed>0.000000</speed>
</trkpt>
<trkpt lat="55.693638" lon="26.460306">
<ele>139.080200</ele>
<time>2010-07-18T10:14:21Z</time>
<desc>lat.=55.693638, lon.=26.460306, Alt.=139.080200m. Speed=0.000000m/h.</desc>
<speed>0.000000</speed>
</trkpt>
<trkpt lat="55.693638" lon="26.460306">
<ele>139.084106</ele>
<time>2010-07-18T10:14:22Z</time>
<desc>lat.=55.693638, lon.=26.460306, Alt.=139.084106m. Speed=0.000000m/h.</desc>
<speed>0.000000</speed>
</trkpt>
<trkpt lat="55.693638" lon="26.460306">
<ele>139.076294</ele>
<time>2010-07-18T10:14:23Z</time>
<desc>lat.=55.693638, lon.=26.460306, Alt.=139.076294m. Speed=0.000000m/h.</desc>
<speed>0.000000</speed>
</trkpt>
<trkpt lat="55.693638" lon="26.460306">
<ele>139.076294</ele>
<time>2010-07-18T10:14:24Z</time>
<desc>lat.=55.693638, lon.=26.460306, Alt.=139.076294m. Speed=0.000000m/h.</desc>
<speed>0.000000</speed>
</trkpt>
<trkpt lat="55.693638" lon="26.460306">
<ele>139.072388</ele>
<time>2010-07-18T10:14:25Z</time>
<desc>lat.=55.693638, lon.=26.460306, Alt.=139.072388m. Speed=0.000000m/h.</desc>
<speed>0.000000</speed>
</trkpt>
<trkpt lat="55.693638" lon="26.460306">
<ele>139.072388</ele>
<time>2010-07-18T10:14:26Z</time>
<desc>lat.=55.693638, lon.=26.460306, Alt.=139.072388m. Speed=0.000000m/h.</desc>
<speed>0.000000</speed>
</trkpt>
<trkpt lat="55.693638" lon="26.460306">
<ele>139.068481</ele>
<time>2010-07-18T10:14:27Z</time>
<desc>lat.=55.693638, lon.=26.460306, Alt.=139.068481m. Speed=0.000000m/h.</desc>
<speed>0.000000</speed>
</trkpt>
<trkpt lat="55.693638" lon="26.460306">
<ele>139.064575</ele>
<time>2010-07-18T10:14:28Z</time>
<desc>lat.=55.693638, lon.=26.460306, Alt.=139.064575m. Speed=0.036000m/h.</desc>
<speed>0.010000</speed>
</trkpt>
<trkpt lat="55.693638" lon="26.460306">
<ele>139.064575</ele>
<time>2010-07-18T10:14:29Z</time>
<desc>lat.=55.693638, lon.=26.460306, Alt.=139.064575m. Speed=0.000000m/h.</desc>
<speed>0.000000</speed>
</trkpt>
<trkpt lat="55.693638" lon="26.460306">
<ele>139.064575</ele>
<time>2010-07-18T10:14:30Z</time>
<desc>lat.=55.693638, lon.=26.460306, Alt.=139.064575m. Speed=0.000000m/h.</desc>
<speed>0.000000</speed>
</trkpt>
<trkpt lat="55.693638" lon="26.460306">
<ele>139.056763</ele>
<time>2010-07-18T10:14:31Z</time>
<desc>lat.=55.693638, lon.=26.460306, Alt.=139.056763m. Speed=0.000000m/h.</desc>
<speed>0.000000</speed>
</trkpt>
<trkpt lat="55.693638" lon="26.460306">
<ele>139.060669</ele>
<time>2010-07-18T10:14:32Z</time>
<desc>lat.=55.693638, lon.=26.460306, Alt.=139.060669m. Speed=0.036000m/h.</desc>
<speed>0.010000</speed>
</trkpt>
<trkpt lat="55.693638" lon="26.460306">
<ele>139.056763</ele>
<time>2010-07-18T10:14:33Z</time>
<desc>lat.=55.693638, lon.=26.460306, Alt.=139.056763m. Speed=0.036000m/h.</desc>
<speed>0.010000</speed>
</trkpt>
<trkpt lat="55.693638" lon="26.460306">
<ele>139.056763</ele>
<time>2010-07-18T10:14:34Z</time>
<desc>lat.=55.693638, lon.=26.460306, Alt.=139.056763m. Speed=0.000000m/h.</desc>
<speed>0.000000</speed>
</trkpt>
<trkpt lat="55.693638" lon="26.460306">
<ele>139.056763</ele>
<time>2010-07-18T10:14:35Z</time>
<desc>lat.=55.693638, lon.=26.460306, Alt.=139.056763m. Speed=0.000000m/h.</desc>
<speed>0.000000</speed>
</trkpt>
<trkpt lat="55.693638" lon="26.460306">
<ele>139.056763</ele>
<time>2010-07-18T10:14:36Z</time>
<desc>lat.=55.693638, lon.=26.460306, Alt.=139.056763m. Speed=0.000000m/h.</desc>
<speed>0.000000</speed>
</trkpt>
<trkpt lat="55.693638" lon="26.460306">
<ele>139.056763</ele>
<time>2010-07-18T10:14:37Z</time>
<desc>lat.=55.693638, lon.=26.460306, Alt.=139.056763m. Speed=0.036000m/h.</desc>
<speed>0.010000</speed>
</trkpt>
<trkpt lat="55.693638" lon="26.460306">
<ele>139.060669</ele>
<time>2010-07-18T10:14:38Z</time>
<desc>lat.=55.693638, lon.=26.460306, Alt.=139.060669m. Speed=0.000000m/h.</desc>
<speed>0.000000</speed>
</trkpt>
<trkpt lat="55.693638" lon="26.460306">
<ele>139.064575</ele>
<time>2010-07-18T10:14:39Z</time>
<desc>lat.=55.693638, lon.=26.460306, Alt.=139.064575m. Speed=0.072000m/h.</desc>
<speed>0.020000</speed>
</trkpt>
<trkpt lat="55.693638" lon="26.460306">
<ele>139.068481</ele>
<time>2010-07-18T10:14:40Z</time>
<desc>lat.=55.693638, lon.=26.460306, Alt.=139.068481m. Speed=0.000000m/h.</desc>
<speed>0.000000</speed>
</trkpt>
<trkpt lat="55.693638" lon="26.460306">
<ele>139.072388</ele>
<time>2010-07-18T10:14:41Z</time>
<desc>lat.=55.693638, lon.=26.460306, Alt.=139.072388m. Speed=0.000000m/h.</desc>
<speed>0.000000</speed>
</trkpt>
<trkpt lat="55.693638" lon="26.460306">
<ele>139.072388</ele>
<time>2010-07-18T10:14:42Z</time>
<desc>lat.=55.693638, lon.=26.460306, Alt.=139.072388m. Speed=0.036000m/h.</desc>
<speed>0.010000</speed>
</trkpt>
<trkpt lat="55.693638" lon="26.460306">
<ele>139.076294</ele>
<time>2010-07-18T10:14:43Z</time>
<desc>lat.=55.693638, lon.=26.460306, Alt.=139.076294m. Speed=0.072000m/h.</desc>
<speed>0.020000</speed>
</trkpt>
<trkpt lat="55.693638" lon="26.460306">
<ele>139.076294</ele>
<time>2010-07-18T10:14:44Z</time>
<desc>lat.=55.693638, lon.=26.460306, Alt.=139.076294m. Speed=0.108000m/h.</desc>
<speed>0.030000</speed>
</trkpt>
<trkpt lat="55.693638" lon="26.460306">
<ele>139.080200</ele>
<time>2010-07-18T10:14:45Z</time>
<desc>lat.=55.693638, lon.=26.460306, Alt.=139.080200m. Speed=0.180000m/h.</desc>
<speed>0.050000</speed>
</trkpt>
<trkpt lat="55.693638" lon="26.460306">
<ele>139.080200</ele>
<time>2010-07-18T10:14:46Z</time>
<desc>lat.=55.693638, lon.=26.460306, Alt.=139.080200m. Speed=0.036000m/h.</desc>
<speed>0.010000</speed>
</trkpt>
<trkpt lat="55.693638" lon="26.460304">
<ele>139.084106</ele>
<time>2010-07-18T10:14:47Z</time>
<desc>lat.=55.693638, lon.=26.460304, Alt.=139.084106m. Speed=0.036000m/h.</desc>
<speed>0.010000</speed>
</trkpt>
<trkpt lat="55.693638" lon="26.460304">
<ele>139.088013</ele>
<time>2010-07-18T10:14:48Z</time>
<desc>lat.=55.693638, lon.=26.460304, Alt.=139.088013m. Speed=0.072000m/h.</desc>
<speed>0.020000</speed>
</trkpt>
<trkpt lat="55.693638" lon="26.460306">
<ele>139.091919</ele>
<time>2010-07-18T10:14:49Z</time>
<desc>lat.=55.693638, lon.=26.460306, Alt.=139.091919m. Speed=0.036000m/h.</desc>
<speed>0.010000</speed>
</trkpt>
<trkpt lat="55.693638" lon="26.460306">
<ele>139.099731</ele>
<time>2010-07-18T10:14:50Z</time>
<desc>lat.=55.693638, lon.=26.460306, Alt.=139.099731m. Speed=0.036000m/h.</desc>
<speed>0.010000</speed>
</trkpt>
<trkpt lat="55.693638" lon="26.460306">
<ele>139.103638</ele>
<time>2010-07-18T10:14:51Z</time>
<desc>lat.=55.693638, lon.=26.460306, Alt.=139.103638m. Speed=0.000000m/h.</desc>
<speed>0.000000</speed>
</trkpt>
<trkpt lat="55.693638" lon="26.460306">
<ele>139.107544</ele>
<time>2010-07-18T10:14:52Z</time>
<desc>lat.=55.693638, lon.=26.460306, Alt.=139.107544m. Speed=0.000000m/h.</desc>
<speed>0.000000</speed>
</trkpt>
<trkpt lat="55.693638" lon="26.460306">
<ele>139.107544</ele>
<time>2010-07-18T10:14:53Z</time>
<desc>lat.=55.693638, lon.=26.460306, Alt.=139.107544m. Speed=0.000000m/h.</desc>
<speed>0.000000</speed>
</trkpt>
<trkpt lat="55.693638" lon="26.460306">
<ele>139.115356</ele>
<time>2010-07-18T10:14:54Z</time>
<desc>lat.=55.693638, lon.=26.460306, Alt.=139.115356m. Speed=0.036000m/h.</desc>
<speed>0.010000</speed>
</trkpt>
<trkpt lat="55.693638" lon="26.460306">
<ele>139.115356</ele>
<time>2010-07-18T10:14:55Z</time>
<desc>lat.=55.693638, lon.=26.460306, Alt.=139.115356m. Speed=0.036000m/h.</desc>
<speed>0.010000</speed>
</trkpt>
<trkpt lat="55.693638" lon="26.460306">
<ele>139.119263</ele>
<time>2010-07-18T10:14:56Z</time>
<desc>lat.=55.693638, lon.=26.460306, Alt.=139.119263m. Speed=0.036000m/h.</desc>
<speed>0.010000</speed>
</trkpt>
<trkpt lat="55.693638" lon="26.460306">
<ele>139.115356</ele>
<time>2010-07-18T10:14:57Z</time>
<desc>lat.=55.693638, lon.=26.460306, Alt.=139.115356m. Speed=0.000000m/h.</desc>
<speed>0.000000</speed>
</trkpt>
<trkpt lat="55.693638" lon="26.460306">
<ele>139.119263</ele>
<time>2010-07-18T10:14:58Z</time>
<desc>lat.=55.693638, lon.=26.460306, Alt.=139.119263m. Speed=0.072000m/h.</desc>
<speed>0.020000</speed>
</trkpt>
<trkpt lat="55.693638" lon="26.460306">
<ele>139.119263</ele>
<time>2010-07-18T10:14:59Z</time>
<desc>lat.=55.693638, lon.=26.460306, Alt.=139.119263m. Speed=0.072000m/h.</desc>
<speed>0.020000</speed>
</trkpt>
<trkpt lat="55.693638" lon="26.460306">
<ele>139.119263</ele>
<time>2010-07-18T10:15:00Z</time>
<desc>lat.=55.693638, lon.=26.460306, Alt.=139.119263m. Speed=0.072000m/h.</desc>
<speed>0.020000</speed>
</trkpt>
<trkpt lat="55.693638" lon="26.460306">
<ele>139.123169</ele>
<time>2010-07-18T10:15:01Z</time>
<desc>lat.=55.693638, lon.=26.460306, Alt.=139.123169m. Speed=0.108000m/h.</desc>
<speed>0.030000</speed>
</trkpt>
<trkpt lat="55.693638" lon="26.460306">
<ele>139.127075</ele>
<time>2010-07-18T10:15:02Z</time>
<desc>lat.=55.693638, lon.=26.460306, Alt.=139.127075m. Speed=0.144000m/h.</desc>
<speed>0.040000</speed>
</trkpt>
<trkpt lat="55.693638" lon="26.460306">
<ele>139.134888</ele>
<time>2010-07-18T10:15:03Z</time>
<desc>lat.=55.693638, lon.=26.460306, Alt.=139.134888m. Speed=0.036000m/h.</desc>
<speed>0.010000</speed>
</trkpt>
<trkpt lat="55.693638" lon="26.460306">
<ele>139.138794</ele>
<time>2010-07-18T10:15:04Z</time>
<desc>lat.=55.693638, lon.=26.460306, Alt.=139.138794m. Speed=0.036000m/h.</desc>
<speed>0.010000</speed>
</trkpt>
<trkpt lat="55.693638" lon="26.460306">
<ele>139.146606</ele>
<time>2010-07-18T10:15:05Z</time>
<desc>lat.=55.693638, lon.=26.460306, Alt.=139.146606m. Speed=0.108000m/h.</desc>
<speed>0.030000</speed>
</trkpt>
<trkpt lat="55.693638" lon="26.460306">
<ele>139.150513</ele>
<time>2010-07-18T10:15:06Z</time>
<desc>lat.=55.693638, lon.=26.460306, Alt.=139.150513m. Speed=0.036000m/h.</desc>
<speed>0.010000</speed>
</trkpt>
<trkpt lat="55.693638" lon="26.460306">
<ele>139.154419</ele>
<time>2010-07-18T10:15:07Z</time>
<desc>lat.=55.693638, lon.=26.460306, Alt.=139.154419m. Speed=0.000000m/h.</desc>
<speed>0.000000</speed>
</trkpt>
<trkpt lat="55.693638" lon="26.460306">
<ele>139.158325</ele>
<time>2010-07-18T10:15:08Z</time>
<desc>lat.=55.693638, lon.=26.460306, Alt.=139.158325m. Speed=0.108000m/h.</desc>
<speed>0.030000</speed>
</trkpt>
<trkpt lat="55.693638" lon="26.460306">
<ele>139.158325</ele>
<time>2010-07-18T10:15:09Z</time>
<desc>lat.=55.693638, lon.=26.460306, Alt.=139.158325m. Speed=0.036000m/h.</desc>
<speed>0.010000</speed>
</trkpt>
<trkpt lat="55.693638" lon="26.460306">
<ele>139.158325</ele>
<time>2010-07-18T10:15:10Z</time>
<desc>lat.=55.693638, lon.=26.460306, Alt.=139.158325m. Speed=0.000000m/h.</desc>
<speed>0.000000</speed>
</trkpt>
<trkpt lat="55.693638" lon="26.460306">
<ele>139.162231</ele>
<time>2010-07-18T10:15:11Z</time>
<desc>lat.=55.693638, lon.=26.460306, Alt.=139.162231m. Speed=0.000000m/h.</desc>
<speed>0.000000</speed>
</trkpt>
<trkpt lat="55.693638" lon="26.460306">
<ele>139.166138</ele>
<time>2010-07-18T10:15:12Z</time>
<desc>lat.=55.693638, lon.=26.460306, Alt.=139.166138m. Speed=0.000000m/h.</desc>
<speed>0.000000</speed>
</trkpt>
<trkpt lat="55.693638" lon="26.460306">
<ele>139.170044</ele>
<time>2010-07-18T10:15:13Z</time>
<desc>lat.=55.693638, lon.=26.460306, Alt.=139.170044m. Speed=0.072000m/h.</desc>
<speed>0.020000</speed>
</trkpt>
<trkpt lat="55.693638" lon="26.460306">
<ele>139.177856</ele>
<time>2010-07-18T10:15:14Z</time>
<desc>lat.=55.693638, lon.=26.460306, Alt.=139.177856m. Speed=0.036000m/h.</desc>
<speed>0.010000</speed>
</trkpt>
<trkpt lat="55.693638" lon="26.460306">
<ele>139.181763</ele>
<time>2010-07-18T10:15:15Z</time>
<desc>lat.=55.693638, lon.=26.460306, Alt.=139.181763m. Speed=0.000000m/h.</desc>
<speed>0.000000</speed>
</trkpt>
<trkpt lat="55.693638" lon="26.460306">
<ele>139.193481</ele>
<time>2010-07-18T10:15:16Z</time>
<desc>lat.=55.693638, lon.=26.460306, Alt.=139.193481m. Speed=0.072000m/h.</desc>
<speed>0.020000</speed>
</trkpt>
<trkpt lat="55.693638" lon="26.460306">
<ele>139.205200</ele>
<time>2010-07-18T10:15:17Z</time>
<desc>lat.=55.693638, lon.=26.460306, Alt.=139.205200m. Speed=0.072000m/h.</desc>
<speed>0.020000</speed>
</trkpt>
<trkpt lat="55.693638" lon="26.460306">
<ele>139.213013</ele>
<time>2010-07-18T10:15:18Z</time>
<desc>lat.=55.693638, lon.=26.460306, Alt.=139.213013m. Speed=0.036000m/h.</desc>
<speed>0.010000</speed>
</trkpt>
<trkpt lat="55.693638" lon="26.460306">
<ele>139.224731</ele>
<time>2010-07-18T10:15:19Z</time>
<desc>lat.=55.693638, lon.=26.460306, Alt.=139.224731m. Speed=0.072000m/h.</desc>
<speed>0.020000</speed>
</trkpt>
<trkpt lat="55.693638" lon="26.460306">
<ele>139.236450</ele>
<time>2010-07-18T10:15:20Z</time>
<desc>lat.=55.693638, lon.=26.460306, Alt.=139.236450m. Speed=0.108000m/h.</desc>
<speed>0.030000</speed>
</trkpt>
<trkpt lat="55.693638" lon="26.460306">
<ele>139.240356</ele>
<time>2010-07-18T10:15:21Z</time>
<desc>lat.=55.693638, lon.=26.460306, Alt.=139.240356m. Speed=0.108000m/h.</desc>
<speed>0.030000</speed>
</trkpt>
<trkpt lat="55.693638" lon="26.460306">
<ele>139.252075</ele>
<time>2010-07-18T10:15:22Z</time>
<desc>lat.=55.693638, lon.=26.460306, Alt.=139.252075m. Speed=0.036000m/h.</desc>
<speed>0.010000</speed>
</trkpt>
<trkpt lat="55.693638" lon="26.460306">
<ele>139.259888</ele>
<time>2010-07-18T10:15:23Z</time>
<desc>lat.=55.693638, lon.=26.460306, Alt.=139.259888m. Speed=0.036000m/h.</desc>
<speed>0.010000</speed>
</trkpt>
<trkpt lat="55.693638" lon="26.460306">
<ele>139.267700</ele>
<time>2010-07-18T10:15:24Z</time>
<desc>lat.=55.693638, lon.=26.460306, Alt.=139.267700m. Speed=0.036000m/h.</desc>
<speed>0.010000</speed>
</trkpt>
<trkpt lat="55.693638" lon="26.460306">
<ele>139.275513</ele>
<time>2010-07-18T10:15:25Z</time>
<desc>lat.=55.693638, lon.=26.460306, Alt.=139.275513m. Speed=0.036000m/h.</desc>
<speed>0.010000</speed>
</trkpt>
<trkpt lat="55.693638" lon="26.460306">
<ele>139.279419</ele>
<time>2010-07-18T10:15:26Z</time>
<desc>lat.=55.693638, lon.=26.460306, Alt.=139.279419m. Speed=0.036000m/h.</desc>
<speed>0.010000</speed>
</trkpt>
<trkpt lat="55.693638" lon="26.460306">
<ele>139.283325</ele>
<time>2010-07-18T10:15:27Z</time>
<desc>lat.=55.693638, lon.=26.460306, Alt.=139.283325m. Speed=0.036000m/h.</desc>
<speed>0.010000</speed>
</trkpt>
<trkpt lat="55.693638" lon="26.460306">
<ele>139.287231</ele>
<time>2010-07-18T10:15:28Z</time>
<desc>lat.=55.693638, lon.=26.460306, Alt.=139.287231m. Speed=0.000000m/h.</desc>
<speed>0.000000</speed>
</trkpt>
<trkpt lat="55.693638" lon="26.460306">
<ele>139.295044</ele>
<time>2010-07-18T10:15:29Z</time>
<desc>lat.=55.693638, lon.=26.460306, Alt.=139.295044m. Speed=0.108000m/h.</desc>
<speed>0.030000</speed>
</trkpt>
<trkpt lat="55.693638" lon="26.460306">
<ele>139.298950</ele>
<time>2010-07-18T10:15:30Z</time>
<desc>lat.=55.693638, lon.=26.460306, Alt.=139.298950m. Speed=0.036000m/h.</desc>
<speed>0.010000</speed>
</trkpt>
<trkpt lat="55.693638" lon="26.460306">
<ele>139.310669</ele>
<time>2010-07-18T10:15:31Z</time>
<desc>lat.=55.693638, lon.=26.460306, Alt.=139.310669m. Speed=0.036000m/h.</desc>
<speed>0.010000</speed>
</trkpt>
<trkpt lat="55.693638" lon="26.460306">
<ele>139.318481</ele>
<time>2010-07-18T10:15:32Z</time>
<desc>lat.=55.693638, lon.=26.460306, Alt.=139.318481m. Speed=0.036000m/h.</desc>
<speed>0.010000</speed>
</trkpt>
<trkpt lat="55.693638" lon="26.460306">
<ele>139.326294</ele>
<time>2010-07-18T10:15:33Z</time>
<desc>lat.=55.693638, lon.=26.460306, Alt.=139.326294m. Speed=0.000000m/h.</desc>
<speed>0.000000</speed>
</trkpt>
<trkpt lat="55.693638" lon="26.460306">
<ele>139.334106</ele>
<time>2010-07-18T10:15:34Z</time>
<desc>lat.=55.693638, lon.=26.460306, Alt.=139.334106m. Speed=0.036000m/h.</desc>
<speed>0.010000</speed>
</trkpt>
<trkpt lat="55.693638" lon="26.460306">
<ele>139.338013</ele>
<time>2010-07-18T10:15:35Z</time>
<desc>lat.=55.693638, lon.=26.460306, Alt.=139.338013m. Speed=0.036000m/h.</desc>
<speed>0.010000</speed>
</trkpt>
<trkpt lat="55.693638" lon="26.460306">
<ele>139.341919</ele>
<time>2010-07-18T10:15:36Z</time>
<desc>lat.=55.693638, lon.=26.460306, Alt.=139.341919m. Speed=0.036000m/h.</desc>
<speed>0.010000</speed>
</trkpt>
<trkpt lat="55.693638" lon="26.460306">
<ele>139.345825</ele>
<time>2010-07-18T10:15:37Z</time>
<desc>lat.=55.693638, lon.=26.460306, Alt.=139.345825m. Speed=0.000000m/h.</desc>
<speed>0.000000</speed>
</trkpt>
<trkpt lat="55.693638" lon="26.460306">
<ele>139.349731</ele>
<time>2010-07-18T10:15:38Z</time>
<desc>lat.=55.693638, lon.=26.460306, Alt.=139.349731m. Speed=0.000000m/h.</desc>
<speed>0.000000</speed>
</trkpt>
<trkpt lat="55.693642" lon="26.460306">
<ele>139.349731</ele>
<time>2010-07-18T10:15:39Z</time>
<desc>lat.=55.693642, lon.=26.460306, Alt.=139.349731m. Speed=0.000000m/h.</desc>
<speed>0.000000</speed>
</trkpt>
<trkpt lat="55.693642" lon="26.460306">
<ele>139.357544</ele>
<time>2010-07-18T10:15:40Z</time>
<desc>lat.=55.693642, lon.=26.460306, Alt.=139.357544m. Speed=0.000000m/h.</desc>
<speed>0.000000</speed>
</trkpt>
<trkpt lat="55.693642" lon="26.460306">
<ele>139.357544</ele>
<time>2010-07-18T10:15:41Z</time>
<desc>lat.=55.693642, lon.=26.460306, Alt.=139.357544m. Speed=0.036000m/h.</desc>
<speed>0.010000</speed>
</trkpt>
<trkpt lat="55.693642" lon="26.460306">
<ele>139.369263</ele>
<time>2010-07-18T10:15:42Z</time>
<desc>lat.=55.693642, lon.=26.460306, Alt.=139.369263m. Speed=0.000000m/h.</desc>
<speed>0.000000</speed>
</trkpt>
<trkpt lat="55.693642" lon="26.460306">
<ele>139.369263</ele>
<time>2010-07-18T10:15:43Z</time>
<desc>lat.=55.693642, lon.=26.460306, Alt.=139.369263m. Speed=0.000000m/h.</desc>
<speed>0.000000</speed>
</trkpt>
<trkpt lat="55.693642" lon="26.460306">
<ele>139.373169</ele>
<time>2010-07-18T10:15:44Z</time>
<desc>lat.=55.693642, lon.=26.460306, Alt.=139.373169m. Speed=0.000000m/h.</desc>
<speed>0.000000</speed>
</trkpt>
<trkpt lat="55.693642" lon="26.460306">
<ele>139.373169</ele>
<time>2010-07-18T10:15:45Z</time>
<desc>lat.=55.693642, lon.=26.460306, Alt.=139.373169m. Speed=0.000000m/h.</desc>
<speed>0.000000</speed>
</trkpt>
<trkpt lat="55.693642" lon="26.460306">
<ele>139.377075</ele>
<time>2010-07-18T10:15:46Z</time>
<desc>lat.=55.693642, lon.=26.460306, Alt.=139.377075m. Speed=0.000000m/h.</desc>
<speed>0.000000</speed>
</trkpt>
<trkpt lat="55.693642" lon="26.460306">
<ele>139.377075</ele>
<time>2010-07-18T10:15:47Z</time>
<desc>lat.=55.693642, lon.=26.460306, Alt.=139.377075m. Speed=0.000000m/h.</desc>
<speed>0.000000</speed>
</trkpt>
<trkpt lat="55.693642" lon="26.460306">
<ele>139.380981</ele>
<time>2010-07-18T10:15:48Z</time>
<desc>lat.=55.693642, lon.=26.460306, Alt.=139.380981m. Speed=0.036000m/h.</desc>
<speed>0.010000</speed>
</trkpt>
<trkpt lat="55.693642" lon="26.460306">
<ele>139.377075</ele>
<time>2010-07-18T10:15:49Z</time>
<desc>lat.=55.693642, lon.=26.460306, Alt.=139.377075m. Speed=0.036000m/h.</desc>
<speed>0.010000</speed>
</trkpt>
<trkpt lat="55.693642" lon="26.460306">
<ele>139.380981</ele>
<time>2010-07-18T10:15:50Z</time>
<desc>lat.=55.693642, lon.=26.460306, Alt.=139.380981m. Speed=0.072000m/h.</desc>
<speed>0.020000</speed>
</trkpt>
<trkpt lat="55.693642" lon="26.460306">
<ele>139.384888</ele>
<time>2010-07-18T10:15:51Z</time>
<desc>lat.=55.693642, lon.=26.460306, Alt.=139.384888m. Speed=0.000000m/h.</desc>
<speed>0.000000</speed>
</trkpt>
<trkpt lat="55.693642" lon="26.460306">
<ele>139.388794</ele>
<time>2010-07-18T10:15:52Z</time>
<desc>lat.=55.693642, lon.=26.460306, Alt.=139.388794m. Speed=0.000000m/h.</desc>
<speed>0.000000</speed>
</trkpt>
<trkpt lat="55.693642" lon="26.460306">
<ele>139.408325</ele>
<time>2010-07-18T10:15:53Z</time>
<desc>lat.=55.693642, lon.=26.460306, Alt.=139.408325m. Speed=0.000000m/h.</desc>
<speed>0.000000</speed>
</trkpt>
<trkpt lat="55.693642" lon="26.460306">
<ele>139.423950</ele>
<time>2010-07-18T10:15:54Z</time>
<desc>lat.=55.693642, lon.=26.460306, Alt.=139.423950m. Speed=0.036000m/h.</desc>
<speed>0.010000</speed>
</trkpt>
<trkpt lat="55.693642" lon="26.460306">
<ele>139.431763</ele>
<time>2010-07-18T10:15:55Z</time>
<desc>lat.=55.693642, lon.=26.460306, Alt.=139.431763m. Speed=0.000000m/h.</desc>
<speed>0.000000</speed>
</trkpt>
<trkpt lat="55.693642" lon="26.460306">
<ele>139.443481</ele>
<time>2010-07-18T10:15:56Z</time>
<desc>lat.=55.693642, lon.=26.460306, Alt.=139.443481m. Speed=0.000000m/h.</desc>
<speed>0.000000</speed>
</trkpt>
<trkpt lat="55.693642" lon="26.460304">
<ele>139.447388</ele>
<time>2010-07-18T10:15:57Z</time>
<desc>lat.=55.693642, lon.=26.460304, Alt.=139.447388m. Speed=0.036000m/h.</desc>
<speed>0.010000</speed>
</trkpt>
<trkpt lat="55.693642" lon="26.460304">
<ele>139.455200</ele>
<time>2010-07-18T10:15:58Z</time>
<desc>lat.=55.693642, lon.=26.460304, Alt.=139.455200m. Speed=0.036000m/h.</desc>
<speed>0.010000</speed>
</trkpt>
<trkpt lat="55.693642" lon="26.460304">
<ele>139.463013</ele>
<time>2010-07-18T10:15:59Z</time>
<desc>lat.=55.693642, lon.=26.460304, Alt.=139.463013m. Speed=0.036000m/h.</desc>
<speed>0.010000</speed>
</trkpt>
<trkpt lat="55.693642" lon="26.460304">
<ele>139.463013</ele>
<time>2010-07-18T10:16:00Z</time>
<desc>lat.=55.693642, lon.=26.460304, Alt.=139.463013m. Speed=0.000000m/h.</desc>
<speed>0.000000</speed>
</trkpt>
<trkpt lat="55.693642" lon="26.460304">
<ele>139.474731</ele>
<time>2010-07-18T10:16:01Z</time>
<desc>lat.=55.693642, lon.=26.460304, Alt.=139.474731m. Speed=0.000000m/h.</desc>
<speed>0.000000</speed>
</trkpt>
<trkpt lat="55.693642" lon="26.460304">
<ele>139.478638</ele>
<time>2010-07-18T10:16:02Z</time>
<desc>lat.=55.693642, lon.=26.460304, Alt.=139.478638m. Speed=0.000000m/h.</desc>
<speed>0.000000</speed>
</trkpt>
<trkpt lat="55.693642" lon="26.460304">
<ele>139.482544</ele>
<time>2010-07-18T10:16:03Z</time>
<desc>lat.=55.693642, lon.=26.460304, Alt.=139.482544m. Speed=0.000000m/h.</desc>
<speed>0.000000</speed>
</trkpt>
<trkpt lat="55.693642" lon="26.460304">
<ele>139.490356</ele>
<time>2010-07-18T10:16:04Z</time>
<desc>lat.=55.693642, lon.=26.460304, Alt.=139.490356m. Speed=0.000000m/h.</desc>
<speed>0.000000</speed>
</trkpt>
<trkpt lat="55.693642" lon="26.460304">
<ele>139.494263</ele>
<time>2010-07-18T10:16:05Z</time>
<desc>lat.=55.693642, lon.=26.460304, Alt.=139.494263m. Speed=0.000000m/h.</desc>
<speed>0.000000</speed>
</trkpt>
<trkpt lat="55.693642" lon="26.460304">
<ele>139.494263</ele>
<time>2010-07-18T10:16:06Z</time>
<desc>lat.=55.693642, lon.=26.460304, Alt.=139.494263m. Speed=0.036000m/h.</desc>
<speed>0.010000</speed>
</trkpt>
<trkpt lat="55.693642" lon="26.460304">
<ele>139.502075</ele>
<time>2010-07-18T10:16:07Z</time>
<desc>lat.=55.693642, lon.=26.460304, Alt.=139.502075m. Speed=0.036000m/h.</desc>
<speed>0.010000</speed>
</trkpt>
<trkpt lat="55.693642" lon="26.460304">
<ele>139.502075</ele>
<time>2010-07-18T10:16:08Z</time>
<desc>lat.=55.693642, lon.=26.460304, Alt.=139.502075m. Speed=0.036000m/h.</desc>
<speed>0.010000</speed>
</trkpt>
<trkpt lat="55.693642" lon="26.460304">
<ele>139.509888</ele>
<time>2010-07-18T10:16:09Z</time>
<desc>lat.=55.693642, lon.=26.460304, Alt.=139.509888m. Speed=0.036000m/h.</desc>
<speed>0.010000</speed>
</trkpt>
<trkpt lat="55.693642" lon="26.460304">
<ele>139.517700</ele>
<time>2010-07-18T10:16:10Z</time>
<desc>lat.=55.693642, lon.=26.460304, Alt.=139.517700m. Speed=0.000000m/h.</desc>
<speed>0.000000</speed>
</trkpt>
<trkpt lat="55.693642" lon="26.460304">
<ele>139.521606</ele>
<time>2010-07-18T10:16:11Z</time>
<desc>lat.=55.693642, lon.=26.460304, Alt.=139.521606m. Speed=0.000000m/h.</desc>
<speed>0.000000</speed>
</trkpt>
<trkpt lat="55.693642" lon="26.460304">
<ele>139.525513</ele>
<time>2010-07-18T10:16:12Z</time>
<desc>lat.=55.693642, lon.=26.460304, Alt.=139.525513m. Speed=0.000000m/h.</desc>
<speed>0.000000</speed>
</trkpt>
<trkpt lat="55.693642" lon="26.460304">
<ele>139.525513</ele>
<time>2010-07-18T10:16:13Z</time>
<desc>lat.=55.693642, lon.=26.460304, Alt.=139.525513m. Speed=0.000000m/h.</desc>
<speed>0.000000</speed>
</trkpt>
<trkpt lat="55.693642" lon="26.460304">
<ele>139.525513</ele>
<time>2010-07-18T10:16:14Z</time>
<desc>lat.=55.693642, lon.=26.460304, Alt.=139.525513m. Speed=0.000000m/h.</desc>
<speed>0.000000</speed>
</trkpt>
<trkpt lat="55.693642" lon="26.460304">
<ele>139.525513</ele>
<time>2010-07-18T10:16:15Z</time>
<desc>lat.=55.693642, lon.=26.460304, Alt.=139.525513m. Speed=0.000000m/h.</desc>
<speed>0.000000</speed>
</trkpt>
<trkpt lat="55.693642" lon="26.460304">
<ele>139.529419</ele>
<time>2010-07-18T10:16:16Z</time>
<desc>lat.=55.693642, lon.=26.460304, Alt.=139.529419m. Speed=0.000000m/h.</desc>
<speed>0.000000</speed>
</trkpt>
<trkpt lat="55.693642" lon="26.460304">
<ele>139.529419</ele>
<time>2010-07-18T10:16:17Z</time>
<desc>lat.=55.693642, lon.=26.460304, Alt.=139.529419m. Speed=0.000000m/h.</desc>
<speed>0.000000</speed>
</trkpt>
<trkpt lat="55.693642" lon="26.460304">
<ele>139.533325</ele>
<time>2010-07-18T10:16:18Z</time>
<desc>lat.=55.693642, lon.=26.460304, Alt.=139.533325m. Speed=0.000000m/h.</desc>
<speed>0.000000</speed>
</trkpt>
<trkpt lat="55.693642" lon="26.460304">
<ele>139.537231</ele>
<time>2010-07-18T10:16:19Z</time>
<desc>lat.=55.693642, lon.=26.460304, Alt.=139.537231m. Speed=0.036000m/h.</desc>
<speed>0.010000</speed>
</trkpt>
<trkpt lat="55.693642" lon="26.460304">
<ele>139.537231</ele>
<time>2010-07-18T10:16:20Z</time>
<desc>lat.=55.693642, lon.=26.460304, Alt.=139.537231m. Speed=0.036000m/h.</desc>
<speed>0.010000</speed>
</trkpt>
<trkpt lat="55.693642" lon="26.460304">
<ele>139.541138</ele>
<time>2010-07-18T10:16:21Z</time>
<desc>lat.=55.693642, lon.=26.460304, Alt.=139.541138m. Speed=0.000000m/h.</desc>
<speed>0.000000</speed>
</trkpt>
<trkpt lat="55.693642" lon="26.460304">
<ele>139.548950</ele>
<time>2010-07-18T10:16:22Z</time>
<desc>lat.=55.693642, lon.=26.460304, Alt.=139.548950m. Speed=0.000000m/h.</desc>
<speed>0.000000</speed>
</trkpt>
<trkpt lat="55.693642" lon="26.460304">
<ele>139.548950</ele>
<time>2010-07-18T10:16:23Z</time>
<desc>lat.=55.693642, lon.=26.460304, Alt.=139.548950m. Speed=0.000000m/h.</desc>
<speed>0.000000</speed>
</trkpt>
<trkpt lat="55.693642" lon="26.460304">
<ele>139.552856</ele>
<time>2010-07-18T10:16:24Z</time>
<desc>lat.=55.693642, lon.=26.460304, Alt.=139.552856m. Speed=0.000000m/h.</desc>
<speed>0.000000</speed>
</trkpt>
<trkpt lat="55.693642" lon="26.460304">
<ele>139.552856</ele>
<time>2010-07-18T10:16:25Z</time>
<desc>lat.=55.693642, lon.=26.460304, Alt.=139.552856m. Speed=0.000000m/h.</desc>
<speed>0.000000</speed>
</trkpt>
<trkpt lat="55.693642" lon="26.460304">
<ele>139.552856</ele>
<time>2010-07-18T10:16:26Z</time>
<desc>lat.=55.693642, lon.=26.460304, Alt.=139.552856m. Speed=0.000000m/h.</desc>
<speed>0.000000</speed>
</trkpt>
<trkpt lat="55.693642" lon="26.460304">
<ele>139.552856</ele>
<time>2010-07-18T10:16:27Z</time>
<desc>lat.=55.693642, lon.=26.460304, Alt.=139.552856m. Speed=0.036000m/h.</desc>
<speed>0.010000</speed>
</trkpt>
<trkpt lat="55.693642" lon="26.460304">
<ele>139.552856</ele>
<time>2010-07-18T10:16:28Z</time>
<desc>lat.=55.693642, lon.=26.460304, Alt.=139.552856m. Speed=0.036000m/h.</desc>
<speed>0.010000</speed>
</trkpt>
<trkpt lat="55.693642" lon="26.460304">
<ele>139.552856</ele>
<time>2010-07-18T10:16:29Z</time>
<desc>lat.=55.693642, lon.=26.460304, Alt.=139.552856m. Speed=0.000000m/h.</desc>
<speed>0.000000</speed>
</trkpt>
<trkpt lat="55.693642" lon="26.460304">
<ele>139.552856</ele>
<time>2010-07-18T10:16:30Z</time>
<desc>lat.=55.693642, lon.=26.460304, Alt.=139.552856m. Speed=0.000000m/h.</desc>
<speed>0.000000</speed>
</trkpt>
<trkpt lat="55.693642" lon="26.460304">
<ele>139.556763</ele>
<time>2010-07-18T10:16:31Z</time>
<desc>lat.=55.693642, lon.=26.460304, Alt.=139.556763m. Speed=0.000000m/h.</desc>
<speed>0.000000</speed>
</trkpt>
<trkpt lat="55.693642" lon="26.460304">
<ele>139.552856</ele>
<time>2010-07-18T10:16:32Z</time>
<desc>lat.=55.693642, lon.=26.460304, Alt.=139.552856m. Speed=0.036000m/h.</desc>
<speed>0.010000</speed>
</trkpt>
<trkpt lat="55.693642" lon="26.460304">
<ele>139.556763</ele>
<time>2010-07-18T10:16:33Z</time>
<desc>lat.=55.693642, lon.=26.460304, Alt.=139.556763m. Speed=0.000000m/h.</desc>
<speed>0.000000</speed>
</trkpt>
<trkpt lat="55.693642" lon="26.460304">
<ele>139.560669</ele>
<time>2010-07-18T10:16:34Z</time>
<desc>lat.=55.693642, lon.=26.460304, Alt.=139.560669m. Speed=0.036000m/h.</desc>
<speed>0.010000</speed>
</trkpt>
<trkpt lat="55.693642" lon="26.460304">
<ele>139.560669</ele>
<time>2010-07-18T10:16:35Z</time>
<desc>lat.=55.693642, lon.=26.460304, Alt.=139.560669m. Speed=0.036000m/h.</desc>
<speed>0.010000</speed>
</trkpt>
<trkpt lat="55.693642" lon="26.460304">
<ele>139.560669</ele>
<time>2010-07-18T10:16:36Z</time>
<desc>lat.=55.693642, lon.=26.460304, Alt.=139.560669m. Speed=0.072000m/h.</desc>
<speed>0.020000</speed>
</trkpt>
<trkpt lat="55.693642" lon="26.460304">
<ele>139.560669</ele>
<time>2010-07-18T10:16:37Z</time>
<desc>lat.=55.693642, lon.=26.460304, Alt.=139.560669m. Speed=0.072000m/h.</desc>
<speed>0.020000</speed>
</trkpt>
<trkpt lat="55.693642" lon="26.460304">
<ele>139.560669</ele>
<time>2010-07-18T10:16:38Z</time>
<desc>lat.=55.693642, lon.=26.460304, Alt.=139.560669m. Speed=0.036000m/h.</desc>
<speed>0.010000</speed>
</trkpt>
<trkpt lat="55.693642" lon="26.460304">
<ele>139.556763</ele>
<time>2010-07-18T10:16:39Z</time>
<desc>lat.=55.693642, lon.=26.460304, Alt.=139.556763m. Speed=0.036000m/h.</desc>
<speed>0.010000</speed>
</trkpt>
<trkpt lat="55.693642" lon="26.460304">
<ele>139.556763</ele>
<time>2010-07-18T10:16:40Z</time>
<desc>lat.=55.693642, lon.=26.460304, Alt.=139.556763m. Speed=0.000000m/h.</desc>
<speed>0.000000</speed>
</trkpt>
<trkpt lat="55.693642" lon="26.460304">
<ele>139.556763</ele>
<time>2010-07-18T10:16:41Z</time>
<desc>lat.=55.693642, lon.=26.460304, Alt.=139.556763m. Speed=0.000000m/h.</desc>
<speed>0.000000</speed>
</trkpt>
<trkpt lat="55.693642" lon="26.460304">
<ele>139.548950</ele>
<time>2010-07-18T10:16:42Z</time>
<desc>lat.=55.693642, lon.=26.460304, Alt.=139.548950m. Speed=0.036000m/h.</desc>
<speed>0.010000</speed>
</trkpt>
<trkpt lat="55.693642" lon="26.460304">
<ele>139.545044</ele>
<time>2010-07-18T10:16:43Z</time>
<desc>lat.=55.693642, lon.=26.460304, Alt.=139.545044m. Speed=0.000000m/h.</desc>
<speed>0.000000</speed>
</trkpt>
<trkpt lat="55.693642" lon="26.460304">
<ele>139.541138</ele>
<time>2010-07-18T10:16:44Z</time>
<desc>lat.=55.693642, lon.=26.460304, Alt.=139.541138m. Speed=0.000000m/h.</desc>
<speed>0.000000</speed>
</trkpt>
<trkpt lat="55.693642" lon="26.460302">
<ele>139.537231</ele>
<time>2010-07-18T10:16:45Z</time>
<desc>lat.=55.693642, lon.=26.460302, Alt.=139.537231m. Speed=0.000000m/h.</desc>
<speed>0.000000</speed>
</trkpt>
<trkpt lat="55.693642" lon="26.460302">
<ele>139.537231</ele>
<time>2010-07-18T10:16:46Z</time>
<desc>lat.=55.693642, lon.=26.460302, Alt.=139.537231m. Speed=0.036000m/h.</desc>
<speed>0.010000</speed>
</trkpt>
<trkpt lat="55.693642" lon="26.460302">
<ele>139.537231</ele>
<time>2010-07-18T10:16:47Z</time>
<desc>lat.=55.693642, lon.=26.460302, Alt.=139.537231m. Speed=0.036000m/h.</desc>
<speed>0.010000</speed>
</trkpt>
<trkpt lat="55.693642" lon="26.460302">
<ele>139.533325</ele>
<time>2010-07-18T10:16:48Z</time>
<desc>lat.=55.693642, lon.=26.460302, Alt.=139.533325m. Speed=0.000000m/h.</desc>
<speed>0.000000</speed>
</trkpt>
<trkpt lat="55.693642" lon="26.460302">
<ele>139.529419</ele>
<time>2010-07-18T10:16:49Z</time>
<desc>lat.=55.693642, lon.=26.460302, Alt.=139.529419m. Speed=0.036000m/h.</desc>
<speed>0.010000</speed>
</trkpt>
<trkpt lat="55.693642" lon="26.460302">
<ele>139.529419</ele>
<time>2010-07-18T10:16:50Z</time>
<desc>lat.=55.693642, lon.=26.460302, Alt.=139.529419m. Speed=0.000000m/h.</desc>
<speed>0.000000</speed>
</trkpt>
<trkpt lat="55.693642" lon="26.460302">
<ele>139.529419</ele>
<time>2010-07-18T10:16:51Z</time>
<desc>lat.=55.693642, lon.=26.460302, Alt.=139.529419m. Speed=0.000000m/h.</desc>
<speed>0.000000</speed>
</trkpt>
<trkpt lat="55.693642" lon="26.460302">
<ele>139.525513</ele>
<time>2010-07-18T10:16:52Z</time>
<desc>lat.=55.693642, lon.=26.460302, Alt.=139.525513m. Speed=0.036000m/h.</desc>
<speed>0.010000</speed>
</trkpt>
<trkpt lat="55.693642" lon="26.460302">
<ele>139.513794</ele>
<time>2010-07-18T10:16:53Z</time>
<desc>lat.=55.693642, lon.=26.460302, Alt.=139.513794m. Speed=0.072000m/h.</desc>
<speed>0.020000</speed>
</trkpt>
<trkpt lat="55.693642" lon="26.460302">
<ele>139.509888</ele>
<time>2010-07-18T10:16:54Z</time>
<desc>lat.=55.693642, lon.=26.460302, Alt.=139.509888m. Speed=0.000000m/h.</desc>
<speed>0.000000</speed>
</trkpt>
<trkpt lat="55.693642" lon="26.460302">
<ele>139.509888</ele>
<time>2010-07-18T10:16:55Z</time>
<desc>lat.=55.693642, lon.=26.460302, Alt.=139.509888m. Speed=0.036000m/h.</desc>
<speed>0.010000</speed>
</trkpt>
<trkpt lat="55.693642" lon="26.460302">
<ele>139.498169</ele>
<time>2010-07-18T10:16:56Z</time>
<desc>lat.=55.693642, lon.=26.460302, Alt.=139.498169m. Speed=0.072000m/h.</desc>
<speed>0.020000</speed>
</trkpt>
<trkpt lat="55.693642" lon="26.460302">
<ele>139.498169</ele>
<time>2010-07-18T10:16:57Z</time>
<desc>lat.=55.693642, lon.=26.460302, Alt.=139.498169m. Speed=0.036000m/h.</desc>
<speed>0.010000</speed>
</trkpt>
<trkpt lat="55.693642" lon="26.460302">
<ele>139.494263</ele>
<time>2010-07-18T10:16:58Z</time>
<desc>lat.=55.693642, lon.=26.460302, Alt.=139.494263m. Speed=0.036000m/h.</desc>
<speed>0.010000</speed>
</trkpt>
<trkpt lat="55.693642" lon="26.460302">
<ele>139.490356</ele>
<time>2010-07-18T10:16:59Z</time>
<desc>lat.=55.693642, lon.=26.460302, Alt.=139.490356m. Speed=0.000000m/h.</desc>
<speed>0.000000</speed>
</trkpt>
<trkpt lat="55.693642" lon="26.460304">
<ele>139.482544</ele>
<time>2010-07-18T10:17:00Z</time>
<desc>lat.=55.693642, lon.=26.460304, Alt.=139.482544m. Speed=0.000000m/h.</desc>
<speed>0.000000</speed>
</trkpt>
<trkpt lat="55.693642" lon="26.460302">
<ele>139.478638</ele>
<time>2010-07-18T10:17:01Z</time>
<desc>lat.=55.693642, lon.=26.460302, Alt.=139.478638m. Speed=0.072000m/h.</desc>
<speed>0.020000</speed>
</trkpt>
<trkpt lat="55.693642" lon="26.460302">
<ele>139.474731</ele>
<time>2010-07-18T10:17:02Z</time>
<desc>lat.=55.693642, lon.=26.460302, Alt.=139.474731m. Speed=0.000000m/h.</desc>
<speed>0.000000</speed>
</trkpt>
<trkpt lat="55.693642" lon="26.460302">
<ele>139.470825</ele>
<time>2010-07-18T10:17:03Z</time>
<desc>lat.=55.693642, lon.=26.460302, Alt.=139.470825m. Speed=0.108000m/h.</desc>
<speed>0.030000</speed>
</trkpt>
<trkpt lat="55.693642" lon="26.460302">
<ele>139.470825</ele>
<time>2010-07-18T10:17:04Z</time>
<desc>lat.=55.693642, lon.=26.460302, Alt.=139.470825m. Speed=0.108000m/h.</desc>
<speed>0.030000</speed>
</trkpt>
<trkpt lat="55.693638" lon="26.460302">
<ele>139.470825</ele>
<time>2010-07-18T10:17:05Z</time>
<desc>lat.=55.693638, lon.=26.460302, Alt.=139.470825m. Speed=0.000000m/h.</desc>
<speed>0.000000</speed>
</trkpt>
<trkpt lat="55.693638" lon="26.460302">
<ele>139.470825</ele>
<time>2010-07-18T10:17:06Z</time>
<desc>lat.=55.693638, lon.=26.460302, Alt.=139.470825m. Speed=0.000000m/h.</desc>
<speed>0.000000</speed>
</trkpt>
<trkpt lat="55.693638" lon="26.460302">
<ele>139.466919</ele>
<time>2010-07-18T10:17:07Z</time>
<desc>lat.=55.693638, lon.=26.460302, Alt.=139.466919m. Speed=0.072000m/h.</desc>
<speed>0.020000</speed>
</trkpt>
<trkpt lat="55.693638" lon="26.460302">
<ele>139.466919</ele>
<time>2010-07-18T10:17:08Z</time>
<desc>lat.=55.693638, lon.=26.460302, Alt.=139.466919m. Speed=0.000000m/h.</desc>
<speed>0.000000</speed>
</trkpt>
<trkpt lat="55.693638" lon="26.460302">
<ele>139.463013</ele>
<time>2010-07-18T10:17:09Z</time>
<desc>lat.=55.693638, lon.=26.460302, Alt.=139.463013m. Speed=0.108000m/h.</desc>
<speed>0.030000</speed>
</trkpt>
<trkpt lat="55.693638" lon="26.460302">
<ele>139.459106</ele>
<time>2010-07-18T10:17:10Z</time>
<desc>lat.=55.693638, lon.=26.460302, Alt.=139.459106m. Speed=0.000000m/h.</desc>
<speed>0.000000</speed>
</trkpt>
<trkpt lat="55.693638" lon="26.460302">
<ele>139.455200</ele>
<time>2010-07-18T10:17:11Z</time>
<desc>lat.=55.693638, lon.=26.460302, Alt.=139.455200m. Speed=0.036000m/h.</desc>
<speed>0.010000</speed>
</trkpt>
<trkpt lat="55.693638" lon="26.460302">
<ele>139.451294</ele>
<time>2010-07-18T10:17:12Z</time>
<desc>lat.=55.693638, lon.=26.460302, Alt.=139.451294m. Speed=0.000000m/h.</desc>
<speed>0.000000</speed>
</trkpt>
<trkpt lat="55.693638" lon="26.460302">
<ele>139.447388</ele>
<time>2010-07-18T10:17:13Z</time>
<desc>lat.=55.693638, lon.=26.460302, Alt.=139.447388m. Speed=0.036000m/h.</desc>
<speed>0.010000</speed>
</trkpt>
<trkpt lat="55.693638" lon="26.460302">
<ele>139.447388</ele>
<time>2010-07-18T10:17:14Z</time>
<desc>lat.=55.693638, lon.=26.460302, Alt.=139.447388m. Speed=0.036000m/h.</desc>
<speed>0.010000</speed>
</trkpt>
<trkpt lat="55.693638" lon="26.460302">
<ele>139.439575</ele>
<time>2010-07-18T10:17:15Z</time>
<desc>lat.=55.693638, lon.=26.460302, Alt.=139.439575m. Speed=0.036000m/h.</desc>
<speed>0.010000</speed>
</trkpt>
<trkpt lat="55.693638" lon="26.460302">
<ele>139.439575</ele>
<time>2010-07-18T10:17:16Z</time>
<desc>lat.=55.693638, lon.=26.460302, Alt.=139.439575m. Speed=0.000000m/h.</desc>
<speed>0.000000</speed>
</trkpt>
<trkpt lat="55.693638" lon="26.460302">
<ele>139.435669</ele>
<time>2010-07-18T10:17:17Z</time>
<desc>lat.=55.693638, lon.=26.460302, Alt.=139.435669m. Speed=0.000000m/h.</desc>
<speed>0.000000</speed>
</trkpt>
<trkpt lat="55.693638" lon="26.460302">
<ele>139.431763</ele>
<time>2010-07-18T10:17:18Z</time>
<desc>lat.=55.693638, lon.=26.460302, Alt.=139.431763m. Speed=0.036000m/h.</desc>
<speed>0.010000</speed>
</trkpt>
<trkpt lat="55.693638" lon="26.460302">
<ele>139.427856</ele>
<time>2010-07-18T10:17:19Z</time>
<desc>lat.=55.693638, lon.=26.460302, Alt.=139.427856m. Speed=0.000000m/h.</desc>
<speed>0.000000</speed>
</trkpt>
<trkpt lat="55.693638" lon="26.460302">
<ele>139.423950</ele>
<time>2010-07-18T10:17:20Z</time>
<desc>lat.=55.693638, lon.=26.460302, Alt.=139.423950m. Speed=0.000000m/h.</desc>
<speed>0.000000</speed>
</trkpt>
<trkpt lat="55.693638" lon="26.460302">
<ele>139.423950</ele>
<time>2010-07-18T10:17:21Z</time>
<desc>lat.=55.693638, lon.=26.460302, Alt.=139.423950m. Speed=0.000000m/h.</desc>
<speed>0.000000</speed>
</trkpt>
<trkpt lat="55.693638" lon="26.460302">
<ele>139.420044</ele>
<time>2010-07-18T10:17:22Z</time>
<desc>lat.=55.693638, lon.=26.460302, Alt.=139.420044m. Speed=0.036000m/h.</desc>
<speed>0.010000</speed>
</trkpt>
<trkpt lat="55.693638" lon="26.460302">
<ele>139.420044</ele>
<time>2010-07-18T10:17:23Z</time>
<desc>lat.=55.693638, lon.=26.460302, Alt.=139.420044m. Speed=0.000000m/h.</desc>
<speed>0.000000</speed>
</trkpt>
<trkpt lat="55.693638" lon="26.460302">
<ele>139.420044</ele>
<time>2010-07-18T10:17:24Z</time>
<desc>lat.=55.693638, lon.=26.460302, Alt.=139.420044m. Speed=0.072000m/h.</desc>
<speed>0.020000</speed>
</trkpt>
<trkpt lat="55.693638" lon="26.460302">
<ele>139.416138</ele>
<time>2010-07-18T10:17:25Z</time>
<desc>lat.=55.693638, lon.=26.460302, Alt.=139.416138m. Speed=0.036000m/h.</desc>
<speed>0.010000</speed>
</trkpt>
<trkpt lat="55.693638" lon="26.460302">
<ele>139.416138</ele>
<time>2010-07-18T10:17:26Z</time>
<desc>lat.=55.693638, lon.=26.460302, Alt.=139.416138m. Speed=0.000000m/h.</desc>
<speed>0.000000</speed>
</trkpt>
<trkpt lat="55.693638" lon="26.460302">
<ele>139.408325</ele>
<time>2010-07-18T10:17:27Z</time>
<desc>lat.=55.693638, lon.=26.460302, Alt.=139.408325m. Speed=0.072000m/h.</desc>
<speed>0.020000</speed>
</trkpt>
<trkpt lat="55.693638" lon="26.460302">
<ele>139.408325</ele>
<time>2010-07-18T10:17:28Z</time>
<desc>lat.=55.693638, lon.=26.460302, Alt.=139.408325m. Speed=0.072000m/h.</desc>
<speed>0.020000</speed>
</trkpt>
<trkpt lat="55.693638" lon="26.460302">
<ele>139.408325</ele>
<time>2010-07-18T10:17:29Z</time>
<desc>lat.=55.693638, lon.=26.460302, Alt.=139.408325m. Speed=0.036000m/h.</desc>
<speed>0.010000</speed>
</trkpt>
<trkpt lat="55.693638" lon="26.460302">
<ele>139.400513</ele>
<time>2010-07-18T10:17:30Z</time>
<desc>lat.=55.693638, lon.=26.460302, Alt.=139.400513m. Speed=0.108000m/h.</desc>
<speed>0.030000</speed>
</trkpt>
<trkpt lat="55.693638" lon="26.460302">
<ele>139.396606</ele>
<time>2010-07-18T10:17:31Z</time>
<desc>lat.=55.693638, lon.=26.460302, Alt.=139.396606m. Speed=0.072000m/h.</desc>
<speed>0.020000</speed>
</trkpt>
<trkpt lat="55.693638" lon="26.460302">
<ele>139.388794</ele>
<time>2010-07-18T10:17:32Z</time>
<desc>lat.=55.693638, lon.=26.460302, Alt.=139.388794m. Speed=0.036000m/h.</desc>
<speed>0.010000</speed>
</trkpt>
<trkpt lat="55.693638" lon="26.460302">
<ele>139.388794</ele>
<time>2010-07-18T10:17:33Z</time>
<desc>lat.=55.693638, lon.=26.460302, Alt.=139.388794m. Speed=0.000000m/h.</desc>
<speed>0.000000</speed>
</trkpt>
<trkpt lat="55.693638" lon="26.460302">
<ele>139.380981</ele>
<time>2010-07-18T10:17:34Z</time>
<desc>lat.=55.693638, lon.=26.460302, Alt.=139.380981m. Speed=0.036000m/h.</desc>
<speed>0.010000</speed>
</trkpt>
<trkpt lat="55.693638" lon="26.460302">
<ele>139.365356</ele>
<time>2010-07-18T10:17:35Z</time>
<desc>lat.=55.693638, lon.=26.460302, Alt.=139.365356m. Speed=0.108000m/h.</desc>
<speed>0.030000</speed>
</trkpt>
<trkpt lat="55.693638" lon="26.460302">
<ele>139.357544</ele>
<time>2010-07-18T10:17:36Z</time>
<desc>lat.=55.693638, lon.=26.460302, Alt.=139.357544m. Speed=0.036000m/h.</desc>
<speed>0.010000</speed>
</trkpt>
<trkpt lat="55.693638" lon="26.460302">
<ele>139.357544</ele>
<time>2010-07-18T10:17:37Z</time>
<desc>lat.=55.693638, lon.=26.460302, Alt.=139.357544m. Speed=0.036000m/h.</desc>
<speed>0.010000</speed>
</trkpt>
<trkpt lat="55.693638" lon="26.460300">
<ele>139.353638</ele>
<time>2010-07-18T10:17:38Z</time>
<desc>lat.=55.693638, lon.=26.460300, Alt.=139.353638m. Speed=0.036000m/h.</desc>
<speed>0.010000</speed>
</trkpt>
<trkpt lat="55.693638" lon="26.460300">
<ele>139.345825</ele>
<time>2010-07-18T10:17:39Z</time>
<desc>lat.=55.693638, lon.=26.460300, Alt.=139.345825m. Speed=0.072000m/h.</desc>
<speed>0.020000</speed>
</trkpt>
<trkpt lat="55.693638" lon="26.460300">
<ele>139.338013</ele>
<time>2010-07-18T10:17:40Z</time>
<desc>lat.=55.693638, lon.=26.460300, Alt.=139.338013m. Speed=0.036000m/h.</desc>
<speed>0.010000</speed>
</trkpt>
<trkpt lat="55.693638" lon="26.460300">
<ele>139.334106</ele>
<time>2010-07-18T10:17:41Z</time>
<desc>lat.=55.693638, lon.=26.460300, Alt.=139.334106m. Speed=0.036000m/h.</desc>
<speed>0.010000</speed>
</trkpt>
<trkpt lat="55.693638" lon="26.460300">
<ele>139.330200</ele>
<time>2010-07-18T10:17:42Z</time>
<desc>lat.=55.693638, lon.=26.460300, Alt.=139.330200m. Speed=0.036000m/h.</desc>
<speed>0.010000</speed>
</trkpt>
<trkpt lat="55.693638" lon="26.460300">
<ele>139.322388</ele>
<time>2010-07-18T10:17:43Z</time>
<desc>lat.=55.693638, lon.=26.460300, Alt.=139.322388m. Speed=0.036000m/h.</desc>
<speed>0.010000</speed>
</trkpt>
<trkpt lat="55.693638" lon="26.460300">
<ele>139.314575</ele>
<time>2010-07-18T10:17:44Z</time>
<desc>lat.=55.693638, lon.=26.460300, Alt.=139.314575m. Speed=0.036000m/h.</desc>
<speed>0.010000</speed>
</trkpt>
<trkpt lat="55.693638" lon="26.460300">
<ele>139.310669</ele>
<time>2010-07-18T10:17:45Z</time>
<desc>lat.=55.693638, lon.=26.460300, Alt.=139.310669m. Speed=0.144000m/h.</desc>
<speed>0.040000</speed>
</trkpt>
<trkpt lat="55.693638" lon="26.460300">
<ele>139.310669</ele>
<time>2010-07-18T10:17:46Z</time>
<desc>lat.=55.693638, lon.=26.460300, Alt.=139.310669m. Speed=0.036000m/h.</desc>
<speed>0.010000</speed>
</trkpt>
<trkpt lat="55.693638" lon="26.460300">
<ele>139.306763</ele>
<time>2010-07-18T10:17:47Z</time>
<desc>lat.=55.693638, lon.=26.460300, Alt.=139.306763m. Speed=0.036000m/h.</desc>
<speed>0.010000</speed>
</trkpt>
<trkpt lat="55.693638" lon="26.460300">
<ele>139.302856</ele>
<time>2010-07-18T10:17:48Z</time>
<desc>lat.=55.693638, lon.=26.460300, Alt.=139.302856m. Speed=0.036000m/h.</desc>
<speed>0.010000</speed>
</trkpt>
<trkpt lat="55.693638" lon="26.460300">
<ele>139.295044</ele>
<time>2010-07-18T10:17:49Z</time>
<desc>lat.=55.693638, lon.=26.460300, Alt.=139.295044m. Speed=0.036000m/h.</desc>
<speed>0.010000</speed>
</trkpt>
<trkpt lat="55.693638" lon="26.460300">
<ele>139.291138</ele>
<time>2010-07-18T10:17:50Z</time>
<desc>lat.=55.693638, lon.=26.460300, Alt.=139.291138m. Speed=0.000000m/h.</desc>
<speed>0.000000</speed>
</trkpt>
<trkpt lat="55.693638" lon="26.460300">
<ele>139.283325</ele>
<time>2010-07-18T10:17:51Z</time>
<desc>lat.=55.693638, lon.=26.460300, Alt.=139.283325m. Speed=0.072000m/h.</desc>
<speed>0.020000</speed>
</trkpt>
<trkpt lat="55.693638" lon="26.460300">
<ele>139.271606</ele>
<time>2010-07-18T10:17:52Z</time>
<desc>lat.=55.693638, lon.=26.460300, Alt.=139.271606m. Speed=0.108000m/h.</desc>
<speed>0.030000</speed>
</trkpt>
<trkpt lat="55.693634" lon="26.460300">
<ele>139.255981</ele>
<time>2010-07-18T10:17:53Z</time>
<desc>lat.=55.693634, lon.=26.460300, Alt.=139.255981m. Speed=0.036000m/h.</desc>
<speed>0.010000</speed>
</trkpt>
<trkpt lat="55.693634" lon="26.460300">
<ele>139.252075</ele>
<time>2010-07-18T10:17:54Z</time>
<desc>lat.=55.693634, lon.=26.460300, Alt.=139.252075m. Speed=0.036000m/h.</desc>
<speed>0.010000</speed>
</trkpt>
<trkpt lat="55.693634" lon="26.460300">
<ele>139.244263</ele>
<time>2010-07-18T10:17:55Z</time>
<desc>lat.=55.693634, lon.=26.460300, Alt.=139.244263m. Speed=0.036000m/h.</desc>
<speed>0.010000</speed>
</trkpt>
<trkpt lat="55.693634" lon="26.460300">
<ele>139.232544</ele>
<time>2010-07-18T10:17:56Z</time>
<desc>lat.=55.693634, lon.=26.460300, Alt.=139.232544m. Speed=0.000000m/h.</desc>
<speed>0.000000</speed>
</trkpt>
<trkpt lat="55.693634" lon="26.460300">
<ele>139.228638</ele>
<time>2010-07-18T10:17:57Z</time>
<desc>lat.=55.693634, lon.=26.460300, Alt.=139.228638m. Speed=0.036000m/h.</desc>
<speed>0.010000</speed>
</trkpt>
<trkpt lat="55.693634" lon="26.460300">
<ele>139.220825</ele>
<time>2010-07-18T10:17:58Z</time>
<desc>lat.=55.693634, lon.=26.460300, Alt.=139.220825m. Speed=0.036000m/h.</desc>
<speed>0.010000</speed>
</trkpt>
<trkpt lat="55.693634" lon="26.460300">
<ele>139.213013</ele>
<time>2010-07-18T10:17:59Z</time>
<desc>lat.=55.693634, lon.=26.460300, Alt.=139.213013m. Speed=0.036000m/h.</desc>
<speed>0.010000</speed>
</trkpt>
<trkpt lat="55.693634" lon="26.460300">
<ele>139.201294</ele>
<time>2010-07-18T10:18:00Z</time>
<desc>lat.=55.693634, lon.=26.460300, Alt.=139.201294m. Speed=0.036000m/h.</desc>
<speed>0.010000</speed>
</trkpt>
<trkpt lat="55.693634" lon="26.460300">
<ele>139.197388</ele>
<time>2010-07-18T10:18:01Z</time>
<desc>lat.=55.693634, lon.=26.460300, Alt.=139.197388m. Speed=0.072000m/h.</desc>
<speed>0.020000</speed>
</trkpt>
<trkpt lat="55.693634" lon="26.460300">
<ele>139.185669</ele>
<time>2010-07-18T10:18:02Z</time>
<desc>lat.=55.693634, lon.=26.460300, Alt.=139.185669m. Speed=0.072000m/h.</desc>
<speed>0.020000</speed>
</trkpt>
<trkpt lat="55.693634" lon="26.460300">
<ele>139.185669</ele>
<time>2010-07-18T10:18:03Z</time>
<desc>lat.=55.693634, lon.=26.460300, Alt.=139.185669m. Speed=0.000000m/h.</desc>
<speed>0.000000</speed>
</trkpt>
<trkpt lat="55.693634" lon="26.460300">
<ele>139.185669</ele>
<time>2010-07-18T10:18:04Z</time>
<desc>lat.=55.693634, lon.=26.460300, Alt.=139.185669m. Speed=0.000000m/h.</desc>
<speed>0.000000</speed>
</trkpt>
<trkpt lat="55.693634" lon="26.460300">
<ele>139.185669</ele>
<time>2010-07-18T10:18:05Z</time>
<desc>lat.=55.693634, lon.=26.460300, Alt.=139.185669m. Speed=0.000000m/h.</desc>
<speed>0.000000</speed>
</trkpt>
<trkpt lat="55.693634" lon="26.460300">
<ele>139.185669</ele>
<time>2010-07-18T10:18:06Z</time>
<desc>lat.=55.693634, lon.=26.460300, Alt.=139.185669m. Speed=0.036000m/h.</desc>
<speed>0.010000</speed>
</trkpt>
<trkpt lat="55.693634" lon="26.460300">
<ele>139.177856</ele>
<time>2010-07-18T10:18:07Z</time>
<desc>lat.=55.693634, lon.=26.460300, Alt.=139.177856m. Speed=0.036000m/h.</desc>
<speed>0.010000</speed>
</trkpt>
<trkpt lat="55.693634" lon="26.460300">
<ele>139.166138</ele>
<time>2010-07-18T10:18:08Z</time>
<desc>lat.=55.693634, lon.=26.460300, Alt.=139.166138m. Speed=0.072000m/h.</desc>
<speed>0.020000</speed>
</trkpt>
<trkpt lat="55.693634" lon="26.460300">
<ele>139.150513</ele>
<time>2010-07-18T10:18:09Z</time>
<desc>lat.=55.693634, lon.=26.460300, Alt.=139.150513m. Speed=0.108000m/h.</desc>
<speed>0.030000</speed>
</trkpt>
<trkpt lat="55.693634" lon="26.460300">
<ele>139.138794</ele>
<time>2010-07-18T10:18:10Z</time>
<desc>lat.=55.693634, lon.=26.460300, Alt.=139.138794m. Speed=0.072000m/h.</desc>
<speed>0.020000</speed>
</trkpt>
<trkpt lat="55.693634" lon="26.460300">
<ele>139.127075</ele>
<time>2010-07-18T10:18:11Z</time>
<desc>lat.=55.693634, lon.=26.460300, Alt.=139.127075m. Speed=0.000000m/h.</desc>
<speed>0.000000</speed>
</trkpt>
<trkpt lat="55.693634" lon="26.460299">
<ele>139.119263</ele>
<time>2010-07-18T10:18:12Z</time>
<desc>lat.=55.693634, lon.=26.460299, Alt.=139.119263m. Speed=0.036000m/h.</desc>
<speed>0.010000</speed>
</trkpt>
<trkpt lat="55.693634" lon="26.460299">
<ele>139.111450</ele>
<time>2010-07-18T10:18:13Z</time>
<desc>lat.=55.693634, lon.=26.460299, Alt.=139.111450m. Speed=0.036000m/h.</desc>
<speed>0.010000</speed>
</trkpt>
<trkpt lat="55.693634" lon="26.460299">
<ele>139.103638</ele>
<time>2010-07-18T10:18:14Z</time>
<desc>lat.=55.693634, lon.=26.460299, Alt.=139.103638m. Speed=0.000000m/h.</desc>
<speed>0.000000</speed>
</trkpt>
<trkpt lat="55.693634" lon="26.460299">
<ele>139.099731</ele>
<time>2010-07-18T10:18:15Z</time>
<desc>lat.=55.693634, lon.=26.460299, Alt.=139.099731m. Speed=0.036000m/h.</desc>
<speed>0.010000</speed>
</trkpt>
<trkpt lat="55.693634" lon="26.460299">
<ele>139.091919</ele>
<time>2010-07-18T10:18:16Z</time>
<desc>lat.=55.693634, lon.=26.460299, Alt.=139.091919m. Speed=0.000000m/h.</desc>
<speed>0.000000</speed>
</trkpt>
<trkpt lat="55.693634" lon="26.460299">
<ele>139.084106</ele>
<time>2010-07-18T10:18:17Z</time>
<desc>lat.=55.693634, lon.=26.460299, Alt.=139.084106m. Speed=0.072000m/h.</desc>
<speed>0.020000</speed>
</trkpt>
<trkpt lat="55.693634" lon="26.460299">
<ele>139.068481</ele>
<time>2010-07-18T10:18:18Z</time>
<desc>lat.=55.693634, lon.=26.460299, Alt.=139.068481m. Speed=0.000000m/h.</desc>
<speed>0.000000</speed>
</trkpt>
<trkpt lat="55.693634" lon="26.460299">
<ele>139.060669</ele>
<time>2010-07-18T10:18:19Z</time>
<desc>lat.=55.693634, lon.=26.460299, Alt.=139.060669m. Speed=0.000000m/h.</desc>
<speed>0.000000</speed>
</trkpt>
<trkpt lat="55.693634" lon="26.460299">
<ele>139.048950</ele>
<time>2010-07-18T10:18:20Z</time>
<desc>lat.=55.693634, lon.=26.460299, Alt.=139.048950m. Speed=0.000000m/h.</desc>
<speed>0.000000</speed>
</trkpt>
<trkpt lat="55.693634" lon="26.460299">
<ele>139.045044</ele>
<time>2010-07-18T10:18:21Z</time>
<desc>lat.=55.693634, lon.=26.460299, Alt.=139.045044m. Speed=0.000000m/h.</desc>
<speed>0.000000</speed>
</trkpt>
<trkpt lat="55.693634" lon="26.460299">
<ele>139.041138</ele>
<time>2010-07-18T10:18:22Z</time>
<desc>lat.=55.693634, lon.=26.460299, Alt.=139.041138m. Speed=0.000000m/h.</desc>
<speed>0.000000</speed>
</trkpt>
<trkpt lat="55.693634" lon="26.460299">
<ele>139.033325</ele>
<time>2010-07-18T10:18:23Z</time>
<desc>lat.=55.693634, lon.=26.460299, Alt.=139.033325m. Speed=0.000000m/h.</desc>
<speed>0.000000</speed>
</trkpt>
<trkpt lat="55.693634" lon="26.460299">
<ele>139.029419</ele>
<time>2010-07-18T10:18:24Z</time>
<desc>lat.=55.693634, lon.=26.460299, Alt.=139.029419m. Speed=0.000000m/h.</desc>
<speed>0.000000</speed>
</trkpt>
<trkpt lat="55.693634" lon="26.460297">
<ele>139.025513</ele>
<time>2010-07-18T10:18:25Z</time>
<desc>lat.=55.693634, lon.=26.460297, Alt.=139.025513m. Speed=0.000000m/h.</desc>
<speed>0.000000</speed>
</trkpt>
<trkpt lat="55.693630" lon="26.460297">
<ele>139.017700</ele>
<time>2010-07-18T10:18:26Z</time>
<desc>lat.=55.693630, lon.=26.460297, Alt.=139.017700m. Speed=0.072000m/h.</desc>
<speed>0.020000</speed>
</trkpt>
<trkpt lat="55.693630" lon="26.460297">
<ele>139.013794</ele>
<time>2010-07-18T10:18:27Z</time>
<desc>lat.=55.693630, lon.=26.460297, Alt.=139.013794m. Speed=0.000000m/h.</desc>
<speed>0.000000</speed>
</trkpt>
<trkpt lat="55.693630" lon="26.460297">
<ele>139.009888</ele>
<time>2010-07-18T10:18:28Z</time>
<desc>lat.=55.693630, lon.=26.460297, Alt.=139.009888m. Speed=0.000000m/h.</desc>
<speed>0.000000</speed>
</trkpt>
<trkpt lat="55.693630" lon="26.460297">
<ele>139.009888</ele>
<time>2010-07-18T10:18:29Z</time>
<desc>lat.=55.693630, lon.=26.460297, Alt.=139.009888m. Speed=0.000000m/h.</desc>
<speed>0.000000</speed>
</trkpt>
<trkpt lat="55.693630" lon="26.460297">
<ele>139.005981</ele>
<time>2010-07-18T10:18:30Z</time>
<desc>lat.=55.693630, lon.=26.460297, Alt.=139.005981m. Speed=0.036000m/h.</desc>
<speed>0.010000</speed>
</trkpt>
<trkpt lat="55.693630" lon="26.460297">
<ele>139.005981</ele>
<time>2010-07-18T10:18:31Z</time>
<desc>lat.=55.693630, lon.=26.460297, Alt.=139.005981m. Speed=0.000000m/h.</desc>
<speed>0.000000</speed>
</trkpt>
<trkpt lat="55.693630" lon="26.460297">
<ele>139.002075</ele>
<time>2010-07-18T10:18:32Z</time>
<desc>lat.=55.693630, lon.=26.460297, Alt.=139.002075m. Speed=0.000000m/h.</desc>
<speed>0.000000</speed>
</trkpt>
<trkpt lat="55.693630" lon="26.460297">
<ele>139.002075</ele>
<time>2010-07-18T10:18:33Z</time>
<desc>lat.=55.693630, lon.=26.460297, Alt.=139.002075m. Speed=0.036000m/h.</desc>
<speed>0.010000</speed>
</trkpt>
<trkpt lat="55.693630" lon="26.460297">
<ele>138.998169</ele>
<time>2010-07-18T10:18:34Z</time>
<desc>lat.=55.693630, lon.=26.460297, Alt.=138.998169m. Speed=0.000000m/h.</desc>
<speed>0.000000</speed>
</trkpt>
<trkpt lat="55.693630" lon="26.460297">
<ele>138.994263</ele>
<time>2010-07-18T10:18:35Z</time>
<desc>lat.=55.693630, lon.=26.460297, Alt.=138.994263m. Speed=0.000000m/h.</desc>
<speed>0.000000</speed>
</trkpt>
<trkpt lat="55.693630" lon="26.460297">
<ele>138.990356</ele>
<time>2010-07-18T10:18:36Z</time>
<desc>lat.=55.693630, lon.=26.460297, Alt.=138.990356m. Speed=0.036000m/h.</desc>
<speed>0.010000</speed>
</trkpt>
<trkpt lat="55.693630" lon="26.460297">
<ele>138.982544</ele>
<time>2010-07-18T10:18:37Z</time>
<desc>lat.=55.693630, lon.=26.460297, Alt.=138.982544m. Speed=0.072000m/h.</desc>
<speed>0.020000</speed>
</trkpt>
<trkpt lat="55.693630" lon="26.460295">
<ele>138.978638</ele>
<time>2010-07-18T10:18:38Z</time>
<desc>lat.=55.693630, lon.=26.460295, Alt.=138.978638m. Speed=0.000000m/h.</desc>
<speed>0.000000</speed>
</trkpt>
<trkpt lat="55.693630" lon="26.460295">
<ele>138.966919</ele>
<time>2010-07-18T10:18:39Z</time>
<desc>lat.=55.693630, lon.=26.460295, Alt.=138.966919m. Speed=0.000000m/h.</desc>
<speed>0.000000</speed>
</trkpt>
<trkpt lat="55.693630" lon="26.460295">
<ele>138.963013</ele>
<time>2010-07-18T10:18:40Z</time>
<desc>lat.=55.693630, lon.=26.460295, Alt.=138.963013m. Speed=0.000000m/h.</desc>
<speed>0.000000</speed>
</trkpt>
<trkpt lat="55.693630" lon="26.460295">
<ele>138.963013</ele>
<time>2010-07-18T10:18:41Z</time>
<desc>lat.=55.693630, lon.=26.460295, Alt.=138.963013m. Speed=0.000000m/h.</desc>
<speed>0.000000</speed>
</trkpt>
<trkpt lat="55.693630" lon="26.460295">
<ele>138.963013</ele>
<time>2010-07-18T10:18:42Z</time>
<desc>lat.=55.693630, lon.=26.460295, Alt.=138.963013m. Speed=0.000000m/h.</desc>
<speed>0.000000</speed>
</trkpt>
<trkpt lat="55.693630" lon="26.460295">
<ele>138.955200</ele>
<time>2010-07-18T10:18:43Z</time>
<desc>lat.=55.693630, lon.=26.460295, Alt.=138.955200m. Speed=0.036000m/h.</desc>
<speed>0.010000</speed>
</trkpt>
<trkpt lat="55.693630" lon="26.460295">
<ele>138.951294</ele>
<time>2010-07-18T10:18:44Z</time>
<desc>lat.=55.693630, lon.=26.460295, Alt.=138.951294m. Speed=0.036000m/h.</desc>
<speed>0.010000</speed>
</trkpt>
<trkpt lat="55.693630" lon="26.460295">
<ele>138.951294</ele>
<time>2010-07-18T10:18:45Z</time>
<desc>lat.=55.693630, lon.=26.460295, Alt.=138.951294m. Speed=0.000000m/h.</desc>
<speed>0.000000</speed>
</trkpt>
<trkpt lat="55.693630" lon="26.460295">
<ele>138.947388</ele>
<time>2010-07-18T10:18:46Z</time>
<desc>lat.=55.693630, lon.=26.460295, Alt.=138.947388m. Speed=0.072000m/h.</desc>
<speed>0.020000</speed>
</trkpt>
<trkpt lat="55.693630" lon="26.460295">
<ele>138.943481</ele>
<time>2010-07-18T10:18:47Z</time>
<desc>lat.=55.693630, lon.=26.460295, Alt.=138.943481m. Speed=0.000000m/h.</desc>
<speed>0.000000</speed>
</trkpt>
<trkpt lat="55.693630" lon="26.460295">
<ele>138.943481</ele>
<time>2010-07-18T10:18:48Z</time>
<desc>lat.=55.693630, lon.=26.460295, Alt.=138.943481m. Speed=0.036000m/h.</desc>
<speed>0.010000</speed>
</trkpt>
<trkpt lat="55.693630" lon="26.460295">
<ele>138.947388</ele>
<time>2010-07-18T10:18:49Z</time>
<desc>lat.=55.693630, lon.=26.460295, Alt.=138.947388m. Speed=0.036000m/h.</desc>
<speed>0.010000</speed>
</trkpt>
<trkpt lat="55.693630" lon="26.460295">
<ele>138.943481</ele>
<time>2010-07-18T10:18:50Z</time>
<desc>lat.=55.693630, lon.=26.460295, Alt.=138.943481m. Speed=0.000000m/h.</desc>
<speed>0.000000</speed>
</trkpt>
<trkpt lat="55.693630" lon="26.460295">
<ele>138.943481</ele>
<time>2010-07-18T10:18:51Z</time>
<desc>lat.=55.693630, lon.=26.460295, Alt.=138.943481m. Speed=0.000000m/h.</desc>
<speed>0.000000</speed>
</trkpt>
<trkpt lat="55.693630" lon="26.460295">
<ele>138.931763</ele>
<time>2010-07-18T10:18:52Z</time>
<desc>lat.=55.693630, lon.=26.460295, Alt.=138.931763m. Speed=0.072000m/h.</desc>
<speed>0.020000</speed>
</trkpt>
<trkpt lat="55.693630" lon="26.460295">
<ele>138.920044</ele>
<time>2010-07-18T10:18:53Z</time>
<desc>lat.=55.693630, lon.=26.460295, Alt.=138.920044m. Speed=0.036000m/h.</desc>
<speed>0.010000</speed>
</trkpt>
<trkpt lat="55.693630" lon="26.460295">
<ele>138.916138</ele>
<time>2010-07-18T10:18:54Z</time>
<desc>lat.=55.693630, lon.=26.460295, Alt.=138.916138m. Speed=0.036000m/h.</desc>
<speed>0.010000</speed>
</trkpt>
<trkpt lat="55.693630" lon="26.460293">
<ele>138.908325</ele>
<time>2010-07-18T10:18:55Z</time>
<desc>lat.=55.693630, lon.=26.460293, Alt.=138.908325m. Speed=0.000000m/h.</desc>
<speed>0.000000</speed>
</trkpt>
<trkpt lat="55.693630" lon="26.460293">
<ele>138.908325</ele>
<time>2010-07-18T10:18:56Z</time>
<desc>lat.=55.693630, lon.=26.460293, Alt.=138.908325m. Speed=0.000000m/h.</desc>
<speed>0.000000</speed>
</trkpt>
<trkpt lat="55.693630" lon="26.460293">
<ele>138.900513</ele>
<time>2010-07-18T10:18:57Z</time>
<desc>lat.=55.693630, lon.=26.460293, Alt.=138.900513m. Speed=0.000000m/h.</desc>
<speed>0.000000</speed>
</trkpt>
<trkpt lat="55.693630" lon="26.460293">
<ele>138.896606</ele>
<time>2010-07-18T10:18:58Z</time>
<desc>lat.=55.693630, lon.=26.460293, Alt.=138.896606m. Speed=0.000000m/h.</desc>
<speed>0.000000</speed>
</trkpt>
<trkpt lat="55.693630" lon="26.460293">
<ele>138.880981</ele>
<time>2010-07-18T10:18:59Z</time>
<desc>lat.=55.693630, lon.=26.460293, Alt.=138.880981m. Speed=0.036000m/h.</desc>
<speed>0.010000</speed>
</trkpt>
<trkpt lat="55.693630" lon="26.460293">
<ele>138.873169</ele>
<time>2010-07-18T10:19:00Z</time>
<desc>lat.=55.693630, lon.=26.460293, Alt.=138.873169m. Speed=0.000000m/h.</desc>
<speed>0.000000</speed>
</trkpt>
<trkpt lat="55.693630" lon="26.460293">
<ele>138.861450</ele>
<time>2010-07-18T10:19:01Z</time>
<desc>lat.=55.693630, lon.=26.460293, Alt.=138.861450m. Speed=0.036000m/h.</desc>
<speed>0.010000</speed>
</trkpt>
<trkpt lat="55.693630" lon="26.460293">
<ele>138.861450</ele>
<time>2010-07-18T10:19:02Z</time>
<desc>lat.=55.693630, lon.=26.460293, Alt.=138.861450m. Speed=0.036000m/h.</desc>
<speed>0.010000</speed>
</trkpt>
<trkpt lat="55.693630" lon="26.460293">
<ele>138.861450</ele>
<time>2010-07-18T10:19:03Z</time>
<desc>lat.=55.693630, lon.=26.460293, Alt.=138.861450m. Speed=0.072000m/h.</desc>
<speed>0.020000</speed>
</trkpt>
<trkpt lat="55.693630" lon="26.460293">
<ele>138.869263</ele>
<time>2010-07-18T10:19:04Z</time>
<desc>lat.=55.693630, lon.=26.460293, Alt.=138.869263m. Speed=0.072000m/h.</desc>
<speed>0.020000</speed>
</trkpt>
<trkpt lat="55.693630" lon="26.460293">
<ele>138.873169</ele>
<time>2010-07-18T10:19:05Z</time>
<desc>lat.=55.693630, lon.=26.460293, Alt.=138.873169m. Speed=0.036000m/h.</desc>
<speed>0.010000</speed>
</trkpt>
<trkpt lat="55.693630" lon="26.460293">
<ele>138.873169</ele>
<time>2010-07-18T10:19:06Z</time>
<desc>lat.=55.693630, lon.=26.460293, Alt.=138.873169m. Speed=0.072000m/h.</desc>
<speed>0.020000</speed>
</trkpt>
<trkpt lat="55.693630" lon="26.460293">
<ele>138.873169</ele>
<time>2010-07-18T10:19:07Z</time>
<desc>lat.=55.693630, lon.=26.460293, Alt.=138.873169m. Speed=0.036000m/h.</desc>
<speed>0.010000</speed>
</trkpt>
<trkpt lat="55.693630" lon="26.460293">
<ele>138.869263</ele>
<time>2010-07-18T10:19:08Z</time>
<desc>lat.=55.693630, lon.=26.460293, Alt.=138.869263m. Speed=0.036000m/h.</desc>
<speed>0.010000</speed>
</trkpt>
<trkpt lat="55.693630" lon="26.460293">
<ele>138.865356</ele>
<time>2010-07-18T10:19:09Z</time>
<desc>lat.=55.693630, lon.=26.460293, Alt.=138.865356m. Speed=0.036000m/h.</desc>
<speed>0.010000</speed>
</trkpt>
<trkpt lat="55.693630" lon="26.460293">
<ele>138.861450</ele>
<time>2010-07-18T10:19:10Z</time>
<desc>lat.=55.693630, lon.=26.460293, Alt.=138.861450m. Speed=0.072000m/h.</desc>
<speed>0.020000</speed>
</trkpt>
<trkpt lat="55.693630" lon="26.460293">
<ele>138.857544</ele>
<time>2010-07-18T10:19:11Z</time>
<desc>lat.=55.693630, lon.=26.460293, Alt.=138.857544m. Speed=0.072000m/h.</desc>
<speed>0.020000</speed>
</trkpt>
<trkpt lat="55.693630" lon="26.460293">
<ele>138.849731</ele>
<time>2010-07-18T10:19:12Z</time>
<desc>lat.=55.693630, lon.=26.460293, Alt.=138.849731m. Speed=0.000000m/h.</desc>
<speed>0.000000</speed>
</trkpt>
<trkpt lat="55.693630" lon="26.460293">
<ele>138.845825</ele>
<time>2010-07-18T10:19:13Z</time>
<desc>lat.=55.693630, lon.=26.460293, Alt.=138.845825m. Speed=0.000000m/h.</desc>
<speed>0.000000</speed>
</trkpt>
<trkpt lat="55.693630" lon="26.460293">
<ele>138.841919</ele>
<time>2010-07-18T10:19:14Z</time>
<desc>lat.=55.693630, lon.=26.460293, Alt.=138.841919m. Speed=0.036000m/h.</desc>
<speed>0.010000</speed>
</trkpt>
<trkpt lat="55.693630" lon="26.460293">
<ele>138.838013</ele>
<time>2010-07-18T10:19:15Z</time>
<desc>lat.=55.693630, lon.=26.460293, Alt.=138.838013m. Speed=0.000000m/h.</desc>
<speed>0.000000</speed>
</trkpt>
<trkpt lat="55.693630" lon="26.460293">
<ele>138.834106</ele>
<time>2010-07-18T10:19:16Z</time>
<desc>lat.=55.693630, lon.=26.460293, Alt.=138.834106m. Speed=0.000000m/h.</desc>
<speed>0.000000</speed>
</trkpt>
<trkpt lat="55.693630" lon="26.460293">
<ele>138.834106</ele>
<time>2010-07-18T10:19:17Z</time>
<desc>lat.=55.693630, lon.=26.460293, Alt.=138.834106m. Speed=0.000000m/h.</desc>
<speed>0.000000</speed>
</trkpt>
<trkpt lat="55.693630" lon="26.460293">
<ele>138.834106</ele>
<time>2010-07-18T10:19:18Z</time>
<desc>lat.=55.693630, lon.=26.460293, Alt.=138.834106m. Speed=0.000000m/h.</desc>
<speed>0.000000</speed>
</trkpt>
<trkpt lat="55.693630" lon="26.460293">
<ele>138.838013</ele>
<time>2010-07-18T10:19:19Z</time>
<desc>lat.=55.693630, lon.=26.460293, Alt.=138.838013m. Speed=0.036000m/h.</desc>
<speed>0.010000</speed>
</trkpt>
<trkpt lat="55.693630" lon="26.460293">
<ele>138.838013</ele>
<time>2010-07-18T10:19:20Z</time>
<desc>lat.=55.693630, lon.=26.460293, Alt.=138.838013m. Speed=0.036000m/h.</desc>
<speed>0.010000</speed>
</trkpt>
<trkpt lat="55.693630" lon="26.460293">
<ele>138.841919</ele>
<time>2010-07-18T10:19:21Z</time>
<desc>lat.=55.693630, lon.=26.460293, Alt.=138.841919m. Speed=0.000000m/h.</desc>
<speed>0.000000</speed>
</trkpt>
<trkpt lat="55.693630" lon="26.460293">
<ele>138.845825</ele>
<time>2010-07-18T10:19:22Z</time>
<desc>lat.=55.693630, lon.=26.460293, Alt.=138.845825m. Speed=0.036000m/h.</desc>
<speed>0.010000</speed>
</trkpt>
<trkpt lat="55.693630" lon="26.460293">
<ele>138.845825</ele>
<time>2010-07-18T10:19:23Z</time>
<desc>lat.=55.693630, lon.=26.460293, Alt.=138.845825m. Speed=0.000000m/h.</desc>
<speed>0.000000</speed>
</trkpt>
<trkpt lat="55.693630" lon="26.460293">
<ele>138.853638</ele>
<time>2010-07-18T10:19:24Z</time>
<desc>lat.=55.693630, lon.=26.460293, Alt.=138.853638m. Speed=0.036000m/h.</desc>
<speed>0.010000</speed>
</trkpt>
<trkpt lat="55.693630" lon="26.460293">
<ele>138.853638</ele>
<time>2010-07-18T10:19:25Z</time>
<desc>lat.=55.693630, lon.=26.460293, Alt.=138.853638m. Speed=0.000000m/h.</desc>
<speed>0.000000</speed>
</trkpt>
<trkpt lat="55.693630" lon="26.460293">
<ele>138.861450</ele>
<time>2010-07-18T10:19:26Z</time>
<desc>lat.=55.693630, lon.=26.460293, Alt.=138.861450m. Speed=0.072000m/h.</desc>
<speed>0.020000</speed>
</trkpt>
<trkpt lat="55.693630" lon="26.460293">
<ele>138.865356</ele>
<time>2010-07-18T10:19:27Z</time>
<desc>lat.=55.693630, lon.=26.460293, Alt.=138.865356m. Speed=0.000000m/h.</desc>
<speed>0.000000</speed>
</trkpt>
<trkpt lat="55.693630" lon="26.460293">
<ele>138.865356</ele>
<time>2010-07-18T10:19:28Z</time>
<desc>lat.=55.693630, lon.=26.460293, Alt.=138.865356m. Speed=0.036000m/h.</desc>
<speed>0.010000</speed>
</trkpt>
<trkpt lat="55.693630" lon="26.460293">
<ele>138.865356</ele>
<time>2010-07-18T10:19:29Z</time>
<desc>lat.=55.693630, lon.=26.460293, Alt.=138.865356m. Speed=0.000000m/h.</desc>
<speed>0.000000</speed>
</trkpt>
<trkpt lat="55.693630" lon="26.460293">
<ele>138.869263</ele>
<time>2010-07-18T10:19:30Z</time>
<desc>lat.=55.693630, lon.=26.460293, Alt.=138.869263m. Speed=0.036000m/h.</desc>
<speed>0.010000</speed>
</trkpt>
<trkpt lat="55.693630" lon="26.460293">
<ele>138.873169</ele>
<time>2010-07-18T10:19:31Z</time>
<desc>lat.=55.693630, lon.=26.460293, Alt.=138.873169m. Speed=0.036000m/h.</desc>
<speed>0.010000</speed>
</trkpt>
<trkpt lat="55.693630" lon="26.460293">
<ele>138.877075</ele>
<time>2010-07-18T10:19:32Z</time>
<desc>lat.=55.693630, lon.=26.460293, Alt.=138.877075m. Speed=0.000000m/h.</desc>
<speed>0.000000</speed>
</trkpt>
<trkpt lat="55.693630" lon="26.460293">
<ele>138.880981</ele>
<time>2010-07-18T10:19:33Z</time>
<desc>lat.=55.693630, lon.=26.460293, Alt.=138.880981m. Speed=0.036000m/h.</desc>
<speed>0.010000</speed>
</trkpt>
<trkpt lat="55.693630" lon="26.460293">
<ele>138.884888</ele>
<time>2010-07-18T10:19:34Z</time>
<desc>lat.=55.693630, lon.=26.460293, Alt.=138.884888m. Speed=0.000000m/h.</desc>
<speed>0.000000</speed>
</trkpt>
<trkpt lat="55.693630" lon="26.460293">
<ele>138.880981</ele>
<time>2010-07-18T10:19:35Z</time>
<desc>lat.=55.693630, lon.=26.460293, Alt.=138.880981m. Speed=0.000000m/h.</desc>
<speed>0.000000</speed>
</trkpt>
<trkpt lat="55.693630" lon="26.460293">
<ele>138.880981</ele>
<time>2010-07-18T10:19:36Z</time>
<desc>lat.=55.693630, lon.=26.460293, Alt.=138.880981m. Speed=0.000000m/h.</desc>
<speed>0.000000</speed>
</trkpt>
<trkpt lat="55.693630" lon="26.460293">
<ele>138.884888</ele>
<time>2010-07-18T10:19:37Z</time>
<desc>lat.=55.693630, lon.=26.460293, Alt.=138.884888m. Speed=0.000000m/h.</desc>
<speed>0.000000</speed>
</trkpt>
<trkpt lat="55.693630" lon="26.460293">
<ele>138.888794</ele>
<time>2010-07-18T10:19:38Z</time>
<desc>lat.=55.693630, lon.=26.460293, Alt.=138.888794m. Speed=0.000000m/h.</desc>
<speed>0.000000</speed>
</trkpt>
<trkpt lat="55.693630" lon="26.460293">
<ele>138.896606</ele>
<time>2010-07-18T10:19:39Z</time>
<desc>lat.=55.693630, lon.=26.460293, Alt.=138.896606m. Speed=0.252000m/h.</desc>
<speed>0.070000</speed>
</trkpt>
<trkpt lat="55.693630" lon="26.460293">
<ele>138.904419</ele>
<time>2010-07-18T10:19:40Z</time>
<desc>lat.=55.693630, lon.=26.460293, Alt.=138.904419m. Speed=0.000000m/h.</desc>
<speed>0.000000</speed>
</trkpt>
<trkpt lat="55.693630" lon="26.460293">
<ele>138.916138</ele>
<time>2010-07-18T10:19:41Z</time>
<desc>lat.=55.693630, lon.=26.460293, Alt.=138.916138m. Speed=0.036000m/h.</desc>
<speed>0.010000</speed>
</trkpt>
<trkpt lat="55.693630" lon="26.460293">
<ele>138.923950</ele>
<time>2010-07-18T10:19:42Z</time>
<desc>lat.=55.693630, lon.=26.460293, Alt.=138.923950m. Speed=0.036000m/h.</desc>
<speed>0.010000</speed>
</trkpt>
<trkpt lat="55.693630" lon="26.460293">
<ele>138.935669</ele>
<time>2010-07-18T10:19:43Z</time>
<desc>lat.=55.693630, lon.=26.460293, Alt.=138.935669m. Speed=0.036000m/h.</desc>
<speed>0.010000</speed>
</trkpt>
<trkpt lat="55.693630" lon="26.460293">
<ele>138.943481</ele>
<time>2010-07-18T10:19:44Z</time>
<desc>lat.=55.693630, lon.=26.460293, Alt.=138.943481m. Speed=0.036000m/h.</desc>
<speed>0.010000</speed>
</trkpt>
<trkpt lat="55.693630" lon="26.460293">
<ele>138.951294</ele>
<time>2010-07-18T10:19:45Z</time>
<desc>lat.=55.693630, lon.=26.460293, Alt.=138.951294m. Speed=0.072000m/h.</desc>
<speed>0.020000</speed>
</trkpt>
<trkpt lat="55.693630" lon="26.460293">
<ele>138.959106</ele>
<time>2010-07-18T10:19:46Z</time>
<desc>lat.=55.693630, lon.=26.460293, Alt.=138.959106m. Speed=0.072000m/h.</desc>
<speed>0.020000</speed>
</trkpt>
<trkpt lat="55.693630" lon="26.460293">
<ele>138.963013</ele>
<time>2010-07-18T10:19:47Z</time>
<desc>lat.=55.693630, lon.=26.460293, Alt.=138.963013m. Speed=0.036000m/h.</desc>
<speed>0.010000</speed>
</trkpt>
<trkpt lat="55.693630" lon="26.460293">
<ele>138.966919</ele>
<time>2010-07-18T10:19:48Z</time>
<desc>lat.=55.693630, lon.=26.460293, Alt.=138.966919m. Speed=0.072000m/h.</desc>
<speed>0.020000</speed>
</trkpt>
<trkpt lat="55.693630" lon="26.460295">
<ele>138.974731</ele>
<time>2010-07-18T10:19:49Z</time>
<desc>lat.=55.693630, lon.=26.460295, Alt.=138.974731m. Speed=0.036000m/h.</desc>
<speed>0.010000</speed>
</trkpt>
<trkpt lat="55.693630" lon="26.460295">
<ele>138.982544</ele>
<time>2010-07-18T10:19:50Z</time>
<desc>lat.=55.693630, lon.=26.460295, Alt.=138.982544m. Speed=0.144000m/h.</desc>
<speed>0.040000</speed>
</trkpt>
<trkpt lat="55.693630" lon="26.460295">
<ele>138.990356</ele>
<time>2010-07-18T10:19:51Z</time>
<desc>lat.=55.693630, lon.=26.460295, Alt.=138.990356m. Speed=0.108000m/h.</desc>
<speed>0.030000</speed>
</trkpt>
<trkpt lat="55.693630" lon="26.460295">
<ele>138.998169</ele>
<time>2010-07-18T10:19:52Z</time>
<desc>lat.=55.693630, lon.=26.460295, Alt.=138.998169m. Speed=0.036000m/h.</desc>
<speed>0.010000</speed>
</trkpt>
<trkpt lat="55.693630" lon="26.460295">
<ele>139.005981</ele>
<time>2010-07-18T10:19:53Z</time>
<desc>lat.=55.693630, lon.=26.460295, Alt.=139.005981m. Speed=0.072000m/h.</desc>
<speed>0.020000</speed>
</trkpt>
<trkpt lat="55.693630" lon="26.460295">
<ele>139.017700</ele>
<time>2010-07-18T10:19:54Z</time>
<desc>lat.=55.693630, lon.=26.460295, Alt.=139.017700m. Speed=0.108000m/h.</desc>
<speed>0.030000</speed>
</trkpt>
<trkpt lat="55.693630" lon="26.460295">
<ele>139.021606</ele>
<time>2010-07-18T10:19:55Z</time>
<desc>lat.=55.693630, lon.=26.460295, Alt.=139.021606m. Speed=0.108000m/h.</desc>
<speed>0.030000</speed>
</trkpt>
<trkpt lat="55.693630" lon="26.460295">
<ele>139.025513</ele>
<time>2010-07-18T10:19:56Z</time>
<desc>lat.=55.693630, lon.=26.460295, Alt.=139.025513m. Speed=0.108000m/h.</desc>
<speed>0.030000</speed>
</trkpt>
<trkpt lat="55.693630" lon="26.460295">
<ele>139.029419</ele>
<time>2010-07-18T10:19:57Z</time>
<desc>lat.=55.693630, lon.=26.460295, Alt.=139.029419m. Speed=0.036000m/h.</desc>
<speed>0.010000</speed>
</trkpt>
<trkpt lat="55.693630" lon="26.460295">
<ele>139.033325</ele>
<time>2010-07-18T10:19:58Z</time>
<desc>lat.=55.693630, lon.=26.460295, Alt.=139.033325m. Speed=0.000000m/h.</desc>
<speed>0.000000</speed>
</trkpt>
<trkpt lat="55.693630" lon="26.460295">
<ele>139.037231</ele>
<time>2010-07-18T10:19:59Z</time>
<desc>lat.=55.693630, lon.=26.460295, Alt.=139.037231m. Speed=0.036000m/h.</desc>
<speed>0.010000</speed>
</trkpt>
<trkpt lat="55.693630" lon="26.460295">
<ele>139.041138</ele>
<time>2010-07-18T10:20:00Z</time>
<desc>lat.=55.693630, lon.=26.460295, Alt.=139.041138m. Speed=0.072000m/h.</desc>
<speed>0.020000</speed>
</trkpt>
<trkpt lat="55.693634" lon="26.460295">
<ele>139.045044</ele>
<time>2010-07-18T10:20:01Z</time>
<desc>lat.=55.693634, lon.=26.460295, Alt.=139.045044m. Speed=0.072000m/h.</desc>
<speed>0.020000</speed>
</trkpt>
<trkpt lat="55.693630" lon="26.460295">
<ele>139.041138</ele>
<time>2010-07-18T10:20:02Z</time>
<desc>lat.=55.693630, lon.=26.460295, Alt.=139.041138m. Speed=0.000000m/h.</desc>
<speed>0.000000</speed>
</trkpt>
<trkpt lat="55.693630" lon="26.460295">
<ele>139.037231</ele>
<time>2010-07-18T10:20:03Z</time>
<desc>lat.=55.693630, lon.=26.460295, Alt.=139.037231m. Speed=0.036000m/h.</desc>
<speed>0.010000</speed>
</trkpt>
<trkpt lat="55.693634" lon="26.460295">
<ele>139.045044</ele>
<time>2010-07-18T10:20:04Z</time>
<desc>lat.=55.693634, lon.=26.460295, Alt.=139.045044m. Speed=0.144000m/h.</desc>
<speed>0.040000</speed>
</trkpt>
<trkpt lat="55.693634" lon="26.460295">
<ele>139.048950</ele>
<time>2010-07-18T10:20:05Z</time>
<desc>lat.=55.693634, lon.=26.460295, Alt.=139.048950m. Speed=0.072000m/h.</desc>
<speed>0.020000</speed>
</trkpt>
<trkpt lat="55.693634" lon="26.460295">
<ele>139.045044</ele>
<time>2010-07-18T10:20:06Z</time>
<desc>lat.=55.693634, lon.=26.460295, Alt.=139.045044m. Speed=0.036000m/h.</desc>
<speed>0.010000</speed>
</trkpt>
<trkpt lat="55.693634" lon="26.460295">
<ele>139.048950</ele>
<time>2010-07-18T10:20:07Z</time>
<desc>lat.=55.693634, lon.=26.460295, Alt.=139.048950m. Speed=0.000000m/h.</desc>
<speed>0.000000</speed>
</trkpt>
<trkpt lat="55.693634" lon="26.460297">
<ele>139.052856</ele>
<time>2010-07-18T10:20:08Z</time>
<desc>lat.=55.693634, lon.=26.460297, Alt.=139.052856m. Speed=0.036000m/h.</desc>
<speed>0.010000</speed>
</trkpt>
<trkpt lat="55.693634" lon="26.460297">
<ele>139.048950</ele>
<time>2010-07-18T10:20:09Z</time>
<desc>lat.=55.693634, lon.=26.460297, Alt.=139.048950m. Speed=0.036000m/h.</desc>
<speed>0.010000</speed>
</trkpt>
<trkpt lat="55.693634" lon="26.460297">
<ele>139.048950</ele>
<time>2010-07-18T10:20:10Z</time>
<desc>lat.=55.693634, lon.=26.460297, Alt.=139.048950m. Speed=0.000000m/h.</desc>
<speed>0.000000</speed>
</trkpt>
<trkpt lat="55.693634" lon="26.460297">
<ele>139.045044</ele>
<time>2010-07-18T10:20:11Z</time>
<desc>lat.=55.693634, lon.=26.460297, Alt.=139.045044m. Speed=0.000000m/h.</desc>
<speed>0.000000</speed>
</trkpt>
<trkpt lat="55.693634" lon="26.460297">
<ele>139.048950</ele>
<time>2010-07-18T10:20:12Z</time>
<desc>lat.=55.693634, lon.=26.460297, Alt.=139.048950m. Speed=0.000000m/h.</desc>
<speed>0.000000</speed>
</trkpt>
<trkpt lat="55.693634" lon="26.460297">
<ele>139.045044</ele>
<time>2010-07-18T10:20:13Z</time>
<desc>lat.=55.693634, lon.=26.460297, Alt.=139.045044m. Speed=0.000000m/h.</desc>
<speed>0.000000</speed>
</trkpt>
<trkpt lat="55.693634" lon="26.460297">
<ele>139.041138</ele>
<time>2010-07-18T10:20:14Z</time>
<desc>lat.=55.693634, lon.=26.460297, Alt.=139.041138m. Speed=0.000000m/h.</desc>
<speed>0.000000</speed>
</trkpt>
<trkpt lat="55.693634" lon="26.460297">
<ele>139.041138</ele>
<time>2010-07-18T10:20:15Z</time>
<desc>lat.=55.693634, lon.=26.460297, Alt.=139.041138m. Speed=0.072000m/h.</desc>
<speed>0.020000</speed>
</trkpt>
<trkpt lat="55.693634" lon="26.460295">
<ele>139.029419</ele>
<time>2010-07-18T10:20:16Z</time>
<desc>lat.=55.693634, lon.=26.460295, Alt.=139.029419m. Speed=0.108000m/h.</desc>
<speed>0.030000</speed>
</trkpt>
<trkpt lat="55.693634" lon="26.460295">
<ele>139.025513</ele>
<time>2010-07-18T10:20:17Z</time>
<desc>lat.=55.693634, lon.=26.460295, Alt.=139.025513m. Speed=0.000000m/h.</desc>
<speed>0.000000</speed>
</trkpt>
<trkpt lat="55.693634" lon="26.460295">
<ele>139.025513</ele>
<time>2010-07-18T10:20:18Z</time>
<desc>lat.=55.693634, lon.=26.460295, Alt.=139.025513m. Speed=0.000000m/h.</desc>
<speed>0.000000</speed>
</trkpt>
<trkpt lat="55.693634" lon="26.460295">
<ele>139.025513</ele>
<time>2010-07-18T10:20:19Z</time>
<desc>lat.=55.693634, lon.=26.460295, Alt.=139.025513m. Speed=0.000000m/h.</desc>
<speed>0.000000</speed>
</trkpt>
<trkpt lat="55.693634" lon="26.460295">
<ele>139.021606</ele>
<time>2010-07-18T10:20:20Z</time>
<desc>lat.=55.693634, lon.=26.460295, Alt.=139.021606m. Speed=0.036000m/h.</desc>
<speed>0.010000</speed>
</trkpt>
<trkpt lat="55.693634" lon="26.460295">
<ele>139.017700</ele>
<time>2010-07-18T10:20:21Z</time>
<desc>lat.=55.693634, lon.=26.460295, Alt.=139.017700m. Speed=0.000000m/h.</desc>
<speed>0.000000</speed>
</trkpt>
<trkpt lat="55.693634" lon="26.460295">
<ele>139.013794</ele>
<time>2010-07-18T10:20:22Z</time>
<desc>lat.=55.693634, lon.=26.460295, Alt.=139.013794m. Speed=0.036000m/h.</desc>
<speed>0.010000</speed>
</trkpt>
<trkpt lat="55.693634" lon="26.460295">
<ele>139.005981</ele>
<time>2010-07-18T10:20:23Z</time>
<desc>lat.=55.693634, lon.=26.460295, Alt.=139.005981m. Speed=0.000000m/h.</desc>
<speed>0.000000</speed>
</trkpt>
<trkpt lat="55.693630" lon="26.460295">
<ele>139.002075</ele>
<time>2010-07-18T10:20:24Z</time>
<desc>lat.=55.693630, lon.=26.460295, Alt.=139.002075m. Speed=0.036000m/h.</desc>
<speed>0.010000</speed>
</trkpt>
<trkpt lat="55.693630" lon="26.460295">
<ele>138.998169</ele>
<time>2010-07-18T10:20:25Z</time>
<desc>lat.=55.693630, lon.=26.460295, Alt.=138.998169m. Speed=0.072000m/h.</desc>
<speed>0.020000</speed>
</trkpt>
<trkpt lat="55.693630" lon="26.460295">
<ele>138.994263</ele>
<time>2010-07-18T10:20:26Z</time>
<desc>lat.=55.693630, lon.=26.460295, Alt.=138.994263m. Speed=0.000000m/h.</desc>
<speed>0.000000</speed>
</trkpt>
<trkpt lat="55.693630" lon="26.460295">
<ele>138.990356</ele>
<time>2010-07-18T10:20:27Z</time>
<desc>lat.=55.693630, lon.=26.460295, Alt.=138.990356m. Speed=0.000000m/h.</desc>
<speed>0.000000</speed>
</trkpt>
<trkpt lat="55.693630" lon="26.460295">
<ele>138.986450</ele>
<time>2010-07-18T10:20:28Z</time>
<desc>lat.=55.693630, lon.=26.460295, Alt.=138.986450m. Speed=0.036000m/h.</desc>
<speed>0.010000</speed>
</trkpt>
<trkpt lat="55.693630" lon="26.460295">
<ele>138.982544</ele>
<time>2010-07-18T10:20:29Z</time>
<desc>lat.=55.693630, lon.=26.460295, Alt.=138.982544m. Speed=0.000000m/h.</desc>
<speed>0.000000</speed>
</trkpt>
<trkpt lat="55.693630" lon="26.460295">
<ele>138.978638</ele>
<time>2010-07-18T10:20:30Z</time>
<desc>lat.=55.693630, lon.=26.460295, Alt.=138.978638m. Speed=0.000000m/h.</desc>
<speed>0.000000</speed>
</trkpt>
<trkpt lat="55.693630" lon="26.460295">
<ele>138.974731</ele>
<time>2010-07-18T10:20:31Z</time>
<desc>lat.=55.693630, lon.=26.460295, Alt.=138.974731m. Speed=0.036000m/h.</desc>
<speed>0.010000</speed>
</trkpt>
<trkpt lat="55.693630" lon="26.460295">
<ele>138.974731</ele>
<time>2010-07-18T10:20:32Z</time>
<desc>lat.=55.693630, lon.=26.460295, Alt.=138.974731m. Speed=0.036000m/h.</desc>
<speed>0.010000</speed>
</trkpt>
<trkpt lat="55.693630" lon="26.460295">
<ele>138.970825</ele>
<time>2010-07-18T10:20:33Z</time>
<desc>lat.=55.693630, lon.=26.460295, Alt.=138.970825m. Speed=0.000000m/h.</desc>
<speed>0.000000</speed>
</trkpt>
<trkpt lat="55.693630" lon="26.460295">
<ele>138.963013</ele>
<time>2010-07-18T10:20:34Z</time>
<desc>lat.=55.693630, lon.=26.460295, Alt.=138.963013m. Speed=0.000000m/h.</desc>
<speed>0.000000</speed>
</trkpt>
<trkpt lat="55.693630" lon="26.460295">
<ele>138.959106</ele>
<time>2010-07-18T10:20:35Z</time>
<desc>lat.=55.693630, lon.=26.460295, Alt.=138.959106m. Speed=0.036000m/h.</desc>
<speed>0.010000</speed>
</trkpt>
<trkpt lat="55.693630" lon="26.460295">
<ele>138.955200</ele>
<time>2010-07-18T10:20:36Z</time>
<desc>lat.=55.693630, lon.=26.460295, Alt.=138.955200m. Speed=0.000000m/h.</desc>
<speed>0.000000</speed>
</trkpt>
<trkpt lat="55.693630" lon="26.460295">
<ele>138.943481</ele>
<time>2010-07-18T10:20:37Z</time>
<desc>lat.=55.693630, lon.=26.460295, Alt.=138.943481m. Speed=0.072000m/h.</desc>
<speed>0.020000</speed>
</trkpt>
<trkpt lat="55.693630" lon="26.460295">
<ele>138.935669</ele>
<time>2010-07-18T10:20:38Z</time>
<desc>lat.=55.693630, lon.=26.460295, Alt.=138.935669m. Speed=0.036000m/h.</desc>
<speed>0.010000</speed>
</trkpt>
<trkpt lat="55.693630" lon="26.460295">
<ele>138.923950</ele>
<time>2010-07-18T10:20:39Z</time>
<desc>lat.=55.693630, lon.=26.460295, Alt.=138.923950m. Speed=0.036000m/h.</desc>
<speed>0.010000</speed>
</trkpt>
<trkpt lat="55.693630" lon="26.460295">
<ele>138.916138</ele>
<time>2010-07-18T10:20:40Z</time>
<desc>lat.=55.693630, lon.=26.460295, Alt.=138.916138m. Speed=0.000000m/h.</desc>
<speed>0.000000</speed>
</trkpt>
<trkpt lat="55.693630" lon="26.460295">
<ele>138.912231</ele>
<time>2010-07-18T10:20:41Z</time>
<desc>lat.=55.693630, lon.=26.460295, Alt.=138.912231m. Speed=0.036000m/h.</desc>
<speed>0.010000</speed>
</trkpt>
<trkpt lat="55.693630" lon="26.460295">
<ele>138.908325</ele>
<time>2010-07-18T10:20:42Z</time>
<desc>lat.=55.693630, lon.=26.460295, Alt.=138.908325m. Speed=0.036000m/h.</desc>
<speed>0.010000</speed>
</trkpt>
<trkpt lat="55.693630" lon="26.460295">
<ele>138.904419</ele>
<time>2010-07-18T10:20:43Z</time>
<desc>lat.=55.693630, lon.=26.460295, Alt.=138.904419m. Speed=0.000000m/h.</desc>
<speed>0.000000</speed>
</trkpt>
<trkpt lat="55.693630" lon="26.460295">
<ele>138.896606</ele>
<time>2010-07-18T10:20:44Z</time>
<desc>lat.=55.693630, lon.=26.460295, Alt.=138.896606m. Speed=0.000000m/h.</desc>
<speed>0.000000</speed>
</trkpt>
<trkpt lat="55.693630" lon="26.460295">
<ele>138.892700</ele>
<time>2010-07-18T10:20:45Z</time>
<desc>lat.=55.693630, lon.=26.460295, Alt.=138.892700m. Speed=0.000000m/h.</desc>
<speed>0.000000</speed>
</trkpt>
<trkpt lat="55.693630" lon="26.460295">
<ele>138.880981</ele>
<time>2010-07-18T10:20:46Z</time>
<desc>lat.=55.693630, lon.=26.460295, Alt.=138.880981m. Speed=0.000000m/h.</desc>
<speed>0.000000</speed>
</trkpt>
<trkpt lat="55.693630" lon="26.460295">
<ele>138.884888</ele>
<time>2010-07-18T10:20:47Z</time>
<desc>lat.=55.693630, lon.=26.460295, Alt.=138.884888m. Speed=0.000000m/h.</desc>
<speed>0.000000</speed>
</trkpt>
<trkpt lat="55.693630" lon="26.460295">
<ele>138.896606</ele>
<time>2010-07-18T10:20:48Z</time>
<desc>lat.=55.693630, lon.=26.460295, Alt.=138.896606m. Speed=0.108000m/h.</desc>
<speed>0.030000</speed>
</trkpt>
<trkpt lat="55.693630" lon="26.460295">
<ele>138.896606</ele>
<time>2010-07-18T10:20:49Z</time>
<desc>lat.=55.693630, lon.=26.460295, Alt.=138.896606m. Speed=0.036000m/h.</desc>
<speed>0.010000</speed>
</trkpt>
<trkpt lat="55.693630" lon="26.460295">
<ele>138.900513</ele>
<time>2010-07-18T10:20:50Z</time>
<desc>lat.=55.693630, lon.=26.460295, Alt.=138.900513m. Speed=0.000000m/h.</desc>
<speed>0.000000</speed>
</trkpt>
<trkpt lat="55.693630" lon="26.460295">
<ele>138.912231</ele>
<time>2010-07-18T10:20:51Z</time>
<desc>lat.=55.693630, lon.=26.460295, Alt.=138.912231m. Speed=0.180000m/h.</desc>
<speed>0.050000</speed>
</trkpt>
<trkpt lat="55.693630" lon="26.460295">
<ele>138.920044</ele>
<time>2010-07-18T10:20:52Z</time>
<desc>lat.=55.693630, lon.=26.460295, Alt.=138.920044m. Speed=0.072000m/h.</desc>
<speed>0.020000</speed>
</trkpt>
<trkpt lat="55.693630" lon="26.460295">
<ele>138.927856</ele>
<time>2010-07-18T10:20:53Z</time>
<desc>lat.=55.693630, lon.=26.460295, Alt.=138.927856m. Speed=0.036000m/h.</desc>
<speed>0.010000</speed>
</trkpt>
<trkpt lat="55.693630" lon="26.460295">
<ele>138.931763</ele>
<time>2010-07-18T10:20:54Z</time>
<desc>lat.=55.693630, lon.=26.460295, Alt.=138.931763m. Speed=0.108000m/h.</desc>
<speed>0.030000</speed>
</trkpt>
<trkpt lat="55.693630" lon="26.460295">
<ele>138.943481</ele>
<time>2010-07-18T10:20:55Z</time>
<desc>lat.=55.693630, lon.=26.460295, Alt.=138.943481m. Speed=0.108000m/h.</desc>
<speed>0.030000</speed>
</trkpt>
<trkpt lat="55.693634" lon="26.460295">
<ele>138.951294</ele>
<time>2010-07-18T10:20:56Z</time>
<desc>lat.=55.693634, lon.=26.460295, Alt.=138.951294m. Speed=0.072000m/h.</desc>
<speed>0.020000</speed>
</trkpt>
<trkpt lat="55.693634" lon="26.460295">
<ele>138.959106</ele>
<time>2010-07-18T10:20:57Z</time>
<desc>lat.=55.693634, lon.=26.460295, Alt.=138.959106m. Speed=0.036000m/h.</desc>
<speed>0.010000</speed>
</trkpt>
<trkpt lat="55.693634" lon="26.460295">
<ele>138.970825</ele>
<time>2010-07-18T10:20:58Z</time>
<desc>lat.=55.693634, lon.=26.460295, Alt.=138.970825m. Speed=0.108000m/h.</desc>
<speed>0.030000</speed>
</trkpt>
<trkpt lat="55.693634" lon="26.460295">
<ele>138.978638</ele>
<time>2010-07-18T10:20:59Z</time>
<desc>lat.=55.693634, lon.=26.460295, Alt.=138.978638m. Speed=0.036000m/h.</desc>
<speed>0.010000</speed>
</trkpt>
<trkpt lat="55.693634" lon="26.460295">
<ele>138.986450</ele>
<time>2010-07-18T10:21:00Z</time>
<desc>lat.=55.693634, lon.=26.460295, Alt.=138.986450m. Speed=0.108000m/h.</desc>
<speed>0.030000</speed>
</trkpt>
<trkpt lat="55.693634" lon="26.460295">
<ele>138.990356</ele>
<time>2010-07-18T10:21:01Z</time>
<desc>lat.=55.693634, lon.=26.460295, Alt.=138.990356m. Speed=0.072000m/h.</desc>
<speed>0.020000</speed>
</trkpt>
<trkpt lat="55.693634" lon="26.460295">
<ele>138.994263</ele>
<time>2010-07-18T10:21:02Z</time>
<desc>lat.=55.693634, lon.=26.460295, Alt.=138.994263m. Speed=0.000000m/h.</desc>
<speed>0.000000</speed>
</trkpt>
<trkpt lat="55.693634" lon="26.460295">
<ele>138.998169</ele>
<time>2010-07-18T10:21:03Z</time>
<desc>lat.=55.693634, lon.=26.460295, Alt.=138.998169m. Speed=0.000000m/h.</desc>
<speed>0.000000</speed>
</trkpt>
<trkpt lat="55.693634" lon="26.460295">
<ele>139.002075</ele>
<time>2010-07-18T10:21:04Z</time>
<desc>lat.=55.693634, lon.=26.460295, Alt.=139.002075m. Speed=0.000000m/h.</desc>
<speed>0.000000</speed>
</trkpt>
<trkpt lat="55.693634" lon="26.460295">
<ele>139.005981</ele>
<time>2010-07-18T10:21:05Z</time>
<desc>lat.=55.693634, lon.=26.460295, Alt.=139.005981m. Speed=0.000000m/h.</desc>
<speed>0.000000</speed>
</trkpt>
<trkpt lat="55.693634" lon="26.460295">
<ele>139.009888</ele>
<time>2010-07-18T10:21:06Z</time>
<desc>lat.=55.693634, lon.=26.460295, Alt.=139.009888m. Speed=0.036000m/h.</desc>
<speed>0.010000</speed>
</trkpt>
<trkpt lat="55.693634" lon="26.460295">
<ele>139.009888</ele>
<time>2010-07-18T10:21:07Z</time>
<desc>lat.=55.693634, lon.=26.460295, Alt.=139.009888m. Speed=0.108000m/h.</desc>
<speed>0.030000</speed>
</trkpt>
<trkpt lat="55.693634" lon="26.460295">
<ele>138.978638</ele>
<time>2010-07-18T10:21:08Z</time>
<desc>lat.=55.693634, lon.=26.460295, Alt.=138.978638m. Speed=0.324000m/h.</desc>
<speed>0.090000</speed>
</trkpt>
<trkpt lat="55.693634" lon="26.460295">
<ele>138.959106</ele>
<time>2010-07-18T10:21:09Z</time>
<desc>lat.=55.693634, lon.=26.460295, Alt.=138.959106m. Speed=0.216000m/h.</desc>
<speed>0.060000</speed>
</trkpt>
<trkpt lat="55.693634" lon="26.460295">
<ele>138.947388</ele>
<time>2010-07-18T10:21:10Z</time>
<desc>lat.=55.693634, lon.=26.460295, Alt.=138.947388m. Speed=0.108000m/h.</desc>
<speed>0.030000</speed>
</trkpt>
<trkpt lat="55.693630" lon="26.460295">
<ele>138.939575</ele>
<time>2010-07-18T10:21:11Z</time>
<desc>lat.=55.693630, lon.=26.460295, Alt.=138.939575m. Speed=0.036000m/h.</desc>
<speed>0.010000</speed>
</trkpt>
<trkpt lat="55.693630" lon="26.460295">
<ele>138.923950</ele>
<time>2010-07-18T10:21:12Z</time>
<desc>lat.=55.693630, lon.=26.460295, Alt.=138.923950m. Speed=0.144000m/h.</desc>
<speed>0.040000</speed>
</trkpt>
<trkpt lat="55.693630" lon="26.460295">
<ele>138.912231</ele>
<time>2010-07-18T10:21:13Z</time>
<desc>lat.=55.693630, lon.=26.460295, Alt.=138.912231m. Speed=0.144000m/h.</desc>
<speed>0.040000</speed>
</trkpt>
<trkpt lat="55.693630" lon="26.460295">
<ele>138.908325</ele>
<time>2010-07-18T10:21:14Z</time>
<desc>lat.=55.693630, lon.=26.460295, Alt.=138.908325m. Speed=0.072000m/h.</desc>
<speed>0.020000</speed>
</trkpt>
<trkpt lat="55.693630" lon="26.460295">
<ele>138.904419</ele>
<time>2010-07-18T10:21:15Z</time>
<desc>lat.=55.693630, lon.=26.460295, Alt.=138.904419m. Speed=0.036000m/h.</desc>
<speed>0.010000</speed>
</trkpt>
<trkpt lat="55.693630" lon="26.460295">
<ele>138.900513</ele>
<time>2010-07-18T10:21:16Z</time>
<desc>lat.=55.693630, lon.=26.460295, Alt.=138.900513m. Speed=0.000000m/h.</desc>
<speed>0.000000</speed>
</trkpt>
<trkpt lat="55.693630" lon="26.460293">
<ele>138.892700</ele>
<time>2010-07-18T10:21:17Z</time>
<desc>lat.=55.693630, lon.=26.460293, Alt.=138.892700m. Speed=0.108000m/h.</desc>
<speed>0.030000</speed>
</trkpt>
<trkpt lat="55.693630" lon="26.460293">
<ele>138.888794</ele>
<time>2010-07-18T10:21:18Z</time>
<desc>lat.=55.693630, lon.=26.460293, Alt.=138.888794m. Speed=0.072000m/h.</desc>
<speed>0.020000</speed>
</trkpt>
<trkpt lat="55.693630" lon="26.460293">
<ele>138.888794</ele>
<time>2010-07-18T10:21:19Z</time>
<desc>lat.=55.693630, lon.=26.460293, Alt.=138.888794m. Speed=0.036000m/h.</desc>
<speed>0.010000</speed>
</trkpt>
<trkpt lat="55.693630" lon="26.460293">
<ele>138.888794</ele>
<time>2010-07-18T10:21:20Z</time>
<desc>lat.=55.693630, lon.=26.460293, Alt.=138.888794m. Speed=0.000000m/h.</desc>
<speed>0.000000</speed>
</trkpt>
<trkpt lat="55.693630" lon="26.460293">
<ele>138.888794</ele>
<time>2010-07-18T10:21:21Z</time>
<desc>lat.=55.693630, lon.=26.460293, Alt.=138.888794m. Speed=0.000000m/h.</desc>
<speed>0.000000</speed>
</trkpt>
<trkpt lat="55.693630" lon="26.460293">
<ele>138.888794</ele>
<time>2010-07-18T10:21:22Z</time>
<desc>lat.=55.693630, lon.=26.460293, Alt.=138.888794m. Speed=0.036000m/h.</desc>
<speed>0.010000</speed>
</trkpt>
<trkpt lat="55.693630" lon="26.460293">
<ele>138.884888</ele>
<time>2010-07-18T10:21:23Z</time>
<desc>lat.=55.693630, lon.=26.460293, Alt.=138.884888m. Speed=0.036000m/h.</desc>
<speed>0.010000</speed>
</trkpt>
<trkpt lat="55.693630" lon="26.460293">
<ele>138.880981</ele>
<time>2010-07-18T10:21:24Z</time>
<desc>lat.=55.693630, lon.=26.460293, Alt.=138.880981m. Speed=0.072000m/h.</desc>
<speed>0.020000</speed>
</trkpt>
<trkpt lat="55.693630" lon="26.460293">
<ele>138.877075</ele>
<time>2010-07-18T10:21:25Z</time>
<desc>lat.=55.693630, lon.=26.460293, Alt.=138.877075m. Speed=0.072000m/h.</desc>
<speed>0.020000</speed>
</trkpt>
<trkpt lat="55.693630" lon="26.460293">
<ele>138.877075</ele>
<time>2010-07-18T10:21:26Z</time>
<desc>lat.=55.693630, lon.=26.460293, Alt.=138.877075m. Speed=0.036000m/h.</desc>
<speed>0.010000</speed>
</trkpt>
<trkpt lat="55.693630" lon="26.460293">
<ele>138.873169</ele>
<time>2010-07-18T10:21:27Z</time>
<desc>lat.=55.693630, lon.=26.460293, Alt.=138.873169m. Speed=0.036000m/h.</desc>
<speed>0.010000</speed>
</trkpt>
<trkpt lat="55.693630" lon="26.460293">
<ele>138.873169</ele>
<time>2010-07-18T10:21:28Z</time>
<desc>lat.=55.693630, lon.=26.460293, Alt.=138.873169m. Speed=0.144000m/h.</desc>
<speed>0.040000</speed>
</trkpt>
<trkpt lat="55.693630" lon="26.460293">
<ele>138.865356</ele>
<time>2010-07-18T10:21:29Z</time>
<desc>lat.=55.693630, lon.=26.460293, Alt.=138.865356m. Speed=0.180000m/h.</desc>
<speed>0.050000</speed>
</trkpt>
<trkpt lat="55.693630" lon="26.460293">
<ele>138.861450</ele>
<time>2010-07-18T10:21:30Z</time>
<desc>lat.=55.693630, lon.=26.460293, Alt.=138.861450m. Speed=0.180000m/h.</desc>
<speed>0.050000</speed>
</trkpt>
<trkpt lat="55.693630" lon="26.460293">
<ele>138.861450</ele>
<time>2010-07-18T10:21:31Z</time>
<desc>lat.=55.693630, lon.=26.460293, Alt.=138.861450m. Speed=0.108000m/h.</desc>
<speed>0.030000</speed>
</trkpt>
<trkpt lat="55.693630" lon="26.460293">
<ele>138.861450</ele>
<time>2010-07-18T10:21:32Z</time>
<desc>lat.=55.693630, lon.=26.460293, Alt.=138.861450m. Speed=0.108000m/h.</desc>
<speed>0.030000</speed>
</trkpt>
<trkpt lat="55.693630" lon="26.460293">
<ele>138.857544</ele>
<time>2010-07-18T10:21:33Z</time>
<desc>lat.=55.693630, lon.=26.460293, Alt.=138.857544m. Speed=0.000000m/h.</desc>
<speed>0.000000</speed>
</trkpt>
<trkpt lat="55.693630" lon="26.460293">
<ele>138.857544</ele>
<time>2010-07-18T10:21:34Z</time>
<desc>lat.=55.693630, lon.=26.460293, Alt.=138.857544m. Speed=0.036000m/h.</desc>
<speed>0.010000</speed>
</trkpt>
<trkpt lat="55.693630" lon="26.460293">
<ele>138.853638</ele>
<time>2010-07-18T10:21:35Z</time>
<desc>lat.=55.693630, lon.=26.460293, Alt.=138.853638m. Speed=0.072000m/h.</desc>
<speed>0.020000</speed>
</trkpt>
<trkpt lat="55.693630" lon="26.460293">
<ele>138.853638</ele>
<time>2010-07-18T10:21:36Z</time>
<desc>lat.=55.693630, lon.=26.460293, Alt.=138.853638m. Speed=0.036000m/h.</desc>
<speed>0.010000</speed>
</trkpt>
<trkpt lat="55.693630" lon="26.460293">
<ele>138.849731</ele>
<time>2010-07-18T10:21:37Z</time>
<desc>lat.=55.693630, lon.=26.460293, Alt.=138.849731m. Speed=0.072000m/h.</desc>
<speed>0.020000</speed>
</trkpt>
<trkpt lat="55.693630" lon="26.460293">
<ele>138.849731</ele>
<time>2010-07-18T10:21:38Z</time>
<desc>lat.=55.693630, lon.=26.460293, Alt.=138.849731m. Speed=0.036000m/h.</desc>
<speed>0.010000</speed>
</trkpt>
<trkpt lat="55.693630" lon="26.460293">
<ele>138.849731</ele>
<time>2010-07-18T10:21:39Z</time>
<desc>lat.=55.693630, lon.=26.460293, Alt.=138.849731m. Speed=0.000000m/h.</desc>
<speed>0.000000</speed>
</trkpt>
<trkpt lat="55.693630" lon="26.460293">
<ele>138.849731</ele>
<time>2010-07-18T10:21:40Z</time>
<desc>lat.=55.693630, lon.=26.460293, Alt.=138.849731m. Speed=0.036000m/h.</desc>
<speed>0.010000</speed>
</trkpt>
<trkpt lat="55.693630" lon="26.460293">
<ele>138.845825</ele>
<time>2010-07-18T10:21:41Z</time>
<desc>lat.=55.693630, lon.=26.460293, Alt.=138.845825m. Speed=0.000000m/h.</desc>
<speed>0.000000</speed>
</trkpt>
<trkpt lat="55.693630" lon="26.460293">
<ele>138.845825</ele>
<time>2010-07-18T10:21:42Z</time>
<desc>lat.=55.693630, lon.=26.460293, Alt.=138.845825m. Speed=0.036000m/h.</desc>
<speed>0.010000</speed>
</trkpt>
<trkpt lat="55.693630" lon="26.460293">
<ele>138.845825</ele>
<time>2010-07-18T10:21:43Z</time>
<desc>lat.=55.693630, lon.=26.460293, Alt.=138.845825m. Speed=0.036000m/h.</desc>
<speed>0.010000</speed>
</trkpt>
<trkpt lat="55.693630" lon="26.460293">
<ele>138.845825</ele>
<time>2010-07-18T10:21:44Z</time>
<desc>lat.=55.693630, lon.=26.460293, Alt.=138.845825m. Speed=0.036000m/h.</desc>
<speed>0.010000</speed>
</trkpt>
<trkpt lat="55.693630" lon="26.460293">
<ele>138.845825</ele>
<time>2010-07-18T10:21:45Z</time>
<desc>lat.=55.693630, lon.=26.460293, Alt.=138.845825m. Speed=0.000000m/h.</desc>
<speed>0.000000</speed>
</trkpt>
<trkpt lat="55.693630" lon="26.460293">
<ele>138.841919</ele>
<time>2010-07-18T10:21:46Z</time>
<desc>lat.=55.693630, lon.=26.460293, Alt.=138.841919m. Speed=0.108000m/h.</desc>
<speed>0.030000</speed>
</trkpt>
<trkpt lat="55.693630" lon="26.460293">
<ele>138.838013</ele>
<time>2010-07-18T10:21:47Z</time>
<desc>lat.=55.693630, lon.=26.460293, Alt.=138.838013m. Speed=0.000000m/h.</desc>
<speed>0.000000</speed>
</trkpt>
<trkpt lat="55.693630" lon="26.460291">
<ele>138.838013</ele>
<time>2010-07-18T10:21:48Z</time>
<desc>lat.=55.693630, lon.=26.460291, Alt.=138.838013m. Speed=0.072000m/h.</desc>
<speed>0.020000</speed>
</trkpt>
<trkpt lat="55.693630" lon="26.460291">
<ele>138.838013</ele>
<time>2010-07-18T10:21:49Z</time>
<desc>lat.=55.693630, lon.=26.460291, Alt.=138.838013m. Speed=0.036000m/h.</desc>
<speed>0.010000</speed>
</trkpt>
<trkpt lat="55.693630" lon="26.460291">
<ele>138.838013</ele>
<time>2010-07-18T10:21:50Z</time>
<desc>lat.=55.693630, lon.=26.460291, Alt.=138.838013m. Speed=0.036000m/h.</desc>
<speed>0.010000</speed>
</trkpt>
<trkpt lat="55.693630" lon="26.460291">
<ele>138.838013</ele>
<time>2010-07-18T10:21:51Z</time>
<desc>lat.=55.693630, lon.=26.460291, Alt.=138.838013m. Speed=0.000000m/h.</desc>
<speed>0.000000</speed>
</trkpt>
<trkpt lat="55.693630" lon="26.460291">
<ele>138.834106</ele>
<time>2010-07-18T10:21:52Z</time>
<desc>lat.=55.693630, lon.=26.460291, Alt.=138.834106m. Speed=0.036000m/h.</desc>
<speed>0.010000</speed>
</trkpt>
<trkpt lat="55.693630" lon="26.460291">
<ele>138.830200</ele>
<time>2010-07-18T10:21:53Z</time>
<desc>lat.=55.693630, lon.=26.460291, Alt.=138.830200m. Speed=0.072000m/h.</desc>
<speed>0.020000</speed>
</trkpt>
<trkpt lat="55.693630" lon="26.460291">
<ele>138.830200</ele>
<time>2010-07-18T10:21:54Z</time>
<desc>lat.=55.693630, lon.=26.460291, Alt.=138.830200m. Speed=0.144000m/h.</desc>
<speed>0.040000</speed>
</trkpt>
<trkpt lat="55.693626" lon="26.460291">
<ele>138.826294</ele>
<time>2010-07-18T10:21:55Z</time>
<desc>lat.=55.693626, lon.=26.460291, Alt.=138.826294m. Speed=0.144000m/h.</desc>
<speed>0.040000</speed>
</trkpt>
<trkpt lat="55.693626" lon="26.460291">
<ele>138.826294</ele>
<time>2010-07-18T10:21:56Z</time>
<desc>lat.=55.693626, lon.=26.460291, Alt.=138.826294m. Speed=0.072000m/h.</desc>
<speed>0.020000</speed>
</trkpt>
<trkpt lat="55.693626" lon="26.460291">
<ele>138.826294</ele>
<time>2010-07-18T10:21:57Z</time>
<desc>lat.=55.693626, lon.=26.460291, Alt.=138.826294m. Speed=0.108000m/h.</desc>
<speed>0.030000</speed>
</trkpt>
<trkpt lat="55.693626" lon="26.460291">
<ele>138.826294</ele>
<time>2010-07-18T10:21:58Z</time>
<desc>lat.=55.693626, lon.=26.460291, Alt.=138.826294m. Speed=0.036000m/h.</desc>
<speed>0.010000</speed>
</trkpt>
<trkpt lat="55.693626" lon="26.460291">
<ele>138.826294</ele>
<time>2010-07-18T10:21:59Z</time>
<desc>lat.=55.693626, lon.=26.460291, Alt.=138.826294m. Speed=0.108000m/h.</desc>
<speed>0.030000</speed>
</trkpt>
<trkpt lat="55.693626" lon="26.460291">
<ele>138.822388</ele>
<time>2010-07-18T10:22:00Z</time>
<desc>lat.=55.693626, lon.=26.460291, Alt.=138.822388m. Speed=0.144000m/h.</desc>
<speed>0.040000</speed>
</trkpt>
<trkpt lat="55.693626" lon="26.460291">
<ele>138.822388</ele>
<time>2010-07-18T10:22:01Z</time>
<desc>lat.=55.693626, lon.=26.460291, Alt.=138.822388m. Speed=0.144000m/h.</desc>
<speed>0.040000</speed>
</trkpt>
<trkpt lat="55.693626" lon="26.460291">
<ele>138.826294</ele>
<time>2010-07-18T10:22:02Z</time>
<desc>lat.=55.693626, lon.=26.460291, Alt.=138.826294m. Speed=0.144000m/h.</desc>
<speed>0.040000</speed>
</trkpt>
<trkpt lat="55.693626" lon="26.460291">
<ele>138.826294</ele>
<time>2010-07-18T10:22:03Z</time>
<desc>lat.=55.693626, lon.=26.460291, Alt.=138.826294m. Speed=0.108000m/h.</desc>
<speed>0.030000</speed>
</trkpt>
<trkpt lat="55.693626" lon="26.460291">
<ele>138.826294</ele>
<time>2010-07-18T10:22:04Z</time>
<desc>lat.=55.693626, lon.=26.460291, Alt.=138.826294m. Speed=0.108000m/h.</desc>
<speed>0.030000</speed>
</trkpt>
<trkpt lat="55.693626" lon="26.460291">
<ele>138.826294</ele>
<time>2010-07-18T10:22:05Z</time>
<desc>lat.=55.693626, lon.=26.460291, Alt.=138.826294m. Speed=0.144000m/h.</desc>
<speed>0.040000</speed>
</trkpt>
<trkpt lat="55.693626" lon="26.460289">
<ele>138.822388</ele>
<time>2010-07-18T10:22:06Z</time>
<desc>lat.=55.693626, lon.=26.460289, Alt.=138.822388m. Speed=0.324000m/h.</desc>
<speed>0.090000</speed>
</trkpt>
<trkpt lat="55.693626" lon="26.460289">
<ele>138.818481</ele>
<time>2010-07-18T10:22:07Z</time>
<desc>lat.=55.693626, lon.=26.460289, Alt.=138.818481m. Speed=0.108000m/h.</desc>
<speed>0.030000</speed>
</trkpt>
<trkpt lat="55.693626" lon="26.460289">
<ele>138.814575</ele>
<time>2010-07-18T10:22:08Z</time>
<desc>lat.=55.693626, lon.=26.460289, Alt.=138.814575m. Speed=0.000000m/h.</desc>
<speed>0.000000</speed>
</trkpt>
<trkpt lat="55.693626" lon="26.460289">
<ele>138.814575</ele>
<time>2010-07-18T10:22:09Z</time>
<desc>lat.=55.693626, lon.=26.460289, Alt.=138.814575m. Speed=0.036000m/h.</desc>
<speed>0.010000</speed>
</trkpt>
<trkpt lat="55.693626" lon="26.460289">
<ele>138.814575</ele>
<time>2010-07-18T10:22:10Z</time>
<desc>lat.=55.693626, lon.=26.460289, Alt.=138.814575m. Speed=0.036000m/h.</desc>
<speed>0.010000</speed>
</trkpt>
<trkpt lat="55.693626" lon="26.460289">
<ele>138.814575</ele>
<time>2010-07-18T10:22:11Z</time>
<desc>lat.=55.693626, lon.=26.460289, Alt.=138.814575m. Speed=0.036000m/h.</desc>
<speed>0.010000</speed>
</trkpt>
<trkpt lat="55.693626" lon="26.460289">
<ele>138.810669</ele>
<time>2010-07-18T10:22:12Z</time>
<desc>lat.=55.693626, lon.=26.460289, Alt.=138.810669m. Speed=0.108000m/h.</desc>
<speed>0.030000</speed>
</trkpt>
<trkpt lat="55.693626" lon="26.460289">
<ele>138.810669</ele>
<time>2010-07-18T10:22:13Z</time>
<desc>lat.=55.693626, lon.=26.460289, Alt.=138.810669m. Speed=0.108000m/h.</desc>
<speed>0.030000</speed>
</trkpt>
<trkpt lat="55.693626" lon="26.460289">
<ele>138.814575</ele>
<time>2010-07-18T10:22:14Z</time>
<desc>lat.=55.693626, lon.=26.460289, Alt.=138.814575m. Speed=0.180000m/h.</desc>
<speed>0.050000</speed>
</trkpt>
<trkpt lat="55.693626" lon="26.460289">
<ele>138.810669</ele>
<time>2010-07-18T10:22:15Z</time>
<desc>lat.=55.693626, lon.=26.460289, Alt.=138.810669m. Speed=0.072000m/h.</desc>
<speed>0.020000</speed>
</trkpt>
<trkpt lat="55.693626" lon="26.460289">
<ele>138.810669</ele>
<time>2010-07-18T10:22:16Z</time>
<desc>lat.=55.693626, lon.=26.460289, Alt.=138.810669m. Speed=0.108000m/h.</desc>
<speed>0.030000</speed>
</trkpt>
<trkpt lat="55.693626" lon="26.460289">
<ele>138.810669</ele>
<time>2010-07-18T10:22:17Z</time>
<desc>lat.=55.693626, lon.=26.460289, Alt.=138.810669m. Speed=0.072000m/h.</desc>
<speed>0.020000</speed>
</trkpt>
<trkpt lat="55.693626" lon="26.460289">
<ele>138.806763</ele>
<time>2010-07-18T10:22:18Z</time>
<desc>lat.=55.693626, lon.=26.460289, Alt.=138.806763m. Speed=0.036000m/h.</desc>
<speed>0.010000</speed>
</trkpt>
<trkpt lat="55.693623" lon="26.460289">
<ele>138.806763</ele>
<time>2010-07-18T10:22:19Z</time>
<desc>lat.=55.693623, lon.=26.460289, Alt.=138.806763m. Speed=0.036000m/h.</desc>
<speed>0.010000</speed>
</trkpt>
<trkpt lat="55.693623" lon="26.460289">
<ele>138.802856</ele>
<time>2010-07-18T10:22:20Z</time>
<desc>lat.=55.693623, lon.=26.460289, Alt.=138.802856m. Speed=0.072000m/h.</desc>
<speed>0.020000</speed>
</trkpt>
<trkpt lat="55.693623" lon="26.460289">
<ele>138.802856</ele>
<time>2010-07-18T10:22:21Z</time>
<desc>lat.=55.693623, lon.=26.460289, Alt.=138.802856m. Speed=0.252000m/h.</desc>
<speed>0.070000</speed>
</trkpt>
<trkpt lat="55.693623" lon="26.460289">
<ele>138.802856</ele>
<time>2010-07-18T10:22:22Z</time>
<desc>lat.=55.693623, lon.=26.460289, Alt.=138.802856m. Speed=0.504000m/h.</desc>
<speed>0.140000</speed>
</trkpt>
<trkpt lat="55.693623" lon="26.460289">
<ele>138.802856</ele>
<time>2010-07-18T10:22:23Z</time>
<desc>lat.=55.693623, lon.=26.460289, Alt.=138.802856m. Speed=0.036000m/h.</desc>
<speed>0.010000</speed>
</trkpt>
<trkpt lat="55.693623" lon="26.460289">
<ele>138.806763</ele>
<time>2010-07-18T10:22:24Z</time>
<desc>lat.=55.693623, lon.=26.460289, Alt.=138.806763m. Speed=0.000000m/h.</desc>
<speed>0.000000</speed>
</trkpt>
<trkpt lat="55.693623" lon="26.460289">
<ele>138.806763</ele>
<time>2010-07-18T10:22:25Z</time>
<desc>lat.=55.693623, lon.=26.460289, Alt.=138.806763m. Speed=0.036000m/h.</desc>
<speed>0.010000</speed>
</trkpt>
<trkpt lat="55.693623" lon="26.460289">
<ele>138.795044</ele>
<time>2010-07-18T10:22:26Z</time>
<desc>lat.=55.693623, lon.=26.460289, Alt.=138.795044m. Speed=0.108000m/h.</desc>
<speed>0.030000</speed>
</trkpt>
<trkpt lat="55.693623" lon="26.460289">
<ele>138.791138</ele>
<time>2010-07-18T10:22:27Z</time>
<desc>lat.=55.693623, lon.=26.460289, Alt.=138.791138m. Speed=0.072000m/h.</desc>
<speed>0.020000</speed>
</trkpt>
<trkpt lat="55.693623" lon="26.460289">
<ele>138.791138</ele>
<time>2010-07-18T10:22:28Z</time>
<desc>lat.=55.693623, lon.=26.460289, Alt.=138.791138m. Speed=0.000000m/h.</desc>
<speed>0.000000</speed>
</trkpt>
<trkpt lat="55.693623" lon="26.460289">
<ele>138.791138</ele>
<time>2010-07-18T10:22:29Z</time>
<desc>lat.=55.693623, lon.=26.460289, Alt.=138.791138m. Speed=0.036000m/h.</desc>
<speed>0.010000</speed>
</trkpt>
<trkpt lat="55.693623" lon="26.460289">
<ele>138.791138</ele>
<time>2010-07-18T10:22:30Z</time>
<desc>lat.=55.693623, lon.=26.460289, Alt.=138.791138m. Speed=0.000000m/h.</desc>
<speed>0.000000</speed>
</trkpt>
<trkpt lat="55.693623" lon="26.460289">
<ele>138.787231</ele>
<time>2010-07-18T10:22:31Z</time>
<desc>lat.=55.693623, lon.=26.460289, Alt.=138.787231m. Speed=0.216000m/h.</desc>
<speed>0.060000</speed>
</trkpt>
<trkpt lat="55.693623" lon="26.460289">
<ele>138.787231</ele>
<time>2010-07-18T10:22:32Z</time>
<desc>lat.=55.693623, lon.=26.460289, Alt.=138.787231m. Speed=0.648000m/h.</desc>
<speed>0.180000</speed>
</trkpt>
<trkpt lat="55.693623" lon="26.460289">
<ele>138.783325</ele>
<time>2010-07-18T10:22:33Z</time>
<desc>lat.=55.693623, lon.=26.460289, Alt.=138.783325m. Speed=0.252000m/h.</desc>
<speed>0.070000</speed>
</trkpt>
<trkpt lat="55.693623" lon="26.460289">
<ele>138.779419</ele>
<time>2010-07-18T10:22:34Z</time>
<desc>lat.=55.693623, lon.=26.460289, Alt.=138.779419m. Speed=0.396000m/h.</desc>
<speed>0.110000</speed>
</trkpt>
<trkpt lat="55.693623" lon="26.460289">
<ele>138.779419</ele>
<time>2010-07-18T10:22:35Z</time>
<desc>lat.=55.693623, lon.=26.460289, Alt.=138.779419m. Speed=0.468000m/h.</desc>
<speed>0.130000</speed>
</trkpt>
<trkpt lat="55.693623" lon="26.460291">
<ele>138.775513</ele>
<time>2010-07-18T10:22:36Z</time>
<desc>lat.=55.693623, lon.=26.460291, Alt.=138.775513m. Speed=0.792000m/h.</desc>
<speed>0.220000</speed>
</trkpt>
<trkpt lat="55.693619" lon="26.460293">
<ele>138.771606</ele>
<time>2010-07-18T10:22:37Z</time>
<desc>lat.=55.693619, lon.=26.460293, Alt.=138.771606m. Speed=1.260000m/h.</desc>
<speed>0.350000</speed>
</trkpt>
<trkpt lat="55.693607" lon="26.460325">
<ele>139.111450</ele>
<time>2010-07-18T10:22:38Z</time>
<desc>lat.=55.693607, lon.=26.460325, Alt.=139.111450m. Speed=1.800000m/h.</desc>
<speed>0.500000</speed>
</trkpt>
<trkpt lat="55.693604" lon="26.460346">
<ele>139.060669</ele>
<time>2010-07-18T10:22:39Z</time>
<desc>lat.=55.693604, lon.=26.460346, Alt.=139.060669m. Speed=5.148000m/h.</desc>
<speed>1.430000</speed>
</trkpt>
<trkpt lat="55.693611" lon="26.460381">
<ele>138.884888</ele>
<time>2010-07-18T10:22:40Z</time>
<desc>lat.=55.693611, lon.=26.460381, Alt.=138.884888m. Speed=7.308000m/h.</desc>
<speed>2.030000</speed>
</trkpt>
<trkpt lat="55.693623" lon="26.460405">
<ele>138.716919</ele>
<time>2010-07-18T10:22:41Z</time>
<desc>lat.=55.693623, lon.=26.460405, Alt.=138.716919m. Speed=7.164000m/h.</desc>
<speed>1.990000</speed>
</trkpt>
<trkpt lat="55.693638" lon="26.460432">
<ele>138.728638</ele>
<time>2010-07-18T10:22:42Z</time>
<desc>lat.=55.693638, lon.=26.460432, Alt.=138.728638m. Speed=8.352000m/h.</desc>
<speed>2.320000</speed>
</trkpt>
<trkpt lat="55.693657" lon="26.460474">
<ele>138.865356</ele>
<time>2010-07-18T10:22:43Z</time>
<desc>lat.=55.693657, lon.=26.460474, Alt.=138.865356m. Speed=9.792000m/h.</desc>
<speed>2.720000</speed>
</trkpt>
<trkpt lat="55.693680" lon="26.460520">
<ele>139.138794</ele>
<time>2010-07-18T10:22:44Z</time>
<desc>lat.=55.693680, lon.=26.460520, Alt.=139.138794m. Speed=10.440000m/h.</desc>
<speed>2.900000</speed>
</trkpt>
<trkpt lat="55.693695" lon="26.460560">
<ele>139.271606</ele>
<time>2010-07-18T10:22:45Z</time>
<desc>lat.=55.693695, lon.=26.460560, Alt.=139.271606m. Speed=11.844000m/h.</desc>
<speed>3.290000</speed>
</trkpt>
<trkpt lat="55.693714" lon="26.460600">
<ele>139.267700</ele>
<time>2010-07-18T10:22:46Z</time>
<desc>lat.=55.693714, lon.=26.460600, Alt.=139.267700m. Speed=12.672000m/h.</desc>
<speed>3.520000</speed>
</trkpt>
<trkpt lat="55.693741" lon="26.460638">
<ele>138.877075</ele>
<time>2010-07-18T10:22:47Z</time>
<desc>lat.=55.693741, lon.=26.460638, Alt.=138.877075m. Speed=12.348000m/h.</desc>
<speed>3.430000</speed>
</trkpt>
<trkpt lat="55.693764" lon="26.460669">
<ele>138.404419</ele>
<time>2010-07-18T10:22:48Z</time>
<desc>lat.=55.693764, lon.=26.460669, Alt.=138.404419m. Speed=12.168000m/h.</desc>
<speed>3.380000</speed>
</trkpt>
<trkpt lat="55.693783" lon="26.460714">
<ele>137.154419</ele>
<time>2010-07-18T10:22:49Z</time>
<desc>lat.=55.693783, lon.=26.460714, Alt.=137.154419m. Speed=14.148000m/h.</desc>
<speed>3.930000</speed>
</trkpt>
<trkpt lat="55.693806" lon="26.460762">
<ele>136.841919</ele>
<time>2010-07-18T10:22:50Z</time>
<desc>lat.=55.693806, lon.=26.460762, Alt.=136.841919m. Speed=13.212000m/h.</desc>
<speed>3.670000</speed>
</trkpt>
<trkpt lat="55.693829" lon="26.460798">
<ele>136.435669</ele>
<time>2010-07-18T10:22:51Z</time>
<desc>lat.=55.693829, lon.=26.460798, Alt.=136.435669m. Speed=13.392000m/h.</desc>
<speed>3.720000</speed>
</trkpt>
<trkpt lat="55.693848" lon="26.460842">
<ele>136.177856</ele>
<time>2010-07-18T10:22:52Z</time>
<desc>lat.=55.693848, lon.=26.460842, Alt.=136.177856m. Speed=14.328000m/h.</desc>
<speed>3.980000</speed>
</trkpt>
<trkpt lat="55.693878" lon="26.460878">
<ele>135.763794</ele>
<time>2010-07-18T10:22:53Z</time>
<desc>lat.=55.693878, lon.=26.460878, Alt.=135.763794m. Speed=14.508000m/h.</desc>
<speed>4.030000</speed>
</trkpt>
<trkpt lat="55.693909" lon="26.460915">
<ele>135.138794</ele>
<time>2010-07-18T10:22:54Z</time>
<desc>lat.=55.693909, lon.=26.460915, Alt.=135.138794m. Speed=14.832000m/h.</desc>
<speed>4.120000</speed>
</trkpt>
<trkpt lat="55.693935" lon="26.460962">
<ele>135.240356</ele>
<time>2010-07-18T10:22:55Z</time>
<desc>lat.=55.693935, lon.=26.460962, Alt.=135.240356m. Speed=15.480000m/h.</desc>
<speed>4.300000</speed>
</trkpt>
<trkpt lat="55.693958" lon="26.460999">
<ele>134.787231</ele>
<time>2010-07-18T10:22:56Z</time>
<desc>lat.=55.693958, lon.=26.460999, Alt.=134.787231m. Speed=12.384000m/h.</desc>
<speed>3.440000</speed>
</trkpt>
<trkpt lat="55.693981" lon="26.461040">
<ele>134.638794</ele>
<time>2010-07-18T10:22:57Z</time>
<desc>lat.=55.693981, lon.=26.461040, Alt.=134.638794m. Speed=15.192000m/h.</desc>
<speed>4.220000</speed>
</trkpt>
<trkpt lat="55.694008" lon="26.461088">
<ele>134.400513</ele>
<time>2010-07-18T10:22:58Z</time>
<desc>lat.=55.694008, lon.=26.461088, Alt.=134.400513m. Speed=15.516000m/h.</desc>
<speed>4.310000</speed>
</trkpt>
<trkpt lat="55.694038" lon="26.461138">
<ele>134.853638</ele>
<time>2010-07-18T10:22:59Z</time>
<desc>lat.=55.694038, lon.=26.461138, Alt.=134.853638m. Speed=15.984000m/h.</desc>
<speed>4.440000</speed>
</trkpt>
<trkpt lat="55.694065" lon="26.461197">
<ele>135.267700</ele>
<time>2010-07-18T10:23:00Z</time>
<desc>lat.=55.694065, lon.=26.461197, Alt.=135.267700m. Speed=15.660000m/h.</desc>
<speed>4.350000</speed>
</trkpt>
<trkpt lat="55.694092" lon="26.461254">
<ele>136.357544</ele>
<time>2010-07-18T10:23:01Z</time>
<desc>lat.=55.694092, lon.=26.461254, Alt.=136.357544m. Speed=15.804000m/h.</desc>
<speed>4.390000</speed>
</trkpt>
<trkpt lat="55.694118" lon="26.461313">
<ele>137.052856</ele>
<time>2010-07-18T10:23:02Z</time>
<desc>lat.=55.694118, lon.=26.461313, Alt.=137.052856m. Speed=15.804000m/h.</desc>
<speed>4.390000</speed>
</trkpt>
<trkpt lat="55.694134" lon="26.461378">
<ele>137.084106</ele>
<time>2010-07-18T10:23:03Z</time>
<desc>lat.=55.694134, lon.=26.461378, Alt.=137.084106m. Speed=14.868000m/h.</desc>
<speed>4.130000</speed>
</trkpt>
<trkpt lat="55.694141" lon="26.461433">
<ele>137.482544</ele>
<time>2010-07-18T10:23:04Z</time>
<desc>lat.=55.694141, lon.=26.461433, Alt.=137.482544m. Speed=10.080000m/h.</desc>
<speed>2.800000</speed>
</trkpt>
<trkpt lat="55.694130" lon="26.461487">
<ele>137.877075</ele>
<time>2010-07-18T10:23:05Z</time>
<desc>lat.=55.694130, lon.=26.461487, Alt.=137.877075m. Speed=13.428000m/h.</desc>
<speed>3.730000</speed>
</trkpt>
<trkpt lat="55.694099" lon="26.461538">
<ele>138.099731</ele>
<time>2010-07-18T10:23:06Z</time>
<desc>lat.=55.694099, lon.=26.461538, Alt.=138.099731m. Speed=14.832000m/h.</desc>
<speed>4.120000</speed>
</trkpt>
<trkpt lat="55.694065" lon="26.461575">
<ele>138.064575</ele>
<time>2010-07-18T10:23:07Z</time>
<desc>lat.=55.694065, lon.=26.461575, Alt.=138.064575m. Speed=14.580000m/h.</desc>
<speed>4.050000</speed>
</trkpt>
<trkpt lat="55.694031" lon="26.461601">
<ele>135.947388</ele>
<time>2010-07-18T10:23:08Z</time>
<desc>lat.=55.694031, lon.=26.461601, Alt.=135.947388m. Speed=15.444000m/h.</desc>
<speed>4.290000</speed>
</trkpt>
<trkpt lat="55.693993" lon="26.461622">
<ele>135.345825</ele>
<time>2010-07-18T10:23:09Z</time>
<desc>lat.=55.693993, lon.=26.461622, Alt.=135.345825m. Speed=14.868000m/h.</desc>
<speed>4.130000</speed>
</trkpt>
<trkpt lat="55.693958" lon="26.461645">
<ele>135.576294</ele>
<time>2010-07-18T10:23:10Z</time>
<desc>lat.=55.693958, lon.=26.461645, Alt.=135.576294m. Speed=13.860000m/h.</desc>
<speed>3.850000</speed>
</trkpt>
<trkpt lat="55.693924" lon="26.461664">
<ele>135.474731</ele>
<time>2010-07-18T10:23:11Z</time>
<desc>lat.=55.693924, lon.=26.461664, Alt.=135.474731m. Speed=13.428000m/h.</desc>
<speed>3.730000</speed>
</trkpt>
<trkpt lat="55.693893" lon="26.461689">
<ele>135.838013</ele>
<time>2010-07-18T10:23:12Z</time>
<desc>lat.=55.693893, lon.=26.461689, Alt.=135.838013m. Speed=13.176000m/h.</desc>
<speed>3.660000</speed>
</trkpt>
<trkpt lat="55.693863" lon="26.461725">
<ele>136.310669</ele>
<time>2010-07-18T10:23:13Z</time>
<desc>lat.=55.693863, lon.=26.461725, Alt.=136.310669m. Speed=13.896000m/h.</desc>
<speed>3.860000</speed>
</trkpt>
<trkpt lat="55.693844" lon="26.461788">
<ele>137.099731</ele>
<time>2010-07-18T10:23:14Z</time>
<desc>lat.=55.693844, lon.=26.461788, Alt.=137.099731m. Speed=15.336000m/h.</desc>
<speed>4.260000</speed>
</trkpt>
<trkpt lat="55.693821" lon="26.461845">
<ele>137.154419</ele>
<time>2010-07-18T10:23:15Z</time>
<desc>lat.=55.693821, lon.=26.461845, Alt.=137.154419m. Speed=15.408000m/h.</desc>
<speed>4.280000</speed>
</trkpt>
<trkpt lat="55.693798" lon="26.461903">
<ele>137.170044</ele>
<time>2010-07-18T10:23:16Z</time>
<desc>lat.=55.693798, lon.=26.461903, Alt.=137.170044m. Speed=14.904000m/h.</desc>
<speed>4.140000</speed>
</trkpt>
<trkpt lat="55.693775" lon="26.461962">
<ele>137.099731</ele>
<time>2010-07-18T10:23:17Z</time>
<desc>lat.=55.693775, lon.=26.461962, Alt.=137.099731m. Speed=14.580000m/h.</desc>
<speed>4.050000</speed>
</trkpt>
<trkpt lat="55.693760" lon="26.462013">
<ele>137.529419</ele>
<time>2010-07-18T10:23:18Z</time>
<desc>lat.=55.693760, lon.=26.462013, Alt.=137.529419m. Speed=13.176000m/h.</desc>
<speed>3.660000</speed>
</trkpt>
<trkpt lat="55.693748" lon="26.462061">
<ele>138.130981</ele>
<time>2010-07-18T10:23:19Z</time>
<desc>lat.=55.693748, lon.=26.462061, Alt.=138.130981m. Speed=11.232000m/h.</desc>
<speed>3.120000</speed>
</trkpt>
<trkpt lat="55.693737" lon="26.462105">
<ele>138.240356</ele>
<time>2010-07-18T10:23:20Z</time>
<desc>lat.=55.693737, lon.=26.462105, Alt.=138.240356m. Speed=10.548000m/h.</desc>
<speed>2.930000</speed>
</trkpt>
<trkpt lat="55.693726" lon="26.462139">
<ele>138.459106</ele>
<time>2010-07-18T10:23:21Z</time>
<desc>lat.=55.693726, lon.=26.462139, Alt.=138.459106m. Speed=8.568000m/h.</desc>
<speed>2.380000</speed>
</trkpt>
<trkpt lat="55.693714" lon="26.462181">
<ele>138.349731</ele>
<time>2010-07-18T10:23:22Z</time>
<desc>lat.=55.693714, lon.=26.462181, Alt.=138.349731m. Speed=9.792000m/h.</desc>
<speed>2.720000</speed>
</trkpt>
<trkpt lat="55.693703" lon="26.462219">
<ele>138.775513</ele>
<time>2010-07-18T10:23:23Z</time>
<desc>lat.=55.693703, lon.=26.462219, Alt.=138.775513m. Speed=8.676000m/h.</desc>
<speed>2.410000</speed>
</trkpt>
<trkpt lat="55.693691" lon="26.462263">
<ele>138.951294</ele>
<time>2010-07-18T10:23:24Z</time>
<desc>lat.=55.693691, lon.=26.462263, Alt.=138.951294m. Speed=11.844000m/h.</desc>
<speed>3.290000</speed>
</trkpt>
<trkpt lat="55.693680" lon="26.462303">
<ele>139.724731</ele>
<time>2010-07-18T10:23:25Z</time>
<desc>lat.=55.693680, lon.=26.462303, Alt.=139.724731m. Speed=10.584000m/h.</desc>
<speed>2.940000</speed>
</trkpt>
<trkpt lat="55.693661" lon="26.462353">
<ele>140.576294</ele>
<time>2010-07-18T10:23:26Z</time>
<desc>lat.=55.693661, lon.=26.462353, Alt.=140.576294m. Speed=12.132000m/h.</desc>
<speed>3.370000</speed>
</trkpt>
<trkpt lat="55.693642" lon="26.462400">
<ele>141.166138</ele>
<time>2010-07-18T10:23:27Z</time>
<desc>lat.=55.693642, lon.=26.462400, Alt.=141.166138m. Speed=12.672000m/h.</desc>
<speed>3.520000</speed>
</trkpt>
<trkpt lat="55.693623" lon="26.462450">
<ele>141.548950</ele>
<time>2010-07-18T10:23:28Z</time>
<desc>lat.=55.693623, lon.=26.462450, Alt.=141.548950m. Speed=12.672000m/h.</desc>
<speed>3.520000</speed>
</trkpt>
<trkpt lat="55.693600" lon="26.462503">
<ele>142.216919</ele>
<time>2010-07-18T10:23:29Z</time>
<desc>lat.=55.693600, lon.=26.462503, Alt.=142.216919m. Speed=12.492000m/h.</desc>
<speed>3.470000</speed>
</trkpt>
<trkpt lat="55.693577" lon="26.462553">
<ele>141.755981</ele>
<time>2010-07-18T10:23:30Z</time>
<desc>lat.=55.693577, lon.=26.462553, Alt.=141.755981m. Speed=12.204000m/h.</desc>
<speed>3.390000</speed>
</trkpt>
<trkpt lat="55.693554" lon="26.462608">
<ele>140.537231</ele>
<time>2010-07-18T10:23:31Z</time>
<desc>lat.=55.693554, lon.=26.462608, Alt.=140.537231m. Speed=11.232000m/h.</desc>
<speed>3.120000</speed>
</trkpt>
<trkpt lat="55.693535" lon="26.462656">
<ele>139.916138</ele>
<time>2010-07-18T10:23:32Z</time>
<desc>lat.=55.693535, lon.=26.462656, Alt.=139.916138m. Speed=11.592000m/h.</desc>
<speed>3.220000</speed>
</trkpt>
<trkpt lat="55.693516" lon="26.462708">
<ele>138.904419</ele>
<time>2010-07-18T10:23:33Z</time>
<desc>lat.=55.693516, lon.=26.462708, Alt.=138.904419m. Speed=11.520000m/h.</desc>
<speed>3.200000</speed>
</trkpt>
<trkpt lat="55.693493" lon="26.462748">
<ele>138.201294</ele>
<time>2010-07-18T10:23:34Z</time>
<desc>lat.=55.693493, lon.=26.462748, Alt.=138.201294m. Speed=11.700000m/h.</desc>
<speed>3.250000</speed>
</trkpt>
<trkpt lat="55.693478" lon="26.462791">
<ele>138.025513</ele>
<time>2010-07-18T10:23:35Z</time>
<desc>lat.=55.693478, lon.=26.462791, Alt.=138.025513m. Speed=10.584000m/h.</desc>
<speed>2.940000</speed>
</trkpt>
<trkpt lat="55.693462" lon="26.462835">
<ele>138.076294</ele>
<time>2010-07-18T10:23:36Z</time>
<desc>lat.=55.693462, lon.=26.462835, Alt.=138.076294m. Speed=11.196000m/h.</desc>
<speed>3.110000</speed>
</trkpt>
<trkpt lat="55.693447" lon="26.462877">
<ele>137.904419</ele>
<time>2010-07-18T10:23:37Z</time>
<desc>lat.=55.693447, lon.=26.462877, Alt.=137.904419m. Speed=11.628000m/h.</desc>
<speed>3.230000</speed>
</trkpt>
<trkpt lat="55.693432" lon="26.462929">
<ele>137.365356</ele>
<time>2010-07-18T10:23:38Z</time>
<desc>lat.=55.693432, lon.=26.462929, Alt.=137.365356m. Speed=11.412000m/h.</desc>
<speed>3.170000</speed>
</trkpt>
<trkpt lat="55.693417" lon="26.462967">
<ele>137.767700</ele>
<time>2010-07-18T10:23:39Z</time>
<desc>lat.=55.693417, lon.=26.462967, Alt.=137.767700m. Speed=11.160000m/h.</desc>
<speed>3.100000</speed>
</trkpt>
<trkpt lat="55.693401" lon="26.463009">
<ele>137.982544</ele>
<time>2010-07-18T10:23:40Z</time>
<desc>lat.=55.693401, lon.=26.463009, Alt.=137.982544m. Speed=11.340000m/h.</desc>
<speed>3.150000</speed>
</trkpt>
<trkpt lat="55.693378" lon="26.463045">
<ele>137.752075</ele>
<time>2010-07-18T10:23:41Z</time>
<desc>lat.=55.693378, lon.=26.463045, Alt.=137.752075m. Speed=9.936000m/h.</desc>
<speed>2.760000</speed>
</trkpt>
<trkpt lat="55.693363" lon="26.463079">
<ele>138.709106</ele>
<time>2010-07-18T10:23:42Z</time>
<desc>lat.=55.693363, lon.=26.463079, Alt.=138.709106m. Speed=10.620000m/h.</desc>
<speed>2.950000</speed>
</trkpt>
<trkpt lat="55.693344" lon="26.463121">
<ele>138.791138</ele>
<time>2010-07-18T10:23:43Z</time>
<desc>lat.=55.693344, lon.=26.463121, Alt.=138.791138m. Speed=10.260000m/h.</desc>
<speed>2.850000</speed>
</trkpt>
<trkpt lat="55.693329" lon="26.463156">
<ele>138.947388</ele>
<time>2010-07-18T10:23:44Z</time>
<desc>lat.=55.693329, lon.=26.463156, Alt.=138.947388m. Speed=10.584000m/h.</desc>
<speed>2.940000</speed>
</trkpt>
<trkpt lat="55.693314" lon="26.463194">
<ele>139.041138</ele>
<time>2010-07-18T10:23:45Z</time>
<desc>lat.=55.693314, lon.=26.463194, Alt.=139.041138m. Speed=10.152000m/h.</desc>
<speed>2.820000</speed>
</trkpt>
<trkpt lat="55.693298" lon="26.463242">
<ele>138.865356</ele>
<time>2010-07-18T10:23:46Z</time>
<desc>lat.=55.693298, lon.=26.463242, Alt.=138.865356m. Speed=9.468000m/h.</desc>
<speed>2.630000</speed>
</trkpt>
<trkpt lat="55.693287" lon="26.463276">
<ele>138.420044</ele>
<time>2010-07-18T10:23:47Z</time>
<desc>lat.=55.693287, lon.=26.463276, Alt.=138.420044m. Speed=9.396000m/h.</desc>
<speed>2.610000</speed>
</trkpt>
<trkpt lat="55.693268" lon="26.463310">
<ele>138.224731</ele>
<time>2010-07-18T10:23:48Z</time>
<desc>lat.=55.693268, lon.=26.463310, Alt.=138.224731m. Speed=9.864000m/h.</desc>
<speed>2.740000</speed>
</trkpt>
<trkpt lat="55.693256" lon="26.463339">
<ele>138.634888</ele>
<time>2010-07-18T10:23:49Z</time>
<desc>lat.=55.693256, lon.=26.463339, Alt.=138.634888m. Speed=9.792000m/h.</desc>
<speed>2.720000</speed>
</trkpt>
<trkpt lat="55.693249" lon="26.463373">
<ele>137.943481</ele>
<time>2010-07-18T10:23:50Z</time>
<desc>lat.=55.693249, lon.=26.463373, Alt.=137.943481m. Speed=9.432000m/h.</desc>
<speed>2.620000</speed>
</trkpt>
<trkpt lat="55.693233" lon="26.463409">
<ele>137.611450</ele>
<time>2010-07-18T10:23:51Z</time>
<desc>lat.=55.693233, lon.=26.463409, Alt.=137.611450m. Speed=10.332000m/h.</desc>
<speed>2.870000</speed>
</trkpt>
<trkpt lat="55.693218" lon="26.463448">
<ele>137.611450</ele>
<time>2010-07-18T10:23:52Z</time>
<desc>lat.=55.693218, lon.=26.463448, Alt.=137.611450m. Speed=10.800000m/h.</desc>
<speed>3.000000</speed>
</trkpt>
<trkpt lat="55.693207" lon="26.463491">
<ele>137.900513</ele>
<time>2010-07-18T10:23:53Z</time>
<desc>lat.=55.693207, lon.=26.463491, Alt.=137.900513m. Speed=10.368000m/h.</desc>
<speed>2.880000</speed>
</trkpt>
<trkpt lat="55.693192" lon="26.463549">
<ele>138.564575</ele>
<time>2010-07-18T10:23:54Z</time>
<desc>lat.=55.693192, lon.=26.463549, Alt.=138.564575m. Speed=10.836000m/h.</desc>
<speed>3.010000</speed>
</trkpt>
<trkpt lat="55.693176" lon="26.463589">
<ele>139.283325</ele>
<time>2010-07-18T10:23:55Z</time>
<desc>lat.=55.693176, lon.=26.463589, Alt.=139.283325m. Speed=10.260000m/h.</desc>
<speed>2.850000</speed>
</trkpt>
<trkpt lat="55.693157" lon="26.463627">
<ele>140.088013</ele>
<time>2010-07-18T10:23:56Z</time>
<desc>lat.=55.693157, lon.=26.463627, Alt.=140.088013m. Speed=9.900000m/h.</desc>
<speed>2.750000</speed>
</trkpt>
<trkpt lat="55.693134" lon="26.463671">
<ele>139.533325</ele>
<time>2010-07-18T10:23:57Z</time>
<desc>lat.=55.693134, lon.=26.463671, Alt.=139.533325m. Speed=10.188000m/h.</desc>
<speed>2.830000</speed>
</trkpt>
<trkpt lat="55.693119" lon="26.463711">
<ele>139.533325</ele>
<time>2010-07-18T10:23:58Z</time>
<desc>lat.=55.693119, lon.=26.463711, Alt.=139.533325m. Speed=11.124000m/h.</desc>
<speed>3.090000</speed>
</trkpt>
<trkpt lat="55.693100" lon="26.463753">
<ele>139.873169</ele>
<time>2010-07-18T10:23:59Z</time>
<desc>lat.=55.693100, lon.=26.463753, Alt.=139.873169m. Speed=11.448000m/h.</desc>
<speed>3.180000</speed>
</trkpt>
<trkpt lat="55.693085" lon="26.463797">
<ele>139.857544</ele>
<time>2010-07-18T10:24:00Z</time>
<desc>lat.=55.693085, lon.=26.463797, Alt.=139.857544m. Speed=10.872000m/h.</desc>
<speed>3.020000</speed>
</trkpt>
<trkpt lat="55.693069" lon="26.463842">
<ele>140.029419</ele>
<time>2010-07-18T10:24:01Z</time>
<desc>lat.=55.693069, lon.=26.463842, Alt.=140.029419m. Speed=11.088000m/h.</desc>
<speed>3.080000</speed>
</trkpt>
<trkpt lat="55.693058" lon="26.463888">
<ele>139.990356</ele>
<time>2010-07-18T10:24:02Z</time>
<desc>lat.=55.693058, lon.=26.463888, Alt.=139.990356m. Speed=9.792000m/h.</desc>
<speed>2.720000</speed>
</trkpt>
<trkpt lat="55.693043" lon="26.463932">
<ele>139.802856</ele>
<time>2010-07-18T10:24:03Z</time>
<desc>lat.=55.693043, lon.=26.463932, Alt.=139.802856m. Speed=10.584000m/h.</desc>
<speed>2.940000</speed>
</trkpt>
<trkpt lat="55.693008" lon="26.463978">
<ele>138.869263</ele>
<time>2010-07-18T10:24:04Z</time>
<desc>lat.=55.693008, lon.=26.463978, Alt.=138.869263m. Speed=12.348000m/h.</desc>
<speed>3.430000</speed>
</trkpt>
<trkpt lat="55.692978" lon="26.464020">
<ele>138.443481</ele>
<time>2010-07-18T10:24:05Z</time>
<desc>lat.=55.692978, lon.=26.464020, Alt.=138.443481m. Speed=11.952000m/h.</desc>
<speed>3.320000</speed>
</trkpt>
<trkpt lat="55.692963" lon="26.464079">
<ele>139.267700</ele>
<time>2010-07-18T10:24:06Z</time>
<desc>lat.=55.692963, lon.=26.464079, Alt.=139.267700m. Speed=11.880000m/h.</desc>
<speed>3.300000</speed>
</trkpt>
<trkpt lat="55.692940" lon="26.464125">
<ele>139.662231</ele>
<time>2010-07-18T10:24:07Z</time>
<desc>lat.=55.692940, lon.=26.464125, Alt.=139.662231m. Speed=12.672000m/h.</desc>
<speed>3.520000</speed>
</trkpt>
<trkpt lat="55.692921" lon="26.464169">
<ele>139.767700</ele>
<time>2010-07-18T10:24:08Z</time>
<desc>lat.=55.692921, lon.=26.464169, Alt.=139.767700m. Speed=13.392000m/h.</desc>
<speed>3.720000</speed>
</trkpt>
<trkpt lat="55.692902" lon="26.464214">
<ele>139.748169</ele>
<time>2010-07-18T10:24:09Z</time>
<desc>lat.=55.692902, lon.=26.464214, Alt.=139.748169m. Speed=14.040000m/h.</desc>
<speed>3.900000</speed>
</trkpt>
<trkpt lat="55.692879" lon="26.464266">
<ele>139.611450</ele>
<time>2010-07-18T10:24:10Z</time>
<desc>lat.=55.692879, lon.=26.464266, Alt.=139.611450m. Speed=13.536000m/h.</desc>
<speed>3.760000</speed>
</trkpt>
<trkpt lat="55.692863" lon="26.464315">
<ele>138.798950</ele>
<time>2010-07-18T10:24:11Z</time>
<desc>lat.=55.692863, lon.=26.464315, Alt.=138.798950m. Speed=12.888000m/h.</desc>
<speed>3.580000</speed>
</trkpt>
<trkpt lat="55.692837" lon="26.464382">
<ele>137.752075</ele>
<time>2010-07-18T10:24:12Z</time>
<desc>lat.=55.692837, lon.=26.464382, Alt.=137.752075m. Speed=14.472000m/h.</desc>
<speed>4.020000</speed>
</trkpt>
<trkpt lat="55.692818" lon="26.464434">
<ele>137.810669</ele>
<time>2010-07-18T10:24:13Z</time>
<desc>lat.=55.692818, lon.=26.464434, Alt.=137.810669m. Speed=15.768000m/h.</desc>
<speed>4.380000</speed>
</trkpt>
<trkpt lat="55.692780" lon="26.464481">
<ele>138.255981</ele>
<time>2010-07-18T10:24:14Z</time>
<desc>lat.=55.692780, lon.=26.464481, Alt.=138.255981m. Speed=15.048000m/h.</desc>
<speed>4.180000</speed>
</trkpt>
<trkpt lat="55.692749" lon="26.464533">
<ele>139.060669</ele>
<time>2010-07-18T10:24:15Z</time>
<desc>lat.=55.692749, lon.=26.464533, Alt.=139.060669m. Speed=15.228000m/h.</desc>
<speed>4.230000</speed>
</trkpt>
<trkpt lat="55.692715" lon="26.464586">
<ele>138.724731</ele>
<time>2010-07-18T10:24:16Z</time>
<desc>lat.=55.692715, lon.=26.464586, Alt.=138.724731m. Speed=16.524000m/h.</desc>
<speed>4.590000</speed>
</trkpt>
<trkpt lat="55.692688" lon="26.464642">
<ele>138.181763</ele>
<time>2010-07-18T10:24:17Z</time>
<desc>lat.=55.692688, lon.=26.464642, Alt.=138.181763m. Speed=15.552000m/h.</desc>
<speed>4.320000</speed>
</trkpt>
<trkpt lat="55.692650" lon="26.464693">
<ele>137.564575</ele>
<time>2010-07-18T10:24:18Z</time>
<desc>lat.=55.692650, lon.=26.464693, Alt.=137.564575m. Speed=16.236000m/h.</desc>
<speed>4.510000</speed>
</trkpt>
<trkpt lat="55.692619" lon="26.464746">
<ele>137.482544</ele>
<time>2010-07-18T10:24:19Z</time>
<desc>lat.=55.692619, lon.=26.464746, Alt.=137.482544m. Speed=15.480000m/h.</desc>
<speed>4.300000</speed>
</trkpt>
<trkpt lat="55.692589" lon="26.464798">
<ele>137.236450</ele>
<time>2010-07-18T10:24:20Z</time>
<desc>lat.=55.692589, lon.=26.464798, Alt.=137.236450m. Speed=16.020000m/h.</desc>
<speed>4.450000</speed>
</trkpt>
<trkpt lat="55.692558" lon="26.464851">
<ele>137.857544</ele>
<time>2010-07-18T10:24:21Z</time>
<desc>lat.=55.692558, lon.=26.464851, Alt.=137.857544m. Speed=16.559999m/h.</desc>
<speed>4.600000</speed>
</trkpt>
<trkpt lat="55.692528" lon="26.464899">
<ele>137.931763</ele>
<time>2010-07-18T10:24:22Z</time>
<desc>lat.=55.692528, lon.=26.464899, Alt.=137.931763m. Speed=14.400000m/h.</desc>
<speed>4.000000</speed>
</trkpt>
<trkpt lat="55.692505" lon="26.464943">
<ele>138.052856</ele>
<time>2010-07-18T10:24:23Z</time>
<desc>lat.=55.692505, lon.=26.464943, Alt.=138.052856m. Speed=15.012000m/h.</desc>
<speed>4.170000</speed>
</trkpt>
<trkpt lat="55.692482" lon="26.464987">
<ele>138.138794</ele>
<time>2010-07-18T10:24:24Z</time>
<desc>lat.=55.692482, lon.=26.464987, Alt.=138.138794m. Speed=12.780000m/h.</desc>
<speed>3.550000</speed>
</trkpt>
<trkpt lat="55.692455" lon="26.465025">
<ele>138.170044</ele>
<time>2010-07-18T10:24:25Z</time>
<desc>lat.=55.692455, lon.=26.465025, Alt.=138.170044m. Speed=13.428000m/h.</desc>
<speed>3.730000</speed>
</trkpt>
<trkpt lat="55.692425" lon="26.465069">
<ele>138.857544</ele>
<time>2010-07-18T10:24:26Z</time>
<desc>lat.=55.692425, lon.=26.465069, Alt.=138.857544m. Speed=14.184000m/h.</desc>
<speed>3.940000</speed>
</trkpt>
<trkpt lat="55.692398" lon="26.465115">
<ele>138.584106</ele>
<time>2010-07-18T10:24:27Z</time>
<desc>lat.=55.692398, lon.=26.465115, Alt.=138.584106m. Speed=14.472000m/h.</desc>
<speed>4.020000</speed>
</trkpt>
<trkpt lat="55.692368" lon="26.465170">
<ele>136.603638</ele>
<time>2010-07-18T10:24:28Z</time>
<desc>lat.=55.692368, lon.=26.465170, Alt.=136.603638m. Speed=15.264000m/h.</desc>
<speed>4.240000</speed>
</trkpt>
<trkpt lat="55.692341" lon="26.465223">
<ele>136.416138</ele>
<time>2010-07-18T10:24:29Z</time>
<desc>lat.=55.692341, lon.=26.465223, Alt.=136.416138m. Speed=15.480000m/h.</desc>
<speed>4.300000</speed>
</trkpt>
<trkpt lat="55.692310" lon="26.465271">
<ele>136.127075</ele>
<time>2010-07-18T10:24:30Z</time>
<desc>lat.=55.692310, lon.=26.465271, Alt.=136.127075m. Speed=15.696000m/h.</desc>
<speed>4.360000</speed>
</trkpt>
<trkpt lat="55.692284" lon="26.465322">
<ele>135.728638</ele>
<time>2010-07-18T10:24:31Z</time>
<desc>lat.=55.692284, lon.=26.465322, Alt.=135.728638m. Speed=15.588000m/h.</desc>
<speed>4.330000</speed>
</trkpt>
<trkpt lat="55.692261" lon="26.465370">
<ele>134.978638</ele>
<time>2010-07-18T10:24:32Z</time>
<desc>lat.=55.692261, lon.=26.465370, Alt.=134.978638m. Speed=14.796000m/h.</desc>
<speed>4.110000</speed>
</trkpt>
<trkpt lat="55.692234" lon="26.465429">
<ele>134.380981</ele>
<time>2010-07-18T10:24:33Z</time>
<desc>lat.=55.692234, lon.=26.465429, Alt.=134.380981m. Speed=15.048000m/h.</desc>
<speed>4.180000</speed>
</trkpt>
<trkpt lat="55.692207" lon="26.465485">
<ele>133.955200</ele>
<time>2010-07-18T10:24:34Z</time>
<desc>lat.=55.692207, lon.=26.465485, Alt.=133.955200m. Speed=16.704000m/h.</desc>
<speed>4.640000</speed>
</trkpt>
<trkpt lat="55.692177" lon="26.465548">
<ele>133.353638</ele>
<time>2010-07-18T10:24:35Z</time>
<desc>lat.=55.692177, lon.=26.465548, Alt.=133.353638m. Speed=17.676001m/h.</desc>
<speed>4.910000</speed>
</trkpt>
<trkpt lat="55.692142" lon="26.465611">
<ele>133.884888</ele>
<time>2010-07-18T10:24:36Z</time>
<desc>lat.=55.692142, lon.=26.465611, Alt.=133.884888m. Speed=19.584000m/h.</desc>
<speed>5.440000</speed>
</trkpt>
<trkpt lat="55.692104" lon="26.465677">
<ele>134.412231</ele>
<time>2010-07-18T10:24:37Z</time>
<desc>lat.=55.692104, lon.=26.465677, Alt.=134.412231m. Speed=20.879999m/h.</desc>
<speed>5.800000</speed>
</trkpt>
<trkpt lat="55.692070" lon="26.465744">
<ele>134.685669</ele>
<time>2010-07-18T10:24:38Z</time>
<desc>lat.=55.692070, lon.=26.465744, Alt.=134.685669m. Speed=20.304001m/h.</desc>
<speed>5.640000</speed>
</trkpt>
<trkpt lat="55.692036" lon="26.465813">
<ele>135.599731</ele>
<time>2010-07-18T10:24:39Z</time>
<desc>lat.=55.692036, lon.=26.465813, Alt.=135.599731m. Speed=20.771999m/h.</desc>
<speed>5.770000</speed>
</trkpt>
<trkpt lat="55.691998" lon="26.465885">
<ele>137.103638</ele>
<time>2010-07-18T10:24:40Z</time>
<desc>lat.=55.691998, lon.=26.465885, Alt.=137.103638m. Speed=21.492001m/h.</desc>
<speed>5.970000</speed>
</trkpt>
<trkpt lat="55.691956" lon="26.465961">
<ele>136.666138</ele>
<time>2010-07-18T10:24:41Z</time>
<desc>lat.=55.691956, lon.=26.465961, Alt.=136.666138m. Speed=22.032000m/h.</desc>
<speed>6.120000</speed>
</trkpt>
<trkpt lat="55.691910" lon="26.466040">
<ele>136.306763</ele>
<time>2010-07-18T10:24:42Z</time>
<desc>lat.=55.691910, lon.=26.466040, Alt.=136.306763m. Speed=21.492001m/h.</desc>
<speed>5.970000</speed>
</trkpt>
<trkpt lat="55.691864" lon="26.466118">
<ele>136.259888</ele>
<time>2010-07-18T10:24:43Z</time>
<desc>lat.=55.691864, lon.=26.466118, Alt.=136.259888m. Speed=20.520000m/h.</desc>
<speed>5.700000</speed>
</trkpt>
<trkpt lat="55.691826" lon="26.466192">
<ele>136.130981</ele>
<time>2010-07-18T10:24:44Z</time>
<desc>lat.=55.691826, lon.=26.466192, Alt.=136.130981m. Speed=21.132000m/h.</desc>
<speed>5.870000</speed>
</trkpt>
<trkpt lat="55.691792" lon="26.466263">
<ele>135.318481</ele>
<time>2010-07-18T10:24:45Z</time>
<desc>lat.=55.691792, lon.=26.466263, Alt.=135.318481m. Speed=19.476000m/h.</desc>
<speed>5.410000</speed>
</trkpt>
<trkpt lat="55.691750" lon="26.466335">
<ele>135.435669</ele>
<time>2010-07-18T10:24:46Z</time>
<desc>lat.=55.691750, lon.=26.466335, Alt.=135.435669m. Speed=18.719999m/h.</desc>
<speed>5.200000</speed>
</trkpt>
<trkpt lat="55.691715" lon="26.466394">
<ele>135.416138</ele>
<time>2010-07-18T10:24:47Z</time>
<desc>lat.=55.691715, lon.=26.466394, Alt.=135.416138m. Speed=18.108000m/h.</desc>
<speed>5.030000</speed>
</trkpt>
<trkpt lat="55.691681" lon="26.466454">
<ele>134.443481</ele>
<time>2010-07-18T10:24:48Z</time>
<desc>lat.=55.691681, lon.=26.466454, Alt.=134.443481m. Speed=17.172001m/h.</desc>
<speed>4.770000</speed>
</trkpt>
<trkpt lat="55.691654" lon="26.466501">
<ele>134.576294</ele>
<time>2010-07-18T10:24:49Z</time>
<desc>lat.=55.691654, lon.=26.466501, Alt.=134.576294m. Speed=17.532000m/h.</desc>
<speed>4.870000</speed>
</trkpt>
<trkpt lat="55.691624" lon="26.466555">
<ele>134.955200</ele>
<time>2010-07-18T10:24:50Z</time>
<desc>lat.=55.691624, lon.=26.466555, Alt.=134.955200m. Speed=17.568001m/h.</desc>
<speed>4.880000</speed>
</trkpt>
<trkpt lat="55.691589" lon="26.466614">
<ele>134.701294</ele>
<time>2010-07-18T10:24:51Z</time>
<desc>lat.=55.691589, lon.=26.466614, Alt.=134.701294m. Speed=18.252001m/h.</desc>
<speed>5.070000</speed>
</trkpt>
<trkpt lat="55.691555" lon="26.466684">
<ele>134.517700</ele>
<time>2010-07-18T10:24:52Z</time>
<desc>lat.=55.691555, lon.=26.466684, Alt.=134.517700m. Speed=18.827999m/h.</desc>
<speed>5.230000</speed>
</trkpt>
<trkpt lat="55.691528" lon="26.466745">
<ele>134.533325</ele>
<time>2010-07-18T10:24:53Z</time>
<desc>lat.=55.691528, lon.=26.466745, Alt.=134.533325m. Speed=18.035999m/h.</desc>
<speed>5.010000</speed>
</trkpt>
<trkpt lat="55.691498" lon="26.466808">
<ele>134.130981</ele>
<time>2010-07-18T10:24:54Z</time>
<desc>lat.=55.691498, lon.=26.466808, Alt.=134.130981m. Speed=17.316000m/h.</desc>
<speed>4.810000</speed>
</trkpt>
<trkpt lat="55.691467" lon="26.466877">
<ele>133.209106</ele>
<time>2010-07-18T10:24:55Z</time>
<desc>lat.=55.691467, lon.=26.466877, Alt.=133.209106m. Speed=17.712000m/h.</desc>
<speed>4.920000</speed>
</trkpt>
<trkpt lat="55.691437" lon="26.466946">
<ele>132.295044</ele>
<time>2010-07-18T10:24:56Z</time>
<desc>lat.=55.691437, lon.=26.466946, Alt.=132.295044m. Speed=17.100000m/h.</desc>
<speed>4.750000</speed>
</trkpt>
<trkpt lat="55.691414" lon="26.467003">
<ele>131.103638</ele>
<time>2010-07-18T10:24:57Z</time>
<desc>lat.=55.691414, lon.=26.467003, Alt.=131.103638m. Speed=16.236000m/h.</desc>
<speed>4.510000</speed>
</trkpt>
<trkpt lat="55.691383" lon="26.467056">
<ele>129.927856</ele>
<time>2010-07-18T10:24:58Z</time>
<desc>lat.=55.691383, lon.=26.467056, Alt.=129.927856m. Speed=16.200001m/h.</desc>
<speed>4.500000</speed>
</trkpt>
<trkpt lat="55.691349" lon="26.467110">
<ele>128.845825</ele>
<time>2010-07-18T10:24:59Z</time>
<desc>lat.=55.691349, lon.=26.467110, Alt.=128.845825m. Speed=15.156000m/h.</desc>
<speed>4.210000</speed>
</trkpt>
<trkpt lat="55.691322" lon="26.467154">
<ele>128.779419</ele>
<time>2010-07-18T10:25:00Z</time>
<desc>lat.=55.691322, lon.=26.467154, Alt.=128.779419m. Speed=15.588000m/h.</desc>
<speed>4.330000</speed>
</trkpt>
<trkpt lat="55.691288" lon="26.467196">
<ele>130.380981</ele>
<time>2010-07-18T10:25:01Z</time>
<desc>lat.=55.691288, lon.=26.467196, Alt.=130.380981m. Speed=15.264000m/h.</desc>
<speed>4.240000</speed>
</trkpt>
<trkpt lat="55.691257" lon="26.467236">
<ele>129.412231</ele>
<time>2010-07-18T10:25:02Z</time>
<desc>lat.=55.691257, lon.=26.467236, Alt.=129.412231m. Speed=14.940000m/h.</desc>
<speed>4.150000</speed>
</trkpt>
<trkpt lat="55.691231" lon="26.467264">
<ele>130.005981</ele>
<time>2010-07-18T10:25:03Z</time>
<desc>lat.=55.691231, lon.=26.467264, Alt.=130.005981m. Speed=13.644000m/h.</desc>
<speed>3.790000</speed>
</trkpt>
<trkpt lat="55.691200" lon="26.467293">
<ele>130.447388</ele>
<time>2010-07-18T10:25:04Z</time>
<desc>lat.=55.691200, lon.=26.467293, Alt.=130.447388m. Speed=13.788000m/h.</desc>
<speed>3.830000</speed>
</trkpt>
<trkpt lat="55.691170" lon="26.467321">
<ele>131.681763</ele>
<time>2010-07-18T10:25:05Z</time>
<desc>lat.=55.691170, lon.=26.467321, Alt.=131.681763m. Speed=14.004000m/h.</desc>
<speed>3.890000</speed>
</trkpt>
<trkpt lat="55.691139" lon="26.467346">
<ele>132.630981</ele>
<time>2010-07-18T10:25:06Z</time>
<desc>lat.=55.691139, lon.=26.467346, Alt.=132.630981m. Speed=12.276000m/h.</desc>
<speed>3.410000</speed>
</trkpt>
<trkpt lat="55.691113" lon="26.467365">
<ele>133.162231</ele>
<time>2010-07-18T10:25:07Z</time>
<desc>lat.=55.691113, lon.=26.467365, Alt.=133.162231m. Speed=11.844000m/h.</desc>
<speed>3.290000</speed>
</trkpt>
<trkpt lat="55.691082" lon="26.467377">
<ele>134.779419</ele>
<time>2010-07-18T10:25:08Z</time>
<desc>lat.=55.691082, lon.=26.467377, Alt.=134.779419m. Speed=11.052000m/h.</desc>
<speed>3.070000</speed>
</trkpt>
<trkpt lat="55.691051" lon="26.467388">
<ele>135.322388</ele>
<time>2010-07-18T10:25:09Z</time>
<desc>lat.=55.691051, lon.=26.467388, Alt.=135.322388m. Speed=10.764000m/h.</desc>
<speed>2.990000</speed>
</trkpt>
<trkpt lat="55.691021" lon="26.467396">
<ele>134.982544</ele>
<time>2010-07-18T10:25:10Z</time>
<desc>lat.=55.691021, lon.=26.467396, Alt.=134.982544m. Speed=10.692000m/h.</desc>
<speed>2.970000</speed>
</trkpt>
<trkpt lat="55.690994" lon="26.467405">
<ele>135.056763</ele>
<time>2010-07-18T10:25:11Z</time>
<desc>lat.=55.690994, lon.=26.467405, Alt.=135.056763m. Speed=11.664000m/h.</desc>
<speed>3.240000</speed>
</trkpt>
<trkpt lat="55.690964" lon="26.467419">
<ele>135.115356</ele>
<time>2010-07-18T10:25:12Z</time>
<desc>lat.=55.690964, lon.=26.467419, Alt.=135.115356m. Speed=11.124000m/h.</desc>
<speed>3.090000</speed>
</trkpt>
<trkpt lat="55.690929" lon="26.467430">
<ele>134.865356</ele>
<time>2010-07-18T10:25:13Z</time>
<desc>lat.=55.690929, lon.=26.467430, Alt.=134.865356m. Speed=11.232000m/h.</desc>
<speed>3.120000</speed>
</trkpt>
<trkpt lat="55.690903" lon="26.467440">
<ele>134.947388</ele>
<time>2010-07-18T10:25:14Z</time>
<desc>lat.=55.690903, lon.=26.467440, Alt.=134.947388m. Speed=10.512000m/h.</desc>
<speed>2.920000</speed>
</trkpt>
<trkpt lat="55.690876" lon="26.467449">
<ele>135.588013</ele>
<time>2010-07-18T10:25:15Z</time>
<desc>lat.=55.690876, lon.=26.467449, Alt.=135.588013m. Speed=9.720000m/h.</desc>
<speed>2.700000</speed>
</trkpt>
<trkpt lat="55.690849" lon="26.467449">
<ele>135.525513</ele>
<time>2010-07-18T10:25:16Z</time>
<desc>lat.=55.690849, lon.=26.467449, Alt.=135.525513m. Speed=10.188000m/h.</desc>
<speed>2.830000</speed>
</trkpt>
<trkpt lat="55.690819" lon="26.467455">
<ele>135.146606</ele>
<time>2010-07-18T10:25:17Z</time>
<desc>lat.=55.690819, lon.=26.467455, Alt.=135.146606m. Speed=11.160000m/h.</desc>
<speed>3.100000</speed>
</trkpt>
<trkpt lat="55.690788" lon="26.467470">
<ele>135.513794</ele>
<time>2010-07-18T10:25:18Z</time>
<desc>lat.=55.690788, lon.=26.467470, Alt.=135.513794m. Speed=12.312000m/h.</desc>
<speed>3.420000</speed>
</trkpt>
<trkpt lat="55.690758" lon="26.467478">
<ele>135.552856</ele>
<time>2010-07-18T10:25:19Z</time>
<desc>lat.=55.690758, lon.=26.467478, Alt.=135.552856m. Speed=12.636000m/h.</desc>
<speed>3.510000</speed>
</trkpt>
<trkpt lat="55.690723" lon="26.467485">
<ele>134.963013</ele>
<time>2010-07-18T10:25:20Z</time>
<desc>lat.=55.690723, lon.=26.467485, Alt.=134.963013m. Speed=11.484000m/h.</desc>
<speed>3.190000</speed>
</trkpt>
<trkpt lat="55.690693" lon="26.467484">
<ele>135.603638</ele>
<time>2010-07-18T10:25:21Z</time>
<desc>lat.=55.690693, lon.=26.467484, Alt.=135.603638m. Speed=11.484000m/h.</desc>
<speed>3.190000</speed>
</trkpt>
<trkpt lat="55.690666" lon="26.467489">
<ele>135.627075</ele>
<time>2010-07-18T10:25:22Z</time>
<desc>lat.=55.690666, lon.=26.467489, Alt.=135.627075m. Speed=11.088000m/h.</desc>
<speed>3.080000</speed>
</trkpt>
<trkpt lat="55.690639" lon="26.467501">
<ele>136.119263</ele>
<time>2010-07-18T10:25:23Z</time>
<desc>lat.=55.690639, lon.=26.467501, Alt.=136.119263m. Speed=12.024000m/h.</desc>
<speed>3.340000</speed>
</trkpt>
<trkpt lat="55.690609" lon="26.467514">
<ele>135.873169</ele>
<time>2010-07-18T10:25:24Z</time>
<desc>lat.=55.690609, lon.=26.467514, Alt.=135.873169m. Speed=12.816000m/h.</desc>
<speed>3.560000</speed>
</trkpt>
<trkpt lat="55.690582" lon="26.467522">
<ele>135.357544</ele>
<time>2010-07-18T10:25:25Z</time>
<desc>lat.=55.690582, lon.=26.467522, Alt.=135.357544m. Speed=12.744000m/h.</desc>
<speed>3.540000</speed>
</trkpt>
<trkpt lat="55.690548" lon="26.467524">
<ele>135.115356</ele>
<time>2010-07-18T10:25:26Z</time>
<desc>lat.=55.690548, lon.=26.467524, Alt.=135.115356m. Speed=11.520000m/h.</desc>
<speed>3.200000</speed>
</trkpt>
<trkpt lat="55.690525" lon="26.467529">
<ele>135.123169</ele>
<time>2010-07-18T10:25:27Z</time>
<desc>lat.=55.690525, lon.=26.467529, Alt.=135.123169m. Speed=10.440000m/h.</desc>
<speed>2.900000</speed>
</trkpt>
<trkpt lat="55.690498" lon="26.467529">
<ele>135.025513</ele>
<time>2010-07-18T10:25:28Z</time>
<desc>lat.=55.690498, lon.=26.467529, Alt.=135.025513m. Speed=10.728000m/h.</desc>
<speed>2.980000</speed>
</trkpt>
<trkpt lat="55.690472" lon="26.467531">
<ele>135.318481</ele>
<time>2010-07-18T10:25:29Z</time>
<desc>lat.=55.690472, lon.=26.467531, Alt.=135.318481m. Speed=11.340000m/h.</desc>
<speed>3.150000</speed>
</trkpt>
<trkpt lat="55.690441" lon="26.467527">
<ele>135.103638</ele>
<time>2010-07-18T10:25:30Z</time>
<desc>lat.=55.690441, lon.=26.467527, Alt.=135.103638m. Speed=11.736000m/h.</desc>
<speed>3.260000</speed>
</trkpt>
<trkpt lat="55.690411" lon="26.467527">
<ele>135.166138</ele>
<time>2010-07-18T10:25:31Z</time>
<desc>lat.=55.690411, lon.=26.467527, Alt.=135.166138m. Speed=11.880000m/h.</desc>
<speed>3.300000</speed>
</trkpt>
<trkpt lat="55.690380" lon="26.467533">
<ele>135.197388</ele>
<time>2010-07-18T10:25:32Z</time>
<desc>lat.=55.690380, lon.=26.467533, Alt.=135.197388m. Speed=11.700000m/h.</desc>
<speed>3.250000</speed>
</trkpt>
<trkpt lat="55.690350" lon="26.467535">
<ele>135.177856</ele>
<time>2010-07-18T10:25:33Z</time>
<desc>lat.=55.690350, lon.=26.467535, Alt.=135.177856m. Speed=11.952000m/h.</desc>
<speed>3.320000</speed>
</trkpt>
<trkpt lat="55.690323" lon="26.467537">
<ele>135.306763</ele>
<time>2010-07-18T10:25:34Z</time>
<desc>lat.=55.690323, lon.=26.467537, Alt.=135.306763m. Speed=11.088000m/h.</desc>
<speed>3.080000</speed>
</trkpt>
<trkpt lat="55.690296" lon="26.467531">
<ele>135.029419</ele>
<time>2010-07-18T10:25:35Z</time>
<desc>lat.=55.690296, lon.=26.467531, Alt.=135.029419m. Speed=11.340000m/h.</desc>
<speed>3.150000</speed>
</trkpt>
<trkpt lat="55.690266" lon="26.467525">
<ele>135.025513</ele>
<time>2010-07-18T10:25:36Z</time>
<desc>lat.=55.690266, lon.=26.467525, Alt.=135.025513m. Speed=10.836000m/h.</desc>
<speed>3.010000</speed>
</trkpt>
<trkpt lat="55.690239" lon="26.467522">
<ele>134.752075</ele>
<time>2010-07-18T10:25:37Z</time>
<desc>lat.=55.690239, lon.=26.467522, Alt.=134.752075m. Speed=11.160000m/h.</desc>
<speed>3.100000</speed>
</trkpt>
<trkpt lat="55.690212" lon="26.467524">
<ele>135.037231</ele>
<time>2010-07-18T10:25:38Z</time>
<desc>lat.=55.690212, lon.=26.467524, Alt.=135.037231m. Speed=11.160000m/h.</desc>
<speed>3.100000</speed>
</trkpt>
<trkpt lat="55.690182" lon="26.467518">
<ele>135.470825</ele>
<time>2010-07-18T10:25:39Z</time>
<desc>lat.=55.690182, lon.=26.467518, Alt.=135.470825m. Speed=11.664000m/h.</desc>
<speed>3.240000</speed>
</trkpt>
<trkpt lat="55.690151" lon="26.467508">
<ele>135.521606</ele>
<time>2010-07-18T10:25:40Z</time>
<desc>lat.=55.690151, lon.=26.467508, Alt.=135.521606m. Speed=11.628000m/h.</desc>
<speed>3.230000</speed>
</trkpt>
<trkpt lat="55.690128" lon="26.467495">
<ele>135.654419</ele>
<time>2010-07-18T10:25:41Z</time>
<desc>lat.=55.690128, lon.=26.467495, Alt.=135.654419m. Speed=11.340000m/h.</desc>
<speed>3.150000</speed>
</trkpt>
<trkpt lat="55.690102" lon="26.467484">
<ele>135.627075</ele>
<time>2010-07-18T10:25:42Z</time>
<desc>lat.=55.690102, lon.=26.467484, Alt.=135.627075m. Speed=11.628000m/h.</desc>
<speed>3.230000</speed>
</trkpt>
<trkpt lat="55.690071" lon="26.467468">
<ele>135.716919</ele>
<time>2010-07-18T10:25:43Z</time>
<desc>lat.=55.690071, lon.=26.467468, Alt.=135.716919m. Speed=11.952000m/h.</desc>
<speed>3.320000</speed>
</trkpt>
<trkpt lat="55.690044" lon="26.467451">
<ele>135.697388</ele>
<time>2010-07-18T10:25:44Z</time>
<desc>lat.=55.690044, lon.=26.467451, Alt.=135.697388m. Speed=12.564000m/h.</desc>
<speed>3.490000</speed>
</trkpt>
<trkpt lat="55.690014" lon="26.467440">
<ele>135.978638</ele>
<time>2010-07-18T10:25:45Z</time>
<desc>lat.=55.690014, lon.=26.467440, Alt.=135.978638m. Speed=11.952000m/h.</desc>
<speed>3.320000</speed>
</trkpt>
<trkpt lat="55.689983" lon="26.467428">
<ele>136.295044</ele>
<time>2010-07-18T10:25:46Z</time>
<desc>lat.=55.689983, lon.=26.467428, Alt.=136.295044m. Speed=10.476000m/h.</desc>
<speed>2.910000</speed>
</trkpt>
<trkpt lat="55.689957" lon="26.467419">
<ele>136.357544</ele>
<time>2010-07-18T10:25:47Z</time>
<desc>lat.=55.689957, lon.=26.467419, Alt.=136.357544m. Speed=11.268000m/h.</desc>
<speed>3.130000</speed>
</trkpt>
<trkpt lat="55.689926" lon="26.467405">
<ele>136.353638</ele>
<time>2010-07-18T10:25:48Z</time>
<desc>lat.=55.689926, lon.=26.467405, Alt.=136.353638m. Speed=11.412000m/h.</desc>
<speed>3.170000</speed>
</trkpt>
<trkpt lat="55.689896" lon="26.467384">
<ele>136.482544</ele>
<time>2010-07-18T10:25:49Z</time>
<desc>lat.=55.689896, lon.=26.467384, Alt.=136.482544m. Speed=12.636000m/h.</desc>
<speed>3.510000</speed>
</trkpt>
<trkpt lat="55.689865" lon="26.467369">
<ele>136.560669</ele>
<time>2010-07-18T10:25:50Z</time>
<desc>lat.=55.689865, lon.=26.467369, Alt.=136.560669m. Speed=11.196000m/h.</desc>
<speed>3.110000</speed>
</trkpt>
<trkpt lat="55.689838" lon="26.467365">
<ele>136.603638</ele>
<time>2010-07-18T10:25:51Z</time>
<desc>lat.=55.689838, lon.=26.467365, Alt.=136.603638m. Speed=11.664000m/h.</desc>
<speed>3.240000</speed>
</trkpt>
<trkpt lat="55.689808" lon="26.467356">
<ele>136.673950</ele>
<time>2010-07-18T10:25:52Z</time>
<desc>lat.=55.689808, lon.=26.467356, Alt.=136.673950m. Speed=12.384000m/h.</desc>
<speed>3.440000</speed>
</trkpt>
<trkpt lat="55.689777" lon="26.467356">
<ele>136.814575</ele>
<time>2010-07-18T10:25:53Z</time>
<desc>lat.=55.689777, lon.=26.467356, Alt.=136.814575m. Speed=11.880000m/h.</desc>
<speed>3.300000</speed>
</trkpt>
<trkpt lat="55.689747" lon="26.467350">
<ele>136.920044</ele>
<time>2010-07-18T10:25:54Z</time>
<desc>lat.=55.689747, lon.=26.467350, Alt.=136.920044m. Speed=11.916000m/h.</desc>
<speed>3.310000</speed>
</trkpt>
<trkpt lat="55.689716" lon="26.467337">
<ele>137.017700</ele>
<time>2010-07-18T10:25:55Z</time>
<desc>lat.=55.689716, lon.=26.467337, Alt.=137.017700m. Speed=12.816000m/h.</desc>
<speed>3.560000</speed>
</trkpt>
<trkpt lat="55.689686" lon="26.467325">
<ele>137.170044</ele>
<time>2010-07-18T10:25:56Z</time>
<desc>lat.=55.689686, lon.=26.467325, Alt.=137.170044m. Speed=13.644000m/h.</desc>
<speed>3.790000</speed>
</trkpt>
<trkpt lat="55.689651" lon="26.467312">
<ele>136.693481</ele>
<time>2010-07-18T10:25:57Z</time>
<desc>lat.=55.689651, lon.=26.467312, Alt.=136.693481m. Speed=12.852000m/h.</desc>
<speed>3.570000</speed>
</trkpt>
<trkpt lat="55.689621" lon="26.467297">
<ele>136.877075</ele>
<time>2010-07-18T10:25:58Z</time>
<desc>lat.=55.689621, lon.=26.467297, Alt.=136.877075m. Speed=10.764000m/h.</desc>
<speed>2.990000</speed>
</trkpt>
<trkpt lat="55.689594" lon="26.467285">
<ele>137.787231</ele>
<time>2010-07-18T10:25:59Z</time>
<desc>lat.=55.689594, lon.=26.467285, Alt.=137.787231m. Speed=9.468000m/h.</desc>
<speed>2.630000</speed>
</trkpt>
<trkpt lat="55.689568" lon="26.467274">
<ele>137.884888</ele>
<time>2010-07-18T10:26:00Z</time>
<desc>lat.=55.689568, lon.=26.467274, Alt.=137.884888m. Speed=11.304000m/h.</desc>
<speed>3.140000</speed>
</trkpt>
<trkpt lat="55.689537" lon="26.467262">
<ele>139.080200</ele>
<time>2010-07-18T10:26:01Z</time>
<desc>lat.=55.689537, lon.=26.467262, Alt.=139.080200m. Speed=12.708000m/h.</desc>
<speed>3.530000</speed>
</trkpt>
<trkpt lat="55.689503" lon="26.467249">
<ele>139.427856</ele>
<time>2010-07-18T10:26:02Z</time>
<desc>lat.=55.689503, lon.=26.467249, Alt.=139.427856m. Speed=13.140000m/h.</desc>
<speed>3.650000</speed>
</trkpt>
<trkpt lat="55.689468" lon="26.467234">
<ele>139.779419</ele>
<time>2010-07-18T10:26:03Z</time>
<desc>lat.=55.689468, lon.=26.467234, Alt.=139.779419m. Speed=13.896000m/h.</desc>
<speed>3.860000</speed>
</trkpt>
<trkpt lat="55.689430" lon="26.467218">
<ele>139.814575</ele>
<time>2010-07-18T10:26:04Z</time>
<desc>lat.=55.689430, lon.=26.467218, Alt.=139.814575m. Speed=14.112000m/h.</desc>
<speed>3.920000</speed>
</trkpt>
<trkpt lat="55.689396" lon="26.467207">
<ele>140.099731</ele>
<time>2010-07-18T10:26:05Z</time>
<desc>lat.=55.689396, lon.=26.467207, Alt.=140.099731m. Speed=13.212000m/h.</desc>
<speed>3.670000</speed>
</trkpt>
<trkpt lat="55.689365" lon="26.467194">
<ele>140.685669</ele>
<time>2010-07-18T10:26:06Z</time>
<desc>lat.=55.689365, lon.=26.467194, Alt.=140.685669m. Speed=12.240000m/h.</desc>
<speed>3.400000</speed>
</trkpt>
<trkpt lat="55.689335" lon="26.467175">
<ele>140.291138</ele>
<time>2010-07-18T10:26:07Z</time>
<desc>lat.=55.689335, lon.=26.467175, Alt.=140.291138m. Speed=11.916000m/h.</desc>
<speed>3.310000</speed>
</trkpt>
<trkpt lat="55.689304" lon="26.467165">
<ele>140.123169</ele>
<time>2010-07-18T10:26:08Z</time>
<desc>lat.=55.689304, lon.=26.467165, Alt.=140.123169m. Speed=11.700000m/h.</desc>
<speed>3.250000</speed>
</trkpt>
<trkpt lat="55.689278" lon="26.467159">
<ele>139.857544</ele>
<time>2010-07-18T10:26:09Z</time>
<desc>lat.=55.689278, lon.=26.467159, Alt.=139.857544m. Speed=11.448000m/h.</desc>
<speed>3.180000</speed>
</trkpt>
<trkpt lat="55.689251" lon="26.467144">
<ele>139.388794</ele>
<time>2010-07-18T10:26:10Z</time>
<desc>lat.=55.689251, lon.=26.467144, Alt.=139.388794m. Speed=10.548000m/h.</desc>
<speed>2.930000</speed>
</trkpt>
<trkpt lat="55.689224" lon="26.467125">
<ele>139.185669</ele>
<time>2010-07-18T10:26:11Z</time>
<desc>lat.=55.689224, lon.=26.467125, Alt.=139.185669m. Speed=10.764000m/h.</desc>
<speed>2.990000</speed>
</trkpt>
<trkpt lat="55.689198" lon="26.467108">
<ele>138.763794</ele>
<time>2010-07-18T10:26:12Z</time>
<desc>lat.=55.689198, lon.=26.467108, Alt.=138.763794m. Speed=10.332000m/h.</desc>
<speed>2.870000</speed>
</trkpt>
<trkpt lat="55.689171" lon="26.467098">
<ele>138.509888</ele>
<time>2010-07-18T10:26:13Z</time>
<desc>lat.=55.689171, lon.=26.467098, Alt.=138.509888m. Speed=10.944000m/h.</desc>
<speed>3.040000</speed>
</trkpt>
<trkpt lat="55.689144" lon="26.467093">
<ele>138.240356</ele>
<time>2010-07-18T10:26:14Z</time>
<desc>lat.=55.689144, lon.=26.467093, Alt.=138.240356m. Speed=11.268000m/h.</desc>
<speed>3.130000</speed>
</trkpt>
<trkpt lat="55.689117" lon="26.467083">
<ele>137.509888</ele>
<time>2010-07-18T10:26:15Z</time>
<desc>lat.=55.689117, lon.=26.467083, Alt.=137.509888m. Speed=11.556000m/h.</desc>
<speed>3.210000</speed>
</trkpt>
<trkpt lat="55.689091" lon="26.467072">
<ele>136.966919</ele>
<time>2010-07-18T10:26:16Z</time>
<desc>lat.=55.689091, lon.=26.467072, Alt.=136.966919m. Speed=11.196000m/h.</desc>
<speed>3.110000</speed>
</trkpt>
<trkpt lat="55.689060" lon="26.467058">
<ele>136.509888</ele>
<time>2010-07-18T10:26:17Z</time>
<desc>lat.=55.689060, lon.=26.467058, Alt.=136.509888m. Speed=11.448000m/h.</desc>
<speed>3.180000</speed>
</trkpt>
<trkpt lat="55.689030" lon="26.467049">
<ele>136.634888</ele>
<time>2010-07-18T10:26:18Z</time>
<desc>lat.=55.689030, lon.=26.467049, Alt.=136.634888m. Speed=11.880000m/h.</desc>
<speed>3.300000</speed>
</trkpt>
<trkpt lat="55.688999" lon="26.467039">
<ele>136.607544</ele>
<time>2010-07-18T10:26:19Z</time>
<desc>lat.=55.688999, lon.=26.467039, Alt.=136.607544m. Speed=12.312000m/h.</desc>
<speed>3.420000</speed>
</trkpt>
<trkpt lat="55.688972" lon="26.467028">
<ele>135.798950</ele>
<time>2010-07-18T10:26:20Z</time>
<desc>lat.=55.688972, lon.=26.467028, Alt.=135.798950m. Speed=11.952000m/h.</desc>
<speed>3.320000</speed>
</trkpt>
<trkpt lat="55.688946" lon="26.467014">
<ele>135.521606</ele>
<time>2010-07-18T10:26:21Z</time>
<desc>lat.=55.688946, lon.=26.467014, Alt.=135.521606m. Speed=12.384000m/h.</desc>
<speed>3.440000</speed>
</trkpt>
<trkpt lat="55.688915" lon="26.466995">
<ele>135.392700</ele>
<time>2010-07-18T10:26:22Z</time>
<desc>lat.=55.688915, lon.=26.466995, Alt.=135.392700m. Speed=12.564000m/h.</desc>
<speed>3.490000</speed>
</trkpt>
<trkpt lat="55.688881" lon="26.466978">
<ele>135.689575</ele>
<time>2010-07-18T10:26:23Z</time>
<desc>lat.=55.688881, lon.=26.466978, Alt.=135.689575m. Speed=12.996000m/h.</desc>
<speed>3.610000</speed>
</trkpt>
<trkpt lat="55.688847" lon="26.466969">
<ele>135.404419</ele>
<time>2010-07-18T10:26:24Z</time>
<desc>lat.=55.688847, lon.=26.466969, Alt.=135.404419m. Speed=13.284000m/h.</desc>
<speed>3.690000</speed>
</trkpt>
<trkpt lat="55.688816" lon="26.466965">
<ele>135.033325</ele>
<time>2010-07-18T10:26:25Z</time>
<desc>lat.=55.688816, lon.=26.466965, Alt.=135.033325m. Speed=12.996000m/h.</desc>
<speed>3.610000</speed>
</trkpt>
<trkpt lat="55.688786" lon="26.466957">
<ele>134.755981</ele>
<time>2010-07-18T10:26:26Z</time>
<desc>lat.=55.688786, lon.=26.466957, Alt.=134.755981m. Speed=11.484000m/h.</desc>
<speed>3.190000</speed>
</trkpt>
<trkpt lat="55.688755" lon="26.466951">
<ele>134.138794</ele>
<time>2010-07-18T10:26:27Z</time>
<desc>lat.=55.688755, lon.=26.466951, Alt.=134.138794m. Speed=12.960000m/h.</desc>
<speed>3.600000</speed>
</trkpt>
<trkpt lat="55.688725" lon="26.466942">
<ele>133.642700</ele>
<time>2010-07-18T10:26:28Z</time>
<desc>lat.=55.688725, lon.=26.466942, Alt.=133.642700m. Speed=9.612000m/h.</desc>
<speed>2.670000</speed>
</trkpt>
<trkpt lat="55.688694" lon="26.466932">
<ele>134.466919</ele>
<time>2010-07-18T10:26:29Z</time>
<desc>lat.=55.688694, lon.=26.466932, Alt.=134.466919m. Speed=11.628000m/h.</desc>
<speed>3.230000</speed>
</trkpt>
<trkpt lat="55.688660" lon="26.466927">
<ele>134.939575</ele>
<time>2010-07-18T10:26:30Z</time>
<desc>lat.=55.688660, lon.=26.466927, Alt.=134.939575m. Speed=12.168000m/h.</desc>
<speed>3.380000</speed>
</trkpt>
<trkpt lat="55.688629" lon="26.466927">
<ele>135.209106</ele>
<time>2010-07-18T10:26:31Z</time>
<desc>lat.=55.688629, lon.=26.466927, Alt.=135.209106m. Speed=12.708000m/h.</desc>
<speed>3.530000</speed>
</trkpt>
<trkpt lat="55.688602" lon="26.466923">
<ele>135.916138</ele>
<time>2010-07-18T10:26:32Z</time>
<desc>lat.=55.688602, lon.=26.466923, Alt.=135.916138m. Speed=12.276000m/h.</desc>
<speed>3.410000</speed>
</trkpt>
<trkpt lat="55.688572" lon="26.466919">
<ele>137.181763</ele>
<time>2010-07-18T10:26:33Z</time>
<desc>lat.=55.688572, lon.=26.466919, Alt.=137.181763m. Speed=13.752000m/h.</desc>
<speed>3.820000</speed>
</trkpt>
<trkpt lat="55.688534" lon="26.466925">
<ele>137.963013</ele>
<time>2010-07-18T10:26:34Z</time>
<desc>lat.=55.688534, lon.=26.466925, Alt.=137.963013m. Speed=16.020000m/h.</desc>
<speed>4.450000</speed>
</trkpt>
<trkpt lat="55.688488" lon="26.466927">
<ele>139.130981</ele>
<time>2010-07-18T10:26:35Z</time>
<desc>lat.=55.688488, lon.=26.466927, Alt.=139.130981m. Speed=15.732000m/h.</desc>
<speed>4.370000</speed>
</trkpt>
<trkpt lat="55.688446" lon="26.466946">
<ele>140.744263</ele>
<time>2010-07-18T10:26:36Z</time>
<desc>lat.=55.688446, lon.=26.466946, Alt.=140.744263m. Speed=16.488001m/h.</desc>
<speed>4.580000</speed>
</trkpt>
<trkpt lat="55.688404" lon="26.466967">
<ele>142.099731</ele>
<time>2010-07-18T10:26:37Z</time>
<desc>lat.=55.688404, lon.=26.466967, Alt.=142.099731m. Speed=16.379999m/h.</desc>
<speed>4.550000</speed>
</trkpt>
<trkpt lat="55.688362" lon="26.466990">
<ele>142.908325</ele>
<time>2010-07-18T10:26:38Z</time>
<desc>lat.=55.688362, lon.=26.466990, Alt.=142.908325m. Speed=15.984000m/h.</desc>
<speed>4.440000</speed>
</trkpt>
<trkpt lat="55.688320" lon="26.467012">
<ele>143.365356</ele>
<time>2010-07-18T10:26:39Z</time>
<desc>lat.=55.688320, lon.=26.467012, Alt.=143.365356m. Speed=15.876000m/h.</desc>
<speed>4.410000</speed>
</trkpt>
<trkpt lat="55.688278" lon="26.467041">
<ele>143.357544</ele>
<time>2010-07-18T10:26:40Z</time>
<desc>lat.=55.688278, lon.=26.467041, Alt.=143.357544m. Speed=17.388000m/h.</desc>
<speed>4.830000</speed>
</trkpt>
<trkpt lat="55.688232" lon="26.467073">
<ele>142.537231</ele>
<time>2010-07-18T10:26:41Z</time>
<desc>lat.=55.688232, lon.=26.467073, Alt.=142.537231m. Speed=16.344000m/h.</desc>
<speed>4.540000</speed>
</trkpt>
<trkpt lat="55.688198" lon="26.467112">
<ele>142.420044</ele>
<time>2010-07-18T10:26:42Z</time>
<desc>lat.=55.688198, lon.=26.467112, Alt.=142.420044m. Speed=16.308001m/h.</desc>
<speed>4.530000</speed>
</trkpt>
<trkpt lat="55.688164" lon="26.467148">
<ele>143.240356</ele>
<time>2010-07-18T10:26:43Z</time>
<desc>lat.=55.688164, lon.=26.467148, Alt.=143.240356m. Speed=15.768000m/h.</desc>
<speed>4.380000</speed>
</trkpt>
<trkpt lat="55.688137" lon="26.467188">
<ele>143.189575</ele>
<time>2010-07-18T10:26:44Z</time>
<desc>lat.=55.688137, lon.=26.467188, Alt.=143.189575m. Speed=15.084000m/h.</desc>
<speed>4.190000</speed>
</trkpt>
<trkpt lat="55.688107" lon="26.467236">
<ele>143.345825</ele>
<time>2010-07-18T10:26:45Z</time>
<desc>lat.=55.688107, lon.=26.467236, Alt.=143.345825m. Speed=16.308001m/h.</desc>
<speed>4.530000</speed>
</trkpt>
<trkpt lat="55.688076" lon="26.467289">
<ele>143.459106</ele>
<time>2010-07-18T10:26:46Z</time>
<desc>lat.=55.688076, lon.=26.467289, Alt.=143.459106m. Speed=16.344000m/h.</desc>
<speed>4.540000</speed>
</trkpt>
<trkpt lat="55.688049" lon="26.467339">
<ele>143.220825</ele>
<time>2010-07-18T10:26:47Z</time>
<desc>lat.=55.688049, lon.=26.467339, Alt.=143.220825m. Speed=16.271999m/h.</desc>
<speed>4.520000</speed>
</trkpt>
<trkpt lat="55.688023" lon="26.467394">
<ele>143.009888</ele>
<time>2010-07-18T10:26:48Z</time>
<desc>lat.=55.688023, lon.=26.467394, Alt.=143.009888m. Speed=15.984000m/h.</desc>
<speed>4.440000</speed>
</trkpt>
<trkpt lat="55.687996" lon="26.467449">
<ele>142.986450</ele>
<time>2010-07-18T10:26:49Z</time>
<desc>lat.=55.687996, lon.=26.467449, Alt.=142.986450m. Speed=15.696000m/h.</desc>
<speed>4.360000</speed>
</trkpt>
<trkpt lat="55.687969" lon="26.467499">
<ele>142.775513</ele>
<time>2010-07-18T10:26:50Z</time>
<desc>lat.=55.687969, lon.=26.467499, Alt.=142.775513m. Speed=14.544000m/h.</desc>
<speed>4.040000</speed>
</trkpt>
<trkpt lat="55.687943" lon="26.467550">
<ele>142.771606</ele>
<time>2010-07-18T10:26:51Z</time>
<desc>lat.=55.687943, lon.=26.467550, Alt.=142.771606m. Speed=14.616000m/h.</desc>
<speed>4.060000</speed>
</trkpt>
<trkpt lat="55.687920" lon="26.467600">
<ele>143.076294</ele>
<time>2010-07-18T10:26:52Z</time>
<desc>lat.=55.687920, lon.=26.467600, Alt.=143.076294m. Speed=14.328000m/h.</desc>
<speed>3.980000</speed>
</trkpt>
<trkpt lat="55.687897" lon="26.467649">
<ele>143.384888</ele>
<time>2010-07-18T10:26:53Z</time>
<desc>lat.=55.687897, lon.=26.467649, Alt.=143.384888m. Speed=14.436000m/h.</desc>
<speed>4.010000</speed>
</trkpt>
<trkpt lat="55.687874" lon="26.467697">
<ele>143.779419</ele>
<time>2010-07-18T10:26:54Z</time>
<desc>lat.=55.687874, lon.=26.467697, Alt.=143.779419m. Speed=14.796000m/h.</desc>
<speed>4.110000</speed>
</trkpt>
<trkpt lat="55.687851" lon="26.467751">
<ele>143.732544</ele>
<time>2010-07-18T10:26:55Z</time>
<desc>lat.=55.687851, lon.=26.467751, Alt.=143.732544m. Speed=14.940000m/h.</desc>
<speed>4.150000</speed>
</trkpt>
<trkpt lat="55.687828" lon="26.467810">
<ele>143.220825</ele>
<time>2010-07-18T10:26:56Z</time>
<desc>lat.=55.687828, lon.=26.467810, Alt.=143.220825m. Speed=14.904000m/h.</desc>
<speed>4.140000</speed>
</trkpt>
<trkpt lat="55.687805" lon="26.467857">
<ele>143.412231</ele>
<time>2010-07-18T10:26:57Z</time>
<desc>lat.=55.687805, lon.=26.467857, Alt.=143.412231m. Speed=14.760000m/h.</desc>
<speed>4.100000</speed>
</trkpt>
<trkpt lat="55.687782" lon="26.467907">
<ele>143.353638</ele>
<time>2010-07-18T10:26:58Z</time>
<desc>lat.=55.687782, lon.=26.467907, Alt.=143.353638m. Speed=14.292000m/h.</desc>
<speed>3.970000</speed>
</trkpt>
<trkpt lat="55.687759" lon="26.467962">
<ele>143.361450</ele>
<time>2010-07-18T10:26:59Z</time>
<desc>lat.=55.687759, lon.=26.467962, Alt.=143.361450m. Speed=14.832000m/h.</desc>
<speed>4.120000</speed>
</trkpt>
<trkpt lat="55.687737" lon="26.468018">
<ele>142.869263</ele>
<time>2010-07-18T10:27:00Z</time>
<desc>lat.=55.687737, lon.=26.468018, Alt.=142.869263m. Speed=15.516000m/h.</desc>
<speed>4.310000</speed>
</trkpt>
<trkpt lat="55.687710" lon="26.468071">
<ele>142.240356</ele>
<time>2010-07-18T10:27:01Z</time>
<desc>lat.=55.687710, lon.=26.468071, Alt.=142.240356m. Speed=15.912000m/h.</desc>
<speed>4.420000</speed>
</trkpt>
<trkpt lat="55.687683" lon="26.468126">
<ele>142.033325</ele>
<time>2010-07-18T10:27:02Z</time>
<desc>lat.=55.687683, lon.=26.468126, Alt.=142.033325m. Speed=15.984000m/h.</desc>
<speed>4.440000</speed>
</trkpt>
<trkpt lat="55.687660" lon="26.468185">
<ele>141.865356</ele>
<time>2010-07-18T10:27:03Z</time>
<desc>lat.=55.687660, lon.=26.468185, Alt.=141.865356m. Speed=15.372000m/h.</desc>
<speed>4.270000</speed>
</trkpt>
<trkpt lat="55.687630" lon="26.468235">
<ele>140.685669</ele>
<time>2010-07-18T10:27:04Z</time>
<desc>lat.=55.687630, lon.=26.468235, Alt.=140.685669m. Speed=15.804000m/h.</desc>
<speed>4.390000</speed>
</trkpt>
<trkpt lat="55.687607" lon="26.468292">
<ele>140.373169</ele>
<time>2010-07-18T10:27:05Z</time>
<desc>lat.=55.687607, lon.=26.468292, Alt.=140.373169m. Speed=16.091999m/h.</desc>
<speed>4.470000</speed>
</trkpt>
<trkpt lat="55.687572" lon="26.468344">
<ele>139.244263</ele>
<time>2010-07-18T10:27:06Z</time>
<desc>lat.=55.687572, lon.=26.468344, Alt.=139.244263m. Speed=16.379999m/h.</desc>
<speed>4.550000</speed>
</trkpt>
<trkpt lat="55.687542" lon="26.468397">
<ele>138.298950</ele>
<time>2010-07-18T10:27:07Z</time>
<desc>lat.=55.687542, lon.=26.468397, Alt.=138.298950m. Speed=16.416000m/h.</desc>
<speed>4.560000</speed>
</trkpt>
<trkpt lat="55.687515" lon="26.468460">
<ele>137.978638</ele>
<time>2010-07-18T10:27:08Z</time>
<desc>lat.=55.687515, lon.=26.468460, Alt.=137.978638m. Speed=15.948000m/h.</desc>
<speed>4.430000</speed>
</trkpt>
<trkpt lat="55.687492" lon="26.468519">
<ele>138.162231</ele>
<time>2010-07-18T10:27:09Z</time>
<desc>lat.=55.687492, lon.=26.468519, Alt.=138.162231m. Speed=16.271999m/h.</desc>
<speed>4.520000</speed>
</trkpt>
<trkpt lat="55.687466" lon="26.468580">
<ele>138.056763</ele>
<time>2010-07-18T10:27:10Z</time>
<desc>lat.=55.687466, lon.=26.468580, Alt.=138.056763m. Speed=17.063999m/h.</desc>
<speed>4.740000</speed>
</trkpt>
<trkpt lat="55.687435" lon="26.468641">
<ele>138.103638</ele>
<time>2010-07-18T10:27:11Z</time>
<desc>lat.=55.687435, lon.=26.468641, Alt.=138.103638m. Speed=17.100000m/h.</desc>
<speed>4.750000</speed>
</trkpt>
<trkpt lat="55.687408" lon="26.468712">
<ele>138.341919</ele>
<time>2010-07-18T10:27:12Z</time>
<desc>lat.=55.687408, lon.=26.468712, Alt.=138.341919m. Speed=17.856001m/h.</desc>
<speed>4.960000</speed>
</trkpt>
<trkpt lat="55.687386" lon="26.468782">
<ele>138.259888</ele>
<time>2010-07-18T10:27:13Z</time>
<desc>lat.=55.687386, lon.=26.468782, Alt.=138.259888m. Speed=17.028000m/h.</desc>
<speed>4.730000</speed>
</trkpt>
<trkpt lat="55.687359" lon="26.468847">
<ele>138.607544</ele>
<time>2010-07-18T10:27:14Z</time>
<desc>lat.=55.687359, lon.=26.468847, Alt.=138.607544m. Speed=17.964001m/h.</desc>
<speed>4.990000</speed>
</trkpt>
<trkpt lat="55.687332" lon="26.468914">
<ele>139.002075</ele>
<time>2010-07-18T10:27:15Z</time>
<desc>lat.=55.687332, lon.=26.468914, Alt.=139.002075m. Speed=17.243999m/h.</desc>
<speed>4.790000</speed>
</trkpt>
<trkpt lat="55.687309" lon="26.468979">
<ele>138.853638</ele>
<time>2010-07-18T10:27:16Z</time>
<desc>lat.=55.687309, lon.=26.468979, Alt.=138.853638m. Speed=16.812000m/h.</desc>
<speed>4.670000</speed>
</trkpt>
<trkpt lat="55.687286" lon="26.469044">
<ele>138.947388</ele>
<time>2010-07-18T10:27:17Z</time>
<desc>lat.=55.687286, lon.=26.469044, Alt.=138.947388m. Speed=18.000000m/h.</desc>
<speed>5.000000</speed>
</trkpt>
<trkpt lat="55.687267" lon="26.469112">
<ele>139.896606</ele>
<time>2010-07-18T10:27:18Z</time>
<desc>lat.=55.687267, lon.=26.469112, Alt.=139.896606m. Speed=17.388000m/h.</desc>
<speed>4.830000</speed>
</trkpt>
<trkpt lat="55.687241" lon="26.469175">
<ele>139.806763</ele>
<time>2010-07-18T10:27:19Z</time>
<desc>lat.=55.687241, lon.=26.469175, Alt.=139.806763m. Speed=16.920000m/h.</desc>
<speed>4.700000</speed>
</trkpt>
<trkpt lat="55.687214" lon="26.469234">
<ele>140.248169</ele>
<time>2010-07-18T10:27:20Z</time>
<desc>lat.=55.687214, lon.=26.469234, Alt.=140.248169m. Speed=17.568001m/h.</desc>
<speed>4.880000</speed>
</trkpt>
<trkpt lat="55.687187" lon="26.469297">
<ele>140.334106</ele>
<time>2010-07-18T10:27:21Z</time>
<desc>lat.=55.687187, lon.=26.469297, Alt.=140.334106m. Speed=17.316000m/h.</desc>
<speed>4.810000</speed>
</trkpt>
<trkpt lat="55.687153" lon="26.469357">
<ele>139.822388</ele>
<time>2010-07-18T10:27:22Z</time>
<desc>lat.=55.687153, lon.=26.469357, Alt.=139.822388m. Speed=16.596001m/h.</desc>
<speed>4.610000</speed>
</trkpt>
<trkpt lat="55.687130" lon="26.469418">
<ele>139.638794</ele>
<time>2010-07-18T10:27:23Z</time>
<desc>lat.=55.687130, lon.=26.469418, Alt.=139.638794m. Speed=16.596001m/h.</desc>
<speed>4.610000</speed>
</trkpt>
<trkpt lat="55.687111" lon="26.469481">
<ele>139.888794</ele>
<time>2010-07-18T10:27:24Z</time>
<desc>lat.=55.687111, lon.=26.469481, Alt.=139.888794m. Speed=15.876000m/h.</desc>
<speed>4.410000</speed>
</trkpt>
<trkpt lat="55.687088" lon="26.469536">
<ele>140.412231</ele>
<time>2010-07-18T10:27:25Z</time>
<desc>lat.=55.687088, lon.=26.469536, Alt.=140.412231m. Speed=16.379999m/h.</desc>
<speed>4.550000</speed>
</trkpt>
<trkpt lat="55.687065" lon="26.469595">
<ele>140.630981</ele>
<time>2010-07-18T10:27:26Z</time>
<desc>lat.=55.687065, lon.=26.469595, Alt.=140.630981m. Speed=16.740000m/h.</desc>
<speed>4.650000</speed>
</trkpt>
<trkpt lat="55.687042" lon="26.469656">
<ele>141.334106</ele>
<time>2010-07-18T10:27:27Z</time>
<desc>lat.=55.687042, lon.=26.469656, Alt.=141.334106m. Speed=17.243999m/h.</desc>
<speed>4.790000</speed>
</trkpt>
<trkpt lat="55.687019" lon="26.469721">
<ele>141.255981</ele>
<time>2010-07-18T10:27:28Z</time>
<desc>lat.=55.687019, lon.=26.469721, Alt.=141.255981m. Speed=17.208000m/h.</desc>
<speed>4.780000</speed>
</trkpt>
<trkpt lat="55.686993" lon="26.469782">
<ele>140.974731</ele>
<time>2010-07-18T10:27:29Z</time>
<desc>lat.=55.686993, lon.=26.469782, Alt.=140.974731m. Speed=16.308001m/h.</desc>
<speed>4.530000</speed>
</trkpt>
<trkpt lat="55.686970" lon="26.469837">
<ele>140.857544</ele>
<time>2010-07-18T10:27:30Z</time>
<desc>lat.=55.686970, lon.=26.469837, Alt.=140.857544m. Speed=15.804000m/h.</desc>
<speed>4.390000</speed>
</trkpt>
<trkpt lat="55.686947" lon="26.469894">
<ele>141.103638</ele>
<time>2010-07-18T10:27:31Z</time>
<desc>lat.=55.686947, lon.=26.469894, Alt.=141.103638m. Speed=15.264000m/h.</desc>
<speed>4.240000</speed>
</trkpt>
<trkpt lat="55.686928" lon="26.469954">
<ele>140.681763</ele>
<time>2010-07-18T10:27:32Z</time>
<desc>lat.=55.686928, lon.=26.469954, Alt.=140.681763m. Speed=14.904000m/h.</desc>
<speed>4.140000</speed>
</trkpt>
<trkpt lat="55.686909" lon="26.470015">
<ele>140.599731</ele>
<time>2010-07-18T10:27:33Z</time>
<desc>lat.=55.686909, lon.=26.470015, Alt.=140.599731m. Speed=14.004000m/h.</desc>
<speed>3.890000</speed>
</trkpt>
<trkpt lat="55.686890" lon="26.470064">
<ele>140.576294</ele>
<time>2010-07-18T10:27:34Z</time>
<desc>lat.=55.686890, lon.=26.470064, Alt.=140.576294m. Speed=13.104000m/h.</desc>
<speed>3.640000</speed>
</trkpt>
<trkpt lat="55.686867" lon="26.470102">
<ele>140.072388</ele>
<time>2010-07-18T10:27:35Z</time>
<desc>lat.=55.686867, lon.=26.470102, Alt.=140.072388m. Speed=12.744000m/h.</desc>
<speed>3.540000</speed>
</trkpt>
<trkpt lat="55.686844" lon="26.470148">
<ele>139.923950</ele>
<time>2010-07-18T10:27:36Z</time>
<desc>lat.=55.686844, lon.=26.470148, Alt.=139.923950m. Speed=13.464000m/h.</desc>
<speed>3.740000</speed>
</trkpt>
<trkpt lat="55.686825" lon="26.470200">
<ele>139.814575</ele>
<time>2010-07-18T10:27:37Z</time>
<desc>lat.=55.686825, lon.=26.470200, Alt.=139.814575m. Speed=14.040000m/h.</desc>
<speed>3.900000</speed>
</trkpt>
<trkpt lat="55.686802" lon="26.470253">
<ele>139.443481</ele>
<time>2010-07-18T10:27:38Z</time>
<desc>lat.=55.686802, lon.=26.470253, Alt.=139.443481m. Speed=15.084000m/h.</desc>
<speed>4.190000</speed>
</trkpt>
<trkpt lat="55.686775" lon="26.470306">
<ele>139.509888</ele>
<time>2010-07-18T10:27:39Z</time>
<desc>lat.=55.686775, lon.=26.470306, Alt.=139.509888m. Speed=15.840000m/h.</desc>
<speed>4.400000</speed>
</trkpt>
<trkpt lat="55.686756" lon="26.470366">
<ele>140.111450</ele>
<time>2010-07-18T10:27:40Z</time>
<desc>lat.=55.686756, lon.=26.470366, Alt.=140.111450m. Speed=15.480000m/h.</desc>
<speed>4.300000</speed>
</trkpt>
<trkpt lat="55.686733" lon="26.470417">
<ele>139.673950</ele>
<time>2010-07-18T10:27:41Z</time>
<desc>lat.=55.686733, lon.=26.470417, Alt.=139.673950m. Speed=14.364000m/h.</desc>
<speed>3.990000</speed>
</trkpt>
<trkpt lat="55.686707" lon="26.470467">
<ele>139.732544</ele>
<time>2010-07-18T10:27:42Z</time>
<desc>lat.=55.686707, lon.=26.470467, Alt.=139.732544m. Speed=13.932000m/h.</desc>
<speed>3.870000</speed>
</trkpt>
<trkpt lat="55.686684" lon="26.470514">
<ele>140.017700</ele>
<time>2010-07-18T10:27:43Z</time>
<desc>lat.=55.686684, lon.=26.470514, Alt.=140.017700m. Speed=14.508000m/h.</desc>
<speed>4.030000</speed>
</trkpt>
<trkpt lat="55.686661" lon="26.470568">
<ele>139.931763</ele>
<time>2010-07-18T10:27:44Z</time>
<desc>lat.=55.686661, lon.=26.470568, Alt.=139.931763m. Speed=15.336000m/h.</desc>
<speed>4.260000</speed>
</trkpt>
<trkpt lat="55.686638" lon="26.470625">
<ele>139.693481</ele>
<time>2010-07-18T10:27:45Z</time>
<desc>lat.=55.686638, lon.=26.470625, Alt.=139.693481m. Speed=16.200001m/h.</desc>
<speed>4.500000</speed>
</trkpt>
<trkpt lat="55.686619" lon="26.470684">
<ele>140.177856</ele>
<time>2010-07-18T10:27:46Z</time>
<desc>lat.=55.686619, lon.=26.470684, Alt.=140.177856m. Speed=15.696000m/h.</desc>
<speed>4.360000</speed>
</trkpt>
<trkpt lat="55.686592" lon="26.470743">
<ele>140.338013</ele>
<time>2010-07-18T10:27:47Z</time>
<desc>lat.=55.686592, lon.=26.470743, Alt.=140.338013m. Speed=14.976000m/h.</desc>
<speed>4.160000</speed>
</trkpt>
<trkpt lat="55.686569" lon="26.470795">
<ele>140.505981</ele>
<time>2010-07-18T10:27:48Z</time>
<desc>lat.=55.686569, lon.=26.470795, Alt.=140.505981m. Speed=14.400000m/h.</desc>
<speed>4.000000</speed>
</trkpt>
<trkpt lat="55.686546" lon="26.470848">
<ele>140.127075</ele>
<time>2010-07-18T10:27:49Z</time>
<desc>lat.=55.686546, lon.=26.470848, Alt.=140.127075m. Speed=14.400000m/h.</desc>
<speed>4.000000</speed>
</trkpt>
<trkpt lat="55.686520" lon="26.470900">
<ele>139.591919</ele>
<time>2010-07-18T10:27:50Z</time>
<desc>lat.=55.686520, lon.=26.470900, Alt.=139.591919m. Speed=15.372000m/h.</desc>
<speed>4.270000</speed>
</trkpt>
<trkpt lat="55.686497" lon="26.470957">
<ele>139.630981</ele>
<time>2010-07-18T10:27:51Z</time>
<desc>lat.=55.686497, lon.=26.470957, Alt.=139.630981m. Speed=16.164000m/h.</desc>
<speed>4.490000</speed>
</trkpt>
<trkpt lat="55.686474" lon="26.471012">
<ele>139.404419</ele>
<time>2010-07-18T10:27:52Z</time>
<desc>lat.=55.686474, lon.=26.471012, Alt.=139.404419m. Speed=16.667999m/h.</desc>
<speed>4.630000</speed>
</trkpt>
<trkpt lat="55.686451" lon="26.471069">
<ele>139.380981</ele>
<time>2010-07-18T10:27:53Z</time>
<desc>lat.=55.686451, lon.=26.471069, Alt.=139.380981m. Speed=15.984000m/h.</desc>
<speed>4.440000</speed>
</trkpt>
<trkpt lat="55.686428" lon="26.471127">
<ele>139.341919</ele>
<time>2010-07-18T10:27:54Z</time>
<desc>lat.=55.686428, lon.=26.471127, Alt.=139.341919m. Speed=15.948000m/h.</desc>
<speed>4.430000</speed>
</trkpt>
<trkpt lat="55.686398" lon="26.471182">
<ele>138.822388</ele>
<time>2010-07-18T10:27:55Z</time>
<desc>lat.=55.686398, lon.=26.471182, Alt.=138.822388m. Speed=16.884001m/h.</desc>
<speed>4.690000</speed>
</trkpt>
<trkpt lat="55.686371" lon="26.471241">
<ele>138.654419</ele>
<time>2010-07-18T10:27:56Z</time>
<desc>lat.=55.686371, lon.=26.471241, Alt.=138.654419m. Speed=17.208000m/h.</desc>
<speed>4.780000</speed>
</trkpt>
<trkpt lat="55.686344" lon="26.471296">
<ele>138.763794</ele>
<time>2010-07-18T10:27:57Z</time>
<desc>lat.=55.686344, lon.=26.471296, Alt.=138.763794m. Speed=16.667999m/h.</desc>
<speed>4.630000</speed>
</trkpt>
<trkpt lat="55.686321" lon="26.471357">
<ele>138.896606</ele>
<time>2010-07-18T10:27:58Z</time>
<desc>lat.=55.686321, lon.=26.471357, Alt.=138.896606m. Speed=16.091999m/h.</desc>
<speed>4.470000</speed>
</trkpt>
<trkpt lat="55.686291" lon="26.471413">
<ele>138.677856</ele>
<time>2010-07-18T10:27:59Z</time>
<desc>lat.=55.686291, lon.=26.471413, Alt.=138.677856m. Speed=15.768000m/h.</desc>
<speed>4.380000</speed>
</trkpt>
<trkpt lat="55.686268" lon="26.471468">
<ele>138.541138</ele>
<time>2010-07-18T10:28:00Z</time>
<desc>lat.=55.686268, lon.=26.471468, Alt.=138.541138m. Speed=16.524000m/h.</desc>
<speed>4.590000</speed>
</trkpt>
<trkpt lat="55.686241" lon="26.471527">
<ele>138.478638</ele>
<time>2010-07-18T10:28:01Z</time>
<desc>lat.=55.686241, lon.=26.471527, Alt.=138.478638m. Speed=17.316000m/h.</desc>
<speed>4.810000</speed>
</trkpt>
<trkpt lat="55.686214" lon="26.471590">
<ele>138.463013</ele>
<time>2010-07-18T10:28:02Z</time>
<desc>lat.=55.686214, lon.=26.471590, Alt.=138.463013m. Speed=17.568001m/h.</desc>
<speed>4.880000</speed>
</trkpt>
<trkpt lat="55.686195" lon="26.471661">
<ele>138.755981</ele>
<time>2010-07-18T10:28:03Z</time>
<desc>lat.=55.686195, lon.=26.471661, Alt.=138.755981m. Speed=17.063999m/h.</desc>
<speed>4.740000</speed>
</trkpt>
<trkpt lat="55.686169" lon="26.471724">
<ele>138.892700</ele>
<time>2010-07-18T10:28:04Z</time>
<desc>lat.=55.686169, lon.=26.471724, Alt.=138.892700m. Speed=16.775999m/h.</desc>
<speed>4.660000</speed>
</trkpt>
<trkpt lat="55.686146" lon="26.471785">
<ele>138.982544</ele>
<time>2010-07-18T10:28:05Z</time>
<desc>lat.=55.686146, lon.=26.471785, Alt.=138.982544m. Speed=16.308001m/h.</desc>
<speed>4.530000</speed>
</trkpt>
<trkpt lat="55.686115" lon="26.471844">
<ele>139.068481</ele>
<time>2010-07-18T10:28:06Z</time>
<desc>lat.=55.686115, lon.=26.471844, Alt.=139.068481m. Speed=16.271999m/h.</desc>
<speed>4.520000</speed>
</trkpt>
<trkpt lat="55.686089" lon="26.471905">
<ele>139.349731</ele>
<time>2010-07-18T10:28:07Z</time>
<desc>lat.=55.686089, lon.=26.471905, Alt.=139.349731m. Speed=17.100000m/h.</desc>
<speed>4.750000</speed>
</trkpt>
<trkpt lat="55.686058" lon="26.471958">
<ele>139.384888</ele>
<time>2010-07-18T10:28:08Z</time>
<desc>lat.=55.686058, lon.=26.471958, Alt.=139.384888m. Speed=16.596001m/h.</desc>
<speed>4.610000</speed>
</trkpt>
<trkpt lat="55.686031" lon="26.472015">
<ele>139.654419</ele>
<time>2010-07-18T10:28:09Z</time>
<desc>lat.=55.686031, lon.=26.472015, Alt.=139.654419m. Speed=15.552000m/h.</desc>
<speed>4.320000</speed>
</trkpt>
<trkpt lat="55.686001" lon="26.472061">
<ele>139.455200</ele>
<time>2010-07-18T10:28:10Z</time>
<desc>lat.=55.686001, lon.=26.472061, Alt.=139.455200m. Speed=14.904000m/h.</desc>
<speed>4.140000</speed>
</trkpt>
<trkpt lat="55.685974" lon="26.472103">
<ele>139.146606</ele>
<time>2010-07-18T10:28:11Z</time>
<desc>lat.=55.685974, lon.=26.472103, Alt.=139.146606m. Speed=15.048000m/h.</desc>
<speed>4.180000</speed>
</trkpt>
<trkpt lat="55.685940" lon="26.472149">
<ele>139.146606</ele>
<time>2010-07-18T10:28:12Z</time>
<desc>lat.=55.685940, lon.=26.472149, Alt.=139.146606m. Speed=16.020000m/h.</desc>
<speed>4.450000</speed>
</trkpt>
<trkpt lat="55.685909" lon="26.472202">
<ele>139.709106</ele>
<time>2010-07-18T10:28:13Z</time>
<desc>lat.=55.685909, lon.=26.472202, Alt.=139.709106m. Speed=17.172001m/h.</desc>
<speed>4.770000</speed>
</trkpt>
<trkpt lat="55.685871" lon="26.472250">
<ele>139.904419</ele>
<time>2010-07-18T10:28:14Z</time>
<desc>lat.=55.685871, lon.=26.472250, Alt.=139.904419m. Speed=16.596001m/h.</desc>
<speed>4.610000</speed>
</trkpt>
<trkpt lat="55.685833" lon="26.472286">
<ele>140.142700</ele>
<time>2010-07-18T10:28:15Z</time>
<desc>lat.=55.685833, lon.=26.472286, Alt.=140.142700m. Speed=16.200001m/h.</desc>
<speed>4.500000</speed>
</trkpt>
<trkpt lat="55.685799" lon="26.472322">
<ele>140.170044</ele>
<time>2010-07-18T10:28:16Z</time>
<desc>lat.=55.685799, lon.=26.472322, Alt.=140.170044m. Speed=15.660000m/h.</desc>
<speed>4.350000</speed>
</trkpt>
<trkpt lat="55.685764" lon="26.472357">
<ele>140.115356</ele>
<time>2010-07-18T10:28:17Z</time>
<desc>lat.=55.685764, lon.=26.472357, Alt.=140.115356m. Speed=15.480000m/h.</desc>
<speed>4.300000</speed>
</trkpt>
<trkpt lat="55.685730" lon="26.472385">
<ele>140.509888</ele>
<time>2010-07-18T10:28:18Z</time>
<desc>lat.=55.685730, lon.=26.472385, Alt.=140.509888m. Speed=15.444000m/h.</desc>
<speed>4.290000</speed>
</trkpt>
<trkpt lat="55.685696" lon="26.472412">
<ele>140.650513</ele>
<time>2010-07-18T10:28:19Z</time>
<desc>lat.=55.685696, lon.=26.472412, Alt.=140.650513m. Speed=16.128000m/h.</desc>
<speed>4.480000</speed>
</trkpt>
<trkpt lat="55.685658" lon="26.472441">
<ele>140.853638</ele>
<time>2010-07-18T10:28:20Z</time>
<desc>lat.=55.685658, lon.=26.472441, Alt.=140.853638m. Speed=16.992001m/h.</desc>
<speed>4.720000</speed>
</trkpt>
<trkpt lat="55.685619" lon="26.472464">
<ele>140.974731</ele>
<time>2010-07-18T10:28:21Z</time>
<desc>lat.=55.685619, lon.=26.472464, Alt.=140.974731m. Speed=17.639999m/h.</desc>
<speed>4.900000</speed>
</trkpt>
<trkpt lat="55.685574" lon="26.472479">
<ele>140.560669</ele>
<time>2010-07-18T10:28:22Z</time>
<desc>lat.=55.685574, lon.=26.472479, Alt.=140.560669m. Speed=16.812000m/h.</desc>
<speed>4.670000</speed>
</trkpt>
<trkpt lat="55.685535" lon="26.472488">
<ele>140.853638</ele>
<time>2010-07-18T10:28:23Z</time>
<desc>lat.=55.685535, lon.=26.472488, Alt.=140.853638m. Speed=15.984000m/h.</desc>
<speed>4.440000</speed>
</trkpt>
<trkpt lat="55.685497" lon="26.472504">
<ele>140.959106</ele>
<time>2010-07-18T10:28:24Z</time>
<desc>lat.=55.685497, lon.=26.472504, Alt.=140.959106m. Speed=15.768000m/h.</desc>
<speed>4.380000</speed>
</trkpt>
<trkpt lat="55.685459" lon="26.472519">
<ele>141.060669</ele>
<time>2010-07-18T10:28:25Z</time>
<desc>lat.=55.685459, lon.=26.472519, Alt.=141.060669m. Speed=15.696000m/h.</desc>
<speed>4.360000</speed>
</trkpt>
<trkpt lat="55.685421" lon="26.472528">
<ele>141.306763</ele>
<time>2010-07-18T10:28:26Z</time>
<desc>lat.=55.685421, lon.=26.472528, Alt.=141.306763m. Speed=14.796000m/h.</desc>
<speed>4.110000</speed>
</trkpt>
<trkpt lat="55.685387" lon="26.472536">
<ele>141.498169</ele>
<time>2010-07-18T10:28:27Z</time>
<desc>lat.=55.685387, lon.=26.472536, Alt.=141.498169m. Speed=13.752000m/h.</desc>
<speed>3.820000</speed>
</trkpt>
<trkpt lat="55.685352" lon="26.472542">
<ele>141.693481</ele>
<time>2010-07-18T10:28:28Z</time>
<desc>lat.=55.685352, lon.=26.472542, Alt.=141.693481m. Speed=13.644000m/h.</desc>
<speed>3.790000</speed>
</trkpt>
<trkpt lat="55.685322" lon="26.472548">
<ele>141.435669</ele>
<time>2010-07-18T10:28:29Z</time>
<desc>lat.=55.685322, lon.=26.472548, Alt.=141.435669m. Speed=13.608000m/h.</desc>
<speed>3.780000</speed>
</trkpt>
<trkpt lat="55.685287" lon="26.472555">
<ele>141.537231</ele>
<time>2010-07-18T10:28:30Z</time>
<desc>lat.=55.685287, lon.=26.472555, Alt.=141.537231m. Speed=13.680000m/h.</desc>
<speed>3.800000</speed>
</trkpt>
<trkpt lat="55.685253" lon="26.472565">
<ele>141.748169</ele>
<time>2010-07-18T10:28:31Z</time>
<desc>lat.=55.685253, lon.=26.472565, Alt.=141.748169m. Speed=13.752000m/h.</desc>
<speed>3.820000</speed>
</trkpt>
<trkpt lat="55.685215" lon="26.472580">
<ele>141.673950</ele>
<time>2010-07-18T10:28:32Z</time>
<desc>lat.=55.685215, lon.=26.472580, Alt.=141.673950m. Speed=14.040000m/h.</desc>
<speed>3.900000</speed>
</trkpt>
<trkpt lat="55.685181" lon="26.472591">
<ele>141.795044</ele>
<time>2010-07-18T10:28:33Z</time>
<desc>lat.=55.685181, lon.=26.472591, Alt.=141.795044m. Speed=14.256000m/h.</desc>
<speed>3.960000</speed>
</trkpt>
<trkpt lat="55.685146" lon="26.472595">
<ele>142.009888</ele>
<time>2010-07-18T10:28:34Z</time>
<desc>lat.=55.685146, lon.=26.472595, Alt.=142.009888m. Speed=13.500000m/h.</desc>
<speed>3.750000</speed>
</trkpt>
<trkpt lat="55.685108" lon="26.472601">
<ele>141.791138</ele>
<time>2010-07-18T10:28:35Z</time>
<desc>lat.=55.685108, lon.=26.472601, Alt.=141.791138m. Speed=13.248000m/h.</desc>
<speed>3.680000</speed>
</trkpt>
<trkpt lat="55.685074" lon="26.472612">
<ele>141.939575</ele>
<time>2010-07-18T10:28:36Z</time>
<desc>lat.=55.685074, lon.=26.472612, Alt.=141.939575m. Speed=13.968000m/h.</desc>
<speed>3.880000</speed>
</trkpt>
<trkpt lat="55.685040" lon="26.472624">
<ele>142.060669</ele>
<time>2010-07-18T10:28:37Z</time>
<desc>lat.=55.685040, lon.=26.472624, Alt.=142.060669m. Speed=14.652000m/h.</desc>
<speed>4.070000</speed>
</trkpt>
<trkpt lat="55.685005" lon="26.472631">
<ele>142.048950</ele>
<time>2010-07-18T10:28:38Z</time>
<desc>lat.=55.685005, lon.=26.472631, Alt.=142.048950m. Speed=14.616000m/h.</desc>
<speed>4.060000</speed>
</trkpt>
<trkpt lat="55.684967" lon="26.472639">
<ele>142.205200</ele>
<time>2010-07-18T10:28:39Z</time>
<desc>lat.=55.684967, lon.=26.472639, Alt.=142.205200m. Speed=14.292000m/h.</desc>
<speed>3.970000</speed>
</trkpt>
<trkpt lat="55.684933" lon="26.472658">
<ele>142.353638</ele>
<time>2010-07-18T10:28:40Z</time>
<desc>lat.=55.684933, lon.=26.472658, Alt.=142.353638m. Speed=13.932000m/h.</desc>
<speed>3.870000</speed>
</trkpt>
<trkpt lat="55.684898" lon="26.472670">
<ele>142.685669</ele>
<time>2010-07-18T10:28:41Z</time>
<desc>lat.=55.684898, lon.=26.472670, Alt.=142.685669m. Speed=14.004000m/h.</desc>
<speed>3.890000</speed>
</trkpt>
<trkpt lat="55.684864" lon="26.472675">
<ele>142.877075</ele>
<time>2010-07-18T10:28:42Z</time>
<desc>lat.=55.684864, lon.=26.472675, Alt.=142.877075m. Speed=13.860000m/h.</desc>
<speed>3.850000</speed>
</trkpt>
<trkpt lat="55.684834" lon="26.472687">
<ele>143.068481</ele>
<time>2010-07-18T10:28:43Z</time>
<desc>lat.=55.684834, lon.=26.472687, Alt.=143.068481m. Speed=13.860000m/h.</desc>
<speed>3.850000</speed>
</trkpt>
<trkpt lat="55.684799" lon="26.472698">
<ele>143.279419</ele>
<time>2010-07-18T10:28:44Z</time>
<desc>lat.=55.684799, lon.=26.472698, Alt.=143.279419m. Speed=14.004000m/h.</desc>
<speed>3.890000</speed>
</trkpt>
<trkpt lat="55.684765" lon="26.472710">
<ele>143.298950</ele>
<time>2010-07-18T10:28:45Z</time>
<desc>lat.=55.684765, lon.=26.472710, Alt.=143.298950m. Speed=14.544000m/h.</desc>
<speed>4.040000</speed>
</trkpt>
<trkpt lat="55.684731" lon="26.472719">
<ele>143.341919</ele>
<time>2010-07-18T10:28:46Z</time>
<desc>lat.=55.684731, lon.=26.472719, Alt.=143.341919m. Speed=14.616000m/h.</desc>
<speed>4.060000</speed>
</trkpt>
<trkpt lat="55.684696" lon="26.472736">
<ele>143.341919</ele>
<time>2010-07-18T10:28:47Z</time>
<desc>lat.=55.684696, lon.=26.472736, Alt.=143.341919m. Speed=14.940000m/h.</desc>
<speed>4.150000</speed>
</trkpt>
<trkpt lat="55.684662" lon="26.472746">
<ele>143.498169</ele>
<time>2010-07-18T10:28:48Z</time>
<desc>lat.=55.684662, lon.=26.472746, Alt.=143.498169m. Speed=15.516000m/h.</desc>
<speed>4.310000</speed>
</trkpt>
<trkpt lat="55.684620" lon="26.472759">
<ele>143.638794</ele>
<time>2010-07-18T10:28:49Z</time>
<desc>lat.=55.684620, lon.=26.472759, Alt.=143.638794m. Speed=15.876000m/h.</desc>
<speed>4.410000</speed>
</trkpt>
<trkpt lat="55.684582" lon="26.472773">
<ele>143.728638</ele>
<time>2010-07-18T10:28:50Z</time>
<desc>lat.=55.684582, lon.=26.472773, Alt.=143.728638m. Speed=16.308001m/h.</desc>
<speed>4.530000</speed>
</trkpt>
<trkpt lat="55.684540" lon="26.472784">
<ele>143.873169</ele>
<time>2010-07-18T10:28:51Z</time>
<desc>lat.=55.684540, lon.=26.472784, Alt.=143.873169m. Speed=16.524000m/h.</desc>
<speed>4.590000</speed>
</trkpt>
<trkpt lat="55.684498" lon="26.472799">
<ele>143.818481</ele>
<time>2010-07-18T10:28:52Z</time>
<desc>lat.=55.684498, lon.=26.472799, Alt.=143.818481m. Speed=16.992001m/h.</desc>
<speed>4.720000</speed>
</trkpt>
<trkpt lat="55.684460" lon="26.472815">
<ele>144.130981</ele>
<time>2010-07-18T10:28:53Z</time>
<desc>lat.=55.684460, lon.=26.472815, Alt.=144.130981m. Speed=17.532000m/h.</desc>
<speed>4.870000</speed>
</trkpt>
<trkpt lat="55.684414" lon="26.472824">
<ele>144.138794</ele>
<time>2010-07-18T10:28:54Z</time>
<desc>lat.=55.684414, lon.=26.472824, Alt.=144.138794m. Speed=17.892000m/h.</desc>
<speed>4.970000</speed>
</trkpt>
<trkpt lat="55.684368" lon="26.472837">
<ele>144.318481</ele>
<time>2010-07-18T10:28:55Z</time>
<desc>lat.=55.684368, lon.=26.472837, Alt.=144.318481m. Speed=18.431999m/h.</desc>
<speed>5.120000</speed>
</trkpt>
<trkpt lat="55.684322" lon="26.472858">
<ele>144.517700</ele>
<time>2010-07-18T10:28:56Z</time>
<desc>lat.=55.684322, lon.=26.472858, Alt.=144.517700m. Speed=18.972000m/h.</desc>
<speed>5.270000</speed>
</trkpt>
<trkpt lat="55.684273" lon="26.472879">
<ele>144.654419</ele>
<time>2010-07-18T10:28:57Z</time>
<desc>lat.=55.684273, lon.=26.472879, Alt.=144.654419m. Speed=19.728001m/h.</desc>
<speed>5.480000</speed>
</trkpt>
<trkpt lat="55.684227" lon="26.472898">
<ele>144.666138</ele>
<time>2010-07-18T10:28:58Z</time>
<desc>lat.=55.684227, lon.=26.472898, Alt.=144.666138m. Speed=19.044001m/h.</desc>
<speed>5.290000</speed>
</trkpt>
<trkpt lat="55.684181" lon="26.472918">
<ele>144.822388</ele>
<time>2010-07-18T10:28:59Z</time>
<desc>lat.=55.684181, lon.=26.472918, Alt.=144.822388m. Speed=18.396000m/h.</desc>
<speed>5.110000</speed>
</trkpt>
<trkpt lat="55.684135" lon="26.472942">
<ele>145.080200</ele>
<time>2010-07-18T10:29:00Z</time>
<desc>lat.=55.684135, lon.=26.472942, Alt.=145.080200m. Speed=18.756001m/h.</desc>
<speed>5.210000</speed>
</trkpt>
<trkpt lat="55.684093" lon="26.472975">
<ele>145.099731</ele>
<time>2010-07-18T10:29:01Z</time>
<desc>lat.=55.684093, lon.=26.472975, Alt.=145.099731m. Speed=18.684000m/h.</desc>
<speed>5.190000</speed>
</trkpt>
<trkpt lat="55.684052" lon="26.473007">
<ele>145.236450</ele>
<time>2010-07-18T10:29:02Z</time>
<desc>lat.=55.684052, lon.=26.473007, Alt.=145.236450m. Speed=17.532000m/h.</desc>
<speed>4.870000</speed>
</trkpt>
<trkpt lat="55.684010" lon="26.473038">
<ele>145.236450</ele>
<time>2010-07-18T10:29:03Z</time>
<desc>lat.=55.684010, lon.=26.473038, Alt.=145.236450m. Speed=17.028000m/h.</desc>
<speed>4.730000</speed>
</trkpt>
<trkpt lat="55.683971" lon="26.473068">
<ele>145.213013</ele>
<time>2010-07-18T10:29:04Z</time>
<desc>lat.=55.683971, lon.=26.473068, Alt.=145.213013m. Speed=17.532000m/h.</desc>
<speed>4.870000</speed>
</trkpt>
<trkpt lat="55.683929" lon="26.473101">
<ele>145.166138</ele>
<time>2010-07-18T10:29:05Z</time>
<desc>lat.=55.683929, lon.=26.473101, Alt.=145.166138m. Speed=17.964001m/h.</desc>
<speed>4.990000</speed>
</trkpt>
<trkpt lat="55.683887" lon="26.473139">
<ele>145.123169</ele>
<time>2010-07-18T10:29:06Z</time>
<desc>lat.=55.683887, lon.=26.473139, Alt.=145.123169m. Speed=18.719999m/h.</desc>
<speed>5.200000</speed>
</trkpt>
<trkpt lat="55.683849" lon="26.473185">
<ele>145.232544</ele>
<time>2010-07-18T10:29:07Z</time>
<desc>lat.=55.683849, lon.=26.473185, Alt.=145.232544m. Speed=19.332001m/h.</desc>
<speed>5.370000</speed>
</trkpt>
<trkpt lat="55.683811" lon="26.473234">
<ele>145.431763</ele>
<time>2010-07-18T10:29:08Z</time>
<desc>lat.=55.683811, lon.=26.473234, Alt.=145.431763m. Speed=18.252001m/h.</desc>
<speed>5.070000</speed>
</trkpt>
<trkpt lat="55.683777" lon="26.473286">
<ele>145.486450</ele>
<time>2010-07-18T10:29:09Z</time>
<desc>lat.=55.683777, lon.=26.473286, Alt.=145.486450m. Speed=17.604000m/h.</desc>
<speed>4.890000</speed>
</trkpt>
<trkpt lat="55.683739" lon="26.473335">
<ele>145.654419</ele>
<time>2010-07-18T10:29:10Z</time>
<desc>lat.=55.683739, lon.=26.473335, Alt.=145.654419m. Speed=16.992001m/h.</desc>
<speed>4.720000</speed>
</trkpt>
<trkpt lat="55.683712" lon="26.473387">
<ele>145.771606</ele>
<time>2010-07-18T10:29:11Z</time>
<desc>lat.=55.683712, lon.=26.473387, Alt.=145.771606m. Speed=16.632000m/h.</desc>
<speed>4.620000</speed>
</trkpt>
<trkpt lat="55.683689" lon="26.473452">
<ele>146.388794</ele>
<time>2010-07-18T10:29:12Z</time>
<desc>lat.=55.683689, lon.=26.473452, Alt.=146.388794m. Speed=16.884001m/h.</desc>
<speed>4.690000</speed>
</trkpt>
<trkpt lat="55.683666" lon="26.473509">
<ele>146.373169</ele>
<time>2010-07-18T10:29:13Z</time>
<desc>lat.=55.683666, lon.=26.473509, Alt.=146.373169m. Speed=16.559999m/h.</desc>
<speed>4.600000</speed>
</trkpt>
<trkpt lat="55.683647" lon="26.473568">
<ele>146.599731</ele>
<time>2010-07-18T10:29:14Z</time>
<desc>lat.=55.683647, lon.=26.473568, Alt.=146.599731m. Speed=15.732000m/h.</desc>
<speed>4.370000</speed>
</trkpt>
<trkpt lat="55.683628" lon="26.473625">
<ele>146.728638</ele>
<time>2010-07-18T10:29:15Z</time>
<desc>lat.=55.683628, lon.=26.473625, Alt.=146.728638m. Speed=15.156000m/h.</desc>
<speed>4.210000</speed>
</trkpt>
<trkpt lat="55.683605" lon="26.473679">
<ele>146.841919</ele>
<time>2010-07-18T10:29:16Z</time>
<desc>lat.=55.683605, lon.=26.473679, Alt.=146.841919m. Speed=15.264000m/h.</desc>
<speed>4.240000</speed>
</trkpt>
<trkpt lat="55.683586" lon="26.473734">
<ele>146.916138</ele>
<time>2010-07-18T10:29:17Z</time>
<desc>lat.=55.683586, lon.=26.473734, Alt.=146.916138m. Speed=15.588000m/h.</desc>
<speed>4.330000</speed>
</trkpt>
<trkpt lat="55.683567" lon="26.473795">
<ele>147.037231</ele>
<time>2010-07-18T10:29:18Z</time>
<desc>lat.=55.683567, lon.=26.473795, Alt.=147.037231m. Speed=15.912000m/h.</desc>
<speed>4.420000</speed>
</trkpt>
<trkpt lat="55.683544" lon="26.473854">
<ele>147.134888</ele>
<time>2010-07-18T10:29:19Z</time>
<desc>lat.=55.683544, lon.=26.473854, Alt.=147.134888m. Speed=15.624000m/h.</desc>
<speed>4.340000</speed>
</trkpt>
<trkpt lat="55.683525" lon="26.473907">
<ele>147.138794</ele>
<time>2010-07-18T10:29:20Z</time>
<desc>lat.=55.683525, lon.=26.473907, Alt.=147.138794m. Speed=14.940000m/h.</desc>
<speed>4.150000</speed>
</trkpt>
<trkpt lat="55.683510" lon="26.473963">
<ele>146.998169</ele>
<time>2010-07-18T10:29:21Z</time>
<desc>lat.=55.683510, lon.=26.473963, Alt.=146.998169m. Speed=14.868000m/h.</desc>
<speed>4.130000</speed>
</trkpt>
<trkpt lat="55.683495" lon="26.474020">
<ele>146.951294</ele>
<time>2010-07-18T10:29:22Z</time>
<desc>lat.=55.683495, lon.=26.474020, Alt.=146.951294m. Speed=15.156000m/h.</desc>
<speed>4.210000</speed>
</trkpt>
<trkpt lat="55.683475" lon="26.474079">
<ele>146.931763</ele>
<time>2010-07-18T10:29:23Z</time>
<desc>lat.=55.683475, lon.=26.474079, Alt.=146.931763m. Speed=15.624000m/h.</desc>
<speed>4.340000</speed>
</trkpt>
<trkpt lat="55.683460" lon="26.474140">
<ele>146.880981</ele>
<time>2010-07-18T10:29:24Z</time>
<desc>lat.=55.683460, lon.=26.474140, Alt.=146.880981m. Speed=15.516000m/h.</desc>
<speed>4.310000</speed>
</trkpt>
<trkpt lat="55.683445" lon="26.474199">
<ele>146.654419</ele>
<time>2010-07-18T10:29:25Z</time>
<desc>lat.=55.683445, lon.=26.474199, Alt.=146.654419m. Speed=14.400000m/h.</desc>
<speed>4.000000</speed>
</trkpt>
<trkpt lat="55.683434" lon="26.474257">
<ele>146.584106</ele>
<time>2010-07-18T10:29:26Z</time>
<desc>lat.=55.683434, lon.=26.474257, Alt.=146.584106m. Speed=13.716000m/h.</desc>
<speed>3.810000</speed>
</trkpt>
<trkpt lat="55.683418" lon="26.474308">
<ele>146.369263</ele>
<time>2010-07-18T10:29:27Z</time>
<desc>lat.=55.683418, lon.=26.474308, Alt.=146.369263m. Speed=14.292000m/h.</desc>
<speed>3.970000</speed>
</trkpt>
<trkpt lat="55.683399" lon="26.474360">
<ele>145.775513</ele>
<time>2010-07-18T10:29:28Z</time>
<desc>lat.=55.683399, lon.=26.474360, Alt.=145.775513m. Speed=14.472000m/h.</desc>
<speed>4.020000</speed>
</trkpt>
<trkpt lat="55.683384" lon="26.474419">
<ele>145.767700</ele>
<time>2010-07-18T10:29:29Z</time>
<desc>lat.=55.683384, lon.=26.474419, Alt.=145.767700m. Speed=14.220000m/h.</desc>
<speed>3.950000</speed>
</trkpt>
<trkpt lat="55.683369" lon="26.474476">
<ele>145.638794</ele>
<time>2010-07-18T10:29:30Z</time>
<desc>lat.=55.683369, lon.=26.474476, Alt.=145.638794m. Speed=14.436000m/h.</desc>
<speed>4.010000</speed>
</trkpt>
<trkpt lat="55.683353" lon="26.474537">
<ele>145.404419</ele>
<time>2010-07-18T10:29:31Z</time>
<desc>lat.=55.683353, lon.=26.474537, Alt.=145.404419m. Speed=15.012000m/h.</desc>
<speed>4.170000</speed>
</trkpt>
<trkpt lat="55.683338" lon="26.474594">
<ele>145.021606</ele>
<time>2010-07-18T10:29:32Z</time>
<desc>lat.=55.683338, lon.=26.474594, Alt.=145.021606m. Speed=15.588000m/h.</desc>
<speed>4.330000</speed>
</trkpt>
<trkpt lat="55.683327" lon="26.474661">
<ele>144.861450</ele>
<time>2010-07-18T10:29:33Z</time>
<desc>lat.=55.683327, lon.=26.474661, Alt.=144.861450m. Speed=15.840000m/h.</desc>
<speed>4.400000</speed>
</trkpt>
<trkpt lat="55.683311" lon="26.474730">
<ele>144.529419</ele>
<time>2010-07-18T10:29:34Z</time>
<desc>lat.=55.683311, lon.=26.474730, Alt.=144.529419m. Speed=15.624000m/h.</desc>
<speed>4.340000</speed>
</trkpt>
<trkpt lat="55.683300" lon="26.474789">
<ele>144.314575</ele>
<time>2010-07-18T10:29:35Z</time>
<desc>lat.=55.683300, lon.=26.474789, Alt.=144.314575m. Speed=15.876000m/h.</desc>
<speed>4.410000</speed>
</trkpt>
<trkpt lat="55.683289" lon="26.474852">
<ele>144.240356</ele>
<time>2010-07-18T10:29:36Z</time>
<desc>lat.=55.683289, lon.=26.474852, Alt.=144.240356m. Speed=15.156000m/h.</desc>
<speed>4.210000</speed>
</trkpt>
<trkpt lat="55.683277" lon="26.474916">
<ele>144.127075</ele>
<time>2010-07-18T10:29:37Z</time>
<desc>lat.=55.683277, lon.=26.474916, Alt.=144.127075m. Speed=14.832000m/h.</desc>
<speed>4.120000</speed>
</trkpt>
<trkpt lat="55.683266" lon="26.474977">
<ele>144.048950</ele>
<time>2010-07-18T10:29:38Z</time>
<desc>lat.=55.683266, lon.=26.474977, Alt.=144.048950m. Speed=14.076000m/h.</desc>
<speed>3.910000</speed>
</trkpt>
<trkpt lat="55.683250" lon="26.475031">
<ele>144.080200</ele>
<time>2010-07-18T10:29:39Z</time>
<desc>lat.=55.683250, lon.=26.475031, Alt.=144.080200m. Speed=14.220000m/h.</desc>
<speed>3.950000</speed>
</trkpt>
<trkpt lat="55.683243" lon="26.475096">
<ele>144.263794</ele>
<time>2010-07-18T10:29:40Z</time>
<desc>lat.=55.683243, lon.=26.475096, Alt.=144.263794m. Speed=13.932000m/h.</desc>
<speed>3.870000</speed>
</trkpt>
<trkpt lat="55.683235" lon="26.475159">
<ele>143.857544</ele>
<time>2010-07-18T10:29:41Z</time>
<desc>lat.=55.683235, lon.=26.475159, Alt.=143.857544m. Speed=14.688000m/h.</desc>
<speed>4.080000</speed>
</trkpt>
<trkpt lat="55.683231" lon="26.475222">
<ele>144.205200</ele>
<time>2010-07-18T10:29:42Z</time>
<desc>lat.=55.683231, lon.=26.475222, Alt.=144.205200m. Speed=15.084000m/h.</desc>
<speed>4.190000</speed>
</trkpt>
<trkpt lat="55.683228" lon="26.475279">
<ele>145.400513</ele>
<time>2010-07-18T10:29:43Z</time>
<desc>lat.=55.683228, lon.=26.475279, Alt.=145.400513m. Speed=15.048000m/h.</desc>
<speed>4.180000</speed>
</trkpt>
<trkpt lat="55.683216" lon="26.475344">
<ele>145.088013</ele>
<time>2010-07-18T10:29:44Z</time>
<desc>lat.=55.683216, lon.=26.475344, Alt.=145.088013m. Speed=14.940000m/h.</desc>
<speed>4.150000</speed>
</trkpt>
<trkpt lat="55.683208" lon="26.475409">
<ele>144.615356</ele>
<time>2010-07-18T10:29:45Z</time>
<desc>lat.=55.683208, lon.=26.475409, Alt.=144.615356m. Speed=15.840000m/h.</desc>
<speed>4.400000</speed>
</trkpt>
<trkpt lat="55.683197" lon="26.475479">
<ele>144.220825</ele>
<time>2010-07-18T10:29:46Z</time>
<desc>lat.=55.683197, lon.=26.475479, Alt.=144.220825m. Speed=15.912000m/h.</desc>
<speed>4.420000</speed>
</trkpt>
<trkpt lat="55.683186" lon="26.475550">
<ele>143.377075</ele>
<time>2010-07-18T10:29:47Z</time>
<desc>lat.=55.683186, lon.=26.475550, Alt.=143.377075m. Speed=15.624000m/h.</desc>
<speed>4.340000</speed>
</trkpt>
<trkpt lat="55.683174" lon="26.475622">
<ele>142.412231</ele>
<time>2010-07-18T10:29:48Z</time>
<desc>lat.=55.683174, lon.=26.475622, Alt.=142.412231m. Speed=15.876000m/h.</desc>
<speed>4.410000</speed>
</trkpt>
<trkpt lat="55.683170" lon="26.475693">
<ele>142.134888</ele>
<time>2010-07-18T10:29:49Z</time>
<desc>lat.=55.683170, lon.=26.475693, Alt.=142.134888m. Speed=16.632000m/h.</desc>
<speed>4.620000</speed>
</trkpt>
<trkpt lat="55.683163" lon="26.475769">
<ele>141.845825</ele>
<time>2010-07-18T10:29:50Z</time>
<desc>lat.=55.683163, lon.=26.475769, Alt.=141.845825m. Speed=17.063999m/h.</desc>
<speed>4.740000</speed>
</trkpt>
<trkpt lat="55.683155" lon="26.475845">
<ele>141.666138</ele>
<time>2010-07-18T10:29:51Z</time>
<desc>lat.=55.683155, lon.=26.475845, Alt.=141.666138m. Speed=16.452000m/h.</desc>
<speed>4.570000</speed>
</trkpt>
<trkpt lat="55.683147" lon="26.475924">
<ele>141.345825</ele>
<time>2010-07-18T10:29:52Z</time>
<desc>lat.=55.683147, lon.=26.475924, Alt.=141.345825m. Speed=17.459999m/h.</desc>
<speed>4.850000</speed>
</trkpt>
<trkpt lat="55.683140" lon="26.476002">
<ele>141.584106</ele>
<time>2010-07-18T10:29:53Z</time>
<desc>lat.=55.683140, lon.=26.476002, Alt.=141.584106m. Speed=18.072001m/h.</desc>
<speed>5.020000</speed>
</trkpt>
<trkpt lat="55.683132" lon="26.476074">
<ele>141.455200</ele>
<time>2010-07-18T10:29:54Z</time>
<desc>lat.=55.683132, lon.=26.476074, Alt.=141.455200m. Speed=17.820000m/h.</desc>
<speed>4.950000</speed>
</trkpt>
<trkpt lat="55.683128" lon="26.476147">
<ele>142.138794</ele>
<time>2010-07-18T10:29:55Z</time>
<desc>lat.=55.683128, lon.=26.476147, Alt.=142.138794m. Speed=17.351999m/h.</desc>
<speed>4.820000</speed>
</trkpt>
<trkpt lat="55.683121" lon="26.476225">
<ele>142.416138</ele>
<time>2010-07-18T10:29:56Z</time>
<desc>lat.=55.683121, lon.=26.476225, Alt.=142.416138m. Speed=17.784000m/h.</desc>
<speed>4.940000</speed>
</trkpt>
<trkpt lat="55.683117" lon="26.476301">
<ele>143.091919</ele>
<time>2010-07-18T10:29:57Z</time>
<desc>lat.=55.683117, lon.=26.476301, Alt.=143.091919m. Speed=18.431999m/h.</desc>
<speed>5.120000</speed>
</trkpt>
<trkpt lat="55.683105" lon="26.476389">
<ele>142.502075</ele>
<time>2010-07-18T10:29:58Z</time>
<desc>lat.=55.683105, lon.=26.476389, Alt.=142.502075m. Speed=18.108000m/h.</desc>
<speed>5.030000</speed>
</trkpt>
<trkpt lat="55.683098" lon="26.476469">
<ele>142.283325</ele>
<time>2010-07-18T10:29:59Z</time>
<desc>lat.=55.683098, lon.=26.476469, Alt.=142.283325m. Speed=17.892000m/h.</desc>
<speed>4.970000</speed>
</trkpt>
<trkpt lat="55.683086" lon="26.476547">
<ele>141.947388</ele>
<time>2010-07-18T10:30:00Z</time>
<desc>lat.=55.683086, lon.=26.476547, Alt.=141.947388m. Speed=18.216000m/h.</desc>
<speed>5.060000</speed>
</trkpt>
<trkpt lat="55.683079" lon="26.476629">
<ele>141.935669</ele>
<time>2010-07-18T10:30:01Z</time>
<desc>lat.=55.683079, lon.=26.476629, Alt.=141.935669m. Speed=18.684000m/h.</desc>
<speed>5.190000</speed>
</trkpt>
<trkpt lat="55.683067" lon="26.476709">
<ele>141.849731</ele>
<time>2010-07-18T10:30:02Z</time>
<desc>lat.=55.683067, lon.=26.476709, Alt.=141.849731m. Speed=18.540001m/h.</desc>
<speed>5.150000</speed>
</trkpt>
<trkpt lat="55.683060" lon="26.476789">
<ele>141.720825</ele>
<time>2010-07-18T10:30:03Z</time>
<desc>lat.=55.683060, lon.=26.476789, Alt.=141.720825m. Speed=18.684000m/h.</desc>
<speed>5.190000</speed>
</trkpt>
<trkpt lat="55.683052" lon="26.476871">
<ele>141.189575</ele>
<time>2010-07-18T10:30:04Z</time>
<desc>lat.=55.683052, lon.=26.476871, Alt.=141.189575m. Speed=18.900000m/h.</desc>
<speed>5.250000</speed>
</trkpt>
<trkpt lat="55.683044" lon="26.476955">
<ele>141.127075</ele>
<time>2010-07-18T10:30:05Z</time>
<desc>lat.=55.683044, lon.=26.476955, Alt.=141.127075m. Speed=18.972000m/h.</desc>
<speed>5.270000</speed>
</trkpt>
<trkpt lat="55.683033" lon="26.477041">
<ele>140.451294</ele>
<time>2010-07-18T10:30:06Z</time>
<desc>lat.=55.683033, lon.=26.477041, Alt.=140.451294m. Speed=19.511999m/h.</desc>
<speed>5.420000</speed>
</trkpt>
<trkpt lat="55.683029" lon="26.477123">
<ele>140.474731</ele>
<time>2010-07-18T10:30:07Z</time>
<desc>lat.=55.683029, lon.=26.477123, Alt.=140.474731m. Speed=19.691999m/h.</desc>
<speed>5.470000</speed>
</trkpt>
<trkpt lat="55.683018" lon="26.477211">
<ele>139.798950</ele>
<time>2010-07-18T10:30:08Z</time>
<desc>lat.=55.683018, lon.=26.477211, Alt.=139.798950m. Speed=20.160000m/h.</desc>
<speed>5.600000</speed>
</trkpt>
<trkpt lat="55.683014" lon="26.477299">
<ele>139.912231</ele>
<time>2010-07-18T10:30:09Z</time>
<desc>lat.=55.683014, lon.=26.477299, Alt.=139.912231m. Speed=20.340000m/h.</desc>
<speed>5.650000</speed>
</trkpt>
<trkpt lat="55.683002" lon="26.477390">
<ele>139.591919</ele>
<time>2010-07-18T10:30:10Z</time>
<desc>lat.=55.683002, lon.=26.477390, Alt.=139.591919m. Speed=20.628000m/h.</desc>
<speed>5.730000</speed>
</trkpt>
<trkpt lat="55.682995" lon="26.477480">
<ele>139.572388</ele>
<time>2010-07-18T10:30:11Z</time>
<desc>lat.=55.682995, lon.=26.477480, Alt.=139.572388m. Speed=20.771999m/h.</desc>
<speed>5.770000</speed>
</trkpt>
<trkpt lat="55.682987" lon="26.477568">
<ele>139.541138</ele>
<time>2010-07-18T10:30:12Z</time>
<desc>lat.=55.682987, lon.=26.477568, Alt.=139.541138m. Speed=21.275999m/h.</desc>
<speed>5.910000</speed>
</trkpt>
<trkpt lat="55.682976" lon="26.477663">
<ele>139.209106</ele>
<time>2010-07-18T10:30:13Z</time>
<desc>lat.=55.682976, lon.=26.477663, Alt.=139.209106m. Speed=21.348000m/h.</desc>
<speed>5.930000</speed>
</trkpt>
<trkpt lat="55.682972" lon="26.477755">
<ele>139.267700</ele>
<time>2010-07-18T10:30:14Z</time>
<desc>lat.=55.682972, lon.=26.477755, Alt.=139.267700m. Speed=21.240000m/h.</desc>
<speed>5.900000</speed>
</trkpt>
<trkpt lat="55.682961" lon="26.477854">
<ele>138.779419</ele>
<time>2010-07-18T10:30:15Z</time>
<desc>lat.=55.682961, lon.=26.477854, Alt.=138.779419m. Speed=21.600000m/h.</desc>
<speed>6.000000</speed>
</trkpt>
<trkpt lat="55.682953" lon="26.477945">
<ele>139.064575</ele>
<time>2010-07-18T10:30:16Z</time>
<desc>lat.=55.682953, lon.=26.477945, Alt.=139.064575m. Speed=21.420000m/h.</desc>
<speed>5.950000</speed>
</trkpt>
<trkpt lat="55.682941" lon="26.478035">
<ele>139.603638</ele>
<time>2010-07-18T10:30:17Z</time>
<desc>lat.=55.682941, lon.=26.478035, Alt.=139.603638m. Speed=21.096001m/h.</desc>
<speed>5.860000</speed>
</trkpt>
<trkpt lat="55.682930" lon="26.478123">
<ele>140.205200</ele>
<time>2010-07-18T10:30:18Z</time>
<desc>lat.=55.682930, lon.=26.478123, Alt.=140.205200m. Speed=21.312000m/h.</desc>
<speed>5.920000</speed>
</trkpt>
<trkpt lat="55.682919" lon="26.478216">
<ele>140.248169</ele>
<time>2010-07-18T10:30:19Z</time>
<desc>lat.=55.682919, lon.=26.478216, Alt.=140.248169m. Speed=22.212000m/h.</desc>
<speed>6.170000</speed>
</trkpt>
<trkpt lat="55.682911" lon="26.478315">
<ele>140.259888</ele>
<time>2010-07-18T10:30:20Z</time>
<desc>lat.=55.682911, lon.=26.478315, Alt.=140.259888m. Speed=21.743999m/h.</desc>
<speed>6.040000</speed>
</trkpt>
<trkpt lat="55.682899" lon="26.478411">
<ele>140.213013</ele>
<time>2010-07-18T10:30:21Z</time>
<desc>lat.=55.682899, lon.=26.478411, Alt.=140.213013m. Speed=20.916000m/h.</desc>
<speed>5.810000</speed>
</trkpt>
<trkpt lat="55.682888" lon="26.478502">
<ele>139.998169</ele>
<time>2010-07-18T10:30:22Z</time>
<desc>lat.=55.682888, lon.=26.478502, Alt.=139.998169m. Speed=20.808001m/h.</desc>
<speed>5.780000</speed>
</trkpt>
<trkpt lat="55.682877" lon="26.478590">
<ele>140.310669</ele>
<time>2010-07-18T10:30:23Z</time>
<desc>lat.=55.682877, lon.=26.478590, Alt.=140.310669m. Speed=19.620001m/h.</desc>
<speed>5.450000</speed>
</trkpt>
<trkpt lat="55.682869" lon="26.478674">
<ele>140.744263</ele>
<time>2010-07-18T10:30:24Z</time>
<desc>lat.=55.682869, lon.=26.478674, Alt.=140.744263m. Speed=19.403999m/h.</desc>
<speed>5.390000</speed>
</trkpt>
<trkpt lat="55.682861" lon="26.478754">
<ele>140.935669</ele>
<time>2010-07-18T10:30:25Z</time>
<desc>lat.=55.682861, lon.=26.478754, Alt.=140.935669m. Speed=18.108000m/h.</desc>
<speed>5.030000</speed>
</trkpt>
<trkpt lat="55.682861" lon="26.478834">
<ele>141.423950</ele>
<time>2010-07-18T10:30:26Z</time>
<desc>lat.=55.682861, lon.=26.478834, Alt.=141.423950m. Speed=17.136000m/h.</desc>
<speed>4.760000</speed>
</trkpt>
<trkpt lat="55.682850" lon="26.478916">
<ele>141.412231</ele>
<time>2010-07-18T10:30:27Z</time>
<desc>lat.=55.682850, lon.=26.478916, Alt.=141.412231m. Speed=17.712000m/h.</desc>
<speed>4.920000</speed>
</trkpt>
<trkpt lat="55.682835" lon="26.478996">
<ele>141.275513</ele>
<time>2010-07-18T10:30:28Z</time>
<desc>lat.=55.682835, lon.=26.478996, Alt.=141.275513m. Speed=16.955999m/h.</desc>
<speed>4.710000</speed>
</trkpt>
<trkpt lat="55.682827" lon="26.479071">
<ele>141.513794</ele>
<time>2010-07-18T10:30:29Z</time>
<desc>lat.=55.682827, lon.=26.479071, Alt.=141.513794m. Speed=16.091999m/h.</desc>
<speed>4.470000</speed>
</trkpt>
<trkpt lat="55.682823" lon="26.479136">
<ele>141.826294</ele>
<time>2010-07-18T10:30:30Z</time>
<desc>lat.=55.682823, lon.=26.479136, Alt.=141.826294m. Speed=12.348000m/h.</desc>
<speed>3.430000</speed>
</trkpt>
<trkpt lat="55.682823" lon="26.479197">
<ele>142.170044</ele>
<time>2010-07-18T10:30:31Z</time>
<desc>lat.=55.682823, lon.=26.479197, Alt.=142.170044m. Speed=12.708000m/h.</desc>
<speed>3.530000</speed>
</trkpt>
<trkpt lat="55.682823" lon="26.479263">
<ele>142.404419</ele>
<time>2010-07-18T10:30:32Z</time>
<desc>lat.=55.682823, lon.=26.479263, Alt.=142.404419m. Speed=14.940000m/h.</desc>
<speed>4.150000</speed>
</trkpt>
<trkpt lat="55.682827" lon="26.479326">
<ele>142.666138</ele>
<time>2010-07-18T10:30:33Z</time>
<desc>lat.=55.682827, lon.=26.479326, Alt.=142.666138m. Speed=13.176000m/h.</desc>
<speed>3.660000</speed>
</trkpt>
<trkpt lat="55.682823" lon="26.479401">
<ele>142.853638</ele>
<time>2010-07-18T10:30:34Z</time>
<desc>lat.=55.682823, lon.=26.479401, Alt.=142.853638m. Speed=14.148000m/h.</desc>
<speed>3.930000</speed>
</trkpt>
<trkpt lat="55.682823" lon="26.479477">
<ele>143.338013</ele>
<time>2010-07-18T10:30:35Z</time>
<desc>lat.=55.682823, lon.=26.479477, Alt.=143.338013m. Speed=14.544000m/h.</desc>
<speed>4.040000</speed>
</trkpt>
<trkpt lat="55.682816" lon="26.479548">
<ele>143.646606</ele>
<time>2010-07-18T10:30:36Z</time>
<desc>lat.=55.682816, lon.=26.479548, Alt.=143.646606m. Speed=13.536000m/h.</desc>
<speed>3.760000</speed>
</trkpt>
<trkpt lat="55.682816" lon="26.479620">
<ele>144.189575</ele>
<time>2010-07-18T10:30:37Z</time>
<desc>lat.=55.682816, lon.=26.479620, Alt.=144.189575m. Speed=13.824000m/h.</desc>
<speed>3.840000</speed>
</trkpt>
<trkpt lat="55.682816" lon="26.479689">
<ele>144.443481</ele>
<time>2010-07-18T10:30:38Z</time>
<desc>lat.=55.682816, lon.=26.479689, Alt.=144.443481m. Speed=13.860000m/h.</desc>
<speed>3.850000</speed>
</trkpt>
<trkpt lat="55.682823" lon="26.479757">
<ele>144.935669</ele>
<time>2010-07-18T10:30:39Z</time>
<desc>lat.=55.682823, lon.=26.479757, Alt.=144.935669m. Speed=14.220000m/h.</desc>
<speed>3.950000</speed>
</trkpt>
<trkpt lat="55.682831" lon="26.479820">
<ele>145.353638</ele>
<time>2010-07-18T10:30:40Z</time>
<desc>lat.=55.682831, lon.=26.479820, Alt.=145.353638m. Speed=14.472000m/h.</desc>
<speed>4.020000</speed>
</trkpt>
<trkpt lat="55.682838" lon="26.479893">
<ele>145.865356</ele>
<time>2010-07-18T10:30:41Z</time>
<desc>lat.=55.682838, lon.=26.479893, Alt.=145.865356m. Speed=14.904000m/h.</desc>
<speed>4.140000</speed>
</trkpt>
<trkpt lat="55.682842" lon="26.479959">
<ele>146.349731</ele>
<time>2010-07-18T10:30:42Z</time>
<desc>lat.=55.682842, lon.=26.479959, Alt.=146.349731m. Speed=13.536000m/h.</desc>
<speed>3.760000</speed>
</trkpt>
<trkpt lat="55.682838" lon="26.480032">
<ele>146.791138</ele>
<time>2010-07-18T10:30:43Z</time>
<desc>lat.=55.682838, lon.=26.480032, Alt.=146.791138m. Speed=13.068000m/h.</desc>
<speed>3.630000</speed>
</trkpt>
<trkpt lat="55.682835" lon="26.480099">
<ele>147.248169</ele>
<time>2010-07-18T10:30:44Z</time>
<desc>lat.=55.682835, lon.=26.480099, Alt.=147.248169m. Speed=12.096000m/h.</desc>
<speed>3.360000</speed>
</trkpt>
<trkpt lat="55.682835" lon="26.480171">
<ele>147.658325</ele>
<time>2010-07-18T10:30:45Z</time>
<desc>lat.=55.682835, lon.=26.480171, Alt.=147.658325m. Speed=13.860000m/h.</desc>
<speed>3.850000</speed>
</trkpt>
<trkpt lat="55.682816" lon="26.480244">
<ele>148.588013</ele>
<time>2010-07-18T10:30:46Z</time>
<desc>lat.=55.682816, lon.=26.480244, Alt.=148.588013m. Speed=14.148000m/h.</desc>
<speed>3.930000</speed>
</trkpt>
<trkpt lat="55.682804" lon="26.480328">
<ele>149.322388</ele>
<time>2010-07-18T10:30:47Z</time>
<desc>lat.=55.682804, lon.=26.480328, Alt.=149.322388m. Speed=14.580000m/h.</desc>
<speed>4.050000</speed>
</trkpt>
<trkpt lat="55.682800" lon="26.480398">
<ele>149.767700</ele>
<time>2010-07-18T10:30:48Z</time>
<desc>lat.=55.682800, lon.=26.480398, Alt.=149.767700m. Speed=14.004000m/h.</desc>
<speed>3.890000</speed>
</trkpt>
<trkpt lat="55.682800" lon="26.480469">
<ele>150.287231</ele>
<time>2010-07-18T10:30:49Z</time>
<desc>lat.=55.682800, lon.=26.480469, Alt.=150.287231m. Speed=12.888000m/h.</desc>
<speed>3.580000</speed>
</trkpt>
<trkpt lat="55.682793" lon="26.480541">
<ele>151.283325</ele>
<time>2010-07-18T10:30:50Z</time>
<desc>lat.=55.682793, lon.=26.480541, Alt.=151.283325m. Speed=13.464000m/h.</desc>
<speed>3.740000</speed>
</trkpt>
<trkpt lat="55.682789" lon="26.480621">
<ele>152.283325</ele>
<time>2010-07-18T10:30:51Z</time>
<desc>lat.=55.682789, lon.=26.480621, Alt.=152.283325m. Speed=15.696000m/h.</desc>
<speed>4.360000</speed>
</trkpt>
<trkpt lat="55.682781" lon="26.480703">
<ele>153.263794</ele>
<time>2010-07-18T10:30:52Z</time>
<desc>lat.=55.682781, lon.=26.480703, Alt.=153.263794m. Speed=15.552000m/h.</desc>
<speed>4.320000</speed>
</trkpt>
<trkpt lat="55.682774" lon="26.480801">
<ele>153.752075</ele>
<time>2010-07-18T10:30:53Z</time>
<desc>lat.=55.682774, lon.=26.480801, Alt.=153.752075m. Speed=17.243999m/h.</desc>
<speed>4.790000</speed>
</trkpt>
<trkpt lat="55.682777" lon="26.480898">
<ele>154.021606</ele>
<time>2010-07-18T10:30:54Z</time>
<desc>lat.=55.682777, lon.=26.480898, Alt.=154.021606m. Speed=18.756001m/h.</desc>
<speed>5.210000</speed>
</trkpt>
<trkpt lat="55.682781" lon="26.480988">
<ele>154.170044</ele>
<time>2010-07-18T10:30:55Z</time>
<desc>lat.=55.682781, lon.=26.480988, Alt.=154.170044m. Speed=18.360001m/h.</desc>
<speed>5.100000</speed>
</trkpt>
<trkpt lat="55.682785" lon="26.481079">
<ele>154.091919</ele>
<time>2010-07-18T10:30:56Z</time>
<desc>lat.=55.682785, lon.=26.481079, Alt.=154.091919m. Speed=19.080000m/h.</desc>
<speed>5.300000</speed>
</trkpt>
<trkpt lat="55.682781" lon="26.481171">
<ele>154.560669</ele>
<time>2010-07-18T10:30:57Z</time>
<desc>lat.=55.682781, lon.=26.481171, Alt.=154.560669m. Speed=19.044001m/h.</desc>
<speed>5.290000</speed>
</trkpt>
<trkpt lat="55.682777" lon="26.481272">
<ele>154.795044</ele>
<time>2010-07-18T10:30:58Z</time>
<desc>lat.=55.682777, lon.=26.481272, Alt.=154.795044m. Speed=19.728001m/h.</desc>
<speed>5.480000</speed>
</trkpt>
<trkpt lat="55.682777" lon="26.481369">
<ele>155.099731</ele>
<time>2010-07-18T10:30:59Z</time>
<desc>lat.=55.682777, lon.=26.481369, Alt.=155.099731m. Speed=20.304001m/h.</desc>
<speed>5.640000</speed>
</trkpt>
<trkpt lat="55.682785" lon="26.481461">
<ele>155.127075</ele>
<time>2010-07-18T10:31:00Z</time>
<desc>lat.=55.682785, lon.=26.481461, Alt.=155.127075m. Speed=20.087999m/h.</desc>
<speed>5.580000</speed>
</trkpt>
<trkpt lat="55.682796" lon="26.481564">
<ele>154.603638</ele>
<time>2010-07-18T10:31:01Z</time>
<desc>lat.=55.682796, lon.=26.481564, Alt.=154.603638m. Speed=21.492001m/h.</desc>
<speed>5.970000</speed>
</trkpt>
<trkpt lat="55.682800" lon="26.481693">
<ele>155.041138</ele>
<time>2010-07-18T10:31:02Z</time>
<desc>lat.=55.682800, lon.=26.481693, Alt.=155.041138m. Speed=23.148001m/h.</desc>
<speed>6.430000</speed>
</trkpt>
<trkpt lat="55.682800" lon="26.481804">
<ele>154.634888</ele>
<time>2010-07-18T10:31:03Z</time>
<desc>lat.=55.682800, lon.=26.481804, Alt.=154.634888m. Speed=22.643999m/h.</desc>
<speed>6.290000</speed>
</trkpt>
<trkpt lat="55.682800" lon="26.481913">
<ele>154.068481</ele>
<time>2010-07-18T10:31:04Z</time>
<desc>lat.=55.682800, lon.=26.481913, Alt.=154.068481m. Speed=23.580000m/h.</desc>
<speed>6.550000</speed>
</trkpt>
<trkpt lat="55.682804" lon="26.482031">
<ele>154.252075</ele>
<time>2010-07-18T10:31:05Z</time>
<desc>lat.=55.682804, lon.=26.482031, Alt.=154.252075m. Speed=25.812000m/h.</desc>
<speed>7.170000</speed>
</trkpt>
<trkpt lat="55.682808" lon="26.482151">
<ele>153.638794</ele>
<time>2010-07-18T10:31:06Z</time>
<desc>lat.=55.682808, lon.=26.482151, Alt.=153.638794m. Speed=25.812000m/h.</desc>
<speed>7.170000</speed>
</trkpt>
<trkpt lat="55.682812" lon="26.482279">
<ele>153.302856</ele>
<time>2010-07-18T10:31:07Z</time>
<desc>lat.=55.682812, lon.=26.482279, Alt.=153.302856m. Speed=27.360001m/h.</desc>
<speed>7.600000</speed>
</trkpt>
<trkpt lat="55.682800" lon="26.482409">
<ele>152.041138</ele>
<time>2010-07-18T10:31:08Z</time>
<desc>lat.=55.682800, lon.=26.482409, Alt.=152.041138m. Speed=27.792000m/h.</desc>
<speed>7.720000</speed>
</trkpt>
<trkpt lat="55.682800" lon="26.482546">
<ele>151.869263</ele>
<time>2010-07-18T10:31:09Z</time>
<desc>lat.=55.682800, lon.=26.482546, Alt.=151.869263m. Speed=28.980000m/h.</desc>
<speed>8.050000</speed>
</trkpt>
<trkpt lat="55.682800" lon="26.482681">
<ele>152.072388</ele>
<time>2010-07-18T10:31:10Z</time>
<desc>lat.=55.682800, lon.=26.482681, Alt.=152.072388m. Speed=29.700001m/h.</desc>
<speed>8.250000</speed>
</trkpt>
<trkpt lat="55.682804" lon="26.482821">
<ele>151.959106</ele>
<time>2010-07-18T10:31:11Z</time>
<desc>lat.=55.682804, lon.=26.482821, Alt.=151.959106m. Speed=29.591999m/h.</desc>
<speed>8.220000</speed>
</trkpt>
<trkpt lat="55.682804" lon="26.482956">
<ele>151.720825</ele>
<time>2010-07-18T10:31:12Z</time>
<desc>lat.=55.682804, lon.=26.482956, Alt.=151.720825m. Speed=29.556000m/h.</desc>
<speed>8.210000</speed>
</trkpt>
<trkpt lat="55.682796" lon="26.483086">
<ele>150.650513</ele>
<time>2010-07-18T10:31:13Z</time>
<desc>lat.=55.682796, lon.=26.483086, Alt.=150.650513m. Speed=28.511999m/h.</desc>
<speed>7.920000</speed>
</trkpt>
<trkpt lat="55.682785" lon="26.483225">
<ele>148.834106</ele>
<time>2010-07-18T10:31:14Z</time>
<desc>lat.=55.682785, lon.=26.483225, Alt.=148.834106m. Speed=28.368000m/h.</desc>
<speed>7.880000</speed>
</trkpt>
<trkpt lat="55.682770" lon="26.483358">
<ele>146.630981</ele>
<time>2010-07-18T10:31:15Z</time>
<desc>lat.=55.682770, lon.=26.483358, Alt.=146.630981m. Speed=28.476000m/h.</desc>
<speed>7.910000</speed>
</trkpt>
<trkpt lat="55.682758" lon="26.483492">
<ele>145.361450</ele>
<time>2010-07-18T10:31:16Z</time>
<desc>lat.=55.682758, lon.=26.483492, Alt.=145.361450m. Speed=29.016001m/h.</desc>
<speed>8.060000</speed>
</trkpt>
<trkpt lat="55.682755" lon="26.483625">
<ele>144.447388</ele>
<time>2010-07-18T10:31:17Z</time>
<desc>lat.=55.682755, lon.=26.483625, Alt.=144.447388m. Speed=28.620001m/h.</desc>
<speed>7.950000</speed>
</trkpt>
<trkpt lat="55.682751" lon="26.483761">
<ele>143.170044</ele>
<time>2010-07-18T10:31:18Z</time>
<desc>lat.=55.682751, lon.=26.483761, Alt.=143.170044m. Speed=29.304001m/h.</desc>
<speed>8.140000</speed>
</trkpt>
<trkpt lat="55.682735" lon="26.483891">
<ele>142.111450</ele>
<time>2010-07-18T10:31:19Z</time>
<desc>lat.=55.682735, lon.=26.483891, Alt.=142.111450m. Speed=29.340000m/h.</desc>
<speed>8.150000</speed>
</trkpt>
<trkpt lat="55.682705" lon="26.484018">
<ele>139.752075</ele>
<time>2010-07-18T10:31:20Z</time>
<desc>lat.=55.682705, lon.=26.484018, Alt.=139.752075m. Speed=29.124001m/h.</desc>
<speed>8.090000</speed>
</trkpt>
<trkpt lat="55.682693" lon="26.484144">
<ele>138.185669</ele>
<time>2010-07-18T10:31:21Z</time>
<desc>lat.=55.682693, lon.=26.484144, Alt.=138.185669m. Speed=28.476000m/h.</desc>
<speed>7.910000</speed>
</trkpt>
<trkpt lat="55.682686" lon="26.484266">
<ele>136.420044</ele>
<time>2010-07-18T10:31:22Z</time>
<desc>lat.=55.682686, lon.=26.484266, Alt.=136.420044m. Speed=28.260000m/h.</desc>
<speed>7.850000</speed>
</trkpt>
<trkpt lat="55.682678" lon="26.484392">
<ele>135.646606</ele>
<time>2010-07-18T10:31:23Z</time>
<desc>lat.=55.682678, lon.=26.484392, Alt.=135.646606m. Speed=27.972000m/h.</desc>
<speed>7.770000</speed>
</trkpt>
<trkpt lat="55.682671" lon="26.484520">
<ele>134.513794</ele>
<time>2010-07-18T10:31:24Z</time>
<desc>lat.=55.682671, lon.=26.484520, Alt.=134.513794m. Speed=27.612000m/h.</desc>
<speed>7.670000</speed>
</trkpt>
<trkpt lat="55.682663" lon="26.484646">
<ele>133.400513</ele>
<time>2010-07-18T10:31:25Z</time>
<desc>lat.=55.682663, lon.=26.484646, Alt.=133.400513m. Speed=27.431999m/h.</desc>
<speed>7.620000</speed>
</trkpt>
<trkpt lat="55.682655" lon="26.484764">
<ele>132.556763</ele>
<time>2010-07-18T10:31:26Z</time>
<desc>lat.=55.682655, lon.=26.484764, Alt.=132.556763m. Speed=27.143999m/h.</desc>
<speed>7.540000</speed>
</trkpt>
<trkpt lat="55.682648" lon="26.484877">
<ele>131.939575</ele>
<time>2010-07-18T10:31:27Z</time>
<desc>lat.=55.682648, lon.=26.484877, Alt.=131.939575m. Speed=26.747999m/h.</desc>
<speed>7.430000</speed>
</trkpt>
<trkpt lat="55.682640" lon="26.484991">
<ele>131.490356</ele>
<time>2010-07-18T10:31:28Z</time>
<desc>lat.=55.682640, lon.=26.484991, Alt.=131.490356m. Speed=24.948000m/h.</desc>
<speed>6.930000</speed>
</trkpt>
<trkpt lat="55.682636" lon="26.485121">
<ele>132.095825</ele>
<time>2010-07-18T10:31:29Z</time>
<desc>lat.=55.682636, lon.=26.485121, Alt.=132.095825m. Speed=26.964001m/h.</desc>
<speed>7.490000</speed>
</trkpt>
<trkpt lat="55.682629" lon="26.485247">
<ele>130.697388</ele>
<time>2010-07-18T10:31:30Z</time>
<desc>lat.=55.682629, lon.=26.485247, Alt.=130.697388m. Speed=27.864000m/h.</desc>
<speed>7.740000</speed>
</trkpt>
<trkpt lat="55.682621" lon="26.485418">
<ele>129.923950</ele>
<time>2010-07-18T10:31:31Z</time>
<desc>lat.=55.682621, lon.=26.485418, Alt.=129.923950m. Speed=30.563999m/h.</desc>
<speed>8.490000</speed>
</trkpt>
<trkpt lat="55.682621" lon="26.485573">
<ele>130.138794</ele>
<time>2010-07-18T10:31:32Z</time>
<desc>lat.=55.682621, lon.=26.485573, Alt.=130.138794m. Speed=30.059999m/h.</desc>
<speed>8.350000</speed>
</trkpt>
<trkpt lat="55.682621" lon="26.485727">
<ele>130.505981</ele>
<time>2010-07-18T10:31:33Z</time>
<desc>lat.=55.682621, lon.=26.485727, Alt.=130.505981m. Speed=29.736000m/h.</desc>
<speed>8.260000</speed>
</trkpt>
<trkpt lat="55.682617" lon="26.485886">
<ele>129.685669</ele>
<time>2010-07-18T10:31:34Z</time>
<desc>lat.=55.682617, lon.=26.485886, Alt.=129.685669m. Speed=29.375999m/h.</desc>
<speed>8.160000</speed>
</trkpt>
<trkpt lat="55.682617" lon="26.486029">
<ele>129.810669</ele>
<time>2010-07-18T10:31:35Z</time>
<desc>lat.=55.682617, lon.=26.486029, Alt.=129.810669m. Speed=29.844000m/h.</desc>
<speed>8.290000</speed>
</trkpt>
<trkpt lat="55.682610" lon="26.486189">
<ele>127.680725</ele>
<time>2010-07-18T10:31:36Z</time>
<desc>lat.=55.682610, lon.=26.486189, Alt.=127.680725m. Speed=30.059999m/h.</desc>
<speed>8.350000</speed>
</trkpt>
<trkpt lat="55.682613" lon="26.486340">
<ele>127.376038</ele>
<time>2010-07-18T10:31:37Z</time>
<desc>lat.=55.682613, lon.=26.486340, Alt.=127.376038m. Speed=29.375999m/h.</desc>
<speed>8.160000</speed>
</trkpt>
<trkpt lat="55.682613" lon="26.486477">
<ele>127.057678</ele>
<time>2010-07-18T10:31:38Z</time>
<desc>lat.=55.682613, lon.=26.486477, Alt.=127.057678m. Speed=27.936001m/h.</desc>
<speed>7.760000</speed>
</trkpt>
<trkpt lat="55.682613" lon="26.486610">
<ele>126.831116</ele>
<time>2010-07-18T10:31:39Z</time>
<desc>lat.=55.682613, lon.=26.486610, Alt.=126.831116m. Speed=26.639999m/h.</desc>
<speed>7.400000</speed>
</trkpt>
<trkpt lat="55.682617" lon="26.486734">
<ele>126.711975</ele>
<time>2010-07-18T10:31:40Z</time>
<desc>lat.=55.682617, lon.=26.486734, Alt.=126.711975m. Speed=26.208000m/h.</desc>
<speed>7.280000</speed>
</trkpt>
<trkpt lat="55.682621" lon="26.486853">
<ele>126.901428</ele>
<time>2010-07-18T10:31:41Z</time>
<desc>lat.=55.682621, lon.=26.486853, Alt.=126.901428m. Speed=24.875999m/h.</desc>
<speed>6.910000</speed>
</trkpt>
<trkpt lat="55.682625" lon="26.486967">
<ele>126.526428</ele>
<time>2010-07-18T10:31:42Z</time>
<desc>lat.=55.682625, lon.=26.486967, Alt.=126.526428m. Speed=23.903999m/h.</desc>
<speed>6.640000</speed>
</trkpt>
<trkpt lat="55.682625" lon="26.487076">
<ele>126.561584</ele>
<time>2010-07-18T10:31:43Z</time>
<desc>lat.=55.682625, lon.=26.487076, Alt.=126.561584m. Speed=22.968000m/h.</desc>
<speed>6.380000</speed>
</trkpt>
<trkpt lat="55.682632" lon="26.487181">
<ele>127.823303</ele>
<time>2010-07-18T10:31:44Z</time>
<desc>lat.=55.682632, lon.=26.487181, Alt.=127.823303m. Speed=22.680000m/h.</desc>
<speed>6.300000</speed>
</trkpt>
<trkpt lat="55.682640" lon="26.487276">
<ele>128.173950</ele>
<time>2010-07-18T10:31:45Z</time>
<desc>lat.=55.682640, lon.=26.487276, Alt.=128.173950m. Speed=22.320000m/h.</desc>
<speed>6.200000</speed>
</trkpt>
<trkpt lat="55.682644" lon="26.487383">
<ele>127.754944</ele>
<time>2010-07-18T10:31:46Z</time>
<desc>lat.=55.682644, lon.=26.487383, Alt.=127.754944m. Speed=22.896000m/h.</desc>
<speed>6.360000</speed>
</trkpt>
<trkpt lat="55.682648" lon="26.487486">
<ele>129.177856</ele>
<time>2010-07-18T10:31:47Z</time>
<desc>lat.=55.682648, lon.=26.487486, Alt.=129.177856m. Speed=23.148001m/h.</desc>
<speed>6.430000</speed>
</trkpt>
<trkpt lat="55.682644" lon="26.487589">
<ele>129.091919</ele>
<time>2010-07-18T10:31:48Z</time>
<desc>lat.=55.682644, lon.=26.487589, Alt.=129.091919m. Speed=23.364000m/h.</desc>
<speed>6.490000</speed>
</trkpt>
<trkpt lat="55.682644" lon="26.487698">
<ele>129.099731</ele>
<time>2010-07-18T10:31:49Z</time>
<desc>lat.=55.682644, lon.=26.487698, Alt.=129.099731m. Speed=23.544001m/h.</desc>
<speed>6.540000</speed>
</trkpt>
<trkpt lat="55.682648" lon="26.487804">
<ele>129.091919</ele>
<time>2010-07-18T10:31:50Z</time>
<desc>lat.=55.682648, lon.=26.487804, Alt.=129.091919m. Speed=24.084000m/h.</desc>
<speed>6.690000</speed>
</trkpt>
<trkpt lat="55.682640" lon="26.487909">
<ele>127.518616</ele>
<time>2010-07-18T10:31:51Z</time>
<desc>lat.=55.682640, lon.=26.487909, Alt.=127.518616m. Speed=23.472000m/h.</desc>
<speed>6.520000</speed>
</trkpt>
<trkpt lat="55.682640" lon="26.488020">
<ele>127.116272</ele>
<time>2010-07-18T10:31:52Z</time>
<desc>lat.=55.682640, lon.=26.488020, Alt.=127.116272m. Speed=24.228001m/h.</desc>
<speed>6.730000</speed>
</trkpt>
<trkpt lat="55.682640" lon="26.488131">
<ele>126.258850</ele>
<time>2010-07-18T10:31:53Z</time>
<desc>lat.=55.682640, lon.=26.488131, Alt.=126.258850m. Speed=23.940001m/h.</desc>
<speed>6.650000</speed>
</trkpt>
<trkpt lat="55.682640" lon="26.488237">
<ele>126.094788</ele>
<time>2010-07-18T10:31:54Z</time>
<desc>lat.=55.682640, lon.=26.488237, Alt.=126.094788m. Speed=23.400000m/h.</desc>
<speed>6.500000</speed>
</trkpt>
<trkpt lat="55.682644" lon="26.488340">
<ele>125.971741</ele>
<time>2010-07-18T10:31:55Z</time>
<desc>lat.=55.682644, lon.=26.488340, Alt.=125.971741m. Speed=22.608000m/h.</desc>
<speed>6.280000</speed>
</trkpt>
<trkpt lat="55.682644" lon="26.488436">
<ele>126.022522</ele>
<time>2010-07-18T10:31:56Z</time>
<desc>lat.=55.682644, lon.=26.488436, Alt.=126.022522m. Speed=21.563999m/h.</desc>
<speed>5.990000</speed>
</trkpt>
<trkpt lat="55.682644" lon="26.488527">
<ele>125.813538</ele>
<time>2010-07-18T10:31:57Z</time>
<desc>lat.=55.682644, lon.=26.488527, Alt.=125.813538m. Speed=22.212000m/h.</desc>
<speed>6.170000</speed>
</trkpt>
<trkpt lat="55.682648" lon="26.488621">
<ele>125.051819</ele>
<time>2010-07-18T10:31:58Z</time>
<desc>lat.=55.682648, lon.=26.488621, Alt.=125.051819m. Speed=22.212000m/h.</desc>
<speed>6.170000</speed>
</trkpt>
<trkpt lat="55.682648" lon="26.488720">
<ele>125.946350</ele>
<time>2010-07-18T10:31:59Z</time>
<desc>lat.=55.682648, lon.=26.488720, Alt.=125.946350m. Speed=21.743999m/h.</desc>
<speed>6.040000</speed>
</trkpt>
<trkpt lat="55.682652" lon="26.488813">
<ele>126.528381</ele>
<time>2010-07-18T10:32:00Z</time>
<desc>lat.=55.682652, lon.=26.488813, Alt.=126.528381m. Speed=21.312000m/h.</desc>
<speed>5.920000</speed>
</trkpt>
<trkpt lat="55.682655" lon="26.488916">
<ele>128.435669</ele>
<time>2010-07-18T10:32:01Z</time>
<desc>lat.=55.682655, lon.=26.488916, Alt.=128.435669m. Speed=22.392000m/h.</desc>
<speed>6.220000</speed>
</trkpt>
<trkpt lat="55.682655" lon="26.489019">
<ele>128.994263</ele>
<time>2010-07-18T10:32:02Z</time>
<desc>lat.=55.682655, lon.=26.489019, Alt.=128.994263m. Speed=22.716000m/h.</desc>
<speed>6.310000</speed>
</trkpt>
<trkpt lat="55.682655" lon="26.489124">
<ele>129.505981</ele>
<time>2010-07-18T10:32:03Z</time>
<desc>lat.=55.682655, lon.=26.489124, Alt.=129.505981m. Speed=23.219999m/h.</desc>
<speed>6.450000</speed>
</trkpt>
<trkpt lat="55.682652" lon="26.489222">
<ele>129.884888</ele>
<time>2010-07-18T10:32:04Z</time>
<desc>lat.=55.682652, lon.=26.489222, Alt.=129.884888m. Speed=21.996000m/h.</desc>
<speed>6.110000</speed>
</trkpt>
<trkpt lat="55.682652" lon="26.489319">
<ele>130.314575</ele>
<time>2010-07-18T10:32:05Z</time>
<desc>lat.=55.682652, lon.=26.489319, Alt.=130.314575m. Speed=21.924000m/h.</desc>
<speed>6.090000</speed>
</trkpt>
<trkpt lat="55.682652" lon="26.489414">
<ele>130.521606</ele>
<time>2010-07-18T10:32:06Z</time>
<desc>lat.=55.682652, lon.=26.489414, Alt.=130.521606m. Speed=21.888000m/h.</desc>
<speed>6.080000</speed>
</trkpt>
<trkpt lat="55.682652" lon="26.489517">
<ele>130.623169</ele>
<time>2010-07-18T10:32:07Z</time>
<desc>lat.=55.682652, lon.=26.489517, Alt.=130.623169m. Speed=21.959999m/h.</desc>
<speed>6.100000</speed>
</trkpt>
<trkpt lat="55.682655" lon="26.489609">
<ele>131.209106</ele>
<time>2010-07-18T10:32:08Z</time>
<desc>lat.=55.682655, lon.=26.489609, Alt.=131.209106m. Speed=21.816000m/h.</desc>
<speed>6.060000</speed>
</trkpt>
<trkpt lat="55.682659" lon="26.489702">
<ele>131.521606</ele>
<time>2010-07-18T10:32:09Z</time>
<desc>lat.=55.682659, lon.=26.489702, Alt.=131.521606m. Speed=21.024000m/h.</desc>
<speed>5.840000</speed>
</trkpt>
<trkpt lat="55.682659" lon="26.489796">
<ele>132.115356</ele>
<time>2010-07-18T10:32:10Z</time>
<desc>lat.=55.682659, lon.=26.489796, Alt.=132.115356m. Speed=20.591999m/h.</desc>
<speed>5.720000</speed>
</trkpt>
<trkpt lat="55.682659" lon="26.489885">
<ele>132.646606</ele>
<time>2010-07-18T10:32:11Z</time>
<desc>lat.=55.682659, lon.=26.489885, Alt.=132.646606m. Speed=20.520000m/h.</desc>
<speed>5.700000</speed>
</trkpt>
<trkpt lat="55.682663" lon="26.489969">
<ele>133.271606</ele>
<time>2010-07-18T10:32:12Z</time>
<desc>lat.=55.682663, lon.=26.489969, Alt.=133.271606m. Speed=19.872000m/h.</desc>
<speed>5.520000</speed>
</trkpt>
<trkpt lat="55.682663" lon="26.490057">
<ele>133.369263</ele>
<time>2010-07-18T10:32:13Z</time>
<desc>lat.=55.682663, lon.=26.490057, Alt.=133.369263m. Speed=19.188000m/h.</desc>
<speed>5.330000</speed>
</trkpt>
<trkpt lat="55.682663" lon="26.490145">
<ele>133.654419</ele>
<time>2010-07-18T10:32:14Z</time>
<desc>lat.=55.682663, lon.=26.490145, Alt.=133.654419m. Speed=18.719999m/h.</desc>
<speed>5.200000</speed>
</trkpt>
<trkpt lat="55.682655" lon="26.490231">
<ele>133.877075</ele>
<time>2010-07-18T10:32:15Z</time>
<desc>lat.=55.682655, lon.=26.490231, Alt.=133.877075m. Speed=17.964001m/h.</desc>
<speed>4.990000</speed>
</trkpt>
<trkpt lat="55.682652" lon="26.490309">
<ele>133.736450</ele>
<time>2010-07-18T10:32:16Z</time>
<desc>lat.=55.682652, lon.=26.490309, Alt.=133.736450m. Speed=16.200001m/h.</desc>
<speed>4.500000</speed>
</trkpt>
<trkpt lat="55.682648" lon="26.490376">
<ele>133.994263</ele>
<time>2010-07-18T10:32:17Z</time>
<desc>lat.=55.682648, lon.=26.490376, Alt.=133.994263m. Speed=15.480000m/h.</desc>
<speed>4.300000</speed>
</trkpt>
<trkpt lat="55.682652" lon="26.490442">
<ele>133.763794</ele>
<time>2010-07-18T10:32:18Z</time>
<desc>lat.=55.682652, lon.=26.490442, Alt.=133.763794m. Speed=15.444000m/h.</desc>
<speed>4.290000</speed>
</trkpt>
<trkpt lat="55.682652" lon="26.490507">
<ele>133.951294</ele>
<time>2010-07-18T10:32:19Z</time>
<desc>lat.=55.682652, lon.=26.490507, Alt.=133.951294m. Speed=14.616000m/h.</desc>
<speed>4.060000</speed>
</trkpt>
<trkpt lat="55.682655" lon="26.490568">
<ele>134.267700</ele>
<time>2010-07-18T10:32:20Z</time>
<desc>lat.=55.682655, lon.=26.490568, Alt.=134.267700m. Speed=14.004000m/h.</desc>
<speed>3.890000</speed>
</trkpt>
<trkpt lat="55.682655" lon="26.490631">
<ele>134.216919</ele>
<time>2010-07-18T10:32:21Z</time>
<desc>lat.=55.682655, lon.=26.490631, Alt.=134.216919m. Speed=13.428000m/h.</desc>
<speed>3.730000</speed>
</trkpt>
<trkpt lat="55.682659" lon="26.490688">
<ele>134.404419</ele>
<time>2010-07-18T10:32:22Z</time>
<desc>lat.=55.682659, lon.=26.490688, Alt.=134.404419m. Speed=12.816000m/h.</desc>
<speed>3.560000</speed>
</trkpt>
<trkpt lat="55.682659" lon="26.490742">
<ele>134.505981</ele>
<time>2010-07-18T10:32:23Z</time>
<desc>lat.=55.682659, lon.=26.490742, Alt.=134.505981m. Speed=11.988000m/h.</desc>
<speed>3.330000</speed>
</trkpt>
<trkpt lat="55.682659" lon="26.490791">
<ele>134.404419</ele>
<time>2010-07-18T10:32:24Z</time>
<desc>lat.=55.682659, lon.=26.490791, Alt.=134.404419m. Speed=12.240000m/h.</desc>
<speed>3.400000</speed>
</trkpt>
<trkpt lat="55.682663" lon="26.490843">
<ele>133.814575</ele>
<time>2010-07-18T10:32:25Z</time>
<desc>lat.=55.682663, lon.=26.490843, Alt.=133.814575m. Speed=11.124000m/h.</desc>
<speed>3.090000</speed>
</trkpt>
<trkpt lat="55.682663" lon="26.490889">
<ele>133.943481</ele>
<time>2010-07-18T10:32:26Z</time>
<desc>lat.=55.682663, lon.=26.490889, Alt.=133.943481m. Speed=10.296000m/h.</desc>
<speed>2.860000</speed>
</trkpt>
<trkpt lat="55.682663" lon="26.490931">
<ele>134.420044</ele>
<time>2010-07-18T10:32:27Z</time>
<desc>lat.=55.682663, lon.=26.490931, Alt.=134.420044m. Speed=9.108000m/h.</desc>
<speed>2.530000</speed>
</trkpt>
<trkpt lat="55.682667" lon="26.490978">
<ele>135.896606</ele>
<time>2010-07-18T10:32:28Z</time>
<desc>lat.=55.682667, lon.=26.490978, Alt.=135.896606m. Speed=8.892000m/h.</desc>
<speed>2.470000</speed>
</trkpt>
<trkpt lat="55.682663" lon="26.491020">
<ele>136.283325</ele>
<time>2010-07-18T10:32:29Z</time>
<desc>lat.=55.682663, lon.=26.491020, Alt.=136.283325m. Speed=8.172000m/h.</desc>
<speed>2.270000</speed>
</trkpt>
<trkpt lat="55.682659" lon="26.491056">
<ele>137.084106</ele>
<time>2010-07-18T10:32:30Z</time>
<desc>lat.=55.682659, lon.=26.491056, Alt.=137.084106m. Speed=7.524000m/h.</desc>
<speed>2.090000</speed>
</trkpt>
<trkpt lat="55.682663" lon="26.491096">
<ele>137.193481</ele>
<time>2010-07-18T10:32:31Z</time>
<desc>lat.=55.682663, lon.=26.491096, Alt.=137.193481m. Speed=7.920000m/h.</desc>
<speed>2.200000</speed>
</trkpt>
<trkpt lat="55.682667" lon="26.491131">
<ele>137.197388</ele>
<time>2010-07-18T10:32:32Z</time>
<desc>lat.=55.682667, lon.=26.491131, Alt.=137.197388m. Speed=7.776000m/h.</desc>
<speed>2.160000</speed>
</trkpt>
<trkpt lat="55.682671" lon="26.491165">
<ele>137.185669</ele>
<time>2010-07-18T10:32:33Z</time>
<desc>lat.=55.682671, lon.=26.491165, Alt.=137.185669m. Speed=8.928000m/h.</desc>
<speed>2.480000</speed>
</trkpt>
<trkpt lat="55.682671" lon="26.491199">
<ele>137.494263</ele>
<time>2010-07-18T10:32:34Z</time>
<desc>lat.=55.682671, lon.=26.491199, Alt.=137.494263m. Speed=8.316000m/h.</desc>
<speed>2.310000</speed>
</trkpt>
<trkpt lat="55.682674" lon="26.491234">
<ele>137.443481</ele>
<time>2010-07-18T10:32:35Z</time>
<desc>lat.=55.682674, lon.=26.491234, Alt.=137.443481m. Speed=8.676000m/h.</desc>
<speed>2.410000</speed>
</trkpt>
<trkpt lat="55.682671" lon="26.491272">
<ele>137.607544</ele>
<time>2010-07-18T10:32:36Z</time>
<desc>lat.=55.682671, lon.=26.491272, Alt.=137.607544m. Speed=9.432000m/h.</desc>
<speed>2.620000</speed>
</trkpt>
<trkpt lat="55.682671" lon="26.491314">
<ele>137.900513</ele>
<time>2010-07-18T10:32:37Z</time>
<desc>lat.=55.682671, lon.=26.491314, Alt.=137.900513m. Speed=10.224000m/h.</desc>
<speed>2.840000</speed>
</trkpt>
<trkpt lat="55.682667" lon="26.491365">
<ele>138.134888</ele>
<time>2010-07-18T10:32:38Z</time>
<desc>lat.=55.682667, lon.=26.491365, Alt.=138.134888m. Speed=11.628000m/h.</desc>
<speed>3.230000</speed>
</trkpt>
<trkpt lat="55.682655" lon="26.491421">
<ele>138.873169</ele>
<time>2010-07-18T10:32:39Z</time>
<desc>lat.=55.682655, lon.=26.491421, Alt.=138.873169m. Speed=12.348000m/h.</desc>
<speed>3.430000</speed>
</trkpt>
<trkpt lat="55.682652" lon="26.491472">
<ele>138.744263</ele>
<time>2010-07-18T10:32:40Z</time>
<desc>lat.=55.682652, lon.=26.491472, Alt.=138.744263m. Speed=12.348000m/h.</desc>
<speed>3.430000</speed>
</trkpt>
<trkpt lat="55.682655" lon="26.491531">
<ele>139.560669</ele>
<time>2010-07-18T10:32:41Z</time>
<desc>lat.=55.682655, lon.=26.491531, Alt.=139.560669m. Speed=12.996000m/h.</desc>
<speed>3.610000</speed>
</trkpt>
<trkpt lat="55.682652" lon="26.491589">
<ele>140.470825</ele>
<time>2010-07-18T10:32:42Z</time>
<desc>lat.=55.682652, lon.=26.491589, Alt.=140.470825m. Speed=13.752000m/h.</desc>
<speed>3.820000</speed>
</trkpt>
<trkpt lat="55.682640" lon="26.491653">
<ele>140.349731</ele>
<time>2010-07-18T10:32:43Z</time>
<desc>lat.=55.682640, lon.=26.491653, Alt.=140.349731m. Speed=14.184000m/h.</desc>
<speed>3.940000</speed>
</trkpt>
<trkpt lat="55.682625" lon="26.491722">
<ele>139.705200</ele>
<time>2010-07-18T10:32:44Z</time>
<desc>lat.=55.682625, lon.=26.491722, Alt.=139.705200m. Speed=14.040000m/h.</desc>
<speed>3.900000</speed>
</trkpt>
<trkpt lat="55.682629" lon="26.491783">
<ele>139.630981</ele>
<time>2010-07-18T10:32:45Z</time>
<desc>lat.=55.682629, lon.=26.491783, Alt.=139.630981m. Speed=13.572000m/h.</desc>
<speed>3.770000</speed>
</trkpt>
<trkpt lat="55.682629" lon="26.491848">
<ele>139.498169</ele>
<time>2010-07-18T10:32:46Z</time>
<desc>lat.=55.682629, lon.=26.491848, Alt.=139.498169m. Speed=14.328000m/h.</desc>
<speed>3.980000</speed>
</trkpt>
<trkpt lat="55.682629" lon="26.491928">
<ele>138.900513</ele>
<time>2010-07-18T10:32:47Z</time>
<desc>lat.=55.682629, lon.=26.491928, Alt.=138.900513m. Speed=15.120000m/h.</desc>
<speed>4.200000</speed>
</trkpt>
<trkpt lat="55.682621" lon="26.491999">
<ele>138.795044</ele>
<time>2010-07-18T10:32:48Z</time>
<desc>lat.=55.682621, lon.=26.491999, Alt.=138.795044m. Speed=15.516000m/h.</desc>
<speed>4.310000</speed>
</trkpt>
<trkpt lat="55.682625" lon="26.492071">
<ele>138.845825</ele>
<time>2010-07-18T10:32:49Z</time>
<desc>lat.=55.682625, lon.=26.492071, Alt.=138.845825m. Speed=16.271999m/h.</desc>
<speed>4.520000</speed>
</trkpt>
<trkpt lat="55.682625" lon="26.492149">
<ele>138.127075</ele>
<time>2010-07-18T10:32:50Z</time>
<desc>lat.=55.682625, lon.=26.492149, Alt.=138.127075m. Speed=16.920000m/h.</desc>
<speed>4.700000</speed>
</trkpt>
<trkpt lat="55.682625" lon="26.492239">
<ele>137.701294</ele>
<time>2010-07-18T10:32:51Z</time>
<desc>lat.=55.682625, lon.=26.492239, Alt.=137.701294m. Speed=19.188000m/h.</desc>
<speed>5.330000</speed>
</trkpt>
<trkpt lat="55.682636" lon="26.492350">
<ele>137.693481</ele>
<time>2010-07-18T10:32:52Z</time>
<desc>lat.=55.682636, lon.=26.492350, Alt.=137.693481m. Speed=19.691999m/h.</desc>
<speed>5.470000</speed>
</trkpt>
<trkpt lat="55.682644" lon="26.492447">
<ele>138.005981</ele>
<time>2010-07-18T10:32:53Z</time>
<desc>lat.=55.682644, lon.=26.492447, Alt.=138.005981m. Speed=20.304001m/h.</desc>
<speed>5.640000</speed>
</trkpt>
<trkpt lat="55.682644" lon="26.492533">
<ele>138.603638</ele>
<time>2010-07-18T10:32:54Z</time>
<desc>lat.=55.682644, lon.=26.492533, Alt.=138.603638m. Speed=20.124001m/h.</desc>
<speed>5.590000</speed>
</trkpt>
<trkpt lat="55.682652" lon="26.492630">
<ele>139.041138</ele>
<time>2010-07-18T10:32:55Z</time>
<desc>lat.=55.682652, lon.=26.492630, Alt.=139.041138m. Speed=22.680000m/h.</desc>
<speed>6.300000</speed>
</trkpt>
<trkpt lat="55.682652" lon="26.492737">
<ele>139.666138</ele>
<time>2010-07-18T10:32:56Z</time>
<desc>lat.=55.682652, lon.=26.492737, Alt.=139.666138m. Speed=22.931999m/h.</desc>
<speed>6.370000</speed>
</trkpt>
<trkpt lat="55.682655" lon="26.492846">
<ele>140.037231</ele>
<time>2010-07-18T10:32:57Z</time>
<desc>lat.=55.682655, lon.=26.492846, Alt.=140.037231m. Speed=25.740000m/h.</desc>
<speed>7.150000</speed>
</trkpt>
<trkpt lat="55.682655" lon="26.492966">
<ele>140.455200</ele>
<time>2010-07-18T10:32:58Z</time>
<desc>lat.=55.682655, lon.=26.492966, Alt.=140.455200m. Speed=27.756001m/h.</desc>
<speed>7.710000</speed>
</trkpt>
<trkpt lat="55.682659" lon="26.493095">
<ele>140.869263</ele>
<time>2010-07-18T10:32:59Z</time>
<desc>lat.=55.682659, lon.=26.493095, Alt.=140.869263m. Speed=29.304001m/h.</desc>
<speed>8.140000</speed>
</trkpt>
<trkpt lat="55.682663" lon="26.493227">
<ele>142.068481</ele>
<time>2010-07-18T10:33:00Z</time>
<desc>lat.=55.682663, lon.=26.493227, Alt.=142.068481m. Speed=29.124001m/h.</desc>
<speed>8.090000</speed>
</trkpt>
<trkpt lat="55.682667" lon="26.493362">
<ele>142.322388</ele>
<time>2010-07-18T10:33:01Z</time>
<desc>lat.=55.682667, lon.=26.493362, Alt.=142.322388m. Speed=30.275999m/h.</desc>
<speed>8.410000</speed>
</trkpt>
<trkpt lat="55.682667" lon="26.493498">
<ele>142.974731</ele>
<time>2010-07-18T10:33:02Z</time>
<desc>lat.=55.682667, lon.=26.493498, Alt.=142.974731m. Speed=29.916000m/h.</desc>
<speed>8.310000</speed>
</trkpt>
<trkpt lat="55.682667" lon="26.493639">
<ele>142.623169</ele>
<time>2010-07-18T10:33:03Z</time>
<desc>lat.=55.682667, lon.=26.493639, Alt.=142.623169m. Speed=32.832001m/h.</desc>
<speed>9.120000</speed>
</trkpt>
<trkpt lat="55.682667" lon="26.493788">
<ele>143.455200</ele>
<time>2010-07-18T10:33:04Z</time>
<desc>lat.=55.682667, lon.=26.493788, Alt.=143.455200m. Speed=33.911999m/h.</desc>
<speed>9.420000</speed>
</trkpt>
<trkpt lat="55.682655" lon="26.493940">
<ele>142.877075</ele>
<time>2010-07-18T10:33:05Z</time>
<desc>lat.=55.682655, lon.=26.493940, Alt.=142.877075m. Speed=34.487999m/h.</desc>
<speed>9.580000</speed>
</trkpt>
<trkpt lat="55.682644" lon="26.494091">
<ele>142.646606</ele>
<time>2010-07-18T10:33:06Z</time>
<desc>lat.=55.682644, lon.=26.494091, Alt.=142.646606m. Speed=34.487999m/h.</desc>
<speed>9.580000</speed>
</trkpt>
<trkpt lat="55.682636" lon="26.494247">
<ele>142.470825</ele>
<time>2010-07-18T10:33:07Z</time>
<desc>lat.=55.682636, lon.=26.494247, Alt.=142.470825m. Speed=33.444000m/h.</desc>
<speed>9.290000</speed>
</trkpt>
<trkpt lat="55.682621" lon="26.494396">
<ele>142.189575</ele>
<time>2010-07-18T10:33:08Z</time>
<desc>lat.=55.682621, lon.=26.494396, Alt.=142.189575m. Speed=31.968000m/h.</desc>
<speed>8.880000</speed>
</trkpt>
<trkpt lat="55.682602" lon="26.494534">
<ele>141.838013</ele>
<time>2010-07-18T10:33:09Z</time>
<desc>lat.=55.682602, lon.=26.494534, Alt.=141.838013m. Speed=31.392000m/h.</desc>
<speed>8.720000</speed>
</trkpt>
<trkpt lat="55.682556" lon="26.494675">
<ele>141.295044</ele>
<time>2010-07-18T10:33:10Z</time>
<desc>lat.=55.682556, lon.=26.494675, Alt.=141.295044m. Speed=30.816000m/h.</desc>
<speed>8.560000</speed>
</trkpt>
<trkpt lat="55.682533" lon="26.494799">
<ele>140.998169</ele>
<time>2010-07-18T10:33:11Z</time>
<desc>lat.=55.682533, lon.=26.494799, Alt.=140.998169m. Speed=29.808001m/h.</desc>
<speed>8.280000</speed>
</trkpt>
<trkpt lat="55.682510" lon="26.494921">
<ele>140.830200</ele>
<time>2010-07-18T10:33:12Z</time>
<desc>lat.=55.682510, lon.=26.494921, Alt.=140.830200m. Speed=27.323999m/h.</desc>
<speed>7.590000</speed>
</trkpt>
<trkpt lat="55.682491" lon="26.495037">
<ele>140.748169</ele>
<time>2010-07-18T10:33:13Z</time>
<desc>lat.=55.682491, lon.=26.495037, Alt.=140.748169m. Speed=26.747999m/h.</desc>
<speed>7.430000</speed>
</trkpt>
<trkpt lat="55.682484" lon="26.495165">
<ele>140.228638</ele>
<time>2010-07-18T10:33:14Z</time>
<desc>lat.=55.682484, lon.=26.495165, Alt.=140.228638m. Speed=26.280001m/h.</desc>
<speed>7.300000</speed>
</trkpt>
<trkpt lat="55.682472" lon="26.495283">
<ele>139.779419</ele>
<time>2010-07-18T10:33:15Z</time>
<desc>lat.=55.682472, lon.=26.495283, Alt.=139.779419m. Speed=24.587999m/h.</desc>
<speed>6.830000</speed>
</trkpt>
<trkpt lat="55.682457" lon="26.495377">
<ele>139.533325</ele>
<time>2010-07-18T10:33:16Z</time>
<desc>lat.=55.682457, lon.=26.495377, Alt.=139.533325m. Speed=21.059999m/h.</desc>
<speed>5.850000</speed>
</trkpt>
<trkpt lat="55.682446" lon="26.495462">
<ele>139.076294</ele>
<time>2010-07-18T10:33:17Z</time>
<desc>lat.=55.682446, lon.=26.495462, Alt.=139.076294m. Speed=18.000000m/h.</desc>
<speed>5.000000</speed>
</trkpt>
<trkpt lat="55.682426" lon="26.495539">
<ele>138.537231</ele>
<time>2010-07-18T10:33:18Z</time>
<desc>lat.=55.682426, lon.=26.495539, Alt.=138.537231m. Speed=16.271999m/h.</desc>
<speed>4.520000</speed>
</trkpt>
<trkpt lat="55.682415" lon="26.495605">
<ele>138.338013</ele>
<time>2010-07-18T10:33:19Z</time>
<desc>lat.=55.682415, lon.=26.495605, Alt.=138.338013m. Speed=13.536000m/h.</desc>
<speed>3.760000</speed>
</trkpt>
<trkpt lat="55.682404" lon="26.495663">
<ele>138.002075</ele>
<time>2010-07-18T10:33:20Z</time>
<desc>lat.=55.682404, lon.=26.495663, Alt.=138.002075m. Speed=12.528000m/h.</desc>
<speed>3.480000</speed>
</trkpt>
<trkpt lat="55.682400" lon="26.495747">
<ele>137.966919</ele>
<time>2010-07-18T10:33:21Z</time>
<desc>lat.=55.682400, lon.=26.495747, Alt.=137.966919m. Speed=16.596001m/h.</desc>
<speed>4.610000</speed>
</trkpt>
<trkpt lat="55.682381" lon="26.495831">
<ele>137.603638</ele>
<time>2010-07-18T10:33:22Z</time>
<desc>lat.=55.682381, lon.=26.495831, Alt.=137.603638m. Speed=14.868000m/h.</desc>
<speed>4.130000</speed>
</trkpt>
<trkpt lat="55.682365" lon="26.495913">
<ele>137.513794</ele>
<time>2010-07-18T10:33:23Z</time>
<desc>lat.=55.682365, lon.=26.495913, Alt.=137.513794m. Speed=14.508000m/h.</desc>
<speed>4.030000</speed>
</trkpt>
<trkpt lat="55.682354" lon="26.495975">
<ele>137.802856</ele>
<time>2010-07-18T10:33:24Z</time>
<desc>lat.=55.682354, lon.=26.495975, Alt.=137.802856m. Speed=11.772000m/h.</desc>
<speed>3.270000</speed>
</trkpt>
<trkpt lat="55.682339" lon="26.496046">
<ele>137.826294</ele>
<time>2010-07-18T10:33:25Z</time>
<desc>lat.=55.682339, lon.=26.496046, Alt.=137.826294m. Speed=11.880000m/h.</desc>
<speed>3.300000</speed>
</trkpt>
<trkpt lat="55.682335" lon="26.496117">
<ele>138.248169</ele>
<time>2010-07-18T10:33:26Z</time>
<desc>lat.=55.682335, lon.=26.496117, Alt.=138.248169m. Speed=13.536000m/h.</desc>
<speed>3.760000</speed>
</trkpt>
<trkpt lat="55.682320" lon="26.496195">
<ele>138.064575</ele>
<time>2010-07-18T10:33:27Z</time>
<desc>lat.=55.682320, lon.=26.496195, Alt.=138.064575m. Speed=14.328000m/h.</desc>
<speed>3.980000</speed>
</trkpt>
<trkpt lat="55.682308" lon="26.496269">
<ele>138.162231</ele>
<time>2010-07-18T10:33:28Z</time>
<desc>lat.=55.682308, lon.=26.496269, Alt.=138.162231m. Speed=13.932000m/h.</desc>
<speed>3.870000</speed>
</trkpt>
<trkpt lat="55.682297" lon="26.496326">
<ele>138.068481</ele>
<time>2010-07-18T10:33:29Z</time>
<desc>lat.=55.682297, lon.=26.496326, Alt.=138.068481m. Speed=17.424000m/h.</desc>
<speed>4.840000</speed>
</trkpt>
<trkpt lat="55.682278" lon="26.496449">
<ele>139.170044</ele>
<time>2010-07-18T10:33:30Z</time>
<desc>lat.=55.682278, lon.=26.496449, Alt.=139.170044m. Speed=17.459999m/h.</desc>
<speed>4.850000</speed>
</trkpt>
<trkpt lat="55.682274" lon="26.496531">
<ele>140.326294</ele>
<time>2010-07-18T10:33:31Z</time>
<desc>lat.=55.682274, lon.=26.496531, Alt.=140.326294m. Speed=15.732000m/h.</desc>
<speed>4.370000</speed>
</trkpt>
<trkpt lat="55.682274" lon="26.496614">
<ele>140.185669</ele>
<time>2010-07-18T10:33:32Z</time>
<desc>lat.=55.682274, lon.=26.496614, Alt.=140.185669m. Speed=13.932000m/h.</desc>
<speed>3.870000</speed>
</trkpt>
<trkpt lat="55.682266" lon="26.496712">
<ele>139.693481</ele>
<time>2010-07-18T10:33:33Z</time>
<desc>lat.=55.682266, lon.=26.496712, Alt.=139.693481m. Speed=16.812000m/h.</desc>
<speed>4.670000</speed>
</trkpt>
<trkpt lat="55.682251" lon="26.496824">
<ele>139.791138</ele>
<time>2010-07-18T10:33:34Z</time>
<desc>lat.=55.682251, lon.=26.496824, Alt.=139.791138m. Speed=18.468000m/h.</desc>
<speed>5.130000</speed>
</trkpt>
<trkpt lat="55.682240" lon="26.496904">
<ele>139.810669</ele>
<time>2010-07-18T10:33:35Z</time>
<desc>lat.=55.682240, lon.=26.496904, Alt.=139.810669m. Speed=17.820000m/h.</desc>
<speed>4.950000</speed>
</trkpt>
<trkpt lat="55.682228" lon="26.497005">
<ele>139.677856</ele>
<time>2010-07-18T10:33:36Z</time>
<desc>lat.=55.682228, lon.=26.497005, Alt.=139.677856m. Speed=17.028000m/h.</desc>
<speed>4.730000</speed>
</trkpt>
<trkpt lat="55.682220" lon="26.497093">
<ele>139.189575</ele>
<time>2010-07-18T10:33:37Z</time>
<desc>lat.=55.682220, lon.=26.497093, Alt.=139.189575m. Speed=16.308001m/h.</desc>
<speed>4.530000</speed>
</trkpt>
<trkpt lat="55.682213" lon="26.497187">
<ele>138.759888</ele>
<time>2010-07-18T10:33:38Z</time>
<desc>lat.=55.682213, lon.=26.497187, Alt.=138.759888m. Speed=15.624000m/h.</desc>
<speed>4.340000</speed>
</trkpt>
<trkpt lat="55.682201" lon="26.497274">
<ele>138.900513</ele>
<time>2010-07-18T10:33:39Z</time>
<desc>lat.=55.682201, lon.=26.497274, Alt.=138.900513m. Speed=15.984000m/h.</desc>
<speed>4.440000</speed>
</trkpt>
<trkpt lat="55.682186" lon="26.497358">
<ele>138.974731</ele>
<time>2010-07-18T10:33:40Z</time>
<desc>lat.=55.682186, lon.=26.497358, Alt.=138.974731m. Speed=17.856001m/h.</desc>
<speed>4.960000</speed>
</trkpt>
<trkpt lat="55.682171" lon="26.497442">
<ele>139.072388</ele>
<time>2010-07-18T10:33:41Z</time>
<desc>lat.=55.682171, lon.=26.497442, Alt.=139.072388m. Speed=18.000000m/h.</desc>
<speed>5.000000</speed>
</trkpt>
<trkpt lat="55.682159" lon="26.497528">
<ele>139.427856</ele>
<time>2010-07-18T10:33:42Z</time>
<desc>lat.=55.682159, lon.=26.497528, Alt.=139.427856m. Speed=18.323999m/h.</desc>
<speed>5.090000</speed>
</trkpt>
<trkpt lat="55.682137" lon="26.497616">
<ele>139.048950</ele>
<time>2010-07-18T10:33:43Z</time>
<desc>lat.=55.682137, lon.=26.497616, Alt.=139.048950m. Speed=18.108000m/h.</desc>
<speed>5.030000</speed>
</trkpt>
<trkpt lat="55.682121" lon="26.497725">
<ele>139.213013</ele>
<time>2010-07-18T10:33:44Z</time>
<desc>lat.=55.682121, lon.=26.497725, Alt.=139.213013m. Speed=18.288000m/h.</desc>
<speed>5.080000</speed>
</trkpt>
<trkpt lat="55.682087" lon="26.497803">
<ele>137.509888</ele>
<time>2010-07-18T10:33:45Z</time>
<desc>lat.=55.682087, lon.=26.497803, Alt.=137.509888m. Speed=18.180000m/h.</desc>
<speed>5.050000</speed>
</trkpt>
<trkpt lat="55.682072" lon="26.497908">
<ele>136.295044</ele>
<time>2010-07-18T10:33:46Z</time>
<desc>lat.=55.682072, lon.=26.497908, Alt.=136.295044m. Speed=17.676001m/h.</desc>
<speed>4.910000</speed>
</trkpt>
<trkpt lat="55.682072" lon="26.498014">
<ele>138.884888</ele>
<time>2010-07-18T10:33:47Z</time>
<desc>lat.=55.682072, lon.=26.498014, Alt.=138.884888m. Speed=17.568001m/h.</desc>
<speed>4.880000</speed>
</trkpt>
<trkpt lat="55.682060" lon="26.498087">
<ele>137.560669</ele>
<time>2010-07-18T10:33:48Z</time>
<desc>lat.=55.682060, lon.=26.498087, Alt.=137.560669m. Speed=16.992001m/h.</desc>
<speed>4.720000</speed>
</trkpt>
<trkpt lat="55.682060" lon="26.498178">
<ele>137.255981</ele>
<time>2010-07-18T10:33:49Z</time>
<desc>lat.=55.682060, lon.=26.498178, Alt.=137.255981m. Speed=16.379999m/h.</desc>
<speed>4.550000</speed>
</trkpt>
<trkpt lat="55.682053" lon="26.498262">
<ele>137.627075</ele>
<time>2010-07-18T10:33:50Z</time>
<desc>lat.=55.682053, lon.=26.498262, Alt.=137.627075m. Speed=16.740000m/h.</desc>
<speed>4.650000</speed>
</trkpt>
<trkpt lat="55.682041" lon="26.498344">
<ele>138.037231</ele>
<time>2010-07-18T10:33:51Z</time>
<desc>lat.=55.682041, lon.=26.498344, Alt.=138.037231m. Speed=17.424000m/h.</desc>
<speed>4.840000</speed>
</trkpt>
<trkpt lat="55.682030" lon="26.498425">
<ele>137.681763</ele>
<time>2010-07-18T10:33:52Z</time>
<desc>lat.=55.682030, lon.=26.498425, Alt.=137.681763m. Speed=17.028000m/h.</desc>
<speed>4.730000</speed>
</trkpt>
<trkpt lat="55.682011" lon="26.498499">
<ele>138.166138</ele>
<time>2010-07-18T10:33:53Z</time>
<desc>lat.=55.682011, lon.=26.498499, Alt.=138.166138m. Speed=18.072001m/h.</desc>
<speed>5.020000</speed>
</trkpt>
<trkpt lat="55.681992" lon="26.498585">
<ele>139.744263</ele>
<time>2010-07-18T10:33:54Z</time>
<desc>lat.=55.681992, lon.=26.498585, Alt.=139.744263m. Speed=18.072001m/h.</desc>
<speed>5.020000</speed>
</trkpt>
<trkpt lat="55.681973" lon="26.498659">
<ele>140.029419</ele>
<time>2010-07-18T10:33:55Z</time>
<desc>lat.=55.681973, lon.=26.498659, Alt.=140.029419m. Speed=17.747999m/h.</desc>
<speed>4.930000</speed>
</trkpt>
<trkpt lat="55.681957" lon="26.498739">
<ele>140.521606</ele>
<time>2010-07-18T10:33:56Z</time>
<desc>lat.=55.681957, lon.=26.498739, Alt.=140.521606m. Speed=16.200001m/h.</desc>
<speed>4.500000</speed>
</trkpt>
<trkpt lat="55.681938" lon="26.498795">
<ele>140.658325</ele>
<time>2010-07-18T10:33:57Z</time>
<desc>lat.=55.681938, lon.=26.498795, Alt.=140.658325m. Speed=16.632000m/h.</desc>
<speed>4.620000</speed>
</trkpt>
<trkpt lat="55.681919" lon="26.498856">
<ele>140.588013</ele>
<time>2010-07-18T10:33:58Z</time>
<desc>lat.=55.681919, lon.=26.498856, Alt.=140.588013m. Speed=16.200001m/h.</desc>
<speed>4.500000</speed>
</trkpt>
<trkpt lat="55.681900" lon="26.498919">
<ele>140.783325</ele>
<time>2010-07-18T10:33:59Z</time>
<desc>lat.=55.681900, lon.=26.498919, Alt.=140.783325m. Speed=14.940000m/h.</desc>
<speed>4.150000</speed>
</trkpt>
<trkpt lat="55.681881" lon="26.498974">
<ele>141.045044</ele>
<time>2010-07-18T10:34:00Z</time>
<desc>lat.=55.681881, lon.=26.498974, Alt.=141.045044m. Speed=14.400000m/h.</desc>
<speed>4.000000</speed>
</trkpt>
<trkpt lat="55.681858" lon="26.499027">
<ele>141.185669</ele>
<time>2010-07-18T10:34:01Z</time>
<desc>lat.=55.681858, lon.=26.499027, Alt.=141.185669m. Speed=13.356000m/h.</desc>
<speed>3.710000</speed>
</trkpt>
<trkpt lat="55.681839" lon="26.499079">
<ele>140.783325</ele>
<time>2010-07-18T10:34:02Z</time>
<desc>lat.=55.681839, lon.=26.499079, Alt.=140.783325m. Speed=12.708000m/h.</desc>
<speed>3.530000</speed>
</trkpt>
<trkpt lat="55.681820" lon="26.499121">
<ele>141.330200</ele>
<time>2010-07-18T10:34:03Z</time>
<desc>lat.=55.681820, lon.=26.499121, Alt.=141.330200m. Speed=13.536000m/h.</desc>
<speed>3.760000</speed>
</trkpt>
<trkpt lat="55.681805" lon="26.499168">
<ele>141.877075</ele>
<time>2010-07-18T10:34:04Z</time>
<desc>lat.=55.681805, lon.=26.499168, Alt.=141.877075m. Speed=11.412000m/h.</desc>
<speed>3.170000</speed>
</trkpt>
<trkpt lat="55.681789" lon="26.499207">
<ele>142.486450</ele>
<time>2010-07-18T10:34:05Z</time>
<desc>lat.=55.681789, lon.=26.499207, Alt.=142.486450m. Speed=10.620000m/h.</desc>
<speed>2.950000</speed>
</trkpt>
<trkpt lat="55.681763" lon="26.499241">
<ele>141.904419</ele>
<time>2010-07-18T10:34:06Z</time>
<desc>lat.=55.681763, lon.=26.499241, Alt.=141.904419m. Speed=12.132000m/h.</desc>
<speed>3.370000</speed>
</trkpt>
<trkpt lat="55.681732" lon="26.499277">
<ele>142.263794</ele>
<time>2010-07-18T10:34:07Z</time>
<desc>lat.=55.681732, lon.=26.499277, Alt.=142.263794m. Speed=14.760000m/h.</desc>
<speed>4.100000</speed>
</trkpt>
<trkpt lat="55.681709" lon="26.499310">
<ele>143.431763</ele>
<time>2010-07-18T10:34:08Z</time>
<desc>lat.=55.681709, lon.=26.499310, Alt.=143.431763m. Speed=10.980000m/h.</desc>
<speed>3.050000</speed>
</trkpt>
<trkpt lat="55.681690" lon="26.499336">
<ele>143.709106</ele>
<time>2010-07-18T10:34:09Z</time>
<desc>lat.=55.681690, lon.=26.499336, Alt.=143.709106m. Speed=7.236000m/h.</desc>
<speed>2.010000</speed>
</trkpt>
<trkpt lat="55.681683" lon="26.499363">
<ele>144.584106</ele>
<time>2010-07-18T10:34:10Z</time>
<desc>lat.=55.681683, lon.=26.499363, Alt.=144.584106m. Speed=6.444000m/h.</desc>
<speed>1.790000</speed>
</trkpt>
<trkpt lat="55.681675" lon="26.499378">
<ele>145.130981</ele>
<time>2010-07-18T10:34:11Z</time>
<desc>lat.=55.681675, lon.=26.499378, Alt.=145.130981m. Speed=3.672000m/h.</desc>
<speed>1.020000</speed>
</trkpt>
<trkpt lat="55.681664" lon="26.499382">
<ele>145.029419</ele>
<time>2010-07-18T10:34:12Z</time>
<desc>lat.=55.681664, lon.=26.499382, Alt.=145.029419m. Speed=0.720000m/h.</desc>
<speed>0.200000</speed>
</trkpt>
<trkpt lat="55.681660" lon="26.499380">
<ele>144.736450</ele>
<time>2010-07-18T10:34:13Z</time>
<desc>lat.=55.681660, lon.=26.499380, Alt.=144.736450m. Speed=0.936000m/h.</desc>
<speed>0.260000</speed>
</trkpt>
<trkpt lat="55.681648" lon="26.499372">
<ele>144.494263</ele>
<time>2010-07-18T10:34:14Z</time>
<desc>lat.=55.681648, lon.=26.499372, Alt.=144.494263m. Speed=0.756000m/h.</desc>
<speed>0.210000</speed>
</trkpt>
<trkpt lat="55.681644" lon="26.499372">
<ele>144.705200</ele>
<time>2010-07-18T10:34:15Z</time>
<desc>lat.=55.681644, lon.=26.499372, Alt.=144.705200m. Speed=0.360000m/h.</desc>
<speed>0.100000</speed>
</trkpt>
<trkpt lat="55.681644" lon="26.499372">
<ele>144.748169</ele>
<time>2010-07-18T10:34:16Z</time>
<desc>lat.=55.681644, lon.=26.499372, Alt.=144.748169m. Speed=0.360000m/h.</desc>
<speed>0.100000</speed>
</trkpt>
<trkpt lat="55.681644" lon="26.499371">
<ele>144.779419</ele>
<time>2010-07-18T10:34:17Z</time>
<desc>lat.=55.681644, lon.=26.499371, Alt.=144.779419m. Speed=0.144000m/h.</desc>
<speed>0.040000</speed>
</trkpt>
<trkpt lat="55.681644" lon="26.499371">
<ele>144.810669</ele>
<time>2010-07-18T10:34:18Z</time>
<desc>lat.=55.681644, lon.=26.499371, Alt.=144.810669m. Speed=0.252000m/h.</desc>
<speed>0.070000</speed>
</trkpt>
<trkpt lat="55.681644" lon="26.499371">
<ele>144.822388</ele>
<time>2010-07-18T10:34:19Z</time>
<desc>lat.=55.681644, lon.=26.499371, Alt.=144.822388m. Speed=0.180000m/h.</desc>
<speed>0.050000</speed>
</trkpt>
<trkpt lat="55.681644" lon="26.499371">
<ele>144.845825</ele>
<time>2010-07-18T10:34:20Z</time>
<desc>lat.=55.681644, lon.=26.499371, Alt.=144.845825m. Speed=0.216000m/h.</desc>
<speed>0.060000</speed>
</trkpt>
<trkpt lat="55.681644" lon="26.499371">
<ele>144.880981</ele>
<time>2010-07-18T10:34:21Z</time>
<desc>lat.=55.681644, lon.=26.499371, Alt.=144.880981m. Speed=0.432000m/h.</desc>
<speed>0.120000</speed>
</trkpt>
<trkpt lat="55.681644" lon="26.499369">
<ele>144.912231</ele>
<time>2010-07-18T10:34:22Z</time>
<desc>lat.=55.681644, lon.=26.499369, Alt.=144.912231m. Speed=0.396000m/h.</desc>
<speed>0.110000</speed>
</trkpt>
<trkpt lat="55.681644" lon="26.499367">
<ele>144.935669</ele>
<time>2010-07-18T10:34:23Z</time>
<desc>lat.=55.681644, lon.=26.499367, Alt.=144.935669m. Speed=0.360000m/h.</desc>
<speed>0.100000</speed>
</trkpt>
<trkpt lat="55.681644" lon="26.499365">
<ele>144.951294</ele>
<time>2010-07-18T10:34:24Z</time>
<desc>lat.=55.681644, lon.=26.499365, Alt.=144.951294m. Speed=0.036000m/h.</desc>
<speed>0.010000</speed>
</trkpt>
<trkpt lat="55.681644" lon="26.499365">
<ele>144.955200</ele>
<time>2010-07-18T10:34:25Z</time>
<desc>lat.=55.681644, lon.=26.499365, Alt.=144.955200m. Speed=0.252000m/h.</desc>
<speed>0.070000</speed>
</trkpt>
<trkpt lat="55.681644" lon="26.499365">
<ele>144.951294</ele>
<time>2010-07-18T10:34:26Z</time>
<desc>lat.=55.681644, lon.=26.499365, Alt.=144.951294m. Speed=0.036000m/h.</desc>
<speed>0.010000</speed>
</trkpt>
<trkpt lat="55.681644" lon="26.499365">
<ele>144.947388</ele>
<time>2010-07-18T10:34:27Z</time>
<desc>lat.=55.681644, lon.=26.499365, Alt.=144.947388m. Speed=0.144000m/h.</desc>
<speed>0.040000</speed>
</trkpt>
<trkpt lat="55.681644" lon="26.499365">
<ele>144.947388</ele>
<time>2010-07-18T10:34:28Z</time>
<desc>lat.=55.681644, lon.=26.499365, Alt.=144.947388m. Speed=0.072000m/h.</desc>
<speed>0.020000</speed>
</trkpt>
<trkpt lat="55.681641" lon="26.499365">
<ele>144.947388</ele>
<time>2010-07-18T10:34:29Z</time>
<desc>lat.=55.681641, lon.=26.499365, Alt.=144.947388m. Speed=0.396000m/h.</desc>
<speed>0.110000</speed>
</trkpt>
<trkpt lat="55.681641" lon="26.499365">
<ele>144.951294</ele>
<time>2010-07-18T10:34:30Z</time>
<desc>lat.=55.681641, lon.=26.499365, Alt.=144.951294m. Speed=0.432000m/h.</desc>
<speed>0.120000</speed>
</trkpt>
<trkpt lat="55.681641" lon="26.499367">
<ele>144.955200</ele>
<time>2010-07-18T10:34:31Z</time>
<desc>lat.=55.681641, lon.=26.499367, Alt.=144.955200m. Speed=0.360000m/h.</desc>
<speed>0.100000</speed>
</trkpt>
<trkpt lat="55.681641" lon="26.499369">
<ele>144.959106</ele>
<time>2010-07-18T10:34:32Z</time>
<desc>lat.=55.681641, lon.=26.499369, Alt.=144.959106m. Speed=0.360000m/h.</desc>
<speed>0.100000</speed>
</trkpt>
<trkpt lat="55.681641" lon="26.499371">
<ele>144.963013</ele>
<time>2010-07-18T10:34:33Z</time>
<desc>lat.=55.681641, lon.=26.499371, Alt.=144.963013m. Speed=0.648000m/h.</desc>
<speed>0.180000</speed>
</trkpt>
<trkpt lat="55.681644" lon="26.499372">
<ele>144.963013</ele>
<time>2010-07-18T10:34:34Z</time>
<desc>lat.=55.681644, lon.=26.499372, Alt.=144.963013m. Speed=1.044000m/h.</desc>
<speed>0.290000</speed>
</trkpt>
<trkpt lat="55.681644" lon="26.499374">
<ele>144.966919</ele>
<time>2010-07-18T10:34:35Z</time>
<desc>lat.=55.681644, lon.=26.499374, Alt.=144.966919m. Speed=1.332000m/h.</desc>
<speed>0.370000</speed>
</trkpt>
<trkpt lat="55.681648" lon="26.499380">
<ele>144.970825</ele>
<time>2010-07-18T10:34:36Z</time>
<desc>lat.=55.681648, lon.=26.499380, Alt.=144.970825m. Speed=1.512000m/h.</desc>
<speed>0.420000</speed>
</trkpt>
<trkpt lat="55.681648" lon="26.499384">
<ele>144.978638</ele>
<time>2010-07-18T10:34:37Z</time>
<desc>lat.=55.681648, lon.=26.499384, Alt.=144.978638m. Speed=1.728000m/h.</desc>
<speed>0.480000</speed>
</trkpt>
<trkpt lat="55.681652" lon="26.499390">
<ele>144.982544</ele>
<time>2010-07-18T10:34:38Z</time>
<desc>lat.=55.681652, lon.=26.499390, Alt.=144.982544m. Speed=1.476000m/h.</desc>
<speed>0.410000</speed>
</trkpt>
<trkpt lat="55.681656" lon="26.499395">
<ele>144.986450</ele>
<time>2010-07-18T10:34:39Z</time>
<desc>lat.=55.681656, lon.=26.499395, Alt.=144.986450m. Speed=1.044000m/h.</desc>
<speed>0.290000</speed>
</trkpt>
<trkpt lat="55.681656" lon="26.499399">
<ele>144.990356</ele>
<time>2010-07-18T10:34:40Z</time>
<desc>lat.=55.681656, lon.=26.499399, Alt.=144.990356m. Speed=0.828000m/h.</desc>
<speed>0.230000</speed>
</trkpt>
<trkpt lat="55.681656" lon="26.499403">
<ele>144.998169</ele>
<time>2010-07-18T10:34:41Z</time>
<desc>lat.=55.681656, lon.=26.499403, Alt.=144.998169m. Speed=0.468000m/h.</desc>
<speed>0.130000</speed>
</trkpt>
<trkpt lat="55.681652" lon="26.499405">
<ele>145.002075</ele>
<time>2010-07-18T10:34:42Z</time>
<desc>lat.=55.681652, lon.=26.499405, Alt.=145.002075m. Speed=0.252000m/h.</desc>
<speed>0.070000</speed>
</trkpt>
<trkpt lat="55.681656" lon="26.499405">
<ele>145.005981</ele>
<time>2010-07-18T10:34:43Z</time>
<desc>lat.=55.681656, lon.=26.499405, Alt.=145.005981m. Speed=0.288000m/h.</desc>
<speed>0.080000</speed>
</trkpt>
<trkpt lat="55.681656" lon="26.499407">
<ele>145.013794</ele>
<time>2010-07-18T10:34:44Z</time>
<desc>lat.=55.681656, lon.=26.499407, Alt.=145.013794m. Speed=0.216000m/h.</desc>
<speed>0.060000</speed>
</trkpt>
<trkpt lat="55.681656" lon="26.499407">
<ele>145.017700</ele>
<time>2010-07-18T10:34:45Z</time>
<desc>lat.=55.681656, lon.=26.499407, Alt.=145.017700m. Speed=0.324000m/h.</desc>
<speed>0.090000</speed>
</trkpt>
<trkpt lat="55.681656" lon="26.499409">
<ele>145.025513</ele>
<time>2010-07-18T10:34:46Z</time>
<desc>lat.=55.681656, lon.=26.499409, Alt.=145.025513m. Speed=0.468000m/h.</desc>
<speed>0.130000</speed>
</trkpt>
<trkpt lat="55.681656" lon="26.499411">
<ele>145.033325</ele>
<time>2010-07-18T10:34:47Z</time>
<desc>lat.=55.681656, lon.=26.499411, Alt.=145.033325m. Speed=0.324000m/h.</desc>
<speed>0.090000</speed>
</trkpt>
<trkpt lat="55.681656" lon="26.499413">
<ele>145.041138</ele>
<time>2010-07-18T10:34:48Z</time>
<desc>lat.=55.681656, lon.=26.499413, Alt.=145.041138m. Speed=0.432000m/h.</desc>
<speed>0.120000</speed>
</trkpt>
<trkpt lat="55.681656" lon="26.499414">
<ele>145.048950</ele>
<time>2010-07-18T10:34:49Z</time>
<desc>lat.=55.681656, lon.=26.499414, Alt.=145.048950m. Speed=0.360000m/h.</desc>
<speed>0.100000</speed>
</trkpt>
<trkpt lat="55.681656" lon="26.499414">
<ele>145.056763</ele>
<time>2010-07-18T10:34:50Z</time>
<desc>lat.=55.681656, lon.=26.499414, Alt.=145.056763m. Speed=0.828000m/h.</desc>
<speed>0.230000</speed>
</trkpt>
<trkpt lat="55.681652" lon="26.499413">
<ele>145.064575</ele>
<time>2010-07-18T10:34:51Z</time>
<desc>lat.=55.681652, lon.=26.499413, Alt.=145.064575m. Speed=0.972000m/h.</desc>
<speed>0.270000</speed>
</trkpt>
<trkpt lat="55.681652" lon="26.499411">
<ele>145.072388</ele>
<time>2010-07-18T10:34:52Z</time>
<desc>lat.=55.681652, lon.=26.499411, Alt.=145.072388m. Speed=0.972000m/h.</desc>
<speed>0.270000</speed>
</trkpt>
<trkpt lat="55.681648" lon="26.499409">
<ele>145.084106</ele>
<time>2010-07-18T10:34:53Z</time>
<desc>lat.=55.681648, lon.=26.499409, Alt.=145.084106m. Speed=1.152000m/h.</desc>
<speed>0.320000</speed>
</trkpt>
<trkpt lat="55.681644" lon="26.499407">
<ele>145.091919</ele>
<time>2010-07-18T10:34:54Z</time>
<desc>lat.=55.681644, lon.=26.499407, Alt.=145.091919m. Speed=1.188000m/h.</desc>
<speed>0.330000</speed>
</trkpt>
<trkpt lat="55.681641" lon="26.499405">
<ele>145.099731</ele>
<time>2010-07-18T10:34:55Z</time>
<desc>lat.=55.681641, lon.=26.499405, Alt.=145.099731m. Speed=0.972000m/h.</desc>
<speed>0.270000</speed>
</trkpt>
<trkpt lat="55.681641" lon="26.499403">
<ele>145.111450</ele>
<time>2010-07-18T10:34:56Z</time>
<desc>lat.=55.681641, lon.=26.499403, Alt.=145.111450m. Speed=1.080000m/h.</desc>
<speed>0.300000</speed>
</trkpt>
<trkpt lat="55.681637" lon="26.499401">
<ele>145.119263</ele>
<time>2010-07-18T10:34:57Z</time>
<desc>lat.=55.681637, lon.=26.499401, Alt.=145.119263m. Speed=1.296000m/h.</desc>
<speed>0.360000</speed>
</trkpt>
<trkpt lat="55.681633" lon="26.499399">
<ele>145.123169</ele>
<time>2010-07-18T10:34:58Z</time>
<desc>lat.=55.681633, lon.=26.499399, Alt.=145.123169m. Speed=1.368000m/h.</desc>
<speed>0.380000</speed>
</trkpt>
<trkpt lat="55.681629" lon="26.499399">
<ele>145.130981</ele>
<time>2010-07-18T10:34:59Z</time>
<desc>lat.=55.681629, lon.=26.499399, Alt.=145.130981m. Speed=1.368000m/h.</desc>
<speed>0.380000</speed>
</trkpt>
<trkpt lat="55.681625" lon="26.499397">
<ele>145.134888</ele>
<time>2010-07-18T10:35:00Z</time>
<desc>lat.=55.681625, lon.=26.499397, Alt.=145.134888m. Speed=1.080000m/h.</desc>
<speed>0.300000</speed>
</trkpt>
<trkpt lat="55.681625" lon="26.499397">
<ele>145.142700</ele>
<time>2010-07-18T10:35:01Z</time>
<desc>lat.=55.681625, lon.=26.499397, Alt.=145.142700m. Speed=1.116000m/h.</desc>
<speed>0.310000</speed>
</trkpt>
<trkpt lat="55.681622" lon="26.499397">
<ele>145.166138</ele>
<time>2010-07-18T10:35:02Z</time>
<desc>lat.=55.681622, lon.=26.499397, Alt.=145.166138m. Speed=1.044000m/h.</desc>
<speed>0.290000</speed>
</trkpt>
<trkpt lat="55.681618" lon="26.499399">
<ele>145.201294</ele>
<time>2010-07-18T10:35:03Z</time>
<desc>lat.=55.681618, lon.=26.499399, Alt.=145.201294m. Speed=2.304000m/h.</desc>
<speed>0.640000</speed>
</trkpt>
<trkpt lat="55.681614" lon="26.499405">
<ele>145.224731</ele>
<time>2010-07-18T10:35:04Z</time>
<desc>lat.=55.681614, lon.=26.499405, Alt.=145.224731m. Speed=3.420000m/h.</desc>
<speed>0.950000</speed>
</trkpt>
<trkpt lat="55.681606" lon="26.499413">
<ele>145.236450</ele>
<time>2010-07-18T10:35:05Z</time>
<desc>lat.=55.681606, lon.=26.499413, Alt.=145.236450m. Speed=3.528000m/h.</desc>
<speed>0.980000</speed>
</trkpt>
<trkpt lat="55.681602" lon="26.499424">
<ele>145.263794</ele>
<time>2010-07-18T10:35:06Z</time>
<desc>lat.=55.681602, lon.=26.499424, Alt.=145.263794m. Speed=4.428000m/h.</desc>
<speed>1.230000</speed>
</trkpt>
<trkpt lat="55.681591" lon="26.499447">
<ele>144.990356</ele>
<time>2010-07-18T10:35:07Z</time>
<desc>lat.=55.681591, lon.=26.499447, Alt.=144.990356m. Speed=5.760000m/h.</desc>
<speed>1.600000</speed>
</trkpt>
<trkpt lat="55.681576" lon="26.499462">
<ele>144.912231</ele>
<time>2010-07-18T10:35:08Z</time>
<desc>lat.=55.681576, lon.=26.499462, Alt.=144.912231m. Speed=8.064000m/h.</desc>
<speed>2.240000</speed>
</trkpt>
<trkpt lat="55.681557" lon="26.499479">
<ele>144.818481</ele>
<time>2010-07-18T10:35:09Z</time>
<desc>lat.=55.681557, lon.=26.499479, Alt.=144.818481m. Speed=9.072000m/h.</desc>
<speed>2.520000</speed>
</trkpt>
<trkpt lat="55.681538" lon="26.499508">
<ele>144.701294</ele>
<time>2010-07-18T10:35:10Z</time>
<desc>lat.=55.681538, lon.=26.499508, Alt.=144.701294m. Speed=11.304000m/h.</desc>
<speed>3.140000</speed>
</trkpt>
<trkpt lat="55.681515" lon="26.499538">
<ele>144.525513</ele>
<time>2010-07-18T10:35:11Z</time>
<desc>lat.=55.681515, lon.=26.499538, Alt.=144.525513m. Speed=12.492000m/h.</desc>
<speed>3.470000</speed>
</trkpt>
<trkpt lat="55.681492" lon="26.499565">
<ele>144.654419</ele>
<time>2010-07-18T10:35:12Z</time>
<desc>lat.=55.681492, lon.=26.499565, Alt.=144.654419m. Speed=12.564000m/h.</desc>
<speed>3.490000</speed>
</trkpt>
<trkpt lat="55.681461" lon="26.499598">
<ele>143.896606</ele>
<time>2010-07-18T10:35:13Z</time>
<desc>lat.=55.681461, lon.=26.499598, Alt.=143.896606m. Speed=9.828000m/h.</desc>
<speed>2.730000</speed>
</trkpt>
<trkpt lat="55.681435" lon="26.499619">
<ele>143.822388</ele>
<time>2010-07-18T10:35:14Z</time>
<desc>lat.=55.681435, lon.=26.499619, Alt.=143.822388m. Speed=11.268000m/h.</desc>
<speed>3.130000</speed>
</trkpt>
<trkpt lat="55.681404" lon="26.499649">
<ele>143.775513</ele>
<time>2010-07-18T10:35:15Z</time>
<desc>lat.=55.681404, lon.=26.499649, Alt.=143.775513m. Speed=11.448000m/h.</desc>
<speed>3.180000</speed>
</trkpt>
<trkpt lat="55.681381" lon="26.499672">
<ele>143.560669</ele>
<time>2010-07-18T10:35:16Z</time>
<desc>lat.=55.681381, lon.=26.499672, Alt.=143.560669m. Speed=9.648000m/h.</desc>
<speed>2.680000</speed>
</trkpt>
<trkpt lat="55.681355" lon="26.499701">
<ele>143.502075</ele>
<time>2010-07-18T10:35:17Z</time>
<desc>lat.=55.681355, lon.=26.499701, Alt.=143.502075m. Speed=10.944000m/h.</desc>
<speed>3.040000</speed>
</trkpt>
<trkpt lat="55.681332" lon="26.499723">
<ele>143.588013</ele>
<time>2010-07-18T10:35:18Z</time>
<desc>lat.=55.681332, lon.=26.499723, Alt.=143.588013m. Speed=10.368000m/h.</desc>
<speed>2.880000</speed>
</trkpt>
<trkpt lat="55.681305" lon="26.499748">
<ele>143.185669</ele>
<time>2010-07-18T10:35:19Z</time>
<desc>lat.=55.681305, lon.=26.499748, Alt.=143.185669m. Speed=13.176000m/h.</desc>
<speed>3.660000</speed>
</trkpt>
<trkpt lat="55.681282" lon="26.499775">
<ele>143.588013</ele>
<time>2010-07-18T10:35:20Z</time>
<desc>lat.=55.681282, lon.=26.499775, Alt.=143.588013m. Speed=10.800000m/h.</desc>
<speed>3.000000</speed>
</trkpt>
<trkpt lat="55.681259" lon="26.499804">
<ele>143.529419</ele>
<time>2010-07-18T10:35:21Z</time>
<desc>lat.=55.681259, lon.=26.499804, Alt.=143.529419m. Speed=9.360000m/h.</desc>
<speed>2.600000</speed>
</trkpt>
<trkpt lat="55.681240" lon="26.499828">
<ele>143.224731</ele>
<time>2010-07-18T10:35:22Z</time>
<desc>lat.=55.681240, lon.=26.499828, Alt.=143.224731m. Speed=8.604000m/h.</desc>
<speed>2.390000</speed>
</trkpt>
<trkpt lat="55.681210" lon="26.499859">
<ele>142.701294</ele>
<time>2010-07-18T10:35:23Z</time>
<desc>lat.=55.681210, lon.=26.499859, Alt.=142.701294m. Speed=11.232000m/h.</desc>
<speed>3.120000</speed>
</trkpt>
<trkpt lat="55.681183" lon="26.499880">
<ele>142.291138</ele>
<time>2010-07-18T10:35:24Z</time>
<desc>lat.=55.681183, lon.=26.499880, Alt.=142.291138m. Speed=11.772000m/h.</desc>
<speed>3.270000</speed>
</trkpt>
<trkpt lat="55.681149" lon="26.499899">
<ele>141.900513</ele>
<time>2010-07-18T10:35:25Z</time>
<desc>lat.=55.681149, lon.=26.499899, Alt.=141.900513m. Speed=12.204000m/h.</desc>
<speed>3.390000</speed>
</trkpt>
<trkpt lat="55.681129" lon="26.499914">
<ele>142.873169</ele>
<time>2010-07-18T10:35:26Z</time>
<desc>lat.=55.681129, lon.=26.499914, Alt.=142.873169m. Speed=10.188000m/h.</desc>
<speed>2.830000</speed>
</trkpt>
<trkpt lat="55.681107" lon="26.499943">
<ele>143.455200</ele>
<time>2010-07-18T10:35:27Z</time>
<desc>lat.=55.681107, lon.=26.499943, Alt.=143.455200m. Speed=11.232000m/h.</desc>
<speed>3.120000</speed>
</trkpt>
<trkpt lat="55.681080" lon="26.499960">
<ele>143.685669</ele>
<time>2010-07-18T10:35:28Z</time>
<desc>lat.=55.681080, lon.=26.499960, Alt.=143.685669m. Speed=10.260000m/h.</desc>
<speed>2.850000</speed>
</trkpt>
<trkpt lat="55.681057" lon="26.499981">
<ele>143.517700</ele>
<time>2010-07-18T10:35:29Z</time>
<desc>lat.=55.681057, lon.=26.499981, Alt.=143.517700m. Speed=9.468000m/h.</desc>
<speed>2.630000</speed>
</trkpt>
<trkpt lat="55.681026" lon="26.500004">
<ele>143.048950</ele>
<time>2010-07-18T10:35:30Z</time>
<desc>lat.=55.681026, lon.=26.500004, Alt.=143.048950m. Speed=10.800000m/h.</desc>
<speed>3.000000</speed>
</trkpt>
<trkpt lat="55.680992" lon="26.500029">
<ele>142.939575</ele>
<time>2010-07-18T10:35:31Z</time>
<desc>lat.=55.680992, lon.=26.500029, Alt.=142.939575m. Speed=11.808000m/h.</desc>
<speed>3.280000</speed>
</trkpt>
<trkpt lat="55.680965" lon="26.500059">
<ele>142.388794</ele>
<time>2010-07-18T10:35:32Z</time>
<desc>lat.=55.680965, lon.=26.500059, Alt.=142.388794m. Speed=11.376000m/h.</desc>
<speed>3.160000</speed>
</trkpt>
<trkpt lat="55.680935" lon="26.500086">
<ele>142.134888</ele>
<time>2010-07-18T10:35:33Z</time>
<desc>lat.=55.680935, lon.=26.500086, Alt.=142.134888m. Speed=13.248000m/h.</desc>
<speed>3.680000</speed>
</trkpt>
<trkpt lat="55.680893" lon="26.500118">
<ele>141.564575</ele>
<time>2010-07-18T10:35:34Z</time>
<desc>lat.=55.680893, lon.=26.500118, Alt.=141.564575m. Speed=13.428000m/h.</desc>
<speed>3.730000</speed>
</trkpt>
<trkpt lat="55.680859" lon="26.500153">
<ele>141.013794</ele>
<time>2010-07-18T10:35:35Z</time>
<desc>lat.=55.680859, lon.=26.500153, Alt.=141.013794m. Speed=13.644000m/h.</desc>
<speed>3.790000</speed>
</trkpt>
<trkpt lat="55.680820" lon="26.500191">
<ele>140.947388</ele>
<time>2010-07-18T10:35:36Z</time>
<desc>lat.=55.680820, lon.=26.500191, Alt.=140.947388m. Speed=14.112000m/h.</desc>
<speed>3.920000</speed>
</trkpt>
<trkpt lat="55.680782" lon="26.500214">
<ele>141.084106</ele>
<time>2010-07-18T10:35:37Z</time>
<desc>lat.=55.680782, lon.=26.500214, Alt.=141.084106m. Speed=14.652000m/h.</desc>
<speed>4.070000</speed>
</trkpt>
<trkpt lat="55.680748" lon="26.500237">
<ele>140.634888</ele>
<time>2010-07-18T10:35:38Z</time>
<desc>lat.=55.680748, lon.=26.500237, Alt.=140.634888m. Speed=15.120000m/h.</desc>
<speed>4.200000</speed>
</trkpt>
<trkpt lat="55.680702" lon="26.500257">
<ele>141.255981</ele>
<time>2010-07-18T10:35:39Z</time>
<desc>lat.=55.680702, lon.=26.500257, Alt.=141.255981m. Speed=15.984000m/h.</desc>
<speed>4.440000</speed>
</trkpt>
<trkpt lat="55.680660" lon="26.500286">
<ele>141.302856</ele>
<time>2010-07-18T10:35:40Z</time>
<desc>lat.=55.680660, lon.=26.500286, Alt.=141.302856m. Speed=16.452000m/h.</desc>
<speed>4.570000</speed>
</trkpt>
<trkpt lat="55.680626" lon="26.500320">
<ele>141.584106</ele>
<time>2010-07-18T10:35:41Z</time>
<desc>lat.=55.680626, lon.=26.500320, Alt.=141.584106m. Speed=16.884001m/h.</desc>
<speed>4.690000</speed>
</trkpt>
<trkpt lat="55.680584" lon="26.500355">
<ele>141.502075</ele>
<time>2010-07-18T10:35:42Z</time>
<desc>lat.=55.680584, lon.=26.500355, Alt.=141.502075m. Speed=17.280001m/h.</desc>
<speed>4.800000</speed>
</trkpt>
<trkpt lat="55.680546" lon="26.500389">
<ele>141.490356</ele>
<time>2010-07-18T10:35:43Z</time>
<desc>lat.=55.680546, lon.=26.500389, Alt.=141.490356m. Speed=17.243999m/h.</desc>
<speed>4.790000</speed>
</trkpt>
<trkpt lat="55.680508" lon="26.500422">
<ele>141.377075</ele>
<time>2010-07-18T10:35:44Z</time>
<desc>lat.=55.680508, lon.=26.500422, Alt.=141.377075m. Speed=17.712000m/h.</desc>
<speed>4.920000</speed>
</trkpt>
<trkpt lat="55.680466" lon="26.500458">
<ele>141.064575</ele>
<time>2010-07-18T10:35:45Z</time>
<desc>lat.=55.680466, lon.=26.500458, Alt.=141.064575m. Speed=16.344000m/h.</desc>
<speed>4.540000</speed>
</trkpt>
<trkpt lat="55.680431" lon="26.500494">
<ele>140.802856</ele>
<time>2010-07-18T10:35:46Z</time>
<desc>lat.=55.680431, lon.=26.500494, Alt.=140.802856m. Speed=15.984000m/h.</desc>
<speed>4.440000</speed>
</trkpt>
<trkpt lat="55.680397" lon="26.500534">
<ele>140.548950</ele>
<time>2010-07-18T10:35:47Z</time>
<desc>lat.=55.680397, lon.=26.500534, Alt.=140.548950m. Speed=17.063999m/h.</desc>
<speed>4.740000</speed>
</trkpt>
<trkpt lat="55.680359" lon="26.500568">
<ele>140.443481</ele>
<time>2010-07-18T10:35:48Z</time>
<desc>lat.=55.680359, lon.=26.500568, Alt.=140.443481m. Speed=16.344000m/h.</desc>
<speed>4.540000</speed>
</trkpt>
<trkpt lat="55.680321" lon="26.500601">
<ele>140.291138</ele>
<time>2010-07-18T10:35:49Z</time>
<desc>lat.=55.680321, lon.=26.500601, Alt.=140.291138m. Speed=16.271999m/h.</desc>
<speed>4.520000</speed>
</trkpt>
<trkpt lat="55.680290" lon="26.500635">
<ele>140.177856</ele>
<time>2010-07-18T10:35:50Z</time>
<desc>lat.=55.680290, lon.=26.500635, Alt.=140.177856m. Speed=12.960000m/h.</desc>
<speed>3.600000</speed>
</trkpt>
<trkpt lat="55.680260" lon="26.500675">
<ele>139.884888</ele>
<time>2010-07-18T10:35:51Z</time>
<desc>lat.=55.680260, lon.=26.500675, Alt.=139.884888m. Speed=14.328000m/h.</desc>
<speed>3.980000</speed>
</trkpt>
<trkpt lat="55.680241" lon="26.500711">
<ele>139.806763</ele>
<time>2010-07-18T10:35:52Z</time>
<desc>lat.=55.680241, lon.=26.500711, Alt.=139.806763m. Speed=11.016000m/h.</desc>
<speed>3.060000</speed>
</trkpt>
<trkpt lat="55.680218" lon="26.500750">
<ele>139.697388</ele>
<time>2010-07-18T10:35:53Z</time>
<desc>lat.=55.680218, lon.=26.500750, Alt.=139.697388m. Speed=11.988000m/h.</desc>
<speed>3.330000</speed>
</trkpt>
<trkpt lat="55.680191" lon="26.500790">
<ele>139.822388</ele>
<time>2010-07-18T10:35:54Z</time>
<desc>lat.=55.680191, lon.=26.500790, Alt.=139.822388m. Speed=12.996000m/h.</desc>
<speed>3.610000</speed>
</trkpt>
<trkpt lat="55.680161" lon="26.500830">
<ele>139.923950</ele>
<time>2010-07-18T10:35:55Z</time>
<desc>lat.=55.680161, lon.=26.500830, Alt.=139.923950m. Speed=12.924000m/h.</desc>
<speed>3.590000</speed>
</trkpt>
<trkpt lat="55.680119" lon="26.500866">
<ele>139.787231</ele>
<time>2010-07-18T10:35:56Z</time>
<desc>lat.=55.680119, lon.=26.500866, Alt.=139.787231m. Speed=14.760000m/h.</desc>
<speed>4.100000</speed>
</trkpt>
<trkpt lat="55.680073" lon="26.500900">
<ele>139.951294</ele>
<time>2010-07-18T10:35:57Z</time>
<desc>lat.=55.680073, lon.=26.500900, Alt.=139.951294m. Speed=15.084000m/h.</desc>
<speed>4.190000</speed>
</trkpt>
<trkpt lat="55.680035" lon="26.500931">
<ele>140.494263</ele>
<time>2010-07-18T10:35:58Z</time>
<desc>lat.=55.680035, lon.=26.500931, Alt.=140.494263m. Speed=12.672000m/h.</desc>
<speed>3.520000</speed>
</trkpt>
<trkpt lat="55.680008" lon="26.500965">
<ele>141.213013</ele>
<time>2010-07-18T10:35:59Z</time>
<desc>lat.=55.680008, lon.=26.500965, Alt.=141.213013m. Speed=12.960000m/h.</desc>
<speed>3.600000</speed>
</trkpt>
<trkpt lat="55.679989" lon="26.501011">
<ele>142.338013</ele>
<time>2010-07-18T10:36:00Z</time>
<desc>lat.=55.679989, lon.=26.501011, Alt.=142.338013m. Speed=10.656000m/h.</desc>
<speed>2.960000</speed>
</trkpt>
<trkpt lat="55.679966" lon="26.501055">
<ele>143.384888</ele>
<time>2010-07-18T10:36:01Z</time>
<desc>lat.=55.679966, lon.=26.501055, Alt.=143.384888m. Speed=11.448000m/h.</desc>
<speed>3.180000</speed>
</trkpt>
<trkpt lat="55.679935" lon="26.501091">
<ele>144.252075</ele>
<time>2010-07-18T10:36:02Z</time>
<desc>lat.=55.679935, lon.=26.501091, Alt.=144.252075m. Speed=12.600000m/h.</desc>
<speed>3.500000</speed>
</trkpt>
<trkpt lat="55.679901" lon="26.501133">
<ele>144.396606</ele>
<time>2010-07-18T10:36:03Z</time>
<desc>lat.=55.679901, lon.=26.501133, Alt.=144.396606m. Speed=12.636000m/h.</desc>
<speed>3.510000</speed>
</trkpt>
<trkpt lat="55.679878" lon="26.501167">
<ele>145.400513</ele>
<time>2010-07-18T10:36:04Z</time>
<desc>lat.=55.679878, lon.=26.501167, Alt.=145.400513m. Speed=8.784000m/h.</desc>
<speed>2.440000</speed>
</trkpt>
<trkpt lat="55.679855" lon="26.501198">
<ele>146.685669</ele>
<time>2010-07-18T10:36:05Z</time>
<desc>lat.=55.679855, lon.=26.501198, Alt.=146.685669m. Speed=12.096000m/h.</desc>
<speed>3.360000</speed>
</trkpt>
<trkpt lat="55.679829" lon="26.501234">
<ele>147.463013</ele>
<time>2010-07-18T10:36:06Z</time>
<desc>lat.=55.679829, lon.=26.501234, Alt.=147.463013m. Speed=9.540000m/h.</desc>
<speed>2.650000</speed>
</trkpt>
<trkpt lat="55.679802" lon="26.501274">
<ele>148.521606</ele>
<time>2010-07-18T10:36:07Z</time>
<desc>lat.=55.679802, lon.=26.501274, Alt.=148.521606m. Speed=10.512000m/h.</desc>
<speed>2.920000</speed>
</trkpt>
<trkpt lat="55.679760" lon="26.501316">
<ele>148.869263</ele>
<time>2010-07-18T10:36:08Z</time>
<desc>lat.=55.679760, lon.=26.501316, Alt.=148.869263m. Speed=12.744000m/h.</desc>
<speed>3.540000</speed>
</trkpt>
<trkpt lat="55.679737" lon="26.501352">
<ele>149.384888</ele>
<time>2010-07-18T10:36:09Z</time>
<desc>lat.=55.679737, lon.=26.501352, Alt.=149.384888m. Speed=14.940000m/h.</desc>
<speed>4.150000</speed>
</trkpt>
<trkpt lat="55.679680" lon="26.501390">
<ele>148.443481</ele>
<time>2010-07-18T10:36:10Z</time>
<desc>lat.=55.679680, lon.=26.501390, Alt.=148.443481m. Speed=16.920000m/h.</desc>
<speed>4.700000</speed>
</trkpt>
<trkpt lat="55.679619" lon="26.501431">
<ele>148.384888</ele>
<time>2010-07-18T10:36:11Z</time>
<desc>lat.=55.679619, lon.=26.501431, Alt.=148.384888m. Speed=15.912000m/h.</desc>
<speed>4.420000</speed>
</trkpt>
<trkpt lat="55.679569" lon="26.501471">
<ele>147.345825</ele>
<time>2010-07-18T10:36:12Z</time>
<desc>lat.=55.679569, lon.=26.501471, Alt.=147.345825m. Speed=16.200001m/h.</desc>
<speed>4.500000</speed>
</trkpt>
<trkpt lat="55.679539" lon="26.501514">
<ele>147.564575</ele>
<time>2010-07-18T10:36:13Z</time>
<desc>lat.=55.679539, lon.=26.501514, Alt.=147.564575m. Speed=15.768000m/h.</desc>
<speed>4.380000</speed>
</trkpt>
<trkpt lat="55.679482" lon="26.501534">
<ele>145.525513</ele>
<time>2010-07-18T10:36:14Z</time>
<desc>lat.=55.679482, lon.=26.501534, Alt.=145.525513m. Speed=16.667999m/h.</desc>
<speed>4.630000</speed>
</trkpt>
<trkpt lat="55.679428" lon="26.501564">
<ele>144.138794</ele>
<time>2010-07-18T10:36:15Z</time>
<desc>lat.=55.679428, lon.=26.501564, Alt.=144.138794m. Speed=18.108000m/h.</desc>
<speed>5.030000</speed>
</trkpt>
<trkpt lat="55.679379" lon="26.501606">
<ele>145.318481</ele>
<time>2010-07-18T10:36:16Z</time>
<desc>lat.=55.679379, lon.=26.501606, Alt.=145.318481m. Speed=17.532000m/h.</desc>
<speed>4.870000</speed>
</trkpt>
<trkpt lat="55.679337" lon="26.501669">
<ele>147.334106</ele>
<time>2010-07-18T10:36:17Z</time>
<desc>lat.=55.679337, lon.=26.501669, Alt.=147.334106m. Speed=16.488001m/h.</desc>
<speed>4.580000</speed>
</trkpt>
<trkpt lat="55.679279" lon="26.501711">
<ele>147.759888</ele>
<time>2010-07-18T10:36:18Z</time>
<desc>lat.=55.679279, lon.=26.501711, Alt.=147.759888m. Speed=16.632000m/h.</desc>
<speed>4.620000</speed>
</trkpt>
<trkpt lat="55.679234" lon="26.501745">
<ele>147.080200</ele>
<time>2010-07-18T10:36:19Z</time>
<desc>lat.=55.679234, lon.=26.501745, Alt.=147.080200m. Speed=16.667999m/h.</desc>
<speed>4.630000</speed>
</trkpt>
<trkpt lat="55.679192" lon="26.501785">
<ele>147.873169</ele>
<time>2010-07-18T10:36:20Z</time>
<desc>lat.=55.679192, lon.=26.501785, Alt.=147.873169m. Speed=16.524000m/h.</desc>
<speed>4.590000</speed>
</trkpt>
<trkpt lat="55.679150" lon="26.501831">
<ele>148.763794</ele>
<time>2010-07-18T10:36:21Z</time>
<desc>lat.=55.679150, lon.=26.501831, Alt.=148.763794m. Speed=16.379999m/h.</desc>
<speed>4.550000</speed>
</trkpt>
<trkpt lat="55.679104" lon="26.501863">
<ele>148.228638</ele>
<time>2010-07-18T10:36:22Z</time>
<desc>lat.=55.679104, lon.=26.501863, Alt.=148.228638m. Speed=14.976000m/h.</desc>
<speed>4.160000</speed>
</trkpt>
<trkpt lat="55.679070" lon="26.501902">
<ele>148.896606</ele>
<time>2010-07-18T10:36:23Z</time>
<desc>lat.=55.679070, lon.=26.501902, Alt.=148.896606m. Speed=14.580000m/h.</desc>
<speed>4.050000</speed>
</trkpt>
<trkpt lat="55.679035" lon="26.501932">
<ele>149.666138</ele>
<time>2010-07-18T10:36:24Z</time>
<desc>lat.=55.679035, lon.=26.501932, Alt.=149.666138m. Speed=13.644000m/h.</desc>
<speed>3.790000</speed>
</trkpt>
<trkpt lat="55.679001" lon="26.501966">
<ele>149.560669</ele>
<time>2010-07-18T10:36:25Z</time>
<desc>lat.=55.679001, lon.=26.501966, Alt.=149.560669m. Speed=12.888000m/h.</desc>
<speed>3.580000</speed>
</trkpt>
<trkpt lat="55.678967" lon="26.501991">
<ele>149.463013</ele>
<time>2010-07-18T10:36:26Z</time>
<desc>lat.=55.678967, lon.=26.501991, Alt.=149.463013m. Speed=13.608000m/h.</desc>
<speed>3.780000</speed>
</trkpt>
<trkpt lat="55.678936" lon="26.502016">
<ele>149.627075</ele>
<time>2010-07-18T10:36:27Z</time>
<desc>lat.=55.678936, lon.=26.502016, Alt.=149.627075m. Speed=11.988000m/h.</desc>
<speed>3.330000</speed>
</trkpt>
<trkpt lat="55.678909" lon="26.502043">
<ele>149.755981</ele>
<time>2010-07-18T10:36:28Z</time>
<desc>lat.=55.678909, lon.=26.502043, Alt.=149.755981m. Speed=12.816000m/h.</desc>
<speed>3.560000</speed>
</trkpt>
<trkpt lat="55.678875" lon="26.502069">
<ele>149.935669</ele>
<time>2010-07-18T10:36:29Z</time>
<desc>lat.=55.678875, lon.=26.502069, Alt.=149.935669m. Speed=13.284000m/h.</desc>
<speed>3.690000</speed>
</trkpt>
<trkpt lat="55.678844" lon="26.502092">
<ele>150.048950</ele>
<time>2010-07-18T10:36:30Z</time>
<desc>lat.=55.678844, lon.=26.502092, Alt.=150.048950m. Speed=12.456000m/h.</desc>
<speed>3.460000</speed>
</trkpt>
<trkpt lat="55.678822" lon="26.502119">
<ele>150.263794</ele>
<time>2010-07-18T10:36:31Z</time>
<desc>lat.=55.678822, lon.=26.502119, Alt.=150.263794m. Speed=11.052000m/h.</desc>
<speed>3.070000</speed>
</trkpt>
<trkpt lat="55.678791" lon="26.502148">
<ele>150.045044</ele>
<time>2010-07-18T10:36:32Z</time>
<desc>lat.=55.678791, lon.=26.502148, Alt.=150.045044m. Speed=11.196000m/h.</desc>
<speed>3.110000</speed>
</trkpt>
<trkpt lat="55.678768" lon="26.502172">
<ele>149.974731</ele>
<time>2010-07-18T10:36:33Z</time>
<desc>lat.=55.678768, lon.=26.502172, Alt.=149.974731m. Speed=11.088000m/h.</desc>
<speed>3.080000</speed>
</trkpt>
<trkpt lat="55.678745" lon="26.502201">
<ele>149.755981</ele>
<time>2010-07-18T10:36:34Z</time>
<desc>lat.=55.678745, lon.=26.502201, Alt.=149.755981m. Speed=10.404000m/h.</desc>
<speed>2.890000</speed>
</trkpt>
<trkpt lat="55.678715" lon="26.502228">
<ele>149.798950</ele>
<time>2010-07-18T10:36:35Z</time>
<desc>lat.=55.678715, lon.=26.502228, Alt.=149.798950m. Speed=12.276000m/h.</desc>
<speed>3.410000</speed>
</trkpt>
<trkpt lat="55.678692" lon="26.502258">
<ele>150.252075</ele>
<time>2010-07-18T10:36:36Z</time>
<desc>lat.=55.678692, lon.=26.502258, Alt.=150.252075m. Speed=11.628000m/h.</desc>
<speed>3.230000</speed>
</trkpt>
<trkpt lat="55.678661" lon="26.502283">
<ele>150.213013</ele>
<time>2010-07-18T10:36:37Z</time>
<desc>lat.=55.678661, lon.=26.502283, Alt.=150.213013m. Speed=12.708000m/h.</desc>
<speed>3.530000</speed>
</trkpt>
<trkpt lat="55.678631" lon="26.502314">
<ele>150.048950</ele>
<time>2010-07-18T10:36:38Z</time>
<desc>lat.=55.678631, lon.=26.502314, Alt.=150.048950m. Speed=12.744000m/h.</desc>
<speed>3.540000</speed>
</trkpt>
<trkpt lat="55.678608" lon="26.502346">
<ele>149.556763</ele>
<time>2010-07-18T10:36:39Z</time>
<desc>lat.=55.678608, lon.=26.502346, Alt.=149.556763m. Speed=9.900000m/h.</desc>
<speed>2.750000</speed>
</trkpt>
<trkpt lat="55.678577" lon="26.502371">
<ele>149.963013</ele>
<time>2010-07-18T10:36:40Z</time>
<desc>lat.=55.678577, lon.=26.502371, Alt.=149.963013m. Speed=13.176000m/h.</desc>
<speed>3.660000</speed>
</trkpt>
<trkpt lat="55.678543" lon="26.502392">
<ele>150.463013</ele>
<time>2010-07-18T10:36:41Z</time>
<desc>lat.=55.678543, lon.=26.502392, Alt.=150.463013m. Speed=12.060000m/h.</desc>
<speed>3.350000</speed>
</trkpt>
<trkpt lat="55.678513" lon="26.502409">
<ele>150.045044</ele>
<time>2010-07-18T10:36:42Z</time>
<desc>lat.=55.678513, lon.=26.502409, Alt.=150.045044m. Speed=11.268000m/h.</desc>
<speed>3.130000</speed>
</trkpt>
<trkpt lat="55.678486" lon="26.502426">
<ele>149.591919</ele>
<time>2010-07-18T10:36:43Z</time>
<desc>lat.=55.678486, lon.=26.502426, Alt.=149.591919m. Speed=9.828000m/h.</desc>
<speed>2.730000</speed>
</trkpt>
<trkpt lat="55.678459" lon="26.502447">
<ele>150.115356</ele>
<time>2010-07-18T10:36:44Z</time>
<desc>lat.=55.678459, lon.=26.502447, Alt.=150.115356m. Speed=11.772000m/h.</desc>
<speed>3.270000</speed>
</trkpt>
<trkpt lat="55.678429" lon="26.502472">
<ele>150.041138</ele>
<time>2010-07-18T10:36:45Z</time>
<desc>lat.=55.678429, lon.=26.502472, Alt.=150.041138m. Speed=11.196000m/h.</desc>
<speed>3.110000</speed>
</trkpt>
<trkpt lat="55.678410" lon="26.502497">
<ele>150.838013</ele>
<time>2010-07-18T10:36:46Z</time>
<desc>lat.=55.678410, lon.=26.502497, Alt.=150.838013m. Speed=9.864000m/h.</desc>
<speed>2.740000</speed>
</trkpt>
<trkpt lat="55.678383" lon="26.502525">
<ele>151.076294</ele>
<time>2010-07-18T10:36:47Z</time>
<desc>lat.=55.678383, lon.=26.502525, Alt.=151.076294m. Speed=11.088000m/h.</desc>
<speed>3.080000</speed>
</trkpt>
<trkpt lat="55.678364" lon="26.502560">
<ele>151.185669</ele>
<time>2010-07-18T10:36:48Z</time>
<desc>lat.=55.678364, lon.=26.502560, Alt.=151.185669m. Speed=10.296000m/h.</desc>
<speed>2.860000</speed>
</trkpt>
<trkpt lat="55.678337" lon="26.502584">
<ele>151.556763</ele>
<time>2010-07-18T10:36:49Z</time>
<desc>lat.=55.678337, lon.=26.502584, Alt.=151.556763m. Speed=11.016000m/h.</desc>
<speed>3.060000</speed>
</trkpt>
<trkpt lat="55.678314" lon="26.502621">
<ele>152.408325</ele>
<time>2010-07-18T10:36:50Z</time>
<desc>lat.=55.678314, lon.=26.502621, Alt.=152.408325m. Speed=10.404000m/h.</desc>
<speed>2.890000</speed>
</trkpt>
<trkpt lat="55.678291" lon="26.502653">
<ele>153.584106</ele>
<time>2010-07-18T10:36:51Z</time>
<desc>lat.=55.678291, lon.=26.502653, Alt.=153.584106m. Speed=10.944000m/h.</desc>
<speed>3.040000</speed>
</trkpt>
<trkpt lat="55.678268" lon="26.502682">
<ele>154.521606</ele>
<time>2010-07-18T10:36:52Z</time>
<desc>lat.=55.678268, lon.=26.502682, Alt.=154.521606m. Speed=10.836000m/h.</desc>
<speed>3.010000</speed>
</trkpt>
<trkpt lat="55.678242" lon="26.502707">
<ele>154.302856</ele>
<time>2010-07-18T10:36:53Z</time>
<desc>lat.=55.678242, lon.=26.502707, Alt.=154.302856m. Speed=11.628000m/h.</desc>
<speed>3.230000</speed>
</trkpt>
<trkpt lat="55.678215" lon="26.502726">
<ele>154.228638</ele>
<time>2010-07-18T10:36:54Z</time>
<desc>lat.=55.678215, lon.=26.502726, Alt.=154.228638m. Speed=10.764000m/h.</desc>
<speed>2.990000</speed>
</trkpt>
<trkpt lat="55.678185" lon="26.502747">
<ele>153.123169</ele>
<time>2010-07-18T10:36:55Z</time>
<desc>lat.=55.678185, lon.=26.502747, Alt.=153.123169m. Speed=10.548000m/h.</desc>
<speed>2.930000</speed>
</trkpt>
<trkpt lat="55.678165" lon="26.502773">
<ele>153.173950</ele>
<time>2010-07-18T10:36:56Z</time>
<desc>lat.=55.678165, lon.=26.502773, Alt.=153.173950m. Speed=9.936000m/h.</desc>
<speed>2.760000</speed>
</trkpt>
<trkpt lat="55.678150" lon="26.502804">
<ele>154.150513</ele>
<time>2010-07-18T10:36:57Z</time>
<desc>lat.=55.678150, lon.=26.502804, Alt.=154.150513m. Speed=10.584000m/h.</desc>
<speed>2.940000</speed>
</trkpt>
<trkpt lat="55.678127" lon="26.502829">
<ele>153.744263</ele>
<time>2010-07-18T10:36:58Z</time>
<desc>lat.=55.678127, lon.=26.502829, Alt.=153.744263m. Speed=9.360000m/h.</desc>
<speed>2.600000</speed>
</trkpt>
<trkpt lat="55.678116" lon="26.502850">
<ele>154.306763</ele>
<time>2010-07-18T10:36:59Z</time>
<desc>lat.=55.678116, lon.=26.502850, Alt.=154.306763m. Speed=6.372000m/h.</desc>
<speed>1.770000</speed>
</trkpt>
<trkpt lat="55.678101" lon="26.502865">
<ele>154.568481</ele>
<time>2010-07-18T10:37:00Z</time>
<desc>lat.=55.678101, lon.=26.502865, Alt.=154.568481m. Speed=8.064000m/h.</desc>
<speed>2.240000</speed>
</trkpt>
<trkpt lat="55.678074" lon="26.502871">
<ele>154.423950</ele>
<time>2010-07-18T10:37:01Z</time>
<desc>lat.=55.678074, lon.=26.502871, Alt.=154.423950m. Speed=7.740000m/h.</desc>
<speed>2.150000</speed>
</trkpt>
<trkpt lat="55.678059" lon="26.502888">
<ele>154.634888</ele>
<time>2010-07-18T10:37:02Z</time>
<desc>lat.=55.678059, lon.=26.502888, Alt.=154.634888m. Speed=8.568000m/h.</desc>
<speed>2.380000</speed>
</trkpt>
<trkpt lat="55.678047" lon="26.502918">
<ele>155.779419</ele>
<time>2010-07-18T10:37:03Z</time>
<desc>lat.=55.678047, lon.=26.502918, Alt.=155.779419m. Speed=9.576000m/h.</desc>
<speed>2.660000</speed>
</trkpt>
<trkpt lat="55.678032" lon="26.502945">
<ele>157.470825</ele>
<time>2010-07-18T10:37:04Z</time>
<desc>lat.=55.678032, lon.=26.502945, Alt.=157.470825m. Speed=7.452000m/h.</desc>
<speed>2.070000</speed>
</trkpt>
<trkpt lat="55.678013" lon="26.502966">
<ele>157.349731</ele>
<time>2010-07-18T10:37:05Z</time>
<desc>lat.=55.678013, lon.=26.502966, Alt.=157.349731m. Speed=5.688000m/h.</desc>
<speed>1.580000</speed>
</trkpt>
<trkpt lat="55.678005" lon="26.502989">
<ele>157.884888</ele>
<time>2010-07-18T10:37:06Z</time>
<desc>lat.=55.678005, lon.=26.502989, Alt.=157.884888m. Speed=5.868000m/h.</desc>
<speed>1.630000</speed>
</trkpt>
<trkpt lat="55.678001" lon="26.503006">
<ele>158.787231</ele>
<time>2010-07-18T10:37:07Z</time>
<desc>lat.=55.678001, lon.=26.503006, Alt.=158.787231m. Speed=3.708000m/h.</desc>
<speed>1.030000</speed>
</trkpt>
<trkpt lat="55.677986" lon="26.503004">
<ele>158.502075</ele>
<time>2010-07-18T10:37:08Z</time>
<desc>lat.=55.677986, lon.=26.503004, Alt.=158.502075m. Speed=8.028000m/h.</desc>
<speed>2.230000</speed>
</trkpt>
<trkpt lat="55.677959" lon="26.503012">
<ele>158.341919</ele>
<time>2010-07-18T10:37:09Z</time>
<desc>lat.=55.677959, lon.=26.503012, Alt.=158.341919m. Speed=8.820000m/h.</desc>
<speed>2.450000</speed>
</trkpt>
<trkpt lat="55.677940" lon="26.503033">
<ele>158.080200</ele>
<time>2010-07-18T10:37:10Z</time>
<desc>lat.=55.677940, lon.=26.503033, Alt.=158.080200m. Speed=9.432000m/h.</desc>
<speed>2.620000</speed>
</trkpt>
<trkpt lat="55.677914" lon="26.503061">
<ele>157.060669</ele>
<time>2010-07-18T10:37:11Z</time>
<desc>lat.=55.677914, lon.=26.503061, Alt.=157.060669m. Speed=13.212000m/h.</desc>
<speed>3.670000</speed>
</trkpt>
<trkpt lat="55.677883" lon="26.503098">
<ele>157.459106</ele>
<time>2010-07-18T10:37:12Z</time>
<desc>lat.=55.677883, lon.=26.503098, Alt.=157.459106m. Speed=11.520000m/h.</desc>
<speed>3.200000</speed>
</trkpt>
<trkpt lat="55.677856" lon="26.503115">
<ele>157.037231</ele>
<time>2010-07-18T10:37:13Z</time>
<desc>lat.=55.677856, lon.=26.503115, Alt.=157.037231m. Speed=10.980000m/h.</desc>
<speed>3.050000</speed>
</trkpt>
<trkpt lat="55.677830" lon="26.503136">
<ele>157.330200</ele>
<time>2010-07-18T10:37:14Z</time>
<desc>lat.=55.677830, lon.=26.503136, Alt.=157.330200m. Speed=10.512000m/h.</desc>
<speed>2.920000</speed>
</trkpt>
<trkpt lat="55.677807" lon="26.503164">
<ele>157.580200</ele>
<time>2010-07-18T10:37:15Z</time>
<desc>lat.=55.677807, lon.=26.503164, Alt.=157.580200m. Speed=10.692000m/h.</desc>
<speed>2.970000</speed>
</trkpt>
<trkpt lat="55.677784" lon="26.503191">
<ele>157.697388</ele>
<time>2010-07-18T10:37:16Z</time>
<desc>lat.=55.677784, lon.=26.503191, Alt.=157.697388m. Speed=11.160000m/h.</desc>
<speed>3.100000</speed>
</trkpt>
<trkpt lat="55.677761" lon="26.503214">
<ele>157.798950</ele>
<time>2010-07-18T10:37:17Z</time>
<desc>lat.=55.677761, lon.=26.503214, Alt.=157.798950m. Speed=10.980000m/h.</desc>
<speed>3.050000</speed>
</trkpt>
<trkpt lat="55.677734" lon="26.503235">
<ele>157.427856</ele>
<time>2010-07-18T10:37:18Z</time>
<desc>lat.=55.677734, lon.=26.503235, Alt.=157.427856m. Speed=9.648000m/h.</desc>
<speed>2.680000</speed>
</trkpt>
<trkpt lat="55.677711" lon="26.503256">
<ele>157.423950</ele>
<time>2010-07-18T10:37:19Z</time>
<desc>lat.=55.677711, lon.=26.503256, Alt.=157.423950m. Speed=10.440000m/h.</desc>
<speed>2.900000</speed>
</trkpt>
<trkpt lat="55.677689" lon="26.503279">
<ele>157.240356</ele>
<time>2010-07-18T10:37:20Z</time>
<desc>lat.=55.677689, lon.=26.503279, Alt.=157.240356m. Speed=11.304000m/h.</desc>
<speed>3.140000</speed>
</trkpt>
<trkpt lat="55.677658" lon="26.503307">
<ele>157.197388</ele>
<time>2010-07-18T10:37:21Z</time>
<desc>lat.=55.677658, lon.=26.503307, Alt.=157.197388m. Speed=11.088000m/h.</desc>
<speed>3.080000</speed>
</trkpt>
<trkpt lat="55.677631" lon="26.503334">
<ele>156.900513</ele>
<time>2010-07-18T10:37:22Z</time>
<desc>lat.=55.677631, lon.=26.503334, Alt.=156.900513m. Speed=11.016000m/h.</desc>
<speed>3.060000</speed>
</trkpt>
<trkpt lat="55.677608" lon="26.503359">
<ele>156.787231</ele>
<time>2010-07-18T10:37:23Z</time>
<desc>lat.=55.677608, lon.=26.503359, Alt.=156.787231m. Speed=10.476000m/h.</desc>
<speed>2.910000</speed>
</trkpt>
<trkpt lat="55.677586" lon="26.503380">
<ele>157.400513</ele>
<time>2010-07-18T10:37:24Z</time>
<desc>lat.=55.677586, lon.=26.503380, Alt.=157.400513m. Speed=10.080000m/h.</desc>
<speed>2.800000</speed>
</trkpt>
<trkpt lat="55.677563" lon="26.503407">
<ele>157.767700</ele>
<time>2010-07-18T10:37:25Z</time>
<desc>lat.=55.677563, lon.=26.503407, Alt.=157.767700m. Speed=10.476000m/h.</desc>
<speed>2.910000</speed>
</trkpt>
<trkpt lat="55.677536" lon="26.503426">
<ele>157.955200</ele>
<time>2010-07-18T10:37:26Z</time>
<desc>lat.=55.677536, lon.=26.503426, Alt.=157.955200m. Speed=10.332000m/h.</desc>
<speed>2.870000</speed>
</trkpt>
<trkpt lat="55.677517" lon="26.503447">
<ele>158.357544</ele>
<time>2010-07-18T10:37:27Z</time>
<desc>lat.=55.677517, lon.=26.503447, Alt.=158.357544m. Speed=10.620000m/h.</desc>
<speed>2.950000</speed>
</trkpt>
<trkpt lat="55.677490" lon="26.503473">
<ele>158.502075</ele>
<time>2010-07-18T10:37:28Z</time>
<desc>lat.=55.677490, lon.=26.503473, Alt.=158.502075m. Speed=9.828000m/h.</desc>
<speed>2.730000</speed>
</trkpt>
<trkpt lat="55.677471" lon="26.503496">
<ele>158.361450</ele>
<time>2010-07-18T10:37:29Z</time>
<desc>lat.=55.677471, lon.=26.503496, Alt.=158.361450m. Speed=8.604000m/h.</desc>
<speed>2.390000</speed>
</trkpt>
<trkpt lat="55.677452" lon="26.503519">
<ele>158.517700</ele>
<time>2010-07-18T10:37:30Z</time>
<desc>lat.=55.677452, lon.=26.503519, Alt.=158.517700m. Speed=8.928000m/h.</desc>
<speed>2.480000</speed>
</trkpt>
<trkpt lat="55.677429" lon="26.503536">
<ele>158.755981</ele>
<time>2010-07-18T10:37:31Z</time>
<desc>lat.=55.677429, lon.=26.503536, Alt.=158.755981m. Speed=9.000000m/h.</desc>
<speed>2.500000</speed>
</trkpt>
<trkpt lat="55.677406" lon="26.503555">
<ele>158.826294</ele>
<time>2010-07-18T10:37:32Z</time>
<desc>lat.=55.677406, lon.=26.503555, Alt.=158.826294m. Speed=9.540000m/h.</desc>
<speed>2.650000</speed>
</trkpt>
<trkpt lat="55.677383" lon="26.503578">
<ele>159.111450</ele>
<time>2010-07-18T10:37:33Z</time>
<desc>lat.=55.677383, lon.=26.503578, Alt.=159.111450m. Speed=9.828000m/h.</desc>
<speed>2.730000</speed>
</trkpt>
<trkpt lat="55.677368" lon="26.503601">
<ele>159.584106</ele>
<time>2010-07-18T10:37:34Z</time>
<desc>lat.=55.677368, lon.=26.503601, Alt.=159.584106m. Speed=8.748000m/h.</desc>
<speed>2.430000</speed>
</trkpt>
<trkpt lat="55.677349" lon="26.503630">
<ele>159.685669</ele>
<time>2010-07-18T10:37:35Z</time>
<desc>lat.=55.677349, lon.=26.503630, Alt.=159.685669m. Speed=10.332000m/h.</desc>
<speed>2.870000</speed>
</trkpt>
<trkpt lat="55.677330" lon="26.503654">
<ele>160.084106</ele>
<time>2010-07-18T10:37:36Z</time>
<desc>lat.=55.677330, lon.=26.503654, Alt.=160.084106m. Speed=10.260000m/h.</desc>
<speed>2.850000</speed>
</trkpt>
<trkpt lat="55.677311" lon="26.503681">
<ele>160.755981</ele>
<time>2010-07-18T10:37:37Z</time>
<desc>lat.=55.677311, lon.=26.503681, Alt.=160.755981m. Speed=10.296000m/h.</desc>
<speed>2.860000</speed>
</trkpt>
<trkpt lat="55.677292" lon="26.503702">
<ele>160.716919</ele>
<time>2010-07-18T10:37:38Z</time>
<desc>lat.=55.677292, lon.=26.503702, Alt.=160.716919m. Speed=9.936000m/h.</desc>
<speed>2.760000</speed>
</trkpt>
<trkpt lat="55.677269" lon="26.503721">
<ele>160.920044</ele>
<time>2010-07-18T10:37:39Z</time>
<desc>lat.=55.677269, lon.=26.503721, Alt.=160.920044m. Speed=10.260000m/h.</desc>
<speed>2.850000</speed>
</trkpt>
<trkpt lat="55.677242" lon="26.503744">
<ele>160.814575</ele>
<time>2010-07-18T10:37:40Z</time>
<desc>lat.=55.677242, lon.=26.503744, Alt.=160.814575m. Speed=9.936000m/h.</desc>
<speed>2.760000</speed>
</trkpt>
<trkpt lat="55.677223" lon="26.503767">
<ele>160.615356</ele>
<time>2010-07-18T10:37:41Z</time>
<desc>lat.=55.677223, lon.=26.503767, Alt.=160.615356m. Speed=10.584000m/h.</desc>
<speed>2.940000</speed>
</trkpt>
<trkpt lat="55.677200" lon="26.503792">
<ele>160.322388</ele>
<time>2010-07-18T10:37:42Z</time>
<desc>lat.=55.677200, lon.=26.503792, Alt.=160.322388m. Speed=8.280000m/h.</desc>
<speed>2.300000</speed>
</trkpt>
<trkpt lat="55.677181" lon="26.503811">
<ele>160.068481</ele>
<time>2010-07-18T10:37:43Z</time>
<desc>lat.=55.677181, lon.=26.503811, Alt.=160.068481m. Speed=9.036000m/h.</desc>
<speed>2.510000</speed>
</trkpt>
<trkpt lat="55.677162" lon="26.503838">
<ele>159.740356</ele>
<time>2010-07-18T10:37:44Z</time>
<desc>lat.=55.677162, lon.=26.503838, Alt.=159.740356m. Speed=8.820000m/h.</desc>
<speed>2.450000</speed>
</trkpt>
<trkpt lat="55.677143" lon="26.503857">
<ele>159.650513</ele>
<time>2010-07-18T10:37:45Z</time>
<desc>lat.=55.677143, lon.=26.503857, Alt.=159.650513m. Speed=9.324000m/h.</desc>
<speed>2.590000</speed>
</trkpt>
<trkpt lat="55.677120" lon="26.503874">
<ele>159.377075</ele>
<time>2010-07-18T10:37:46Z</time>
<desc>lat.=55.677120, lon.=26.503874, Alt.=159.377075m. Speed=10.008000m/h.</desc>
<speed>2.780000</speed>
</trkpt>
<trkpt lat="55.677097" lon="26.503889">
<ele>158.806763</ele>
<time>2010-07-18T10:37:47Z</time>
<desc>lat.=55.677097, lon.=26.503889, Alt.=158.806763m. Speed=9.468000m/h.</desc>
<speed>2.630000</speed>
</trkpt>
<trkpt lat="55.677074" lon="26.503912">
<ele>159.017700</ele>
<time>2010-07-18T10:37:48Z</time>
<desc>lat.=55.677074, lon.=26.503912, Alt.=159.017700m. Speed=10.440000m/h.</desc>
<speed>2.900000</speed>
</trkpt>
<trkpt lat="55.677048" lon="26.503933">
<ele>159.181763</ele>
<time>2010-07-18T10:37:49Z</time>
<desc>lat.=55.677048, lon.=26.503933, Alt.=159.181763m. Speed=9.612000m/h.</desc>
<speed>2.670000</speed>
</trkpt>
<trkpt lat="55.677025" lon="26.503956">
<ele>159.130981</ele>
<time>2010-07-18T10:37:50Z</time>
<desc>lat.=55.677025, lon.=26.503956, Alt.=159.130981m. Speed=10.044000m/h.</desc>
<speed>2.790000</speed>
</trkpt>
<trkpt lat="55.676998" lon="26.503983">
<ele>159.576294</ele>
<time>2010-07-18T10:37:51Z</time>
<desc>lat.=55.676998, lon.=26.503983, Alt.=159.576294m. Speed=10.512000m/h.</desc>
<speed>2.920000</speed>
</trkpt>
<trkpt lat="55.676971" lon="26.504013">
<ele>159.830200</ele>
<time>2010-07-18T10:37:52Z</time>
<desc>lat.=55.676971, lon.=26.504013, Alt.=159.830200m. Speed=10.800000m/h.</desc>
<speed>3.000000</speed>
</trkpt>
<trkpt lat="55.676949" lon="26.504040">
<ele>160.150513</ele>
<time>2010-07-18T10:37:53Z</time>
<desc>lat.=55.676949, lon.=26.504040, Alt.=160.150513m. Speed=11.556000m/h.</desc>
<speed>3.210000</speed>
</trkpt>
<trkpt lat="55.676922" lon="26.504063">
<ele>159.978638</ele>
<time>2010-07-18T10:37:54Z</time>
<desc>lat.=55.676922, lon.=26.504063, Alt.=159.978638m. Speed=11.952000m/h.</desc>
<speed>3.320000</speed>
</trkpt>
<trkpt lat="55.676891" lon="26.504087">
<ele>160.138794</ele>
<time>2010-07-18T10:37:55Z</time>
<desc>lat.=55.676891, lon.=26.504087, Alt.=160.138794m. Speed=12.564000m/h.</desc>
<speed>3.490000</speed>
</trkpt>
<trkpt lat="55.676865" lon="26.504116">
<ele>160.369263</ele>
<time>2010-07-18T10:37:56Z</time>
<desc>lat.=55.676865, lon.=26.504116, Alt.=160.369263m. Speed=12.780000m/h.</desc>
<speed>3.550000</speed>
</trkpt>
<trkpt lat="55.676838" lon="26.504147">
<ele>160.494263</ele>
<time>2010-07-18T10:37:57Z</time>
<desc>lat.=55.676838, lon.=26.504147, Alt.=160.494263m. Speed=13.248000m/h.</desc>
<speed>3.680000</speed>
</trkpt>
<trkpt lat="55.676807" lon="26.504177">
<ele>160.677856</ele>
<time>2010-07-18T10:37:58Z</time>
<desc>lat.=55.676807, lon.=26.504177, Alt.=160.677856m. Speed=11.808000m/h.</desc>
<speed>3.280000</speed>
</trkpt>
<trkpt lat="55.676781" lon="26.504206">
<ele>160.681763</ele>
<time>2010-07-18T10:37:59Z</time>
<desc>lat.=55.676781, lon.=26.504206, Alt.=160.681763m. Speed=10.692000m/h.</desc>
<speed>2.970000</speed>
</trkpt>
<trkpt lat="55.676758" lon="26.504229">
<ele>160.521606</ele>
<time>2010-07-18T10:38:00Z</time>
<desc>lat.=55.676758, lon.=26.504229, Alt.=160.521606m. Speed=10.800000m/h.</desc>
<speed>3.000000</speed>
</trkpt>
<trkpt lat="55.676735" lon="26.504257">
<ele>160.326294</ele>
<time>2010-07-18T10:38:01Z</time>
<desc>lat.=55.676735, lon.=26.504257, Alt.=160.326294m. Speed=11.376000m/h.</desc>
<speed>3.160000</speed>
</trkpt>
<trkpt lat="55.676712" lon="26.504292">
<ele>160.177856</ele>
<time>2010-07-18T10:38:02Z</time>
<desc>lat.=55.676712, lon.=26.504292, Alt.=160.177856m. Speed=11.268000m/h.</desc>
<speed>3.130000</speed>
</trkpt>
<trkpt lat="55.676682" lon="26.504326">
<ele>159.748169</ele>
<time>2010-07-18T10:38:03Z</time>
<desc>lat.=55.676682, lon.=26.504326, Alt.=159.748169m. Speed=13.644000m/h.</desc>
<speed>3.790000</speed>
</trkpt>
<trkpt lat="55.676655" lon="26.504351">
<ele>159.779419</ele>
<time>2010-07-18T10:38:04Z</time>
<desc>lat.=55.676655, lon.=26.504351, Alt.=159.779419m. Speed=12.924000m/h.</desc>
<speed>3.590000</speed>
</trkpt>
<trkpt lat="55.676628" lon="26.504370">
<ele>159.345825</ele>
<time>2010-07-18T10:38:05Z</time>
<desc>lat.=55.676628, lon.=26.504370, Alt.=159.345825m. Speed=10.008000m/h.</desc>
<speed>2.780000</speed>
</trkpt>
<trkpt lat="55.676609" lon="26.504391">
<ele>159.005981</ele>
<time>2010-07-18T10:38:06Z</time>
<desc>lat.=55.676609, lon.=26.504391, Alt.=159.005981m. Speed=7.308000m/h.</desc>
<speed>2.030000</speed>
</trkpt>
<trkpt lat="55.676586" lon="26.504410">
<ele>158.658325</ele>
<time>2010-07-18T10:38:07Z</time>
<desc>lat.=55.676586, lon.=26.504410, Alt.=158.658325m. Speed=8.928000m/h.</desc>
<speed>2.480000</speed>
</trkpt>
<trkpt lat="55.676567" lon="26.504433">
<ele>157.838013</ele>
<time>2010-07-18T10:38:08Z</time>
<desc>lat.=55.676567, lon.=26.504433, Alt.=157.838013m. Speed=9.504000m/h.</desc>
<speed>2.640000</speed>
</trkpt>
<trkpt lat="55.676540" lon="26.504456">
<ele>157.142700</ele>
<time>2010-07-18T10:38:09Z</time>
<desc>lat.=55.676540, lon.=26.504456, Alt.=157.142700m. Speed=8.640000m/h.</desc>
<speed>2.400000</speed>
</trkpt>
<trkpt lat="55.676517" lon="26.504473">
<ele>156.834106</ele>
<time>2010-07-18T10:38:10Z</time>
<desc>lat.=55.676517, lon.=26.504473, Alt.=156.834106m. Speed=7.128000m/h.</desc>
<speed>1.980000</speed>
</trkpt>
<trkpt lat="55.676498" lon="26.504490">
<ele>156.849731</ele>
<time>2010-07-18T10:38:11Z</time>
<desc>lat.=55.676498, lon.=26.504490, Alt.=156.849731m. Speed=7.380000m/h.</desc>
<speed>2.050000</speed>
</trkpt>
<trkpt lat="55.676476" lon="26.504530">
<ele>157.689575</ele>
<time>2010-07-18T10:38:12Z</time>
<desc>lat.=55.676476, lon.=26.504530, Alt.=157.689575m. Speed=10.548000m/h.</desc>
<speed>2.930000</speed>
</trkpt>
<trkpt lat="55.676449" lon="26.504557">
<ele>157.931763</ele>
<time>2010-07-18T10:38:13Z</time>
<desc>lat.=55.676449, lon.=26.504557, Alt.=157.931763m. Speed=10.512000m/h.</desc>
<speed>2.920000</speed>
</trkpt>
<trkpt lat="55.676426" lon="26.504578">
<ele>158.400513</ele>
<time>2010-07-18T10:38:14Z</time>
<desc>lat.=55.676426, lon.=26.504578, Alt.=158.400513m. Speed=10.260000m/h.</desc>
<speed>2.850000</speed>
</trkpt>
<trkpt lat="55.676399" lon="26.504604">
<ele>158.814575</ele>
<time>2010-07-18T10:38:15Z</time>
<desc>lat.=55.676399, lon.=26.504604, Alt.=158.814575m. Speed=9.468000m/h.</desc>
<speed>2.630000</speed>
</trkpt>
<trkpt lat="55.676373" lon="26.504633">
<ele>160.318481</ele>
<time>2010-07-18T10:38:16Z</time>
<desc>lat.=55.676373, lon.=26.504633, Alt.=160.318481m. Speed=10.944000m/h.</desc>
<speed>3.040000</speed>
</trkpt>
<trkpt lat="55.676338" lon="26.504658">
<ele>160.505981</ele>
<time>2010-07-18T10:38:17Z</time>
<desc>lat.=55.676338, lon.=26.504658, Alt.=160.505981m. Speed=12.960000m/h.</desc>
<speed>3.600000</speed>
</trkpt>
<trkpt lat="55.676308" lon="26.504683">
<ele>160.627075</ele>
<time>2010-07-18T10:38:18Z</time>
<desc>lat.=55.676308, lon.=26.504683, Alt.=160.627075m. Speed=10.404000m/h.</desc>
<speed>2.890000</speed>
</trkpt>
<trkpt lat="55.676285" lon="26.504700">
<ele>160.853638</ele>
<time>2010-07-18T10:38:19Z</time>
<desc>lat.=55.676285, lon.=26.504700, Alt.=160.853638m. Speed=6.552000m/h.</desc>
<speed>1.820000</speed>
</trkpt>
<trkpt lat="55.676262" lon="26.504723">
<ele>161.408325</ele>
<time>2010-07-18T10:38:20Z</time>
<desc>lat.=55.676262, lon.=26.504723, Alt.=161.408325m. Speed=8.460000m/h.</desc>
<speed>2.350000</speed>
</trkpt>
<trkpt lat="55.676239" lon="26.504740">
<ele>161.701294</ele>
<time>2010-07-18T10:38:21Z</time>
<desc>lat.=55.676239, lon.=26.504740, Alt.=161.701294m. Speed=9.000000m/h.</desc>
<speed>2.500000</speed>
</trkpt>
<trkpt lat="55.676220" lon="26.504761">
<ele>161.826294</ele>
<time>2010-07-18T10:38:22Z</time>
<desc>lat.=55.676220, lon.=26.504761, Alt.=161.826294m. Speed=9.504000m/h.</desc>
<speed>2.640000</speed>
</trkpt>
<trkpt lat="55.676197" lon="26.504789">
<ele>162.279419</ele>
<time>2010-07-18T10:38:23Z</time>
<desc>lat.=55.676197, lon.=26.504789, Alt.=162.279419m. Speed=8.388000m/h.</desc>
<speed>2.330000</speed>
</trkpt>
<trkpt lat="55.676182" lon="26.504810">
<ele>162.865356</ele>
<time>2010-07-18T10:38:24Z</time>
<desc>lat.=55.676182, lon.=26.504810, Alt.=162.865356m. Speed=8.280000m/h.</desc>
<speed>2.300000</speed>
</trkpt>
<trkpt lat="55.676159" lon="26.504824">
<ele>162.947388</ele>
<time>2010-07-18T10:38:25Z</time>
<desc>lat.=55.676159, lon.=26.504824, Alt.=162.947388m. Speed=8.316000m/h.</desc>
<speed>2.310000</speed>
</trkpt>
<trkpt lat="55.676136" lon="26.504839">
<ele>162.990356</ele>
<time>2010-07-18T10:38:26Z</time>
<desc>lat.=55.676136, lon.=26.504839, Alt.=162.990356m. Speed=7.992000m/h.</desc>
<speed>2.220000</speed>
</trkpt>
<trkpt lat="55.676121" lon="26.504856">
<ele>163.240356</ele>
<time>2010-07-18T10:38:27Z</time>
<desc>lat.=55.676121, lon.=26.504856, Alt.=163.240356m. Speed=7.812000m/h.</desc>
<speed>2.170000</speed>
</trkpt>
<trkpt lat="55.676105" lon="26.504881">
<ele>163.670044</ele>
<time>2010-07-18T10:38:28Z</time>
<desc>lat.=55.676105, lon.=26.504881, Alt.=163.670044m. Speed=8.064000m/h.</desc>
<speed>2.240000</speed>
</trkpt>
<trkpt lat="55.676086" lon="26.504911">
<ele>163.955200</ele>
<time>2010-07-18T10:38:29Z</time>
<desc>lat.=55.676086, lon.=26.504911, Alt.=163.955200m. Speed=8.136000m/h.</desc>
<speed>2.260000</speed>
</trkpt>
<trkpt lat="55.676067" lon="26.504927">
<ele>164.494263</ele>
<time>2010-07-18T10:38:30Z</time>
<desc>lat.=55.676067, lon.=26.504927, Alt.=164.494263m. Speed=7.020000m/h.</desc>
<speed>1.950000</speed>
</trkpt>
<trkpt lat="55.676052" lon="26.504932">
<ele>164.459106</ele>
<time>2010-07-18T10:38:31Z</time>
<desc>lat.=55.676052, lon.=26.504932, Alt.=164.459106m. Speed=6.012000m/h.</desc>
<speed>1.670000</speed>
</trkpt>
<trkpt lat="55.676037" lon="26.504940">
<ele>164.783325</ele>
<time>2010-07-18T10:38:32Z</time>
<desc>lat.=55.676037, lon.=26.504940, Alt.=164.783325m. Speed=5.904000m/h.</desc>
<speed>1.640000</speed>
</trkpt>
<trkpt lat="55.676025" lon="26.504951">
<ele>165.173950</ele>
<time>2010-07-18T10:38:33Z</time>
<desc>lat.=55.676025, lon.=26.504951, Alt.=165.173950m. Speed=5.940000m/h.</desc>
<speed>1.650000</speed>
</trkpt>
<trkpt lat="55.676014" lon="26.504972">
<ele>165.709106</ele>
<time>2010-07-18T10:38:34Z</time>
<desc>lat.=55.676014, lon.=26.504972, Alt.=165.709106m. Speed=6.264000m/h.</desc>
<speed>1.740000</speed>
</trkpt>
<trkpt lat="55.676003" lon="26.504992">
<ele>165.814575</ele>
<time>2010-07-18T10:38:35Z</time>
<desc>lat.=55.676003, lon.=26.504992, Alt.=165.814575m. Speed=6.552000m/h.</desc>
<speed>1.820000</speed>
</trkpt>
<trkpt lat="55.675987" lon="26.505011">
<ele>166.154419</ele>
<time>2010-07-18T10:38:36Z</time>
<desc>lat.=55.675987, lon.=26.505011, Alt.=166.154419m. Speed=6.408000m/h.</desc>
<speed>1.780000</speed>
</trkpt>
<trkpt lat="55.675972" lon="26.505020">
<ele>166.455200</ele>
<time>2010-07-18T10:38:37Z</time>
<desc>lat.=55.675972, lon.=26.505020, Alt.=166.455200m. Speed=6.804000m/h.</desc>
<speed>1.890000</speed>
</trkpt>
<trkpt lat="55.675953" lon="26.505033">
<ele>166.552856</ele>
<time>2010-07-18T10:38:38Z</time>
<desc>lat.=55.675953, lon.=26.505033, Alt.=166.552856m. Speed=7.020000m/h.</desc>
<speed>1.950000</speed>
</trkpt>
<trkpt lat="55.675938" lon="26.505051">
<ele>166.752075</ele>
<time>2010-07-18T10:38:39Z</time>
<desc>lat.=55.675938, lon.=26.505051, Alt.=166.752075m. Speed=6.732000m/h.</desc>
<speed>1.870000</speed>
</trkpt>
<trkpt lat="55.675922" lon="26.505066">
<ele>166.990356</ele>
<time>2010-07-18T10:38:40Z</time>
<desc>lat.=55.675922, lon.=26.505066, Alt.=166.990356m. Speed=6.588000m/h.</desc>
<speed>1.830000</speed>
</trkpt>
<trkpt lat="55.675907" lon="26.505079">
<ele>167.115356</ele>
<time>2010-07-18T10:38:41Z</time>
<desc>lat.=55.675907, lon.=26.505079, Alt.=167.115356m. Speed=6.372000m/h.</desc>
<speed>1.770000</speed>
</trkpt>
<trkpt lat="55.675896" lon="26.505093">
<ele>167.158325</ele>
<time>2010-07-18T10:38:42Z</time>
<desc>lat.=55.675896, lon.=26.505093, Alt.=167.158325m. Speed=5.436000m/h.</desc>
<speed>1.510000</speed>
</trkpt>
<trkpt lat="55.675884" lon="26.505100">
<ele>167.068481</ele>
<time>2010-07-18T10:38:43Z</time>
<desc>lat.=55.675884, lon.=26.505100, Alt.=167.068481m. Speed=4.464000m/h.</desc>
<speed>1.240000</speed>
</trkpt>
<trkpt lat="55.675869" lon="26.505110">
<ele>166.959106</ele>
<time>2010-07-18T10:38:44Z</time>
<desc>lat.=55.675869, lon.=26.505110, Alt.=166.959106m. Speed=5.256000m/h.</desc>
<speed>1.460000</speed>
</trkpt>
<trkpt lat="55.675861" lon="26.505123">
<ele>167.060669</ele>
<time>2010-07-18T10:38:45Z</time>
<desc>lat.=55.675861, lon.=26.505123, Alt.=167.060669m. Speed=4.680000m/h.</desc>
<speed>1.300000</speed>
</trkpt>
<trkpt lat="55.675850" lon="26.505138">
<ele>166.849731</ele>
<time>2010-07-18T10:38:46Z</time>
<desc>lat.=55.675850, lon.=26.505138, Alt.=166.849731m. Speed=5.796000m/h.</desc>
<speed>1.610000</speed>
</trkpt>
<trkpt lat="55.675835" lon="26.505148">
<ele>166.599731</ele>
<time>2010-07-18T10:38:47Z</time>
<desc>lat.=55.675835, lon.=26.505148, Alt.=166.599731m. Speed=5.976000m/h.</desc>
<speed>1.660000</speed>
</trkpt>
<trkpt lat="55.675816" lon="26.505159">
<ele>166.552856</ele>
<time>2010-07-18T10:38:48Z</time>
<desc>lat.=55.675816, lon.=26.505159, Alt.=166.552856m. Speed=6.660000m/h.</desc>
<speed>1.850000</speed>
</trkpt>
<trkpt lat="55.675800" lon="26.505165">
<ele>166.654419</ele>
<time>2010-07-18T10:38:49Z</time>
<desc>lat.=55.675800, lon.=26.505165, Alt.=166.654419m. Speed=4.968000m/h.</desc>
<speed>1.380000</speed>
</trkpt>
<trkpt lat="55.675789" lon="26.505175">
<ele>166.724731</ele>
<time>2010-07-18T10:38:50Z</time>
<desc>lat.=55.675789, lon.=26.505175, Alt.=166.724731m. Speed=5.472000m/h.</desc>
<speed>1.520000</speed>
</trkpt>
<trkpt lat="55.675774" lon="26.505190">
<ele>166.427856</ele>
<time>2010-07-18T10:38:51Z</time>
<desc>lat.=55.675774, lon.=26.505190, Alt.=166.427856m. Speed=6.984000m/h.</desc>
<speed>1.940000</speed>
</trkpt>
<trkpt lat="55.675758" lon="26.505213">
<ele>166.373169</ele>
<time>2010-07-18T10:38:52Z</time>
<desc>lat.=55.675758, lon.=26.505213, Alt.=166.373169m. Speed=7.128000m/h.</desc>
<speed>1.980000</speed>
</trkpt>
<trkpt lat="55.675739" lon="26.505236">
<ele>166.486450</ele>
<time>2010-07-18T10:38:53Z</time>
<desc>lat.=55.675739, lon.=26.505236, Alt.=166.486450m. Speed=7.344000m/h.</desc>
<speed>2.040000</speed>
</trkpt>
<trkpt lat="55.675716" lon="26.505253">
<ele>166.849731</ele>
<time>2010-07-18T10:38:54Z</time>
<desc>lat.=55.675716, lon.=26.505253, Alt.=166.849731m. Speed=7.020000m/h.</desc>
<speed>1.950000</speed>
</trkpt>
<trkpt lat="55.675697" lon="26.505266">
<ele>166.775513</ele>
<time>2010-07-18T10:38:55Z</time>
<desc>lat.=55.675697, lon.=26.505266, Alt.=166.775513m. Speed=7.272000m/h.</desc>
<speed>2.020000</speed>
</trkpt>
<trkpt lat="55.675682" lon="26.505287">
<ele>169.052856</ele>
<time>2010-07-18T10:38:56Z</time>
<desc>lat.=55.675682, lon.=26.505287, Alt.=169.052856m. Speed=7.308000m/h.</desc>
<speed>2.030000</speed>
</trkpt>
<trkpt lat="55.675663" lon="26.505304">
<ele>169.423950</ele>
<time>2010-07-18T10:38:57Z</time>
<desc>lat.=55.675663, lon.=26.505304, Alt.=169.423950m. Speed=7.884000m/h.</desc>
<speed>2.190000</speed>
</trkpt>
<trkpt lat="55.675648" lon="26.505323">
<ele>169.505981</ele>
<time>2010-07-18T10:38:58Z</time>
<desc>lat.=55.675648, lon.=26.505323, Alt.=169.505981m. Speed=8.640000m/h.</desc>
<speed>2.400000</speed>
</trkpt>
<trkpt lat="55.675632" lon="26.505339">
<ele>169.455200</ele>
<time>2010-07-18T10:38:59Z</time>
<desc>lat.=55.675632, lon.=26.505339, Alt.=169.455200m. Speed=7.308000m/h.</desc>
<speed>2.030000</speed>
</trkpt>
<trkpt lat="55.675613" lon="26.505352">
<ele>169.517700</ele>
<time>2010-07-18T10:39:00Z</time>
<desc>lat.=55.675613, lon.=26.505352, Alt.=169.517700m. Speed=7.092000m/h.</desc>
<speed>1.970000</speed>
</trkpt>
<trkpt lat="55.675598" lon="26.505371">
<ele>169.599731</ele>
<time>2010-07-18T10:39:01Z</time>
<desc>lat.=55.675598, lon.=26.505371, Alt.=169.599731m. Speed=8.604000m/h.</desc>
<speed>2.390000</speed>
</trkpt>
<trkpt lat="55.675579" lon="26.505388">
<ele>169.603638</ele>
<time>2010-07-18T10:39:02Z</time>
<desc>lat.=55.675579, lon.=26.505388, Alt.=169.603638m. Speed=9.000000m/h.</desc>
<speed>2.500000</speed>
</trkpt>
<trkpt lat="55.675556" lon="26.505409">
<ele>169.896606</ele>
<time>2010-07-18T10:39:03Z</time>
<desc>lat.=55.675556, lon.=26.505409, Alt.=169.896606m. Speed=10.440000m/h.</desc>
<speed>2.900000</speed>
</trkpt>
<trkpt lat="55.675537" lon="26.505430">
<ele>169.916138</ele>
<time>2010-07-18T10:39:04Z</time>
<desc>lat.=55.675537, lon.=26.505430, Alt.=169.916138m. Speed=8.244000m/h.</desc>
<speed>2.290000</speed>
</trkpt>
<trkpt lat="55.675518" lon="26.505447">
<ele>170.013794</ele>
<time>2010-07-18T10:39:05Z</time>
<desc>lat.=55.675518, lon.=26.505447, Alt.=170.013794m. Speed=8.352000m/h.</desc>
<speed>2.320000</speed>
</trkpt>
<trkpt lat="55.675499" lon="26.505468">
<ele>170.369263</ele>
<time>2010-07-18T10:39:06Z</time>
<desc>lat.=55.675499, lon.=26.505468, Alt.=170.369263m. Speed=8.928000m/h.</desc>
<speed>2.480000</speed>
</trkpt>
<trkpt lat="55.675476" lon="26.505491">
<ele>170.388794</ele>
<time>2010-07-18T10:39:07Z</time>
<desc>lat.=55.675476, lon.=26.505491, Alt.=170.388794m. Speed=8.748000m/h.</desc>
<speed>2.430000</speed>
</trkpt>
<trkpt lat="55.675457" lon="26.505516">
<ele>170.392700</ele>
<time>2010-07-18T10:39:08Z</time>
<desc>lat.=55.675457, lon.=26.505516, Alt.=170.392700m. Speed=9.288000m/h.</desc>
<speed>2.580000</speed>
</trkpt>
<trkpt lat="55.675430" lon="26.505541">
<ele>170.025513</ele>
<time>2010-07-18T10:39:09Z</time>
<desc>lat.=55.675430, lon.=26.505541, Alt.=170.025513m. Speed=11.808000m/h.</desc>
<speed>3.280000</speed>
</trkpt>
<trkpt lat="55.675404" lon="26.505566">
<ele>170.072388</ele>
<time>2010-07-18T10:39:10Z</time>
<desc>lat.=55.675404, lon.=26.505566, Alt.=170.072388m. Speed=10.692000m/h.</desc>
<speed>2.970000</speed>
</trkpt>
<trkpt lat="55.675385" lon="26.505594">
<ele>170.017700</ele>
<time>2010-07-18T10:39:11Z</time>
<desc>lat.=55.675385, lon.=26.505594, Alt.=170.017700m. Speed=9.252000m/h.</desc>
<speed>2.570000</speed>
</trkpt>
<trkpt lat="55.675369" lon="26.505617">
<ele>169.970825</ele>
<time>2010-07-18T10:39:12Z</time>
<desc>lat.=55.675369, lon.=26.505617, Alt.=169.970825m. Speed=7.812000m/h.</desc>
<speed>2.170000</speed>
</trkpt>
<trkpt lat="55.675354" lon="26.505632">
<ele>169.845825</ele>
<time>2010-07-18T10:39:13Z</time>
<desc>lat.=55.675354, lon.=26.505632, Alt.=169.845825m. Speed=6.624000m/h.</desc>
<speed>1.840000</speed>
</trkpt>
<trkpt lat="55.675343" lon="26.505648">
<ele>170.502075</ele>
<time>2010-07-18T10:39:14Z</time>
<desc>lat.=55.675343, lon.=26.505648, Alt.=170.502075m. Speed=5.760000m/h.</desc>
<speed>1.600000</speed>
</trkpt>
<trkpt lat="55.675331" lon="26.505661">
<ele>170.455200</ele>
<time>2010-07-18T10:39:15Z</time>
<desc>lat.=55.675331, lon.=26.505661, Alt.=170.455200m. Speed=5.724000m/h.</desc>
<speed>1.590000</speed>
</trkpt>
<trkpt lat="55.675323" lon="26.505674">
<ele>170.416138</ele>
<time>2010-07-18T10:39:16Z</time>
<desc>lat.=55.675323, lon.=26.505674, Alt.=170.416138m. Speed=4.932000m/h.</desc>
<speed>1.370000</speed>
</trkpt>
<trkpt lat="55.675312" lon="26.505686">
<ele>170.209106</ele>
<time>2010-07-18T10:39:17Z</time>
<desc>lat.=55.675312, lon.=26.505686, Alt.=170.209106m. Speed=6.732000m/h.</desc>
<speed>1.870000</speed>
</trkpt>
<trkpt lat="55.675297" lon="26.505703">
<ele>170.185669</ele>
<time>2010-07-18T10:39:18Z</time>
<desc>lat.=55.675297, lon.=26.505703, Alt.=170.185669m. Speed=8.064000m/h.</desc>
<speed>2.240000</speed>
</trkpt>
<trkpt lat="55.675278" lon="26.505726">
<ele>170.127075</ele>
<time>2010-07-18T10:39:19Z</time>
<desc>lat.=55.675278, lon.=26.505726, Alt.=170.127075m. Speed=9.828000m/h.</desc>
<speed>2.730000</speed>
</trkpt>
<trkpt lat="55.675251" lon="26.505749">
<ele>170.236450</ele>
<time>2010-07-18T10:39:20Z</time>
<desc>lat.=55.675251, lon.=26.505749, Alt.=170.236450m. Speed=11.052000m/h.</desc>
<speed>3.070000</speed>
</trkpt>
<trkpt lat="55.675228" lon="26.505768">
<ele>170.060669</ele>
<time>2010-07-18T10:39:21Z</time>
<desc>lat.=55.675228, lon.=26.505768, Alt.=170.060669m. Speed=11.556000m/h.</desc>
<speed>3.210000</speed>
</trkpt>
<trkpt lat="55.675205" lon="26.505798">
<ele>170.216919</ele>
<time>2010-07-18T10:39:22Z</time>
<desc>lat.=55.675205, lon.=26.505798, Alt.=170.216919m. Speed=12.132000m/h.</desc>
<speed>3.370000</speed>
</trkpt>
<trkpt lat="55.675179" lon="26.505833">
<ele>170.494263</ele>
<time>2010-07-18T10:39:23Z</time>
<desc>lat.=55.675179, lon.=26.505833, Alt.=170.494263m. Speed=11.160000m/h.</desc>
<speed>3.100000</speed>
</trkpt>
<trkpt lat="55.675159" lon="26.505857">
<ele>170.474731</ele>
<time>2010-07-18T10:39:24Z</time>
<desc>lat.=55.675159, lon.=26.505857, Alt.=170.474731m. Speed=9.288000m/h.</desc>
<speed>2.580000</speed>
</trkpt>
<trkpt lat="55.675140" lon="26.505880">
<ele>170.529419</ele>
<time>2010-07-18T10:39:25Z</time>
<desc>lat.=55.675140, lon.=26.505880, Alt.=170.529419m. Speed=8.748000m/h.</desc>
<speed>2.430000</speed>
</trkpt>
<trkpt lat="55.675117" lon="26.505898">
<ele>170.482544</ele>
<time>2010-07-18T10:39:26Z</time>
<desc>lat.=55.675117, lon.=26.505898, Alt.=170.482544m. Speed=9.936000m/h.</desc>
<speed>2.760000</speed>
</trkpt>
<trkpt lat="55.675087" lon="26.505932">
<ele>170.755981</ele>
<time>2010-07-18T10:39:27Z</time>
<desc>lat.=55.675087, lon.=26.505932, Alt.=170.755981m. Speed=13.320000m/h.</desc>
<speed>3.700000</speed>
</trkpt>
<trkpt lat="55.675056" lon="26.505966">
<ele>170.791138</ele>
<time>2010-07-18T10:39:28Z</time>
<desc>lat.=55.675056, lon.=26.505966, Alt.=170.791138m. Speed=13.788000m/h.</desc>
<speed>3.830000</speed>
</trkpt>
<trkpt lat="55.675026" lon="26.505999">
<ele>170.580200</ele>
<time>2010-07-18T10:39:29Z</time>
<desc>lat.=55.675026, lon.=26.505999, Alt.=170.580200m. Speed=14.112000m/h.</desc>
<speed>3.920000</speed>
</trkpt>
<trkpt lat="55.674992" lon="26.506033">
<ele>170.197388</ele>
<time>2010-07-18T10:39:30Z</time>
<desc>lat.=55.674992, lon.=26.506033, Alt.=170.197388m. Speed=12.816000m/h.</desc>
<speed>3.560000</speed>
</trkpt>
<trkpt lat="55.674957" lon="26.506060">
<ele>169.763794</ele>
<time>2010-07-18T10:39:31Z</time>
<desc>lat.=55.674957, lon.=26.506060, Alt.=169.763794m. Speed=13.464000m/h.</desc>
<speed>3.740000</speed>
</trkpt>
<trkpt lat="55.674927" lon="26.506086">
<ele>169.541138</ele>
<time>2010-07-18T10:39:32Z</time>
<desc>lat.=55.674927, lon.=26.506086, Alt.=169.541138m. Speed=13.320000m/h.</desc>
<speed>3.700000</speed>
</trkpt>
<trkpt lat="55.674892" lon="26.506124">
<ele>170.095825</ele>
<time>2010-07-18T10:39:33Z</time>
<desc>lat.=55.674892, lon.=26.506124, Alt.=170.095825m. Speed=15.012000m/h.</desc>
<speed>4.170000</speed>
</trkpt>
<trkpt lat="55.674854" lon="26.506161">
<ele>169.990356</ele>
<time>2010-07-18T10:39:34Z</time>
<desc>lat.=55.674854, lon.=26.506161, Alt.=169.990356m. Speed=15.192000m/h.</desc>
<speed>4.220000</speed>
</trkpt>
<trkpt lat="55.674820" lon="26.506199">
<ele>170.041138</ele>
<time>2010-07-18T10:39:35Z</time>
<desc>lat.=55.674820, lon.=26.506199, Alt.=170.041138m. Speed=15.588000m/h.</desc>
<speed>4.330000</speed>
</trkpt>
<trkpt lat="55.674782" lon="26.506237">
<ele>170.127075</ele>
<time>2010-07-18T10:39:36Z</time>
<desc>lat.=55.674782, lon.=26.506237, Alt.=170.127075m. Speed=14.760000m/h.</desc>
<speed>4.100000</speed>
</trkpt>
<trkpt lat="55.674751" lon="26.506268">
<ele>170.041138</ele>
<time>2010-07-18T10:39:37Z</time>
<desc>lat.=55.674751, lon.=26.506268, Alt.=170.041138m. Speed=15.264000m/h.</desc>
<speed>4.240000</speed>
</trkpt>
<trkpt lat="55.674721" lon="26.506300">
<ele>169.900513</ele>
<time>2010-07-18T10:39:38Z</time>
<desc>lat.=55.674721, lon.=26.506300, Alt.=169.900513m. Speed=14.364000m/h.</desc>
<speed>3.990000</speed>
</trkpt>
<trkpt lat="55.674690" lon="26.506332">
<ele>169.654419</ele>
<time>2010-07-18T10:39:39Z</time>
<desc>lat.=55.674690, lon.=26.506332, Alt.=169.654419m. Speed=15.192000m/h.</desc>
<speed>4.220000</speed>
</trkpt>
<trkpt lat="55.674656" lon="26.506363">
<ele>169.443481</ele>
<time>2010-07-18T10:39:40Z</time>
<desc>lat.=55.674656, lon.=26.506363, Alt.=169.443481m. Speed=15.444000m/h.</desc>
<speed>4.290000</speed>
</trkpt>
<trkpt lat="55.674618" lon="26.506403">
<ele>169.740356</ele>
<time>2010-07-18T10:39:41Z</time>
<desc>lat.=55.674618, lon.=26.506403, Alt.=169.740356m. Speed=16.344000m/h.</desc>
<speed>4.540000</speed>
</trkpt>
<trkpt lat="55.674580" lon="26.506445">
<ele>170.213013</ele>
<time>2010-07-18T10:39:42Z</time>
<desc>lat.=55.674580, lon.=26.506445, Alt.=170.213013m. Speed=16.488001m/h.</desc>
<speed>4.580000</speed>
</trkpt>
<trkpt lat="55.674541" lon="26.506483">
<ele>170.431763</ele>
<time>2010-07-18T10:39:43Z</time>
<desc>lat.=55.674541, lon.=26.506483, Alt.=170.431763m. Speed=16.740000m/h.</desc>
<speed>4.650000</speed>
</trkpt>
<trkpt lat="55.674500" lon="26.506519">
<ele>170.572388</ele>
<time>2010-07-18T10:39:44Z</time>
<desc>lat.=55.674500, lon.=26.506519, Alt.=170.572388m. Speed=16.559999m/h.</desc>
<speed>4.600000</speed>
</trkpt>
<trkpt lat="55.674461" lon="26.506556">
<ele>170.685669</ele>
<time>2010-07-18T10:39:45Z</time>
<desc>lat.=55.674461, lon.=26.506556, Alt.=170.685669m. Speed=16.740000m/h.</desc>
<speed>4.650000</speed>
</trkpt>
<trkpt lat="55.674423" lon="26.506590">
<ele>171.080200</ele>
<time>2010-07-18T10:39:46Z</time>
<desc>lat.=55.674423, lon.=26.506590, Alt.=171.080200m. Speed=15.912000m/h.</desc>
<speed>4.420000</speed>
</trkpt>
<trkpt lat="55.674393" lon="26.506622">
<ele>171.048950</ele>
<time>2010-07-18T10:39:47Z</time>
<desc>lat.=55.674393, lon.=26.506622, Alt.=171.048950m. Speed=15.012000m/h.</desc>
<speed>4.170000</speed>
</trkpt>
<trkpt lat="55.674362" lon="26.506653">
<ele>171.170044</ele>
<time>2010-07-18T10:39:48Z</time>
<desc>lat.=55.674362, lon.=26.506653, Alt.=171.170044m. Speed=14.256000m/h.</desc>
<speed>3.960000</speed>
</trkpt>
<trkpt lat="55.674332" lon="26.506680">
<ele>170.420044</ele>
<time>2010-07-18T10:39:49Z</time>
<desc>lat.=55.674332, lon.=26.506680, Alt.=170.420044m. Speed=11.988000m/h.</desc>
<speed>3.330000</speed>
</trkpt>
<trkpt lat="55.674305" lon="26.506708">
<ele>170.170044</ele>
<time>2010-07-18T10:39:50Z</time>
<desc>lat.=55.674305, lon.=26.506708, Alt.=170.170044m. Speed=11.628000m/h.</desc>
<speed>3.230000</speed>
</trkpt>
<trkpt lat="55.674282" lon="26.506737">
<ele>169.865356</ele>
<time>2010-07-18T10:39:51Z</time>
<desc>lat.=55.674282, lon.=26.506737, Alt.=169.865356m. Speed=10.620000m/h.</desc>
<speed>2.950000</speed>
</trkpt>
<trkpt lat="55.674259" lon="26.506760">
<ele>169.525513</ele>
<time>2010-07-18T10:39:52Z</time>
<desc>lat.=55.674259, lon.=26.506760, Alt.=169.525513m. Speed=7.812000m/h.</desc>
<speed>2.170000</speed>
</trkpt>
<trkpt lat="55.674240" lon="26.506784">
<ele>169.615356</ele>
<time>2010-07-18T10:39:53Z</time>
<desc>lat.=55.674240, lon.=26.506784, Alt.=169.615356m. Speed=7.560000m/h.</desc>
<speed>2.100000</speed>
</trkpt>
<trkpt lat="55.674229" lon="26.506794">
<ele>169.584106</ele>
<time>2010-07-18T10:39:54Z</time>
<desc>lat.=55.674229, lon.=26.506794, Alt.=169.584106m. Speed=2.772000m/h.</desc>
<speed>0.770000</speed>
</trkpt>
<trkpt lat="55.674225" lon="26.506800">
<ele>169.681763</ele>
<time>2010-07-18T10:39:55Z</time>
<desc>lat.=55.674225, lon.=26.506800, Alt.=169.681763m. Speed=0.720000m/h.</desc>
<speed>0.200000</speed>
</trkpt>
<trkpt lat="55.674217" lon="26.506802">
<ele>169.599731</ele>
<time>2010-07-18T10:39:56Z</time>
<desc>lat.=55.674217, lon.=26.506802, Alt.=169.599731m. Speed=0.504000m/h.</desc>
<speed>0.140000</speed>
</trkpt>
<trkpt lat="55.674202" lon="26.506809">
<ele>169.681763</ele>
<time>2010-07-18T10:39:57Z</time>
<desc>lat.=55.674202, lon.=26.506809, Alt.=169.681763m. Speed=0.648000m/h.</desc>
<speed>0.180000</speed>
</trkpt>
<trkpt lat="55.674202" lon="26.506811">
<ele>169.568481</ele>
<time>2010-07-18T10:39:58Z</time>
<desc>lat.=55.674202, lon.=26.506811, Alt.=169.568481m. Speed=0.792000m/h.</desc>
<speed>0.220000</speed>
</trkpt>
<trkpt lat="55.674198" lon="26.506811">
<ele>169.482544</ele>
<time>2010-07-18T10:39:59Z</time>
<desc>lat.=55.674198, lon.=26.506811, Alt.=169.482544m. Speed=0.540000m/h.</desc>
<speed>0.150000</speed>
</trkpt>
<trkpt lat="55.674198" lon="26.506811">
<ele>169.427856</ele>
<time>2010-07-18T10:40:00Z</time>
<desc>lat.=55.674198, lon.=26.506811, Alt.=169.427856m. Speed=0.072000m/h.</desc>
<speed>0.020000</speed>
</trkpt>
<trkpt lat="55.674198" lon="26.506811">
<ele>169.373169</ele>
<time>2010-07-18T10:40:01Z</time>
<desc>lat.=55.674198, lon.=26.506811, Alt.=169.373169m. Speed=0.144000m/h.</desc>
<speed>0.040000</speed>
</trkpt>
<trkpt lat="55.674198" lon="26.506813">
<ele>169.341919</ele>
<time>2010-07-18T10:40:02Z</time>
<desc>lat.=55.674198, lon.=26.506813, Alt.=169.341919m. Speed=0.216000m/h.</desc>
<speed>0.060000</speed>
</trkpt>
<trkpt lat="55.674198" lon="26.506813">
<ele>169.338013</ele>
<time>2010-07-18T10:40:03Z</time>
<desc>lat.=55.674198, lon.=26.506813, Alt.=169.338013m. Speed=0.720000m/h.</desc>
<speed>0.200000</speed>
</trkpt>
<trkpt lat="55.674198" lon="26.506817">
<ele>169.353638</ele>
<time>2010-07-18T10:40:04Z</time>
<desc>lat.=55.674198, lon.=26.506817, Alt.=169.353638m. Speed=0.252000m/h.</desc>
<speed>0.070000</speed>
</trkpt>
<trkpt lat="55.674198" lon="26.506815">
<ele>169.365356</ele>
<time>2010-07-18T10:40:05Z</time>
<desc>lat.=55.674198, lon.=26.506815, Alt.=169.365356m. Speed=0.144000m/h.</desc>
<speed>0.040000</speed>
</trkpt>
<trkpt lat="55.674198" lon="26.506815">
<ele>169.373169</ele>
<time>2010-07-18T10:40:06Z</time>
<desc>lat.=55.674198, lon.=26.506815, Alt.=169.373169m. Speed=0.108000m/h.</desc>
<speed>0.030000</speed>
</trkpt>
<trkpt lat="55.674198" lon="26.506815">
<ele>169.377075</ele>
<time>2010-07-18T10:40:07Z</time>
<desc>lat.=55.674198, lon.=26.506815, Alt.=169.377075m. Speed=0.072000m/h.</desc>
<speed>0.020000</speed>
</trkpt>
<trkpt lat="55.674198" lon="26.506815">
<ele>169.384888</ele>
<time>2010-07-18T10:40:08Z</time>
<desc>lat.=55.674198, lon.=26.506815, Alt.=169.384888m. Speed=0.324000m/h.</desc>
<speed>0.090000</speed>
</trkpt>
<trkpt lat="55.674198" lon="26.506815">
<ele>169.388794</ele>
<time>2010-07-18T10:40:09Z</time>
<desc>lat.=55.674198, lon.=26.506815, Alt.=169.388794m. Speed=0.288000m/h.</desc>
<speed>0.080000</speed>
</trkpt>
<trkpt lat="55.674198" lon="26.506813">
<ele>169.388794</ele>
<time>2010-07-18T10:40:10Z</time>
<desc>lat.=55.674198, lon.=26.506813, Alt.=169.388794m. Speed=0.180000m/h.</desc>
<speed>0.050000</speed>
</trkpt>
<trkpt lat="55.674198" lon="26.506813">
<ele>169.388794</ele>
<time>2010-07-18T10:40:11Z</time>
<desc>lat.=55.674198, lon.=26.506813, Alt.=169.388794m. Speed=0.000000m/h.</desc>
<speed>0.000000</speed>
</trkpt>
<trkpt lat="55.674198" lon="26.506813">
<ele>169.388794</ele>
<time>2010-07-18T10:40:12Z</time>
<desc>lat.=55.674198, lon.=26.506813, Alt.=169.388794m. Speed=0.144000m/h.</desc>
<speed>0.040000</speed>
</trkpt>
<trkpt lat="55.674198" lon="26.506813">
<ele>169.388794</ele>
<time>2010-07-18T10:40:13Z</time>
<desc>lat.=55.674198, lon.=26.506813, Alt.=169.388794m. Speed=0.180000m/h.</desc>
<speed>0.050000</speed>
</trkpt>
<trkpt lat="55.674198" lon="26.506813">
<ele>169.384888</ele>
<time>2010-07-18T10:40:14Z</time>
<desc>lat.=55.674198, lon.=26.506813, Alt.=169.384888m. Speed=0.756000m/h.</desc>
<speed>0.210000</speed>
</trkpt>
<trkpt lat="55.674198" lon="26.506815">
<ele>169.365356</ele>
<time>2010-07-18T10:40:15Z</time>
<desc>lat.=55.674198, lon.=26.506815, Alt.=169.365356m. Speed=0.180000m/h.</desc>
<speed>0.050000</speed>
</trkpt>
<trkpt lat="55.674198" lon="26.506817">
<ele>169.353638</ele>
<time>2010-07-18T10:40:16Z</time>
<desc>lat.=55.674198, lon.=26.506817, Alt.=169.353638m. Speed=0.180000m/h.</desc>
<speed>0.050000</speed>
</trkpt>
<trkpt lat="55.674198" lon="26.506815">
<ele>169.353638</ele>
<time>2010-07-18T10:40:17Z</time>
<desc>lat.=55.674198, lon.=26.506815, Alt.=169.353638m. Speed=0.144000m/h.</desc>
<speed>0.040000</speed>
</trkpt>
<trkpt lat="55.674198" lon="26.506815">
<ele>169.349731</ele>
<time>2010-07-18T10:40:18Z</time>
<desc>lat.=55.674198, lon.=26.506815, Alt.=169.349731m. Speed=0.144000m/h.</desc>
<speed>0.040000</speed>
</trkpt>
<trkpt lat="55.674198" lon="26.506815">
<ele>169.353638</ele>
<time>2010-07-18T10:40:19Z</time>
<desc>lat.=55.674198, lon.=26.506815, Alt.=169.353638m. Speed=0.072000m/h.</desc>
<speed>0.020000</speed>
</trkpt>
<trkpt lat="55.674198" lon="26.506815">
<ele>169.357544</ele>
<time>2010-07-18T10:40:20Z</time>
<desc>lat.=55.674198, lon.=26.506815, Alt.=169.357544m. Speed=0.252000m/h.</desc>
<speed>0.070000</speed>
</trkpt>
<trkpt lat="55.674198" lon="26.506813">
<ele>169.361450</ele>
<time>2010-07-18T10:40:21Z</time>
<desc>lat.=55.674198, lon.=26.506813, Alt.=169.361450m. Speed=0.288000m/h.</desc>
<speed>0.080000</speed>
</trkpt>
<trkpt lat="55.674198" lon="26.506813">
<ele>169.365356</ele>
<time>2010-07-18T10:40:22Z</time>
<desc>lat.=55.674198, lon.=26.506813, Alt.=169.365356m. Speed=0.144000m/h.</desc>
<speed>0.040000</speed>
</trkpt>
<trkpt lat="55.674198" lon="26.506811">
<ele>169.365356</ele>
<time>2010-07-18T10:40:23Z</time>
<desc>lat.=55.674198, lon.=26.506811, Alt.=169.365356m. Speed=0.468000m/h.</desc>
<speed>0.130000</speed>
</trkpt>
<trkpt lat="55.674198" lon="26.506811">
<ele>169.369263</ele>
<time>2010-07-18T10:40:24Z</time>
<desc>lat.=55.674198, lon.=26.506811, Alt.=169.369263m. Speed=0.360000m/h.</desc>
<speed>0.100000</speed>
</trkpt>
<trkpt lat="55.674198" lon="26.506809">
<ele>169.369263</ele>
<time>2010-07-18T10:40:25Z</time>
<desc>lat.=55.674198, lon.=26.506809, Alt.=169.369263m. Speed=0.576000m/h.</desc>
<speed>0.160000</speed>
</trkpt>
<trkpt lat="55.674194" lon="26.506809">
<ele>169.361450</ele>
<time>2010-07-18T10:40:26Z</time>
<desc>lat.=55.674194, lon.=26.506809, Alt.=169.361450m. Speed=0.252000m/h.</desc>
<speed>0.070000</speed>
</trkpt>
<trkpt lat="55.674194" lon="26.506807">
<ele>169.357544</ele>
<time>2010-07-18T10:40:27Z</time>
<desc>lat.=55.674194, lon.=26.506807, Alt.=169.357544m. Speed=0.900000m/h.</desc>
<speed>0.250000</speed>
</trkpt>
<trkpt lat="55.674191" lon="26.506805">
<ele>169.361450</ele>
<time>2010-07-18T10:40:28Z</time>
<desc>lat.=55.674191, lon.=26.506805, Alt.=169.361450m. Speed=0.972000m/h.</desc>
<speed>0.270000</speed>
</trkpt>
<trkpt lat="55.674191" lon="26.506804">
<ele>169.361450</ele>
<time>2010-07-18T10:40:29Z</time>
<desc>lat.=55.674191, lon.=26.506804, Alt.=169.361450m. Speed=0.432000m/h.</desc>
<speed>0.120000</speed>
</trkpt>
<trkpt lat="55.674191" lon="26.506804">
<ele>169.369263</ele>
<time>2010-07-18T10:40:30Z</time>
<desc>lat.=55.674191, lon.=26.506804, Alt.=169.369263m. Speed=0.252000m/h.</desc>
<speed>0.070000</speed>
</trkpt>
<trkpt lat="55.674187" lon="26.506802">
<ele>169.377075</ele>
<time>2010-07-18T10:40:31Z</time>
<desc>lat.=55.674187, lon.=26.506802, Alt.=169.377075m. Speed=0.432000m/h.</desc>
<speed>0.120000</speed>
</trkpt>
<trkpt lat="55.674191" lon="26.506804">
<ele>169.380981</ele>
<time>2010-07-18T10:40:32Z</time>
<desc>lat.=55.674191, lon.=26.506804, Alt.=169.380981m. Speed=0.000000m/h.</desc>
<speed>0.000000</speed>
</trkpt>
<trkpt lat="55.674191" lon="26.506804">
<ele>169.384888</ele>
<time>2010-07-18T10:40:33Z</time>
<desc>lat.=55.674191, lon.=26.506804, Alt.=169.384888m. Speed=0.396000m/h.</desc>
<speed>0.110000</speed>
</trkpt>
<trkpt lat="55.674187" lon="26.506802">
<ele>169.396606</ele>
<time>2010-07-18T10:40:34Z</time>
<desc>lat.=55.674187, lon.=26.506802, Alt.=169.396606m. Speed=0.180000m/h.</desc>
<speed>0.050000</speed>
</trkpt>
<trkpt lat="55.674187" lon="26.506802">
<ele>169.416138</ele>
<time>2010-07-18T10:40:35Z</time>
<desc>lat.=55.674187, lon.=26.506802, Alt.=169.416138m. Speed=0.252000m/h.</desc>
<speed>0.070000</speed>
</trkpt>
<trkpt lat="55.674187" lon="26.506802">
<ele>169.435669</ele>
<time>2010-07-18T10:40:36Z</time>
<desc>lat.=55.674187, lon.=26.506802, Alt.=169.435669m. Speed=0.396000m/h.</desc>
<speed>0.110000</speed>
</trkpt>
<trkpt lat="55.674187" lon="26.506800">
<ele>169.447388</ele>
<time>2010-07-18T10:40:37Z</time>
<desc>lat.=55.674187, lon.=26.506800, Alt.=169.447388m. Speed=0.216000m/h.</desc>
<speed>0.060000</speed>
</trkpt>
<trkpt lat="55.674187" lon="26.506800">
<ele>169.451294</ele>
<time>2010-07-18T10:40:38Z</time>
<desc>lat.=55.674187, lon.=26.506800, Alt.=169.451294m. Speed=0.072000m/h.</desc>
<speed>0.020000</speed>
</trkpt>
<trkpt lat="55.674187" lon="26.506800">
<ele>169.459106</ele>
<time>2010-07-18T10:40:39Z</time>
<desc>lat.=55.674187, lon.=26.506800, Alt.=169.459106m. Speed=0.072000m/h.</desc>
<speed>0.020000</speed>
</trkpt>
<trkpt lat="55.674187" lon="26.506800">
<ele>169.466919</ele>
<time>2010-07-18T10:40:40Z</time>
<desc>lat.=55.674187, lon.=26.506800, Alt.=169.466919m. Speed=0.108000m/h.</desc>
<speed>0.030000</speed>
</trkpt>
<trkpt lat="55.674187" lon="26.506800">
<ele>169.478638</ele>
<time>2010-07-18T10:40:41Z</time>
<desc>lat.=55.674187, lon.=26.506800, Alt.=169.478638m. Speed=0.036000m/h.</desc>
<speed>0.010000</speed>
</trkpt>
<trkpt lat="55.674187" lon="26.506800">
<ele>169.486450</ele>
<time>2010-07-18T10:40:42Z</time>
<desc>lat.=55.674187, lon.=26.506800, Alt.=169.486450m. Speed=0.036000m/h.</desc>
<speed>0.010000</speed>
</trkpt>
<trkpt lat="55.674187" lon="26.506800">
<ele>169.490356</ele>
<time>2010-07-18T10:40:43Z</time>
<desc>lat.=55.674187, lon.=26.506800, Alt.=169.490356m. Speed=0.108000m/h.</desc>
<speed>0.030000</speed>
</trkpt>
<trkpt lat="55.674187" lon="26.506800">
<ele>169.494263</ele>
<time>2010-07-18T10:40:44Z</time>
<desc>lat.=55.674187, lon.=26.506800, Alt.=169.494263m. Speed=0.036000m/h.</desc>
<speed>0.010000</speed>
</trkpt>
<trkpt lat="55.674187" lon="26.506800">
<ele>169.502075</ele>
<time>2010-07-18T10:40:45Z</time>
<desc>lat.=55.674187, lon.=26.506800, Alt.=169.502075m. Speed=0.036000m/h.</desc>
<speed>0.010000</speed>
</trkpt>
<trkpt lat="55.674187" lon="26.506800">
<ele>169.509888</ele>
<time>2010-07-18T10:40:46Z</time>
<desc>lat.=55.674187, lon.=26.506800, Alt.=169.509888m. Speed=0.000000m/h.</desc>
<speed>0.000000</speed>
</trkpt>
<trkpt lat="55.674187" lon="26.506800">
<ele>169.517700</ele>
<time>2010-07-18T10:40:47Z</time>
<desc>lat.=55.674187, lon.=26.506800, Alt.=169.517700m. Speed=0.072000m/h.</desc>
<speed>0.020000</speed>
</trkpt>
<trkpt lat="55.674187" lon="26.506800">
<ele>169.525513</ele>
<time>2010-07-18T10:40:48Z</time>
<desc>lat.=55.674187, lon.=26.506800, Alt.=169.525513m. Speed=0.036000m/h.</desc>
<speed>0.010000</speed>
</trkpt>
<trkpt lat="55.674187" lon="26.506800">
<ele>169.533325</ele>
<time>2010-07-18T10:40:49Z</time>
<desc>lat.=55.674187, lon.=26.506800, Alt.=169.533325m. Speed=0.144000m/h.</desc>
<speed>0.040000</speed>
</trkpt>
<trkpt lat="55.674187" lon="26.506800">
<ele>169.537231</ele>
<time>2010-07-18T10:40:50Z</time>
<desc>lat.=55.674187, lon.=26.506800, Alt.=169.537231m. Speed=0.108000m/h.</desc>
<speed>0.030000</speed>
</trkpt>
<trkpt lat="55.674187" lon="26.506800">
<ele>169.548950</ele>
<time>2010-07-18T10:40:51Z</time>
<desc>lat.=55.674187, lon.=26.506800, Alt.=169.548950m. Speed=0.108000m/h.</desc>
<speed>0.030000</speed>
</trkpt>
<trkpt lat="55.674187" lon="26.506800">
<ele>169.552856</ele>
<time>2010-07-18T10:40:52Z</time>
<desc>lat.=55.674187, lon.=26.506800, Alt.=169.552856m. Speed=0.000000m/h.</desc>
<speed>0.000000</speed>
</trkpt>
<trkpt lat="55.674187" lon="26.506800">
<ele>169.560669</ele>
<time>2010-07-18T10:40:53Z</time>
<desc>lat.=55.674187, lon.=26.506800, Alt.=169.560669m. Speed=0.108000m/h.</desc>
<speed>0.030000</speed>
</trkpt>
<trkpt lat="55.674187" lon="26.506800">
<ele>169.560669</ele>
<time>2010-07-18T10:40:54Z</time>
<desc>lat.=55.674187, lon.=26.506800, Alt.=169.560669m. Speed=0.072000m/h.</desc>
<speed>0.020000</speed>
</trkpt>
<trkpt lat="55.674187" lon="26.506800">
<ele>169.568481</ele>
<time>2010-07-18T10:40:55Z</time>
<desc>lat.=55.674187, lon.=26.506800, Alt.=169.568481m. Speed=0.000000m/h.</desc>
<speed>0.000000</speed>
</trkpt>
<trkpt lat="55.674187" lon="26.506800">
<ele>169.576294</ele>
<time>2010-07-18T10:40:56Z</time>
<desc>lat.=55.674187, lon.=26.506800, Alt.=169.576294m. Speed=0.108000m/h.</desc>
<speed>0.030000</speed>
</trkpt>
<trkpt lat="55.674187" lon="26.506800">
<ele>169.580200</ele>
<time>2010-07-18T10:40:57Z</time>
<desc>lat.=55.674187, lon.=26.506800, Alt.=169.580200m. Speed=0.144000m/h.</desc>
<speed>0.040000</speed>
</trkpt>
<trkpt lat="55.674187" lon="26.506800">
<ele>169.588013</ele>
<time>2010-07-18T10:40:58Z</time>
<desc>lat.=55.674187, lon.=26.506800, Alt.=169.588013m. Speed=0.000000m/h.</desc>
<speed>0.000000</speed>
</trkpt>
<trkpt lat="55.674187" lon="26.506800">
<ele>169.591919</ele>
<time>2010-07-18T10:40:59Z</time>
<desc>lat.=55.674187, lon.=26.506800, Alt.=169.591919m. Speed=0.036000m/h.</desc>
<speed>0.010000</speed>
</trkpt>
<trkpt lat="55.674187" lon="26.506800">
<ele>169.591919</ele>
<time>2010-07-18T10:41:00Z</time>
<desc>lat.=55.674187, lon.=26.506800, Alt.=169.591919m. Speed=0.036000m/h.</desc>
<speed>0.010000</speed>
</trkpt>
<trkpt lat="55.674187" lon="26.506800">
<ele>169.595825</ele>
<time>2010-07-18T10:41:01Z</time>
<desc>lat.=55.674187, lon.=26.506800, Alt.=169.595825m. Speed=0.000000m/h.</desc>
<speed>0.000000</speed>
</trkpt>
<trkpt lat="55.674187" lon="26.506800">
<ele>169.595825</ele>
<time>2010-07-18T10:41:02Z</time>
<desc>lat.=55.674187, lon.=26.506800, Alt.=169.595825m. Speed=0.000000m/h.</desc>
<speed>0.000000</speed>
</trkpt>
<trkpt lat="55.674187" lon="26.506800">
<ele>169.603638</ele>
<time>2010-07-18T10:41:03Z</time>
<desc>lat.=55.674187, lon.=26.506800, Alt.=169.603638m. Speed=0.108000m/h.</desc>
<speed>0.030000</speed>
</trkpt>
<trkpt lat="55.674187" lon="26.506800">
<ele>169.611450</ele>
<time>2010-07-18T10:41:04Z</time>
<desc>lat.=55.674187, lon.=26.506800, Alt.=169.611450m. Speed=0.108000m/h.</desc>
<speed>0.030000</speed>
</trkpt>
<trkpt lat="55.674187" lon="26.506800">
<ele>169.615356</ele>
<time>2010-07-18T10:41:05Z</time>
<desc>lat.=55.674187, lon.=26.506800, Alt.=169.615356m. Speed=0.072000m/h.</desc>
<speed>0.020000</speed>
</trkpt>
<trkpt lat="55.674187" lon="26.506800">
<ele>169.615356</ele>
<time>2010-07-18T10:41:06Z</time>
<desc>lat.=55.674187, lon.=26.506800, Alt.=169.615356m. Speed=0.324000m/h.</desc>
<speed>0.090000</speed>
</trkpt>
<trkpt lat="55.674187" lon="26.506800">
<ele>169.619263</ele>
<time>2010-07-18T10:41:07Z</time>
<desc>lat.=55.674187, lon.=26.506800, Alt.=169.619263m. Speed=0.396000m/h.</desc>
<speed>0.110000</speed>
</trkpt>
<trkpt lat="55.674187" lon="26.506802">
<ele>169.611450</ele>
<time>2010-07-18T10:41:08Z</time>
<desc>lat.=55.674187, lon.=26.506802, Alt.=169.611450m. Speed=0.360000m/h.</desc>
<speed>0.100000</speed>
</trkpt>
<trkpt lat="55.674187" lon="26.506802">
<ele>169.595825</ele>
<time>2010-07-18T10:41:09Z</time>
<desc>lat.=55.674187, lon.=26.506802, Alt.=169.595825m. Speed=0.396000m/h.</desc>
<speed>0.110000</speed>
</trkpt>
<trkpt lat="55.674187" lon="26.506804">
<ele>169.576294</ele>
<time>2010-07-18T10:41:10Z</time>
<desc>lat.=55.674187, lon.=26.506804, Alt.=169.576294m. Speed=0.180000m/h.</desc>
<speed>0.050000</speed>
</trkpt>
<trkpt lat="55.674187" lon="26.506804">
<ele>169.564575</ele>
<time>2010-07-18T10:41:11Z</time>
<desc>lat.=55.674187, lon.=26.506804, Alt.=169.564575m. Speed=0.000000m/h.</desc>
<speed>0.000000</speed>
</trkpt>
<trkpt lat="55.674187" lon="26.506804">
<ele>169.548950</ele>
<time>2010-07-18T10:41:12Z</time>
<desc>lat.=55.674187, lon.=26.506804, Alt.=169.548950m. Speed=0.000000m/h.</desc>
<speed>0.000000</speed>
</trkpt>
<trkpt lat="55.674187" lon="26.506804">
<ele>169.537231</ele>
<time>2010-07-18T10:41:13Z</time>
<desc>lat.=55.674187, lon.=26.506804, Alt.=169.537231m. Speed=0.072000m/h.</desc>
<speed>0.020000</speed>
</trkpt>
<trkpt lat="55.674187" lon="26.506804">
<ele>169.564575</ele>
<time>2010-07-18T10:41:14Z</time>
<desc>lat.=55.674187, lon.=26.506804, Alt.=169.564575m. Speed=0.180000m/h.</desc>
<speed>0.050000</speed>
</trkpt>
<trkpt lat="55.674187" lon="26.506804">
<ele>169.607544</ele>
<time>2010-07-18T10:41:15Z</time>
<desc>lat.=55.674187, lon.=26.506804, Alt.=169.607544m. Speed=0.072000m/h.</desc>
<speed>0.020000</speed>
</trkpt>
<trkpt lat="55.674187" lon="26.506804">
<ele>169.638794</ele>
<time>2010-07-18T10:41:16Z</time>
<desc>lat.=55.674187, lon.=26.506804, Alt.=169.638794m. Speed=0.540000m/h.</desc>
<speed>0.150000</speed>
</trkpt>
<trkpt lat="55.674187" lon="26.506805">
<ele>169.650513</ele>
<time>2010-07-18T10:41:17Z</time>
<desc>lat.=55.674187, lon.=26.506805, Alt.=169.650513m. Speed=0.828000m/h.</desc>
<speed>0.230000</speed>
</trkpt>
<trkpt lat="55.674187" lon="26.506807">
<ele>169.642700</ele>
<time>2010-07-18T10:41:18Z</time>
<desc>lat.=55.674187, lon.=26.506807, Alt.=169.642700m. Speed=0.612000m/h.</desc>
<speed>0.170000</speed>
</trkpt>
<trkpt lat="55.674187" lon="26.506805">
<ele>169.662231</ele>
<time>2010-07-18T10:41:19Z</time>
<desc>lat.=55.674187, lon.=26.506805, Alt.=169.662231m. Speed=1.764000m/h.</desc>
<speed>0.490000</speed>
</trkpt>
<trkpt lat="55.674183" lon="26.506804">
<ele>169.693481</ele>
<time>2010-07-18T10:41:20Z</time>
<desc>lat.=55.674183, lon.=26.506804, Alt.=169.693481m. Speed=1.980000m/h.</desc>
<speed>0.550000</speed>
</trkpt>
<trkpt lat="55.674179" lon="26.506804">
<ele>169.724731</ele>
<time>2010-07-18T10:41:21Z</time>
<desc>lat.=55.674179, lon.=26.506804, Alt.=169.724731m. Speed=2.196000m/h.</desc>
<speed>0.610000</speed>
</trkpt>
<trkpt lat="55.674175" lon="26.506804">
<ele>169.759888</ele>
<time>2010-07-18T10:41:22Z</time>
<desc>lat.=55.674175, lon.=26.506804, Alt.=169.759888m. Speed=3.888000m/h.</desc>
<speed>1.080000</speed>
</trkpt>
<trkpt lat="55.674164" lon="26.506819">
<ele>170.181763</ele>
<time>2010-07-18T10:41:23Z</time>
<desc>lat.=55.674164, lon.=26.506819, Alt.=170.181763m. Speed=4.752000m/h.</desc>
<speed>1.320000</speed>
</trkpt>
<trkpt lat="55.674152" lon="26.506844">
<ele>170.408325</ele>
<time>2010-07-18T10:41:24Z</time>
<desc>lat.=55.674152, lon.=26.506844, Alt.=170.408325m. Speed=6.660000m/h.</desc>
<speed>1.850000</speed>
</trkpt>
<trkpt lat="55.674133" lon="26.506866">
<ele>170.740356</ele>
<time>2010-07-18T10:41:25Z</time>
<desc>lat.=55.674133, lon.=26.506866, Alt.=170.740356m. Speed=9.324000m/h.</desc>
<speed>2.590000</speed>
</trkpt>
<trkpt lat="55.674114" lon="26.506903">
<ele>170.802856</ele>
<time>2010-07-18T10:41:26Z</time>
<desc>lat.=55.674114, lon.=26.506903, Alt.=170.802856m. Speed=10.800000m/h.</desc>
<speed>3.000000</speed>
</trkpt>
<trkpt lat="55.674091" lon="26.506931">
<ele>171.017700</ele>
<time>2010-07-18T10:41:27Z</time>
<desc>lat.=55.674091, lon.=26.506931, Alt.=171.017700m. Speed=9.972000m/h.</desc>
<speed>2.770000</speed>
</trkpt>
<trkpt lat="55.674065" lon="26.506950">
<ele>170.963013</ele>
<time>2010-07-18T10:41:28Z</time>
<desc>lat.=55.674065, lon.=26.506950, Alt.=170.963013m. Speed=10.800000m/h.</desc>
<speed>3.000000</speed>
</trkpt>
<trkpt lat="55.674038" lon="26.506979">
<ele>170.810669</ele>
<time>2010-07-18T10:41:29Z</time>
<desc>lat.=55.674038, lon.=26.506979, Alt.=170.810669m. Speed=11.484000m/h.</desc>
<speed>3.190000</speed>
</trkpt>
<trkpt lat="55.674011" lon="26.507011">
<ele>170.900513</ele>
<time>2010-07-18T10:41:30Z</time>
<desc>lat.=55.674011, lon.=26.507011, Alt.=170.900513m. Speed=10.044000m/h.</desc>
<speed>2.790000</speed>
</trkpt>
<trkpt lat="55.673985" lon="26.507040">
<ele>171.099731</ele>
<time>2010-07-18T10:41:31Z</time>
<desc>lat.=55.673985, lon.=26.507040, Alt.=171.099731m. Speed=12.564000m/h.</desc>
<speed>3.490000</speed>
</trkpt>
<trkpt lat="55.673958" lon="26.507074">
<ele>171.060669</ele>
<time>2010-07-18T10:41:32Z</time>
<desc>lat.=55.673958, lon.=26.507074, Alt.=171.060669m. Speed=12.024000m/h.</desc>
<speed>3.340000</speed>
</trkpt>
<trkpt lat="55.673927" lon="26.507107">
<ele>171.197388</ele>
<time>2010-07-18T10:41:33Z</time>
<desc>lat.=55.673927, lon.=26.507107, Alt.=171.197388m. Speed=13.932000m/h.</desc>
<speed>3.870000</speed>
</trkpt>
<trkpt lat="55.673893" lon="26.507145">
<ele>171.213013</ele>
<time>2010-07-18T10:41:34Z</time>
<desc>lat.=55.673893, lon.=26.507145, Alt.=171.213013m. Speed=14.688000m/h.</desc>
<speed>4.080000</speed>
</trkpt>
<trkpt lat="55.673859" lon="26.507183">
<ele>171.193481</ele>
<time>2010-07-18T10:41:35Z</time>
<desc>lat.=55.673859, lon.=26.507183, Alt.=171.193481m. Speed=14.400000m/h.</desc>
<speed>4.000000</speed>
</trkpt>
<trkpt lat="55.673820" lon="26.507219">
<ele>171.072388</ele>
<time>2010-07-18T10:41:36Z</time>
<desc>lat.=55.673820, lon.=26.507219, Alt.=171.072388m. Speed=14.652000m/h.</desc>
<speed>4.070000</speed>
</trkpt>
<trkpt lat="55.673786" lon="26.507257">
<ele>171.322388</ele>
<time>2010-07-18T10:41:37Z</time>
<desc>lat.=55.673786, lon.=26.507257, Alt.=171.322388m. Speed=14.724000m/h.</desc>
<speed>4.090000</speed>
</trkpt>
<trkpt lat="55.673756" lon="26.507290">
<ele>171.447388</ele>
<time>2010-07-18T10:41:38Z</time>
<desc>lat.=55.673756, lon.=26.507290, Alt.=171.447388m. Speed=14.976000m/h.</desc>
<speed>4.160000</speed>
</trkpt>
<trkpt lat="55.673721" lon="26.507330">
<ele>171.970825</ele>
<time>2010-07-18T10:41:39Z</time>
<desc>lat.=55.673721, lon.=26.507330, Alt.=171.970825m. Speed=14.580000m/h.</desc>
<speed>4.050000</speed>
</trkpt>
<trkpt lat="55.673691" lon="26.507364">
<ele>171.584106</ele>
<time>2010-07-18T10:41:40Z</time>
<desc>lat.=55.673691, lon.=26.507364, Alt.=171.584106m. Speed=14.076000m/h.</desc>
<speed>3.910000</speed>
</trkpt>
<trkpt lat="55.673656" lon="26.507399">
<ele>171.900513</ele>
<time>2010-07-18T10:41:41Z</time>
<desc>lat.=55.673656, lon.=26.507399, Alt.=171.900513m. Speed=14.724000m/h.</desc>
<speed>4.090000</speed>
</trkpt>
<trkpt lat="55.673618" lon="26.507441">
<ele>171.935669</ele>
<time>2010-07-18T10:41:42Z</time>
<desc>lat.=55.673618, lon.=26.507441, Alt.=171.935669m. Speed=14.940000m/h.</desc>
<speed>4.150000</speed>
</trkpt>
<trkpt lat="55.673584" lon="26.507475">
<ele>171.935669</ele>
<time>2010-07-18T10:41:43Z</time>
<desc>lat.=55.673584, lon.=26.507475, Alt.=171.935669m. Speed=13.788000m/h.</desc>
<speed>3.830000</speed>
</trkpt>
<trkpt lat="55.673542" lon="26.507505">
<ele>171.920044</ele>
<time>2010-07-18T10:41:44Z</time>
<desc>lat.=55.673542, lon.=26.507505, Alt.=171.920044m. Speed=13.140000m/h.</desc>
<speed>3.650000</speed>
</trkpt>
<trkpt lat="55.673508" lon="26.507534">
<ele>172.326294</ele>
<time>2010-07-18T10:41:45Z</time>
<desc>lat.=55.673508, lon.=26.507534, Alt.=172.326294m. Speed=14.256000m/h.</desc>
<speed>3.960000</speed>
</trkpt>
<trkpt lat="55.673473" lon="26.507563">
<ele>172.568481</ele>
<time>2010-07-18T10:41:46Z</time>
<desc>lat.=55.673473, lon.=26.507563, Alt.=172.568481m. Speed=13.248000m/h.</desc>
<speed>3.680000</speed>
</trkpt>
<trkpt lat="55.673439" lon="26.507589">
<ele>172.259888</ele>
<time>2010-07-18T10:41:47Z</time>
<desc>lat.=55.673439, lon.=26.507589, Alt.=172.259888m. Speed=9.504000m/h.</desc>
<speed>2.640000</speed>
</trkpt>
<trkpt lat="55.673420" lon="26.507605">
<ele>172.279419</ele>
<time>2010-07-18T10:41:48Z</time>
<desc>lat.=55.673420, lon.=26.507605, Alt.=172.279419m. Speed=7.380000m/h.</desc>
<speed>2.050000</speed>
</trkpt>
<trkpt lat="55.673397" lon="26.507618">
<ele>172.146606</ele>
<time>2010-07-18T10:41:49Z</time>
<desc>lat.=55.673397, lon.=26.507618, Alt.=172.146606m. Speed=4.392000m/h.</desc>
<speed>1.220000</speed>
</trkpt>
<trkpt lat="55.673382" lon="26.507627">
<ele>172.064575</ele>
<time>2010-07-18T10:41:50Z</time>
<desc>lat.=55.673382, lon.=26.507627, Alt.=172.064575m. Speed=2.052000m/h.</desc>
<speed>0.570000</speed>
</trkpt>
<trkpt lat="55.673378" lon="26.507637">
<ele>172.361450</ele>
<time>2010-07-18T10:41:51Z</time>
<desc>lat.=55.673378, lon.=26.507637, Alt.=172.361450m. Speed=2.664000m/h.</desc>
<speed>0.740000</speed>
</trkpt>
<trkpt lat="55.673370" lon="26.507641">
<ele>172.380981</ele>
<time>2010-07-18T10:41:52Z</time>
<desc>lat.=55.673370, lon.=26.507641, Alt.=172.380981m. Speed=2.736000m/h.</desc>
<speed>0.760000</speed>
</trkpt>
<trkpt lat="55.673363" lon="26.507645">
<ele>171.994263</ele>
<time>2010-07-18T10:41:53Z</time>
<desc>lat.=55.673363, lon.=26.507645, Alt.=171.994263m. Speed=3.348000m/h.</desc>
<speed>0.930000</speed>
</trkpt>
<trkpt lat="55.673351" lon="26.507643">
<ele>171.970825</ele>
<time>2010-07-18T10:41:54Z</time>
<desc>lat.=55.673351, lon.=26.507643, Alt.=171.970825m. Speed=4.608000m/h.</desc>
<speed>1.280000</speed>
</trkpt>
<trkpt lat="55.673344" lon="26.507650">
<ele>172.005981</ele>
<time>2010-07-18T10:41:55Z</time>
<desc>lat.=55.673344, lon.=26.507650, Alt.=172.005981m. Speed=4.824000m/h.</desc>
<speed>1.340000</speed>
</trkpt>
<trkpt lat="55.673328" lon="26.507660">
<ele>171.978638</ele>
<time>2010-07-18T10:41:56Z</time>
<desc>lat.=55.673328, lon.=26.507660, Alt.=171.978638m. Speed=7.848000m/h.</desc>
<speed>2.180000</speed>
</trkpt>
<trkpt lat="55.673317" lon="26.507666">
<ele>171.627075</ele>
<time>2010-07-18T10:41:57Z</time>
<desc>lat.=55.673317, lon.=26.507666, Alt.=171.627075m. Speed=3.492000m/h.</desc>
<speed>0.970000</speed>
</trkpt>
<trkpt lat="55.673313" lon="26.507666">
<ele>171.646606</ele>
<time>2010-07-18T10:41:58Z</time>
<desc>lat.=55.673313, lon.=26.507666, Alt.=171.646606m. Speed=0.468000m/h.</desc>
<speed>0.130000</speed>
</trkpt>
<trkpt lat="55.673309" lon="26.507666">
<ele>171.525513</ele>
<time>2010-07-18T10:41:59Z</time>
<desc>lat.=55.673309, lon.=26.507666, Alt.=171.525513m. Speed=0.324000m/h.</desc>
<speed>0.090000</speed>
</trkpt>
<trkpt lat="55.673309" lon="26.507666">
<ele>171.416138</ele>
<time>2010-07-18T10:42:00Z</time>
<desc>lat.=55.673309, lon.=26.507666, Alt.=171.416138m. Speed=0.144000m/h.</desc>
<speed>0.040000</speed>
</trkpt>
<trkpt lat="55.673306" lon="26.507666">
<ele>171.271606</ele>
<time>2010-07-18T10:42:01Z</time>
<desc>lat.=55.673306, lon.=26.507666, Alt.=171.271606m. Speed=0.000000m/h.</desc>
<speed>0.000000</speed>
</trkpt>
<trkpt lat="55.673306" lon="26.507666">
<ele>171.267700</ele>
<time>2010-07-18T10:42:02Z</time>
<desc>lat.=55.673306, lon.=26.507666, Alt.=171.267700m. Speed=0.036000m/h.</desc>
<speed>0.010000</speed>
</trkpt>
<trkpt lat="55.673306" lon="26.507666">
<ele>171.263794</ele>
<time>2010-07-18T10:42:03Z</time>
<desc>lat.=55.673306, lon.=26.507666, Alt.=171.263794m. Speed=0.000000m/h.</desc>
<speed>0.000000</speed>
</trkpt>
<trkpt lat="55.673306" lon="26.507666">
<ele>171.248169</ele>
<time>2010-07-18T10:42:04Z</time>
<desc>lat.=55.673306, lon.=26.507666, Alt.=171.248169m. Speed=0.000000m/h.</desc>
<speed>0.000000</speed>
</trkpt>
<trkpt lat="55.673306" lon="26.507666">
<ele>171.240356</ele>
<time>2010-07-18T10:42:05Z</time>
<desc>lat.=55.673306, lon.=26.507666, Alt.=171.240356m. Speed=0.036000m/h.</desc>
<speed>0.010000</speed>
</trkpt>
<trkpt lat="55.673306" lon="26.507666">
<ele>171.232544</ele>
<time>2010-07-18T10:42:06Z</time>
<desc>lat.=55.673306, lon.=26.507666, Alt.=171.232544m. Speed=0.108000m/h.</desc>
<speed>0.030000</speed>
</trkpt>
<trkpt lat="55.673306" lon="26.507666">
<ele>171.216919</ele>
<time>2010-07-18T10:42:07Z</time>
<desc>lat.=55.673306, lon.=26.507666, Alt.=171.216919m. Speed=0.072000m/h.</desc>
<speed>0.020000</speed>
</trkpt>
<trkpt lat="55.673306" lon="26.507666">
<ele>171.209106</ele>
<time>2010-07-18T10:42:08Z</time>
<desc>lat.=55.673306, lon.=26.507666, Alt.=171.209106m. Speed=0.000000m/h.</desc>
<speed>0.000000</speed>
</trkpt>
<trkpt lat="55.673306" lon="26.507666">
<ele>171.205200</ele>
<time>2010-07-18T10:42:09Z</time>
<desc>lat.=55.673306, lon.=26.507666, Alt.=171.205200m. Speed=0.000000m/h.</desc>
<speed>0.000000</speed>
</trkpt>
<trkpt lat="55.673306" lon="26.507666">
<ele>171.201294</ele>
<time>2010-07-18T10:42:10Z</time>
<desc>lat.=55.673306, lon.=26.507666, Alt.=171.201294m. Speed=0.000000m/h.</desc>
<speed>0.000000</speed>
</trkpt>
<trkpt lat="55.673306" lon="26.507666">
<ele>171.201294</ele>
<time>2010-07-18T10:42:11Z</time>
<desc>lat.=55.673306, lon.=26.507666, Alt.=171.201294m. Speed=0.000000m/h.</desc>
<speed>0.000000</speed>
</trkpt>
<trkpt lat="55.673306" lon="26.507666">
<ele>171.201294</ele>
<time>2010-07-18T10:42:12Z</time>
<desc>lat.=55.673306, lon.=26.507666, Alt.=171.201294m. Speed=0.000000m/h.</desc>
<speed>0.000000</speed>
</trkpt>
<trkpt lat="55.673306" lon="26.507666">
<ele>171.197388</ele>
<time>2010-07-18T10:42:13Z</time>
<desc>lat.=55.673306, lon.=26.507666, Alt.=171.197388m. Speed=0.000000m/h.</desc>
<speed>0.000000</speed>
</trkpt>
<trkpt lat="55.673306" lon="26.507666">
<ele>171.193481</ele>
<time>2010-07-18T10:42:14Z</time>
<desc>lat.=55.673306, lon.=26.507666, Alt.=171.193481m. Speed=0.000000m/h.</desc>
<speed>0.000000</speed>
</trkpt>
<trkpt lat="55.673306" lon="26.507666">
<ele>171.189575</ele>
<time>2010-07-18T10:42:15Z</time>
<desc>lat.=55.673306, lon.=26.507666, Alt.=171.189575m. Speed=0.000000m/h.</desc>
<speed>0.000000</speed>
</trkpt>
<trkpt lat="55.673306" lon="26.507666">
<ele>171.189575</ele>
<time>2010-07-18T10:42:16Z</time>
<desc>lat.=55.673306, lon.=26.507666, Alt.=171.189575m. Speed=0.000000m/h.</desc>
<speed>0.000000</speed>
</trkpt>
<trkpt lat="55.673306" lon="26.507666">
<ele>171.189575</ele>
<time>2010-07-18T10:42:17Z</time>
<desc>lat.=55.673306, lon.=26.507666, Alt.=171.189575m. Speed=0.036000m/h.</desc>
<speed>0.010000</speed>
</trkpt>
<trkpt lat="55.673306" lon="26.507666">
<ele>171.185669</ele>
<time>2010-07-18T10:42:18Z</time>
<desc>lat.=55.673306, lon.=26.507666, Alt.=171.185669m. Speed=0.000000m/h.</desc>
<speed>0.000000</speed>
</trkpt>
<trkpt lat="55.673306" lon="26.507666">
<ele>171.181763</ele>
<time>2010-07-18T10:42:19Z</time>
<desc>lat.=55.673306, lon.=26.507666, Alt.=171.181763m. Speed=0.036000m/h.</desc>
<speed>0.010000</speed>
</trkpt>
<trkpt lat="55.673306" lon="26.507666">
<ele>171.181763</ele>
<time>2010-07-18T10:42:20Z</time>
<desc>lat.=55.673306, lon.=26.507666, Alt.=171.181763m. Speed=0.000000m/h.</desc>
<speed>0.000000</speed>
</trkpt>
<trkpt lat="55.673306" lon="26.507666">
<ele>171.185669</ele>
<time>2010-07-18T10:42:21Z</time>
<desc>lat.=55.673306, lon.=26.507666, Alt.=171.185669m. Speed=0.000000m/h.</desc>
<speed>0.000000</speed>
</trkpt>
<trkpt lat="55.673306" lon="26.507666">
<ele>171.181763</ele>
<time>2010-07-18T10:42:22Z</time>
<desc>lat.=55.673306, lon.=26.507666, Alt.=171.181763m. Speed=0.036000m/h.</desc>
<speed>0.010000</speed>
</trkpt>
<trkpt lat="55.673306" lon="26.507666">
<ele>171.185669</ele>
<time>2010-07-18T10:42:23Z</time>
<desc>lat.=55.673306, lon.=26.507666, Alt.=171.185669m. Speed=0.000000m/h.</desc>
<speed>0.000000</speed>
</trkpt>
<trkpt lat="55.673306" lon="26.507664">
<ele>171.181763</ele>
<time>2010-07-18T10:42:24Z</time>
<desc>lat.=55.673306, lon.=26.507664, Alt.=171.181763m. Speed=0.000000m/h.</desc>
<speed>0.000000</speed>
</trkpt>
<trkpt lat="55.673302" lon="26.507664">
<ele>171.181763</ele>
<time>2010-07-18T10:42:25Z</time>
<desc>lat.=55.673302, lon.=26.507664, Alt.=171.181763m. Speed=0.036000m/h.</desc>
<speed>0.010000</speed>
</trkpt>
<trkpt lat="55.673302" lon="26.507664">
<ele>171.185669</ele>
<time>2010-07-18T10:42:26Z</time>
<desc>lat.=55.673302, lon.=26.507664, Alt.=171.185669m. Speed=0.000000m/h.</desc>
<speed>0.000000</speed>
</trkpt>
<trkpt lat="55.673302" lon="26.507664">
<ele>171.189575</ele>
<time>2010-07-18T10:42:27Z</time>
<desc>lat.=55.673302, lon.=26.507664, Alt.=171.189575m. Speed=0.072000m/h.</desc>
<speed>0.020000</speed>
</trkpt>
<trkpt lat="55.673302" lon="26.507664">
<ele>171.193481</ele>
<time>2010-07-18T10:42:28Z</time>
<desc>lat.=55.673302, lon.=26.507664, Alt.=171.193481m. Speed=0.252000m/h.</desc>
<speed>0.070000</speed>
</trkpt>
<trkpt lat="55.673302" lon="26.507666">
<ele>171.197388</ele>
<time>2010-07-18T10:42:29Z</time>
<desc>lat.=55.673302, lon.=26.507666, Alt.=171.197388m. Speed=0.288000m/h.</desc>
<speed>0.080000</speed>
</trkpt>
<trkpt lat="55.673302" lon="26.507666">
<ele>171.205200</ele>
<time>2010-07-18T10:42:30Z</time>
<desc>lat.=55.673302, lon.=26.507666, Alt.=171.205200m. Speed=0.396000m/h.</desc>
<speed>0.110000</speed>
</trkpt>
<trkpt lat="55.673302" lon="26.507668">
<ele>171.216919</ele>
<time>2010-07-18T10:42:31Z</time>
<desc>lat.=55.673302, lon.=26.507668, Alt.=171.216919m. Speed=5.004000m/h.</desc>
<speed>1.390000</speed>
</trkpt>
<trkpt lat="55.673290" lon="26.507685">
<ele>171.388794</ele>
<time>2010-07-18T10:42:32Z</time>
<desc>lat.=55.673290, lon.=26.507685, Alt.=171.388794m. Speed=6.804000m/h.</desc>
<speed>1.890000</speed>
</trkpt>
<trkpt lat="55.673271" lon="26.507704">
<ele>171.287231</ele>
<time>2010-07-18T10:42:33Z</time>
<desc>lat.=55.673271, lon.=26.507704, Alt.=171.287231m. Speed=8.568000m/h.</desc>
<speed>2.380000</speed>
</trkpt>
<trkpt lat="55.673244" lon="26.507729">
<ele>171.255981</ele>
<time>2010-07-18T10:42:34Z</time>
<desc>lat.=55.673244, lon.=26.507729, Alt.=171.255981m. Speed=12.060000m/h.</desc>
<speed>3.350000</speed>
</trkpt>
<trkpt lat="55.673214" lon="26.507759">
<ele>171.267700</ele>
<time>2010-07-18T10:42:35Z</time>
<desc>lat.=55.673214, lon.=26.507759, Alt.=171.267700m. Speed=13.140000m/h.</desc>
<speed>3.650000</speed>
</trkpt>
<trkpt lat="55.673183" lon="26.507792">
<ele>171.068481</ele>
<time>2010-07-18T10:42:36Z</time>
<desc>lat.=55.673183, lon.=26.507792, Alt.=171.068481m. Speed=15.300000m/h.</desc>
<speed>4.250000</speed>
</trkpt>
<trkpt lat="55.673145" lon="26.507826">
<ele>170.810669</ele>
<time>2010-07-18T10:42:37Z</time>
<desc>lat.=55.673145, lon.=26.507826, Alt.=170.810669m. Speed=17.028000m/h.</desc>
<speed>4.730000</speed>
</trkpt>
<trkpt lat="55.673103" lon="26.507864">
<ele>170.638794</ele>
<time>2010-07-18T10:42:38Z</time>
<desc>lat.=55.673103, lon.=26.507864, Alt.=170.638794m. Speed=18.576000m/h.</desc>
<speed>5.160000</speed>
</trkpt>
<trkpt lat="55.673058" lon="26.507904">
<ele>170.427856</ele>
<time>2010-07-18T10:42:39Z</time>
<desc>lat.=55.673058, lon.=26.507904, Alt.=170.427856m. Speed=21.059999m/h.</desc>
<speed>5.850000</speed>
</trkpt>
<trkpt lat="55.673008" lon="26.507948">
<ele>170.084106</ele>
<time>2010-07-18T10:42:40Z</time>
<desc>lat.=55.673008, lon.=26.507948, Alt.=170.084106m. Speed=22.823999m/h.</desc>
<speed>6.340000</speed>
</trkpt>
<trkpt lat="55.672955" lon="26.508001">
<ele>169.787231</ele>
<time>2010-07-18T10:42:41Z</time>
<desc>lat.=55.672955, lon.=26.508001, Alt.=169.787231m. Speed=23.544001m/h.</desc>
<speed>6.540000</speed>
</trkpt>
<trkpt lat="55.672901" lon="26.508059">
<ele>169.521606</ele>
<time>2010-07-18T10:42:42Z</time>
<desc>lat.=55.672901, lon.=26.508059, Alt.=169.521606m. Speed=25.559999m/h.</desc>
<speed>7.100000</speed>
</trkpt>
<trkpt lat="55.672844" lon="26.508116">
<ele>169.193481</ele>
<time>2010-07-18T10:42:43Z</time>
<desc>lat.=55.672844, lon.=26.508116, Alt.=169.193481m. Speed=27.936001m/h.</desc>
<speed>7.760000</speed>
</trkpt>
<trkpt lat="55.672775" lon="26.508175">
<ele>168.771606</ele>
<time>2010-07-18T10:42:44Z</time>
<desc>lat.=55.672775, lon.=26.508175, Alt.=168.771606m. Speed=30.096001m/h.</desc>
<speed>8.360000</speed>
</trkpt>
<trkpt lat="55.672699" lon="26.508234">
<ele>167.916138</ele>
<time>2010-07-18T10:42:45Z</time>
<desc>lat.=55.672699, lon.=26.508234, Alt.=167.916138m. Speed=32.652000m/h.</desc>
<speed>9.070000</speed>
</trkpt>
<trkpt lat="55.672626" lon="26.508303">
<ele>167.552856</ele>
<time>2010-07-18T10:42:46Z</time>
<desc>lat.=55.672626, lon.=26.508303, Alt.=167.552856m. Speed=33.984001m/h.</desc>
<speed>9.440000</speed>
</trkpt>
<trkpt lat="55.672546" lon="26.508371">
<ele>166.935669</ele>
<time>2010-07-18T10:42:47Z</time>
<desc>lat.=55.672546, lon.=26.508371, Alt.=166.935669m. Speed=36.287998m/h.</desc>
<speed>10.079999</speed>
</trkpt>
<trkpt lat="55.672459" lon="26.508446">
<ele>166.197388</ele>
<time>2010-07-18T10:42:48Z</time>
<desc>lat.=55.672459, lon.=26.508446, Alt.=166.197388m. Speed=37.728001m/h.</desc>
<speed>10.480000</speed>
</trkpt>
<trkpt lat="55.672367" lon="26.508524">
<ele>165.451294</ele>
<time>2010-07-18T10:42:49Z</time>
<desc>lat.=55.672367, lon.=26.508524, Alt.=165.451294m. Speed=40.284000m/h.</desc>
<speed>11.190000</speed>
</trkpt>
<trkpt lat="55.672279" lon="26.508606">
<ele>165.298950</ele>
<time>2010-07-18T10:42:50Z</time>
<desc>lat.=55.672279, lon.=26.508606, Alt.=165.298950m. Speed=41.112000m/h.</desc>
<speed>11.420000</speed>
</trkpt>
<trkpt lat="55.672184" lon="26.508692">
<ele>164.630981</ele>
<time>2010-07-18T10:42:51Z</time>
<desc>lat.=55.672184, lon.=26.508692, Alt.=164.630981m. Speed=43.344002m/h.</desc>
<speed>12.040000</speed>
</trkpt>
<trkpt lat="55.672085" lon="26.508783">
<ele>163.939575</ele>
<time>2010-07-18T10:42:52Z</time>
<desc>lat.=55.672085, lon.=26.508783, Alt.=163.939575m. Speed=44.388000m/h.</desc>
<speed>12.330000</speed>
</trkpt>
<trkpt lat="55.671982" lon="26.508875">
<ele>163.029419</ele>
<time>2010-07-18T10:42:53Z</time>
<desc>lat.=55.671982, lon.=26.508875, Alt.=163.029419m. Speed=45.396000m/h.</desc>
<speed>12.610000</speed>
</trkpt>
<trkpt lat="55.671875" lon="26.508966">
<ele>162.185669</ele>
<time>2010-07-18T10:42:54Z</time>
<desc>lat.=55.671875, lon.=26.508966, Alt.=162.185669m. Speed=46.728001m/h.</desc>
<speed>12.980000</speed>
</trkpt>
<trkpt lat="55.671768" lon="26.509058">
<ele>161.361450</ele>
<time>2010-07-18T10:42:55Z</time>
<desc>lat.=55.671768, lon.=26.509058, Alt.=161.361450m. Speed=47.411999m/h.</desc>
<speed>13.170000</speed>
</trkpt>
<trkpt lat="55.671661" lon="26.509159">
<ele>160.654419</ele>
<time>2010-07-18T10:42:56Z</time>
<desc>lat.=55.671661, lon.=26.509159, Alt.=160.654419m. Speed=48.959999m/h.</desc>
<speed>13.600000</speed>
</trkpt>
<trkpt lat="55.671551" lon="26.509256">
<ele>159.748169</ele>
<time>2010-07-18T10:42:57Z</time>
<desc>lat.=55.671551, lon.=26.509256, Alt.=159.748169m. Speed=50.436001m/h.</desc>
<speed>14.010000</speed>
</trkpt>
<trkpt lat="55.671436" lon="26.509354">
<ele>158.748169</ele>
<time>2010-07-18T10:42:58Z</time>
<desc>lat.=55.671436, lon.=26.509354, Alt.=158.748169m. Speed=51.911999m/h.</desc>
<speed>14.420000</speed>
</trkpt>
<trkpt lat="55.671310" lon="26.509455">
<ele>157.658325</ele>
<time>2010-07-18T10:42:59Z</time>
<desc>lat.=55.671310, lon.=26.509455, Alt.=157.658325m. Speed=53.712002m/h.</desc>
<speed>14.920001</speed>
</trkpt>
<trkpt lat="55.671185" lon="26.509560">
<ele>156.595825</ele>
<time>2010-07-18T10:43:00Z</time>
<desc>lat.=55.671185, lon.=26.509560, Alt.=156.595825m. Speed=54.756001m/h.</desc>
<speed>15.210000</speed>
</trkpt>
<trkpt lat="55.671059" lon="26.509666">
<ele>155.232544</ele>
<time>2010-07-18T10:43:01Z</time>
<desc>lat.=55.671059, lon.=26.509666, Alt.=155.232544m. Speed=56.520000m/h.</desc>
<speed>15.700000</speed>
</trkpt>
<trkpt lat="55.670929" lon="26.509775">
<ele>154.357544</ele>
<time>2010-07-18T10:43:02Z</time>
<desc>lat.=55.670929, lon.=26.509775, Alt.=154.357544m. Speed=56.627998m/h.</desc>
<speed>15.730000</speed>
</trkpt>
<trkpt lat="55.670803" lon="26.509882">
<ele>153.685669</ele>
<time>2010-07-18T10:43:03Z</time>
<desc>lat.=55.670803, lon.=26.509882, Alt.=153.685669m. Speed=55.908001m/h.</desc>
<speed>15.530000</speed>
</trkpt>
<trkpt lat="55.670677" lon="26.509991">
<ele>153.060669</ele>
<time>2010-07-18T10:43:04Z</time>
<desc>lat.=55.670677, lon.=26.509991, Alt.=153.060669m. Speed=55.980000m/h.</desc>
<speed>15.550000</speed>
</trkpt>
<trkpt lat="55.670551" lon="26.510105">
<ele>152.709106</ele>
<time>2010-07-18T10:43:05Z</time>
<desc>lat.=55.670551, lon.=26.510105, Alt.=152.709106m. Speed=55.476002m/h.</desc>
<speed>15.410000</speed>
</trkpt>
<trkpt lat="55.670425" lon="26.510216">
<ele>152.455200</ele>
<time>2010-07-18T10:43:06Z</time>
<desc>lat.=55.670425, lon.=26.510216, Alt.=152.455200m. Speed=56.124001m/h.</desc>
<speed>15.590000</speed>
</trkpt>
<trkpt lat="55.670303" lon="26.510326">
<ele>152.255981</ele>
<time>2010-07-18T10:43:07Z</time>
<desc>lat.=55.670303, lon.=26.510326, Alt.=152.255981m. Speed=55.223999m/h.</desc>
<speed>15.340000</speed>
</trkpt>
<trkpt lat="55.670181" lon="26.510433">
<ele>151.892700</ele>
<time>2010-07-18T10:43:08Z</time>
<desc>lat.=55.670181, lon.=26.510433, Alt.=151.892700m. Speed=52.848000m/h.</desc>
<speed>14.680000</speed>
</trkpt>
<trkpt lat="55.670059" lon="26.510534">
<ele>151.744263</ele>
<time>2010-07-18T10:43:09Z</time>
<desc>lat.=55.670059, lon.=26.510534, Alt.=151.744263m. Speed=50.759998m/h.</desc>
<speed>14.100000</speed>
</trkpt>
<trkpt lat="55.669945" lon="26.510630">
<ele>151.545044</ele>
<time>2010-07-18T10:43:10Z</time>
<desc>lat.=55.669945, lon.=26.510630, Alt.=151.545044m. Speed=48.312000m/h.</desc>
<speed>13.420000</speed>
</trkpt>
<trkpt lat="55.669838" lon="26.510721">
<ele>151.591919</ele>
<time>2010-07-18T10:43:11Z</time>
<desc>lat.=55.669838, lon.=26.510721, Alt.=151.591919m. Speed=45.756001m/h.</desc>
<speed>12.710000</speed>
</trkpt>
<trkpt lat="55.669735" lon="26.510815">
<ele>151.728638</ele>
<time>2010-07-18T10:43:12Z</time>
<desc>lat.=55.669735, lon.=26.510815, Alt.=151.728638m. Speed=46.476002m/h.</desc>
<speed>12.910000</speed>
</trkpt>
<trkpt lat="55.669628" lon="26.510910">
<ele>151.634888</ele>
<time>2010-07-18T10:43:13Z</time>
<desc>lat.=55.669628, lon.=26.510910, Alt.=151.634888m. Speed=45.396000m/h.</desc>
<speed>12.610000</speed>
</trkpt>
<trkpt lat="55.669529" lon="26.511000">
<ele>152.365356</ele>
<time>2010-07-18T10:43:14Z</time>
<desc>lat.=55.669529, lon.=26.511000, Alt.=152.365356m. Speed=44.028000m/h.</desc>
<speed>12.230000</speed>
</trkpt>
<trkpt lat="55.669434" lon="26.511086">
<ele>152.466919</ele>
<time>2010-07-18T10:43:15Z</time>
<desc>lat.=55.669434, lon.=26.511086, Alt.=152.466919m. Speed=40.320000m/h.</desc>
<speed>11.200000</speed>
</trkpt>
<trkpt lat="55.669342" lon="26.511171">
<ele>152.220825</ele>
<time>2010-07-18T10:43:16Z</time>
<desc>lat.=55.669342, lon.=26.511171, Alt.=152.220825m. Speed=39.348000m/h.</desc>
<speed>10.930000</speed>
</trkpt>
<trkpt lat="55.669254" lon="26.511257">
<ele>152.029419</ele>
<time>2010-07-18T10:43:17Z</time>
<desc>lat.=55.669254, lon.=26.511257, Alt.=152.029419m. Speed=38.916000m/h.</desc>
<speed>10.810000</speed>
</trkpt>
<trkpt lat="55.669178" lon="26.511347">
<ele>152.365356</ele>
<time>2010-07-18T10:43:18Z</time>
<desc>lat.=55.669178, lon.=26.511347, Alt.=152.365356m. Speed=37.043999m/h.</desc>
<speed>10.290000</speed>
</trkpt>
<trkpt lat="55.669102" lon="26.511431">
<ele>152.470825</ele>
<time>2010-07-18T10:43:19Z</time>
<desc>lat.=55.669102, lon.=26.511431, Alt.=152.470825m. Speed=35.891998m/h.</desc>
<speed>9.970000</speed>
</trkpt>
<trkpt lat="55.669029" lon="26.511509">
<ele>152.599731</ele>
<time>2010-07-18T10:43:20Z</time>
<desc>lat.=55.669029, lon.=26.511509, Alt.=152.599731m. Speed=33.768002m/h.</desc>
<speed>9.380000</speed>
</trkpt>
<trkpt lat="55.668961" lon="26.511593">
<ele>153.267700</ele>
<time>2010-07-18T10:43:21Z</time>
<desc>lat.=55.668961, lon.=26.511593, Alt.=153.267700m. Speed=33.012001m/h.</desc>
<speed>9.170000</speed>
</trkpt>
<trkpt lat="55.668892" lon="26.511679">
<ele>152.877075</ele>
<time>2010-07-18T10:43:22Z</time>
<desc>lat.=55.668892, lon.=26.511679, Alt.=152.877075m. Speed=30.888000m/h.</desc>
<speed>8.580000</speed>
</trkpt>
<trkpt lat="55.668827" lon="26.511755">
<ele>152.670044</ele>
<time>2010-07-18T10:43:23Z</time>
<desc>lat.=55.668827, lon.=26.511755, Alt.=152.670044m. Speed=30.636000m/h.</desc>
<speed>8.510000</speed>
</trkpt>
<trkpt lat="55.668770" lon="26.511831">
<ele>152.423950</ele>
<time>2010-07-18T10:43:24Z</time>
<desc>lat.=55.668770, lon.=26.511831, Alt.=152.423950m. Speed=29.375999m/h.</desc>
<speed>8.160000</speed>
</trkpt>
<trkpt lat="55.668713" lon="26.511909">
<ele>152.666138</ele>
<time>2010-07-18T10:43:25Z</time>
<desc>lat.=55.668713, lon.=26.511909, Alt.=152.666138m. Speed=29.304001m/h.</desc>
<speed>8.140000</speed>
</trkpt>
<trkpt lat="55.668655" lon="26.511986">
<ele>152.595825</ele>
<time>2010-07-18T10:43:26Z</time>
<desc>lat.=55.668655, lon.=26.511986, Alt.=152.595825m. Speed=27.936001m/h.</desc>
<speed>7.760000</speed>
</trkpt>
<trkpt lat="55.668602" lon="26.512056">
<ele>152.755981</ele>
<time>2010-07-18T10:43:27Z</time>
<desc>lat.=55.668602, lon.=26.512056, Alt.=152.755981m. Speed=27.504000m/h.</desc>
<speed>7.640000</speed>
</trkpt>
<trkpt lat="55.668549" lon="26.512127">
<ele>152.830200</ele>
<time>2010-07-18T10:43:28Z</time>
<desc>lat.=55.668549, lon.=26.512127, Alt.=152.830200m. Speed=26.712000m/h.</desc>
<speed>7.420000</speed>
</trkpt>
<trkpt lat="55.668491" lon="26.512190">
<ele>153.052856</ele>
<time>2010-07-18T10:43:29Z</time>
<desc>lat.=55.668491, lon.=26.512190, Alt.=153.052856m. Speed=24.552000m/h.</desc>
<speed>6.820000</speed>
</trkpt>
<trkpt lat="55.668449" lon="26.512243">
<ele>153.334106</ele>
<time>2010-07-18T10:43:30Z</time>
<desc>lat.=55.668449, lon.=26.512243, Alt.=153.334106m. Speed=19.548000m/h.</desc>
<speed>5.430000</speed>
</trkpt>
<trkpt lat="55.668400" lon="26.512299">
<ele>153.685669</ele>
<time>2010-07-18T10:43:31Z</time>
<desc>lat.=55.668400, lon.=26.512299, Alt.=153.685669m. Speed=23.832001m/h.</desc>
<speed>6.620000</speed>
</trkpt>
<trkpt lat="55.668354" lon="26.512358">
<ele>153.810669</ele>
<time>2010-07-18T10:43:32Z</time>
<desc>lat.=55.668354, lon.=26.512358, Alt.=153.810669m. Speed=22.500000m/h.</desc>
<speed>6.250000</speed>
</trkpt>
<trkpt lat="55.668308" lon="26.512421">
<ele>153.841919</ele>
<time>2010-07-18T10:43:33Z</time>
<desc>lat.=55.668308, lon.=26.512421, Alt.=153.841919m. Speed=23.436001m/h.</desc>
<speed>6.510000</speed>
</trkpt>
<trkpt lat="55.668259" lon="26.512493">
<ele>153.787231</ele>
<time>2010-07-18T10:43:34Z</time>
<desc>lat.=55.668259, lon.=26.512493, Alt.=153.787231m. Speed=24.480000m/h.</desc>
<speed>6.800000</speed>
</trkpt>
<trkpt lat="55.668221" lon="26.512583">
<ele>153.447388</ele>
<time>2010-07-18T10:43:35Z</time>
<desc>lat.=55.668221, lon.=26.512583, Alt.=153.447388m. Speed=23.652000m/h.</desc>
<speed>6.570000</speed>
</trkpt>
<trkpt lat="55.668179" lon="26.512665">
<ele>153.052856</ele>
<time>2010-07-18T10:43:36Z</time>
<desc>lat.=55.668179, lon.=26.512665, Alt.=153.052856m. Speed=24.372000m/h.</desc>
<speed>6.770000</speed>
</trkpt>
<trkpt lat="55.668125" lon="26.512774">
<ele>151.884888</ele>
<time>2010-07-18T10:43:37Z</time>
<desc>lat.=55.668125, lon.=26.512774, Alt.=151.884888m. Speed=27.252001m/h.</desc>
<speed>7.570000</speed>
</trkpt>
<trkpt lat="55.668076" lon="26.512867">
<ele>151.298950</ele>
<time>2010-07-18T10:43:38Z</time>
<desc>lat.=55.668076, lon.=26.512867, Alt.=151.298950m. Speed=28.044001m/h.</desc>
<speed>7.790000</speed>
</trkpt>
<trkpt lat="55.668018" lon="26.512970">
<ele>151.720825</ele>
<time>2010-07-18T10:43:39Z</time>
<desc>lat.=55.668018, lon.=26.512970, Alt.=151.720825m. Speed=27.180000m/h.</desc>
<speed>7.550000</speed>
</trkpt>
<trkpt lat="55.667965" lon="26.513071">
<ele>152.330200</ele>
<time>2010-07-18T10:43:40Z</time>
<desc>lat.=55.667965, lon.=26.513071, Alt.=152.330200m. Speed=26.892000m/h.</desc>
<speed>7.470000</speed>
</trkpt>
<trkpt lat="55.667923" lon="26.513161">
<ele>153.045044</ele>
<time>2010-07-18T10:43:41Z</time>
<desc>lat.=55.667923, lon.=26.513161, Alt.=153.045044m. Speed=25.955999m/h.</desc>
<speed>7.210000</speed>
</trkpt>
<trkpt lat="55.667881" lon="26.513256">
<ele>153.420044</ele>
<time>2010-07-18T10:43:42Z</time>
<desc>lat.=55.667881, lon.=26.513256, Alt.=153.420044m. Speed=25.308001m/h.</desc>
<speed>7.030000</speed>
</trkpt>
<trkpt lat="55.667835" lon="26.513355">
<ele>154.068481</ele>
<time>2010-07-18T10:43:43Z</time>
<desc>lat.=55.667835, lon.=26.513355, Alt.=154.068481m. Speed=25.884001m/h.</desc>
<speed>7.190000</speed>
</trkpt>
<trkpt lat="55.667789" lon="26.513437">
<ele>153.798950</ele>
<time>2010-07-18T10:43:44Z</time>
<desc>lat.=55.667789, lon.=26.513437, Alt.=153.798950m. Speed=24.408001m/h.</desc>
<speed>6.780000</speed>
</trkpt>
<trkpt lat="55.667744" lon="26.513519">
<ele>153.568481</ele>
<time>2010-07-18T10:43:45Z</time>
<desc>lat.=55.667744, lon.=26.513519, Alt.=153.568481m. Speed=24.480000m/h.</desc>
<speed>6.800000</speed>
</trkpt>
<trkpt lat="55.667698" lon="26.513603">
<ele>153.599731</ele>
<time>2010-07-18T10:43:46Z</time>
<desc>lat.=55.667698, lon.=26.513603, Alt.=153.599731m. Speed=24.156000m/h.</desc>
<speed>6.710000</speed>
</trkpt>
<trkpt lat="55.667648" lon="26.513683">
<ele>153.318481</ele>
<time>2010-07-18T10:43:47Z</time>
<desc>lat.=55.667648, lon.=26.513683, Alt.=153.318481m. Speed=24.264000m/h.</desc>
<speed>6.740000</speed>
</trkpt>
<trkpt lat="55.667614" lon="26.513763">
<ele>153.978638</ele>
<time>2010-07-18T10:43:48Z</time>
<desc>lat.=55.667614, lon.=26.513763, Alt.=153.978638m. Speed=24.084000m/h.</desc>
<speed>6.690000</speed>
</trkpt>
<trkpt lat="55.667576" lon="26.513847">
<ele>154.634888</ele>
<time>2010-07-18T10:43:49Z</time>
<desc>lat.=55.667576, lon.=26.513847, Alt.=154.634888m. Speed=24.191999m/h.</desc>
<speed>6.720000</speed>
</trkpt>
<trkpt lat="55.667534" lon="26.513927">
<ele>154.841919</ele>
<time>2010-07-18T10:43:50Z</time>
<desc>lat.=55.667534, lon.=26.513927, Alt.=154.841919m. Speed=23.472000m/h.</desc>
<speed>6.520000</speed>
</trkpt>
<trkpt lat="55.667492" lon="26.514015">
<ele>155.224731</ele>
<time>2010-07-18T10:43:51Z</time>
<desc>lat.=55.667492, lon.=26.514015, Alt.=155.224731m. Speed=23.832001m/h.</desc>
<speed>6.620000</speed>
</trkpt>
<trkpt lat="55.667454" lon="26.514093">
<ele>154.892700</ele>
<time>2010-07-18T10:43:52Z</time>
<desc>lat.=55.667454, lon.=26.514093, Alt.=154.892700m. Speed=22.896000m/h.</desc>
<speed>6.360000</speed>
</trkpt>
<trkpt lat="55.667419" lon="26.514168">
<ele>155.279419</ele>
<time>2010-07-18T10:43:53Z</time>
<desc>lat.=55.667419, lon.=26.514168, Alt.=155.279419m. Speed=23.436001m/h.</desc>
<speed>6.510000</speed>
</trkpt>
<trkpt lat="55.667377" lon="26.514246">
<ele>155.494263</ele>
<time>2010-07-18T10:43:54Z</time>
<desc>lat.=55.667377, lon.=26.514246, Alt.=155.494263m. Speed=23.544001m/h.</desc>
<speed>6.540000</speed>
</trkpt>
<trkpt lat="55.667332" lon="26.514322">
<ele>155.732544</ele>
<time>2010-07-18T10:43:55Z</time>
<desc>lat.=55.667332, lon.=26.514322, Alt.=155.732544m. Speed=23.724001m/h.</desc>
<speed>6.590000</speed>
</trkpt>
<trkpt lat="55.667290" lon="26.514395">
<ele>155.994263</ele>
<time>2010-07-18T10:43:56Z</time>
<desc>lat.=55.667290, lon.=26.514395, Alt.=155.994263m. Speed=23.364000m/h.</desc>
<speed>6.490000</speed>
</trkpt>
<trkpt lat="55.667248" lon="26.514465">
<ele>155.904419</ele>
<time>2010-07-18T10:43:57Z</time>
<desc>lat.=55.667248, lon.=26.514465, Alt.=155.904419m. Speed=22.104000m/h.</desc>
<speed>6.140000</speed>
</trkpt>
<trkpt lat="55.667210" lon="26.514532">
<ele>155.787231</ele>
<time>2010-07-18T10:43:58Z</time>
<desc>lat.=55.667210, lon.=26.514532, Alt.=155.787231m. Speed=20.700001m/h.</desc>
<speed>5.750000</speed>
</trkpt>
<trkpt lat="55.667175" lon="26.514595">
<ele>155.740356</ele>
<time>2010-07-18T10:43:59Z</time>
<desc>lat.=55.667175, lon.=26.514595, Alt.=155.740356m. Speed=19.908001m/h.</desc>
<speed>5.530000</speed>
</trkpt>
<trkpt lat="55.667141" lon="26.514658">
<ele>155.904419</ele>
<time>2010-07-18T10:44:00Z</time>
<desc>lat.=55.667141, lon.=26.514658, Alt.=155.904419m. Speed=19.224001m/h.</desc>
<speed>5.340000</speed>
</trkpt>
<trkpt lat="55.667107" lon="26.514719">
<ele>155.818481</ele>
<time>2010-07-18T10:44:01Z</time>
<desc>lat.=55.667107, lon.=26.514719, Alt.=155.818481m. Speed=18.288000m/h.</desc>
<speed>5.080000</speed>
</trkpt>
<trkpt lat="55.667080" lon="26.514776">
<ele>156.162231</ele>
<time>2010-07-18T10:44:02Z</time>
<desc>lat.=55.667080, lon.=26.514776, Alt.=156.162231m. Speed=18.000000m/h.</desc>
<speed>5.000000</speed>
</trkpt>
<trkpt lat="55.667049" lon="26.514837">
<ele>156.377075</ele>
<time>2010-07-18T10:44:03Z</time>
<desc>lat.=55.667049, lon.=26.514837, Alt.=156.377075m. Speed=18.000000m/h.</desc>
<speed>5.000000</speed>
</trkpt>
<trkpt lat="55.667019" lon="26.514896">
<ele>156.283325</ele>
<time>2010-07-18T10:44:04Z</time>
<desc>lat.=55.667019, lon.=26.514896, Alt.=156.283325m. Speed=18.323999m/h.</desc>
<speed>5.090000</speed>
</trkpt>
<trkpt lat="55.666992" lon="26.514956">
<ele>156.271606</ele>
<time>2010-07-18T10:44:05Z</time>
<desc>lat.=55.666992, lon.=26.514956, Alt.=156.271606m. Speed=17.964001m/h.</desc>
<speed>4.990000</speed>
</trkpt>
<trkpt lat="55.666962" lon="26.515009">
<ele>156.392700</ele>
<time>2010-07-18T10:44:06Z</time>
<desc>lat.=55.666962, lon.=26.515009, Alt.=156.392700m. Speed=17.316000m/h.</desc>
<speed>4.810000</speed>
</trkpt>
<trkpt lat="55.666927" lon="26.515060">
<ele>156.142700</ele>
<time>2010-07-18T10:44:07Z</time>
<desc>lat.=55.666927, lon.=26.515060, Alt.=156.142700m. Speed=17.892000m/h.</desc>
<speed>4.970000</speed>
</trkpt>
<trkpt lat="55.666893" lon="26.515112">
<ele>156.103638</ele>
<time>2010-07-18T10:44:08Z</time>
<desc>lat.=55.666893, lon.=26.515112, Alt.=156.103638m. Speed=17.532000m/h.</desc>
<speed>4.870000</speed>
</trkpt>
<trkpt lat="55.666866" lon="26.515162">
<ele>156.119263</ele>
<time>2010-07-18T10:44:09Z</time>
<desc>lat.=55.666866, lon.=26.515162, Alt.=156.119263m. Speed=16.056000m/h.</desc>
<speed>4.460000</speed>
</trkpt>
<trkpt lat="55.666840" lon="26.515209">
<ele>156.037231</ele>
<time>2010-07-18T10:44:10Z</time>
<desc>lat.=55.666840, lon.=26.515209, Alt.=156.037231m. Speed=15.876000m/h.</desc>
<speed>4.410000</speed>
</trkpt>
<trkpt lat="55.666809" lon="26.515257">
<ele>155.845825</ele>
<time>2010-07-18T10:44:11Z</time>
<desc>lat.=55.666809, lon.=26.515257, Alt.=155.845825m. Speed=15.372000m/h.</desc>
<speed>4.270000</speed>
</trkpt>
<trkpt lat="55.666782" lon="26.515308">
<ele>155.783325</ele>
<time>2010-07-18T10:44:12Z</time>
<desc>lat.=55.666782, lon.=26.515308, Alt.=155.783325m. Speed=15.984000m/h.</desc>
<speed>4.440000</speed>
</trkpt>
<trkpt lat="55.666756" lon="26.515360">
<ele>155.838013</ele>
<time>2010-07-18T10:44:13Z</time>
<desc>lat.=55.666756, lon.=26.515360, Alt.=155.838013m. Speed=15.660000m/h.</desc>
<speed>4.350000</speed>
</trkpt>
<trkpt lat="55.666729" lon="26.515411">
<ele>155.670044</ele>
<time>2010-07-18T10:44:14Z</time>
<desc>lat.=55.666729, lon.=26.515411, Alt.=155.670044m. Speed=16.632000m/h.</desc>
<speed>4.620000</speed>
</trkpt>
<trkpt lat="55.666702" lon="26.515463">
<ele>155.779419</ele>
<time>2010-07-18T10:44:15Z</time>
<desc>lat.=55.666702, lon.=26.515463, Alt.=155.779419m. Speed=16.091999m/h.</desc>
<speed>4.470000</speed>
</trkpt>
<trkpt lat="55.666679" lon="26.515528">
<ele>155.732544</ele>
<time>2010-07-18T10:44:16Z</time>
<desc>lat.=55.666679, lon.=26.515528, Alt.=155.732544m. Speed=17.424000m/h.</desc>
<speed>4.840000</speed>
</trkpt>
<trkpt lat="55.666656" lon="26.515593">
<ele>155.252075</ele>
<time>2010-07-18T10:44:17Z</time>
<desc>lat.=55.666656, lon.=26.515593, Alt.=155.252075m. Speed=18.252001m/h.</desc>
<speed>5.070000</speed>
</trkpt>
<trkpt lat="55.666626" lon="26.515659">
<ele>155.080200</ele>
<time>2010-07-18T10:44:18Z</time>
<desc>lat.=55.666626, lon.=26.515659, Alt.=155.080200m. Speed=16.848000m/h.</desc>
<speed>4.680000</speed>
</trkpt>
<trkpt lat="55.666603" lon="26.515720">
<ele>154.935669</ele>
<time>2010-07-18T10:44:19Z</time>
<desc>lat.=55.666603, lon.=26.515720, Alt.=154.935669m. Speed=16.992001m/h.</desc>
<speed>4.720000</speed>
</trkpt>
<trkpt lat="55.666573" lon="26.515781">
<ele>154.517700</ele>
<time>2010-07-18T10:44:20Z</time>
<desc>lat.=55.666573, lon.=26.515781, Alt.=154.517700m. Speed=17.892000m/h.</desc>
<speed>4.970000</speed>
</trkpt>
<trkpt lat="55.666542" lon="26.515839">
<ele>154.002075</ele>
<time>2010-07-18T10:44:21Z</time>
<desc>lat.=55.666542, lon.=26.515839, Alt.=154.002075m. Speed=17.712000m/h.</desc>
<speed>4.920000</speed>
</trkpt>
<trkpt lat="55.666515" lon="26.515907">
<ele>153.611450</ele>
<time>2010-07-18T10:44:22Z</time>
<desc>lat.=55.666515, lon.=26.515907, Alt.=153.611450m. Speed=19.799999m/h.</desc>
<speed>5.500000</speed>
</trkpt>
<trkpt lat="55.666485" lon="26.515984">
<ele>153.564575</ele>
<time>2010-07-18T10:44:23Z</time>
<desc>lat.=55.666485, lon.=26.515984, Alt.=153.564575m. Speed=20.916000m/h.</desc>
<speed>5.810000</speed>
</trkpt>
<trkpt lat="55.666451" lon="26.516062">
<ele>153.248169</ele>
<time>2010-07-18T10:44:24Z</time>
<desc>lat.=55.666451, lon.=26.516062, Alt.=153.248169m. Speed=20.483999m/h.</desc>
<speed>5.690000</speed>
</trkpt>
<trkpt lat="55.666428" lon="26.516144">
<ele>153.392700</ele>
<time>2010-07-18T10:44:25Z</time>
<desc>lat.=55.666428, lon.=26.516144, Alt.=153.392700m. Speed=19.691999m/h.</desc>
<speed>5.470000</speed>
</trkpt>
<trkpt lat="55.666401" lon="26.516218">
<ele>153.435669</ele>
<time>2010-07-18T10:44:26Z</time>
<desc>lat.=55.666401, lon.=26.516218, Alt.=153.435669m. Speed=19.799999m/h.</desc>
<speed>5.500000</speed>
</trkpt>
<trkpt lat="55.666370" lon="26.516294">
<ele>153.349731</ele>
<time>2010-07-18T10:44:27Z</time>
<desc>lat.=55.666370, lon.=26.516294, Alt.=153.349731m. Speed=19.152000m/h.</desc>
<speed>5.320000</speed>
</trkpt>
<trkpt lat="55.666344" lon="26.516363">
<ele>153.396606</ele>
<time>2010-07-18T10:44:28Z</time>
<desc>lat.=55.666344, lon.=26.516363, Alt.=153.396606m. Speed=17.712000m/h.</desc>
<speed>4.920000</speed>
</trkpt>
<trkpt lat="55.666321" lon="26.516434">
<ele>153.400513</ele>
<time>2010-07-18T10:44:29Z</time>
<desc>lat.=55.666321, lon.=26.516434, Alt.=153.400513m. Speed=17.820000m/h.</desc>
<speed>4.950000</speed>
</trkpt>
<trkpt lat="55.666298" lon="26.516508">
<ele>153.877075</ele>
<time>2010-07-18T10:44:30Z</time>
<desc>lat.=55.666298, lon.=26.516508, Alt.=153.877075m. Speed=17.604000m/h.</desc>
<speed>4.890000</speed>
</trkpt>
<trkpt lat="55.666283" lon="26.516581">
<ele>153.908325</ele>
<time>2010-07-18T10:44:31Z</time>
<desc>lat.=55.666283, lon.=26.516581, Alt.=153.908325m. Speed=17.028000m/h.</desc>
<speed>4.730000</speed>
</trkpt>
<trkpt lat="55.666264" lon="26.516651">
<ele>154.099731</ele>
<time>2010-07-18T10:44:32Z</time>
<desc>lat.=55.666264, lon.=26.516651, Alt.=154.099731m. Speed=16.488001m/h.</desc>
<speed>4.580000</speed>
</trkpt>
<trkpt lat="55.666245" lon="26.516710">
<ele>154.771606</ele>
<time>2010-07-18T10:44:33Z</time>
<desc>lat.=55.666245, lon.=26.516710, Alt.=154.771606m. Speed=16.056000m/h.</desc>
<speed>4.460000</speed>
</trkpt>
<trkpt lat="55.666225" lon="26.516771">
<ele>155.037231</ele>
<time>2010-07-18T10:44:34Z</time>
<desc>lat.=55.666225, lon.=26.516771, Alt.=155.037231m. Speed=15.120000m/h.</desc>
<speed>4.200000</speed>
</trkpt>
<trkpt lat="55.666206" lon="26.516827">
<ele>155.107544</ele>
<time>2010-07-18T10:44:35Z</time>
<desc>lat.=55.666206, lon.=26.516827, Alt.=155.107544m. Speed=14.256000m/h.</desc>
<speed>3.960000</speed>
</trkpt>
<trkpt lat="55.666195" lon="26.516882">
<ele>154.666138</ele>
<time>2010-07-18T10:44:36Z</time>
<desc>lat.=55.666195, lon.=26.516882, Alt.=154.666138m. Speed=13.284000m/h.</desc>
<speed>3.690000</speed>
</trkpt>
<trkpt lat="55.666183" lon="26.516937">
<ele>154.634888</ele>
<time>2010-07-18T10:44:37Z</time>
<desc>lat.=55.666183, lon.=26.516937, Alt.=154.634888m. Speed=12.852000m/h.</desc>
<speed>3.570000</speed>
</trkpt>
<trkpt lat="55.666176" lon="26.516994">
<ele>154.482544</ele>
<time>2010-07-18T10:44:38Z</time>
<desc>lat.=55.666176, lon.=26.516994, Alt.=154.482544m. Speed=13.104000m/h.</desc>
<speed>3.640000</speed>
</trkpt>
<trkpt lat="55.666161" lon="26.517048">
<ele>154.556763</ele>
<time>2010-07-18T10:44:39Z</time>
<desc>lat.=55.666161, lon.=26.517048, Alt.=154.556763m. Speed=13.896000m/h.</desc>
<speed>3.860000</speed>
</trkpt>
<trkpt lat="55.666149" lon="26.517107">
<ele>154.455200</ele>
<time>2010-07-18T10:44:40Z</time>
<desc>lat.=55.666149, lon.=26.517107, Alt.=154.455200m. Speed=14.256000m/h.</desc>
<speed>3.960000</speed>
</trkpt>
<trkpt lat="55.666138" lon="26.517164">
<ele>154.326294</ele>
<time>2010-07-18T10:44:41Z</time>
<desc>lat.=55.666138, lon.=26.517164, Alt.=154.326294m. Speed=14.724000m/h.</desc>
<speed>4.090000</speed>
</trkpt>
<trkpt lat="55.666126" lon="26.517225">
<ele>154.404419</ele>
<time>2010-07-18T10:44:42Z</time>
<desc>lat.=55.666126, lon.=26.517225, Alt.=154.404419m. Speed=14.796000m/h.</desc>
<speed>4.110000</speed>
</trkpt>
<trkpt lat="55.666115" lon="26.517290">
<ele>154.560669</ele>
<time>2010-07-18T10:44:43Z</time>
<desc>lat.=55.666115, lon.=26.517290, Alt.=154.560669m. Speed=15.588000m/h.</desc>
<speed>4.330000</speed>
</trkpt>
<trkpt lat="55.666100" lon="26.517355">
<ele>154.834106</ele>
<time>2010-07-18T10:44:44Z</time>
<desc>lat.=55.666100, lon.=26.517355, Alt.=154.834106m. Speed=16.020000m/h.</desc>
<speed>4.450000</speed>
</trkpt>
<trkpt lat="55.666092" lon="26.517418">
<ele>155.377075</ele>
<time>2010-07-18T10:44:45Z</time>
<desc>lat.=55.666092, lon.=26.517418, Alt.=155.377075m. Speed=14.508000m/h.</desc>
<speed>4.030000</speed>
</trkpt>
<trkpt lat="55.666080" lon="26.517483">
<ele>155.103638</ele>
<time>2010-07-18T10:44:46Z</time>
<desc>lat.=55.666080, lon.=26.517483, Alt.=155.103638m. Speed=15.840000m/h.</desc>
<speed>4.400000</speed>
</trkpt>
<trkpt lat="55.666069" lon="26.517551">
<ele>155.080200</ele>
<time>2010-07-18T10:44:47Z</time>
<desc>lat.=55.666069, lon.=26.517551, Alt.=155.080200m. Speed=16.236000m/h.</desc>
<speed>4.510000</speed>
</trkpt>
<trkpt lat="55.666058" lon="26.517624">
<ele>155.349731</ele>
<time>2010-07-18T10:44:48Z</time>
<desc>lat.=55.666058, lon.=26.517624, Alt.=155.349731m. Speed=16.452000m/h.</desc>
<speed>4.570000</speed>
</trkpt>
<trkpt lat="55.666046" lon="26.517693">
<ele>155.084106</ele>
<time>2010-07-18T10:44:49Z</time>
<desc>lat.=55.666046, lon.=26.517693, Alt.=155.084106m. Speed=16.559999m/h.</desc>
<speed>4.600000</speed>
</trkpt>
<trkpt lat="55.666035" lon="26.517765">
<ele>154.931763</ele>
<time>2010-07-18T10:44:50Z</time>
<desc>lat.=55.666035, lon.=26.517765, Alt.=154.931763m. Speed=16.596001m/h.</desc>
<speed>4.610000</speed>
</trkpt>
<trkpt lat="55.666023" lon="26.517838">
<ele>155.213013</ele>
<time>2010-07-18T10:44:51Z</time>
<desc>lat.=55.666023, lon.=26.517838, Alt.=155.213013m. Speed=16.632000m/h.</desc>
<speed>4.620000</speed>
</trkpt>
<trkpt lat="55.666012" lon="26.517904">
<ele>155.173950</ele>
<time>2010-07-18T10:44:52Z</time>
<desc>lat.=55.666012, lon.=26.517904, Alt.=155.173950m. Speed=15.768000m/h.</desc>
<speed>4.380000</speed>
</trkpt>
<trkpt lat="55.666004" lon="26.517975">
<ele>155.498169</ele>
<time>2010-07-18T10:44:53Z</time>
<desc>lat.=55.666004, lon.=26.517975, Alt.=155.498169m. Speed=14.868000m/h.</desc>
<speed>4.130000</speed>
</trkpt>
<trkpt lat="55.665993" lon="26.518042">
<ele>155.412231</ele>
<time>2010-07-18T10:44:54Z</time>
<desc>lat.=55.665993, lon.=26.518042, Alt.=155.412231m. Speed=14.940000m/h.</desc>
<speed>4.150000</speed>
</trkpt>
<trkpt lat="55.665985" lon="26.518106">
<ele>155.455200</ele>
<time>2010-07-18T10:44:55Z</time>
<desc>lat.=55.665985, lon.=26.518106, Alt.=155.455200m. Speed=15.156000m/h.</desc>
<speed>4.210000</speed>
</trkpt>
<trkpt lat="55.665974" lon="26.518171">
<ele>155.244263</ele>
<time>2010-07-18T10:44:56Z</time>
<desc>lat.=55.665974, lon.=26.518171, Alt.=155.244263m. Speed=15.444000m/h.</desc>
<speed>4.290000</speed>
</trkpt>
<trkpt lat="55.665962" lon="26.518236">
<ele>155.177856</ele>
<time>2010-07-18T10:44:57Z</time>
<desc>lat.=55.665962, lon.=26.518236, Alt.=155.177856m. Speed=15.120000m/h.</desc>
<speed>4.200000</speed>
</trkpt>
<trkpt lat="55.665955" lon="26.518299">
<ele>155.115356</ele>
<time>2010-07-18T10:44:58Z</time>
<desc>lat.=55.665955, lon.=26.518299, Alt.=155.115356m. Speed=14.832000m/h.</desc>
<speed>4.120000</speed>
</trkpt>
<trkpt lat="55.665947" lon="26.518366">
<ele>155.275513</ele>
<time>2010-07-18T10:44:59Z</time>
<desc>lat.=55.665947, lon.=26.518366, Alt.=155.275513m. Speed=14.508000m/h.</desc>
<speed>4.030000</speed>
</trkpt>
<trkpt lat="55.665932" lon="26.518429">
<ele>155.088013</ele>
<time>2010-07-18T10:45:00Z</time>
<desc>lat.=55.665932, lon.=26.518429, Alt.=155.088013m. Speed=14.832000m/h.</desc>
<speed>4.120000</speed>
</trkpt>
<trkpt lat="55.665924" lon="26.518488">
<ele>154.994263</ele>
<time>2010-07-18T10:45:01Z</time>
<desc>lat.=55.665924, lon.=26.518488, Alt.=154.994263m. Speed=14.436000m/h.</desc>
<speed>4.010000</speed>
</trkpt>
<trkpt lat="55.665916" lon="26.518549">
<ele>155.130981</ele>
<time>2010-07-18T10:45:02Z</time>
<desc>lat.=55.665916, lon.=26.518549, Alt.=155.130981m. Speed=13.932000m/h.</desc>
<speed>3.870000</speed>
</trkpt>
<trkpt lat="55.665909" lon="26.518608">
<ele>155.314575</ele>
<time>2010-07-18T10:45:03Z</time>
<desc>lat.=55.665909, lon.=26.518608, Alt.=155.314575m. Speed=14.112000m/h.</desc>
<speed>3.920000</speed>
</trkpt>
<trkpt lat="55.665901" lon="26.518667">
<ele>155.377075</ele>
<time>2010-07-18T10:45:04Z</time>
<desc>lat.=55.665901, lon.=26.518667, Alt.=155.377075m. Speed=13.968000m/h.</desc>
<speed>3.880000</speed>
</trkpt>
<trkpt lat="55.665894" lon="26.518724">
<ele>155.412231</ele>
<time>2010-07-18T10:45:05Z</time>
<desc>lat.=55.665894, lon.=26.518724, Alt.=155.412231m. Speed=13.608000m/h.</desc>
<speed>3.780000</speed>
</trkpt>
<trkpt lat="55.665886" lon="26.518778">
<ele>155.423950</ele>
<time>2010-07-18T10:45:06Z</time>
<desc>lat.=55.665886, lon.=26.518778, Alt.=155.423950m. Speed=13.824000m/h.</desc>
<speed>3.840000</speed>
</trkpt>
<trkpt lat="55.665874" lon="26.518831">
<ele>155.556763</ele>
<time>2010-07-18T10:45:07Z</time>
<desc>lat.=55.665874, lon.=26.518831, Alt.=155.556763m. Speed=13.752000m/h.</desc>
<speed>3.820000</speed>
</trkpt>
<trkpt lat="55.665863" lon="26.518890">
<ele>155.677856</ele>
<time>2010-07-18T10:45:08Z</time>
<desc>lat.=55.665863, lon.=26.518890, Alt.=155.677856m. Speed=14.004000m/h.</desc>
<speed>3.890000</speed>
</trkpt>
<trkpt lat="55.665855" lon="26.518951">
<ele>155.662231</ele>
<time>2010-07-18T10:45:09Z</time>
<desc>lat.=55.665855, lon.=26.518951, Alt.=155.662231m. Speed=13.608000m/h.</desc>
<speed>3.780000</speed>
</trkpt>
<trkpt lat="55.665848" lon="26.519011">
<ele>155.920044</ele>
<time>2010-07-18T10:45:10Z</time>
<desc>lat.=55.665848, lon.=26.519011, Alt.=155.920044m. Speed=14.328000m/h.</desc>
<speed>3.980000</speed>
</trkpt>
<trkpt lat="55.665844" lon="26.519068">
<ele>156.158325</ele>
<time>2010-07-18T10:45:11Z</time>
<desc>lat.=55.665844, lon.=26.519068, Alt.=156.158325m. Speed=14.292000m/h.</desc>
<speed>3.970000</speed>
</trkpt>
<trkpt lat="55.665840" lon="26.519136">
<ele>156.228638</ele>
<time>2010-07-18T10:45:12Z</time>
<desc>lat.=55.665840, lon.=26.519136, Alt.=156.228638m. Speed=14.688000m/h.</desc>
<speed>4.080000</speed>
</trkpt>
<trkpt lat="55.665829" lon="26.519199">
<ele>156.416138</ele>
<time>2010-07-18T10:45:13Z</time>
<desc>lat.=55.665829, lon.=26.519199, Alt.=156.416138m. Speed=14.472000m/h.</desc>
<speed>4.020000</speed>
</trkpt>
<trkpt lat="55.665817" lon="26.519262">
<ele>156.545044</ele>
<time>2010-07-18T10:45:14Z</time>
<desc>lat.=55.665817, lon.=26.519262, Alt.=156.545044m. Speed=15.624000m/h.</desc>
<speed>4.340000</speed>
</trkpt>
<trkpt lat="55.665810" lon="26.519333">
<ele>156.627075</ele>
<time>2010-07-18T10:45:15Z</time>
<desc>lat.=55.665810, lon.=26.519333, Alt.=156.627075m. Speed=15.984000m/h.</desc>
<speed>4.440000</speed>
</trkpt>
<trkpt lat="55.665802" lon="26.519405">
<ele>156.720825</ele>
<time>2010-07-18T10:45:16Z</time>
<desc>lat.=55.665802, lon.=26.519405, Alt.=156.720825m. Speed=16.236000m/h.</desc>
<speed>4.510000</speed>
</trkpt>
<trkpt lat="55.665787" lon="26.519474">
<ele>156.814575</ele>
<time>2010-07-18T10:45:17Z</time>
<desc>lat.=55.665787, lon.=26.519474, Alt.=156.814575m. Speed=16.308001m/h.</desc>
<speed>4.530000</speed>
</trkpt>
<trkpt lat="55.665779" lon="26.519543">
<ele>157.068481</ele>
<time>2010-07-18T10:45:18Z</time>
<desc>lat.=55.665779, lon.=26.519543, Alt.=157.068481m. Speed=15.444000m/h.</desc>
<speed>4.290000</speed>
</trkpt>
<trkpt lat="55.665768" lon="26.519608">
<ele>155.865356</ele>
<time>2010-07-18T10:45:19Z</time>
<desc>lat.=55.665768, lon.=26.519608, Alt.=155.865356m. Speed=14.976000m/h.</desc>
<speed>4.160000</speed>
</trkpt>
<trkpt lat="55.665756" lon="26.519674">
<ele>155.490356</ele>
<time>2010-07-18T10:45:20Z</time>
<desc>lat.=55.665756, lon.=26.519674, Alt.=155.490356m. Speed=16.596001m/h.</desc>
<speed>4.610000</speed>
</trkpt>
<trkpt lat="55.665745" lon="26.519751">
<ele>155.173950</ele>
<time>2010-07-18T10:45:21Z</time>
<desc>lat.=55.665745, lon.=26.519751, Alt.=155.173950m. Speed=16.812000m/h.</desc>
<speed>4.670000</speed>
</trkpt>
<trkpt lat="55.665741" lon="26.519817">
<ele>156.791138</ele>
<time>2010-07-18T10:45:22Z</time>
<desc>lat.=55.665741, lon.=26.519817, Alt.=156.791138m. Speed=14.832000m/h.</desc>
<speed>4.120000</speed>
</trkpt>
<trkpt lat="55.665730" lon="26.519894">
<ele>156.568481</ele>
<time>2010-07-18T10:45:23Z</time>
<desc>lat.=55.665730, lon.=26.519894, Alt.=156.568481m. Speed=18.468000m/h.</desc>
<speed>5.130000</speed>
</trkpt>
<trkpt lat="55.665710" lon="26.519972">
<ele>155.302856</ele>
<time>2010-07-18T10:45:24Z</time>
<desc>lat.=55.665710, lon.=26.519972, Alt.=155.302856m. Speed=19.476000m/h.</desc>
<speed>5.410000</speed>
</trkpt>
<trkpt lat="55.665695" lon="26.520056">
<ele>154.693481</ele>
<time>2010-07-18T10:45:25Z</time>
<desc>lat.=55.665695, lon.=26.520056, Alt.=154.693481m. Speed=20.052000m/h.</desc>
<speed>5.570000</speed>
</trkpt>
<trkpt lat="55.665688" lon="26.520145">
<ele>154.369263</ele>
<time>2010-07-18T10:45:26Z</time>
<desc>lat.=55.665688, lon.=26.520145, Alt.=154.369263m. Speed=20.808001m/h.</desc>
<speed>5.780000</speed>
</trkpt>
<trkpt lat="55.665676" lon="26.520237">
<ele>153.947388</ele>
<time>2010-07-18T10:45:27Z</time>
<desc>lat.=55.665676, lon.=26.520237, Alt.=153.947388m. Speed=21.348000m/h.</desc>
<speed>5.930000</speed>
</trkpt>
<trkpt lat="55.665661" lon="26.520329">
<ele>153.654419</ele>
<time>2010-07-18T10:45:28Z</time>
<desc>lat.=55.665661, lon.=26.520329, Alt.=153.654419m. Speed=22.068001m/h.</desc>
<speed>6.130000</speed>
</trkpt>
<trkpt lat="55.665642" lon="26.520428">
<ele>153.525513</ele>
<time>2010-07-18T10:45:29Z</time>
<desc>lat.=55.665642, lon.=26.520428, Alt.=153.525513m. Speed=22.608000m/h.</desc>
<speed>6.280000</speed>
</trkpt>
<trkpt lat="55.665627" lon="26.520527">
<ele>153.224731</ele>
<time>2010-07-18T10:45:30Z</time>
<desc>lat.=55.665627, lon.=26.520527, Alt.=153.224731m. Speed=23.148001m/h.</desc>
<speed>6.430000</speed>
</trkpt>
<trkpt lat="55.665615" lon="26.520630">
<ele>152.912231</ele>
<time>2010-07-18T10:45:31Z</time>
<desc>lat.=55.665615, lon.=26.520630, Alt.=152.912231m. Speed=23.364000m/h.</desc>
<speed>6.490000</speed>
</trkpt>
<trkpt lat="55.665607" lon="26.520733">
<ele>152.568481</ele>
<time>2010-07-18T10:45:32Z</time>
<desc>lat.=55.665607, lon.=26.520733, Alt.=152.568481m. Speed=23.615999m/h.</desc>
<speed>6.560000</speed>
</trkpt>
<trkpt lat="55.665592" lon="26.520832">
<ele>152.181763</ele>
<time>2010-07-18T10:45:33Z</time>
<desc>lat.=55.665592, lon.=26.520832, Alt.=152.181763m. Speed=23.796000m/h.</desc>
<speed>6.610000</speed>
</trkpt>
<trkpt lat="55.665577" lon="26.520933">
<ele>151.666138</ele>
<time>2010-07-18T10:45:34Z</time>
<desc>lat.=55.665577, lon.=26.520933, Alt.=151.666138m. Speed=23.436001m/h.</desc>
<speed>6.510000</speed>
</trkpt>
<trkpt lat="55.665562" lon="26.521034">
<ele>151.380981</ele>
<time>2010-07-18T10:45:35Z</time>
<desc>lat.=55.665562, lon.=26.521034, Alt.=151.380981m. Speed=23.327999m/h.</desc>
<speed>6.480000</speed>
</trkpt>
<trkpt lat="55.665550" lon="26.521135">
<ele>151.205200</ele>
<time>2010-07-18T10:45:36Z</time>
<desc>lat.=55.665550, lon.=26.521135, Alt.=151.205200m. Speed=23.040001m/h.</desc>
<speed>6.400000</speed>
</trkpt>
<trkpt lat="55.665535" lon="26.521233">
<ele>150.974731</ele>
<time>2010-07-18T10:45:37Z</time>
<desc>lat.=55.665535, lon.=26.521233, Alt.=150.974731m. Speed=22.427999m/h.</desc>
<speed>6.230000</speed>
</trkpt>
<trkpt lat="55.665520" lon="26.521328">
<ele>150.943481</ele>
<time>2010-07-18T10:45:38Z</time>
<desc>lat.=55.665520, lon.=26.521328, Alt.=150.943481m. Speed=22.139999m/h.</desc>
<speed>6.150000</speed>
</trkpt>
<trkpt lat="55.665508" lon="26.521420">
<ele>150.779419</ele>
<time>2010-07-18T10:45:39Z</time>
<desc>lat.=55.665508, lon.=26.521420, Alt.=150.779419m. Speed=22.823999m/h.</desc>
<speed>6.340000</speed>
</trkpt>
<trkpt lat="55.665497" lon="26.521515">
<ele>150.658325</ele>
<time>2010-07-18T10:45:40Z</time>
<desc>lat.=55.665497, lon.=26.521515, Alt.=150.658325m. Speed=23.580000m/h.</desc>
<speed>6.550000</speed>
</trkpt>
<trkpt lat="55.665485" lon="26.521614">
<ele>150.502075</ele>
<time>2010-07-18T10:45:41Z</time>
<desc>lat.=55.665485, lon.=26.521614, Alt.=150.502075m. Speed=23.184000m/h.</desc>
<speed>6.440000</speed>
</trkpt>
<trkpt lat="55.665474" lon="26.521715">
<ele>150.373169</ele>
<time>2010-07-18T10:45:42Z</time>
<desc>lat.=55.665474, lon.=26.521715, Alt.=150.373169m. Speed=23.472000m/h.</desc>
<speed>6.520000</speed>
</trkpt>
<trkpt lat="55.665462" lon="26.521807">
<ele>149.927856</ele>
<time>2010-07-18T10:45:43Z</time>
<desc>lat.=55.665462, lon.=26.521807, Alt.=149.927856m. Speed=23.112000m/h.</desc>
<speed>6.420000</speed>
</trkpt>
<trkpt lat="55.665451" lon="26.521898">
<ele>149.947388</ele>
<time>2010-07-18T10:45:44Z</time>
<desc>lat.=55.665451, lon.=26.521898, Alt.=149.947388m. Speed=22.032000m/h.</desc>
<speed>6.120000</speed>
</trkpt>
<trkpt lat="55.665440" lon="26.521992">
<ele>149.912231</ele>
<time>2010-07-18T10:45:45Z</time>
<desc>lat.=55.665440, lon.=26.521992, Alt.=149.912231m. Speed=20.952000m/h.</desc>
<speed>5.820000</speed>
</trkpt>
<trkpt lat="55.665428" lon="26.522079">
<ele>149.888794</ele>
<time>2010-07-18T10:45:46Z</time>
<desc>lat.=55.665428, lon.=26.522079, Alt.=149.888794m. Speed=20.375999m/h.</desc>
<speed>5.660000</speed>
</trkpt>
<trkpt lat="55.665421" lon="26.522171">
<ele>150.154419</ele>
<time>2010-07-18T10:45:47Z</time>
<desc>lat.=55.665421, lon.=26.522171, Alt.=150.154419m. Speed=20.160000m/h.</desc>
<speed>5.600000</speed>
</trkpt>
<trkpt lat="55.665409" lon="26.522263">
<ele>150.349731</ele>
<time>2010-07-18T10:45:48Z</time>
<desc>lat.=55.665409, lon.=26.522263, Alt.=150.349731m. Speed=20.304001m/h.</desc>
<speed>5.640000</speed>
</trkpt>
<trkpt lat="55.665401" lon="26.522346">
<ele>150.365356</ele>
<time>2010-07-18T10:45:49Z</time>
<desc>lat.=55.665401, lon.=26.522346, Alt.=150.365356m. Speed=19.188000m/h.</desc>
<speed>5.330000</speed>
</trkpt>
<trkpt lat="55.665394" lon="26.522425">
<ele>150.341919</ele>
<time>2010-07-18T10:45:50Z</time>
<desc>lat.=55.665394, lon.=26.522425, Alt.=150.341919m. Speed=18.431999m/h.</desc>
<speed>5.120000</speed>
</trkpt>
<trkpt lat="55.665386" lon="26.522501">
<ele>150.400513</ele>
<time>2010-07-18T10:45:51Z</time>
<desc>lat.=55.665386, lon.=26.522501, Alt.=150.400513m. Speed=18.360001m/h.</desc>
<speed>5.100000</speed>
</trkpt>
<trkpt lat="55.665375" lon="26.522579">
<ele>150.548950</ele>
<time>2010-07-18T10:45:52Z</time>
<desc>lat.=55.665375, lon.=26.522579, Alt.=150.548950m. Speed=18.072001m/h.</desc>
<speed>5.020000</speed>
</trkpt>
<trkpt lat="55.665371" lon="26.522655">
<ele>150.541138</ele>
<time>2010-07-18T10:45:53Z</time>
<desc>lat.=55.665371, lon.=26.522655, Alt.=150.541138m. Speed=17.892000m/h.</desc>
<speed>4.970000</speed>
</trkpt>
<trkpt lat="55.665363" lon="26.522734">
<ele>150.595825</ele>
<time>2010-07-18T10:45:54Z</time>
<desc>lat.=55.665363, lon.=26.522734, Alt.=150.595825m. Speed=17.747999m/h.</desc>
<speed>4.930000</speed>
</trkpt>
<trkpt lat="55.665352" lon="26.522810">
<ele>150.564575</ele>
<time>2010-07-18T10:45:55Z</time>
<desc>lat.=55.665352, lon.=26.522810, Alt.=150.564575m. Speed=18.000000m/h.</desc>
<speed>5.000000</speed>
</trkpt>
<trkpt lat="55.665340" lon="26.522886">
<ele>150.463013</ele>
<time>2010-07-18T10:45:56Z</time>
<desc>lat.=55.665340, lon.=26.522886, Alt.=150.463013m. Speed=18.180000m/h.</desc>
<speed>5.050000</speed>
</trkpt>
<trkpt lat="55.665329" lon="26.522966">
<ele>150.263794</ele>
<time>2010-07-18T10:45:57Z</time>
<desc>lat.=55.665329, lon.=26.522966, Alt.=150.263794m. Speed=17.820000m/h.</desc>
<speed>4.950000</speed>
</trkpt>
<trkpt lat="55.665321" lon="26.523045">
<ele>150.228638</ele>
<time>2010-07-18T10:45:58Z</time>
<desc>lat.=55.665321, lon.=26.523045, Alt.=150.228638m. Speed=17.568001m/h.</desc>
<speed>4.880000</speed>
</trkpt>
<trkpt lat="55.665314" lon="26.523121">
<ele>150.314575</ele>
<time>2010-07-18T10:45:59Z</time>
<desc>lat.=55.665314, lon.=26.523121, Alt.=150.314575m. Speed=17.100000m/h.</desc>
<speed>4.750000</speed>
</trkpt>
<trkpt lat="55.665306" lon="26.523193">
<ele>150.353638</ele>
<time>2010-07-18T10:46:00Z</time>
<desc>lat.=55.665306, lon.=26.523193, Alt.=150.353638m. Speed=17.351999m/h.</desc>
<speed>4.820000</speed>
</trkpt>
<trkpt lat="55.665295" lon="26.523268">
<ele>150.252075</ele>
<time>2010-07-18T10:46:01Z</time>
<desc>lat.=55.665295, lon.=26.523268, Alt.=150.252075m. Speed=17.063999m/h.</desc>
<speed>4.740000</speed>
</trkpt>
<trkpt lat="55.665287" lon="26.523346">
<ele>150.158325</ele>
<time>2010-07-18T10:46:02Z</time>
<desc>lat.=55.665287, lon.=26.523346, Alt.=150.158325m. Speed=18.216000m/h.</desc>
<speed>5.060000</speed>
</trkpt>
<trkpt lat="55.665276" lon="26.523426">
<ele>149.963013</ele>
<time>2010-07-18T10:46:03Z</time>
<desc>lat.=55.665276, lon.=26.523426, Alt.=149.963013m. Speed=18.288000m/h.</desc>
<speed>5.080000</speed>
</trkpt>
<trkpt lat="55.665268" lon="26.523504">
<ele>149.857544</ele>
<time>2010-07-18T10:46:04Z</time>
<desc>lat.=55.665268, lon.=26.523504, Alt.=149.857544m. Speed=18.252001m/h.</desc>
<speed>5.070000</speed>
</trkpt>
<trkpt lat="55.665257" lon="26.523588">
<ele>149.951294</ele>
<time>2010-07-18T10:46:05Z</time>
<desc>lat.=55.665257, lon.=26.523588, Alt.=149.951294m. Speed=18.540001m/h.</desc>
<speed>5.150000</speed>
</trkpt>
<trkpt lat="55.665245" lon="26.523676">
<ele>150.142700</ele>
<time>2010-07-18T10:46:06Z</time>
<desc>lat.=55.665245, lon.=26.523676, Alt.=150.142700m. Speed=18.648001m/h.</desc>
<speed>5.180000</speed>
</trkpt>
<trkpt lat="55.665237" lon="26.523758">
<ele>150.127075</ele>
<time>2010-07-18T10:46:07Z</time>
<desc>lat.=55.665237, lon.=26.523758, Alt.=150.127075m. Speed=19.260000m/h.</desc>
<speed>5.350000</speed>
</trkpt>
<trkpt lat="55.665230" lon="26.523846">
<ele>150.193481</ele>
<time>2010-07-18T10:46:08Z</time>
<desc>lat.=55.665230, lon.=26.523846, Alt.=150.193481m. Speed=20.232000m/h.</desc>
<speed>5.620000</speed>
</trkpt>
<trkpt lat="55.665226" lon="26.523941">
<ele>150.119263</ele>
<time>2010-07-18T10:46:09Z</time>
<desc>lat.=55.665226, lon.=26.523941, Alt.=150.119263m. Speed=20.844000m/h.</desc>
<speed>5.790000</speed>
</trkpt>
<trkpt lat="55.665226" lon="26.524042">
<ele>150.091919</ele>
<time>2010-07-18T10:46:10Z</time>
<desc>lat.=55.665226, lon.=26.524042, Alt.=150.091919m. Speed=21.743999m/h.</desc>
<speed>6.040000</speed>
</trkpt>
<trkpt lat="55.665218" lon="26.524137">
<ele>149.658325</ele>
<time>2010-07-18T10:46:11Z</time>
<desc>lat.=55.665218, lon.=26.524137, Alt.=149.658325m. Speed=22.320000m/h.</desc>
<speed>6.200000</speed>
</trkpt>
<trkpt lat="55.665218" lon="26.524237">
<ele>149.525513</ele>
<time>2010-07-18T10:46:12Z</time>
<desc>lat.=55.665218, lon.=26.524237, Alt.=149.525513m. Speed=22.788000m/h.</desc>
<speed>6.330000</speed>
</trkpt>
<trkpt lat="55.665211" lon="26.524340">
<ele>149.306763</ele>
<time>2010-07-18T10:46:13Z</time>
<desc>lat.=55.665211, lon.=26.524340, Alt.=149.306763m. Speed=22.860001m/h.</desc>
<speed>6.350000</speed>
</trkpt>
<trkpt lat="55.665207" lon="26.524437">
<ele>148.572388</ele>
<time>2010-07-18T10:46:14Z</time>
<desc>lat.=55.665207, lon.=26.524437, Alt.=148.572388m. Speed=23.940001m/h.</desc>
<speed>6.650000</speed>
</trkpt>
<trkpt lat="55.665207" lon="26.524549">
<ele>148.291138</ele>
<time>2010-07-18T10:46:15Z</time>
<desc>lat.=55.665207, lon.=26.524549, Alt.=148.291138m. Speed=25.955999m/h.</desc>
<speed>7.210000</speed>
</trkpt>
<trkpt lat="55.665199" lon="26.524662">
<ele>147.689575</ele>
<time>2010-07-18T10:46:16Z</time>
<desc>lat.=55.665199, lon.=26.524662, Alt.=147.689575m. Speed=26.316000m/h.</desc>
<speed>7.310000</speed>
</trkpt>
<trkpt lat="55.665195" lon="26.524776">
<ele>146.838013</ele>
<time>2010-07-18T10:46:17Z</time>
<desc>lat.=55.665195, lon.=26.524776, Alt.=146.838013m. Speed=27.143999m/h.</desc>
<speed>7.540000</speed>
</trkpt>
<trkpt lat="55.665188" lon="26.524889">
<ele>145.916138</ele>
<time>2010-07-18T10:46:18Z</time>
<desc>lat.=55.665188, lon.=26.524889, Alt.=145.916138m. Speed=28.260000m/h.</desc>
<speed>7.850000</speed>
</trkpt>
<trkpt lat="55.665180" lon="26.525015">
<ele>145.556763</ele>
<time>2010-07-18T10:46:19Z</time>
<desc>lat.=55.665180, lon.=26.525015, Alt.=145.556763m. Speed=28.476000m/h.</desc>
<speed>7.910000</speed>
</trkpt>
<trkpt lat="55.665180" lon="26.525143">
<ele>145.474731</ele>
<time>2010-07-18T10:46:20Z</time>
<desc>lat.=55.665180, lon.=26.525143, Alt.=145.474731m. Speed=28.728001m/h.</desc>
<speed>7.980000</speed>
</trkpt>
<trkpt lat="55.665180" lon="26.525274">
<ele>145.373169</ele>
<time>2010-07-18T10:46:21Z</time>
<desc>lat.=55.665180, lon.=26.525274, Alt.=145.373169m. Speed=29.160000m/h.</desc>
<speed>8.100000</speed>
</trkpt>
<trkpt lat="55.665180" lon="26.525398">
<ele>145.134888</ele>
<time>2010-07-18T10:46:22Z</time>
<desc>lat.=55.665180, lon.=26.525398, Alt.=145.134888m. Speed=28.980000m/h.</desc>
<speed>8.050000</speed>
</trkpt>
<trkpt lat="55.665173" lon="26.525530">
<ele>145.072388</ele>
<time>2010-07-18T10:46:23Z</time>
<desc>lat.=55.665173, lon.=26.525530, Alt.=145.072388m. Speed=28.980000m/h.</desc>
<speed>8.050000</speed>
</trkpt>
<trkpt lat="55.665173" lon="26.525661">
<ele>145.213013</ele>
<time>2010-07-18T10:46:24Z</time>
<desc>lat.=55.665173, lon.=26.525661, Alt.=145.213013m. Speed=29.448000m/h.</desc>
<speed>8.180000</speed>
</trkpt>
<trkpt lat="55.665173" lon="26.525791">
<ele>145.380981</ele>
<time>2010-07-18T10:46:25Z</time>
<desc>lat.=55.665173, lon.=26.525791, Alt.=145.380981m. Speed=29.879999m/h.</desc>
<speed>8.300000</speed>
</trkpt>
<trkpt lat="55.665165" lon="26.525917">
<ele>145.291138</ele>
<time>2010-07-18T10:46:26Z</time>
<desc>lat.=55.665165, lon.=26.525917, Alt.=145.291138m. Speed=29.375999m/h.</desc>
<speed>8.160000</speed>
</trkpt>
<trkpt lat="55.665165" lon="26.526047">
<ele>145.166138</ele>
<time>2010-07-18T10:46:27Z</time>
<desc>lat.=55.665165, lon.=26.526047, Alt.=145.166138m. Speed=28.403999m/h.</desc>
<speed>7.890000</speed>
</trkpt>
<trkpt lat="55.665157" lon="26.526175">
<ele>144.974731</ele>
<time>2010-07-18T10:46:28Z</time>
<desc>lat.=55.665157, lon.=26.526175, Alt.=144.974731m. Speed=28.224001m/h.</desc>
<speed>7.840000</speed>
</trkpt>
<trkpt lat="55.665154" lon="26.526297">
<ele>145.060669</ele>
<time>2010-07-18T10:46:29Z</time>
<desc>lat.=55.665154, lon.=26.526297, Alt.=145.060669m. Speed=27.684000m/h.</desc>
<speed>7.690000</speed>
</trkpt>
<trkpt lat="55.665146" lon="26.526417">
<ele>144.392700</ele>
<time>2010-07-18T10:46:30Z</time>
<desc>lat.=55.665146, lon.=26.526417, Alt.=144.392700m. Speed=27.612000m/h.</desc>
<speed>7.670000</speed>
</trkpt>
<trkpt lat="55.665142" lon="26.526537">
<ele>144.197388</ele>
<time>2010-07-18T10:46:31Z</time>
<desc>lat.=55.665142, lon.=26.526537, Alt.=144.197388m. Speed=28.332001m/h.</desc>
<speed>7.870000</speed>
</trkpt>
<trkpt lat="55.665134" lon="26.526661">
<ele>143.318481</ele>
<time>2010-07-18T10:46:32Z</time>
<desc>lat.=55.665134, lon.=26.526661, Alt.=143.318481m. Speed=29.052000m/h.</desc>
<speed>8.070000</speed>
</trkpt>
<trkpt lat="55.665131" lon="26.526781">
<ele>142.533325</ele>
<time>2010-07-18T10:46:33Z</time>
<desc>lat.=55.665131, lon.=26.526781, Alt.=142.533325m. Speed=27.000000m/h.</desc>
<speed>7.500000</speed>
</trkpt>
<trkpt lat="55.665127" lon="26.526897">
<ele>141.798950</ele>
<time>2010-07-18T10:46:34Z</time>
<desc>lat.=55.665127, lon.=26.526897, Alt.=141.798950m. Speed=26.280001m/h.</desc>
<speed>7.300000</speed>
</trkpt>
<trkpt lat="55.665123" lon="26.527016">
<ele>141.650513</ele>
<time>2010-07-18T10:46:35Z</time>
<desc>lat.=55.665123, lon.=26.527016, Alt.=141.650513m. Speed=25.992001m/h.</desc>
<speed>7.220000</speed>
</trkpt>
<trkpt lat="55.665112" lon="26.527126">
<ele>141.005981</ele>
<time>2010-07-18T10:46:36Z</time>
<desc>lat.=55.665112, lon.=26.527126, Alt.=141.005981m. Speed=25.992001m/h.</desc>
<speed>7.220000</speed>
</trkpt>
<trkpt lat="55.665096" lon="26.527229">
<ele>140.330200</ele>
<time>2010-07-18T10:46:37Z</time>
<desc>lat.=55.665096, lon.=26.527229, Alt.=140.330200m. Speed=23.940001m/h.</desc>
<speed>6.650000</speed>
</trkpt>
<trkpt lat="55.665081" lon="26.527332">
<ele>140.193481</ele>
<time>2010-07-18T10:46:38Z</time>
<desc>lat.=55.665081, lon.=26.527332, Alt.=140.193481m. Speed=23.364000m/h.</desc>
<speed>6.490000</speed>
</trkpt>
<trkpt lat="55.665073" lon="26.527441">
<ele>141.244263</ele>
<time>2010-07-18T10:46:39Z</time>
<desc>lat.=55.665073, lon.=26.527441, Alt.=141.244263m. Speed=21.816000m/h.</desc>
<speed>6.060000</speed>
</trkpt>
<trkpt lat="55.665058" lon="26.527536">
<ele>140.810669</ele>
<time>2010-07-18T10:46:40Z</time>
<desc>lat.=55.665058, lon.=26.527536, Alt.=140.810669m. Speed=22.392000m/h.</desc>
<speed>6.220000</speed>
</trkpt>
<trkpt lat="55.665043" lon="26.527634">
<ele>140.658325</ele>
<time>2010-07-18T10:46:41Z</time>
<desc>lat.=55.665043, lon.=26.527634, Alt.=140.658325m. Speed=21.743999m/h.</desc>
<speed>6.040000</speed>
</trkpt>
<trkpt lat="55.665028" lon="26.527735">
<ele>140.670044</ele>
<time>2010-07-18T10:46:42Z</time>
<desc>lat.=55.665028, lon.=26.527735, Alt.=140.670044m. Speed=24.552000m/h.</desc>
<speed>6.820000</speed>
</trkpt>
<trkpt lat="55.665009" lon="26.527840">
<ele>141.552856</ele>
<time>2010-07-18T10:46:43Z</time>
<desc>lat.=55.665009, lon.=26.527840, Alt.=141.552856m. Speed=24.048000m/h.</desc>
<speed>6.680000</speed>
</trkpt>
<trkpt lat="55.664982" lon="26.527929">
<ele>141.935669</ele>
<time>2010-07-18T10:46:44Z</time>
<desc>lat.=55.664982, lon.=26.527929, Alt.=141.935669m. Speed=22.320000m/h.</desc>
<speed>6.200000</speed>
</trkpt>
<trkpt lat="55.664951" lon="26.528011">
<ele>141.697388</ele>
<time>2010-07-18T10:46:45Z</time>
<desc>lat.=55.664951, lon.=26.528011, Alt.=141.697388m. Speed=21.455999m/h.</desc>
<speed>5.960000</speed>
</trkpt>
<trkpt lat="55.664928" lon="26.528091">
<ele>142.209106</ele>
<time>2010-07-18T10:46:46Z</time>
<desc>lat.=55.664928, lon.=26.528091, Alt.=142.209106m. Speed=20.628000m/h.</desc>
<speed>5.730000</speed>
</trkpt>
<trkpt lat="55.664898" lon="26.528172">
<ele>142.627075</ele>
<time>2010-07-18T10:46:47Z</time>
<desc>lat.=55.664898, lon.=26.528172, Alt.=142.627075m. Speed=20.160000m/h.</desc>
<speed>5.600000</speed>
</trkpt>
<trkpt lat="55.664871" lon="26.528252">
<ele>143.607544</ele>
<time>2010-07-18T10:46:48Z</time>
<desc>lat.=55.664871, lon.=26.528252, Alt.=143.607544m. Speed=19.511999m/h.</desc>
<speed>5.420000</speed>
</trkpt>
<trkpt lat="55.664845" lon="26.528316">
<ele>143.654419</ele>
<time>2010-07-18T10:46:49Z</time>
<desc>lat.=55.664845, lon.=26.528316, Alt.=143.654419m. Speed=18.972000m/h.</desc>
<speed>5.270000</speed>
</trkpt>
<trkpt lat="55.664818" lon="26.528391">
<ele>143.713013</ele>
<time>2010-07-18T10:46:50Z</time>
<desc>lat.=55.664818, lon.=26.528391, Alt.=143.713013m. Speed=19.332001m/h.</desc>
<speed>5.370000</speed>
</trkpt>
<trkpt lat="55.664795" lon="26.528471">
<ele>144.349731</ele>
<time>2010-07-18T10:46:51Z</time>
<desc>lat.=55.664795, lon.=26.528471, Alt.=144.349731m. Speed=19.403999m/h.</desc>
<speed>5.390000</speed>
</trkpt>
<trkpt lat="55.664761" lon="26.528543">
<ele>144.177856</ele>
<time>2010-07-18T10:46:52Z</time>
<desc>lat.=55.664761, lon.=26.528543, Alt.=144.177856m. Speed=19.584000m/h.</desc>
<speed>5.440000</speed>
</trkpt>
<trkpt lat="55.664722" lon="26.528618">
<ele>144.490356</ele>
<time>2010-07-18T10:46:53Z</time>
<desc>lat.=55.664722, lon.=26.528618, Alt.=144.490356m. Speed=19.152000m/h.</desc>
<speed>5.320000</speed>
</trkpt>
<trkpt lat="55.664688" lon="26.528696">
<ele>144.271606</ele>
<time>2010-07-18T10:46:54Z</time>
<desc>lat.=55.664688, lon.=26.528696, Alt.=144.271606m. Speed=19.440001m/h.</desc>
<speed>5.400000</speed>
</trkpt>
<trkpt lat="55.664658" lon="26.528776">
<ele>145.158325</ele>
<time>2010-07-18T10:46:55Z</time>
<desc>lat.=55.664658, lon.=26.528776, Alt.=145.158325m. Speed=19.548000m/h.</desc>
<speed>5.430000</speed>
</trkpt>
<trkpt lat="55.664627" lon="26.528854">
<ele>145.295044</ele>
<time>2010-07-18T10:46:56Z</time>
<desc>lat.=55.664627, lon.=26.528854, Alt.=145.295044m. Speed=19.836000m/h.</desc>
<speed>5.510000</speed>
</trkpt>
<trkpt lat="55.664597" lon="26.528927">
<ele>145.189575</ele>
<time>2010-07-18T10:46:57Z</time>
<desc>lat.=55.664597, lon.=26.528927, Alt.=145.189575m. Speed=20.304001m/h.</desc>
<speed>5.640000</speed>
</trkpt>
<trkpt lat="55.664566" lon="26.529001">
<ele>145.216919</ele>
<time>2010-07-18T10:46:58Z</time>
<desc>lat.=55.664566, lon.=26.529001, Alt.=145.216919m. Speed=20.124001m/h.</desc>
<speed>5.590000</speed>
</trkpt>
<trkpt lat="55.664536" lon="26.529081">
<ele>145.888794</ele>
<time>2010-07-18T10:46:59Z</time>
<desc>lat.=55.664536, lon.=26.529081, Alt.=145.888794m. Speed=19.980000m/h.</desc>
<speed>5.550000</speed>
</trkpt>
<trkpt lat="55.664501" lon="26.529165">
<ele>146.748169</ele>
<time>2010-07-18T10:47:00Z</time>
<desc>lat.=55.664501, lon.=26.529165, Alt.=146.748169m. Speed=18.323999m/h.</desc>
<speed>5.090000</speed>
</trkpt>
<trkpt lat="55.664467" lon="26.529238">
<ele>147.255981</ele>
<time>2010-07-18T10:47:01Z</time>
<desc>lat.=55.664467, lon.=26.529238, Alt.=147.255981m. Speed=20.628000m/h.</desc>
<speed>5.730000</speed>
</trkpt>
<trkpt lat="55.664433" lon="26.529305">
<ele>146.716919</ele>
<time>2010-07-18T10:47:02Z</time>
<desc>lat.=55.664433, lon.=26.529305, Alt.=146.716919m. Speed=17.747999m/h.</desc>
<speed>4.930000</speed>
</trkpt>
<trkpt lat="55.664406" lon="26.529373">
<ele>146.787231</ele>
<time>2010-07-18T10:47:03Z</time>
<desc>lat.=55.664406, lon.=26.529373, Alt.=146.787231m. Speed=16.379999m/h.</desc>
<speed>4.550000</speed>
</trkpt>
<trkpt lat="55.664387" lon="26.529434">
<ele>147.013794</ele>
<time>2010-07-18T10:47:04Z</time>
<desc>lat.=55.664387, lon.=26.529434, Alt.=147.013794m. Speed=16.308001m/h.</desc>
<speed>4.530000</speed>
</trkpt>
<trkpt lat="55.664356" lon="26.529491">
<ele>147.099731</ele>
<time>2010-07-18T10:47:05Z</time>
<desc>lat.=55.664356, lon.=26.529491, Alt.=147.099731m. Speed=17.063999m/h.</desc>
<speed>4.740000</speed>
</trkpt>
<trkpt lat="55.664333" lon="26.529551">
<ele>147.224731</ele>
<time>2010-07-18T10:47:06Z</time>
<desc>lat.=55.664333, lon.=26.529551, Alt.=147.224731m. Speed=17.208000m/h.</desc>
<speed>4.780000</speed>
</trkpt>
<trkpt lat="55.664307" lon="26.529612">
<ele>147.353638</ele>
<time>2010-07-18T10:47:07Z</time>
<desc>lat.=55.664307, lon.=26.529612, Alt.=147.353638m. Speed=17.676001m/h.</desc>
<speed>4.910000</speed>
</trkpt>
<trkpt lat="55.664284" lon="26.529669">
<ele>147.287231</ele>
<time>2010-07-18T10:47:08Z</time>
<desc>lat.=55.664284, lon.=26.529669, Alt.=147.287231m. Speed=17.424000m/h.</desc>
<speed>4.840000</speed>
</trkpt>
<trkpt lat="55.664257" lon="26.529732">
<ele>147.787231</ele>
<time>2010-07-18T10:47:09Z</time>
<desc>lat.=55.664257, lon.=26.529732, Alt.=147.787231m. Speed=17.208000m/h.</desc>
<speed>4.780000</speed>
</trkpt>
<trkpt lat="55.664234" lon="26.529789">
<ele>148.013794</ele>
<time>2010-07-18T10:47:10Z</time>
<desc>lat.=55.664234, lon.=26.529789, Alt.=148.013794m. Speed=16.667999m/h.</desc>
<speed>4.630000</speed>
</trkpt>
<trkpt lat="55.664207" lon="26.529844">
<ele>148.498169</ele>
<time>2010-07-18T10:47:11Z</time>
<desc>lat.=55.664207, lon.=26.529844, Alt.=148.498169m. Speed=16.884001m/h.</desc>
<speed>4.690000</speed>
</trkpt>
<trkpt lat="55.664185" lon="26.529905">
<ele>148.806763</ele>
<time>2010-07-18T10:47:12Z</time>
<desc>lat.=55.664185, lon.=26.529905, Alt.=148.806763m. Speed=16.200001m/h.</desc>
<speed>4.500000</speed>
</trkpt>
<trkpt lat="55.664165" lon="26.529964">
<ele>149.005981</ele>
<time>2010-07-18T10:47:13Z</time>
<desc>lat.=55.664165, lon.=26.529964, Alt.=149.005981m. Speed=16.308001m/h.</desc>
<speed>4.530000</speed>
</trkpt>
<trkpt lat="55.664139" lon="26.530022">
<ele>148.935669</ele>
<time>2010-07-18T10:47:14Z</time>
<desc>lat.=55.664139, lon.=26.530022, Alt.=148.935669m. Speed=15.372000m/h.</desc>
<speed>4.270000</speed>
</trkpt>
<trkpt lat="55.664116" lon="26.530073">
<ele>149.005981</ele>
<time>2010-07-18T10:47:15Z</time>
<desc>lat.=55.664116, lon.=26.530073, Alt.=149.005981m. Speed=15.372000m/h.</desc>
<speed>4.270000</speed>
</trkpt>
<trkpt lat="55.664089" lon="26.530125">
<ele>149.236450</ele>
<time>2010-07-18T10:47:16Z</time>
<desc>lat.=55.664089, lon.=26.530125, Alt.=149.236450m. Speed=14.472000m/h.</desc>
<speed>4.020000</speed>
</trkpt>
<trkpt lat="55.664074" lon="26.530176">
<ele>149.568481</ele>
<time>2010-07-18T10:47:17Z</time>
<desc>lat.=55.664074, lon.=26.530176, Alt.=149.568481m. Speed=14.292000m/h.</desc>
<speed>3.970000</speed>
</trkpt>
<trkpt lat="55.664051" lon="26.530239">
<ele>149.802856</ele>
<time>2010-07-18T10:47:18Z</time>
<desc>lat.=55.664051, lon.=26.530239, Alt.=149.802856m. Speed=15.048000m/h.</desc>
<speed>4.180000</speed>
</trkpt>
<trkpt lat="55.664028" lon="26.530291">
<ele>149.443481</ele>
<time>2010-07-18T10:47:19Z</time>
<desc>lat.=55.664028, lon.=26.530291, Alt.=149.443481m. Speed=13.752000m/h.</desc>
<speed>3.820000</speed>
</trkpt>
<trkpt lat="55.664005" lon="26.530346">
<ele>149.595825</ele>
<time>2010-07-18T10:47:20Z</time>
<desc>lat.=55.664005, lon.=26.530346, Alt.=149.595825m. Speed=14.760000m/h.</desc>
<speed>4.100000</speed>
</trkpt>
<trkpt lat="55.663979" lon="26.530407">
<ele>150.056763</ele>
<time>2010-07-18T10:47:21Z</time>
<desc>lat.=55.663979, lon.=26.530407, Alt.=150.056763m. Speed=14.184000m/h.</desc>
<speed>3.940000</speed>
</trkpt>
<trkpt lat="55.663960" lon="26.530466">
<ele>150.435669</ele>
<time>2010-07-18T10:47:22Z</time>
<desc>lat.=55.663960, lon.=26.530466, Alt.=150.435669m. Speed=13.968000m/h.</desc>
<speed>3.880000</speed>
</trkpt>
<trkpt lat="55.663944" lon="26.530519">
<ele>150.841919</ele>
<time>2010-07-18T10:47:23Z</time>
<desc>lat.=55.663944, lon.=26.530519, Alt.=150.841919m. Speed=12.924000m/h.</desc>
<speed>3.590000</speed>
</trkpt>
<trkpt lat="55.663929" lon="26.530569">
<ele>151.021606</ele>
<time>2010-07-18T10:47:24Z</time>
<desc>lat.=55.663929, lon.=26.530569, Alt.=151.021606m. Speed=13.140000m/h.</desc>
<speed>3.650000</speed>
</trkpt>
<trkpt lat="55.663910" lon="26.530617">
<ele>151.091919</ele>
<time>2010-07-18T10:47:25Z</time>
<desc>lat.=55.663910, lon.=26.530617, Alt.=151.091919m. Speed=14.112000m/h.</desc>
<speed>3.920000</speed>
</trkpt>
<trkpt lat="55.663887" lon="26.530668">
<ele>151.138794</ele>
<time>2010-07-18T10:47:26Z</time>
<desc>lat.=55.663887, lon.=26.530668, Alt.=151.138794m. Speed=15.048000m/h.</desc>
<speed>4.180000</speed>
</trkpt>
<trkpt lat="55.663860" lon="26.530720">
<ele>151.326294</ele>
<time>2010-07-18T10:47:27Z</time>
<desc>lat.=55.663860, lon.=26.530720, Alt.=151.326294m. Speed=15.444000m/h.</desc>
<speed>4.290000</speed>
</trkpt>
<trkpt lat="55.663837" lon="26.530767">
<ele>151.353638</ele>
<time>2010-07-18T10:47:28Z</time>
<desc>lat.=55.663837, lon.=26.530767, Alt.=151.353638m. Speed=14.832000m/h.</desc>
<speed>4.120000</speed>
</trkpt>
<trkpt lat="55.663818" lon="26.530815">
<ele>151.365356</ele>
<time>2010-07-18T10:47:29Z</time>
<desc>lat.=55.663818, lon.=26.530815, Alt.=151.365356m. Speed=14.724000m/h.</desc>
<speed>4.090000</speed>
</trkpt>
<trkpt lat="55.663799" lon="26.530865">
<ele>151.298950</ele>
<time>2010-07-18T10:47:30Z</time>
<desc>lat.=55.663799, lon.=26.530865, Alt.=151.298950m. Speed=14.724000m/h.</desc>
<speed>4.090000</speed>
</trkpt>
<trkpt lat="55.663784" lon="26.530920">
<ele>151.412231</ele>
<time>2010-07-18T10:47:31Z</time>
<desc>lat.=55.663784, lon.=26.530920, Alt.=151.412231m. Speed=13.716000m/h.</desc>
<speed>3.810000</speed>
</trkpt>
<trkpt lat="55.663769" lon="26.530970">
<ele>152.205200</ele>
<time>2010-07-18T10:47:32Z</time>
<desc>lat.=55.663769, lon.=26.530970, Alt.=152.205200m. Speed=13.392000m/h.</desc>
<speed>3.720000</speed>
</trkpt>
<trkpt lat="55.663757" lon="26.531015">
<ele>152.505981</ele>
<time>2010-07-18T10:47:33Z</time>
<desc>lat.=55.663757, lon.=26.531015, Alt.=152.505981m. Speed=13.284000m/h.</desc>
<speed>3.690000</speed>
</trkpt>
<trkpt lat="55.663738" lon="26.531061">
<ele>152.685669</ele>
<time>2010-07-18T10:47:34Z</time>
<desc>lat.=55.663738, lon.=26.531061, Alt.=152.685669m. Speed=13.824000m/h.</desc>
<speed>3.840000</speed>
</trkpt>
<trkpt lat="55.663719" lon="26.531113">
<ele>153.037231</ele>
<time>2010-07-18T10:47:35Z</time>
<desc>lat.=55.663719, lon.=26.531113, Alt.=153.037231m. Speed=15.192000m/h.</desc>
<speed>4.220000</speed>
</trkpt>
<trkpt lat="55.663700" lon="26.531176">
<ele>153.197388</ele>
<time>2010-07-18T10:47:36Z</time>
<desc>lat.=55.663700, lon.=26.531176, Alt.=153.197388m. Speed=16.164000m/h.</desc>
<speed>4.490000</speed>
</trkpt>
<trkpt lat="55.663677" lon="26.531240">
<ele>153.029419</ele>
<time>2010-07-18T10:47:37Z</time>
<desc>lat.=55.663677, lon.=26.531240, Alt.=153.029419m. Speed=16.955999m/h.</desc>
<speed>4.710000</speed>
</trkpt>
<trkpt lat="55.663654" lon="26.531301">
<ele>153.205200</ele>
<time>2010-07-18T10:47:38Z</time>
<desc>lat.=55.663654, lon.=26.531301, Alt.=153.205200m. Speed=16.812000m/h.</desc>
<speed>4.670000</speed>
</trkpt>
<trkpt lat="55.663628" lon="26.531355">
<ele>153.267700</ele>
<time>2010-07-18T10:47:39Z</time>
<desc>lat.=55.663628, lon.=26.531355, Alt.=153.267700m. Speed=17.063999m/h.</desc>
<speed>4.740000</speed>
</trkpt>
<trkpt lat="55.663605" lon="26.531424">
<ele>153.396606</ele>
<time>2010-07-18T10:47:40Z</time>
<desc>lat.=55.663605, lon.=26.531424, Alt.=153.396606m. Speed=18.180000m/h.</desc>
<speed>5.050000</speed>
</trkpt>
<trkpt lat="55.663578" lon="26.531487">
<ele>153.377075</ele>
<time>2010-07-18T10:47:41Z</time>
<desc>lat.=55.663578, lon.=26.531487, Alt.=153.377075m. Speed=17.243999m/h.</desc>
<speed>4.790000</speed>
</trkpt>
<trkpt lat="55.663555" lon="26.531549">
<ele>153.279419</ele>
<time>2010-07-18T10:47:42Z</time>
<desc>lat.=55.663555, lon.=26.531549, Alt.=153.279419m. Speed=16.524000m/h.</desc>
<speed>4.590000</speed>
</trkpt>
<trkpt lat="55.663532" lon="26.531609">
<ele>153.548950</ele>
<time>2010-07-18T10:47:43Z</time>
<desc>lat.=55.663532, lon.=26.531609, Alt.=153.548950m. Speed=15.516000m/h.</desc>
<speed>4.310000</speed>
</trkpt>
<trkpt lat="55.663506" lon="26.531662">
<ele>153.713013</ele>
<time>2010-07-18T10:47:44Z</time>
<desc>lat.=55.663506, lon.=26.531662, Alt.=153.713013m. Speed=14.652000m/h.</desc>
<speed>4.070000</speed>
</trkpt>
<trkpt lat="55.663483" lon="26.531721">
<ele>153.943481</ele>
<time>2010-07-18T10:47:45Z</time>
<desc>lat.=55.663483, lon.=26.531721, Alt.=153.943481m. Speed=14.796000m/h.</desc>
<speed>4.110000</speed>
</trkpt>
<trkpt lat="55.663464" lon="26.531776">
<ele>154.185669</ele>
<time>2010-07-18T10:47:46Z</time>
<desc>lat.=55.663464, lon.=26.531776, Alt.=154.185669m. Speed=15.084000m/h.</desc>
<speed>4.190000</speed>
</trkpt>
<trkpt lat="55.663448" lon="26.531832">
<ele>154.185669</ele>
<time>2010-07-18T10:47:47Z</time>
<desc>lat.=55.663448, lon.=26.531832, Alt.=154.185669m. Speed=14.328000m/h.</desc>
<speed>3.980000</speed>
</trkpt>
<trkpt lat="55.663425" lon="26.531885">
<ele>154.201294</ele>
<time>2010-07-18T10:47:48Z</time>
<desc>lat.=55.663425, lon.=26.531885, Alt.=154.201294m. Speed=15.948000m/h.</desc>
<speed>4.430000</speed>
</trkpt>
<trkpt lat="55.663399" lon="26.531935">
<ele>154.216919</ele>
<time>2010-07-18T10:47:49Z</time>
<desc>lat.=55.663399, lon.=26.531935, Alt.=154.216919m. Speed=15.660000m/h.</desc>
<speed>4.350000</speed>
</trkpt>
<trkpt lat="55.663372" lon="26.531988">
<ele>154.404419</ele>
<time>2010-07-18T10:47:50Z</time>
<desc>lat.=55.663372, lon.=26.531988, Alt.=154.404419m. Speed=15.804000m/h.</desc>
<speed>4.390000</speed>
</trkpt>
<trkpt lat="55.663345" lon="26.532043">
<ele>154.486450</ele>
<time>2010-07-18T10:47:51Z</time>
<desc>lat.=55.663345, lon.=26.532043, Alt.=154.486450m. Speed=17.568001m/h.</desc>
<speed>4.880000</speed>
</trkpt>
<trkpt lat="55.663322" lon="26.532103">
<ele>154.298950</ele>
<time>2010-07-18T10:47:52Z</time>
<desc>lat.=55.663322, lon.=26.532103, Alt.=154.298950m. Speed=16.452000m/h.</desc>
<speed>4.570000</speed>
</trkpt>
<trkpt lat="55.663296" lon="26.532160">
<ele>154.111450</ele>
<time>2010-07-18T10:47:53Z</time>
<desc>lat.=55.663296, lon.=26.532160, Alt.=154.111450m. Speed=17.280001m/h.</desc>
<speed>4.800000</speed>
</trkpt>
<trkpt lat="55.663273" lon="26.532225">
<ele>154.275513</ele>
<time>2010-07-18T10:47:54Z</time>
<desc>lat.=55.663273, lon.=26.532225, Alt.=154.275513m. Speed=16.848000m/h.</desc>
<speed>4.680000</speed>
</trkpt>
<trkpt lat="55.663246" lon="26.532286">
<ele>154.478638</ele>
<time>2010-07-18T10:47:55Z</time>
<desc>lat.=55.663246, lon.=26.532286, Alt.=154.478638m. Speed=15.084000m/h.</desc>
<speed>4.190000</speed>
</trkpt>
<trkpt lat="55.663223" lon="26.532345">
<ele>154.498169</ele>
<time>2010-07-18T10:47:56Z</time>
<desc>lat.=55.663223, lon.=26.532345, Alt.=154.498169m. Speed=14.472000m/h.</desc>
<speed>4.020000</speed>
</trkpt>
<trkpt lat="55.663200" lon="26.532396">
<ele>154.439575</ele>
<time>2010-07-18T10:47:57Z</time>
<desc>lat.=55.663200, lon.=26.532396, Alt.=154.439575m. Speed=13.716000m/h.</desc>
<speed>3.810000</speed>
</trkpt>
<trkpt lat="55.663181" lon="26.532444">
<ele>154.689575</ele>
<time>2010-07-18T10:47:58Z</time>
<desc>lat.=55.663181, lon.=26.532444, Alt.=154.689575m. Speed=12.348000m/h.</desc>
<speed>3.430000</speed>
</trkpt>
<trkpt lat="55.663166" lon="26.532490">
<ele>154.795044</ele>
<time>2010-07-18T10:47:59Z</time>
<desc>lat.=55.663166, lon.=26.532490, Alt.=154.795044m. Speed=11.160000m/h.</desc>
<speed>3.100000</speed>
</trkpt>
<trkpt lat="55.663151" lon="26.532537">
<ele>154.533325</ele>
<time>2010-07-18T10:48:00Z</time>
<desc>lat.=55.663151, lon.=26.532537, Alt.=154.533325m. Speed=10.548000m/h.</desc>
<speed>2.930000</speed>
</trkpt>
<trkpt lat="55.663132" lon="26.532589">
<ele>154.412231</ele>
<time>2010-07-18T10:48:01Z</time>
<desc>lat.=55.663132, lon.=26.532589, Alt.=154.412231m. Speed=13.284000m/h.</desc>
<speed>3.690000</speed>
</trkpt>
<trkpt lat="55.663109" lon="26.532642">
<ele>154.681763</ele>
<time>2010-07-18T10:48:02Z</time>
<desc>lat.=55.663109, lon.=26.532642, Alt.=154.681763m. Speed=11.700000m/h.</desc>
<speed>3.250000</speed>
</trkpt>
<trkpt lat="55.663086" lon="26.532688">
<ele>154.619263</ele>
<time>2010-07-18T10:48:03Z</time>
<desc>lat.=55.663086, lon.=26.532688, Alt.=154.619263m. Speed=12.528000m/h.</desc>
<speed>3.480000</speed>
</trkpt>
<trkpt lat="55.663071" lon="26.532732">
<ele>155.611450</ele>
<time>2010-07-18T10:48:04Z</time>
<desc>lat.=55.663071, lon.=26.532732, Alt.=155.611450m. Speed=9.792000m/h.</desc>
<speed>2.720000</speed>
</trkpt>
<trkpt lat="55.663059" lon="26.532770">
<ele>155.740356</ele>
<time>2010-07-18T10:48:05Z</time>
<desc>lat.=55.663059, lon.=26.532770, Alt.=155.740356m. Speed=9.756000m/h.</desc>
<speed>2.710000</speed>
</trkpt>
<trkpt lat="55.663044" lon="26.532801">
<ele>156.107544</ele>
<time>2010-07-18T10:48:06Z</time>
<desc>lat.=55.663044, lon.=26.532801, Alt.=156.107544m. Speed=8.784000m/h.</desc>
<speed>2.440000</speed>
</trkpt>
<trkpt lat="55.663029" lon="26.532831">
<ele>156.205200</ele>
<time>2010-07-18T10:48:07Z</time>
<desc>lat.=55.663029, lon.=26.532831, Alt.=156.205200m. Speed=7.380000m/h.</desc>
<speed>2.050000</speed>
</trkpt>
<trkpt lat="55.663017" lon="26.532852">
<ele>156.435669</ele>
<time>2010-07-18T10:48:08Z</time>
<desc>lat.=55.663017, lon.=26.532852, Alt.=156.435669m. Speed=5.112000m/h.</desc>
<speed>1.420000</speed>
</trkpt>
<trkpt lat="55.663010" lon="26.532871">
<ele>156.423950</ele>
<time>2010-07-18T10:48:09Z</time>
<desc>lat.=55.663010, lon.=26.532871, Alt.=156.423950m. Speed=5.544000m/h.</desc>
<speed>1.540000</speed>
</trkpt>
<trkpt lat="55.662998" lon="26.532896">
<ele>156.271606</ele>
<time>2010-07-18T10:48:10Z</time>
<desc>lat.=55.662998, lon.=26.532896, Alt.=156.271606m. Speed=5.292000m/h.</desc>
<speed>1.470000</speed>
</trkpt>
<trkpt lat="55.662987" lon="26.532919">
<ele>156.591919</ele>
<time>2010-07-18T10:48:11Z</time>
<desc>lat.=55.662987, lon.=26.532919, Alt.=156.591919m. Speed=7.488000m/h.</desc>
<speed>2.080000</speed>
</trkpt>
<trkpt lat="55.662975" lon="26.532946">
<ele>156.880981</ele>
<time>2010-07-18T10:48:12Z</time>
<desc>lat.=55.662975, lon.=26.532946, Alt.=156.880981m. Speed=7.020000m/h.</desc>
<speed>1.950000</speed>
</trkpt>
<trkpt lat="55.662964" lon="26.532972">
<ele>157.470825</ele>
<time>2010-07-18T10:48:13Z</time>
<desc>lat.=55.662964, lon.=26.532972, Alt.=157.470825m. Speed=7.812000m/h.</desc>
<speed>2.170000</speed>
</trkpt>
<trkpt lat="55.662949" lon="26.533005">
<ele>157.841919</ele>
<time>2010-07-18T10:48:14Z</time>
<desc>lat.=55.662949, lon.=26.533005, Alt.=157.841919m. Speed=8.856000m/h.</desc>
<speed>2.460000</speed>
</trkpt>
<trkpt lat="55.662941" lon="26.533041">
<ele>157.525513</ele>
<time>2010-07-18T10:48:15Z</time>
<desc>lat.=55.662941, lon.=26.533041, Alt.=157.525513m. Speed=8.568000m/h.</desc>
<speed>2.380000</speed>
</trkpt>
<trkpt lat="55.662930" lon="26.533075">
<ele>157.748169</ele>
<time>2010-07-18T10:48:16Z</time>
<desc>lat.=55.662930, lon.=26.533075, Alt.=157.748169m. Speed=9.000000m/h.</desc>
<speed>2.500000</speed>
</trkpt>
<trkpt lat="55.662910" lon="26.533112">
<ele>157.795044</ele>
<time>2010-07-18T10:48:17Z</time>
<desc>lat.=55.662910, lon.=26.533112, Alt.=157.795044m. Speed=9.144000m/h.</desc>
<speed>2.540000</speed>
</trkpt>
<trkpt lat="55.662895" lon="26.533152">
<ele>157.611450</ele>
<time>2010-07-18T10:48:18Z</time>
<desc>lat.=55.662895, lon.=26.533152, Alt.=157.611450m. Speed=9.468000m/h.</desc>
<speed>2.630000</speed>
</trkpt>
<trkpt lat="55.662884" lon="26.533195">
<ele>157.584106</ele>
<time>2010-07-18T10:48:19Z</time>
<desc>lat.=55.662884, lon.=26.533195, Alt.=157.584106m. Speed=9.828000m/h.</desc>
<speed>2.730000</speed>
</trkpt>
<trkpt lat="55.662868" lon="26.533230">
<ele>157.748169</ele>
<time>2010-07-18T10:48:20Z</time>
<desc>lat.=55.662868, lon.=26.533230, Alt.=157.748169m. Speed=9.684000m/h.</desc>
<speed>2.690000</speed>
</trkpt>
<trkpt lat="55.662857" lon="26.533262">
<ele>158.490356</ele>
<time>2010-07-18T10:48:21Z</time>
<desc>lat.=55.662857, lon.=26.533262, Alt.=158.490356m. Speed=9.684000m/h.</desc>
<speed>2.690000</speed>
</trkpt>
<trkpt lat="55.662846" lon="26.533298">
<ele>159.275513</ele>
<time>2010-07-18T10:48:22Z</time>
<desc>lat.=55.662846, lon.=26.533298, Alt.=159.275513m. Speed=9.792000m/h.</desc>
<speed>2.720000</speed>
</trkpt>
<trkpt lat="55.662834" lon="26.533340">
<ele>159.377075</ele>
<time>2010-07-18T10:48:23Z</time>
<desc>lat.=55.662834, lon.=26.533340, Alt.=159.377075m. Speed=10.476000m/h.</desc>
<speed>2.910000</speed>
</trkpt>
<trkpt lat="55.662823" lon="26.533384">
<ele>159.404419</ele>
<time>2010-07-18T10:48:24Z</time>
<desc>lat.=55.662823, lon.=26.533384, Alt.=159.404419m. Speed=9.684000m/h.</desc>
<speed>2.690000</speed>
</trkpt>
<trkpt lat="55.662807" lon="26.533422">
<ele>159.150513</ele>
<time>2010-07-18T10:48:25Z</time>
<desc>lat.=55.662807, lon.=26.533422, Alt.=159.150513m. Speed=10.008000m/h.</desc>
<speed>2.780000</speed>
</trkpt>
<trkpt lat="55.662792" lon="26.533466">
<ele>159.134888</ele>
<time>2010-07-18T10:48:26Z</time>
<desc>lat.=55.662792, lon.=26.533466, Alt.=159.134888m. Speed=9.288000m/h.</desc>
<speed>2.580000</speed>
</trkpt>
<trkpt lat="55.662777" lon="26.533510">
<ele>159.447388</ele>
<time>2010-07-18T10:48:27Z</time>
<desc>lat.=55.662777, lon.=26.533510, Alt.=159.447388m. Speed=9.648000m/h.</desc>
<speed>2.680000</speed>
</trkpt>
<trkpt lat="55.662766" lon="26.533548">
<ele>159.943481</ele>
<time>2010-07-18T10:48:28Z</time>
<desc>lat.=55.662766, lon.=26.533548, Alt.=159.943481m. Speed=9.900000m/h.</desc>
<speed>2.750000</speed>
</trkpt>
<trkpt lat="55.662758" lon="26.533587">
<ele>160.443481</ele>
<time>2010-07-18T10:48:29Z</time>
<desc>lat.=55.662758, lon.=26.533587, Alt.=160.443481m. Speed=9.504000m/h.</desc>
<speed>2.640000</speed>
</trkpt>
<trkpt lat="55.662746" lon="26.533623">
<ele>160.740356</ele>
<time>2010-07-18T10:48:30Z</time>
<desc>lat.=55.662746, lon.=26.533623, Alt.=160.740356m. Speed=9.900000m/h.</desc>
<speed>2.750000</speed>
</trkpt>
<trkpt lat="55.662731" lon="26.533665">
<ele>160.521606</ele>
<time>2010-07-18T10:48:31Z</time>
<desc>lat.=55.662731, lon.=26.533665, Alt.=160.521606m. Speed=9.612000m/h.</desc>
<speed>2.670000</speed>
</trkpt>
<trkpt lat="55.662720" lon="26.533705">
<ele>160.693481</ele>
<time>2010-07-18T10:48:32Z</time>
<desc>lat.=55.662720, lon.=26.533705, Alt.=160.693481m. Speed=10.296000m/h.</desc>
<speed>2.860000</speed>
</trkpt>
<trkpt lat="55.662708" lon="26.533745">
<ele>160.935669</ele>
<time>2010-07-18T10:48:33Z</time>
<desc>lat.=55.662708, lon.=26.533745, Alt.=160.935669m. Speed=10.224000m/h.</desc>
<speed>2.840000</speed>
</trkpt>
<trkpt lat="55.662697" lon="26.533787">
<ele>161.263794</ele>
<time>2010-07-18T10:48:34Z</time>
<desc>lat.=55.662697, lon.=26.533787, Alt.=161.263794m. Speed=10.692000m/h.</desc>
<speed>2.970000</speed>
</trkpt>
<trkpt lat="55.662685" lon="26.533833">
<ele>161.388794</ele>
<time>2010-07-18T10:48:35Z</time>
<desc>lat.=55.662685, lon.=26.533833, Alt.=161.388794m. Speed=10.728000m/h.</desc>
<speed>2.980000</speed>
</trkpt>
<trkpt lat="55.662674" lon="26.533876">
<ele>161.482544</ele>
<time>2010-07-18T10:48:36Z</time>
<desc>lat.=55.662674, lon.=26.533876, Alt.=161.482544m. Speed=10.728000m/h.</desc>
<speed>2.980000</speed>
</trkpt>
<trkpt lat="55.662666" lon="26.533920">
<ele>161.474731</ele>
<time>2010-07-18T10:48:37Z</time>
<desc>lat.=55.662666, lon.=26.533920, Alt.=161.474731m. Speed=10.548000m/h.</desc>
<speed>2.930000</speed>
</trkpt>
<trkpt lat="55.662659" lon="26.533968">
<ele>161.396606</ele>
<time>2010-07-18T10:48:38Z</time>
<desc>lat.=55.662659, lon.=26.533968, Alt.=161.396606m. Speed=11.232000m/h.</desc>
<speed>3.120000</speed>
</trkpt>
<trkpt lat="55.662647" lon="26.534021">
<ele>161.466919</ele>
<time>2010-07-18T10:48:39Z</time>
<desc>lat.=55.662647, lon.=26.534021, Alt.=161.466919m. Speed=11.412000m/h.</desc>
<speed>3.170000</speed>
</trkpt>
<trkpt lat="55.662643" lon="26.534073">
<ele>161.470825</ele>
<time>2010-07-18T10:48:40Z</time>
<desc>lat.=55.662643, lon.=26.534073, Alt.=161.470825m. Speed=11.376000m/h.</desc>
<speed>3.160000</speed>
</trkpt>
<trkpt lat="55.662632" lon="26.534122">
<ele>161.509888</ele>
<time>2010-07-18T10:48:41Z</time>
<desc>lat.=55.662632, lon.=26.534122, Alt.=161.509888m. Speed=11.628000m/h.</desc>
<speed>3.230000</speed>
</trkpt>
<trkpt lat="55.662624" lon="26.534172">
<ele>161.517700</ele>
<time>2010-07-18T10:48:42Z</time>
<desc>lat.=55.662624, lon.=26.534172, Alt.=161.517700m. Speed=11.412000m/h.</desc>
<speed>3.170000</speed>
</trkpt>
<trkpt lat="55.662613" lon="26.534220">
<ele>161.572388</ele>
<time>2010-07-18T10:48:43Z</time>
<desc>lat.=55.662613, lon.=26.534220, Alt.=161.572388m. Speed=11.556000m/h.</desc>
<speed>3.210000</speed>
</trkpt>
<trkpt lat="55.662605" lon="26.534269">
<ele>161.654419</ele>
<time>2010-07-18T10:48:44Z</time>
<desc>lat.=55.662605, lon.=26.534269, Alt.=161.654419m. Speed=11.916000m/h.</desc>
<speed>3.310000</speed>
</trkpt>
<trkpt lat="55.662594" lon="26.534323">
<ele>161.802856</ele>
<time>2010-07-18T10:48:45Z</time>
<desc>lat.=55.662594, lon.=26.534323, Alt.=161.802856m. Speed=12.348000m/h.</desc>
<speed>3.430000</speed>
</trkpt>
<trkpt lat="55.662586" lon="26.534374">
<ele>161.802856</ele>
<time>2010-07-18T10:48:46Z</time>
<desc>lat.=55.662586, lon.=26.534374, Alt.=161.802856m. Speed=12.564000m/h.</desc>
<speed>3.490000</speed>
</trkpt>
<trkpt lat="55.662579" lon="26.534424">
<ele>161.720825</ele>
<time>2010-07-18T10:48:47Z</time>
<desc>lat.=55.662579, lon.=26.534424, Alt.=161.720825m. Speed=11.700000m/h.</desc>
<speed>3.250000</speed>
</trkpt>
<trkpt lat="55.662567" lon="26.534468">
<ele>161.646606</ele>
<time>2010-07-18T10:48:48Z</time>
<desc>lat.=55.662567, lon.=26.534468, Alt.=161.646606m. Speed=10.908000m/h.</desc>
<speed>3.030000</speed>
</trkpt>
<trkpt lat="55.662560" lon="26.534513">
<ele>161.560669</ele>
<time>2010-07-18T10:48:49Z</time>
<desc>lat.=55.662560, lon.=26.534513, Alt.=161.560669m. Speed=11.232000m/h.</desc>
<speed>3.120000</speed>
</trkpt>
<trkpt lat="55.662552" lon="26.534561">
<ele>161.431763</ele>
<time>2010-07-18T10:48:50Z</time>
<desc>lat.=55.662552, lon.=26.534561, Alt.=161.431763m. Speed=10.656000m/h.</desc>
<speed>2.960000</speed>
</trkpt>
<trkpt lat="55.662548" lon="26.534601">
<ele>161.431763</ele>
<time>2010-07-18T10:48:51Z</time>
<desc>lat.=55.662548, lon.=26.534601, Alt.=161.431763m. Speed=11.196000m/h.</desc>
<speed>3.110000</speed>
</trkpt>
<trkpt lat="55.662548" lon="26.534649">
<ele>161.380981</ele>
<time>2010-07-18T10:48:52Z</time>
<desc>lat.=55.662548, lon.=26.534649, Alt.=161.380981m. Speed=11.952000m/h.</desc>
<speed>3.320000</speed>
</trkpt>
<trkpt lat="55.662540" lon="26.534700">
<ele>161.271606</ele>
<time>2010-07-18T10:48:53Z</time>
<desc>lat.=55.662540, lon.=26.534700, Alt.=161.271606m. Speed=12.276000m/h.</desc>
<speed>3.410000</speed>
</trkpt>
<trkpt lat="55.662529" lon="26.534754">
<ele>161.224731</ele>
<time>2010-07-18T10:48:54Z</time>
<desc>lat.=55.662529, lon.=26.534754, Alt.=161.224731m. Speed=12.888000m/h.</desc>
<speed>3.580000</speed>
</trkpt>
<trkpt lat="55.662518" lon="26.534805">
<ele>161.088013</ele>
<time>2010-07-18T10:48:55Z</time>
<desc>lat.=55.662518, lon.=26.534805, Alt.=161.088013m. Speed=12.600000m/h.</desc>
<speed>3.500000</speed>
</trkpt>
<trkpt lat="55.662506" lon="26.534863">
<ele>160.771606</ele>
<time>2010-07-18T10:48:56Z</time>
<desc>lat.=55.662506, lon.=26.534863, Alt.=160.771606m. Speed=13.356000m/h.</desc>
<speed>3.710000</speed>
</trkpt>
<trkpt lat="55.662495" lon="26.534918">
<ele>160.431763</ele>
<time>2010-07-18T10:48:57Z</time>
<desc>lat.=55.662495, lon.=26.534918, Alt.=160.431763m. Speed=13.176000m/h.</desc>
<speed>3.660000</speed>
</trkpt>
<trkpt lat="55.662487" lon="26.534973">
<ele>159.880981</ele>
<time>2010-07-18T10:48:58Z</time>
<desc>lat.=55.662487, lon.=26.534973, Alt.=159.880981m. Speed=13.320000m/h.</desc>
<speed>3.700000</speed>
</trkpt>
<trkpt lat="55.662476" lon="26.535034">
<ele>159.724731</ele>
<time>2010-07-18T10:48:59Z</time>
<desc>lat.=55.662476, lon.=26.535034, Alt.=159.724731m. Speed=13.068000m/h.</desc>
<speed>3.630000</speed>
</trkpt>
<trkpt lat="55.662468" lon="26.535091">
<ele>159.353638</ele>
<time>2010-07-18T10:49:00Z</time>
<desc>lat.=55.662468, lon.=26.535091, Alt.=159.353638m. Speed=13.104000m/h.</desc>
<speed>3.640000</speed>
</trkpt>
<trkpt lat="55.662460" lon="26.535143">
<ele>159.060669</ele>
<time>2010-07-18T10:49:01Z</time>
<desc>lat.=55.662460, lon.=26.535143, Alt.=159.060669m. Speed=12.204000m/h.</desc>
<speed>3.390000</speed>
</trkpt>
<trkpt lat="55.662453" lon="26.535191">
<ele>158.486450</ele>
<time>2010-07-18T10:49:02Z</time>
<desc>lat.=55.662453, lon.=26.535191, Alt.=158.486450m. Speed=11.268000m/h.</desc>
<speed>3.130000</speed>
</trkpt>
<trkpt lat="55.662445" lon="26.535238">
<ele>158.228638</ele>
<time>2010-07-18T10:49:03Z</time>
<desc>lat.=55.662445, lon.=26.535238, Alt.=158.228638m. Speed=11.664000m/h.</desc>
<speed>3.240000</speed>
</trkpt>
<trkpt lat="55.662434" lon="26.535288">
<ele>157.869263</ele>
<time>2010-07-18T10:49:04Z</time>
<desc>lat.=55.662434, lon.=26.535288, Alt.=157.869263m. Speed=11.880000m/h.</desc>
<speed>3.300000</speed>
</trkpt>
<trkpt lat="55.662426" lon="26.535341">
<ele>157.490356</ele>
<time>2010-07-18T10:49:05Z</time>
<desc>lat.=55.662426, lon.=26.535341, Alt.=157.490356m. Speed=12.168000m/h.</desc>
<speed>3.380000</speed>
</trkpt>
<trkpt lat="55.662418" lon="26.535393">
<ele>157.127075</ele>
<time>2010-07-18T10:49:06Z</time>
<desc>lat.=55.662418, lon.=26.535393, Alt.=157.127075m. Speed=12.204000m/h.</desc>
<speed>3.390000</speed>
</trkpt>
<trkpt lat="55.662411" lon="26.535442">
<ele>156.654419</ele>
<time>2010-07-18T10:49:07Z</time>
<desc>lat.=55.662411, lon.=26.535442, Alt.=156.654419m. Speed=12.096000m/h.</desc>
<speed>3.360000</speed>
</trkpt>
<trkpt lat="55.662403" lon="26.535484">
<ele>155.373169</ele>
<time>2010-07-18T10:49:08Z</time>
<desc>lat.=55.662403, lon.=26.535484, Alt.=155.373169m. Speed=12.024000m/h.</desc>
<speed>3.340000</speed>
</trkpt>
<trkpt lat="55.662392" lon="26.535534">
<ele>154.748169</ele>
<time>2010-07-18T10:49:09Z</time>
<desc>lat.=55.662392, lon.=26.535534, Alt.=154.748169m. Speed=11.592000m/h.</desc>
<speed>3.220000</speed>
</trkpt>
<trkpt lat="55.662388" lon="26.535587">
<ele>155.064575</ele>
<time>2010-07-18T10:49:10Z</time>
<desc>lat.=55.662388, lon.=26.535587, Alt.=155.064575m. Speed=10.800000m/h.</desc>
<speed>3.000000</speed>
</trkpt>
<trkpt lat="55.662380" lon="26.535637">
<ele>154.775513</ele>
<time>2010-07-18T10:49:11Z</time>
<desc>lat.=55.662380, lon.=26.535637, Alt.=154.775513m. Speed=11.772000m/h.</desc>
<speed>3.270000</speed>
</trkpt>
<trkpt lat="55.662388" lon="26.535692">
<ele>156.627075</ele>
<time>2010-07-18T10:49:12Z</time>
<desc>lat.=55.662388, lon.=26.535692, Alt.=156.627075m. Speed=8.712000m/h.</desc>
<speed>2.420000</speed>
</trkpt>
<trkpt lat="55.662388" lon="26.535734">
<ele>156.791138</ele>
<time>2010-07-18T10:49:13Z</time>
<desc>lat.=55.662388, lon.=26.535734, Alt.=156.791138m. Speed=11.124000m/h.</desc>
<speed>3.090000</speed>
</trkpt>
<trkpt lat="55.662384" lon="26.535786">
<ele>156.998169</ele>
<time>2010-07-18T10:49:14Z</time>
<desc>lat.=55.662384, lon.=26.535786, Alt.=156.998169m. Speed=12.060000m/h.</desc>
<speed>3.350000</speed>
</trkpt>
<trkpt lat="55.662373" lon="26.535858">
<ele>157.287231</ele>
<time>2010-07-18T10:49:15Z</time>
<desc>lat.=55.662373, lon.=26.535858, Alt.=157.287231m. Speed=13.788000m/h.</desc>
<speed>3.830000</speed>
</trkpt>
<trkpt lat="55.662361" lon="26.535923">
<ele>157.427856</ele>
<time>2010-07-18T10:49:16Z</time>
<desc>lat.=55.662361, lon.=26.535923, Alt.=157.427856m. Speed=13.752000m/h.</desc>
<speed>3.820000</speed>
</trkpt>
<trkpt lat="55.662350" lon="26.535984">
<ele>157.271606</ele>
<time>2010-07-18T10:49:17Z</time>
<desc>lat.=55.662350, lon.=26.535984, Alt.=157.271606m. Speed=14.364000m/h.</desc>
<speed>3.990000</speed>
</trkpt>
<trkpt lat="55.662342" lon="26.536055">
<ele>157.177856</ele>
<time>2010-07-18T10:49:18Z</time>
<desc>lat.=55.662342, lon.=26.536055, Alt.=157.177856m. Speed=14.868000m/h.</desc>
<speed>4.130000</speed>
</trkpt>
<trkpt lat="55.662331" lon="26.536121">
<ele>157.025513</ele>
<time>2010-07-18T10:49:19Z</time>
<desc>lat.=55.662331, lon.=26.536121, Alt.=157.025513m. Speed=14.760000m/h.</desc>
<speed>4.100000</speed>
</trkpt>
<trkpt lat="55.662323" lon="26.536186">
<ele>157.076294</ele>
<time>2010-07-18T10:49:20Z</time>
<desc>lat.=55.662323, lon.=26.536186, Alt.=157.076294m. Speed=14.472000m/h.</desc>
<speed>4.020000</speed>
</trkpt>
<trkpt lat="55.662308" lon="26.536251">
<ele>156.748169</ele>
<time>2010-07-18T10:49:21Z</time>
<desc>lat.=55.662308, lon.=26.536251, Alt.=156.748169m. Speed=14.328000m/h.</desc>
<speed>3.980000</speed>
</trkpt>
<trkpt lat="55.662289" lon="26.536310">
<ele>155.970825</ele>
<time>2010-07-18T10:49:22Z</time>
<desc>lat.=55.662289, lon.=26.536310, Alt.=155.970825m. Speed=15.156000m/h.</desc>
<speed>4.210000</speed>
</trkpt>
<trkpt lat="55.662281" lon="26.536369">
<ele>155.193481</ele>
<time>2010-07-18T10:49:23Z</time>
<desc>lat.=55.662281, lon.=26.536369, Alt.=155.193481m. Speed=15.048000m/h.</desc>
<speed>4.180000</speed>
</trkpt>
<trkpt lat="55.662270" lon="26.536438">
<ele>154.955200</ele>
<time>2010-07-18T10:49:24Z</time>
<desc>lat.=55.662270, lon.=26.536438, Alt.=154.955200m. Speed=14.976000m/h.</desc>
<speed>4.160000</speed>
</trkpt>
<trkpt lat="55.662266" lon="26.536510">
<ele>155.396606</ele>
<time>2010-07-18T10:49:25Z</time>
<desc>lat.=55.662266, lon.=26.536510, Alt.=155.396606m. Speed=15.300000m/h.</desc>
<speed>4.250000</speed>
</trkpt>
<trkpt lat="55.662262" lon="26.536587">
<ele>156.166138</ele>
<time>2010-07-18T10:49:26Z</time>
<desc>lat.=55.662262, lon.=26.536587, Alt.=156.166138m. Speed=15.084000m/h.</desc>
<speed>4.190000</speed>
</trkpt>
<trkpt lat="55.662251" lon="26.536650">
<ele>155.830200</ele>
<time>2010-07-18T10:49:27Z</time>
<desc>lat.=55.662251, lon.=26.536650, Alt.=155.830200m. Speed=15.444000m/h.</desc>
<speed>4.290000</speed>
</trkpt>
<trkpt lat="55.662235" lon="26.536713">
<ele>155.232544</ele>
<time>2010-07-18T10:49:28Z</time>
<desc>lat.=55.662235, lon.=26.536713, Alt.=155.232544m. Speed=15.228000m/h.</desc>
<speed>4.230000</speed>
</trkpt>
<trkpt lat="55.662220" lon="26.536774">
<ele>154.408325</ele>
<time>2010-07-18T10:49:29Z</time>
<desc>lat.=55.662220, lon.=26.536774, Alt.=154.408325m. Speed=15.372000m/h.</desc>
<speed>4.270000</speed>
</trkpt>
<trkpt lat="55.662201" lon="26.536840">
<ele>153.998169</ele>
<time>2010-07-18T10:49:30Z</time>
<desc>lat.=55.662201, lon.=26.536840, Alt.=153.998169m. Speed=15.768000m/h.</desc>
<speed>4.380000</speed>
</trkpt>
<trkpt lat="55.662186" lon="26.536905">
<ele>153.416138</ele>
<time>2010-07-18T10:49:31Z</time>
<desc>lat.=55.662186, lon.=26.536905, Alt.=153.416138m. Speed=15.300000m/h.</desc>
<speed>4.250000</speed>
</trkpt>
<trkpt lat="55.662170" lon="26.536970">
<ele>152.904419</ele>
<time>2010-07-18T10:49:32Z</time>
<desc>lat.=55.662170, lon.=26.536970, Alt.=152.904419m. Speed=15.408000m/h.</desc>
<speed>4.280000</speed>
</trkpt>
<trkpt lat="55.662159" lon="26.537039">
<ele>152.963013</ele>
<time>2010-07-18T10:49:33Z</time>
<desc>lat.=55.662159, lon.=26.537039, Alt.=152.963013m. Speed=15.696000m/h.</desc>
<speed>4.360000</speed>
</trkpt>
<trkpt lat="55.662148" lon="26.537098">
<ele>152.267700</ele>
<time>2010-07-18T10:49:34Z</time>
<desc>lat.=55.662148, lon.=26.537098, Alt.=152.267700m. Speed=14.184000m/h.</desc>
<speed>3.940000</speed>
</trkpt>
<trkpt lat="55.662136" lon="26.537161">
<ele>152.127075</ele>
<time>2010-07-18T10:49:35Z</time>
<desc>lat.=55.662136, lon.=26.537161, Alt.=152.127075m. Speed=14.256000m/h.</desc>
<speed>3.960000</speed>
</trkpt>
<trkpt lat="55.662132" lon="26.537231">
<ele>153.369263</ele>
<time>2010-07-18T10:49:36Z</time>
<desc>lat.=55.662132, lon.=26.537231, Alt.=153.369263m. Speed=14.436000m/h.</desc>
<speed>4.010000</speed>
</trkpt>
<trkpt lat="55.662125" lon="26.537291">
<ele>153.271606</ele>
<time>2010-07-18T10:49:37Z</time>
<desc>lat.=55.662125, lon.=26.537291, Alt.=153.271606m. Speed=13.968000m/h.</desc>
<speed>3.880000</speed>
</trkpt>
<trkpt lat="55.662117" lon="26.537346">
<ele>153.263794</ele>
<time>2010-07-18T10:49:38Z</time>
<desc>lat.=55.662117, lon.=26.537346, Alt.=153.263794m. Speed=12.924000m/h.</desc>
<speed>3.590000</speed>
</trkpt>
<trkpt lat="55.662109" lon="26.537405">
<ele>153.908325</ele>
<time>2010-07-18T10:49:39Z</time>
<desc>lat.=55.662109, lon.=26.537405, Alt.=153.908325m. Speed=12.276000m/h.</desc>
<speed>3.410000</speed>
</trkpt>
<trkpt lat="55.662102" lon="26.537457">
<ele>153.787231</ele>
<time>2010-07-18T10:49:40Z</time>
<desc>lat.=55.662102, lon.=26.537457, Alt.=153.787231m. Speed=10.944000m/h.</desc>
<speed>3.040000</speed>
</trkpt>
<trkpt lat="55.662090" lon="26.537504">
<ele>153.970825</ele>
<time>2010-07-18T10:49:41Z</time>
<desc>lat.=55.662090, lon.=26.537504, Alt.=153.970825m. Speed=9.756000m/h.</desc>
<speed>2.710000</speed>
</trkpt>
<trkpt lat="55.662083" lon="26.537546">
<ele>154.314575</ele>
<time>2010-07-18T10:49:42Z</time>
<desc>lat.=55.662083, lon.=26.537546, Alt.=154.314575m. Speed=8.820000m/h.</desc>
<speed>2.450000</speed>
</trkpt>
<trkpt lat="55.662075" lon="26.537584">
<ele>154.029419</ele>
<time>2010-07-18T10:49:43Z</time>
<desc>lat.=55.662075, lon.=26.537584, Alt.=154.029419m. Speed=10.368000m/h.</desc>
<speed>2.880000</speed>
</trkpt>
<trkpt lat="55.662067" lon="26.537632">
<ele>154.127075</ele>
<time>2010-07-18T10:49:44Z</time>
<desc>lat.=55.662067, lon.=26.537632, Alt.=154.127075m. Speed=10.800000m/h.</desc>
<speed>3.000000</speed>
</trkpt>
<trkpt lat="55.662064" lon="26.537683">
<ele>154.416138</ele>
<time>2010-07-18T10:49:45Z</time>
<desc>lat.=55.662064, lon.=26.537683, Alt.=154.416138m. Speed=11.844000m/h.</desc>
<speed>3.290000</speed>
</trkpt>
<trkpt lat="55.662056" lon="26.537735">
<ele>154.271606</ele>
<time>2010-07-18T10:49:46Z</time>
<desc>lat.=55.662056, lon.=26.537735, Alt.=154.271606m. Speed=12.384000m/h.</desc>
<speed>3.440000</speed>
</trkpt>
<trkpt lat="55.662048" lon="26.537786">
<ele>154.295044</ele>
<time>2010-07-18T10:49:47Z</time>
<desc>lat.=55.662048, lon.=26.537786, Alt.=154.295044m. Speed=12.492000m/h.</desc>
<speed>3.470000</speed>
</trkpt>
<trkpt lat="55.662041" lon="26.537838">
<ele>154.271606</ele>
<time>2010-07-18T10:49:48Z</time>
<desc>lat.=55.662041, lon.=26.537838, Alt.=154.271606m. Speed=13.248000m/h.</desc>
<speed>3.680000</speed>
</trkpt>
<trkpt lat="55.662033" lon="26.537893">
<ele>154.490356</ele>
<time>2010-07-18T10:49:49Z</time>
<desc>lat.=55.662033, lon.=26.537893, Alt.=154.490356m. Speed=13.824000m/h.</desc>
<speed>3.840000</speed>
</trkpt>
<trkpt lat="55.662022" lon="26.537958">
<ele>154.970825</ele>
<time>2010-07-18T10:49:50Z</time>
<desc>lat.=55.662022, lon.=26.537958, Alt.=154.970825m. Speed=14.832000m/h.</desc>
<speed>4.120000</speed>
</trkpt>
<trkpt lat="55.662010" lon="26.538027">
<ele>154.345825</ele>
<time>2010-07-18T10:49:51Z</time>
<desc>lat.=55.662010, lon.=26.538027, Alt.=154.345825m. Speed=17.028000m/h.</desc>
<speed>4.730000</speed>
</trkpt>
<trkpt lat="55.662003" lon="26.538101">
<ele>154.142700</ele>
<time>2010-07-18T10:49:52Z</time>
<desc>lat.=55.662003, lon.=26.538101, Alt.=154.142700m. Speed=16.884001m/h.</desc>
<speed>4.690000</speed>
</trkpt>
<trkpt lat="55.661991" lon="26.538176">
<ele>153.783325</ele>
<time>2010-07-18T10:49:53Z</time>
<desc>lat.=55.661991, lon.=26.538176, Alt.=153.783325m. Speed=16.704000m/h.</desc>
<speed>4.640000</speed>
</trkpt>
<trkpt lat="55.661980" lon="26.538250">
<ele>153.584106</ele>
<time>2010-07-18T10:49:54Z</time>
<desc>lat.=55.661980, lon.=26.538250, Alt.=153.584106m. Speed=16.740000m/h.</desc>
<speed>4.650000</speed>
</trkpt>
<trkpt lat="55.661968" lon="26.538324">
<ele>153.158325</ele>
<time>2010-07-18T10:49:55Z</time>
<desc>lat.=55.661968, lon.=26.538324, Alt.=153.158325m. Speed=16.704000m/h.</desc>
<speed>4.640000</speed>
</trkpt>
<trkpt lat="55.661957" lon="26.538401">
<ele>153.099731</ele>
<time>2010-07-18T10:49:56Z</time>
<desc>lat.=55.661957, lon.=26.538401, Alt.=153.099731m. Speed=17.172001m/h.</desc>
<speed>4.770000</speed>
</trkpt>
<trkpt lat="55.661942" lon="26.538471">
<ele>152.834106</ele>
<time>2010-07-18T10:49:57Z</time>
<desc>lat.=55.661942, lon.=26.538471, Alt.=152.834106m. Speed=17.243999m/h.</desc>
<speed>4.790000</speed>
</trkpt>
<trkpt lat="55.661926" lon="26.538536">
<ele>152.505981</ele>
<time>2010-07-18T10:49:58Z</time>
<desc>lat.=55.661926, lon.=26.538536, Alt.=152.505981m. Speed=15.660000m/h.</desc>
<speed>4.350000</speed>
</trkpt>
<trkpt lat="55.661911" lon="26.538603">
<ele>152.216919</ele>
<time>2010-07-18T10:49:59Z</time>
<desc>lat.=55.661911, lon.=26.538603, Alt.=152.216919m. Speed=15.984000m/h.</desc>
<speed>4.440000</speed>
</trkpt>
<trkpt lat="55.661900" lon="26.538671">
<ele>152.009888</ele>
<time>2010-07-18T10:50:00Z</time>
<desc>lat.=55.661900, lon.=26.538671, Alt.=152.009888m. Speed=16.632000m/h.</desc>
<speed>4.620000</speed>
</trkpt>
<trkpt lat="55.661888" lon="26.538742">
<ele>151.666138</ele>
<time>2010-07-18T10:50:01Z</time>
<desc>lat.=55.661888, lon.=26.538742, Alt.=151.666138m. Speed=16.667999m/h.</desc>
<speed>4.630000</speed>
</trkpt>
<trkpt lat="55.661880" lon="26.538824">
<ele>151.603638</ele>
<time>2010-07-18T10:50:02Z</time>
<desc>lat.=55.661880, lon.=26.538824, Alt.=151.603638m. Speed=18.000000m/h.</desc>
<speed>5.000000</speed>
</trkpt>
<trkpt lat="55.661869" lon="26.538902">
<ele>151.783325</ele>
<time>2010-07-18T10:50:03Z</time>
<desc>lat.=55.661869, lon.=26.538902, Alt.=151.783325m. Speed=17.892000m/h.</desc>
<speed>4.970000</speed>
</trkpt>
<trkpt lat="55.661861" lon="26.539001">
<ele>150.209106</ele>
<time>2010-07-18T10:50:04Z</time>
<desc>lat.=55.661861, lon.=26.539001, Alt.=150.209106m. Speed=18.035999m/h.</desc>
<speed>5.010000</speed>
</trkpt>
<trkpt lat="55.661854" lon="26.539087">
<ele>149.607544</ele>
<time>2010-07-18T10:50:05Z</time>
<desc>lat.=55.661854, lon.=26.539087, Alt.=149.607544m. Speed=17.424000m/h.</desc>
<speed>4.840000</speed>
</trkpt>
<trkpt lat="55.661850" lon="26.539179">
<ele>149.232544</ele>
<time>2010-07-18T10:50:06Z</time>
<desc>lat.=55.661850, lon.=26.539179, Alt.=149.232544m. Speed=18.323999m/h.</desc>
<speed>5.090000</speed>
</trkpt>
<trkpt lat="55.661842" lon="26.539261">
<ele>148.455200</ele>
<time>2010-07-18T10:50:07Z</time>
<desc>lat.=55.661842, lon.=26.539261, Alt.=148.455200m. Speed=18.468000m/h.</desc>
<speed>5.130000</speed>
</trkpt>
<trkpt lat="55.661831" lon="26.539347">
<ele>148.802856</ele>
<time>2010-07-18T10:50:08Z</time>
<desc>lat.=55.661831, lon.=26.539347, Alt.=148.802856m. Speed=18.648001m/h.</desc>
<speed>5.180000</speed>
</trkpt>
<trkpt lat="55.661819" lon="26.539425">
<ele>148.728638</ele>
<time>2010-07-18T10:50:09Z</time>
<desc>lat.=55.661819, lon.=26.539425, Alt.=148.728638m. Speed=18.936001m/h.</desc>
<speed>5.260000</speed>
</trkpt>
<trkpt lat="55.661808" lon="26.539515">
<ele>148.494263</ele>
<time>2010-07-18T10:50:10Z</time>
<desc>lat.=55.661808, lon.=26.539515, Alt.=148.494263m. Speed=19.944000m/h.</desc>
<speed>5.540000</speed>
</trkpt>
<trkpt lat="55.661797" lon="26.539610">
<ele>148.927856</ele>
<time>2010-07-18T10:50:11Z</time>
<desc>lat.=55.661797, lon.=26.539610, Alt.=148.927856m. Speed=20.016001m/h.</desc>
<speed>5.560000</speed>
</trkpt>
<trkpt lat="55.661789" lon="26.539705">
<ele>149.201294</ele>
<time>2010-07-18T10:50:12Z</time>
<desc>lat.=55.661789, lon.=26.539705, Alt.=149.201294m. Speed=20.340000m/h.</desc>
<speed>5.650000</speed>
</trkpt>
<trkpt lat="55.661781" lon="26.539801">
<ele>149.455200</ele>
<time>2010-07-18T10:50:13Z</time>
<desc>lat.=55.661781, lon.=26.539801, Alt.=149.455200m. Speed=20.556000m/h.</desc>
<speed>5.710000</speed>
</trkpt>
<trkpt lat="55.661774" lon="26.539898">
<ele>150.021606</ele>
<time>2010-07-18T10:50:14Z</time>
<desc>lat.=55.661774, lon.=26.539898, Alt.=150.021606m. Speed=20.844000m/h.</desc>
<speed>5.790000</speed>
</trkpt>
<trkpt lat="55.661770" lon="26.539997">
<ele>149.767700</ele>
<time>2010-07-18T10:50:15Z</time>
<desc>lat.=55.661770, lon.=26.539997, Alt.=149.767700m. Speed=20.160000m/h.</desc>
<speed>5.600000</speed>
</trkpt>
<trkpt lat="55.661762" lon="26.540089">
<ele>149.834106</ele>
<time>2010-07-18T10:50:16Z</time>
<desc>lat.=55.661762, lon.=26.540089, Alt.=149.834106m. Speed=19.620001m/h.</desc>
<speed>5.450000</speed>
</trkpt>
<trkpt lat="55.661762" lon="26.540180">
<ele>150.767700</ele>
<time>2010-07-18T10:50:17Z</time>
<desc>lat.=55.661762, lon.=26.540180, Alt.=150.767700m. Speed=19.872000m/h.</desc>
<speed>5.520000</speed>
</trkpt>
<trkpt lat="55.661755" lon="26.540272">
<ele>150.779419</ele>
<time>2010-07-18T10:50:18Z</time>
<desc>lat.=55.661755, lon.=26.540272, Alt.=150.779419m. Speed=19.656000m/h.</desc>
<speed>5.460000</speed>
</trkpt>
<trkpt lat="55.661743" lon="26.540361">
<ele>150.955200</ele>
<time>2010-07-18T10:50:19Z</time>
<desc>lat.=55.661743, lon.=26.540361, Alt.=150.955200m. Speed=19.548000m/h.</desc>
<speed>5.430000</speed>
</trkpt>
<trkpt lat="55.661736" lon="26.540445">
<ele>150.494263</ele>
<time>2010-07-18T10:50:20Z</time>
<desc>lat.=55.661736, lon.=26.540445, Alt.=150.494263m. Speed=19.728001m/h.</desc>
<speed>5.480000</speed>
</trkpt>
<trkpt lat="55.661728" lon="26.540529">
<ele>150.584106</ele>
<time>2010-07-18T10:50:21Z</time>
<desc>lat.=55.661728, lon.=26.540529, Alt.=150.584106m. Speed=19.656000m/h.</desc>
<speed>5.460000</speed>
</trkpt>
<trkpt lat="55.661720" lon="26.540617">
<ele>150.982544</ele>
<time>2010-07-18T10:50:22Z</time>
<desc>lat.=55.661720, lon.=26.540617, Alt.=150.982544m. Speed=19.944000m/h.</desc>
<speed>5.540000</speed>
</trkpt>
<trkpt lat="55.661713" lon="26.540705">
<ele>151.142700</ele>
<time>2010-07-18T10:50:23Z</time>
<desc>lat.=55.661713, lon.=26.540705, Alt.=151.142700m. Speed=19.476000m/h.</desc>
<speed>5.410000</speed>
</trkpt>
<trkpt lat="55.661705" lon="26.540787">
<ele>151.060669</ele>
<time>2010-07-18T10:50:24Z</time>
<desc>lat.=55.661705, lon.=26.540787, Alt.=151.060669m. Speed=19.224001m/h.</desc>
<speed>5.340000</speed>
</trkpt>
<trkpt lat="55.661694" lon="26.540873">
<ele>150.974731</ele>
<time>2010-07-18T10:50:25Z</time>
<desc>lat.=55.661694, lon.=26.540873, Alt.=150.974731m. Speed=18.972000m/h.</desc>
<speed>5.270000</speed>
</trkpt>
<trkpt lat="55.661686" lon="26.540958">
<ele>150.908325</ele>
<time>2010-07-18T10:50:26Z</time>
<desc>lat.=55.661686, lon.=26.540958, Alt.=150.908325m. Speed=18.684000m/h.</desc>
<speed>5.190000</speed>
</trkpt>
<trkpt lat="55.661678" lon="26.541039">
<ele>151.107544</ele>
<time>2010-07-18T10:50:27Z</time>
<desc>lat.=55.661678, lon.=26.541039, Alt.=151.107544m. Speed=18.648001m/h.</desc>
<speed>5.180000</speed>
</trkpt>
<trkpt lat="55.661671" lon="26.541121">
<ele>151.111450</ele>
<time>2010-07-18T10:50:28Z</time>
<desc>lat.=55.661671, lon.=26.541121, Alt.=151.111450m. Speed=18.827999m/h.</desc>
<speed>5.230000</speed>
</trkpt>
<trkpt lat="55.661659" lon="26.541208">
<ele>151.689575</ele>
<time>2010-07-18T10:50:29Z</time>
<desc>lat.=55.661659, lon.=26.541208, Alt.=151.689575m. Speed=18.936001m/h.</desc>
<speed>5.260000</speed>
</trkpt>
<trkpt lat="55.661652" lon="26.541292">
<ele>152.427856</ele>
<time>2010-07-18T10:50:30Z</time>
<desc>lat.=55.661652, lon.=26.541292, Alt.=152.427856m. Speed=18.936001m/h.</desc>
<speed>5.260000</speed>
</trkpt>
<trkpt lat="55.661640" lon="26.541378">
<ele>152.408325</ele>
<time>2010-07-18T10:50:31Z</time>
<desc>lat.=55.661640, lon.=26.541378, Alt.=152.408325m. Speed=18.936001m/h.</desc>
<speed>5.260000</speed>
</trkpt>
<trkpt lat="55.661633" lon="26.541464">
<ele>152.494263</ele>
<time>2010-07-18T10:50:32Z</time>
<desc>lat.=55.661633, lon.=26.541464, Alt.=152.494263m. Speed=19.224001m/h.</desc>
<speed>5.340000</speed>
</trkpt>
<trkpt lat="55.661625" lon="26.541550">
<ele>152.228638</ele>
<time>2010-07-18T10:50:33Z</time>
<desc>lat.=55.661625, lon.=26.541550, Alt.=152.228638m. Speed=19.584000m/h.</desc>
<speed>5.440000</speed>
</trkpt>
<trkpt lat="55.661613" lon="26.541634">
<ele>151.849731</ele>
<time>2010-07-18T10:50:34Z</time>
<desc>lat.=55.661613, lon.=26.541634, Alt.=151.849731m. Speed=19.476000m/h.</desc>
<speed>5.410000</speed>
</trkpt>
<trkpt lat="55.661610" lon="26.541725">
<ele>152.599731</ele>
<time>2010-07-18T10:50:35Z</time>
<desc>lat.=55.661610, lon.=26.541725, Alt.=152.599731m. Speed=19.260000m/h.</desc>
<speed>5.350000</speed>
</trkpt>
<trkpt lat="55.661602" lon="26.541805">
<ele>152.095825</ele>
<time>2010-07-18T10:50:36Z</time>
<desc>lat.=55.661602, lon.=26.541805, Alt.=152.095825m. Speed=19.152000m/h.</desc>
<speed>5.320000</speed>
</trkpt>
<trkpt lat="55.661594" lon="26.541887">
<ele>151.248169</ele>
<time>2010-07-18T10:50:37Z</time>
<desc>lat.=55.661594, lon.=26.541887, Alt.=151.248169m. Speed=19.368000m/h.</desc>
<speed>5.380000</speed>
</trkpt>
<trkpt lat="55.661583" lon="26.541971">
<ele>150.638794</ele>
<time>2010-07-18T10:50:38Z</time>
<desc>lat.=55.661583, lon.=26.541971, Alt.=150.638794m. Speed=19.980000m/h.</desc>
<speed>5.550000</speed>
</trkpt>
<trkpt lat="55.661575" lon="26.542059">
<ele>150.529419</ele>
<time>2010-07-18T10:50:39Z</time>
<desc>lat.=55.661575, lon.=26.542059, Alt.=150.529419m. Speed=20.628000m/h.</desc>
<speed>5.730000</speed>
</trkpt>
<trkpt lat="55.661572" lon="26.542150">
<ele>150.170044</ele>
<time>2010-07-18T10:50:40Z</time>
<desc>lat.=55.661572, lon.=26.542150, Alt.=150.170044m. Speed=21.167999m/h.</desc>
<speed>5.880000</speed>
</trkpt>
<trkpt lat="55.661568" lon="26.542252">
<ele>150.584106</ele>
<time>2010-07-18T10:50:41Z</time>
<desc>lat.=55.661568, lon.=26.542252, Alt.=150.584106m. Speed=21.924000m/h.</desc>
<speed>6.090000</speed>
</trkpt>
<trkpt lat="55.661568" lon="26.542349">
<ele>150.607544</ele>
<time>2010-07-18T10:50:42Z</time>
<desc>lat.=55.661568, lon.=26.542349, Alt.=150.607544m. Speed=22.896000m/h.</desc>
<speed>6.360000</speed>
</trkpt>
<trkpt lat="55.661568" lon="26.542454">
<ele>150.896606</ele>
<time>2010-07-18T10:50:43Z</time>
<desc>lat.=55.661568, lon.=26.542454, Alt.=150.896606m. Speed=23.436001m/h.</desc>
<speed>6.510000</speed>
</trkpt>
<trkpt lat="55.661560" lon="26.542555">
<ele>150.338013</ele>
<time>2010-07-18T10:50:44Z</time>
<desc>lat.=55.661560, lon.=26.542555, Alt.=150.338013m. Speed=24.732000m/h.</desc>
<speed>6.870000</speed>
</trkpt>
<trkpt lat="55.661556" lon="26.542664">
<ele>149.845825</ele>
<time>2010-07-18T10:50:45Z</time>
<desc>lat.=55.661556, lon.=26.542664, Alt.=149.845825m. Speed=25.559999m/h.</desc>
<speed>7.100000</speed>
</trkpt>
<trkpt lat="55.661564" lon="26.542788">
<ele>150.298950</ele>
<time>2010-07-18T10:50:46Z</time>
<desc>lat.=55.661564, lon.=26.542788, Alt.=150.298950m. Speed=27.108000m/h.</desc>
<speed>7.530000</speed>
</trkpt>
<trkpt lat="55.661560" lon="26.542904">
<ele>149.724731</ele>
<time>2010-07-18T10:50:47Z</time>
<desc>lat.=55.661560, lon.=26.542904, Alt.=149.724731m. Speed=27.431999m/h.</desc>
<speed>7.620000</speed>
</trkpt>
<trkpt lat="55.661556" lon="26.543018">
<ele>148.552856</ele>
<time>2010-07-18T10:50:48Z</time>
<desc>lat.=55.661556, lon.=26.543018, Alt.=148.552856m. Speed=27.936001m/h.</desc>
<speed>7.760000</speed>
</trkpt>
<trkpt lat="55.661545" lon="26.543135">
<ele>147.673950</ele>
<time>2010-07-18T10:50:49Z</time>
<desc>lat.=55.661545, lon.=26.543135, Alt.=147.673950m. Speed=27.827999m/h.</desc>
<speed>7.730000</speed>
</trkpt>
<trkpt lat="55.661537" lon="26.543261">
<ele>147.263794</ele>
<time>2010-07-18T10:50:50Z</time>
<desc>lat.=55.661537, lon.=26.543261, Alt.=147.263794m. Speed=28.872000m/h.</desc>
<speed>8.020000</speed>
</trkpt>
<trkpt lat="55.661530" lon="26.543388">
<ele>146.853638</ele>
<time>2010-07-18T10:50:51Z</time>
<desc>lat.=55.661530, lon.=26.543388, Alt.=146.853638m. Speed=29.520000m/h.</desc>
<speed>8.200000</speed>
</trkpt>
<trkpt lat="55.661522" lon="26.543516">
<ele>146.564575</ele>
<time>2010-07-18T10:50:52Z</time>
<desc>lat.=55.661522, lon.=26.543516, Alt.=146.564575m. Speed=29.340000m/h.</desc>
<speed>8.150000</speed>
</trkpt>
<trkpt lat="55.661518" lon="26.543646">
<ele>146.420044</ele>
<time>2010-07-18T10:50:53Z</time>
<desc>lat.=55.661518, lon.=26.543646, Alt.=146.420044m. Speed=29.160000m/h.</desc>
<speed>8.100000</speed>
</trkpt>
<trkpt lat="55.661514" lon="26.543774">
<ele>146.384888</ele>
<time>2010-07-18T10:50:54Z</time>
<desc>lat.=55.661514, lon.=26.543774, Alt.=146.384888m. Speed=28.152000m/h.</desc>
<speed>7.820000</speed>
</trkpt>
<trkpt lat="55.661514" lon="26.543903">
<ele>146.326294</ele>
<time>2010-07-18T10:50:55Z</time>
<desc>lat.=55.661514, lon.=26.543903, Alt.=146.326294m. Speed=29.087999m/h.</desc>
<speed>8.080000</speed>
</trkpt>
<trkpt lat="55.661507" lon="26.544031">
<ele>145.814575</ele>
<time>2010-07-18T10:50:56Z</time>
<desc>lat.=55.661507, lon.=26.544031, Alt.=145.814575m. Speed=28.440001m/h.</desc>
<speed>7.900000</speed>
</trkpt>
<trkpt lat="55.661499" lon="26.544155">
<ele>145.158325</ele>
<time>2010-07-18T10:50:57Z</time>
<desc>lat.=55.661499, lon.=26.544155, Alt.=145.158325m. Speed=28.691999m/h.</desc>
<speed>7.970000</speed>
</trkpt>
<trkpt lat="55.661495" lon="26.544287">
<ele>145.138794</ele>
<time>2010-07-18T10:50:58Z</time>
<desc>lat.=55.661495, lon.=26.544287, Alt.=145.138794m. Speed=28.044001m/h.</desc>
<speed>7.790000</speed>
</trkpt>
<trkpt lat="55.661488" lon="26.544415">
<ele>145.388794</ele>
<time>2010-07-18T10:50:59Z</time>
<desc>lat.=55.661488, lon.=26.544415, Alt.=145.388794m. Speed=27.864000m/h.</desc>
<speed>7.740000</speed>
</trkpt>
<trkpt lat="55.661488" lon="26.544550">
<ele>146.685669</ele>
<time>2010-07-18T10:51:00Z</time>
<desc>lat.=55.661488, lon.=26.544550, Alt.=146.685669m. Speed=27.143999m/h.</desc>
<speed>7.540000</speed>
</trkpt>
<trkpt lat="55.661484" lon="26.544664">
<ele>146.654419</ele>
<time>2010-07-18T10:51:01Z</time>
<desc>lat.=55.661484, lon.=26.544664, Alt.=146.654419m. Speed=23.976000m/h.</desc>
<speed>6.660000</speed>
</trkpt>
<trkpt lat="55.661491" lon="26.544779">
<ele>147.822388</ele>
<time>2010-07-18T10:51:02Z</time>
<desc>lat.=55.661491, lon.=26.544779, Alt.=147.822388m. Speed=24.156000m/h.</desc>
<speed>6.710000</speed>
</trkpt>
<trkpt lat="55.661499" lon="26.544888">
<ele>149.447388</ele>
<time>2010-07-18T10:51:03Z</time>
<desc>lat.=55.661499, lon.=26.544888, Alt.=149.447388m. Speed=23.256001m/h.</desc>
<speed>6.460000</speed>
</trkpt>
<trkpt lat="55.661507" lon="26.545013">
<ele>152.638794</ele>
<time>2010-07-18T10:51:04Z</time>
<desc>lat.=55.661507, lon.=26.545013, Alt.=152.638794m. Speed=23.903999m/h.</desc>
<speed>6.640000</speed>
</trkpt>
<trkpt lat="55.661510" lon="26.545135">
<ele>155.318481</ele>
<time>2010-07-18T10:51:05Z</time>
<desc>lat.=55.661510, lon.=26.545135, Alt.=155.318481m. Speed=23.760000m/h.</desc>
<speed>6.600000</speed>
</trkpt>
<trkpt lat="55.661507" lon="26.545244">
<ele>155.748169</ele>
<time>2010-07-18T10:51:06Z</time>
<desc>lat.=55.661507, lon.=26.545244, Alt.=155.748169m. Speed=24.948000m/h.</desc>
<speed>6.930000</speed>
</trkpt>
<trkpt lat="55.661499" lon="26.545372">
<ele>156.427856</ele>
<time>2010-07-18T10:51:07Z</time>
<desc>lat.=55.661499, lon.=26.545372, Alt.=156.427856m. Speed=28.511999m/h.</desc>
<speed>7.920000</speed>
</trkpt>
<trkpt lat="55.661522" lon="26.545488">
<ele>156.080200</ele>
<time>2010-07-18T10:51:08Z</time>
<desc>lat.=55.661522, lon.=26.545488, Alt.=156.080200m. Speed=28.224001m/h.</desc>
<speed>7.840000</speed>
</trkpt>
<trkpt lat="55.661514" lon="26.545597">
<ele>155.283325</ele>
<time>2010-07-18T10:51:09Z</time>
<desc>lat.=55.661514, lon.=26.545597, Alt.=155.283325m. Speed=24.408001m/h.</desc>
<speed>6.780000</speed>
</trkpt>
<trkpt lat="55.661491" lon="26.545721">
<ele>155.138794</ele>
<time>2010-07-18T10:51:10Z</time>
<desc>lat.=55.661491, lon.=26.545721, Alt.=155.138794m. Speed=27.396000m/h.</desc>
<speed>7.610000</speed>
</trkpt>
<trkpt lat="55.661480" lon="26.545855">
<ele>155.353638</ele>
<time>2010-07-18T10:51:11Z</time>
<desc>lat.=55.661480, lon.=26.545855, Alt.=155.353638m. Speed=28.620001m/h.</desc>
<speed>7.950000</speed>
</trkpt>
<trkpt lat="55.661469" lon="26.545979">
<ele>155.404419</ele>
<time>2010-07-18T10:51:12Z</time>
<desc>lat.=55.661469, lon.=26.545979, Alt.=155.404419m. Speed=25.884001m/h.</desc>
<speed>7.190000</speed>
</trkpt>
<trkpt lat="55.661453" lon="26.546104">
<ele>156.334106</ele>
<time>2010-07-18T10:51:13Z</time>
<desc>lat.=55.661453, lon.=26.546104, Alt.=156.334106m. Speed=26.208000m/h.</desc>
<speed>7.280000</speed>
</trkpt>
<trkpt lat="55.661442" lon="26.546238">
<ele>156.834106</ele>
<time>2010-07-18T10:51:14Z</time>
<desc>lat.=55.661442, lon.=26.546238, Alt.=156.834106m. Speed=25.884001m/h.</desc>
<speed>7.190000</speed>
</trkpt>
<trkpt lat="55.661415" lon="26.546358">
<ele>156.584106</ele>
<time>2010-07-18T10:51:15Z</time>
<desc>lat.=55.661415, lon.=26.546358, Alt.=156.584106m. Speed=25.091999m/h.</desc>
<speed>6.970000</speed>
</trkpt>
<trkpt lat="55.661404" lon="26.546484">
<ele>156.267700</ele>
<time>2010-07-18T10:51:16Z</time>
<desc>lat.=55.661404, lon.=26.546484, Alt.=156.267700m. Speed=25.992001m/h.</desc>
<speed>7.220000</speed>
</trkpt>
<trkpt lat="55.661396" lon="26.546608">
<ele>156.486450</ele>
<time>2010-07-18T10:51:17Z</time>
<desc>lat.=55.661396, lon.=26.546608, Alt.=156.486450m. Speed=25.488001m/h.</desc>
<speed>7.080000</speed>
</trkpt>
<trkpt lat="55.661388" lon="26.546738">
<ele>156.806763</ele>
<time>2010-07-18T10:51:18Z</time>
<desc>lat.=55.661388, lon.=26.546738, Alt.=156.806763m. Speed=25.308001m/h.</desc>
<speed>7.030000</speed>
</trkpt>
<trkpt lat="55.661381" lon="26.546844">
<ele>157.439575</ele>
<time>2010-07-18T10:51:19Z</time>
<desc>lat.=55.661381, lon.=26.546844, Alt.=157.439575m. Speed=20.556000m/h.</desc>
<speed>5.710000</speed>
</trkpt>
<trkpt lat="55.661377" lon="26.546938">
<ele>157.896606</ele>
<time>2010-07-18T10:51:20Z</time>
<desc>lat.=55.661377, lon.=26.546938, Alt.=157.896606m. Speed=19.511999m/h.</desc>
<speed>5.420000</speed>
</trkpt>
<trkpt lat="55.661358" lon="26.547035">
<ele>158.084106</ele>
<time>2010-07-18T10:51:21Z</time>
<desc>lat.=55.661358, lon.=26.547035, Alt.=158.084106m. Speed=21.240000m/h.</desc>
<speed>5.900000</speed>
</trkpt>
<trkpt lat="55.661346" lon="26.547144">
<ele>158.630981</ele>
<time>2010-07-18T10:51:22Z</time>
<desc>lat.=55.661346, lon.=26.547144, Alt.=158.630981m. Speed=21.743999m/h.</desc>
<speed>6.040000</speed>
</trkpt>
<trkpt lat="55.661331" lon="26.547251">
<ele>158.494263</ele>
<time>2010-07-18T10:51:23Z</time>
<desc>lat.=55.661331, lon.=26.547251, Alt.=158.494263m. Speed=22.464001m/h.</desc>
<speed>6.240000</speed>
</trkpt>
<trkpt lat="55.661320" lon="26.547373">
<ele>158.603638</ele>
<time>2010-07-18T10:51:24Z</time>
<desc>lat.=55.661320, lon.=26.547373, Alt.=158.603638m. Speed=22.139999m/h.</desc>
<speed>6.150000</speed>
</trkpt>
<trkpt lat="55.661301" lon="26.547480">
<ele>158.947388</ele>
<time>2010-07-18T10:51:25Z</time>
<desc>lat.=55.661301, lon.=26.547480, Alt.=158.947388m. Speed=20.879999m/h.</desc>
<speed>5.800000</speed>
</trkpt>
<trkpt lat="55.661289" lon="26.547586">
<ele>158.892700</ele>
<time>2010-07-18T10:51:26Z</time>
<desc>lat.=55.661289, lon.=26.547586, Alt.=158.892700m. Speed=19.872000m/h.</desc>
<speed>5.520000</speed>
</trkpt>
<trkpt lat="55.661266" lon="26.547678">
<ele>157.935669</ele>
<time>2010-07-18T10:51:27Z</time>
<desc>lat.=55.661266, lon.=26.547678, Alt.=157.935669m. Speed=19.044001m/h.</desc>
<speed>5.290000</speed>
</trkpt>
<trkpt lat="55.661255" lon="26.547792">
<ele>158.349731</ele>
<time>2010-07-18T10:51:28Z</time>
<desc>lat.=55.661255, lon.=26.547792, Alt.=158.349731m. Speed=16.667999m/h.</desc>
<speed>4.630000</speed>
</trkpt>
<trkpt lat="55.661247" lon="26.547878">
<ele>158.673950</ele>
<time>2010-07-18T10:51:29Z</time>
<desc>lat.=55.661247, lon.=26.547878, Alt.=158.673950m. Speed=15.840000m/h.</desc>
<speed>4.400000</speed>
</trkpt>
<trkpt lat="55.661251" lon="26.547966">
<ele>157.744263</ele>
<time>2010-07-18T10:51:30Z</time>
<desc>lat.=55.661251, lon.=26.547966, Alt.=157.744263m. Speed=15.192000m/h.</desc>
<speed>4.220000</speed>
</trkpt>
<trkpt lat="55.661255" lon="26.548037">
<ele>156.959106</ele>
<time>2010-07-18T10:51:31Z</time>
<desc>lat.=55.661255, lon.=26.548037, Alt.=156.959106m. Speed=15.408000m/h.</desc>
<speed>4.280000</speed>
</trkpt>
<trkpt lat="55.661255" lon="26.548113">
<ele>154.498169</ele>
<time>2010-07-18T10:51:32Z</time>
<desc>lat.=55.661255, lon.=26.548113, Alt.=154.498169m. Speed=16.056000m/h.</desc>
<speed>4.460000</speed>
</trkpt>
<trkpt lat="55.661251" lon="26.548189">
<ele>152.834106</ele>
<time>2010-07-18T10:51:33Z</time>
<desc>lat.=55.661251, lon.=26.548189, Alt.=152.834106m. Speed=16.236000m/h.</desc>
<speed>4.510000</speed>
</trkpt>
<trkpt lat="55.661263" lon="26.548265">
<ele>152.052856</ele>
<time>2010-07-18T10:51:34Z</time>
<desc>lat.=55.661263, lon.=26.548265, Alt.=152.052856m. Speed=14.256000m/h.</desc>
<speed>3.960000</speed>
</trkpt>
<trkpt lat="55.661278" lon="26.548357">
<ele>150.068481</ele>
<time>2010-07-18T10:51:35Z</time>
<desc>lat.=55.661278, lon.=26.548357, Alt.=150.068481m. Speed=16.559999m/h.</desc>
<speed>4.600000</speed>
</trkpt>
<trkpt lat="55.661285" lon="26.548420">
<ele>148.912231</ele>
<time>2010-07-18T10:51:36Z</time>
<desc>lat.=55.661285, lon.=26.548420, Alt.=148.912231m. Speed=11.520000m/h.</desc>
<speed>3.200000</speed>
</trkpt>
<trkpt lat="55.661301" lon="26.548466">
<ele>148.623169</ele>
<time>2010-07-18T10:51:37Z</time>
<desc>lat.=55.661301, lon.=26.548466, Alt.=148.623169m. Speed=14.688000m/h.</desc>
<speed>4.080000</speed>
</trkpt>
<trkpt lat="55.661297" lon="26.548561">
<ele>146.588013</ele>
<time>2010-07-18T10:51:38Z</time>
<desc>lat.=55.661297, lon.=26.548561, Alt.=146.588013m. Speed=15.120000m/h.</desc>
<speed>4.200000</speed>
</trkpt>
<trkpt lat="55.661297" lon="26.548649">
<ele>145.357544</ele>
<time>2010-07-18T10:51:39Z</time>
<desc>lat.=55.661297, lon.=26.548649, Alt.=145.357544m. Speed=14.292000m/h.</desc>
<speed>3.970000</speed>
</trkpt>
<trkpt lat="55.661293" lon="26.548712">
<ele>144.998169</ele>
<time>2010-07-18T10:51:40Z</time>
<desc>lat.=55.661293, lon.=26.548712, Alt.=144.998169m. Speed=17.208000m/h.</desc>
<speed>4.780000</speed>
</trkpt>
<trkpt lat="55.661293" lon="26.548788">
<ele>144.377075</ele>
<time>2010-07-18T10:51:41Z</time>
<desc>lat.=55.661293, lon.=26.548788, Alt.=144.377075m. Speed=17.568001m/h.</desc>
<speed>4.880000</speed>
</trkpt>
<trkpt lat="55.661263" lon="26.548880">
<ele>144.576294</ele>
<time>2010-07-18T10:51:42Z</time>
<desc>lat.=55.661263, lon.=26.548880, Alt.=144.576294m. Speed=17.856001m/h.</desc>
<speed>4.960000</speed>
</trkpt>
<trkpt lat="55.661247" lon="26.548954">
<ele>143.880981</ele>
<time>2010-07-18T10:51:43Z</time>
<desc>lat.=55.661247, lon.=26.548954, Alt.=143.880981m. Speed=19.476000m/h.</desc>
<speed>5.410000</speed>
</trkpt>
<trkpt lat="55.661201" lon="26.549053">
<ele>142.767700</ele>
<time>2010-07-18T10:51:44Z</time>
<desc>lat.=55.661201, lon.=26.549053, Alt.=142.767700m. Speed=18.540001m/h.</desc>
<speed>5.150000</speed>
</trkpt>
<trkpt lat="55.661190" lon="26.549133">
<ele>141.990356</ele>
<time>2010-07-18T10:51:45Z</time>
<desc>lat.=55.661190, lon.=26.549133, Alt.=141.990356m. Speed=20.160000m/h.</desc>
<speed>5.600000</speed>
</trkpt>
<trkpt lat="55.661179" lon="26.549255">
<ele>141.486450</ele>
<time>2010-07-18T10:51:46Z</time>
<desc>lat.=55.661179, lon.=26.549255, Alt.=141.486450m. Speed=20.340000m/h.</desc>
<speed>5.650000</speed>
</trkpt>
<trkpt lat="55.661156" lon="26.549360">
<ele>139.685669</ele>
<time>2010-07-18T10:51:47Z</time>
<desc>lat.=55.661156, lon.=26.549360, Alt.=139.685669m. Speed=20.556000m/h.</desc>
<speed>5.710000</speed>
</trkpt>
<trkpt lat="55.661148" lon="26.549477">
<ele>136.588013</ele>
<time>2010-07-18T10:51:48Z</time>
<desc>lat.=55.661148, lon.=26.549477, Alt.=136.588013m. Speed=19.260000m/h.</desc>
<speed>5.350000</speed>
</trkpt>
<trkpt lat="55.661137" lon="26.549559">
<ele>136.298950</ele>
<time>2010-07-18T10:51:49Z</time>
<desc>lat.=55.661137, lon.=26.549559, Alt.=136.298950m. Speed=16.308001m/h.</desc>
<speed>4.530000</speed>
</trkpt>
<trkpt lat="55.661121" lon="26.549648">
<ele>135.798950</ele>
<time>2010-07-18T10:51:50Z</time>
<desc>lat.=55.661121, lon.=26.549648, Alt.=135.798950m. Speed=17.424000m/h.</desc>
<speed>4.840000</speed>
</trkpt>
<trkpt lat="55.661110" lon="26.549723">
<ele>135.158325</ele>
<time>2010-07-18T10:51:51Z</time>
<desc>lat.=55.661110, lon.=26.549723, Alt.=135.158325m. Speed=17.136000m/h.</desc>
<speed>4.760000</speed>
</trkpt>
<trkpt lat="55.661060" lon="26.549856">
<ele>136.173950</ele>
<time>2010-07-18T10:51:52Z</time>
<desc>lat.=55.661060, lon.=26.549856, Alt.=136.173950m. Speed=22.752001m/h.</desc>
<speed>6.320000</speed>
</trkpt>
<trkpt lat="55.661037" lon="26.549967">
<ele>135.599731</ele>
<time>2010-07-18T10:51:53Z</time>
<desc>lat.=55.661037, lon.=26.549967, Alt.=135.599731m. Speed=22.860001m/h.</desc>
<speed>6.350000</speed>
</trkpt>
<trkpt lat="55.661011" lon="26.550079">
<ele>135.248169</ele>
<time>2010-07-18T10:51:54Z</time>
<desc>lat.=55.661011, lon.=26.550079, Alt.=135.248169m. Speed=22.608000m/h.</desc>
<speed>6.280000</speed>
</trkpt>
<trkpt lat="55.660995" lon="26.550186">
<ele>134.435669</ele>
<time>2010-07-18T10:51:55Z</time>
<desc>lat.=55.660995, lon.=26.550186, Alt.=134.435669m. Speed=21.348000m/h.</desc>
<speed>5.930000</speed>
</trkpt>
<trkpt lat="55.660988" lon="26.550341">
<ele>134.048950</ele>
<time>2010-07-18T10:51:56Z</time>
<desc>lat.=55.660988, lon.=26.550341, Alt.=134.048950m. Speed=24.552000m/h.</desc>
<speed>6.820000</speed>
</trkpt>
<trkpt lat="55.660973" lon="26.550472">
<ele>132.970825</ele>
<time>2010-07-18T10:51:57Z</time>
<desc>lat.=55.660973, lon.=26.550472, Alt.=132.970825m. Speed=23.724001m/h.</desc>
<speed>6.590000</speed>
</trkpt>
<trkpt lat="55.660942" lon="26.550592">
<ele>133.263794</ele>
<time>2010-07-18T10:51:58Z</time>
<desc>lat.=55.660942, lon.=26.550592, Alt.=133.263794m. Speed=22.572001m/h.</desc>
<speed>6.270000</speed>
</trkpt>
<trkpt lat="55.660915" lon="26.550726">
<ele>132.509888</ele>
<time>2010-07-18T10:51:59Z</time>
<desc>lat.=55.660915, lon.=26.550726, Alt.=132.509888m. Speed=21.132000m/h.</desc>
<speed>5.870000</speed>
</trkpt>
<trkpt lat="55.660877" lon="26.550838">
<ele>132.084106</ele>
<time>2010-07-18T10:52:00Z</time>
<desc>lat.=55.660877, lon.=26.550838, Alt.=132.084106m. Speed=21.743999m/h.</desc>
<speed>6.040000</speed>
</trkpt>
<trkpt lat="55.660851" lon="26.550953">
<ele>131.533325</ele>
<time>2010-07-18T10:52:01Z</time>
<desc>lat.=55.660851, lon.=26.550953, Alt.=131.533325m. Speed=22.535999m/h.</desc>
<speed>6.260000</speed>
</trkpt>
<trkpt lat="55.660831" lon="26.551065">
<ele>131.002075</ele>
<time>2010-07-18T10:52:02Z</time>
<desc>lat.=55.660831, lon.=26.551065, Alt.=131.002075m. Speed=21.384001m/h.</desc>
<speed>5.940000</speed>
</trkpt>
<trkpt lat="55.660828" lon="26.551174">
<ele>130.505981</ele>
<time>2010-07-18T10:52:03Z</time>
<desc>lat.=55.660828, lon.=26.551174, Alt.=130.505981m. Speed=20.052000m/h.</desc>
<speed>5.570000</speed>
</trkpt>
<trkpt lat="55.660820" lon="26.551281">
<ele>131.306763</ele>
<time>2010-07-18T10:52:04Z</time>
<desc>lat.=55.660820, lon.=26.551281, Alt.=131.306763m. Speed=19.584000m/h.</desc>
<speed>5.440000</speed>
</trkpt>
<trkpt lat="55.660816" lon="26.551376">
<ele>131.545044</ele>
<time>2010-07-18T10:52:05Z</time>
<desc>lat.=55.660816, lon.=26.551376, Alt.=131.545044m. Speed=19.980000m/h.</desc>
<speed>5.550000</speed>
</trkpt>
<trkpt lat="55.660805" lon="26.551466">
<ele>132.302856</ele>
<time>2010-07-18T10:52:06Z</time>
<desc>lat.=55.660805, lon.=26.551466, Alt.=132.302856m. Speed=18.180000m/h.</desc>
<speed>5.050000</speed>
</trkpt>
<trkpt lat="55.660805" lon="26.551548">
<ele>131.810669</ele>
<time>2010-07-18T10:52:07Z</time>
<desc>lat.=55.660805, lon.=26.551548, Alt.=131.810669m. Speed=16.884001m/h.</desc>
<speed>4.690000</speed>
</trkpt>
<trkpt lat="55.660805" lon="26.551626">
<ele>133.341919</ele>
<time>2010-07-18T10:52:08Z</time>
<desc>lat.=55.660805, lon.=26.551626, Alt.=133.341919m. Speed=15.696000m/h.</desc>
<speed>4.360000</speed>
</trkpt>
<trkpt lat="55.660816" lon="26.551704">
<ele>135.177856</ele>
<time>2010-07-18T10:52:09Z</time>
<desc>lat.=55.660816, lon.=26.551704, Alt.=135.177856m. Speed=14.256000m/h.</desc>
<speed>3.960000</speed>
</trkpt>
<trkpt lat="55.660824" lon="26.551779">
<ele>136.072388</ele>
<time>2010-07-18T10:52:10Z</time>
<desc>lat.=55.660824, lon.=26.551779, Alt.=136.072388m. Speed=14.688000m/h.</desc>
<speed>4.080000</speed>
</trkpt>
<trkpt lat="55.660824" lon="26.551863">
<ele>136.681763</ele>
<time>2010-07-18T10:52:11Z</time>
<desc>lat.=55.660824, lon.=26.551863, Alt.=136.681763m. Speed=12.636000m/h.</desc>
<speed>3.510000</speed>
</trkpt>
<trkpt lat="55.660824" lon="26.551933">
<ele>137.451294</ele>
<time>2010-07-18T10:52:12Z</time>
<desc>lat.=55.660824, lon.=26.551933, Alt.=137.451294m. Speed=12.240000m/h.</desc>
<speed>3.400000</speed>
</trkpt>
<trkpt lat="55.660824" lon="26.552027">
<ele>138.951294</ele>
<time>2010-07-18T10:52:13Z</time>
<desc>lat.=55.660824, lon.=26.552027, Alt.=138.951294m. Speed=12.852000m/h.</desc>
<speed>3.570000</speed>
</trkpt>
<trkpt lat="55.660801" lon="26.552109">
<ele>140.002075</ele>
<time>2010-07-18T10:52:14Z</time>
<desc>lat.=55.660801, lon.=26.552109, Alt.=140.002075m. Speed=14.040000m/h.</desc>
<speed>3.900000</speed>
</trkpt>
<trkpt lat="55.660786" lon="26.552284">
<ele>143.111450</ele>
<time>2010-07-18T10:52:15Z</time>
<desc>lat.=55.660786, lon.=26.552284, Alt.=143.111450m. Speed=13.716000m/h.</desc>
<speed>3.810000</speed>
</trkpt>
<trkpt lat="55.660778" lon="26.552443">
<ele>147.021606</ele>
<time>2010-07-18T10:52:16Z</time>
<desc>lat.=55.660778, lon.=26.552443, Alt.=147.021606m. Speed=13.572000m/h.</desc>
<speed>3.770000</speed>
</trkpt>
<trkpt lat="55.660774" lon="26.552563">
<ele>150.654419</ele>
<time>2010-07-18T10:52:17Z</time>
<desc>lat.=55.660774, lon.=26.552563, Alt.=150.654419m. Speed=8.712000m/h.</desc>
<speed>2.420000</speed>
</trkpt>
<trkpt lat="55.660770" lon="26.552654">
<ele>152.888794</ele>
<time>2010-07-18T10:52:18Z</time>
<desc>lat.=55.660770, lon.=26.552654, Alt.=152.888794m. Speed=9.396000m/h.</desc>
<speed>2.610000</speed>
</trkpt>
<trkpt lat="55.660759" lon="26.552748">
<ele>157.076294</ele>
<time>2010-07-18T10:52:19Z</time>
<desc>lat.=55.660759, lon.=26.552748, Alt.=157.076294m. Speed=9.468000m/h.</desc>
<speed>2.630000</speed>
</trkpt>
<trkpt lat="55.660744" lon="26.552837">
<ele>160.888794</ele>
<time>2010-07-18T10:52:20Z</time>
<desc>lat.=55.660744, lon.=26.552837, Alt.=160.888794m. Speed=8.676000m/h.</desc>
<speed>2.410000</speed>
</trkpt>
<trkpt lat="55.660744" lon="26.552900">
<ele>163.920044</ele>
<time>2010-07-18T10:52:21Z</time>
<desc>lat.=55.660744, lon.=26.552900, Alt.=163.920044m. Speed=6.264000m/h.</desc>
<speed>1.740000</speed>
</trkpt>
<trkpt lat="55.660732" lon="26.552969">
<ele>166.123169</ele>
<time>2010-07-18T10:52:22Z</time>
<desc>lat.=55.660732, lon.=26.552969, Alt.=166.123169m. Speed=9.108000m/h.</desc>
<speed>2.530000</speed>
</trkpt>
<trkpt lat="55.660740" lon="26.553064">
<ele>170.447388</ele>
<time>2010-07-18T10:52:23Z</time>
<desc>lat.=55.660740, lon.=26.553064, Alt.=170.447388m. Speed=9.072000m/h.</desc>
<speed>2.520000</speed>
</trkpt>
<trkpt lat="55.660748" lon="26.553164">
<ele>176.970825</ele>
<time>2010-07-18T10:52:24Z</time>
<desc>lat.=55.660748, lon.=26.553164, Alt.=176.970825m. Speed=9.720000m/h.</desc>
<speed>2.700000</speed>
</trkpt>
<trkpt lat="55.660721" lon="26.553242">
<ele>177.783325</ele>
<time>2010-07-18T10:52:25Z</time>
<desc>lat.=55.660721, lon.=26.553242, Alt.=177.783325m. Speed=10.260000m/h.</desc>
<speed>2.850000</speed>
</trkpt>
<trkpt lat="55.660709" lon="26.553343">
<ele>177.685669</ele>
<time>2010-07-18T10:52:26Z</time>
<desc>lat.=55.660709, lon.=26.553343, Alt.=177.685669m. Speed=9.396000m/h.</desc>
<speed>2.610000</speed>
</trkpt>
<trkpt lat="55.660698" lon="26.553410">
<ele>177.670044</ele>
<time>2010-07-18T10:52:27Z</time>
<desc>lat.=55.660698, lon.=26.553410, Alt.=177.670044m. Speed=9.540000m/h.</desc>
<speed>2.650000</speed>
</trkpt>
<trkpt lat="55.660686" lon="26.553476">
<ele>177.877075</ele>
<time>2010-07-18T10:52:28Z</time>
<desc>lat.=55.660686, lon.=26.553476, Alt.=177.877075m. Speed=9.576000m/h.</desc>
<speed>2.660000</speed>
</trkpt>
<trkpt lat="55.660664" lon="26.553541">
<ele>177.021606</ele>
<time>2010-07-18T10:52:29Z</time>
<desc>lat.=55.660664, lon.=26.553541, Alt.=177.021606m. Speed=10.764000m/h.</desc>
<speed>2.990000</speed>
</trkpt>
<trkpt lat="55.660656" lon="26.553602">
<ele>177.959106</ele>
<time>2010-07-18T10:52:30Z</time>
<desc>lat.=55.660656, lon.=26.553602, Alt.=177.959106m. Speed=9.144000m/h.</desc>
<speed>2.540000</speed>
</trkpt>
<trkpt lat="55.660645" lon="26.553659">
<ele>178.982544</ele>
<time>2010-07-18T10:52:31Z</time>
<desc>lat.=55.660645, lon.=26.553659, Alt.=178.982544m. Speed=8.280000m/h.</desc>
<speed>2.300000</speed>
</trkpt>
<trkpt lat="55.660629" lon="26.553705">
<ele>178.935669</ele>
<time>2010-07-18T10:52:32Z</time>
<desc>lat.=55.660629, lon.=26.553705, Alt.=178.935669m. Speed=7.344000m/h.</desc>
<speed>2.040000</speed>
</trkpt>
<trkpt lat="55.660625" lon="26.553764">
<ele>180.775513</ele>
<time>2010-07-18T10:52:33Z</time>
<desc>lat.=55.660625, lon.=26.553764, Alt.=180.775513m. Speed=8.316000m/h.</desc>
<speed>2.310000</speed>
</trkpt>
<trkpt lat="55.660618" lon="26.553825">
<ele>181.416138</ele>
<time>2010-07-18T10:52:34Z</time>
<desc>lat.=55.660618, lon.=26.553825, Alt.=181.416138m. Speed=8.532000m/h.</desc>
<speed>2.370000</speed>
</trkpt>
<trkpt lat="55.660610" lon="26.553886">
<ele>181.826294</ele>
<time>2010-07-18T10:52:35Z</time>
<desc>lat.=55.660610, lon.=26.553886, Alt.=181.826294m. Speed=8.784000m/h.</desc>
<speed>2.440000</speed>
</trkpt>
<trkpt lat="55.660606" lon="26.553938">
<ele>182.017700</ele>
<time>2010-07-18T10:52:36Z</time>
<desc>lat.=55.660606, lon.=26.553938, Alt.=182.017700m. Speed=9.684000m/h.</desc>
<speed>2.690000</speed>
</trkpt>
<trkpt lat="55.660603" lon="26.553989">
<ele>182.502075</ele>
<time>2010-07-18T10:52:37Z</time>
<desc>lat.=55.660603, lon.=26.553989, Alt.=182.502075m. Speed=9.036000m/h.</desc>
<speed>2.510000</speed>
</trkpt>
<trkpt lat="55.660603" lon="26.554035">
<ele>182.740356</ele>
<time>2010-07-18T10:52:38Z</time>
<desc>lat.=55.660603, lon.=26.554035, Alt.=182.740356m. Speed=8.856000m/h.</desc>
<speed>2.460000</speed>
</trkpt>
<trkpt lat="55.660599" lon="26.554110">
<ele>181.306763</ele>
<time>2010-07-18T10:52:39Z</time>
<desc>lat.=55.660599, lon.=26.554110, Alt.=181.306763m. Speed=8.712000m/h.</desc>
<speed>2.420000</speed>
</trkpt>
<trkpt lat="55.660599" lon="26.554161">
<ele>180.408325</ele>
<time>2010-07-18T10:52:40Z</time>
<desc>lat.=55.660599, lon.=26.554161, Alt.=180.408325m. Speed=7.560000m/h.</desc>
<speed>2.100000</speed>
</trkpt>
<trkpt lat="55.660599" lon="26.554220">
<ele>179.127075</ele>
<time>2010-07-18T10:52:41Z</time>
<desc>lat.=55.660599, lon.=26.554220, Alt.=179.127075m. Speed=9.036000m/h.</desc>
<speed>2.510000</speed>
</trkpt>
<trkpt lat="55.660587" lon="26.554276">
<ele>176.654419</ele>
<time>2010-07-18T10:52:42Z</time>
<desc>lat.=55.660587, lon.=26.554276, Alt.=176.654419m. Speed=8.244000m/h.</desc>
<speed>2.290000</speed>
</trkpt>
<trkpt lat="55.660587" lon="26.554327">
<ele>175.974731</ele>
<time>2010-07-18T10:52:43Z</time>
<desc>lat.=55.660587, lon.=26.554327, Alt.=175.974731m. Speed=7.740000m/h.</desc>
<speed>2.150000</speed>
</trkpt>
<trkpt lat="55.660587" lon="26.554379">
<ele>175.912231</ele>
<time>2010-07-18T10:52:44Z</time>
<desc>lat.=55.660587, lon.=26.554379, Alt.=175.912231m. Speed=6.876000m/h.</desc>
<speed>1.910000</speed>
</trkpt>
<trkpt lat="55.660564" lon="26.554438">
<ele>172.345825</ele>
<time>2010-07-18T10:52:45Z</time>
<desc>lat.=55.660564, lon.=26.554438, Alt.=172.345825m. Speed=11.340000m/h.</desc>
<speed>3.150000</speed>
</trkpt>
<trkpt lat="55.660549" lon="26.554489">
<ele>170.849731</ele>
<time>2010-07-18T10:52:46Z</time>
<desc>lat.=55.660549, lon.=26.554489, Alt.=170.849731m. Speed=10.368000m/h.</desc>
<speed>2.880000</speed>
</trkpt>
<trkpt lat="55.660545" lon="26.554546">
<ele>171.216919</ele>
<time>2010-07-18T10:52:47Z</time>
<desc>lat.=55.660545, lon.=26.554546, Alt.=171.216919m. Speed=9.684000m/h.</desc>
<speed>2.690000</speed>
</trkpt>
<trkpt lat="55.660538" lon="26.554598">
<ele>171.177856</ele>
<time>2010-07-18T10:52:48Z</time>
<desc>lat.=55.660538, lon.=26.554598, Alt.=171.177856m. Speed=8.676000m/h.</desc>
<speed>2.410000</speed>
</trkpt>
<trkpt lat="55.660526" lon="26.554644">
<ele>170.216919</ele>
<time>2010-07-18T10:52:49Z</time>
<desc>lat.=55.660526, lon.=26.554644, Alt.=170.216919m. Speed=8.352000m/h.</desc>
<speed>2.320000</speed>
</trkpt>
<trkpt lat="55.660519" lon="26.554680">
<ele>169.963013</ele>
<time>2010-07-18T10:52:50Z</time>
<desc>lat.=55.660519, lon.=26.554680, Alt.=169.963013m. Speed=6.552000m/h.</desc>
<speed>1.820000</speed>
</trkpt>
<trkpt lat="55.660515" lon="26.554722">
<ele>170.072388</ele>
<time>2010-07-18T10:52:51Z</time>
<desc>lat.=55.660515, lon.=26.554722, Alt.=170.072388m. Speed=6.228000m/h.</desc>
<speed>1.730000</speed>
</trkpt>
<trkpt lat="55.660496" lon="26.554762">
<ele>168.611450</ele>
<time>2010-07-18T10:52:52Z</time>
<desc>lat.=55.660496, lon.=26.554762, Alt.=168.611450m. Speed=9.324000m/h.</desc>
<speed>2.590000</speed>
</trkpt>
<trkpt lat="55.660496" lon="26.554821">
<ele>169.388794</ele>
<time>2010-07-18T10:52:53Z</time>
<desc>lat.=55.660496, lon.=26.554821, Alt.=169.388794m. Speed=9.648000m/h.</desc>
<speed>2.680000</speed>
</trkpt>
<trkpt lat="55.660488" lon="26.554874">
<ele>169.177856</ele>
<time>2010-07-18T10:52:54Z</time>
<desc>lat.=55.660488, lon.=26.554874, Alt.=169.177856m. Speed=9.540000m/h.</desc>
<speed>2.650000</speed>
</trkpt>
<trkpt lat="55.660469" lon="26.554935">
<ele>168.041138</ele>
<time>2010-07-18T10:52:55Z</time>
<desc>lat.=55.660469, lon.=26.554935, Alt.=168.041138m. Speed=11.196000m/h.</desc>
<speed>3.110000</speed>
</trkpt>
<trkpt lat="55.660442" lon="26.554991">
<ele>166.021606</ele>
<time>2010-07-18T10:52:56Z</time>
<desc>lat.=55.660442, lon.=26.554991, Alt.=166.021606m. Speed=10.188000m/h.</desc>
<speed>2.830000</speed>
</trkpt>
<trkpt lat="55.660435" lon="26.555037">
<ele>165.482544</ele>
<time>2010-07-18T10:52:57Z</time>
<desc>lat.=55.660435, lon.=26.555037, Alt.=165.482544m. Speed=8.316000m/h.</desc>
<speed>2.310000</speed>
</trkpt>
<trkpt lat="55.660423" lon="26.555084">
<ele>164.474731</ele>
<time>2010-07-18T10:52:58Z</time>
<desc>lat.=55.660423, lon.=26.555084, Alt.=164.474731m. Speed=8.784000m/h.</desc>
<speed>2.440000</speed>
</trkpt>
<trkpt lat="55.660412" lon="26.555130">
<ele>163.798950</ele>
<time>2010-07-18T10:52:59Z</time>
<desc>lat.=55.660412, lon.=26.555130, Alt.=163.798950m. Speed=7.920000m/h.</desc>
<speed>2.200000</speed>
</trkpt>
<trkpt lat="55.660397" lon="26.555176">
<ele>162.923950</ele>
<time>2010-07-18T10:53:00Z</time>
<desc>lat.=55.660397, lon.=26.555176, Alt.=162.923950m. Speed=5.724000m/h.</desc>
<speed>1.590000</speed>
</trkpt>
<trkpt lat="55.660393" lon="26.555212">
<ele>162.466919</ele>
<time>2010-07-18T10:53:01Z</time>
<desc>lat.=55.660393, lon.=26.555212, Alt.=162.466919m. Speed=4.248000m/h.</desc>
<speed>1.180000</speed>
</trkpt>
<trkpt lat="55.660400" lon="26.555267">
<ele>161.111450</ele>
<time>2010-07-18T10:53:02Z</time>
<desc>lat.=55.660400, lon.=26.555267, Alt.=161.111450m. Speed=7.056000m/h.</desc>
<speed>1.960000</speed>
</trkpt>
<trkpt lat="55.660393" lon="26.555307">
<ele>159.865356</ele>
<time>2010-07-18T10:53:03Z</time>
<desc>lat.=55.660393, lon.=26.555307, Alt.=159.865356m. Speed=9.288000m/h.</desc>
<speed>2.580000</speed>
</trkpt>
<trkpt lat="55.660385" lon="26.555365">
<ele>158.630981</ele>
<time>2010-07-18T10:53:04Z</time>
<desc>lat.=55.660385, lon.=26.555365, Alt.=158.630981m. Speed=10.260000m/h.</desc>
<speed>2.850000</speed>
</trkpt>
<trkpt lat="55.660385" lon="26.555433">
<ele>156.923950</ele>
<time>2010-07-18T10:53:05Z</time>
<desc>lat.=55.660385, lon.=26.555433, Alt.=156.923950m. Speed=12.240000m/h.</desc>
<speed>3.400000</speed>
</trkpt>
<trkpt lat="55.660389" lon="26.555519">
<ele>155.545044</ele>
<time>2010-07-18T10:53:06Z</time>
<desc>lat.=55.660389, lon.=26.555519, Alt.=155.545044m. Speed=11.232000m/h.</desc>
<speed>3.120000</speed>
</trkpt>
<trkpt lat="55.660393" lon="26.555603">
<ele>153.048950</ele>
<time>2010-07-18T10:53:07Z</time>
<desc>lat.=55.660393, lon.=26.555603, Alt.=153.048950m. Speed=11.880000m/h.</desc>
<speed>3.300000</speed>
</trkpt>
<trkpt lat="55.660400" lon="26.555687">
<ele>152.939575</ele>
<time>2010-07-18T10:53:08Z</time>
<desc>lat.=55.660400, lon.=26.555687, Alt.=152.939575m. Speed=12.780000m/h.</desc>
<speed>3.550000</speed>
</trkpt>
<trkpt lat="55.660404" lon="26.555777">
<ele>153.845825</ele>
<time>2010-07-18T10:53:09Z</time>
<desc>lat.=55.660404, lon.=26.555777, Alt.=153.845825m. Speed=11.844000m/h.</desc>
<speed>3.290000</speed>
</trkpt>
<trkpt lat="55.660412" lon="26.555855">
<ele>154.224731</ele>
<time>2010-07-18T10:53:10Z</time>
<desc>lat.=55.660412, lon.=26.555855, Alt.=154.224731m. Speed=13.572000m/h.</desc>
<speed>3.770000</speed>
</trkpt>
<trkpt lat="55.660416" lon="26.555941">
<ele>154.197388</ele>
<time>2010-07-18T10:53:11Z</time>
<desc>lat.=55.660416, lon.=26.555941, Alt.=154.197388m. Speed=12.168000m/h.</desc>
<speed>3.380000</speed>
</trkpt>
<trkpt lat="55.660419" lon="26.556015">
<ele>152.923950</ele>
<time>2010-07-18T10:53:12Z</time>
<desc>lat.=55.660419, lon.=26.556015, Alt.=152.923950m. Speed=12.852000m/h.</desc>
<speed>3.570000</speed>
</trkpt>
<trkpt lat="55.660412" lon="26.556072">
<ele>152.341919</ele>
<time>2010-07-18T10:53:13Z</time>
<desc>lat.=55.660412, lon.=26.556072, Alt.=152.341919m. Speed=10.152000m/h.</desc>
<speed>2.820000</speed>
</trkpt>
<trkpt lat="55.660397" lon="26.556124">
<ele>151.564575</ele>
<time>2010-07-18T10:53:14Z</time>
<desc>lat.=55.660397, lon.=26.556124, Alt.=151.564575m. Speed=9.180000m/h.</desc>
<speed>2.550000</speed>
</trkpt>
<trkpt lat="55.660393" lon="26.556171">
<ele>151.388794</ele>
<time>2010-07-18T10:53:15Z</time>
<desc>lat.=55.660393, lon.=26.556171, Alt.=151.388794m. Speed=7.956000m/h.</desc>
<speed>2.210000</speed>
</trkpt>
<trkpt lat="55.660393" lon="26.556219">
<ele>150.783325</ele>
<time>2010-07-18T10:53:16Z</time>
<desc>lat.=55.660393, lon.=26.556219, Alt.=150.783325m. Speed=9.504000m/h.</desc>
<speed>2.640000</speed>
</trkpt>
<trkpt lat="55.660397" lon="26.556278">
<ele>149.826294</ele>
<time>2010-07-18T10:53:17Z</time>
<desc>lat.=55.660397, lon.=26.556278, Alt.=149.826294m. Speed=11.628000m/h.</desc>
<speed>3.230000</speed>
</trkpt>
<trkpt lat="55.660400" lon="26.556353">
<ele>148.572388</ele>
<time>2010-07-18T10:53:18Z</time>
<desc>lat.=55.660400, lon.=26.556353, Alt.=148.572388m. Speed=13.104000m/h.</desc>
<speed>3.640000</speed>
</trkpt>
<trkpt lat="55.660397" lon="26.556416">
<ele>147.361450</ele>
<time>2010-07-18T10:53:19Z</time>
<desc>lat.=55.660397, lon.=26.556416, Alt.=147.361450m. Speed=11.304000m/h.</desc>
<speed>3.140000</speed>
</trkpt>
<trkpt lat="55.660385" lon="26.556484">
<ele>145.963013</ele>
<time>2010-07-18T10:53:20Z</time>
<desc>lat.=55.660385, lon.=26.556484, Alt.=145.963013m. Speed=10.044000m/h.</desc>
<speed>2.790000</speed>
</trkpt>
<trkpt lat="55.660370" lon="26.556526">
<ele>145.345825</ele>
<time>2010-07-18T10:53:21Z</time>
<desc>lat.=55.660370, lon.=26.556526, Alt.=145.345825m. Speed=7.560000m/h.</desc>
<speed>2.100000</speed>
</trkpt>
<trkpt lat="55.660355" lon="26.556570">
<ele>144.673950</ele>
<time>2010-07-18T10:53:22Z</time>
<desc>lat.=55.660355, lon.=26.556570, Alt.=144.673950m. Speed=8.388000m/h.</desc>
<speed>2.330000</speed>
</trkpt>
<trkpt lat="55.660351" lon="26.556625">
<ele>143.713013</ele>
<time>2010-07-18T10:53:23Z</time>
<desc>lat.=55.660351, lon.=26.556625, Alt.=143.713013m. Speed=10.872000m/h.</desc>
<speed>3.020000</speed>
</trkpt>
<trkpt lat="55.660347" lon="26.556681">
<ele>143.091919</ele>
<time>2010-07-18T10:53:24Z</time>
<desc>lat.=55.660347, lon.=26.556681, Alt.=143.091919m. Speed=10.044000m/h.</desc>
<speed>2.790000</speed>
</trkpt>
<trkpt lat="55.660351" lon="26.556755">
<ele>139.966919</ele>
<time>2010-07-18T10:53:25Z</time>
<desc>lat.=55.660351, lon.=26.556755, Alt.=139.966919m. Speed=13.176000m/h.</desc>
<speed>3.660000</speed>
</trkpt>
<trkpt lat="55.660347" lon="26.556833">
<ele>138.455200</ele>
<time>2010-07-18T10:53:26Z</time>
<desc>lat.=55.660347, lon.=26.556833, Alt.=138.455200m. Speed=12.672000m/h.</desc>
<speed>3.520000</speed>
</trkpt>
<trkpt lat="55.660347" lon="26.556921">
<ele>135.576294</ele>
<time>2010-07-18T10:53:27Z</time>
<desc>lat.=55.660347, lon.=26.556921, Alt.=135.576294m. Speed=14.832000m/h.</desc>
<speed>4.120000</speed>
</trkpt>
<trkpt lat="55.660347" lon="26.557003">
<ele>134.115356</ele>
<time>2010-07-18T10:53:28Z</time>
<desc>lat.=55.660347, lon.=26.557003, Alt.=134.115356m. Speed=12.744000m/h.</desc>
<speed>3.540000</speed>
</trkpt>
<trkpt lat="55.660332" lon="26.557070">
<ele>132.002075</ele>
<time>2010-07-18T10:53:29Z</time>
<desc>lat.=55.660332, lon.=26.557070, Alt.=132.002075m. Speed=12.564000m/h.</desc>
<speed>3.490000</speed>
</trkpt>
<trkpt lat="55.660316" lon="26.557119">
<ele>130.408325</ele>
<time>2010-07-18T10:53:30Z</time>
<desc>lat.=55.660316, lon.=26.557119, Alt.=130.408325m. Speed=11.664000m/h.</desc>
<speed>3.240000</speed>
</trkpt>
<trkpt lat="55.660286" lon="26.557167">
<ele>128.724731</ele>
<time>2010-07-18T10:53:31Z</time>
<desc>lat.=55.660286, lon.=26.557167, Alt.=128.724731m. Speed=11.592000m/h.</desc>
<speed>3.220000</speed>
</trkpt>
<trkpt lat="55.660255" lon="26.557245">
<ele>128.783325</ele>
<time>2010-07-18T10:53:32Z</time>
<desc>lat.=55.660255, lon.=26.557245, Alt.=128.783325m. Speed=11.952000m/h.</desc>
<speed>3.320000</speed>
</trkpt>
<trkpt lat="55.660233" lon="26.557333">
<ele>126.434631</ele>
<time>2010-07-18T10:53:33Z</time>
<desc>lat.=55.660233, lon.=26.557333, Alt.=126.434631m. Speed=15.264000m/h.</desc>
<speed>4.240000</speed>
</trkpt>
<trkpt lat="55.660225" lon="26.557404">
<ele>123.950256</ele>
<time>2010-07-18T10:53:34Z</time>
<desc>lat.=55.660225, lon.=26.557404, Alt.=123.950256m. Speed=14.508000m/h.</desc>
<speed>4.030000</speed>
</trkpt>
<trkpt lat="55.660213" lon="26.557476">
<ele>121.606506</ele>
<time>2010-07-18T10:53:35Z</time>
<desc>lat.=55.660213, lon.=26.557476, Alt.=121.606506m. Speed=13.284000m/h.</desc>
<speed>3.690000</speed>
</trkpt>
<trkpt lat="55.660210" lon="26.557560">
<ele>120.272522</ele>
<time>2010-07-18T10:53:36Z</time>
<desc>lat.=55.660210, lon.=26.557560, Alt.=120.272522m. Speed=15.048000m/h.</desc>
<speed>4.180000</speed>
</trkpt>
<trkpt lat="55.660198" lon="26.557623">
<ele>117.538147</ele>
<time>2010-07-18T10:53:37Z</time>
<desc>lat.=55.660198, lon.=26.557623, Alt.=117.538147m. Speed=11.268000m/h.</desc>
<speed>3.130000</speed>
</trkpt>
<trkpt lat="55.660198" lon="26.557693">
<ele>116.551819</ele>
<time>2010-07-18T10:53:38Z</time>
<desc>lat.=55.660198, lon.=26.557693, Alt.=116.551819m. Speed=11.268000m/h.</desc>
<speed>3.130000</speed>
</trkpt>
<trkpt lat="55.660210" lon="26.557764">
<ele>119.100647</ele>
<time>2010-07-18T10:53:39Z</time>
<desc>lat.=55.660210, lon.=26.557764, Alt.=119.100647m. Speed=9.000000m/h.</desc>
<speed>2.500000</speed>
</trkpt>
<trkpt lat="55.660202" lon="26.557810">
<ele>118.374084</ele>
<time>2010-07-18T10:53:40Z</time>
<desc>lat.=55.660202, lon.=26.557810, Alt.=118.374084m. Speed=8.424000m/h.</desc>
<speed>2.340000</speed>
</trkpt>
<trkpt lat="55.660202" lon="26.557877">
<ele>118.975647</ele>
<time>2010-07-18T10:53:41Z</time>
<desc>lat.=55.660202, lon.=26.557877, Alt.=118.975647m. Speed=11.556000m/h.</desc>
<speed>3.210000</speed>
</trkpt>
<trkpt lat="55.660213" lon="26.557964">
<ele>119.573303</ele>
<time>2010-07-18T10:53:42Z</time>
<desc>lat.=55.660213, lon.=26.557964, Alt.=119.573303m. Speed=13.248000m/h.</desc>
<speed>3.680000</speed>
</trkpt>
<trkpt lat="55.660225" lon="26.558044">
<ele>120.065491</ele>
<time>2010-07-18T10:53:43Z</time>
<desc>lat.=55.660225, lon.=26.558044, Alt.=120.065491m. Speed=13.536000m/h.</desc>
<speed>3.760000</speed>
</trkpt>
<trkpt lat="55.660213" lon="26.558134">
<ele>122.116272</ele>
<time>2010-07-18T10:53:44Z</time>
<desc>lat.=55.660213, lon.=26.558134, Alt.=122.116272m. Speed=9.540000m/h.</desc>
<speed>2.650000</speed>
</trkpt>
<trkpt lat="55.660213" lon="26.558199">
<ele>123.004944</ele>
<time>2010-07-18T10:53:45Z</time>
<desc>lat.=55.660213, lon.=26.558199, Alt.=123.004944m. Speed=8.424000m/h.</desc>
<speed>2.340000</speed>
</trkpt>
<trkpt lat="55.660221" lon="26.558264">
<ele>123.637756</ele>
<time>2010-07-18T10:53:46Z</time>
<desc>lat.=55.660221, lon.=26.558264, Alt.=123.637756m. Speed=10.908000m/h.</desc>
<speed>3.030000</speed>
</trkpt>
<trkpt lat="55.660225" lon="26.558334">
<ele>123.235413</ele>
<time>2010-07-18T10:53:47Z</time>
<desc>lat.=55.660225, lon.=26.558334, Alt.=123.235413m. Speed=11.124000m/h.</desc>
<speed>3.090000</speed>
</trkpt>
<trkpt lat="55.660240" lon="26.558426">
<ele>125.454163</ele>
<time>2010-07-18T10:53:48Z</time>
<desc>lat.=55.660240, lon.=26.558426, Alt.=125.454163m. Speed=12.240000m/h.</desc>
<speed>3.400000</speed>
</trkpt>
<trkpt lat="55.660244" lon="26.558508">
<ele>125.428772</ele>
<time>2010-07-18T10:53:49Z</time>
<desc>lat.=55.660244, lon.=26.558508, Alt.=125.428772m. Speed=14.184000m/h.</desc>
<speed>3.940000</speed>
</trkpt>
<trkpt lat="55.660141" lon="26.558880">
<ele>119.477600</ele>
<time>2010-07-18T10:53:50Z</time>
<desc>lat.=55.660141, lon.=26.558880, Alt.=119.477600m. Speed=17.243999m/h.</desc>
<speed>4.790000</speed>
</trkpt>
<trkpt lat="55.660126" lon="26.559053">
<ele>116.735413</ele>
<time>2010-07-18T10:53:51Z</time>
<desc>lat.=55.660126, lon.=26.559053, Alt.=116.735413m. Speed=18.072001m/h.</desc>
<speed>5.020000</speed>
</trkpt>
<trkpt lat="55.660122" lon="26.559134">
<ele>116.526428</ele>
<time>2010-07-18T10:53:52Z</time>
<desc>lat.=55.660122, lon.=26.559134, Alt.=116.526428m. Speed=17.424000m/h.</desc>
<speed>4.840000</speed>
</trkpt>
<trkpt lat="55.660110" lon="26.559275">
<ele>115.743225</ele>
<time>2010-07-18T10:53:53Z</time>
<desc>lat.=55.660110, lon.=26.559275, Alt.=115.743225m. Speed=21.420000m/h.</desc>
<speed>5.950000</speed>
</trkpt>
<trkpt lat="55.660110" lon="26.559458">
<ele>112.208069</ele>
<time>2010-07-18T10:53:54Z</time>
<desc>lat.=55.660110, lon.=26.559458, Alt.=112.208069m. Speed=22.356001m/h.</desc>
<speed>6.210000</speed>
</trkpt>
<trkpt lat="55.660118" lon="26.559582">
<ele>113.901428</ele>
<time>2010-07-18T10:53:55Z</time>
<desc>lat.=55.660118, lon.=26.559582, Alt.=113.901428m. Speed=24.264000m/h.</desc>
<speed>6.740000</speed>
</trkpt>
<trkpt lat="55.660110" lon="26.559683">
<ele>116.002991</ele>
<time>2010-07-18T10:53:56Z</time>
<desc>lat.=55.660110, lon.=26.559683, Alt.=116.002991m. Speed=23.580000m/h.</desc>
<speed>6.550000</speed>
</trkpt>
<trkpt lat="55.660118" lon="26.559835">
<ele>116.717834</ele>
<time>2010-07-18T10:53:57Z</time>
<desc>lat.=55.660118, lon.=26.559835, Alt.=116.717834m. Speed=24.660000m/h.</desc>
<speed>6.850000</speed>
</trkpt>
<trkpt lat="55.660126" lon="26.559986">
<ele>117.012756</ele>
<time>2010-07-18T10:53:58Z</time>
<desc>lat.=55.660126, lon.=26.559986, Alt.=117.012756m. Speed=24.875999m/h.</desc>
<speed>6.910000</speed>
</trkpt>
<trkpt lat="55.660130" lon="26.560139">
<ele>116.368225</ele>
<time>2010-07-18T10:53:59Z</time>
<desc>lat.=55.660130, lon.=26.560139, Alt.=116.368225m. Speed=27.000000m/h.</desc>
<speed>7.500000</speed>
</trkpt>
<trkpt lat="55.660133" lon="26.560310">
<ele>113.510803</ele>
<time>2010-07-18T10:54:00Z</time>
<desc>lat.=55.660133, lon.=26.560310, Alt.=113.510803m. Speed=28.188000m/h.</desc>
<speed>7.830000</speed>
</trkpt>
<trkpt lat="55.660133" lon="26.560469">
<ele>114.600647</ele>
<time>2010-07-18T10:54:01Z</time>
<desc>lat.=55.660133, lon.=26.560469, Alt.=114.600647m. Speed=28.368000m/h.</desc>
<speed>7.880000</speed>
</trkpt>
<trkpt lat="55.660130" lon="26.560619">
<ele>116.221741</ele>
<time>2010-07-18T10:54:02Z</time>
<desc>lat.=55.660130, lon.=26.560619, Alt.=116.221741m. Speed=27.108000m/h.</desc>
<speed>7.530000</speed>
</trkpt>
<trkpt lat="55.660130" lon="26.560764">
<ele>117.452209</ele>
<time>2010-07-18T10:54:03Z</time>
<desc>lat.=55.660130, lon.=26.560764, Alt.=117.452209m. Speed=27.072001m/h.</desc>
<speed>7.520000</speed>
</trkpt>
<trkpt lat="55.660126" lon="26.560909">
<ele>116.415100</ele>
<time>2010-07-18T10:54:04Z</time>
<desc>lat.=55.660126, lon.=26.560909, Alt.=116.415100m. Speed=28.368000m/h.</desc>
<speed>7.880000</speed>
</trkpt>
<trkpt lat="55.660126" lon="26.561064">
<ele>116.159241</ele>
<time>2010-07-18T10:54:05Z</time>
<desc>lat.=55.660126, lon.=26.561064, Alt.=116.159241m. Speed=28.440001m/h.</desc>
<speed>7.900000</speed>
</trkpt>
<trkpt lat="55.660126" lon="26.561213">
<ele>115.575256</ele>
<time>2010-07-18T10:54:06Z</time>
<desc>lat.=55.660126, lon.=26.561213, Alt.=115.575256m. Speed=29.052000m/h.</desc>
<speed>8.070000</speed>
</trkpt>
<trkpt lat="55.660130" lon="26.561367">
<ele>115.645569</ele>
<time>2010-07-18T10:54:07Z</time>
<desc>lat.=55.660130, lon.=26.561367, Alt.=115.645569m. Speed=28.799999m/h.</desc>
<speed>8.000000</speed>
</trkpt>
<trkpt lat="55.660126" lon="26.561518">
<ele>115.348694</ele>
<time>2010-07-18T10:54:08Z</time>
<desc>lat.=55.660126, lon.=26.561518, Alt.=115.348694m. Speed=28.188000m/h.</desc>
<speed>7.830000</speed>
</trkpt>
<trkpt lat="55.660141" lon="26.561647">
<ele>116.690491</ele>
<time>2010-07-18T10:54:09Z</time>
<desc>lat.=55.660141, lon.=26.561647, Alt.=116.690491m. Speed=25.128000m/h.</desc>
<speed>6.980000</speed>
</trkpt>
<trkpt lat="55.660145" lon="26.561790">
<ele>119.221741</ele>
<time>2010-07-18T10:54:10Z</time>
<desc>lat.=55.660145, lon.=26.561790, Alt.=119.221741m. Speed=26.316000m/h.</desc>
<speed>7.310000</speed>
</trkpt>
<trkpt lat="55.660141" lon="26.561951">
<ele>121.688538</ele>
<time>2010-07-18T10:54:11Z</time>
<desc>lat.=55.660141, lon.=26.561951, Alt.=121.688538m. Speed=28.260000m/h.</desc>
<speed>7.850000</speed>
</trkpt>
<trkpt lat="55.660141" lon="26.562099">
<ele>122.641663</ele>
<time>2010-07-18T10:54:12Z</time>
<desc>lat.=55.660141, lon.=26.562099, Alt.=122.641663m. Speed=28.368000m/h.</desc>
<speed>7.880000</speed>
</trkpt>
<trkpt lat="55.660133" lon="26.562243">
<ele>123.575256</ele>
<time>2010-07-18T10:54:13Z</time>
<desc>lat.=55.660133, lon.=26.562243, Alt.=123.575256m. Speed=27.827999m/h.</desc>
<speed>7.730000</speed>
</trkpt>
<trkpt lat="55.660179" lon="26.562429">
<ele>134.841919</ele>
<time>2010-07-18T10:54:14Z</time>
<desc>lat.=55.660179, lon.=26.562429, Alt.=134.841919m. Speed=28.584000m/h.</desc>
<speed>7.940000</speed>
</trkpt>
<trkpt lat="55.660194" lon="26.562576">
<ele>138.580200</ele>
<time>2010-07-18T10:54:15Z</time>
<desc>lat.=55.660194, lon.=26.562576, Alt.=138.580200m. Speed=27.108000m/h.</desc>
<speed>7.530000</speed>
</trkpt>
<trkpt lat="55.660202" lon="26.562717">
<ele>140.666138</ele>
<time>2010-07-18T10:54:16Z</time>
<desc>lat.=55.660202, lon.=26.562717, Alt.=140.666138m. Speed=26.892000m/h.</desc>
<speed>7.470000</speed>
</trkpt>
<trkpt lat="55.660213" lon="26.562851">
<ele>142.408325</ele>
<time>2010-07-18T10:54:17Z</time>
<desc>lat.=55.660213, lon.=26.562851, Alt.=142.408325m. Speed=26.964001m/h.</desc>
<speed>7.490000</speed>
</trkpt>
<trkpt lat="55.660217" lon="26.562981">
<ele>143.142700</ele>
<time>2010-07-18T10:54:18Z</time>
<desc>lat.=55.660217, lon.=26.562981, Alt.=143.142700m. Speed=27.035999m/h.</desc>
<speed>7.510000</speed>
</trkpt>
<trkpt lat="55.660213" lon="26.563122">
<ele>144.494263</ele>
<time>2010-07-18T10:54:19Z</time>
<desc>lat.=55.660213, lon.=26.563122, Alt.=144.494263m. Speed=27.756001m/h.</desc>
<speed>7.710000</speed>
</trkpt>
<trkpt lat="55.660213" lon="26.563255">
<ele>145.275513</ele>
<time>2010-07-18T10:54:20Z</time>
<desc>lat.=55.660213, lon.=26.563255, Alt.=145.275513m. Speed=27.540001m/h.</desc>
<speed>7.650000</speed>
</trkpt>
<trkpt lat="55.660213" lon="26.563381">
<ele>144.361450</ele>
<time>2010-07-18T10:54:21Z</time>
<desc>lat.=55.660213, lon.=26.563381, Alt.=144.361450m. Speed=27.108000m/h.</desc>
<speed>7.530000</speed>
</trkpt>
<trkpt lat="55.660210" lon="26.563509">
<ele>143.627075</ele>
<time>2010-07-18T10:54:22Z</time>
<desc>lat.=55.660210, lon.=26.563509, Alt.=143.627075m. Speed=26.784000m/h.</desc>
<speed>7.440000</speed>
</trkpt>
<trkpt lat="55.660213" lon="26.563631">
<ele>144.271606</ele>
<time>2010-07-18T10:54:23Z</time>
<desc>lat.=55.660213, lon.=26.563631, Alt.=144.271606m. Speed=26.496000m/h.</desc>
<speed>7.360000</speed>
</trkpt>
<trkpt lat="55.660213" lon="26.563751">
<ele>144.353638</ele>
<time>2010-07-18T10:54:24Z</time>
<desc>lat.=55.660213, lon.=26.563751, Alt.=144.353638m. Speed=26.172001m/h.</desc>
<speed>7.270000</speed>
</trkpt>
<trkpt lat="55.660213" lon="26.563871">
<ele>144.193481</ele>
<time>2010-07-18T10:54:25Z</time>
<desc>lat.=55.660213, lon.=26.563871, Alt.=144.193481m. Speed=25.667999m/h.</desc>
<speed>7.130000</speed>
</trkpt>
<trkpt lat="55.660213" lon="26.563988">
<ele>143.634888</ele>
<time>2010-07-18T10:54:26Z</time>
<desc>lat.=55.660213, lon.=26.563988, Alt.=143.634888m. Speed=24.804001m/h.</desc>
<speed>6.890000</speed>
</trkpt>
<trkpt lat="55.660213" lon="26.564095">
<ele>142.740356</ele>
<time>2010-07-18T10:54:27Z</time>
<desc>lat.=55.660213, lon.=26.564095, Alt.=142.740356m. Speed=23.940001m/h.</desc>
<speed>6.650000</speed>
</trkpt>
<trkpt lat="55.660210" lon="26.564203">
<ele>142.322388</ele>
<time>2010-07-18T10:54:28Z</time>
<desc>lat.=55.660210, lon.=26.564203, Alt.=142.322388m. Speed=23.076000m/h.</desc>
<speed>6.410000</speed>
</trkpt>
<trkpt lat="55.660213" lon="26.564308">
<ele>141.951294</ele>
<time>2010-07-18T10:54:29Z</time>
<desc>lat.=55.660213, lon.=26.564308, Alt.=141.951294m. Speed=22.608000m/h.</desc>
<speed>6.280000</speed>
</trkpt>
<trkpt lat="55.660213" lon="26.564411">
<ele>141.853638</ele>
<time>2010-07-18T10:54:30Z</time>
<desc>lat.=55.660213, lon.=26.564411, Alt.=141.853638m. Speed=21.888000m/h.</desc>
<speed>6.080000</speed>
</trkpt>
<trkpt lat="55.660210" lon="26.564508">
<ele>141.373169</ele>
<time>2010-07-18T10:54:31Z</time>
<desc>lat.=55.660210, lon.=26.564508, Alt.=141.373169m. Speed=21.275999m/h.</desc>
<speed>5.910000</speed>
</trkpt>
<trkpt lat="55.660206" lon="26.564606">
<ele>142.048950</ele>
<time>2010-07-18T10:54:32Z</time>
<desc>lat.=55.660206, lon.=26.564606, Alt.=142.048950m. Speed=20.844000m/h.</desc>
<speed>5.790000</speed>
</trkpt>
<trkpt lat="55.660187" lon="26.564722">
<ele>146.029419</ele>
<time>2010-07-18T10:54:33Z</time>
<desc>lat.=55.660187, lon.=26.564722, Alt.=146.029419m. Speed=21.132000m/h.</desc>
<speed>5.870000</speed>
</trkpt>
<trkpt lat="55.660187" lon="26.564817">
<ele>146.166138</ele>
<time>2010-07-18T10:54:34Z</time>
<desc>lat.=55.660187, lon.=26.564817, Alt.=146.166138m. Speed=21.024000m/h.</desc>
<speed>5.840000</speed>
</trkpt>
<trkpt lat="55.660187" lon="26.564917">
<ele>147.002075</ele>
<time>2010-07-18T10:54:35Z</time>
<desc>lat.=55.660187, lon.=26.564917, Alt.=147.002075m. Speed=21.312000m/h.</desc>
<speed>5.920000</speed>
</trkpt>
<trkpt lat="55.660183" lon="26.565016">
<ele>147.916138</ele>
<time>2010-07-18T10:54:36Z</time>
<desc>lat.=55.660183, lon.=26.565016, Alt.=147.916138m. Speed=21.420000m/h.</desc>
<speed>5.950000</speed>
</trkpt>
<trkpt lat="55.660179" lon="26.565104">
<ele>147.705200</ele>
<time>2010-07-18T10:54:37Z</time>
<desc>lat.=55.660179, lon.=26.565104, Alt.=147.705200m. Speed=21.743999m/h.</desc>
<speed>6.040000</speed>
</trkpt>
<trkpt lat="55.660175" lon="26.565203">
<ele>148.232544</ele>
<time>2010-07-18T10:54:38Z</time>
<desc>lat.=55.660175, lon.=26.565203, Alt.=148.232544m. Speed=22.427999m/h.</desc>
<speed>6.230000</speed>
</trkpt>
<trkpt lat="55.660168" lon="26.565304">
<ele>148.322388</ele>
<time>2010-07-18T10:54:39Z</time>
<desc>lat.=55.660168, lon.=26.565304, Alt.=148.322388m. Speed=22.860001m/h.</desc>
<speed>6.350000</speed>
</trkpt>
<trkpt lat="55.660164" lon="26.565407">
<ele>148.412231</ele>
<time>2010-07-18T10:54:40Z</time>
<desc>lat.=55.660164, lon.=26.565407, Alt.=148.412231m. Speed=23.688000m/h.</desc>
<speed>6.580000</speed>
</trkpt>
<trkpt lat="55.660160" lon="26.565512">
<ele>148.166138</ele>
<time>2010-07-18T10:54:41Z</time>
<desc>lat.=55.660160, lon.=26.565512, Alt.=148.166138m. Speed=23.256001m/h.</desc>
<speed>6.460000</speed>
</trkpt>
<trkpt lat="55.660160" lon="26.565615">
<ele>148.005981</ele>
<time>2010-07-18T10:54:42Z</time>
<desc>lat.=55.660160, lon.=26.565615, Alt.=148.005981m. Speed=23.472000m/h.</desc>
<speed>6.520000</speed>
</trkpt>
<trkpt lat="55.660160" lon="26.565716">
<ele>147.677856</ele>
<time>2010-07-18T10:54:43Z</time>
<desc>lat.=55.660160, lon.=26.565716, Alt.=147.677856m. Speed=21.492001m/h.</desc>
<speed>5.970000</speed>
</trkpt>
<trkpt lat="55.660160" lon="26.565811">
<ele>147.423950</ele>
<time>2010-07-18T10:54:44Z</time>
<desc>lat.=55.660160, lon.=26.565811, Alt.=147.423950m. Speed=21.816000m/h.</desc>
<speed>6.060000</speed>
</trkpt>
<trkpt lat="55.660152" lon="26.565910">
<ele>147.423950</ele>
<time>2010-07-18T10:54:45Z</time>
<desc>lat.=55.660152, lon.=26.565910, Alt.=147.423950m. Speed=20.304001m/h.</desc>
<speed>5.640000</speed>
</trkpt>
<trkpt lat="55.660149" lon="26.566002">
<ele>147.330200</ele>
<time>2010-07-18T10:54:46Z</time>
<desc>lat.=55.660149, lon.=26.566002, Alt.=147.330200m. Speed=19.764000m/h.</desc>
<speed>5.490000</speed>
</trkpt>
<trkpt lat="55.660141" lon="26.566095">
<ele>147.373169</ele>
<time>2010-07-18T10:54:47Z</time>
<desc>lat.=55.660141, lon.=26.566095, Alt.=147.373169m. Speed=20.952000m/h.</desc>
<speed>5.820000</speed>
</trkpt>
<trkpt lat="55.660133" lon="26.566208">
<ele>147.724731</ele>
<time>2010-07-18T10:54:48Z</time>
<desc>lat.=55.660133, lon.=26.566208, Alt.=147.724731m. Speed=22.247999m/h.</desc>
<speed>6.180000</speed>
</trkpt>
<trkpt lat="55.660126" lon="26.566313">
<ele>147.611450</ele>
<time>2010-07-18T10:54:49Z</time>
<desc>lat.=55.660126, lon.=26.566313, Alt.=147.611450m. Speed=22.535999m/h.</desc>
<speed>6.260000</speed>
</trkpt>
<trkpt lat="55.660126" lon="26.566422">
<ele>147.091919</ele>
<time>2010-07-18T10:54:50Z</time>
<desc>lat.=55.660126, lon.=26.566422, Alt.=147.091919m. Speed=22.823999m/h.</desc>
<speed>6.340000</speed>
</trkpt>
<trkpt lat="55.660122" lon="26.566526">
<ele>146.357544</ele>
<time>2010-07-18T10:54:51Z</time>
<desc>lat.=55.660122, lon.=26.566526, Alt.=146.357544m. Speed=22.968000m/h.</desc>
<speed>6.380000</speed>
</trkpt>
<trkpt lat="55.660118" lon="26.566624">
<ele>145.623169</ele>
<time>2010-07-18T10:54:52Z</time>
<desc>lat.=55.660118, lon.=26.566624, Alt.=145.623169m. Speed=22.212000m/h.</desc>
<speed>6.170000</speed>
</trkpt>
<trkpt lat="55.660114" lon="26.566721">
<ele>145.099731</ele>
<time>2010-07-18T10:54:53Z</time>
<desc>lat.=55.660114, lon.=26.566721, Alt.=145.099731m. Speed=21.455999m/h.</desc>
<speed>5.960000</speed>
</trkpt>
<trkpt lat="55.660114" lon="26.566814">
<ele>145.033325</ele>
<time>2010-07-18T10:54:54Z</time>
<desc>lat.=55.660114, lon.=26.566814, Alt.=145.033325m. Speed=20.664000m/h.</desc>
<speed>5.740000</speed>
</trkpt>
<trkpt lat="55.660110" lon="26.566910">
<ele>144.990356</ele>
<time>2010-07-18T10:54:55Z</time>
<desc>lat.=55.660110, lon.=26.566910, Alt.=144.990356m. Speed=19.944000m/h.</desc>
<speed>5.540000</speed>
</trkpt>
<trkpt lat="55.660110" lon="26.566998">
<ele>144.826294</ele>
<time>2010-07-18T10:54:56Z</time>
<desc>lat.=55.660110, lon.=26.566998, Alt.=144.826294m. Speed=19.115999m/h.</desc>
<speed>5.310000</speed>
</trkpt>
<trkpt lat="55.660114" lon="26.567080">
<ele>144.326294</ele>
<time>2010-07-18T10:54:57Z</time>
<desc>lat.=55.660114, lon.=26.567080, Alt.=144.326294m. Speed=18.180000m/h.</desc>
<speed>5.050000</speed>
</trkpt>
<trkpt lat="55.660114" lon="26.567148">
<ele>143.193481</ele>
<time>2010-07-18T10:54:58Z</time>
<desc>lat.=55.660114, lon.=26.567148, Alt.=143.193481m. Speed=17.208000m/h.</desc>
<speed>4.780000</speed>
</trkpt>
<trkpt lat="55.660118" lon="26.567219">
<ele>141.963013</ele>
<time>2010-07-18T10:54:59Z</time>
<desc>lat.=55.660118, lon.=26.567219, Alt.=141.963013m. Speed=16.632000m/h.</desc>
<speed>4.620000</speed>
</trkpt>
<trkpt lat="55.660118" lon="26.567286">
<ele>141.068481</ele>
<time>2010-07-18T10:55:00Z</time>
<desc>lat.=55.660118, lon.=26.567286, Alt.=141.068481m. Speed=15.444000m/h.</desc>
<speed>4.290000</speed>
</trkpt>
<trkpt lat="55.660122" lon="26.567350">
<ele>140.603638</ele>
<time>2010-07-18T10:55:01Z</time>
<desc>lat.=55.660122, lon.=26.567350, Alt.=140.603638m. Speed=13.968000m/h.</desc>
<speed>3.880000</speed>
</trkpt>
<trkpt lat="55.660126" lon="26.567406">
<ele>139.998169</ele>
<time>2010-07-18T10:55:02Z</time>
<desc>lat.=55.660126, lon.=26.567406, Alt.=139.998169m. Speed=12.780000m/h.</desc>
<speed>3.550000</speed>
</trkpt>
<trkpt lat="55.660126" lon="26.567455">
<ele>139.427856</ele>
<time>2010-07-18T10:55:03Z</time>
<desc>lat.=55.660126, lon.=26.567455, Alt.=139.427856m. Speed=11.376000m/h.</desc>
<speed>3.160000</speed>
</trkpt>
<trkpt lat="55.660133" lon="26.567509">
<ele>138.970825</ele>
<time>2010-07-18T10:55:04Z</time>
<desc>lat.=55.660133, lon.=26.567509, Alt.=138.970825m. Speed=11.556000m/h.</desc>
<speed>3.210000</speed>
</trkpt>
<trkpt lat="55.660141" lon="26.567568">
<ele>138.041138</ele>
<time>2010-07-18T10:55:05Z</time>
<desc>lat.=55.660141, lon.=26.567568, Alt.=138.041138m. Speed=11.412000m/h.</desc>
<speed>3.170000</speed>
</trkpt>
<trkpt lat="55.660141" lon="26.567642">
<ele>138.466919</ele>
<time>2010-07-18T10:55:06Z</time>
<desc>lat.=55.660141, lon.=26.567642, Alt.=138.466919m. Speed=11.880000m/h.</desc>
<speed>3.300000</speed>
</trkpt>
<trkpt lat="55.660149" lon="26.567699">
<ele>138.314575</ele>
<time>2010-07-18T10:55:07Z</time>
<desc>lat.=55.660149, lon.=26.567699, Alt.=138.314575m. Speed=11.448000m/h.</desc>
<speed>3.180000</speed>
</trkpt>
<trkpt lat="55.660149" lon="26.567749">
<ele>137.572388</ele>
<time>2010-07-18T10:55:08Z</time>
<desc>lat.=55.660149, lon.=26.567749, Alt.=137.572388m. Speed=11.772000m/h.</desc>
<speed>3.270000</speed>
</trkpt>
<trkpt lat="55.660156" lon="26.567804">
<ele>137.732544</ele>
<time>2010-07-18T10:55:09Z</time>
<desc>lat.=55.660156, lon.=26.567804, Alt.=137.732544m. Speed=12.096000m/h.</desc>
<speed>3.360000</speed>
</trkpt>
<trkpt lat="55.660160" lon="26.567856">
<ele>137.603638</ele>
<time>2010-07-18T10:55:10Z</time>
<desc>lat.=55.660160, lon.=26.567856, Alt.=137.603638m. Speed=11.772000m/h.</desc>
<speed>3.270000</speed>
</trkpt>
<trkpt lat="55.660156" lon="26.567915">
<ele>138.064575</ele>
<time>2010-07-18T10:55:11Z</time>
<desc>lat.=55.660156, lon.=26.567915, Alt.=138.064575m. Speed=11.988000m/h.</desc>
<speed>3.330000</speed>
</trkpt>
<trkpt lat="55.660160" lon="26.567984">
<ele>138.146606</ele>
<time>2010-07-18T10:55:12Z</time>
<desc>lat.=55.660160, lon.=26.567984, Alt.=138.146606m. Speed=13.932000m/h.</desc>
<speed>3.870000</speed>
</trkpt>
<trkpt lat="55.660160" lon="26.568048">
<ele>138.048950</ele>
<time>2010-07-18T10:55:13Z</time>
<desc>lat.=55.660160, lon.=26.568048, Alt.=138.048950m. Speed=14.148000m/h.</desc>
<speed>3.930000</speed>
</trkpt>
<trkpt lat="55.660160" lon="26.568108">
<ele>137.697388</ele>
<time>2010-07-18T10:55:14Z</time>
<desc>lat.=55.660160, lon.=26.568108, Alt.=137.697388m. Speed=12.600000m/h.</desc>
<speed>3.500000</speed>
</trkpt>
<trkpt lat="55.660168" lon="26.568169">
<ele>137.357544</ele>
<time>2010-07-18T10:55:15Z</time>
<desc>lat.=55.660168, lon.=26.568169, Alt.=137.357544m. Speed=12.816000m/h.</desc>
<speed>3.560000</speed>
</trkpt>
<trkpt lat="55.660172" lon="26.568233">
<ele>137.115356</ele>
<time>2010-07-18T10:55:16Z</time>
<desc>lat.=55.660172, lon.=26.568233, Alt.=137.115356m. Speed=13.212000m/h.</desc>
<speed>3.670000</speed>
</trkpt>
<trkpt lat="55.660172" lon="26.568295">
<ele>136.666138</ele>
<time>2010-07-18T10:55:17Z</time>
<desc>lat.=55.660172, lon.=26.568295, Alt.=136.666138m. Speed=15.336000m/h.</desc>
<speed>4.260000</speed>
</trkpt>
<trkpt lat="55.660172" lon="26.568369">
<ele>136.173950</ele>
<time>2010-07-18T10:55:18Z</time>
<desc>lat.=55.660172, lon.=26.568369, Alt.=136.173950m. Speed=16.524000m/h.</desc>
<speed>4.590000</speed>
</trkpt>
<trkpt lat="55.660179" lon="26.568453">
<ele>136.295044</ele>
<time>2010-07-18T10:55:19Z</time>
<desc>lat.=55.660179, lon.=26.568453, Alt.=136.295044m. Speed=17.243999m/h.</desc>
<speed>4.790000</speed>
</trkpt>
<trkpt lat="55.660179" lon="26.568537">
<ele>136.154419</ele>
<time>2010-07-18T10:55:20Z</time>
<desc>lat.=55.660179, lon.=26.568537, Alt.=136.154419m. Speed=18.143999m/h.</desc>
<speed>5.040000</speed>
</trkpt>
<trkpt lat="55.660183" lon="26.568636">
<ele>136.427856</ele>
<time>2010-07-18T10:55:21Z</time>
<desc>lat.=55.660183, lon.=26.568636, Alt.=136.427856m. Speed=19.044001m/h.</desc>
<speed>5.290000</speed>
</trkpt>
<trkpt lat="55.660210" lon="26.568760">
<ele>142.345825</ele>
<time>2010-07-18T10:55:22Z</time>
<desc>lat.=55.660210, lon.=26.568760, Alt.=142.345825m. Speed=21.096001m/h.</desc>
<speed>5.860000</speed>
</trkpt>
<trkpt lat="55.660217" lon="26.568859">
<ele>143.548950</ele>
<time>2010-07-18T10:55:23Z</time>
<desc>lat.=55.660217, lon.=26.568859, Alt.=143.548950m. Speed=19.044001m/h.</desc>
<speed>5.290000</speed>
</trkpt>
<trkpt lat="55.660221" lon="26.568945">
<ele>144.752075</ele>
<time>2010-07-18T10:55:24Z</time>
<desc>lat.=55.660221, lon.=26.568945, Alt.=144.752075m. Speed=17.639999m/h.</desc>
<speed>4.900000</speed>
</trkpt>
<trkpt lat="55.660225" lon="26.569029">
<ele>146.138794</ele>
<time>2010-07-18T10:55:25Z</time>
<desc>lat.=55.660225, lon.=26.569029, Alt.=146.138794m. Speed=17.351999m/h.</desc>
<speed>4.820000</speed>
</trkpt>
<trkpt lat="55.660233" lon="26.569105">
<ele>146.439575</ele>
<time>2010-07-18T10:55:26Z</time>
<desc>lat.=55.660233, lon.=26.569105, Alt.=146.439575m. Speed=17.568001m/h.</desc>
<speed>4.880000</speed>
</trkpt>
<trkpt lat="55.660236" lon="26.569181">
<ele>147.568481</ele>
<time>2010-07-18T10:55:27Z</time>
<desc>lat.=55.660236, lon.=26.569181, Alt.=147.568481m. Speed=18.360001m/h.</desc>
<speed>5.100000</speed>
</trkpt>
<trkpt lat="55.660244" lon="26.569265">
<ele>147.396606</ele>
<time>2010-07-18T10:55:28Z</time>
<desc>lat.=55.660244, lon.=26.569265, Alt.=147.396606m. Speed=18.864000m/h.</desc>
<speed>5.240000</speed>
</trkpt>
<trkpt lat="55.660248" lon="26.569357">
<ele>147.279419</ele>
<time>2010-07-18T10:55:29Z</time>
<desc>lat.=55.660248, lon.=26.569357, Alt.=147.279419m. Speed=19.511999m/h.</desc>
<speed>5.420000</speed>
</trkpt>
<trkpt lat="55.660259" lon="26.569450">
<ele>147.115356</ele>
<time>2010-07-18T10:55:30Z</time>
<desc>lat.=55.660259, lon.=26.569450, Alt.=147.115356m. Speed=20.736000m/h.</desc>
<speed>5.760000</speed>
</trkpt>
<trkpt lat="55.660271" lon="26.569546">
<ele>146.908325</ele>
<time>2010-07-18T10:55:31Z</time>
<desc>lat.=55.660271, lon.=26.569546, Alt.=146.908325m. Speed=20.556000m/h.</desc>
<speed>5.710000</speed>
</trkpt>
<trkpt lat="55.660286" lon="26.569632">
<ele>146.142700</ele>
<time>2010-07-18T10:55:32Z</time>
<desc>lat.=55.660286, lon.=26.569632, Alt.=146.142700m. Speed=19.007999m/h.</desc>
<speed>5.280000</speed>
</trkpt>
<trkpt lat="55.660301" lon="26.569710">
<ele>145.791138</ele>
<time>2010-07-18T10:55:33Z</time>
<desc>lat.=55.660301, lon.=26.569710, Alt.=145.791138m. Speed=17.459999m/h.</desc>
<speed>4.850000</speed>
</trkpt>
<trkpt lat="55.660316" lon="26.569784">
<ele>145.400513</ele>
<time>2010-07-18T10:55:34Z</time>
<desc>lat.=55.660316, lon.=26.569784, Alt.=145.400513m. Speed=15.732000m/h.</desc>
<speed>4.370000</speed>
</trkpt>
<trkpt lat="55.660328" lon="26.569847">
<ele>144.986450</ele>
<time>2010-07-18T10:55:35Z</time>
<desc>lat.=55.660328, lon.=26.569847, Alt.=144.986450m. Speed=13.788000m/h.</desc>
<speed>3.830000</speed>
</trkpt>
<trkpt lat="55.660336" lon="26.569901">
<ele>144.986450</ele>
<time>2010-07-18T10:55:36Z</time>
<desc>lat.=55.660336, lon.=26.569901, Alt.=144.986450m. Speed=12.168000m/h.</desc>
<speed>3.380000</speed>
</trkpt>
<trkpt lat="55.660343" lon="26.569948">
<ele>145.310669</ele>
<time>2010-07-18T10:55:37Z</time>
<desc>lat.=55.660343, lon.=26.569948, Alt.=145.310669m. Speed=10.044000m/h.</desc>
<speed>2.790000</speed>
</trkpt>
<trkpt lat="55.660351" lon="26.569986">
<ele>145.490356</ele>
<time>2010-07-18T10:55:38Z</time>
<desc>lat.=55.660351, lon.=26.569986, Alt.=145.490356m. Speed=8.352000m/h.</desc>
<speed>2.320000</speed>
</trkpt>
<trkpt lat="55.660351" lon="26.570017">
<ele>145.720825</ele>
<time>2010-07-18T10:55:39Z</time>
<desc>lat.=55.660351, lon.=26.570017, Alt.=145.720825m. Speed=5.580000m/h.</desc>
<speed>1.550000</speed>
</trkpt>
<trkpt lat="55.660351" lon="26.570038">
<ele>145.654419</ele>
<time>2010-07-18T10:55:40Z</time>
<desc>lat.=55.660351, lon.=26.570038, Alt.=145.654419m. Speed=4.788000m/h.</desc>
<speed>1.330000</speed>
</trkpt>
<trkpt lat="55.660355" lon="26.570057">
<ele>145.888794</ele>
<time>2010-07-18T10:55:41Z</time>
<desc>lat.=55.660355, lon.=26.570057, Alt.=145.888794m. Speed=4.464000m/h.</desc>
<speed>1.240000</speed>
</trkpt>
<trkpt lat="55.660358" lon="26.570076">
<ele>145.310669</ele>
<time>2010-07-18T10:55:42Z</time>
<desc>lat.=55.660358, lon.=26.570076, Alt.=145.310669m. Speed=4.896000m/h.</desc>
<speed>1.360000</speed>
</trkpt>
<trkpt lat="55.660358" lon="26.570101">
<ele>145.236450</ele>
<time>2010-07-18T10:55:43Z</time>
<desc>lat.=55.660358, lon.=26.570101, Alt.=145.236450m. Speed=5.652000m/h.</desc>
<speed>1.570000</speed>
</trkpt>
<trkpt lat="55.660366" lon="26.570131">
<ele>145.037231</ele>
<time>2010-07-18T10:55:44Z</time>
<desc>lat.=55.660366, lon.=26.570131, Alt.=145.037231m. Speed=6.228000m/h.</desc>
<speed>1.730000</speed>
</trkpt>
<trkpt lat="55.660366" lon="26.570162">
<ele>144.759888</ele>
<time>2010-07-18T10:55:45Z</time>
<desc>lat.=55.660366, lon.=26.570162, Alt.=144.759888m. Speed=5.616000m/h.</desc>
<speed>1.560000</speed>
</trkpt>
<trkpt lat="55.660366" lon="26.570190">
<ele>144.326294</ele>
<time>2010-07-18T10:55:46Z</time>
<desc>lat.=55.660366, lon.=26.570190, Alt.=144.326294m. Speed=4.968000m/h.</desc>
<speed>1.380000</speed>
</trkpt>
<trkpt lat="55.660370" lon="26.570211">
<ele>143.888794</ele>
<time>2010-07-18T10:55:47Z</time>
<desc>lat.=55.660370, lon.=26.570211, Alt.=143.888794m. Speed=3.816000m/h.</desc>
<speed>1.060000</speed>
</trkpt>
<trkpt lat="55.660366" lon="26.570229">
<ele>143.361450</ele>
<time>2010-07-18T10:55:48Z</time>
<desc>lat.=55.660366, lon.=26.570229, Alt.=143.361450m. Speed=2.952000m/h.</desc>
<speed>0.820000</speed>
</trkpt>
<trkpt lat="55.660366" lon="26.570242">
<ele>143.052856</ele>
<time>2010-07-18T10:55:49Z</time>
<desc>lat.=55.660366, lon.=26.570242, Alt.=143.052856m. Speed=2.988000m/h.</desc>
<speed>0.830000</speed>
</trkpt>
<trkpt lat="55.660366" lon="26.570255">
<ele>142.619263</ele>
<time>2010-07-18T10:55:50Z</time>
<desc>lat.=55.660366, lon.=26.570255, Alt.=142.619263m. Speed=1.620000m/h.</desc>
<speed>0.450000</speed>
</trkpt>
<trkpt lat="55.660366" lon="26.570253">
<ele>142.384888</ele>
<time>2010-07-18T10:55:51Z</time>
<desc>lat.=55.660366, lon.=26.570253, Alt.=142.384888m. Speed=1.116000m/h.</desc>
<speed>0.310000</speed>
</trkpt>
<trkpt lat="55.660362" lon="26.570255">
<ele>142.224731</ele>
<time>2010-07-18T10:55:52Z</time>
<desc>lat.=55.660362, lon.=26.570255, Alt.=142.224731m. Speed=0.684000m/h.</desc>
<speed>0.190000</speed>
</trkpt>
<trkpt lat="55.660362" lon="26.570257">
<ele>142.068481</ele>
<time>2010-07-18T10:55:53Z</time>
<desc>lat.=55.660362, lon.=26.570257, Alt.=142.068481m. Speed=0.792000m/h.</desc>
<speed>0.220000</speed>
</trkpt>
<trkpt lat="55.660358" lon="26.570259">
<ele>141.966919</ele>
<time>2010-07-18T10:55:54Z</time>
<desc>lat.=55.660358, lon.=26.570259, Alt.=141.966919m. Speed=0.324000m/h.</desc>
<speed>0.090000</speed>
</trkpt>
<trkpt lat="55.660358" lon="26.570261">
<ele>141.888794</ele>
<time>2010-07-18T10:55:55Z</time>
<desc>lat.=55.660358, lon.=26.570261, Alt.=141.888794m. Speed=0.036000m/h.</desc>
<speed>0.010000</speed>
</trkpt>
<trkpt lat="55.660358" lon="26.570261">
<ele>141.830200</ele>
<time>2010-07-18T10:55:56Z</time>
<desc>lat.=55.660358, lon.=26.570261, Alt.=141.830200m. Speed=0.216000m/h.</desc>
<speed>0.060000</speed>
</trkpt>
<trkpt lat="55.660358" lon="26.570261">
<ele>141.783325</ele>
<time>2010-07-18T10:55:57Z</time>
<desc>lat.=55.660358, lon.=26.570261, Alt.=141.783325m. Speed=0.288000m/h.</desc>
<speed>0.080000</speed>
</trkpt>
<trkpt lat="55.660358" lon="26.570263">
<ele>141.755981</ele>
<time>2010-07-18T10:55:58Z</time>
<desc>lat.=55.660358, lon.=26.570263, Alt.=141.755981m. Speed=0.144000m/h.</desc>
<speed>0.040000</speed>
</trkpt>
<trkpt lat="55.660358" lon="26.570263">
<ele>141.736450</ele>
<time>2010-07-18T10:55:59Z</time>
<desc>lat.=55.660358, lon.=26.570263, Alt.=141.736450m. Speed=0.504000m/h.</desc>
<speed>0.140000</speed>
</trkpt>
<trkpt lat="55.660358" lon="26.570265">
<ele>141.732544</ele>
<time>2010-07-18T10:56:00Z</time>
<desc>lat.=55.660358, lon.=26.570265, Alt.=141.732544m. Speed=0.288000m/h.</desc>
<speed>0.080000</speed>
</trkpt>
<trkpt lat="55.660355" lon="26.570265">
<ele>141.736450</ele>
<time>2010-07-18T10:56:01Z</time>
<desc>lat.=55.660355, lon.=26.570265, Alt.=141.736450m. Speed=0.072000m/h.</desc>
<speed>0.020000</speed>
</trkpt>
<trkpt lat="55.660358" lon="26.570265">
<ele>141.748169</ele>
<time>2010-07-18T10:56:02Z</time>
<desc>lat.=55.660358, lon.=26.570265, Alt.=141.748169m. Speed=0.180000m/h.</desc>
<speed>0.050000</speed>
</trkpt>
<trkpt lat="55.660355" lon="26.570265">
<ele>141.736450</ele>
<time>2010-07-18T10:56:03Z</time>
<desc>lat.=55.660355, lon.=26.570265, Alt.=141.736450m. Speed=0.072000m/h.</desc>
<speed>0.020000</speed>
</trkpt>
<trkpt lat="55.660355" lon="26.570265">
<ele>141.740356</ele>
<time>2010-07-18T10:56:04Z</time>
<desc>lat.=55.660355, lon.=26.570265, Alt.=141.740356m. Speed=0.036000m/h.</desc>
<speed>0.010000</speed>
</trkpt>
<trkpt lat="55.660355" lon="26.570265">
<ele>141.763794</ele>
<time>2010-07-18T10:56:05Z</time>
<desc>lat.=55.660355, lon.=26.570265, Alt.=141.763794m. Speed=0.108000m/h.</desc>
<speed>0.030000</speed>
</trkpt>
<trkpt lat="55.660355" lon="26.570267">
<ele>141.795044</ele>
<time>2010-07-18T10:56:06Z</time>
<desc>lat.=55.660355, lon.=26.570267, Alt.=141.795044m. Speed=0.252000m/h.</desc>
<speed>0.070000</speed>
</trkpt>
<trkpt lat="55.660355" lon="26.570267">
<ele>141.806763</ele>
<time>2010-07-18T10:56:07Z</time>
<desc>lat.=55.660355, lon.=26.570267, Alt.=141.806763m. Speed=0.108000m/h.</desc>
<speed>0.030000</speed>
</trkpt>
<trkpt lat="55.660355" lon="26.570265">
<ele>141.802856</ele>
<time>2010-07-18T10:56:08Z</time>
<desc>lat.=55.660355, lon.=26.570265, Alt.=141.802856m. Speed=0.072000m/h.</desc>
<speed>0.020000</speed>
</trkpt>
<trkpt lat="55.660355" lon="26.570265">
<ele>141.814575</ele>
<time>2010-07-18T10:56:09Z</time>
<desc>lat.=55.660355, lon.=26.570265, Alt.=141.814575m. Speed=0.108000m/h.</desc>
<speed>0.030000</speed>
</trkpt>
<trkpt lat="55.660358" lon="26.570265">
<ele>141.826294</ele>
<time>2010-07-18T10:56:10Z</time>
<desc>lat.=55.660358, lon.=26.570265, Alt.=141.826294m. Speed=0.036000m/h.</desc>
<speed>0.010000</speed>
</trkpt>
<trkpt lat="55.660355" lon="26.570265">
<ele>141.838013</ele>
<time>2010-07-18T10:56:11Z</time>
<desc>lat.=55.660355, lon.=26.570265, Alt.=141.838013m. Speed=0.144000m/h.</desc>
<speed>0.040000</speed>
</trkpt>
<trkpt lat="55.660355" lon="26.570265">
<ele>141.857544</ele>
<time>2010-07-18T10:56:12Z</time>
<desc>lat.=55.660355, lon.=26.570265, Alt.=141.857544m. Speed=0.036000m/h.</desc>
<speed>0.010000</speed>
</trkpt>
<trkpt lat="55.660355" lon="26.570265">
<ele>141.873169</ele>
<time>2010-07-18T10:56:13Z</time>
<desc>lat.=55.660355, lon.=26.570265, Alt.=141.873169m. Speed=0.036000m/h.</desc>
<speed>0.010000</speed>
</trkpt>
<trkpt lat="55.660355" lon="26.570265">
<ele>141.880981</ele>
<time>2010-07-18T10:56:14Z</time>
<desc>lat.=55.660355, lon.=26.570265, Alt.=141.880981m. Speed=0.000000m/h.</desc>
<speed>0.000000</speed>
</trkpt>
<trkpt lat="55.660355" lon="26.570265">
<ele>141.884888</ele>
<time>2010-07-18T10:56:15Z</time>
<desc>lat.=55.660355, lon.=26.570265, Alt.=141.884888m. Speed=0.000000m/h.</desc>
<speed>0.000000</speed>
</trkpt>
<trkpt lat="55.660355" lon="26.570265">
<ele>141.884888</ele>
<time>2010-07-18T10:56:16Z</time>
<desc>lat.=55.660355, lon.=26.570265, Alt.=141.884888m. Speed=0.036000m/h.</desc>
<speed>0.010000</speed>
</trkpt>
<trkpt lat="55.660355" lon="26.570265">
<ele>141.892700</ele>
<time>2010-07-18T10:56:17Z</time>
<desc>lat.=55.660355, lon.=26.570265, Alt.=141.892700m. Speed=0.036000m/h.</desc>
<speed>0.010000</speed>
</trkpt>
<trkpt lat="55.660355" lon="26.570265">
<ele>141.896606</ele>
<time>2010-07-18T10:56:18Z</time>
<desc>lat.=55.660355, lon.=26.570265, Alt.=141.896606m. Speed=0.000000m/h.</desc>
<speed>0.000000</speed>
</trkpt>
<trkpt lat="55.660355" lon="26.570265">
<ele>141.904419</ele>
<time>2010-07-18T10:56:19Z</time>
<desc>lat.=55.660355, lon.=26.570265, Alt.=141.904419m. Speed=0.072000m/h.</desc>
<speed>0.020000</speed>
</trkpt>
<trkpt lat="55.660355" lon="26.570265">
<ele>141.904419</ele>
<time>2010-07-18T10:56:20Z</time>
<desc>lat.=55.660355, lon.=26.570265, Alt.=141.904419m. Speed=0.000000m/h.</desc>
<speed>0.000000</speed>
</trkpt>
<trkpt lat="55.660355" lon="26.570265">
<ele>141.908325</ele>
<time>2010-07-18T10:56:21Z</time>
<desc>lat.=55.660355, lon.=26.570265, Alt.=141.908325m. Speed=0.000000m/h.</desc>
<speed>0.000000</speed>
</trkpt>
<trkpt lat="55.660355" lon="26.570265">
<ele>141.908325</ele>
<time>2010-07-18T10:56:22Z</time>
<desc>lat.=55.660355, lon.=26.570265, Alt.=141.908325m. Speed=0.000000m/h.</desc>
<speed>0.000000</speed>
</trkpt>
<trkpt lat="55.660355" lon="26.570265">
<ele>141.916138</ele>
<time>2010-07-18T10:56:23Z</time>
<desc>lat.=55.660355, lon.=26.570265, Alt.=141.916138m. Speed=0.036000m/h.</desc>
<speed>0.010000</speed>
</trkpt>
<trkpt lat="55.660355" lon="26.570265">
<ele>141.920044</ele>
<time>2010-07-18T10:56:24Z</time>
<desc>lat.=55.660355, lon.=26.570265, Alt.=141.920044m. Speed=0.036000m/h.</desc>
<speed>0.010000</speed>
</trkpt>
<trkpt lat="55.660355" lon="26.570265">
<ele>141.923950</ele>
<time>2010-07-18T10:56:25Z</time>
<desc>lat.=55.660355, lon.=26.570265, Alt.=141.923950m. Speed=0.036000m/h.</desc>
<speed>0.010000</speed>
</trkpt>
<trkpt lat="55.660355" lon="26.570265">
<ele>141.923950</ele>
<time>2010-07-18T10:56:26Z</time>
<desc>lat.=55.660355, lon.=26.570265, Alt.=141.923950m. Speed=0.072000m/h.</desc>
<speed>0.020000</speed>
</trkpt>
<trkpt lat="55.660355" lon="26.570265">
<ele>141.935669</ele>
<time>2010-07-18T10:56:27Z</time>
<desc>lat.=55.660355, lon.=26.570265, Alt.=141.935669m. Speed=0.072000m/h.</desc>
<speed>0.020000</speed>
</trkpt>
<trkpt lat="55.660355" lon="26.570265">
<ele>141.939575</ele>
<time>2010-07-18T10:56:28Z</time>
<desc>lat.=55.660355, lon.=26.570265, Alt.=141.939575m. Speed=0.000000m/h.</desc>
<speed>0.000000</speed>
</trkpt>
<trkpt lat="55.660355" lon="26.570265">
<ele>141.947388</ele>
<time>2010-07-18T10:56:29Z</time>
<desc>lat.=55.660355, lon.=26.570265, Alt.=141.947388m. Speed=0.000000m/h.</desc>
<speed>0.000000</speed>
</trkpt>
<trkpt lat="55.660355" lon="26.570265">
<ele>141.951294</ele>
<time>2010-07-18T10:56:30Z</time>
<desc>lat.=55.660355, lon.=26.570265, Alt.=141.951294m. Speed=0.036000m/h.</desc>
<speed>0.010000</speed>
</trkpt>
<trkpt lat="55.660355" lon="26.570265">
<ele>141.955200</ele>
<time>2010-07-18T10:56:31Z</time>
<desc>lat.=55.660355, lon.=26.570265, Alt.=141.955200m. Speed=0.000000m/h.</desc>
<speed>0.000000</speed>
</trkpt>
<trkpt lat="55.660355" lon="26.570265">
<ele>141.959106</ele>
<time>2010-07-18T10:56:32Z</time>
<desc>lat.=55.660355, lon.=26.570265, Alt.=141.959106m. Speed=0.072000m/h.</desc>
<speed>0.020000</speed>
</trkpt>
<trkpt lat="55.660355" lon="26.570265">
<ele>141.970825</ele>
<time>2010-07-18T10:56:33Z</time>
<desc>lat.=55.660355, lon.=26.570265, Alt.=141.970825m. Speed=0.036000m/h.</desc>
<speed>0.010000</speed>
</trkpt>
<trkpt lat="55.660355" lon="26.570265">
<ele>141.978638</ele>
<time>2010-07-18T10:56:34Z</time>
<desc>lat.=55.660355, lon.=26.570265, Alt.=141.978638m. Speed=0.000000m/h.</desc>
<speed>0.000000</speed>
</trkpt>
<trkpt lat="55.660355" lon="26.570265">
<ele>141.982544</ele>
<time>2010-07-18T10:56:35Z</time>
<desc>lat.=55.660355, lon.=26.570265, Alt.=141.982544m. Speed=0.036000m/h.</desc>
<speed>0.010000</speed>
</trkpt>
<trkpt lat="55.660355" lon="26.570265">
<ele>141.986450</ele>
<time>2010-07-18T10:56:36Z</time>
<desc>lat.=55.660355, lon.=26.570265, Alt.=141.986450m. Speed=0.072000m/h.</desc>
<speed>0.020000</speed>
</trkpt>
<trkpt lat="55.660355" lon="26.570265">
<ele>141.994263</ele>
<time>2010-07-18T10:56:37Z</time>
<desc>lat.=55.660355, lon.=26.570265, Alt.=141.994263m. Speed=0.000000m/h.</desc>
<speed>0.000000</speed>
</trkpt>
<trkpt lat="55.660355" lon="26.570265">
<ele>142.002075</ele>
<time>2010-07-18T10:56:38Z</time>
<desc>lat.=55.660355, lon.=26.570265, Alt.=142.002075m. Speed=0.000000m/h.</desc>
<speed>0.000000</speed>
</trkpt>
<trkpt lat="55.660355" lon="26.570265">
<ele>142.009888</ele>
<time>2010-07-18T10:56:39Z</time>
<desc>lat.=55.660355, lon.=26.570265, Alt.=142.009888m. Speed=0.000000m/h.</desc>
<speed>0.000000</speed>
</trkpt>
<trkpt lat="55.660355" lon="26.570265">
<ele>142.013794</ele>
<time>2010-07-18T10:56:40Z</time>
<desc>lat.=55.660355, lon.=26.570265, Alt.=142.013794m. Speed=0.000000m/h.</desc>
<speed>0.000000</speed>
</trkpt>
<trkpt lat="55.660355" lon="26.570265">
<ele>142.017700</ele>
<time>2010-07-18T10:56:41Z</time>
<desc>lat.=55.660355, lon.=26.570265, Alt.=142.017700m. Speed=0.000000m/h.</desc>
<speed>0.000000</speed>
</trkpt>
<trkpt lat="55.660355" lon="26.570265">
<ele>142.025513</ele>
<time>2010-07-18T10:56:42Z</time>
<desc>lat.=55.660355, lon.=26.570265, Alt.=142.025513m. Speed=0.000000m/h.</desc>
<speed>0.000000</speed>
</trkpt>
<trkpt lat="55.660355" lon="26.570265">
<ele>142.029419</ele>
<time>2010-07-18T10:56:43Z</time>
<desc>lat.=55.660355, lon.=26.570265, Alt.=142.029419m. Speed=0.000000m/h.</desc>
<speed>0.000000</speed>
</trkpt>
<trkpt lat="55.660355" lon="26.570265">
<ele>142.033325</ele>
<time>2010-07-18T10:56:44Z</time>
<desc>lat.=55.660355, lon.=26.570265, Alt.=142.033325m. Speed=0.000000m/h.</desc>
<speed>0.000000</speed>
</trkpt>
<trkpt lat="55.660355" lon="26.570265">
<ele>142.037231</ele>
<time>2010-07-18T10:56:45Z</time>
<desc>lat.=55.660355, lon.=26.570265, Alt.=142.037231m. Speed=0.000000m/h.</desc>
<speed>0.000000</speed>
</trkpt>
<trkpt lat="55.660355" lon="26.570265">
<ele>142.041138</ele>
<time>2010-07-18T10:56:46Z</time>
<desc>lat.=55.660355, lon.=26.570265, Alt.=142.041138m. Speed=0.000000m/h.</desc>
<speed>0.000000</speed>
</trkpt>
<trkpt lat="55.660355" lon="26.570265">
<ele>142.045044</ele>
<time>2010-07-18T10:56:47Z</time>
<desc>lat.=55.660355, lon.=26.570265, Alt.=142.045044m. Speed=0.108000m/h.</desc>
<speed>0.030000</speed>
</trkpt>
<trkpt lat="55.660355" lon="26.570265">
<ele>142.056763</ele>
<time>2010-07-18T10:56:48Z</time>
<desc>lat.=55.660355, lon.=26.570265, Alt.=142.056763m. Speed=0.072000m/h.</desc>
<speed>0.020000</speed>
</trkpt>
<trkpt lat="55.660355" lon="26.570265">
<ele>142.060669</ele>
<time>2010-07-18T10:56:49Z</time>
<desc>lat.=55.660355, lon.=26.570265, Alt.=142.060669m. Speed=0.252000m/h.</desc>
<speed>0.070000</speed>
</trkpt>
<trkpt lat="55.660355" lon="26.570265">
<ele>142.068481</ele>
<time>2010-07-18T10:56:50Z</time>
<desc>lat.=55.660355, lon.=26.570265, Alt.=142.068481m. Speed=0.108000m/h.</desc>
<speed>0.030000</speed>
</trkpt>
<trkpt lat="55.660355" lon="26.570265">
<ele>142.076294</ele>
<time>2010-07-18T10:56:51Z</time>
<desc>lat.=55.660355, lon.=26.570265, Alt.=142.076294m. Speed=0.072000m/h.</desc>
<speed>0.020000</speed>
</trkpt>
<trkpt lat="55.660355" lon="26.570265">
<ele>142.072388</ele>
<time>2010-07-18T10:56:52Z</time>
<desc>lat.=55.660355, lon.=26.570265, Alt.=142.072388m. Speed=0.108000m/h.</desc>
<speed>0.030000</speed>
</trkpt>
<trkpt lat="55.660355" lon="26.570265">
<ele>142.072388</ele>
<time>2010-07-18T10:56:53Z</time>
<desc>lat.=55.660355, lon.=26.570265, Alt.=142.072388m. Speed=0.432000m/h.</desc>
<speed>0.120000</speed>
</trkpt>
<trkpt lat="55.660355" lon="26.570265">
<ele>142.064575</ele>
<time>2010-07-18T10:56:54Z</time>
<desc>lat.=55.660355, lon.=26.570265, Alt.=142.064575m. Speed=0.288000m/h.</desc>
<speed>0.080000</speed>
</trkpt>
<trkpt lat="55.660355" lon="26.570265">
<ele>142.064575</ele>
<time>2010-07-18T10:56:55Z</time>
<desc>lat.=55.660355, lon.=26.570265, Alt.=142.064575m. Speed=3.600000m/h.</desc>
<speed>1.000000</speed>
</trkpt>
<trkpt lat="55.660362" lon="26.570253">
<ele>142.384888</ele>
<time>2010-07-18T10:56:56Z</time>
<desc>lat.=55.660362, lon.=26.570253, Alt.=142.384888m. Speed=3.924000m/h.</desc>
<speed>1.090000</speed>
</trkpt>
<trkpt lat="55.660374" lon="26.570240">
<ele>142.580200</ele>
<time>2010-07-18T10:56:57Z</time>
<desc>lat.=55.660374, lon.=26.570240, Alt.=142.580200m. Speed=4.068000m/h.</desc>
<speed>1.130000</speed>
</trkpt>
<trkpt lat="55.660381" lon="26.570229">
<ele>142.521606</ele>
<time>2010-07-18T10:56:58Z</time>
<desc>lat.=55.660381, lon.=26.570229, Alt.=142.521606m. Speed=3.240000m/h.</desc>
<speed>0.900000</speed>
</trkpt>
<trkpt lat="55.660385" lon="26.570217">
<ele>142.361450</ele>
<time>2010-07-18T10:56:59Z</time>
<desc>lat.=55.660385, lon.=26.570217, Alt.=142.361450m. Speed=2.304000m/h.</desc>
<speed>0.640000</speed>
</trkpt>
<trkpt lat="55.660389" lon="26.570210">
<ele>142.341919</ele>
<time>2010-07-18T10:57:00Z</time>
<desc>lat.=55.660389, lon.=26.570210, Alt.=142.341919m. Speed=0.324000m/h.</desc>
<speed>0.090000</speed>
</trkpt>
<trkpt lat="55.660397" lon="26.570202">
<ele>142.146606</ele>
<time>2010-07-18T10:57:01Z</time>
<desc>lat.=55.660397, lon.=26.570202, Alt.=142.146606m. Speed=3.384000m/h.</desc>
<speed>0.940000</speed>
</trkpt>
<trkpt lat="55.660408" lon="26.570189">
<ele>141.873169</ele>
<time>2010-07-18T10:57:02Z</time>
<desc>lat.=55.660408, lon.=26.570189, Alt.=141.873169m. Speed=4.932000m/h.</desc>
<speed>1.370000</speed>
</trkpt>
<trkpt lat="55.660408" lon="26.570160">
<ele>141.662231</ele>
<time>2010-07-18T10:57:03Z</time>
<desc>lat.=55.660408, lon.=26.570160, Alt.=141.662231m. Speed=7.776000m/h.</desc>
<speed>2.160000</speed>
</trkpt>
<trkpt lat="55.660404" lon="26.570116">
<ele>141.529419</ele>
<time>2010-07-18T10:57:04Z</time>
<desc>lat.=55.660404, lon.=26.570116, Alt.=141.529419m. Speed=9.648000m/h.</desc>
<speed>2.680000</speed>
</trkpt>
<trkpt lat="55.660393" lon="26.570066">
<ele>141.423950</ele>
<time>2010-07-18T10:57:05Z</time>
<desc>lat.=55.660393, lon.=26.570066, Alt.=141.423950m. Speed=13.968000m/h.</desc>
<speed>3.880000</speed>
</trkpt>
<trkpt lat="55.660381" lon="26.570021">
<ele>141.482544</ele>
<time>2010-07-18T10:57:06Z</time>
<desc>lat.=55.660381, lon.=26.570021, Alt.=141.482544m. Speed=10.260000m/h.</desc>
<speed>2.850000</speed>
</trkpt>
<trkpt lat="55.660366" lon="26.569975">
<ele>141.728638</ele>
<time>2010-07-18T10:57:07Z</time>
<desc>lat.=55.660366, lon.=26.569975, Alt.=141.728638m. Speed=11.880000m/h.</desc>
<speed>3.300000</speed>
</trkpt>
<trkpt lat="55.660355" lon="26.569923">
<ele>141.670044</ele>
<time>2010-07-18T10:57:08Z</time>
<desc>lat.=55.660355, lon.=26.569923, Alt.=141.670044m. Speed=12.420000m/h.</desc>
<speed>3.450000</speed>
</trkpt>
<trkpt lat="55.660339" lon="26.569853">
<ele>140.091919</ele>
<time>2010-07-18T10:57:09Z</time>
<desc>lat.=55.660339, lon.=26.569853, Alt.=140.091919m. Speed=16.236000m/h.</desc>
<speed>4.510000</speed>
</trkpt>
<trkpt lat="55.660324" lon="26.569792">
<ele>139.400513</ele>
<time>2010-07-18T10:57:10Z</time>
<desc>lat.=55.660324, lon.=26.569792, Alt.=139.400513m. Speed=14.256000m/h.</desc>
<speed>3.960000</speed>
</trkpt>
<trkpt lat="55.660313" lon="26.569731">
<ele>139.396606</ele>
<time>2010-07-18T10:57:11Z</time>
<desc>lat.=55.660313, lon.=26.569731, Alt.=139.396606m. Speed=14.904000m/h.</desc>
<speed>4.140000</speed>
</trkpt>
<trkpt lat="55.660294" lon="26.569666">
<ele>139.216919</ele>
<time>2010-07-18T10:57:12Z</time>
<desc>lat.=55.660294, lon.=26.569666, Alt.=139.216919m. Speed=16.416000m/h.</desc>
<speed>4.560000</speed>
</trkpt>
<trkpt lat="55.660271" lon="26.569597">
<ele>138.900513</ele>
<time>2010-07-18T10:57:13Z</time>
<desc>lat.=55.660271, lon.=26.569597, Alt.=138.900513m. Speed=15.840000m/h.</desc>
<speed>4.400000</speed>
</trkpt>
<trkpt lat="55.660255" lon="26.569538">
<ele>138.486450</ele>
<time>2010-07-18T10:57:14Z</time>
<desc>lat.=55.660255, lon.=26.569538, Alt.=138.486450m. Speed=13.824000m/h.</desc>
<speed>3.840000</speed>
</trkpt>
<trkpt lat="55.660248" lon="26.569481">
<ele>138.310669</ele>
<time>2010-07-18T10:57:15Z</time>
<desc>lat.=55.660248, lon.=26.569481, Alt.=138.310669m. Speed=13.896000m/h.</desc>
<speed>3.860000</speed>
</trkpt>
<trkpt lat="55.660236" lon="26.569422">
<ele>138.095825</ele>
<time>2010-07-18T10:57:16Z</time>
<desc>lat.=55.660236, lon.=26.569422, Alt.=138.095825m. Speed=13.284000m/h.</desc>
<speed>3.690000</speed>
</trkpt>
<trkpt lat="55.660236" lon="26.569365">
<ele>138.080200</ele>
<time>2010-07-18T10:57:17Z</time>
<desc>lat.=55.660236, lon.=26.569365, Alt.=138.080200m. Speed=13.716000m/h.</desc>
<speed>3.810000</speed>
</trkpt>
<trkpt lat="55.660229" lon="26.569296">
<ele>138.072388</ele>
<time>2010-07-18T10:57:18Z</time>
<desc>lat.=55.660229, lon.=26.569296, Alt.=138.072388m. Speed=15.372000m/h.</desc>
<speed>4.270000</speed>
</trkpt>
<trkpt lat="55.660225" lon="26.569225">
<ele>137.955200</ele>
<time>2010-07-18T10:57:19Z</time>
<desc>lat.=55.660225, lon.=26.569225, Alt.=137.955200m. Speed=15.084000m/h.</desc>
<speed>4.190000</speed>
</trkpt>
<trkpt lat="55.660221" lon="26.569162">
<ele>137.841919</ele>
<time>2010-07-18T10:57:20Z</time>
<desc>lat.=55.660221, lon.=26.569162, Alt.=137.841919m. Speed=12.492000m/h.</desc>
<speed>3.470000</speed>
</trkpt>
<trkpt lat="55.660217" lon="26.569094">
<ele>137.713013</ele>
<time>2010-07-18T10:57:21Z</time>
<desc>lat.=55.660217, lon.=26.569094, Alt.=137.713013m. Speed=16.379999m/h.</desc>
<speed>4.550000</speed>
</trkpt>
<trkpt lat="55.660213" lon="26.569017">
<ele>137.783325</ele>
<time>2010-07-18T10:57:22Z</time>
<desc>lat.=55.660213, lon.=26.569017, Alt.=137.783325m. Speed=15.552000m/h.</desc>
<speed>4.320000</speed>
</trkpt>
<trkpt lat="55.660213" lon="26.568956">
<ele>137.990356</ele>
<time>2010-07-18T10:57:23Z</time>
<desc>lat.=55.660213, lon.=26.568956, Alt.=137.990356m. Speed=14.040000m/h.</desc>
<speed>3.900000</speed>
</trkpt>
<trkpt lat="55.660217" lon="26.568895">
<ele>138.857544</ele>
<time>2010-07-18T10:57:24Z</time>
<desc>lat.=55.660217, lon.=26.568895, Alt.=138.857544m. Speed=12.924000m/h.</desc>
<speed>3.590000</speed>
</trkpt>
<trkpt lat="55.660217" lon="26.568836">
<ele>139.072388</ele>
<time>2010-07-18T10:57:25Z</time>
<desc>lat.=55.660217, lon.=26.568836, Alt.=139.072388m. Speed=13.032000m/h.</desc>
<speed>3.620000</speed>
</trkpt>
<trkpt lat="55.660221" lon="26.568777">
<ele>139.404419</ele>
<time>2010-07-18T10:57:26Z</time>
<desc>lat.=55.660221, lon.=26.568777, Alt.=139.404419m. Speed=12.744000m/h.</desc>
<speed>3.540000</speed>
</trkpt>
<trkpt lat="55.660221" lon="26.568714">
<ele>140.705200</ele>
<time>2010-07-18T10:57:27Z</time>
<desc>lat.=55.660221, lon.=26.568714, Alt.=140.705200m. Speed=13.356000m/h.</desc>
<speed>3.710000</speed>
</trkpt>
<trkpt lat="55.660221" lon="26.568655">
<ele>141.189575</ele>
<time>2010-07-18T10:57:28Z</time>
<desc>lat.=55.660221, lon.=26.568655, Alt.=141.189575m. Speed=12.960000m/h.</desc>
<speed>3.600000</speed>
</trkpt>
<trkpt lat="55.660225" lon="26.568602">
<ele>142.017700</ele>
<time>2010-07-18T10:57:29Z</time>
<desc>lat.=55.660225, lon.=26.568602, Alt.=142.017700m. Speed=11.520000m/h.</desc>
<speed>3.200000</speed>
</trkpt>
<trkpt lat="55.660229" lon="26.568560">
<ele>142.865356</ele>
<time>2010-07-18T10:57:30Z</time>
<desc>lat.=55.660229, lon.=26.568560, Alt.=142.865356m. Speed=8.460000m/h.</desc>
<speed>2.350000</speed>
</trkpt>
<trkpt lat="55.660229" lon="26.568521">
<ele>143.486450</ele>
<time>2010-07-18T10:57:31Z</time>
<desc>lat.=55.660229, lon.=26.568521, Alt.=143.486450m. Speed=7.560000m/h.</desc>
<speed>2.100000</speed>
</trkpt>
<trkpt lat="55.660229" lon="26.568487">
<ele>143.630981</ele>
<time>2010-07-18T10:57:32Z</time>
<desc>lat.=55.660229, lon.=26.568487, Alt.=143.630981m. Speed=6.048000m/h.</desc>
<speed>1.680000</speed>
</trkpt>
<trkpt lat="55.660229" lon="26.568459">
<ele>144.173950</ele>
<time>2010-07-18T10:57:33Z</time>
<desc>lat.=55.660229, lon.=26.568459, Alt.=144.173950m. Speed=4.824000m/h.</desc>
<speed>1.340000</speed>
</trkpt>
<trkpt lat="55.660233" lon="26.568438">
<ele>144.466919</ele>
<time>2010-07-18T10:57:34Z</time>
<desc>lat.=55.660233, lon.=26.568438, Alt.=144.466919m. Speed=3.816000m/h.</desc>
<speed>1.060000</speed>
</trkpt>
<trkpt lat="55.660233" lon="26.568430">
<ele>145.146606</ele>
<time>2010-07-18T10:57:35Z</time>
<desc>lat.=55.660233, lon.=26.568430, Alt.=145.146606m. Speed=1.152000m/h.</desc>
<speed>0.320000</speed>
</trkpt>
<trkpt lat="55.660236" lon="26.568430">
<ele>145.732544</ele>
<time>2010-07-18T10:57:36Z</time>
<desc>lat.=55.660236, lon.=26.568430, Alt.=145.732544m. Speed=0.612000m/h.</desc>
<speed>0.170000</speed>
</trkpt>
<trkpt lat="55.660236" lon="26.568430">
<ele>145.509888</ele>
<time>2010-07-18T10:57:37Z</time>
<desc>lat.=55.660236, lon.=26.568430, Alt.=145.509888m. Speed=0.504000m/h.</desc>
<speed>0.140000</speed>
</trkpt>
<trkpt lat="55.660233" lon="26.568417">
<ele>145.060669</ele>
<time>2010-07-18T10:57:38Z</time>
<desc>lat.=55.660233, lon.=26.568417, Alt.=145.060669m. Speed=0.468000m/h.</desc>
<speed>0.130000</speed>
</trkpt>
<trkpt lat="55.660233" lon="26.568415">
<ele>145.115356</ele>
<time>2010-07-18T10:57:39Z</time>
<desc>lat.=55.660233, lon.=26.568415, Alt.=145.115356m. Speed=0.252000m/h.</desc>
<speed>0.070000</speed>
</trkpt>
<trkpt lat="55.660233" lon="26.568415">
<ele>145.158325</ele>
<time>2010-07-18T10:57:40Z</time>
<desc>lat.=55.660233, lon.=26.568415, Alt.=145.158325m. Speed=0.324000m/h.</desc>
<speed>0.090000</speed>
</trkpt>
<trkpt lat="55.660233" lon="26.568413">
<ele>145.201294</ele>
<time>2010-07-18T10:57:41Z</time>
<desc>lat.=55.660233, lon.=26.568413, Alt.=145.201294m. Speed=0.288000m/h.</desc>
<speed>0.080000</speed>
</trkpt>
<trkpt lat="55.660233" lon="26.568411">
<ele>145.228638</ele>
<time>2010-07-18T10:57:42Z</time>
<desc>lat.=55.660233, lon.=26.568411, Alt.=145.228638m. Speed=0.720000m/h.</desc>
<speed>0.200000</speed>
</trkpt>
<trkpt lat="55.660233" lon="26.568409">
<ele>145.252075</ele>
<time>2010-07-18T10:57:43Z</time>
<desc>lat.=55.660233, lon.=26.568409, Alt.=145.252075m. Speed=1.188000m/h.</desc>
<speed>0.330000</speed>
</trkpt>
<trkpt lat="55.660236" lon="26.568405">
<ele>145.275513</ele>
<time>2010-07-18T10:57:44Z</time>
<desc>lat.=55.660236, lon.=26.568405, Alt.=145.275513m. Speed=0.864000m/h.</desc>
<speed>0.240000</speed>
</trkpt>
<trkpt lat="55.660236" lon="26.568405">
<ele>145.295044</ele>
<time>2010-07-18T10:57:45Z</time>
<desc>lat.=55.660236, lon.=26.568405, Alt.=145.295044m. Speed=0.072000m/h.</desc>
<speed>0.020000</speed>
</trkpt>
<trkpt lat="55.660236" lon="26.568403">
<ele>145.310669</ele>
<time>2010-07-18T10:57:46Z</time>
<desc>lat.=55.660236, lon.=26.568403, Alt.=145.310669m. Speed=0.468000m/h.</desc>
<speed>0.130000</speed>
</trkpt>
<trkpt lat="55.660240" lon="26.568403">
<ele>145.322388</ele>
<time>2010-07-18T10:57:47Z</time>
<desc>lat.=55.660240, lon.=26.568403, Alt.=145.322388m. Speed=0.324000m/h.</desc>
<speed>0.090000</speed>
</trkpt>
<trkpt lat="55.660240" lon="26.568403">
<ele>145.334106</ele>
<time>2010-07-18T10:57:48Z</time>
<desc>lat.=55.660240, lon.=26.568403, Alt.=145.334106m. Speed=0.072000m/h.</desc>
<speed>0.020000</speed>
</trkpt>
<trkpt lat="55.660240" lon="26.568403">
<ele>145.345825</ele>
<time>2010-07-18T10:57:49Z</time>
<desc>lat.=55.660240, lon.=26.568403, Alt.=145.345825m. Speed=0.324000m/h.</desc>
<speed>0.090000</speed>
</trkpt>
<trkpt lat="55.660240" lon="26.568403">
<ele>145.357544</ele>
<time>2010-07-18T10:57:50Z</time>
<desc>lat.=55.660240, lon.=26.568403, Alt.=145.357544m. Speed=0.864000m/h.</desc>
<speed>0.240000</speed>
</trkpt>
<trkpt lat="55.660240" lon="26.568403">
<ele>145.361450</ele>
<time>2010-07-18T10:57:51Z</time>
<desc>lat.=55.660240, lon.=26.568403, Alt.=145.361450m. Speed=0.252000m/h.</desc>
<speed>0.070000</speed>
</trkpt>
<trkpt lat="55.660236" lon="26.568403">
<ele>145.369263</ele>
<time>2010-07-18T10:57:52Z</time>
<desc>lat.=55.660236, lon.=26.568403, Alt.=145.369263m. Speed=0.216000m/h.</desc>
<speed>0.060000</speed>
</trkpt>
<trkpt lat="55.660236" lon="26.568401">
<ele>145.373169</ele>
<time>2010-07-18T10:57:53Z</time>
<desc>lat.=55.660236, lon.=26.568401, Alt.=145.373169m. Speed=0.396000m/h.</desc>
<speed>0.110000</speed>
</trkpt>
<trkpt lat="55.660236" lon="26.568399">
<ele>145.380981</ele>
<time>2010-07-18T10:57:54Z</time>
<desc>lat.=55.660236, lon.=26.568399, Alt.=145.380981m. Speed=0.324000m/h.</desc>
<speed>0.090000</speed>
</trkpt>
<trkpt lat="55.660240" lon="26.568399">
<ele>145.384888</ele>
<time>2010-07-18T10:57:55Z</time>
<desc>lat.=55.660240, lon.=26.568399, Alt.=145.384888m. Speed=0.324000m/h.</desc>
<speed>0.090000</speed>
</trkpt>
<trkpt lat="55.660240" lon="26.568398">
<ele>145.388794</ele>
<time>2010-07-18T10:57:56Z</time>
<desc>lat.=55.660240, lon.=26.568398, Alt.=145.388794m. Speed=1.440000m/h.</desc>
<speed>0.400000</speed>
</trkpt>
<trkpt lat="55.660240" lon="26.568392">
<ele>145.396606</ele>
<time>2010-07-18T10:57:57Z</time>
<desc>lat.=55.660240, lon.=26.568392, Alt.=145.396606m. Speed=2.988000m/h.</desc>
<speed>0.830000</speed>
</trkpt>
<trkpt lat="55.660244" lon="26.568382">
<ele>145.408325</ele>
<time>2010-07-18T10:57:58Z</time>
<desc>lat.=55.660244, lon.=26.568382, Alt.=145.408325m. Speed=2.808000m/h.</desc>
<speed>0.780000</speed>
</trkpt>
<trkpt lat="55.660252" lon="26.568380">
<ele>145.412231</ele>
<time>2010-07-18T10:57:59Z</time>
<desc>lat.=55.660252, lon.=26.568380, Alt.=145.412231m. Speed=2.520000m/h.</desc>
<speed>0.700000</speed>
</trkpt>
<trkpt lat="55.660259" lon="26.568386">
<ele>145.416138</ele>
<time>2010-07-18T10:58:00Z</time>
<desc>lat.=55.660259, lon.=26.568386, Alt.=145.416138m. Speed=3.276000m/h.</desc>
<speed>0.910000</speed>
</trkpt>
<trkpt lat="55.660263" lon="26.568398">
<ele>145.420044</ele>
<time>2010-07-18T10:58:01Z</time>
<desc>lat.=55.660263, lon.=26.568398, Alt.=145.420044m. Speed=3.564000m/h.</desc>
<speed>0.990000</speed>
</trkpt>
<trkpt lat="55.660267" lon="26.568411">
<ele>145.427856</ele>
<time>2010-07-18T10:58:02Z</time>
<desc>lat.=55.660267, lon.=26.568411, Alt.=145.427856m. Speed=5.328000m/h.</desc>
<speed>1.480000</speed>
</trkpt>
<trkpt lat="55.660263" lon="26.568439">
<ele>145.314575</ele>
<time>2010-07-18T10:58:03Z</time>
<desc>lat.=55.660263, lon.=26.568439, Alt.=145.314575m. Speed=6.228000m/h.</desc>
<speed>1.730000</speed>
</trkpt>
<trkpt lat="55.660263" lon="26.568478">
<ele>145.498169</ele>
<time>2010-07-18T10:58:04Z</time>
<desc>lat.=55.660263, lon.=26.568478, Alt.=145.498169m. Speed=8.136000m/h.</desc>
<speed>2.260000</speed>
</trkpt>
<trkpt lat="55.660252" lon="26.568516">
<ele>145.478638</ele>
<time>2010-07-18T10:58:05Z</time>
<desc>lat.=55.660252, lon.=26.568516, Alt.=145.478638m. Speed=10.224000m/h.</desc>
<speed>2.840000</speed>
</trkpt>
<trkpt lat="55.660240" lon="26.568562">
<ele>145.330200</ele>
<time>2010-07-18T10:58:06Z</time>
<desc>lat.=55.660240, lon.=26.568562, Alt.=145.330200m. Speed=11.088000m/h.</desc>
<speed>3.080000</speed>
</trkpt>
<trkpt lat="55.660233" lon="26.568613">
<ele>145.295044</ele>
<time>2010-07-18T10:58:07Z</time>
<desc>lat.=55.660233, lon.=26.568613, Alt.=145.295044m. Speed=12.204000m/h.</desc>
<speed>3.390000</speed>
</trkpt>
<trkpt lat="55.660236" lon="26.568674">
<ele>145.236450</ele>
<time>2010-07-18T10:58:08Z</time>
<desc>lat.=55.660236, lon.=26.568674, Alt.=145.236450m. Speed=12.888000m/h.</desc>
<speed>3.580000</speed>
</trkpt>
<trkpt lat="55.660233" lon="26.568735">
<ele>145.142700</ele>
<time>2010-07-18T10:58:09Z</time>
<desc>lat.=55.660233, lon.=26.568735, Alt.=145.142700m. Speed=13.896000m/h.</desc>
<speed>3.860000</speed>
</trkpt>
<trkpt lat="55.660233" lon="26.568796">
<ele>144.998169</ele>
<time>2010-07-18T10:58:10Z</time>
<desc>lat.=55.660233, lon.=26.568796, Alt.=144.998169m. Speed=14.868000m/h.</desc>
<speed>4.130000</speed>
</trkpt>
<trkpt lat="55.660236" lon="26.568865">
<ele>144.685669</ele>
<time>2010-07-18T10:58:11Z</time>
<desc>lat.=55.660236, lon.=26.568865, Alt.=144.685669m. Speed=15.696000m/h.</desc>
<speed>4.360000</speed>
</trkpt>
<trkpt lat="55.660236" lon="26.568937">
<ele>144.736450</ele>
<time>2010-07-18T10:58:12Z</time>
<desc>lat.=55.660236, lon.=26.568937, Alt.=144.736450m. Speed=16.452000m/h.</desc>
<speed>4.570000</speed>
</trkpt>
<trkpt lat="55.660244" lon="26.569012">
<ele>144.388794</ele>
<time>2010-07-18T10:58:13Z</time>
<desc>lat.=55.660244, lon.=26.569012, Alt.=144.388794m. Speed=17.063999m/h.</desc>
<speed>4.740000</speed>
</trkpt>
<trkpt lat="55.660248" lon="26.569088">
<ele>144.045044</ele>
<time>2010-07-18T10:58:14Z</time>
<desc>lat.=55.660248, lon.=26.569088, Alt.=144.045044m. Speed=17.604000m/h.</desc>
<speed>4.890000</speed>
</trkpt>
<trkpt lat="55.660252" lon="26.569166">
<ele>143.986450</ele>
<time>2010-07-18T10:58:15Z</time>
<desc>lat.=55.660252, lon.=26.569166, Alt.=143.986450m. Speed=18.792000m/h.</desc>
<speed>5.220000</speed>
</trkpt>
<trkpt lat="55.660259" lon="26.569258">
<ele>144.494263</ele>
<time>2010-07-18T10:58:16Z</time>
<desc>lat.=55.660259, lon.=26.569258, Alt.=144.494263m. Speed=19.691999m/h.</desc>
<speed>5.470000</speed>
</trkpt>
<trkpt lat="55.660263" lon="26.569347">
<ele>144.873169</ele>
<time>2010-07-18T10:58:17Z</time>
<desc>lat.=55.660263, lon.=26.569347, Alt.=144.873169m. Speed=20.448000m/h.</desc>
<speed>5.680000</speed>
</trkpt>
<trkpt lat="55.660275" lon="26.569441">
<ele>144.728638</ele>
<time>2010-07-18T10:58:18Z</time>
<desc>lat.=55.660275, lon.=26.569441, Alt.=144.728638m. Speed=21.528000m/h.</desc>
<speed>5.980000</speed>
</trkpt>
<trkpt lat="55.660290" lon="26.569536">
<ele>144.638794</ele>
<time>2010-07-18T10:58:19Z</time>
<desc>lat.=55.660290, lon.=26.569536, Alt.=144.638794m. Speed=22.608000m/h.</desc>
<speed>6.280000</speed>
</trkpt>
<trkpt lat="55.660301" lon="26.569637">
<ele>144.537231</ele>
<time>2010-07-18T10:58:20Z</time>
<desc>lat.=55.660301, lon.=26.569637, Alt.=144.537231m. Speed=23.544001m/h.</desc>
<speed>6.540000</speed>
</trkpt>
<trkpt lat="55.660316" lon="26.569742">
<ele>144.041138</ele>
<time>2010-07-18T10:58:21Z</time>
<desc>lat.=55.660316, lon.=26.569742, Alt.=144.041138m. Speed=24.624001m/h.</desc>
<speed>6.840000</speed>
</trkpt>
<trkpt lat="55.660336" lon="26.569851">
<ele>143.724731</ele>
<time>2010-07-18T10:58:22Z</time>
<desc>lat.=55.660336, lon.=26.569851, Alt.=143.724731m. Speed=25.775999m/h.</desc>
<speed>7.160000</speed>
</trkpt>
<trkpt lat="55.660358" lon="26.569969">
<ele>143.447388</ele>
<time>2010-07-18T10:58:23Z</time>
<desc>lat.=55.660358, lon.=26.569969, Alt.=143.447388m. Speed=26.316000m/h.</desc>
<speed>7.310000</speed>
</trkpt>
<trkpt lat="55.660385" lon="26.570080">
<ele>143.201294</ele>
<time>2010-07-18T10:58:24Z</time>
<desc>lat.=55.660385, lon.=26.570080, Alt.=143.201294m. Speed=26.496000m/h.</desc>
<speed>7.360000</speed>
</trkpt>
<trkpt lat="55.660408" lon="26.570190">
<ele>143.025513</ele>
<time>2010-07-18T10:58:25Z</time>
<desc>lat.=55.660408, lon.=26.570190, Alt.=143.025513m. Speed=26.243999m/h.</desc>
<speed>7.290000</speed>
</trkpt>
<trkpt lat="55.660435" lon="26.570295">
<ele>142.966919</ele>
<time>2010-07-18T10:58:26Z</time>
<desc>lat.=55.660435, lon.=26.570295, Alt.=142.966919m. Speed=24.983999m/h.</desc>
<speed>6.940000</speed>
</trkpt>
<trkpt lat="55.660458" lon="26.570391">
<ele>143.123169</ele>
<time>2010-07-18T10:58:27Z</time>
<desc>lat.=55.660458, lon.=26.570391, Alt.=143.123169m. Speed=23.292000m/h.</desc>
<speed>6.470000</speed>
</trkpt>
<trkpt lat="55.660484" lon="26.570478">
<ele>143.150513</ele>
<time>2010-07-18T10:58:28Z</time>
<desc>lat.=55.660484, lon.=26.570478, Alt.=143.150513m. Speed=20.375999m/h.</desc>
<speed>5.660000</speed>
</trkpt>
<trkpt lat="55.660503" lon="26.570557">
<ele>143.080200</ele>
<time>2010-07-18T10:58:29Z</time>
<desc>lat.=55.660503, lon.=26.570557, Alt.=143.080200m. Speed=19.080000m/h.</desc>
<speed>5.300000</speed>
</trkpt>
<trkpt lat="55.660526" lon="26.570625">
<ele>143.763794</ele>
<time>2010-07-18T10:58:30Z</time>
<desc>lat.=55.660526, lon.=26.570625, Alt.=143.763794m. Speed=16.848000m/h.</desc>
<speed>4.680000</speed>
</trkpt>
<trkpt lat="55.660542" lon="26.570681">
<ele>144.068481</ele>
<time>2010-07-18T10:58:31Z</time>
<desc>lat.=55.660542, lon.=26.570681, Alt.=144.068481m. Speed=12.960000m/h.</desc>
<speed>3.600000</speed>
</trkpt>
<trkpt lat="55.660557" lon="26.570728">
<ele>143.900513</ele>
<time>2010-07-18T10:58:32Z</time>
<desc>lat.=55.660557, lon.=26.570728, Alt.=143.900513m. Speed=8.604000m/h.</desc>
<speed>2.390000</speed>
</trkpt>
<trkpt lat="55.660568" lon="26.570751">
<ele>144.181763</ele>
<time>2010-07-18T10:58:33Z</time>
<desc>lat.=55.660568, lon.=26.570751, Alt.=144.181763m. Speed=6.012000m/h.</desc>
<speed>1.670000</speed>
</trkpt>
<trkpt lat="55.660572" lon="26.570768">
<ele>144.365356</ele>
<time>2010-07-18T10:58:34Z</time>
<desc>lat.=55.660572, lon.=26.570768, Alt.=144.365356m. Speed=3.492000m/h.</desc>
<speed>0.970000</speed>
</trkpt>
<trkpt lat="55.660580" lon="26.570786">
<ele>144.556763</ele>
<time>2010-07-18T10:58:35Z</time>
<desc>lat.=55.660580, lon.=26.570786, Alt.=144.556763m. Speed=4.860000m/h.</desc>
<speed>1.350000</speed>
</trkpt>
<trkpt lat="55.660583" lon="26.570801">
<ele>144.732544</ele>
<time>2010-07-18T10:58:36Z</time>
<desc>lat.=55.660583, lon.=26.570801, Alt.=144.732544m. Speed=2.988000m/h.</desc>
<speed>0.830000</speed>
</trkpt>
<trkpt lat="55.660583" lon="26.570810">
<ele>145.052856</ele>
<time>2010-07-18T10:58:37Z</time>
<desc>lat.=55.660583, lon.=26.570810, Alt.=145.052856m. Speed=3.672000m/h.</desc>
<speed>1.020000</speed>
</trkpt>
<trkpt lat="55.660587" lon="26.570833">
<ele>145.232544</ele>
<time>2010-07-18T10:58:38Z</time>
<desc>lat.=55.660587, lon.=26.570833, Alt.=145.232544m. Speed=5.400000m/h.</desc>
<speed>1.500000</speed>
</trkpt>
<trkpt lat="55.660595" lon="26.570854">
<ele>145.470825</ele>
<time>2010-07-18T10:58:39Z</time>
<desc>lat.=55.660595, lon.=26.570854, Alt.=145.470825m. Speed=6.084000m/h.</desc>
<speed>1.690000</speed>
</trkpt>
<trkpt lat="55.660603" lon="26.570879">
<ele>145.677856</ele>
<time>2010-07-18T10:58:40Z</time>
<desc>lat.=55.660603, lon.=26.570879, Alt.=145.677856m. Speed=6.228000m/h.</desc>
<speed>1.730000</speed>
</trkpt>
<trkpt lat="55.660610" lon="26.570902">
<ele>145.916138</ele>
<time>2010-07-18T10:58:41Z</time>
<desc>lat.=55.660610, lon.=26.570902, Alt.=145.916138m. Speed=6.624000m/h.</desc>
<speed>1.840000</speed>
</trkpt>
<trkpt lat="55.660614" lon="26.570921">
<ele>146.107544</ele>
<time>2010-07-18T10:58:42Z</time>
<desc>lat.=55.660614, lon.=26.570921, Alt.=146.107544m. Speed=4.752000m/h.</desc>
<speed>1.320000</speed>
</trkpt>
<trkpt lat="55.660625" lon="26.570936">
<ele>146.232544</ele>
<time>2010-07-18T10:58:43Z</time>
<desc>lat.=55.660625, lon.=26.570936, Alt.=146.232544m. Speed=3.924000m/h.</desc>
<speed>1.090000</speed>
</trkpt>
<trkpt lat="55.660629" lon="26.570953">
<ele>146.459106</ele>
<time>2010-07-18T10:58:44Z</time>
<desc>lat.=55.660629, lon.=26.570953, Alt.=146.459106m. Speed=5.040000m/h.</desc>
<speed>1.400000</speed>
</trkpt>
<trkpt lat="55.660637" lon="26.570976">
<ele>146.716919</ele>
<time>2010-07-18T10:58:45Z</time>
<desc>lat.=55.660637, lon.=26.570976, Alt.=146.716919m. Speed=5.652000m/h.</desc>
<speed>1.570000</speed>
</trkpt>
<trkpt lat="55.660645" lon="26.570999">
<ele>146.970825</ele>
<time>2010-07-18T10:58:46Z</time>
<desc>lat.=55.660645, lon.=26.570999, Alt.=146.970825m. Speed=7.344000m/h.</desc>
<speed>2.040000</speed>
</trkpt>
<trkpt lat="55.660671" lon="26.571041">
<ele>146.873169</ele>
<time>2010-07-18T10:58:47Z</time>
<desc>lat.=55.660671, lon.=26.571041, Alt.=146.873169m. Speed=9.324000m/h.</desc>
<speed>2.590000</speed>
</trkpt>
<trkpt lat="55.660690" lon="26.571075">
<ele>146.943481</ele>
<time>2010-07-18T10:58:48Z</time>
<desc>lat.=55.660690, lon.=26.571075, Alt.=146.943481m. Speed=9.900000m/h.</desc>
<speed>2.750000</speed>
</trkpt>
<trkpt lat="55.660709" lon="26.571115">
<ele>147.091919</ele>
<time>2010-07-18T10:58:49Z</time>
<desc>lat.=55.660709, lon.=26.571115, Alt.=147.091919m. Speed=11.448000m/h.</desc>
<speed>3.180000</speed>
</trkpt>
<trkpt lat="55.660725" lon="26.571161">
<ele>147.615356</ele>
<time>2010-07-18T10:58:50Z</time>
<desc>lat.=55.660725, lon.=26.571161, Alt.=147.615356m. Speed=11.340000m/h.</desc>
<speed>3.150000</speed>
</trkpt>
<trkpt lat="55.660740" lon="26.571207">
<ele>147.603638</ele>
<time>2010-07-18T10:58:51Z</time>
<desc>lat.=55.660740, lon.=26.571207, Alt.=147.603638m. Speed=11.484000m/h.</desc>
<speed>3.190000</speed>
</trkpt>
<trkpt lat="55.660755" lon="26.571239">
<ele>147.638794</ele>
<time>2010-07-18T10:58:52Z</time>
<desc>lat.=55.660755, lon.=26.571239, Alt.=147.638794m. Speed=10.548000m/h.</desc>
<speed>2.930000</speed>
</trkpt>
<trkpt lat="55.660774" lon="26.571291">
<ele>147.509888</ele>
<time>2010-07-18T10:58:53Z</time>
<desc>lat.=55.660774, lon.=26.571291, Alt.=147.509888m. Speed=11.520000m/h.</desc>
<speed>3.200000</speed>
</trkpt>
<trkpt lat="55.660774" lon="26.571331">
<ele>146.798950</ele>
<time>2010-07-18T10:58:54Z</time>
<desc>lat.=55.660774, lon.=26.571331, Alt.=146.798950m. Speed=10.332000m/h.</desc>
<speed>2.870000</speed>
</trkpt>
<trkpt lat="55.660782" lon="26.571386">
<ele>146.271606</ele>
<time>2010-07-18T10:58:55Z</time>
<desc>lat.=55.660782, lon.=26.571386, Alt.=146.271606m. Speed=11.052000m/h.</desc>
<speed>3.070000</speed>
</trkpt>
<trkpt lat="55.660797" lon="26.571438">
<ele>146.158325</ele>
<time>2010-07-18T10:58:56Z</time>
<desc>lat.=55.660797, lon.=26.571438, Alt.=146.158325m. Speed=9.504000m/h.</desc>
<speed>2.640000</speed>
</trkpt>
<trkpt lat="55.660812" lon="26.571474">
<ele>146.357544</ele>
<time>2010-07-18T10:58:57Z</time>
<desc>lat.=55.660812, lon.=26.571474, Alt.=146.357544m. Speed=10.584000m/h.</desc>
<speed>2.940000</speed>
</trkpt>
<trkpt lat="55.660824" lon="26.571512">
<ele>146.377075</ele>
<time>2010-07-18T10:58:58Z</time>
<desc>lat.=55.660824, lon.=26.571512, Alt.=146.377075m. Speed=9.288000m/h.</desc>
<speed>2.580000</speed>
</trkpt>
<trkpt lat="55.660835" lon="26.571554">
<ele>146.529419</ele>
<time>2010-07-18T10:58:59Z</time>
<desc>lat.=55.660835, lon.=26.571554, Alt.=146.529419m. Speed=10.188000m/h.</desc>
<speed>2.830000</speed>
</trkpt>
<trkpt lat="55.660847" lon="26.571604">
<ele>146.517700</ele>
<time>2010-07-18T10:59:00Z</time>
<desc>lat.=55.660847, lon.=26.571604, Alt.=146.517700m. Speed=11.700000m/h.</desc>
<speed>3.250000</speed>
</trkpt>
<trkpt lat="55.660854" lon="26.571646">
<ele>146.630981</ele>
<time>2010-07-18T10:59:01Z</time>
<desc>lat.=55.660854, lon.=26.571646, Alt.=146.630981m. Speed=10.044000m/h.</desc>
<speed>2.790000</speed>
</trkpt>
<trkpt lat="55.660866" lon="26.571684">
<ele>146.880981</ele>
<time>2010-07-18T10:59:02Z</time>
<desc>lat.=55.660866, lon.=26.571684, Alt.=146.880981m. Speed=9.396000m/h.</desc>
<speed>2.610000</speed>
</trkpt>
<trkpt lat="55.660870" lon="26.571718">
<ele>147.189575</ele>
<time>2010-07-18T10:59:03Z</time>
<desc>lat.=55.660870, lon.=26.571718, Alt.=147.189575m. Speed=8.280000m/h.</desc>
<speed>2.300000</speed>
</trkpt>
<trkpt lat="55.660873" lon="26.571751">
<ele>147.357544</ele>
<time>2010-07-18T10:59:04Z</time>
<desc>lat.=55.660873, lon.=26.571751, Alt.=147.357544m. Speed=8.496000m/h.</desc>
<speed>2.360000</speed>
</trkpt>
<trkpt lat="55.660877" lon="26.571785">
<ele>147.724731</ele>
<time>2010-07-18T10:59:05Z</time>
<desc>lat.=55.660877, lon.=26.571785, Alt.=147.724731m. Speed=7.560000m/h.</desc>
<speed>2.100000</speed>
</trkpt>
<trkpt lat="55.660885" lon="26.571812">
<ele>148.158325</ele>
<time>2010-07-18T10:59:06Z</time>
<desc>lat.=55.660885, lon.=26.571812, Alt.=148.158325m. Speed=6.408000m/h.</desc>
<speed>1.780000</speed>
</trkpt>
<trkpt lat="55.660889" lon="26.571831">
<ele>148.220825</ele>
<time>2010-07-18T10:59:07Z</time>
<desc>lat.=55.660889, lon.=26.571831, Alt.=148.220825m. Speed=4.572000m/h.</desc>
<speed>1.270000</speed>
</trkpt>
<trkpt lat="55.660889" lon="26.571854">
<ele>148.498169</ele>
<time>2010-07-18T10:59:08Z</time>
<desc>lat.=55.660889, lon.=26.571854, Alt.=148.498169m. Speed=3.204000m/h.</desc>
<speed>0.890000</speed>
</trkpt>
<trkpt lat="55.660892" lon="26.571873">
<ele>148.779419</ele>
<time>2010-07-18T10:59:09Z</time>
<desc>lat.=55.660892, lon.=26.571873, Alt.=148.779419m. Speed=3.276000m/h.</desc>
<speed>0.910000</speed>
</trkpt>
<trkpt lat="55.660892" lon="26.571892">
<ele>148.982544</ele>
<time>2010-07-18T10:59:10Z</time>
<desc>lat.=55.660892, lon.=26.571892, Alt.=148.982544m. Speed=3.708000m/h.</desc>
<speed>1.030000</speed>
</trkpt>
<trkpt lat="55.660900" lon="26.571913">
<ele>149.158325</ele>
<time>2010-07-18T10:59:11Z</time>
<desc>lat.=55.660900, lon.=26.571913, Alt.=149.158325m. Speed=5.256000m/h.</desc>
<speed>1.460000</speed>
</trkpt>
<trkpt lat="55.660908" lon="26.571926">
<ele>148.728638</ele>
<time>2010-07-18T10:59:12Z</time>
<desc>lat.=55.660908, lon.=26.571926, Alt.=148.728638m. Speed=1.548000m/h.</desc>
<speed>0.430000</speed>
</trkpt>
<trkpt lat="55.660904" lon="26.571918">
<ele>148.748169</ele>
<time>2010-07-18T10:59:13Z</time>
<desc>lat.=55.660904, lon.=26.571918, Alt.=148.748169m. Speed=1.404000m/h.</desc>
<speed>0.390000</speed>
</trkpt>
<trkpt lat="55.660896" lon="26.571930">
<ele>148.056763</ele>
<time>2010-07-18T10:59:14Z</time>
<desc>lat.=55.660896, lon.=26.571930, Alt.=148.056763m. Speed=2.484000m/h.</desc>
<speed>0.690000</speed>
</trkpt>
<trkpt lat="55.660896" lon="26.571947">
<ele>147.959106</ele>
<time>2010-07-18T10:59:15Z</time>
<desc>lat.=55.660896, lon.=26.571947, Alt.=147.959106m. Speed=2.880000m/h.</desc>
<speed>0.800000</speed>
</trkpt>
<trkpt lat="55.660900" lon="26.571960">
<ele>148.146606</ele>
<time>2010-07-18T10:59:16Z</time>
<desc>lat.=55.660900, lon.=26.571960, Alt.=148.146606m. Speed=1.728000m/h.</desc>
<speed>0.480000</speed>
</trkpt>
<trkpt lat="55.660900" lon="26.571968">
<ele>148.334106</ele>
<time>2010-07-18T10:59:17Z</time>
<desc>lat.=55.660900, lon.=26.571968, Alt.=148.334106m. Speed=1.008000m/h.</desc>
<speed>0.280000</speed>
</trkpt>
<trkpt lat="55.660900" lon="26.571972">
<ele>148.517700</ele>
<time>2010-07-18T10:59:18Z</time>
<desc>lat.=55.660900, lon.=26.571972, Alt.=148.517700m. Speed=0.828000m/h.</desc>
<speed>0.230000</speed>
</trkpt>
<trkpt lat="55.660900" lon="26.571976">
<ele>148.654419</ele>
<time>2010-07-18T10:59:19Z</time>
<desc>lat.=55.660900, lon.=26.571976, Alt.=148.654419m. Speed=0.576000m/h.</desc>
<speed>0.160000</speed>
</trkpt>
<trkpt lat="55.660904" lon="26.571978">
<ele>148.752075</ele>
<time>2010-07-18T10:59:20Z</time>
<desc>lat.=55.660904, lon.=26.571978, Alt.=148.752075m. Speed=0.324000m/h.</desc>
<speed>0.090000</speed>
</trkpt>
<trkpt lat="55.660900" lon="26.571980">
<ele>148.826294</ele>
<time>2010-07-18T10:59:21Z</time>
<desc>lat.=55.660900, lon.=26.571980, Alt.=148.826294m. Speed=0.252000m/h.</desc>
<speed>0.070000</speed>
</trkpt>
<trkpt lat="55.660904" lon="26.571980">
<ele>148.908325</ele>
<time>2010-07-18T10:59:22Z</time>
<desc>lat.=55.660904, lon.=26.571980, Alt.=148.908325m. Speed=0.252000m/h.</desc>
<speed>0.070000</speed>
</trkpt>
<trkpt lat="55.660904" lon="26.571981">
<ele>148.974731</ele>
<time>2010-07-18T10:59:23Z</time>
<desc>lat.=55.660904, lon.=26.571981, Alt.=148.974731m. Speed=0.180000m/h.</desc>
<speed>0.050000</speed>
</trkpt>
<trkpt lat="55.660904" lon="26.571981">
<ele>149.029419</ele>
<time>2010-07-18T10:59:24Z</time>
<desc>lat.=55.660904, lon.=26.571981, Alt.=149.029419m. Speed=0.504000m/h.</desc>
<speed>0.140000</speed>
</trkpt>
<trkpt lat="55.660900" lon="26.571983">
<ele>149.068481</ele>
<time>2010-07-18T10:59:25Z</time>
<desc>lat.=55.660900, lon.=26.571983, Alt.=149.068481m. Speed=0.360000m/h.</desc>
<speed>0.100000</speed>
</trkpt>
<trkpt lat="55.660900" lon="26.571983">
<ele>149.111450</ele>
<time>2010-07-18T10:59:26Z</time>
<desc>lat.=55.660900, lon.=26.571983, Alt.=149.111450m. Speed=1.332000m/h.</desc>
<speed>0.370000</speed>
</trkpt>
<trkpt lat="55.660900" lon="26.571987">
<ele>149.127075</ele>
<time>2010-07-18T10:59:27Z</time>
<desc>lat.=55.660900, lon.=26.571987, Alt.=149.127075m. Speed=1.152000m/h.</desc>
<speed>0.320000</speed>
</trkpt>
<trkpt lat="55.660896" lon="26.571983">
<ele>149.111450</ele>
<time>2010-07-18T10:59:28Z</time>
<desc>lat.=55.660896, lon.=26.571983, Alt.=149.111450m. Speed=0.432000m/h.</desc>
<speed>0.120000</speed>
</trkpt>
<trkpt lat="55.660900" lon="26.571983">
<ele>149.084106</ele>
<time>2010-07-18T10:59:29Z</time>
<desc>lat.=55.660900, lon.=26.571983, Alt.=149.084106m. Speed=0.792000m/h.</desc>
<speed>0.220000</speed>
</trkpt>
<trkpt lat="55.660896" lon="26.571985">
<ele>149.107544</ele>
<time>2010-07-18T10:59:30Z</time>
<desc>lat.=55.660896, lon.=26.571985, Alt.=149.107544m. Speed=1.152000m/h.</desc>
<speed>0.320000</speed>
</trkpt>
<trkpt lat="55.660900" lon="26.571983">
<ele>148.877075</ele>
<time>2010-07-18T10:59:31Z</time>
<desc>lat.=55.660900, lon.=26.571983, Alt.=148.877075m. Speed=0.468000m/h.</desc>
<speed>0.130000</speed>
</trkpt>
<trkpt lat="55.660900" lon="26.571981">
<ele>148.728638</ele>
<time>2010-07-18T10:59:32Z</time>
<desc>lat.=55.660900, lon.=26.571981, Alt.=148.728638m. Speed=0.000000m/h.</desc>
<speed>0.000000</speed>
</trkpt>
<trkpt lat="55.660900" lon="26.571981">
<ele>148.713013</ele>
<time>2010-07-18T10:59:33Z</time>
<desc>lat.=55.660900, lon.=26.571981, Alt.=148.713013m. Speed=0.000000m/h.</desc>
<speed>0.000000</speed>
</trkpt>
<trkpt lat="55.660900" lon="26.571981">
<ele>148.713013</ele>
<time>2010-07-18T10:59:34Z</time>
<desc>lat.=55.660900, lon.=26.571981, Alt.=148.713013m. Speed=0.000000m/h.</desc>
<speed>0.000000</speed>
</trkpt>
<trkpt lat="55.660900" lon="26.571981">
<ele>148.701294</ele>
<time>2010-07-18T10:59:35Z</time>
<desc>lat.=55.660900, lon.=26.571981, Alt.=148.701294m. Speed=0.000000m/h.</desc>
<speed>0.000000</speed>
</trkpt>
<trkpt lat="55.660900" lon="26.571981">
<ele>148.681763</ele>
<time>2010-07-18T10:59:36Z</time>
<desc>lat.=55.660900, lon.=26.571981, Alt.=148.681763m. Speed=0.000000m/h.</desc>
<speed>0.000000</speed>
</trkpt>
<trkpt lat="55.660900" lon="26.571981">
<ele>148.666138</ele>
<time>2010-07-18T10:59:37Z</time>
<desc>lat.=55.660900, lon.=26.571981, Alt.=148.666138m. Speed=0.000000m/h.</desc>
<speed>0.000000</speed>
</trkpt>
<trkpt lat="55.660900" lon="26.571981">
<ele>148.658325</ele>
<time>2010-07-18T10:59:38Z</time>
<desc>lat.=55.660900, lon.=26.571981, Alt.=148.658325m. Speed=0.000000m/h.</desc>
<speed>0.000000</speed>
</trkpt>
<trkpt lat="55.660900" lon="26.571981">
<ele>148.654419</ele>
<time>2010-07-18T10:59:39Z</time>
<desc>lat.=55.660900, lon.=26.571981, Alt.=148.654419m. Speed=0.000000m/h.</desc>
<speed>0.000000</speed>
</trkpt>
<trkpt lat="55.660900" lon="26.571981">
<ele>148.634888</ele>
<time>2010-07-18T10:59:40Z</time>
<desc>lat.=55.660900, lon.=26.571981, Alt.=148.634888m. Speed=0.000000m/h.</desc>
<speed>0.000000</speed>
</trkpt>
<trkpt lat="55.660900" lon="26.571981">
<ele>148.627075</ele>
<time>2010-07-18T10:59:41Z</time>
<desc>lat.=55.660900, lon.=26.571981, Alt.=148.627075m. Speed=0.000000m/h.</desc>
<speed>0.000000</speed>
</trkpt>
<trkpt lat="55.660900" lon="26.571981">
<ele>148.638794</ele>
<time>2010-07-18T10:59:42Z</time>
<desc>lat.=55.660900, lon.=26.571981, Alt.=148.638794m. Speed=0.000000m/h.</desc>
<speed>0.000000</speed>
</trkpt>
<trkpt lat="55.660900" lon="26.571981">
<ele>148.634888</ele>
<time>2010-07-18T10:59:43Z</time>
<desc>lat.=55.660900, lon.=26.571981, Alt.=148.634888m. Speed=0.000000m/h.</desc>
<speed>0.000000</speed>
</trkpt>
<trkpt lat="55.660900" lon="26.571981">
<ele>148.630981</ele>
<time>2010-07-18T10:59:44Z</time>
<desc>lat.=55.660900, lon.=26.571981, Alt.=148.630981m. Speed=0.000000m/h.</desc>
<speed>0.000000</speed>
</trkpt>
<trkpt lat="55.660900" lon="26.571981">
<ele>148.623169</ele>
<time>2010-07-18T10:59:45Z</time>
<desc>lat.=55.660900, lon.=26.571981, Alt.=148.623169m. Speed=0.000000m/h.</desc>
<speed>0.000000</speed>
</trkpt>
<trkpt lat="55.660900" lon="26.571981">
<ele>148.615356</ele>
<time>2010-07-18T10:59:46Z</time>
<desc>lat.=55.660900, lon.=26.571981, Alt.=148.615356m. Speed=0.000000m/h.</desc>
<speed>0.000000</speed>
</trkpt>
<trkpt lat="55.660900" lon="26.571981">
<ele>148.607544</ele>
<time>2010-07-18T10:59:47Z</time>
<desc>lat.=55.660900, lon.=26.571981, Alt.=148.607544m. Speed=0.000000m/h.</desc>
<speed>0.000000</speed>
</trkpt>
<trkpt lat="55.660900" lon="26.571981">
<ele>148.607544</ele>
<time>2010-07-18T10:59:48Z</time>
<desc>lat.=55.660900, lon.=26.571981, Alt.=148.607544m. Speed=0.000000m/h.</desc>
<speed>0.000000</speed>
</trkpt>
<trkpt lat="55.660900" lon="26.571981">
<ele>148.603638</ele>
<time>2010-07-18T10:59:49Z</time>
<desc>lat.=55.660900, lon.=26.571981, Alt.=148.603638m. Speed=0.000000m/h.</desc>
<speed>0.000000</speed>
</trkpt>
<trkpt lat="55.660900" lon="26.571981">
<ele>148.591919</ele>
<time>2010-07-18T10:59:50Z</time>
<desc>lat.=55.660900, lon.=26.571981, Alt.=148.591919m. Speed=0.000000m/h.</desc>
<speed>0.000000</speed>
</trkpt>
<trkpt lat="55.660900" lon="26.571981">
<ele>148.588013</ele>
<time>2010-07-18T10:59:51Z</time>
<desc>lat.=55.660900, lon.=26.571981, Alt.=148.588013m. Speed=0.036000m/h.</desc>
<speed>0.010000</speed>
</trkpt>
<trkpt lat="55.660900" lon="26.571981">
<ele>148.588013</ele>
<time>2010-07-18T10:59:52Z</time>
<desc>lat.=55.660900, lon.=26.571981, Alt.=148.588013m. Speed=0.036000m/h.</desc>
<speed>0.010000</speed>
</trkpt>
<trkpt lat="55.660900" lon="26.571981">
<ele>148.580200</ele>
<time>2010-07-18T10:59:53Z</time>
<desc>lat.=55.660900, lon.=26.571981, Alt.=148.580200m. Speed=0.000000m/h.</desc>
<speed>0.000000</speed>
</trkpt>
<trkpt lat="55.660900" lon="26.571981">
<ele>148.572388</ele>
<time>2010-07-18T10:59:54Z</time>
<desc>lat.=55.660900, lon.=26.571981, Alt.=148.572388m. Speed=0.000000m/h.</desc>
<speed>0.000000</speed>
</trkpt>
<trkpt lat="55.660900" lon="26.571981">
<ele>148.568481</ele>
<time>2010-07-18T10:59:55Z</time>
<desc>lat.=55.660900, lon.=26.571981, Alt.=148.568481m. Speed=0.000000m/h.</desc>
<speed>0.000000</speed>
</trkpt>
<trkpt lat="55.660900" lon="26.571981">
<ele>148.564575</ele>
<time>2010-07-18T10:59:56Z</time>
<desc>lat.=55.660900, lon.=26.571981, Alt.=148.564575m. Speed=0.000000m/h.</desc>
<speed>0.000000</speed>
</trkpt>
<trkpt lat="55.660900" lon="26.571981">
<ele>148.556763</ele>
<time>2010-07-18T10:59:57Z</time>
<desc>lat.=55.660900, lon.=26.571981, Alt.=148.556763m. Speed=0.000000m/h.</desc>
<speed>0.000000</speed>
</trkpt>
<trkpt lat="55.660900" lon="26.571981">
<ele>148.552856</ele>
<time>2010-07-18T10:59:58Z</time>
<desc>lat.=55.660900, lon.=26.571981, Alt.=148.552856m. Speed=0.000000m/h.</desc>
<speed>0.000000</speed>
</trkpt>
<trkpt lat="55.660900" lon="26.571981">
<ele>148.545044</ele>
<time>2010-07-18T10:59:59Z</time>
<desc>lat.=55.660900, lon.=26.571981, Alt.=148.545044m. Speed=0.000000m/h.</desc>
<speed>0.000000</speed>
</trkpt>
<trkpt lat="55.660900" lon="26.571981">
<ele>148.541138</ele>
<time>2010-07-18T11:00:00Z</time>
<desc>lat.=55.660900, lon.=26.571981, Alt.=148.541138m. Speed=0.036000m/h.</desc>
<speed>0.010000</speed>
</trkpt>
<trkpt lat="55.660900" lon="26.571981">
<ele>148.537231</ele>
<time>2010-07-18T11:00:01Z</time>
<desc>lat.=55.660900, lon.=26.571981, Alt.=148.537231m. Speed=0.036000m/h.</desc>
<speed>0.010000</speed>
</trkpt>
<trkpt lat="55.660900" lon="26.571981">
<ele>148.529419</ele>
<time>2010-07-18T11:00:02Z</time>
<desc>lat.=55.660900, lon.=26.571981, Alt.=148.529419m. Speed=0.036000m/h.</desc>
<speed>0.010000</speed>
</trkpt>
<trkpt lat="55.660900" lon="26.571981">
<ele>148.525513</ele>
<time>2010-07-18T11:00:03Z</time>
<desc>lat.=55.660900, lon.=26.571981, Alt.=148.525513m. Speed=0.000000m/h.</desc>
<speed>0.000000</speed>
</trkpt>
<trkpt lat="55.660900" lon="26.571981">
<ele>148.517700</ele>
<time>2010-07-18T11:00:04Z</time>
<desc>lat.=55.660900, lon.=26.571981, Alt.=148.517700m. Speed=0.000000m/h.</desc>
<speed>0.000000</speed>
</trkpt>
<trkpt lat="55.660900" lon="26.571981">
<ele>148.513794</ele>
<time>2010-07-18T11:00:05Z</time>
<desc>lat.=55.660900, lon.=26.571981, Alt.=148.513794m. Speed=0.000000m/h.</desc>
<speed>0.000000</speed>
</trkpt>
<trkpt lat="55.660900" lon="26.571981">
<ele>148.505981</ele>
<time>2010-07-18T11:00:06Z</time>
<desc>lat.=55.660900, lon.=26.571981, Alt.=148.505981m. Speed=0.000000m/h.</desc>
<speed>0.000000</speed>
</trkpt>
<trkpt lat="55.660900" lon="26.571981">
<ele>148.502075</ele>
<time>2010-07-18T11:00:07Z</time>
<desc>lat.=55.660900, lon.=26.571981, Alt.=148.502075m. Speed=0.000000m/h.</desc>
<speed>0.000000</speed>
</trkpt>
<trkpt lat="55.660900" lon="26.571981">
<ele>148.502075</ele>
<time>2010-07-18T11:00:08Z</time>
<desc>lat.=55.660900, lon.=26.571981, Alt.=148.502075m. Speed=0.000000m/h.</desc>
<speed>0.000000</speed>
</trkpt>
<trkpt lat="55.660900" lon="26.571981">
<ele>148.494263</ele>
<time>2010-07-18T11:00:09Z</time>
<desc>lat.=55.660900, lon.=26.571981, Alt.=148.494263m. Speed=0.000000m/h.</desc>
<speed>0.000000</speed>
</trkpt>
<trkpt lat="55.660900" lon="26.571981">
<ele>148.490356</ele>
<time>2010-07-18T11:00:10Z</time>
<desc>lat.=55.660900, lon.=26.571981, Alt.=148.490356m. Speed=0.000000m/h.</desc>
<speed>0.000000</speed>
</trkpt>
<trkpt lat="55.660900" lon="26.571981">
<ele>148.486450</ele>
<time>2010-07-18T11:00:11Z</time>
<desc>lat.=55.660900, lon.=26.571981, Alt.=148.486450m. Speed=0.036000m/h.</desc>
<speed>0.010000</speed>
</trkpt>
<trkpt lat="55.660900" lon="26.571981">
<ele>148.486450</ele>
<time>2010-07-18T11:00:12Z</time>
<desc>lat.=55.660900, lon.=26.571981, Alt.=148.486450m. Speed=0.000000m/h.</desc>
<speed>0.000000</speed>
</trkpt>
<trkpt lat="55.660900" lon="26.571981">
<ele>148.478638</ele>
<time>2010-07-18T11:00:13Z</time>
<desc>lat.=55.660900, lon.=26.571981, Alt.=148.478638m. Speed=0.000000m/h.</desc>
<speed>0.000000</speed>
</trkpt>
<trkpt lat="55.660900" lon="26.571981">
<ele>148.474731</ele>
<time>2010-07-18T11:00:14Z</time>
<desc>lat.=55.660900, lon.=26.571981, Alt.=148.474731m. Speed=0.000000m/h.</desc>
<speed>0.000000</speed>
</trkpt>
<trkpt lat="55.660900" lon="26.571981">
<ele>148.470825</ele>
<time>2010-07-18T11:00:15Z</time>
<desc>lat.=55.660900, lon.=26.571981, Alt.=148.470825m. Speed=0.000000m/h.</desc>
<speed>0.000000</speed>
</trkpt>
<trkpt lat="55.660900" lon="26.571981">
<ele>148.466919</ele>
<time>2010-07-18T11:00:16Z</time>
<desc>lat.=55.660900, lon.=26.571981, Alt.=148.466919m. Speed=0.000000m/h.</desc>
<speed>0.000000</speed>
</trkpt>
<trkpt lat="55.660900" lon="26.571981">
<ele>148.459106</ele>
<time>2010-07-18T11:00:17Z</time>
<desc>lat.=55.660900, lon.=26.571981, Alt.=148.459106m. Speed=0.000000m/h.</desc>
<speed>0.000000</speed>
</trkpt>
<trkpt lat="55.660900" lon="26.571981">
<ele>148.455200</ele>
<time>2010-07-18T11:00:18Z</time>
<desc>lat.=55.660900, lon.=26.571981, Alt.=148.455200m. Speed=0.000000m/h.</desc>
<speed>0.000000</speed>
</trkpt>
<trkpt lat="55.660900" lon="26.571981">
<ele>148.455200</ele>
<time>2010-07-18T11:00:19Z</time>
<desc>lat.=55.660900, lon.=26.571981, Alt.=148.455200m. Speed=0.000000m/h.</desc>
<speed>0.000000</speed>
</trkpt>
<trkpt lat="55.660900" lon="26.571981">
<ele>148.447388</ele>
<time>2010-07-18T11:00:20Z</time>
<desc>lat.=55.660900, lon.=26.571981, Alt.=148.447388m. Speed=0.000000m/h.</desc>
<speed>0.000000</speed>
</trkpt>
<trkpt lat="55.660900" lon="26.571981">
<ele>148.439575</ele>
<time>2010-07-18T11:00:21Z</time>
<desc>lat.=55.660900, lon.=26.571981, Alt.=148.439575m. Speed=0.000000m/h.</desc>
<speed>0.000000</speed>
</trkpt>
<trkpt lat="55.660900" lon="26.571981">
<ele>148.431763</ele>
<time>2010-07-18T11:00:22Z</time>
<desc>lat.=55.660900, lon.=26.571981, Alt.=148.431763m. Speed=0.000000m/h.</desc>
<speed>0.000000</speed>
</trkpt>
<trkpt lat="55.660900" lon="26.571981">
<ele>148.423950</ele>
<time>2010-07-18T11:00:23Z</time>
<desc>lat.=55.660900, lon.=26.571981, Alt.=148.423950m. Speed=0.000000m/h.</desc>
<speed>0.000000</speed>
</trkpt>
<trkpt lat="55.660900" lon="26.571981">
<ele>148.412231</ele>
<time>2010-07-18T11:00:24Z</time>
<desc>lat.=55.660900, lon.=26.571981, Alt.=148.412231m. Speed=0.000000m/h.</desc>
<speed>0.000000</speed>
</trkpt>
<trkpt lat="55.660900" lon="26.571981">
<ele>148.408325</ele>
<time>2010-07-18T11:00:25Z</time>
<desc>lat.=55.660900, lon.=26.571981, Alt.=148.408325m. Speed=0.000000m/h.</desc>
<speed>0.000000</speed>
</trkpt>
<trkpt lat="55.660900" lon="26.571981">
<ele>148.400513</ele>
<time>2010-07-18T11:00:26Z</time>
<desc>lat.=55.660900, lon.=26.571981, Alt.=148.400513m. Speed=0.000000m/h.</desc>
<speed>0.000000</speed>
</trkpt>
<trkpt lat="55.660900" lon="26.571981">
<ele>148.392700</ele>
<time>2010-07-18T11:00:27Z</time>
<desc>lat.=55.660900, lon.=26.571981, Alt.=148.392700m. Speed=0.000000m/h.</desc>
<speed>0.000000</speed>
</trkpt>
<trkpt lat="55.660900" lon="26.571981">
<ele>148.384888</ele>
<time>2010-07-18T11:00:28Z</time>
<desc>lat.=55.660900, lon.=26.571981, Alt.=148.384888m. Speed=0.000000m/h.</desc>
<speed>0.000000</speed>
</trkpt>
<trkpt lat="55.660900" lon="26.571981">
<ele>148.377075</ele>
<time>2010-07-18T11:00:29Z</time>
<desc>lat.=55.660900, lon.=26.571981, Alt.=148.377075m. Speed=0.000000m/h.</desc>
<speed>0.000000</speed>
</trkpt>
<trkpt lat="55.660900" lon="26.571981">
<ele>148.373169</ele>
<time>2010-07-18T11:00:30Z</time>
<desc>lat.=55.660900, lon.=26.571981, Alt.=148.373169m. Speed=0.000000m/h.</desc>
<speed>0.000000</speed>
</trkpt>
<trkpt lat="55.660900" lon="26.571981">
<ele>148.365356</ele>
<time>2010-07-18T11:00:31Z</time>
<desc>lat.=55.660900, lon.=26.571981, Alt.=148.365356m. Speed=0.000000m/h.</desc>
<speed>0.000000</speed>
</trkpt>
<trkpt lat="55.660900" lon="26.571981">
<ele>148.361450</ele>
<time>2010-07-18T11:00:32Z</time>
<desc>lat.=55.660900, lon.=26.571981, Alt.=148.361450m. Speed=0.000000m/h.</desc>
<speed>0.000000</speed>
</trkpt>
<trkpt lat="55.660900" lon="26.571981">
<ele>148.357544</ele>
<time>2010-07-18T11:00:33Z</time>
<desc>lat.=55.660900, lon.=26.571981, Alt.=148.357544m. Speed=0.000000m/h.</desc>
<speed>0.000000</speed>
</trkpt>
<trkpt lat="55.660900" lon="26.571981">
<ele>148.349731</ele>
<time>2010-07-18T11:00:34Z</time>
<desc>lat.=55.660900, lon.=26.571981, Alt.=148.349731m. Speed=0.000000m/h.</desc>
<speed>0.000000</speed>
</trkpt>
<trkpt lat="55.660900" lon="26.571981">
<ele>148.349731</ele>
<time>2010-07-18T11:00:35Z</time>
<desc>lat.=55.660900, lon.=26.571981, Alt.=148.349731m. Speed=0.000000m/h.</desc>
<speed>0.000000</speed>
</trkpt>
<trkpt lat="55.660900" lon="26.571981">
<ele>148.341919</ele>
<time>2010-07-18T11:00:36Z</time>
<desc>lat.=55.660900, lon.=26.571981, Alt.=148.341919m. Speed=0.000000m/h.</desc>
<speed>0.000000</speed>
</trkpt>
<trkpt lat="55.660900" lon="26.571981">
<ele>148.334106</ele>
<time>2010-07-18T11:00:37Z</time>
<desc>lat.=55.660900, lon.=26.571981, Alt.=148.334106m. Speed=0.000000m/h.</desc>
<speed>0.000000</speed>
</trkpt>
<trkpt lat="55.660904" lon="26.571981">
<ele>148.330200</ele>
<time>2010-07-18T11:00:38Z</time>
<desc>lat.=55.660904, lon.=26.571981, Alt.=148.330200m. Speed=0.000000m/h.</desc>
<speed>0.000000</speed>
</trkpt>
<trkpt lat="55.660904" lon="26.571981">
<ele>148.326294</ele>
<time>2010-07-18T11:00:39Z</time>
<desc>lat.=55.660904, lon.=26.571981, Alt.=148.326294m. Speed=0.000000m/h.</desc>
<speed>0.000000</speed>
</trkpt>
<trkpt lat="55.660904" lon="26.571981">
<ele>148.318481</ele>
<time>2010-07-18T11:00:40Z</time>
<desc>lat.=55.660904, lon.=26.571981, Alt.=148.318481m. Speed=0.000000m/h.</desc>
<speed>0.000000</speed>
</trkpt>
<trkpt lat="55.660904" lon="26.571981">
<ele>148.314575</ele>
<time>2010-07-18T11:00:41Z</time>
<desc>lat.=55.660904, lon.=26.571981, Alt.=148.314575m. Speed=0.000000m/h.</desc>
<speed>0.000000</speed>
</trkpt>
<trkpt lat="55.660904" lon="26.571981">
<ele>148.310669</ele>
<time>2010-07-18T11:00:42Z</time>
<desc>lat.=55.660904, lon.=26.571981, Alt.=148.310669m. Speed=0.000000m/h.</desc>
<speed>0.000000</speed>
</trkpt>
<trkpt lat="55.660904" lon="26.571981">
<ele>148.302856</ele>
<time>2010-07-18T11:00:43Z</time>
<desc>lat.=55.660904, lon.=26.571981, Alt.=148.302856m. Speed=0.000000m/h.</desc>
<speed>0.000000</speed>
</trkpt>
<trkpt lat="55.660904" lon="26.571981">
<ele>148.298950</ele>
<time>2010-07-18T11:00:44Z</time>
<desc>lat.=55.660904, lon.=26.571981, Alt.=148.298950m. Speed=0.036000m/h.</desc>
<speed>0.010000</speed>
</trkpt>
<trkpt lat="55.660904" lon="26.571981">
<ele>148.295044</ele>
<time>2010-07-18T11:00:45Z</time>
<desc>lat.=55.660904, lon.=26.571981, Alt.=148.295044m. Speed=0.000000m/h.</desc>
<speed>0.000000</speed>
</trkpt>
<trkpt lat="55.660904" lon="26.571981">
<ele>148.287231</ele>
<time>2010-07-18T11:00:46Z</time>
<desc>lat.=55.660904, lon.=26.571981, Alt.=148.287231m. Speed=0.000000m/h.</desc>
<speed>0.000000</speed>
</trkpt>
<trkpt lat="55.660904" lon="26.571981">
<ele>148.283325</ele>
<time>2010-07-18T11:00:47Z</time>
<desc>lat.=55.660904, lon.=26.571981, Alt.=148.283325m. Speed=0.000000m/h.</desc>
<speed>0.000000</speed>
</trkpt>
<trkpt lat="55.660904" lon="26.571981">
<ele>148.279419</ele>
<time>2010-07-18T11:00:48Z</time>
<desc>lat.=55.660904, lon.=26.571981, Alt.=148.279419m. Speed=0.000000m/h.</desc>
<speed>0.000000</speed>
</trkpt>
<trkpt lat="55.660904" lon="26.571981">
<ele>148.275513</ele>
<time>2010-07-18T11:00:49Z</time>
<desc>lat.=55.660904, lon.=26.571981, Alt.=148.275513m. Speed=0.000000m/h.</desc>
<speed>0.000000</speed>
</trkpt>
<trkpt lat="55.660904" lon="26.571981">
<ele>148.267700</ele>
<time>2010-07-18T11:00:50Z</time>
<desc>lat.=55.660904, lon.=26.571981, Alt.=148.267700m. Speed=0.000000m/h.</desc>
<speed>0.000000</speed>
</trkpt>
<trkpt lat="55.660904" lon="26.571981">
<ele>148.267700</ele>
<time>2010-07-18T11:00:51Z</time>
<desc>lat.=55.660904, lon.=26.571981, Alt.=148.267700m. Speed=0.000000m/h.</desc>
<speed>0.000000</speed>
</trkpt>
<trkpt lat="55.660904" lon="26.571981">
<ele>148.263794</ele>
<time>2010-07-18T11:00:52Z</time>
<desc>lat.=55.660904, lon.=26.571981, Alt.=148.263794m. Speed=0.000000m/h.</desc>
<speed>0.000000</speed>
</trkpt>
<trkpt lat="55.660904" lon="26.571981">
<ele>148.259888</ele>
<time>2010-07-18T11:00:53Z</time>
<desc>lat.=55.660904, lon.=26.571981, Alt.=148.259888m. Speed=0.000000m/h.</desc>
<speed>0.000000</speed>
</trkpt>
<trkpt lat="55.660904" lon="26.571981">
<ele>148.255981</ele>
<time>2010-07-18T11:00:54Z</time>
<desc>lat.=55.660904, lon.=26.571981, Alt.=148.255981m. Speed=0.000000m/h.</desc>
<speed>0.000000</speed>
</trkpt>
<trkpt lat="55.660904" lon="26.571981">
<ele>148.252075</ele>
<time>2010-07-18T11:00:55Z</time>
<desc>lat.=55.660904, lon.=26.571981, Alt.=148.252075m. Speed=0.000000m/h.</desc>
<speed>0.000000</speed>
</trkpt>
<trkpt lat="55.660904" lon="26.571981">
<ele>148.248169</ele>
<time>2010-07-18T11:00:56Z</time>
<desc>lat.=55.660904, lon.=26.571981, Alt.=148.248169m. Speed=0.000000m/h.</desc>
<speed>0.000000</speed>
</trkpt>
<trkpt lat="55.660904" lon="26.571981">
<ele>148.248169</ele>
<time>2010-07-18T11:00:57Z</time>
<desc>lat.=55.660904, lon.=26.571981, Alt.=148.248169m. Speed=0.000000m/h.</desc>
<speed>0.000000</speed>
</trkpt>
<trkpt lat="55.660904" lon="26.571981">
<ele>148.244263</ele>
<time>2010-07-18T11:00:58Z</time>
<desc>lat.=55.660904, lon.=26.571981, Alt.=148.244263m. Speed=0.000000m/h.</desc>
<speed>0.000000</speed>
</trkpt>
<trkpt lat="55.660904" lon="26.571981">
<ele>148.244263</ele>
<time>2010-07-18T11:00:59Z</time>
<desc>lat.=55.660904, lon.=26.571981, Alt.=148.244263m. Speed=0.000000m/h.</desc>
<speed>0.000000</speed>
</trkpt>
<trkpt lat="55.660904" lon="26.571981">
<ele>148.244263</ele>
<time>2010-07-18T11:01:00Z</time>
<desc>lat.=55.660904, lon.=26.571981, Alt.=148.244263m. Speed=0.000000m/h.</desc>
<speed>0.000000</speed>
</trkpt>
<trkpt lat="55.660904" lon="26.571981">
<ele>148.240356</ele>
<time>2010-07-18T11:01:01Z</time>
<desc>lat.=55.660904, lon.=26.571981, Alt.=148.240356m. Speed=0.000000m/h.</desc>
<speed>0.000000</speed>
</trkpt>
<trkpt lat="55.660904" lon="26.571981">
<ele>148.236450</ele>
<time>2010-07-18T11:01:02Z</time>
<desc>lat.=55.660904, lon.=26.571981, Alt.=148.236450m. Speed=0.000000m/h.</desc>
<speed>0.000000</speed>
</trkpt>
<trkpt lat="55.660904" lon="26.571981">
<ele>148.236450</ele>
<time>2010-07-18T11:01:03Z</time>
<desc>lat.=55.660904, lon.=26.571981, Alt.=148.236450m. Speed=0.000000m/h.</desc>
<speed>0.000000</speed>
</trkpt>
<trkpt lat="55.660904" lon="26.571981">
<ele>148.232544</ele>
<time>2010-07-18T11:01:04Z</time>
<desc>lat.=55.660904, lon.=26.571981, Alt.=148.232544m. Speed=0.000000m/h.</desc>
<speed>0.000000</speed>
</trkpt>
<trkpt lat="55.660904" lon="26.571981">
<ele>148.232544</ele>
<time>2010-07-18T11:01:05Z</time>
<desc>lat.=55.660904, lon.=26.571981, Alt.=148.232544m. Speed=0.000000m/h.</desc>
<speed>0.000000</speed>
</trkpt>
<trkpt lat="55.660904" lon="26.571981">
<ele>148.232544</ele>
<time>2010-07-18T11:01:06Z</time>
<desc>lat.=55.660904, lon.=26.571981, Alt.=148.232544m. Speed=0.000000m/h.</desc>
<speed>0.000000</speed>
</trkpt>
<trkpt lat="55.660904" lon="26.571981">
<ele>148.228638</ele>
<time>2010-07-18T11:01:07Z</time>
<desc>lat.=55.660904, lon.=26.571981, Alt.=148.228638m. Speed=0.000000m/h.</desc>
<speed>0.000000</speed>
</trkpt>
<trkpt lat="55.660904" lon="26.571981">
<ele>148.232544</ele>
<time>2010-07-18T11:01:08Z</time>
<desc>lat.=55.660904, lon.=26.571981, Alt.=148.232544m. Speed=0.000000m/h.</desc>
<speed>0.000000</speed>
</trkpt>
<trkpt lat="55.660904" lon="26.571981">
<ele>148.228638</ele>
<time>2010-07-18T11:01:09Z</time>
<desc>lat.=55.660904, lon.=26.571981, Alt.=148.228638m. Speed=0.000000m/h.</desc>
<speed>0.000000</speed>
</trkpt>
<trkpt lat="55.660904" lon="26.571981">
<ele>148.232544</ele>
<time>2010-07-18T11:01:10Z</time>
<desc>lat.=55.660904, lon.=26.571981, Alt.=148.232544m. Speed=0.000000m/h.</desc>
<speed>0.000000</speed>
</trkpt>
<trkpt lat="55.660904" lon="26.571981">
<ele>148.228638</ele>
<time>2010-07-18T11:01:11Z</time>
<desc>lat.=55.660904, lon.=26.571981, Alt.=148.228638m. Speed=0.000000m/h.</desc>
<speed>0.000000</speed>
</trkpt>
<trkpt lat="55.660904" lon="26.571981">
<ele>148.228638</ele>
<time>2010-07-18T11:01:12Z</time>
<desc>lat.=55.660904, lon.=26.571981, Alt.=148.228638m. Speed=0.000000m/h.</desc>
<speed>0.000000</speed>
</trkpt>
<trkpt lat="55.660904" lon="26.571981">
<ele>148.228638</ele>
<time>2010-07-18T11:01:13Z</time>
<desc>lat.=55.660904, lon.=26.571981, Alt.=148.228638m. Speed=0.000000m/h.</desc>
<speed>0.000000</speed>
</trkpt>
<trkpt lat="55.660904" lon="26.571981">
<ele>148.224731</ele>
<time>2010-07-18T11:01:14Z</time>
<desc>lat.=55.660904, lon.=26.571981, Alt.=148.224731m. Speed=0.000000m/h.</desc>
<speed>0.000000</speed>
</trkpt>
<trkpt lat="55.660904" lon="26.571981">
<ele>148.224731</ele>
<time>2010-07-18T11:01:15Z</time>
<desc>lat.=55.660904, lon.=26.571981, Alt.=148.224731m. Speed=0.000000m/h.</desc>
<speed>0.000000</speed>
</trkpt>
<trkpt lat="55.660904" lon="26.571980">
<ele>148.224731</ele>
<time>2010-07-18T11:01:16Z</time>
<desc>lat.=55.660904, lon.=26.571980, Alt.=148.224731m. Speed=0.000000m/h.</desc>
<speed>0.000000</speed>
</trkpt>
<trkpt lat="55.660904" lon="26.571980">
<ele>148.220825</ele>
<time>2010-07-18T11:01:17Z</time>
<desc>lat.=55.660904, lon.=26.571980, Alt.=148.220825m. Speed=0.000000m/h.</desc>
<speed>0.000000</speed>
</trkpt>
<trkpt lat="55.660904" lon="26.571980">
<ele>148.220825</ele>
<time>2010-07-18T11:01:18Z</time>
<desc>lat.=55.660904, lon.=26.571980, Alt.=148.220825m. Speed=0.000000m/h.</desc>
<speed>0.000000</speed>
</trkpt>
<trkpt lat="55.660904" lon="26.571980">
<ele>148.220825</ele>
<time>2010-07-18T11:01:19Z</time>
<desc>lat.=55.660904, lon.=26.571980, Alt.=148.220825m. Speed=0.000000m/h.</desc>
<speed>0.000000</speed>
</trkpt>
<trkpt lat="55.660904" lon="26.571980">
<ele>148.220825</ele>
<time>2010-07-18T11:01:20Z</time>
<desc>lat.=55.660904, lon.=26.571980, Alt.=148.220825m. Speed=0.000000m/h.</desc>
<speed>0.000000</speed>
</trkpt>
<trkpt lat="55.660904" lon="26.571980">
<ele>148.220825</ele>
<time>2010-07-18T11:01:21Z</time>
<desc>lat.=55.660904, lon.=26.571980, Alt.=148.220825m. Speed=0.000000m/h.</desc>
<speed>0.000000</speed>
</trkpt>
<trkpt lat="55.660904" lon="26.571980">
<ele>148.216919</ele>
<time>2010-07-18T11:01:22Z</time>
<desc>lat.=55.660904, lon.=26.571980, Alt.=148.216919m. Speed=0.000000m/h.</desc>
<speed>0.000000</speed>
</trkpt>
<trkpt lat="55.660904" lon="26.571980">
<ele>148.216919</ele>
<time>2010-07-18T11:01:23Z</time>
<desc>lat.=55.660904, lon.=26.571980, Alt.=148.216919m. Speed=0.000000m/h.</desc>
<speed>0.000000</speed>
</trkpt>
<trkpt lat="55.660904" lon="26.571980">
<ele>148.216919</ele>
<time>2010-07-18T11:01:24Z</time>
<desc>lat.=55.660904, lon.=26.571980, Alt.=148.216919m. Speed=0.000000m/h.</desc>
<speed>0.000000</speed>
</trkpt>
<trkpt lat="55.660904" lon="26.571980">
<ele>148.216919</ele>
<time>2010-07-18T11:01:25Z</time>
<desc>lat.=55.660904, lon.=26.571980, Alt.=148.216919m. Speed=0.000000m/h.</desc>
<speed>0.000000</speed>
</trkpt>
<trkpt lat="55.660904" lon="26.571980">
<ele>148.216919</ele>
<time>2010-07-18T11:01:26Z</time>
<desc>lat.=55.660904, lon.=26.571980, Alt.=148.216919m. Speed=0.000000m/h.</desc>
<speed>0.000000</speed>
</trkpt>
<trkpt lat="55.660904" lon="26.571980">
<ele>148.216919</ele>
<time>2010-07-18T11:01:27Z</time>
<desc>lat.=55.660904, lon.=26.571980, Alt.=148.216919m. Speed=0.000000m/h.</desc>
<speed>0.000000</speed>
</trkpt>
<trkpt lat="55.660904" lon="26.571980">
<ele>148.213013</ele>
<time>2010-07-18T11:01:28Z</time>
<desc>lat.=55.660904, lon.=26.571980, Alt.=148.213013m. Speed=0.000000m/h.</desc>
<speed>0.000000</speed>
</trkpt>
<trkpt lat="55.660904" lon="26.571980">
<ele>148.213013</ele>
<time>2010-07-18T11:01:29Z</time>
<desc>lat.=55.660904, lon.=26.571980, Alt.=148.213013m. Speed=0.000000m/h.</desc>
<speed>0.000000</speed>
</trkpt>
<trkpt lat="55.660904" lon="26.571980">
<ele>148.213013</ele>
<time>2010-07-18T11:01:30Z</time>
<desc>lat.=55.660904, lon.=26.571980, Alt.=148.213013m. Speed=0.000000m/h.</desc>
<speed>0.000000</speed>
</trkpt>
<trkpt lat="55.660904" lon="26.571980">
<ele>148.209106</ele>
<time>2010-07-18T11:01:31Z</time>
<desc>lat.=55.660904, lon.=26.571980, Alt.=148.209106m. Speed=0.000000m/h.</desc>
<speed>0.000000</speed>
</trkpt>
<trkpt lat="55.660904" lon="26.571980">
<ele>148.205200</ele>
<time>2010-07-18T11:01:32Z</time>
<desc>lat.=55.660904, lon.=26.571980, Alt.=148.205200m. Speed=0.000000m/h.</desc>
<speed>0.000000</speed>
</trkpt>
<trkpt lat="55.660904" lon="26.571980">
<ele>148.201294</ele>
<time>2010-07-18T11:01:33Z</time>
<desc>lat.=55.660904, lon.=26.571980, Alt.=148.201294m. Speed=0.000000m/h.</desc>
<speed>0.000000</speed>
</trkpt>
<trkpt lat="55.660904" lon="26.571980">
<ele>148.201294</ele>
<time>2010-07-18T11:01:34Z</time>
<desc>lat.=55.660904, lon.=26.571980, Alt.=148.201294m. Speed=0.000000m/h.</desc>
<speed>0.000000</speed>
</trkpt>
<trkpt lat="55.660904" lon="26.571980">
<ele>148.197388</ele>
<time>2010-07-18T11:01:35Z</time>
<desc>lat.=55.660904, lon.=26.571980, Alt.=148.197388m. Speed=0.000000m/h.</desc>
<speed>0.000000</speed>
</trkpt>
<trkpt lat="55.660904" lon="26.571980">
<ele>148.197388</ele>
<time>2010-07-18T11:01:36Z</time>
<desc>lat.=55.660904, lon.=26.571980, Alt.=148.197388m. Speed=0.000000m/h.</desc>
<speed>0.000000</speed>
</trkpt>
<trkpt lat="55.660904" lon="26.571980">
<ele>148.193481</ele>
<time>2010-07-18T11:01:37Z</time>
<desc>lat.=55.660904, lon.=26.571980, Alt.=148.193481m. Speed=0.000000m/h.</desc>
<speed>0.000000</speed>
</trkpt>
<trkpt lat="55.660904" lon="26.571980">
<ele>148.193481</ele>
<time>2010-07-18T11:01:38Z</time>
<desc>lat.=55.660904, lon.=26.571980, Alt.=148.193481m. Speed=0.000000m/h.</desc>
<speed>0.000000</speed>
</trkpt>
<trkpt lat="55.660904" lon="26.571980">
<ele>148.193481</ele>
<time>2010-07-18T11:01:39Z</time>
<desc>lat.=55.660904, lon.=26.571980, Alt.=148.193481m. Speed=0.000000m/h.</desc>
<speed>0.000000</speed>
</trkpt>
<trkpt lat="55.660904" lon="26.571980">
<ele>148.193481</ele>
<time>2010-07-18T11:01:40Z</time>
<desc>lat.=55.660904, lon.=26.571980, Alt.=148.193481m. Speed=0.000000m/h.</desc>
<speed>0.000000</speed>
</trkpt>
<trkpt lat="55.660904" lon="26.571980">
<ele>148.193481</ele>
<time>2010-07-18T11:01:41Z</time>
<desc>lat.=55.660904, lon.=26.571980, Alt.=148.193481m. Speed=0.000000m/h.</desc>
<speed>0.000000</speed>
</trkpt>
<trkpt lat="55.660904" lon="26.571980">
<ele>148.189575</ele>
<time>2010-07-18T11:01:42Z</time>
<desc>lat.=55.660904, lon.=26.571980, Alt.=148.189575m. Speed=0.000000m/h.</desc>
<speed>0.000000</speed>
</trkpt>
<trkpt lat="55.660904" lon="26.571980">
<ele>148.189575</ele>
<time>2010-07-18T11:01:43Z</time>
<desc>lat.=55.660904, lon.=26.571980, Alt.=148.189575m. Speed=0.000000m/h.</desc>
<speed>0.000000</speed>
</trkpt>
<trkpt lat="55.660904" lon="26.571980">
<ele>148.185669</ele>
<time>2010-07-18T11:01:44Z</time>
<desc>lat.=55.660904, lon.=26.571980, Alt.=148.185669m. Speed=0.000000m/h.</desc>
<speed>0.000000</speed>
</trkpt>
<trkpt lat="55.660904" lon="26.571980">
<ele>148.185669</ele>
<time>2010-07-18T11:01:45Z</time>
<desc>lat.=55.660904, lon.=26.571980, Alt.=148.185669m. Speed=0.000000m/h.</desc>
<speed>0.000000</speed>
</trkpt>
<trkpt lat="55.660904" lon="26.571980">
<ele>148.185669</ele>
<time>2010-07-18T11:01:46Z</time>
<desc>lat.=55.660904, lon.=26.571980, Alt.=148.185669m. Speed=0.000000m/h.</desc>
<speed>0.000000</speed>
</trkpt>
<trkpt lat="55.660904" lon="26.571980">
<ele>148.185669</ele>
<time>2010-07-18T11:01:47Z</time>
<desc>lat.=55.660904, lon.=26.571980, Alt.=148.185669m. Speed=0.036000m/h.</desc>
<speed>0.010000</speed>
</trkpt>
<trkpt lat="55.660904" lon="26.571980">
<ele>148.185669</ele>
<time>2010-07-18T11:01:48Z</time>
<desc>lat.=55.660904, lon.=26.571980, Alt.=148.185669m. Speed=0.000000m/h.</desc>
<speed>0.000000</speed>
</trkpt>
<trkpt lat="55.660904" lon="26.571980">
<ele>148.185669</ele>
<time>2010-07-18T11:01:49Z</time>
<desc>lat.=55.660904, lon.=26.571980, Alt.=148.185669m. Speed=0.036000m/h.</desc>
<speed>0.010000</speed>
</trkpt>
<trkpt lat="55.660904" lon="26.571980">
<ele>148.185669</ele>
<time>2010-07-18T11:01:50Z</time>
<desc>lat.=55.660904, lon.=26.571980, Alt.=148.185669m. Speed=0.036000m/h.</desc>
<speed>0.010000</speed>
</trkpt>
<trkpt lat="55.660904" lon="26.571980">
<ele>148.181763</ele>
<time>2010-07-18T11:01:51Z</time>
<desc>lat.=55.660904, lon.=26.571980, Alt.=148.181763m. Speed=0.036000m/h.</desc>
<speed>0.010000</speed>
</trkpt>
<trkpt lat="55.660904" lon="26.571980">
<ele>148.181763</ele>
<time>2010-07-18T11:01:52Z</time>
<desc>lat.=55.660904, lon.=26.571980, Alt.=148.181763m. Speed=0.000000m/h.</desc>
<speed>0.000000</speed>
</trkpt>
<trkpt lat="55.660904" lon="26.571980">
<ele>148.181763</ele>
<time>2010-07-18T11:01:53Z</time>
<desc>lat.=55.660904, lon.=26.571980, Alt.=148.181763m. Speed=0.000000m/h.</desc>
<speed>0.000000</speed>
</trkpt>
<trkpt lat="55.660904" lon="26.571980">
<ele>148.181763</ele>
<time>2010-07-18T11:01:54Z</time>
<desc>lat.=55.660904, lon.=26.571980, Alt.=148.181763m. Speed=0.000000m/h.</desc>
<speed>0.000000</speed>
</trkpt>
<trkpt lat="55.660904" lon="26.571980">
<ele>148.181763</ele>
<time>2010-07-18T11:01:55Z</time>
<desc>lat.=55.660904, lon.=26.571980, Alt.=148.181763m. Speed=0.000000m/h.</desc>
<speed>0.000000</speed>
</trkpt>
<trkpt lat="55.660904" lon="26.571980">
<ele>148.181763</ele>
<time>2010-07-18T11:01:56Z</time>
<desc>lat.=55.660904, lon.=26.571980, Alt.=148.181763m. Speed=0.036000m/h.</desc>
<speed>0.010000</speed>
</trkpt>
<trkpt lat="55.660904" lon="26.571980">
<ele>148.185669</ele>
<time>2010-07-18T11:01:57Z</time>
<desc>lat.=55.660904, lon.=26.571980, Alt.=148.185669m. Speed=0.000000m/h.</desc>
<speed>0.000000</speed>
</trkpt>
<trkpt lat="55.660904" lon="26.571980">
<ele>148.185669</ele>
<time>2010-07-18T11:01:58Z</time>
<desc>lat.=55.660904, lon.=26.571980, Alt.=148.185669m. Speed=0.000000m/h.</desc>
<speed>0.000000</speed>
</trkpt>
<trkpt lat="55.660904" lon="26.571980">
<ele>148.181763</ele>
<time>2010-07-18T11:01:59Z</time>
<desc>lat.=55.660904, lon.=26.571980, Alt.=148.181763m. Speed=0.000000m/h.</desc>
<speed>0.000000</speed>
</trkpt>
<trkpt lat="55.660904" lon="26.571980">
<ele>148.181763</ele>
<time>2010-07-18T11:02:00Z</time>
<desc>lat.=55.660904, lon.=26.571980, Alt.=148.181763m. Speed=0.000000m/h.</desc>
<speed>0.000000</speed>
</trkpt>
<trkpt lat="55.660904" lon="26.571980">
<ele>148.181763</ele>
<time>2010-07-18T11:02:01Z</time>
<desc>lat.=55.660904, lon.=26.571980, Alt.=148.181763m. Speed=0.000000m/h.</desc>
<speed>0.000000</speed>
</trkpt>
<trkpt lat="55.660904" lon="26.571980">
<ele>148.177856</ele>
<time>2010-07-18T11:02:02Z</time>
<desc>lat.=55.660904, lon.=26.571980, Alt.=148.177856m. Speed=0.000000m/h.</desc>
<speed>0.000000</speed>
</trkpt>
<trkpt lat="55.660904" lon="26.571980">
<ele>148.177856</ele>
<time>2010-07-18T11:02:03Z</time>
<desc>lat.=55.660904, lon.=26.571980, Alt.=148.177856m. Speed=0.000000m/h.</desc>
<speed>0.000000</speed>
</trkpt>
<trkpt lat="55.660904" lon="26.571978">
<ele>148.173950</ele>
<time>2010-07-18T11:02:04Z</time>
<desc>lat.=55.660904, lon.=26.571978, Alt.=148.173950m. Speed=0.000000m/h.</desc>
<speed>0.000000</speed>
</trkpt>
<trkpt lat="55.660904" lon="26.571978">
<ele>148.173950</ele>
<time>2010-07-18T11:02:05Z</time>
<desc>lat.=55.660904, lon.=26.571978, Alt.=148.173950m. Speed=0.000000m/h.</desc>
<speed>0.000000</speed>
</trkpt>
<trkpt lat="55.660904" lon="26.571978">
<ele>148.173950</ele>
<time>2010-07-18T11:02:06Z</time>
<desc>lat.=55.660904, lon.=26.571978, Alt.=148.173950m. Speed=0.000000m/h.</desc>
<speed>0.000000</speed>
</trkpt>
<trkpt lat="55.660904" lon="26.571978">
<ele>148.170044</ele>
<time>2010-07-18T11:02:07Z</time>
<desc>lat.=55.660904, lon.=26.571978, Alt.=148.170044m. Speed=0.000000m/h.</desc>
<speed>0.000000</speed>
</trkpt>
<trkpt lat="55.660904" lon="26.571978">
<ele>148.166138</ele>
<time>2010-07-18T11:02:08Z</time>
<desc>lat.=55.660904, lon.=26.571978, Alt.=148.166138m. Speed=0.000000m/h.</desc>
<speed>0.000000</speed>
</trkpt>
<trkpt lat="55.660904" lon="26.571978">
<ele>148.162231</ele>
<time>2010-07-18T11:02:09Z</time>
<desc>lat.=55.660904, lon.=26.571978, Alt.=148.162231m. Speed=0.000000m/h.</desc>
<speed>0.000000</speed>
</trkpt>
<trkpt lat="55.660904" lon="26.571978">
<ele>148.158325</ele>
<time>2010-07-18T11:02:10Z</time>
<desc>lat.=55.660904, lon.=26.571978, Alt.=148.158325m. Speed=0.000000m/h.</desc>
<speed>0.000000</speed>
</trkpt>
<trkpt lat="55.660904" lon="26.571978">
<ele>148.154419</ele>
<time>2010-07-18T11:02:11Z</time>
<desc>lat.=55.660904, lon.=26.571978, Alt.=148.154419m. Speed=0.000000m/h.</desc>
<speed>0.000000</speed>
</trkpt>
<trkpt lat="55.660904" lon="26.571978">
<ele>148.150513</ele>
<time>2010-07-18T11:02:12Z</time>
<desc>lat.=55.660904, lon.=26.571978, Alt.=148.150513m. Speed=0.000000m/h.</desc>
<speed>0.000000</speed>
</trkpt>
<trkpt lat="55.660904" lon="26.571978">
<ele>148.146606</ele>
<time>2010-07-18T11:02:13Z</time>
<desc>lat.=55.660904, lon.=26.571978, Alt.=148.146606m. Speed=0.000000m/h.</desc>
<speed>0.000000</speed>
</trkpt>
<trkpt lat="55.660904" lon="26.571978">
<ele>148.142700</ele>
<time>2010-07-18T11:02:14Z</time>
<desc>lat.=55.660904, lon.=26.571978, Alt.=148.142700m. Speed=0.000000m/h.</desc>
<speed>0.000000</speed>
</trkpt>
<trkpt lat="55.660904" lon="26.571978">
<ele>148.138794</ele>
<time>2010-07-18T11:02:15Z</time>
<desc>lat.=55.660904, lon.=26.571978, Alt.=148.138794m. Speed=0.000000m/h.</desc>
<speed>0.000000</speed>
</trkpt>
<trkpt lat="55.660904" lon="26.571978">
<ele>148.134888</ele>
<time>2010-07-18T11:02:16Z</time>
<desc>lat.=55.660904, lon.=26.571978, Alt.=148.134888m. Speed=0.000000m/h.</desc>
<speed>0.000000</speed>
</trkpt>
<trkpt lat="55.660904" lon="26.571978">
<ele>148.130981</ele>
<time>2010-07-18T11:02:17Z</time>
<desc>lat.=55.660904, lon.=26.571978, Alt.=148.130981m. Speed=0.000000m/h.</desc>
<speed>0.000000</speed>
</trkpt>
<trkpt lat="55.660904" lon="26.571978">
<ele>148.127075</ele>
<time>2010-07-18T11:02:18Z</time>
<desc>lat.=55.660904, lon.=26.571978, Alt.=148.127075m. Speed=0.000000m/h.</desc>
<speed>0.000000</speed>
</trkpt>
<trkpt lat="55.660904" lon="26.571978">
<ele>148.123169</ele>
<time>2010-07-18T11:02:19Z</time>
<desc>lat.=55.660904, lon.=26.571978, Alt.=148.123169m. Speed=0.000000m/h.</desc>
<speed>0.000000</speed>
</trkpt>
<trkpt lat="55.660904" lon="26.571978">
<ele>148.119263</ele>
<time>2010-07-18T11:02:20Z</time>
<desc>lat.=55.660904, lon.=26.571978, Alt.=148.119263m. Speed=0.000000m/h.</desc>
<speed>0.000000</speed>
</trkpt>
<trkpt lat="55.660904" lon="26.571978">
<ele>148.115356</ele>
<time>2010-07-18T11:02:21Z</time>
<desc>lat.=55.660904, lon.=26.571978, Alt.=148.115356m. Speed=0.000000m/h.</desc>
<speed>0.000000</speed>
</trkpt>
<trkpt lat="55.660904" lon="26.571978">
<ele>148.111450</ele>
<time>2010-07-18T11:02:22Z</time>
<desc>lat.=55.660904, lon.=26.571978, Alt.=148.111450m. Speed=0.000000m/h.</desc>
<speed>0.000000</speed>
</trkpt>
<trkpt lat="55.660904" lon="26.571978">
<ele>148.107544</ele>
<time>2010-07-18T11:02:23Z</time>
<desc>lat.=55.660904, lon.=26.571978, Alt.=148.107544m. Speed=0.000000m/h.</desc>
<speed>0.000000</speed>
</trkpt>
<trkpt lat="55.660908" lon="26.571978">
<ele>148.103638</ele>
<time>2010-07-18T11:02:24Z</time>
<desc>lat.=55.660908, lon.=26.571978, Alt.=148.103638m. Speed=0.000000m/h.</desc>
<speed>0.000000</speed>
</trkpt>
<trkpt lat="55.660908" lon="26.571978">
<ele>148.099731</ele>
<time>2010-07-18T11:02:25Z</time>
<desc>lat.=55.660908, lon.=26.571978, Alt.=148.099731m. Speed=0.000000m/h.</desc>
<speed>0.000000</speed>
</trkpt>
<trkpt lat="55.660908" lon="26.571978">
<ele>148.099731</ele>
<time>2010-07-18T11:02:26Z</time>
<desc>lat.=55.660908, lon.=26.571978, Alt.=148.099731m. Speed=0.000000m/h.</desc>
<speed>0.000000</speed>
</trkpt>
<trkpt lat="55.660908" lon="26.571978">
<ele>148.099731</ele>
<time>2010-07-18T11:02:27Z</time>
<desc>lat.=55.660908, lon.=26.571978, Alt.=148.099731m. Speed=0.000000m/h.</desc>
<speed>0.000000</speed>
</trkpt>
<trkpt lat="55.660908" lon="26.571978">
<ele>148.095825</ele>
<time>2010-07-18T11:02:28Z</time>
<desc>lat.=55.660908, lon.=26.571978, Alt.=148.095825m. Speed=0.000000m/h.</desc>
<speed>0.000000</speed>
</trkpt>
<trkpt lat="55.660908" lon="26.571978">
<ele>148.091919</ele>
<time>2010-07-18T11:02:29Z</time>
<desc>lat.=55.660908, lon.=26.571978, Alt.=148.091919m. Speed=0.000000m/h.</desc>
<speed>0.000000</speed>
</trkpt>
<trkpt lat="55.660908" lon="26.571978">
<ele>148.091919</ele>
<time>2010-07-18T11:02:30Z</time>
<desc>lat.=55.660908, lon.=26.571978, Alt.=148.091919m. Speed=0.000000m/h.</desc>
<speed>0.000000</speed>
</trkpt>
<trkpt lat="55.660908" lon="26.571978">
<ele>148.091919</ele>
<time>2010-07-18T11:02:31Z</time>
<desc>lat.=55.660908, lon.=26.571978, Alt.=148.091919m. Speed=0.000000m/h.</desc>
<speed>0.000000</speed>
</trkpt>
<trkpt lat="55.660908" lon="26.571978">
<ele>148.088013</ele>
<time>2010-07-18T11:02:32Z</time>
<desc>lat.=55.660908, lon.=26.571978, Alt.=148.088013m. Speed=0.000000m/h.</desc>
<speed>0.000000</speed>
</trkpt>
<trkpt lat="55.660908" lon="26.571978">
<ele>148.084106</ele>
<time>2010-07-18T11:02:33Z</time>
<desc>lat.=55.660908, lon.=26.571978, Alt.=148.084106m. Speed=0.000000m/h.</desc>
<speed>0.000000</speed>
</trkpt>
<trkpt lat="55.660908" lon="26.571978">
<ele>148.084106</ele>
<time>2010-07-18T11:02:34Z</time>
<desc>lat.=55.660908, lon.=26.571978, Alt.=148.084106m. Speed=0.000000m/h.</desc>
<speed>0.000000</speed>
</trkpt>
<trkpt lat="55.660908" lon="26.571978">
<ele>148.080200</ele>
<time>2010-07-18T11:02:35Z</time>
<desc>lat.=55.660908, lon.=26.571978, Alt.=148.080200m. Speed=0.000000m/h.</desc>
<speed>0.000000</speed>
</trkpt>
<trkpt lat="55.660908" lon="26.571978">
<ele>148.080200</ele>
<time>2010-07-18T11:02:36Z</time>
<desc>lat.=55.660908, lon.=26.571978, Alt.=148.080200m. Speed=0.000000m/h.</desc>
<speed>0.000000</speed>
</trkpt>
<trkpt lat="55.660908" lon="26.571978">
<ele>148.076294</ele>
<time>2010-07-18T11:02:37Z</time>
<desc>lat.=55.660908, lon.=26.571978, Alt.=148.076294m. Speed=0.000000m/h.</desc>
<speed>0.000000</speed>
</trkpt>
<trkpt lat="55.660908" lon="26.571978">
<ele>148.076294</ele>
<time>2010-07-18T11:02:38Z</time>
<desc>lat.=55.660908, lon.=26.571978, Alt.=148.076294m. Speed=0.000000m/h.</desc>
<speed>0.000000</speed>
</trkpt>
<trkpt lat="55.660908" lon="26.571978">
<ele>148.072388</ele>
<time>2010-07-18T11:02:39Z</time>
<desc>lat.=55.660908, lon.=26.571978, Alt.=148.072388m. Speed=0.000000m/h.</desc>
<speed>0.000000</speed>
</trkpt>
<trkpt lat="55.660908" lon="26.571978">
<ele>148.072388</ele>
<time>2010-07-18T11:02:40Z</time>
<desc>lat.=55.660908, lon.=26.571978, Alt.=148.072388m. Speed=0.000000m/h.</desc>
<speed>0.000000</speed>
</trkpt>
<trkpt lat="55.660908" lon="26.571978">
<ele>148.072388</ele>
<time>2010-07-18T11:02:41Z</time>
<desc>lat.=55.660908, lon.=26.571978, Alt.=148.072388m. Speed=0.000000m/h.</desc>
<speed>0.000000</speed>
</trkpt>
<trkpt lat="55.660908" lon="26.571978">
<ele>148.072388</ele>
<time>2010-07-18T11:02:42Z</time>
<desc>lat.=55.660908, lon.=26.571978, Alt.=148.072388m. Speed=0.000000m/h.</desc>
<speed>0.000000</speed>
</trkpt>
<trkpt lat="55.660908" lon="26.571978">
<ele>148.072388</ele>
<time>2010-07-18T11:02:43Z</time>
<desc>lat.=55.660908, lon.=26.571978, Alt.=148.072388m. Speed=0.000000m/h.</desc>
<speed>0.000000</speed>
</trkpt>
<trkpt lat="55.660908" lon="26.571978">
<ele>148.072388</ele>
<time>2010-07-18T11:02:44Z</time>
<desc>lat.=55.660908, lon.=26.571978, Alt.=148.072388m. Speed=0.000000m/h.</desc>
<speed>0.000000</speed>
</trkpt>
<trkpt lat="55.660908" lon="26.571978">
<ele>148.072388</ele>
<time>2010-07-18T11:02:45Z</time>
<desc>lat.=55.660908, lon.=26.571978, Alt.=148.072388m. Speed=0.000000m/h.</desc>
<speed>0.000000</speed>
</trkpt>
<trkpt lat="55.660908" lon="26.571978">
<ele>148.072388</ele>
<time>2010-07-18T11:02:46Z</time>
<desc>lat.=55.660908, lon.=26.571978, Alt.=148.072388m. Speed=0.000000m/h.</desc>
<speed>0.000000</speed>
</trkpt>
<trkpt lat="55.660908" lon="26.571978">
<ele>148.072388</ele>
<time>2010-07-18T11:02:47Z</time>
<desc>lat.=55.660908, lon.=26.571978, Alt.=148.072388m. Speed=0.000000m/h.</desc>
<speed>0.000000</speed>
</trkpt>
<trkpt lat="55.660908" lon="26.571978">
<ele>148.072388</ele>
<time>2010-07-18T11:02:48Z</time>
<desc>lat.=55.660908, lon.=26.571978, Alt.=148.072388m. Speed=0.000000m/h.</desc>
<speed>0.000000</speed>
</trkpt>
<trkpt lat="55.660908" lon="26.571978">
<ele>148.068481</ele>
<time>2010-07-18T11:02:49Z</time>
<desc>lat.=55.660908, lon.=26.571978, Alt.=148.068481m. Speed=0.000000m/h.</desc>
<speed>0.000000</speed>
</trkpt>
<trkpt lat="55.660908" lon="26.571978">
<ele>148.068481</ele>
<time>2010-07-18T11:02:50Z</time>
<desc>lat.=55.660908, lon.=26.571978, Alt.=148.068481m. Speed=0.000000m/h.</desc>
<speed>0.000000</speed>
</trkpt>
<trkpt lat="55.660908" lon="26.571978">
<ele>148.068481</ele>
<time>2010-07-18T11:02:51Z</time>
<desc>lat.=55.660908, lon.=26.571978, Alt.=148.068481m. Speed=0.000000m/h.</desc>
<speed>0.000000</speed>
</trkpt>
<trkpt lat="55.660908" lon="26.571978">
<ele>148.064575</ele>
<time>2010-07-18T11:02:52Z</time>
<desc>lat.=55.660908, lon.=26.571978, Alt.=148.064575m. Speed=0.000000m/h.</desc>
<speed>0.000000</speed>
</trkpt>
<trkpt lat="55.660908" lon="26.571978">
<ele>148.064575</ele>
<time>2010-07-18T11:02:53Z</time>
<desc>lat.=55.660908, lon.=26.571978, Alt.=148.064575m. Speed=0.000000m/h.</desc>
<speed>0.000000</speed>
</trkpt>
<trkpt lat="55.660908" lon="26.571978">
<ele>148.060669</ele>
<time>2010-07-18T11:02:54Z</time>
<desc>lat.=55.660908, lon.=26.571978, Alt.=148.060669m. Speed=0.000000m/h.</desc>
<speed>0.000000</speed>
</trkpt>
<trkpt lat="55.660908" lon="26.571978">
<ele>148.056763</ele>
<time>2010-07-18T11:02:55Z</time>
<desc>lat.=55.660908, lon.=26.571978, Alt.=148.056763m. Speed=0.000000m/h.</desc>
<speed>0.000000</speed>
</trkpt>
<trkpt lat="55.660908" lon="26.571978">
<ele>148.052856</ele>
<time>2010-07-18T11:02:56Z</time>
<desc>lat.=55.660908, lon.=26.571978, Alt.=148.052856m. Speed=0.000000m/h.</desc>
<speed>0.000000</speed>
</trkpt>
<trkpt lat="55.660908" lon="26.571978">
<ele>148.052856</ele>
<time>2010-07-18T11:02:57Z</time>
<desc>lat.=55.660908, lon.=26.571978, Alt.=148.052856m. Speed=0.000000m/h.</desc>
<speed>0.000000</speed>
</trkpt>
<trkpt lat="55.660908" lon="26.571978">
<ele>148.048950</ele>
<time>2010-07-18T11:02:58Z</time>
<desc>lat.=55.660908, lon.=26.571978, Alt.=148.048950m. Speed=0.000000m/h.</desc>
<speed>0.000000</speed>
</trkpt>
<trkpt lat="55.660908" lon="26.571978">
<ele>148.045044</ele>
<time>2010-07-18T11:02:59Z</time>
<desc>lat.=55.660908, lon.=26.571978, Alt.=148.045044m. Speed=0.000000m/h.</desc>
<speed>0.000000</speed>
</trkpt>
<trkpt lat="55.660908" lon="26.571978">
<ele>148.041138</ele>
<time>2010-07-18T11:03:00Z</time>
<desc>lat.=55.660908, lon.=26.571978, Alt.=148.041138m. Speed=0.000000m/h.</desc>
<speed>0.000000</speed>
</trkpt>
<trkpt lat="55.660908" lon="26.571978">
<ele>148.037231</ele>
<time>2010-07-18T11:03:01Z</time>
<desc>lat.=55.660908, lon.=26.571978, Alt.=148.037231m. Speed=0.000000m/h.</desc>
<speed>0.000000</speed>
</trkpt>
<trkpt lat="55.660908" lon="26.571978">
<ele>148.033325</ele>
<time>2010-07-18T11:03:02Z</time>
<desc>lat.=55.660908, lon.=26.571978, Alt.=148.033325m. Speed=0.000000m/h.</desc>
<speed>0.000000</speed>
</trkpt>
<trkpt lat="55.660908" lon="26.571978">
<ele>148.029419</ele>
<time>2010-07-18T11:03:03Z</time>
<desc>lat.=55.660908, lon.=26.571978, Alt.=148.029419m. Speed=0.000000m/h.</desc>
<speed>0.000000</speed>
</trkpt>
<trkpt lat="55.660908" lon="26.571978">
<ele>148.025513</ele>
<time>2010-07-18T11:03:04Z</time>
<desc>lat.=55.660908, lon.=26.571978, Alt.=148.025513m. Speed=0.000000m/h.</desc>
<speed>0.000000</speed>
</trkpt>
<trkpt lat="55.660908" lon="26.571978">
<ele>148.017700</ele>
<time>2010-07-18T11:03:05Z</time>
<desc>lat.=55.660908, lon.=26.571978, Alt.=148.017700m. Speed=0.000000m/h.</desc>
<speed>0.000000</speed>
</trkpt>
<trkpt lat="55.660908" lon="26.571978">
<ele>148.013794</ele>
<time>2010-07-18T11:03:06Z</time>
<desc>lat.=55.660908, lon.=26.571978, Alt.=148.013794m. Speed=0.000000m/h.</desc>
<speed>0.000000</speed>
</trkpt>
<trkpt lat="55.660908" lon="26.571978">
<ele>148.009888</ele>
<time>2010-07-18T11:03:07Z</time>
<desc>lat.=55.660908, lon.=26.571978, Alt.=148.009888m. Speed=0.000000m/h.</desc>
<speed>0.000000</speed>
</trkpt>
<trkpt lat="55.660908" lon="26.571978">
<ele>148.009888</ele>
<time>2010-07-18T11:03:08Z</time>
<desc>lat.=55.660908, lon.=26.571978, Alt.=148.009888m. Speed=0.000000m/h.</desc>
<speed>0.000000</speed>
</trkpt>
<trkpt lat="55.660908" lon="26.571978">
<ele>148.002075</ele>
<time>2010-07-18T11:03:09Z</time>
<desc>lat.=55.660908, lon.=26.571978, Alt.=148.002075m. Speed=0.000000m/h.</desc>
<speed>0.000000</speed>
</trkpt>
<trkpt lat="55.660908" lon="26.571978">
<ele>147.998169</ele>
<time>2010-07-18T11:03:10Z</time>
<desc>lat.=55.660908, lon.=26.571978, Alt.=147.998169m. Speed=0.000000m/h.</desc>
<speed>0.000000</speed>
</trkpt>
<trkpt lat="55.660908" lon="26.571978">
<ele>147.994263</ele>
<time>2010-07-18T11:03:11Z</time>
<desc>lat.=55.660908, lon.=26.571978, Alt.=147.994263m. Speed=0.000000m/h.</desc>
<speed>0.000000</speed>
</trkpt>
<trkpt lat="55.660908" lon="26.571978">
<ele>147.990356</ele>
<time>2010-07-18T11:03:12Z</time>
<desc>lat.=55.660908, lon.=26.571978, Alt.=147.990356m. Speed=0.000000m/h.</desc>
<speed>0.000000</speed>
</trkpt>
<trkpt lat="55.660908" lon="26.571978">
<ele>147.986450</ele>
<time>2010-07-18T11:03:13Z</time>
<desc>lat.=55.660908, lon.=26.571978, Alt.=147.986450m. Speed=0.000000m/h.</desc>
<speed>0.000000</speed>
</trkpt>
<trkpt lat="55.660908" lon="26.571978">
<ele>147.982544</ele>
<time>2010-07-18T11:03:14Z</time>
<desc>lat.=55.660908, lon.=26.571978, Alt.=147.982544m. Speed=0.000000m/h.</desc>
<speed>0.000000</speed>
</trkpt>
<trkpt lat="55.660908" lon="26.571978">
<ele>147.982544</ele>
<time>2010-07-18T11:03:15Z</time>
<desc>lat.=55.660908, lon.=26.571978, Alt.=147.982544m. Speed=0.000000m/h.</desc>
<speed>0.000000</speed>
</trkpt>
<trkpt lat="55.660908" lon="26.571978">
<ele>147.978638</ele>
<time>2010-07-18T11:03:16Z</time>
<desc>lat.=55.660908, lon.=26.571978, Alt.=147.978638m. Speed=0.000000m/h.</desc>
<speed>0.000000</speed>
</trkpt>
<trkpt lat="55.660908" lon="26.571978">
<ele>147.974731</ele>
<time>2010-07-18T11:03:17Z</time>
<desc>lat.=55.660908, lon.=26.571978, Alt.=147.974731m. Speed=0.000000m/h.</desc>
<speed>0.000000</speed>
</trkpt>
<trkpt lat="55.660908" lon="26.571978">
<ele>147.974731</ele>
<time>2010-07-18T11:03:18Z</time>
<desc>lat.=55.660908, lon.=26.571978, Alt.=147.974731m. Speed=0.000000m/h.</desc>
<speed>0.000000</speed>
</trkpt>
<trkpt lat="55.660908" lon="26.571978">
<ele>147.970825</ele>
<time>2010-07-18T11:03:19Z</time>
<desc>lat.=55.660908, lon.=26.571978, Alt.=147.970825m. Speed=0.000000m/h.</desc>
<speed>0.000000</speed>
</trkpt>
<trkpt lat="55.660908" lon="26.571978">
<ele>147.966919</ele>
<time>2010-07-18T11:03:20Z</time>
<desc>lat.=55.660908, lon.=26.571978, Alt.=147.966919m. Speed=0.000000m/h.</desc>
<speed>0.000000</speed>
</trkpt>
<trkpt lat="55.660908" lon="26.571978">
<ele>147.966919</ele>
<time>2010-07-18T11:03:21Z</time>
<desc>lat.=55.660908, lon.=26.571978, Alt.=147.966919m. Speed=0.000000m/h.</desc>
<speed>0.000000</speed>
</trkpt>
<trkpt lat="55.660908" lon="26.571978">
<ele>147.963013</ele>
<time>2010-07-18T11:03:22Z</time>
<desc>lat.=55.660908, lon.=26.571978, Alt.=147.963013m. Speed=0.000000m/h.</desc>
<speed>0.000000</speed>
</trkpt>
<trkpt lat="55.660908" lon="26.571978">
<ele>147.963013</ele>
<time>2010-07-18T11:03:23Z</time>
<desc>lat.=55.660908, lon.=26.571978, Alt.=147.963013m. Speed=0.000000m/h.</desc>
<speed>0.000000</speed>
</trkpt>
<trkpt lat="55.660908" lon="26.571978">
<ele>147.959106</ele>
<time>2010-07-18T11:03:24Z</time>
<desc>lat.=55.660908, lon.=26.571978, Alt.=147.959106m. Speed=0.000000m/h.</desc>
<speed>0.000000</speed>
</trkpt>
<trkpt lat="55.660908" lon="26.571978">
<ele>147.959106</ele>
<time>2010-07-18T11:03:25Z</time>
<desc>lat.=55.660908, lon.=26.571978, Alt.=147.959106m. Speed=0.000000m/h.</desc>
<speed>0.000000</speed>
</trkpt>
<trkpt lat="55.660908" lon="26.571978">
<ele>147.959106</ele>
<time>2010-07-18T11:03:26Z</time>
<desc>lat.=55.660908, lon.=26.571978, Alt.=147.959106m. Speed=0.000000m/h.</desc>
<speed>0.000000</speed>
</trkpt>
<trkpt lat="55.660908" lon="26.571978">
<ele>147.955200</ele>
<time>2010-07-18T11:03:27Z</time>
<desc>lat.=55.660908, lon.=26.571978, Alt.=147.955200m. Speed=0.000000m/h.</desc>
<speed>0.000000</speed>
</trkpt>
<trkpt lat="55.660908" lon="26.571978">
<ele>147.955200</ele>
<time>2010-07-18T11:03:28Z</time>
<desc>lat.=55.660908, lon.=26.571978, Alt.=147.955200m. Speed=0.036000m/h.</desc>
<speed>0.010000</speed>
</trkpt>
<trkpt lat="55.660908" lon="26.571978">
<ele>147.951294</ele>
<time>2010-07-18T11:03:29Z</time>
<desc>lat.=55.660908, lon.=26.571978, Alt.=147.951294m. Speed=0.000000m/h.</desc>
<speed>0.000000</speed>
</trkpt>
<trkpt lat="55.660908" lon="26.571978">
<ele>147.951294</ele>
<time>2010-07-18T11:03:30Z</time>
<desc>lat.=55.660908, lon.=26.571978, Alt.=147.951294m. Speed=0.000000m/h.</desc>
<speed>0.000000</speed>
</trkpt>
<trkpt lat="55.660908" lon="26.571976">
<ele>147.951294</ele>
<time>2010-07-18T11:03:31Z</time>
<desc>lat.=55.660908, lon.=26.571976, Alt.=147.951294m. Speed=0.000000m/h.</desc>
<speed>0.000000</speed>
</trkpt>
<trkpt lat="55.660908" lon="26.571976">
<ele>147.951294</ele>
<time>2010-07-18T11:03:32Z</time>
<desc>lat.=55.660908, lon.=26.571976, Alt.=147.951294m. Speed=0.000000m/h.</desc>
<speed>0.000000</speed>
</trkpt>
<trkpt lat="55.660908" lon="26.571976">
<ele>147.951294</ele>
<time>2010-07-18T11:03:33Z</time>
<desc>lat.=55.660908, lon.=26.571976, Alt.=147.951294m. Speed=0.000000m/h.</desc>
<speed>0.000000</speed>
</trkpt>
<trkpt lat="55.660908" lon="26.571976">
<ele>147.951294</ele>
<time>2010-07-18T11:03:34Z</time>
<desc>lat.=55.660908, lon.=26.571976, Alt.=147.951294m. Speed=0.000000m/h.</desc>
<speed>0.000000</speed>
</trkpt>
<trkpt lat="55.660908" lon="26.571976">
<ele>147.951294</ele>
<time>2010-07-18T11:03:35Z</time>
<desc>lat.=55.660908, lon.=26.571976, Alt.=147.951294m. Speed=0.000000m/h.</desc>
<speed>0.000000</speed>
</trkpt>
<trkpt lat="55.660908" lon="26.571976">
<ele>147.947388</ele>
<time>2010-07-18T11:03:36Z</time>
<desc>lat.=55.660908, lon.=26.571976, Alt.=147.947388m. Speed=0.000000m/h.</desc>
<speed>0.000000</speed>
</trkpt>
<trkpt lat="55.660908" lon="26.571976">
<ele>147.947388</ele>
<time>2010-07-18T11:03:37Z</time>
<desc>lat.=55.660908, lon.=26.571976, Alt.=147.947388m. Speed=0.000000m/h.</desc>
<speed>0.000000</speed>
</trkpt>
<trkpt lat="55.660908" lon="26.571976">
<ele>147.947388</ele>
<time>2010-07-18T11:03:38Z</time>
<desc>lat.=55.660908, lon.=26.571976, Alt.=147.947388m. Speed=0.000000m/h.</desc>
<speed>0.000000</speed>
</trkpt>
<trkpt lat="55.660908" lon="26.571976">
<ele>147.947388</ele>
<time>2010-07-18T11:03:39Z</time>
<desc>lat.=55.660908, lon.=26.571976, Alt.=147.947388m. Speed=0.000000m/h.</desc>
<speed>0.000000</speed>
</trkpt>
<trkpt lat="55.660908" lon="26.571976">
<ele>147.947388</ele>
<time>2010-07-18T11:03:40Z</time>
<desc>lat.=55.660908, lon.=26.571976, Alt.=147.947388m. Speed=0.000000m/h.</desc>
<speed>0.000000</speed>
</trkpt>
<trkpt lat="55.660908" lon="26.571976">
<ele>147.943481</ele>
<time>2010-07-18T11:03:41Z</time>
<desc>lat.=55.660908, lon.=26.571976, Alt.=147.943481m. Speed=0.000000m/h.</desc>
<speed>0.000000</speed>
</trkpt>
<trkpt lat="55.660908" lon="26.571976">
<ele>147.947388</ele>
<time>2010-07-18T11:03:42Z</time>
<desc>lat.=55.660908, lon.=26.571976, Alt.=147.947388m. Speed=0.000000m/h.</desc>
<speed>0.000000</speed>
</trkpt>
<trkpt lat="55.660908" lon="26.571976">
<ele>147.947388</ele>
<time>2010-07-18T11:03:43Z</time>
<desc>lat.=55.660908, lon.=26.571976, Alt.=147.947388m. Speed=0.000000m/h.</desc>
<speed>0.000000</speed>
</trkpt>
<trkpt lat="55.660908" lon="26.571976">
<ele>147.947388</ele>
<time>2010-07-18T11:03:44Z</time>
<desc>lat.=55.660908, lon.=26.571976, Alt.=147.947388m. Speed=0.000000m/h.</desc>
<speed>0.000000</speed>
</trkpt>
<trkpt lat="55.660908" lon="26.571976">
<ele>147.947388</ele>
<time>2010-07-18T11:03:45Z</time>
<desc>lat.=55.660908, lon.=26.571976, Alt.=147.947388m. Speed=0.000000m/h.</desc>
<speed>0.000000</speed>
</trkpt>
<trkpt lat="55.660908" lon="26.571976">
<ele>147.947388</ele>
<time>2010-07-18T11:03:46Z</time>
<desc>lat.=55.660908, lon.=26.571976, Alt.=147.947388m. Speed=0.000000m/h.</desc>
<speed>0.000000</speed>
</trkpt>
<trkpt lat="55.660908" lon="26.571976">
<ele>147.947388</ele>
<time>2010-07-18T11:03:47Z</time>
<desc>lat.=55.660908, lon.=26.571976, Alt.=147.947388m. Speed=0.036000m/h.</desc>
<speed>0.010000</speed>
</trkpt>
<trkpt lat="55.660908" lon="26.571976">
<ele>147.947388</ele>
<time>2010-07-18T11:03:48Z</time>
<desc>lat.=55.660908, lon.=26.571976, Alt.=147.947388m. Speed=0.000000m/h.</desc>
<speed>0.000000</speed>
</trkpt>
<trkpt lat="55.660908" lon="26.571976">
<ele>147.951294</ele>
<time>2010-07-18T11:03:49Z</time>
<desc>lat.=55.660908, lon.=26.571976, Alt.=147.951294m. Speed=0.000000m/h.</desc>
<speed>0.000000</speed>
</trkpt>
<trkpt lat="55.660908" lon="26.571976">
<ele>147.951294</ele>
<time>2010-07-18T11:03:50Z</time>
<desc>lat.=55.660908, lon.=26.571976, Alt.=147.951294m. Speed=0.000000m/h.</desc>
<speed>0.000000</speed>
</trkpt>
<trkpt lat="55.660908" lon="26.571976">
<ele>147.951294</ele>
<time>2010-07-18T11:03:51Z</time>
<desc>lat.=55.660908, lon.=26.571976, Alt.=147.951294m. Speed=0.000000m/h.</desc>
<speed>0.000000</speed>
</trkpt>
<trkpt lat="55.660908" lon="26.571976">
<ele>147.951294</ele>
<time>2010-07-18T11:03:52Z</time>
<desc>lat.=55.660908, lon.=26.571976, Alt.=147.951294m. Speed=0.000000m/h.</desc>
<speed>0.000000</speed>
</trkpt>
<trkpt lat="55.660908" lon="26.571976">
<ele>147.947388</ele>
<time>2010-07-18T11:03:53Z</time>
<desc>lat.=55.660908, lon.=26.571976, Alt.=147.947388m. Speed=0.000000m/h.</desc>
<speed>0.000000</speed>
</trkpt>
<trkpt lat="55.660908" lon="26.571976">
<ele>147.947388</ele>
<time>2010-07-18T11:03:54Z</time>
<desc>lat.=55.660908, lon.=26.571976, Alt.=147.947388m. Speed=0.000000m/h.</desc>
<speed>0.000000</speed>
</trkpt>
<trkpt lat="55.660908" lon="26.571976">
<ele>147.947388</ele>
<time>2010-07-18T11:03:55Z</time>
<desc>lat.=55.660908, lon.=26.571976, Alt.=147.947388m. Speed=0.000000m/h.</desc>
<speed>0.000000</speed>
</trkpt>
<trkpt lat="55.660908" lon="26.571976">
<ele>147.943481</ele>
<time>2010-07-18T11:03:56Z</time>
<desc>lat.=55.660908, lon.=26.571976, Alt.=147.943481m. Speed=0.000000m/h.</desc>
<speed>0.000000</speed>
</trkpt>
<trkpt lat="55.660908" lon="26.571976">
<ele>147.943481</ele>
<time>2010-07-18T11:03:57Z</time>
<desc>lat.=55.660908, lon.=26.571976, Alt.=147.943481m. Speed=0.000000m/h.</desc>
<speed>0.000000</speed>
</trkpt>
<trkpt lat="55.660908" lon="26.571976">
<ele>147.939575</ele>
<time>2010-07-18T11:03:58Z</time>
<desc>lat.=55.660908, lon.=26.571976, Alt.=147.939575m. Speed=0.000000m/h.</desc>
<speed>0.000000</speed>
</trkpt>
<trkpt lat="55.660908" lon="26.571976">
<ele>147.939575</ele>
<time>2010-07-18T11:03:59Z</time>
<desc>lat.=55.660908, lon.=26.571976, Alt.=147.939575m. Speed=0.000000m/h.</desc>
<speed>0.000000</speed>
</trkpt>
<trkpt lat="55.660908" lon="26.571976">
<ele>147.939575</ele>
<time>2010-07-18T11:04:00Z</time>
<desc>lat.=55.660908, lon.=26.571976, Alt.=147.939575m. Speed=0.036000m/h.</desc>
<speed>0.010000</speed>
</trkpt>
<trkpt lat="55.660908" lon="26.571976">
<ele>147.935669</ele>
<time>2010-07-18T11:04:01Z</time>
<desc>lat.=55.660908, lon.=26.571976, Alt.=147.935669m. Speed=0.000000m/h.</desc>
<speed>0.000000</speed>
</trkpt>
<trkpt lat="55.660908" lon="26.571976">
<ele>147.935669</ele>
<time>2010-07-18T11:04:02Z</time>
<desc>lat.=55.660908, lon.=26.571976, Alt.=147.935669m. Speed=0.000000m/h.</desc>
<speed>0.000000</speed>
</trkpt>
<trkpt lat="55.660908" lon="26.571976">
<ele>147.931763</ele>
<time>2010-07-18T11:04:03Z</time>
<desc>lat.=55.660908, lon.=26.571976, Alt.=147.931763m. Speed=0.000000m/h.</desc>
<speed>0.000000</speed>
</trkpt>
<trkpt lat="55.660908" lon="26.571976">
<ele>147.927856</ele>
<time>2010-07-18T11:04:04Z</time>
<desc>lat.=55.660908, lon.=26.571976, Alt.=147.927856m. Speed=0.000000m/h.</desc>
<speed>0.000000</speed>
</trkpt>
<trkpt lat="55.660908" lon="26.571976">
<ele>147.927856</ele>
<time>2010-07-18T11:04:05Z</time>
<desc>lat.=55.660908, lon.=26.571976, Alt.=147.927856m. Speed=0.000000m/h.</desc>
<speed>0.000000</speed>
</trkpt>
<trkpt lat="55.660908" lon="26.571976">
<ele>147.927856</ele>
<time>2010-07-18T11:04:06Z</time>
<desc>lat.=55.660908, lon.=26.571976, Alt.=147.927856m. Speed=0.000000m/h.</desc>
<speed>0.000000</speed>
</trkpt>
<trkpt lat="55.660908" lon="26.571976">
<ele>147.923950</ele>
<time>2010-07-18T11:04:07Z</time>
<desc>lat.=55.660908, lon.=26.571976, Alt.=147.923950m. Speed=0.000000m/h.</desc>
<speed>0.000000</speed>
</trkpt>
<trkpt lat="55.660908" lon="26.571976">
<ele>147.923950</ele>
<time>2010-07-18T11:04:08Z</time>
<desc>lat.=55.660908, lon.=26.571976, Alt.=147.923950m. Speed=0.000000m/h.</desc>
<speed>0.000000</speed>
</trkpt>
<trkpt lat="55.660908" lon="26.571976">
<ele>147.923950</ele>
<time>2010-07-18T11:04:09Z</time>
<desc>lat.=55.660908, lon.=26.571976, Alt.=147.923950m. Speed=0.000000m/h.</desc>
<speed>0.000000</speed>
</trkpt>
<trkpt lat="55.660908" lon="26.571976">
<ele>147.920044</ele>
<time>2010-07-18T11:04:10Z</time>
<desc>lat.=55.660908, lon.=26.571976, Alt.=147.920044m. Speed=0.000000m/h.</desc>
<speed>0.000000</speed>
</trkpt>
<trkpt lat="55.660908" lon="26.571976">
<ele>147.920044</ele>
<time>2010-07-18T11:04:11Z</time>
<desc>lat.=55.660908, lon.=26.571976, Alt.=147.920044m. Speed=0.000000m/h.</desc>
<speed>0.000000</speed>
</trkpt>
<trkpt lat="55.660908" lon="26.571976">
<ele>147.916138</ele>
<time>2010-07-18T11:04:12Z</time>
<desc>lat.=55.660908, lon.=26.571976, Alt.=147.916138m. Speed=0.000000m/h.</desc>
<speed>0.000000</speed>
</trkpt>
<trkpt lat="55.660908" lon="26.571976">
<ele>147.916138</ele>
<time>2010-07-18T11:04:13Z</time>
<desc>lat.=55.660908, lon.=26.571976, Alt.=147.916138m. Speed=0.000000m/h.</desc>
<speed>0.000000</speed>
</trkpt>
<trkpt lat="55.660908" lon="26.571976">
<ele>147.916138</ele>
<time>2010-07-18T11:04:14Z</time>
<desc>lat.=55.660908, lon.=26.571976, Alt.=147.916138m. Speed=0.000000m/h.</desc>
<speed>0.000000</speed>
</trkpt>
<trkpt lat="55.660908" lon="26.571976">
<ele>147.916138</ele>
<time>2010-07-18T11:04:15Z</time>
<desc>lat.=55.660908, lon.=26.571976, Alt.=147.916138m. Speed=0.000000m/h.</desc>
<speed>0.000000</speed>
</trkpt>
<trkpt lat="55.660908" lon="26.571976">
<ele>147.912231</ele>
<time>2010-07-18T11:04:16Z</time>
<desc>lat.=55.660908, lon.=26.571976, Alt.=147.912231m. Speed=0.000000m/h.</desc>
<speed>0.000000</speed>
</trkpt>
<trkpt lat="55.660908" lon="26.571976">
<ele>147.916138</ele>
<time>2010-07-18T11:04:17Z</time>
<desc>lat.=55.660908, lon.=26.571976, Alt.=147.916138m. Speed=0.000000m/h.</desc>
<speed>0.000000</speed>
</trkpt>
<trkpt lat="55.660908" lon="26.571976">
<ele>147.916138</ele>
<time>2010-07-18T11:04:18Z</time>
<desc>lat.=55.660908, lon.=26.571976, Alt.=147.916138m. Speed=0.000000m/h.</desc>
<speed>0.000000</speed>
</trkpt>
<trkpt lat="55.660908" lon="26.571976">
<ele>147.912231</ele>
<time>2010-07-18T11:04:19Z</time>
<desc>lat.=55.660908, lon.=26.571976, Alt.=147.912231m. Speed=0.000000m/h.</desc>
<speed>0.000000</speed>
</trkpt>
<trkpt lat="55.660908" lon="26.571976">
<ele>147.912231</ele>
<time>2010-07-18T11:04:20Z</time>
<desc>lat.=55.660908, lon.=26.571976, Alt.=147.912231m. Speed=0.000000m/h.</desc>
<speed>0.000000</speed>
</trkpt>
<trkpt lat="55.660908" lon="26.571976">
<ele>147.908325</ele>
<time>2010-07-18T11:04:21Z</time>
<desc>lat.=55.660908, lon.=26.571976, Alt.=147.908325m. Speed=0.000000m/h.</desc>
<speed>0.000000</speed>
</trkpt>
<trkpt lat="55.660908" lon="26.571976">
<ele>147.908325</ele>
<time>2010-07-18T11:04:22Z</time>
<desc>lat.=55.660908, lon.=26.571976, Alt.=147.908325m. Speed=0.000000m/h.</desc>
<speed>0.000000</speed>
</trkpt>
<trkpt lat="55.660908" lon="26.571976">
<ele>147.908325</ele>
<time>2010-07-18T11:04:23Z</time>
<desc>lat.=55.660908, lon.=26.571976, Alt.=147.908325m. Speed=0.000000m/h.</desc>
<speed>0.000000</speed>
</trkpt>
<trkpt lat="55.660908" lon="26.571976">
<ele>147.908325</ele>
<time>2010-07-18T11:04:24Z</time>
<desc>lat.=55.660908, lon.=26.571976, Alt.=147.908325m. Speed=0.000000m/h.</desc>
<speed>0.000000</speed>
</trkpt>
<trkpt lat="55.660908" lon="26.571976">
<ele>147.904419</ele>
<time>2010-07-18T11:04:25Z</time>
<desc>lat.=55.660908, lon.=26.571976, Alt.=147.904419m. Speed=0.000000m/h.</desc>
<speed>0.000000</speed>
</trkpt>
<trkpt lat="55.660908" lon="26.571976">
<ele>147.904419</ele>
<time>2010-07-18T11:04:26Z</time>
<desc>lat.=55.660908, lon.=26.571976, Alt.=147.904419m. Speed=0.000000m/h.</desc>
<speed>0.000000</speed>
</trkpt>
<trkpt lat="55.660908" lon="26.571976">
<ele>147.900513</ele>
<time>2010-07-18T11:04:27Z</time>
<desc>lat.=55.660908, lon.=26.571976, Alt.=147.900513m. Speed=0.000000m/h.</desc>
<speed>0.000000</speed>
</trkpt>
<trkpt lat="55.660908" lon="26.571976">
<ele>147.900513</ele>
<time>2010-07-18T11:04:28Z</time>
<desc>lat.=55.660908, lon.=26.571976, Alt.=147.900513m. Speed=0.036000m/h.</desc>
<speed>0.010000</speed>
</trkpt>
<trkpt lat="55.660908" lon="26.571976">
<ele>147.900513</ele>
<time>2010-07-18T11:04:29Z</time>
<desc>lat.=55.660908, lon.=26.571976, Alt.=147.900513m. Speed=0.000000m/h.</desc>
<speed>0.000000</speed>
</trkpt>
<trkpt lat="55.660908" lon="26.571976">
<ele>147.900513</ele>
<time>2010-07-18T11:04:30Z</time>
<desc>lat.=55.660908, lon.=26.571976, Alt.=147.900513m. Speed=0.000000m/h.</desc>
<speed>0.000000</speed>
</trkpt>
<trkpt lat="55.660908" lon="26.571976">
<ele>147.896606</ele>
<time>2010-07-18T11:04:31Z</time>
<desc>lat.=55.660908, lon.=26.571976, Alt.=147.896606m. Speed=0.000000m/h.</desc>
<speed>0.000000</speed>
</trkpt>
<trkpt lat="55.660908" lon="26.571976">
<ele>147.896606</ele>
<time>2010-07-18T11:04:32Z</time>
<desc>lat.=55.660908, lon.=26.571976, Alt.=147.896606m. Speed=0.000000m/h.</desc>
<speed>0.000000</speed>
</trkpt>
<trkpt lat="55.660908" lon="26.571976">
<ele>147.896606</ele>
<time>2010-07-18T11:04:33Z</time>
<desc>lat.=55.660908, lon.=26.571976, Alt.=147.896606m. Speed=0.000000m/h.</desc>
<speed>0.000000</speed>
</trkpt>
<trkpt lat="55.660908" lon="26.571976">
<ele>147.896606</ele>
<time>2010-07-18T11:04:34Z</time>
<desc>lat.=55.660908, lon.=26.571976, Alt.=147.896606m. Speed=0.000000m/h.</desc>
<speed>0.000000</speed>
</trkpt>
<trkpt lat="55.660908" lon="26.571976">
<ele>147.896606</ele>
<time>2010-07-18T11:04:35Z</time>
<desc>lat.=55.660908, lon.=26.571976, Alt.=147.896606m. Speed=0.000000m/h.</desc>
<speed>0.000000</speed>
</trkpt>
<trkpt lat="55.660908" lon="26.571976">
<ele>147.892700</ele>
<time>2010-07-18T11:04:36Z</time>
<desc>lat.=55.660908, lon.=26.571976, Alt.=147.892700m. Speed=0.000000m/h.</desc>
<speed>0.000000</speed>
</trkpt>
<trkpt lat="55.660908" lon="26.571976">
<ele>147.892700</ele>
<time>2010-07-18T11:04:37Z</time>
<desc>lat.=55.660908, lon.=26.571976, Alt.=147.892700m. Speed=0.036000m/h.</desc>
<speed>0.010000</speed>
</trkpt>
<trkpt lat="55.660908" lon="26.571976">
<ele>147.892700</ele>
<time>2010-07-18T11:04:38Z</time>
<desc>lat.=55.660908, lon.=26.571976, Alt.=147.892700m. Speed=0.000000m/h.</desc>
<speed>0.000000</speed>
</trkpt>
<trkpt lat="55.660908" lon="26.571976">
<ele>147.892700</ele>
<time>2010-07-18T11:04:39Z</time>
<desc>lat.=55.660908, lon.=26.571976, Alt.=147.892700m. Speed=0.000000m/h.</desc>
<speed>0.000000</speed>
</trkpt>
<trkpt lat="55.660908" lon="26.571976">
<ele>147.888794</ele>
<time>2010-07-18T11:04:40Z</time>
<desc>lat.=55.660908, lon.=26.571976, Alt.=147.888794m. Speed=0.000000m/h.</desc>
<speed>0.000000</speed>
</trkpt>
<trkpt lat="55.660908" lon="26.571976">
<ele>147.888794</ele>
<time>2010-07-18T11:04:41Z</time>
<desc>lat.=55.660908, lon.=26.571976, Alt.=147.888794m. Speed=0.000000m/h.</desc>
<speed>0.000000</speed>
</trkpt>
<trkpt lat="55.660908" lon="26.571976">
<ele>147.888794</ele>
<time>2010-07-18T11:04:42Z</time>
<desc>lat.=55.660908, lon.=26.571976, Alt.=147.888794m. Speed=0.000000m/h.</desc>
<speed>0.000000</speed>
</trkpt>
<trkpt lat="55.660908" lon="26.571976">
<ele>147.888794</ele>
<time>2010-07-18T11:04:43Z</time>
<desc>lat.=55.660908, lon.=26.571976, Alt.=147.888794m. Speed=0.000000m/h.</desc>
<speed>0.000000</speed>
</trkpt>
<trkpt lat="55.660908" lon="26.571976">
<ele>147.888794</ele>
<time>2010-07-18T11:04:44Z</time>
<desc>lat.=55.660908, lon.=26.571976, Alt.=147.888794m. Speed=0.000000m/h.</desc>
<speed>0.000000</speed>
</trkpt>
<trkpt lat="55.660908" lon="26.571976">
<ele>147.884888</ele>
<time>2010-07-18T11:04:45Z</time>
<desc>lat.=55.660908, lon.=26.571976, Alt.=147.884888m. Speed=0.000000m/h.</desc>
<speed>0.000000</speed>
</trkpt>
<trkpt lat="55.660908" lon="26.571976">
<ele>147.884888</ele>
<time>2010-07-18T11:04:46Z</time>
<desc>lat.=55.660908, lon.=26.571976, Alt.=147.884888m. Speed=0.000000m/h.</desc>
<speed>0.000000</speed>
</trkpt>
<trkpt lat="55.660908" lon="26.571976">
<ele>147.884888</ele>
<time>2010-07-18T11:04:47Z</time>
<desc>lat.=55.660908, lon.=26.571976, Alt.=147.884888m. Speed=0.036000m/h.</desc>
<speed>0.010000</speed>
</trkpt>
<trkpt lat="55.660908" lon="26.571976">
<ele>147.884888</ele>
<time>2010-07-18T11:04:48Z</time>
<desc>lat.=55.660908, lon.=26.571976, Alt.=147.884888m. Speed=0.000000m/h.</desc>
<speed>0.000000</speed>
</trkpt>
<trkpt lat="55.660908" lon="26.571976">
<ele>147.880981</ele>
<time>2010-07-18T11:04:49Z</time>
<desc>lat.=55.660908, lon.=26.571976, Alt.=147.880981m. Speed=0.000000m/h.</desc>
<speed>0.000000</speed>
</trkpt>
<trkpt lat="55.660908" lon="26.571976">
<ele>147.880981</ele>
<time>2010-07-18T11:04:50Z</time>
<desc>lat.=55.660908, lon.=26.571976, Alt.=147.880981m. Speed=0.000000m/h.</desc>
<speed>0.000000</speed>
</trkpt>
<trkpt lat="55.660908" lon="26.571976">
<ele>147.877075</ele>
<time>2010-07-18T11:04:51Z</time>
<desc>lat.=55.660908, lon.=26.571976, Alt.=147.877075m. Speed=0.000000m/h.</desc>
<speed>0.000000</speed>
</trkpt>
<trkpt lat="55.660908" lon="26.571976">
<ele>147.877075</ele>
<time>2010-07-18T11:04:52Z</time>
<desc>lat.=55.660908, lon.=26.571976, Alt.=147.877075m. Speed=0.000000m/h.</desc>
<speed>0.000000</speed>
</trkpt>
<trkpt lat="55.660908" lon="26.571976">
<ele>147.877075</ele>
<time>2010-07-18T11:04:53Z</time>
<desc>lat.=55.660908, lon.=26.571976, Alt.=147.877075m. Speed=0.000000m/h.</desc>
<speed>0.000000</speed>
</trkpt>
<trkpt lat="55.660908" lon="26.571976">
<ele>147.877075</ele>
<time>2010-07-18T11:04:54Z</time>
<desc>lat.=55.660908, lon.=26.571976, Alt.=147.877075m. Speed=0.000000m/h.</desc>
<speed>0.000000</speed>
</trkpt>
<trkpt lat="55.660908" lon="26.571976">
<ele>147.873169</ele>
<time>2010-07-18T11:04:55Z</time>
<desc>lat.=55.660908, lon.=26.571976, Alt.=147.873169m. Speed=0.000000m/h.</desc>
<speed>0.000000</speed>
</trkpt>
<trkpt lat="55.660908" lon="26.571976">
<ele>147.873169</ele>
<time>2010-07-18T11:04:56Z</time>
<desc>lat.=55.660908, lon.=26.571976, Alt.=147.873169m. Speed=0.000000m/h.</desc>
<speed>0.000000</speed>
</trkpt>
<trkpt lat="55.660908" lon="26.571976">
<ele>147.869263</ele>
<time>2010-07-18T11:04:57Z</time>
<desc>lat.=55.660908, lon.=26.571976, Alt.=147.869263m. Speed=0.000000m/h.</desc>
<speed>0.000000</speed>
</trkpt>
<trkpt lat="55.660908" lon="26.571976">
<ele>147.869263</ele>
<time>2010-07-18T11:04:58Z</time>
<desc>lat.=55.660908, lon.=26.571976, Alt.=147.869263m. Speed=0.000000m/h.</desc>
<speed>0.000000</speed>
</trkpt>
<trkpt lat="55.660908" lon="26.571976">
<ele>147.865356</ele>
<time>2010-07-18T11:04:59Z</time>
<desc>lat.=55.660908, lon.=26.571976, Alt.=147.865356m. Speed=0.000000m/h.</desc>
<speed>0.000000</speed>
</trkpt>
<trkpt lat="55.660908" lon="26.571976">
<ele>147.865356</ele>
<time>2010-07-18T11:05:00Z</time>
<desc>lat.=55.660908, lon.=26.571976, Alt.=147.865356m. Speed=0.000000m/h.</desc>
<speed>0.000000</speed>
</trkpt>
<trkpt lat="55.660908" lon="26.571976">
<ele>147.865356</ele>
<time>2010-07-18T11:05:01Z</time>
<desc>lat.=55.660908, lon.=26.571976, Alt.=147.865356m. Speed=0.000000m/h.</desc>
<speed>0.000000</speed>
</trkpt>
<trkpt lat="55.660908" lon="26.571976">
<ele>147.865356</ele>
<time>2010-07-18T11:05:02Z</time>
<desc>lat.=55.660908, lon.=26.571976, Alt.=147.865356m. Speed=0.000000m/h.</desc>
<speed>0.000000</speed>
</trkpt>
<trkpt lat="55.660908" lon="26.571976">
<ele>147.865356</ele>
<time>2010-07-18T11:05:03Z</time>
<desc>lat.=55.660908, lon.=26.571976, Alt.=147.865356m. Speed=0.000000m/h.</desc>
<speed>0.000000</speed>
</trkpt>
<trkpt lat="55.660908" lon="26.571976">
<ele>147.869263</ele>
<time>2010-07-18T11:05:04Z</time>
<desc>lat.=55.660908, lon.=26.571976, Alt.=147.869263m. Speed=0.072000m/h.</desc>
<speed>0.020000</speed>
</trkpt>
<trkpt lat="55.660908" lon="26.571976">
<ele>147.873169</ele>
<time>2010-07-18T11:05:05Z</time>
<desc>lat.=55.660908, lon.=26.571976, Alt.=147.873169m. Speed=0.000000m/h.</desc>
<speed>0.000000</speed>
</trkpt>
<trkpt lat="55.660908" lon="26.571976">
<ele>147.873169</ele>
<time>2010-07-18T11:05:06Z</time>
<desc>lat.=55.660908, lon.=26.571976, Alt.=147.873169m. Speed=0.000000m/h.</desc>
<speed>0.000000</speed>
</trkpt>
<trkpt lat="55.660908" lon="26.571976">
<ele>147.873169</ele>
<time>2010-07-18T11:05:07Z</time>
<desc>lat.=55.660908, lon.=26.571976, Alt.=147.873169m. Speed=0.000000m/h.</desc>
<speed>0.000000</speed>
</trkpt>
<trkpt lat="55.660908" lon="26.571976">
<ele>147.877075</ele>
<time>2010-07-18T11:05:08Z</time>
<desc>lat.=55.660908, lon.=26.571976, Alt.=147.877075m. Speed=0.000000m/h.</desc>
<speed>0.000000</speed>
</trkpt>
<trkpt lat="55.660908" lon="26.571976">
<ele>147.880981</ele>
<time>2010-07-18T11:05:09Z</time>
<desc>lat.=55.660908, lon.=26.571976, Alt.=147.880981m. Speed=0.000000m/h.</desc>
<speed>0.000000</speed>
</trkpt>
<trkpt lat="55.660908" lon="26.571976">
<ele>147.880981</ele>
<time>2010-07-18T11:05:10Z</time>
<desc>lat.=55.660908, lon.=26.571976, Alt.=147.880981m. Speed=0.000000m/h.</desc>
<speed>0.000000</speed>
</trkpt>
<trkpt lat="55.660908" lon="26.571976">
<ele>147.884888</ele>
<time>2010-07-18T11:05:11Z</time>
<desc>lat.=55.660908, lon.=26.571976, Alt.=147.884888m. Speed=0.000000m/h.</desc>
<speed>0.000000</speed>
</trkpt>
<trkpt lat="55.660908" lon="26.571976">
<ele>147.888794</ele>
<time>2010-07-18T11:05:12Z</time>
<desc>lat.=55.660908, lon.=26.571976, Alt.=147.888794m. Speed=0.000000m/h.</desc>
<speed>0.000000</speed>
</trkpt>
<trkpt lat="55.660908" lon="26.571976">
<ele>147.888794</ele>
<time>2010-07-18T11:05:13Z</time>
<desc>lat.=55.660908, lon.=26.571976, Alt.=147.888794m. Speed=0.000000m/h.</desc>
<speed>0.000000</speed>
</trkpt>
<trkpt lat="55.660908" lon="26.571976">
<ele>147.892700</ele>
<time>2010-07-18T11:05:14Z</time>
<desc>lat.=55.660908, lon.=26.571976, Alt.=147.892700m. Speed=0.000000m/h.</desc>
<speed>0.000000</speed>
</trkpt>
<trkpt lat="55.660908" lon="26.571976">
<ele>147.892700</ele>
<time>2010-07-18T11:05:15Z</time>
<desc>lat.=55.660908, lon.=26.571976, Alt.=147.892700m. Speed=0.000000m/h.</desc>
<speed>0.000000</speed>
</trkpt>
<trkpt lat="55.660908" lon="26.571976">
<ele>147.896606</ele>
<time>2010-07-18T11:05:16Z</time>
<desc>lat.=55.660908, lon.=26.571976, Alt.=147.896606m. Speed=0.000000m/h.</desc>
<speed>0.000000</speed>
</trkpt>
<trkpt lat="55.660908" lon="26.571976">
<ele>147.896606</ele>
<time>2010-07-18T11:05:17Z</time>
<desc>lat.=55.660908, lon.=26.571976, Alt.=147.896606m. Speed=0.000000m/h.</desc>
<speed>0.000000</speed>
</trkpt>
<trkpt lat="55.660908" lon="26.571976">
<ele>147.900513</ele>
<time>2010-07-18T11:05:18Z</time>
<desc>lat.=55.660908, lon.=26.571976, Alt.=147.900513m. Speed=0.000000m/h.</desc>
<speed>0.000000</speed>
</trkpt>
<trkpt lat="55.660908" lon="26.571976">
<ele>147.904419</ele>
<time>2010-07-18T11:05:19Z</time>
<desc>lat.=55.660908, lon.=26.571976, Alt.=147.904419m. Speed=0.000000m/h.</desc>
<speed>0.000000</speed>
</trkpt>
<trkpt lat="55.660912" lon="26.571976">
<ele>147.904419</ele>
<time>2010-07-18T11:05:20Z</time>
<desc>lat.=55.660912, lon.=26.571976, Alt.=147.904419m. Speed=0.000000m/h.</desc>
<speed>0.000000</speed>
</trkpt>
<trkpt lat="55.660912" lon="26.571976">
<ele>147.904419</ele>
<time>2010-07-18T11:05:21Z</time>
<desc>lat.=55.660912, lon.=26.571976, Alt.=147.904419m. Speed=0.000000m/h.</desc>
<speed>0.000000</speed>
</trkpt>
<trkpt lat="55.660912" lon="26.571976">
<ele>147.908325</ele>
<time>2010-07-18T11:05:22Z</time>
<desc>lat.=55.660912, lon.=26.571976, Alt.=147.908325m. Speed=0.000000m/h.</desc>
<speed>0.000000</speed>
</trkpt>
<trkpt lat="55.660912" lon="26.571976">
<ele>147.908325</ele>
<time>2010-07-18T11:05:23Z</time>
<desc>lat.=55.660912, lon.=26.571976, Alt.=147.908325m. Speed=0.000000m/h.</desc>
<speed>0.000000</speed>
</trkpt>
<trkpt lat="55.660912" lon="26.571976">
<ele>147.908325</ele>
<time>2010-07-18T11:05:24Z</time>
<desc>lat.=55.660912, lon.=26.571976, Alt.=147.908325m. Speed=0.000000m/h.</desc>
<speed>0.000000</speed>
</trkpt>
<trkpt lat="55.660912" lon="26.571976">
<ele>147.908325</ele>
<time>2010-07-18T11:05:25Z</time>
<desc>lat.=55.660912, lon.=26.571976, Alt.=147.908325m. Speed=0.000000m/h.</desc>
<speed>0.000000</speed>
</trkpt>
<trkpt lat="55.660912" lon="26.571976">
<ele>147.908325</ele>
<time>2010-07-18T11:05:26Z</time>
<desc>lat.=55.660912, lon.=26.571976, Alt.=147.908325m. Speed=0.000000m/h.</desc>
<speed>0.000000</speed>
</trkpt>
<trkpt lat="55.660912" lon="26.571976">
<ele>147.908325</ele>
<time>2010-07-18T11:05:27Z</time>
<desc>lat.=55.660912, lon.=26.571976, Alt.=147.908325m. Speed=0.000000m/h.</desc>
<speed>0.000000</speed>
</trkpt>
<trkpt lat="55.660912" lon="26.571976">
<ele>147.908325</ele>
<time>2010-07-18T11:05:28Z</time>
<desc>lat.=55.660912, lon.=26.571976, Alt.=147.908325m. Speed=0.000000m/h.</desc>
<speed>0.000000</speed>
</trkpt>
<trkpt lat="55.660912" lon="26.571974">
<ele>147.912231</ele>
<time>2010-07-18T11:05:29Z</time>
<desc>lat.=55.660912, lon.=26.571974, Alt.=147.912231m. Speed=0.000000m/h.</desc>
<speed>0.000000</speed>
</trkpt>
<trkpt lat="55.660912" lon="26.571974">
<ele>147.912231</ele>
<time>2010-07-18T11:05:30Z</time>
<desc>lat.=55.660912, lon.=26.571974, Alt.=147.912231m. Speed=0.000000m/h.</desc>
<speed>0.000000</speed>
</trkpt>
<trkpt lat="55.660912" lon="26.571974">
<ele>147.912231</ele>
<time>2010-07-18T11:05:31Z</time>
<desc>lat.=55.660912, lon.=26.571974, Alt.=147.912231m. Speed=0.000000m/h.</desc>
<speed>0.000000</speed>
</trkpt>
<trkpt lat="55.660912" lon="26.571974">
<ele>147.916138</ele>
<time>2010-07-18T11:05:32Z</time>
<desc>lat.=55.660912, lon.=26.571974, Alt.=147.916138m. Speed=0.000000m/h.</desc>
<speed>0.000000</speed>
</trkpt>
<trkpt lat="55.660912" lon="26.571974">
<ele>147.916138</ele>
<time>2010-07-18T11:05:33Z</time>
<desc>lat.=55.660912, lon.=26.571974, Alt.=147.916138m. Speed=0.000000m/h.</desc>
<speed>0.000000</speed>
</trkpt>
<trkpt lat="55.660912" lon="26.571974">
<ele>147.920044</ele>
<time>2010-07-18T11:05:34Z</time>
<desc>lat.=55.660912, lon.=26.571974, Alt.=147.920044m. Speed=0.000000m/h.</desc>
<speed>0.000000</speed>
</trkpt>
<trkpt lat="55.660912" lon="26.571974">
<ele>147.920044</ele>
<time>2010-07-18T11:05:35Z</time>
<desc>lat.=55.660912, lon.=26.571974, Alt.=147.920044m. Speed=0.000000m/h.</desc>
<speed>0.000000</speed>
</trkpt>
<trkpt lat="55.660912" lon="26.571974">
<ele>147.920044</ele>
<time>2010-07-18T11:05:36Z</time>
<desc>lat.=55.660912, lon.=26.571974, Alt.=147.920044m. Speed=0.000000m/h.</desc>
<speed>0.000000</speed>
</trkpt>
<trkpt lat="55.660912" lon="26.571974">
<ele>147.920044</ele>
<time>2010-07-18T11:05:37Z</time>
<desc>lat.=55.660912, lon.=26.571974, Alt.=147.920044m. Speed=0.000000m/h.</desc>
<speed>0.000000</speed>
</trkpt>
<trkpt lat="55.660912" lon="26.571974">
<ele>147.920044</ele>
<time>2010-07-18T11:05:38Z</time>
<desc>lat.=55.660912, lon.=26.571974, Alt.=147.920044m. Speed=0.000000m/h.</desc>
<speed>0.000000</speed>
</trkpt>
<trkpt lat="55.660912" lon="26.571974">
<ele>147.920044</ele>
<time>2010-07-18T11:05:39Z</time>
<desc>lat.=55.660912, lon.=26.571974, Alt.=147.920044m. Speed=0.000000m/h.</desc>
<speed>0.000000</speed>
</trkpt>
<trkpt lat="55.660912" lon="26.571974">
<ele>147.920044</ele>
<time>2010-07-18T11:05:40Z</time>
<desc>lat.=55.660912, lon.=26.571974, Alt.=147.920044m. Speed=0.000000m/h.</desc>
<speed>0.000000</speed>
</trkpt>
<trkpt lat="55.660912" lon="26.571974">
<ele>147.916138</ele>
<time>2010-07-18T11:05:41Z</time>
<desc>lat.=55.660912, lon.=26.571974, Alt.=147.916138m. Speed=0.036000m/h.</desc>
<speed>0.010000</speed>
</trkpt>
<trkpt lat="55.660912" lon="26.571974">
<ele>147.916138</ele>
<time>2010-07-18T11:05:42Z</time>
<desc>lat.=55.660912, lon.=26.571974, Alt.=147.916138m. Speed=0.000000m/h.</desc>
<speed>0.000000</speed>
</trkpt>
<trkpt lat="55.660912" lon="26.571974">
<ele>147.916138</ele>
<time>2010-07-18T11:05:43Z</time>
<desc>lat.=55.660912, lon.=26.571974, Alt.=147.916138m. Speed=0.000000m/h.</desc>
<speed>0.000000</speed>
</trkpt>
<trkpt lat="55.660912" lon="26.571974">
<ele>147.912231</ele>
<time>2010-07-18T11:05:44Z</time>
<desc>lat.=55.660912, lon.=26.571974, Alt.=147.912231m. Speed=0.000000m/h.</desc>
<speed>0.000000</speed>
</trkpt>
<trkpt lat="55.660912" lon="26.571974">
<ele>147.912231</ele>
<time>2010-07-18T11:05:45Z</time>
<desc>lat.=55.660912, lon.=26.571974, Alt.=147.912231m. Speed=0.000000m/h.</desc>
<speed>0.000000</speed>
</trkpt>
<trkpt lat="55.660912" lon="26.571974">
<ele>147.908325</ele>
<time>2010-07-18T11:05:46Z</time>
<desc>lat.=55.660912, lon.=26.571974, Alt.=147.908325m. Speed=0.000000m/h.</desc>
<speed>0.000000</speed>
</trkpt>
<trkpt lat="55.660912" lon="26.571974">
<ele>147.908325</ele>
<time>2010-07-18T11:05:47Z</time>
<desc>lat.=55.660912, lon.=26.571974, Alt.=147.908325m. Speed=0.000000m/h.</desc>
<speed>0.000000</speed>
</trkpt>
<trkpt lat="55.660912" lon="26.571974">
<ele>147.908325</ele>
<time>2010-07-18T11:05:48Z</time>
<desc>lat.=55.660912, lon.=26.571974, Alt.=147.908325m. Speed=0.000000m/h.</desc>
<speed>0.000000</speed>
</trkpt>
<trkpt lat="55.660912" lon="26.571974">
<ele>147.904419</ele>
<time>2010-07-18T11:05:49Z</time>
<desc>lat.=55.660912, lon.=26.571974, Alt.=147.904419m. Speed=0.000000m/h.</desc>
<speed>0.000000</speed>
</trkpt>
<trkpt lat="55.660912" lon="26.571974">
<ele>147.904419</ele>
<time>2010-07-18T11:05:50Z</time>
<desc>lat.=55.660912, lon.=26.571974, Alt.=147.904419m. Speed=0.000000m/h.</desc>
<speed>0.000000</speed>
</trkpt>
<trkpt lat="55.660912" lon="26.571974">
<ele>147.900513</ele>
<time>2010-07-18T11:05:51Z</time>
<desc>lat.=55.660912, lon.=26.571974, Alt.=147.900513m. Speed=0.000000m/h.</desc>
<speed>0.000000</speed>
</trkpt>
<trkpt lat="55.660912" lon="26.571974">
<ele>147.900513</ele>
<time>2010-07-18T11:05:52Z</time>
<desc>lat.=55.660912, lon.=26.571974, Alt.=147.900513m. Speed=0.000000m/h.</desc>
<speed>0.000000</speed>
</trkpt>
<trkpt lat="55.660912" lon="26.571974">
<ele>147.900513</ele>
<time>2010-07-18T11:05:53Z</time>
<desc>lat.=55.660912, lon.=26.571974, Alt.=147.900513m. Speed=0.000000m/h.</desc>
<speed>0.000000</speed>
</trkpt>
<trkpt lat="55.660912" lon="26.571974">
<ele>147.896606</ele>
<time>2010-07-18T11:05:54Z</time>
<desc>lat.=55.660912, lon.=26.571974, Alt.=147.896606m. Speed=0.000000m/h.</desc>
<speed>0.000000</speed>
</trkpt>
<trkpt lat="55.660912" lon="26.571974">
<ele>147.896606</ele>
<time>2010-07-18T11:05:55Z</time>
<desc>lat.=55.660912, lon.=26.571974, Alt.=147.896606m. Speed=0.000000m/h.</desc>
<speed>0.000000</speed>
</trkpt>
<trkpt lat="55.660912" lon="26.571974">
<ele>147.896606</ele>
<time>2010-07-18T11:05:56Z</time>
<desc>lat.=55.660912, lon.=26.571974, Alt.=147.896606m. Speed=0.000000m/h.</desc>
<speed>0.000000</speed>
</trkpt>
<trkpt lat="55.660912" lon="26.571974">
<ele>147.892700</ele>
<time>2010-07-18T11:05:57Z</time>
<desc>lat.=55.660912, lon.=26.571974, Alt.=147.892700m. Speed=0.000000m/h.</desc>
<speed>0.000000</speed>
</trkpt>
<trkpt lat="55.660912" lon="26.571974">
<ele>147.892700</ele>
<time>2010-07-18T11:05:58Z</time>
<desc>lat.=55.660912, lon.=26.571974, Alt.=147.892700m. Speed=0.000000m/h.</desc>
<speed>0.000000</speed>
</trkpt>
<trkpt lat="55.660912" lon="26.571974">
<ele>147.892700</ele>
<time>2010-07-18T11:05:59Z</time>
<desc>lat.=55.660912, lon.=26.571974, Alt.=147.892700m. Speed=0.000000m/h.</desc>
<speed>0.000000</speed>
</trkpt>
<trkpt lat="55.660912" lon="26.571974">
<ele>147.896606</ele>
<time>2010-07-18T11:06:00Z</time>
<desc>lat.=55.660912, lon.=26.571974, Alt.=147.896606m. Speed=0.000000m/h.</desc>
<speed>0.000000</speed>
</trkpt>
<trkpt lat="55.660912" lon="26.571974">
<ele>147.896606</ele>
<time>2010-07-18T11:06:01Z</time>
<desc>lat.=55.660912, lon.=26.571974, Alt.=147.896606m. Speed=0.000000m/h.</desc>
<speed>0.000000</speed>
</trkpt>
<trkpt lat="55.660912" lon="26.571974">
<ele>147.896606</ele>
<time>2010-07-18T11:06:02Z</time>
<desc>lat.=55.660912, lon.=26.571974, Alt.=147.896606m. Speed=0.000000m/h.</desc>
<speed>0.000000</speed>
</trkpt>
<trkpt lat="55.660912" lon="26.571974">
<ele>147.896606</ele>
<time>2010-07-18T11:06:03Z</time>
<desc>lat.=55.660912, lon.=26.571974, Alt.=147.896606m. Speed=0.000000m/h.</desc>
<speed>0.000000</speed>
</trkpt>
<trkpt lat="55.660912" lon="26.571974">
<ele>147.896606</ele>
<time>2010-07-18T11:06:04Z</time>
<desc>lat.=55.660912, lon.=26.571974, Alt.=147.896606m. Speed=0.000000m/h.</desc>
<speed>0.000000</speed>
</trkpt>
<trkpt lat="55.660912" lon="26.571974">
<ele>147.896606</ele>
<time>2010-07-18T11:06:05Z</time>
<desc>lat.=55.660912, lon.=26.571974, Alt.=147.896606m. Speed=0.000000m/h.</desc>
<speed>0.000000</speed>
</trkpt>
<trkpt lat="55.660912" lon="26.571974">
<ele>147.896606</ele>
<time>2010-07-18T11:06:06Z</time>
<desc>lat.=55.660912, lon.=26.571974, Alt.=147.896606m. Speed=0.000000m/h.</desc>
<speed>0.000000</speed>
</trkpt>
<trkpt lat="55.660912" lon="26.571974">
<ele>147.896606</ele>
<time>2010-07-18T11:06:07Z</time>
<desc>lat.=55.660912, lon.=26.571974, Alt.=147.896606m. Speed=0.000000m/h.</desc>
<speed>0.000000</speed>
</trkpt>
<trkpt lat="55.660912" lon="26.571974">
<ele>147.896606</ele>
<time>2010-07-18T11:06:08Z</time>
<desc>lat.=55.660912, lon.=26.571974, Alt.=147.896606m. Speed=0.000000m/h.</desc>
<speed>0.000000</speed>
</trkpt>
<trkpt lat="55.660912" lon="26.571974">
<ele>147.896606</ele>
<time>2010-07-18T11:06:09Z</time>
<desc>lat.=55.660912, lon.=26.571974, Alt.=147.896606m. Speed=0.000000m/h.</desc>
<speed>0.000000</speed>
</trkpt>
<trkpt lat="55.660912" lon="26.571974">
<ele>147.896606</ele>
<time>2010-07-18T11:06:10Z</time>
<desc>lat.=55.660912, lon.=26.571974, Alt.=147.896606m. Speed=0.000000m/h.</desc>
<speed>0.000000</speed>
</trkpt>
<trkpt lat="55.660912" lon="26.571974">
<ele>147.892700</ele>
<time>2010-07-18T11:06:11Z</time>
<desc>lat.=55.660912, lon.=26.571974, Alt.=147.892700m. Speed=0.000000m/h.</desc>
<speed>0.000000</speed>
</trkpt>
<trkpt lat="55.660912" lon="26.571974">
<ele>147.892700</ele>
<time>2010-07-18T11:06:12Z</time>
<desc>lat.=55.660912, lon.=26.571974, Alt.=147.892700m. Speed=0.000000m/h.</desc>
<speed>0.000000</speed>
</trkpt>
<trkpt lat="55.660912" lon="26.571974">
<ele>147.892700</ele>
<time>2010-07-18T11:06:13Z</time>
<desc>lat.=55.660912, lon.=26.571974, Alt.=147.892700m. Speed=0.000000m/h.</desc>
<speed>0.000000</speed>
</trkpt>
<trkpt lat="55.660912" lon="26.571974">
<ele>147.892700</ele>
<time>2010-07-18T11:06:14Z</time>
<desc>lat.=55.660912, lon.=26.571974, Alt.=147.892700m. Speed=0.000000m/h.</desc>
<speed>0.000000</speed>
</trkpt>
<trkpt lat="55.660912" lon="26.571974">
<ele>147.892700</ele>
<time>2010-07-18T11:06:15Z</time>
<desc>lat.=55.660912, lon.=26.571974, Alt.=147.892700m. Speed=0.000000m/h.</desc>
<speed>0.000000</speed>
</trkpt>
<trkpt lat="55.660912" lon="26.571974">
<ele>147.892700</ele>
<time>2010-07-18T11:06:16Z</time>
<desc>lat.=55.660912, lon.=26.571974, Alt.=147.892700m. Speed=0.036000m/h.</desc>
<speed>0.010000</speed>
</trkpt>
<trkpt lat="55.660912" lon="26.571974">
<ele>147.896606</ele>
<time>2010-07-18T11:06:17Z</time>
<desc>lat.=55.660912, lon.=26.571974, Alt.=147.896606m. Speed=0.000000m/h.</desc>
<speed>0.000000</speed>
</trkpt>
<trkpt lat="55.660912" lon="26.571974">
<ele>147.892700</ele>
<time>2010-07-18T11:06:18Z</time>
<desc>lat.=55.660912, lon.=26.571974, Alt.=147.892700m. Speed=0.000000m/h.</desc>
<speed>0.000000</speed>
</trkpt>
<trkpt lat="55.660912" lon="26.571974">
<ele>147.892700</ele>
<time>2010-07-18T11:06:19Z</time>
<desc>lat.=55.660912, lon.=26.571974, Alt.=147.892700m. Speed=0.000000m/h.</desc>
<speed>0.000000</speed>
</trkpt>
<trkpt lat="55.660912" lon="26.571974">
<ele>147.892700</ele>
<time>2010-07-18T11:06:20Z</time>
<desc>lat.=55.660912, lon.=26.571974, Alt.=147.892700m. Speed=0.000000m/h.</desc>
<speed>0.000000</speed>
</trkpt>
<trkpt lat="55.660912" lon="26.571974">
<ele>147.892700</ele>
<time>2010-07-18T11:06:21Z</time>
<desc>lat.=55.660912, lon.=26.571974, Alt.=147.892700m. Speed=0.000000m/h.</desc>
<speed>0.000000</speed>
</trkpt>
<trkpt lat="55.660912" lon="26.571974">
<ele>147.892700</ele>
<time>2010-07-18T11:06:22Z</time>
<desc>lat.=55.660912, lon.=26.571974, Alt.=147.892700m. Speed=0.000000m/h.</desc>
<speed>0.000000</speed>
</trkpt>
<trkpt lat="55.660912" lon="26.571974">
<ele>147.892700</ele>
<time>2010-07-18T11:06:23Z</time>
<desc>lat.=55.660912, lon.=26.571974, Alt.=147.892700m. Speed=0.000000m/h.</desc>
<speed>0.000000</speed>
</trkpt>
<trkpt lat="55.660912" lon="26.571974">
<ele>147.892700</ele>
<time>2010-07-18T11:06:24Z</time>
<desc>lat.=55.660912, lon.=26.571974, Alt.=147.892700m. Speed=0.000000m/h.</desc>
<speed>0.000000</speed>
</trkpt>
<trkpt lat="55.660912" lon="26.571974">
<ele>147.892700</ele>
<time>2010-07-18T11:06:25Z</time>
<desc>lat.=55.660912, lon.=26.571974, Alt.=147.892700m. Speed=0.000000m/h.</desc>
<speed>0.000000</speed>
</trkpt>
<trkpt lat="55.660912" lon="26.571974">
<ele>147.896606</ele>
<time>2010-07-18T11:06:26Z</time>
<desc>lat.=55.660912, lon.=26.571974, Alt.=147.896606m. Speed=0.000000m/h.</desc>
<speed>0.000000</speed>
</trkpt>
<trkpt lat="55.660912" lon="26.571974">
<ele>147.896606</ele>
<time>2010-07-18T11:06:27Z</time>
<desc>lat.=55.660912, lon.=26.571974, Alt.=147.896606m. Speed=0.000000m/h.</desc>
<speed>0.000000</speed>
</trkpt>
<trkpt lat="55.660912" lon="26.571974">
<ele>147.896606</ele>
<time>2010-07-18T11:06:28Z</time>
<desc>lat.=55.660912, lon.=26.571974, Alt.=147.896606m. Speed=0.000000m/h.</desc>
<speed>0.000000</speed>
</trkpt>
<trkpt lat="55.660912" lon="26.571974">
<ele>147.896606</ele>
<time>2010-07-18T11:06:29Z</time>
<desc>lat.=55.660912, lon.=26.571974, Alt.=147.896606m. Speed=0.000000m/h.</desc>
<speed>0.000000</speed>
</trkpt>
<trkpt lat="55.660912" lon="26.571974">
<ele>147.896606</ele>
<time>2010-07-18T11:06:30Z</time>
<desc>lat.=55.660912, lon.=26.571974, Alt.=147.896606m. Speed=0.000000m/h.</desc>
<speed>0.000000</speed>
</trkpt>
<trkpt lat="55.660912" lon="26.571974">
<ele>147.896606</ele>
<time>2010-07-18T11:06:31Z</time>
<desc>lat.=55.660912, lon.=26.571974, Alt.=147.896606m. Speed=0.000000m/h.</desc>
<speed>0.000000</speed>
</trkpt>
<trkpt lat="55.660912" lon="26.571974">
<ele>147.896606</ele>
<time>2010-07-18T11:06:32Z</time>
<desc>lat.=55.660912, lon.=26.571974, Alt.=147.896606m. Speed=0.000000m/h.</desc>
<speed>0.000000</speed>
</trkpt>
<trkpt lat="55.660912" lon="26.571974">
<ele>147.896606</ele>
<time>2010-07-18T11:06:33Z</time>
<desc>lat.=55.660912, lon.=26.571974, Alt.=147.896606m. Speed=0.000000m/h.</desc>
<speed>0.000000</speed>
</trkpt>
<trkpt lat="55.660912" lon="26.571974">
<ele>147.900513</ele>
<time>2010-07-18T11:06:34Z</time>
<desc>lat.=55.660912, lon.=26.571974, Alt.=147.900513m. Speed=0.000000m/h.</desc>
<speed>0.000000</speed>
</trkpt>
<trkpt lat="55.660912" lon="26.571974">
<ele>147.900513</ele>
<time>2010-07-18T11:06:35Z</time>
<desc>lat.=55.660912, lon.=26.571974, Alt.=147.900513m. Speed=0.000000m/h.</desc>
<speed>0.000000</speed>
</trkpt>
<trkpt lat="55.660912" lon="26.571974">
<ele>147.900513</ele>
<time>2010-07-18T11:06:36Z</time>
<desc>lat.=55.660912, lon.=26.571974, Alt.=147.900513m. Speed=0.000000m/h.</desc>
<speed>0.000000</speed>
</trkpt>
<trkpt lat="55.660912" lon="26.571974">
<ele>147.904419</ele>
<time>2010-07-18T11:06:37Z</time>
<desc>lat.=55.660912, lon.=26.571974, Alt.=147.904419m. Speed=0.000000m/h.</desc>
<speed>0.000000</speed>
</trkpt>
<trkpt lat="55.660912" lon="26.571974">
<ele>147.904419</ele>
<time>2010-07-18T11:06:38Z</time>
<desc>lat.=55.660912, lon.=26.571974, Alt.=147.904419m. Speed=0.000000m/h.</desc>
<speed>0.000000</speed>
</trkpt>
<trkpt lat="55.660912" lon="26.571974">
<ele>147.904419</ele>
<time>2010-07-18T11:06:39Z</time>
<desc>lat.=55.660912, lon.=26.571974, Alt.=147.904419m. Speed=0.000000m/h.</desc>
<speed>0.000000</speed>
</trkpt>
<trkpt lat="55.660912" lon="26.571974">
<ele>147.904419</ele>
<time>2010-07-18T11:06:40Z</time>
<desc>lat.=55.660912, lon.=26.571974, Alt.=147.904419m. Speed=0.000000m/h.</desc>
<speed>0.000000</speed>
</trkpt>
<trkpt lat="55.660912" lon="26.571974">
<ele>147.904419</ele>
<time>2010-07-18T11:06:41Z</time>
<desc>lat.=55.660912, lon.=26.571974, Alt.=147.904419m. Speed=0.000000m/h.</desc>
<speed>0.000000</speed>
</trkpt>
<trkpt lat="55.660912" lon="26.571974">
<ele>147.904419</ele>
<time>2010-07-18T11:06:42Z</time>
<desc>lat.=55.660912, lon.=26.571974, Alt.=147.904419m. Speed=0.000000m/h.</desc>
<speed>0.000000</speed>
</trkpt>
<trkpt lat="55.660912" lon="26.571974">
<ele>147.904419</ele>
<time>2010-07-18T11:06:43Z</time>
<desc>lat.=55.660912, lon.=26.571974, Alt.=147.904419m. Speed=0.000000m/h.</desc>
<speed>0.000000</speed>
</trkpt>
<trkpt lat="55.660912" lon="26.571974">
<ele>147.904419</ele>
<time>2010-07-18T11:06:44Z</time>
<desc>lat.=55.660912, lon.=26.571974, Alt.=147.904419m. Speed=0.000000m/h.</desc>
<speed>0.000000</speed>
</trkpt>
<trkpt lat="55.660912" lon="26.571974">
<ele>147.904419</ele>
<time>2010-07-18T11:06:45Z</time>
<desc>lat.=55.660912, lon.=26.571974, Alt.=147.904419m. Speed=0.000000m/h.</desc>
<speed>0.000000</speed>
</trkpt>
<trkpt lat="55.660912" lon="26.571974">
<ele>147.900513</ele>
<time>2010-07-18T11:06:46Z</time>
<desc>lat.=55.660912, lon.=26.571974, Alt.=147.900513m. Speed=0.000000m/h.</desc>
<speed>0.000000</speed>
</trkpt>
<trkpt lat="55.660912" lon="26.571974">
<ele>147.904419</ele>
<time>2010-07-18T11:06:47Z</time>
<desc>lat.=55.660912, lon.=26.571974, Alt.=147.904419m. Speed=0.000000m/h.</desc>
<speed>0.000000</speed>
</trkpt>
<trkpt lat="55.660912" lon="26.571974">
<ele>147.900513</ele>
<time>2010-07-18T11:06:48Z</time>
<desc>lat.=55.660912, lon.=26.571974, Alt.=147.900513m. Speed=0.000000m/h.</desc>
<speed>0.000000</speed>
</trkpt>
<trkpt lat="55.660912" lon="26.571974">
<ele>147.900513</ele>
<time>2010-07-18T11:06:49Z</time>
<desc>lat.=55.660912, lon.=26.571974, Alt.=147.900513m. Speed=0.000000m/h.</desc>
<speed>0.000000</speed>
</trkpt>
<trkpt lat="55.660912" lon="26.571974">
<ele>147.896606</ele>
<time>2010-07-18T11:06:50Z</time>
<desc>lat.=55.660912, lon.=26.571974, Alt.=147.896606m. Speed=0.000000m/h.</desc>
<speed>0.000000</speed>
</trkpt>
<trkpt lat="55.660912" lon="26.571974">
<ele>147.892700</ele>
<time>2010-07-18T11:06:51Z</time>
<desc>lat.=55.660912, lon.=26.571974, Alt.=147.892700m. Speed=0.000000m/h.</desc>
<speed>0.000000</speed>
</trkpt>
<trkpt lat="55.660912" lon="26.571974">
<ele>147.888794</ele>
<time>2010-07-18T11:06:52Z</time>
<desc>lat.=55.660912, lon.=26.571974, Alt.=147.888794m. Speed=0.000000m/h.</desc>
<speed>0.000000</speed>
</trkpt>
<trkpt lat="55.660912" lon="26.571974">
<ele>147.880981</ele>
<time>2010-07-18T11:06:53Z</time>
<desc>lat.=55.660912, lon.=26.571974, Alt.=147.880981m. Speed=0.000000m/h.</desc>
<speed>0.000000</speed>
</trkpt>
<trkpt lat="55.660912" lon="26.571974">
<ele>147.880981</ele>
<time>2010-07-18T11:06:54Z</time>
<desc>lat.=55.660912, lon.=26.571974, Alt.=147.880981m. Speed=0.000000m/h.</desc>
<speed>0.000000</speed>
</trkpt>
<trkpt lat="55.660912" lon="26.571974">
<ele>147.877075</ele>
<time>2010-07-18T11:06:55Z</time>
<desc>lat.=55.660912, lon.=26.571974, Alt.=147.877075m. Speed=0.000000m/h.</desc>
<speed>0.000000</speed>
</trkpt>
<trkpt lat="55.660912" lon="26.571974">
<ele>147.873169</ele>
<time>2010-07-18T11:06:56Z</time>
<desc>lat.=55.660912, lon.=26.571974, Alt.=147.873169m. Speed=0.000000m/h.</desc>
<speed>0.000000</speed>
</trkpt>
<trkpt lat="55.660912" lon="26.571974">
<ele>147.873169</ele>
<time>2010-07-18T11:06:57Z</time>
<desc>lat.=55.660912, lon.=26.571974, Alt.=147.873169m. Speed=0.000000m/h.</desc>
<speed>0.000000</speed>
</trkpt>
<trkpt lat="55.660912" lon="26.571974">
<ele>147.869263</ele>
<time>2010-07-18T11:06:58Z</time>
<desc>lat.=55.660912, lon.=26.571974, Alt.=147.869263m. Speed=0.000000m/h.</desc>
<speed>0.000000</speed>
</trkpt>
<trkpt lat="55.660912" lon="26.571972">
<ele>147.865356</ele>
<time>2010-07-18T11:06:59Z</time>
<desc>lat.=55.660912, lon.=26.571972, Alt.=147.865356m. Speed=0.000000m/h.</desc>
<speed>0.000000</speed>
</trkpt>
<trkpt lat="55.660912" lon="26.571972">
<ele>147.865356</ele>
<time>2010-07-18T11:07:00Z</time>
<desc>lat.=55.660912, lon.=26.571972, Alt.=147.865356m. Speed=0.000000m/h.</desc>
<speed>0.000000</speed>
</trkpt>
<trkpt lat="55.660912" lon="26.571972">
<ele>147.861450</ele>
<time>2010-07-18T11:07:01Z</time>
<desc>lat.=55.660912, lon.=26.571972, Alt.=147.861450m. Speed=0.000000m/h.</desc>
<speed>0.000000</speed>
</trkpt>
<trkpt lat="55.660912" lon="26.571972">
<ele>147.861450</ele>
<time>2010-07-18T11:07:02Z</time>
<desc>lat.=55.660912, lon.=26.571972, Alt.=147.861450m. Speed=0.000000m/h.</desc>
<speed>0.000000</speed>
</trkpt>
<trkpt lat="55.660912" lon="26.571972">
<ele>147.861450</ele>
<time>2010-07-18T11:07:03Z</time>
<desc>lat.=55.660912, lon.=26.571972, Alt.=147.861450m. Speed=0.000000m/h.</desc>
<speed>0.000000</speed>
</trkpt>
<trkpt lat="55.660912" lon="26.571972">
<ele>147.861450</ele>
<time>2010-07-18T11:07:04Z</time>
<desc>lat.=55.660912, lon.=26.571972, Alt.=147.861450m. Speed=0.000000m/h.</desc>
<speed>0.000000</speed>
</trkpt>
<trkpt lat="55.660912" lon="26.571972">
<ele>147.861450</ele>
<time>2010-07-18T11:07:05Z</time>
<desc>lat.=55.660912, lon.=26.571972, Alt.=147.861450m. Speed=0.000000m/h.</desc>
<speed>0.000000</speed>
</trkpt>
<trkpt lat="55.660912" lon="26.571972">
<ele>147.861450</ele>
<time>2010-07-18T11:07:06Z</time>
<desc>lat.=55.660912, lon.=26.571972, Alt.=147.861450m. Speed=0.000000m/h.</desc>
<speed>0.000000</speed>
</trkpt>
<trkpt lat="55.660912" lon="26.571972">
<ele>147.857544</ele>
<time>2010-07-18T11:07:07Z</time>
<desc>lat.=55.660912, lon.=26.571972, Alt.=147.857544m. Speed=0.000000m/h.</desc>
<speed>0.000000</speed>
</trkpt>
<trkpt lat="55.660912" lon="26.571972">
<ele>147.857544</ele>
<time>2010-07-18T11:07:08Z</time>
<desc>lat.=55.660912, lon.=26.571972, Alt.=147.857544m. Speed=0.000000m/h.</desc>
<speed>0.000000</speed>
</trkpt>
<trkpt lat="55.660912" lon="26.571972">
<ele>147.857544</ele>
<time>2010-07-18T11:07:09Z</time>
<desc>lat.=55.660912, lon.=26.571972, Alt.=147.857544m. Speed=0.000000m/h.</desc>
<speed>0.000000</speed>
</trkpt>
<trkpt lat="55.660912" lon="26.571972">
<ele>147.853638</ele>
<time>2010-07-18T11:07:10Z</time>
<desc>lat.=55.660912, lon.=26.571972, Alt.=147.853638m. Speed=0.000000m/h.</desc>
<speed>0.000000</speed>
</trkpt>
<trkpt lat="55.660912" lon="26.571972">
<ele>147.853638</ele>
<time>2010-07-18T11:07:11Z</time>
<desc>lat.=55.660912, lon.=26.571972, Alt.=147.853638m. Speed=0.000000m/h.</desc>
<speed>0.000000</speed>
</trkpt>
<trkpt lat="55.660912" lon="26.571972">
<ele>147.853638</ele>
<time>2010-07-18T11:07:12Z</time>
<desc>lat.=55.660912, lon.=26.571972, Alt.=147.853638m. Speed=0.000000m/h.</desc>
<speed>0.000000</speed>
</trkpt>
<trkpt lat="55.660912" lon="26.571972">
<ele>147.853638</ele>
<time>2010-07-18T11:07:13Z</time>
<desc>lat.=55.660912, lon.=26.571972, Alt.=147.853638m. Speed=0.000000m/h.</desc>
<speed>0.000000</speed>
</trkpt>
<trkpt lat="55.660912" lon="26.571972">
<ele>147.853638</ele>
<time>2010-07-18T11:07:14Z</time>
<desc>lat.=55.660912, lon.=26.571972, Alt.=147.853638m. Speed=0.000000m/h.</desc>
<speed>0.000000</speed>
</trkpt>
<trkpt lat="55.660912" lon="26.571972">
<ele>147.849731</ele>
<time>2010-07-18T11:07:15Z</time>
<desc>lat.=55.660912, lon.=26.571972, Alt.=147.849731m. Speed=0.000000m/h.</desc>
<speed>0.000000</speed>
</trkpt>
<trkpt lat="55.660912" lon="26.571972">
<ele>147.849731</ele>
<time>2010-07-18T11:07:16Z</time>
<desc>lat.=55.660912, lon.=26.571972, Alt.=147.849731m. Speed=0.000000m/h.</desc>
<speed>0.000000</speed>
</trkpt>
<trkpt lat="55.660912" lon="26.571972">
<ele>147.849731</ele>
<time>2010-07-18T11:07:17Z</time>
<desc>lat.=55.660912, lon.=26.571972, Alt.=147.849731m. Speed=0.000000m/h.</desc>
<speed>0.000000</speed>
</trkpt>
<trkpt lat="55.660912" lon="26.571972">
<ele>147.849731</ele>
<time>2010-07-18T11:07:18Z</time>
<desc>lat.=55.660912, lon.=26.571972, Alt.=147.849731m. Speed=0.000000m/h.</desc>
<speed>0.000000</speed>
</trkpt>
<trkpt lat="55.660912" lon="26.571972">
<ele>147.845825</ele>
<time>2010-07-18T11:07:19Z</time>
<desc>lat.=55.660912, lon.=26.571972, Alt.=147.845825m. Speed=0.000000m/h.</desc>
<speed>0.000000</speed>
</trkpt>
<trkpt lat="55.660912" lon="26.571972">
<ele>147.841919</ele>
<time>2010-07-18T11:07:20Z</time>
<desc>lat.=55.660912, lon.=26.571972, Alt.=147.841919m. Speed=0.000000m/h.</desc>
<speed>0.000000</speed>
</trkpt>
<trkpt lat="55.660912" lon="26.571972">
<ele>147.841919</ele>
<time>2010-07-18T11:07:21Z</time>
<desc>lat.=55.660912, lon.=26.571972, Alt.=147.841919m. Speed=0.000000m/h.</desc>
<speed>0.000000</speed>
</trkpt>
<trkpt lat="55.660912" lon="26.571972">
<ele>147.841919</ele>
<time>2010-07-18T11:07:22Z</time>
<desc>lat.=55.660912, lon.=26.571972, Alt.=147.841919m. Speed=0.000000m/h.</desc>
<speed>0.000000</speed>
</trkpt>
<trkpt lat="55.660912" lon="26.571972">
<ele>147.841919</ele>
<time>2010-07-18T11:07:23Z</time>
<desc>lat.=55.660912, lon.=26.571972, Alt.=147.841919m. Speed=0.000000m/h.</desc>
<speed>0.000000</speed>
</trkpt>
<trkpt lat="55.660912" lon="26.571972">
<ele>147.841919</ele>
<time>2010-07-18T11:07:24Z</time>
<desc>lat.=55.660912, lon.=26.571972, Alt.=147.841919m. Speed=0.000000m/h.</desc>
<speed>0.000000</speed>
</trkpt>
<trkpt lat="55.660912" lon="26.571972">
<ele>147.841919</ele>
<time>2010-07-18T11:07:25Z</time>
<desc>lat.=55.660912, lon.=26.571972, Alt.=147.841919m. Speed=0.000000m/h.</desc>
<speed>0.000000</speed>
</trkpt>
<trkpt lat="55.660912" lon="26.571972">
<ele>147.841919</ele>
<time>2010-07-18T11:07:26Z</time>
<desc>lat.=55.660912, lon.=26.571972, Alt.=147.841919m. Speed=0.000000m/h.</desc>
<speed>0.000000</speed>
</trkpt>
<trkpt lat="55.660912" lon="26.571972">
<ele>147.841919</ele>
<time>2010-07-18T11:07:27Z</time>
<desc>lat.=55.660912, lon.=26.571972, Alt.=147.841919m. Speed=0.000000m/h.</desc>
<speed>0.000000</speed>
</trkpt>
<trkpt lat="55.660912" lon="26.571972">
<ele>147.841919</ele>
<time>2010-07-18T11:07:28Z</time>
<desc>lat.=55.660912, lon.=26.571972, Alt.=147.841919m. Speed=0.000000m/h.</desc>
<speed>0.000000</speed>
</trkpt>
<trkpt lat="55.660912" lon="26.571972">
<ele>147.845825</ele>
<time>2010-07-18T11:07:29Z</time>
<desc>lat.=55.660912, lon.=26.571972, Alt.=147.845825m. Speed=0.000000m/h.</desc>
<speed>0.000000</speed>
</trkpt>
<trkpt lat="55.660912" lon="26.571972">
<ele>147.845825</ele>
<time>2010-07-18T11:07:30Z</time>
<desc>lat.=55.660912, lon.=26.571972, Alt.=147.845825m. Speed=0.000000m/h.</desc>
<speed>0.000000</speed>
</trkpt>
<trkpt lat="55.660912" lon="26.571972">
<ele>147.845825</ele>
<time>2010-07-18T11:07:31Z</time>
<desc>lat.=55.660912, lon.=26.571972, Alt.=147.845825m. Speed=0.000000m/h.</desc>
<speed>0.000000</speed>
</trkpt>
<trkpt lat="55.660912" lon="26.571972">
<ele>147.849731</ele>
<time>2010-07-18T11:07:32Z</time>
<desc>lat.=55.660912, lon.=26.571972, Alt.=147.849731m. Speed=0.000000m/h.</desc>
<speed>0.000000</speed>
</trkpt>
<trkpt lat="55.660912" lon="26.571972">
<ele>147.849731</ele>
<time>2010-07-18T11:07:33Z</time>
<desc>lat.=55.660912, lon.=26.571972, Alt.=147.849731m. Speed=0.000000m/h.</desc>
<speed>0.000000</speed>
</trkpt>
<trkpt lat="55.660912" lon="26.571972">
<ele>147.849731</ele>
<time>2010-07-18T11:07:34Z</time>
<desc>lat.=55.660912, lon.=26.571972, Alt.=147.849731m. Speed=0.000000m/h.</desc>
<speed>0.000000</speed>
</trkpt>
<trkpt lat="55.660912" lon="26.571972">
<ele>147.849731</ele>
<time>2010-07-18T11:07:35Z</time>
<desc>lat.=55.660912, lon.=26.571972, Alt.=147.849731m. Speed=0.000000m/h.</desc>
<speed>0.000000</speed>
</trkpt>
<trkpt lat="55.660912" lon="26.571972">
<ele>147.853638</ele>
<time>2010-07-18T11:07:36Z</time>
<desc>lat.=55.660912, lon.=26.571972, Alt.=147.853638m. Speed=0.000000m/h.</desc>
<speed>0.000000</speed>
</trkpt>
<trkpt lat="55.660912" lon="26.571972">
<ele>147.853638</ele>
<time>2010-07-18T11:07:37Z</time>
<desc>lat.=55.660912, lon.=26.571972, Alt.=147.853638m. Speed=0.000000m/h.</desc>
<speed>0.000000</speed>
</trkpt>
<trkpt lat="55.660915" lon="26.571972">
<ele>147.853638</ele>
<time>2010-07-18T11:07:38Z</time>
<desc>lat.=55.660915, lon.=26.571972, Alt.=147.853638m. Speed=0.000000m/h.</desc>
<speed>0.000000</speed>
</trkpt>
<trkpt lat="55.660915" lon="26.571972">
<ele>147.857544</ele>
<time>2010-07-18T11:07:39Z</time>
<desc>lat.=55.660915, lon.=26.571972, Alt.=147.857544m. Speed=0.000000m/h.</desc>
<speed>0.000000</speed>
</trkpt>
<trkpt lat="55.660915" lon="26.571972">
<ele>147.857544</ele>
<time>2010-07-18T11:07:40Z</time>
<desc>lat.=55.660915, lon.=26.571972, Alt.=147.857544m. Speed=0.000000m/h.</desc>
<speed>0.000000</speed>
</trkpt>
<trkpt lat="55.660915" lon="26.571972">
<ele>147.857544</ele>
<time>2010-07-18T11:07:41Z</time>
<desc>lat.=55.660915, lon.=26.571972, Alt.=147.857544m. Speed=0.000000m/h.</desc>
<speed>0.000000</speed>
</trkpt>
<trkpt lat="55.660915" lon="26.571972">
<ele>147.857544</ele>
<time>2010-07-18T11:07:42Z</time>
<desc>lat.=55.660915, lon.=26.571972, Alt.=147.857544m. Speed=0.000000m/h.</desc>
<speed>0.000000</speed>
</trkpt>
<trkpt lat="55.660915" lon="26.571972">
<ele>147.857544</ele>
<time>2010-07-18T11:07:43Z</time>
<desc>lat.=55.660915, lon.=26.571972, Alt.=147.857544m. Speed=0.000000m/h.</desc>
<speed>0.000000</speed>
</trkpt>
<trkpt lat="55.660915" lon="26.571972">
<ele>147.857544</ele>
<time>2010-07-18T11:07:44Z</time>
<desc>lat.=55.660915, lon.=26.571972, Alt.=147.857544m. Speed=0.000000m/h.</desc>
<speed>0.000000</speed>
</trkpt>
<trkpt lat="55.660915" lon="26.571972">
<ele>147.857544</ele>
<time>2010-07-18T11:07:45Z</time>
<desc>lat.=55.660915, lon.=26.571972, Alt.=147.857544m. Speed=0.000000m/h.</desc>
<speed>0.000000</speed>
</trkpt>
<trkpt lat="55.660915" lon="26.571972">
<ele>147.857544</ele>
<time>2010-07-18T11:07:46Z</time>
<desc>lat.=55.660915, lon.=26.571972, Alt.=147.857544m. Speed=0.000000m/h.</desc>
<speed>0.000000</speed>
</trkpt>
<trkpt lat="55.660915" lon="26.571972">
<ele>147.853638</ele>
<time>2010-07-18T11:07:47Z</time>
<desc>lat.=55.660915, lon.=26.571972, Alt.=147.853638m. Speed=0.000000m/h.</desc>
<speed>0.000000</speed>
</trkpt>
<trkpt lat="55.660915" lon="26.571972">
<ele>147.853638</ele>
<time>2010-07-18T11:07:48Z</time>
<desc>lat.=55.660915, lon.=26.571972, Alt.=147.853638m. Speed=0.000000m/h.</desc>
<speed>0.000000</speed>
</trkpt>
<trkpt lat="55.660915" lon="26.571972">
<ele>147.849731</ele>
<time>2010-07-18T11:07:49Z</time>
<desc>lat.=55.660915, lon.=26.571972, Alt.=147.849731m. Speed=0.000000m/h.</desc>
<speed>0.000000</speed>
</trkpt>
<trkpt lat="55.660915" lon="26.571972">
<ele>147.849731</ele>
<time>2010-07-18T11:07:50Z</time>
<desc>lat.=55.660915, lon.=26.571972, Alt.=147.849731m. Speed=0.000000m/h.</desc>
<speed>0.000000</speed>
</trkpt>
<trkpt lat="55.660915" lon="26.571972">
<ele>147.845825</ele>
<time>2010-07-18T11:07:51Z</time>
<desc>lat.=55.660915, lon.=26.571972, Alt.=147.845825m. Speed=0.000000m/h.</desc>
<speed>0.000000</speed>
</trkpt>
<trkpt lat="55.660915" lon="26.571972">
<ele>147.845825</ele>
<time>2010-07-18T11:07:52Z</time>
<desc>lat.=55.660915, lon.=26.571972, Alt.=147.845825m. Speed=0.000000m/h.</desc>
<speed>0.000000</speed>
</trkpt>
<trkpt lat="55.660915" lon="26.571972">
<ele>147.845825</ele>
<time>2010-07-18T11:07:53Z</time>
<desc>lat.=55.660915, lon.=26.571972, Alt.=147.845825m. Speed=0.000000m/h.</desc>
<speed>0.000000</speed>
</trkpt>
<trkpt lat="55.660915" lon="26.571972">
<ele>147.841919</ele>
<time>2010-07-18T11:07:54Z</time>
<desc>lat.=55.660915, lon.=26.571972, Alt.=147.841919m. Speed=0.000000m/h.</desc>
<speed>0.000000</speed>
</trkpt>
<trkpt lat="55.660915" lon="26.571972">
<ele>147.838013</ele>
<time>2010-07-18T11:07:55Z</time>
<desc>lat.=55.660915, lon.=26.571972, Alt.=147.838013m. Speed=0.000000m/h.</desc>
<speed>0.000000</speed>
</trkpt>
<trkpt lat="55.660915" lon="26.571972">
<ele>147.838013</ele>
<time>2010-07-18T11:07:56Z</time>
<desc>lat.=55.660915, lon.=26.571972, Alt.=147.838013m. Speed=0.000000m/h.</desc>
<speed>0.000000</speed>
</trkpt>
<trkpt lat="55.660915" lon="26.571972">
<ele>147.834106</ele>
<time>2010-07-18T11:07:57Z</time>
<desc>lat.=55.660915, lon.=26.571972, Alt.=147.834106m. Speed=0.000000m/h.</desc>
<speed>0.000000</speed>
</trkpt>
<trkpt lat="55.660915" lon="26.571972">
<ele>147.834106</ele>
<time>2010-07-18T11:07:58Z</time>
<desc>lat.=55.660915, lon.=26.571972, Alt.=147.834106m. Speed=0.000000m/h.</desc>
<speed>0.000000</speed>
</trkpt>
<trkpt lat="55.660915" lon="26.571972">
<ele>147.834106</ele>
<time>2010-07-18T11:07:59Z</time>
<desc>lat.=55.660915, lon.=26.571972, Alt.=147.834106m. Speed=0.000000m/h.</desc>
<speed>0.000000</speed>
</trkpt>
<trkpt lat="55.660915" lon="26.571972">
<ele>147.830200</ele>
<time>2010-07-18T11:08:00Z</time>
<desc>lat.=55.660915, lon.=26.571972, Alt.=147.830200m. Speed=0.000000m/h.</desc>
<speed>0.000000</speed>
</trkpt>
<trkpt lat="55.660915" lon="26.571972">
<ele>147.826294</ele>
<time>2010-07-18T11:08:01Z</time>
<desc>lat.=55.660915, lon.=26.571972, Alt.=147.826294m. Speed=0.000000m/h.</desc>
<speed>0.000000</speed>
</trkpt>
<trkpt lat="55.660915" lon="26.571972">
<ele>147.826294</ele>
<time>2010-07-18T11:08:02Z</time>
<desc>lat.=55.660915, lon.=26.571972, Alt.=147.826294m. Speed=0.000000m/h.</desc>
<speed>0.000000</speed>
</trkpt>
<trkpt lat="55.660915" lon="26.571972">
<ele>147.822388</ele>
<time>2010-07-18T11:08:03Z</time>
<desc>lat.=55.660915, lon.=26.571972, Alt.=147.822388m. Speed=0.000000m/h.</desc>
<speed>0.000000</speed>
</trkpt>
<trkpt lat="55.660915" lon="26.571972">
<ele>147.818481</ele>
<time>2010-07-18T11:08:04Z</time>
<desc>lat.=55.660915, lon.=26.571972, Alt.=147.818481m. Speed=0.000000m/h.</desc>
<speed>0.000000</speed>
</trkpt>
<trkpt lat="55.660915" lon="26.571972">
<ele>147.818481</ele>
<time>2010-07-18T11:08:05Z</time>
<desc>lat.=55.660915, lon.=26.571972, Alt.=147.818481m. Speed=0.000000m/h.</desc>
<speed>0.000000</speed>
</trkpt>
<trkpt lat="55.660915" lon="26.571972">
<ele>147.810669</ele>
<time>2010-07-18T11:08:06Z</time>
<desc>lat.=55.660915, lon.=26.571972, Alt.=147.810669m. Speed=0.000000m/h.</desc>
<speed>0.000000</speed>
</trkpt>
<trkpt lat="55.660915" lon="26.571972">
<ele>147.806763</ele>
<time>2010-07-18T11:08:07Z</time>
<desc>lat.=55.660915, lon.=26.571972, Alt.=147.806763m. Speed=0.036000m/h.</desc>
<speed>0.010000</speed>
</trkpt>
<trkpt lat="55.660915" lon="26.571972">
<ele>147.802856</ele>
<time>2010-07-18T11:08:08Z</time>
<desc>lat.=55.660915, lon.=26.571972, Alt.=147.802856m. Speed=0.000000m/h.</desc>
<speed>0.000000</speed>
</trkpt>
<trkpt lat="55.660915" lon="26.571972">
<ele>147.798950</ele>
<time>2010-07-18T11:08:09Z</time>
<desc>lat.=55.660915, lon.=26.571972, Alt.=147.798950m. Speed=0.000000m/h.</desc>
<speed>0.000000</speed>
</trkpt>
<trkpt lat="55.660915" lon="26.571972">
<ele>147.795044</ele>
<time>2010-07-18T11:08:10Z</time>
<desc>lat.=55.660915, lon.=26.571972, Alt.=147.795044m. Speed=0.000000m/h.</desc>
<speed>0.000000</speed>
</trkpt>
<trkpt lat="55.660915" lon="26.571972">
<ele>147.791138</ele>
<time>2010-07-18T11:08:11Z</time>
<desc>lat.=55.660915, lon.=26.571972, Alt.=147.791138m. Speed=0.000000m/h.</desc>
<speed>0.000000</speed>
</trkpt>
<trkpt lat="55.660915" lon="26.571972">
<ele>147.783325</ele>
<time>2010-07-18T11:08:12Z</time>
<desc>lat.=55.660915, lon.=26.571972, Alt.=147.783325m. Speed=0.000000m/h.</desc>
<speed>0.000000</speed>
</trkpt>
<trkpt lat="55.660915" lon="26.571972">
<ele>147.783325</ele>
<time>2010-07-18T11:08:13Z</time>
<desc>lat.=55.660915, lon.=26.571972, Alt.=147.783325m. Speed=0.000000m/h.</desc>
<speed>0.000000</speed>
</trkpt>
<trkpt lat="55.660915" lon="26.571972">
<ele>147.779419</ele>
<time>2010-07-18T11:08:14Z</time>
<desc>lat.=55.660915, lon.=26.571972, Alt.=147.779419m. Speed=0.000000m/h.</desc>
<speed>0.000000</speed>
</trkpt>
<trkpt lat="55.660915" lon="26.571972">
<ele>147.775513</ele>
<time>2010-07-18T11:08:15Z</time>
<desc>lat.=55.660915, lon.=26.571972, Alt.=147.775513m. Speed=0.000000m/h.</desc>
<speed>0.000000</speed>
</trkpt>
<trkpt lat="55.660915" lon="26.571972">
<ele>147.775513</ele>
<time>2010-07-18T11:08:16Z</time>
<desc>lat.=55.660915, lon.=26.571972, Alt.=147.775513m. Speed=0.000000m/h.</desc>
<speed>0.000000</speed>
</trkpt>
<trkpt lat="55.660915" lon="26.571972">
<ele>147.771606</ele>
<time>2010-07-18T11:08:17Z</time>
<desc>lat.=55.660915, lon.=26.571972, Alt.=147.771606m. Speed=0.000000m/h.</desc>
<speed>0.000000</speed>
</trkpt>
<trkpt lat="55.660915" lon="26.571972">
<ele>147.767700</ele>
<time>2010-07-18T11:08:18Z</time>
<desc>lat.=55.660915, lon.=26.571972, Alt.=147.767700m. Speed=0.000000m/h.</desc>
<speed>0.000000</speed>
</trkpt>
<trkpt lat="55.660915" lon="26.571972">
<ele>147.763794</ele>
<time>2010-07-18T11:08:19Z</time>
<desc>lat.=55.660915, lon.=26.571972, Alt.=147.763794m. Speed=0.000000m/h.</desc>
<speed>0.000000</speed>
</trkpt>
<trkpt lat="55.660915" lon="26.571972">
<ele>147.759888</ele>
<time>2010-07-18T11:08:20Z</time>
<desc>lat.=55.660915, lon.=26.571972, Alt.=147.759888m. Speed=0.000000m/h.</desc>
<speed>0.000000</speed>
</trkpt>
<trkpt lat="55.660915" lon="26.571972">
<ele>147.759888</ele>
<time>2010-07-18T11:08:21Z</time>
<desc>lat.=55.660915, lon.=26.571972, Alt.=147.759888m. Speed=0.000000m/h.</desc>
<speed>0.000000</speed>
</trkpt>
<trkpt lat="55.660915" lon="26.571972">
<ele>147.755981</ele>
<time>2010-07-18T11:08:22Z</time>
<desc>lat.=55.660915, lon.=26.571972, Alt.=147.755981m. Speed=0.000000m/h.</desc>
<speed>0.000000</speed>
</trkpt>
<trkpt lat="55.660915" lon="26.571972">
<ele>147.752075</ele>
<time>2010-07-18T11:08:23Z</time>
<desc>lat.=55.660915, lon.=26.571972, Alt.=147.752075m. Speed=0.000000m/h.</desc>
<speed>0.000000</speed>
</trkpt>
<trkpt lat="55.660915" lon="26.571972">
<ele>147.748169</ele>
<time>2010-07-18T11:08:24Z</time>
<desc>lat.=55.660915, lon.=26.571972, Alt.=147.748169m. Speed=0.000000m/h.</desc>
<speed>0.000000</speed>
</trkpt>
<trkpt lat="55.660915" lon="26.571972">
<ele>147.744263</ele>
<time>2010-07-18T11:08:25Z</time>
<desc>lat.=55.660915, lon.=26.571972, Alt.=147.744263m. Speed=0.000000m/h.</desc>
<speed>0.000000</speed>
</trkpt>
<trkpt lat="55.660915" lon="26.571972">
<ele>147.744263</ele>
<time>2010-07-18T11:08:26Z</time>
<desc>lat.=55.660915, lon.=26.571972, Alt.=147.744263m. Speed=0.000000m/h.</desc>
<speed>0.000000</speed>
</trkpt>
<trkpt lat="55.660915" lon="26.571972">
<ele>147.744263</ele>
<time>2010-07-18T11:08:27Z</time>
<desc>lat.=55.660915, lon.=26.571972, Alt.=147.744263m. Speed=0.000000m/h.</desc>
<speed>0.000000</speed>
</trkpt>
<trkpt lat="55.660915" lon="26.571972">
<ele>147.740356</ele>
<time>2010-07-18T11:08:28Z</time>
<desc>lat.=55.660915, lon.=26.571972, Alt.=147.740356m. Speed=0.000000m/h.</desc>
<speed>0.000000</speed>
</trkpt>
<trkpt lat="55.660915" lon="26.571972">
<ele>147.740356</ele>
<time>2010-07-18T11:08:29Z</time>
<desc>lat.=55.660915, lon.=26.571972, Alt.=147.740356m. Speed=0.000000m/h.</desc>
<speed>0.000000</speed>
</trkpt>
<trkpt lat="55.660915" lon="26.571972">
<ele>147.736450</ele>
<time>2010-07-18T11:08:30Z</time>
<desc>lat.=55.660915, lon.=26.571972, Alt.=147.736450m. Speed=0.000000m/h.</desc>
<speed>0.000000</speed>
</trkpt>
<trkpt lat="55.660915" lon="26.571972">
<ele>147.736450</ele>
<time>2010-07-18T11:08:31Z</time>
<desc>lat.=55.660915, lon.=26.571972, Alt.=147.736450m. Speed=0.000000m/h.</desc>
<speed>0.000000</speed>
</trkpt>
<trkpt lat="55.660915" lon="26.571972">
<ele>147.732544</ele>
<time>2010-07-18T11:08:32Z</time>
<desc>lat.=55.660915, lon.=26.571972, Alt.=147.732544m. Speed=0.036000m/h.</desc>
<speed>0.010000</speed>
</trkpt>
<trkpt lat="55.660915" lon="26.571972">
<ele>147.728638</ele>
<time>2010-07-18T11:08:33Z</time>
<desc>lat.=55.660915, lon.=26.571972, Alt.=147.728638m. Speed=0.000000m/h.</desc>
<speed>0.000000</speed>
</trkpt>
<trkpt lat="55.660915" lon="26.571972">
<ele>147.724731</ele>
<time>2010-07-18T11:08:34Z</time>
<desc>lat.=55.660915, lon.=26.571972, Alt.=147.724731m. Speed=0.000000m/h.</desc>
<speed>0.000000</speed>
</trkpt>
<trkpt lat="55.660915" lon="26.571972">
<ele>147.720825</ele>
<time>2010-07-18T11:08:35Z</time>
<desc>lat.=55.660915, lon.=26.571972, Alt.=147.720825m. Speed=0.000000m/h.</desc>
<speed>0.000000</speed>
</trkpt>
<trkpt lat="55.660915" lon="26.571972">
<ele>147.720825</ele>
<time>2010-07-18T11:08:36Z</time>
<desc>lat.=55.660915, lon.=26.571972, Alt.=147.720825m. Speed=0.000000m/h.</desc>
<speed>0.000000</speed>
</trkpt>
<trkpt lat="55.660915" lon="26.571972">
<ele>147.720825</ele>
<time>2010-07-18T11:08:37Z</time>
<desc>lat.=55.660915, lon.=26.571972, Alt.=147.720825m. Speed=0.000000m/h.</desc>
<speed>0.000000</speed>
</trkpt>
<trkpt lat="55.660915" lon="26.571972">
<ele>147.720825</ele>
<time>2010-07-18T11:08:38Z</time>
<desc>lat.=55.660915, lon.=26.571972, Alt.=147.720825m. Speed=0.000000m/h.</desc>
<speed>0.000000</speed>
</trkpt>
<trkpt lat="55.660915" lon="26.571972">
<ele>147.716919</ele>
<time>2010-07-18T11:08:39Z</time>
<desc>lat.=55.660915, lon.=26.571972, Alt.=147.716919m. Speed=0.000000m/h.</desc>
<speed>0.000000</speed>
</trkpt>
<trkpt lat="55.660915" lon="26.571972">
<ele>147.713013</ele>
<time>2010-07-18T11:08:40Z</time>
<desc>lat.=55.660915, lon.=26.571972, Alt.=147.713013m. Speed=0.000000m/h.</desc>
<speed>0.000000</speed>
</trkpt>
<trkpt lat="55.660915" lon="26.571972">
<ele>147.713013</ele>
<time>2010-07-18T11:08:41Z</time>
<desc>lat.=55.660915, lon.=26.571972, Alt.=147.713013m. Speed=0.000000m/h.</desc>
<speed>0.000000</speed>
</trkpt>
<trkpt lat="55.660915" lon="26.571972">
<ele>147.709106</ele>
<time>2010-07-18T11:08:42Z</time>
<desc>lat.=55.660915, lon.=26.571972, Alt.=147.709106m. Speed=0.000000m/h.</desc>
<speed>0.000000</speed>
</trkpt>
<trkpt lat="55.660915" lon="26.571972">
<ele>147.705200</ele>
<time>2010-07-18T11:08:43Z</time>
<desc>lat.=55.660915, lon.=26.571972, Alt.=147.705200m. Speed=0.000000m/h.</desc>
<speed>0.000000</speed>
</trkpt>
<trkpt lat="55.660915" lon="26.571972">
<ele>147.705200</ele>
<time>2010-07-18T11:08:44Z</time>
<desc>lat.=55.660915, lon.=26.571972, Alt.=147.705200m. Speed=0.000000m/h.</desc>
<speed>0.000000</speed>
</trkpt>
<trkpt lat="55.660915" lon="26.571972">
<ele>147.701294</ele>
<time>2010-07-18T11:08:45Z</time>
<desc>lat.=55.660915, lon.=26.571972, Alt.=147.701294m. Speed=0.000000m/h.</desc>
<speed>0.000000</speed>
</trkpt>
<trkpt lat="55.660915" lon="26.571972">
<ele>147.697388</ele>
<time>2010-07-18T11:08:46Z</time>
<desc>lat.=55.660915, lon.=26.571972, Alt.=147.697388m. Speed=0.036000m/h.</desc>
<speed>0.010000</speed>
</trkpt>
<trkpt lat="55.660915" lon="26.571972">
<ele>147.693481</ele>
<time>2010-07-18T11:08:47Z</time>
<desc>lat.=55.660915, lon.=26.571972, Alt.=147.693481m. Speed=0.000000m/h.</desc>
<speed>0.000000</speed>
</trkpt>
<trkpt lat="55.660915" lon="26.571972">
<ele>147.689575</ele>
<time>2010-07-18T11:08:48Z</time>
<desc>lat.=55.660915, lon.=26.571972, Alt.=147.689575m. Speed=0.000000m/h.</desc>
<speed>0.000000</speed>
</trkpt>
<trkpt lat="55.660915" lon="26.571972">
<ele>147.685669</ele>
<time>2010-07-18T11:08:49Z</time>
<desc>lat.=55.660915, lon.=26.571972, Alt.=147.685669m. Speed=0.000000m/h.</desc>
<speed>0.000000</speed>
</trkpt>
<trkpt lat="55.660915" lon="26.571972">
<ele>147.681763</ele>
<time>2010-07-18T11:08:50Z</time>
<desc>lat.=55.660915, lon.=26.571972, Alt.=147.681763m. Speed=0.000000m/h.</desc>
<speed>0.000000</speed>
</trkpt>
<trkpt lat="55.660915" lon="26.571972">
<ele>147.681763</ele>
<time>2010-07-18T11:08:51Z</time>
<desc>lat.=55.660915, lon.=26.571972, Alt.=147.681763m. Speed=0.000000m/h.</desc>
<speed>0.000000</speed>
</trkpt>
<trkpt lat="55.660915" lon="26.571972">
<ele>147.673950</ele>
<time>2010-07-18T11:08:52Z</time>
<desc>lat.=55.660915, lon.=26.571972, Alt.=147.673950m. Speed=0.000000m/h.</desc>
<speed>0.000000</speed>
</trkpt>
<trkpt lat="55.660915" lon="26.571972">
<ele>147.673950</ele>
<time>2010-07-18T11:08:53Z</time>
<desc>lat.=55.660915, lon.=26.571972, Alt.=147.673950m. Speed=0.000000m/h.</desc>
<speed>0.000000</speed>
</trkpt>
<trkpt lat="55.660915" lon="26.571972">
<ele>147.670044</ele>
<time>2010-07-18T11:08:54Z</time>
<desc>lat.=55.660915, lon.=26.571972, Alt.=147.670044m. Speed=0.000000m/h.</desc>
<speed>0.000000</speed>
</trkpt>
<trkpt lat="55.660915" lon="26.571972">
<ele>147.666138</ele>
<time>2010-07-18T11:08:55Z</time>
<desc>lat.=55.660915, lon.=26.571972, Alt.=147.666138m. Speed=0.000000m/h.</desc>
<speed>0.000000</speed>
</trkpt>
<trkpt lat="55.660915" lon="26.571972">
<ele>147.662231</ele>
<time>2010-07-18T11:08:56Z</time>
<desc>lat.=55.660915, lon.=26.571972, Alt.=147.662231m. Speed=0.000000m/h.</desc>
<speed>0.000000</speed>
</trkpt>
<trkpt lat="55.660915" lon="26.571972">
<ele>147.658325</ele>
<time>2010-07-18T11:08:57Z</time>
<desc>lat.=55.660915, lon.=26.571972, Alt.=147.658325m. Speed=0.000000m/h.</desc>
<speed>0.000000</speed>
</trkpt>
<trkpt lat="55.660915" lon="26.571972">
<ele>147.654419</ele>
<time>2010-07-18T11:08:58Z</time>
<desc>lat.=55.660915, lon.=26.571972, Alt.=147.654419m. Speed=0.000000m/h.</desc>
<speed>0.000000</speed>
</trkpt>
<trkpt lat="55.660915" lon="26.571972">
<ele>147.654419</ele>
<time>2010-07-18T11:08:59Z</time>
<desc>lat.=55.660915, lon.=26.571972, Alt.=147.654419m. Speed=0.000000m/h.</desc>
<speed>0.000000</speed>
</trkpt>
<trkpt lat="55.660915" lon="26.571972">
<ele>147.650513</ele>
<time>2010-07-18T11:09:00Z</time>
<desc>lat.=55.660915, lon.=26.571972, Alt.=147.650513m. Speed=0.000000m/h.</desc>
<speed>0.000000</speed>
</trkpt>
<trkpt lat="55.660915" lon="26.571972">
<ele>147.646606</ele>
<time>2010-07-18T11:09:01Z</time>
<desc>lat.=55.660915, lon.=26.571972, Alt.=147.646606m. Speed=0.000000m/h.</desc>
<speed>0.000000</speed>
</trkpt>
<trkpt lat="55.660915" lon="26.571972">
<ele>147.642700</ele>
<time>2010-07-18T11:09:02Z</time>
<desc>lat.=55.660915, lon.=26.571972, Alt.=147.642700m. Speed=0.000000m/h.</desc>
<speed>0.000000</speed>
</trkpt>
<trkpt lat="55.660915" lon="26.571972">
<ele>147.642700</ele>
<time>2010-07-18T11:09:03Z</time>
<desc>lat.=55.660915, lon.=26.571972, Alt.=147.642700m. Speed=0.000000m/h.</desc>
<speed>0.000000</speed>
</trkpt>
<trkpt lat="55.660915" lon="26.571972">
<ele>147.638794</ele>
<time>2010-07-18T11:09:04Z</time>
<desc>lat.=55.660915, lon.=26.571972, Alt.=147.638794m. Speed=0.000000m/h.</desc>
<speed>0.000000</speed>
</trkpt>
<trkpt lat="55.660915" lon="26.571972">
<ele>147.634888</ele>
<time>2010-07-18T11:09:05Z</time>
<desc>lat.=55.660915, lon.=26.571972, Alt.=147.634888m. Speed=0.000000m/h.</desc>
<speed>0.000000</speed>
</trkpt>
<trkpt lat="55.660915" lon="26.571972">
<ele>147.630981</ele>
<time>2010-07-18T11:09:06Z</time>
<desc>lat.=55.660915, lon.=26.571972, Alt.=147.630981m. Speed=0.000000m/h.</desc>
<speed>0.000000</speed>
</trkpt>
<trkpt lat="55.660915" lon="26.571972">
<ele>147.627075</ele>
<time>2010-07-18T11:09:07Z</time>
<desc>lat.=55.660915, lon.=26.571972, Alt.=147.627075m. Speed=0.000000m/h.</desc>
<speed>0.000000</speed>
</trkpt>
<trkpt lat="55.660915" lon="26.571972">
<ele>147.623169</ele>
<time>2010-07-18T11:09:08Z</time>
<desc>lat.=55.660915, lon.=26.571972, Alt.=147.623169m. Speed=0.000000m/h.</desc>
<speed>0.000000</speed>
</trkpt>
<trkpt lat="55.660915" lon="26.571972">
<ele>147.623169</ele>
<time>2010-07-18T11:09:09Z</time>
<desc>lat.=55.660915, lon.=26.571972, Alt.=147.623169m. Speed=0.000000m/h.</desc>
<speed>0.000000</speed>
</trkpt>
<trkpt lat="55.660915" lon="26.571972">
<ele>147.619263</ele>
<time>2010-07-18T11:09:10Z</time>
<desc>lat.=55.660915, lon.=26.571972, Alt.=147.619263m. Speed=0.000000m/h.</desc>
<speed>0.000000</speed>
</trkpt>
<trkpt lat="55.660915" lon="26.571972">
<ele>147.615356</ele>
<time>2010-07-18T11:09:11Z</time>
<desc>lat.=55.660915, lon.=26.571972, Alt.=147.615356m. Speed=0.000000m/h.</desc>
<speed>0.000000</speed>
</trkpt>
<trkpt lat="55.660915" lon="26.571972">
<ele>147.611450</ele>
<time>2010-07-18T11:09:12Z</time>
<desc>lat.=55.660915, lon.=26.571972, Alt.=147.611450m. Speed=0.000000m/h.</desc>
<speed>0.000000</speed>
</trkpt>
<trkpt lat="55.660915" lon="26.571972">
<ele>147.607544</ele>
<time>2010-07-18T11:09:13Z</time>
<desc>lat.=55.660915, lon.=26.571972, Alt.=147.607544m. Speed=0.000000m/h.</desc>
<speed>0.000000</speed>
</trkpt>
<trkpt lat="55.660915" lon="26.571972">
<ele>147.603638</ele>
<time>2010-07-18T11:09:14Z</time>
<desc>lat.=55.660915, lon.=26.571972, Alt.=147.603638m. Speed=0.000000m/h.</desc>
<speed>0.000000</speed>
</trkpt>
<trkpt lat="55.660915" lon="26.571972">
<ele>147.599731</ele>
<time>2010-07-18T11:09:15Z</time>
<desc>lat.=55.660915, lon.=26.571972, Alt.=147.599731m. Speed=0.000000m/h.</desc>
<speed>0.000000</speed>
</trkpt>
<trkpt lat="55.660915" lon="26.571972">
<ele>147.599731</ele>
<time>2010-07-18T11:09:16Z</time>
<desc>lat.=55.660915, lon.=26.571972, Alt.=147.599731m. Speed=0.000000m/h.</desc>
<speed>0.000000</speed>
</trkpt>
<trkpt lat="55.660915" lon="26.571972">
<ele>147.595825</ele>
<time>2010-07-18T11:09:17Z</time>
<desc>lat.=55.660915, lon.=26.571972, Alt.=147.595825m. Speed=0.036000m/h.</desc>
<speed>0.010000</speed>
</trkpt>
<trkpt lat="55.660915" lon="26.571972">
<ele>147.595825</ele>
<time>2010-07-18T11:09:18Z</time>
<desc>lat.=55.660915, lon.=26.571972, Alt.=147.595825m. Speed=0.000000m/h.</desc>
<speed>0.000000</speed>
</trkpt>
<trkpt lat="55.660915" lon="26.571972">
<ele>147.591919</ele>
<time>2010-07-18T11:09:19Z</time>
<desc>lat.=55.660915, lon.=26.571972, Alt.=147.591919m. Speed=0.000000m/h.</desc>
<speed>0.000000</speed>
</trkpt>
<trkpt lat="55.660915" lon="26.571972">
<ele>147.588013</ele>
<time>2010-07-18T11:09:20Z</time>
<desc>lat.=55.660915, lon.=26.571972, Alt.=147.588013m. Speed=0.000000m/h.</desc>
<speed>0.000000</speed>
</trkpt>
<trkpt lat="55.660915" lon="26.571972">
<ele>147.584106</ele>
<time>2010-07-18T11:09:21Z</time>
<desc>lat.=55.660915, lon.=26.571972, Alt.=147.584106m. Speed=0.000000m/h.</desc>
<speed>0.000000</speed>
</trkpt>
<trkpt lat="55.660915" lon="26.571972">
<ele>147.584106</ele>
<time>2010-07-18T11:09:22Z</time>
<desc>lat.=55.660915, lon.=26.571972, Alt.=147.584106m. Speed=0.000000m/h.</desc>
<speed>0.000000</speed>
</trkpt>
<trkpt lat="55.660915" lon="26.571972">
<ele>147.580200</ele>
<time>2010-07-18T11:09:23Z</time>
<desc>lat.=55.660915, lon.=26.571972, Alt.=147.580200m. Speed=0.000000m/h.</desc>
<speed>0.000000</speed>
</trkpt>
<trkpt lat="55.660915" lon="26.571972">
<ele>147.576294</ele>
<time>2010-07-18T11:09:24Z</time>
<desc>lat.=55.660915, lon.=26.571972, Alt.=147.576294m. Speed=0.000000m/h.</desc>
<speed>0.000000</speed>
</trkpt>
<trkpt lat="55.660915" lon="26.571972">
<ele>147.572388</ele>
<time>2010-07-18T11:09:25Z</time>
<desc>lat.=55.660915, lon.=26.571972, Alt.=147.572388m. Speed=0.000000m/h.</desc>
<speed>0.000000</speed>
</trkpt>
<trkpt lat="55.660915" lon="26.571972">
<ele>147.568481</ele>
<time>2010-07-18T11:09:26Z</time>
<desc>lat.=55.660915, lon.=26.571972, Alt.=147.568481m. Speed=0.000000m/h.</desc>
<speed>0.000000</speed>
</trkpt>
<trkpt lat="55.660915" lon="26.571972">
<ele>147.564575</ele>
<time>2010-07-18T11:09:27Z</time>
<desc>lat.=55.660915, lon.=26.571972, Alt.=147.564575m. Speed=0.000000m/h.</desc>
<speed>0.000000</speed>
</trkpt>
<trkpt lat="55.660915" lon="26.571972">
<ele>147.560669</ele>
<time>2010-07-18T11:09:28Z</time>
<desc>lat.=55.660915, lon.=26.571972, Alt.=147.560669m. Speed=0.000000m/h.</desc>
<speed>0.000000</speed>
</trkpt>
<trkpt lat="55.660915" lon="26.571972">
<ele>147.556763</ele>
<time>2010-07-18T11:09:29Z</time>
<desc>lat.=55.660915, lon.=26.571972, Alt.=147.556763m. Speed=0.000000m/h.</desc>
<speed>0.000000</speed>
</trkpt>
<trkpt lat="55.660915" lon="26.571972">
<ele>147.556763</ele>
<time>2010-07-18T11:09:30Z</time>
<desc>lat.=55.660915, lon.=26.571972, Alt.=147.556763m. Speed=0.000000m/h.</desc>
<speed>0.000000</speed>
</trkpt>
<trkpt lat="55.660915" lon="26.571972">
<ele>147.548950</ele>
<time>2010-07-18T11:09:31Z</time>
<desc>lat.=55.660915, lon.=26.571972, Alt.=147.548950m. Speed=0.000000m/h.</desc>
<speed>0.000000</speed>
</trkpt>
<trkpt lat="55.660915" lon="26.571972">
<ele>147.548950</ele>
<time>2010-07-18T11:09:32Z</time>
<desc>lat.=55.660915, lon.=26.571972, Alt.=147.548950m. Speed=0.000000m/h.</desc>
<speed>0.000000</speed>
</trkpt>
<trkpt lat="55.660915" lon="26.571972">
<ele>147.545044</ele>
<time>2010-07-18T11:09:33Z</time>
<desc>lat.=55.660915, lon.=26.571972, Alt.=147.545044m. Speed=0.000000m/h.</desc>
<speed>0.000000</speed>
</trkpt>
<trkpt lat="55.660915" lon="26.571972">
<ele>147.545044</ele>
<time>2010-07-18T11:09:34Z</time>
<desc>lat.=55.660915, lon.=26.571972, Alt.=147.545044m. Speed=0.000000m/h.</desc>
<speed>0.000000</speed>
</trkpt>
<trkpt lat="55.660915" lon="26.571972">
<ele>147.541138</ele>
<time>2010-07-18T11:09:35Z</time>
<desc>lat.=55.660915, lon.=26.571972, Alt.=147.541138m. Speed=0.000000m/h.</desc>
<speed>0.000000</speed>
</trkpt>
<trkpt lat="55.660915" lon="26.571972">
<ele>147.533325</ele>
<time>2010-07-18T11:09:36Z</time>
<desc>lat.=55.660915, lon.=26.571972, Alt.=147.533325m. Speed=0.000000m/h.</desc>
<speed>0.000000</speed>
</trkpt>
<trkpt lat="55.660915" lon="26.571972">
<ele>147.529419</ele>
<time>2010-07-18T11:09:37Z</time>
<desc>lat.=55.660915, lon.=26.571972, Alt.=147.529419m. Speed=0.000000m/h.</desc>
<speed>0.000000</speed>
</trkpt>
<trkpt lat="55.660915" lon="26.571972">
<ele>147.525513</ele>
<time>2010-07-18T11:09:38Z</time>
<desc>lat.=55.660915, lon.=26.571972, Alt.=147.525513m. Speed=0.000000m/h.</desc>
<speed>0.000000</speed>
</trkpt>
<trkpt lat="55.660915" lon="26.571972">
<ele>147.521606</ele>
<time>2010-07-18T11:09:39Z</time>
<desc>lat.=55.660915, lon.=26.571972, Alt.=147.521606m. Speed=0.000000m/h.</desc>
<speed>0.000000</speed>
</trkpt>
<trkpt lat="55.660915" lon="26.571972">
<ele>147.521606</ele>
<time>2010-07-18T11:09:40Z</time>
<desc>lat.=55.660915, lon.=26.571972, Alt.=147.521606m. Speed=0.000000m/h.</desc>
<speed>0.000000</speed>
</trkpt>
<trkpt lat="55.660915" lon="26.571972">
<ele>147.517700</ele>
<time>2010-07-18T11:09:41Z</time>
<desc>lat.=55.660915, lon.=26.571972, Alt.=147.517700m. Speed=0.000000m/h.</desc>
<speed>0.000000</speed>
</trkpt>
<trkpt lat="55.660915" lon="26.571972">
<ele>147.513794</ele>
<time>2010-07-18T11:09:42Z</time>
<desc>lat.=55.660915, lon.=26.571972, Alt.=147.513794m. Speed=0.000000m/h.</desc>
<speed>0.000000</speed>
</trkpt>
<trkpt lat="55.660915" lon="26.571972">
<ele>147.513794</ele>
<time>2010-07-18T11:09:43Z</time>
<desc>lat.=55.660915, lon.=26.571972, Alt.=147.513794m. Speed=0.000000m/h.</desc>
<speed>0.000000</speed>
</trkpt>
<trkpt lat="55.660915" lon="26.571972">
<ele>147.513794</ele>
<time>2010-07-18T11:09:44Z</time>
<desc>lat.=55.660915, lon.=26.571972, Alt.=147.513794m. Speed=0.000000m/h.</desc>
<speed>0.000000</speed>
</trkpt>
<trkpt lat="55.660915" lon="26.571970">
<ele>147.509888</ele>
<time>2010-07-18T11:09:45Z</time>
<desc>lat.=55.660915, lon.=26.571970, Alt.=147.509888m. Speed=0.000000m/h.</desc>
<speed>0.000000</speed>
</trkpt>
<trkpt lat="55.660915" lon="26.571970">
<ele>147.509888</ele>
<time>2010-07-18T11:09:46Z</time>
<desc>lat.=55.660915, lon.=26.571970, Alt.=147.509888m. Speed=0.000000m/h.</desc>
<speed>0.000000</speed>
</trkpt>
<trkpt lat="55.660915" lon="26.571970">
<ele>147.509888</ele>
<time>2010-07-18T11:09:47Z</time>
<desc>lat.=55.660915, lon.=26.571970, Alt.=147.509888m. Speed=0.000000m/h.</desc>
<speed>0.000000</speed>
</trkpt>
<trkpt lat="55.660915" lon="26.571970">
<ele>147.509888</ele>
<time>2010-07-18T11:09:48Z</time>
<desc>lat.=55.660915, lon.=26.571970, Alt.=147.509888m. Speed=0.000000m/h.</desc>
<speed>0.000000</speed>
</trkpt>
<trkpt lat="55.660915" lon="26.571970">
<ele>147.509888</ele>
<time>2010-07-18T11:09:49Z</time>
<desc>lat.=55.660915, lon.=26.571970, Alt.=147.509888m. Speed=0.000000m/h.</desc>
<speed>0.000000</speed>
</trkpt>
<trkpt lat="55.660915" lon="26.571972">
<ele>147.509888</ele>
<time>2010-07-18T11:09:50Z</time>
<desc>lat.=55.660915, lon.=26.571972, Alt.=147.509888m. Speed=0.000000m/h.</desc>
<speed>0.000000</speed>
</trkpt>
<trkpt lat="55.660915" lon="26.571972">
<ele>147.509888</ele>
<time>2010-07-18T11:09:51Z</time>
<desc>lat.=55.660915, lon.=26.571972, Alt.=147.509888m. Speed=0.036000m/h.</desc>
<speed>0.010000</speed>
</trkpt>
<trkpt lat="55.660915" lon="26.571972">
<ele>147.505981</ele>
<time>2010-07-18T11:09:52Z</time>
<desc>lat.=55.660915, lon.=26.571972, Alt.=147.505981m. Speed=0.000000m/h.</desc>
<speed>0.000000</speed>
</trkpt>
<trkpt lat="55.660915" lon="26.571972">
<ele>147.505981</ele>
<time>2010-07-18T11:09:53Z</time>
<desc>lat.=55.660915, lon.=26.571972, Alt.=147.505981m. Speed=0.000000m/h.</desc>
<speed>0.000000</speed>
</trkpt>
<trkpt lat="55.660915" lon="26.571970">
<ele>147.502075</ele>
<time>2010-07-18T11:09:54Z</time>
<desc>lat.=55.660915, lon.=26.571970, Alt.=147.502075m. Speed=0.000000m/h.</desc>
<speed>0.000000</speed>
</trkpt>
<trkpt lat="55.660915" lon="26.571970">
<ele>147.502075</ele>
<time>2010-07-18T11:09:55Z</time>
<desc>lat.=55.660915, lon.=26.571970, Alt.=147.502075m. Speed=0.000000m/h.</desc>
<speed>0.000000</speed>
</trkpt>
<trkpt lat="55.660915" lon="26.571970">
<ele>147.502075</ele>
<time>2010-07-18T11:09:56Z</time>
<desc>lat.=55.660915, lon.=26.571970, Alt.=147.502075m. Speed=0.000000m/h.</desc>
<speed>0.000000</speed>
</trkpt>
<trkpt lat="55.660915" lon="26.571970">
<ele>147.502075</ele>
<time>2010-07-18T11:09:57Z</time>
<desc>lat.=55.660915, lon.=26.571970, Alt.=147.502075m. Speed=0.000000m/h.</desc>
<speed>0.000000</speed>
</trkpt>
<trkpt lat="55.660915" lon="26.571970">
<ele>147.502075</ele>
<time>2010-07-18T11:09:58Z</time>
<desc>lat.=55.660915, lon.=26.571970, Alt.=147.502075m. Speed=0.000000m/h.</desc>
<speed>0.000000</speed>
</trkpt>
<trkpt lat="55.660915" lon="26.571970">
<ele>147.498169</ele>
<time>2010-07-18T11:09:59Z</time>
<desc>lat.=55.660915, lon.=26.571970, Alt.=147.498169m. Speed=0.000000m/h.</desc>
<speed>0.000000</speed>
</trkpt>
<trkpt lat="55.660915" lon="26.571970">
<ele>147.498169</ele>
<time>2010-07-18T11:10:00Z</time>
<desc>lat.=55.660915, lon.=26.571970, Alt.=147.498169m. Speed=0.000000m/h.</desc>
<speed>0.000000</speed>
</trkpt>
<trkpt lat="55.660915" lon="26.571970">
<ele>147.494263</ele>
<time>2010-07-18T11:10:01Z</time>
<desc>lat.=55.660915, lon.=26.571970, Alt.=147.494263m. Speed=0.000000m/h.</desc>
<speed>0.000000</speed>
</trkpt>
<trkpt lat="55.660915" lon="26.571970">
<ele>147.490356</ele>
<time>2010-07-18T11:10:02Z</time>
<desc>lat.=55.660915, lon.=26.571970, Alt.=147.490356m. Speed=0.000000m/h.</desc>
<speed>0.000000</speed>
</trkpt>
<trkpt lat="55.660915" lon="26.571970">
<ele>147.486450</ele>
<time>2010-07-18T11:10:03Z</time>
<desc>lat.=55.660915, lon.=26.571970, Alt.=147.486450m. Speed=0.000000m/h.</desc>
<speed>0.000000</speed>
</trkpt>
<trkpt lat="55.660915" lon="26.571970">
<ele>147.486450</ele>
<time>2010-07-18T11:10:04Z</time>
<desc>lat.=55.660915, lon.=26.571970, Alt.=147.486450m. Speed=0.000000m/h.</desc>
<speed>0.000000</speed>
</trkpt>
<trkpt lat="55.660915" lon="26.571970">
<ele>147.482544</ele>
<time>2010-07-18T11:10:05Z</time>
<desc>lat.=55.660915, lon.=26.571970, Alt.=147.482544m. Speed=0.000000m/h.</desc>
<speed>0.000000</speed>
</trkpt>
<trkpt lat="55.660915" lon="26.571970">
<ele>147.482544</ele>
<time>2010-07-18T11:10:06Z</time>
<desc>lat.=55.660915, lon.=26.571970, Alt.=147.482544m. Speed=0.000000m/h.</desc>
<speed>0.000000</speed>
</trkpt>
<trkpt lat="55.660915" lon="26.571970">
<ele>147.478638</ele>
<time>2010-07-18T11:10:07Z</time>
<desc>lat.=55.660915, lon.=26.571970, Alt.=147.478638m. Speed=0.000000m/h.</desc>
<speed>0.000000</speed>
</trkpt>
<trkpt lat="55.660915" lon="26.571972">
<ele>147.474731</ele>
<time>2010-07-18T11:10:08Z</time>
<desc>lat.=55.660915, lon.=26.571972, Alt.=147.474731m. Speed=0.000000m/h.</desc>
<speed>0.000000</speed>
</trkpt>
<trkpt lat="55.660915" lon="26.571972">
<ele>147.474731</ele>
<time>2010-07-18T11:10:09Z</time>
<desc>lat.=55.660915, lon.=26.571972, Alt.=147.474731m. Speed=0.000000m/h.</desc>
<speed>0.000000</speed>
</trkpt>
<trkpt lat="55.660915" lon="26.571972">
<ele>147.470825</ele>
<time>2010-07-18T11:10:10Z</time>
<desc>lat.=55.660915, lon.=26.571972, Alt.=147.470825m. Speed=0.036000m/h.</desc>
<speed>0.010000</speed>
</trkpt>
<trkpt lat="55.660915" lon="26.571972">
<ele>147.470825</ele>
<time>2010-07-18T11:10:11Z</time>
<desc>lat.=55.660915, lon.=26.571972, Alt.=147.470825m. Speed=0.000000m/h.</desc>
<speed>0.000000</speed>
</trkpt>
<trkpt lat="55.660915" lon="26.571972">
<ele>147.466919</ele>
<time>2010-07-18T11:10:12Z</time>
<desc>lat.=55.660915, lon.=26.571972, Alt.=147.466919m. Speed=0.000000m/h.</desc>
<speed>0.000000</speed>
</trkpt>
<trkpt lat="55.660915" lon="26.571972">
<ele>147.463013</ele>
<time>2010-07-18T11:10:13Z</time>
<desc>lat.=55.660915, lon.=26.571972, Alt.=147.463013m. Speed=0.000000m/h.</desc>
<speed>0.000000</speed>
</trkpt>
<trkpt lat="55.660915" lon="26.571972">
<ele>147.463013</ele>
<time>2010-07-18T11:10:14Z</time>
<desc>lat.=55.660915, lon.=26.571972, Alt.=147.463013m. Speed=0.000000m/h.</desc>
<speed>0.000000</speed>
</trkpt>
<trkpt lat="55.660915" lon="26.571972">
<ele>147.459106</ele>
<time>2010-07-18T11:10:15Z</time>
<desc>lat.=55.660915, lon.=26.571972, Alt.=147.459106m. Speed=0.000000m/h.</desc>
<speed>0.000000</speed>
</trkpt>
<trkpt lat="55.660915" lon="26.571972">
<ele>147.459106</ele>
<time>2010-07-18T11:10:16Z</time>
<desc>lat.=55.660915, lon.=26.571972, Alt.=147.459106m. Speed=0.000000m/h.</desc>
<speed>0.000000</speed>
</trkpt>
<trkpt lat="55.660915" lon="26.571972">
<ele>147.455200</ele>
<time>2010-07-18T11:10:17Z</time>
<desc>lat.=55.660915, lon.=26.571972, Alt.=147.455200m. Speed=0.000000m/h.</desc>
<speed>0.000000</speed>
</trkpt>
<trkpt lat="55.660915" lon="26.571972">
<ele>147.455200</ele>
<time>2010-07-18T11:10:18Z</time>
<desc>lat.=55.660915, lon.=26.571972, Alt.=147.455200m. Speed=0.000000m/h.</desc>
<speed>0.000000</speed>
</trkpt>
<trkpt lat="55.660915" lon="26.571972">
<ele>147.451294</ele>
<time>2010-07-18T11:10:19Z</time>
<desc>lat.=55.660915, lon.=26.571972, Alt.=147.451294m. Speed=0.000000m/h.</desc>
<speed>0.000000</speed>
</trkpt>
<trkpt lat="55.660915" lon="26.571972">
<ele>147.447388</ele>
<time>2010-07-18T11:10:20Z</time>
<desc>lat.=55.660915, lon.=26.571972, Alt.=147.447388m. Speed=0.000000m/h.</desc>
<speed>0.000000</speed>
</trkpt>
<trkpt lat="55.660915" lon="26.571972">
<ele>147.447388</ele>
<time>2010-07-18T11:10:21Z</time>
<desc>lat.=55.660915, lon.=26.571972, Alt.=147.447388m. Speed=0.000000m/h.</desc>
<speed>0.000000</speed>
</trkpt>
<trkpt lat="55.660915" lon="26.571972">
<ele>147.443481</ele>
<time>2010-07-18T11:10:22Z</time>
<desc>lat.=55.660915, lon.=26.571972, Alt.=147.443481m. Speed=0.000000m/h.</desc>
<speed>0.000000</speed>
</trkpt>
<trkpt lat="55.660915" lon="26.571972">
<ele>147.439575</ele>
<time>2010-07-18T11:10:23Z</time>
<desc>lat.=55.660915, lon.=26.571972, Alt.=147.439575m. Speed=0.000000m/h.</desc>
<speed>0.000000</speed>
</trkpt>
<trkpt lat="55.660915" lon="26.571972">
<ele>147.435669</ele>
<time>2010-07-18T11:10:24Z</time>
<desc>lat.=55.660915, lon.=26.571972, Alt.=147.435669m. Speed=0.000000m/h.</desc>
<speed>0.000000</speed>
</trkpt>
<trkpt lat="55.660915" lon="26.571972">
<ele>147.431763</ele>
<time>2010-07-18T11:10:25Z</time>
<desc>lat.=55.660915, lon.=26.571972, Alt.=147.431763m. Speed=0.000000m/h.</desc>
<speed>0.000000</speed>
</trkpt>
<trkpt lat="55.660915" lon="26.571972">
<ele>147.427856</ele>
<time>2010-07-18T11:10:26Z</time>
<desc>lat.=55.660915, lon.=26.571972, Alt.=147.427856m. Speed=0.000000m/h.</desc>
<speed>0.000000</speed>
</trkpt>
<trkpt lat="55.660915" lon="26.571972">
<ele>147.427856</ele>
<time>2010-07-18T11:10:27Z</time>
<desc>lat.=55.660915, lon.=26.571972, Alt.=147.427856m. Speed=0.000000m/h.</desc>
<speed>0.000000</speed>
</trkpt>
<trkpt lat="55.660915" lon="26.571972">
<ele>147.423950</ele>
<time>2010-07-18T11:10:28Z</time>
<desc>lat.=55.660915, lon.=26.571972, Alt.=147.423950m. Speed=0.000000m/h.</desc>
<speed>0.000000</speed>
</trkpt>
<trkpt lat="55.660915" lon="26.571972">
<ele>147.420044</ele>
<time>2010-07-18T11:10:29Z</time>
<desc>lat.=55.660915, lon.=26.571972, Alt.=147.420044m. Speed=0.000000m/h.</desc>
<speed>0.000000</speed>
</trkpt>
<trkpt lat="55.660915" lon="26.571972">
<ele>147.416138</ele>
<time>2010-07-18T11:10:30Z</time>
<desc>lat.=55.660915, lon.=26.571972, Alt.=147.416138m. Speed=0.000000m/h.</desc>
<speed>0.000000</speed>
</trkpt>
<trkpt lat="55.660915" lon="26.571972">
<ele>147.412231</ele>
<time>2010-07-18T11:10:31Z</time>
<desc>lat.=55.660915, lon.=26.571972, Alt.=147.412231m. Speed=0.000000m/h.</desc>
<speed>0.000000</speed>
</trkpt>
<trkpt lat="55.660915" lon="26.571972">
<ele>147.408325</ele>
<time>2010-07-18T11:10:32Z</time>
<desc>lat.=55.660915, lon.=26.571972, Alt.=147.408325m. Speed=0.000000m/h.</desc>
<speed>0.000000</speed>
</trkpt>
<trkpt lat="55.660915" lon="26.571972">
<ele>147.408325</ele>
<time>2010-07-18T11:10:33Z</time>
<desc>lat.=55.660915, lon.=26.571972, Alt.=147.408325m. Speed=0.000000m/h.</desc>
<speed>0.000000</speed>
</trkpt>
<trkpt lat="55.660915" lon="26.571972">
<ele>147.408325</ele>
<time>2010-07-18T11:10:34Z</time>
<desc>lat.=55.660915, lon.=26.571972, Alt.=147.408325m. Speed=0.000000m/h.</desc>
<speed>0.000000</speed>
</trkpt>
<trkpt lat="55.660915" lon="26.571972">
<ele>147.408325</ele>
<time>2010-07-18T11:10:35Z</time>
<desc>lat.=55.660915, lon.=26.571972, Alt.=147.408325m. Speed=0.000000m/h.</desc>
<speed>0.000000</speed>
</trkpt>
<trkpt lat="55.660915" lon="26.571972">
<ele>147.404419</ele>
<time>2010-07-18T11:10:36Z</time>
<desc>lat.=55.660915, lon.=26.571972, Alt.=147.404419m. Speed=0.000000m/h.</desc>
<speed>0.000000</speed>
</trkpt>
<trkpt lat="55.660915" lon="26.571972">
<ele>147.404419</ele>
<time>2010-07-18T11:10:37Z</time>
<desc>lat.=55.660915, lon.=26.571972, Alt.=147.404419m. Speed=0.000000m/h.</desc>
<speed>0.000000</speed>
</trkpt>
<trkpt lat="55.660915" lon="26.571972">
<ele>147.400513</ele>
<time>2010-07-18T11:10:38Z</time>
<desc>lat.=55.660915, lon.=26.571972, Alt.=147.400513m. Speed=0.000000m/h.</desc>
<speed>0.000000</speed>
</trkpt>
<trkpt lat="55.660915" lon="26.571972">
<ele>147.396606</ele>
<time>2010-07-18T11:10:39Z</time>
<desc>lat.=55.660915, lon.=26.571972, Alt.=147.396606m. Speed=0.000000m/h.</desc>
<speed>0.000000</speed>
</trkpt>
<trkpt lat="55.660915" lon="26.571972">
<ele>147.392700</ele>
<time>2010-07-18T11:10:40Z</time>
<desc>lat.=55.660915, lon.=26.571972, Alt.=147.392700m. Speed=0.000000m/h.</desc>
<speed>0.000000</speed>
</trkpt>
<trkpt lat="55.660915" lon="26.571972">
<ele>147.392700</ele>
<time>2010-07-18T11:10:41Z</time>
<desc>lat.=55.660915, lon.=26.571972, Alt.=147.392700m. Speed=0.000000m/h.</desc>
<speed>0.000000</speed>
</trkpt>
<trkpt lat="55.660915" lon="26.571972">
<ele>147.388794</ele>
<time>2010-07-18T11:10:42Z</time>
<desc>lat.=55.660915, lon.=26.571972, Alt.=147.388794m. Speed=0.000000m/h.</desc>
<speed>0.000000</speed>
</trkpt>
<trkpt lat="55.660915" lon="26.571972">
<ele>147.388794</ele>
<time>2010-07-18T11:10:43Z</time>
<desc>lat.=55.660915, lon.=26.571972, Alt.=147.388794m. Speed=0.000000m/h.</desc>
<speed>0.000000</speed>
</trkpt>
<trkpt lat="55.660915" lon="26.571972">
<ele>147.388794</ele>
<time>2010-07-18T11:10:44Z</time>
<desc>lat.=55.660915, lon.=26.571972, Alt.=147.388794m. Speed=0.000000m/h.</desc>
<speed>0.000000</speed>
</trkpt>
<trkpt lat="55.660915" lon="26.571972">
<ele>147.388794</ele>
<time>2010-07-18T11:10:45Z</time>
<desc>lat.=55.660915, lon.=26.571972, Alt.=147.388794m. Speed=0.000000m/h.</desc>
<speed>0.000000</speed>
</trkpt>
<trkpt lat="55.660915" lon="26.571972">
<ele>147.384888</ele>
<time>2010-07-18T11:10:46Z</time>
<desc>lat.=55.660915, lon.=26.571972, Alt.=147.384888m. Speed=0.000000m/h.</desc>
<speed>0.000000</speed>
</trkpt>
<trkpt lat="55.660915" lon="26.571972">
<ele>147.380981</ele>
<time>2010-07-18T11:10:47Z</time>
<desc>lat.=55.660915, lon.=26.571972, Alt.=147.380981m. Speed=0.000000m/h.</desc>
<speed>0.000000</speed>
</trkpt>
<trkpt lat="55.660915" lon="26.571972">
<ele>147.380981</ele>
<time>2010-07-18T11:10:48Z</time>
<desc>lat.=55.660915, lon.=26.571972, Alt.=147.380981m. Speed=0.000000m/h.</desc>
<speed>0.000000</speed>
</trkpt>
<trkpt lat="55.660915" lon="26.571972">
<ele>147.373169</ele>
<time>2010-07-18T11:10:49Z</time>
<desc>lat.=55.660915, lon.=26.571972, Alt.=147.373169m. Speed=0.000000m/h.</desc>
<speed>0.000000</speed>
</trkpt>
<trkpt lat="55.660915" lon="26.571972">
<ele>147.373169</ele>
<time>2010-07-18T11:10:50Z</time>
<desc>lat.=55.660915, lon.=26.571972, Alt.=147.373169m. Speed=0.000000m/h.</desc>
<speed>0.000000</speed>
</trkpt>
<trkpt lat="55.660915" lon="26.571972">
<ele>147.369263</ele>
<time>2010-07-18T11:10:51Z</time>
<desc>lat.=55.660915, lon.=26.571972, Alt.=147.369263m. Speed=0.000000m/h.</desc>
<speed>0.000000</speed>
</trkpt>
<trkpt lat="55.660915" lon="26.571972">
<ele>147.365356</ele>
<time>2010-07-18T11:10:52Z</time>
<desc>lat.=55.660915, lon.=26.571972, Alt.=147.365356m. Speed=0.000000m/h.</desc>
<speed>0.000000</speed>
</trkpt>
<trkpt lat="55.660915" lon="26.571972">
<ele>147.361450</ele>
<time>2010-07-18T11:10:53Z</time>
<desc>lat.=55.660915, lon.=26.571972, Alt.=147.361450m. Speed=0.000000m/h.</desc>
<speed>0.000000</speed>
</trkpt>
<trkpt lat="55.660915" lon="26.571972">
<ele>147.361450</ele>
<time>2010-07-18T11:10:54Z</time>
<desc>lat.=55.660915, lon.=26.571972, Alt.=147.361450m. Speed=0.000000m/h.</desc>
<speed>0.000000</speed>
</trkpt>
<trkpt lat="55.660915" lon="26.571972">
<ele>147.357544</ele>
<time>2010-07-18T11:10:55Z</time>
<desc>lat.=55.660915, lon.=26.571972, Alt.=147.357544m. Speed=0.000000m/h.</desc>
<speed>0.000000</speed>
</trkpt>
<trkpt lat="55.660915" lon="26.571972">
<ele>147.361450</ele>
<time>2010-07-18T11:10:56Z</time>
<desc>lat.=55.660915, lon.=26.571972, Alt.=147.361450m. Speed=0.000000m/h.</desc>
<speed>0.000000</speed>
</trkpt>
<trkpt lat="55.660915" lon="26.571972">
<ele>147.361450</ele>
<time>2010-07-18T11:10:57Z</time>
<desc>lat.=55.660915, lon.=26.571972, Alt.=147.361450m. Speed=0.000000m/h.</desc>
<speed>0.000000</speed>
</trkpt>
<trkpt lat="55.660915" lon="26.571972">
<ele>147.361450</ele>
<time>2010-07-18T11:10:58Z</time>
<desc>lat.=55.660915, lon.=26.571972, Alt.=147.361450m. Speed=0.000000m/h.</desc>
<speed>0.000000</speed>
</trkpt>
<trkpt lat="55.660915" lon="26.571972">
<ele>147.361450</ele>
<time>2010-07-18T11:10:59Z</time>
<desc>lat.=55.660915, lon.=26.571972, Alt.=147.361450m. Speed=0.000000m/h.</desc>
<speed>0.000000</speed>
</trkpt>
<trkpt lat="55.660915" lon="26.571972">
<ele>147.361450</ele>
<time>2010-07-18T11:11:00Z</time>
<desc>lat.=55.660915, lon.=26.571972, Alt.=147.361450m. Speed=0.000000m/h.</desc>
<speed>0.000000</speed>
</trkpt>
<trkpt lat="55.660915" lon="26.571972">
<ele>147.365356</ele>
<time>2010-07-18T11:11:01Z</time>
<desc>lat.=55.660915, lon.=26.571972, Alt.=147.365356m. Speed=0.000000m/h.</desc>
<speed>0.000000</speed>
</trkpt>
<trkpt lat="55.660915" lon="26.571972">
<ele>147.369263</ele>
<time>2010-07-18T11:11:02Z</time>
<desc>lat.=55.660915, lon.=26.571972, Alt.=147.369263m. Speed=0.000000m/h.</desc>
<speed>0.000000</speed>
</trkpt>
<trkpt lat="55.660915" lon="26.571972">
<ele>147.369263</ele>
<time>2010-07-18T11:11:03Z</time>
<desc>lat.=55.660915, lon.=26.571972, Alt.=147.369263m. Speed=0.000000m/h.</desc>
<speed>0.000000</speed>
</trkpt>
<trkpt lat="55.660915" lon="26.571972">
<ele>147.369263</ele>
<time>2010-07-18T11:11:04Z</time>
<desc>lat.=55.660915, lon.=26.571972, Alt.=147.369263m. Speed=0.000000m/h.</desc>
<speed>0.000000</speed>
</trkpt>
<trkpt lat="55.660915" lon="26.571972">
<ele>147.369263</ele>
<time>2010-07-18T11:11:05Z</time>
<desc>lat.=55.660915, lon.=26.571972, Alt.=147.369263m. Speed=0.000000m/h.</desc>
<speed>0.000000</speed>
</trkpt>
<trkpt lat="55.660915" lon="26.571972">
<ele>147.369263</ele>
<time>2010-07-18T11:11:06Z</time>
<desc>lat.=55.660915, lon.=26.571972, Alt.=147.369263m. Speed=0.000000m/h.</desc>
<speed>0.000000</speed>
</trkpt>
<trkpt lat="55.660915" lon="26.571972">
<ele>147.365356</ele>
<time>2010-07-18T11:11:07Z</time>
<desc>lat.=55.660915, lon.=26.571972, Alt.=147.365356m. Speed=0.000000m/h.</desc>
<speed>0.000000</speed>
</trkpt>
<trkpt lat="55.660915" lon="26.571972">
<ele>147.365356</ele>
<time>2010-07-18T11:11:08Z</time>
<desc>lat.=55.660915, lon.=26.571972, Alt.=147.365356m. Speed=0.000000m/h.</desc>
<speed>0.000000</speed>
</trkpt>
<trkpt lat="55.660915" lon="26.571972">
<ele>147.365356</ele>
<time>2010-07-18T11:11:09Z</time>
<desc>lat.=55.660915, lon.=26.571972, Alt.=147.365356m. Speed=0.000000m/h.</desc>
<speed>0.000000</speed>
</trkpt>
<trkpt lat="55.660915" lon="26.571972">
<ele>147.365356</ele>
<time>2010-07-18T11:11:10Z</time>
<desc>lat.=55.660915, lon.=26.571972, Alt.=147.365356m. Speed=0.000000m/h.</desc>
<speed>0.000000</speed>
</trkpt>
<trkpt lat="55.660915" lon="26.571972">
<ele>147.365356</ele>
<time>2010-07-18T11:11:11Z</time>
<desc>lat.=55.660915, lon.=26.571972, Alt.=147.365356m. Speed=0.000000m/h.</desc>
<speed>0.000000</speed>
</trkpt>
<trkpt lat="55.660915" lon="26.571972">
<ele>147.365356</ele>
<time>2010-07-18T11:11:12Z</time>
<desc>lat.=55.660915, lon.=26.571972, Alt.=147.365356m. Speed=0.000000m/h.</desc>
<speed>0.000000</speed>
</trkpt>
<trkpt lat="55.660915" lon="26.571972">
<ele>147.365356</ele>
<time>2010-07-18T11:11:13Z</time>
<desc>lat.=55.660915, lon.=26.571972, Alt.=147.365356m. Speed=0.000000m/h.</desc>
<speed>0.000000</speed>
</trkpt>
<trkpt lat="55.660915" lon="26.571972">
<ele>147.365356</ele>
<time>2010-07-18T11:11:14Z</time>
<desc>lat.=55.660915, lon.=26.571972, Alt.=147.365356m. Speed=0.000000m/h.</desc>
<speed>0.000000</speed>
</trkpt>
<trkpt lat="55.660915" lon="26.571970">
<ele>147.365356</ele>
<time>2010-07-18T11:11:15Z</time>
<desc>lat.=55.660915, lon.=26.571970, Alt.=147.365356m. Speed=0.000000m/h.</desc>
<speed>0.000000</speed>
</trkpt>
<trkpt lat="55.660915" lon="26.571970">
<ele>147.365356</ele>
<time>2010-07-18T11:11:16Z</time>
<desc>lat.=55.660915, lon.=26.571970, Alt.=147.365356m. Speed=0.000000m/h.</desc>
<speed>0.000000</speed>
</trkpt>
<trkpt lat="55.660915" lon="26.571970">
<ele>147.361450</ele>
<time>2010-07-18T11:11:17Z</time>
<desc>lat.=55.660915, lon.=26.571970, Alt.=147.361450m. Speed=0.000000m/h.</desc>
<speed>0.000000</speed>
</trkpt>
<trkpt lat="55.660915" lon="26.571970">
<ele>147.361450</ele>
<time>2010-07-18T11:11:18Z</time>
<desc>lat.=55.660915, lon.=26.571970, Alt.=147.361450m. Speed=0.000000m/h.</desc>
<speed>0.000000</speed>
</trkpt>
<trkpt lat="55.660915" lon="26.571970">
<ele>147.361450</ele>
<time>2010-07-18T11:11:19Z</time>
<desc>lat.=55.660915, lon.=26.571970, Alt.=147.361450m. Speed=0.000000m/h.</desc>
<speed>0.000000</speed>
</trkpt>
<trkpt lat="55.660915" lon="26.571970">
<ele>147.357544</ele>
<time>2010-07-18T11:11:20Z</time>
<desc>lat.=55.660915, lon.=26.571970, Alt.=147.357544m. Speed=0.000000m/h.</desc>
<speed>0.000000</speed>
</trkpt>
<trkpt lat="55.660915" lon="26.571970">
<ele>147.357544</ele>
<time>2010-07-18T11:11:21Z</time>
<desc>lat.=55.660915, lon.=26.571970, Alt.=147.357544m. Speed=0.000000m/h.</desc>
<speed>0.000000</speed>
</trkpt>
<trkpt lat="55.660915" lon="26.571970">
<ele>147.353638</ele>
<time>2010-07-18T11:11:22Z</time>
<desc>lat.=55.660915, lon.=26.571970, Alt.=147.353638m. Speed=0.000000m/h.</desc>
<speed>0.000000</speed>
</trkpt>
<trkpt lat="55.660915" lon="26.571970">
<ele>147.353638</ele>
<time>2010-07-18T11:11:23Z</time>
<desc>lat.=55.660915, lon.=26.571970, Alt.=147.353638m. Speed=0.000000m/h.</desc>
<speed>0.000000</speed>
</trkpt>
<trkpt lat="55.660915" lon="26.571970">
<ele>147.349731</ele>
<time>2010-07-18T11:11:24Z</time>
<desc>lat.=55.660915, lon.=26.571970, Alt.=147.349731m. Speed=0.000000m/h.</desc>
<speed>0.000000</speed>
</trkpt>
<trkpt lat="55.660915" lon="26.571970">
<ele>147.349731</ele>
<time>2010-07-18T11:11:25Z</time>
<desc>lat.=55.660915, lon.=26.571970, Alt.=147.349731m. Speed=0.000000m/h.</desc>
<speed>0.000000</speed>
</trkpt>
<trkpt lat="55.660915" lon="26.571970">
<ele>147.345825</ele>
<time>2010-07-18T11:11:26Z</time>
<desc>lat.=55.660915, lon.=26.571970, Alt.=147.345825m. Speed=0.000000m/h.</desc>
<speed>0.000000</speed>
</trkpt>
<trkpt lat="55.660915" lon="26.571970">
<ele>147.341919</ele>
<time>2010-07-18T11:11:27Z</time>
<desc>lat.=55.660915, lon.=26.571970, Alt.=147.341919m. Speed=0.000000m/h.</desc>
<speed>0.000000</speed>
</trkpt>
<trkpt lat="55.660915" lon="26.571970">
<ele>147.341919</ele>
<time>2010-07-18T11:11:28Z</time>
<desc>lat.=55.660915, lon.=26.571970, Alt.=147.341919m. Speed=0.000000m/h.</desc>
<speed>0.000000</speed>
</trkpt>
<trkpt lat="55.660915" lon="26.571970">
<ele>147.338013</ele>
<time>2010-07-18T11:11:29Z</time>
<desc>lat.=55.660915, lon.=26.571970, Alt.=147.338013m. Speed=0.000000m/h.</desc>
<speed>0.000000</speed>
</trkpt>
<trkpt lat="55.660915" lon="26.571970">
<ele>147.338013</ele>
<time>2010-07-18T11:11:30Z</time>
<desc>lat.=55.660915, lon.=26.571970, Alt.=147.338013m. Speed=0.000000m/h.</desc>
<speed>0.000000</speed>
</trkpt>
<trkpt lat="55.660915" lon="26.571970">
<ele>147.334106</ele>
<time>2010-07-18T11:11:31Z</time>
<desc>lat.=55.660915, lon.=26.571970, Alt.=147.334106m. Speed=0.000000m/h.</desc>
<speed>0.000000</speed>
</trkpt>
<trkpt lat="55.660915" lon="26.571970">
<ele>147.334106</ele>
<time>2010-07-18T11:11:32Z</time>
<desc>lat.=55.660915, lon.=26.571970, Alt.=147.334106m. Speed=0.000000m/h.</desc>
<speed>0.000000</speed>
</trkpt>
<trkpt lat="55.660915" lon="26.571970">
<ele>147.330200</ele>
<time>2010-07-18T11:11:33Z</time>
<desc>lat.=55.660915, lon.=26.571970, Alt.=147.330200m. Speed=0.000000m/h.</desc>
<speed>0.000000</speed>
</trkpt>
<trkpt lat="55.660915" lon="26.571970">
<ele>147.326294</ele>
<time>2010-07-18T11:11:34Z</time>
<desc>lat.=55.660915, lon.=26.571970, Alt.=147.326294m. Speed=0.000000m/h.</desc>
<speed>0.000000</speed>
</trkpt>
<trkpt lat="55.660915" lon="26.571970">
<ele>147.326294</ele>
<time>2010-07-18T11:11:35Z</time>
<desc>lat.=55.660915, lon.=26.571970, Alt.=147.326294m. Speed=0.000000m/h.</desc>
<speed>0.000000</speed>
</trkpt>
<trkpt lat="55.660915" lon="26.571970">
<ele>147.322388</ele>
<time>2010-07-18T11:11:36Z</time>
<desc>lat.=55.660915, lon.=26.571970, Alt.=147.322388m. Speed=0.000000m/h.</desc>
<speed>0.000000</speed>
</trkpt>
<trkpt lat="55.660915" lon="26.571970">
<ele>147.318481</ele>
<time>2010-07-18T11:11:37Z</time>
<desc>lat.=55.660915, lon.=26.571970, Alt.=147.318481m. Speed=0.000000m/h.</desc>
<speed>0.000000</speed>
</trkpt>
<trkpt lat="55.660915" lon="26.571970">
<ele>147.318481</ele>
<time>2010-07-18T11:11:38Z</time>
<desc>lat.=55.660915, lon.=26.571970, Alt.=147.318481m. Speed=0.000000m/h.</desc>
<speed>0.000000</speed>
</trkpt>
<trkpt lat="55.660915" lon="26.571970">
<ele>147.314575</ele>
<time>2010-07-18T11:11:39Z</time>
<desc>lat.=55.660915, lon.=26.571970, Alt.=147.314575m. Speed=0.000000m/h.</desc>
<speed>0.000000</speed>
</trkpt>
<trkpt lat="55.660915" lon="26.571970">
<ele>147.310669</ele>
<time>2010-07-18T11:11:40Z</time>
<desc>lat.=55.660915, lon.=26.571970, Alt.=147.310669m. Speed=0.000000m/h.</desc>
<speed>0.000000</speed>
</trkpt>
<trkpt lat="55.660915" lon="26.571970">
<ele>147.310669</ele>
<time>2010-07-18T11:11:41Z</time>
<desc>lat.=55.660915, lon.=26.571970, Alt.=147.310669m. Speed=0.000000m/h.</desc>
<speed>0.000000</speed>
</trkpt>
<trkpt lat="55.660915" lon="26.571970">
<ele>147.310669</ele>
<time>2010-07-18T11:11:42Z</time>
<desc>lat.=55.660915, lon.=26.571970, Alt.=147.310669m. Speed=0.000000m/h.</desc>
<speed>0.000000</speed>
</trkpt>
<trkpt lat="55.660915" lon="26.571970">
<ele>147.306763</ele>
<time>2010-07-18T11:11:43Z</time>
<desc>lat.=55.660915, lon.=26.571970, Alt.=147.306763m. Speed=0.000000m/h.</desc>
<speed>0.000000</speed>
</trkpt>
<trkpt lat="55.660915" lon="26.571970">
<ele>147.302856</ele>
<time>2010-07-18T11:11:44Z</time>
<desc>lat.=55.660915, lon.=26.571970, Alt.=147.302856m. Speed=0.000000m/h.</desc>
<speed>0.000000</speed>
</trkpt>
<trkpt lat="55.660915" lon="26.571970">
<ele>147.298950</ele>
<time>2010-07-18T11:11:45Z</time>
<desc>lat.=55.660915, lon.=26.571970, Alt.=147.298950m. Speed=0.000000m/h.</desc>
<speed>0.000000</speed>
</trkpt>
<trkpt lat="55.660915" lon="26.571970">
<ele>147.295044</ele>
<time>2010-07-18T11:11:46Z</time>
<desc>lat.=55.660915, lon.=26.571970, Alt.=147.295044m. Speed=0.000000m/h.</desc>
<speed>0.000000</speed>
</trkpt>
<trkpt lat="55.660915" lon="26.571970">
<ele>147.295044</ele>
<time>2010-07-18T11:11:47Z</time>
<desc>lat.=55.660915, lon.=26.571970, Alt.=147.295044m. Speed=0.000000m/h.</desc>
<speed>0.000000</speed>
</trkpt>
<trkpt lat="55.660915" lon="26.571970">
<ele>147.291138</ele>
<time>2010-07-18T11:11:48Z</time>
<desc>lat.=55.660915, lon.=26.571970, Alt.=147.291138m. Speed=0.000000m/h.</desc>
<speed>0.000000</speed>
</trkpt>
<trkpt lat="55.660915" lon="26.571970">
<ele>147.287231</ele>
<time>2010-07-18T11:11:49Z</time>
<desc>lat.=55.660915, lon.=26.571970, Alt.=147.287231m. Speed=0.000000m/h.</desc>
<speed>0.000000</speed>
</trkpt>
<trkpt lat="55.660915" lon="26.571970">
<ele>147.287231</ele>
<time>2010-07-18T11:11:50Z</time>
<desc>lat.=55.660915, lon.=26.571970, Alt.=147.287231m. Speed=0.000000m/h.</desc>
<speed>0.000000</speed>
</trkpt>
<trkpt lat="55.660915" lon="26.571970">
<ele>147.283325</ele>
<time>2010-07-18T11:11:51Z</time>
<desc>lat.=55.660915, lon.=26.571970, Alt.=147.283325m. Speed=0.000000m/h.</desc>
<speed>0.000000</speed>
</trkpt>
<trkpt lat="55.660915" lon="26.571970">
<ele>147.283325</ele>
<time>2010-07-18T11:11:52Z</time>
<desc>lat.=55.660915, lon.=26.571970, Alt.=147.283325m. Speed=0.000000m/h.</desc>
<speed>0.000000</speed>
</trkpt>
<trkpt lat="55.660915" lon="26.571970">
<ele>147.283325</ele>
<time>2010-07-18T11:11:53Z</time>
<desc>lat.=55.660915, lon.=26.571970, Alt.=147.283325m. Speed=0.000000m/h.</desc>
<speed>0.000000</speed>
</trkpt>
<trkpt lat="55.660915" lon="26.571970">
<ele>147.283325</ele>
<time>2010-07-18T11:11:54Z</time>
<desc>lat.=55.660915, lon.=26.571970, Alt.=147.283325m. Speed=0.000000m/h.</desc>
<speed>0.000000</speed>
</trkpt>
<trkpt lat="55.660915" lon="26.571970">
<ele>147.283325</ele>
<time>2010-07-18T11:11:55Z</time>
<desc>lat.=55.660915, lon.=26.571970, Alt.=147.283325m. Speed=0.000000m/h.</desc>
<speed>0.000000</speed>
</trkpt>
<trkpt lat="55.660915" lon="26.571970">
<ele>147.283325</ele>
<time>2010-07-18T11:11:56Z</time>
<desc>lat.=55.660915, lon.=26.571970, Alt.=147.283325m. Speed=0.000000m/h.</desc>
<speed>0.000000</speed>
</trkpt>
<trkpt lat="55.660915" lon="26.571970">
<ele>147.287231</ele>
<time>2010-07-18T11:11:57Z</time>
<desc>lat.=55.660915, lon.=26.571970, Alt.=147.287231m. Speed=0.000000m/h.</desc>
<speed>0.000000</speed>
</trkpt>
<trkpt lat="55.660915" lon="26.571970">
<ele>147.287231</ele>
<time>2010-07-18T11:11:58Z</time>
<desc>lat.=55.660915, lon.=26.571970, Alt.=147.287231m. Speed=0.000000m/h.</desc>
<speed>0.000000</speed>
</trkpt>
<trkpt lat="55.660915" lon="26.571970">
<ele>147.287231</ele>
<time>2010-07-18T11:11:59Z</time>
<desc>lat.=55.660915, lon.=26.571970, Alt.=147.287231m. Speed=0.000000m/h.</desc>
<speed>0.000000</speed>
</trkpt>
<trkpt lat="55.660915" lon="26.571970">
<ele>147.287231</ele>
<time>2010-07-18T11:12:00Z</time>
<desc>lat.=55.660915, lon.=26.571970, Alt.=147.287231m. Speed=0.000000m/h.</desc>
<speed>0.000000</speed>
</trkpt>
<trkpt lat="55.660915" lon="26.571970">
<ele>147.287231</ele>
<time>2010-07-18T11:12:01Z</time>
<desc>lat.=55.660915, lon.=26.571970, Alt.=147.287231m. Speed=0.000000m/h.</desc>
<speed>0.000000</speed>
</trkpt>
<trkpt lat="55.660915" lon="26.571970">
<ele>147.291138</ele>
<time>2010-07-18T11:12:02Z</time>
<desc>lat.=55.660915, lon.=26.571970, Alt.=147.291138m. Speed=0.000000m/h.</desc>
<speed>0.000000</speed>
</trkpt>
<trkpt lat="55.660915" lon="26.571970">
<ele>147.291138</ele>
<time>2010-07-18T11:12:03Z</time>
<desc>lat.=55.660915, lon.=26.571970, Alt.=147.291138m. Speed=0.036000m/h.</desc>
<speed>0.010000</speed>
</trkpt>
<trkpt lat="55.660915" lon="26.571970">
<ele>147.291138</ele>
<time>2010-07-18T11:12:04Z</time>
<desc>lat.=55.660915, lon.=26.571970, Alt.=147.291138m. Speed=0.000000m/h.</desc>
<speed>0.000000</speed>
</trkpt>
<trkpt lat="55.660915" lon="26.571970">
<ele>147.295044</ele>
<time>2010-07-18T11:12:05Z</time>
<desc>lat.=55.660915, lon.=26.571970, Alt.=147.295044m. Speed=0.000000m/h.</desc>
<speed>0.000000</speed>
</trkpt>
<trkpt lat="55.660915" lon="26.571970">
<ele>147.298950</ele>
<time>2010-07-18T11:12:06Z</time>
<desc>lat.=55.660915, lon.=26.571970, Alt.=147.298950m. Speed=0.000000m/h.</desc>
<speed>0.000000</speed>
</trkpt>
<trkpt lat="55.660915" lon="26.571970">
<ele>147.298950</ele>
<time>2010-07-18T11:12:07Z</time>
<desc>lat.=55.660915, lon.=26.571970, Alt.=147.298950m. Speed=0.000000m/h.</desc>
<speed>0.000000</speed>
</trkpt>
<trkpt lat="55.660919" lon="26.571970">
<ele>147.298950</ele>
<time>2010-07-18T11:12:08Z</time>
<desc>lat.=55.660919, lon.=26.571970, Alt.=147.298950m. Speed=0.000000m/h.</desc>
<speed>0.000000</speed>
</trkpt>
<trkpt lat="55.660919" lon="26.571970">
<ele>147.298950</ele>
<time>2010-07-18T11:12:09Z</time>
<desc>lat.=55.660919, lon.=26.571970, Alt.=147.298950m. Speed=0.000000m/h.</desc>
<speed>0.000000</speed>
</trkpt>
<trkpt lat="55.660919" lon="26.571970">
<ele>147.298950</ele>
<time>2010-07-18T11:12:10Z</time>
<desc>lat.=55.660919, lon.=26.571970, Alt.=147.298950m. Speed=0.000000m/h.</desc>
<speed>0.000000</speed>
</trkpt>
<trkpt lat="55.660919" lon="26.571970">
<ele>147.298950</ele>
<time>2010-07-18T11:12:11Z</time>
<desc>lat.=55.660919, lon.=26.571970, Alt.=147.298950m. Speed=0.000000m/h.</desc>
<speed>0.000000</speed>
</trkpt>
<trkpt lat="55.660919" lon="26.571970">
<ele>147.298950</ele>
<time>2010-07-18T11:12:12Z</time>
<desc>lat.=55.660919, lon.=26.571970, Alt.=147.298950m. Speed=0.000000m/h.</desc>
<speed>0.000000</speed>
</trkpt>
<trkpt lat="55.660919" lon="26.571970">
<ele>147.298950</ele>
<time>2010-07-18T11:12:13Z</time>
<desc>lat.=55.660919, lon.=26.571970, Alt.=147.298950m. Speed=0.036000m/h.</desc>
<speed>0.010000</speed>
</trkpt>
<trkpt lat="55.660919" lon="26.571970">
<ele>147.298950</ele>
<time>2010-07-18T11:12:14Z</time>
<desc>lat.=55.660919, lon.=26.571970, Alt.=147.298950m. Speed=0.000000m/h.</desc>
<speed>0.000000</speed>
</trkpt>
<trkpt lat="55.660919" lon="26.571970">
<ele>147.302856</ele>
<time>2010-07-18T11:12:15Z</time>
<desc>lat.=55.660919, lon.=26.571970, Alt.=147.302856m. Speed=0.036000m/h.</desc>
<speed>0.010000</speed>
</trkpt>
<trkpt lat="55.660919" lon="26.571970">
<ele>147.302856</ele>
<time>2010-07-18T11:12:16Z</time>
<desc>lat.=55.660919, lon.=26.571970, Alt.=147.302856m. Speed=0.000000m/h.</desc>
<speed>0.000000</speed>
</trkpt>
<trkpt lat="55.660919" lon="26.571970">
<ele>147.302856</ele>
<time>2010-07-18T11:12:17Z</time>
<desc>lat.=55.660919, lon.=26.571970, Alt.=147.302856m. Speed=0.000000m/h.</desc>
<speed>0.000000</speed>
</trkpt>
<trkpt lat="55.660919" lon="26.571970">
<ele>147.302856</ele>
<time>2010-07-18T11:12:18Z</time>
<desc>lat.=55.660919, lon.=26.571970, Alt.=147.302856m. Speed=0.000000m/h.</desc>
<speed>0.000000</speed>
</trkpt>
<trkpt lat="55.660919" lon="26.571970">
<ele>147.302856</ele>
<time>2010-07-18T11:12:19Z</time>
<desc>lat.=55.660919, lon.=26.571970, Alt.=147.302856m. Speed=0.000000m/h.</desc>
<speed>0.000000</speed>
</trkpt>
<trkpt lat="55.660919" lon="26.571970">
<ele>147.302856</ele>
<time>2010-07-18T11:12:20Z</time>
<desc>lat.=55.660919, lon.=26.571970, Alt.=147.302856m. Speed=0.000000m/h.</desc>
<speed>0.000000</speed>
</trkpt>
<trkpt lat="55.660919" lon="26.571970">
<ele>147.302856</ele>
<time>2010-07-18T11:12:21Z</time>
<desc>lat.=55.660919, lon.=26.571970, Alt.=147.302856m. Speed=0.000000m/h.</desc>
<speed>0.000000</speed>
</trkpt>
<trkpt lat="55.660919" lon="26.571970">
<ele>147.306763</ele>
<time>2010-07-18T11:12:22Z</time>
<desc>lat.=55.660919, lon.=26.571970, Alt.=147.306763m. Speed=0.000000m/h.</desc>
<speed>0.000000</speed>
</trkpt>
<trkpt lat="55.660919" lon="26.571970">
<ele>147.306763</ele>
<time>2010-07-18T11:12:23Z</time>
<desc>lat.=55.660919, lon.=26.571970, Alt.=147.306763m. Speed=0.000000m/h.</desc>
<speed>0.000000</speed>
</trkpt>
<trkpt lat="55.660919" lon="26.571970">
<ele>147.306763</ele>
<time>2010-07-18T11:12:24Z</time>
<desc>lat.=55.660919, lon.=26.571970, Alt.=147.306763m. Speed=0.000000m/h.</desc>
<speed>0.000000</speed>
</trkpt>
<trkpt lat="55.660919" lon="26.571970">
<ele>147.306763</ele>
<time>2010-07-18T11:12:25Z</time>
<desc>lat.=55.660919, lon.=26.571970, Alt.=147.306763m. Speed=0.000000m/h.</desc>
<speed>0.000000</speed>
</trkpt>
<trkpt lat="55.660919" lon="26.571970">
<ele>147.306763</ele>
<time>2010-07-18T11:12:26Z</time>
<desc>lat.=55.660919, lon.=26.571970, Alt.=147.306763m. Speed=0.000000m/h.</desc>
<speed>0.000000</speed>
</trkpt>
<trkpt lat="55.660919" lon="26.571970">
<ele>147.306763</ele>
<time>2010-07-18T11:12:27Z</time>
<desc>lat.=55.660919, lon.=26.571970, Alt.=147.306763m. Speed=0.000000m/h.</desc>
<speed>0.000000</speed>
</trkpt>
<trkpt lat="55.660919" lon="26.571970">
<ele>147.302856</ele>
<time>2010-07-18T11:12:28Z</time>
<desc>lat.=55.660919, lon.=26.571970, Alt.=147.302856m. Speed=0.000000m/h.</desc>
<speed>0.000000</speed>
</trkpt>
<trkpt lat="55.660919" lon="26.571970">
<ele>147.302856</ele>
<time>2010-07-18T11:12:29Z</time>
<desc>lat.=55.660919, lon.=26.571970, Alt.=147.302856m. Speed=0.000000m/h.</desc>
<speed>0.000000</speed>
</trkpt>
<trkpt lat="55.660919" lon="26.571970">
<ele>147.298950</ele>
<time>2010-07-18T11:12:30Z</time>
<desc>lat.=55.660919, lon.=26.571970, Alt.=147.298950m. Speed=0.000000m/h.</desc>
<speed>0.000000</speed>
</trkpt>
<trkpt lat="55.660919" lon="26.571970">
<ele>147.295044</ele>
<time>2010-07-18T11:12:31Z</time>
<desc>lat.=55.660919, lon.=26.571970, Alt.=147.295044m. Speed=0.000000m/h.</desc>
<speed>0.000000</speed>
</trkpt>
<trkpt lat="55.660919" lon="26.571970">
<ele>147.291138</ele>
<time>2010-07-18T11:12:32Z</time>
<desc>lat.=55.660919, lon.=26.571970, Alt.=147.291138m. Speed=0.000000m/h.</desc>
<speed>0.000000</speed>
</trkpt>
<trkpt lat="55.660919" lon="26.571970">
<ele>147.291138</ele>
<time>2010-07-18T11:12:33Z</time>
<desc>lat.=55.660919, lon.=26.571970, Alt.=147.291138m. Speed=0.000000m/h.</desc>
<speed>0.000000</speed>
</trkpt>
<trkpt lat="55.660919" lon="26.571970">
<ele>147.287231</ele>
<time>2010-07-18T11:12:34Z</time>
<desc>lat.=55.660919, lon.=26.571970, Alt.=147.287231m. Speed=0.000000m/h.</desc>
<speed>0.000000</speed>
</trkpt>
<trkpt lat="55.660919" lon="26.571970">
<ele>147.287231</ele>
<time>2010-07-18T11:12:35Z</time>
<desc>lat.=55.660919, lon.=26.571970, Alt.=147.287231m. Speed=0.000000m/h.</desc>
<speed>0.000000</speed>
</trkpt>
<trkpt lat="55.660919" lon="26.571970">
<ele>147.283325</ele>
<time>2010-07-18T11:12:36Z</time>
<desc>lat.=55.660919, lon.=26.571970, Alt.=147.283325m. Speed=0.000000m/h.</desc>
<speed>0.000000</speed>
</trkpt>
<trkpt lat="55.660919" lon="26.571970">
<ele>147.283325</ele>
<time>2010-07-18T11:12:37Z</time>
<desc>lat.=55.660919, lon.=26.571970, Alt.=147.283325m. Speed=0.000000m/h.</desc>
<speed>0.000000</speed>
</trkpt>
<trkpt lat="55.660919" lon="26.571970">
<ele>147.279419</ele>
<time>2010-07-18T11:12:38Z</time>
<desc>lat.=55.660919, lon.=26.571970, Alt.=147.279419m. Speed=0.000000m/h.</desc>
<speed>0.000000</speed>
</trkpt>
<trkpt lat="55.660919" lon="26.571970">
<ele>147.279419</ele>
<time>2010-07-18T11:12:39Z</time>
<desc>lat.=55.660919, lon.=26.571970, Alt.=147.279419m. Speed=0.000000m/h.</desc>
<speed>0.000000</speed>
</trkpt>
<trkpt lat="55.660919" lon="26.571970">
<ele>147.283325</ele>
<time>2010-07-18T11:12:40Z</time>
<desc>lat.=55.660919, lon.=26.571970, Alt.=147.283325m. Speed=0.000000m/h.</desc>
<speed>0.000000</speed>
</trkpt>
<trkpt lat="55.660919" lon="26.571970">
<ele>147.283325</ele>
<time>2010-07-18T11:12:41Z</time>
<desc>lat.=55.660919, lon.=26.571970, Alt.=147.283325m. Speed=0.000000m/h.</desc>
<speed>0.000000</speed>
</trkpt>
<trkpt lat="55.660919" lon="26.571970">
<ele>147.287231</ele>
<time>2010-07-18T11:12:42Z</time>
<desc>lat.=55.660919, lon.=26.571970, Alt.=147.287231m. Speed=0.000000m/h.</desc>
<speed>0.000000</speed>
</trkpt>
<trkpt lat="55.660919" lon="26.571970">
<ele>147.287231</ele>
<time>2010-07-18T11:12:43Z</time>
<desc>lat.=55.660919, lon.=26.571970, Alt.=147.287231m. Speed=0.000000m/h.</desc>
<speed>0.000000</speed>
</trkpt>
<trkpt lat="55.660919" lon="26.571970">
<ele>147.287231</ele>
<time>2010-07-18T11:12:44Z</time>
<desc>lat.=55.660919, lon.=26.571970, Alt.=147.287231m. Speed=0.000000m/h.</desc>
<speed>0.000000</speed>
</trkpt>
<trkpt lat="55.660919" lon="26.571970">
<ele>147.287231</ele>
<time>2010-07-18T11:12:45Z</time>
<desc>lat.=55.660919, lon.=26.571970, Alt.=147.287231m. Speed=0.000000m/h.</desc>
<speed>0.000000</speed>
</trkpt>
<trkpt lat="55.660919" lon="26.571970">
<ele>147.287231</ele>
<time>2010-07-18T11:12:46Z</time>
<desc>lat.=55.660919, lon.=26.571970, Alt.=147.287231m. Speed=0.000000m/h.</desc>
<speed>0.000000</speed>
</trkpt>
<trkpt lat="55.660919" lon="26.571970">
<ele>147.287231</ele>
<time>2010-07-18T11:12:47Z</time>
<desc>lat.=55.660919, lon.=26.571970, Alt.=147.287231m. Speed=0.000000m/h.</desc>
<speed>0.000000</speed>
</trkpt>
<trkpt lat="55.660919" lon="26.571970">
<ele>147.287231</ele>
<time>2010-07-18T11:12:48Z</time>
<desc>lat.=55.660919, lon.=26.571970, Alt.=147.287231m. Speed=0.036000m/h.</desc>
<speed>0.010000</speed>
</trkpt>
<trkpt lat="55.660919" lon="26.571970">
<ele>147.287231</ele>
<time>2010-07-18T11:12:49Z</time>
<desc>lat.=55.660919, lon.=26.571970, Alt.=147.287231m. Speed=0.072000m/h.</desc>
<speed>0.020000</speed>
</trkpt>
<trkpt lat="55.660919" lon="26.571970">
<ele>147.287231</ele>
<time>2010-07-18T11:12:50Z</time>
<desc>lat.=55.660919, lon.=26.571970, Alt.=147.287231m. Speed=0.000000m/h.</desc>
<speed>0.000000</speed>
</trkpt>
<trkpt lat="55.660919" lon="26.571970">
<ele>147.287231</ele>
<time>2010-07-18T11:12:51Z</time>
<desc>lat.=55.660919, lon.=26.571970, Alt.=147.287231m. Speed=0.000000m/h.</desc>
<speed>0.000000</speed>
</trkpt>
<trkpt lat="55.660919" lon="26.571970">
<ele>147.283325</ele>
<time>2010-07-18T11:12:52Z</time>
<desc>lat.=55.660919, lon.=26.571970, Alt.=147.283325m. Speed=0.000000m/h.</desc>
<speed>0.000000</speed>
</trkpt>
<trkpt lat="55.660919" lon="26.571970">
<ele>147.279419</ele>
<time>2010-07-18T11:12:53Z</time>
<desc>lat.=55.660919, lon.=26.571970, Alt.=147.279419m. Speed=0.000000m/h.</desc>
<speed>0.000000</speed>
</trkpt>
<trkpt lat="55.660919" lon="26.571970">
<ele>147.279419</ele>
<time>2010-07-18T11:12:54Z</time>
<desc>lat.=55.660919, lon.=26.571970, Alt.=147.279419m. Speed=0.000000m/h.</desc>
<speed>0.000000</speed>
</trkpt>
<trkpt lat="55.660919" lon="26.571970">
<ele>147.279419</ele>
<time>2010-07-18T11:12:55Z</time>
<desc>lat.=55.660919, lon.=26.571970, Alt.=147.279419m. Speed=0.000000m/h.</desc>
<speed>0.000000</speed>
</trkpt>
<trkpt lat="55.660919" lon="26.571970">
<ele>147.275513</ele>
<time>2010-07-18T11:12:56Z</time>
<desc>lat.=55.660919, lon.=26.571970, Alt.=147.275513m. Speed=0.036000m/h.</desc>
<speed>0.010000</speed>
</trkpt>
<trkpt lat="55.660919" lon="26.571970">
<ele>147.271606</ele>
<time>2010-07-18T11:12:57Z</time>
<desc>lat.=55.660919, lon.=26.571970, Alt.=147.271606m. Speed=0.000000m/h.</desc>
<speed>0.000000</speed>
</trkpt>
<trkpt lat="55.660919" lon="26.571970">
<ele>147.271606</ele>
<time>2010-07-18T11:12:58Z</time>
<desc>lat.=55.660919, lon.=26.571970, Alt.=147.271606m. Speed=0.000000m/h.</desc>
<speed>0.000000</speed>
</trkpt>
<trkpt lat="55.660919" lon="26.571970">
<ele>147.267700</ele>
<time>2010-07-18T11:12:59Z</time>
<desc>lat.=55.660919, lon.=26.571970, Alt.=147.267700m. Speed=0.036000m/h.</desc>
<speed>0.010000</speed>
</trkpt>
<trkpt lat="55.660919" lon="26.571970">
<ele>147.263794</ele>
<time>2010-07-18T11:13:00Z</time>
<desc>lat.=55.660919, lon.=26.571970, Alt.=147.263794m. Speed=0.000000m/h.</desc>
<speed>0.000000</speed>
</trkpt>
<trkpt lat="55.660919" lon="26.571970">
<ele>147.263794</ele>
<time>2010-07-18T11:13:01Z</time>
<desc>lat.=55.660919, lon.=26.571970, Alt.=147.263794m. Speed=0.000000m/h.</desc>
<speed>0.000000</speed>
</trkpt>
<trkpt lat="55.660919" lon="26.571970">
<ele>147.259888</ele>
<time>2010-07-18T11:13:02Z</time>
<desc>lat.=55.660919, lon.=26.571970, Alt.=147.259888m. Speed=0.000000m/h.</desc>
<speed>0.000000</speed>
</trkpt>
<trkpt lat="55.660919" lon="26.571970">
<ele>147.255981</ele>
<time>2010-07-18T11:13:03Z</time>
<desc>lat.=55.660919, lon.=26.571970, Alt.=147.255981m. Speed=0.000000m/h.</desc>
<speed>0.000000</speed>
</trkpt>
<trkpt lat="55.660919" lon="26.571970">
<ele>147.255981</ele>
<time>2010-07-18T11:13:04Z</time>
<desc>lat.=55.660919, lon.=26.571970, Alt.=147.255981m. Speed=0.000000m/h.</desc>
<speed>0.000000</speed>
</trkpt>
<trkpt lat="55.660919" lon="26.571970">
<ele>147.252075</ele>
<time>2010-07-18T11:13:05Z</time>
<desc>lat.=55.660919, lon.=26.571970, Alt.=147.252075m. Speed=0.000000m/h.</desc>
<speed>0.000000</speed>
</trkpt>
<trkpt lat="55.660919" lon="26.571970">
<ele>147.252075</ele>
<time>2010-07-18T11:13:06Z</time>
<desc>lat.=55.660919, lon.=26.571970, Alt.=147.252075m. Speed=0.000000m/h.</desc>
<speed>0.000000</speed>
</trkpt>
<trkpt lat="55.660919" lon="26.571970">
<ele>147.248169</ele>
<time>2010-07-18T11:13:07Z</time>
<desc>lat.=55.660919, lon.=26.571970, Alt.=147.248169m. Speed=0.000000m/h.</desc>
<speed>0.000000</speed>
</trkpt>
<trkpt lat="55.660919" lon="26.571970">
<ele>147.244263</ele>
<time>2010-07-18T11:13:08Z</time>
<desc>lat.=55.660919, lon.=26.571970, Alt.=147.244263m. Speed=0.000000m/h.</desc>
<speed>0.000000</speed>
</trkpt>
<trkpt lat="55.660919" lon="26.571970">
<ele>147.244263</ele>
<time>2010-07-18T11:13:09Z</time>
<desc>lat.=55.660919, lon.=26.571970, Alt.=147.244263m. Speed=0.000000m/h.</desc>
<speed>0.000000</speed>
</trkpt>
<trkpt lat="55.660919" lon="26.571970">
<ele>147.244263</ele>
<time>2010-07-18T11:13:10Z</time>
<desc>lat.=55.660919, lon.=26.571970, Alt.=147.244263m. Speed=0.000000m/h.</desc>
<speed>0.000000</speed>
</trkpt>
<trkpt lat="55.660919" lon="26.571970">
<ele>147.244263</ele>
<time>2010-07-18T11:13:11Z</time>
<desc>lat.=55.660919, lon.=26.571970, Alt.=147.244263m. Speed=0.000000m/h.</desc>
<speed>0.000000</speed>
</trkpt>
<trkpt lat="55.660919" lon="26.571970">
<ele>147.240356</ele>
<time>2010-07-18T11:13:12Z</time>
<desc>lat.=55.660919, lon.=26.571970, Alt.=147.240356m. Speed=0.000000m/h.</desc>
<speed>0.000000</speed>
</trkpt>
<trkpt lat="55.660919" lon="26.571970">
<ele>147.240356</ele>
<time>2010-07-18T11:13:13Z</time>
<desc>lat.=55.660919, lon.=26.571970, Alt.=147.240356m. Speed=0.000000m/h.</desc>
<speed>0.000000</speed>
</trkpt>
<trkpt lat="55.660919" lon="26.571970">
<ele>147.240356</ele>
<time>2010-07-18T11:13:14Z</time>
<desc>lat.=55.660919, lon.=26.571970, Alt.=147.240356m. Speed=0.000000m/h.</desc>
<speed>0.000000</speed>
</trkpt>
<trkpt lat="55.660919" lon="26.571970">
<ele>147.240356</ele>
<time>2010-07-18T11:13:15Z</time>
<desc>lat.=55.660919, lon.=26.571970, Alt.=147.240356m. Speed=0.000000m/h.</desc>
<speed>0.000000</speed>
</trkpt>
<trkpt lat="55.660919" lon="26.571970">
<ele>147.236450</ele>
<time>2010-07-18T11:13:16Z</time>
<desc>lat.=55.660919, lon.=26.571970, Alt.=147.236450m. Speed=0.000000m/h.</desc>
<speed>0.000000</speed>
</trkpt>
<trkpt lat="55.660919" lon="26.571970">
<ele>147.236450</ele>
<time>2010-07-18T11:13:17Z</time>
<desc>lat.=55.660919, lon.=26.571970, Alt.=147.236450m. Speed=0.000000m/h.</desc>
<speed>0.000000</speed>
</trkpt>
<trkpt lat="55.660919" lon="26.571970">
<ele>147.236450</ele>
<time>2010-07-18T11:13:18Z</time>
<desc>lat.=55.660919, lon.=26.571970, Alt.=147.236450m. Speed=0.000000m/h.</desc>
<speed>0.000000</speed>
</trkpt>
<trkpt lat="55.660919" lon="26.571970">
<ele>147.232544</ele>
<time>2010-07-18T11:13:19Z</time>
<desc>lat.=55.660919, lon.=26.571970, Alt.=147.232544m. Speed=0.000000m/h.</desc>
<speed>0.000000</speed>
</trkpt>
<trkpt lat="55.660919" lon="26.571970">
<ele>147.232544</ele>
<time>2010-07-18T11:13:20Z</time>
<desc>lat.=55.660919, lon.=26.571970, Alt.=147.232544m. Speed=0.000000m/h.</desc>
<speed>0.000000</speed>
</trkpt>
<trkpt lat="55.660919" lon="26.571970">
<ele>147.232544</ele>
<time>2010-07-18T11:13:21Z</time>
<desc>lat.=55.660919, lon.=26.571970, Alt.=147.232544m. Speed=0.000000m/h.</desc>
<speed>0.000000</speed>
</trkpt>
<trkpt lat="55.660919" lon="26.571970">
<ele>147.228638</ele>
<time>2010-07-18T11:13:22Z</time>
<desc>lat.=55.660919, lon.=26.571970, Alt.=147.228638m. Speed=0.000000m/h.</desc>
<speed>0.000000</speed>
</trkpt>
<trkpt lat="55.660919" lon="26.571970">
<ele>147.224731</ele>
<time>2010-07-18T11:13:23Z</time>
<desc>lat.=55.660919, lon.=26.571970, Alt.=147.224731m. Speed=0.000000m/h.</desc>
<speed>0.000000</speed>
</trkpt>
<trkpt lat="55.660919" lon="26.571970">
<ele>147.224731</ele>
<time>2010-07-18T11:13:24Z</time>
<desc>lat.=55.660919, lon.=26.571970, Alt.=147.224731m. Speed=0.000000m/h.</desc>
<speed>0.000000</speed>
</trkpt>
<trkpt lat="55.660919" lon="26.571970">
<ele>147.224731</ele>
<time>2010-07-18T11:13:25Z</time>
<desc>lat.=55.660919, lon.=26.571970, Alt.=147.224731m. Speed=0.000000m/h.</desc>
<speed>0.000000</speed>
</trkpt>
<trkpt lat="55.660919" lon="26.571970">
<ele>147.224731</ele>
<time>2010-07-18T11:13:26Z</time>
<desc>lat.=55.660919, lon.=26.571970, Alt.=147.224731m. Speed=0.000000m/h.</desc>
<speed>0.000000</speed>
</trkpt>
<trkpt lat="55.660919" lon="26.571970">
<ele>147.216919</ele>
<time>2010-07-18T11:13:27Z</time>
<desc>lat.=55.660919, lon.=26.571970, Alt.=147.216919m. Speed=0.000000m/h.</desc>
<speed>0.000000</speed>
</trkpt>
<trkpt lat="55.660919" lon="26.571970">
<ele>147.213013</ele>
<time>2010-07-18T11:13:28Z</time>
<desc>lat.=55.660919, lon.=26.571970, Alt.=147.213013m. Speed=0.000000m/h.</desc>
<speed>0.000000</speed>
</trkpt>
<trkpt lat="55.660919" lon="26.571970">
<ele>147.213013</ele>
<time>2010-07-18T11:13:29Z</time>
<desc>lat.=55.660919, lon.=26.571970, Alt.=147.213013m. Speed=0.000000m/h.</desc>
<speed>0.000000</speed>
</trkpt>
<trkpt lat="55.660919" lon="26.571970">
<ele>147.209106</ele>
<time>2010-07-18T11:13:30Z</time>
<desc>lat.=55.660919, lon.=26.571970, Alt.=147.209106m. Speed=0.000000m/h.</desc>
<speed>0.000000</speed>
</trkpt>
<trkpt lat="55.660919" lon="26.571970">
<ele>147.209106</ele>
<time>2010-07-18T11:13:31Z</time>
<desc>lat.=55.660919, lon.=26.571970, Alt.=147.209106m. Speed=0.000000m/h.</desc>
<speed>0.000000</speed>
</trkpt>
<trkpt lat="55.660919" lon="26.571970">
<ele>147.205200</ele>
<time>2010-07-18T11:13:32Z</time>
<desc>lat.=55.660919, lon.=26.571970, Alt.=147.205200m. Speed=0.000000m/h.</desc>
<speed>0.000000</speed>
</trkpt>
<trkpt lat="55.660919" lon="26.571970">
<ele>147.205200</ele>
<time>2010-07-18T11:13:33Z</time>
<desc>lat.=55.660919, lon.=26.571970, Alt.=147.205200m. Speed=0.000000m/h.</desc>
<speed>0.000000</speed>
</trkpt>
<trkpt lat="55.660919" lon="26.571970">
<ele>147.205200</ele>
<time>2010-07-18T11:13:34Z</time>
<desc>lat.=55.660919, lon.=26.571970, Alt.=147.205200m. Speed=0.000000m/h.</desc>
<speed>0.000000</speed>
</trkpt>
<trkpt lat="55.660919" lon="26.571970">
<ele>147.205200</ele>
<time>2010-07-18T11:13:35Z</time>
<desc>lat.=55.660919, lon.=26.571970, Alt.=147.205200m. Speed=0.000000m/h.</desc>
<speed>0.000000</speed>
</trkpt>
<trkpt lat="55.660919" lon="26.571970">
<ele>147.201294</ele>
<time>2010-07-18T11:13:36Z</time>
<desc>lat.=55.660919, lon.=26.571970, Alt.=147.201294m. Speed=0.000000m/h.</desc>
<speed>0.000000</speed>
</trkpt>
<trkpt lat="55.660919" lon="26.571970">
<ele>147.201294</ele>
<time>2010-07-18T11:13:37Z</time>
<desc>lat.=55.660919, lon.=26.571970, Alt.=147.201294m. Speed=0.000000m/h.</desc>
<speed>0.000000</speed>
</trkpt>
<trkpt lat="55.660919" lon="26.571970">
<ele>147.197388</ele>
<time>2010-07-18T11:13:38Z</time>
<desc>lat.=55.660919, lon.=26.571970, Alt.=147.197388m. Speed=0.000000m/h.</desc>
<speed>0.000000</speed>
</trkpt>
<trkpt lat="55.660919" lon="26.571970">
<ele>147.197388</ele>
<time>2010-07-18T11:13:39Z</time>
<desc>lat.=55.660919, lon.=26.571970, Alt.=147.197388m. Speed=0.000000m/h.</desc>
<speed>0.000000</speed>
</trkpt>
<trkpt lat="55.660919" lon="26.571970">
<ele>147.193481</ele>
<time>2010-07-18T11:13:40Z</time>
<desc>lat.=55.660919, lon.=26.571970, Alt.=147.193481m. Speed=0.000000m/h.</desc>
<speed>0.000000</speed>
</trkpt>
<trkpt lat="55.660919" lon="26.571970">
<ele>147.189575</ele>
<time>2010-07-18T11:13:41Z</time>
<desc>lat.=55.660919, lon.=26.571970, Alt.=147.189575m. Speed=0.000000m/h.</desc>
<speed>0.000000</speed>
</trkpt>
<trkpt lat="55.660919" lon="26.571970">
<ele>147.189575</ele>
<time>2010-07-18T11:13:42Z</time>
<desc>lat.=55.660919, lon.=26.571970, Alt.=147.189575m. Speed=0.000000m/h.</desc>
<speed>0.000000</speed>
</trkpt>
<trkpt lat="55.660919" lon="26.571970">
<ele>147.189575</ele>
<time>2010-07-18T11:13:43Z</time>
<desc>lat.=55.660919, lon.=26.571970, Alt.=147.189575m. Speed=0.000000m/h.</desc>
<speed>0.000000</speed>
</trkpt>
<trkpt lat="55.660919" lon="26.571970">
<ele>147.189575</ele>
<time>2010-07-18T11:13:44Z</time>
<desc>lat.=55.660919, lon.=26.571970, Alt.=147.189575m. Speed=0.000000m/h.</desc>
<speed>0.000000</speed>
</trkpt>
<trkpt lat="55.660919" lon="26.571970">
<ele>147.185669</ele>
<time>2010-07-18T11:13:45Z</time>
<desc>lat.=55.660919, lon.=26.571970, Alt.=147.185669m. Speed=0.000000m/h.</desc>
<speed>0.000000</speed>
</trkpt>
<trkpt lat="55.660919" lon="26.571970">
<ele>147.181763</ele>
<time>2010-07-18T11:13:46Z</time>
<desc>lat.=55.660919, lon.=26.571970, Alt.=147.181763m. Speed=0.000000m/h.</desc>
<speed>0.000000</speed>
</trkpt>
<trkpt lat="55.660919" lon="26.571970">
<ele>147.181763</ele>
<time>2010-07-18T11:13:47Z</time>
<desc>lat.=55.660919, lon.=26.571970, Alt.=147.181763m. Speed=0.000000m/h.</desc>
<speed>0.000000</speed>
</trkpt>
<trkpt lat="55.660919" lon="26.571970">
<ele>147.177856</ele>
<time>2010-07-18T11:13:48Z</time>
<desc>lat.=55.660919, lon.=26.571970, Alt.=147.177856m. Speed=0.000000m/h.</desc>
<speed>0.000000</speed>
</trkpt>
<trkpt lat="55.660919" lon="26.571970">
<ele>147.173950</ele>
<time>2010-07-18T11:13:49Z</time>
<desc>lat.=55.660919, lon.=26.571970, Alt.=147.173950m. Speed=0.000000m/h.</desc>
<speed>0.000000</speed>
</trkpt>
<trkpt lat="55.660919" lon="26.571970">
<ele>147.173950</ele>
<time>2010-07-18T11:13:50Z</time>
<desc>lat.=55.660919, lon.=26.571970, Alt.=147.173950m. Speed=0.000000m/h.</desc>
<speed>0.000000</speed>
</trkpt>
<trkpt lat="55.660919" lon="26.571970">
<ele>147.173950</ele>
<time>2010-07-18T11:13:51Z</time>
<desc>lat.=55.660919, lon.=26.571970, Alt.=147.173950m. Speed=0.036000m/h.</desc>
<speed>0.010000</speed>
</trkpt>
<trkpt lat="55.660919" lon="26.571970">
<ele>147.170044</ele>
<time>2010-07-18T11:13:52Z</time>
<desc>lat.=55.660919, lon.=26.571970, Alt.=147.170044m. Speed=0.000000m/h.</desc>
<speed>0.000000</speed>
</trkpt>
<trkpt lat="55.660919" lon="26.571970">
<ele>147.170044</ele>
<time>2010-07-18T11:13:53Z</time>
<desc>lat.=55.660919, lon.=26.571970, Alt.=147.170044m. Speed=0.000000m/h.</desc>
<speed>0.000000</speed>
</trkpt>
<trkpt lat="55.660919" lon="26.571970">
<ele>147.166138</ele>
<time>2010-07-18T11:13:54Z</time>
<desc>lat.=55.660919, lon.=26.571970, Alt.=147.166138m. Speed=0.000000m/h.</desc>
<speed>0.000000</speed>
</trkpt>
<trkpt lat="55.660919" lon="26.571970">
<ele>147.166138</ele>
<time>2010-07-18T11:13:55Z</time>
<desc>lat.=55.660919, lon.=26.571970, Alt.=147.166138m. Speed=0.000000m/h.</desc>
<speed>0.000000</speed>
</trkpt>
<trkpt lat="55.660919" lon="26.571970">
<ele>147.166138</ele>
<time>2010-07-18T11:13:56Z</time>
<desc>lat.=55.660919, lon.=26.571970, Alt.=147.166138m. Speed=0.000000m/h.</desc>
<speed>0.000000</speed>
</trkpt>
<trkpt lat="55.660919" lon="26.571970">
<ele>147.166138</ele>
<time>2010-07-18T11:13:57Z</time>
<desc>lat.=55.660919, lon.=26.571970, Alt.=147.166138m. Speed=0.000000m/h.</desc>
<speed>0.000000</speed>
</trkpt>
<trkpt lat="55.660919" lon="26.571970">
<ele>147.166138</ele>
<time>2010-07-18T11:13:58Z</time>
<desc>lat.=55.660919, lon.=26.571970, Alt.=147.166138m. Speed=0.000000m/h.</desc>
<speed>0.000000</speed>
</trkpt>
<trkpt lat="55.660919" lon="26.571970">
<ele>147.166138</ele>
<time>2010-07-18T11:13:59Z</time>
<desc>lat.=55.660919, lon.=26.571970, Alt.=147.166138m. Speed=0.000000m/h.</desc>
<speed>0.000000</speed>
</trkpt>
<trkpt lat="55.660919" lon="26.571970">
<ele>147.166138</ele>
<time>2010-07-18T11:14:00Z</time>
<desc>lat.=55.660919, lon.=26.571970, Alt.=147.166138m. Speed=0.000000m/h.</desc>
<speed>0.000000</speed>
</trkpt>
<trkpt lat="55.660919" lon="26.571970">
<ele>147.162231</ele>
<time>2010-07-18T11:14:01Z</time>
<desc>lat.=55.660919, lon.=26.571970, Alt.=147.162231m. Speed=0.036000m/h.</desc>
<speed>0.010000</speed>
</trkpt>
<trkpt lat="55.660919" lon="26.571970">
<ele>147.162231</ele>
<time>2010-07-18T11:14:02Z</time>
<desc>lat.=55.660919, lon.=26.571970, Alt.=147.162231m. Speed=0.000000m/h.</desc>
<speed>0.000000</speed>
</trkpt>
<trkpt lat="55.660919" lon="26.571970">
<ele>147.166138</ele>
<time>2010-07-18T11:14:03Z</time>
<desc>lat.=55.660919, lon.=26.571970, Alt.=147.166138m. Speed=0.000000m/h.</desc>
<speed>0.000000</speed>
</trkpt>
<trkpt lat="55.660919" lon="26.571970">
<ele>147.162231</ele>
<time>2010-07-18T11:14:04Z</time>
<desc>lat.=55.660919, lon.=26.571970, Alt.=147.162231m. Speed=0.000000m/h.</desc>
<speed>0.000000</speed>
</trkpt>
<trkpt lat="55.660919" lon="26.571970">
<ele>147.162231</ele>
<time>2010-07-18T11:14:05Z</time>
<desc>lat.=55.660919, lon.=26.571970, Alt.=147.162231m. Speed=0.000000m/h.</desc>
<speed>0.000000</speed>
</trkpt>
<trkpt lat="55.660919" lon="26.571970">
<ele>147.162231</ele>
<time>2010-07-18T11:14:06Z</time>
<desc>lat.=55.660919, lon.=26.571970, Alt.=147.162231m. Speed=0.000000m/h.</desc>
<speed>0.000000</speed>
</trkpt>
<trkpt lat="55.660919" lon="26.571970">
<ele>147.162231</ele>
<time>2010-07-18T11:14:07Z</time>
<desc>lat.=55.660919, lon.=26.571970, Alt.=147.162231m. Speed=0.000000m/h.</desc>
<speed>0.000000</speed>
</trkpt>
<trkpt lat="55.660919" lon="26.571970">
<ele>147.162231</ele>
<time>2010-07-18T11:14:08Z</time>
<desc>lat.=55.660919, lon.=26.571970, Alt.=147.162231m. Speed=0.000000m/h.</desc>
<speed>0.000000</speed>
</trkpt>
<trkpt lat="55.660919" lon="26.571970">
<ele>147.166138</ele>
<time>2010-07-18T11:14:09Z</time>
<desc>lat.=55.660919, lon.=26.571970, Alt.=147.166138m. Speed=0.000000m/h.</desc>
<speed>0.000000</speed>
</trkpt>
<trkpt lat="55.660919" lon="26.571970">
<ele>147.166138</ele>
<time>2010-07-18T11:14:10Z</time>
<desc>lat.=55.660919, lon.=26.571970, Alt.=147.166138m. Speed=0.000000m/h.</desc>
<speed>0.000000</speed>
</trkpt>
<trkpt lat="55.660919" lon="26.571970">
<ele>147.162231</ele>
<time>2010-07-18T11:14:11Z</time>
<desc>lat.=55.660919, lon.=26.571970, Alt.=147.162231m. Speed=0.000000m/h.</desc>
<speed>0.000000</speed>
</trkpt>
<trkpt lat="55.660919" lon="26.571970">
<ele>147.162231</ele>
<time>2010-07-18T11:14:12Z</time>
<desc>lat.=55.660919, lon.=26.571970, Alt.=147.162231m. Speed=0.000000m/h.</desc>
<speed>0.000000</speed>
</trkpt>
<trkpt lat="55.660919" lon="26.571970">
<ele>147.162231</ele>
<time>2010-07-18T11:14:13Z</time>
<desc>lat.=55.660919, lon.=26.571970, Alt.=147.162231m. Speed=0.000000m/h.</desc>
<speed>0.000000</speed>
</trkpt>
<trkpt lat="55.660919" lon="26.571970">
<ele>147.162231</ele>
<time>2010-07-18T11:14:14Z</time>
<desc>lat.=55.660919, lon.=26.571970, Alt.=147.162231m. Speed=0.000000m/h.</desc>
<speed>0.000000</speed>
</trkpt>
<trkpt lat="55.660919" lon="26.571970">
<ele>147.158325</ele>
<time>2010-07-18T11:14:15Z</time>
<desc>lat.=55.660919, lon.=26.571970, Alt.=147.158325m. Speed=0.000000m/h.</desc>
<speed>0.000000</speed>
</trkpt>
<trkpt lat="55.660919" lon="26.571970">
<ele>147.158325</ele>
<time>2010-07-18T11:14:16Z</time>
<desc>lat.=55.660919, lon.=26.571970, Alt.=147.158325m. Speed=0.000000m/h.</desc>
<speed>0.000000</speed>
</trkpt>
<trkpt lat="55.660919" lon="26.571970">
<ele>147.154419</ele>
<time>2010-07-18T11:14:17Z</time>
<desc>lat.=55.660919, lon.=26.571970, Alt.=147.154419m. Speed=0.000000m/h.</desc>
<speed>0.000000</speed>
</trkpt>
<trkpt lat="55.660919" lon="26.571970">
<ele>147.150513</ele>
<time>2010-07-18T11:14:18Z</time>
<desc>lat.=55.660919, lon.=26.571970, Alt.=147.150513m. Speed=0.000000m/h.</desc>
<speed>0.000000</speed>
</trkpt>
<trkpt lat="55.660919" lon="26.571970">
<ele>147.150513</ele>
<time>2010-07-18T11:14:19Z</time>
<desc>lat.=55.660919, lon.=26.571970, Alt.=147.150513m. Speed=0.000000m/h.</desc>
<speed>0.000000</speed>
</trkpt>
<trkpt lat="55.660919" lon="26.571968">
<ele>147.150513</ele>
<time>2010-07-18T11:14:20Z</time>
<desc>lat.=55.660919, lon.=26.571968, Alt.=147.150513m. Speed=0.000000m/h.</desc>
<speed>0.000000</speed>
</trkpt>
<trkpt lat="55.660919" lon="26.571968">
<ele>147.146606</ele>
<time>2010-07-18T11:14:21Z</time>
<desc>lat.=55.660919, lon.=26.571968, Alt.=147.146606m. Speed=0.000000m/h.</desc>
<speed>0.000000</speed>
</trkpt>
<trkpt lat="55.660919" lon="26.571968">
<ele>147.146606</ele>
<time>2010-07-18T11:14:22Z</time>
<desc>lat.=55.660919, lon.=26.571968, Alt.=147.146606m. Speed=0.000000m/h.</desc>
<speed>0.000000</speed>
</trkpt>
<trkpt lat="55.660919" lon="26.571968">
<ele>147.142700</ele>
<time>2010-07-18T11:14:23Z</time>
<desc>lat.=55.660919, lon.=26.571968, Alt.=147.142700m. Speed=0.000000m/h.</desc>
<speed>0.000000</speed>
</trkpt>
<trkpt lat="55.660919" lon="26.571968">
<ele>147.142700</ele>
<time>2010-07-18T11:14:24Z</time>
<desc>lat.=55.660919, lon.=26.571968, Alt.=147.142700m. Speed=0.000000m/h.</desc>
<speed>0.000000</speed>
</trkpt>
<trkpt lat="55.660919" lon="26.571968">
<ele>147.138794</ele>
<time>2010-07-18T11:14:25Z</time>
<desc>lat.=55.660919, lon.=26.571968, Alt.=147.138794m. Speed=0.000000m/h.</desc>
<speed>0.000000</speed>
</trkpt>
<trkpt lat="55.660919" lon="26.571968">
<ele>147.134888</ele>
<time>2010-07-18T11:14:26Z</time>
<desc>lat.=55.660919, lon.=26.571968, Alt.=147.134888m. Speed=0.000000m/h.</desc>
<speed>0.000000</speed>
</trkpt>
<trkpt lat="55.660919" lon="26.571968">
<ele>147.134888</ele>
<time>2010-07-18T11:14:27Z</time>
<desc>lat.=55.660919, lon.=26.571968, Alt.=147.134888m. Speed=0.000000m/h.</desc>
<speed>0.000000</speed>
</trkpt>
<trkpt lat="55.660919" lon="26.571968">
<ele>147.130981</ele>
<time>2010-07-18T11:14:28Z</time>
<desc>lat.=55.660919, lon.=26.571968, Alt.=147.130981m. Speed=0.000000m/h.</desc>
<speed>0.000000</speed>
</trkpt>
<trkpt lat="55.660919" lon="26.571968">
<ele>147.130981</ele>
<time>2010-07-18T11:14:29Z</time>
<desc>lat.=55.660919, lon.=26.571968, Alt.=147.130981m. Speed=0.000000m/h.</desc>
<speed>0.000000</speed>
</trkpt>
<trkpt lat="55.660919" lon="26.571968">
<ele>147.127075</ele>
<time>2010-07-18T11:14:30Z</time>
<desc>lat.=55.660919, lon.=26.571968, Alt.=147.127075m. Speed=0.000000m/h.</desc>
<speed>0.000000</speed>
</trkpt>
<trkpt lat="55.660919" lon="26.571968">
<ele>147.127075</ele>
<time>2010-07-18T11:14:31Z</time>
<desc>lat.=55.660919, lon.=26.571968, Alt.=147.127075m. Speed=0.000000m/h.</desc>
<speed>0.000000</speed>
</trkpt>
<trkpt lat="55.660919" lon="26.571968">
<ele>147.123169</ele>
<time>2010-07-18T11:14:32Z</time>
<desc>lat.=55.660919, lon.=26.571968, Alt.=147.123169m. Speed=0.000000m/h.</desc>
<speed>0.000000</speed>
</trkpt>
<trkpt lat="55.660919" lon="26.571968">
<ele>147.123169</ele>
<time>2010-07-18T11:14:33Z</time>
<desc>lat.=55.660919, lon.=26.571968, Alt.=147.123169m. Speed=0.000000m/h.</desc>
<speed>0.000000</speed>
</trkpt>
<trkpt lat="55.660919" lon="26.571968">
<ele>147.119263</ele>
<time>2010-07-18T11:14:34Z</time>
<desc>lat.=55.660919, lon.=26.571968, Alt.=147.119263m. Speed=0.036000m/h.</desc>
<speed>0.010000</speed>
</trkpt>
<trkpt lat="55.660919" lon="26.571968">
<ele>147.115356</ele>
<time>2010-07-18T11:14:35Z</time>
<desc>lat.=55.660919, lon.=26.571968, Alt.=147.115356m. Speed=0.036000m/h.</desc>
<speed>0.010000</speed>
</trkpt>
<trkpt lat="55.660919" lon="26.571968">
<ele>147.115356</ele>
<time>2010-07-18T11:14:36Z</time>
<desc>lat.=55.660919, lon.=26.571968, Alt.=147.115356m. Speed=0.000000m/h.</desc>
<speed>0.000000</speed>
</trkpt>
<trkpt lat="55.660919" lon="26.571968">
<ele>147.111450</ele>
<time>2010-07-18T11:14:37Z</time>
<desc>lat.=55.660919, lon.=26.571968, Alt.=147.111450m. Speed=0.000000m/h.</desc>
<speed>0.000000</speed>
</trkpt>
<trkpt lat="55.660919" lon="26.571968">
<ele>147.107544</ele>
<time>2010-07-18T11:14:38Z</time>
<desc>lat.=55.660919, lon.=26.571968, Alt.=147.107544m. Speed=0.000000m/h.</desc>
<speed>0.000000</speed>
</trkpt>
<trkpt lat="55.660919" lon="26.571968">
<ele>147.107544</ele>
<time>2010-07-18T11:14:39Z</time>
<desc>lat.=55.660919, lon.=26.571968, Alt.=147.107544m. Speed=0.000000m/h.</desc>
<speed>0.000000</speed>
</trkpt>
<trkpt lat="55.660919" lon="26.571968">
<ele>147.107544</ele>
<time>2010-07-18T11:14:40Z</time>
<desc>lat.=55.660919, lon.=26.571968, Alt.=147.107544m. Speed=0.000000m/h.</desc>
<speed>0.000000</speed>
</trkpt>
<trkpt lat="55.660919" lon="26.571968">
<ele>147.103638</ele>
<time>2010-07-18T11:14:41Z</time>
<desc>lat.=55.660919, lon.=26.571968, Alt.=147.103638m. Speed=0.000000m/h.</desc>
<speed>0.000000</speed>
</trkpt>
<trkpt lat="55.660919" lon="26.571968">
<ele>147.103638</ele>
<time>2010-07-18T11:14:42Z</time>
<desc>lat.=55.660919, lon.=26.571968, Alt.=147.103638m. Speed=0.000000m/h.</desc>
<speed>0.000000</speed>
</trkpt>
<trkpt lat="55.660919" lon="26.571968">
<ele>147.099731</ele>
<time>2010-07-18T11:14:43Z</time>
<desc>lat.=55.660919, lon.=26.571968, Alt.=147.099731m. Speed=0.000000m/h.</desc>
<speed>0.000000</speed>
</trkpt>
<trkpt lat="55.660919" lon="26.571968">
<ele>147.095825</ele>
<time>2010-07-18T11:14:44Z</time>
<desc>lat.=55.660919, lon.=26.571968, Alt.=147.095825m. Speed=0.000000m/h.</desc>
<speed>0.000000</speed>
</trkpt>
<trkpt lat="55.660919" lon="26.571968">
<ele>147.095825</ele>
<time>2010-07-18T11:14:45Z</time>
<desc>lat.=55.660919, lon.=26.571968, Alt.=147.095825m. Speed=0.036000m/h.</desc>
<speed>0.010000</speed>
</trkpt>
<trkpt lat="55.660919" lon="26.571968">
<ele>147.091919</ele>
<time>2010-07-18T11:14:46Z</time>
<desc>lat.=55.660919, lon.=26.571968, Alt.=147.091919m. Speed=0.000000m/h.</desc>
<speed>0.000000</speed>
</trkpt>
<trkpt lat="55.660919" lon="26.571968">
<ele>147.091919</ele>
<time>2010-07-18T11:14:47Z</time>
<desc>lat.=55.660919, lon.=26.571968, Alt.=147.091919m. Speed=0.000000m/h.</desc>
<speed>0.000000</speed>
</trkpt>
<trkpt lat="55.660919" lon="26.571968">
<ele>147.088013</ele>
<time>2010-07-18T11:14:48Z</time>
<desc>lat.=55.660919, lon.=26.571968, Alt.=147.088013m. Speed=0.000000m/h.</desc>
<speed>0.000000</speed>
</trkpt>
<trkpt lat="55.660919" lon="26.571968">
<ele>147.084106</ele>
<time>2010-07-18T11:14:49Z</time>
<desc>lat.=55.660919, lon.=26.571968, Alt.=147.084106m. Speed=0.000000m/h.</desc>
<speed>0.000000</speed>
</trkpt>
<trkpt lat="55.660919" lon="26.571968">
<ele>147.084106</ele>
<time>2010-07-18T11:14:50Z</time>
<desc>lat.=55.660919, lon.=26.571968, Alt.=147.084106m. Speed=0.000000m/h.</desc>
<speed>0.000000</speed>
</trkpt>
<trkpt lat="55.660919" lon="26.571968">
<ele>147.080200</ele>
<time>2010-07-18T11:14:51Z</time>
<desc>lat.=55.660919, lon.=26.571968, Alt.=147.080200m. Speed=0.000000m/h.</desc>
<speed>0.000000</speed>
</trkpt>
<trkpt lat="55.660919" lon="26.571970">
<ele>147.080200</ele>
<time>2010-07-18T11:14:52Z</time>
<desc>lat.=55.660919, lon.=26.571970, Alt.=147.080200m. Speed=0.000000m/h.</desc>
<speed>0.000000</speed>
</trkpt>
<trkpt lat="55.660919" lon="26.571970">
<ele>147.076294</ele>
<time>2010-07-18T11:14:53Z</time>
<desc>lat.=55.660919, lon.=26.571970, Alt.=147.076294m. Speed=0.000000m/h.</desc>
<speed>0.000000</speed>
</trkpt>
<trkpt lat="55.660919" lon="26.571970">
<ele>147.076294</ele>
<time>2010-07-18T11:14:54Z</time>
<desc>lat.=55.660919, lon.=26.571970, Alt.=147.076294m. Speed=0.000000m/h.</desc>
<speed>0.000000</speed>
</trkpt>
<trkpt lat="55.660919" lon="26.571970">
<ele>147.076294</ele>
<time>2010-07-18T11:14:55Z</time>
<desc>lat.=55.660919, lon.=26.571970, Alt.=147.076294m. Speed=0.000000m/h.</desc>
<speed>0.000000</speed>
</trkpt>
<trkpt lat="55.660919" lon="26.571970">
<ele>147.072388</ele>
<time>2010-07-18T11:14:56Z</time>
<desc>lat.=55.660919, lon.=26.571970, Alt.=147.072388m. Speed=0.000000m/h.</desc>
<speed>0.000000</speed>
</trkpt>
<trkpt lat="55.660919" lon="26.571970">
<ele>147.072388</ele>
<time>2010-07-18T11:14:57Z</time>
<desc>lat.=55.660919, lon.=26.571970, Alt.=147.072388m. Speed=0.000000m/h.</desc>
<speed>0.000000</speed>
</trkpt>
<trkpt lat="55.660919" lon="26.571970">
<ele>147.068481</ele>
<time>2010-07-18T11:14:58Z</time>
<desc>lat.=55.660919, lon.=26.571970, Alt.=147.068481m. Speed=0.000000m/h.</desc>
<speed>0.000000</speed>
</trkpt>
<trkpt lat="55.660919" lon="26.571970">
<ele>147.068481</ele>
<time>2010-07-18T11:14:59Z</time>
<desc>lat.=55.660919, lon.=26.571970, Alt.=147.068481m. Speed=0.000000m/h.</desc>
<speed>0.000000</speed>
</trkpt>
<trkpt lat="55.660919" lon="26.571970">
<ele>147.068481</ele>
<time>2010-07-18T11:15:00Z</time>
<desc>lat.=55.660919, lon.=26.571970, Alt.=147.068481m. Speed=0.000000m/h.</desc>
<speed>0.000000</speed>
</trkpt>
<trkpt lat="55.660919" lon="26.571970">
<ele>147.068481</ele>
<time>2010-07-18T11:15:01Z</time>
<desc>lat.=55.660919, lon.=26.571970, Alt.=147.068481m. Speed=0.000000m/h.</desc>
<speed>0.000000</speed>
</trkpt>
<trkpt lat="55.660919" lon="26.571970">
<ele>147.068481</ele>
<time>2010-07-18T11:15:02Z</time>
<desc>lat.=55.660919, lon.=26.571970, Alt.=147.068481m. Speed=0.000000m/h.</desc>
<speed>0.000000</speed>
</trkpt>
<trkpt lat="55.660919" lon="26.571970">
<ele>147.068481</ele>
<time>2010-07-18T11:15:03Z</time>
<desc>lat.=55.660919, lon.=26.571970, Alt.=147.068481m. Speed=0.036000m/h.</desc>
<speed>0.010000</speed>
</trkpt>
<trkpt lat="55.660919" lon="26.571970">
<ele>147.068481</ele>
<time>2010-07-18T11:15:04Z</time>
<desc>lat.=55.660919, lon.=26.571970, Alt.=147.068481m. Speed=0.000000m/h.</desc>
<speed>0.000000</speed>
</trkpt>
<trkpt lat="55.660919" lon="26.571970">
<ele>147.064575</ele>
<time>2010-07-18T11:15:05Z</time>
<desc>lat.=55.660919, lon.=26.571970, Alt.=147.064575m. Speed=0.000000m/h.</desc>
<speed>0.000000</speed>
</trkpt>
<trkpt lat="55.660919" lon="26.571970">
<ele>147.064575</ele>
<time>2010-07-18T11:15:06Z</time>
<desc>lat.=55.660919, lon.=26.571970, Alt.=147.064575m. Speed=0.000000m/h.</desc>
<speed>0.000000</speed>
</trkpt>
<trkpt lat="55.660919" lon="26.571970">
<ele>147.060669</ele>
<time>2010-07-18T11:15:07Z</time>
<desc>lat.=55.660919, lon.=26.571970, Alt.=147.060669m. Speed=0.000000m/h.</desc>
<speed>0.000000</speed>
</trkpt>
<trkpt lat="55.660919" lon="26.571970">
<ele>147.060669</ele>
<time>2010-07-18T11:15:08Z</time>
<desc>lat.=55.660919, lon.=26.571970, Alt.=147.060669m. Speed=0.000000m/h.</desc>
<speed>0.000000</speed>
</trkpt>
<trkpt lat="55.660919" lon="26.571968">
<ele>147.056763</ele>
<time>2010-07-18T11:15:09Z</time>
<desc>lat.=55.660919, lon.=26.571968, Alt.=147.056763m. Speed=0.000000m/h.</desc>
<speed>0.000000</speed>
</trkpt>
<trkpt lat="55.660919" lon="26.571968">
<ele>147.056763</ele>
<time>2010-07-18T11:15:10Z</time>
<desc>lat.=55.660919, lon.=26.571968, Alt.=147.056763m. Speed=0.000000m/h.</desc>
<speed>0.000000</speed>
</trkpt>
<trkpt lat="55.660919" lon="26.571968">
<ele>147.052856</ele>
<time>2010-07-18T11:15:11Z</time>
<desc>lat.=55.660919, lon.=26.571968, Alt.=147.052856m. Speed=0.000000m/h.</desc>
<speed>0.000000</speed>
</trkpt>
<trkpt lat="55.660919" lon="26.571968">
<ele>147.048950</ele>
<time>2010-07-18T11:15:12Z</time>
<desc>lat.=55.660919, lon.=26.571968, Alt.=147.048950m. Speed=0.000000m/h.</desc>
<speed>0.000000</speed>
</trkpt>
<trkpt lat="55.660919" lon="26.571968">
<ele>147.048950</ele>
<time>2010-07-18T11:15:13Z</time>
<desc>lat.=55.660919, lon.=26.571968, Alt.=147.048950m. Speed=0.000000m/h.</desc>
<speed>0.000000</speed>
</trkpt>
<trkpt lat="55.660919" lon="26.571968">
<ele>147.041138</ele>
<time>2010-07-18T11:15:14Z</time>
<desc>lat.=55.660919, lon.=26.571968, Alt.=147.041138m. Speed=0.000000m/h.</desc>
<speed>0.000000</speed>
</trkpt>
<trkpt lat="55.660919" lon="26.571968">
<ele>147.041138</ele>
<time>2010-07-18T11:15:15Z</time>
<desc>lat.=55.660919, lon.=26.571968, Alt.=147.041138m. Speed=0.000000m/h.</desc>
<speed>0.000000</speed>
</trkpt>
<trkpt lat="55.660919" lon="26.571968">
<ele>147.037231</ele>
<time>2010-07-18T11:15:16Z</time>
<desc>lat.=55.660919, lon.=26.571968, Alt.=147.037231m. Speed=0.000000m/h.</desc>
<speed>0.000000</speed>
</trkpt>
<trkpt lat="55.660919" lon="26.571968">
<ele>147.037231</ele>
<time>2010-07-18T11:15:17Z</time>
<desc>lat.=55.660919, lon.=26.571968, Alt.=147.037231m. Speed=0.000000m/h.</desc>
<speed>0.000000</speed>
</trkpt>
<trkpt lat="55.660919" lon="26.571968">
<ele>147.037231</ele>
<time>2010-07-18T11:15:18Z</time>
<desc>lat.=55.660919, lon.=26.571968, Alt.=147.037231m. Speed=0.000000m/h.</desc>
<speed>0.000000</speed>
</trkpt>
<trkpt lat="55.660919" lon="26.571968">
<ele>147.037231</ele>
<time>2010-07-18T11:15:19Z</time>
<desc>lat.=55.660919, lon.=26.571968, Alt.=147.037231m. Speed=0.000000m/h.</desc>
<speed>0.000000</speed>
</trkpt>
<trkpt lat="55.660919" lon="26.571968">
<ele>147.033325</ele>
<time>2010-07-18T11:15:20Z</time>
<desc>lat.=55.660919, lon.=26.571968, Alt.=147.033325m. Speed=0.000000m/h.</desc>
<speed>0.000000</speed>
</trkpt>
<trkpt lat="55.660919" lon="26.571968">
<ele>147.033325</ele>
<time>2010-07-18T11:15:21Z</time>
<desc>lat.=55.660919, lon.=26.571968, Alt.=147.033325m. Speed=0.000000m/h.</desc>
<speed>0.000000</speed>
</trkpt>
<trkpt lat="55.660919" lon="26.571968">
<ele>147.033325</ele>
<time>2010-07-18T11:15:22Z</time>
<desc>lat.=55.660919, lon.=26.571968, Alt.=147.033325m. Speed=0.000000m/h.</desc>
<speed>0.000000</speed>
</trkpt>
<trkpt lat="55.660919" lon="26.571968">
<ele>147.029419</ele>
<time>2010-07-18T11:15:23Z</time>
<desc>lat.=55.660919, lon.=26.571968, Alt.=147.029419m. Speed=0.000000m/h.</desc>
<speed>0.000000</speed>
</trkpt>
<trkpt lat="55.660919" lon="26.571968">
<ele>147.029419</ele>
<time>2010-07-18T11:15:24Z</time>
<desc>lat.=55.660919, lon.=26.571968, Alt.=147.029419m. Speed=0.000000m/h.</desc>
<speed>0.000000</speed>
</trkpt>
<trkpt lat="55.660919" lon="26.571968">
<ele>147.025513</ele>
<time>2010-07-18T11:15:25Z</time>
<desc>lat.=55.660919, lon.=26.571968, Alt.=147.025513m. Speed=0.000000m/h.</desc>
<speed>0.000000</speed>
</trkpt>
<trkpt lat="55.660919" lon="26.571968">
<ele>147.025513</ele>
<time>2010-07-18T11:15:26Z</time>
<desc>lat.=55.660919, lon.=26.571968, Alt.=147.025513m. Speed=0.000000m/h.</desc>
<speed>0.000000</speed>
</trkpt>
<trkpt lat="55.660919" lon="26.571968">
<ele>147.021606</ele>
<time>2010-07-18T11:15:27Z</time>
<desc>lat.=55.660919, lon.=26.571968, Alt.=147.021606m. Speed=0.000000m/h.</desc>
<speed>0.000000</speed>
</trkpt>
<trkpt lat="55.660919" lon="26.571968">
<ele>147.021606</ele>
<time>2010-07-18T11:15:28Z</time>
<desc>lat.=55.660919, lon.=26.571968, Alt.=147.021606m. Speed=0.000000m/h.</desc>
<speed>0.000000</speed>
</trkpt>
<trkpt lat="55.660919" lon="26.571968">
<ele>147.021606</ele>
<time>2010-07-18T11:15:29Z</time>
<desc>lat.=55.660919, lon.=26.571968, Alt.=147.021606m. Speed=0.000000m/h.</desc>
<speed>0.000000</speed>
</trkpt>
<trkpt lat="55.660919" lon="26.571968">
<ele>147.021606</ele>
<time>2010-07-18T11:15:30Z</time>
<desc>lat.=55.660919, lon.=26.571968, Alt.=147.021606m. Speed=0.000000m/h.</desc>
<speed>0.000000</speed>
</trkpt>
<trkpt lat="55.660919" lon="26.571968">
<ele>147.017700</ele>
<time>2010-07-18T11:15:31Z</time>
<desc>lat.=55.660919, lon.=26.571968, Alt.=147.017700m. Speed=0.000000m/h.</desc>
<speed>0.000000</speed>
</trkpt>
<trkpt lat="55.660919" lon="26.571968">
<ele>147.017700</ele>
<time>2010-07-18T11:15:32Z</time>
<desc>lat.=55.660919, lon.=26.571968, Alt.=147.017700m. Speed=0.000000m/h.</desc>
<speed>0.000000</speed>
</trkpt>
<trkpt lat="55.660919" lon="26.571968">
<ele>147.017700</ele>
<time>2010-07-18T11:15:33Z</time>
<desc>lat.=55.660919, lon.=26.571968, Alt.=147.017700m. Speed=0.000000m/h.</desc>
<speed>0.000000</speed>
</trkpt>
<trkpt lat="55.660919" lon="26.571968">
<ele>147.013794</ele>
<time>2010-07-18T11:15:34Z</time>
<desc>lat.=55.660919, lon.=26.571968, Alt.=147.013794m. Speed=0.000000m/h.</desc>
<speed>0.000000</speed>
</trkpt>
<trkpt lat="55.660919" lon="26.571968">
<ele>147.013794</ele>
<time>2010-07-18T11:15:35Z</time>
<desc>lat.=55.660919, lon.=26.571968, Alt.=147.013794m. Speed=0.000000m/h.</desc>
<speed>0.000000</speed>
</trkpt>
<trkpt lat="55.660919" lon="26.571968">
<ele>147.013794</ele>
<time>2010-07-18T11:15:36Z</time>
<desc>lat.=55.660919, lon.=26.571968, Alt.=147.013794m. Speed=0.000000m/h.</desc>
<speed>0.000000</speed>
</trkpt>
<trkpt lat="55.660919" lon="26.571968">
<ele>147.013794</ele>
<time>2010-07-18T11:15:37Z</time>
<desc>lat.=55.660919, lon.=26.571968, Alt.=147.013794m. Speed=0.000000m/h.</desc>
<speed>0.000000</speed>
</trkpt>
<trkpt lat="55.660919" lon="26.571968">
<ele>147.009888</ele>
<time>2010-07-18T11:15:38Z</time>
<desc>lat.=55.660919, lon.=26.571968, Alt.=147.009888m. Speed=0.000000m/h.</desc>
<speed>0.000000</speed>
</trkpt>
<trkpt lat="55.660919" lon="26.571968">
<ele>147.009888</ele>
<time>2010-07-18T11:15:39Z</time>
<desc>lat.=55.660919, lon.=26.571968, Alt.=147.009888m. Speed=0.000000m/h.</desc>
<speed>0.000000</speed>
</trkpt>
<trkpt lat="55.660919" lon="26.571968">
<ele>147.005981</ele>
<time>2010-07-18T11:15:40Z</time>
<desc>lat.=55.660919, lon.=26.571968, Alt.=147.005981m. Speed=0.036000m/h.</desc>
<speed>0.010000</speed>
</trkpt>
<trkpt lat="55.660919" lon="26.571968">
<ele>147.005981</ele>
<time>2010-07-18T11:15:41Z</time>
<desc>lat.=55.660919, lon.=26.571968, Alt.=147.005981m. Speed=0.000000m/h.</desc>
<speed>0.000000</speed>
</trkpt>
<trkpt lat="55.660919" lon="26.571968">
<ele>147.005981</ele>
<time>2010-07-18T11:15:42Z</time>
<desc>lat.=55.660919, lon.=26.571968, Alt.=147.005981m. Speed=0.000000m/h.</desc>
<speed>0.000000</speed>
</trkpt>
<trkpt lat="55.660919" lon="26.571968">
<ele>147.005981</ele>
<time>2010-07-18T11:15:43Z</time>
<desc>lat.=55.660919, lon.=26.571968, Alt.=147.005981m. Speed=0.000000m/h.</desc>
<speed>0.000000</speed>
</trkpt>
<trkpt lat="55.660919" lon="26.571968">
<ele>147.005981</ele>
<time>2010-07-18T11:15:44Z</time>
<desc>lat.=55.660919, lon.=26.571968, Alt.=147.005981m. Speed=0.000000m/h.</desc>
<speed>0.000000</speed>
</trkpt>
<trkpt lat="55.660919" lon="26.571968">
<ele>147.005981</ele>
<time>2010-07-18T11:15:45Z</time>
<desc>lat.=55.660919, lon.=26.571968, Alt.=147.005981m. Speed=0.000000m/h.</desc>
<speed>0.000000</speed>
</trkpt>
<trkpt lat="55.660919" lon="26.571968">
<ele>147.005981</ele>
<time>2010-07-18T11:15:46Z</time>
<desc>lat.=55.660919, lon.=26.571968, Alt.=147.005981m. Speed=0.000000m/h.</desc>
<speed>0.000000</speed>
</trkpt>
<trkpt lat="55.660919" lon="26.571968">
<ele>147.002075</ele>
<time>2010-07-18T11:15:47Z</time>
<desc>lat.=55.660919, lon.=26.571968, Alt.=147.002075m. Speed=0.000000m/h.</desc>
<speed>0.000000</speed>
</trkpt>
<trkpt lat="55.660919" lon="26.571968">
<ele>147.002075</ele>
<time>2010-07-18T11:15:48Z</time>
<desc>lat.=55.660919, lon.=26.571968, Alt.=147.002075m. Speed=0.000000m/h.</desc>
<speed>0.000000</speed>
</trkpt>
<trkpt lat="55.660919" lon="26.571968">
<ele>147.002075</ele>
<time>2010-07-18T11:15:49Z</time>
<desc>lat.=55.660919, lon.=26.571968, Alt.=147.002075m. Speed=0.000000m/h.</desc>
<speed>0.000000</speed>
</trkpt>
<trkpt lat="55.660919" lon="26.571968">
<ele>147.002075</ele>
<time>2010-07-18T11:15:50Z</time>
<desc>lat.=55.660919, lon.=26.571968, Alt.=147.002075m. Speed=0.000000m/h.</desc>
<speed>0.000000</speed>
</trkpt>
<trkpt lat="55.660919" lon="26.571968">
<ele>147.002075</ele>
<time>2010-07-18T11:15:51Z</time>
<desc>lat.=55.660919, lon.=26.571968, Alt.=147.002075m. Speed=0.000000m/h.</desc>
<speed>0.000000</speed>
</trkpt>
<trkpt lat="55.660919" lon="26.571968">
<ele>147.002075</ele>
<time>2010-07-18T11:15:52Z</time>
<desc>lat.=55.660919, lon.=26.571968, Alt.=147.002075m. Speed=0.000000m/h.</desc>
<speed>0.000000</speed>
</trkpt>
<trkpt lat="55.660919" lon="26.571968">
<ele>147.002075</ele>
<time>2010-07-18T11:15:53Z</time>
<desc>lat.=55.660919, lon.=26.571968, Alt.=147.002075m. Speed=0.000000m/h.</desc>
<speed>0.000000</speed>
</trkpt>
<trkpt lat="55.660919" lon="26.571968">
<ele>147.002075</ele>
<time>2010-07-18T11:15:54Z</time>
<desc>lat.=55.660919, lon.=26.571968, Alt.=147.002075m. Speed=0.000000m/h.</desc>
<speed>0.000000</speed>
</trkpt>
<trkpt lat="55.660919" lon="26.571968">
<ele>146.998169</ele>
<time>2010-07-18T11:15:55Z</time>
<desc>lat.=55.660919, lon.=26.571968, Alt.=146.998169m. Speed=0.000000m/h.</desc>
<speed>0.000000</speed>
</trkpt>
<trkpt lat="55.660919" lon="26.571968">
<ele>146.998169</ele>
<time>2010-07-18T11:15:56Z</time>
<desc>lat.=55.660919, lon.=26.571968, Alt.=146.998169m. Speed=0.000000m/h.</desc>
<speed>0.000000</speed>
</trkpt>
<trkpt lat="55.660919" lon="26.571968">
<ele>146.994263</ele>
<time>2010-07-18T11:15:57Z</time>
<desc>lat.=55.660919, lon.=26.571968, Alt.=146.994263m. Speed=0.000000m/h.</desc>
<speed>0.000000</speed>
</trkpt>
<trkpt lat="55.660919" lon="26.571968">
<ele>146.994263</ele>
<time>2010-07-18T11:15:58Z</time>
<desc>lat.=55.660919, lon.=26.571968, Alt.=146.994263m. Speed=0.000000m/h.</desc>
<speed>0.000000</speed>
</trkpt>
<trkpt lat="55.660919" lon="26.571968">
<ele>146.994263</ele>
<time>2010-07-18T11:15:59Z</time>
<desc>lat.=55.660919, lon.=26.571968, Alt.=146.994263m. Speed=0.000000m/h.</desc>
<speed>0.000000</speed>
</trkpt>
<trkpt lat="55.660919" lon="26.571966">
<ele>146.990356</ele>
<time>2010-07-18T11:16:00Z</time>
<desc>lat.=55.660919, lon.=26.571966, Alt.=146.990356m. Speed=0.000000m/h.</desc>
<speed>0.000000</speed>
</trkpt>
<trkpt lat="55.660919" lon="26.571966">
<ele>146.990356</ele>
<time>2010-07-18T11:16:01Z</time>
<desc>lat.=55.660919, lon.=26.571966, Alt.=146.990356m. Speed=0.000000m/h.</desc>
<speed>0.000000</speed>
</trkpt>
<trkpt lat="55.660923" lon="26.571968">
<ele>146.990356</ele>
<time>2010-07-18T11:16:02Z</time>
<desc>lat.=55.660923, lon.=26.571968, Alt.=146.990356m. Speed=0.000000m/h.</desc>
<speed>0.000000</speed>
</trkpt>
<trkpt lat="55.660923" lon="26.571968">
<ele>146.990356</ele>
<time>2010-07-18T11:16:03Z</time>
<desc>lat.=55.660923, lon.=26.571968, Alt.=146.990356m. Speed=0.000000m/h.</desc>
<speed>0.000000</speed>
</trkpt>
<trkpt lat="55.660923" lon="26.571966">
<ele>146.990356</ele>
<time>2010-07-18T11:16:04Z</time>
<desc>lat.=55.660923, lon.=26.571966, Alt.=146.990356m. Speed=0.000000m/h.</desc>
<speed>0.000000</speed>
</trkpt>
<trkpt lat="55.660923" lon="26.571966">
<ele>146.994263</ele>
<time>2010-07-18T11:16:05Z</time>
<desc>lat.=55.660923, lon.=26.571966, Alt.=146.994263m. Speed=0.000000m/h.</desc>
<speed>0.000000</speed>
</trkpt>
<trkpt lat="55.660923" lon="26.571966">
<ele>146.990356</ele>
<time>2010-07-18T11:16:06Z</time>
<desc>lat.=55.660923, lon.=26.571966, Alt.=146.990356m. Speed=0.036000m/h.</desc>
<speed>0.010000</speed>
</trkpt>
<trkpt lat="55.660923" lon="26.571966">
<ele>146.990356</ele>
<time>2010-07-18T11:16:07Z</time>
<desc>lat.=55.660923, lon.=26.571966, Alt.=146.990356m. Speed=0.000000m/h.</desc>
<speed>0.000000</speed>
</trkpt>
<trkpt lat="55.660923" lon="26.571966">
<ele>146.986450</ele>
<time>2010-07-18T11:16:08Z</time>
<desc>lat.=55.660923, lon.=26.571966, Alt.=146.986450m. Speed=0.000000m/h.</desc>
<speed>0.000000</speed>
</trkpt>
<trkpt lat="55.660923" lon="26.571966">
<ele>146.986450</ele>
<time>2010-07-18T11:16:09Z</time>
<desc>lat.=55.660923, lon.=26.571966, Alt.=146.986450m. Speed=0.000000m/h.</desc>
<speed>0.000000</speed>
</trkpt>
<trkpt lat="55.660923" lon="26.571966">
<ele>146.986450</ele>
<time>2010-07-18T11:16:10Z</time>
<desc>lat.=55.660923, lon.=26.571966, Alt.=146.986450m. Speed=0.000000m/h.</desc>
<speed>0.000000</speed>
</trkpt>
<trkpt lat="55.660923" lon="26.571966">
<ele>146.982544</ele>
<time>2010-07-18T11:16:11Z</time>
<desc>lat.=55.660923, lon.=26.571966, Alt.=146.982544m. Speed=0.000000m/h.</desc>
<speed>0.000000</speed>
</trkpt>
<trkpt lat="55.660923" lon="26.571966">
<ele>146.982544</ele>
<time>2010-07-18T11:16:12Z</time>
<desc>lat.=55.660923, lon.=26.571966, Alt.=146.982544m. Speed=0.000000m/h.</desc>
<speed>0.000000</speed>
</trkpt>
<trkpt lat="55.660923" lon="26.571966">
<ele>146.982544</ele>
<time>2010-07-18T11:16:13Z</time>
<desc>lat.=55.660923, lon.=26.571966, Alt.=146.982544m. Speed=0.000000m/h.</desc>
<speed>0.000000</speed>
</trkpt>
<trkpt lat="55.660923" lon="26.571966">
<ele>146.982544</ele>
<time>2010-07-18T11:16:14Z</time>
<desc>lat.=55.660923, lon.=26.571966, Alt.=146.982544m. Speed=0.036000m/h.</desc>
<speed>0.010000</speed>
</trkpt>
<trkpt lat="55.660923" lon="26.571966">
<ele>146.978638</ele>
<time>2010-07-18T11:16:15Z</time>
<desc>lat.=55.660923, lon.=26.571966, Alt.=146.978638m. Speed=0.000000m/h.</desc>
<speed>0.000000</speed>
</trkpt>
<trkpt lat="55.660923" lon="26.571966">
<ele>146.978638</ele>
<time>2010-07-18T11:16:16Z</time>
<desc>lat.=55.660923, lon.=26.571966, Alt.=146.978638m. Speed=0.000000m/h.</desc>
<speed>0.000000</speed>
</trkpt>
<trkpt lat="55.660923" lon="26.571966">
<ele>146.974731</ele>
<time>2010-07-18T11:16:17Z</time>
<desc>lat.=55.660923, lon.=26.571966, Alt.=146.974731m. Speed=0.000000m/h.</desc>
<speed>0.000000</speed>
</trkpt>
<trkpt lat="55.660923" lon="26.571966">
<ele>146.970825</ele>
<time>2010-07-18T11:16:18Z</time>
<desc>lat.=55.660923, lon.=26.571966, Alt.=146.970825m. Speed=0.000000m/h.</desc>
<speed>0.000000</speed>
</trkpt>
<trkpt lat="55.660923" lon="26.571966">
<ele>146.970825</ele>
<time>2010-07-18T11:16:19Z</time>
<desc>lat.=55.660923, lon.=26.571966, Alt.=146.970825m. Speed=0.000000m/h.</desc>
<speed>0.000000</speed>
</trkpt>
<trkpt lat="55.660923" lon="26.571966">
<ele>146.966919</ele>
<time>2010-07-18T11:16:20Z</time>
<desc>lat.=55.660923, lon.=26.571966, Alt.=146.966919m. Speed=0.000000m/h.</desc>
<speed>0.000000</speed>
</trkpt>
<trkpt lat="55.660923" lon="26.571966">
<ele>146.966919</ele>
<time>2010-07-18T11:16:21Z</time>
<desc>lat.=55.660923, lon.=26.571966, Alt.=146.966919m. Speed=0.036000m/h.</desc>
<speed>0.010000</speed>
</trkpt>
<trkpt lat="55.660923" lon="26.571966">
<ele>146.963013</ele>
<time>2010-07-18T11:16:22Z</time>
<desc>lat.=55.660923, lon.=26.571966, Alt.=146.963013m. Speed=0.000000m/h.</desc>
<speed>0.000000</speed>
</trkpt>
<trkpt lat="55.660923" lon="26.571966">
<ele>146.966919</ele>
<time>2010-07-18T11:16:23Z</time>
<desc>lat.=55.660923, lon.=26.571966, Alt.=146.966919m. Speed=0.036000m/h.</desc>
<speed>0.010000</speed>
</trkpt>
<trkpt lat="55.660923" lon="26.571966">
<ele>146.963013</ele>
<time>2010-07-18T11:16:24Z</time>
<desc>lat.=55.660923, lon.=26.571966, Alt.=146.963013m. Speed=0.000000m/h.</desc>
<speed>0.000000</speed>
</trkpt>
<trkpt lat="55.660923" lon="26.571966">
<ele>146.963013</ele>
<time>2010-07-18T11:16:25Z</time>
<desc>lat.=55.660923, lon.=26.571966, Alt.=146.963013m. Speed=0.000000m/h.</desc>
<speed>0.000000</speed>
</trkpt>
<trkpt lat="55.660923" lon="26.571966">
<ele>146.959106</ele>
<time>2010-07-18T11:16:26Z</time>
<desc>lat.=55.660923, lon.=26.571966, Alt.=146.959106m. Speed=0.000000m/h.</desc>
<speed>0.000000</speed>
</trkpt>
<trkpt lat="55.660923" lon="26.571966">
<ele>146.959106</ele>
<time>2010-07-18T11:16:27Z</time>
<desc>lat.=55.660923, lon.=26.571966, Alt.=146.959106m. Speed=0.000000m/h.</desc>
<speed>0.000000</speed>
</trkpt>
<trkpt lat="55.660923" lon="26.571966">
<ele>146.955200</ele>
<time>2010-07-18T11:16:28Z</time>
<desc>lat.=55.660923, lon.=26.571966, Alt.=146.955200m. Speed=0.000000m/h.</desc>
<speed>0.000000</speed>
</trkpt>
<trkpt lat="55.660923" lon="26.571966">
<ele>146.951294</ele>
<time>2010-07-18T11:16:29Z</time>
<desc>lat.=55.660923, lon.=26.571966, Alt.=146.951294m. Speed=0.000000m/h.</desc>
<speed>0.000000</speed>
</trkpt>
<trkpt lat="55.660923" lon="26.571966">
<ele>146.951294</ele>
<time>2010-07-18T11:16:30Z</time>
<desc>lat.=55.660923, lon.=26.571966, Alt.=146.951294m. Speed=0.000000m/h.</desc>
<speed>0.000000</speed>
</trkpt>
<trkpt lat="55.660923" lon="26.571966">
<ele>146.951294</ele>
<time>2010-07-18T11:16:31Z</time>
<desc>lat.=55.660923, lon.=26.571966, Alt.=146.951294m. Speed=0.000000m/h.</desc>
<speed>0.000000</speed>
</trkpt>
<trkpt lat="55.660923" lon="26.571966">
<ele>146.951294</ele>
<time>2010-07-18T11:16:32Z</time>
<desc>lat.=55.660923, lon.=26.571966, Alt.=146.951294m. Speed=0.000000m/h.</desc>
<speed>0.000000</speed>
</trkpt>
<trkpt lat="55.660923" lon="26.571966">
<ele>146.951294</ele>
<time>2010-07-18T11:16:33Z</time>
<desc>lat.=55.660923, lon.=26.571966, Alt.=146.951294m. Speed=0.000000m/h.</desc>
<speed>0.000000</speed>
</trkpt>
<trkpt lat="55.660923" lon="26.571966">
<ele>146.951294</ele>
<time>2010-07-18T11:16:34Z</time>
<desc>lat.=55.660923, lon.=26.571966, Alt.=146.951294m. Speed=0.000000m/h.</desc>
<speed>0.000000</speed>
</trkpt>
<trkpt lat="55.660923" lon="26.571966">
<ele>146.947388</ele>
<time>2010-07-18T11:16:35Z</time>
<desc>lat.=55.660923, lon.=26.571966, Alt.=146.947388m. Speed=0.000000m/h.</desc>
<speed>0.000000</speed>
</trkpt>
<trkpt lat="55.660923" lon="26.571966">
<ele>146.947388</ele>
<time>2010-07-18T11:16:36Z</time>
<desc>lat.=55.660923, lon.=26.571966, Alt.=146.947388m. Speed=0.000000m/h.</desc>
<speed>0.000000</speed>
</trkpt>
<trkpt lat="55.660923" lon="26.571966">
<ele>146.947388</ele>
<time>2010-07-18T11:16:37Z</time>
<desc>lat.=55.660923, lon.=26.571966, Alt.=146.947388m. Speed=0.000000m/h.</desc>
<speed>0.000000</speed>
</trkpt>
<trkpt lat="55.660923" lon="26.571966">
<ele>146.951294</ele>
<time>2010-07-18T11:16:38Z</time>
<desc>lat.=55.660923, lon.=26.571966, Alt.=146.951294m. Speed=0.000000m/h.</desc>
<speed>0.000000</speed>
</trkpt>
<trkpt lat="55.660923" lon="26.571966">
<ele>146.947388</ele>
<time>2010-07-18T11:16:39Z</time>
<desc>lat.=55.660923, lon.=26.571966, Alt.=146.947388m. Speed=0.000000m/h.</desc>
<speed>0.000000</speed>
</trkpt>
<trkpt lat="55.660923" lon="26.571966">
<ele>146.951294</ele>
<time>2010-07-18T11:16:40Z</time>
<desc>lat.=55.660923, lon.=26.571966, Alt.=146.951294m. Speed=0.000000m/h.</desc>
<speed>0.000000</speed>
</trkpt>
<trkpt lat="55.660923" lon="26.571966">
<ele>146.951294</ele>
<time>2010-07-18T11:16:41Z</time>
<desc>lat.=55.660923, lon.=26.571966, Alt.=146.951294m. Speed=0.000000m/h.</desc>
<speed>0.000000</speed>
</trkpt>
<trkpt lat="55.660923" lon="26.571966">
<ele>146.951294</ele>
<time>2010-07-18T11:16:42Z</time>
<desc>lat.=55.660923, lon.=26.571966, Alt.=146.951294m. Speed=0.000000m/h.</desc>
<speed>0.000000</speed>
</trkpt>
<trkpt lat="55.660923" lon="26.571966">
<ele>146.951294</ele>
<time>2010-07-18T11:16:43Z</time>
<desc>lat.=55.660923, lon.=26.571966, Alt.=146.951294m. Speed=0.000000m/h.</desc>
<speed>0.000000</speed>
</trkpt>
<trkpt lat="55.660923" lon="26.571966">
<ele>146.955200</ele>
<time>2010-07-18T11:16:44Z</time>
<desc>lat.=55.660923, lon.=26.571966, Alt.=146.955200m. Speed=0.000000m/h.</desc>
<speed>0.000000</speed>
</trkpt>
<trkpt lat="55.660923" lon="26.571966">
<ele>146.955200</ele>
<time>2010-07-18T11:16:45Z</time>
<desc>lat.=55.660923, lon.=26.571966, Alt.=146.955200m. Speed=0.000000m/h.</desc>
<speed>0.000000</speed>
</trkpt>
<trkpt lat="55.660923" lon="26.571966">
<ele>146.959106</ele>
<time>2010-07-18T11:16:46Z</time>
<desc>lat.=55.660923, lon.=26.571966, Alt.=146.959106m. Speed=0.000000m/h.</desc>
<speed>0.000000</speed>
</trkpt>
<trkpt lat="55.660923" lon="26.571966">
<ele>146.963013</ele>
<time>2010-07-18T11:16:47Z</time>
<desc>lat.=55.660923, lon.=26.571966, Alt.=146.963013m. Speed=0.000000m/h.</desc>
<speed>0.000000</speed>
</trkpt>
<trkpt lat="55.660923" lon="26.571966">
<ele>146.963013</ele>
<time>2010-07-18T11:16:48Z</time>
<desc>lat.=55.660923, lon.=26.571966, Alt.=146.963013m. Speed=0.000000m/h.</desc>
<speed>0.000000</speed>
</trkpt>
<trkpt lat="55.660923" lon="26.571966">
<ele>146.966919</ele>
<time>2010-07-18T11:16:49Z</time>
<desc>lat.=55.660923, lon.=26.571966, Alt.=146.966919m. Speed=0.000000m/h.</desc>
<speed>0.000000</speed>
</trkpt>
<trkpt lat="55.660923" lon="26.571966">
<ele>146.966919</ele>
<time>2010-07-18T11:16:50Z</time>
<desc>lat.=55.660923, lon.=26.571966, Alt.=146.966919m. Speed=0.000000m/h.</desc>
<speed>0.000000</speed>
</trkpt>
<trkpt lat="55.660923" lon="26.571966">
<ele>146.966919</ele>
<time>2010-07-18T11:16:51Z</time>
<desc>lat.=55.660923, lon.=26.571966, Alt.=146.966919m. Speed=0.000000m/h.</desc>
<speed>0.000000</speed>
</trkpt>
<trkpt lat="55.660923" lon="26.571966">
<ele>146.970825</ele>
<time>2010-07-18T11:16:52Z</time>
<desc>lat.=55.660923, lon.=26.571966, Alt.=146.970825m. Speed=0.000000m/h.</desc>
<speed>0.000000</speed>
</trkpt>
<trkpt lat="55.660923" lon="26.571966">
<ele>146.970825</ele>
<time>2010-07-18T11:16:53Z</time>
<desc>lat.=55.660923, lon.=26.571966, Alt.=146.970825m. Speed=0.000000m/h.</desc>
<speed>0.000000</speed>
</trkpt>
<trkpt lat="55.660923" lon="26.571966">
<ele>146.970825</ele>
<time>2010-07-18T11:16:54Z</time>
<desc>lat.=55.660923, lon.=26.571966, Alt.=146.970825m. Speed=0.000000m/h.</desc>
<speed>0.000000</speed>
</trkpt>
<trkpt lat="55.660923" lon="26.571966">
<ele>146.970825</ele>
<time>2010-07-18T11:16:55Z</time>
<desc>lat.=55.660923, lon.=26.571966, Alt.=146.970825m. Speed=0.000000m/h.</desc>
<speed>0.000000</speed>
</trkpt>
<trkpt lat="55.660923" lon="26.571966">
<ele>146.966919</ele>
<time>2010-07-18T11:16:56Z</time>
<desc>lat.=55.660923, lon.=26.571966, Alt.=146.966919m. Speed=0.000000m/h.</desc>
<speed>0.000000</speed>
</trkpt>
<trkpt lat="55.660923" lon="26.571966">
<ele>146.970825</ele>
<time>2010-07-18T11:16:57Z</time>
<desc>lat.=55.660923, lon.=26.571966, Alt.=146.970825m. Speed=0.000000m/h.</desc>
<speed>0.000000</speed>
</trkpt>
<trkpt lat="55.660923" lon="26.571966">
<ele>146.966919</ele>
<time>2010-07-18T11:16:58Z</time>
<desc>lat.=55.660923, lon.=26.571966, Alt.=146.966919m. Speed=0.000000m/h.</desc>
<speed>0.000000</speed>
</trkpt>
<trkpt lat="55.660923" lon="26.571966">
<ele>146.966919</ele>
<time>2010-07-18T11:16:59Z</time>
<desc>lat.=55.660923, lon.=26.571966, Alt.=146.966919m. Speed=0.000000m/h.</desc>
<speed>0.000000</speed>
</trkpt>
<trkpt lat="55.660923" lon="26.571966">
<ele>146.966919</ele>
<time>2010-07-18T11:17:00Z</time>
<desc>lat.=55.660923, lon.=26.571966, Alt.=146.966919m. Speed=0.000000m/h.</desc>
<speed>0.000000</speed>
</trkpt>
<trkpt lat="55.660923" lon="26.571966">
<ele>146.963013</ele>
<time>2010-07-18T11:17:01Z</time>
<desc>lat.=55.660923, lon.=26.571966, Alt.=146.963013m. Speed=0.000000m/h.</desc>
<speed>0.000000</speed>
</trkpt>
<trkpt lat="55.660923" lon="26.571966">
<ele>146.963013</ele>
<time>2010-07-18T11:17:02Z</time>
<desc>lat.=55.660923, lon.=26.571966, Alt.=146.963013m. Speed=0.000000m/h.</desc>
<speed>0.000000</speed>
</trkpt>
<trkpt lat="55.660923" lon="26.571966">
<ele>146.955200</ele>
<time>2010-07-18T11:17:03Z</time>
<desc>lat.=55.660923, lon.=26.571966, Alt.=146.955200m. Speed=0.000000m/h.</desc>
<speed>0.000000</speed>
</trkpt>
<trkpt lat="55.660923" lon="26.571966">
<ele>146.955200</ele>
<time>2010-07-18T11:17:04Z</time>
<desc>lat.=55.660923, lon.=26.571966, Alt.=146.955200m. Speed=0.000000m/h.</desc>
<speed>0.000000</speed>
</trkpt>
<trkpt lat="55.660923" lon="26.571966">
<ele>146.947388</ele>
<time>2010-07-18T11:17:05Z</time>
<desc>lat.=55.660923, lon.=26.571966, Alt.=146.947388m. Speed=0.000000m/h.</desc>
<speed>0.000000</speed>
</trkpt>
<trkpt lat="55.660923" lon="26.571966">
<ele>146.947388</ele>
<time>2010-07-18T11:17:06Z</time>
<desc>lat.=55.660923, lon.=26.571966, Alt.=146.947388m. Speed=0.036000m/h.</desc>
<speed>0.010000</speed>
</trkpt>
<trkpt lat="55.660923" lon="26.571966">
<ele>146.943481</ele>
<time>2010-07-18T11:17:07Z</time>
<desc>lat.=55.660923, lon.=26.571966, Alt.=146.943481m. Speed=0.000000m/h.</desc>
<speed>0.000000</speed>
</trkpt>
<trkpt lat="55.660923" lon="26.571966">
<ele>146.943481</ele>
<time>2010-07-18T11:17:08Z</time>
<desc>lat.=55.660923, lon.=26.571966, Alt.=146.943481m. Speed=0.000000m/h.</desc>
<speed>0.000000</speed>
</trkpt>
<trkpt lat="55.660923" lon="26.571966">
<ele>146.939575</ele>
<time>2010-07-18T11:17:09Z</time>
<desc>lat.=55.660923, lon.=26.571966, Alt.=146.939575m. Speed=0.000000m/h.</desc>
<speed>0.000000</speed>
</trkpt>
<trkpt lat="55.660923" lon="26.571966">
<ele>146.939575</ele>
<time>2010-07-18T11:17:10Z</time>
<desc>lat.=55.660923, lon.=26.571966, Alt.=146.939575m. Speed=0.000000m/h.</desc>
<speed>0.000000</speed>
</trkpt>
<trkpt lat="55.660923" lon="26.571966">
<ele>146.935669</ele>
<time>2010-07-18T11:17:11Z</time>
<desc>lat.=55.660923, lon.=26.571966, Alt.=146.935669m. Speed=0.000000m/h.</desc>
<speed>0.000000</speed>
</trkpt>
<trkpt lat="55.660923" lon="26.571966">
<ele>146.935669</ele>
<time>2010-07-18T11:17:12Z</time>
<desc>lat.=55.660923, lon.=26.571966, Alt.=146.935669m. Speed=0.000000m/h.</desc>
<speed>0.000000</speed>
</trkpt>
<trkpt lat="55.660923" lon="26.571966">
<ele>146.931763</ele>
<time>2010-07-18T11:17:13Z</time>
<desc>lat.=55.660923, lon.=26.571966, Alt.=146.931763m. Speed=0.000000m/h.</desc>
<speed>0.000000</speed>
</trkpt>
<trkpt lat="55.660923" lon="26.571966">
<ele>146.927856</ele>
<time>2010-07-18T11:17:14Z</time>
<desc>lat.=55.660923, lon.=26.571966, Alt.=146.927856m. Speed=0.000000m/h.</desc>
<speed>0.000000</speed>
</trkpt>
<trkpt lat="55.660923" lon="26.571966">
<ele>146.927856</ele>
<time>2010-07-18T11:17:15Z</time>
<desc>lat.=55.660923, lon.=26.571966, Alt.=146.927856m. Speed=0.000000m/h.</desc>
<speed>0.000000</speed>
</trkpt>
<trkpt lat="55.660923" lon="26.571966">
<ele>146.923950</ele>
<time>2010-07-18T11:17:16Z</time>
<desc>lat.=55.660923, lon.=26.571966, Alt.=146.923950m. Speed=0.000000m/h.</desc>
<speed>0.000000</speed>
</trkpt>
<trkpt lat="55.660923" lon="26.571966">
<ele>146.923950</ele>
<time>2010-07-18T11:17:17Z</time>
<desc>lat.=55.660923, lon.=26.571966, Alt.=146.923950m. Speed=0.000000m/h.</desc>
<speed>0.000000</speed>
</trkpt>
<trkpt lat="55.660923" lon="26.571966">
<ele>146.920044</ele>
<time>2010-07-18T11:17:18Z</time>
<desc>lat.=55.660923, lon.=26.571966, Alt.=146.920044m. Speed=0.000000m/h.</desc>
<speed>0.000000</speed>
</trkpt>
<trkpt lat="55.660923" lon="26.571966">
<ele>146.920044</ele>
<time>2010-07-18T11:17:19Z</time>
<desc>lat.=55.660923, lon.=26.571966, Alt.=146.920044m. Speed=0.000000m/h.</desc>
<speed>0.000000</speed>
</trkpt>
<trkpt lat="55.660923" lon="26.571966">
<ele>146.916138</ele>
<time>2010-07-18T11:17:20Z</time>
<desc>lat.=55.660923, lon.=26.571966, Alt.=146.916138m. Speed=0.000000m/h.</desc>
<speed>0.000000</speed>
</trkpt>
<trkpt lat="55.660923" lon="26.571966">
<ele>146.912231</ele>
<time>2010-07-18T11:17:21Z</time>
<desc>lat.=55.660923, lon.=26.571966, Alt.=146.912231m. Speed=0.000000m/h.</desc>
<speed>0.000000</speed>
</trkpt>
<trkpt lat="55.660923" lon="26.571966">
<ele>146.912231</ele>
<time>2010-07-18T11:17:22Z</time>
<desc>lat.=55.660923, lon.=26.571966, Alt.=146.912231m. Speed=0.000000m/h.</desc>
<speed>0.000000</speed>
</trkpt>
<trkpt lat="55.660923" lon="26.571966">
<ele>146.908325</ele>
<time>2010-07-18T11:17:23Z</time>
<desc>lat.=55.660923, lon.=26.571966, Alt.=146.908325m. Speed=0.000000m/h.</desc>
<speed>0.000000</speed>
</trkpt>
<trkpt lat="55.660923" lon="26.571966">
<ele>146.908325</ele>
<time>2010-07-18T11:17:24Z</time>
<desc>lat.=55.660923, lon.=26.571966, Alt.=146.908325m. Speed=0.000000m/h.</desc>
<speed>0.000000</speed>
</trkpt>
<trkpt lat="55.660923" lon="26.571966">
<ele>146.904419</ele>
<time>2010-07-18T11:17:25Z</time>
<desc>lat.=55.660923, lon.=26.571966, Alt.=146.904419m. Speed=0.000000m/h.</desc>
<speed>0.000000</speed>
</trkpt>
<trkpt lat="55.660923" lon="26.571966">
<ele>146.904419</ele>
<time>2010-07-18T11:17:26Z</time>
<desc>lat.=55.660923, lon.=26.571966, Alt.=146.904419m. Speed=0.036000m/h.</desc>
<speed>0.010000</speed>
</trkpt>
<trkpt lat="55.660923" lon="26.571966">
<ele>146.900513</ele>
<time>2010-07-18T11:17:27Z</time>
<desc>lat.=55.660923, lon.=26.571966, Alt.=146.900513m. Speed=0.000000m/h.</desc>
<speed>0.000000</speed>
</trkpt>
<trkpt lat="55.660923" lon="26.571966">
<ele>146.900513</ele>
<time>2010-07-18T11:17:28Z</time>
<desc>lat.=55.660923, lon.=26.571966, Alt.=146.900513m. Speed=0.000000m/h.</desc>
<speed>0.000000</speed>
</trkpt>
<trkpt lat="55.660923" lon="26.571966">
<ele>146.896606</ele>
<time>2010-07-18T11:17:29Z</time>
<desc>lat.=55.660923, lon.=26.571966, Alt.=146.896606m. Speed=0.000000m/h.</desc>
<speed>0.000000</speed>
</trkpt>
<trkpt lat="55.660923" lon="26.571966">
<ele>146.896606</ele>
<time>2010-07-18T11:17:30Z</time>
<desc>lat.=55.660923, lon.=26.571966, Alt.=146.896606m. Speed=0.000000m/h.</desc>
<speed>0.000000</speed>
</trkpt>
<trkpt lat="55.660923" lon="26.571966">
<ele>146.892700</ele>
<time>2010-07-18T11:17:31Z</time>
<desc>lat.=55.660923, lon.=26.571966, Alt.=146.892700m. Speed=0.000000m/h.</desc>
<speed>0.000000</speed>
</trkpt>
<trkpt lat="55.660923" lon="26.571966">
<ele>146.892700</ele>
<time>2010-07-18T11:17:32Z</time>
<desc>lat.=55.660923, lon.=26.571966, Alt.=146.892700m. Speed=0.000000m/h.</desc>
<speed>0.000000</speed>
</trkpt>
<trkpt lat="55.660923" lon="26.571966">
<ele>146.888794</ele>
<time>2010-07-18T11:17:33Z</time>
<desc>lat.=55.660923, lon.=26.571966, Alt.=146.888794m. Speed=0.000000m/h.</desc>
<speed>0.000000</speed>
</trkpt>
<trkpt lat="55.660923" lon="26.571966">
<ele>146.888794</ele>
<time>2010-07-18T11:17:34Z</time>
<desc>lat.=55.660923, lon.=26.571966, Alt.=146.888794m. Speed=0.000000m/h.</desc>
<speed>0.000000</speed>
</trkpt>
<trkpt lat="55.660923" lon="26.571966">
<ele>146.884888</ele>
<time>2010-07-18T11:17:35Z</time>
<desc>lat.=55.660923, lon.=26.571966, Alt.=146.884888m. Speed=0.000000m/h.</desc>
<speed>0.000000</speed>
</trkpt>
<trkpt lat="55.660923" lon="26.571966">
<ele>146.880981</ele>
<time>2010-07-18T11:17:36Z</time>
<desc>lat.=55.660923, lon.=26.571966, Alt.=146.880981m. Speed=0.000000m/h.</desc>
<speed>0.000000</speed>
</trkpt>
<trkpt lat="55.660923" lon="26.571966">
<ele>146.880981</ele>
<time>2010-07-18T11:17:37Z</time>
<desc>lat.=55.660923, lon.=26.571966, Alt.=146.880981m. Speed=0.000000m/h.</desc>
<speed>0.000000</speed>
</trkpt>
<trkpt lat="55.660923" lon="26.571966">
<ele>146.877075</ele>
<time>2010-07-18T11:17:38Z</time>
<desc>lat.=55.660923, lon.=26.571966, Alt.=146.877075m. Speed=0.000000m/h.</desc>
<speed>0.000000</speed>
</trkpt>
<trkpt lat="55.660923" lon="26.571966">
<ele>146.873169</ele>
<time>2010-07-18T11:17:39Z</time>
<desc>lat.=55.660923, lon.=26.571966, Alt.=146.873169m. Speed=0.000000m/h.</desc>
<speed>0.000000</speed>
</trkpt>
<trkpt lat="55.660923" lon="26.571966">
<ele>146.873169</ele>
<time>2010-07-18T11:17:40Z</time>
<desc>lat.=55.660923, lon.=26.571966, Alt.=146.873169m. Speed=0.000000m/h.</desc>
<speed>0.000000</speed>
</trkpt>
<trkpt lat="55.660923" lon="26.571966">
<ele>146.869263</ele>
<time>2010-07-18T11:17:41Z</time>
<desc>lat.=55.660923, lon.=26.571966, Alt.=146.869263m. Speed=0.000000m/h.</desc>
<speed>0.000000</speed>
</trkpt>
<trkpt lat="55.660923" lon="26.571964">
<ele>146.865356</ele>
<time>2010-07-18T11:17:42Z</time>
<desc>lat.=55.660923, lon.=26.571964, Alt.=146.865356m. Speed=0.000000m/h.</desc>
<speed>0.000000</speed>
</trkpt>
<trkpt lat="55.660923" lon="26.571964">
<ele>146.865356</ele>
<time>2010-07-18T11:17:43Z</time>
<desc>lat.=55.660923, lon.=26.571964, Alt.=146.865356m. Speed=0.000000m/h.</desc>
<speed>0.000000</speed>
</trkpt>
<trkpt lat="55.660923" lon="26.571964">
<ele>146.861450</ele>
<time>2010-07-18T11:17:44Z</time>
<desc>lat.=55.660923, lon.=26.571964, Alt.=146.861450m. Speed=0.000000m/h.</desc>
<speed>0.000000</speed>
</trkpt>
<trkpt lat="55.660923" lon="26.571964">
<ele>146.861450</ele>
<time>2010-07-18T11:17:45Z</time>
<desc>lat.=55.660923, lon.=26.571964, Alt.=146.861450m. Speed=0.000000m/h.</desc>
<speed>0.000000</speed>
</trkpt>
<trkpt lat="55.660923" lon="26.571964">
<ele>146.861450</ele>
<time>2010-07-18T11:17:46Z</time>
<desc>lat.=55.660923, lon.=26.571964, Alt.=146.861450m. Speed=0.000000m/h.</desc>
<speed>0.000000</speed>
</trkpt>
<trkpt lat="55.660923" lon="26.571964">
<ele>146.861450</ele>
<time>2010-07-18T11:17:47Z</time>
<desc>lat.=55.660923, lon.=26.571964, Alt.=146.861450m. Speed=0.000000m/h.</desc>
<speed>0.000000</speed>
</trkpt>
<trkpt lat="55.660923" lon="26.571964">
<ele>146.857544</ele>
<time>2010-07-18T11:17:48Z</time>
<desc>lat.=55.660923, lon.=26.571964, Alt.=146.857544m. Speed=0.000000m/h.</desc>
<speed>0.000000</speed>
</trkpt>
<trkpt lat="55.660923" lon="26.571964">
<ele>146.857544</ele>
<time>2010-07-18T11:17:49Z</time>
<desc>lat.=55.660923, lon.=26.571964, Alt.=146.857544m. Speed=0.000000m/h.</desc>
<speed>0.000000</speed>
</trkpt>
<trkpt lat="55.660923" lon="26.571964">
<ele>146.857544</ele>
<time>2010-07-18T11:17:50Z</time>
<desc>lat.=55.660923, lon.=26.571964, Alt.=146.857544m. Speed=0.036000m/h.</desc>
<speed>0.010000</speed>
</trkpt>
<trkpt lat="55.660923" lon="26.571964">
<ele>146.857544</ele>
<time>2010-07-18T11:17:51Z</time>
<desc>lat.=55.660923, lon.=26.571964, Alt.=146.857544m. Speed=0.000000m/h.</desc>
<speed>0.000000</speed>
</trkpt>
<trkpt lat="55.660923" lon="26.571964">
<ele>146.857544</ele>
<time>2010-07-18T11:17:52Z</time>
<desc>lat.=55.660923, lon.=26.571964, Alt.=146.857544m. Speed=0.000000m/h.</desc>
<speed>0.000000</speed>
</trkpt>
<trkpt lat="55.660923" lon="26.571964">
<ele>146.853638</ele>
<time>2010-07-18T11:17:53Z</time>
<desc>lat.=55.660923, lon.=26.571964, Alt.=146.853638m. Speed=0.000000m/h.</desc>
<speed>0.000000</speed>
</trkpt>
<trkpt lat="55.660923" lon="26.571964">
<ele>146.853638</ele>
<time>2010-07-18T11:17:54Z</time>
<desc>lat.=55.660923, lon.=26.571964, Alt.=146.853638m. Speed=0.000000m/h.</desc>
<speed>0.000000</speed>
</trkpt>
<trkpt lat="55.660923" lon="26.571964">
<ele>146.849731</ele>
<time>2010-07-18T11:17:55Z</time>
<desc>lat.=55.660923, lon.=26.571964, Alt.=146.849731m. Speed=0.000000m/h.</desc>
<speed>0.000000</speed>
</trkpt>
<trkpt lat="55.660923" lon="26.571964">
<ele>146.849731</ele>
<time>2010-07-18T11:17:56Z</time>
<desc>lat.=55.660923, lon.=26.571964, Alt.=146.849731m. Speed=0.000000m/h.</desc>
<speed>0.000000</speed>
</trkpt>
<trkpt lat="55.660923" lon="26.571964">
<ele>146.849731</ele>
<time>2010-07-18T11:17:57Z</time>
<desc>lat.=55.660923, lon.=26.571964, Alt.=146.849731m. Speed=0.000000m/h.</desc>
<speed>0.000000</speed>
</trkpt>
<trkpt lat="55.660923" lon="26.571964">
<ele>146.845825</ele>
<time>2010-07-18T11:17:58Z</time>
<desc>lat.=55.660923, lon.=26.571964, Alt.=146.845825m. Speed=0.036000m/h.</desc>
<speed>0.010000</speed>
</trkpt>
<trkpt lat="55.660923" lon="26.571964">
<ele>146.841919</ele>
<time>2010-07-18T11:17:59Z</time>
<desc>lat.=55.660923, lon.=26.571964, Alt.=146.841919m. Speed=0.000000m/h.</desc>
<speed>0.000000</speed>
</trkpt>
<trkpt lat="55.660923" lon="26.571964">
<ele>146.838013</ele>
<time>2010-07-18T11:18:00Z</time>
<desc>lat.=55.660923, lon.=26.571964, Alt.=146.838013m. Speed=0.000000m/h.</desc>
<speed>0.000000</speed>
</trkpt>
<trkpt lat="55.660923" lon="26.571964">
<ele>146.838013</ele>
<time>2010-07-18T11:18:01Z</time>
<desc>lat.=55.660923, lon.=26.571964, Alt.=146.838013m. Speed=0.000000m/h.</desc>
<speed>0.000000</speed>
</trkpt>
<trkpt lat="55.660923" lon="26.571964">
<ele>146.838013</ele>
<time>2010-07-18T11:18:02Z</time>
<desc>lat.=55.660923, lon.=26.571964, Alt.=146.838013m. Speed=0.000000m/h.</desc>
<speed>0.000000</speed>
</trkpt>
<trkpt lat="55.660923" lon="26.571964">
<ele>146.838013</ele>
<time>2010-07-18T11:18:03Z</time>
<desc>lat.=55.660923, lon.=26.571964, Alt.=146.838013m. Speed=0.000000m/h.</desc>
<speed>0.000000</speed>
</trkpt>
<trkpt lat="55.660923" lon="26.571964">
<ele>146.834106</ele>
<time>2010-07-18T11:18:04Z</time>
<desc>lat.=55.660923, lon.=26.571964, Alt.=146.834106m. Speed=0.000000m/h.</desc>
<speed>0.000000</speed>
</trkpt>
<trkpt lat="55.660923" lon="26.571964">
<ele>146.834106</ele>
<time>2010-07-18T11:18:05Z</time>
<desc>lat.=55.660923, lon.=26.571964, Alt.=146.834106m. Speed=0.000000m/h.</desc>
<speed>0.000000</speed>
</trkpt>
<trkpt lat="55.660923" lon="26.571964">
<ele>146.834106</ele>
<time>2010-07-18T11:18:06Z</time>
<desc>lat.=55.660923, lon.=26.571964, Alt.=146.834106m. Speed=0.000000m/h.</desc>
<speed>0.000000</speed>
</trkpt>
<trkpt lat="55.660923" lon="26.571964">
<ele>146.830200</ele>
<time>2010-07-18T11:18:07Z</time>
<desc>lat.=55.660923, lon.=26.571964, Alt.=146.830200m. Speed=0.000000m/h.</desc>
<speed>0.000000</speed>
</trkpt>
<trkpt lat="55.660923" lon="26.571964">
<ele>146.830200</ele>
<time>2010-07-18T11:18:08Z</time>
<desc>lat.=55.660923, lon.=26.571964, Alt.=146.830200m. Speed=0.000000m/h.</desc>
<speed>0.000000</speed>
</trkpt>
<trkpt lat="55.660923" lon="26.571964">
<ele>146.830200</ele>
<time>2010-07-18T11:18:09Z</time>
<desc>lat.=55.660923, lon.=26.571964, Alt.=146.830200m. Speed=0.000000m/h.</desc>
<speed>0.000000</speed>
</trkpt>
<trkpt lat="55.660923" lon="26.571964">
<ele>146.826294</ele>
<time>2010-07-18T11:18:10Z</time>
<desc>lat.=55.660923, lon.=26.571964, Alt.=146.826294m. Speed=0.000000m/h.</desc>
<speed>0.000000</speed>
</trkpt>
<trkpt lat="55.660923" lon="26.571964">
<ele>146.822388</ele>
<time>2010-07-18T11:18:11Z</time>
<desc>lat.=55.660923, lon.=26.571964, Alt.=146.822388m. Speed=0.000000m/h.</desc>
<speed>0.000000</speed>
</trkpt>
<trkpt lat="55.660923" lon="26.571964">
<ele>146.818481</ele>
<time>2010-07-18T11:18:12Z</time>
<desc>lat.=55.660923, lon.=26.571964, Alt.=146.818481m. Speed=0.000000m/h.</desc>
<speed>0.000000</speed>
</trkpt>
<trkpt lat="55.660923" lon="26.571964">
<ele>146.818481</ele>
<time>2010-07-18T11:18:13Z</time>
<desc>lat.=55.660923, lon.=26.571964, Alt.=146.818481m. Speed=0.000000m/h.</desc>
<speed>0.000000</speed>
</trkpt>
<trkpt lat="55.660923" lon="26.571964">
<ele>146.814575</ele>
<time>2010-07-18T11:18:14Z</time>
<desc>lat.=55.660923, lon.=26.571964, Alt.=146.814575m. Speed=0.000000m/h.</desc>
<speed>0.000000</speed>
</trkpt>
<trkpt lat="55.660923" lon="26.571964">
<ele>146.814575</ele>
<time>2010-07-18T11:18:15Z</time>
<desc>lat.=55.660923, lon.=26.571964, Alt.=146.814575m. Speed=0.000000m/h.</desc>
<speed>0.000000</speed>
</trkpt>
<trkpt lat="55.660923" lon="26.571964">
<ele>146.814575</ele>
<time>2010-07-18T11:18:16Z</time>
<desc>lat.=55.660923, lon.=26.571964, Alt.=146.814575m. Speed=0.000000m/h.</desc>
<speed>0.000000</speed>
</trkpt>
<trkpt lat="55.660923" lon="26.571964">
<ele>146.814575</ele>
<time>2010-07-18T11:18:17Z</time>
<desc>lat.=55.660923, lon.=26.571964, Alt.=146.814575m. Speed=0.000000m/h.</desc>
<speed>0.000000</speed>
</trkpt>
<trkpt lat="55.660923" lon="26.571964">
<ele>146.814575</ele>
<time>2010-07-18T11:18:18Z</time>
<desc>lat.=55.660923, lon.=26.571964, Alt.=146.814575m. Speed=0.000000m/h.</desc>
<speed>0.000000</speed>
</trkpt>
<trkpt lat="55.660923" lon="26.571964">
<ele>146.810669</ele>
<time>2010-07-18T11:18:19Z</time>
<desc>lat.=55.660923, lon.=26.571964, Alt.=146.810669m. Speed=0.000000m/h.</desc>
<speed>0.000000</speed>
</trkpt>
<trkpt lat="55.660923" lon="26.571964">
<ele>146.810669</ele>
<time>2010-07-18T11:18:20Z</time>
<desc>lat.=55.660923, lon.=26.571964, Alt.=146.810669m. Speed=0.000000m/h.</desc>
<speed>0.000000</speed>
</trkpt>
<trkpt lat="55.660923" lon="26.571964">
<ele>146.810669</ele>
<time>2010-07-18T11:18:21Z</time>
<desc>lat.=55.660923, lon.=26.571964, Alt.=146.810669m. Speed=0.000000m/h.</desc>
<speed>0.000000</speed>
</trkpt>
<trkpt lat="55.660923" lon="26.571964">
<ele>146.806763</ele>
<time>2010-07-18T11:18:22Z</time>
<desc>lat.=55.660923, lon.=26.571964, Alt.=146.806763m. Speed=0.000000m/h.</desc>
<speed>0.000000</speed>
</trkpt>
<trkpt lat="55.660923" lon="26.571964">
<ele>146.806763</ele>
<time>2010-07-18T11:18:23Z</time>
<desc>lat.=55.660923, lon.=26.571964, Alt.=146.806763m. Speed=0.000000m/h.</desc>
<speed>0.000000</speed>
</trkpt>
<trkpt lat="55.660923" lon="26.571964">
<ele>146.806763</ele>
<time>2010-07-18T11:18:24Z</time>
<desc>lat.=55.660923, lon.=26.571964, Alt.=146.806763m. Speed=0.000000m/h.</desc>
<speed>0.000000</speed>
</trkpt>
<trkpt lat="55.660923" lon="26.571964">
<ele>146.806763</ele>
<time>2010-07-18T11:18:25Z</time>
<desc>lat.=55.660923, lon.=26.571964, Alt.=146.806763m. Speed=0.000000m/h.</desc>
<speed>0.000000</speed>
</trkpt>
<trkpt lat="55.660923" lon="26.571964">
<ele>146.806763</ele>
<time>2010-07-18T11:18:26Z</time>
<desc>lat.=55.660923, lon.=26.571964, Alt.=146.806763m. Speed=0.000000m/h.</desc>
<speed>0.000000</speed>
</trkpt>
<trkpt lat="55.660923" lon="26.571964">
<ele>146.806763</ele>
<time>2010-07-18T11:18:27Z</time>
<desc>lat.=55.660923, lon.=26.571964, Alt.=146.806763m. Speed=0.000000m/h.</desc>
<speed>0.000000</speed>
</trkpt>
<trkpt lat="55.660923" lon="26.571964">
<ele>146.806763</ele>
<time>2010-07-18T11:18:28Z</time>
<desc>lat.=55.660923, lon.=26.571964, Alt.=146.806763m. Speed=0.036000m/h.</desc>
<speed>0.010000</speed>
</trkpt>
<trkpt lat="55.660923" lon="26.571964">
<ele>146.806763</ele>
<time>2010-07-18T11:18:29Z</time>
<desc>lat.=55.660923, lon.=26.571964, Alt.=146.806763m. Speed=0.036000m/h.</desc>
<speed>0.010000</speed>
</trkpt>
<trkpt lat="55.660923" lon="26.571964">
<ele>146.806763</ele>
<time>2010-07-18T11:18:30Z</time>
<desc>lat.=55.660923, lon.=26.571964, Alt.=146.806763m. Speed=0.000000m/h.</desc>
<speed>0.000000</speed>
</trkpt>
<trkpt lat="55.660923" lon="26.571964">
<ele>146.810669</ele>
<time>2010-07-18T11:18:31Z</time>
<desc>lat.=55.660923, lon.=26.571964, Alt.=146.810669m. Speed=0.000000m/h.</desc>
<speed>0.000000</speed>
</trkpt>
<trkpt lat="55.660923" lon="26.571964">
<ele>146.810669</ele>
<time>2010-07-18T11:18:32Z</time>
<desc>lat.=55.660923, lon.=26.571964, Alt.=146.810669m. Speed=0.036000m/h.</desc>
<speed>0.010000</speed>
</trkpt>
<trkpt lat="55.660923" lon="26.571964">
<ele>146.814575</ele>
<time>2010-07-18T11:18:33Z</time>
<desc>lat.=55.660923, lon.=26.571964, Alt.=146.814575m. Speed=0.036000m/h.</desc>
<speed>0.010000</speed>
</trkpt>
<trkpt lat="55.660923" lon="26.571964">
<ele>146.814575</ele>
<time>2010-07-18T11:18:34Z</time>
<desc>lat.=55.660923, lon.=26.571964, Alt.=146.814575m. Speed=0.000000m/h.</desc>
<speed>0.000000</speed>
</trkpt>
<trkpt lat="55.660923" lon="26.571964">
<ele>146.818481</ele>
<time>2010-07-18T11:18:35Z</time>
<desc>lat.=55.660923, lon.=26.571964, Alt.=146.818481m. Speed=0.000000m/h.</desc>
<speed>0.000000</speed>
</trkpt>
<trkpt lat="55.660923" lon="26.571964">
<ele>146.818481</ele>
<time>2010-07-18T11:18:36Z</time>
<desc>lat.=55.660923, lon.=26.571964, Alt.=146.818481m. Speed=0.000000m/h.</desc>
<speed>0.000000</speed>
</trkpt>
<trkpt lat="55.660923" lon="26.571964">
<ele>146.818481</ele>
<time>2010-07-18T11:18:37Z</time>
<desc>lat.=55.660923, lon.=26.571964, Alt.=146.818481m. Speed=0.000000m/h.</desc>
<speed>0.000000</speed>
</trkpt>
<trkpt lat="55.660923" lon="26.571964">
<ele>146.814575</ele>
<time>2010-07-18T11:18:38Z</time>
<desc>lat.=55.660923, lon.=26.571964, Alt.=146.814575m. Speed=0.000000m/h.</desc>
<speed>0.000000</speed>
</trkpt>
<trkpt lat="55.660923" lon="26.571964">
<ele>146.814575</ele>
<time>2010-07-18T11:18:39Z</time>
<desc>lat.=55.660923, lon.=26.571964, Alt.=146.814575m. Speed=0.000000m/h.</desc>
<speed>0.000000</speed>
</trkpt>
<trkpt lat="55.660923" lon="26.571964">
<ele>146.814575</ele>
<time>2010-07-18T11:18:40Z</time>
<desc>lat.=55.660923, lon.=26.571964, Alt.=146.814575m. Speed=0.000000m/h.</desc>
<speed>0.000000</speed>
</trkpt>
<trkpt lat="55.660923" lon="26.571964">
<ele>146.810669</ele>
<time>2010-07-18T11:18:41Z</time>
<desc>lat.=55.660923, lon.=26.571964, Alt.=146.810669m. Speed=0.036000m/h.</desc>
<speed>0.010000</speed>
</trkpt>
<trkpt lat="55.660923" lon="26.571964">
<ele>146.810669</ele>
<time>2010-07-18T11:18:42Z</time>
<desc>lat.=55.660923, lon.=26.571964, Alt.=146.810669m. Speed=0.000000m/h.</desc>
<speed>0.000000</speed>
</trkpt>
<trkpt lat="55.660923" lon="26.571964">
<ele>146.806763</ele>
<time>2010-07-18T11:18:43Z</time>
<desc>lat.=55.660923, lon.=26.571964, Alt.=146.806763m. Speed=0.000000m/h.</desc>
<speed>0.000000</speed>
</trkpt>
<trkpt lat="55.660923" lon="26.571964">
<ele>146.806763</ele>
<time>2010-07-18T11:18:44Z</time>
<desc>lat.=55.660923, lon.=26.571964, Alt.=146.806763m. Speed=0.036000m/h.</desc>
<speed>0.010000</speed>
</trkpt>
<trkpt lat="55.660923" lon="26.571964">
<ele>146.806763</ele>
<time>2010-07-18T11:18:45Z</time>
<desc>lat.=55.660923, lon.=26.571964, Alt.=146.806763m. Speed=0.000000m/h.</desc>
<speed>0.000000</speed>
</trkpt>
<trkpt lat="55.660923" lon="26.571964">
<ele>146.806763</ele>
<time>2010-07-18T11:18:46Z</time>
<desc>lat.=55.660923, lon.=26.571964, Alt.=146.806763m. Speed=0.000000m/h.</desc>
<speed>0.000000</speed>
</trkpt>
<trkpt lat="55.660923" lon="26.571964">
<ele>146.802856</ele>
<time>2010-07-18T11:18:47Z</time>
<desc>lat.=55.660923, lon.=26.571964, Alt.=146.802856m. Speed=0.000000m/h.</desc>
<speed>0.000000</speed>
</trkpt>
<trkpt lat="55.660923" lon="26.571964">
<ele>146.802856</ele>
<time>2010-07-18T11:18:48Z</time>
<desc>lat.=55.660923, lon.=26.571964, Alt.=146.802856m. Speed=0.000000m/h.</desc>
<speed>0.000000</speed>
</trkpt>
<trkpt lat="55.660923" lon="26.571964">
<ele>146.802856</ele>
<time>2010-07-18T11:18:49Z</time>
<desc>lat.=55.660923, lon.=26.571964, Alt.=146.802856m. Speed=0.000000m/h.</desc>
<speed>0.000000</speed>
</trkpt>
<trkpt lat="55.660923" lon="26.571964">
<ele>146.798950</ele>
<time>2010-07-18T11:18:50Z</time>
<desc>lat.=55.660923, lon.=26.571964, Alt.=146.798950m. Speed=0.000000m/h.</desc>
<speed>0.000000</speed>
</trkpt>
<trkpt lat="55.660923" lon="26.571964">
<ele>146.798950</ele>
<time>2010-07-18T11:18:51Z</time>
<desc>lat.=55.660923, lon.=26.571964, Alt.=146.798950m. Speed=0.000000m/h.</desc>
<speed>0.000000</speed>
</trkpt>
<trkpt lat="55.660923" lon="26.571964">
<ele>146.798950</ele>
<time>2010-07-18T11:18:52Z</time>
<desc>lat.=55.660923, lon.=26.571964, Alt.=146.798950m. Speed=0.000000m/h.</desc>
<speed>0.000000</speed>
</trkpt>
<trkpt lat="55.660923" lon="26.571964">
<ele>146.795044</ele>
<time>2010-07-18T11:18:53Z</time>
<desc>lat.=55.660923, lon.=26.571964, Alt.=146.795044m. Speed=0.000000m/h.</desc>
<speed>0.000000</speed>
</trkpt>
<trkpt lat="55.660923" lon="26.571964">
<ele>146.795044</ele>
<time>2010-07-18T11:18:54Z</time>
<desc>lat.=55.660923, lon.=26.571964, Alt.=146.795044m. Speed=0.000000m/h.</desc>
<speed>0.000000</speed>
</trkpt>
<trkpt lat="55.660923" lon="26.571964">
<ele>146.795044</ele>
<time>2010-07-18T11:18:55Z</time>
<desc>lat.=55.660923, lon.=26.571964, Alt.=146.795044m. Speed=0.000000m/h.</desc>
<speed>0.000000</speed>
</trkpt>
<trkpt lat="55.660923" lon="26.571964">
<ele>146.791138</ele>
<time>2010-07-18T11:18:56Z</time>
<desc>lat.=55.660923, lon.=26.571964, Alt.=146.791138m. Speed=0.000000m/h.</desc>
<speed>0.000000</speed>
</trkpt>
<trkpt lat="55.660923" lon="26.571964">
<ele>146.787231</ele>
<time>2010-07-18T11:18:57Z</time>
<desc>lat.=55.660923, lon.=26.571964, Alt.=146.787231m. Speed=0.000000m/h.</desc>
<speed>0.000000</speed>
</trkpt>
<trkpt lat="55.660923" lon="26.571964">
<ele>146.787231</ele>
<time>2010-07-18T11:18:58Z</time>
<desc>lat.=55.660923, lon.=26.571964, Alt.=146.787231m. Speed=0.000000m/h.</desc>
<speed>0.000000</speed>
</trkpt>
<trkpt lat="55.660923" lon="26.571964">
<ele>146.783325</ele>
<time>2010-07-18T11:18:59Z</time>
<desc>lat.=55.660923, lon.=26.571964, Alt.=146.783325m. Speed=0.000000m/h.</desc>
<speed>0.000000</speed>
</trkpt>
<trkpt lat="55.660923" lon="26.571964">
<ele>146.783325</ele>
<time>2010-07-18T11:19:00Z</time>
<desc>lat.=55.660923, lon.=26.571964, Alt.=146.783325m. Speed=0.000000m/h.</desc>
<speed>0.000000</speed>
</trkpt>
<trkpt lat="55.660923" lon="26.571964">
<ele>146.783325</ele>
<time>2010-07-18T11:19:01Z</time>
<desc>lat.=55.660923, lon.=26.571964, Alt.=146.783325m. Speed=0.000000m/h.</desc>
<speed>0.000000</speed>
</trkpt>
<trkpt lat="55.660923" lon="26.571964">
<ele>146.779419</ele>
<time>2010-07-18T11:19:02Z</time>
<desc>lat.=55.660923, lon.=26.571964, Alt.=146.779419m. Speed=0.000000m/h.</desc>
<speed>0.000000</speed>
</trkpt>
<trkpt lat="55.660923" lon="26.571964">
<ele>146.779419</ele>
<time>2010-07-18T11:19:03Z</time>
<desc>lat.=55.660923, lon.=26.571964, Alt.=146.779419m. Speed=0.000000m/h.</desc>
<speed>0.000000</speed>
</trkpt>
<trkpt lat="55.660923" lon="26.571964">
<ele>146.779419</ele>
<time>2010-07-18T11:19:04Z</time>
<desc>lat.=55.660923, lon.=26.571964, Alt.=146.779419m. Speed=0.000000m/h.</desc>
<speed>0.000000</speed>
</trkpt>
<trkpt lat="55.660923" lon="26.571964">
<ele>146.775513</ele>
<time>2010-07-18T11:19:05Z</time>
<desc>lat.=55.660923, lon.=26.571964, Alt.=146.775513m. Speed=0.000000m/h.</desc>
<speed>0.000000</speed>
</trkpt>
<trkpt lat="55.660923" lon="26.571964">
<ele>146.775513</ele>
<time>2010-07-18T11:19:06Z</time>
<desc>lat.=55.660923, lon.=26.571964, Alt.=146.775513m. Speed=0.000000m/h.</desc>
<speed>0.000000</speed>
</trkpt>
<trkpt lat="55.660923" lon="26.571964">
<ele>146.771606</ele>
<time>2010-07-18T11:19:07Z</time>
<desc>lat.=55.660923, lon.=26.571964, Alt.=146.771606m. Speed=0.000000m/h.</desc>
<speed>0.000000</speed>
</trkpt>
<trkpt lat="55.660923" lon="26.571964">
<ele>146.771606</ele>
<time>2010-07-18T11:19:08Z</time>
<desc>lat.=55.660923, lon.=26.571964, Alt.=146.771606m. Speed=0.000000m/h.</desc>
<speed>0.000000</speed>
</trkpt>
<trkpt lat="55.660923" lon="26.571964">
<ele>146.771606</ele>
<time>2010-07-18T11:19:09Z</time>
<desc>lat.=55.660923, lon.=26.571964, Alt.=146.771606m. Speed=0.000000m/h.</desc>
<speed>0.000000</speed>
</trkpt>
<trkpt lat="55.660923" lon="26.571964">
<ele>146.767700</ele>
<time>2010-07-18T11:19:10Z</time>
<desc>lat.=55.660923, lon.=26.571964, Alt.=146.767700m. Speed=0.000000m/h.</desc>
<speed>0.000000</speed>
</trkpt>
<trkpt lat="55.660923" lon="26.571964">
<ele>146.767700</ele>
<time>2010-07-18T11:19:11Z</time>
<desc>lat.=55.660923, lon.=26.571964, Alt.=146.767700m. Speed=0.000000m/h.</desc>
<speed>0.000000</speed>
</trkpt>
<trkpt lat="55.660923" lon="26.571964">
<ele>146.763794</ele>
<time>2010-07-18T11:19:12Z</time>
<desc>lat.=55.660923, lon.=26.571964, Alt.=146.763794m. Speed=0.000000m/h.</desc>
<speed>0.000000</speed>
</trkpt>
<trkpt lat="55.660923" lon="26.571964">
<ele>146.759888</ele>
<time>2010-07-18T11:19:13Z</time>
<desc>lat.=55.660923, lon.=26.571964, Alt.=146.759888m. Speed=0.000000m/h.</desc>
<speed>0.000000</speed>
</trkpt>
<trkpt lat="55.660923" lon="26.571964">
<ele>146.755981</ele>
<time>2010-07-18T11:19:14Z</time>
<desc>lat.=55.660923, lon.=26.571964, Alt.=146.755981m. Speed=0.000000m/h.</desc>
<speed>0.000000</speed>
</trkpt>
<trkpt lat="55.660923" lon="26.571964">
<ele>146.755981</ele>
<time>2010-07-18T11:19:15Z</time>
<desc>lat.=55.660923, lon.=26.571964, Alt.=146.755981m. Speed=0.000000m/h.</desc>
<speed>0.000000</speed>
</trkpt>
<trkpt lat="55.660923" lon="26.571964">
<ele>146.755981</ele>
<time>2010-07-18T11:19:16Z</time>
<desc>lat.=55.660923, lon.=26.571964, Alt.=146.755981m. Speed=0.000000m/h.</desc>
<speed>0.000000</speed>
</trkpt>
<trkpt lat="55.660923" lon="26.571964">
<ele>146.755981</ele>
<time>2010-07-18T11:19:17Z</time>
<desc>lat.=55.660923, lon.=26.571964, Alt.=146.755981m. Speed=0.000000m/h.</desc>
<speed>0.000000</speed>
</trkpt>
<trkpt lat="55.660923" lon="26.571964">
<ele>146.752075</ele>
<time>2010-07-18T11:19:18Z</time>
<desc>lat.=55.660923, lon.=26.571964, Alt.=146.752075m. Speed=0.000000m/h.</desc>
<speed>0.000000</speed>
</trkpt>
<trkpt lat="55.660923" lon="26.571964">
<ele>146.752075</ele>
<time>2010-07-18T11:19:19Z</time>
<desc>lat.=55.660923, lon.=26.571964, Alt.=146.752075m. Speed=0.000000m/h.</desc>
<speed>0.000000</speed>
</trkpt>
<trkpt lat="55.660923" lon="26.571964">
<ele>146.748169</ele>
<time>2010-07-18T11:19:20Z</time>
<desc>lat.=55.660923, lon.=26.571964, Alt.=146.748169m. Speed=0.000000m/h.</desc>
<speed>0.000000</speed>
</trkpt>
<trkpt lat="55.660923" lon="26.571964">
<ele>146.748169</ele>
<time>2010-07-18T11:19:21Z</time>
<desc>lat.=55.660923, lon.=26.571964, Alt.=146.748169m. Speed=0.000000m/h.</desc>
<speed>0.000000</speed>
</trkpt>
<trkpt lat="55.660923" lon="26.571964">
<ele>146.748169</ele>
<time>2010-07-18T11:19:22Z</time>
<desc>lat.=55.660923, lon.=26.571964, Alt.=146.748169m. Speed=0.000000m/h.</desc>
<speed>0.000000</speed>
</trkpt>
<trkpt lat="55.660923" lon="26.571964">
<ele>146.744263</ele>
<time>2010-07-18T11:19:23Z</time>
<desc>lat.=55.660923, lon.=26.571964, Alt.=146.744263m. Speed=0.000000m/h.</desc>
<speed>0.000000</speed>
</trkpt>
<trkpt lat="55.660923" lon="26.571964">
<ele>146.748169</ele>
<time>2010-07-18T11:19:24Z</time>
<desc>lat.=55.660923, lon.=26.571964, Alt.=146.748169m. Speed=0.000000m/h.</desc>
<speed>0.000000</speed>
</trkpt>
<trkpt lat="55.660923" lon="26.571964">
<ele>146.748169</ele>
<time>2010-07-18T11:19:25Z</time>
<desc>lat.=55.660923, lon.=26.571964, Alt.=146.748169m. Speed=0.000000m/h.</desc>
<speed>0.000000</speed>
</trkpt>
<trkpt lat="55.660923" lon="26.571964">
<ele>146.744263</ele>
<time>2010-07-18T11:19:26Z</time>
<desc>lat.=55.660923, lon.=26.571964, Alt.=146.744263m. Speed=0.000000m/h.</desc>
<speed>0.000000</speed>
</trkpt>
<trkpt lat="55.660923" lon="26.571964">
<ele>146.740356</ele>
<time>2010-07-18T11:19:27Z</time>
<desc>lat.=55.660923, lon.=26.571964, Alt.=146.740356m. Speed=0.000000m/h.</desc>
<speed>0.000000</speed>
</trkpt>
<trkpt lat="55.660923" lon="26.571964">
<ele>146.740356</ele>
<time>2010-07-18T11:19:28Z</time>
<desc>lat.=55.660923, lon.=26.571964, Alt.=146.740356m. Speed=0.000000m/h.</desc>
<speed>0.000000</speed>
</trkpt>
<trkpt lat="55.660923" lon="26.571964">
<ele>146.740356</ele>
<time>2010-07-18T11:19:29Z</time>
<desc>lat.=55.660923, lon.=26.571964, Alt.=146.740356m. Speed=0.036000m/h.</desc>
<speed>0.010000</speed>
</trkpt>
<trkpt lat="55.660923" lon="26.571964">
<ele>146.740356</ele>
<time>2010-07-18T11:19:30Z</time>
<desc>lat.=55.660923, lon.=26.571964, Alt.=146.740356m. Speed=0.000000m/h.</desc>
<speed>0.000000</speed>
</trkpt>
<trkpt lat="55.660923" lon="26.571964">
<ele>146.740356</ele>
<time>2010-07-18T11:19:31Z</time>
<desc>lat.=55.660923, lon.=26.571964, Alt.=146.740356m. Speed=0.000000m/h.</desc>
<speed>0.000000</speed>
</trkpt>
<trkpt lat="55.660923" lon="26.571964">
<ele>146.740356</ele>
<time>2010-07-18T11:19:32Z</time>
<desc>lat.=55.660923, lon.=26.571964, Alt.=146.740356m. Speed=0.000000m/h.</desc>
<speed>0.000000</speed>
</trkpt>
<trkpt lat="55.660923" lon="26.571964">
<ele>146.736450</ele>
<time>2010-07-18T11:19:33Z</time>
<desc>lat.=55.660923, lon.=26.571964, Alt.=146.736450m. Speed=0.000000m/h.</desc>
<speed>0.000000</speed>
</trkpt>
<trkpt lat="55.660923" lon="26.571964">
<ele>146.732544</ele>
<time>2010-07-18T11:19:34Z</time>
<desc>lat.=55.660923, lon.=26.571964, Alt.=146.732544m. Speed=0.000000m/h.</desc>
<speed>0.000000</speed>
</trkpt>
<trkpt lat="55.660923" lon="26.571964">
<ele>146.732544</ele>
<time>2010-07-18T11:19:35Z</time>
<desc>lat.=55.660923, lon.=26.571964, Alt.=146.732544m. Speed=0.000000m/h.</desc>
<speed>0.000000</speed>
</trkpt>
<trkpt lat="55.660923" lon="26.571964">
<ele>146.732544</ele>
<time>2010-07-18T11:19:36Z</time>
<desc>lat.=55.660923, lon.=26.571964, Alt.=146.732544m. Speed=0.000000m/h.</desc>
<speed>0.000000</speed>
</trkpt>
<trkpt lat="55.660923" lon="26.571964">
<ele>146.728638</ele>
<time>2010-07-18T11:19:37Z</time>
<desc>lat.=55.660923, lon.=26.571964, Alt.=146.728638m. Speed=0.000000m/h.</desc>
<speed>0.000000</speed>
</trkpt>
<trkpt lat="55.660923" lon="26.571964">
<ele>146.724731</ele>
<time>2010-07-18T11:19:38Z</time>
<desc>lat.=55.660923, lon.=26.571964, Alt.=146.724731m. Speed=0.000000m/h.</desc>
<speed>0.000000</speed>
</trkpt>
<trkpt lat="55.660923" lon="26.571964">
<ele>146.724731</ele>
<time>2010-07-18T11:19:39Z</time>
<desc>lat.=55.660923, lon.=26.571964, Alt.=146.724731m. Speed=0.000000m/h.</desc>
<speed>0.000000</speed>
</trkpt>
<trkpt lat="55.660923" lon="26.571964">
<ele>146.724731</ele>
<time>2010-07-18T11:19:40Z</time>
<desc>lat.=55.660923, lon.=26.571964, Alt.=146.724731m. Speed=0.000000m/h.</desc>
<speed>0.000000</speed>
</trkpt>
<trkpt lat="55.660923" lon="26.571964">
<ele>146.724731</ele>
<time>2010-07-18T11:19:41Z</time>
<desc>lat.=55.660923, lon.=26.571964, Alt.=146.724731m. Speed=0.000000m/h.</desc>
<speed>0.000000</speed>
</trkpt>
<trkpt lat="55.660923" lon="26.571964">
<ele>146.724731</ele>
<time>2010-07-18T11:19:42Z</time>
<desc>lat.=55.660923, lon.=26.571964, Alt.=146.724731m. Speed=0.000000m/h.</desc>
<speed>0.000000</speed>
</trkpt>
<trkpt lat="55.660923" lon="26.571964">
<ele>146.724731</ele>
<time>2010-07-18T11:19:43Z</time>
<desc>lat.=55.660923, lon.=26.571964, Alt.=146.724731m. Speed=0.000000m/h.</desc>
<speed>0.000000</speed>
</trkpt>
<trkpt lat="55.660923" lon="26.571962">
<ele>146.724731</ele>
<time>2010-07-18T11:19:44Z</time>
<desc>lat.=55.660923, lon.=26.571962, Alt.=146.724731m. Speed=0.000000m/h.</desc>
<speed>0.000000</speed>
</trkpt>
<trkpt lat="55.660923" lon="26.571962">
<ele>146.724731</ele>
<time>2010-07-18T11:19:45Z</time>
<desc>lat.=55.660923, lon.=26.571962, Alt.=146.724731m. Speed=0.000000m/h.</desc>
<speed>0.000000</speed>
</trkpt>
<trkpt lat="55.660923" lon="26.571962">
<ele>146.724731</ele>
<time>2010-07-18T11:19:46Z</time>
<desc>lat.=55.660923, lon.=26.571962, Alt.=146.724731m. Speed=0.000000m/h.</desc>
<speed>0.000000</speed>
</trkpt>
<trkpt lat="55.660923" lon="26.571962">
<ele>146.724731</ele>
<time>2010-07-18T11:19:47Z</time>
<desc>lat.=55.660923, lon.=26.571962, Alt.=146.724731m. Speed=0.000000m/h.</desc>
<speed>0.000000</speed>
</trkpt>
<trkpt lat="55.660923" lon="26.571962">
<ele>146.724731</ele>
<time>2010-07-18T11:19:48Z</time>
<desc>lat.=55.660923, lon.=26.571962, Alt.=146.724731m. Speed=0.000000m/h.</desc>
<speed>0.000000</speed>
</trkpt>
<trkpt lat="55.660923" lon="26.571962">
<ele>146.724731</ele>
<time>2010-07-18T11:19:49Z</time>
<desc>lat.=55.660923, lon.=26.571962, Alt.=146.724731m. Speed=0.000000m/h.</desc>
<speed>0.000000</speed>
</trkpt>
<trkpt lat="55.660923" lon="26.571962">
<ele>146.720825</ele>
<time>2010-07-18T11:19:50Z</time>
<desc>lat.=55.660923, lon.=26.571962, Alt.=146.720825m. Speed=0.000000m/h.</desc>
<speed>0.000000</speed>
</trkpt>
<trkpt lat="55.660923" lon="26.571962">
<ele>146.724731</ele>
<time>2010-07-18T11:19:51Z</time>
<desc>lat.=55.660923, lon.=26.571962, Alt.=146.724731m. Speed=0.072000m/h.</desc>
<speed>0.020000</speed>
</trkpt>
<trkpt lat="55.660923" lon="26.571962">
<ele>146.724731</ele>
<time>2010-07-18T11:19:52Z</time>
<desc>lat.=55.660923, lon.=26.571962, Alt.=146.724731m. Speed=0.000000m/h.</desc>
<speed>0.000000</speed>
</trkpt>
<trkpt lat="55.660923" lon="26.571962">
<ele>146.720825</ele>
<time>2010-07-18T11:19:53Z</time>
<desc>lat.=55.660923, lon.=26.571962, Alt.=146.720825m. Speed=0.000000m/h.</desc>
<speed>0.000000</speed>
</trkpt>
<trkpt lat="55.660923" lon="26.571962">
<ele>146.720825</ele>
<time>2010-07-18T11:19:54Z</time>
<desc>lat.=55.660923, lon.=26.571962, Alt.=146.720825m. Speed=0.000000m/h.</desc>
<speed>0.000000</speed>
</trkpt>
<trkpt lat="55.660923" lon="26.571962">
<ele>146.716919</ele>
<time>2010-07-18T11:19:55Z</time>
<desc>lat.=55.660923, lon.=26.571962, Alt.=146.716919m. Speed=0.000000m/h.</desc>
<speed>0.000000</speed>
</trkpt>
<trkpt lat="55.660923" lon="26.571962">
<ele>146.716919</ele>
<time>2010-07-18T11:19:56Z</time>
<desc>lat.=55.660923, lon.=26.571962, Alt.=146.716919m. Speed=0.000000m/h.</desc>
<speed>0.000000</speed>
</trkpt>
<trkpt lat="55.660923" lon="26.571962">
<ele>146.716919</ele>
<time>2010-07-18T11:19:57Z</time>
<desc>lat.=55.660923, lon.=26.571962, Alt.=146.716919m. Speed=0.000000m/h.</desc>
<speed>0.000000</speed>
</trkpt>
<trkpt lat="55.660923" lon="26.571962">
<ele>146.716919</ele>
<time>2010-07-18T11:19:58Z</time>
<desc>lat.=55.660923, lon.=26.571962, Alt.=146.716919m. Speed=0.000000m/h.</desc>
<speed>0.000000</speed>
</trkpt>
<trkpt lat="55.660923" lon="26.571962">
<ele>146.713013</ele>
<time>2010-07-18T11:19:59Z</time>
<desc>lat.=55.660923, lon.=26.571962, Alt.=146.713013m. Speed=0.000000m/h.</desc>
<speed>0.000000</speed>
</trkpt>
<trkpt lat="55.660923" lon="26.571962">
<ele>146.713013</ele>
<time>2010-07-18T11:20:00Z</time>
<desc>lat.=55.660923, lon.=26.571962, Alt.=146.713013m. Speed=0.000000m/h.</desc>
<speed>0.000000</speed>
</trkpt>
<trkpt lat="55.660923" lon="26.571962">
<ele>146.713013</ele>
<time>2010-07-18T11:20:01Z</time>
<desc>lat.=55.660923, lon.=26.571962, Alt.=146.713013m. Speed=0.000000m/h.</desc>
<speed>0.000000</speed>
</trkpt>
<trkpt lat="55.660923" lon="26.571962">
<ele>146.709106</ele>
<time>2010-07-18T11:20:02Z</time>
<desc>lat.=55.660923, lon.=26.571962, Alt.=146.709106m. Speed=0.000000m/h.</desc>
<speed>0.000000</speed>
</trkpt>
<trkpt lat="55.660923" lon="26.571962">
<ele>146.709106</ele>
<time>2010-07-18T11:20:03Z</time>
<desc>lat.=55.660923, lon.=26.571962, Alt.=146.709106m. Speed=0.000000m/h.</desc>
<speed>0.000000</speed>
</trkpt>
<trkpt lat="55.660923" lon="26.571962">
<ele>146.709106</ele>
<time>2010-07-18T11:20:04Z</time>
<desc>lat.=55.660923, lon.=26.571962, Alt.=146.709106m. Speed=0.000000m/h.</desc>
<speed>0.000000</speed>
</trkpt>
<trkpt lat="55.660923" lon="26.571962">
<ele>146.705200</ele>
<time>2010-07-18T11:20:05Z</time>
<desc>lat.=55.660923, lon.=26.571962, Alt.=146.705200m. Speed=0.000000m/h.</desc>
<speed>0.000000</speed>
</trkpt>
<trkpt lat="55.660923" lon="26.571962">
<ele>146.701294</ele>
<time>2010-07-18T11:20:06Z</time>
<desc>lat.=55.660923, lon.=26.571962, Alt.=146.701294m. Speed=0.000000m/h.</desc>
<speed>0.000000</speed>
</trkpt>
<trkpt lat="55.660923" lon="26.571962">
<ele>146.701294</ele>
<time>2010-07-18T11:20:07Z</time>
<desc>lat.=55.660923, lon.=26.571962, Alt.=146.701294m. Speed=0.000000m/h.</desc>
<speed>0.000000</speed>
</trkpt>
<trkpt lat="55.660923" lon="26.571962">
<ele>146.701294</ele>
<time>2010-07-18T11:20:08Z</time>
<desc>lat.=55.660923, lon.=26.571962, Alt.=146.701294m. Speed=0.000000m/h.</desc>
<speed>0.000000</speed>
</trkpt>
<trkpt lat="55.660923" lon="26.571962">
<ele>146.697388</ele>
<time>2010-07-18T11:20:09Z</time>
<desc>lat.=55.660923, lon.=26.571962, Alt.=146.697388m. Speed=0.000000m/h.</desc>
<speed>0.000000</speed>
</trkpt>
<trkpt lat="55.660923" lon="26.571962">
<ele>146.697388</ele>
<time>2010-07-18T11:20:10Z</time>
<desc>lat.=55.660923, lon.=26.571962, Alt.=146.697388m. Speed=0.000000m/h.</desc>
<speed>0.000000</speed>
</trkpt>
<trkpt lat="55.660923" lon="26.571962">
<ele>146.697388</ele>
<time>2010-07-18T11:20:11Z</time>
<desc>lat.=55.660923, lon.=26.571962, Alt.=146.697388m. Speed=0.000000m/h.</desc>
<speed>0.000000</speed>
</trkpt>
<trkpt lat="55.660923" lon="26.571962">
<ele>146.697388</ele>
<time>2010-07-18T11:20:12Z</time>
<desc>lat.=55.660923, lon.=26.571962, Alt.=146.697388m. Speed=0.036000m/h.</desc>
<speed>0.010000</speed>
</trkpt>
<trkpt lat="55.660923" lon="26.571962">
<ele>146.693481</ele>
<time>2010-07-18T11:20:13Z</time>
<desc>lat.=55.660923, lon.=26.571962, Alt.=146.693481m. Speed=0.000000m/h.</desc>
<speed>0.000000</speed>
</trkpt>
<trkpt lat="55.660923" lon="26.571962">
<ele>146.693481</ele>
<time>2010-07-18T11:20:14Z</time>
<desc>lat.=55.660923, lon.=26.571962, Alt.=146.693481m. Speed=0.000000m/h.</desc>
<speed>0.000000</speed>
</trkpt>
<trkpt lat="55.660923" lon="26.571962">
<ele>146.693481</ele>
<time>2010-07-18T11:20:15Z</time>
<desc>lat.=55.660923, lon.=26.571962, Alt.=146.693481m. Speed=0.000000m/h.</desc>
<speed>0.000000</speed>
</trkpt>
<trkpt lat="55.660923" lon="26.571962">
<ele>146.689575</ele>
<time>2010-07-18T11:20:16Z</time>
<desc>lat.=55.660923, lon.=26.571962, Alt.=146.689575m. Speed=0.144000m/h.</desc>
<speed>0.040000</speed>
</trkpt>
<trkpt lat="55.660923" lon="26.571962">
<ele>146.689575</ele>
<time>2010-07-18T11:20:17Z</time>
<desc>lat.=55.660923, lon.=26.571962, Alt.=146.689575m. Speed=0.036000m/h.</desc>
<speed>0.010000</speed>
</trkpt>
<trkpt lat="55.660923" lon="26.571962">
<ele>146.685669</ele>
<time>2010-07-18T11:20:18Z</time>
<desc>lat.=55.660923, lon.=26.571962, Alt.=146.685669m. Speed=0.036000m/h.</desc>
<speed>0.010000</speed>
</trkpt>
<trkpt lat="55.660923" lon="26.571962">
<ele>146.685669</ele>
<time>2010-07-18T11:20:19Z</time>
<desc>lat.=55.660923, lon.=26.571962, Alt.=146.685669m. Speed=0.036000m/h.</desc>
<speed>0.010000</speed>
</trkpt>
<trkpt lat="55.660923" lon="26.571962">
<ele>146.681763</ele>
<time>2010-07-18T11:20:20Z</time>
<desc>lat.=55.660923, lon.=26.571962, Alt.=146.681763m. Speed=0.000000m/h.</desc>
<speed>0.000000</speed>
</trkpt>
<trkpt lat="55.660923" lon="26.571962">
<ele>146.681763</ele>
<time>2010-07-18T11:20:21Z</time>
<desc>lat.=55.660923, lon.=26.571962, Alt.=146.681763m. Speed=0.000000m/h.</desc>
<speed>0.000000</speed>
</trkpt>
<trkpt lat="55.660923" lon="26.571962">
<ele>146.677856</ele>
<time>2010-07-18T11:20:22Z</time>
<desc>lat.=55.660923, lon.=26.571962, Alt.=146.677856m. Speed=0.000000m/h.</desc>
<speed>0.000000</speed>
</trkpt>
<trkpt lat="55.660923" lon="26.571962">
<ele>146.677856</ele>
<time>2010-07-18T11:20:23Z</time>
<desc>lat.=55.660923, lon.=26.571962, Alt.=146.677856m. Speed=0.036000m/h.</desc>
<speed>0.010000</speed>
</trkpt>
<trkpt lat="55.660923" lon="26.571962">
<ele>146.677856</ele>
<time>2010-07-18T11:20:24Z</time>
<desc>lat.=55.660923, lon.=26.571962, Alt.=146.677856m. Speed=0.036000m/h.</desc>
<speed>0.010000</speed>
</trkpt>
<trkpt lat="55.660923" lon="26.571962">
<ele>146.673950</ele>
<time>2010-07-18T11:20:25Z</time>
<desc>lat.=55.660923, lon.=26.571962, Alt.=146.673950m. Speed=0.036000m/h.</desc>
<speed>0.010000</speed>
</trkpt>
<trkpt lat="55.660923" lon="26.571962">
<ele>146.673950</ele>
<time>2010-07-18T11:20:26Z</time>
<desc>lat.=55.660923, lon.=26.571962, Alt.=146.673950m. Speed=0.036000m/h.</desc>
<speed>0.010000</speed>
</trkpt>
<trkpt lat="55.660923" lon="26.571962">
<ele>146.673950</ele>
<time>2010-07-18T11:20:27Z</time>
<desc>lat.=55.660923, lon.=26.571962, Alt.=146.673950m. Speed=0.000000m/h.</desc>
<speed>0.000000</speed>
</trkpt>
<trkpt lat="55.660923" lon="26.571962">
<ele>146.673950</ele>
<time>2010-07-18T11:20:28Z</time>
<desc>lat.=55.660923, lon.=26.571962, Alt.=146.673950m. Speed=0.000000m/h.</desc>
<speed>0.000000</speed>
</trkpt>
<trkpt lat="55.660923" lon="26.571962">
<ele>146.673950</ele>
<time>2010-07-18T11:20:29Z</time>
<desc>lat.=55.660923, lon.=26.571962, Alt.=146.673950m. Speed=0.324000m/h.</desc>
<speed>0.090000</speed>
</trkpt>
<trkpt lat="55.660923" lon="26.571962">
<ele>146.670044</ele>
<time>2010-07-18T11:20:30Z</time>
<desc>lat.=55.660923, lon.=26.571962, Alt.=146.670044m. Speed=0.036000m/h.</desc>
<speed>0.010000</speed>
</trkpt>
<trkpt lat="55.660923" lon="26.571962">
<ele>146.670044</ele>
<time>2010-07-18T11:20:31Z</time>
<desc>lat.=55.660923, lon.=26.571962, Alt.=146.670044m. Speed=0.000000m/h.</desc>
<speed>0.000000</speed>
</trkpt>
<trkpt lat="55.660923" lon="26.571962">
<ele>146.666138</ele>
<time>2010-07-18T11:20:32Z</time>
<desc>lat.=55.660923, lon.=26.571962, Alt.=146.666138m. Speed=0.036000m/h.</desc>
<speed>0.010000</speed>
</trkpt>
<trkpt lat="55.660923" lon="26.571962">
<ele>146.666138</ele>
<time>2010-07-18T11:20:33Z</time>
<desc>lat.=55.660923, lon.=26.571962, Alt.=146.666138m. Speed=0.180000m/h.</desc>
<speed>0.050000</speed>
</trkpt>
<trkpt lat="55.660923" lon="26.571962">
<ele>146.666138</ele>
<time>2010-07-18T11:20:34Z</time>
<desc>lat.=55.660923, lon.=26.571962, Alt.=146.666138m. Speed=0.036000m/h.</desc>
<speed>0.010000</speed>
</trkpt>
<trkpt lat="55.660923" lon="26.571962">
<ele>146.666138</ele>
<time>2010-07-18T11:20:35Z</time>
<desc>lat.=55.660923, lon.=26.571962, Alt.=146.666138m. Speed=0.000000m/h.</desc>
<speed>0.000000</speed>
</trkpt>
<trkpt lat="55.660923" lon="26.571962">
<ele>146.666138</ele>
<time>2010-07-18T11:20:36Z</time>
<desc>lat.=55.660923, lon.=26.571962, Alt.=146.666138m. Speed=0.036000m/h.</desc>
<speed>0.010000</speed>
</trkpt>
<trkpt lat="55.660923" lon="26.571962">
<ele>146.662231</ele>
<time>2010-07-18T11:20:37Z</time>
<desc>lat.=55.660923, lon.=26.571962, Alt.=146.662231m. Speed=0.072000m/h.</desc>
<speed>0.020000</speed>
</trkpt>
<trkpt lat="55.660923" lon="26.571962">
<ele>146.658325</ele>
<time>2010-07-18T11:20:38Z</time>
<desc>lat.=55.660923, lon.=26.571962, Alt.=146.658325m. Speed=0.108000m/h.</desc>
<speed>0.030000</speed>
</trkpt>
<trkpt lat="55.660923" lon="26.571962">
<ele>146.658325</ele>
<time>2010-07-18T11:20:39Z</time>
<desc>lat.=55.660923, lon.=26.571962, Alt.=146.658325m. Speed=0.144000m/h.</desc>
<speed>0.040000</speed>
</trkpt>
<trkpt lat="55.660923" lon="26.571962">
<ele>146.658325</ele>
<time>2010-07-18T11:20:40Z</time>
<desc>lat.=55.660923, lon.=26.571962, Alt.=146.658325m. Speed=0.108000m/h.</desc>
<speed>0.030000</speed>
</trkpt>
<trkpt lat="55.660923" lon="26.571962">
<ele>146.658325</ele>
<time>2010-07-18T11:20:41Z</time>
<desc>lat.=55.660923, lon.=26.571962, Alt.=146.658325m. Speed=0.108000m/h.</desc>
<speed>0.030000</speed>
</trkpt>
<trkpt lat="55.660923" lon="26.571962">
<ele>146.658325</ele>
<time>2010-07-18T11:20:42Z</time>
<desc>lat.=55.660923, lon.=26.571962, Alt.=146.658325m. Speed=0.000000m/h.</desc>
<speed>0.000000</speed>
</trkpt>
<trkpt lat="55.660923" lon="26.571962">
<ele>146.662231</ele>
<time>2010-07-18T11:20:43Z</time>
<desc>lat.=55.660923, lon.=26.571962, Alt.=146.662231m. Speed=0.000000m/h.</desc>
<speed>0.000000</speed>
</trkpt>
<trkpt lat="55.660923" lon="26.571962">
<ele>146.662231</ele>
<time>2010-07-18T11:20:44Z</time>
<desc>lat.=55.660923, lon.=26.571962, Alt.=146.662231m. Speed=0.036000m/h.</desc>
<speed>0.010000</speed>
</trkpt>
<trkpt lat="55.660923" lon="26.571962">
<ele>146.666138</ele>
<time>2010-07-18T11:20:45Z</time>
<desc>lat.=55.660923, lon.=26.571962, Alt.=146.666138m. Speed=0.000000m/h.</desc>
<speed>0.000000</speed>
</trkpt>
<trkpt lat="55.660923" lon="26.571962">
<ele>146.670044</ele>
<time>2010-07-18T11:20:46Z</time>
<desc>lat.=55.660923, lon.=26.571962, Alt.=146.670044m. Speed=0.072000m/h.</desc>
<speed>0.020000</speed>
</trkpt>
<trkpt lat="55.660923" lon="26.571962">
<ele>146.673950</ele>
<time>2010-07-18T11:20:47Z</time>
<desc>lat.=55.660923, lon.=26.571962, Alt.=146.673950m. Speed=0.000000m/h.</desc>
<speed>0.000000</speed>
</trkpt>
<trkpt lat="55.660923" lon="26.571962">
<ele>146.677856</ele>
<time>2010-07-18T11:20:48Z</time>
<desc>lat.=55.660923, lon.=26.571962, Alt.=146.677856m. Speed=0.036000m/h.</desc>
<speed>0.010000</speed>
</trkpt>
<trkpt lat="55.660923" lon="26.571962">
<ele>146.677856</ele>
<time>2010-07-18T11:20:49Z</time>
<desc>lat.=55.660923, lon.=26.571962, Alt.=146.677856m. Speed=0.000000m/h.</desc>
<speed>0.000000</speed>
</trkpt>
<trkpt lat="55.660923" lon="26.571962">
<ele>146.685669</ele>
<time>2010-07-18T11:20:50Z</time>
<desc>lat.=55.660923, lon.=26.571962, Alt.=146.685669m. Speed=0.000000m/h.</desc>
<speed>0.000000</speed>
</trkpt>
<trkpt lat="55.660923" lon="26.571962">
<ele>146.689575</ele>
<time>2010-07-18T11:20:51Z</time>
<desc>lat.=55.660923, lon.=26.571962, Alt.=146.689575m. Speed=0.036000m/h.</desc>
<speed>0.010000</speed>
</trkpt>
<trkpt lat="55.660923" lon="26.571962">
<ele>146.693481</ele>
<time>2010-07-18T11:20:52Z</time>
<desc>lat.=55.660923, lon.=26.571962, Alt.=146.693481m. Speed=0.000000m/h.</desc>
<speed>0.000000</speed>
</trkpt>
<trkpt lat="55.660923" lon="26.571962">
<ele>146.693481</ele>
<time>2010-07-18T11:20:53Z</time>
<desc>lat.=55.660923, lon.=26.571962, Alt.=146.693481m. Speed=0.036000m/h.</desc>
<speed>0.010000</speed>
</trkpt>
<trkpt lat="55.660923" lon="26.571962">
<ele>146.693481</ele>
<time>2010-07-18T11:20:54Z</time>
<desc>lat.=55.660923, lon.=26.571962, Alt.=146.693481m. Speed=0.000000m/h.</desc>
<speed>0.000000</speed>
</trkpt>
<trkpt lat="55.660923" lon="26.571962">
<ele>146.697388</ele>
<time>2010-07-18T11:20:55Z</time>
<desc>lat.=55.660923, lon.=26.571962, Alt.=146.697388m. Speed=0.000000m/h.</desc>
<speed>0.000000</speed>
</trkpt>
<trkpt lat="55.660923" lon="26.571962">
<ele>146.701294</ele>
<time>2010-07-18T11:20:56Z</time>
<desc>lat.=55.660923, lon.=26.571962, Alt.=146.701294m. Speed=0.036000m/h.</desc>
<speed>0.010000</speed>
</trkpt>
<trkpt lat="55.660923" lon="26.571962">
<ele>146.705200</ele>
<time>2010-07-18T11:20:57Z</time>
<desc>lat.=55.660923, lon.=26.571962, Alt.=146.705200m. Speed=0.000000m/h.</desc>
<speed>0.000000</speed>
</trkpt>
<trkpt lat="55.660923" lon="26.571960">
<ele>146.709106</ele>
<time>2010-07-18T11:20:58Z</time>
<desc>lat.=55.660923, lon.=26.571960, Alt.=146.709106m. Speed=0.036000m/h.</desc>
<speed>0.010000</speed>
</trkpt>
<trkpt lat="55.660923" lon="26.571960">
<ele>146.709106</ele>
<time>2010-07-18T11:20:59Z</time>
<desc>lat.=55.660923, lon.=26.571960, Alt.=146.709106m. Speed=0.000000m/h.</desc>
<speed>0.000000</speed>
</trkpt>
<trkpt lat="55.660923" lon="26.571960">
<ele>146.709106</ele>
<time>2010-07-18T11:21:00Z</time>
<desc>lat.=55.660923, lon.=26.571960, Alt.=146.709106m. Speed=0.036000m/h.</desc>
<speed>0.010000</speed>
</trkpt>
<trkpt lat="55.660923" lon="26.571960">
<ele>146.713013</ele>
<time>2010-07-18T11:21:01Z</time>
<desc>lat.=55.660923, lon.=26.571960, Alt.=146.713013m. Speed=0.000000m/h.</desc>
<speed>0.000000</speed>
</trkpt>
<trkpt lat="55.660923" lon="26.571960">
<ele>146.713013</ele>
<time>2010-07-18T11:21:02Z</time>
<desc>lat.=55.660923, lon.=26.571960, Alt.=146.713013m. Speed=0.000000m/h.</desc>
<speed>0.000000</speed>
</trkpt>
<trkpt lat="55.660923" lon="26.571960">
<ele>146.709106</ele>
<time>2010-07-18T11:21:03Z</time>
<desc>lat.=55.660923, lon.=26.571960, Alt.=146.709106m. Speed=0.072000m/h.</desc>
<speed>0.020000</speed>
</trkpt>
<trkpt lat="55.660923" lon="26.571960">
<ele>146.709106</ele>
<time>2010-07-18T11:21:04Z</time>
<desc>lat.=55.660923, lon.=26.571960, Alt.=146.709106m. Speed=0.036000m/h.</desc>
<speed>0.010000</speed>
</trkpt>
<trkpt lat="55.660923" lon="26.571960">
<ele>146.709106</ele>
<time>2010-07-18T11:21:05Z</time>
<desc>lat.=55.660923, lon.=26.571960, Alt.=146.709106m. Speed=0.072000m/h.</desc>
<speed>0.020000</speed>
</trkpt>
<trkpt lat="55.660923" lon="26.571960">
<ele>146.709106</ele>
<time>2010-07-18T11:21:06Z</time>
<desc>lat.=55.660923, lon.=26.571960, Alt.=146.709106m. Speed=0.108000m/h.</desc>
<speed>0.030000</speed>
</trkpt>
<trkpt lat="55.660923" lon="26.571960">
<ele>146.709106</ele>
<time>2010-07-18T11:21:07Z</time>
<desc>lat.=55.660923, lon.=26.571960, Alt.=146.709106m. Speed=0.108000m/h.</desc>
<speed>0.030000</speed>
</trkpt>
<trkpt lat="55.660923" lon="26.571960">
<ele>146.709106</ele>
<time>2010-07-18T11:21:08Z</time>
<desc>lat.=55.660923, lon.=26.571960, Alt.=146.709106m. Speed=0.072000m/h.</desc>
<speed>0.020000</speed>
</trkpt>
<trkpt lat="55.660923" lon="26.571960">
<ele>146.705200</ele>
<time>2010-07-18T11:21:09Z</time>
<desc>lat.=55.660923, lon.=26.571960, Alt.=146.705200m. Speed=0.072000m/h.</desc>
<speed>0.020000</speed>
</trkpt>
<trkpt lat="55.660923" lon="26.571960">
<ele>146.701294</ele>
<time>2010-07-18T11:21:10Z</time>
<desc>lat.=55.660923, lon.=26.571960, Alt.=146.701294m. Speed=0.036000m/h.</desc>
<speed>0.010000</speed>
</trkpt>
<trkpt lat="55.660923" lon="26.571960">
<ele>146.701294</ele>
<time>2010-07-18T11:21:11Z</time>
<desc>lat.=55.660923, lon.=26.571960, Alt.=146.701294m. Speed=0.144000m/h.</desc>
<speed>0.040000</speed>
</trkpt>
<trkpt lat="55.660923" lon="26.571960">
<ele>146.701294</ele>
<time>2010-07-18T11:21:12Z</time>
<desc>lat.=55.660923, lon.=26.571960, Alt.=146.701294m. Speed=0.036000m/h.</desc>
<speed>0.010000</speed>
</trkpt>
<trkpt lat="55.660923" lon="26.571960">
<ele>146.701294</ele>
<time>2010-07-18T11:21:13Z</time>
<desc>lat.=55.660923, lon.=26.571960, Alt.=146.701294m. Speed=0.036000m/h.</desc>
<speed>0.010000</speed>
</trkpt>
<trkpt lat="55.660923" lon="26.571960">
<ele>146.697388</ele>
<time>2010-07-18T11:21:14Z</time>
<desc>lat.=55.660923, lon.=26.571960, Alt.=146.697388m. Speed=0.036000m/h.</desc>
<speed>0.010000</speed>
</trkpt>
<trkpt lat="55.660923" lon="26.571960">
<ele>146.697388</ele>
<time>2010-07-18T11:21:15Z</time>
<desc>lat.=55.660923, lon.=26.571960, Alt.=146.697388m. Speed=0.000000m/h.</desc>
<speed>0.000000</speed>
</trkpt>
<trkpt lat="55.660923" lon="26.571960">
<ele>146.701294</ele>
<time>2010-07-18T11:21:16Z</time>
<desc>lat.=55.660923, lon.=26.571960, Alt.=146.701294m. Speed=0.108000m/h.</desc>
<speed>0.030000</speed>
</trkpt>
<trkpt lat="55.660923" lon="26.571960">
<ele>146.705200</ele>
<time>2010-07-18T11:21:17Z</time>
<desc>lat.=55.660923, lon.=26.571960, Alt.=146.705200m. Speed=0.000000m/h.</desc>
<speed>0.000000</speed>
</trkpt>
<trkpt lat="55.660923" lon="26.571960">
<ele>146.709106</ele>
<time>2010-07-18T11:21:18Z</time>
<desc>lat.=55.660923, lon.=26.571960, Alt.=146.709106m. Speed=0.180000m/h.</desc>
<speed>0.050000</speed>
</trkpt>
<trkpt lat="55.660923" lon="26.571960">
<ele>146.709106</ele>
<time>2010-07-18T11:21:19Z</time>
<desc>lat.=55.660923, lon.=26.571960, Alt.=146.709106m. Speed=0.180000m/h.</desc>
<speed>0.050000</speed>
</trkpt>
<trkpt lat="55.660923" lon="26.571960">
<ele>146.713013</ele>
<time>2010-07-18T11:21:20Z</time>
<desc>lat.=55.660923, lon.=26.571960, Alt.=146.713013m. Speed=0.036000m/h.</desc>
<speed>0.010000</speed>
</trkpt>
<trkpt lat="55.660923" lon="26.571960">
<ele>146.716919</ele>
<time>2010-07-18T11:21:21Z</time>
<desc>lat.=55.660923, lon.=26.571960, Alt.=146.716919m. Speed=0.036000m/h.</desc>
<speed>0.010000</speed>
</trkpt>
<trkpt lat="55.660923" lon="26.571960">
<ele>146.720825</ele>
<time>2010-07-18T11:21:22Z</time>
<desc>lat.=55.660923, lon.=26.571960, Alt.=146.720825m. Speed=0.072000m/h.</desc>
<speed>0.020000</speed>
</trkpt>
<trkpt lat="55.660923" lon="26.571960">
<ele>146.720825</ele>
<time>2010-07-18T11:21:23Z</time>
<desc>lat.=55.660923, lon.=26.571960, Alt.=146.720825m. Speed=0.072000m/h.</desc>
<speed>0.020000</speed>
</trkpt>
<trkpt lat="55.660923" lon="26.571960">
<ele>146.724731</ele>
<time>2010-07-18T11:21:24Z</time>
<desc>lat.=55.660923, lon.=26.571960, Alt.=146.724731m. Speed=0.036000m/h.</desc>
<speed>0.010000</speed>
</trkpt>
<trkpt lat="55.660923" lon="26.571960">
<ele>146.728638</ele>
<time>2010-07-18T11:21:25Z</time>
<desc>lat.=55.660923, lon.=26.571960, Alt.=146.728638m. Speed=0.036000m/h.</desc>
<speed>0.010000</speed>
</trkpt>
<trkpt lat="55.660923" lon="26.571960">
<ele>146.732544</ele>
<time>2010-07-18T11:21:26Z</time>
<desc>lat.=55.660923, lon.=26.571960, Alt.=146.732544m. Speed=0.036000m/h.</desc>
<speed>0.010000</speed>
</trkpt>
<trkpt lat="55.660923" lon="26.571960">
<ele>146.732544</ele>
<time>2010-07-18T11:21:27Z</time>
<desc>lat.=55.660923, lon.=26.571960, Alt.=146.732544m. Speed=0.072000m/h.</desc>
<speed>0.020000</speed>
</trkpt>
<trkpt lat="55.660923" lon="26.571960">
<ele>146.736450</ele>
<time>2010-07-18T11:21:28Z</time>
<desc>lat.=55.660923, lon.=26.571960, Alt.=146.736450m. Speed=0.108000m/h.</desc>
<speed>0.030000</speed>
</trkpt>
<trkpt lat="55.660923" lon="26.571960">
<ele>146.744263</ele>
<time>2010-07-18T11:21:29Z</time>
<desc>lat.=55.660923, lon.=26.571960, Alt.=146.744263m. Speed=0.108000m/h.</desc>
<speed>0.030000</speed>
</trkpt>
<trkpt lat="55.660923" lon="26.571960">
<ele>146.740356</ele>
<time>2010-07-18T11:21:30Z</time>
<desc>lat.=55.660923, lon.=26.571960, Alt.=146.740356m. Speed=0.144000m/h.</desc>
<speed>0.040000</speed>
</trkpt>
<trkpt lat="55.660923" lon="26.571960">
<ele>146.740356</ele>
<time>2010-07-18T11:21:31Z</time>
<desc>lat.=55.660923, lon.=26.571960, Alt.=146.740356m. Speed=0.072000m/h.</desc>
<speed>0.020000</speed>
</trkpt>
<trkpt lat="55.660923" lon="26.571960">
<ele>146.736450</ele>
<time>2010-07-18T11:21:32Z</time>
<desc>lat.=55.660923, lon.=26.571960, Alt.=146.736450m. Speed=0.036000m/h.</desc>
<speed>0.010000</speed>
</trkpt>
<trkpt lat="55.660923" lon="26.571960">
<ele>146.736450</ele>
<time>2010-07-18T11:21:33Z</time>
<desc>lat.=55.660923, lon.=26.571960, Alt.=146.736450m. Speed=0.000000m/h.</desc>
<speed>0.000000</speed>
</trkpt>
<trkpt lat="55.660923" lon="26.571960">
<ele>146.736450</ele>
<time>2010-07-18T11:21:34Z</time>
<desc>lat.=55.660923, lon.=26.571960, Alt.=146.736450m. Speed=0.036000m/h.</desc>
<speed>0.010000</speed>
</trkpt>
<trkpt lat="55.660923" lon="26.571960">
<ele>146.736450</ele>
<time>2010-07-18T11:21:35Z</time>
<desc>lat.=55.660923, lon.=26.571960, Alt.=146.736450m. Speed=0.000000m/h.</desc>
<speed>0.000000</speed>
</trkpt>
<trkpt lat="55.660923" lon="26.571960">
<ele>146.740356</ele>
<time>2010-07-18T11:21:36Z</time>
<desc>lat.=55.660923, lon.=26.571960, Alt.=146.740356m. Speed=0.000000m/h.</desc>
<speed>0.000000</speed>
</trkpt>
<trkpt lat="55.660923" lon="26.571960">
<ele>146.740356</ele>
<time>2010-07-18T11:21:37Z</time>
<desc>lat.=55.660923, lon.=26.571960, Alt.=146.740356m. Speed=0.000000m/h.</desc>
<speed>0.000000</speed>
</trkpt>
<trkpt lat="55.660923" lon="26.571960">
<ele>146.748169</ele>
<time>2010-07-18T11:21:38Z</time>
<desc>lat.=55.660923, lon.=26.571960, Alt.=146.748169m. Speed=0.036000m/h.</desc>
<speed>0.010000</speed>
</trkpt>
<trkpt lat="55.660923" lon="26.571960">
<ele>146.748169</ele>
<time>2010-07-18T11:21:39Z</time>
<desc>lat.=55.660923, lon.=26.571960, Alt.=146.748169m. Speed=0.036000m/h.</desc>
<speed>0.010000</speed>
</trkpt>
<trkpt lat="55.660923" lon="26.571960">
<ele>146.752075</ele>
<time>2010-07-18T11:21:40Z</time>
<desc>lat.=55.660923, lon.=26.571960, Alt.=146.752075m. Speed=0.000000m/h.</desc>
<speed>0.000000</speed>
</trkpt>
<trkpt lat="55.660923" lon="26.571960">
<ele>146.752075</ele>
<time>2010-07-18T11:21:41Z</time>
<desc>lat.=55.660923, lon.=26.571960, Alt.=146.752075m. Speed=0.000000m/h.</desc>
<speed>0.000000</speed>
</trkpt>
<trkpt lat="55.660923" lon="26.571960">
<ele>146.752075</ele>
<time>2010-07-18T11:21:42Z</time>
<desc>lat.=55.660923, lon.=26.571960, Alt.=146.752075m. Speed=0.000000m/h.</desc>
<speed>0.000000</speed>
</trkpt>
<trkpt lat="55.660923" lon="26.571960">
<ele>146.755981</ele>
<time>2010-07-18T11:21:43Z</time>
<desc>lat.=55.660923, lon.=26.571960, Alt.=146.755981m. Speed=0.072000m/h.</desc>
<speed>0.020000</speed>
</trkpt>
<trkpt lat="55.660923" lon="26.571960">
<ele>146.759888</ele>
<time>2010-07-18T11:21:44Z</time>
<desc>lat.=55.660923, lon.=26.571960, Alt.=146.759888m. Speed=0.000000m/h.</desc>
<speed>0.000000</speed>
</trkpt>
<trkpt lat="55.660923" lon="26.571960">
<ele>146.759888</ele>
<time>2010-07-18T11:21:45Z</time>
<desc>lat.=55.660923, lon.=26.571960, Alt.=146.759888m. Speed=0.000000m/h.</desc>
<speed>0.000000</speed>
</trkpt>
<trkpt lat="55.660923" lon="26.571960">
<ele>146.763794</ele>
<time>2010-07-18T11:21:46Z</time>
<desc>lat.=55.660923, lon.=26.571960, Alt.=146.763794m. Speed=0.180000m/h.</desc>
<speed>0.050000</speed>
</trkpt>
<trkpt lat="55.660923" lon="26.571960">
<ele>146.759888</ele>
<time>2010-07-18T11:21:47Z</time>
<desc>lat.=55.660923, lon.=26.571960, Alt.=146.759888m. Speed=0.000000m/h.</desc>
<speed>0.000000</speed>
</trkpt>
<trkpt lat="55.660923" lon="26.571960">
<ele>146.759888</ele>
<time>2010-07-18T11:21:48Z</time>
<desc>lat.=55.660923, lon.=26.571960, Alt.=146.759888m. Speed=0.036000m/h.</desc>
<speed>0.010000</speed>
</trkpt>
<trkpt lat="55.660923" lon="26.571960">
<ele>146.759888</ele>
<time>2010-07-18T11:21:49Z</time>
<desc>lat.=55.660923, lon.=26.571960, Alt.=146.759888m. Speed=0.000000m/h.</desc>
<speed>0.000000</speed>
</trkpt>
<trkpt lat="55.660923" lon="26.571960">
<ele>146.759888</ele>
<time>2010-07-18T11:21:50Z</time>
<desc>lat.=55.660923, lon.=26.571960, Alt.=146.759888m. Speed=0.036000m/h.</desc>
<speed>0.010000</speed>
</trkpt>
<trkpt lat="55.660923" lon="26.571960">
<ele>146.759888</ele>
<time>2010-07-18T11:21:51Z</time>
<desc>lat.=55.660923, lon.=26.571960, Alt.=146.759888m. Speed=0.000000m/h.</desc>
<speed>0.000000</speed>
</trkpt>
<trkpt lat="55.660923" lon="26.571960">
<ele>146.759888</ele>
<time>2010-07-18T11:21:52Z</time>
<desc>lat.=55.660923, lon.=26.571960, Alt.=146.759888m. Speed=0.000000m/h.</desc>
<speed>0.000000</speed>
</trkpt>
<trkpt lat="55.660923" lon="26.571960">
<ele>146.759888</ele>
<time>2010-07-18T11:21:53Z</time>
<desc>lat.=55.660923, lon.=26.571960, Alt.=146.759888m. Speed=0.000000m/h.</desc>
<speed>0.000000</speed>
</trkpt>
<trkpt lat="55.660923" lon="26.571960">
<ele>146.759888</ele>
<time>2010-07-18T11:21:54Z</time>
<desc>lat.=55.660923, lon.=26.571960, Alt.=146.759888m. Speed=0.036000m/h.</desc>
<speed>0.010000</speed>
</trkpt>
<trkpt lat="55.660923" lon="26.571960">
<ele>146.759888</ele>
<time>2010-07-18T11:21:55Z</time>
<desc>lat.=55.660923, lon.=26.571960, Alt.=146.759888m. Speed=0.000000m/h.</desc>
<speed>0.000000</speed>
</trkpt>
<trkpt lat="55.660923" lon="26.571960">
<ele>146.763794</ele>
<time>2010-07-18T11:21:56Z</time>
<desc>lat.=55.660923, lon.=26.571960, Alt.=146.763794m. Speed=0.000000m/h.</desc>
<speed>0.000000</speed>
</trkpt>
<trkpt lat="55.660923" lon="26.571960">
<ele>146.767700</ele>
<time>2010-07-18T11:21:57Z</time>
<desc>lat.=55.660923, lon.=26.571960, Alt.=146.767700m. Speed=0.036000m/h.</desc>
<speed>0.010000</speed>
</trkpt>
<trkpt lat="55.660923" lon="26.571960">
<ele>146.767700</ele>
<time>2010-07-18T11:21:58Z</time>
<desc>lat.=55.660923, lon.=26.571960, Alt.=146.767700m. Speed=0.000000m/h.</desc>
<speed>0.000000</speed>
</trkpt>
<trkpt lat="55.660923" lon="26.571960">
<ele>146.767700</ele>
<time>2010-07-18T11:21:59Z</time>
<desc>lat.=55.660923, lon.=26.571960, Alt.=146.767700m. Speed=0.036000m/h.</desc>
<speed>0.010000</speed>
</trkpt>
<trkpt lat="55.660923" lon="26.571960">
<ele>146.767700</ele>
<time>2010-07-18T11:22:00Z</time>
<desc>lat.=55.660923, lon.=26.571960, Alt.=146.767700m. Speed=0.072000m/h.</desc>
<speed>0.020000</speed>
</trkpt>
<trkpt lat="55.660923" lon="26.571960">
<ele>146.767700</ele>
<time>2010-07-18T11:22:01Z</time>
<desc>lat.=55.660923, lon.=26.571960, Alt.=146.767700m. Speed=0.036000m/h.</desc>
<speed>0.010000</speed>
</trkpt>
<trkpt lat="55.660923" lon="26.571960">
<ele>146.771606</ele>
<time>2010-07-18T11:22:02Z</time>
<desc>lat.=55.660923, lon.=26.571960, Alt.=146.771606m. Speed=0.000000m/h.</desc>
<speed>0.000000</speed>
</trkpt>
<trkpt lat="55.660923" lon="26.571960">
<ele>146.771606</ele>
<time>2010-07-18T11:22:03Z</time>
<desc>lat.=55.660923, lon.=26.571960, Alt.=146.771606m. Speed=0.000000m/h.</desc>
<speed>0.000000</speed>
</trkpt>
<trkpt lat="55.660923" lon="26.571960">
<ele>146.771606</ele>
<time>2010-07-18T11:22:04Z</time>
<desc>lat.=55.660923, lon.=26.571960, Alt.=146.771606m. Speed=0.000000m/h.</desc>
<speed>0.000000</speed>
</trkpt>
<trkpt lat="55.660923" lon="26.571960">
<ele>146.771606</ele>
<time>2010-07-18T11:22:05Z</time>
<desc>lat.=55.660923, lon.=26.571960, Alt.=146.771606m. Speed=0.036000m/h.</desc>
<speed>0.010000</speed>
</trkpt>
<trkpt lat="55.660923" lon="26.571960">
<ele>146.771606</ele>
<time>2010-07-18T11:22:06Z</time>
<desc>lat.=55.660923, lon.=26.571960, Alt.=146.771606m. Speed=0.000000m/h.</desc>
<speed>0.000000</speed>
</trkpt>
<trkpt lat="55.660923" lon="26.571960">
<ele>146.771606</ele>
<time>2010-07-18T11:22:07Z</time>
<desc>lat.=55.660923, lon.=26.571960, Alt.=146.771606m. Speed=0.000000m/h.</desc>
<speed>0.000000</speed>
</trkpt>
<trkpt lat="55.660923" lon="26.571960">
<ele>146.775513</ele>
<time>2010-07-18T11:22:08Z</time>
<desc>lat.=55.660923, lon.=26.571960, Alt.=146.775513m. Speed=0.000000m/h.</desc>
<speed>0.000000</speed>
</trkpt>
<trkpt lat="55.660923" lon="26.571960">
<ele>146.775513</ele>
<time>2010-07-18T11:22:09Z</time>
<desc>lat.=55.660923, lon.=26.571960, Alt.=146.775513m. Speed=0.036000m/h.</desc>
<speed>0.010000</speed>
</trkpt>
<trkpt lat="55.660923" lon="26.571960">
<ele>146.775513</ele>
<time>2010-07-18T11:22:10Z</time>
<desc>lat.=55.660923, lon.=26.571960, Alt.=146.775513m. Speed=0.000000m/h.</desc>
<speed>0.000000</speed>
</trkpt>
<trkpt lat="55.660923" lon="26.571960">
<ele>146.775513</ele>
<time>2010-07-18T11:22:11Z</time>
<desc>lat.=55.660923, lon.=26.571960, Alt.=146.775513m. Speed=0.036000m/h.</desc>
<speed>0.010000</speed>
</trkpt>
<trkpt lat="55.660923" lon="26.571960">
<ele>146.775513</ele>
<time>2010-07-18T11:22:12Z</time>
<desc>lat.=55.660923, lon.=26.571960, Alt.=146.775513m. Speed=0.072000m/h.</desc>
<speed>0.020000</speed>
</trkpt>
<trkpt lat="55.660923" lon="26.571960">
<ele>146.771606</ele>
<time>2010-07-18T11:22:13Z</time>
<desc>lat.=55.660923, lon.=26.571960, Alt.=146.771606m. Speed=0.036000m/h.</desc>
<speed>0.010000</speed>
</trkpt>
<trkpt lat="55.660923" lon="26.571960">
<ele>146.767700</ele>
<time>2010-07-18T11:22:14Z</time>
<desc>lat.=55.660923, lon.=26.571960, Alt.=146.767700m. Speed=0.000000m/h.</desc>
<speed>0.000000</speed>
</trkpt>
<trkpt lat="55.660923" lon="26.571960">
<ele>146.767700</ele>
<time>2010-07-18T11:22:15Z</time>
<desc>lat.=55.660923, lon.=26.571960, Alt.=146.767700m. Speed=0.000000m/h.</desc>
<speed>0.000000</speed>
</trkpt>
<trkpt lat="55.660923" lon="26.571960">
<ele>146.767700</ele>
<time>2010-07-18T11:22:16Z</time>
<desc>lat.=55.660923, lon.=26.571960, Alt.=146.767700m. Speed=0.000000m/h.</desc>
<speed>0.000000</speed>
</trkpt>
<trkpt lat="55.660923" lon="26.571962">
<ele>146.763794</ele>
<time>2010-07-18T11:22:17Z</time>
<desc>lat.=55.660923, lon.=26.571962, Alt.=146.763794m. Speed=0.000000m/h.</desc>
<speed>0.000000</speed>
</trkpt>
<trkpt lat="55.660923" lon="26.571962">
<ele>146.763794</ele>
<time>2010-07-18T11:22:18Z</time>
<desc>lat.=55.660923, lon.=26.571962, Alt.=146.763794m. Speed=0.036000m/h.</desc>
<speed>0.010000</speed>
</trkpt>
<trkpt lat="55.660923" lon="26.571962">
<ele>146.763794</ele>
<time>2010-07-18T11:22:19Z</time>
<desc>lat.=55.660923, lon.=26.571962, Alt.=146.763794m. Speed=0.036000m/h.</desc>
<speed>0.010000</speed>
</trkpt>
<trkpt lat="55.660923" lon="26.571962">
<ele>146.763794</ele>
<time>2010-07-18T11:22:20Z</time>
<desc>lat.=55.660923, lon.=26.571962, Alt.=146.763794m. Speed=0.072000m/h.</desc>
<speed>0.020000</speed>
</trkpt>
<trkpt lat="55.660923" lon="26.571962">
<ele>146.763794</ele>
<time>2010-07-18T11:22:21Z</time>
<desc>lat.=55.660923, lon.=26.571962, Alt.=146.763794m. Speed=0.036000m/h.</desc>
<speed>0.010000</speed>
</trkpt>
<trkpt lat="55.660923" lon="26.571962">
<ele>146.763794</ele>
<time>2010-07-18T11:22:22Z</time>
<desc>lat.=55.660923, lon.=26.571962, Alt.=146.763794m. Speed=0.000000m/h.</desc>
<speed>0.000000</speed>
</trkpt>
<trkpt lat="55.660923" lon="26.571962">
<ele>146.763794</ele>
<time>2010-07-18T11:22:23Z</time>
<desc>lat.=55.660923, lon.=26.571962, Alt.=146.763794m. Speed=0.036000m/h.</desc>
<speed>0.010000</speed>
</trkpt>
<trkpt lat="55.660923" lon="26.571962">
<ele>146.763794</ele>
<time>2010-07-18T11:22:24Z</time>
<desc>lat.=55.660923, lon.=26.571962, Alt.=146.763794m. Speed=0.000000m/h.</desc>
<speed>0.000000</speed>
</trkpt>
<trkpt lat="55.660923" lon="26.571962">
<ele>146.763794</ele>
<time>2010-07-18T11:22:25Z</time>
<desc>lat.=55.660923, lon.=26.571962, Alt.=146.763794m. Speed=0.036000m/h.</desc>
<speed>0.010000</speed>
</trkpt>
<trkpt lat="55.660923" lon="26.571962">
<ele>146.763794</ele>
<time>2010-07-18T11:22:26Z</time>
<desc>lat.=55.660923, lon.=26.571962, Alt.=146.763794m. Speed=0.036000m/h.</desc>
<speed>0.010000</speed>
</trkpt>
<trkpt lat="55.660923" lon="26.571962">
<ele>146.759888</ele>
<time>2010-07-18T11:22:27Z</time>
<desc>lat.=55.660923, lon.=26.571962, Alt.=146.759888m. Speed=0.036000m/h.</desc>
<speed>0.010000</speed>
</trkpt>
<trkpt lat="55.660923" lon="26.571962">
<ele>146.759888</ele>
<time>2010-07-18T11:22:28Z</time>
<desc>lat.=55.660923, lon.=26.571962, Alt.=146.759888m. Speed=0.000000m/h.</desc>
<speed>0.000000</speed>
</trkpt>
<trkpt lat="55.660923" lon="26.571962">
<ele>146.755981</ele>
<time>2010-07-18T11:22:29Z</time>
<desc>lat.=55.660923, lon.=26.571962, Alt.=146.755981m. Speed=0.036000m/h.</desc>
<speed>0.010000</speed>
</trkpt>
<trkpt lat="55.660923" lon="26.571962">
<ele>146.755981</ele>
<time>2010-07-18T11:22:30Z</time>
<desc>lat.=55.660923, lon.=26.571962, Alt.=146.755981m. Speed=0.000000m/h.</desc>
<speed>0.000000</speed>
</trkpt>
<trkpt lat="55.660923" lon="26.571962">
<ele>146.752075</ele>
<time>2010-07-18T11:22:31Z</time>
<desc>lat.=55.660923, lon.=26.571962, Alt.=146.752075m. Speed=0.000000m/h.</desc>
<speed>0.000000</speed>
</trkpt>
<trkpt lat="55.660923" lon="26.571962">
<ele>146.748169</ele>
<time>2010-07-18T11:22:32Z</time>
<desc>lat.=55.660923, lon.=26.571962, Alt.=146.748169m. Speed=0.000000m/h.</desc>
<speed>0.000000</speed>
</trkpt>
<trkpt lat="55.660923" lon="26.571962">
<ele>146.748169</ele>
<time>2010-07-18T11:22:33Z</time>
<desc>lat.=55.660923, lon.=26.571962, Alt.=146.748169m. Speed=0.036000m/h.</desc>
<speed>0.010000</speed>
</trkpt>
<trkpt lat="55.660923" lon="26.571962">
<ele>146.740356</ele>
<time>2010-07-18T11:22:34Z</time>
<desc>lat.=55.660923, lon.=26.571962, Alt.=146.740356m. Speed=0.036000m/h.</desc>
<speed>0.010000</speed>
</trkpt>
<trkpt lat="55.660923" lon="26.571962">
<ele>146.736450</ele>
<time>2010-07-18T11:22:35Z</time>
<desc>lat.=55.660923, lon.=26.571962, Alt.=146.736450m. Speed=0.036000m/h.</desc>
<speed>0.010000</speed>
</trkpt>
<trkpt lat="55.660923" lon="26.571962">
<ele>146.736450</ele>
<time>2010-07-18T11:22:36Z</time>
<desc>lat.=55.660923, lon.=26.571962, Alt.=146.736450m. Speed=0.000000m/h.</desc>
<speed>0.000000</speed>
</trkpt>
<trkpt lat="55.660923" lon="26.571962">
<ele>146.732544</ele>
<time>2010-07-18T11:22:37Z</time>
<desc>lat.=55.660923, lon.=26.571962, Alt.=146.732544m. Speed=0.000000m/h.</desc>
<speed>0.000000</speed>
</trkpt>
<trkpt lat="55.660923" lon="26.571962">
<ele>146.732544</ele>
<time>2010-07-18T11:22:38Z</time>
<desc>lat.=55.660923, lon.=26.571962, Alt.=146.732544m. Speed=0.000000m/h.</desc>
<speed>0.000000</speed>
</trkpt>
<trkpt lat="55.660923" lon="26.571962">
<ele>146.732544</ele>
<time>2010-07-18T11:22:39Z</time>
<desc>lat.=55.660923, lon.=26.571962, Alt.=146.732544m. Speed=0.036000m/h.</desc>
<speed>0.010000</speed>
</trkpt>
<trkpt lat="55.660923" lon="26.571962">
<ele>146.728638</ele>
<time>2010-07-18T11:22:40Z</time>
<desc>lat.=55.660923, lon.=26.571962, Alt.=146.728638m. Speed=0.036000m/h.</desc>
<speed>0.010000</speed>
</trkpt>
<trkpt lat="55.660923" lon="26.571962">
<ele>146.724731</ele>
<time>2010-07-18T11:22:41Z</time>
<desc>lat.=55.660923, lon.=26.571962, Alt.=146.724731m. Speed=0.072000m/h.</desc>
<speed>0.020000</speed>
</trkpt>
<trkpt lat="55.660923" lon="26.571962">
<ele>146.716919</ele>
<time>2010-07-18T11:22:42Z</time>
<desc>lat.=55.660923, lon.=26.571962, Alt.=146.716919m. Speed=0.036000m/h.</desc>
<speed>0.010000</speed>
</trkpt>
<trkpt lat="55.660923" lon="26.571962">
<ele>146.713013</ele>
<time>2010-07-18T11:22:43Z</time>
<desc>lat.=55.660923, lon.=26.571962, Alt.=146.713013m. Speed=0.036000m/h.</desc>
<speed>0.010000</speed>
</trkpt>
<trkpt lat="55.660923" lon="26.571962">
<ele>146.705200</ele>
<time>2010-07-18T11:22:44Z</time>
<desc>lat.=55.660923, lon.=26.571962, Alt.=146.705200m. Speed=0.072000m/h.</desc>
<speed>0.020000</speed>
</trkpt>
<trkpt lat="55.660923" lon="26.571962">
<ele>146.701294</ele>
<time>2010-07-18T11:22:45Z</time>
<desc>lat.=55.660923, lon.=26.571962, Alt.=146.701294m. Speed=0.072000m/h.</desc>
<speed>0.020000</speed>
</trkpt>
<trkpt lat="55.660923" lon="26.571962">
<ele>146.697388</ele>
<time>2010-07-18T11:22:46Z</time>
<desc>lat.=55.660923, lon.=26.571962, Alt.=146.697388m. Speed=0.000000m/h.</desc>
<speed>0.000000</speed>
</trkpt>
<trkpt lat="55.660923" lon="26.571962">
<ele>146.693481</ele>
<time>2010-07-18T11:22:47Z</time>
<desc>lat.=55.660923, lon.=26.571962, Alt.=146.693481m. Speed=0.036000m/h.</desc>
<speed>0.010000</speed>
</trkpt>
<trkpt lat="55.660923" lon="26.571962">
<ele>146.689575</ele>
<time>2010-07-18T11:22:48Z</time>
<desc>lat.=55.660923, lon.=26.571962, Alt.=146.689575m. Speed=0.036000m/h.</desc>
<speed>0.010000</speed>
</trkpt>
<trkpt lat="55.660923" lon="26.571962">
<ele>146.685669</ele>
<time>2010-07-18T11:22:49Z</time>
<desc>lat.=55.660923, lon.=26.571962, Alt.=146.685669m. Speed=0.000000m/h.</desc>
<speed>0.000000</speed>
</trkpt>
<trkpt lat="55.660923" lon="26.571962">
<ele>146.681763</ele>
<time>2010-07-18T11:22:50Z</time>
<desc>lat.=55.660923, lon.=26.571962, Alt.=146.681763m. Speed=0.000000m/h.</desc>
<speed>0.000000</speed>
</trkpt>
<trkpt lat="55.660923" lon="26.571962">
<ele>146.677856</ele>
<time>2010-07-18T11:22:51Z</time>
<desc>lat.=55.660923, lon.=26.571962, Alt.=146.677856m. Speed=0.036000m/h.</desc>
<speed>0.010000</speed>
</trkpt>
<trkpt lat="55.660923" lon="26.571962">
<ele>146.670044</ele>
<time>2010-07-18T11:22:52Z</time>
<desc>lat.=55.660923, lon.=26.571962, Alt.=146.670044m. Speed=0.036000m/h.</desc>
<speed>0.010000</speed>
</trkpt>
<trkpt lat="55.660923" lon="26.571962">
<ele>146.670044</ele>
<time>2010-07-18T11:22:53Z</time>
<desc>lat.=55.660923, lon.=26.571962, Alt.=146.670044m. Speed=0.000000m/h.</desc>
<speed>0.000000</speed>
</trkpt>
<trkpt lat="55.660923" lon="26.571962">
<ele>146.666138</ele>
<time>2010-07-18T11:22:54Z</time>
<desc>lat.=55.660923, lon.=26.571962, Alt.=146.666138m. Speed=0.000000m/h.</desc>
<speed>0.000000</speed>
</trkpt>
<trkpt lat="55.660923" lon="26.571962">
<ele>146.662231</ele>
<time>2010-07-18T11:22:55Z</time>
<desc>lat.=55.660923, lon.=26.571962, Alt.=146.662231m. Speed=0.000000m/h.</desc>
<speed>0.000000</speed>
</trkpt>
<trkpt lat="55.660923" lon="26.571962">
<ele>146.658325</ele>
<time>2010-07-18T11:22:56Z</time>
<desc>lat.=55.660923, lon.=26.571962, Alt.=146.658325m. Speed=0.000000m/h.</desc>
<speed>0.000000</speed>
</trkpt>
<trkpt lat="55.660923" lon="26.571962">
<ele>146.658325</ele>
<time>2010-07-18T11:22:57Z</time>
<desc>lat.=55.660923, lon.=26.571962, Alt.=146.658325m. Speed=0.000000m/h.</desc>
<speed>0.000000</speed>
</trkpt>
<trkpt lat="55.660923" lon="26.571962">
<ele>146.658325</ele>
<time>2010-07-18T11:22:58Z</time>
<desc>lat.=55.660923, lon.=26.571962, Alt.=146.658325m. Speed=0.000000m/h.</desc>
<speed>0.000000</speed>
</trkpt>
<trkpt lat="55.660923" lon="26.571962">
<ele>146.654419</ele>
<time>2010-07-18T11:22:59Z</time>
<desc>lat.=55.660923, lon.=26.571962, Alt.=146.654419m. Speed=0.000000m/h.</desc>
<speed>0.000000</speed>
</trkpt>
<trkpt lat="55.660923" lon="26.571962">
<ele>146.654419</ele>
<time>2010-07-18T11:23:00Z</time>
<desc>lat.=55.660923, lon.=26.571962, Alt.=146.654419m. Speed=0.036000m/h.</desc>
<speed>0.010000</speed>
</trkpt>
<trkpt lat="55.660923" lon="26.571962">
<ele>146.658325</ele>
<time>2010-07-18T11:23:01Z</time>
<desc>lat.=55.660923, lon.=26.571962, Alt.=146.658325m. Speed=0.000000m/h.</desc>
<speed>0.000000</speed>
</trkpt>
<trkpt lat="55.660923" lon="26.571962">
<ele>146.650513</ele>
<time>2010-07-18T11:23:02Z</time>
<desc>lat.=55.660923, lon.=26.571962, Alt.=146.650513m. Speed=0.000000m/h.</desc>
<speed>0.000000</speed>
</trkpt>
<trkpt lat="55.660923" lon="26.571962">
<ele>146.650513</ele>
<time>2010-07-18T11:23:03Z</time>
<desc>lat.=55.660923, lon.=26.571962, Alt.=146.650513m. Speed=0.036000m/h.</desc>
<speed>0.010000</speed>
</trkpt>
<trkpt lat="55.660923" lon="26.571962">
<ele>146.658325</ele>
<time>2010-07-18T11:23:04Z</time>
<desc>lat.=55.660923, lon.=26.571962, Alt.=146.658325m. Speed=0.000000m/h.</desc>
<speed>0.000000</speed>
</trkpt>
<trkpt lat="55.660923" lon="26.571962">
<ele>146.658325</ele>
<time>2010-07-18T11:23:05Z</time>
<desc>lat.=55.660923, lon.=26.571962, Alt.=146.658325m. Speed=0.000000m/h.</desc>
<speed>0.000000</speed>
</trkpt>
<trkpt lat="55.660923" lon="26.571962">
<ele>146.658325</ele>
<time>2010-07-18T11:23:06Z</time>
<desc>lat.=55.660923, lon.=26.571962, Alt.=146.658325m. Speed=0.000000m/h.</desc>
<speed>0.000000</speed>
</trkpt>
<trkpt lat="55.660923" lon="26.571962">
<ele>146.662231</ele>
<time>2010-07-18T11:23:07Z</time>
<desc>lat.=55.660923, lon.=26.571962, Alt.=146.662231m. Speed=0.000000m/h.</desc>
<speed>0.000000</speed>
</trkpt>
<trkpt lat="55.660923" lon="26.571962">
<ele>146.662231</ele>
<time>2010-07-18T11:23:08Z</time>
<desc>lat.=55.660923, lon.=26.571962, Alt.=146.662231m. Speed=0.072000m/h.</desc>
<speed>0.020000</speed>
</trkpt>
<trkpt lat="55.660923" lon="26.571962">
<ele>146.662231</ele>
<time>2010-07-18T11:23:09Z</time>
<desc>lat.=55.660923, lon.=26.571962, Alt.=146.662231m. Speed=0.108000m/h.</desc>
<speed>0.030000</speed>
</trkpt>
<trkpt lat="55.660923" lon="26.571962">
<ele>146.662231</ele>
<time>2010-07-18T11:23:10Z</time>
<desc>lat.=55.660923, lon.=26.571962, Alt.=146.662231m. Speed=0.108000m/h.</desc>
<speed>0.030000</speed>
</trkpt>
<trkpt lat="55.660923" lon="26.571962">
<ele>146.662231</ele>
<time>2010-07-18T11:23:11Z</time>
<desc>lat.=55.660923, lon.=26.571962, Alt.=146.662231m. Speed=0.000000m/h.</desc>
<speed>0.000000</speed>
</trkpt>
<trkpt lat="55.660923" lon="26.571962">
<ele>146.658325</ele>
<time>2010-07-18T11:23:12Z</time>
<desc>lat.=55.660923, lon.=26.571962, Alt.=146.658325m. Speed=0.108000m/h.</desc>
<speed>0.030000</speed>
</trkpt>
<trkpt lat="55.660923" lon="26.571962">
<ele>146.658325</ele>
<time>2010-07-18T11:23:13Z</time>
<desc>lat.=55.660923, lon.=26.571962, Alt.=146.658325m. Speed=0.000000m/h.</desc>
<speed>0.000000</speed>
</trkpt>
<trkpt lat="55.660923" lon="26.571962">
<ele>146.654419</ele>
<time>2010-07-18T11:23:14Z</time>
<desc>lat.=55.660923, lon.=26.571962, Alt.=146.654419m. Speed=0.000000m/h.</desc>
<speed>0.000000</speed>
</trkpt>
<trkpt lat="55.660923" lon="26.571962">
<ele>146.650513</ele>
<time>2010-07-18T11:23:15Z</time>
<desc>lat.=55.660923, lon.=26.571962, Alt.=146.650513m. Speed=0.036000m/h.</desc>
<speed>0.010000</speed>
</trkpt>
<trkpt lat="55.660923" lon="26.571962">
<ele>146.646606</ele>
<time>2010-07-18T11:23:16Z</time>
<desc>lat.=55.660923, lon.=26.571962, Alt.=146.646606m. Speed=0.036000m/h.</desc>
<speed>0.010000</speed>
</trkpt>
<trkpt lat="55.660923" lon="26.571962">
<ele>146.638794</ele>
<time>2010-07-18T11:23:17Z</time>
<desc>lat.=55.660923, lon.=26.571962, Alt.=146.638794m. Speed=0.036000m/h.</desc>
<speed>0.010000</speed>
</trkpt>
<trkpt lat="55.660923" lon="26.571962">
<ele>146.630981</ele>
<time>2010-07-18T11:23:18Z</time>
<desc>lat.=55.660923, lon.=26.571962, Alt.=146.630981m. Speed=0.036000m/h.</desc>
<speed>0.010000</speed>
</trkpt>
<trkpt lat="55.660923" lon="26.571962">
<ele>146.623169</ele>
<time>2010-07-18T11:23:19Z</time>
<desc>lat.=55.660923, lon.=26.571962, Alt.=146.623169m. Speed=0.036000m/h.</desc>
<speed>0.010000</speed>
</trkpt>
<trkpt lat="55.660923" lon="26.571962">
<ele>146.615356</ele>
<time>2010-07-18T11:23:20Z</time>
<desc>lat.=55.660923, lon.=26.571962, Alt.=146.615356m. Speed=0.000000m/h.</desc>
<speed>0.000000</speed>
</trkpt>
<trkpt lat="55.660923" lon="26.571962">
<ele>146.611450</ele>
<time>2010-07-18T11:23:21Z</time>
<desc>lat.=55.660923, lon.=26.571962, Alt.=146.611450m. Speed=0.000000m/h.</desc>
<speed>0.000000</speed>
</trkpt>
<trkpt lat="55.660923" lon="26.571962">
<ele>146.603638</ele>
<time>2010-07-18T11:23:22Z</time>
<desc>lat.=55.660923, lon.=26.571962, Alt.=146.603638m. Speed=0.036000m/h.</desc>
<speed>0.010000</speed>
</trkpt>
<trkpt lat="55.660923" lon="26.571962">
<ele>146.591919</ele>
<time>2010-07-18T11:23:23Z</time>
<desc>lat.=55.660923, lon.=26.571962, Alt.=146.591919m. Speed=0.036000m/h.</desc>
<speed>0.010000</speed>
</trkpt>
<trkpt lat="55.660923" lon="26.571962">
<ele>146.588013</ele>
<time>2010-07-18T11:23:24Z</time>
<desc>lat.=55.660923, lon.=26.571962, Alt.=146.588013m. Speed=0.036000m/h.</desc>
<speed>0.010000</speed>
</trkpt>
<trkpt lat="55.660923" lon="26.571962">
<ele>146.584106</ele>
<time>2010-07-18T11:23:25Z</time>
<desc>lat.=55.660923, lon.=26.571962, Alt.=146.584106m. Speed=0.000000m/h.</desc>
<speed>0.000000</speed>
</trkpt>
<trkpt lat="55.660923" lon="26.571962">
<ele>146.576294</ele>
<time>2010-07-18T11:23:26Z</time>
<desc>lat.=55.660923, lon.=26.571962, Alt.=146.576294m. Speed=0.072000m/h.</desc>
<speed>0.020000</speed>
</trkpt>
<trkpt lat="55.660923" lon="26.571962">
<ele>146.572388</ele>
<time>2010-07-18T11:23:27Z</time>
<desc>lat.=55.660923, lon.=26.571962, Alt.=146.572388m. Speed=0.036000m/h.</desc>
<speed>0.010000</speed>
</trkpt>
<trkpt lat="55.660923" lon="26.571962">
<ele>146.568481</ele>
<time>2010-07-18T11:23:28Z</time>
<desc>lat.=55.660923, lon.=26.571962, Alt.=146.568481m. Speed=0.036000m/h.</desc>
<speed>0.010000</speed>
</trkpt>
<trkpt lat="55.660923" lon="26.571962">
<ele>146.568481</ele>
<time>2010-07-18T11:23:29Z</time>
<desc>lat.=55.660923, lon.=26.571962, Alt.=146.568481m. Speed=0.000000m/h.</desc>
<speed>0.000000</speed>
</trkpt>
<trkpt lat="55.660923" lon="26.571962">
<ele>146.568481</ele>
<time>2010-07-18T11:23:30Z</time>
<desc>lat.=55.660923, lon.=26.571962, Alt.=146.568481m. Speed=0.000000m/h.</desc>
<speed>0.000000</speed>
</trkpt>
<trkpt lat="55.660923" lon="26.571962">
<ele>146.564575</ele>
<time>2010-07-18T11:23:31Z</time>
<desc>lat.=55.660923, lon.=26.571962, Alt.=146.564575m. Speed=0.000000m/h.</desc>
<speed>0.000000</speed>
</trkpt>
<trkpt lat="55.660923" lon="26.571962">
<ele>146.564575</ele>
<time>2010-07-18T11:23:32Z</time>
<desc>lat.=55.660923, lon.=26.571962, Alt.=146.564575m. Speed=0.036000m/h.</desc>
<speed>0.010000</speed>
</trkpt>
<trkpt lat="55.660923" lon="26.571962">
<ele>146.564575</ele>
<time>2010-07-18T11:23:33Z</time>
<desc>lat.=55.660923, lon.=26.571962, Alt.=146.564575m. Speed=0.072000m/h.</desc>
<speed>0.020000</speed>
</trkpt>
<trkpt lat="55.660923" lon="26.571962">
<ele>146.564575</ele>
<time>2010-07-18T11:23:34Z</time>
<desc>lat.=55.660923, lon.=26.571962, Alt.=146.564575m. Speed=0.000000m/h.</desc>
<speed>0.000000</speed>
</trkpt>
<trkpt lat="55.660923" lon="26.571962">
<ele>146.564575</ele>
<time>2010-07-18T11:23:35Z</time>
<desc>lat.=55.660923, lon.=26.571962, Alt.=146.564575m. Speed=0.036000m/h.</desc>
<speed>0.010000</speed>
</trkpt>
<trkpt lat="55.660923" lon="26.571962">
<ele>146.568481</ele>
<time>2010-07-18T11:23:36Z</time>
<desc>lat.=55.660923, lon.=26.571962, Alt.=146.568481m. Speed=0.000000m/h.</desc>
<speed>0.000000</speed>
</trkpt>
<trkpt lat="55.660923" lon="26.571962">
<ele>146.568481</ele>
<time>2010-07-18T11:23:37Z</time>
<desc>lat.=55.660923, lon.=26.571962, Alt.=146.568481m. Speed=0.036000m/h.</desc>
<speed>0.010000</speed>
</trkpt>
<trkpt lat="55.660923" lon="26.571962">
<ele>146.568481</ele>
<time>2010-07-18T11:23:38Z</time>
<desc>lat.=55.660923, lon.=26.571962, Alt.=146.568481m. Speed=0.000000m/h.</desc>
<speed>0.000000</speed>
</trkpt>
<trkpt lat="55.660923" lon="26.571962">
<ele>146.568481</ele>
<time>2010-07-18T11:23:39Z</time>
<desc>lat.=55.660923, lon.=26.571962, Alt.=146.568481m. Speed=0.072000m/h.</desc>
<speed>0.020000</speed>
</trkpt>
<trkpt lat="55.660923" lon="26.571962">
<ele>146.568481</ele>
<time>2010-07-18T11:23:40Z</time>
<desc>lat.=55.660923, lon.=26.571962, Alt.=146.568481m. Speed=0.036000m/h.</desc>
<speed>0.010000</speed>
</trkpt>
<trkpt lat="55.660923" lon="26.571962">
<ele>146.568481</ele>
<time>2010-07-18T11:23:41Z</time>
<desc>lat.=55.660923, lon.=26.571962, Alt.=146.568481m. Speed=0.000000m/h.</desc>
<speed>0.000000</speed>
</trkpt>
<trkpt lat="55.660923" lon="26.571962">
<ele>146.564575</ele>
<time>2010-07-18T11:23:42Z</time>
<desc>lat.=55.660923, lon.=26.571962, Alt.=146.564575m. Speed=0.036000m/h.</desc>
<speed>0.010000</speed>
</trkpt>
<trkpt lat="55.660923" lon="26.571962">
<ele>146.564575</ele>
<time>2010-07-18T11:23:43Z</time>
<desc>lat.=55.660923, lon.=26.571962, Alt.=146.564575m. Speed=0.036000m/h.</desc>
<speed>0.010000</speed>
</trkpt>
<trkpt lat="55.660923" lon="26.571962">
<ele>146.568481</ele>
<time>2010-07-18T11:23:44Z</time>
<desc>lat.=55.660923, lon.=26.571962, Alt.=146.568481m. Speed=0.000000m/h.</desc>
<speed>0.000000</speed>
</trkpt>
<trkpt lat="55.660923" lon="26.571962">
<ele>146.568481</ele>
<time>2010-07-18T11:23:45Z</time>
<desc>lat.=55.660923, lon.=26.571962, Alt.=146.568481m. Speed=0.072000m/h.</desc>
<speed>0.020000</speed>
</trkpt>
<trkpt lat="55.660923" lon="26.571964">
<ele>146.564575</ele>
<time>2010-07-18T11:23:46Z</time>
<desc>lat.=55.660923, lon.=26.571964, Alt.=146.564575m. Speed=0.108000m/h.</desc>
<speed>0.030000</speed>
</trkpt>
<trkpt lat="55.660923" lon="26.571964">
<ele>146.556763</ele>
<time>2010-07-18T11:23:47Z</time>
<desc>lat.=55.660923, lon.=26.571964, Alt.=146.556763m. Speed=0.000000m/h.</desc>
<speed>0.000000</speed>
</trkpt>
<trkpt lat="55.660923" lon="26.571964">
<ele>146.552856</ele>
<time>2010-07-18T11:23:48Z</time>
<desc>lat.=55.660923, lon.=26.571964, Alt.=146.552856m. Speed=0.000000m/h.</desc>
<speed>0.000000</speed>
</trkpt>
<trkpt lat="55.660923" lon="26.571964">
<ele>146.545044</ele>
<time>2010-07-18T11:23:49Z</time>
<desc>lat.=55.660923, lon.=26.571964, Alt.=146.545044m. Speed=0.000000m/h.</desc>
<speed>0.000000</speed>
</trkpt>
<trkpt lat="55.660923" lon="26.571964">
<ele>146.541138</ele>
<time>2010-07-18T11:23:50Z</time>
<desc>lat.=55.660923, lon.=26.571964, Alt.=146.541138m. Speed=0.000000m/h.</desc>
<speed>0.000000</speed>
</trkpt>
<trkpt lat="55.660923" lon="26.571962">
<ele>146.537231</ele>
<time>2010-07-18T11:23:51Z</time>
<desc>lat.=55.660923, lon.=26.571962, Alt.=146.537231m. Speed=0.036000m/h.</desc>
<speed>0.010000</speed>
</trkpt>
<trkpt lat="55.660923" lon="26.571962">
<ele>146.529419</ele>
<time>2010-07-18T11:23:52Z</time>
<desc>lat.=55.660923, lon.=26.571962, Alt.=146.529419m. Speed=0.036000m/h.</desc>
<speed>0.010000</speed>
</trkpt>
<trkpt lat="55.660923" lon="26.571962">
<ele>146.529419</ele>
<time>2010-07-18T11:23:53Z</time>
<desc>lat.=55.660923, lon.=26.571962, Alt.=146.529419m. Speed=0.000000m/h.</desc>
<speed>0.000000</speed>
</trkpt>
<trkpt lat="55.660923" lon="26.571962">
<ele>146.529419</ele>
<time>2010-07-18T11:23:54Z</time>
<desc>lat.=55.660923, lon.=26.571962, Alt.=146.529419m. Speed=0.036000m/h.</desc>
<speed>0.010000</speed>
</trkpt>
<trkpt lat="55.660923" lon="26.571962">
<ele>146.529419</ele>
<time>2010-07-18T11:23:55Z</time>
<desc>lat.=55.660923, lon.=26.571962, Alt.=146.529419m. Speed=0.036000m/h.</desc>
<speed>0.010000</speed>
</trkpt>
<trkpt lat="55.660923" lon="26.571962">
<ele>146.525513</ele>
<time>2010-07-18T11:23:56Z</time>
<desc>lat.=55.660923, lon.=26.571962, Alt.=146.525513m. Speed=0.000000m/h.</desc>
<speed>0.000000</speed>
</trkpt>
<trkpt lat="55.660923" lon="26.571962">
<ele>146.525513</ele>
<time>2010-07-18T11:23:57Z</time>
<desc>lat.=55.660923, lon.=26.571962, Alt.=146.525513m. Speed=0.000000m/h.</desc>
<speed>0.000000</speed>
</trkpt>
<trkpt lat="55.660923" lon="26.571962">
<ele>146.521606</ele>
<time>2010-07-18T11:23:58Z</time>
<desc>lat.=55.660923, lon.=26.571962, Alt.=146.521606m. Speed=0.000000m/h.</desc>
<speed>0.000000</speed>
</trkpt>
<trkpt lat="55.660923" lon="26.571962">
<ele>146.517700</ele>
<time>2010-07-18T11:23:59Z</time>
<desc>lat.=55.660923, lon.=26.571962, Alt.=146.517700m. Speed=0.000000m/h.</desc>
<speed>0.000000</speed>
</trkpt>
<trkpt lat="55.660923" lon="26.571962">
<ele>146.517700</ele>
<time>2010-07-18T11:24:00Z</time>
<desc>lat.=55.660923, lon.=26.571962, Alt.=146.517700m. Speed=0.072000m/h.</desc>
<speed>0.020000</speed>
</trkpt>
<trkpt lat="55.660923" lon="26.571962">
<ele>146.513794</ele>
<time>2010-07-18T11:24:01Z</time>
<desc>lat.=55.660923, lon.=26.571962, Alt.=146.513794m. Speed=0.036000m/h.</desc>
<speed>0.010000</speed>
</trkpt>
<trkpt lat="55.660923" lon="26.571962">
<ele>146.509888</ele>
<time>2010-07-18T11:24:02Z</time>
<desc>lat.=55.660923, lon.=26.571962, Alt.=146.509888m. Speed=0.000000m/h.</desc>
<speed>0.000000</speed>
</trkpt>
<trkpt lat="55.660923" lon="26.571962">
<ele>146.509888</ele>
<time>2010-07-18T11:24:03Z</time>
<desc>lat.=55.660923, lon.=26.571962, Alt.=146.509888m. Speed=0.036000m/h.</desc>
<speed>0.010000</speed>
</trkpt>
<trkpt lat="55.660923" lon="26.571962">
<ele>146.509888</ele>
<time>2010-07-18T11:24:04Z</time>
<desc>lat.=55.660923, lon.=26.571962, Alt.=146.509888m. Speed=0.000000m/h.</desc>
<speed>0.000000</speed>
</trkpt>
<trkpt lat="55.660923" lon="26.571962">
<ele>146.509888</ele>
<time>2010-07-18T11:24:05Z</time>
<desc>lat.=55.660923, lon.=26.571962, Alt.=146.509888m. Speed=0.036000m/h.</desc>
<speed>0.010000</speed>
</trkpt>
<trkpt lat="55.660923" lon="26.571962">
<ele>146.505981</ele>
<time>2010-07-18T11:24:06Z</time>
<desc>lat.=55.660923, lon.=26.571962, Alt.=146.505981m. Speed=0.180000m/h.</desc>
<speed>0.050000</speed>
</trkpt>
<trkpt lat="55.660923" lon="26.571962">
<ele>146.498169</ele>
<time>2010-07-18T11:24:07Z</time>
<desc>lat.=55.660923, lon.=26.571962, Alt.=146.498169m. Speed=0.000000m/h.</desc>
<speed>0.000000</speed>
</trkpt>
<trkpt lat="55.660923" lon="26.571962">
<ele>146.494263</ele>
<time>2010-07-18T11:24:08Z</time>
<desc>lat.=55.660923, lon.=26.571962, Alt.=146.494263m. Speed=0.000000m/h.</desc>
<speed>0.000000</speed>
</trkpt>
<trkpt lat="55.660923" lon="26.571962">
<ele>146.490356</ele>
<time>2010-07-18T11:24:09Z</time>
<desc>lat.=55.660923, lon.=26.571962, Alt.=146.490356m. Speed=0.000000m/h.</desc>
<speed>0.000000</speed>
</trkpt>
<trkpt lat="55.660923" lon="26.571962">
<ele>146.486450</ele>
<time>2010-07-18T11:24:10Z</time>
<desc>lat.=55.660923, lon.=26.571962, Alt.=146.486450m. Speed=0.000000m/h.</desc>
<speed>0.000000</speed>
</trkpt>
<trkpt lat="55.660923" lon="26.571962">
<ele>146.486450</ele>
<time>2010-07-18T11:24:11Z</time>
<desc>lat.=55.660923, lon.=26.571962, Alt.=146.486450m. Speed=0.000000m/h.</desc>
<speed>0.000000</speed>
</trkpt>
<trkpt lat="55.660923" lon="26.571962">
<ele>146.486450</ele>
<time>2010-07-18T11:24:12Z</time>
<desc>lat.=55.660923, lon.=26.571962, Alt.=146.486450m. Speed=0.036000m/h.</desc>
<speed>0.010000</speed>
</trkpt>
<trkpt lat="55.660923" lon="26.571962">
<ele>146.482544</ele>
<time>2010-07-18T11:24:13Z</time>
<desc>lat.=55.660923, lon.=26.571962, Alt.=146.482544m. Speed=0.000000m/h.</desc>
<speed>0.000000</speed>
</trkpt>
<trkpt lat="55.660923" lon="26.571962">
<ele>146.474731</ele>
<time>2010-07-18T11:24:14Z</time>
<desc>lat.=55.660923, lon.=26.571962, Alt.=146.474731m. Speed=0.072000m/h.</desc>
<speed>0.020000</speed>
</trkpt>
<trkpt lat="55.660923" lon="26.571962">
<ele>146.474731</ele>
<time>2010-07-18T11:24:15Z</time>
<desc>lat.=55.660923, lon.=26.571962, Alt.=146.474731m. Speed=0.000000m/h.</desc>
<speed>0.000000</speed>
</trkpt>
<trkpt lat="55.660923" lon="26.571962">
<ele>146.470825</ele>
<time>2010-07-18T11:24:16Z</time>
<desc>lat.=55.660923, lon.=26.571962, Alt.=146.470825m. Speed=0.000000m/h.</desc>
<speed>0.000000</speed>
</trkpt>
<trkpt lat="55.660923" lon="26.571962">
<ele>146.466919</ele>
<time>2010-07-18T11:24:17Z</time>
<desc>lat.=55.660923, lon.=26.571962, Alt.=146.466919m. Speed=0.036000m/h.</desc>
<speed>0.010000</speed>
</trkpt>
<trkpt lat="55.660923" lon="26.571962">
<ele>146.463013</ele>
<time>2010-07-18T11:24:18Z</time>
<desc>lat.=55.660923, lon.=26.571962, Alt.=146.463013m. Speed=0.000000m/h.</desc>
<speed>0.000000</speed>
</trkpt>
<trkpt lat="55.660923" lon="26.571962">
<ele>146.455200</ele>
<time>2010-07-18T11:24:19Z</time>
<desc>lat.=55.660923, lon.=26.571962, Alt.=146.455200m. Speed=0.000000m/h.</desc>
<speed>0.000000</speed>
</trkpt>
<trkpt lat="55.660923" lon="26.571962">
<ele>146.451294</ele>
<time>2010-07-18T11:24:20Z</time>
<desc>lat.=55.660923, lon.=26.571962, Alt.=146.451294m. Speed=0.036000m/h.</desc>
<speed>0.010000</speed>
</trkpt>
<trkpt lat="55.660923" lon="26.571962">
<ele>146.443481</ele>
<time>2010-07-18T11:24:21Z</time>
<desc>lat.=55.660923, lon.=26.571962, Alt.=146.443481m. Speed=0.072000m/h.</desc>
<speed>0.020000</speed>
</trkpt>
<trkpt lat="55.660923" lon="26.571962">
<ele>146.443481</ele>
<time>2010-07-18T11:24:22Z</time>
<desc>lat.=55.660923, lon.=26.571962, Alt.=146.443481m. Speed=0.036000m/h.</desc>
<speed>0.010000</speed>
</trkpt>
<trkpt lat="55.660923" lon="26.571962">
<ele>146.443481</ele>
<time>2010-07-18T11:24:23Z</time>
<desc>lat.=55.660923, lon.=26.571962, Alt.=146.443481m. Speed=0.000000m/h.</desc>
<speed>0.000000</speed>
</trkpt>
<trkpt lat="55.660923" lon="26.571962">
<ele>146.439575</ele>
<time>2010-07-18T11:24:24Z</time>
<desc>lat.=55.660923, lon.=26.571962, Alt.=146.439575m. Speed=0.036000m/h.</desc>
<speed>0.010000</speed>
</trkpt>
<trkpt lat="55.660923" lon="26.571962">
<ele>146.439575</ele>
<time>2010-07-18T11:24:25Z</time>
<desc>lat.=55.660923, lon.=26.571962, Alt.=146.439575m. Speed=0.000000m/h.</desc>
<speed>0.000000</speed>
</trkpt>
<trkpt lat="55.660923" lon="26.571962">
<ele>146.439575</ele>
<time>2010-07-18T11:24:26Z</time>
<desc>lat.=55.660923, lon.=26.571962, Alt.=146.439575m. Speed=0.000000m/h.</desc>
<speed>0.000000</speed>
</trkpt>
<trkpt lat="55.660923" lon="26.571962">
<ele>146.439575</ele>
<time>2010-07-18T11:24:27Z</time>
<desc>lat.=55.660923, lon.=26.571962, Alt.=146.439575m. Speed=0.000000m/h.</desc>
<speed>0.000000</speed>
</trkpt>
<trkpt lat="55.660923" lon="26.571962">
<ele>146.431763</ele>
<time>2010-07-18T11:24:28Z</time>
<desc>lat.=55.660923, lon.=26.571962, Alt.=146.431763m. Speed=0.000000m/h.</desc>
<speed>0.000000</speed>
</trkpt>
<trkpt lat="55.660923" lon="26.571962">
<ele>146.431763</ele>
<time>2010-07-18T11:24:29Z</time>
<desc>lat.=55.660923, lon.=26.571962, Alt.=146.431763m. Speed=0.072000m/h.</desc>
<speed>0.020000</speed>
</trkpt>
<trkpt lat="55.660923" lon="26.571962">
<ele>146.435669</ele>
<time>2010-07-18T11:24:30Z</time>
<desc>lat.=55.660923, lon.=26.571962, Alt.=146.435669m. Speed=0.000000m/h.</desc>
<speed>0.000000</speed>
</trkpt>
<trkpt lat="55.660923" lon="26.571962">
<ele>146.431763</ele>
<time>2010-07-18T11:24:31Z</time>
<desc>lat.=55.660923, lon.=26.571962, Alt.=146.431763m. Speed=0.036000m/h.</desc>
<speed>0.010000</speed>
</trkpt>
<trkpt lat="55.660923" lon="26.571962">
<ele>146.435669</ele>
<time>2010-07-18T11:24:32Z</time>
<desc>lat.=55.660923, lon.=26.571962, Alt.=146.435669m. Speed=0.000000m/h.</desc>
<speed>0.000000</speed>
</trkpt>
<trkpt lat="55.660923" lon="26.571962">
<ele>146.435669</ele>
<time>2010-07-18T11:24:33Z</time>
<desc>lat.=55.660923, lon.=26.571962, Alt.=146.435669m. Speed=0.036000m/h.</desc>
<speed>0.010000</speed>
</trkpt>
<trkpt lat="55.660923" lon="26.571962">
<ele>146.435669</ele>
<time>2010-07-18T11:24:34Z</time>
<desc>lat.=55.660923, lon.=26.571962, Alt.=146.435669m. Speed=0.036000m/h.</desc>
<speed>0.010000</speed>
</trkpt>
<trkpt lat="55.660923" lon="26.571962">
<ele>146.439575</ele>
<time>2010-07-18T11:24:35Z</time>
<desc>lat.=55.660923, lon.=26.571962, Alt.=146.439575m. Speed=0.072000m/h.</desc>
<speed>0.020000</speed>
</trkpt>
<trkpt lat="55.660923" lon="26.571962">
<ele>146.439575</ele>
<time>2010-07-18T11:24:36Z</time>
<desc>lat.=55.660923, lon.=26.571962, Alt.=146.439575m. Speed=0.036000m/h.</desc>
<speed>0.010000</speed>
</trkpt>
<trkpt lat="55.660923" lon="26.571962">
<ele>146.443481</ele>
<time>2010-07-18T11:24:37Z</time>
<desc>lat.=55.660923, lon.=26.571962, Alt.=146.443481m. Speed=0.036000m/h.</desc>
<speed>0.010000</speed>
</trkpt>
<trkpt lat="55.660923" lon="26.571962">
<ele>146.447388</ele>
<time>2010-07-18T11:24:38Z</time>
<desc>lat.=55.660923, lon.=26.571962, Alt.=146.447388m. Speed=0.000000m/h.</desc>
<speed>0.000000</speed>
</trkpt>
<trkpt lat="55.660923" lon="26.571962">
<ele>146.455200</ele>
<time>2010-07-18T11:24:39Z</time>
<desc>lat.=55.660923, lon.=26.571962, Alt.=146.455200m. Speed=0.000000m/h.</desc>
<speed>0.000000</speed>
</trkpt>
<trkpt lat="55.660923" lon="26.571962">
<ele>146.459106</ele>
<time>2010-07-18T11:24:40Z</time>
<desc>lat.=55.660923, lon.=26.571962, Alt.=146.459106m. Speed=0.000000m/h.</desc>
<speed>0.000000</speed>
</trkpt>
<trkpt lat="55.660923" lon="26.571962">
<ele>146.463013</ele>
<time>2010-07-18T11:24:41Z</time>
<desc>lat.=55.660923, lon.=26.571962, Alt.=146.463013m. Speed=0.000000m/h.</desc>
<speed>0.000000</speed>
</trkpt>
<trkpt lat="55.660923" lon="26.571962">
<ele>146.463013</ele>
<time>2010-07-18T11:24:42Z</time>
<desc>lat.=55.660923, lon.=26.571962, Alt.=146.463013m. Speed=0.000000m/h.</desc>
<speed>0.000000</speed>
</trkpt>
<trkpt lat="55.660923" lon="26.571962">
<ele>146.459106</ele>
<time>2010-07-18T11:24:43Z</time>
<desc>lat.=55.660923, lon.=26.571962, Alt.=146.459106m. Speed=0.144000m/h.</desc>
<speed>0.040000</speed>
</trkpt>
<trkpt lat="55.660923" lon="26.571962">
<ele>146.459106</ele>
<time>2010-07-18T11:24:44Z</time>
<desc>lat.=55.660923, lon.=26.571962, Alt.=146.459106m. Speed=0.036000m/h.</desc>
<speed>0.010000</speed>
</trkpt>
<trkpt lat="55.660923" lon="26.571962">
<ele>146.459106</ele>
<time>2010-07-18T11:24:45Z</time>
<desc>lat.=55.660923, lon.=26.571962, Alt.=146.459106m. Speed=0.000000m/h.</desc>
<speed>0.000000</speed>
</trkpt>
<trkpt lat="55.660923" lon="26.571962">
<ele>146.459106</ele>
<time>2010-07-18T11:24:46Z</time>
<desc>lat.=55.660923, lon.=26.571962, Alt.=146.459106m. Speed=0.000000m/h.</desc>
<speed>0.000000</speed>
</trkpt>
<trkpt lat="55.660923" lon="26.571962">
<ele>146.459106</ele>
<time>2010-07-18T11:24:47Z</time>
<desc>lat.=55.660923, lon.=26.571962, Alt.=146.459106m. Speed=0.036000m/h.</desc>
<speed>0.010000</speed>
</trkpt>
<trkpt lat="55.660923" lon="26.571960">
<ele>146.459106</ele>
<time>2010-07-18T11:24:48Z</time>
<desc>lat.=55.660923, lon.=26.571960, Alt.=146.459106m. Speed=0.000000m/h.</desc>
<speed>0.000000</speed>
</trkpt>
<trkpt lat="55.660923" lon="26.571960">
<ele>146.459106</ele>
<time>2010-07-18T11:24:49Z</time>
<desc>lat.=55.660923, lon.=26.571960, Alt.=146.459106m. Speed=0.000000m/h.</desc>
<speed>0.000000</speed>
</trkpt>
<trkpt lat="55.660923" lon="26.571960">
<ele>146.459106</ele>
<time>2010-07-18T11:24:50Z</time>
<desc>lat.=55.660923, lon.=26.571960, Alt.=146.459106m. Speed=0.000000m/h.</desc>
<speed>0.000000</speed>
</trkpt>
<trkpt lat="55.660923" lon="26.571960">
<ele>146.455200</ele>
<time>2010-07-18T11:24:51Z</time>
<desc>lat.=55.660923, lon.=26.571960, Alt.=146.455200m. Speed=0.000000m/h.</desc>
<speed>0.000000</speed>
</trkpt>
<trkpt lat="55.660923" lon="26.571960">
<ele>146.455200</ele>
<time>2010-07-18T11:24:52Z</time>
<desc>lat.=55.660923, lon.=26.571960, Alt.=146.455200m. Speed=0.000000m/h.</desc>
<speed>0.000000</speed>
</trkpt>
<trkpt lat="55.660923" lon="26.571960">
<ele>146.455200</ele>
<time>2010-07-18T11:24:53Z</time>
<desc>lat.=55.660923, lon.=26.571960, Alt.=146.455200m. Speed=0.000000m/h.</desc>
<speed>0.000000</speed>
</trkpt>
<trkpt lat="55.660923" lon="26.571960">
<ele>146.451294</ele>
<time>2010-07-18T11:24:54Z</time>
<desc>lat.=55.660923, lon.=26.571960, Alt.=146.451294m. Speed=0.036000m/h.</desc>
<speed>0.010000</speed>
</trkpt>
<trkpt lat="55.660923" lon="26.571960">
<ele>146.451294</ele>
<time>2010-07-18T11:24:55Z</time>
<desc>lat.=55.660923, lon.=26.571960, Alt.=146.451294m. Speed=0.036000m/h.</desc>
<speed>0.010000</speed>
</trkpt>
<trkpt lat="55.660923" lon="26.571960">
<ele>146.451294</ele>
<time>2010-07-18T11:24:56Z</time>
<desc>lat.=55.660923, lon.=26.571960, Alt.=146.451294m. Speed=0.000000m/h.</desc>
<speed>0.000000</speed>
</trkpt>
<trkpt lat="55.660923" lon="26.571960">
<ele>146.451294</ele>
<time>2010-07-18T11:24:57Z</time>
<desc>lat.=55.660923, lon.=26.571960, Alt.=146.451294m. Speed=0.000000m/h.</desc>
<speed>0.000000</speed>
</trkpt>
<trkpt lat="55.660923" lon="26.571960">
<ele>146.451294</ele>
<time>2010-07-18T11:24:58Z</time>
<desc>lat.=55.660923, lon.=26.571960, Alt.=146.451294m. Speed=0.000000m/h.</desc>
<speed>0.000000</speed>
</trkpt>
<trkpt lat="55.660923" lon="26.571960">
<ele>146.451294</ele>
<time>2010-07-18T11:24:59Z</time>
<desc>lat.=55.660923, lon.=26.571960, Alt.=146.451294m. Speed=0.036000m/h.</desc>
<speed>0.010000</speed>
</trkpt>
<trkpt lat="55.660923" lon="26.571962">
<ele>146.451294</ele>
<time>2010-07-18T11:25:00Z</time>
<desc>lat.=55.660923, lon.=26.571962, Alt.=146.451294m. Speed=0.000000m/h.</desc>
<speed>0.000000</speed>
</trkpt>
<trkpt lat="55.660923" lon="26.571962">
<ele>146.455200</ele>
<time>2010-07-18T11:25:01Z</time>
<desc>lat.=55.660923, lon.=26.571962, Alt.=146.455200m. Speed=0.036000m/h.</desc>
<speed>0.010000</speed>
</trkpt>
<trkpt lat="55.660923" lon="26.571962">
<ele>146.455200</ele>
<time>2010-07-18T11:25:02Z</time>
<desc>lat.=55.660923, lon.=26.571962, Alt.=146.455200m. Speed=0.000000m/h.</desc>
<speed>0.000000</speed>
</trkpt>
<trkpt lat="55.660923" lon="26.571962">
<ele>146.455200</ele>
<time>2010-07-18T11:25:03Z</time>
<desc>lat.=55.660923, lon.=26.571962, Alt.=146.455200m. Speed=0.036000m/h.</desc>
<speed>0.010000</speed>
</trkpt>
<trkpt lat="55.660923" lon="26.571962">
<ele>146.455200</ele>
<time>2010-07-18T11:25:04Z</time>
<desc>lat.=55.660923, lon.=26.571962, Alt.=146.455200m. Speed=0.000000m/h.</desc>
<speed>0.000000</speed>
</trkpt>
<trkpt lat="55.660923" lon="26.571962">
<ele>146.459106</ele>
<time>2010-07-18T11:25:05Z</time>
<desc>lat.=55.660923, lon.=26.571962, Alt.=146.459106m. Speed=0.036000m/h.</desc>
<speed>0.010000</speed>
</trkpt>
<trkpt lat="55.660923" lon="26.571962">
<ele>146.459106</ele>
<time>2010-07-18T11:25:06Z</time>
<desc>lat.=55.660923, lon.=26.571962, Alt.=146.459106m. Speed=0.000000m/h.</desc>
<speed>0.000000</speed>
</trkpt>
<trkpt lat="55.660923" lon="26.571962">
<ele>146.459106</ele>
<time>2010-07-18T11:25:07Z</time>
<desc>lat.=55.660923, lon.=26.571962, Alt.=146.459106m. Speed=0.000000m/h.</desc>
<speed>0.000000</speed>
</trkpt>
<trkpt lat="55.660923" lon="26.571962">
<ele>146.459106</ele>
<time>2010-07-18T11:25:08Z</time>
<desc>lat.=55.660923, lon.=26.571962, Alt.=146.459106m. Speed=0.144000m/h.</desc>
<speed>0.040000</speed>
</trkpt>
<trkpt lat="55.660923" lon="26.571962">
<ele>146.463013</ele>
<time>2010-07-18T11:25:09Z</time>
<desc>lat.=55.660923, lon.=26.571962, Alt.=146.463013m. Speed=0.072000m/h.</desc>
<speed>0.020000</speed>
</trkpt>
<trkpt lat="55.660923" lon="26.571962">
<ele>146.466919</ele>
<time>2010-07-18T11:25:10Z</time>
<desc>lat.=55.660923, lon.=26.571962, Alt.=146.466919m. Speed=0.108000m/h.</desc>
<speed>0.030000</speed>
</trkpt>
<trkpt lat="55.660923" lon="26.571962">
<ele>146.466919</ele>
<time>2010-07-18T11:25:11Z</time>
<desc>lat.=55.660923, lon.=26.571962, Alt.=146.466919m. Speed=0.000000m/h.</desc>
<speed>0.000000</speed>
</trkpt>
<trkpt lat="55.660923" lon="26.571960">
<ele>146.466919</ele>
<time>2010-07-18T11:25:12Z</time>
<desc>lat.=55.660923, lon.=26.571960, Alt.=146.466919m. Speed=0.036000m/h.</desc>
<speed>0.010000</speed>
</trkpt>
<trkpt lat="55.660923" lon="26.571962">
<ele>146.466919</ele>
<time>2010-07-18T11:25:13Z</time>
<desc>lat.=55.660923, lon.=26.571962, Alt.=146.466919m. Speed=0.000000m/h.</desc>
<speed>0.000000</speed>
</trkpt>
<trkpt lat="55.660923" lon="26.571962">
<ele>146.463013</ele>
<time>2010-07-18T11:25:14Z</time>
<desc>lat.=55.660923, lon.=26.571962, Alt.=146.463013m. Speed=0.000000m/h.</desc>
<speed>0.000000</speed>
</trkpt>
<trkpt lat="55.660923" lon="26.571962">
<ele>146.459106</ele>
<time>2010-07-18T11:25:15Z</time>
<desc>lat.=55.660923, lon.=26.571962, Alt.=146.459106m. Speed=0.000000m/h.</desc>
<speed>0.000000</speed>
</trkpt>
<trkpt lat="55.660923" lon="26.571962">
<ele>146.455200</ele>
<time>2010-07-18T11:25:16Z</time>
<desc>lat.=55.660923, lon.=26.571962, Alt.=146.455200m. Speed=0.000000m/h.</desc>
<speed>0.000000</speed>
</trkpt>
<trkpt lat="55.660923" lon="26.571962">
<ele>146.451294</ele>
<time>2010-07-18T11:25:17Z</time>
<desc>lat.=55.660923, lon.=26.571962, Alt.=146.451294m. Speed=0.036000m/h.</desc>
<speed>0.010000</speed>
</trkpt>
<trkpt lat="55.660923" lon="26.571962">
<ele>146.447388</ele>
<time>2010-07-18T11:25:18Z</time>
<desc>lat.=55.660923, lon.=26.571962, Alt.=146.447388m. Speed=0.036000m/h.</desc>
<speed>0.010000</speed>
</trkpt>
<trkpt lat="55.660923" lon="26.571962">
<ele>146.439575</ele>
<time>2010-07-18T11:25:19Z</time>
<desc>lat.=55.660923, lon.=26.571962, Alt.=146.439575m. Speed=0.000000m/h.</desc>
<speed>0.000000</speed>
</trkpt>
<trkpt lat="55.660923" lon="26.571962">
<ele>146.435669</ele>
<time>2010-07-18T11:25:20Z</time>
<desc>lat.=55.660923, lon.=26.571962, Alt.=146.435669m. Speed=0.000000m/h.</desc>
<speed>0.000000</speed>
</trkpt>
<trkpt lat="55.660923" lon="26.571962">
<ele>146.427856</ele>
<time>2010-07-18T11:25:21Z</time>
<desc>lat.=55.660923, lon.=26.571962, Alt.=146.427856m. Speed=0.000000m/h.</desc>
<speed>0.000000</speed>
</trkpt>
<trkpt lat="55.660923" lon="26.571962">
<ele>146.423950</ele>
<time>2010-07-18T11:25:22Z</time>
<desc>lat.=55.660923, lon.=26.571962, Alt.=146.423950m. Speed=0.036000m/h.</desc>
<speed>0.010000</speed>
</trkpt>
<trkpt lat="55.660923" lon="26.571960">
<ele>146.416138</ele>
<time>2010-07-18T11:25:23Z</time>
<desc>lat.=55.660923, lon.=26.571960, Alt.=146.416138m. Speed=0.036000m/h.</desc>
<speed>0.010000</speed>
</trkpt>
<trkpt lat="55.660923" lon="26.571960">
<ele>146.412231</ele>
<time>2010-07-18T11:25:24Z</time>
<desc>lat.=55.660923, lon.=26.571960, Alt.=146.412231m. Speed=0.036000m/h.</desc>
<speed>0.010000</speed>
</trkpt>
<trkpt lat="55.660923" lon="26.571960">
<ele>146.404419</ele>
<time>2010-07-18T11:25:25Z</time>
<desc>lat.=55.660923, lon.=26.571960, Alt.=146.404419m. Speed=0.000000m/h.</desc>
<speed>0.000000</speed>
</trkpt>
<trkpt lat="55.660923" lon="26.571960">
<ele>146.396606</ele>
<time>2010-07-18T11:25:26Z</time>
<desc>lat.=55.660923, lon.=26.571960, Alt.=146.396606m. Speed=0.000000m/h.</desc>
<speed>0.000000</speed>
</trkpt>
<trkpt lat="55.660923" lon="26.571960">
<ele>146.384888</ele>
<time>2010-07-18T11:25:27Z</time>
<desc>lat.=55.660923, lon.=26.571960, Alt.=146.384888m. Speed=0.036000m/h.</desc>
<speed>0.010000</speed>
</trkpt>
<trkpt lat="55.660923" lon="26.571960">
<ele>146.377075</ele>
<time>2010-07-18T11:25:28Z</time>
<desc>lat.=55.660923, lon.=26.571960, Alt.=146.377075m. Speed=0.000000m/h.</desc>
<speed>0.000000</speed>
</trkpt>
<trkpt lat="55.660923" lon="26.571960">
<ele>146.377075</ele>
<time>2010-07-18T11:25:29Z</time>
<desc>lat.=55.660923, lon.=26.571960, Alt.=146.377075m. Speed=0.072000m/h.</desc>
<speed>0.020000</speed>
</trkpt>
<trkpt lat="55.660923" lon="26.571960">
<ele>146.377075</ele>
<time>2010-07-18T11:25:30Z</time>
<desc>lat.=55.660923, lon.=26.571960, Alt.=146.377075m. Speed=0.036000m/h.</desc>
<speed>0.010000</speed>
</trkpt>
<trkpt lat="55.660923" lon="26.571960">
<ele>146.380981</ele>
<time>2010-07-18T11:25:31Z</time>
<desc>lat.=55.660923, lon.=26.571960, Alt.=146.380981m. Speed=0.036000m/h.</desc>
<speed>0.010000</speed>
</trkpt>
<trkpt lat="55.660923" lon="26.571960">
<ele>146.377075</ele>
<time>2010-07-18T11:25:32Z</time>
<desc>lat.=55.660923, lon.=26.571960, Alt.=146.377075m. Speed=0.000000m/h.</desc>
<speed>0.000000</speed>
</trkpt>
<trkpt lat="55.660923" lon="26.571960">
<ele>146.377075</ele>
<time>2010-07-18T11:25:33Z</time>
<desc>lat.=55.660923, lon.=26.571960, Alt.=146.377075m. Speed=0.036000m/h.</desc>
<speed>0.010000</speed>
</trkpt>
<trkpt lat="55.660923" lon="26.571960">
<ele>146.377075</ele>
<time>2010-07-18T11:25:34Z</time>
<desc>lat.=55.660923, lon.=26.571960, Alt.=146.377075m. Speed=0.036000m/h.</desc>
<speed>0.010000</speed>
</trkpt>
<trkpt lat="55.660923" lon="26.571960">
<ele>146.377075</ele>
<time>2010-07-18T11:25:35Z</time>
<desc>lat.=55.660923, lon.=26.571960, Alt.=146.377075m. Speed=0.072000m/h.</desc>
<speed>0.020000</speed>
</trkpt>
<trkpt lat="55.660923" lon="26.571960">
<ele>146.377075</ele>
<time>2010-07-18T11:25:36Z</time>
<desc>lat.=55.660923, lon.=26.571960, Alt.=146.377075m. Speed=0.036000m/h.</desc>
<speed>0.010000</speed>
</trkpt>
<trkpt lat="55.660923" lon="26.571960">
<ele>146.373169</ele>
<time>2010-07-18T11:25:37Z</time>
<desc>lat.=55.660923, lon.=26.571960, Alt.=146.373169m. Speed=0.036000m/h.</desc>
<speed>0.010000</speed>
</trkpt>
<trkpt lat="55.660923" lon="26.571960">
<ele>146.369263</ele>
<time>2010-07-18T11:25:38Z</time>
<desc>lat.=55.660923, lon.=26.571960, Alt.=146.369263m. Speed=0.000000m/h.</desc>
<speed>0.000000</speed>
</trkpt>
<trkpt lat="55.660923" lon="26.571960">
<ele>146.365356</ele>
<time>2010-07-18T11:25:39Z</time>
<desc>lat.=55.660923, lon.=26.571960, Alt.=146.365356m. Speed=0.000000m/h.</desc>
<speed>0.000000</speed>
</trkpt>
<trkpt lat="55.660923" lon="26.571960">
<ele>146.369263</ele>
<time>2010-07-18T11:25:40Z</time>
<desc>lat.=55.660923, lon.=26.571960, Alt.=146.369263m. Speed=0.036000m/h.</desc>
<speed>0.010000</speed>
</trkpt>
<trkpt lat="55.660923" lon="26.571960">
<ele>146.365356</ele>
<time>2010-07-18T11:25:41Z</time>
<desc>lat.=55.660923, lon.=26.571960, Alt.=146.365356m. Speed=0.036000m/h.</desc>
<speed>0.010000</speed>
</trkpt>
<trkpt lat="55.660923" lon="26.571960">
<ele>146.365356</ele>
<time>2010-07-18T11:25:42Z</time>
<desc>lat.=55.660923, lon.=26.571960, Alt.=146.365356m. Speed=0.000000m/h.</desc>
<speed>0.000000</speed>
</trkpt>
<trkpt lat="55.660923" lon="26.571960">
<ele>146.365356</ele>
<time>2010-07-18T11:25:43Z</time>
<desc>lat.=55.660923, lon.=26.571960, Alt.=146.365356m. Speed=0.036000m/h.</desc>
<speed>0.010000</speed>
</trkpt>
<trkpt lat="55.660923" lon="26.571960">
<ele>146.369263</ele>
<time>2010-07-18T11:25:44Z</time>
<desc>lat.=55.660923, lon.=26.571960, Alt.=146.369263m. Speed=0.000000m/h.</desc>
<speed>0.000000</speed>
</trkpt>
<trkpt lat="55.660923" lon="26.571960">
<ele>146.373169</ele>
<time>2010-07-18T11:25:45Z</time>
<desc>lat.=55.660923, lon.=26.571960, Alt.=146.373169m. Speed=0.000000m/h.</desc>
<speed>0.000000</speed>
</trkpt>
<trkpt lat="55.660923" lon="26.571960">
<ele>146.377075</ele>
<time>2010-07-18T11:25:46Z</time>
<desc>lat.=55.660923, lon.=26.571960, Alt.=146.377075m. Speed=0.000000m/h.</desc>
<speed>0.000000</speed>
</trkpt>
<trkpt lat="55.660923" lon="26.571960">
<ele>146.377075</ele>
<time>2010-07-18T11:25:47Z</time>
<desc>lat.=55.660923, lon.=26.571960, Alt.=146.377075m. Speed=0.000000m/h.</desc>
<speed>0.000000</speed>
</trkpt>
<trkpt lat="55.660923" lon="26.571960">
<ele>146.380981</ele>
<time>2010-07-18T11:25:48Z</time>
<desc>lat.=55.660923, lon.=26.571960, Alt.=146.380981m. Speed=0.000000m/h.</desc>
<speed>0.000000</speed>
</trkpt>
<trkpt lat="55.660923" lon="26.571960">
<ele>146.384888</ele>
<time>2010-07-18T11:25:49Z</time>
<desc>lat.=55.660923, lon.=26.571960, Alt.=146.384888m. Speed=0.000000m/h.</desc>
<speed>0.000000</speed>
</trkpt>
<trkpt lat="55.660923" lon="26.571960">
<ele>146.380981</ele>
<time>2010-07-18T11:25:50Z</time>
<desc>lat.=55.660923, lon.=26.571960, Alt.=146.380981m. Speed=0.000000m/h.</desc>
<speed>0.000000</speed>
</trkpt>
<trkpt lat="55.660923" lon="26.571960">
<ele>146.380981</ele>
<time>2010-07-18T11:25:51Z</time>
<desc>lat.=55.660923, lon.=26.571960, Alt.=146.380981m. Speed=0.000000m/h.</desc>
<speed>0.000000</speed>
</trkpt>
<trkpt lat="55.660923" lon="26.571960">
<ele>146.380981</ele>
<time>2010-07-18T11:25:52Z</time>
<desc>lat.=55.660923, lon.=26.571960, Alt.=146.380981m. Speed=0.000000m/h.</desc>
<speed>0.000000</speed>
</trkpt>
<trkpt lat="55.660923" lon="26.571960">
<ele>146.384888</ele>
<time>2010-07-18T11:25:53Z</time>
<desc>lat.=55.660923, lon.=26.571960, Alt.=146.384888m. Speed=0.072000m/h.</desc>
<speed>0.020000</speed>
</trkpt>
<trkpt lat="55.660923" lon="26.571960">
<ele>146.384888</ele>
<time>2010-07-18T11:25:54Z</time>
<desc>lat.=55.660923, lon.=26.571960, Alt.=146.384888m. Speed=0.000000m/h.</desc>
<speed>0.000000</speed>
</trkpt>
<trkpt lat="55.660923" lon="26.571960">
<ele>146.388794</ele>
<time>2010-07-18T11:25:55Z</time>
<desc>lat.=55.660923, lon.=26.571960, Alt.=146.388794m. Speed=0.000000m/h.</desc>
<speed>0.000000</speed>
</trkpt>
<trkpt lat="55.660923" lon="26.571960">
<ele>146.388794</ele>
<time>2010-07-18T11:25:56Z</time>
<desc>lat.=55.660923, lon.=26.571960, Alt.=146.388794m. Speed=0.000000m/h.</desc>
<speed>0.000000</speed>
</trkpt>
<trkpt lat="55.660923" lon="26.571960">
<ele>146.388794</ele>
<time>2010-07-18T11:25:57Z</time>
<desc>lat.=55.660923, lon.=26.571960, Alt.=146.388794m. Speed=0.000000m/h.</desc>
<speed>0.000000</speed>
</trkpt>
<trkpt lat="55.660923" lon="26.571960">
<ele>146.392700</ele>
<time>2010-07-18T11:25:58Z</time>
<desc>lat.=55.660923, lon.=26.571960, Alt.=146.392700m. Speed=0.036000m/h.</desc>
<speed>0.010000</speed>
</trkpt>
<trkpt lat="55.660923" lon="26.571960">
<ele>146.392700</ele>
<time>2010-07-18T11:25:59Z</time>
<desc>lat.=55.660923, lon.=26.571960, Alt.=146.392700m. Speed=0.036000m/h.</desc>
<speed>0.010000</speed>
</trkpt>
<trkpt lat="55.660923" lon="26.571960">
<ele>146.396606</ele>
<time>2010-07-18T11:26:00Z</time>
<desc>lat.=55.660923, lon.=26.571960, Alt.=146.396606m. Speed=0.000000m/h.</desc>
<speed>0.000000</speed>
</trkpt>
<trkpt lat="55.660923" lon="26.571960">
<ele>146.400513</ele>
<time>2010-07-18T11:26:01Z</time>
<desc>lat.=55.660923, lon.=26.571960, Alt.=146.400513m. Speed=0.036000m/h.</desc>
<speed>0.010000</speed>
</trkpt>
<trkpt lat="55.660923" lon="26.571960">
<ele>146.400513</ele>
<time>2010-07-18T11:26:02Z</time>
<desc>lat.=55.660923, lon.=26.571960, Alt.=146.400513m. Speed=0.000000m/h.</desc>
<speed>0.000000</speed>
</trkpt>
<trkpt lat="55.660923" lon="26.571960">
<ele>146.404419</ele>
<time>2010-07-18T11:26:03Z</time>
<desc>lat.=55.660923, lon.=26.571960, Alt.=146.404419m. Speed=0.216000m/h.</desc>
<speed>0.060000</speed>
</trkpt>
<trkpt lat="55.660923" lon="26.571960">
<ele>146.404419</ele>
<time>2010-07-18T11:26:04Z</time>
<desc>lat.=55.660923, lon.=26.571960, Alt.=146.404419m. Speed=0.108000m/h.</desc>
<speed>0.030000</speed>
</trkpt>
<trkpt lat="55.660923" lon="26.571960">
<ele>146.404419</ele>
<time>2010-07-18T11:26:05Z</time>
<desc>lat.=55.660923, lon.=26.571960, Alt.=146.404419m. Speed=0.072000m/h.</desc>
<speed>0.020000</speed>
</trkpt>
<trkpt lat="55.660923" lon="26.571960">
<ele>146.404419</ele>
<time>2010-07-18T11:26:06Z</time>
<desc>lat.=55.660923, lon.=26.571960, Alt.=146.404419m. Speed=0.036000m/h.</desc>
<speed>0.010000</speed>
</trkpt>
<trkpt lat="55.660923" lon="26.571960">
<ele>146.404419</ele>
<time>2010-07-18T11:26:07Z</time>
<desc>lat.=55.660923, lon.=26.571960, Alt.=146.404419m. Speed=0.000000m/h.</desc>
<speed>0.000000</speed>
</trkpt>
<trkpt lat="55.660923" lon="26.571960">
<ele>146.404419</ele>
<time>2010-07-18T11:26:08Z</time>
<desc>lat.=55.660923, lon.=26.571960, Alt.=146.404419m. Speed=0.036000m/h.</desc>
<speed>0.010000</speed>
</trkpt>
<trkpt lat="55.660923" lon="26.571960">
<ele>146.404419</ele>
<time>2010-07-18T11:26:09Z</time>
<desc>lat.=55.660923, lon.=26.571960, Alt.=146.404419m. Speed=0.036000m/h.</desc>
<speed>0.010000</speed>
</trkpt>
<trkpt lat="55.660923" lon="26.571960">
<ele>146.404419</ele>
<time>2010-07-18T11:26:10Z</time>
<desc>lat.=55.660923, lon.=26.571960, Alt.=146.404419m. Speed=0.000000m/h.</desc>
<speed>0.000000</speed>
</trkpt>
<trkpt lat="55.660923" lon="26.571960">
<ele>146.404419</ele>
<time>2010-07-18T11:26:11Z</time>
<desc>lat.=55.660923, lon.=26.571960, Alt.=146.404419m. Speed=0.000000m/h.</desc>
<speed>0.000000</speed>
</trkpt>
<trkpt lat="55.660923" lon="26.571960">
<ele>146.408325</ele>
<time>2010-07-18T11:26:12Z</time>
<desc>lat.=55.660923, lon.=26.571960, Alt.=146.408325m. Speed=0.000000m/h.</desc>
<speed>0.000000</speed>
</trkpt>
<trkpt lat="55.660923" lon="26.571960">
<ele>146.408325</ele>
<time>2010-07-18T11:26:13Z</time>
<desc>lat.=55.660923, lon.=26.571960, Alt.=146.408325m. Speed=0.072000m/h.</desc>
<speed>0.020000</speed>
</trkpt>
<trkpt lat="55.660923" lon="26.571960">
<ele>146.408325</ele>
<time>2010-07-18T11:26:14Z</time>
<desc>lat.=55.660923, lon.=26.571960, Alt.=146.408325m. Speed=0.036000m/h.</desc>
<speed>0.010000</speed>
</trkpt>
<trkpt lat="55.660923" lon="26.571960">
<ele>146.404419</ele>
<time>2010-07-18T11:26:15Z</time>
<desc>lat.=55.660923, lon.=26.571960, Alt.=146.404419m. Speed=0.036000m/h.</desc>
<speed>0.010000</speed>
</trkpt>
<trkpt lat="55.660923" lon="26.571960">
<ele>146.400513</ele>
<time>2010-07-18T11:26:16Z</time>
<desc>lat.=55.660923, lon.=26.571960, Alt.=146.400513m. Speed=0.036000m/h.</desc>
<speed>0.010000</speed>
</trkpt>
<trkpt lat="55.660923" lon="26.571960">
<ele>146.396606</ele>
<time>2010-07-18T11:26:17Z</time>
<desc>lat.=55.660923, lon.=26.571960, Alt.=146.396606m. Speed=0.000000m/h.</desc>
<speed>0.000000</speed>
</trkpt>
<trkpt lat="55.660923" lon="26.571960">
<ele>146.396606</ele>
<time>2010-07-18T11:26:18Z</time>
<desc>lat.=55.660923, lon.=26.571960, Alt.=146.396606m. Speed=0.036000m/h.</desc>
<speed>0.010000</speed>
</trkpt>
<trkpt lat="55.660923" lon="26.571960">
<ele>146.392700</ele>
<time>2010-07-18T11:26:19Z</time>
<desc>lat.=55.660923, lon.=26.571960, Alt.=146.392700m. Speed=0.036000m/h.</desc>
<speed>0.010000</speed>
</trkpt>
<trkpt lat="55.660923" lon="26.571960">
<ele>146.388794</ele>
<time>2010-07-18T11:26:20Z</time>
<desc>lat.=55.660923, lon.=26.571960, Alt.=146.388794m. Speed=0.072000m/h.</desc>
<speed>0.020000</speed>
</trkpt>
<trkpt lat="55.660923" lon="26.571960">
<ele>146.396606</ele>
<time>2010-07-18T11:26:21Z</time>
<desc>lat.=55.660923, lon.=26.571960, Alt.=146.396606m. Speed=0.000000m/h.</desc>
<speed>0.000000</speed>
</trkpt>
<trkpt lat="55.660923" lon="26.571960">
<ele>146.392700</ele>
<time>2010-07-18T11:26:22Z</time>
<desc>lat.=55.660923, lon.=26.571960, Alt.=146.392700m. Speed=0.072000m/h.</desc>
<speed>0.020000</speed>
</trkpt>
<trkpt lat="55.660923" lon="26.571960">
<ele>146.392700</ele>
<time>2010-07-18T11:26:23Z</time>
<desc>lat.=55.660923, lon.=26.571960, Alt.=146.392700m. Speed=0.072000m/h.</desc>
<speed>0.020000</speed>
</trkpt>
<trkpt lat="55.660923" lon="26.571960">
<ele>146.392700</ele>
<time>2010-07-18T11:26:24Z</time>
<desc>lat.=55.660923, lon.=26.571960, Alt.=146.392700m. Speed=0.000000m/h.</desc>
<speed>0.000000</speed>
</trkpt>
<trkpt lat="55.660923" lon="26.571960">
<ele>146.396606</ele>
<time>2010-07-18T11:26:25Z</time>
<desc>lat.=55.660923, lon.=26.571960, Alt.=146.396606m. Speed=0.036000m/h.</desc>
<speed>0.010000</speed>
</trkpt>
<trkpt lat="55.660923" lon="26.571960">
<ele>146.392700</ele>
<time>2010-07-18T11:26:26Z</time>
<desc>lat.=55.660923, lon.=26.571960, Alt.=146.392700m. Speed=0.036000m/h.</desc>
<speed>0.010000</speed>
</trkpt>
<trkpt lat="55.660923" lon="26.571960">
<ele>146.392700</ele>
<time>2010-07-18T11:26:27Z</time>
<desc>lat.=55.660923, lon.=26.571960, Alt.=146.392700m. Speed=0.036000m/h.</desc>
<speed>0.010000</speed>
</trkpt>
<trkpt lat="55.660923" lon="26.571960">
<ele>146.392700</ele>
<time>2010-07-18T11:26:28Z</time>
<desc>lat.=55.660923, lon.=26.571960, Alt.=146.392700m. Speed=0.036000m/h.</desc>
<speed>0.010000</speed>
</trkpt>
<trkpt lat="55.660923" lon="26.571960">
<ele>146.392700</ele>
<time>2010-07-18T11:26:29Z</time>
<desc>lat.=55.660923, lon.=26.571960, Alt.=146.392700m. Speed=0.072000m/h.</desc>
<speed>0.020000</speed>
</trkpt>
<trkpt lat="55.660923" lon="26.571960">
<ele>146.392700</ele>
<time>2010-07-18T11:26:30Z</time>
<desc>lat.=55.660923, lon.=26.571960, Alt.=146.392700m. Speed=0.000000m/h.</desc>
<speed>0.000000</speed>
</trkpt>
<trkpt lat="55.660923" lon="26.571960">
<ele>146.392700</ele>
<time>2010-07-18T11:26:31Z</time>
<desc>lat.=55.660923, lon.=26.571960, Alt.=146.392700m. Speed=0.000000m/h.</desc>
<speed>0.000000</speed>
</trkpt>
<trkpt lat="55.660923" lon="26.571960">
<ele>146.392700</ele>
<time>2010-07-18T11:26:32Z</time>
<desc>lat.=55.660923, lon.=26.571960, Alt.=146.392700m. Speed=0.000000m/h.</desc>
<speed>0.000000</speed>
</trkpt>
<trkpt lat="55.660923" lon="26.571960">
<ele>146.392700</ele>
<time>2010-07-18T11:26:33Z</time>
<desc>lat.=55.660923, lon.=26.571960, Alt.=146.392700m. Speed=0.036000m/h.</desc>
<speed>0.010000</speed>
</trkpt>
<trkpt lat="55.660923" lon="26.571960">
<ele>146.396606</ele>
<time>2010-07-18T11:26:34Z</time>
<desc>lat.=55.660923, lon.=26.571960, Alt.=146.396606m. Speed=0.000000m/h.</desc>
<speed>0.000000</speed>
</trkpt>
<trkpt lat="55.660923" lon="26.571960">
<ele>146.396606</ele>
<time>2010-07-18T11:26:35Z</time>
<desc>lat.=55.660923, lon.=26.571960, Alt.=146.396606m. Speed=0.000000m/h.</desc>
<speed>0.000000</speed>
</trkpt>
<trkpt lat="55.660923" lon="26.571960">
<ele>146.396606</ele>
<time>2010-07-18T11:26:36Z</time>
<desc>lat.=55.660923, lon.=26.571960, Alt.=146.396606m. Speed=0.000000m/h.</desc>
<speed>0.000000</speed>
</trkpt>
<trkpt lat="55.660923" lon="26.571960">
<ele>146.396606</ele>
<time>2010-07-18T11:26:37Z</time>
<desc>lat.=55.660923, lon.=26.571960, Alt.=146.396606m. Speed=0.036000m/h.</desc>
<speed>0.010000</speed>
</trkpt>
<trkpt lat="55.660923" lon="26.571960">
<ele>146.396606</ele>
<time>2010-07-18T11:26:38Z</time>
<desc>lat.=55.660923, lon.=26.571960, Alt.=146.396606m. Speed=0.072000m/h.</desc>
<speed>0.020000</speed>
</trkpt>
<trkpt lat="55.660923" lon="26.571960">
<ele>146.396606</ele>
<time>2010-07-18T11:26:39Z</time>
<desc>lat.=55.660923, lon.=26.571960, Alt.=146.396606m. Speed=0.000000m/h.</desc>
<speed>0.000000</speed>
</trkpt>
<trkpt lat="55.660923" lon="26.571960">
<ele>146.396606</ele>
<time>2010-07-18T11:26:40Z</time>
<desc>lat.=55.660923, lon.=26.571960, Alt.=146.396606m. Speed=0.000000m/h.</desc>
<speed>0.000000</speed>
</trkpt>
<trkpt lat="55.660923" lon="26.571960">
<ele>146.396606</ele>
<time>2010-07-18T11:26:41Z</time>
<desc>lat.=55.660923, lon.=26.571960, Alt.=146.396606m. Speed=0.000000m/h.</desc>
<speed>0.000000</speed>
</trkpt>
<trkpt lat="55.660923" lon="26.571960">
<ele>146.400513</ele>
<time>2010-07-18T11:26:42Z</time>
<desc>lat.=55.660923, lon.=26.571960, Alt.=146.400513m. Speed=0.000000m/h.</desc>
<speed>0.000000</speed>
</trkpt>
<trkpt lat="55.660923" lon="26.571960">
<ele>146.400513</ele>
<time>2010-07-18T11:26:43Z</time>
<desc>lat.=55.660923, lon.=26.571960, Alt.=146.400513m. Speed=0.000000m/h.</desc>
<speed>0.000000</speed>
</trkpt>
<trkpt lat="55.660923" lon="26.571960">
<ele>146.404419</ele>
<time>2010-07-18T11:26:44Z</time>
<desc>lat.=55.660923, lon.=26.571960, Alt.=146.404419m. Speed=0.000000m/h.</desc>
<speed>0.000000</speed>
</trkpt>
<trkpt lat="55.660923" lon="26.571960">
<ele>146.400513</ele>
<time>2010-07-18T11:26:45Z</time>
<desc>lat.=55.660923, lon.=26.571960, Alt.=146.400513m. Speed=0.036000m/h.</desc>
<speed>0.010000</speed>
</trkpt>
<trkpt lat="55.660923" lon="26.571960">
<ele>146.400513</ele>
<time>2010-07-18T11:26:46Z</time>
<desc>lat.=55.660923, lon.=26.571960, Alt.=146.400513m. Speed=0.072000m/h.</desc>
<speed>0.020000</speed>
</trkpt>
<trkpt lat="55.660923" lon="26.571960">
<ele>146.400513</ele>
<time>2010-07-18T11:26:47Z</time>
<desc>lat.=55.660923, lon.=26.571960, Alt.=146.400513m. Speed=0.036000m/h.</desc>
<speed>0.010000</speed>
</trkpt>
<trkpt lat="55.660923" lon="26.571960">
<ele>146.400513</ele>
<time>2010-07-18T11:26:48Z</time>
<desc>lat.=55.660923, lon.=26.571960, Alt.=146.400513m. Speed=0.000000m/h.</desc>
<speed>0.000000</speed>
</trkpt>
<trkpt lat="55.660923" lon="26.571960">
<ele>146.404419</ele>
<time>2010-07-18T11:26:49Z</time>
<desc>lat.=55.660923, lon.=26.571960, Alt.=146.404419m. Speed=0.072000m/h.</desc>
<speed>0.020000</speed>
</trkpt>
<trkpt lat="55.660923" lon="26.571960">
<ele>146.400513</ele>
<time>2010-07-18T11:26:50Z</time>
<desc>lat.=55.660923, lon.=26.571960, Alt.=146.400513m. Speed=0.180000m/h.</desc>
<speed>0.050000</speed>
</trkpt>
<trkpt lat="55.660923" lon="26.571960">
<ele>146.400513</ele>
<time>2010-07-18T11:26:51Z</time>
<desc>lat.=55.660923, lon.=26.571960, Alt.=146.400513m. Speed=0.072000m/h.</desc>
<speed>0.020000</speed>
</trkpt>
<trkpt lat="55.660923" lon="26.571960">
<ele>146.396606</ele>
<time>2010-07-18T11:26:52Z</time>
<desc>lat.=55.660923, lon.=26.571960, Alt.=146.396606m. Speed=0.072000m/h.</desc>
<speed>0.020000</speed>
</trkpt>
<trkpt lat="55.660923" lon="26.571960">
<ele>146.396606</ele>
<time>2010-07-18T11:26:53Z</time>
<desc>lat.=55.660923, lon.=26.571960, Alt.=146.396606m. Speed=0.036000m/h.</desc>
<speed>0.010000</speed>
</trkpt>
<trkpt lat="55.660923" lon="26.571960">
<ele>146.396606</ele>
<time>2010-07-18T11:26:54Z</time>
<desc>lat.=55.660923, lon.=26.571960, Alt.=146.396606m. Speed=0.000000m/h.</desc>
<speed>0.000000</speed>
</trkpt>
<trkpt lat="55.660923" lon="26.571960">
<ele>146.392700</ele>
<time>2010-07-18T11:26:55Z</time>
<desc>lat.=55.660923, lon.=26.571960, Alt.=146.392700m. Speed=0.000000m/h.</desc>
<speed>0.000000</speed>
</trkpt>
<trkpt lat="55.660923" lon="26.571960">
<ele>146.388794</ele>
<time>2010-07-18T11:26:56Z</time>
<desc>lat.=55.660923, lon.=26.571960, Alt.=146.388794m. Speed=0.036000m/h.</desc>
<speed>0.010000</speed>
</trkpt>
<trkpt lat="55.660923" lon="26.571960">
<ele>146.388794</ele>
<time>2010-07-18T11:26:57Z</time>
<desc>lat.=55.660923, lon.=26.571960, Alt.=146.388794m. Speed=0.072000m/h.</desc>
<speed>0.020000</speed>
</trkpt>
<trkpt lat="55.660923" lon="26.571960">
<ele>146.392700</ele>
<time>2010-07-18T11:26:58Z</time>
<desc>lat.=55.660923, lon.=26.571960, Alt.=146.392700m. Speed=0.072000m/h.</desc>
<speed>0.020000</speed>
</trkpt>
<trkpt lat="55.660923" lon="26.571960">
<ele>146.388794</ele>
<time>2010-07-18T11:26:59Z</time>
<desc>lat.=55.660923, lon.=26.571960, Alt.=146.388794m. Speed=0.072000m/h.</desc>
<speed>0.020000</speed>
</trkpt>
<trkpt lat="55.660923" lon="26.571960">
<ele>146.388794</ele>
<time>2010-07-18T11:27:00Z</time>
<desc>lat.=55.660923, lon.=26.571960, Alt.=146.388794m. Speed=0.036000m/h.</desc>
<speed>0.010000</speed>
</trkpt>
<trkpt lat="55.660923" lon="26.571960">
<ele>146.388794</ele>
<time>2010-07-18T11:27:01Z</time>
<desc>lat.=55.660923, lon.=26.571960, Alt.=146.388794m. Speed=0.000000m/h.</desc>
<speed>0.000000</speed>
</trkpt>
<trkpt lat="55.660923" lon="26.571960">
<ele>146.388794</ele>
<time>2010-07-18T11:27:02Z</time>
<desc>lat.=55.660923, lon.=26.571960, Alt.=146.388794m. Speed=0.036000m/h.</desc>
<speed>0.010000</speed>
</trkpt>
<trkpt lat="55.660923" lon="26.571960">
<ele>146.388794</ele>
<time>2010-07-18T11:27:03Z</time>
<desc>lat.=55.660923, lon.=26.571960, Alt.=146.388794m. Speed=0.000000m/h.</desc>
<speed>0.000000</speed>
</trkpt>
<trkpt lat="55.660923" lon="26.571960">
<ele>146.384888</ele>
<time>2010-07-18T11:27:04Z</time>
<desc>lat.=55.660923, lon.=26.571960, Alt.=146.384888m. Speed=0.000000m/h.</desc>
<speed>0.000000</speed>
</trkpt>
<trkpt lat="55.660923" lon="26.571960">
<ele>146.380981</ele>
<time>2010-07-18T11:27:05Z</time>
<desc>lat.=55.660923, lon.=26.571960, Alt.=146.380981m. Speed=0.036000m/h.</desc>
<speed>0.010000</speed>
</trkpt>
<trkpt lat="55.660923" lon="26.571960">
<ele>146.377075</ele>
<time>2010-07-18T11:27:06Z</time>
<desc>lat.=55.660923, lon.=26.571960, Alt.=146.377075m. Speed=0.072000m/h.</desc>
<speed>0.020000</speed>
</trkpt>
<trkpt lat="55.660923" lon="26.571960">
<ele>146.377075</ele>
<time>2010-07-18T11:27:07Z</time>
<desc>lat.=55.660923, lon.=26.571960, Alt.=146.377075m. Speed=0.036000m/h.</desc>
<speed>0.010000</speed>
</trkpt>
<trkpt lat="55.660923" lon="26.571960">
<ele>146.373169</ele>
<time>2010-07-18T11:27:08Z</time>
<desc>lat.=55.660923, lon.=26.571960, Alt.=146.373169m. Speed=0.000000m/h.</desc>
<speed>0.000000</speed>
</trkpt>
<trkpt lat="55.660923" lon="26.571960">
<ele>146.373169</ele>
<time>2010-07-18T11:27:09Z</time>
<desc>lat.=55.660923, lon.=26.571960, Alt.=146.373169m. Speed=0.036000m/h.</desc>
<speed>0.010000</speed>
</trkpt>
<trkpt lat="55.660923" lon="26.571960">
<ele>146.373169</ele>
<time>2010-07-18T11:27:10Z</time>
<desc>lat.=55.660923, lon.=26.571960, Alt.=146.373169m. Speed=0.036000m/h.</desc>
<speed>0.010000</speed>
</trkpt>
<trkpt lat="55.660923" lon="26.571959">
<ele>146.373169</ele>
<time>2010-07-18T11:27:11Z</time>
<desc>lat.=55.660923, lon.=26.571959, Alt.=146.373169m. Speed=0.072000m/h.</desc>
<speed>0.020000</speed>
</trkpt>
<trkpt lat="55.660923" lon="26.571959">
<ele>146.369263</ele>
<time>2010-07-18T11:27:12Z</time>
<desc>lat.=55.660923, lon.=26.571959, Alt.=146.369263m. Speed=0.036000m/h.</desc>
<speed>0.010000</speed>
</trkpt>
<trkpt lat="55.660923" lon="26.571959">
<ele>146.365356</ele>
<time>2010-07-18T11:27:13Z</time>
<desc>lat.=55.660923, lon.=26.571959, Alt.=146.365356m. Speed=0.000000m/h.</desc>
<speed>0.000000</speed>
</trkpt>
<trkpt lat="55.660923" lon="26.571959">
<ele>146.365356</ele>
<time>2010-07-18T11:27:14Z</time>
<desc>lat.=55.660923, lon.=26.571959, Alt.=146.365356m. Speed=0.036000m/h.</desc>
<speed>0.010000</speed>
</trkpt>
<trkpt lat="55.660923" lon="26.571959">
<ele>146.361450</ele>
<time>2010-07-18T11:27:15Z</time>
<desc>lat.=55.660923, lon.=26.571959, Alt.=146.361450m. Speed=0.036000m/h.</desc>
<speed>0.010000</speed>
</trkpt>
<trkpt lat="55.660923" lon="26.571959">
<ele>146.349731</ele>
<time>2010-07-18T11:27:16Z</time>
<desc>lat.=55.660923, lon.=26.571959, Alt.=146.349731m. Speed=0.072000m/h.</desc>
<speed>0.020000</speed>
</trkpt>
<trkpt lat="55.660923" lon="26.571959">
<ele>146.322388</ele>
<time>2010-07-18T11:27:17Z</time>
<desc>lat.=55.660923, lon.=26.571959, Alt.=146.322388m. Speed=0.144000m/h.</desc>
<speed>0.040000</speed>
</trkpt>
<trkpt lat="55.660923" lon="26.571959">
<ele>146.318481</ele>
<time>2010-07-18T11:27:18Z</time>
<desc>lat.=55.660923, lon.=26.571959, Alt.=146.318481m. Speed=0.216000m/h.</desc>
<speed>0.060000</speed>
</trkpt>
<trkpt lat="55.660923" lon="26.571959">
<ele>146.314575</ele>
<time>2010-07-18T11:27:19Z</time>
<desc>lat.=55.660923, lon.=26.571959, Alt.=146.314575m. Speed=0.288000m/h.</desc>
<speed>0.080000</speed>
</trkpt>
<trkpt lat="55.660923" lon="26.571959">
<ele>146.318481</ele>
<time>2010-07-18T11:27:20Z</time>
<desc>lat.=55.660923, lon.=26.571959, Alt.=146.318481m. Speed=0.360000m/h.</desc>
<speed>0.100000</speed>
</trkpt>
<trkpt lat="55.660923" lon="26.571959">
<ele>146.322388</ele>
<time>2010-07-18T11:27:21Z</time>
<desc>lat.=55.660923, lon.=26.571959, Alt.=146.322388m. Speed=0.144000m/h.</desc>
<speed>0.040000</speed>
</trkpt>
<trkpt lat="55.660923" lon="26.571959">
<ele>146.322388</ele>
<time>2010-07-18T11:27:22Z</time>
<desc>lat.=55.660923, lon.=26.571959, Alt.=146.322388m. Speed=0.180000m/h.</desc>
<speed>0.050000</speed>
</trkpt>
<trkpt lat="55.660923" lon="26.571959">
<ele>146.322388</ele>
<time>2010-07-18T11:27:23Z</time>
<desc>lat.=55.660923, lon.=26.571959, Alt.=146.322388m. Speed=0.072000m/h.</desc>
<speed>0.020000</speed>
</trkpt>
<trkpt lat="55.660923" lon="26.571959">
<ele>146.318481</ele>
<time>2010-07-18T11:27:24Z</time>
<desc>lat.=55.660923, lon.=26.571959, Alt.=146.318481m. Speed=0.036000m/h.</desc>
<speed>0.010000</speed>
</trkpt>
<trkpt lat="55.660923" lon="26.571959">
<ele>146.314575</ele>
<time>2010-07-18T11:27:25Z</time>
<desc>lat.=55.660923, lon.=26.571959, Alt.=146.314575m. Speed=0.000000m/h.</desc>
<speed>0.000000</speed>
</trkpt>
<trkpt lat="55.660923" lon="26.571959">
<ele>146.326294</ele>
<time>2010-07-18T11:27:26Z</time>
<desc>lat.=55.660923, lon.=26.571959, Alt.=146.326294m. Speed=0.396000m/h.</desc>
<speed>0.110000</speed>
</trkpt>
<trkpt lat="55.660923" lon="26.571959">
<ele>146.322388</ele>
<time>2010-07-18T11:27:27Z</time>
<desc>lat.=55.660923, lon.=26.571959, Alt.=146.322388m. Speed=0.792000m/h.</desc>
<speed>0.220000</speed>
</trkpt>
<trkpt lat="55.660923" lon="26.571959">
<ele>146.318481</ele>
<time>2010-07-18T11:27:28Z</time>
<desc>lat.=55.660923, lon.=26.571959, Alt.=146.318481m. Speed=0.072000m/h.</desc>
<speed>0.020000</speed>
</trkpt>
<trkpt lat="55.660923" lon="26.571959">
<ele>146.318481</ele>
<time>2010-07-18T11:27:29Z</time>
<desc>lat.=55.660923, lon.=26.571959, Alt.=146.318481m. Speed=0.540000m/h.</desc>
<speed>0.150000</speed>
</trkpt>
<trkpt lat="55.660927" lon="26.571960">
<ele>146.330200</ele>
<time>2010-07-18T11:27:30Z</time>
<desc>lat.=55.660927, lon.=26.571960, Alt.=146.330200m. Speed=0.396000m/h.</desc>
<speed>0.110000</speed>
</trkpt>
<trkpt lat="55.660927" lon="26.571959">
<ele>146.338013</ele>
<time>2010-07-18T11:27:31Z</time>
<desc>lat.=55.660927, lon.=26.571959, Alt.=146.338013m. Speed=0.360000m/h.</desc>
<speed>0.100000</speed>
</trkpt>
<trkpt lat="55.660927" lon="26.571959">
<ele>146.349731</ele>
<time>2010-07-18T11:27:32Z</time>
<desc>lat.=55.660927, lon.=26.571959, Alt.=146.349731m. Speed=0.252000m/h.</desc>
<speed>0.070000</speed>
</trkpt>
<trkpt lat="55.660927" lon="26.571959">
<ele>146.349731</ele>
<time>2010-07-18T11:27:33Z</time>
<desc>lat.=55.660927, lon.=26.571959, Alt.=146.349731m. Speed=0.036000m/h.</desc>
<speed>0.010000</speed>
</trkpt>
<trkpt lat="55.660927" lon="26.571959">
<ele>146.341919</ele>
<time>2010-07-18T11:27:34Z</time>
<desc>lat.=55.660927, lon.=26.571959, Alt.=146.341919m. Speed=0.072000m/h.</desc>
<speed>0.020000</speed>
</trkpt>
<trkpt lat="55.660927" lon="26.571959">
<ele>146.334106</ele>
<time>2010-07-18T11:27:35Z</time>
<desc>lat.=55.660927, lon.=26.571959, Alt.=146.334106m. Speed=0.072000m/h.</desc>
<speed>0.020000</speed>
</trkpt>
<trkpt lat="55.660927" lon="26.571959">
<ele>146.322388</ele>
<time>2010-07-18T11:27:36Z</time>
<desc>lat.=55.660927, lon.=26.571959, Alt.=146.322388m. Speed=0.036000m/h.</desc>
<speed>0.010000</speed>
</trkpt>
<trkpt lat="55.660927" lon="26.571959">
<ele>146.318481</ele>
<time>2010-07-18T11:27:37Z</time>
<desc>lat.=55.660927, lon.=26.571959, Alt.=146.318481m. Speed=0.000000m/h.</desc>
<speed>0.000000</speed>
</trkpt>
<trkpt lat="55.660927" lon="26.571959">
<ele>146.310669</ele>
<time>2010-07-18T11:27:38Z</time>
<desc>lat.=55.660927, lon.=26.571959, Alt.=146.310669m. Speed=0.000000m/h.</desc>
<speed>0.000000</speed>
</trkpt>
<trkpt lat="55.660927" lon="26.571959">
<ele>146.302856</ele>
<time>2010-07-18T11:27:39Z</time>
<desc>lat.=55.660927, lon.=26.571959, Alt.=146.302856m. Speed=0.000000m/h.</desc>
<speed>0.000000</speed>
</trkpt>
<trkpt lat="55.660927" lon="26.571959">
<ele>146.291138</ele>
<time>2010-07-18T11:27:40Z</time>
<desc>lat.=55.660927, lon.=26.571959, Alt.=146.291138m. Speed=0.036000m/h.</desc>
<speed>0.010000</speed>
</trkpt>
<trkpt lat="55.660927" lon="26.571959">
<ele>146.283325</ele>
<time>2010-07-18T11:27:41Z</time>
<desc>lat.=55.660927, lon.=26.571959, Alt.=146.283325m. Speed=0.036000m/h.</desc>
<speed>0.010000</speed>
</trkpt>
<trkpt lat="55.660927" lon="26.571959">
<ele>146.275513</ele>
<time>2010-07-18T11:27:42Z</time>
<desc>lat.=55.660927, lon.=26.571959, Alt.=146.275513m. Speed=0.000000m/h.</desc>
<speed>0.000000</speed>
</trkpt>
<trkpt lat="55.660927" lon="26.571959">
<ele>146.275513</ele>
<time>2010-07-18T11:27:43Z</time>
<desc>lat.=55.660927, lon.=26.571959, Alt.=146.275513m. Speed=0.000000m/h.</desc>
<speed>0.000000</speed>
</trkpt>
<trkpt lat="55.660927" lon="26.571959">
<ele>146.267700</ele>
<time>2010-07-18T11:27:44Z</time>
<desc>lat.=55.660927, lon.=26.571959, Alt.=146.267700m. Speed=0.000000m/h.</desc>
<speed>0.000000</speed>
</trkpt>
<trkpt lat="55.660927" lon="26.571959">
<ele>146.255981</ele>
<time>2010-07-18T11:27:45Z</time>
<desc>lat.=55.660927, lon.=26.571959, Alt.=146.255981m. Speed=0.036000m/h.</desc>
<speed>0.010000</speed>
</trkpt>
<trkpt lat="55.660927" lon="26.571959">
<ele>146.248169</ele>
<time>2010-07-18T11:27:46Z</time>
<desc>lat.=55.660927, lon.=26.571959, Alt.=146.248169m. Speed=0.000000m/h.</desc>
<speed>0.000000</speed>
</trkpt>
<trkpt lat="55.660927" lon="26.571959">
<ele>146.236450</ele>
<time>2010-07-18T11:27:47Z</time>
<desc>lat.=55.660927, lon.=26.571959, Alt.=146.236450m. Speed=0.000000m/h.</desc>
<speed>0.000000</speed>
</trkpt>
<trkpt lat="55.660927" lon="26.571959">
<ele>146.224731</ele>
<time>2010-07-18T11:27:48Z</time>
<desc>lat.=55.660927, lon.=26.571959, Alt.=146.224731m. Speed=0.000000m/h.</desc>
<speed>0.000000</speed>
</trkpt>
<trkpt lat="55.660927" lon="26.571959">
<ele>146.216919</ele>
<time>2010-07-18T11:27:49Z</time>
<desc>lat.=55.660927, lon.=26.571959, Alt.=146.216919m. Speed=0.000000m/h.</desc>
<speed>0.000000</speed>
</trkpt>
<trkpt lat="55.660927" lon="26.571959">
<ele>146.213013</ele>
<time>2010-07-18T11:27:50Z</time>
<desc>lat.=55.660927, lon.=26.571959, Alt.=146.213013m. Speed=0.000000m/h.</desc>
<speed>0.000000</speed>
</trkpt>
<trkpt lat="55.660927" lon="26.571959">
<ele>146.205200</ele>
<time>2010-07-18T11:27:51Z</time>
<desc>lat.=55.660927, lon.=26.571959, Alt.=146.205200m. Speed=0.000000m/h.</desc>
<speed>0.000000</speed>
</trkpt>
<trkpt lat="55.660927" lon="26.571959">
<ele>146.197388</ele>
<time>2010-07-18T11:27:52Z</time>
<desc>lat.=55.660927, lon.=26.571959, Alt.=146.197388m. Speed=0.000000m/h.</desc>
<speed>0.000000</speed>
</trkpt>
<trkpt lat="55.660927" lon="26.571959">
<ele>146.185669</ele>
<time>2010-07-18T11:27:53Z</time>
<desc>lat.=55.660927, lon.=26.571959, Alt.=146.185669m. Speed=0.000000m/h.</desc>
<speed>0.000000</speed>
</trkpt>
<trkpt lat="55.660927" lon="26.571959">
<ele>146.177856</ele>
<time>2010-07-18T11:27:54Z</time>
<desc>lat.=55.660927, lon.=26.571959, Alt.=146.177856m. Speed=0.000000m/h.</desc>
<speed>0.000000</speed>
</trkpt>
<trkpt lat="55.660927" lon="26.571959">
<ele>146.170044</ele>
<time>2010-07-18T11:27:55Z</time>
<desc>lat.=55.660927, lon.=26.571959, Alt.=146.170044m. Speed=0.000000m/h.</desc>
<speed>0.000000</speed>
</trkpt>
<trkpt lat="55.660927" lon="26.571959">
<ele>146.162231</ele>
<time>2010-07-18T11:27:56Z</time>
<desc>lat.=55.660927, lon.=26.571959, Alt.=146.162231m. Speed=0.036000m/h.</desc>
<speed>0.010000</speed>
</trkpt>
<trkpt lat="55.660927" lon="26.571959">
<ele>146.158325</ele>
<time>2010-07-18T11:27:57Z</time>
<desc>lat.=55.660927, lon.=26.571959, Alt.=146.158325m. Speed=0.000000m/h.</desc>
<speed>0.000000</speed>
</trkpt>
<trkpt lat="55.660927" lon="26.571959">
<ele>146.150513</ele>
<time>2010-07-18T11:27:58Z</time>
<desc>lat.=55.660927, lon.=26.571959, Alt.=146.150513m. Speed=0.072000m/h.</desc>
<speed>0.020000</speed>
</trkpt>
<trkpt lat="55.660927" lon="26.571959">
<ele>146.146606</ele>
<time>2010-07-18T11:27:59Z</time>
<desc>lat.=55.660927, lon.=26.571959, Alt.=146.146606m. Speed=0.036000m/h.</desc>
<speed>0.010000</speed>
</trkpt>
<trkpt lat="55.660927" lon="26.571959">
<ele>146.138794</ele>
<time>2010-07-18T11:28:00Z</time>
<desc>lat.=55.660927, lon.=26.571959, Alt.=146.138794m. Speed=0.000000m/h.</desc>
<speed>0.000000</speed>
</trkpt>
<trkpt lat="55.660927" lon="26.571959">
<ele>146.127075</ele>
<time>2010-07-18T11:28:01Z</time>
<desc>lat.=55.660927, lon.=26.571959, Alt.=146.127075m. Speed=0.000000m/h.</desc>
<speed>0.000000</speed>
</trkpt>
<trkpt lat="55.660927" lon="26.571959">
<ele>146.119263</ele>
<time>2010-07-18T11:28:02Z</time>
<desc>lat.=55.660927, lon.=26.571959, Alt.=146.119263m. Speed=0.000000m/h.</desc>
<speed>0.000000</speed>
</trkpt>
<trkpt lat="55.660927" lon="26.571959">
<ele>146.111450</ele>
<time>2010-07-18T11:28:03Z</time>
<desc>lat.=55.660927, lon.=26.571959, Alt.=146.111450m. Speed=0.000000m/h.</desc>
<speed>0.000000</speed>
</trkpt>
<trkpt lat="55.660927" lon="26.571959">
<ele>146.103638</ele>
<time>2010-07-18T11:28:04Z</time>
<desc>lat.=55.660927, lon.=26.571959, Alt.=146.103638m. Speed=0.036000m/h.</desc>
<speed>0.010000</speed>
</trkpt>
<trkpt lat="55.660927" lon="26.571959">
<ele>146.095825</ele>
<time>2010-07-18T11:28:05Z</time>
<desc>lat.=55.660927, lon.=26.571959, Alt.=146.095825m. Speed=0.000000m/h.</desc>
<speed>0.000000</speed>
</trkpt>
<trkpt lat="55.660927" lon="26.571959">
<ele>146.088013</ele>
<time>2010-07-18T11:28:06Z</time>
<desc>lat.=55.660927, lon.=26.571959, Alt.=146.088013m. Speed=0.000000m/h.</desc>
<speed>0.000000</speed>
</trkpt>
<trkpt lat="55.660927" lon="26.571959">
<ele>146.080200</ele>
<time>2010-07-18T11:28:07Z</time>
<desc>lat.=55.660927, lon.=26.571959, Alt.=146.080200m. Speed=0.000000m/h.</desc>
<speed>0.000000</speed>
</trkpt>
<trkpt lat="55.660927" lon="26.571959">
<ele>146.072388</ele>
<time>2010-07-18T11:28:08Z</time>
<desc>lat.=55.660927, lon.=26.571959, Alt.=146.072388m. Speed=0.000000m/h.</desc>
<speed>0.000000</speed>
</trkpt>
<trkpt lat="55.660927" lon="26.571959">
<ele>146.064575</ele>
<time>2010-07-18T11:28:09Z</time>
<desc>lat.=55.660927, lon.=26.571959, Alt.=146.064575m. Speed=0.000000m/h.</desc>
<speed>0.000000</speed>
</trkpt>
<trkpt lat="55.660927" lon="26.571959">
<ele>146.056763</ele>
<time>2010-07-18T11:28:10Z</time>
<desc>lat.=55.660927, lon.=26.571959, Alt.=146.056763m. Speed=0.000000m/h.</desc>
<speed>0.000000</speed>
</trkpt>
<trkpt lat="55.660927" lon="26.571959">
<ele>146.052856</ele>
<time>2010-07-18T11:28:11Z</time>
<desc>lat.=55.660927, lon.=26.571959, Alt.=146.052856m. Speed=0.000000m/h.</desc>
<speed>0.000000</speed>
</trkpt>
<trkpt lat="55.660927" lon="26.571960">
<ele>146.045044</ele>
<time>2010-07-18T11:28:12Z</time>
<desc>lat.=55.660927, lon.=26.571960, Alt.=146.045044m. Speed=0.000000m/h.</desc>
<speed>0.000000</speed>
</trkpt>
<trkpt lat="55.660927" lon="26.571960">
<ele>146.037231</ele>
<time>2010-07-18T11:28:13Z</time>
<desc>lat.=55.660927, lon.=26.571960, Alt.=146.037231m. Speed=0.036000m/h.</desc>
<speed>0.010000</speed>
</trkpt>
<trkpt lat="55.660927" lon="26.571960">
<ele>146.033325</ele>
<time>2010-07-18T11:28:14Z</time>
<desc>lat.=55.660927, lon.=26.571960, Alt.=146.033325m. Speed=0.000000m/h.</desc>
<speed>0.000000</speed>
</trkpt>
<trkpt lat="55.660927" lon="26.571960">
<ele>146.029419</ele>
<time>2010-07-18T11:28:15Z</time>
<desc>lat.=55.660927, lon.=26.571960, Alt.=146.029419m. Speed=0.000000m/h.</desc>
<speed>0.000000</speed>
</trkpt>
<trkpt lat="55.660927" lon="26.571960">
<ele>146.021606</ele>
<time>2010-07-18T11:28:16Z</time>
<desc>lat.=55.660927, lon.=26.571960, Alt.=146.021606m. Speed=0.036000m/h.</desc>
<speed>0.010000</speed>
</trkpt>
<trkpt lat="55.660927" lon="26.571960">
<ele>146.017700</ele>
<time>2010-07-18T11:28:17Z</time>
<desc>lat.=55.660927, lon.=26.571960, Alt.=146.017700m. Speed=0.000000m/h.</desc>
<speed>0.000000</speed>
</trkpt>
<trkpt lat="55.660927" lon="26.571960">
<ele>146.013794</ele>
<time>2010-07-18T11:28:18Z</time>
<desc>lat.=55.660927, lon.=26.571960, Alt.=146.013794m. Speed=0.000000m/h.</desc>
<speed>0.000000</speed>
</trkpt>
<trkpt lat="55.660927" lon="26.571960">
<ele>146.009888</ele>
<time>2010-07-18T11:28:19Z</time>
<desc>lat.=55.660927, lon.=26.571960, Alt.=146.009888m. Speed=0.000000m/h.</desc>
<speed>0.000000</speed>
</trkpt>
<trkpt lat="55.660927" lon="26.571960">
<ele>146.002075</ele>
<time>2010-07-18T11:28:20Z</time>
<desc>lat.=55.660927, lon.=26.571960, Alt.=146.002075m. Speed=0.000000m/h.</desc>
<speed>0.000000</speed>
</trkpt>
<trkpt lat="55.660927" lon="26.571960">
<ele>146.002075</ele>
<time>2010-07-18T11:28:21Z</time>
<desc>lat.=55.660927, lon.=26.571960, Alt.=146.002075m. Speed=0.036000m/h.</desc>
<speed>0.010000</speed>
</trkpt>
<trkpt lat="55.660927" lon="26.571960">
<ele>145.994263</ele>
<time>2010-07-18T11:28:22Z</time>
<desc>lat.=55.660927, lon.=26.571960, Alt.=145.994263m. Speed=0.036000m/h.</desc>
<speed>0.010000</speed>
</trkpt>
<trkpt lat="55.660927" lon="26.571960">
<ele>145.990356</ele>
<time>2010-07-18T11:28:23Z</time>
<desc>lat.=55.660927, lon.=26.571960, Alt.=145.990356m. Speed=0.000000m/h.</desc>
<speed>0.000000</speed>
</trkpt>
<trkpt lat="55.660927" lon="26.571960">
<ele>145.986450</ele>
<time>2010-07-18T11:28:24Z</time>
<desc>lat.=55.660927, lon.=26.571960, Alt.=145.986450m. Speed=0.036000m/h.</desc>
<speed>0.010000</speed>
</trkpt>
<trkpt lat="55.660927" lon="26.571960">
<ele>145.982544</ele>
<time>2010-07-18T11:28:25Z</time>
<desc>lat.=55.660927, lon.=26.571960, Alt.=145.982544m. Speed=0.000000m/h.</desc>
<speed>0.000000</speed>
</trkpt>
<trkpt lat="55.660927" lon="26.571960">
<ele>145.974731</ele>
<time>2010-07-18T11:28:26Z</time>
<desc>lat.=55.660927, lon.=26.571960, Alt.=145.974731m. Speed=0.000000m/h.</desc>
<speed>0.000000</speed>
</trkpt>
<trkpt lat="55.660927" lon="26.571960">
<ele>145.970825</ele>
<time>2010-07-18T11:28:27Z</time>
<desc>lat.=55.660927, lon.=26.571960, Alt.=145.970825m. Speed=0.036000m/h.</desc>
<speed>0.010000</speed>
</trkpt>
<trkpt lat="55.660927" lon="26.571960">
<ele>145.966919</ele>
<time>2010-07-18T11:28:28Z</time>
<desc>lat.=55.660927, lon.=26.571960, Alt.=145.966919m. Speed=0.000000m/h.</desc>
<speed>0.000000</speed>
</trkpt>
<trkpt lat="55.660927" lon="26.571960">
<ele>145.963013</ele>
<time>2010-07-18T11:28:29Z</time>
<desc>lat.=55.660927, lon.=26.571960, Alt.=145.963013m. Speed=0.000000m/h.</desc>
<speed>0.000000</speed>
</trkpt>
<trkpt lat="55.660927" lon="26.571960">
<ele>145.959106</ele>
<time>2010-07-18T11:28:30Z</time>
<desc>lat.=55.660927, lon.=26.571960, Alt.=145.959106m. Speed=0.000000m/h.</desc>
<speed>0.000000</speed>
</trkpt>
<trkpt lat="55.660927" lon="26.571960">
<ele>145.955200</ele>
<time>2010-07-18T11:28:31Z</time>
<desc>lat.=55.660927, lon.=26.571960, Alt.=145.955200m. Speed=0.000000m/h.</desc>
<speed>0.000000</speed>
</trkpt>
<trkpt lat="55.660927" lon="26.571960">
<ele>145.951294</ele>
<time>2010-07-18T11:28:32Z</time>
<desc>lat.=55.660927, lon.=26.571960, Alt.=145.951294m. Speed=0.036000m/h.</desc>
<speed>0.010000</speed>
</trkpt>
<trkpt lat="55.660927" lon="26.571960">
<ele>145.951294</ele>
<time>2010-07-18T11:28:33Z</time>
<desc>lat.=55.660927, lon.=26.571960, Alt.=145.951294m. Speed=0.000000m/h.</desc>
<speed>0.000000</speed>
</trkpt>
<trkpt lat="55.660927" lon="26.571960">
<ele>145.947388</ele>
<time>2010-07-18T11:28:34Z</time>
<desc>lat.=55.660927, lon.=26.571960, Alt.=145.947388m. Speed=0.000000m/h.</desc>
<speed>0.000000</speed>
</trkpt>
<trkpt lat="55.660927" lon="26.571960">
<ele>145.939575</ele>
<time>2010-07-18T11:28:35Z</time>
<desc>lat.=55.660927, lon.=26.571960, Alt.=145.939575m. Speed=0.000000m/h.</desc>
<speed>0.000000</speed>
</trkpt>
<trkpt lat="55.660927" lon="26.571960">
<ele>145.931763</ele>
<time>2010-07-18T11:28:36Z</time>
<desc>lat.=55.660927, lon.=26.571960, Alt.=145.931763m. Speed=0.036000m/h.</desc>
<speed>0.010000</speed>
</trkpt>
<trkpt lat="55.660927" lon="26.571960">
<ele>145.927856</ele>
<time>2010-07-18T11:28:37Z</time>
<desc>lat.=55.660927, lon.=26.571960, Alt.=145.927856m. Speed=0.000000m/h.</desc>
<speed>0.000000</speed>
</trkpt>
<trkpt lat="55.660927" lon="26.571960">
<ele>145.923950</ele>
<time>2010-07-18T11:28:38Z</time>
<desc>lat.=55.660927, lon.=26.571960, Alt.=145.923950m. Speed=0.000000m/h.</desc>
<speed>0.000000</speed>
</trkpt>
<trkpt lat="55.660927" lon="26.571960">
<ele>145.920044</ele>
<time>2010-07-18T11:28:39Z</time>
<desc>lat.=55.660927, lon.=26.571960, Alt.=145.920044m. Speed=0.000000m/h.</desc>
<speed>0.000000</speed>
</trkpt>
<trkpt lat="55.660927" lon="26.571960">
<ele>145.912231</ele>
<time>2010-07-18T11:28:40Z</time>
<desc>lat.=55.660927, lon.=26.571960, Alt.=145.912231m. Speed=0.000000m/h.</desc>
<speed>0.000000</speed>
</trkpt>
<trkpt lat="55.660927" lon="26.571960">
<ele>145.908325</ele>
<time>2010-07-18T11:28:41Z</time>
<desc>lat.=55.660927, lon.=26.571960, Alt.=145.908325m. Speed=0.000000m/h.</desc>
<speed>0.000000</speed>
</trkpt>
<trkpt lat="55.660927" lon="26.571960">
<ele>145.904419</ele>
<time>2010-07-18T11:28:42Z</time>
<desc>lat.=55.660927, lon.=26.571960, Alt.=145.904419m. Speed=0.000000m/h.</desc>
<speed>0.000000</speed>
</trkpt>
<trkpt lat="55.660927" lon="26.571960">
<ele>145.900513</ele>
<time>2010-07-18T11:28:43Z</time>
<desc>lat.=55.660927, lon.=26.571960, Alt.=145.900513m. Speed=0.000000m/h.</desc>
<speed>0.000000</speed>
</trkpt>
<trkpt lat="55.660927" lon="26.571960">
<ele>145.896606</ele>
<time>2010-07-18T11:28:44Z</time>
<desc>lat.=55.660927, lon.=26.571960, Alt.=145.896606m. Speed=0.000000m/h.</desc>
<speed>0.000000</speed>
</trkpt>
<trkpt lat="55.660927" lon="26.571960">
<ele>145.888794</ele>
<time>2010-07-18T11:28:45Z</time>
<desc>lat.=55.660927, lon.=26.571960, Alt.=145.888794m. Speed=0.000000m/h.</desc>
<speed>0.000000</speed>
</trkpt>
<trkpt lat="55.660927" lon="26.571960">
<ele>145.888794</ele>
<time>2010-07-18T11:28:46Z</time>
<desc>lat.=55.660927, lon.=26.571960, Alt.=145.888794m. Speed=0.000000m/h.</desc>
<speed>0.000000</speed>
</trkpt>
<trkpt lat="55.660927" lon="26.571960">
<ele>145.884888</ele>
<time>2010-07-18T11:28:47Z</time>
<desc>lat.=55.660927, lon.=26.571960, Alt.=145.884888m. Speed=0.000000m/h.</desc>
<speed>0.000000</speed>
</trkpt>
<trkpt lat="55.660927" lon="26.571960">
<ele>145.880981</ele>
<time>2010-07-18T11:28:48Z</time>
<desc>lat.=55.660927, lon.=26.571960, Alt.=145.880981m. Speed=0.000000m/h.</desc>
<speed>0.000000</speed>
</trkpt>
<trkpt lat="55.660927" lon="26.571960">
<ele>145.877075</ele>
<time>2010-07-18T11:28:49Z</time>
<desc>lat.=55.660927, lon.=26.571960, Alt.=145.877075m. Speed=0.000000m/h.</desc>
<speed>0.000000</speed>
</trkpt>
<trkpt lat="55.660927" lon="26.571960">
<ele>145.873169</ele>
<time>2010-07-18T11:28:50Z</time>
<desc>lat.=55.660927, lon.=26.571960, Alt.=145.873169m. Speed=0.000000m/h.</desc>
<speed>0.000000</speed>
</trkpt>
<trkpt lat="55.660927" lon="26.571960">
<ele>145.869263</ele>
<time>2010-07-18T11:28:51Z</time>
<desc>lat.=55.660927, lon.=26.571960, Alt.=145.869263m. Speed=0.000000m/h.</desc>
<speed>0.000000</speed>
</trkpt>
<trkpt lat="55.660927" lon="26.571960">
<ele>145.865356</ele>
<time>2010-07-18T11:28:52Z</time>
<desc>lat.=55.660927, lon.=26.571960, Alt.=145.865356m. Speed=0.036000m/h.</desc>
<speed>0.010000</speed>
</trkpt>
<trkpt lat="55.660927" lon="26.571960">
<ele>145.861450</ele>
<time>2010-07-18T11:28:53Z</time>
<desc>lat.=55.660927, lon.=26.571960, Alt.=145.861450m. Speed=0.036000m/h.</desc>
<speed>0.010000</speed>
</trkpt>
<trkpt lat="55.660927" lon="26.571960">
<ele>145.857544</ele>
<time>2010-07-18T11:28:54Z</time>
<desc>lat.=55.660927, lon.=26.571960, Alt.=145.857544m. Speed=0.000000m/h.</desc>
<speed>0.000000</speed>
</trkpt>
<trkpt lat="55.660927" lon="26.571960">
<ele>145.853638</ele>
<time>2010-07-18T11:28:55Z</time>
<desc>lat.=55.660927, lon.=26.571960, Alt.=145.853638m. Speed=0.000000m/h.</desc>
<speed>0.000000</speed>
</trkpt>
<trkpt lat="55.660927" lon="26.571960">
<ele>145.849731</ele>
<time>2010-07-18T11:28:56Z</time>
<desc>lat.=55.660927, lon.=26.571960, Alt.=145.849731m. Speed=0.000000m/h.</desc>
<speed>0.000000</speed>
</trkpt>
<trkpt lat="55.660927" lon="26.571960">
<ele>145.845825</ele>
<time>2010-07-18T11:28:57Z</time>
<desc>lat.=55.660927, lon.=26.571960, Alt.=145.845825m. Speed=0.000000m/h.</desc>
<speed>0.000000</speed>
</trkpt>
<trkpt lat="55.660927" lon="26.571960">
<ele>145.841919</ele>
<time>2010-07-18T11:28:58Z</time>
<desc>lat.=55.660927, lon.=26.571960, Alt.=145.841919m. Speed=0.000000m/h.</desc>
<speed>0.000000</speed>
</trkpt>
<trkpt lat="55.660927" lon="26.571960">
<ele>145.841919</ele>
<time>2010-07-18T11:28:59Z</time>
<desc>lat.=55.660927, lon.=26.571960, Alt.=145.841919m. Speed=0.000000m/h.</desc>
<speed>0.000000</speed>
</trkpt>
<trkpt lat="55.660927" lon="26.571960">
<ele>145.838013</ele>
<time>2010-07-18T11:29:00Z</time>
<desc>lat.=55.660927, lon.=26.571960, Alt.=145.838013m. Speed=0.000000m/h.</desc>
<speed>0.000000</speed>
</trkpt>
<trkpt lat="55.660927" lon="26.571960">
<ele>145.834106</ele>
<time>2010-07-18T11:29:01Z</time>
<desc>lat.=55.660927, lon.=26.571960, Alt.=145.834106m. Speed=0.000000m/h.</desc>
<speed>0.000000</speed>
</trkpt>
<trkpt lat="55.660927" lon="26.571960">
<ele>145.830200</ele>
<time>2010-07-18T11:29:02Z</time>
<desc>lat.=55.660927, lon.=26.571960, Alt.=145.830200m. Speed=0.000000m/h.</desc>
<speed>0.000000</speed>
</trkpt>
<trkpt lat="55.660927" lon="26.571960">
<ele>145.826294</ele>
<time>2010-07-18T11:29:03Z</time>
<desc>lat.=55.660927, lon.=26.571960, Alt.=145.826294m. Speed=0.000000m/h.</desc>
<speed>0.000000</speed>
</trkpt>
<trkpt lat="55.660927" lon="26.571960">
<ele>145.822388</ele>
<time>2010-07-18T11:29:04Z</time>
<desc>lat.=55.660927, lon.=26.571960, Alt.=145.822388m. Speed=0.000000m/h.</desc>
<speed>0.000000</speed>
</trkpt>
<trkpt lat="55.660927" lon="26.571960">
<ele>145.818481</ele>
<time>2010-07-18T11:29:05Z</time>
<desc>lat.=55.660927, lon.=26.571960, Alt.=145.818481m. Speed=0.000000m/h.</desc>
<speed>0.000000</speed>
</trkpt>
<trkpt lat="55.660927" lon="26.571960">
<ele>145.814575</ele>
<time>2010-07-18T11:29:06Z</time>
<desc>lat.=55.660927, lon.=26.571960, Alt.=145.814575m. Speed=0.000000m/h.</desc>
<speed>0.000000</speed>
</trkpt>
<trkpt lat="55.660927" lon="26.571960">
<ele>145.814575</ele>
<time>2010-07-18T11:29:07Z</time>
<desc>lat.=55.660927, lon.=26.571960, Alt.=145.814575m. Speed=0.000000m/h.</desc>
<speed>0.000000</speed>
</trkpt>
<trkpt lat="55.660927" lon="26.571960">
<ele>145.810669</ele>
<time>2010-07-18T11:29:08Z</time>
<desc>lat.=55.660927, lon.=26.571960, Alt.=145.810669m. Speed=0.000000m/h.</desc>
<speed>0.000000</speed>
</trkpt>
<trkpt lat="55.660927" lon="26.571960">
<ele>145.806763</ele>
<time>2010-07-18T11:29:09Z</time>
<desc>lat.=55.660927, lon.=26.571960, Alt.=145.806763m. Speed=0.000000m/h.</desc>
<speed>0.000000</speed>
</trkpt>
<trkpt lat="55.660927" lon="26.571960">
<ele>145.802856</ele>
<time>2010-07-18T11:29:10Z</time>
<desc>lat.=55.660927, lon.=26.571960, Alt.=145.802856m. Speed=0.000000m/h.</desc>
<speed>0.000000</speed>
</trkpt>
<trkpt lat="55.660927" lon="26.571960">
<ele>145.798950</ele>
<time>2010-07-18T11:29:11Z</time>
<desc>lat.=55.660927, lon.=26.571960, Alt.=145.798950m. Speed=0.000000m/h.</desc>
<speed>0.000000</speed>
</trkpt>
<trkpt lat="55.660927" lon="26.571960">
<ele>145.798950</ele>
<time>2010-07-18T11:29:12Z</time>
<desc>lat.=55.660927, lon.=26.571960, Alt.=145.798950m. Speed=0.036000m/h.</desc>
<speed>0.010000</speed>
</trkpt>
<trkpt lat="55.660927" lon="26.571960">
<ele>145.795044</ele>
<time>2010-07-18T11:29:13Z</time>
<desc>lat.=55.660927, lon.=26.571960, Alt.=145.795044m. Speed=0.000000m/h.</desc>
<speed>0.000000</speed>
</trkpt>
<trkpt lat="55.660927" lon="26.571960">
<ele>145.795044</ele>
<time>2010-07-18T11:29:14Z</time>
<desc>lat.=55.660927, lon.=26.571960, Alt.=145.795044m. Speed=0.000000m/h.</desc>
<speed>0.000000</speed>
</trkpt>
<trkpt lat="55.660927" lon="26.571960">
<ele>145.791138</ele>
<time>2010-07-18T11:29:15Z</time>
<desc>lat.=55.660927, lon.=26.571960, Alt.=145.791138m. Speed=0.000000m/h.</desc>
<speed>0.000000</speed>
</trkpt>
<trkpt lat="55.660927" lon="26.571960">
<ele>145.791138</ele>
<time>2010-07-18T11:29:16Z</time>
<desc>lat.=55.660927, lon.=26.571960, Alt.=145.791138m. Speed=0.000000m/h.</desc>
<speed>0.000000</speed>
</trkpt>
<trkpt lat="55.660927" lon="26.571960">
<ele>145.787231</ele>
<time>2010-07-18T11:29:17Z</time>
<desc>lat.=55.660927, lon.=26.571960, Alt.=145.787231m. Speed=0.000000m/h.</desc>
<speed>0.000000</speed>
</trkpt>
<trkpt lat="55.660927" lon="26.571960">
<ele>145.783325</ele>
<time>2010-07-18T11:29:18Z</time>
<desc>lat.=55.660927, lon.=26.571960, Alt.=145.783325m. Speed=0.000000m/h.</desc>
<speed>0.000000</speed>
</trkpt>
<trkpt lat="55.660927" lon="26.571960">
<ele>145.783325</ele>
<time>2010-07-18T11:29:19Z</time>
<desc>lat.=55.660927, lon.=26.571960, Alt.=145.783325m. Speed=0.000000m/h.</desc>
<speed>0.000000</speed>
</trkpt>
<trkpt lat="55.660927" lon="26.571962">
<ele>145.779419</ele>
<time>2010-07-18T11:29:20Z</time>
<desc>lat.=55.660927, lon.=26.571962, Alt.=145.779419m. Speed=0.000000m/h.</desc>
<speed>0.000000</speed>
</trkpt>
<trkpt lat="55.660927" lon="26.571962">
<ele>145.779419</ele>
<time>2010-07-18T11:29:21Z</time>
<desc>lat.=55.660927, lon.=26.571962, Alt.=145.779419m. Speed=0.000000m/h.</desc>
<speed>0.000000</speed>
</trkpt>
<trkpt lat="55.660927" lon="26.571962">
<ele>145.779419</ele>
<time>2010-07-18T11:29:22Z</time>
<desc>lat.=55.660927, lon.=26.571962, Alt.=145.779419m. Speed=0.036000m/h.</desc>
<speed>0.010000</speed>
</trkpt>
<trkpt lat="55.660927" lon="26.571962">
<ele>145.775513</ele>
<time>2010-07-18T11:29:23Z</time>
<desc>lat.=55.660927, lon.=26.571962, Alt.=145.775513m. Speed=0.072000m/h.</desc>
<speed>0.020000</speed>
</trkpt>
<trkpt lat="55.660927" lon="26.571962">
<ele>145.771606</ele>
<time>2010-07-18T11:29:24Z</time>
<desc>lat.=55.660927, lon.=26.571962, Alt.=145.771606m. Speed=0.000000m/h.</desc>
<speed>0.000000</speed>
</trkpt>
<trkpt lat="55.660927" lon="26.571962">
<ele>145.767700</ele>
<time>2010-07-18T11:29:25Z</time>
<desc>lat.=55.660927, lon.=26.571962, Alt.=145.767700m. Speed=0.000000m/h.</desc>
<speed>0.000000</speed>
</trkpt>
<trkpt lat="55.660927" lon="26.571962">
<ele>145.763794</ele>
<time>2010-07-18T11:29:26Z</time>
<desc>lat.=55.660927, lon.=26.571962, Alt.=145.763794m. Speed=0.000000m/h.</desc>
<speed>0.000000</speed>
</trkpt>
<trkpt lat="55.660927" lon="26.571962">
<ele>145.763794</ele>
<time>2010-07-18T11:29:27Z</time>
<desc>lat.=55.660927, lon.=26.571962, Alt.=145.763794m. Speed=0.000000m/h.</desc>
<speed>0.000000</speed>
</trkpt>
<trkpt lat="55.660927" lon="26.571962">
<ele>145.759888</ele>
<time>2010-07-18T11:29:28Z</time>
<desc>lat.=55.660927, lon.=26.571962, Alt.=145.759888m. Speed=0.000000m/h.</desc>
<speed>0.000000</speed>
</trkpt>
<trkpt lat="55.660927" lon="26.571962">
<ele>145.755981</ele>
<time>2010-07-18T11:29:29Z</time>
<desc>lat.=55.660927, lon.=26.571962, Alt.=145.755981m. Speed=0.000000m/h.</desc>
<speed>0.000000</speed>
</trkpt>
<trkpt lat="55.660927" lon="26.571962">
<ele>145.755981</ele>
<time>2010-07-18T11:29:30Z</time>
<desc>lat.=55.660927, lon.=26.571962, Alt.=145.755981m. Speed=0.036000m/h.</desc>
<speed>0.010000</speed>
</trkpt>
<trkpt lat="55.660927" lon="26.571962">
<ele>145.752075</ele>
<time>2010-07-18T11:29:31Z</time>
<desc>lat.=55.660927, lon.=26.571962, Alt.=145.752075m. Speed=0.000000m/h.</desc>
<speed>0.000000</speed>
</trkpt>
<trkpt lat="55.660927" lon="26.571962">
<ele>145.752075</ele>
<time>2010-07-18T11:29:32Z</time>
<desc>lat.=55.660927, lon.=26.571962, Alt.=145.752075m. Speed=0.000000m/h.</desc>
<speed>0.000000</speed>
</trkpt>
<trkpt lat="55.660927" lon="26.571962">
<ele>145.748169</ele>
<time>2010-07-18T11:29:33Z</time>
<desc>lat.=55.660927, lon.=26.571962, Alt.=145.748169m. Speed=0.036000m/h.</desc>
<speed>0.010000</speed>
</trkpt>
<trkpt lat="55.660927" lon="26.571962">
<ele>145.748169</ele>
<time>2010-07-18T11:29:34Z</time>
<desc>lat.=55.660927, lon.=26.571962, Alt.=145.748169m. Speed=0.000000m/h.</desc>
<speed>0.000000</speed>
</trkpt>
<trkpt lat="55.660927" lon="26.571962">
<ele>145.744263</ele>
<time>2010-07-18T11:29:35Z</time>
<desc>lat.=55.660927, lon.=26.571962, Alt.=145.744263m. Speed=0.036000m/h.</desc>
<speed>0.010000</speed>
</trkpt>
<trkpt lat="55.660927" lon="26.571962">
<ele>145.744263</ele>
<time>2010-07-18T11:29:36Z</time>
<desc>lat.=55.660927, lon.=26.571962, Alt.=145.744263m. Speed=0.036000m/h.</desc>
<speed>0.010000</speed>
</trkpt>
<trkpt lat="55.660927" lon="26.571962">
<ele>145.744263</ele>
<time>2010-07-18T11:29:37Z</time>
<desc>lat.=55.660927, lon.=26.571962, Alt.=145.744263m. Speed=0.072000m/h.</desc>
<speed>0.020000</speed>
</trkpt>
<trkpt lat="55.660927" lon="26.571962">
<ele>145.740356</ele>
<time>2010-07-18T11:29:38Z</time>
<desc>lat.=55.660927, lon.=26.571962, Alt.=145.740356m. Speed=0.036000m/h.</desc>
<speed>0.010000</speed>
</trkpt>
<trkpt lat="55.660927" lon="26.571962">
<ele>145.740356</ele>
<time>2010-07-18T11:29:39Z</time>
<desc>lat.=55.660927, lon.=26.571962, Alt.=145.740356m. Speed=0.000000m/h.</desc>
<speed>0.000000</speed>
</trkpt>
<trkpt lat="55.660927" lon="26.571962">
<ele>145.740356</ele>
<time>2010-07-18T11:29:40Z</time>
<desc>lat.=55.660927, lon.=26.571962, Alt.=145.740356m. Speed=0.000000m/h.</desc>
<speed>0.000000</speed>
</trkpt>
<trkpt lat="55.660927" lon="26.571962">
<ele>145.740356</ele>
<time>2010-07-18T11:29:41Z</time>
<desc>lat.=55.660927, lon.=26.571962, Alt.=145.740356m. Speed=0.000000m/h.</desc>
<speed>0.000000</speed>
</trkpt>
<trkpt lat="55.660927" lon="26.571962">
<ele>145.732544</ele>
<time>2010-07-18T11:29:42Z</time>
<desc>lat.=55.660927, lon.=26.571962, Alt.=145.732544m. Speed=0.000000m/h.</desc>
<speed>0.000000</speed>
</trkpt>
<trkpt lat="55.660927" lon="26.571962">
<ele>145.732544</ele>
<time>2010-07-18T11:29:43Z</time>
<desc>lat.=55.660927, lon.=26.571962, Alt.=145.732544m. Speed=0.000000m/h.</desc>
<speed>0.000000</speed>
</trkpt>
<trkpt lat="55.660927" lon="26.571962">
<ele>145.732544</ele>
<time>2010-07-18T11:29:44Z</time>
<desc>lat.=55.660927, lon.=26.571962, Alt.=145.732544m. Speed=0.000000m/h.</desc>
<speed>0.000000</speed>
</trkpt>
<trkpt lat="55.660927" lon="26.571962">
<ele>145.728638</ele>
<time>2010-07-18T11:29:45Z</time>
<desc>lat.=55.660927, lon.=26.571962, Alt.=145.728638m. Speed=0.000000m/h.</desc>
<speed>0.000000</speed>
</trkpt>
<trkpt lat="55.660927" lon="26.571962">
<ele>145.728638</ele>
<time>2010-07-18T11:29:46Z</time>
<desc>lat.=55.660927, lon.=26.571962, Alt.=145.728638m. Speed=0.000000m/h.</desc>
<speed>0.000000</speed>
</trkpt>
<trkpt lat="55.660927" lon="26.571962">
<ele>145.728638</ele>
<time>2010-07-18T11:29:47Z</time>
<desc>lat.=55.660927, lon.=26.571962, Alt.=145.728638m. Speed=0.036000m/h.</desc>
<speed>0.010000</speed>
</trkpt>
<trkpt lat="55.660927" lon="26.571962">
<ele>145.724731</ele>
<time>2010-07-18T11:29:48Z</time>
<desc>lat.=55.660927, lon.=26.571962, Alt.=145.724731m. Speed=0.000000m/h.</desc>
<speed>0.000000</speed>
</trkpt>
<trkpt lat="55.660927" lon="26.571962">
<ele>145.724731</ele>
<time>2010-07-18T11:29:49Z</time>
<desc>lat.=55.660927, lon.=26.571962, Alt.=145.724731m. Speed=0.000000m/h.</desc>
<speed>0.000000</speed>
</trkpt>
<trkpt lat="55.660927" lon="26.571962">
<ele>145.724731</ele>
<time>2010-07-18T11:29:50Z</time>
<desc>lat.=55.660927, lon.=26.571962, Alt.=145.724731m. Speed=0.000000m/h.</desc>
<speed>0.000000</speed>
</trkpt>
<trkpt lat="55.660927" lon="26.571962">
<ele>145.720825</ele>
<time>2010-07-18T11:29:51Z</time>
<desc>lat.=55.660927, lon.=26.571962, Alt.=145.720825m. Speed=0.000000m/h.</desc>
<speed>0.000000</speed>
</trkpt>
<trkpt lat="55.660927" lon="26.571962">
<ele>145.720825</ele>
<time>2010-07-18T11:29:52Z</time>
<desc>lat.=55.660927, lon.=26.571962, Alt.=145.720825m. Speed=0.036000m/h.</desc>
<speed>0.010000</speed>
</trkpt>
<trkpt lat="55.660927" lon="26.571962">
<ele>145.720825</ele>
<time>2010-07-18T11:29:53Z</time>
<desc>lat.=55.660927, lon.=26.571962, Alt.=145.720825m. Speed=0.000000m/h.</desc>
<speed>0.000000</speed>
</trkpt>
<trkpt lat="55.660927" lon="26.571962">
<ele>145.716919</ele>
<time>2010-07-18T11:29:54Z</time>
<desc>lat.=55.660927, lon.=26.571962, Alt.=145.716919m. Speed=0.000000m/h.</desc>
<speed>0.000000</speed>
</trkpt>
<trkpt lat="55.660927" lon="26.571962">
<ele>145.716919</ele>
<time>2010-07-18T11:29:55Z</time>
<desc>lat.=55.660927, lon.=26.571962, Alt.=145.716919m. Speed=0.036000m/h.</desc>
<speed>0.010000</speed>
</trkpt>
<trkpt lat="55.660927" lon="26.571962">
<ele>145.716919</ele>
<time>2010-07-18T11:29:56Z</time>
<desc>lat.=55.660927, lon.=26.571962, Alt.=145.716919m. Speed=0.036000m/h.</desc>
<speed>0.010000</speed>
</trkpt>
<trkpt lat="55.660927" lon="26.571962">
<ele>145.716919</ele>
<time>2010-07-18T11:29:57Z</time>
<desc>lat.=55.660927, lon.=26.571962, Alt.=145.716919m. Speed=0.036000m/h.</desc>
<speed>0.010000</speed>
</trkpt>
<trkpt lat="55.660927" lon="26.571962">
<ele>145.716919</ele>
<time>2010-07-18T11:29:58Z</time>
<desc>lat.=55.660927, lon.=26.571962, Alt.=145.716919m. Speed=0.036000m/h.</desc>
<speed>0.010000</speed>
</trkpt>
<trkpt lat="55.660927" lon="26.571962">
<ele>145.713013</ele>
<time>2010-07-18T11:29:59Z</time>
<desc>lat.=55.660927, lon.=26.571962, Alt.=145.713013m. Speed=0.072000m/h.</desc>
<speed>0.020000</speed>
</trkpt>
<trkpt lat="55.660927" lon="26.571962">
<ele>145.713013</ele>
<time>2010-07-18T11:30:00Z</time>
<desc>lat.=55.660927, lon.=26.571962, Alt.=145.713013m. Speed=0.036000m/h.</desc>
<speed>0.010000</speed>
</trkpt>
<trkpt lat="55.660927" lon="26.571962">
<ele>145.713013</ele>
<time>2010-07-18T11:30:01Z</time>
<desc>lat.=55.660927, lon.=26.571962, Alt.=145.713013m. Speed=0.108000m/h.</desc>
<speed>0.030000</speed>
</trkpt>
<trkpt lat="55.660927" lon="26.571962">
<ele>145.713013</ele>
<time>2010-07-18T11:30:02Z</time>
<desc>lat.=55.660927, lon.=26.571962, Alt.=145.713013m. Speed=0.036000m/h.</desc>
<speed>0.010000</speed>
</trkpt>
<trkpt lat="55.660927" lon="26.571962">
<ele>145.709106</ele>
<time>2010-07-18T11:30:03Z</time>
<desc>lat.=55.660927, lon.=26.571962, Alt.=145.709106m. Speed=0.036000m/h.</desc>
<speed>0.010000</speed>
</trkpt>
<trkpt lat="55.660927" lon="26.571962">
<ele>145.709106</ele>
<time>2010-07-18T11:30:04Z</time>
<desc>lat.=55.660927, lon.=26.571962, Alt.=145.709106m. Speed=0.000000m/h.</desc>
<speed>0.000000</speed>
</trkpt>
<trkpt lat="55.660927" lon="26.571962">
<ele>145.713013</ele>
<time>2010-07-18T11:30:05Z</time>
<desc>lat.=55.660927, lon.=26.571962, Alt.=145.713013m. Speed=0.000000m/h.</desc>
<speed>0.000000</speed>
</trkpt>
<trkpt lat="55.660927" lon="26.571960">
<ele>145.713013</ele>
<time>2010-07-18T11:30:06Z</time>
<desc>lat.=55.660927, lon.=26.571960, Alt.=145.713013m. Speed=0.144000m/h.</desc>
<speed>0.040000</speed>
</trkpt>
<trkpt lat="55.660927" lon="26.571960">
<ele>145.713013</ele>
<time>2010-07-18T11:30:07Z</time>
<desc>lat.=55.660927, lon.=26.571960, Alt.=145.713013m. Speed=0.036000m/h.</desc>
<speed>0.010000</speed>
</trkpt>
<trkpt lat="55.660927" lon="26.571962">
<ele>145.713013</ele>
<time>2010-07-18T11:30:08Z</time>
<desc>lat.=55.660927, lon.=26.571962, Alt.=145.713013m. Speed=0.036000m/h.</desc>
<speed>0.010000</speed>
</trkpt>
<trkpt lat="55.660927" lon="26.571962">
<ele>145.709106</ele>
<time>2010-07-18T11:30:09Z</time>
<desc>lat.=55.660927, lon.=26.571962, Alt.=145.709106m. Speed=0.000000m/h.</desc>
<speed>0.000000</speed>
</trkpt>
<trkpt lat="55.660927" lon="26.571962">
<ele>145.709106</ele>
<time>2010-07-18T11:30:10Z</time>
<desc>lat.=55.660927, lon.=26.571962, Alt.=145.709106m. Speed=0.036000m/h.</desc>
<speed>0.010000</speed>
</trkpt>
<trkpt lat="55.660927" lon="26.571962">
<ele>145.709106</ele>
<time>2010-07-18T11:30:11Z</time>
<desc>lat.=55.660927, lon.=26.571962, Alt.=145.709106m. Speed=0.000000m/h.</desc>
<speed>0.000000</speed>
</trkpt>
<trkpt lat="55.660927" lon="26.571962">
<ele>145.705200</ele>
<time>2010-07-18T11:30:12Z</time>
<desc>lat.=55.660927, lon.=26.571962, Alt.=145.705200m. Speed=0.036000m/h.</desc>
<speed>0.010000</speed>
</trkpt>
<trkpt lat="55.660927" lon="26.571962">
<ele>145.705200</ele>
<time>2010-07-18T11:30:13Z</time>
<desc>lat.=55.660927, lon.=26.571962, Alt.=145.705200m. Speed=0.000000m/h.</desc>
<speed>0.000000</speed>
</trkpt>
<trkpt lat="55.660927" lon="26.571962">
<ele>145.705200</ele>
<time>2010-07-18T11:30:14Z</time>
<desc>lat.=55.660927, lon.=26.571962, Alt.=145.705200m. Speed=0.000000m/h.</desc>
<speed>0.000000</speed>
</trkpt>
<trkpt lat="55.660927" lon="26.571962">
<ele>145.701294</ele>
<time>2010-07-18T11:30:15Z</time>
<desc>lat.=55.660927, lon.=26.571962, Alt.=145.701294m. Speed=0.000000m/h.</desc>
<speed>0.000000</speed>
</trkpt>
<trkpt lat="55.660927" lon="26.571962">
<ele>145.701294</ele>
<time>2010-07-18T11:30:16Z</time>
<desc>lat.=55.660927, lon.=26.571962, Alt.=145.701294m. Speed=0.000000m/h.</desc>
<speed>0.000000</speed>
</trkpt>
<trkpt lat="55.660927" lon="26.571962">
<ele>145.697388</ele>
<time>2010-07-18T11:30:17Z</time>
<desc>lat.=55.660927, lon.=26.571962, Alt.=145.697388m. Speed=0.000000m/h.</desc>
<speed>0.000000</speed>
</trkpt>
<trkpt lat="55.660927" lon="26.571962">
<ele>145.697388</ele>
<time>2010-07-18T11:30:18Z</time>
<desc>lat.=55.660927, lon.=26.571962, Alt.=145.697388m. Speed=0.000000m/h.</desc>
<speed>0.000000</speed>
</trkpt>
<trkpt lat="55.660927" lon="26.571962">
<ele>145.697388</ele>
<time>2010-07-18T11:30:19Z</time>
<desc>lat.=55.660927, lon.=26.571962, Alt.=145.697388m. Speed=0.000000m/h.</desc>
<speed>0.000000</speed>
</trkpt>
<trkpt lat="55.660927" lon="26.571962">
<ele>145.693481</ele>
<time>2010-07-18T11:30:20Z</time>
<desc>lat.=55.660927, lon.=26.571962, Alt.=145.693481m. Speed=0.000000m/h.</desc>
<speed>0.000000</speed>
</trkpt>
<trkpt lat="55.660927" lon="26.571962">
<ele>145.689575</ele>
<time>2010-07-18T11:30:21Z</time>
<desc>lat.=55.660927, lon.=26.571962, Alt.=145.689575m. Speed=0.000000m/h.</desc>
<speed>0.000000</speed>
</trkpt>
<trkpt lat="55.660927" lon="26.571962">
<ele>145.685669</ele>
<time>2010-07-18T11:30:22Z</time>
<desc>lat.=55.660927, lon.=26.571962, Alt.=145.685669m. Speed=0.000000m/h.</desc>
<speed>0.000000</speed>
</trkpt>
<trkpt lat="55.660927" lon="26.571962">
<ele>145.681763</ele>
<time>2010-07-18T11:30:23Z</time>
<desc>lat.=55.660927, lon.=26.571962, Alt.=145.681763m. Speed=0.000000m/h.</desc>
<speed>0.000000</speed>
</trkpt>
<trkpt lat="55.660927" lon="26.571962">
<ele>145.677856</ele>
<time>2010-07-18T11:30:24Z</time>
<desc>lat.=55.660927, lon.=26.571962, Alt.=145.677856m. Speed=0.036000m/h.</desc>
<speed>0.010000</speed>
</trkpt>
<trkpt lat="55.660927" lon="26.571962">
<ele>145.673950</ele>
<time>2010-07-18T11:30:25Z</time>
<desc>lat.=55.660927, lon.=26.571962, Alt.=145.673950m. Speed=0.036000m/h.</desc>
<speed>0.010000</speed>
</trkpt>
<trkpt lat="55.660927" lon="26.571962">
<ele>145.670044</ele>
<time>2010-07-18T11:30:26Z</time>
<desc>lat.=55.660927, lon.=26.571962, Alt.=145.670044m. Speed=0.000000m/h.</desc>
<speed>0.000000</speed>
</trkpt>
<trkpt lat="55.660927" lon="26.571962">
<ele>145.666138</ele>
<time>2010-07-18T11:30:27Z</time>
<desc>lat.=55.660927, lon.=26.571962, Alt.=145.666138m. Speed=0.000000m/h.</desc>
<speed>0.000000</speed>
</trkpt>
<trkpt lat="55.660927" lon="26.571962">
<ele>145.662231</ele>
<time>2010-07-18T11:30:28Z</time>
<desc>lat.=55.660927, lon.=26.571962, Alt.=145.662231m. Speed=0.000000m/h.</desc>
<speed>0.000000</speed>
</trkpt>
<trkpt lat="55.660927" lon="26.571962">
<ele>145.658325</ele>
<time>2010-07-18T11:30:29Z</time>
<desc>lat.=55.660927, lon.=26.571962, Alt.=145.658325m. Speed=0.000000m/h.</desc>
<speed>0.000000</speed>
</trkpt>
<trkpt lat="55.660927" lon="26.571962">
<ele>145.658325</ele>
<time>2010-07-18T11:30:30Z</time>
<desc>lat.=55.660927, lon.=26.571962, Alt.=145.658325m. Speed=0.000000m/h.</desc>
<speed>0.000000</speed>
</trkpt>
<trkpt lat="55.660927" lon="26.571962">
<ele>145.654419</ele>
<time>2010-07-18T11:30:31Z</time>
<desc>lat.=55.660927, lon.=26.571962, Alt.=145.654419m. Speed=0.000000m/h.</desc>
<speed>0.000000</speed>
</trkpt>
<trkpt lat="55.660927" lon="26.571962">
<ele>145.654419</ele>
<time>2010-07-18T11:30:32Z</time>
<desc>lat.=55.660927, lon.=26.571962, Alt.=145.654419m. Speed=0.000000m/h.</desc>
<speed>0.000000</speed>
</trkpt>
<trkpt lat="55.660927" lon="26.571962">
<ele>145.650513</ele>
<time>2010-07-18T11:30:33Z</time>
<desc>lat.=55.660927, lon.=26.571962, Alt.=145.650513m. Speed=0.000000m/h.</desc>
<speed>0.000000</speed>
</trkpt>
<trkpt lat="55.660927" lon="26.571962">
<ele>145.650513</ele>
<time>2010-07-18T11:30:34Z</time>
<desc>lat.=55.660927, lon.=26.571962, Alt.=145.650513m. Speed=0.000000m/h.</desc>
<speed>0.000000</speed>
</trkpt>
<trkpt lat="55.660927" lon="26.571962">
<ele>145.650513</ele>
<time>2010-07-18T11:30:35Z</time>
<desc>lat.=55.660927, lon.=26.571962, Alt.=145.650513m. Speed=0.036000m/h.</desc>
<speed>0.010000</speed>
</trkpt>
<trkpt lat="55.660927" lon="26.571962">
<ele>145.654419</ele>
<time>2010-07-18T11:30:36Z</time>
<desc>lat.=55.660927, lon.=26.571962, Alt.=145.654419m. Speed=0.036000m/h.</desc>
<speed>0.010000</speed>
</trkpt>
<trkpt lat="55.660927" lon="26.571962">
<ele>145.654419</ele>
<time>2010-07-18T11:30:37Z</time>
<desc>lat.=55.660927, lon.=26.571962, Alt.=145.654419m. Speed=0.000000m/h.</desc>
<speed>0.000000</speed>
</trkpt>
<trkpt lat="55.660927" lon="26.571962">
<ele>145.650513</ele>
<time>2010-07-18T11:30:38Z</time>
<desc>lat.=55.660927, lon.=26.571962, Alt.=145.650513m. Speed=0.036000m/h.</desc>
<speed>0.010000</speed>
</trkpt>
<trkpt lat="55.660927" lon="26.571962">
<ele>145.650513</ele>
<time>2010-07-18T11:30:39Z</time>
<desc>lat.=55.660927, lon.=26.571962, Alt.=145.650513m. Speed=0.000000m/h.</desc>
<speed>0.000000</speed>
</trkpt>
<trkpt lat="55.660927" lon="26.571962">
<ele>145.650513</ele>
<time>2010-07-18T11:30:40Z</time>
<desc>lat.=55.660927, lon.=26.571962, Alt.=145.650513m. Speed=0.036000m/h.</desc>
<speed>0.010000</speed>
</trkpt>
<trkpt lat="55.660927" lon="26.571962">
<ele>145.650513</ele>
<time>2010-07-18T11:30:41Z</time>
<desc>lat.=55.660927, lon.=26.571962, Alt.=145.650513m. Speed=0.000000m/h.</desc>
<speed>0.000000</speed>
</trkpt>
<trkpt lat="55.660927" lon="26.571962">
<ele>145.646606</ele>
<time>2010-07-18T11:30:42Z</time>
<desc>lat.=55.660927, lon.=26.571962, Alt.=145.646606m. Speed=0.036000m/h.</desc>
<speed>0.010000</speed>
</trkpt>
<trkpt lat="55.660927" lon="26.571962">
<ele>145.646606</ele>
<time>2010-07-18T11:30:43Z</time>
<desc>lat.=55.660927, lon.=26.571962, Alt.=145.646606m. Speed=0.000000m/h.</desc>
<speed>0.000000</speed>
</trkpt>
<trkpt lat="55.660927" lon="26.571962">
<ele>145.646606</ele>
<time>2010-07-18T11:30:44Z</time>
<desc>lat.=55.660927, lon.=26.571962, Alt.=145.646606m. Speed=0.000000m/h.</desc>
<speed>0.000000</speed>
</trkpt>
<trkpt lat="55.660927" lon="26.571962">
<ele>145.642700</ele>
<time>2010-07-18T11:30:45Z</time>
<desc>lat.=55.660927, lon.=26.571962, Alt.=145.642700m. Speed=0.036000m/h.</desc>
<speed>0.010000</speed>
</trkpt>
<trkpt lat="55.660927" lon="26.571962">
<ele>145.638794</ele>
<time>2010-07-18T11:30:46Z</time>
<desc>lat.=55.660927, lon.=26.571962, Alt.=145.638794m. Speed=0.000000m/h.</desc>
<speed>0.000000</speed>
</trkpt>
<trkpt lat="55.660927" lon="26.571962">
<ele>145.638794</ele>
<time>2010-07-18T11:30:47Z</time>
<desc>lat.=55.660927, lon.=26.571962, Alt.=145.638794m. Speed=0.000000m/h.</desc>
<speed>0.000000</speed>
</trkpt>
<trkpt lat="55.660927" lon="26.571962">
<ele>145.634888</ele>
<time>2010-07-18T11:30:48Z</time>
<desc>lat.=55.660927, lon.=26.571962, Alt.=145.634888m. Speed=0.000000m/h.</desc>
<speed>0.000000</speed>
</trkpt>
<trkpt lat="55.660927" lon="26.571962">
<ele>145.634888</ele>
<time>2010-07-18T11:30:49Z</time>
<desc>lat.=55.660927, lon.=26.571962, Alt.=145.634888m. Speed=0.000000m/h.</desc>
<speed>0.000000</speed>
</trkpt>
<trkpt lat="55.660927" lon="26.571962">
<ele>145.630981</ele>
<time>2010-07-18T11:30:50Z</time>
<desc>lat.=55.660927, lon.=26.571962, Alt.=145.630981m. Speed=0.036000m/h.</desc>
<speed>0.010000</speed>
</trkpt>
<trkpt lat="55.660927" lon="26.571962">
<ele>145.630981</ele>
<time>2010-07-18T11:30:51Z</time>
<desc>lat.=55.660927, lon.=26.571962, Alt.=145.630981m. Speed=0.036000m/h.</desc>
<speed>0.010000</speed>
</trkpt>
<trkpt lat="55.660927" lon="26.571962">
<ele>145.627075</ele>
<time>2010-07-18T11:30:52Z</time>
<desc>lat.=55.660927, lon.=26.571962, Alt.=145.627075m. Speed=0.000000m/h.</desc>
<speed>0.000000</speed>
</trkpt>
<trkpt lat="55.660927" lon="26.571962">
<ele>145.627075</ele>
<time>2010-07-18T11:30:53Z</time>
<desc>lat.=55.660927, lon.=26.571962, Alt.=145.627075m. Speed=0.000000m/h.</desc>
<speed>0.000000</speed>
</trkpt>
<trkpt lat="55.660927" lon="26.571962">
<ele>145.627075</ele>
<time>2010-07-18T11:30:54Z</time>
<desc>lat.=55.660927, lon.=26.571962, Alt.=145.627075m. Speed=0.000000m/h.</desc>
<speed>0.000000</speed>
</trkpt>
<trkpt lat="55.660927" lon="26.571962">
<ele>145.627075</ele>
<time>2010-07-18T11:30:55Z</time>
<desc>lat.=55.660927, lon.=26.571962, Alt.=145.627075m. Speed=0.036000m/h.</desc>
<speed>0.010000</speed>
</trkpt>
<trkpt lat="55.660927" lon="26.571962">
<ele>145.627075</ele>
<time>2010-07-18T11:30:56Z</time>
<desc>lat.=55.660927, lon.=26.571962, Alt.=145.627075m. Speed=0.000000m/h.</desc>
<speed>0.000000</speed>
</trkpt>
<trkpt lat="55.660927" lon="26.571962">
<ele>145.627075</ele>
<time>2010-07-18T11:30:57Z</time>
<desc>lat.=55.660927, lon.=26.571962, Alt.=145.627075m. Speed=0.000000m/h.</desc>
<speed>0.000000</speed>
</trkpt>
<trkpt lat="55.660927" lon="26.571962">
<ele>145.623169</ele>
<time>2010-07-18T11:30:58Z</time>
<desc>lat.=55.660927, lon.=26.571962, Alt.=145.623169m. Speed=0.000000m/h.</desc>
<speed>0.000000</speed>
</trkpt>
<trkpt lat="55.660927" lon="26.571962">
<ele>145.623169</ele>
<time>2010-07-18T11:30:59Z</time>
<desc>lat.=55.660927, lon.=26.571962, Alt.=145.623169m. Speed=0.000000m/h.</desc>
<speed>0.000000</speed>
</trkpt>
<trkpt lat="55.660927" lon="26.571962">
<ele>145.623169</ele>
<time>2010-07-18T11:31:00Z</time>
<desc>lat.=55.660927, lon.=26.571962, Alt.=145.623169m. Speed=0.000000m/h.</desc>
<speed>0.000000</speed>
</trkpt>
<trkpt lat="55.660927" lon="26.571962">
<ele>145.619263</ele>
<time>2010-07-18T11:31:01Z</time>
<desc>lat.=55.660927, lon.=26.571962, Alt.=145.619263m. Speed=0.036000m/h.</desc>
<speed>0.010000</speed>
</trkpt>
<trkpt lat="55.660927" lon="26.571962">
<ele>145.615356</ele>
<time>2010-07-18T11:31:02Z</time>
<desc>lat.=55.660927, lon.=26.571962, Alt.=145.615356m. Speed=0.000000m/h.</desc>
<speed>0.000000</speed>
</trkpt>
<trkpt lat="55.660927" lon="26.571962">
<ele>145.615356</ele>
<time>2010-07-18T11:31:03Z</time>
<desc>lat.=55.660927, lon.=26.571962, Alt.=145.615356m. Speed=0.000000m/h.</desc>
<speed>0.000000</speed>
</trkpt>
<trkpt lat="55.660927" lon="26.571962">
<ele>145.611450</ele>
<time>2010-07-18T11:31:04Z</time>
<desc>lat.=55.660927, lon.=26.571962, Alt.=145.611450m. Speed=0.000000m/h.</desc>
<speed>0.000000</speed>
</trkpt>
<trkpt lat="55.660927" lon="26.571962">
<ele>145.607544</ele>
<time>2010-07-18T11:31:05Z</time>
<desc>lat.=55.660927, lon.=26.571962, Alt.=145.607544m. Speed=0.000000m/h.</desc>
<speed>0.000000</speed>
</trkpt>
<trkpt lat="55.660927" lon="26.571962">
<ele>145.607544</ele>
<time>2010-07-18T11:31:06Z</time>
<desc>lat.=55.660927, lon.=26.571962, Alt.=145.607544m. Speed=0.000000m/h.</desc>
<speed>0.000000</speed>
</trkpt>
<trkpt lat="55.660927" lon="26.571962">
<ele>145.603638</ele>
<time>2010-07-18T11:31:07Z</time>
<desc>lat.=55.660927, lon.=26.571962, Alt.=145.603638m. Speed=0.000000m/h.</desc>
<speed>0.000000</speed>
</trkpt>
<trkpt lat="55.660927" lon="26.571962">
<ele>145.599731</ele>
<time>2010-07-18T11:31:08Z</time>
<desc>lat.=55.660927, lon.=26.571962, Alt.=145.599731m. Speed=0.000000m/h.</desc>
<speed>0.000000</speed>
</trkpt>
<trkpt lat="55.660927" lon="26.571962">
<ele>145.595825</ele>
<time>2010-07-18T11:31:09Z</time>
<desc>lat.=55.660927, lon.=26.571962, Alt.=145.595825m. Speed=0.000000m/h.</desc>
<speed>0.000000</speed>
</trkpt>
<trkpt lat="55.660927" lon="26.571962">
<ele>145.595825</ele>
<time>2010-07-18T11:31:10Z</time>
<desc>lat.=55.660927, lon.=26.571962, Alt.=145.595825m. Speed=0.000000m/h.</desc>
<speed>0.000000</speed>
</trkpt>
<trkpt lat="55.660927" lon="26.571962">
<ele>145.591919</ele>
<time>2010-07-18T11:31:11Z</time>
<desc>lat.=55.660927, lon.=26.571962, Alt.=145.591919m. Speed=0.000000m/h.</desc>
<speed>0.000000</speed>
</trkpt>
<trkpt lat="55.660927" lon="26.571962">
<ele>145.588013</ele>
<time>2010-07-18T11:31:12Z</time>
<desc>lat.=55.660927, lon.=26.571962, Alt.=145.588013m. Speed=0.000000m/h.</desc>
<speed>0.000000</speed>
</trkpt>
<trkpt lat="55.660927" lon="26.571962">
<ele>145.588013</ele>
<time>2010-07-18T11:31:13Z</time>
<desc>lat.=55.660927, lon.=26.571962, Alt.=145.588013m. Speed=0.000000m/h.</desc>
<speed>0.000000</speed>
</trkpt>
<trkpt lat="55.660927" lon="26.571962">
<ele>145.584106</ele>
<time>2010-07-18T11:31:14Z</time>
<desc>lat.=55.660927, lon.=26.571962, Alt.=145.584106m. Speed=0.000000m/h.</desc>
<speed>0.000000</speed>
</trkpt>
<trkpt lat="55.660927" lon="26.571962">
<ele>145.584106</ele>
<time>2010-07-18T11:31:15Z</time>
<desc>lat.=55.660927, lon.=26.571962, Alt.=145.584106m. Speed=0.036000m/h.</desc>
<speed>0.010000</speed>
</trkpt>
<trkpt lat="55.660927" lon="26.571962">
<ele>145.580200</ele>
<time>2010-07-18T11:31:16Z</time>
<desc>lat.=55.660927, lon.=26.571962, Alt.=145.580200m. Speed=0.000000m/h.</desc>
<speed>0.000000</speed>
</trkpt>
<trkpt lat="55.660927" lon="26.571962">
<ele>145.576294</ele>
<time>2010-07-18T11:31:17Z</time>
<desc>lat.=55.660927, lon.=26.571962, Alt.=145.576294m. Speed=0.000000m/h.</desc>
<speed>0.000000</speed>
</trkpt>
<trkpt lat="55.660927" lon="26.571962">
<ele>145.576294</ele>
<time>2010-07-18T11:31:18Z</time>
<desc>lat.=55.660927, lon.=26.571962, Alt.=145.576294m. Speed=0.000000m/h.</desc>
<speed>0.000000</speed>
</trkpt>
<trkpt lat="55.660927" lon="26.571962">
<ele>145.576294</ele>
<time>2010-07-18T11:31:19Z</time>
<desc>lat.=55.660927, lon.=26.571962, Alt.=145.576294m. Speed=0.036000m/h.</desc>
<speed>0.010000</speed>
</trkpt>
<trkpt lat="55.660927" lon="26.571962">
<ele>145.572388</ele>
<time>2010-07-18T11:31:20Z</time>
<desc>lat.=55.660927, lon.=26.571962, Alt.=145.572388m. Speed=0.000000m/h.</desc>
<speed>0.000000</speed>
</trkpt>
<trkpt lat="55.660927" lon="26.571962">
<ele>145.572388</ele>
<time>2010-07-18T11:31:21Z</time>
<desc>lat.=55.660927, lon.=26.571962, Alt.=145.572388m. Speed=0.000000m/h.</desc>
<speed>0.000000</speed>
</trkpt>
<trkpt lat="55.660927" lon="26.571962">
<ele>145.568481</ele>
<time>2010-07-18T11:31:22Z</time>
<desc>lat.=55.660927, lon.=26.571962, Alt.=145.568481m. Speed=0.036000m/h.</desc>
<speed>0.010000</speed>
</trkpt>
<trkpt lat="55.660927" lon="26.571962">
<ele>145.564575</ele>
<time>2010-07-18T11:31:23Z</time>
<desc>lat.=55.660927, lon.=26.571962, Alt.=145.564575m. Speed=0.036000m/h.</desc>
<speed>0.010000</speed>
</trkpt>
<trkpt lat="55.660927" lon="26.571962">
<ele>145.564575</ele>
<time>2010-07-18T11:31:24Z</time>
<desc>lat.=55.660927, lon.=26.571962, Alt.=145.564575m. Speed=0.000000m/h.</desc>
<speed>0.000000</speed>
</trkpt>
<trkpt lat="55.660927" lon="26.571962">
<ele>145.560669</ele>
<time>2010-07-18T11:31:25Z</time>
<desc>lat.=55.660927, lon.=26.571962, Alt.=145.560669m. Speed=0.000000m/h.</desc>
<speed>0.000000</speed>
</trkpt>
<trkpt lat="55.660927" lon="26.571962">
<ele>145.556763</ele>
<time>2010-07-18T11:31:26Z</time>
<desc>lat.=55.660927, lon.=26.571962, Alt.=145.556763m. Speed=0.000000m/h.</desc>
<speed>0.000000</speed>
</trkpt>
<trkpt lat="55.660927" lon="26.571962">
<ele>145.556763</ele>
<time>2010-07-18T11:31:27Z</time>
<desc>lat.=55.660927, lon.=26.571962, Alt.=145.556763m. Speed=0.000000m/h.</desc>
<speed>0.000000</speed>
</trkpt>
<trkpt lat="55.660927" lon="26.571962">
<ele>145.556763</ele>
<time>2010-07-18T11:31:28Z</time>
<desc>lat.=55.660927, lon.=26.571962, Alt.=145.556763m. Speed=0.072000m/h.</desc>
<speed>0.020000</speed>
</trkpt>
<trkpt lat="55.660927" lon="26.571962">
<ele>145.552856</ele>
<time>2010-07-18T11:31:29Z</time>
<desc>lat.=55.660927, lon.=26.571962, Alt.=145.552856m. Speed=0.000000m/h.</desc>
<speed>0.000000</speed>
</trkpt>
<trkpt lat="55.660927" lon="26.571962">
<ele>145.552856</ele>
<time>2010-07-18T11:31:30Z</time>
<desc>lat.=55.660927, lon.=26.571962, Alt.=145.552856m. Speed=0.000000m/h.</desc>
<speed>0.000000</speed>
</trkpt>
<trkpt lat="55.660927" lon="26.571962">
<ele>145.548950</ele>
<time>2010-07-18T11:31:31Z</time>
<desc>lat.=55.660927, lon.=26.571962, Alt.=145.548950m. Speed=0.036000m/h.</desc>
<speed>0.010000</speed>
</trkpt>
<trkpt lat="55.660927" lon="26.571962">
<ele>145.548950</ele>
<time>2010-07-18T11:31:32Z</time>
<desc>lat.=55.660927, lon.=26.571962, Alt.=145.548950m. Speed=0.000000m/h.</desc>
<speed>0.000000</speed>
</trkpt>
<trkpt lat="55.660927" lon="26.571962">
<ele>145.545044</ele>
<time>2010-07-18T11:31:33Z</time>
<desc>lat.=55.660927, lon.=26.571962, Alt.=145.545044m. Speed=0.000000m/h.</desc>
<speed>0.000000</speed>
</trkpt>
<trkpt lat="55.660927" lon="26.571962">
<ele>145.545044</ele>
<time>2010-07-18T11:31:34Z</time>
<desc>lat.=55.660927, lon.=26.571962, Alt.=145.545044m. Speed=0.000000m/h.</desc>
<speed>0.000000</speed>
</trkpt>
<trkpt lat="55.660927" lon="26.571962">
<ele>145.545044</ele>
<time>2010-07-18T11:31:35Z</time>
<desc>lat.=55.660927, lon.=26.571962, Alt.=145.545044m. Speed=0.000000m/h.</desc>
<speed>0.000000</speed>
</trkpt>
<trkpt lat="55.660927" lon="26.571962">
<ele>145.545044</ele>
<time>2010-07-18T11:31:36Z</time>
<desc>lat.=55.660927, lon.=26.571962, Alt.=145.545044m. Speed=0.000000m/h.</desc>
<speed>0.000000</speed>
</trkpt>
<trkpt lat="55.660927" lon="26.571962">
<ele>145.541138</ele>
<time>2010-07-18T11:31:37Z</time>
<desc>lat.=55.660927, lon.=26.571962, Alt.=145.541138m. Speed=0.000000m/h.</desc>
<speed>0.000000</speed>
</trkpt>
<trkpt lat="55.660927" lon="26.571962">
<ele>145.537231</ele>
<time>2010-07-18T11:31:38Z</time>
<desc>lat.=55.660927, lon.=26.571962, Alt.=145.537231m. Speed=0.000000m/h.</desc>
<speed>0.000000</speed>
</trkpt>
<trkpt lat="55.660927" lon="26.571962">
<ele>145.533325</ele>
<time>2010-07-18T11:31:39Z</time>
<desc>lat.=55.660927, lon.=26.571962, Alt.=145.533325m. Speed=0.000000m/h.</desc>
<speed>0.000000</speed>
</trkpt>
<trkpt lat="55.660927" lon="26.571962">
<ele>145.533325</ele>
<time>2010-07-18T11:31:40Z</time>
<desc>lat.=55.660927, lon.=26.571962, Alt.=145.533325m. Speed=0.000000m/h.</desc>
<speed>0.000000</speed>
</trkpt>
<trkpt lat="55.660927" lon="26.571962">
<ele>145.529419</ele>
<time>2010-07-18T11:31:41Z</time>
<desc>lat.=55.660927, lon.=26.571962, Alt.=145.529419m. Speed=0.000000m/h.</desc>
<speed>0.000000</speed>
</trkpt>
<trkpt lat="55.660927" lon="26.571962">
<ele>145.529419</ele>
<time>2010-07-18T11:31:42Z</time>
<desc>lat.=55.660927, lon.=26.571962, Alt.=145.529419m. Speed=0.000000m/h.</desc>
<speed>0.000000</speed>
</trkpt>
<trkpt lat="55.660927" lon="26.571962">
<ele>145.529419</ele>
<time>2010-07-18T11:31:43Z</time>
<desc>lat.=55.660927, lon.=26.571962, Alt.=145.529419m. Speed=0.000000m/h.</desc>
<speed>0.000000</speed>
</trkpt>
<trkpt lat="55.660927" lon="26.571962">
<ele>145.529419</ele>
<time>2010-07-18T11:31:44Z</time>
<desc>lat.=55.660927, lon.=26.571962, Alt.=145.529419m. Speed=0.000000m/h.</desc>
<speed>0.000000</speed>
</trkpt>
<trkpt lat="55.660927" lon="26.571962">
<ele>145.525513</ele>
<time>2010-07-18T11:31:45Z</time>
<desc>lat.=55.660927, lon.=26.571962, Alt.=145.525513m. Speed=0.000000m/h.</desc>
<speed>0.000000</speed>
</trkpt>
<trkpt lat="55.660927" lon="26.571962">
<ele>145.525513</ele>
<time>2010-07-18T11:31:46Z</time>
<desc>lat.=55.660927, lon.=26.571962, Alt.=145.525513m. Speed=0.036000m/h.</desc>
<speed>0.010000</speed>
</trkpt>
<trkpt lat="55.660927" lon="26.571962">
<ele>145.525513</ele>
<time>2010-07-18T11:31:47Z</time>
<desc>lat.=55.660927, lon.=26.571962, Alt.=145.525513m. Speed=0.036000m/h.</desc>
<speed>0.010000</speed>
</trkpt>
<trkpt lat="55.660927" lon="26.571962">
<ele>145.525513</ele>
<time>2010-07-18T11:31:48Z</time>
<desc>lat.=55.660927, lon.=26.571962, Alt.=145.525513m. Speed=0.000000m/h.</desc>
<speed>0.000000</speed>
</trkpt>
<trkpt lat="55.660927" lon="26.571962">
<ele>145.525513</ele>
<time>2010-07-18T11:31:49Z</time>
<desc>lat.=55.660927, lon.=26.571962, Alt.=145.525513m. Speed=0.000000m/h.</desc>
<speed>0.000000</speed>
</trkpt>
<trkpt lat="55.660927" lon="26.571962">
<ele>145.521606</ele>
<time>2010-07-18T11:31:50Z</time>
<desc>lat.=55.660927, lon.=26.571962, Alt.=145.521606m. Speed=0.000000m/h.</desc>
<speed>0.000000</speed>
</trkpt>
<trkpt lat="55.660927" lon="26.571962">
<ele>145.521606</ele>
<time>2010-07-18T11:31:51Z</time>
<desc>lat.=55.660927, lon.=26.571962, Alt.=145.521606m. Speed=0.000000m/h.</desc>
<speed>0.000000</speed>
</trkpt>
<trkpt lat="55.660927" lon="26.571962">
<ele>145.521606</ele>
<time>2010-07-18T11:31:52Z</time>
<desc>lat.=55.660927, lon.=26.571962, Alt.=145.521606m. Speed=0.000000m/h.</desc>
<speed>0.000000</speed>
</trkpt>
<trkpt lat="55.660927" lon="26.571962">
<ele>145.521606</ele>
<time>2010-07-18T11:31:53Z</time>
<desc>lat.=55.660927, lon.=26.571962, Alt.=145.521606m. Speed=0.036000m/h.</desc>
<speed>0.010000</speed>
</trkpt>
<trkpt lat="55.660927" lon="26.571962">
<ele>145.521606</ele>
<time>2010-07-18T11:31:54Z</time>
<desc>lat.=55.660927, lon.=26.571962, Alt.=145.521606m. Speed=0.000000m/h.</desc>
<speed>0.000000</speed>
</trkpt>
<trkpt lat="55.660927" lon="26.571962">
<ele>145.521606</ele>
<time>2010-07-18T11:31:55Z</time>
<desc>lat.=55.660927, lon.=26.571962, Alt.=145.521606m. Speed=0.000000m/h.</desc>
<speed>0.000000</speed>
</trkpt>
<trkpt lat="55.660927" lon="26.571962">
<ele>145.521606</ele>
<time>2010-07-18T11:31:56Z</time>
<desc>lat.=55.660927, lon.=26.571962, Alt.=145.521606m. Speed=0.000000m/h.</desc>
<speed>0.000000</speed>
</trkpt>
<trkpt lat="55.660927" lon="26.571962">
<ele>145.517700</ele>
<time>2010-07-18T11:31:57Z</time>
<desc>lat.=55.660927, lon.=26.571962, Alt.=145.517700m. Speed=0.000000m/h.</desc>
<speed>0.000000</speed>
</trkpt>
<trkpt lat="55.660927" lon="26.571962">
<ele>145.517700</ele>
<time>2010-07-18T11:31:58Z</time>
<desc>lat.=55.660927, lon.=26.571962, Alt.=145.517700m. Speed=0.000000m/h.</desc>
<speed>0.000000</speed>
</trkpt>
<trkpt lat="55.660927" lon="26.571962">
<ele>145.521606</ele>
<time>2010-07-18T11:31:59Z</time>
<desc>lat.=55.660927, lon.=26.571962, Alt.=145.521606m. Speed=0.036000m/h.</desc>
<speed>0.010000</speed>
</trkpt>
<trkpt lat="55.660927" lon="26.571962">
<ele>145.517700</ele>
<time>2010-07-18T11:32:00Z</time>
<desc>lat.=55.660927, lon.=26.571962, Alt.=145.517700m. Speed=0.036000m/h.</desc>
<speed>0.010000</speed>
</trkpt>
<trkpt lat="55.660927" lon="26.571962">
<ele>145.517700</ele>
<time>2010-07-18T11:32:01Z</time>
<desc>lat.=55.660927, lon.=26.571962, Alt.=145.517700m. Speed=0.000000m/h.</desc>
<speed>0.000000</speed>
</trkpt>
<trkpt lat="55.660927" lon="26.571962">
<ele>145.517700</ele>
<time>2010-07-18T11:32:02Z</time>
<desc>lat.=55.660927, lon.=26.571962, Alt.=145.517700m. Speed=0.000000m/h.</desc>
<speed>0.000000</speed>
</trkpt>
<trkpt lat="55.660927" lon="26.571962">
<ele>145.513794</ele>
<time>2010-07-18T11:32:03Z</time>
<desc>lat.=55.660927, lon.=26.571962, Alt.=145.513794m. Speed=0.000000m/h.</desc>
<speed>0.000000</speed>
</trkpt>
<trkpt lat="55.660927" lon="26.571962">
<ele>145.509888</ele>
<time>2010-07-18T11:32:04Z</time>
<desc>lat.=55.660927, lon.=26.571962, Alt.=145.509888m. Speed=0.000000m/h.</desc>
<speed>0.000000</speed>
</trkpt>
<trkpt lat="55.660927" lon="26.571962">
<ele>145.509888</ele>
<time>2010-07-18T11:32:05Z</time>
<desc>lat.=55.660927, lon.=26.571962, Alt.=145.509888m. Speed=0.000000m/h.</desc>
<speed>0.000000</speed>
</trkpt>
<trkpt lat="55.660927" lon="26.571962">
<ele>145.505981</ele>
<time>2010-07-18T11:32:06Z</time>
<desc>lat.=55.660927, lon.=26.571962, Alt.=145.505981m. Speed=0.000000m/h.</desc>
<speed>0.000000</speed>
</trkpt>
<trkpt lat="55.660927" lon="26.571962">
<ele>145.505981</ele>
<time>2010-07-18T11:32:07Z</time>
<desc>lat.=55.660927, lon.=26.571962, Alt.=145.505981m. Speed=0.000000m/h.</desc>
<speed>0.000000</speed>
</trkpt>
<trkpt lat="55.660927" lon="26.571962">
<ele>145.502075</ele>
<time>2010-07-18T11:32:08Z</time>
<desc>lat.=55.660927, lon.=26.571962, Alt.=145.502075m. Speed=0.000000m/h.</desc>
<speed>0.000000</speed>
</trkpt>
<trkpt lat="55.660927" lon="26.571962">
<ele>145.502075</ele>
<time>2010-07-18T11:32:09Z</time>
<desc>lat.=55.660927, lon.=26.571962, Alt.=145.502075m. Speed=0.000000m/h.</desc>
<speed>0.000000</speed>
</trkpt>
<trkpt lat="55.660927" lon="26.571962">
<ele>145.498169</ele>
<time>2010-07-18T11:32:10Z</time>
<desc>lat.=55.660927, lon.=26.571962, Alt.=145.498169m. Speed=0.000000m/h.</desc>
<speed>0.000000</speed>
</trkpt>
<trkpt lat="55.660927" lon="26.571962">
<ele>145.498169</ele>
<time>2010-07-18T11:32:11Z</time>
<desc>lat.=55.660927, lon.=26.571962, Alt.=145.498169m. Speed=0.000000m/h.</desc>
<speed>0.000000</speed>
</trkpt>
<trkpt lat="55.660927" lon="26.571962">
<ele>145.494263</ele>
<time>2010-07-18T11:32:12Z</time>
<desc>lat.=55.660927, lon.=26.571962, Alt.=145.494263m. Speed=0.000000m/h.</desc>
<speed>0.000000</speed>
</trkpt>
<trkpt lat="55.660927" lon="26.571962">
<ele>145.490356</ele>
<time>2010-07-18T11:32:13Z</time>
<desc>lat.=55.660927, lon.=26.571962, Alt.=145.490356m. Speed=0.000000m/h.</desc>
<speed>0.000000</speed>
</trkpt>
<trkpt lat="55.660927" lon="26.571962">
<ele>145.486450</ele>
<time>2010-07-18T11:32:14Z</time>
<desc>lat.=55.660927, lon.=26.571962, Alt.=145.486450m. Speed=0.000000m/h.</desc>
<speed>0.000000</speed>
</trkpt>
<trkpt lat="55.660927" lon="26.571962">
<ele>145.486450</ele>
<time>2010-07-18T11:32:15Z</time>
<desc>lat.=55.660927, lon.=26.571962, Alt.=145.486450m. Speed=0.000000m/h.</desc>
<speed>0.000000</speed>
</trkpt>
<trkpt lat="55.660927" lon="26.571962">
<ele>145.486450</ele>
<time>2010-07-18T11:32:16Z</time>
<desc>lat.=55.660927, lon.=26.571962, Alt.=145.486450m. Speed=0.000000m/h.</desc>
<speed>0.000000</speed>
</trkpt>
<trkpt lat="55.660927" lon="26.571962">
<ele>145.482544</ele>
<time>2010-07-18T11:32:17Z</time>
<desc>lat.=55.660927, lon.=26.571962, Alt.=145.482544m. Speed=0.000000m/h.</desc>
<speed>0.000000</speed>
</trkpt>
<trkpt lat="55.660927" lon="26.571962">
<ele>145.478638</ele>
<time>2010-07-18T11:32:18Z</time>
<desc>lat.=55.660927, lon.=26.571962, Alt.=145.478638m. Speed=0.000000m/h.</desc>
<speed>0.000000</speed>
</trkpt>
<trkpt lat="55.660927" lon="26.571962">
<ele>145.478638</ele>
<time>2010-07-18T11:32:19Z</time>
<desc>lat.=55.660927, lon.=26.571962, Alt.=145.478638m. Speed=0.000000m/h.</desc>
<speed>0.000000</speed>
</trkpt>
<trkpt lat="55.660927" lon="26.571962">
<ele>145.474731</ele>
<time>2010-07-18T11:32:20Z</time>
<desc>lat.=55.660927, lon.=26.571962, Alt.=145.474731m. Speed=0.000000m/h.</desc>
<speed>0.000000</speed>
</trkpt>
<trkpt lat="55.660927" lon="26.571962">
<ele>145.470825</ele>
<time>2010-07-18T11:32:21Z</time>
<desc>lat.=55.660927, lon.=26.571962, Alt.=145.470825m. Speed=0.036000m/h.</desc>
<speed>0.010000</speed>
</trkpt>
<trkpt lat="55.660927" lon="26.571962">
<ele>145.466919</ele>
<time>2010-07-18T11:32:22Z</time>
<desc>lat.=55.660927, lon.=26.571962, Alt.=145.466919m. Speed=0.000000m/h.</desc>
<speed>0.000000</speed>
</trkpt>
<trkpt lat="55.660927" lon="26.571960">
<ele>145.463013</ele>
<time>2010-07-18T11:32:23Z</time>
<desc>lat.=55.660927, lon.=26.571960, Alt.=145.463013m. Speed=0.000000m/h.</desc>
<speed>0.000000</speed>
</trkpt>
<trkpt lat="55.660927" lon="26.571960">
<ele>145.459106</ele>
<time>2010-07-18T11:32:24Z</time>
<desc>lat.=55.660927, lon.=26.571960, Alt.=145.459106m. Speed=0.000000m/h.</desc>
<speed>0.000000</speed>
</trkpt>
<trkpt lat="55.660927" lon="26.571960">
<ele>145.459106</ele>
<time>2010-07-18T11:32:25Z</time>
<desc>lat.=55.660927, lon.=26.571960, Alt.=145.459106m. Speed=0.000000m/h.</desc>
<speed>0.000000</speed>
</trkpt>
<trkpt lat="55.660927" lon="26.571960">
<ele>145.455200</ele>
<time>2010-07-18T11:32:26Z</time>
<desc>lat.=55.660927, lon.=26.571960, Alt.=145.455200m. Speed=0.000000m/h.</desc>
<speed>0.000000</speed>
</trkpt>
<trkpt lat="55.660927" lon="26.571962">
<ele>145.451294</ele>
<time>2010-07-18T11:32:27Z</time>
<desc>lat.=55.660927, lon.=26.571962, Alt.=145.451294m. Speed=0.000000m/h.</desc>
<speed>0.000000</speed>
</trkpt>
<trkpt lat="55.660927" lon="26.571962">
<ele>145.451294</ele>
<time>2010-07-18T11:32:28Z</time>
<desc>lat.=55.660927, lon.=26.571962, Alt.=145.451294m. Speed=0.000000m/h.</desc>
<speed>0.000000</speed>
</trkpt>
<trkpt lat="55.660927" lon="26.571962">
<ele>145.447388</ele>
<time>2010-07-18T11:32:29Z</time>
<desc>lat.=55.660927, lon.=26.571962, Alt.=145.447388m. Speed=0.000000m/h.</desc>
<speed>0.000000</speed>
</trkpt>
<trkpt lat="55.660927" lon="26.571962">
<ele>145.443481</ele>
<time>2010-07-18T11:32:30Z</time>
<desc>lat.=55.660927, lon.=26.571962, Alt.=145.443481m. Speed=0.000000m/h.</desc>
<speed>0.000000</speed>
</trkpt>
<trkpt lat="55.660927" lon="26.571962">
<ele>145.439575</ele>
<time>2010-07-18T11:32:31Z</time>
<desc>lat.=55.660927, lon.=26.571962, Alt.=145.439575m. Speed=0.000000m/h.</desc>
<speed>0.000000</speed>
</trkpt>
<trkpt lat="55.660927" lon="26.571962">
<ele>145.435669</ele>
<time>2010-07-18T11:32:32Z</time>
<desc>lat.=55.660927, lon.=26.571962, Alt.=145.435669m. Speed=0.000000m/h.</desc>
<speed>0.000000</speed>
</trkpt>
<trkpt lat="55.660927" lon="26.571962">
<ele>145.435669</ele>
<time>2010-07-18T11:32:33Z</time>
<desc>lat.=55.660927, lon.=26.571962, Alt.=145.435669m. Speed=0.000000m/h.</desc>
<speed>0.000000</speed>
</trkpt>
<trkpt lat="55.660927" lon="26.571962">
<ele>145.431763</ele>
<time>2010-07-18T11:32:34Z</time>
<desc>lat.=55.660927, lon.=26.571962, Alt.=145.431763m. Speed=0.000000m/h.</desc>
<speed>0.000000</speed>
</trkpt>
<trkpt lat="55.660927" lon="26.571962">
<ele>145.431763</ele>
<time>2010-07-18T11:32:35Z</time>
<desc>lat.=55.660927, lon.=26.571962, Alt.=145.431763m. Speed=0.000000m/h.</desc>
<speed>0.000000</speed>
</trkpt>
<trkpt lat="55.660927" lon="26.571962">
<ele>145.431763</ele>
<time>2010-07-18T11:32:36Z</time>
<desc>lat.=55.660927, lon.=26.571962, Alt.=145.431763m. Speed=0.000000m/h.</desc>
<speed>0.000000</speed>
</trkpt>
<trkpt lat="55.660927" lon="26.571962">
<ele>145.427856</ele>
<time>2010-07-18T11:32:37Z</time>
<desc>lat.=55.660927, lon.=26.571962, Alt.=145.427856m. Speed=0.000000m/h.</desc>
<speed>0.000000</speed>
</trkpt>
<trkpt lat="55.660927" lon="26.571962">
<ele>145.423950</ele>
<time>2010-07-18T11:32:38Z</time>
<desc>lat.=55.660927, lon.=26.571962, Alt.=145.423950m. Speed=0.036000m/h.</desc>
<speed>0.010000</speed>
</trkpt>
<trkpt lat="55.660927" lon="26.571962">
<ele>145.420044</ele>
<time>2010-07-18T11:32:39Z</time>
<desc>lat.=55.660927, lon.=26.571962, Alt.=145.420044m. Speed=0.000000m/h.</desc>
<speed>0.000000</speed>
</trkpt>
<trkpt lat="55.660927" lon="26.571962">
<ele>145.420044</ele>
<time>2010-07-18T11:32:40Z</time>
<desc>lat.=55.660927, lon.=26.571962, Alt.=145.420044m. Speed=0.000000m/h.</desc>
<speed>0.000000</speed>
</trkpt>
<trkpt lat="55.660927" lon="26.571962">
<ele>145.412231</ele>
<time>2010-07-18T11:32:41Z</time>
<desc>lat.=55.660927, lon.=26.571962, Alt.=145.412231m. Speed=0.000000m/h.</desc>
<speed>0.000000</speed>
</trkpt>
<trkpt lat="55.660927" lon="26.571962">
<ele>145.412231</ele>
<time>2010-07-18T11:32:42Z</time>
<desc>lat.=55.660927, lon.=26.571962, Alt.=145.412231m. Speed=0.072000m/h.</desc>
<speed>0.020000</speed>
</trkpt>
<trkpt lat="55.660927" lon="26.571962">
<ele>145.404419</ele>
<time>2010-07-18T11:32:43Z</time>
<desc>lat.=55.660927, lon.=26.571962, Alt.=145.404419m. Speed=0.000000m/h.</desc>
<speed>0.000000</speed>
</trkpt>
<trkpt lat="55.660927" lon="26.571962">
<ele>145.404419</ele>
<time>2010-07-18T11:32:44Z</time>
<desc>lat.=55.660927, lon.=26.571962, Alt.=145.404419m. Speed=0.000000m/h.</desc>
<speed>0.000000</speed>
</trkpt>
<trkpt lat="55.660927" lon="26.571962">
<ele>145.400513</ele>
<time>2010-07-18T11:32:45Z</time>
<desc>lat.=55.660927, lon.=26.571962, Alt.=145.400513m. Speed=0.036000m/h.</desc>
<speed>0.010000</speed>
</trkpt>
<trkpt lat="55.660927" lon="26.571962">
<ele>145.396606</ele>
<time>2010-07-18T11:32:46Z</time>
<desc>lat.=55.660927, lon.=26.571962, Alt.=145.396606m. Speed=0.000000m/h.</desc>
<speed>0.000000</speed>
</trkpt>
<trkpt lat="55.660927" lon="26.571962">
<ele>145.392700</ele>
<time>2010-07-18T11:32:47Z</time>
<desc>lat.=55.660927, lon.=26.571962, Alt.=145.392700m. Speed=0.036000m/h.</desc>
<speed>0.010000</speed>
</trkpt>
<trkpt lat="55.660927" lon="26.571962">
<ele>145.392700</ele>
<time>2010-07-18T11:32:48Z</time>
<desc>lat.=55.660927, lon.=26.571962, Alt.=145.392700m. Speed=0.036000m/h.</desc>
<speed>0.010000</speed>
</trkpt>
<trkpt lat="55.660927" lon="26.571962">
<ele>145.384888</ele>
<time>2010-07-18T11:32:49Z</time>
<desc>lat.=55.660927, lon.=26.571962, Alt.=145.384888m. Speed=0.000000m/h.</desc>
<speed>0.000000</speed>
</trkpt>
<trkpt lat="55.660927" lon="26.571962">
<ele>145.384888</ele>
<time>2010-07-18T11:32:50Z</time>
<desc>lat.=55.660927, lon.=26.571962, Alt.=145.384888m. Speed=0.000000m/h.</desc>
<speed>0.000000</speed>
</trkpt>
<trkpt lat="55.660927" lon="26.571962">
<ele>145.380981</ele>
<time>2010-07-18T11:32:51Z</time>
<desc>lat.=55.660927, lon.=26.571962, Alt.=145.380981m. Speed=0.000000m/h.</desc>
<speed>0.000000</speed>
</trkpt>
<trkpt lat="55.660927" lon="26.571962">
<ele>145.377075</ele>
<time>2010-07-18T11:32:52Z</time>
<desc>lat.=55.660927, lon.=26.571962, Alt.=145.377075m. Speed=0.036000m/h.</desc>
<speed>0.010000</speed>
</trkpt>
<trkpt lat="55.660927" lon="26.571962">
<ele>145.373169</ele>
<time>2010-07-18T11:32:53Z</time>
<desc>lat.=55.660927, lon.=26.571962, Alt.=145.373169m. Speed=0.036000m/h.</desc>
<speed>0.010000</speed>
</trkpt>
<trkpt lat="55.660927" lon="26.571962">
<ele>145.369263</ele>
<time>2010-07-18T11:32:54Z</time>
<desc>lat.=55.660927, lon.=26.571962, Alt.=145.369263m. Speed=0.000000m/h.</desc>
<speed>0.000000</speed>
</trkpt>
<trkpt lat="55.660927" lon="26.571962">
<ele>145.365356</ele>
<time>2010-07-18T11:32:55Z</time>
<desc>lat.=55.660927, lon.=26.571962, Alt.=145.365356m. Speed=0.000000m/h.</desc>
<speed>0.000000</speed>
</trkpt>
<trkpt lat="55.660927" lon="26.571962">
<ele>145.361450</ele>
<time>2010-07-18T11:32:56Z</time>
<desc>lat.=55.660927, lon.=26.571962, Alt.=145.361450m. Speed=0.000000m/h.</desc>
<speed>0.000000</speed>
</trkpt>
<trkpt lat="55.660927" lon="26.571962">
<ele>145.357544</ele>
<time>2010-07-18T11:32:57Z</time>
<desc>lat.=55.660927, lon.=26.571962, Alt.=145.357544m. Speed=0.000000m/h.</desc>
<speed>0.000000</speed>
</trkpt>
<trkpt lat="55.660927" lon="26.571962">
<ele>145.353638</ele>
<time>2010-07-18T11:32:58Z</time>
<desc>lat.=55.660927, lon.=26.571962, Alt.=145.353638m. Speed=0.072000m/h.</desc>
<speed>0.020000</speed>
</trkpt>
<trkpt lat="55.660927" lon="26.571962">
<ele>145.353638</ele>
<time>2010-07-18T11:32:59Z</time>
<desc>lat.=55.660927, lon.=26.571962, Alt.=145.353638m. Speed=0.000000m/h.</desc>
<speed>0.000000</speed>
</trkpt>
<trkpt lat="55.660927" lon="26.571962">
<ele>145.349731</ele>
<time>2010-07-18T11:33:00Z</time>
<desc>lat.=55.660927, lon.=26.571962, Alt.=145.349731m. Speed=0.000000m/h.</desc>
<speed>0.000000</speed>
</trkpt>
<trkpt lat="55.660927" lon="26.571962">
<ele>145.349731</ele>
<time>2010-07-18T11:33:01Z</time>
<desc>lat.=55.660927, lon.=26.571962, Alt.=145.349731m. Speed=0.000000m/h.</desc>
<speed>0.000000</speed>
</trkpt>
<trkpt lat="55.660927" lon="26.571962">
<ele>145.345825</ele>
<time>2010-07-18T11:33:02Z</time>
<desc>lat.=55.660927, lon.=26.571962, Alt.=145.345825m. Speed=0.000000m/h.</desc>
<speed>0.000000</speed>
</trkpt>
<trkpt lat="55.660927" lon="26.571962">
<ele>145.345825</ele>
<time>2010-07-18T11:33:03Z</time>
<desc>lat.=55.660927, lon.=26.571962, Alt.=145.345825m. Speed=0.000000m/h.</desc>
<speed>0.000000</speed>
</trkpt>
<trkpt lat="55.660927" lon="26.571962">
<ele>145.341919</ele>
<time>2010-07-18T11:33:04Z</time>
<desc>lat.=55.660927, lon.=26.571962, Alt.=145.341919m. Speed=0.000000m/h.</desc>
<speed>0.000000</speed>
</trkpt>
<trkpt lat="55.660927" lon="26.571962">
<ele>145.338013</ele>
<time>2010-07-18T11:33:05Z</time>
<desc>lat.=55.660927, lon.=26.571962, Alt.=145.338013m. Speed=0.000000m/h.</desc>
<speed>0.000000</speed>
</trkpt>
<trkpt lat="55.660927" lon="26.571962">
<ele>145.338013</ele>
<time>2010-07-18T11:33:06Z</time>
<desc>lat.=55.660927, lon.=26.571962, Alt.=145.338013m. Speed=0.000000m/h.</desc>
<speed>0.000000</speed>
</trkpt>
<trkpt lat="55.660927" lon="26.571962">
<ele>145.334106</ele>
<time>2010-07-18T11:33:07Z</time>
<desc>lat.=55.660927, lon.=26.571962, Alt.=145.334106m. Speed=0.036000m/h.</desc>
<speed>0.010000</speed>
</trkpt>
<trkpt lat="55.660927" lon="26.571962">
<ele>145.330200</ele>
<time>2010-07-18T11:33:08Z</time>
<desc>lat.=55.660927, lon.=26.571962, Alt.=145.330200m. Speed=0.072000m/h.</desc>
<speed>0.020000</speed>
</trkpt>
<trkpt lat="55.660927" lon="26.571962">
<ele>145.330200</ele>
<time>2010-07-18T11:33:09Z</time>
<desc>lat.=55.660927, lon.=26.571962, Alt.=145.330200m. Speed=0.000000m/h.</desc>
<speed>0.000000</speed>
</trkpt>
<trkpt lat="55.660927" lon="26.571962">
<ele>145.326294</ele>
<time>2010-07-18T11:33:10Z</time>
<desc>lat.=55.660927, lon.=26.571962, Alt.=145.326294m. Speed=0.000000m/h.</desc>
<speed>0.000000</speed>
</trkpt>
<trkpt lat="55.660927" lon="26.571962">
<ele>145.326294</ele>
<time>2010-07-18T11:33:11Z</time>
<desc>lat.=55.660927, lon.=26.571962, Alt.=145.326294m. Speed=0.000000m/h.</desc>
<speed>0.000000</speed>
</trkpt>
<trkpt lat="55.660927" lon="26.571962">
<ele>145.322388</ele>
<time>2010-07-18T11:33:12Z</time>
<desc>lat.=55.660927, lon.=26.571962, Alt.=145.322388m. Speed=0.000000m/h.</desc>
<speed>0.000000</speed>
</trkpt>
<trkpt lat="55.660927" lon="26.571962">
<ele>145.322388</ele>
<time>2010-07-18T11:33:13Z</time>
<desc>lat.=55.660927, lon.=26.571962, Alt.=145.322388m. Speed=0.000000m/h.</desc>
<speed>0.000000</speed>
</trkpt>
<trkpt lat="55.660927" lon="26.571962">
<ele>145.318481</ele>
<time>2010-07-18T11:33:14Z</time>
<desc>lat.=55.660927, lon.=26.571962, Alt.=145.318481m. Speed=0.000000m/h.</desc>
<speed>0.000000</speed>
</trkpt>
<trkpt lat="55.660927" lon="26.571962">
<ele>145.314575</ele>
<time>2010-07-18T11:33:15Z</time>
<desc>lat.=55.660927, lon.=26.571962, Alt.=145.314575m. Speed=0.036000m/h.</desc>
<speed>0.010000</speed>
</trkpt>
<trkpt lat="55.660927" lon="26.571962">
<ele>145.314575</ele>
<time>2010-07-18T11:33:16Z</time>
<desc>lat.=55.660927, lon.=26.571962, Alt.=145.314575m. Speed=0.000000m/h.</desc>
<speed>0.000000</speed>
</trkpt>
<trkpt lat="55.660927" lon="26.571962">
<ele>145.310669</ele>
<time>2010-07-18T11:33:17Z</time>
<desc>lat.=55.660927, lon.=26.571962, Alt.=145.310669m. Speed=0.000000m/h.</desc>
<speed>0.000000</speed>
</trkpt>
<trkpt lat="55.660927" lon="26.571962">
<ele>145.306763</ele>
<time>2010-07-18T11:33:18Z</time>
<desc>lat.=55.660927, lon.=26.571962, Alt.=145.306763m. Speed=0.000000m/h.</desc>
<speed>0.000000</speed>
</trkpt>
<trkpt lat="55.660927" lon="26.571962">
<ele>145.302856</ele>
<time>2010-07-18T11:33:19Z</time>
<desc>lat.=55.660927, lon.=26.571962, Alt.=145.302856m. Speed=0.000000m/h.</desc>
<speed>0.000000</speed>
</trkpt>
<trkpt lat="55.660927" lon="26.571962">
<ele>145.302856</ele>
<time>2010-07-18T11:33:20Z</time>
<desc>lat.=55.660927, lon.=26.571962, Alt.=145.302856m. Speed=0.000000m/h.</desc>
<speed>0.000000</speed>
</trkpt>
<trkpt lat="55.660927" lon="26.571962">
<ele>145.298950</ele>
<time>2010-07-18T11:33:21Z</time>
<desc>lat.=55.660927, lon.=26.571962, Alt.=145.298950m. Speed=0.036000m/h.</desc>
<speed>0.010000</speed>
</trkpt>
<trkpt lat="55.660927" lon="26.571962">
<ele>145.295044</ele>
<time>2010-07-18T11:33:22Z</time>
<desc>lat.=55.660927, lon.=26.571962, Alt.=145.295044m. Speed=0.000000m/h.</desc>
<speed>0.000000</speed>
</trkpt>
<trkpt lat="55.660927" lon="26.571962">
<ele>145.295044</ele>
<time>2010-07-18T11:33:23Z</time>
<desc>lat.=55.660927, lon.=26.571962, Alt.=145.295044m. Speed=0.000000m/h.</desc>
<speed>0.000000</speed>
</trkpt>
<trkpt lat="55.660927" lon="26.571962">
<ele>145.291138</ele>
<time>2010-07-18T11:33:24Z</time>
<desc>lat.=55.660927, lon.=26.571962, Alt.=145.291138m. Speed=0.036000m/h.</desc>
<speed>0.010000</speed>
</trkpt>
<trkpt lat="55.660927" lon="26.571962">
<ele>145.291138</ele>
<time>2010-07-18T11:33:25Z</time>
<desc>lat.=55.660927, lon.=26.571962, Alt.=145.291138m. Speed=0.000000m/h.</desc>
<speed>0.000000</speed>
</trkpt>
<trkpt lat="55.660927" lon="26.571962">
<ele>145.287231</ele>
<time>2010-07-18T11:33:26Z</time>
<desc>lat.=55.660927, lon.=26.571962, Alt.=145.287231m. Speed=0.000000m/h.</desc>
<speed>0.000000</speed>
</trkpt>
<trkpt lat="55.660927" lon="26.571962">
<ele>145.283325</ele>
<time>2010-07-18T11:33:27Z</time>
<desc>lat.=55.660927, lon.=26.571962, Alt.=145.283325m. Speed=0.000000m/h.</desc>
<speed>0.000000</speed>
</trkpt>
<trkpt lat="55.660927" lon="26.571962">
<ele>145.283325</ele>
<time>2010-07-18T11:33:28Z</time>
<desc>lat.=55.660927, lon.=26.571962, Alt.=145.283325m. Speed=0.000000m/h.</desc>
<speed>0.000000</speed>
</trkpt>
<trkpt lat="55.660927" lon="26.571962">
<ele>145.279419</ele>
<time>2010-07-18T11:33:29Z</time>
<desc>lat.=55.660927, lon.=26.571962, Alt.=145.279419m. Speed=0.000000m/h.</desc>
<speed>0.000000</speed>
</trkpt>
<trkpt lat="55.660927" lon="26.571962">
<ele>145.275513</ele>
<time>2010-07-18T11:33:30Z</time>
<desc>lat.=55.660927, lon.=26.571962, Alt.=145.275513m. Speed=0.000000m/h.</desc>
<speed>0.000000</speed>
</trkpt>
<trkpt lat="55.660927" lon="26.571962">
<ele>145.275513</ele>
<time>2010-07-18T11:33:31Z</time>
<desc>lat.=55.660927, lon.=26.571962, Alt.=145.275513m. Speed=0.000000m/h.</desc>
<speed>0.000000</speed>
</trkpt>
<trkpt lat="55.660927" lon="26.571962">
<ele>145.271606</ele>
<time>2010-07-18T11:33:32Z</time>
<desc>lat.=55.660927, lon.=26.571962, Alt.=145.271606m. Speed=0.000000m/h.</desc>
<speed>0.000000</speed>
</trkpt>
<trkpt lat="55.660927" lon="26.571962">
<ele>145.267700</ele>
<time>2010-07-18T11:33:33Z</time>
<desc>lat.=55.660927, lon.=26.571962, Alt.=145.267700m. Speed=0.000000m/h.</desc>
<speed>0.000000</speed>
</trkpt>
<trkpt lat="55.660927" lon="26.571962">
<ele>145.267700</ele>
<time>2010-07-18T11:33:34Z</time>
<desc>lat.=55.660927, lon.=26.571962, Alt.=145.267700m. Speed=0.000000m/h.</desc>
<speed>0.000000</speed>
</trkpt>
<trkpt lat="55.660927" lon="26.571962">
<ele>145.263794</ele>
<time>2010-07-18T11:33:35Z</time>
<desc>lat.=55.660927, lon.=26.571962, Alt.=145.263794m. Speed=0.036000m/h.</desc>
<speed>0.010000</speed>
</trkpt>
<trkpt lat="55.660927" lon="26.571962">
<ele>145.259888</ele>
<time>2010-07-18T11:33:36Z</time>
<desc>lat.=55.660927, lon.=26.571962, Alt.=145.259888m. Speed=0.000000m/h.</desc>
<speed>0.000000</speed>
</trkpt>
<trkpt lat="55.660927" lon="26.571962">
<ele>145.255981</ele>
<time>2010-07-18T11:33:37Z</time>
<desc>lat.=55.660927, lon.=26.571962, Alt.=145.255981m. Speed=0.000000m/h.</desc>
<speed>0.000000</speed>
</trkpt>
<trkpt lat="55.660927" lon="26.571962">
<ele>145.255981</ele>
<time>2010-07-18T11:33:38Z</time>
<desc>lat.=55.660927, lon.=26.571962, Alt.=145.255981m. Speed=0.000000m/h.</desc>
<speed>0.000000</speed>
</trkpt>
<trkpt lat="55.660927" lon="26.571964">
<ele>145.248169</ele>
<time>2010-07-18T11:33:39Z</time>
<desc>lat.=55.660927, lon.=26.571964, Alt.=145.248169m. Speed=0.000000m/h.</desc>
<speed>0.000000</speed>
</trkpt>
<trkpt lat="55.660927" lon="26.571964">
<ele>145.248169</ele>
<time>2010-07-18T11:33:40Z</time>
<desc>lat.=55.660927, lon.=26.571964, Alt.=145.248169m. Speed=0.000000m/h.</desc>
<speed>0.000000</speed>
</trkpt>
<trkpt lat="55.660927" lon="26.571964">
<ele>145.244263</ele>
<time>2010-07-18T11:33:41Z</time>
<desc>lat.=55.660927, lon.=26.571964, Alt.=145.244263m. Speed=0.000000m/h.</desc>
<speed>0.000000</speed>
</trkpt>
<trkpt lat="55.660927" lon="26.571964">
<ele>145.240356</ele>
<time>2010-07-18T11:33:42Z</time>
<desc>lat.=55.660927, lon.=26.571964, Alt.=145.240356m. Speed=0.000000m/h.</desc>
<speed>0.000000</speed>
</trkpt>
<trkpt lat="55.660927" lon="26.571964">
<ele>145.236450</ele>
<time>2010-07-18T11:33:43Z</time>
<desc>lat.=55.660927, lon.=26.571964, Alt.=145.236450m. Speed=0.036000m/h.</desc>
<speed>0.010000</speed>
</trkpt>
<trkpt lat="55.660927" lon="26.571964">
<ele>145.228638</ele>
<time>2010-07-18T11:33:44Z</time>
<desc>lat.=55.660927, lon.=26.571964, Alt.=145.228638m. Speed=0.036000m/h.</desc>
<speed>0.010000</speed>
</trkpt>
<trkpt lat="55.660927" lon="26.571964">
<ele>145.224731</ele>
<time>2010-07-18T11:33:45Z</time>
<desc>lat.=55.660927, lon.=26.571964, Alt.=145.224731m. Speed=0.072000m/h.</desc>
<speed>0.020000</speed>
</trkpt>
<trkpt lat="55.660927" lon="26.571962">
<ele>145.220825</ele>
<time>2010-07-18T11:33:46Z</time>
<desc>lat.=55.660927, lon.=26.571962, Alt.=145.220825m. Speed=0.000000m/h.</desc>
<speed>0.000000</speed>
</trkpt>
<trkpt lat="55.660927" lon="26.571964">
<ele>145.213013</ele>
<time>2010-07-18T11:33:47Z</time>
<desc>lat.=55.660927, lon.=26.571964, Alt.=145.213013m. Speed=0.000000m/h.</desc>
<speed>0.000000</speed>
</trkpt>
<trkpt lat="55.660927" lon="26.571964">
<ele>145.209106</ele>
<time>2010-07-18T11:33:48Z</time>
<desc>lat.=55.660927, lon.=26.571964, Alt.=145.209106m. Speed=0.000000m/h.</desc>
<speed>0.000000</speed>
</trkpt>
<trkpt lat="55.660927" lon="26.571964">
<ele>145.201294</ele>
<time>2010-07-18T11:33:49Z</time>
<desc>lat.=55.660927, lon.=26.571964, Alt.=145.201294m. Speed=0.000000m/h.</desc>
<speed>0.000000</speed>
</trkpt>
<trkpt lat="55.660927" lon="26.571964">
<ele>145.197388</ele>
<time>2010-07-18T11:33:50Z</time>
<desc>lat.=55.660927, lon.=26.571964, Alt.=145.197388m. Speed=0.036000m/h.</desc>
<speed>0.010000</speed>
</trkpt>
<trkpt lat="55.660927" lon="26.571964">
<ele>145.193481</ele>
<time>2010-07-18T11:33:51Z</time>
<desc>lat.=55.660927, lon.=26.571964, Alt.=145.193481m. Speed=0.000000m/h.</desc>
<speed>0.000000</speed>
</trkpt>
<trkpt lat="55.660927" lon="26.571964">
<ele>145.189575</ele>
<time>2010-07-18T11:33:52Z</time>
<desc>lat.=55.660927, lon.=26.571964, Alt.=145.189575m. Speed=0.000000m/h.</desc>
<speed>0.000000</speed>
</trkpt>
<trkpt lat="55.660927" lon="26.571964">
<ele>145.181763</ele>
<time>2010-07-18T11:33:53Z</time>
<desc>lat.=55.660927, lon.=26.571964, Alt.=145.181763m. Speed=0.000000m/h.</desc>
<speed>0.000000</speed>
</trkpt>
<trkpt lat="55.660927" lon="26.571964">
<ele>145.177856</ele>
<time>2010-07-18T11:33:54Z</time>
<desc>lat.=55.660927, lon.=26.571964, Alt.=145.177856m. Speed=0.036000m/h.</desc>
<speed>0.010000</speed>
</trkpt>
<trkpt lat="55.660927" lon="26.571964">
<ele>145.173950</ele>
<time>2010-07-18T11:33:55Z</time>
<desc>lat.=55.660927, lon.=26.571964, Alt.=145.173950m. Speed=0.000000m/h.</desc>
<speed>0.000000</speed>
</trkpt>
<trkpt lat="55.660927" lon="26.571964">
<ele>145.170044</ele>
<time>2010-07-18T11:33:56Z</time>
<desc>lat.=55.660927, lon.=26.571964, Alt.=145.170044m. Speed=0.000000m/h.</desc>
<speed>0.000000</speed>
</trkpt>
<trkpt lat="55.660927" lon="26.571964">
<ele>145.166138</ele>
<time>2010-07-18T11:33:57Z</time>
<desc>lat.=55.660927, lon.=26.571964, Alt.=145.166138m. Speed=0.000000m/h.</desc>
<speed>0.000000</speed>
</trkpt>
<trkpt lat="55.660927" lon="26.571964">
<ele>145.162231</ele>
<time>2010-07-18T11:33:58Z</time>
<desc>lat.=55.660927, lon.=26.571964, Alt.=145.162231m. Speed=0.036000m/h.</desc>
<speed>0.010000</speed>
</trkpt>
<trkpt lat="55.660927" lon="26.571964">
<ele>145.154419</ele>
<time>2010-07-18T11:33:59Z</time>
<desc>lat.=55.660927, lon.=26.571964, Alt.=145.154419m. Speed=0.072000m/h.</desc>
<speed>0.020000</speed>
</trkpt>
<trkpt lat="55.660927" lon="26.571964">
<ele>145.154419</ele>
<time>2010-07-18T11:34:00Z</time>
<desc>lat.=55.660927, lon.=26.571964, Alt.=145.154419m. Speed=0.036000m/h.</desc>
<speed>0.010000</speed>
</trkpt>
<trkpt lat="55.660927" lon="26.571964">
<ele>145.146606</ele>
<time>2010-07-18T11:34:01Z</time>
<desc>lat.=55.660927, lon.=26.571964, Alt.=145.146606m. Speed=0.000000m/h.</desc>
<speed>0.000000</speed>
</trkpt>
<trkpt lat="55.660927" lon="26.571964">
<ele>145.142700</ele>
<time>2010-07-18T11:34:02Z</time>
<desc>lat.=55.660927, lon.=26.571964, Alt.=145.142700m. Speed=0.000000m/h.</desc>
<speed>0.000000</speed>
</trkpt>
<trkpt lat="55.660927" lon="26.571964">
<ele>145.138794</ele>
<time>2010-07-18T11:34:03Z</time>
<desc>lat.=55.660927, lon.=26.571964, Alt.=145.138794m. Speed=0.000000m/h.</desc>
<speed>0.000000</speed>
</trkpt>
<trkpt lat="55.660927" lon="26.571964">
<ele>145.134888</ele>
<time>2010-07-18T11:34:04Z</time>
<desc>lat.=55.660927, lon.=26.571964, Alt.=145.134888m. Speed=0.000000m/h.</desc>
<speed>0.000000</speed>
</trkpt>
<trkpt lat="55.660927" lon="26.571964">
<ele>145.130981</ele>
<time>2010-07-18T11:34:05Z</time>
<desc>lat.=55.660927, lon.=26.571964, Alt.=145.130981m. Speed=0.036000m/h.</desc>
<speed>0.010000</speed>
</trkpt>
<trkpt lat="55.660927" lon="26.571964">
<ele>145.127075</ele>
<time>2010-07-18T11:34:06Z</time>
<desc>lat.=55.660927, lon.=26.571964, Alt.=145.127075m. Speed=0.000000m/h.</desc>
<speed>0.000000</speed>
</trkpt>
<trkpt lat="55.660927" lon="26.571964">
<ele>145.123169</ele>
<time>2010-07-18T11:34:07Z</time>
<desc>lat.=55.660927, lon.=26.571964, Alt.=145.123169m. Speed=0.036000m/h.</desc>
<speed>0.010000</speed>
</trkpt>
<trkpt lat="55.660927" lon="26.571964">
<ele>145.119263</ele>
<time>2010-07-18T11:34:08Z</time>
<desc>lat.=55.660927, lon.=26.571964, Alt.=145.119263m. Speed=0.036000m/h.</desc>
<speed>0.010000</speed>
</trkpt>
<trkpt lat="55.660927" lon="26.571964">
<ele>145.111450</ele>
<time>2010-07-18T11:34:09Z</time>
<desc>lat.=55.660927, lon.=26.571964, Alt.=145.111450m. Speed=0.000000m/h.</desc>
<speed>0.000000</speed>
</trkpt>
<trkpt lat="55.660927" lon="26.571964">
<ele>145.107544</ele>
<time>2010-07-18T11:34:10Z</time>
<desc>lat.=55.660927, lon.=26.571964, Alt.=145.107544m. Speed=0.000000m/h.</desc>
<speed>0.000000</speed>
</trkpt>
<trkpt lat="55.660927" lon="26.571964">
<ele>145.103638</ele>
<time>2010-07-18T11:34:11Z</time>
<desc>lat.=55.660927, lon.=26.571964, Alt.=145.103638m. Speed=0.000000m/h.</desc>
<speed>0.000000</speed>
</trkpt>
<trkpt lat="55.660927" lon="26.571964">
<ele>145.099731</ele>
<time>2010-07-18T11:34:12Z</time>
<desc>lat.=55.660927, lon.=26.571964, Alt.=145.099731m. Speed=0.000000m/h.</desc>
<speed>0.000000</speed>
</trkpt>
<trkpt lat="55.660927" lon="26.571964">
<ele>145.095825</ele>
<time>2010-07-18T11:34:13Z</time>
<desc>lat.=55.660927, lon.=26.571964, Alt.=145.095825m. Speed=0.000000m/h.</desc>
<speed>0.000000</speed>
</trkpt>
<trkpt lat="55.660927" lon="26.571964">
<ele>145.091919</ele>
<time>2010-07-18T11:34:14Z</time>
<desc>lat.=55.660927, lon.=26.571964, Alt.=145.091919m. Speed=0.000000m/h.</desc>
<speed>0.000000</speed>
</trkpt>
<trkpt lat="55.660927" lon="26.571964">
<ele>145.088013</ele>
<time>2010-07-18T11:34:15Z</time>
<desc>lat.=55.660927, lon.=26.571964, Alt.=145.088013m. Speed=0.000000m/h.</desc>
<speed>0.000000</speed>
</trkpt>
<trkpt lat="55.660927" lon="26.571964">
<ele>145.084106</ele>
<time>2010-07-18T11:34:16Z</time>
<desc>lat.=55.660927, lon.=26.571964, Alt.=145.084106m. Speed=0.000000m/h.</desc>
<speed>0.000000</speed>
</trkpt>
<trkpt lat="55.660927" lon="26.571964">
<ele>145.076294</ele>
<time>2010-07-18T11:34:17Z</time>
<desc>lat.=55.660927, lon.=26.571964, Alt.=145.076294m. Speed=0.000000m/h.</desc>
<speed>0.000000</speed>
</trkpt>
<trkpt lat="55.660927" lon="26.571964">
<ele>145.072388</ele>
<time>2010-07-18T11:34:18Z</time>
<desc>lat.=55.660927, lon.=26.571964, Alt.=145.072388m. Speed=0.000000m/h.</desc>
<speed>0.000000</speed>
</trkpt>
<trkpt lat="55.660927" lon="26.571964">
<ele>145.068481</ele>
<time>2010-07-18T11:34:19Z</time>
<desc>lat.=55.660927, lon.=26.571964, Alt.=145.068481m. Speed=0.036000m/h.</desc>
<speed>0.010000</speed>
</trkpt>
<trkpt lat="55.660927" lon="26.571964">
<ele>145.064575</ele>
<time>2010-07-18T11:34:20Z</time>
<desc>lat.=55.660927, lon.=26.571964, Alt.=145.064575m. Speed=0.000000m/h.</desc>
<speed>0.000000</speed>
</trkpt>
<trkpt lat="55.660927" lon="26.571964">
<ele>145.056763</ele>
<time>2010-07-18T11:34:21Z</time>
<desc>lat.=55.660927, lon.=26.571964, Alt.=145.056763m. Speed=0.000000m/h.</desc>
<speed>0.000000</speed>
</trkpt>
<trkpt lat="55.660927" lon="26.571964">
<ele>145.052856</ele>
<time>2010-07-18T11:34:22Z</time>
<desc>lat.=55.660927, lon.=26.571964, Alt.=145.052856m. Speed=0.000000m/h.</desc>
<speed>0.000000</speed>
</trkpt>
<trkpt lat="55.660927" lon="26.571964">
<ele>145.045044</ele>
<time>2010-07-18T11:34:23Z</time>
<desc>lat.=55.660927, lon.=26.571964, Alt.=145.045044m. Speed=0.000000m/h.</desc>
<speed>0.000000</speed>
</trkpt>
<trkpt lat="55.660927" lon="26.571964">
<ele>145.041138</ele>
<time>2010-07-18T11:34:24Z</time>
<desc>lat.=55.660927, lon.=26.571964, Alt.=145.041138m. Speed=0.036000m/h.</desc>
<speed>0.010000</speed>
</trkpt>
<trkpt lat="55.660927" lon="26.571964">
<ele>145.037231</ele>
<time>2010-07-18T11:34:25Z</time>
<desc>lat.=55.660927, lon.=26.571964, Alt.=145.037231m. Speed=0.000000m/h.</desc>
<speed>0.000000</speed>
</trkpt>
<trkpt lat="55.660927" lon="26.571964">
<ele>145.033325</ele>
<time>2010-07-18T11:34:26Z</time>
<desc>lat.=55.660927, lon.=26.571964, Alt.=145.033325m. Speed=0.000000m/h.</desc>
<speed>0.000000</speed>
</trkpt>
<trkpt lat="55.660927" lon="26.571964">
<ele>145.029419</ele>
<time>2010-07-18T11:34:27Z</time>
<desc>lat.=55.660927, lon.=26.571964, Alt.=145.029419m. Speed=0.000000m/h.</desc>
<speed>0.000000</speed>
</trkpt>
<trkpt lat="55.660927" lon="26.571964">
<ele>145.025513</ele>
<time>2010-07-18T11:34:28Z</time>
<desc>lat.=55.660927, lon.=26.571964, Alt.=145.025513m. Speed=0.000000m/h.</desc>
<speed>0.000000</speed>
</trkpt>
<trkpt lat="55.660927" lon="26.571964">
<ele>145.021606</ele>
<time>2010-07-18T11:34:29Z</time>
<desc>lat.=55.660927, lon.=26.571964, Alt.=145.021606m. Speed=0.000000m/h.</desc>
<speed>0.000000</speed>
</trkpt>
<trkpt lat="55.660927" lon="26.571964">
<ele>145.013794</ele>
<time>2010-07-18T11:34:30Z</time>
<desc>lat.=55.660927, lon.=26.571964, Alt.=145.013794m. Speed=0.000000m/h.</desc>
<speed>0.000000</speed>
</trkpt>
<trkpt lat="55.660927" lon="26.571964">
<ele>145.009888</ele>
<time>2010-07-18T11:34:31Z</time>
<desc>lat.=55.660927, lon.=26.571964, Alt.=145.009888m. Speed=0.000000m/h.</desc>
<speed>0.000000</speed>
</trkpt>
<trkpt lat="55.660927" lon="26.571964">
<ele>145.009888</ele>
<time>2010-07-18T11:34:32Z</time>
<desc>lat.=55.660927, lon.=26.571964, Alt.=145.009888m. Speed=0.000000m/h.</desc>
<speed>0.000000</speed>
</trkpt>
<trkpt lat="55.660927" lon="26.571964">
<ele>145.005981</ele>
<time>2010-07-18T11:34:33Z</time>
<desc>lat.=55.660927, lon.=26.571964, Alt.=145.005981m. Speed=0.000000m/h.</desc>
<speed>0.000000</speed>
</trkpt>
<trkpt lat="55.660927" lon="26.571964">
<ele>144.998169</ele>
<time>2010-07-18T11:34:34Z</time>
<desc>lat.=55.660927, lon.=26.571964, Alt.=144.998169m. Speed=0.036000m/h.</desc>
<speed>0.010000</speed>
</trkpt>
<trkpt lat="55.660927" lon="26.571964">
<ele>144.994263</ele>
<time>2010-07-18T11:34:35Z</time>
<desc>lat.=55.660927, lon.=26.571964, Alt.=144.994263m. Speed=0.000000m/h.</desc>
<speed>0.000000</speed>
</trkpt>
<trkpt lat="55.660927" lon="26.571964">
<ele>144.994263</ele>
<time>2010-07-18T11:34:36Z</time>
<desc>lat.=55.660927, lon.=26.571964, Alt.=144.994263m. Speed=0.000000m/h.</desc>
<speed>0.000000</speed>
</trkpt>
<trkpt lat="55.660927" lon="26.571964">
<ele>144.990356</ele>
<time>2010-07-18T11:34:37Z</time>
<desc>lat.=55.660927, lon.=26.571964, Alt.=144.990356m. Speed=0.000000m/h.</desc>
<speed>0.000000</speed>
</trkpt>
<trkpt lat="55.660927" lon="26.571964">
<ele>144.986450</ele>
<time>2010-07-18T11:34:38Z</time>
<desc>lat.=55.660927, lon.=26.571964, Alt.=144.986450m. Speed=0.000000m/h.</desc>
<speed>0.000000</speed>
</trkpt>
<trkpt lat="55.660927" lon="26.571964">
<ele>144.982544</ele>
<time>2010-07-18T11:34:39Z</time>
<desc>lat.=55.660927, lon.=26.571964, Alt.=144.982544m. Speed=0.000000m/h.</desc>
<speed>0.000000</speed>
</trkpt>
<trkpt lat="55.660927" lon="26.571964">
<ele>144.978638</ele>
<time>2010-07-18T11:34:40Z</time>
<desc>lat.=55.660927, lon.=26.571964, Alt.=144.978638m. Speed=0.000000m/h.</desc>
<speed>0.000000</speed>
</trkpt>
<trkpt lat="55.660927" lon="26.571964">
<ele>144.974731</ele>
<time>2010-07-18T11:34:41Z</time>
<desc>lat.=55.660927, lon.=26.571964, Alt.=144.974731m. Speed=0.000000m/h.</desc>
<speed>0.000000</speed>
</trkpt>
<trkpt lat="55.660927" lon="26.571964">
<ele>144.970825</ele>
<time>2010-07-18T11:34:42Z</time>
<desc>lat.=55.660927, lon.=26.571964, Alt.=144.970825m. Speed=0.000000m/h.</desc>
<speed>0.000000</speed>
</trkpt>
<trkpt lat="55.660927" lon="26.571964">
<ele>144.966919</ele>
<time>2010-07-18T11:34:43Z</time>
<desc>lat.=55.660927, lon.=26.571964, Alt.=144.966919m. Speed=0.036000m/h.</desc>
<speed>0.010000</speed>
</trkpt>
<trkpt lat="55.660927" lon="26.571964">
<ele>144.963013</ele>
<time>2010-07-18T11:34:44Z</time>
<desc>lat.=55.660927, lon.=26.571964, Alt.=144.963013m. Speed=0.036000m/h.</desc>
<speed>0.010000</speed>
</trkpt>
<trkpt lat="55.660927" lon="26.571964">
<ele>144.959106</ele>
<time>2010-07-18T11:34:45Z</time>
<desc>lat.=55.660927, lon.=26.571964, Alt.=144.959106m. Speed=0.000000m/h.</desc>
<speed>0.000000</speed>
</trkpt>
<trkpt lat="55.660927" lon="26.571964">
<ele>144.955200</ele>
<time>2010-07-18T11:34:46Z</time>
<desc>lat.=55.660927, lon.=26.571964, Alt.=144.955200m. Speed=0.036000m/h.</desc>
<speed>0.010000</speed>
</trkpt>
<trkpt lat="55.660927" lon="26.571964">
<ele>144.955200</ele>
<time>2010-07-18T11:34:47Z</time>
<desc>lat.=55.660927, lon.=26.571964, Alt.=144.955200m. Speed=0.000000m/h.</desc>
<speed>0.000000</speed>
</trkpt>
<trkpt lat="55.660927" lon="26.571964">
<ele>144.951294</ele>
<time>2010-07-18T11:34:48Z</time>
<desc>lat.=55.660927, lon.=26.571964, Alt.=144.951294m. Speed=0.000000m/h.</desc>
<speed>0.000000</speed>
</trkpt>
<trkpt lat="55.660927" lon="26.571966">
<ele>144.947388</ele>
<time>2010-07-18T11:34:49Z</time>
<desc>lat.=55.660927, lon.=26.571966, Alt.=144.947388m. Speed=0.036000m/h.</desc>
<speed>0.010000</speed>
</trkpt>
<trkpt lat="55.660927" lon="26.571966">
<ele>144.943481</ele>
<time>2010-07-18T11:34:50Z</time>
<desc>lat.=55.660927, lon.=26.571966, Alt.=144.943481m. Speed=0.000000m/h.</desc>
<speed>0.000000</speed>
</trkpt>
<trkpt lat="55.660927" lon="26.571966">
<ele>144.943481</ele>
<time>2010-07-18T11:34:51Z</time>
<desc>lat.=55.660927, lon.=26.571966, Alt.=144.943481m. Speed=0.000000m/h.</desc>
<speed>0.000000</speed>
</trkpt>
<trkpt lat="55.660927" lon="26.571966">
<ele>144.939575</ele>
<time>2010-07-18T11:34:52Z</time>
<desc>lat.=55.660927, lon.=26.571966, Alt.=144.939575m. Speed=0.000000m/h.</desc>
<speed>0.000000</speed>
</trkpt>
<trkpt lat="55.660927" lon="26.571966">
<ele>144.935669</ele>
<time>2010-07-18T11:34:53Z</time>
<desc>lat.=55.660927, lon.=26.571966, Alt.=144.935669m. Speed=0.000000m/h.</desc>
<speed>0.000000</speed>
</trkpt>
<trkpt lat="55.660927" lon="26.571966">
<ele>144.931763</ele>
<time>2010-07-18T11:34:54Z</time>
<desc>lat.=55.660927, lon.=26.571966, Alt.=144.931763m. Speed=0.000000m/h.</desc>
<speed>0.000000</speed>
</trkpt>
<trkpt lat="55.660927" lon="26.571966">
<ele>144.927856</ele>
<time>2010-07-18T11:34:55Z</time>
<desc>lat.=55.660927, lon.=26.571966, Alt.=144.927856m. Speed=0.000000m/h.</desc>
<speed>0.000000</speed>
</trkpt>
<trkpt lat="55.660927" lon="26.571966">
<ele>144.923950</ele>
<time>2010-07-18T11:34:56Z</time>
<desc>lat.=55.660927, lon.=26.571966, Alt.=144.923950m. Speed=0.000000m/h.</desc>
<speed>0.000000</speed>
</trkpt>
<trkpt lat="55.660927" lon="26.571964">
<ele>144.920044</ele>
<time>2010-07-18T11:34:57Z</time>
<desc>lat.=55.660927, lon.=26.571964, Alt.=144.920044m. Speed=0.000000m/h.</desc>
<speed>0.000000</speed>
</trkpt>
<trkpt lat="55.660927" lon="26.571966">
<ele>144.916138</ele>
<time>2010-07-18T11:34:58Z</time>
<desc>lat.=55.660927, lon.=26.571966, Alt.=144.916138m. Speed=0.000000m/h.</desc>
<speed>0.000000</speed>
</trkpt>
<trkpt lat="55.660927" lon="26.571966">
<ele>144.912231</ele>
<time>2010-07-18T11:34:59Z</time>
<desc>lat.=55.660927, lon.=26.571966, Alt.=144.912231m. Speed=0.000000m/h.</desc>
<speed>0.000000</speed>
</trkpt>
<trkpt lat="55.660927" lon="26.571966">
<ele>144.908325</ele>
<time>2010-07-18T11:35:00Z</time>
<desc>lat.=55.660927, lon.=26.571966, Alt.=144.908325m. Speed=0.036000m/h.</desc>
<speed>0.010000</speed>
</trkpt>
<trkpt lat="55.660927" lon="26.571966">
<ele>144.908325</ele>
<time>2010-07-18T11:35:01Z</time>
<desc>lat.=55.660927, lon.=26.571966, Alt.=144.908325m. Speed=0.036000m/h.</desc>
<speed>0.010000</speed>
</trkpt>
<trkpt lat="55.660927" lon="26.571966">
<ele>144.900513</ele>
<time>2010-07-18T11:35:02Z</time>
<desc>lat.=55.660927, lon.=26.571966, Alt.=144.900513m. Speed=0.000000m/h.</desc>
<speed>0.000000</speed>
</trkpt>
<trkpt lat="55.660927" lon="26.571966">
<ele>144.900513</ele>
<time>2010-07-18T11:35:03Z</time>
<desc>lat.=55.660927, lon.=26.571966, Alt.=144.900513m. Speed=0.000000m/h.</desc>
<speed>0.000000</speed>
</trkpt>
<trkpt lat="55.660927" lon="26.571966">
<ele>144.892700</ele>
<time>2010-07-18T11:35:04Z</time>
<desc>lat.=55.660927, lon.=26.571966, Alt.=144.892700m. Speed=0.000000m/h.</desc>
<speed>0.000000</speed>
</trkpt>
<trkpt lat="55.660927" lon="26.571966">
<ele>144.888794</ele>
<time>2010-07-18T11:35:05Z</time>
<desc>lat.=55.660927, lon.=26.571966, Alt.=144.888794m. Speed=0.000000m/h.</desc>
<speed>0.000000</speed>
</trkpt>
<trkpt lat="55.660927" lon="26.571966">
<ele>144.884888</ele>
<time>2010-07-18T11:35:06Z</time>
<desc>lat.=55.660927, lon.=26.571966, Alt.=144.884888m. Speed=0.000000m/h.</desc>
<speed>0.000000</speed>
</trkpt>
<trkpt lat="55.660927" lon="26.571966">
<ele>144.880981</ele>
<time>2010-07-18T11:35:07Z</time>
<desc>lat.=55.660927, lon.=26.571966, Alt.=144.880981m. Speed=0.000000m/h.</desc>
<speed>0.000000</speed>
</trkpt>
<trkpt lat="55.660927" lon="26.571966">
<ele>144.877075</ele>
<time>2010-07-18T11:35:08Z</time>
<desc>lat.=55.660927, lon.=26.571966, Alt.=144.877075m. Speed=0.000000m/h.</desc>
<speed>0.000000</speed>
</trkpt>
<trkpt lat="55.660927" lon="26.571966">
<ele>144.869263</ele>
<time>2010-07-18T11:35:09Z</time>
<desc>lat.=55.660927, lon.=26.571966, Alt.=144.869263m. Speed=0.000000m/h.</desc>
<speed>0.000000</speed>
</trkpt>
<trkpt lat="55.660927" lon="26.571966">
<ele>144.865356</ele>
<time>2010-07-18T11:35:10Z</time>
<desc>lat.=55.660927, lon.=26.571966, Alt.=144.865356m. Speed=0.000000m/h.</desc>
<speed>0.000000</speed>
</trkpt>
<trkpt lat="55.660927" lon="26.571966">
<ele>144.861450</ele>
<time>2010-07-18T11:35:11Z</time>
<desc>lat.=55.660927, lon.=26.571966, Alt.=144.861450m. Speed=0.000000m/h.</desc>
<speed>0.000000</speed>
</trkpt>
<trkpt lat="55.660927" lon="26.571966">
<ele>144.857544</ele>
<time>2010-07-18T11:35:12Z</time>
<desc>lat.=55.660927, lon.=26.571966, Alt.=144.857544m. Speed=0.036000m/h.</desc>
<speed>0.010000</speed>
</trkpt>
<trkpt lat="55.660927" lon="26.571966">
<ele>144.853638</ele>
<time>2010-07-18T11:35:13Z</time>
<desc>lat.=55.660927, lon.=26.571966, Alt.=144.853638m. Speed=0.000000m/h.</desc>
<speed>0.000000</speed>
</trkpt>
<trkpt lat="55.660927" lon="26.571966">
<ele>144.849731</ele>
<time>2010-07-18T11:35:14Z</time>
<desc>lat.=55.660927, lon.=26.571966, Alt.=144.849731m. Speed=0.000000m/h.</desc>
<speed>0.000000</speed>
</trkpt>
<trkpt lat="55.660927" lon="26.571966">
<ele>144.845825</ele>
<time>2010-07-18T11:35:15Z</time>
<desc>lat.=55.660927, lon.=26.571966, Alt.=144.845825m. Speed=0.000000m/h.</desc>
<speed>0.000000</speed>
</trkpt>
<trkpt lat="55.660927" lon="26.571966">
<ele>144.838013</ele>
<time>2010-07-18T11:35:16Z</time>
<desc>lat.=55.660927, lon.=26.571966, Alt.=144.838013m. Speed=0.000000m/h.</desc>
<speed>0.000000</speed>
</trkpt>
<trkpt lat="55.660927" lon="26.571966">
<ele>144.834106</ele>
<time>2010-07-18T11:35:17Z</time>
<desc>lat.=55.660927, lon.=26.571966, Alt.=144.834106m. Speed=0.000000m/h.</desc>
<speed>0.000000</speed>
</trkpt>
<trkpt lat="55.660927" lon="26.571966">
<ele>144.830200</ele>
<time>2010-07-18T11:35:18Z</time>
<desc>lat.=55.660927, lon.=26.571966, Alt.=144.830200m. Speed=0.000000m/h.</desc>
<speed>0.000000</speed>
</trkpt>
<trkpt lat="55.660927" lon="26.571966">
<ele>144.826294</ele>
<time>2010-07-18T11:35:19Z</time>
<desc>lat.=55.660927, lon.=26.571966, Alt.=144.826294m. Speed=0.000000m/h.</desc>
<speed>0.000000</speed>
</trkpt>
<trkpt lat="55.660927" lon="26.571966">
<ele>144.822388</ele>
<time>2010-07-18T11:35:20Z</time>
<desc>lat.=55.660927, lon.=26.571966, Alt.=144.822388m. Speed=0.000000m/h.</desc>
<speed>0.000000</speed>
</trkpt>
<trkpt lat="55.660927" lon="26.571966">
<ele>144.818481</ele>
<time>2010-07-18T11:35:21Z</time>
<desc>lat.=55.660927, lon.=26.571966, Alt.=144.818481m. Speed=0.000000m/h.</desc>
<speed>0.000000</speed>
</trkpt>
<trkpt lat="55.660927" lon="26.571966">
<ele>144.814575</ele>
<time>2010-07-18T11:35:22Z</time>
<desc>lat.=55.660927, lon.=26.571966, Alt.=144.814575m. Speed=0.000000m/h.</desc>
<speed>0.000000</speed>
</trkpt>
<trkpt lat="55.660927" lon="26.571966">
<ele>144.806763</ele>
<time>2010-07-18T11:35:23Z</time>
<desc>lat.=55.660927, lon.=26.571966, Alt.=144.806763m. Speed=0.000000m/h.</desc>
<speed>0.000000</speed>
</trkpt>
<trkpt lat="55.660927" lon="26.571966">
<ele>144.802856</ele>
<time>2010-07-18T11:35:24Z</time>
<desc>lat.=55.660927, lon.=26.571966, Alt.=144.802856m. Speed=0.000000m/h.</desc>
<speed>0.000000</speed>
</trkpt>
<trkpt lat="55.660927" lon="26.571966">
<ele>144.798950</ele>
<time>2010-07-18T11:35:25Z</time>
<desc>lat.=55.660927, lon.=26.571966, Alt.=144.798950m. Speed=0.036000m/h.</desc>
<speed>0.010000</speed>
</trkpt>
<trkpt lat="55.660927" lon="26.571966">
<ele>144.795044</ele>
<time>2010-07-18T11:35:26Z</time>
<desc>lat.=55.660927, lon.=26.571966, Alt.=144.795044m. Speed=0.000000m/h.</desc>
<speed>0.000000</speed>
</trkpt>
<trkpt lat="55.660927" lon="26.571966">
<ele>144.791138</ele>
<time>2010-07-18T11:35:27Z</time>
<desc>lat.=55.660927, lon.=26.571966, Alt.=144.791138m. Speed=0.000000m/h.</desc>
<speed>0.000000</speed>
</trkpt>
<trkpt lat="55.660927" lon="26.571966">
<ele>144.787231</ele>
<time>2010-07-18T11:35:28Z</time>
<desc>lat.=55.660927, lon.=26.571966, Alt.=144.787231m. Speed=0.036000m/h.</desc>
<speed>0.010000</speed>
</trkpt>
<trkpt lat="55.660927" lon="26.571966">
<ele>144.779419</ele>
<time>2010-07-18T11:35:29Z</time>
<desc>lat.=55.660927, lon.=26.571966, Alt.=144.779419m. Speed=0.000000m/h.</desc>
<speed>0.000000</speed>
</trkpt>
<trkpt lat="55.660927" lon="26.571966">
<ele>144.779419</ele>
<time>2010-07-18T11:35:30Z</time>
<desc>lat.=55.660927, lon.=26.571966, Alt.=144.779419m. Speed=0.036000m/h.</desc>
<speed>0.010000</speed>
</trkpt>
<trkpt lat="55.660927" lon="26.571966">
<ele>144.775513</ele>
<time>2010-07-18T11:35:31Z</time>
<desc>lat.=55.660927, lon.=26.571966, Alt.=144.775513m. Speed=0.036000m/h.</desc>
<speed>0.010000</speed>
</trkpt>
<trkpt lat="55.660927" lon="26.571966">
<ele>144.767700</ele>
<time>2010-07-18T11:35:32Z</time>
<desc>lat.=55.660927, lon.=26.571966, Alt.=144.767700m. Speed=0.000000m/h.</desc>
<speed>0.000000</speed>
</trkpt>
<trkpt lat="55.660927" lon="26.571966">
<ele>144.767700</ele>
<time>2010-07-18T11:35:33Z</time>
<desc>lat.=55.660927, lon.=26.571966, Alt.=144.767700m. Speed=0.000000m/h.</desc>
<speed>0.000000</speed>
</trkpt>
<trkpt lat="55.660927" lon="26.571966">
<ele>144.763794</ele>
<time>2010-07-18T11:35:34Z</time>
<desc>lat.=55.660927, lon.=26.571966, Alt.=144.763794m. Speed=0.000000m/h.</desc>
<speed>0.000000</speed>
</trkpt>
<trkpt lat="55.660927" lon="26.571966">
<ele>144.763794</ele>
<time>2010-07-18T11:35:35Z</time>
<desc>lat.=55.660927, lon.=26.571966, Alt.=144.763794m. Speed=0.036000m/h.</desc>
<speed>0.010000</speed>
</trkpt>
<trkpt lat="55.660927" lon="26.571966">
<ele>144.759888</ele>
<time>2010-07-18T11:35:36Z</time>
<desc>lat.=55.660927, lon.=26.571966, Alt.=144.759888m. Speed=0.000000m/h.</desc>
<speed>0.000000</speed>
</trkpt>
<trkpt lat="55.660927" lon="26.571966">
<ele>144.755981</ele>
<time>2010-07-18T11:35:37Z</time>
<desc>lat.=55.660927, lon.=26.571966, Alt.=144.755981m. Speed=0.000000m/h.</desc>
<speed>0.000000</speed>
</trkpt>
<trkpt lat="55.660927" lon="26.571966">
<ele>144.752075</ele>
<time>2010-07-18T11:35:38Z</time>
<desc>lat.=55.660927, lon.=26.571966, Alt.=144.752075m. Speed=0.000000m/h.</desc>
<speed>0.000000</speed>
</trkpt>
<trkpt lat="55.660927" lon="26.571966">
<ele>144.744263</ele>
<time>2010-07-18T11:35:39Z</time>
<desc>lat.=55.660927, lon.=26.571966, Alt.=144.744263m. Speed=0.036000m/h.</desc>
<speed>0.010000</speed>
</trkpt>
<trkpt lat="55.660927" lon="26.571966">
<ele>144.740356</ele>
<time>2010-07-18T11:35:40Z</time>
<desc>lat.=55.660927, lon.=26.571966, Alt.=144.740356m. Speed=0.000000m/h.</desc>
<speed>0.000000</speed>
</trkpt>
<trkpt lat="55.660927" lon="26.571966">
<ele>144.736450</ele>
<time>2010-07-18T11:35:41Z</time>
<desc>lat.=55.660927, lon.=26.571966, Alt.=144.736450m. Speed=0.036000m/h.</desc>
<speed>0.010000</speed>
</trkpt>
<trkpt lat="55.660927" lon="26.571966">
<ele>144.732544</ele>
<time>2010-07-18T11:35:42Z</time>
<desc>lat.=55.660927, lon.=26.571966, Alt.=144.732544m. Speed=0.000000m/h.</desc>
<speed>0.000000</speed>
</trkpt>
<trkpt lat="55.660927" lon="26.571966">
<ele>144.724731</ele>
<time>2010-07-18T11:35:43Z</time>
<desc>lat.=55.660927, lon.=26.571966, Alt.=144.724731m. Speed=0.000000m/h.</desc>
<speed>0.000000</speed>
</trkpt>
<trkpt lat="55.660927" lon="26.571968">
<ele>144.720825</ele>
<time>2010-07-18T11:35:44Z</time>
<desc>lat.=55.660927, lon.=26.571968, Alt.=144.720825m. Speed=0.036000m/h.</desc>
<speed>0.010000</speed>
</trkpt>
<trkpt lat="55.660927" lon="26.571968">
<ele>144.713013</ele>
<time>2010-07-18T11:35:45Z</time>
<desc>lat.=55.660927, lon.=26.571968, Alt.=144.713013m. Speed=0.072000m/h.</desc>
<speed>0.020000</speed>
</trkpt>
<trkpt lat="55.660927" lon="26.571968">
<ele>144.709106</ele>
<time>2010-07-18T11:35:46Z</time>
<desc>lat.=55.660927, lon.=26.571968, Alt.=144.709106m. Speed=0.000000m/h.</desc>
<speed>0.000000</speed>
</trkpt>
<trkpt lat="55.660927" lon="26.571968">
<ele>144.701294</ele>
<time>2010-07-18T11:35:47Z</time>
<desc>lat.=55.660927, lon.=26.571968, Alt.=144.701294m. Speed=0.000000m/h.</desc>
<speed>0.000000</speed>
</trkpt>
<trkpt lat="55.660927" lon="26.571968">
<ele>144.693481</ele>
<time>2010-07-18T11:35:48Z</time>
<desc>lat.=55.660927, lon.=26.571968, Alt.=144.693481m. Speed=0.036000m/h.</desc>
<speed>0.010000</speed>
</trkpt>
<trkpt lat="55.660927" lon="26.571968">
<ele>144.689575</ele>
<time>2010-07-18T11:35:49Z</time>
<desc>lat.=55.660927, lon.=26.571968, Alt.=144.689575m. Speed=0.000000m/h.</desc>
<speed>0.000000</speed>
</trkpt>
<trkpt lat="55.660927" lon="26.571968">
<ele>144.681763</ele>
<time>2010-07-18T11:35:50Z</time>
<desc>lat.=55.660927, lon.=26.571968, Alt.=144.681763m. Speed=0.036000m/h.</desc>
<speed>0.010000</speed>
</trkpt>
<trkpt lat="55.660927" lon="26.571968">
<ele>144.677856</ele>
<time>2010-07-18T11:35:51Z</time>
<desc>lat.=55.660927, lon.=26.571968, Alt.=144.677856m. Speed=0.000000m/h.</desc>
<speed>0.000000</speed>
</trkpt>
<trkpt lat="55.660927" lon="26.571968">
<ele>144.673950</ele>
<time>2010-07-18T11:35:52Z</time>
<desc>lat.=55.660927, lon.=26.571968, Alt.=144.673950m. Speed=0.000000m/h.</desc>
<speed>0.000000</speed>
</trkpt>
<trkpt lat="55.660927" lon="26.571968">
<ele>144.666138</ele>
<time>2010-07-18T11:35:53Z</time>
<desc>lat.=55.660927, lon.=26.571968, Alt.=144.666138m. Speed=0.000000m/h.</desc>
<speed>0.000000</speed>
</trkpt>
<trkpt lat="55.660927" lon="26.571968">
<ele>144.658325</ele>
<time>2010-07-18T11:35:54Z</time>
<desc>lat.=55.660927, lon.=26.571968, Alt.=144.658325m. Speed=0.000000m/h.</desc>
<speed>0.000000</speed>
</trkpt>
<trkpt lat="55.660927" lon="26.571968">
<ele>144.654419</ele>
<time>2010-07-18T11:35:55Z</time>
<desc>lat.=55.660927, lon.=26.571968, Alt.=144.654419m. Speed=0.000000m/h.</desc>
<speed>0.000000</speed>
</trkpt>
<trkpt lat="55.660927" lon="26.571968">
<ele>144.650513</ele>
<time>2010-07-18T11:35:56Z</time>
<desc>lat.=55.660927, lon.=26.571968, Alt.=144.650513m. Speed=0.000000m/h.</desc>
<speed>0.000000</speed>
</trkpt>
<trkpt lat="55.660927" lon="26.571968">
<ele>144.646606</ele>
<time>2010-07-18T11:35:57Z</time>
<desc>lat.=55.660927, lon.=26.571968, Alt.=144.646606m. Speed=0.000000m/h.</desc>
<speed>0.000000</speed>
</trkpt>
<trkpt lat="55.660927" lon="26.571968">
<ele>144.642700</ele>
<time>2010-07-18T11:35:58Z</time>
<desc>lat.=55.660927, lon.=26.571968, Alt.=144.642700m. Speed=0.036000m/h.</desc>
<speed>0.010000</speed>
</trkpt>
<trkpt lat="55.660927" lon="26.571968">
<ele>144.638794</ele>
<time>2010-07-18T11:35:59Z</time>
<desc>lat.=55.660927, lon.=26.571968, Alt.=144.638794m. Speed=0.000000m/h.</desc>
<speed>0.000000</speed>
</trkpt>
<trkpt lat="55.660927" lon="26.571968">
<ele>144.634888</ele>
<time>2010-07-18T11:36:00Z</time>
<desc>lat.=55.660927, lon.=26.571968, Alt.=144.634888m. Speed=0.036000m/h.</desc>
<speed>0.010000</speed>
</trkpt>
<trkpt lat="55.660927" lon="26.571968">
<ele>144.630981</ele>
<time>2010-07-18T11:36:01Z</time>
<desc>lat.=55.660927, lon.=26.571968, Alt.=144.630981m. Speed=0.036000m/h.</desc>
<speed>0.010000</speed>
</trkpt>
<trkpt lat="55.660927" lon="26.571968">
<ele>144.627075</ele>
<time>2010-07-18T11:36:02Z</time>
<desc>lat.=55.660927, lon.=26.571968, Alt.=144.627075m. Speed=0.000000m/h.</desc>
<speed>0.000000</speed>
</trkpt>
<trkpt lat="55.660927" lon="26.571968">
<ele>144.619263</ele>
<time>2010-07-18T11:36:03Z</time>
<desc>lat.=55.660927, lon.=26.571968, Alt.=144.619263m. Speed=0.036000m/h.</desc>
<speed>0.010000</speed>
</trkpt>
<trkpt lat="55.660927" lon="26.571968">
<ele>144.619263</ele>
<time>2010-07-18T11:36:04Z</time>
<desc>lat.=55.660927, lon.=26.571968, Alt.=144.619263m. Speed=0.000000m/h.</desc>
<speed>0.000000</speed>
</trkpt>
<trkpt lat="55.660927" lon="26.571968">
<ele>144.619263</ele>
<time>2010-07-18T11:36:05Z</time>
<desc>lat.=55.660927, lon.=26.571968, Alt.=144.619263m. Speed=0.000000m/h.</desc>
<speed>0.000000</speed>
</trkpt>
<trkpt lat="55.660927" lon="26.571968">
<ele>144.615356</ele>
<time>2010-07-18T11:36:06Z</time>
<desc>lat.=55.660927, lon.=26.571968, Alt.=144.615356m. Speed=0.000000m/h.</desc>
<speed>0.000000</speed>
</trkpt>
<trkpt lat="55.660927" lon="26.571968">
<ele>144.615356</ele>
<time>2010-07-18T11:36:07Z</time>
<desc>lat.=55.660927, lon.=26.571968, Alt.=144.615356m. Speed=0.000000m/h.</desc>
<speed>0.000000</speed>
</trkpt>
<trkpt lat="55.660927" lon="26.571968">
<ele>144.611450</ele>
<time>2010-07-18T11:36:08Z</time>
<desc>lat.=55.660927, lon.=26.571968, Alt.=144.611450m. Speed=0.000000m/h.</desc>
<speed>0.000000</speed>
</trkpt>
<trkpt lat="55.660927" lon="26.571968">
<ele>144.611450</ele>
<time>2010-07-18T11:36:09Z</time>
<desc>lat.=55.660927, lon.=26.571968, Alt.=144.611450m. Speed=0.000000m/h.</desc>
<speed>0.000000</speed>
</trkpt>
<trkpt lat="55.660927" lon="26.571968">
<ele>144.611450</ele>
<time>2010-07-18T11:36:10Z</time>
<desc>lat.=55.660927, lon.=26.571968, Alt.=144.611450m. Speed=0.036000m/h.</desc>
<speed>0.010000</speed>
</trkpt>
<trkpt lat="55.660927" lon="26.571968">
<ele>144.611450</ele>
<time>2010-07-18T11:36:11Z</time>
<desc>lat.=55.660927, lon.=26.571968, Alt.=144.611450m. Speed=0.036000m/h.</desc>
<speed>0.010000</speed>
</trkpt>
<trkpt lat="55.660927" lon="26.571968">
<ele>144.611450</ele>
<time>2010-07-18T11:36:12Z</time>
<desc>lat.=55.660927, lon.=26.571968, Alt.=144.611450m. Speed=0.000000m/h.</desc>
<speed>0.000000</speed>
</trkpt>
<trkpt lat="55.660927" lon="26.571968">
<ele>144.611450</ele>
<time>2010-07-18T11:36:13Z</time>
<desc>lat.=55.660927, lon.=26.571968, Alt.=144.611450m. Speed=0.036000m/h.</desc>
<speed>0.010000</speed>
</trkpt>
<trkpt lat="55.660927" lon="26.571968">
<ele>144.611450</ele>
<time>2010-07-18T11:36:14Z</time>
<desc>lat.=55.660927, lon.=26.571968, Alt.=144.611450m. Speed=0.036000m/h.</desc>
<speed>0.010000</speed>
</trkpt>
<trkpt lat="55.660927" lon="26.571968">
<ele>144.611450</ele>
<time>2010-07-18T11:36:15Z</time>
<desc>lat.=55.660927, lon.=26.571968, Alt.=144.611450m. Speed=0.000000m/h.</desc>
<speed>0.000000</speed>
</trkpt>
<trkpt lat="55.660927" lon="26.571968">
<ele>144.607544</ele>
<time>2010-07-18T11:36:16Z</time>
<desc>lat.=55.660927, lon.=26.571968, Alt.=144.607544m. Speed=0.000000m/h.</desc>
<speed>0.000000</speed>
</trkpt>
<trkpt lat="55.660927" lon="26.571968">
<ele>144.607544</ele>
<time>2010-07-18T11:36:17Z</time>
<desc>lat.=55.660927, lon.=26.571968, Alt.=144.607544m. Speed=0.000000m/h.</desc>
<speed>0.000000</speed>
</trkpt>
<trkpt lat="55.660927" lon="26.571968">
<ele>144.603638</ele>
<time>2010-07-18T11:36:18Z</time>
<desc>lat.=55.660927, lon.=26.571968, Alt.=144.603638m. Speed=0.000000m/h.</desc>
<speed>0.000000</speed>
</trkpt>
<trkpt lat="55.660927" lon="26.571968">
<ele>144.603638</ele>
<time>2010-07-18T11:36:19Z</time>
<desc>lat.=55.660927, lon.=26.571968, Alt.=144.603638m. Speed=0.000000m/h.</desc>
<speed>0.000000</speed>
</trkpt>
<trkpt lat="55.660927" lon="26.571968">
<ele>144.603638</ele>
<time>2010-07-18T11:36:20Z</time>
<desc>lat.=55.660927, lon.=26.571968, Alt.=144.603638m. Speed=0.000000m/h.</desc>
<speed>0.000000</speed>
</trkpt>
<trkpt lat="55.660927" lon="26.571968">
<ele>144.599731</ele>
<time>2010-07-18T11:36:21Z</time>
<desc>lat.=55.660927, lon.=26.571968, Alt.=144.599731m. Speed=0.000000m/h.</desc>
<speed>0.000000</speed>
</trkpt>
<trkpt lat="55.660927" lon="26.571968">
<ele>144.599731</ele>
<time>2010-07-18T11:36:22Z</time>
<desc>lat.=55.660927, lon.=26.571968, Alt.=144.599731m. Speed=0.000000m/h.</desc>
<speed>0.000000</speed>
</trkpt>
<trkpt lat="55.660927" lon="26.571968">
<ele>144.595825</ele>
<time>2010-07-18T11:36:23Z</time>
<desc>lat.=55.660927, lon.=26.571968, Alt.=144.595825m. Speed=0.000000m/h.</desc>
<speed>0.000000</speed>
</trkpt>
<trkpt lat="55.660927" lon="26.571968">
<ele>144.595825</ele>
<time>2010-07-18T11:36:24Z</time>
<desc>lat.=55.660927, lon.=26.571968, Alt.=144.595825m. Speed=0.000000m/h.</desc>
<speed>0.000000</speed>
</trkpt>
<trkpt lat="55.660927" lon="26.571968">
<ele>144.591919</ele>
<time>2010-07-18T11:36:25Z</time>
<desc>lat.=55.660927, lon.=26.571968, Alt.=144.591919m. Speed=0.072000m/h.</desc>
<speed>0.020000</speed>
</trkpt>
<trkpt lat="55.660927" lon="26.571968">
<ele>144.591919</ele>
<time>2010-07-18T11:36:26Z</time>
<desc>lat.=55.660927, lon.=26.571968, Alt.=144.591919m. Speed=0.000000m/h.</desc>
<speed>0.000000</speed>
</trkpt>
<trkpt lat="55.660927" lon="26.571968">
<ele>144.588013</ele>
<time>2010-07-18T11:36:27Z</time>
<desc>lat.=55.660927, lon.=26.571968, Alt.=144.588013m. Speed=0.000000m/h.</desc>
<speed>0.000000</speed>
</trkpt>
<trkpt lat="55.660927" lon="26.571968">
<ele>144.588013</ele>
<time>2010-07-18T11:36:28Z</time>
<desc>lat.=55.660927, lon.=26.571968, Alt.=144.588013m. Speed=0.000000m/h.</desc>
<speed>0.000000</speed>
</trkpt>
<trkpt lat="55.660927" lon="26.571968">
<ele>144.584106</ele>
<time>2010-07-18T11:36:29Z</time>
<desc>lat.=55.660927, lon.=26.571968, Alt.=144.584106m. Speed=0.000000m/h.</desc>
<speed>0.000000</speed>
</trkpt>
<trkpt lat="55.660927" lon="26.571968">
<ele>144.580200</ele>
<time>2010-07-18T11:36:30Z</time>
<desc>lat.=55.660927, lon.=26.571968, Alt.=144.580200m. Speed=0.000000m/h.</desc>
<speed>0.000000</speed>
</trkpt>
<trkpt lat="55.660927" lon="26.571968">
<ele>144.580200</ele>
<time>2010-07-18T11:36:31Z</time>
<desc>lat.=55.660927, lon.=26.571968, Alt.=144.580200m. Speed=0.000000m/h.</desc>
<speed>0.000000</speed>
</trkpt>
<trkpt lat="55.660927" lon="26.571968">
<ele>144.576294</ele>
<time>2010-07-18T11:36:32Z</time>
<desc>lat.=55.660927, lon.=26.571968, Alt.=144.576294m. Speed=0.036000m/h.</desc>
<speed>0.010000</speed>
</trkpt>
<trkpt lat="55.660927" lon="26.571968">
<ele>144.576294</ele>
<time>2010-07-18T11:36:33Z</time>
<desc>lat.=55.660927, lon.=26.571968, Alt.=144.576294m. Speed=0.036000m/h.</desc>
<speed>0.010000</speed>
</trkpt>
<trkpt lat="55.660927" lon="26.571968">
<ele>144.572388</ele>
<time>2010-07-18T11:36:34Z</time>
<desc>lat.=55.660927, lon.=26.571968, Alt.=144.572388m. Speed=0.036000m/h.</desc>
<speed>0.010000</speed>
</trkpt>
<trkpt lat="55.660927" lon="26.571968">
<ele>144.572388</ele>
<time>2010-07-18T11:36:35Z</time>
<desc>lat.=55.660927, lon.=26.571968, Alt.=144.572388m. Speed=0.036000m/h.</desc>
<speed>0.010000</speed>
</trkpt>
<trkpt lat="55.660927" lon="26.571968">
<ele>144.572388</ele>
<time>2010-07-18T11:36:36Z</time>
<desc>lat.=55.660927, lon.=26.571968, Alt.=144.572388m. Speed=0.036000m/h.</desc>
<speed>0.010000</speed>
</trkpt>
<trkpt lat="55.660927" lon="26.571968">
<ele>144.568481</ele>
<time>2010-07-18T11:36:37Z</time>
<desc>lat.=55.660927, lon.=26.571968, Alt.=144.568481m. Speed=0.000000m/h.</desc>
<speed>0.000000</speed>
</trkpt>
<trkpt lat="55.660927" lon="26.571968">
<ele>144.568481</ele>
<time>2010-07-18T11:36:38Z</time>
<desc>lat.=55.660927, lon.=26.571968, Alt.=144.568481m. Speed=0.072000m/h.</desc>
<speed>0.020000</speed>
</trkpt>
<trkpt lat="55.660927" lon="26.571968">
<ele>144.564575</ele>
<time>2010-07-18T11:36:39Z</time>
<desc>lat.=55.660927, lon.=26.571968, Alt.=144.564575m. Speed=0.144000m/h.</desc>
<speed>0.040000</speed>
</trkpt>
<trkpt lat="55.660927" lon="26.571968">
<ele>144.564575</ele>
<time>2010-07-18T11:36:40Z</time>
<desc>lat.=55.660927, lon.=26.571968, Alt.=144.564575m. Speed=0.432000m/h.</desc>
<speed>0.120000</speed>
</trkpt>
<trkpt lat="55.660927" lon="26.571968">
<ele>144.564575</ele>
<time>2010-07-18T11:36:41Z</time>
<desc>lat.=55.660927, lon.=26.571968, Alt.=144.564575m. Speed=0.576000m/h.</desc>
<speed>0.160000</speed>
</trkpt>
<trkpt lat="55.660927" lon="26.571968">
<ele>144.560669</ele>
<time>2010-07-18T11:36:42Z</time>
<desc>lat.=55.660927, lon.=26.571968, Alt.=144.560669m. Speed=0.144000m/h.</desc>
<speed>0.040000</speed>
</trkpt>
<trkpt lat="55.660927" lon="26.571968">
<ele>144.560669</ele>
<time>2010-07-18T11:36:43Z</time>
<desc>lat.=55.660927, lon.=26.571968, Alt.=144.560669m. Speed=0.180000m/h.</desc>
<speed>0.050000</speed>
</trkpt>
<trkpt lat="55.660927" lon="26.571968">
<ele>144.564575</ele>
<time>2010-07-18T11:36:44Z</time>
<desc>lat.=55.660927, lon.=26.571968, Alt.=144.564575m. Speed=0.108000m/h.</desc>
<speed>0.030000</speed>
</trkpt>
<trkpt lat="55.660927" lon="26.571968">
<ele>144.560669</ele>
<time>2010-07-18T11:36:45Z</time>
<desc>lat.=55.660927, lon.=26.571968, Alt.=144.560669m. Speed=0.036000m/h.</desc>
<speed>0.010000</speed>
</trkpt>
<trkpt lat="55.660927" lon="26.571968">
<ele>144.560669</ele>
<time>2010-07-18T11:36:46Z</time>
<desc>lat.=55.660927, lon.=26.571968, Alt.=144.560669m. Speed=0.036000m/h.</desc>
<speed>0.010000</speed>
</trkpt>
<trkpt lat="55.660927" lon="26.571968">
<ele>144.560669</ele>
<time>2010-07-18T11:36:47Z</time>
<desc>lat.=55.660927, lon.=26.571968, Alt.=144.560669m. Speed=0.036000m/h.</desc>
<speed>0.010000</speed>
</trkpt>
<trkpt lat="55.660927" lon="26.571968">
<ele>144.560669</ele>
<time>2010-07-18T11:36:48Z</time>
<desc>lat.=55.660927, lon.=26.571968, Alt.=144.560669m. Speed=0.036000m/h.</desc>
<speed>0.010000</speed>
</trkpt>
<trkpt lat="55.660927" lon="26.571968">
<ele>144.560669</ele>
<time>2010-07-18T11:36:49Z</time>
<desc>lat.=55.660927, lon.=26.571968, Alt.=144.560669m. Speed=0.000000m/h.</desc>
<speed>0.000000</speed>
</trkpt>
<trkpt lat="55.660927" lon="26.571968">
<ele>144.560669</ele>
<time>2010-07-18T11:36:50Z</time>
<desc>lat.=55.660927, lon.=26.571968, Alt.=144.560669m. Speed=0.036000m/h.</desc>
<speed>0.010000</speed>
</trkpt>
<trkpt lat="55.660927" lon="26.571968">
<ele>144.556763</ele>
<time>2010-07-18T11:36:51Z</time>
<desc>lat.=55.660927, lon.=26.571968, Alt.=144.556763m. Speed=0.036000m/h.</desc>
<speed>0.010000</speed>
</trkpt>
<trkpt lat="55.660927" lon="26.571968">
<ele>144.556763</ele>
<time>2010-07-18T11:36:52Z</time>
<desc>lat.=55.660927, lon.=26.571968, Alt.=144.556763m. Speed=0.000000m/h.</desc>
<speed>0.000000</speed>
</trkpt>
<trkpt lat="55.660927" lon="26.571968">
<ele>144.556763</ele>
<time>2010-07-18T11:36:53Z</time>
<desc>lat.=55.660927, lon.=26.571968, Alt.=144.556763m. Speed=0.036000m/h.</desc>
<speed>0.010000</speed>
</trkpt>
<trkpt lat="55.660927" lon="26.571968">
<ele>144.552856</ele>
<time>2010-07-18T11:36:54Z</time>
<desc>lat.=55.660927, lon.=26.571968, Alt.=144.552856m. Speed=0.000000m/h.</desc>
<speed>0.000000</speed>
</trkpt>
<trkpt lat="55.660927" lon="26.571968">
<ele>144.552856</ele>
<time>2010-07-18T11:36:55Z</time>
<desc>lat.=55.660927, lon.=26.571968, Alt.=144.552856m. Speed=0.036000m/h.</desc>
<speed>0.010000</speed>
</trkpt>
<trkpt lat="55.660927" lon="26.571968">
<ele>144.552856</ele>
<time>2010-07-18T11:36:56Z</time>
<desc>lat.=55.660927, lon.=26.571968, Alt.=144.552856m. Speed=0.036000m/h.</desc>
<speed>0.010000</speed>
</trkpt>
<trkpt lat="55.660927" lon="26.571968">
<ele>144.556763</ele>
<time>2010-07-18T11:36:57Z</time>
<desc>lat.=55.660927, lon.=26.571968, Alt.=144.556763m. Speed=0.036000m/h.</desc>
<speed>0.010000</speed>
</trkpt>
<trkpt lat="55.660927" lon="26.571968">
<ele>144.556763</ele>
<time>2010-07-18T11:36:58Z</time>
<desc>lat.=55.660927, lon.=26.571968, Alt.=144.556763m. Speed=0.036000m/h.</desc>
<speed>0.010000</speed>
</trkpt>
<trkpt lat="55.660927" lon="26.571968">
<ele>144.560669</ele>
<time>2010-07-18T11:36:59Z</time>
<desc>lat.=55.660927, lon.=26.571968, Alt.=144.560669m. Speed=0.000000m/h.</desc>
<speed>0.000000</speed>
</trkpt>
<trkpt lat="55.660927" lon="26.571968">
<ele>144.564575</ele>
<time>2010-07-18T11:37:00Z</time>
<desc>lat.=55.660927, lon.=26.571968, Alt.=144.564575m. Speed=0.000000m/h.</desc>
<speed>0.000000</speed>
</trkpt>
<trkpt lat="55.660927" lon="26.571968">
<ele>144.564575</ele>
<time>2010-07-18T11:37:01Z</time>
<desc>lat.=55.660927, lon.=26.571968, Alt.=144.564575m. Speed=0.000000m/h.</desc>
<speed>0.000000</speed>
</trkpt>
<trkpt lat="55.660923" lon="26.571968">
<ele>144.564575</ele>
<time>2010-07-18T11:37:02Z</time>
<desc>lat.=55.660923, lon.=26.571968, Alt.=144.564575m. Speed=0.036000m/h.</desc>
<speed>0.010000</speed>
</trkpt>
<trkpt lat="55.660923" lon="26.571968">
<ele>144.568481</ele>
<time>2010-07-18T11:37:03Z</time>
<desc>lat.=55.660923, lon.=26.571968, Alt.=144.568481m. Speed=0.000000m/h.</desc>
<speed>0.000000</speed>
</trkpt>
<trkpt lat="55.660923" lon="26.571968">
<ele>144.572388</ele>
<time>2010-07-18T11:37:04Z</time>
<desc>lat.=55.660923, lon.=26.571968, Alt.=144.572388m. Speed=0.144000m/h.</desc>
<speed>0.040000</speed>
</trkpt>
<trkpt lat="55.660923" lon="26.571968">
<ele>144.572388</ele>
<time>2010-07-18T11:37:05Z</time>
<desc>lat.=55.660923, lon.=26.571968, Alt.=144.572388m. Speed=0.036000m/h.</desc>
<speed>0.010000</speed>
</trkpt>
<trkpt lat="55.660923" lon="26.571968">
<ele>144.576294</ele>
<time>2010-07-18T11:37:06Z</time>
<desc>lat.=55.660923, lon.=26.571968, Alt.=144.576294m. Speed=0.036000m/h.</desc>
<speed>0.010000</speed>
</trkpt>
<trkpt lat="55.660923" lon="26.571968">
<ele>144.580200</ele>
<time>2010-07-18T11:37:07Z</time>
<desc>lat.=55.660923, lon.=26.571968, Alt.=144.580200m. Speed=0.072000m/h.</desc>
<speed>0.020000</speed>
</trkpt>
<trkpt lat="55.660923" lon="26.571968">
<ele>144.584106</ele>
<time>2010-07-18T11:37:08Z</time>
<desc>lat.=55.660923, lon.=26.571968, Alt.=144.584106m. Speed=0.108000m/h.</desc>
<speed>0.030000</speed>
</trkpt>
<trkpt lat="55.660923" lon="26.571968">
<ele>144.588013</ele>
<time>2010-07-18T11:37:09Z</time>
<desc>lat.=55.660923, lon.=26.571968, Alt.=144.588013m. Speed=0.396000m/h.</desc>
<speed>0.110000</speed>
</trkpt>
<trkpt lat="55.660923" lon="26.571968">
<ele>144.591919</ele>
<time>2010-07-18T11:37:10Z</time>
<desc>lat.=55.660923, lon.=26.571968, Alt.=144.591919m. Speed=0.720000m/h.</desc>
<speed>0.200000</speed>
</trkpt>
<trkpt lat="55.660923" lon="26.571968">
<ele>144.591919</ele>
<time>2010-07-18T11:37:11Z</time>
<desc>lat.=55.660923, lon.=26.571968, Alt.=144.591919m. Speed=0.072000m/h.</desc>
<speed>0.020000</speed>
</trkpt>
<trkpt lat="55.660923" lon="26.571968">
<ele>144.603638</ele>
<time>2010-07-18T11:37:12Z</time>
<desc>lat.=55.660923, lon.=26.571968, Alt.=144.603638m. Speed=0.216000m/h.</desc>
<speed>0.060000</speed>
</trkpt>
<trkpt lat="55.660923" lon="26.571968">
<ele>144.603638</ele>
<time>2010-07-18T11:37:13Z</time>
<desc>lat.=55.660923, lon.=26.571968, Alt.=144.603638m. Speed=0.000000m/h.</desc>
<speed>0.000000</speed>
</trkpt>
<trkpt lat="55.660923" lon="26.571968">
<ele>144.603638</ele>
<time>2010-07-18T11:37:14Z</time>
<desc>lat.=55.660923, lon.=26.571968, Alt.=144.603638m. Speed=0.000000m/h.</desc>
<speed>0.000000</speed>
</trkpt>
<trkpt lat="55.660923" lon="26.571968">
<ele>144.603638</ele>
<time>2010-07-18T11:37:15Z</time>
<desc>lat.=55.660923, lon.=26.571968, Alt.=144.603638m. Speed=0.000000m/h.</desc>
<speed>0.000000</speed>
</trkpt>
<trkpt lat="55.660923" lon="26.571968">
<ele>144.599731</ele>
<time>2010-07-18T11:37:16Z</time>
<desc>lat.=55.660923, lon.=26.571968, Alt.=144.599731m. Speed=0.000000m/h.</desc>
<speed>0.000000</speed>
</trkpt>
<trkpt lat="55.660923" lon="26.571968">
<ele>144.599731</ele>
<time>2010-07-18T11:37:17Z</time>
<desc>lat.=55.660923, lon.=26.571968, Alt.=144.599731m. Speed=0.000000m/h.</desc>
<speed>0.000000</speed>
</trkpt>
<trkpt lat="55.660923" lon="26.571968">
<ele>144.599731</ele>
<time>2010-07-18T11:37:18Z</time>
<desc>lat.=55.660923, lon.=26.571968, Alt.=144.599731m. Speed=0.036000m/h.</desc>
<speed>0.010000</speed>
</trkpt>
<trkpt lat="55.660923" lon="26.571968">
<ele>144.599731</ele>
<time>2010-07-18T11:37:19Z</time>
<desc>lat.=55.660923, lon.=26.571968, Alt.=144.599731m. Speed=0.216000m/h.</desc>
<speed>0.060000</speed>
</trkpt>
<trkpt lat="55.660923" lon="26.571968">
<ele>144.603638</ele>
<time>2010-07-18T11:37:20Z</time>
<desc>lat.=55.660923, lon.=26.571968, Alt.=144.603638m. Speed=0.072000m/h.</desc>
<speed>0.020000</speed>
</trkpt>
<trkpt lat="55.660923" lon="26.571968">
<ele>144.603638</ele>
<time>2010-07-18T11:37:21Z</time>
<desc>lat.=55.660923, lon.=26.571968, Alt.=144.603638m. Speed=0.072000m/h.</desc>
<speed>0.020000</speed>
</trkpt>
<trkpt lat="55.660923" lon="26.571968">
<ele>144.603638</ele>
<time>2010-07-18T11:37:22Z</time>
<desc>lat.=55.660923, lon.=26.571968, Alt.=144.603638m. Speed=0.072000m/h.</desc>
<speed>0.020000</speed>
</trkpt>
<trkpt lat="55.660923" lon="26.571968">
<ele>144.607544</ele>
<time>2010-07-18T11:37:23Z</time>
<desc>lat.=55.660923, lon.=26.571968, Alt.=144.607544m. Speed=0.036000m/h.</desc>
<speed>0.010000</speed>
</trkpt>
<trkpt lat="55.660923" lon="26.571968">
<ele>144.607544</ele>
<time>2010-07-18T11:37:24Z</time>
<desc>lat.=55.660923, lon.=26.571968, Alt.=144.607544m. Speed=0.036000m/h.</desc>
<speed>0.010000</speed>
</trkpt>
<trkpt lat="55.660923" lon="26.571968">
<ele>144.611450</ele>
<time>2010-07-18T11:37:25Z</time>
<desc>lat.=55.660923, lon.=26.571968, Alt.=144.611450m. Speed=0.000000m/h.</desc>
<speed>0.000000</speed>
</trkpt>
<trkpt lat="55.660923" lon="26.571968">
<ele>144.611450</ele>
<time>2010-07-18T11:37:26Z</time>
<desc>lat.=55.660923, lon.=26.571968, Alt.=144.611450m. Speed=0.036000m/h.</desc>
<speed>0.010000</speed>
</trkpt>
<trkpt lat="55.660923" lon="26.571968">
<ele>144.615356</ele>
<time>2010-07-18T11:37:27Z</time>
<desc>lat.=55.660923, lon.=26.571968, Alt.=144.615356m. Speed=0.072000m/h.</desc>
<speed>0.020000</speed>
</trkpt>
<trkpt lat="55.660923" lon="26.571968">
<ele>144.615356</ele>
<time>2010-07-18T11:37:28Z</time>
<desc>lat.=55.660923, lon.=26.571968, Alt.=144.615356m. Speed=0.108000m/h.</desc>
<speed>0.030000</speed>
</trkpt>
<trkpt lat="55.660923" lon="26.571968">
<ele>144.619263</ele>
<time>2010-07-18T11:37:29Z</time>
<desc>lat.=55.660923, lon.=26.571968, Alt.=144.619263m. Speed=0.108000m/h.</desc>
<speed>0.030000</speed>
</trkpt>
<trkpt lat="55.660923" lon="26.571968">
<ele>144.623169</ele>
<time>2010-07-18T11:37:30Z</time>
<desc>lat.=55.660923, lon.=26.571968, Alt.=144.623169m. Speed=0.036000m/h.</desc>
<speed>0.010000</speed>
</trkpt>
<trkpt lat="55.660923" lon="26.571968">
<ele>144.627075</ele>
<time>2010-07-18T11:37:31Z</time>
<desc>lat.=55.660923, lon.=26.571968, Alt.=144.627075m. Speed=0.072000m/h.</desc>
<speed>0.020000</speed>
</trkpt>
<trkpt lat="55.660923" lon="26.571968">
<ele>144.627075</ele>
<time>2010-07-18T11:37:32Z</time>
<desc>lat.=55.660923, lon.=26.571968, Alt.=144.627075m. Speed=0.072000m/h.</desc>
<speed>0.020000</speed>
</trkpt>
<trkpt lat="55.660923" lon="26.571968">
<ele>144.630981</ele>
<time>2010-07-18T11:37:33Z</time>
<desc>lat.=55.660923, lon.=26.571968, Alt.=144.630981m. Speed=0.144000m/h.</desc>
<speed>0.040000</speed>
</trkpt>
<trkpt lat="55.660923" lon="26.571968">
<ele>144.630981</ele>
<time>2010-07-18T11:37:34Z</time>
<desc>lat.=55.660923, lon.=26.571968, Alt.=144.630981m. Speed=0.072000m/h.</desc>
<speed>0.020000</speed>
</trkpt>
<trkpt lat="55.660923" lon="26.571968">
<ele>144.634888</ele>
<time>2010-07-18T11:37:35Z</time>
<desc>lat.=55.660923, lon.=26.571968, Alt.=144.634888m. Speed=0.036000m/h.</desc>
<speed>0.010000</speed>
</trkpt>
<trkpt lat="55.660923" lon="26.571968">
<ele>144.638794</ele>
<time>2010-07-18T11:37:36Z</time>
<desc>lat.=55.660923, lon.=26.571968, Alt.=144.638794m. Speed=0.108000m/h.</desc>
<speed>0.030000</speed>
</trkpt>
<trkpt lat="55.660923" lon="26.571968">
<ele>144.642700</ele>
<time>2010-07-18T11:37:37Z</time>
<desc>lat.=55.660923, lon.=26.571968, Alt.=144.642700m. Speed=0.072000m/h.</desc>
<speed>0.020000</speed>
</trkpt>
<trkpt lat="55.660923" lon="26.571968">
<ele>144.642700</ele>
<time>2010-07-18T11:37:38Z</time>
<desc>lat.=55.660923, lon.=26.571968, Alt.=144.642700m. Speed=0.036000m/h.</desc>
<speed>0.010000</speed>
</trkpt>
<trkpt lat="55.660923" lon="26.571968">
<ele>144.650513</ele>
<time>2010-07-18T11:37:39Z</time>
<desc>lat.=55.660923, lon.=26.571968, Alt.=144.650513m. Speed=0.000000m/h.</desc>
<speed>0.000000</speed>
</trkpt>
<trkpt lat="55.660923" lon="26.571968">
<ele>144.658325</ele>
<time>2010-07-18T11:37:40Z</time>
<desc>lat.=55.660923, lon.=26.571968, Alt.=144.658325m. Speed=0.036000m/h.</desc>
<speed>0.010000</speed>
</trkpt>
<trkpt lat="55.660923" lon="26.571968">
<ele>144.662231</ele>
<time>2010-07-18T11:37:41Z</time>
<desc>lat.=55.660923, lon.=26.571968, Alt.=144.662231m. Speed=0.036000m/h.</desc>
<speed>0.010000</speed>
</trkpt>
<trkpt lat="55.660923" lon="26.571968">
<ele>144.673950</ele>
<time>2010-07-18T11:37:42Z</time>
<desc>lat.=55.660923, lon.=26.571968, Alt.=144.673950m. Speed=0.072000m/h.</desc>
<speed>0.020000</speed>
</trkpt>
<trkpt lat="55.660923" lon="26.571968">
<ele>144.677856</ele>
<time>2010-07-18T11:37:43Z</time>
<desc>lat.=55.660923, lon.=26.571968, Alt.=144.677856m. Speed=0.072000m/h.</desc>
<speed>0.020000</speed>
</trkpt>
<trkpt lat="55.660923" lon="26.571968">
<ele>144.681763</ele>
<time>2010-07-18T11:37:44Z</time>
<desc>lat.=55.660923, lon.=26.571968, Alt.=144.681763m. Speed=0.072000m/h.</desc>
<speed>0.020000</speed>
</trkpt>
<trkpt lat="55.660923" lon="26.571968">
<ele>144.685669</ele>
<time>2010-07-18T11:37:45Z</time>
<desc>lat.=55.660923, lon.=26.571968, Alt.=144.685669m. Speed=0.180000m/h.</desc>
<speed>0.050000</speed>
</trkpt>
<trkpt lat="55.660923" lon="26.571968">
<ele>144.689575</ele>
<time>2010-07-18T11:37:46Z</time>
<desc>lat.=55.660923, lon.=26.571968, Alt.=144.689575m. Speed=0.072000m/h.</desc>
<speed>0.020000</speed>
</trkpt>
<trkpt lat="55.660923" lon="26.571968">
<ele>144.693481</ele>
<time>2010-07-18T11:37:47Z</time>
<desc>lat.=55.660923, lon.=26.571968, Alt.=144.693481m. Speed=0.108000m/h.</desc>
<speed>0.030000</speed>
</trkpt>
<trkpt lat="55.660923" lon="26.571968">
<ele>144.697388</ele>
<time>2010-07-18T11:37:48Z</time>
<desc>lat.=55.660923, lon.=26.571968, Alt.=144.697388m. Speed=0.072000m/h.</desc>
<speed>0.020000</speed>
</trkpt>
<trkpt lat="55.660923" lon="26.571968">
<ele>144.705200</ele>
<time>2010-07-18T11:37:49Z</time>
<desc>lat.=55.660923, lon.=26.571968, Alt.=144.705200m. Speed=0.072000m/h.</desc>
<speed>0.020000</speed>
</trkpt>
<trkpt lat="55.660923" lon="26.571968">
<ele>144.709106</ele>
<time>2010-07-18T11:37:50Z</time>
<desc>lat.=55.660923, lon.=26.571968, Alt.=144.709106m. Speed=0.000000m/h.</desc>
<speed>0.000000</speed>
</trkpt>
<trkpt lat="55.660923" lon="26.571968">
<ele>144.716919</ele>
<time>2010-07-18T11:37:51Z</time>
<desc>lat.=55.660923, lon.=26.571968, Alt.=144.716919m. Speed=0.036000m/h.</desc>
<speed>0.010000</speed>
</trkpt>
<trkpt lat="55.660923" lon="26.571968">
<ele>144.716919</ele>
<time>2010-07-18T11:37:52Z</time>
<desc>lat.=55.660923, lon.=26.571968, Alt.=144.716919m. Speed=0.000000m/h.</desc>
<speed>0.000000</speed>
</trkpt>
<trkpt lat="55.660923" lon="26.571968">
<ele>144.709106</ele>
<time>2010-07-18T11:37:53Z</time>
<desc>lat.=55.660923, lon.=26.571968, Alt.=144.709106m. Speed=0.000000m/h.</desc>
<speed>0.000000</speed>
</trkpt>
<trkpt lat="55.660923" lon="26.571968">
<ele>144.697388</ele>
<time>2010-07-18T11:37:54Z</time>
<desc>lat.=55.660923, lon.=26.571968, Alt.=144.697388m. Speed=0.144000m/h.</desc>
<speed>0.040000</speed>
</trkpt>
<trkpt lat="55.660923" lon="26.571968">
<ele>144.697388</ele>
<time>2010-07-18T11:37:55Z</time>
<desc>lat.=55.660923, lon.=26.571968, Alt.=144.697388m. Speed=0.288000m/h.</desc>
<speed>0.080000</speed>
</trkpt>
<trkpt lat="55.660923" lon="26.571968">
<ele>144.697388</ele>
<time>2010-07-18T11:37:56Z</time>
<desc>lat.=55.660923, lon.=26.571968, Alt.=144.697388m. Speed=0.036000m/h.</desc>
<speed>0.010000</speed>
</trkpt>
<trkpt lat="55.660923" lon="26.571968">
<ele>144.724731</ele>
<time>2010-07-18T11:37:57Z</time>
<desc>lat.=55.660923, lon.=26.571968, Alt.=144.724731m. Speed=0.288000m/h.</desc>
<speed>0.080000</speed>
</trkpt>
<trkpt lat="55.660923" lon="26.571968">
<ele>144.724731</ele>
<time>2010-07-18T11:37:58Z</time>
<desc>lat.=55.660923, lon.=26.571968, Alt.=144.724731m. Speed=0.108000m/h.</desc>
<speed>0.030000</speed>
</trkpt>
<trkpt lat="55.660923" lon="26.571968">
<ele>144.748169</ele>
<time>2010-07-18T11:37:59Z</time>
<desc>lat.=55.660923, lon.=26.571968, Alt.=144.748169m. Speed=0.036000m/h.</desc>
<speed>0.010000</speed>
</trkpt>
<trkpt lat="55.660923" lon="26.571968">
<ele>144.755981</ele>
<time>2010-07-18T11:38:00Z</time>
<desc>lat.=55.660923, lon.=26.571968, Alt.=144.755981m. Speed=0.072000m/h.</desc>
<speed>0.020000</speed>
</trkpt>
<trkpt lat="55.660923" lon="26.571968">
<ele>144.759888</ele>
<time>2010-07-18T11:38:01Z</time>
<desc>lat.=55.660923, lon.=26.571968, Alt.=144.759888m. Speed=0.036000m/h.</desc>
<speed>0.010000</speed>
</trkpt>
<trkpt lat="55.660923" lon="26.571968">
<ele>144.763794</ele>
<time>2010-07-18T11:38:02Z</time>
<desc>lat.=55.660923, lon.=26.571968, Alt.=144.763794m. Speed=0.072000m/h.</desc>
<speed>0.020000</speed>
</trkpt>
<trkpt lat="55.660923" lon="26.571968">
<ele>144.767700</ele>
<time>2010-07-18T11:38:03Z</time>
<desc>lat.=55.660923, lon.=26.571968, Alt.=144.767700m. Speed=0.108000m/h.</desc>
<speed>0.030000</speed>
</trkpt>
<trkpt lat="55.660923" lon="26.571968">
<ele>144.767700</ele>
<time>2010-07-18T11:38:04Z</time>
<desc>lat.=55.660923, lon.=26.571968, Alt.=144.767700m. Speed=0.072000m/h.</desc>
<speed>0.020000</speed>
</trkpt>
<trkpt lat="55.660923" lon="26.571968">
<ele>144.767700</ele>
<time>2010-07-18T11:38:05Z</time>
<desc>lat.=55.660923, lon.=26.571968, Alt.=144.767700m. Speed=0.144000m/h.</desc>
<speed>0.040000</speed>
</trkpt>
<trkpt lat="55.660923" lon="26.571966">
<ele>144.759888</ele>
<time>2010-07-18T11:38:06Z</time>
<desc>lat.=55.660923, lon.=26.571966, Alt.=144.759888m. Speed=0.252000m/h.</desc>
<speed>0.070000</speed>
</trkpt>
<trkpt lat="55.660923" lon="26.571966">
<ele>144.755981</ele>
<time>2010-07-18T11:38:07Z</time>
<desc>lat.=55.660923, lon.=26.571966, Alt.=144.755981m. Speed=0.108000m/h.</desc>
<speed>0.030000</speed>
</trkpt>
<trkpt lat="55.660923" lon="26.571966">
<ele>144.759888</ele>
<time>2010-07-18T11:38:08Z</time>
<desc>lat.=55.660923, lon.=26.571966, Alt.=144.759888m. Speed=0.252000m/h.</desc>
<speed>0.070000</speed>
</trkpt>
<trkpt lat="55.660923" lon="26.571966">
<ele>144.759888</ele>
<time>2010-07-18T11:38:09Z</time>
<desc>lat.=55.660923, lon.=26.571966, Alt.=144.759888m. Speed=0.144000m/h.</desc>
<speed>0.040000</speed>
</trkpt>
<trkpt lat="55.660923" lon="26.571966">
<ele>144.763794</ele>
<time>2010-07-18T11:38:10Z</time>
<desc>lat.=55.660923, lon.=26.571966, Alt.=144.763794m. Speed=0.036000m/h.</desc>
<speed>0.010000</speed>
</trkpt>
<trkpt lat="55.660923" lon="26.571966">
<ele>144.763794</ele>
<time>2010-07-18T11:38:11Z</time>
<desc>lat.=55.660923, lon.=26.571966, Alt.=144.763794m. Speed=0.180000m/h.</desc>
<speed>0.050000</speed>
</trkpt>
<trkpt lat="55.660923" lon="26.571966">
<ele>144.763794</ele>
<time>2010-07-18T11:38:12Z</time>
<desc>lat.=55.660923, lon.=26.571966, Alt.=144.763794m. Speed=0.036000m/h.</desc>
<speed>0.010000</speed>
</trkpt>
<trkpt lat="55.660923" lon="26.571966">
<ele>144.759888</ele>
<time>2010-07-18T11:38:13Z</time>
<desc>lat.=55.660923, lon.=26.571966, Alt.=144.759888m. Speed=0.000000m/h.</desc>
<speed>0.000000</speed>
</trkpt>
<trkpt lat="55.660923" lon="26.571966">
<ele>144.759888</ele>
<time>2010-07-18T11:38:14Z</time>
<desc>lat.=55.660923, lon.=26.571966, Alt.=144.759888m. Speed=0.036000m/h.</desc>
<speed>0.010000</speed>
</trkpt>
<trkpt lat="55.660923" lon="26.571966">
<ele>144.755981</ele>
<time>2010-07-18T11:38:15Z</time>
<desc>lat.=55.660923, lon.=26.571966, Alt.=144.755981m. Speed=0.000000m/h.</desc>
<speed>0.000000</speed>
</trkpt>
<trkpt lat="55.660923" lon="26.571966">
<ele>144.755981</ele>
<time>2010-07-18T11:38:16Z</time>
<desc>lat.=55.660923, lon.=26.571966, Alt.=144.755981m. Speed=0.036000m/h.</desc>
<speed>0.010000</speed>
</trkpt>
<trkpt lat="55.660923" lon="26.571966">
<ele>144.748169</ele>
<time>2010-07-18T11:38:17Z</time>
<desc>lat.=55.660923, lon.=26.571966, Alt.=144.748169m. Speed=0.180000m/h.</desc>
<speed>0.050000</speed>
</trkpt>
<trkpt lat="55.660923" lon="26.571966">
<ele>144.740356</ele>
<time>2010-07-18T11:38:18Z</time>
<desc>lat.=55.660923, lon.=26.571966, Alt.=144.740356m. Speed=0.036000m/h.</desc>
<speed>0.010000</speed>
</trkpt>
<trkpt lat="55.660923" lon="26.571966">
<ele>144.732544</ele>
<time>2010-07-18T11:38:19Z</time>
<desc>lat.=55.660923, lon.=26.571966, Alt.=144.732544m. Speed=0.036000m/h.</desc>
<speed>0.010000</speed>
</trkpt>
<trkpt lat="55.660923" lon="26.571966">
<ele>144.720825</ele>
<time>2010-07-18T11:38:20Z</time>
<desc>lat.=55.660923, lon.=26.571966, Alt.=144.720825m. Speed=0.000000m/h.</desc>
<speed>0.000000</speed>
</trkpt>
<trkpt lat="55.660923" lon="26.571966">
<ele>144.713013</ele>
<time>2010-07-18T11:38:21Z</time>
<desc>lat.=55.660923, lon.=26.571966, Alt.=144.713013m. Speed=0.000000m/h.</desc>
<speed>0.000000</speed>
</trkpt>
<trkpt lat="55.660923" lon="26.571966">
<ele>144.701294</ele>
<time>2010-07-18T11:38:22Z</time>
<desc>lat.=55.660923, lon.=26.571966, Alt.=144.701294m. Speed=0.000000m/h.</desc>
<speed>0.000000</speed>
</trkpt>
<trkpt lat="55.660923" lon="26.571966">
<ele>144.693481</ele>
<time>2010-07-18T11:38:23Z</time>
<desc>lat.=55.660923, lon.=26.571966, Alt.=144.693481m. Speed=0.036000m/h.</desc>
<speed>0.010000</speed>
</trkpt>
<trkpt lat="55.660923" lon="26.571966">
<ele>144.693481</ele>
<time>2010-07-18T11:38:24Z</time>
<desc>lat.=55.660923, lon.=26.571966, Alt.=144.693481m. Speed=0.000000m/h.</desc>
<speed>0.000000</speed>
</trkpt>
<trkpt lat="55.660923" lon="26.571966">
<ele>144.693481</ele>
<time>2010-07-18T11:38:25Z</time>
<desc>lat.=55.660923, lon.=26.571966, Alt.=144.693481m. Speed=0.036000m/h.</desc>
<speed>0.010000</speed>
</trkpt>
<trkpt lat="55.660923" lon="26.571966">
<ele>144.697388</ele>
<time>2010-07-18T11:38:26Z</time>
<desc>lat.=55.660923, lon.=26.571966, Alt.=144.697388m. Speed=0.036000m/h.</desc>
<speed>0.010000</speed>
</trkpt>
<trkpt lat="55.660923" lon="26.571966">
<ele>144.701294</ele>
<time>2010-07-18T11:38:27Z</time>
<desc>lat.=55.660923, lon.=26.571966, Alt.=144.701294m. Speed=0.036000m/h.</desc>
<speed>0.010000</speed>
</trkpt>
<trkpt lat="55.660923" lon="26.571966">
<ele>144.709106</ele>
<time>2010-07-18T11:38:28Z</time>
<desc>lat.=55.660923, lon.=26.571966, Alt.=144.709106m. Speed=0.000000m/h.</desc>
<speed>0.000000</speed>
</trkpt>
<trkpt lat="55.660923" lon="26.571968">
<ele>144.713013</ele>
<time>2010-07-18T11:38:29Z</time>
<desc>lat.=55.660923, lon.=26.571968, Alt.=144.713013m. Speed=0.000000m/h.</desc>
<speed>0.000000</speed>
</trkpt>
<trkpt lat="55.660923" lon="26.571968">
<ele>144.720825</ele>
<time>2010-07-18T11:38:30Z</time>
<desc>lat.=55.660923, lon.=26.571968, Alt.=144.720825m. Speed=0.000000m/h.</desc>
<speed>0.000000</speed>
</trkpt>
<trkpt lat="55.660923" lon="26.571968">
<ele>144.724731</ele>
<time>2010-07-18T11:38:31Z</time>
<desc>lat.=55.660923, lon.=26.571968, Alt.=144.724731m. Speed=0.000000m/h.</desc>
<speed>0.000000</speed>
</trkpt>
<trkpt lat="55.660923" lon="26.571968">
<ele>144.732544</ele>
<time>2010-07-18T11:38:32Z</time>
<desc>lat.=55.660923, lon.=26.571968, Alt.=144.732544m. Speed=0.000000m/h.</desc>
<speed>0.000000</speed>
</trkpt>
<trkpt lat="55.660923" lon="26.571968">
<ele>144.736450</ele>
<time>2010-07-18T11:38:33Z</time>
<desc>lat.=55.660923, lon.=26.571968, Alt.=144.736450m. Speed=0.108000m/h.</desc>
<speed>0.030000</speed>
</trkpt>
<trkpt lat="55.660923" lon="26.571968">
<ele>144.740356</ele>
<time>2010-07-18T11:38:34Z</time>
<desc>lat.=55.660923, lon.=26.571968, Alt.=144.740356m. Speed=0.036000m/h.</desc>
<speed>0.010000</speed>
</trkpt>
<trkpt lat="55.660923" lon="26.571968">
<ele>144.744263</ele>
<time>2010-07-18T11:38:35Z</time>
<desc>lat.=55.660923, lon.=26.571968, Alt.=144.744263m. Speed=0.000000m/h.</desc>
<speed>0.000000</speed>
</trkpt>
<trkpt lat="55.660923" lon="26.571968">
<ele>144.752075</ele>
<time>2010-07-18T11:38:36Z</time>
<desc>lat.=55.660923, lon.=26.571968, Alt.=144.752075m. Speed=0.000000m/h.</desc>
<speed>0.000000</speed>
</trkpt>
<trkpt lat="55.660923" lon="26.571968">
<ele>144.752075</ele>
<time>2010-07-18T11:38:37Z</time>
<desc>lat.=55.660923, lon.=26.571968, Alt.=144.752075m. Speed=0.000000m/h.</desc>
<speed>0.000000</speed>
</trkpt>
<trkpt lat="55.660923" lon="26.571968">
<ele>144.748169</ele>
<time>2010-07-18T11:38:38Z</time>
<desc>lat.=55.660923, lon.=26.571968, Alt.=144.748169m. Speed=0.036000m/h.</desc>
<speed>0.010000</speed>
</trkpt>
<trkpt lat="55.660923" lon="26.571968">
<ele>144.752075</ele>
<time>2010-07-18T11:38:39Z</time>
<desc>lat.=55.660923, lon.=26.571968, Alt.=144.752075m. Speed=0.000000m/h.</desc>
<speed>0.000000</speed>
</trkpt>
<trkpt lat="55.660923" lon="26.571968">
<ele>144.752075</ele>
<time>2010-07-18T11:38:40Z</time>
<desc>lat.=55.660923, lon.=26.571968, Alt.=144.752075m. Speed=0.036000m/h.</desc>
<speed>0.010000</speed>
</trkpt>
<trkpt lat="55.660923" lon="26.571968">
<ele>144.755981</ele>
<time>2010-07-18T11:38:41Z</time>
<desc>lat.=55.660923, lon.=26.571968, Alt.=144.755981m. Speed=0.396000m/h.</desc>
<speed>0.110000</speed>
</trkpt>
<trkpt lat="55.660923" lon="26.571968">
<ele>144.752075</ele>
<time>2010-07-18T11:38:42Z</time>
<desc>lat.=55.660923, lon.=26.571968, Alt.=144.752075m. Speed=0.144000m/h.</desc>
<speed>0.040000</speed>
</trkpt>
<trkpt lat="55.660923" lon="26.571968">
<ele>144.740356</ele>
<time>2010-07-18T11:38:43Z</time>
<desc>lat.=55.660923, lon.=26.571968, Alt.=144.740356m. Speed=0.108000m/h.</desc>
<speed>0.030000</speed>
</trkpt>
<trkpt lat="55.660923" lon="26.571968">
<ele>144.744263</ele>
<time>2010-07-18T11:38:44Z</time>
<desc>lat.=55.660923, lon.=26.571968, Alt.=144.744263m. Speed=0.072000m/h.</desc>
<speed>0.020000</speed>
</trkpt>
<trkpt lat="55.660923" lon="26.571968">
<ele>144.744263</ele>
<time>2010-07-18T11:38:45Z</time>
<desc>lat.=55.660923, lon.=26.571968, Alt.=144.744263m. Speed=0.000000m/h.</desc>
<speed>0.000000</speed>
</trkpt>
<trkpt lat="55.660923" lon="26.571968">
<ele>144.744263</ele>
<time>2010-07-18T11:38:46Z</time>
<desc>lat.=55.660923, lon.=26.571968, Alt.=144.744263m. Speed=0.000000m/h.</desc>
<speed>0.000000</speed>
</trkpt>
<trkpt lat="55.660923" lon="26.571968">
<ele>144.744263</ele>
<time>2010-07-18T11:38:47Z</time>
<desc>lat.=55.660923, lon.=26.571968, Alt.=144.744263m. Speed=0.036000m/h.</desc>
<speed>0.010000</speed>
</trkpt>
<trkpt lat="55.660923" lon="26.571968">
<ele>144.744263</ele>
<time>2010-07-18T11:38:48Z</time>
<desc>lat.=55.660923, lon.=26.571968, Alt.=144.744263m. Speed=0.108000m/h.</desc>
<speed>0.030000</speed>
</trkpt>
<trkpt lat="55.660923" lon="26.571968">
<ele>144.744263</ele>
<time>2010-07-18T11:38:49Z</time>
<desc>lat.=55.660923, lon.=26.571968, Alt.=144.744263m. Speed=0.216000m/h.</desc>
<speed>0.060000</speed>
</trkpt>
<trkpt lat="55.660923" lon="26.571968">
<ele>144.740356</ele>
<time>2010-07-18T11:38:50Z</time>
<desc>lat.=55.660923, lon.=26.571968, Alt.=144.740356m. Speed=0.072000m/h.</desc>
<speed>0.020000</speed>
</trkpt>
<trkpt lat="55.660923" lon="26.571966">
<ele>144.752075</ele>
<time>2010-07-18T11:38:51Z</time>
<desc>lat.=55.660923, lon.=26.571966, Alt.=144.752075m. Speed=0.108000m/h.</desc>
<speed>0.030000</speed>
</trkpt>
<trkpt lat="55.660923" lon="26.571968">
<ele>144.755981</ele>
<time>2010-07-18T11:38:52Z</time>
<desc>lat.=55.660923, lon.=26.571968, Alt.=144.755981m. Speed=0.036000m/h.</desc>
<speed>0.010000</speed>
</trkpt>
<trkpt lat="55.660923" lon="26.571968">
<ele>144.759888</ele>
<time>2010-07-18T11:38:53Z</time>
<desc>lat.=55.660923, lon.=26.571968, Alt.=144.759888m. Speed=0.036000m/h.</desc>
<speed>0.010000</speed>
</trkpt>
<trkpt lat="55.660923" lon="26.571968">
<ele>144.763794</ele>
<time>2010-07-18T11:38:54Z</time>
<desc>lat.=55.660923, lon.=26.571968, Alt.=144.763794m. Speed=0.396000m/h.</desc>
<speed>0.110000</speed>
</trkpt>
<trkpt lat="55.660923" lon="26.571968">
<ele>144.767700</ele>
<time>2010-07-18T11:38:55Z</time>
<desc>lat.=55.660923, lon.=26.571968, Alt.=144.767700m. Speed=0.108000m/h.</desc>
<speed>0.030000</speed>
</trkpt>
<trkpt lat="55.660923" lon="26.571968">
<ele>144.795044</ele>
<time>2010-07-18T11:38:56Z</time>
<desc>lat.=55.660923, lon.=26.571968, Alt.=144.795044m. Speed=0.288000m/h.</desc>
<speed>0.080000</speed>
</trkpt>
<trkpt lat="55.660923" lon="26.571968">
<ele>144.795044</ele>
<time>2010-07-18T11:38:57Z</time>
<desc>lat.=55.660923, lon.=26.571968, Alt.=144.795044m. Speed=0.144000m/h.</desc>
<speed>0.040000</speed>
</trkpt>
<trkpt lat="55.660923" lon="26.571968">
<ele>144.795044</ele>
<time>2010-07-18T11:38:58Z</time>
<desc>lat.=55.660923, lon.=26.571968, Alt.=144.795044m. Speed=0.072000m/h.</desc>
<speed>0.020000</speed>
</trkpt>
<trkpt lat="55.660923" lon="26.571968">
<ele>144.791138</ele>
<time>2010-07-18T11:38:59Z</time>
<desc>lat.=55.660923, lon.=26.571968, Alt.=144.791138m. Speed=0.036000m/h.</desc>
<speed>0.010000</speed>
</trkpt>
<trkpt lat="55.660923" lon="26.571968">
<ele>144.787231</ele>
<time>2010-07-18T11:39:00Z</time>
<desc>lat.=55.660923, lon.=26.571968, Alt.=144.787231m. Speed=0.036000m/h.</desc>
<speed>0.010000</speed>
</trkpt>
<trkpt lat="55.660923" lon="26.571968">
<ele>144.787231</ele>
<time>2010-07-18T11:39:01Z</time>
<desc>lat.=55.660923, lon.=26.571968, Alt.=144.787231m. Speed=0.036000m/h.</desc>
<speed>0.010000</speed>
</trkpt>
<trkpt lat="55.660923" lon="26.571968">
<ele>144.787231</ele>
<time>2010-07-18T11:39:02Z</time>
<desc>lat.=55.660923, lon.=26.571968, Alt.=144.787231m. Speed=0.072000m/h.</desc>
<speed>0.020000</speed>
</trkpt>
<trkpt lat="55.660923" lon="26.571968">
<ele>144.787231</ele>
<time>2010-07-18T11:39:03Z</time>
<desc>lat.=55.660923, lon.=26.571968, Alt.=144.787231m. Speed=0.036000m/h.</desc>
<speed>0.010000</speed>
</trkpt>
<trkpt lat="55.660923" lon="26.571968">
<ele>144.791138</ele>
<time>2010-07-18T11:39:04Z</time>
<desc>lat.=55.660923, lon.=26.571968, Alt.=144.791138m. Speed=0.324000m/h.</desc>
<speed>0.090000</speed>
</trkpt>
<trkpt lat="55.660923" lon="26.571968">
<ele>144.791138</ele>
<time>2010-07-18T11:39:05Z</time>
<desc>lat.=55.660923, lon.=26.571968, Alt.=144.791138m. Speed=0.216000m/h.</desc>
<speed>0.060000</speed>
</trkpt>
<trkpt lat="55.660923" lon="26.571968">
<ele>144.763794</ele>
<time>2010-07-18T11:39:06Z</time>
<desc>lat.=55.660923, lon.=26.571968, Alt.=144.763794m. Speed=0.180000m/h.</desc>
<speed>0.050000</speed>
</trkpt>
<trkpt lat="55.660923" lon="26.571968">
<ele>144.759888</ele>
<time>2010-07-18T11:39:07Z</time>
<desc>lat.=55.660923, lon.=26.571968, Alt.=144.759888m. Speed=0.180000m/h.</desc>
<speed>0.050000</speed>
</trkpt>
<trkpt lat="55.660923" lon="26.571968">
<ele>144.763794</ele>
<time>2010-07-18T11:39:08Z</time>
<desc>lat.=55.660923, lon.=26.571968, Alt.=144.763794m. Speed=0.036000m/h.</desc>
<speed>0.010000</speed>
</trkpt>
<trkpt lat="55.660923" lon="26.571968">
<ele>144.763794</ele>
<time>2010-07-18T11:39:09Z</time>
<desc>lat.=55.660923, lon.=26.571968, Alt.=144.763794m. Speed=0.000000m/h.</desc>
<speed>0.000000</speed>
</trkpt>
<trkpt lat="55.660923" lon="26.571968">
<ele>144.759888</ele>
<time>2010-07-18T11:39:10Z</time>
<desc>lat.=55.660923, lon.=26.571968, Alt.=144.759888m. Speed=0.000000m/h.</desc>
<speed>0.000000</speed>
</trkpt>
<trkpt lat="55.660923" lon="26.571968">
<ele>144.755981</ele>
<time>2010-07-18T11:39:11Z</time>
<desc>lat.=55.660923, lon.=26.571968, Alt.=144.755981m. Speed=0.000000m/h.</desc>
<speed>0.000000</speed>
</trkpt>
<trkpt lat="55.660923" lon="26.571968">
<ele>144.755981</ele>
<time>2010-07-18T11:39:12Z</time>
<desc>lat.=55.660923, lon.=26.571968, Alt.=144.755981m. Speed=0.036000m/h.</desc>
<speed>0.010000</speed>
</trkpt>
<trkpt lat="55.660923" lon="26.571968">
<ele>144.752075</ele>
<time>2010-07-18T11:39:13Z</time>
<desc>lat.=55.660923, lon.=26.571968, Alt.=144.752075m. Speed=0.036000m/h.</desc>
<speed>0.010000</speed>
</trkpt>
<trkpt lat="55.660923" lon="26.571968">
<ele>144.752075</ele>
<time>2010-07-18T11:39:14Z</time>
<desc>lat.=55.660923, lon.=26.571968, Alt.=144.752075m. Speed=0.036000m/h.</desc>
<speed>0.010000</speed>
</trkpt>
<trkpt lat="55.660923" lon="26.571968">
<ele>144.752075</ele>
<time>2010-07-18T11:39:15Z</time>
<desc>lat.=55.660923, lon.=26.571968, Alt.=144.752075m. Speed=0.000000m/h.</desc>
<speed>0.000000</speed>
</trkpt>
<trkpt lat="55.660923" lon="26.571968">
<ele>144.752075</ele>
<time>2010-07-18T11:39:16Z</time>
<desc>lat.=55.660923, lon.=26.571968, Alt.=144.752075m. Speed=0.000000m/h.</desc>
<speed>0.000000</speed>
</trkpt>
<trkpt lat="55.660923" lon="26.571968">
<ele>144.752075</ele>
<time>2010-07-18T11:39:17Z</time>
<desc>lat.=55.660923, lon.=26.571968, Alt.=144.752075m. Speed=0.000000m/h.</desc>
<speed>0.000000</speed>
</trkpt>
<trkpt lat="55.660923" lon="26.571968">
<ele>144.755981</ele>
<time>2010-07-18T11:39:18Z</time>
<desc>lat.=55.660923, lon.=26.571968, Alt.=144.755981m. Speed=0.000000m/h.</desc>
<speed>0.000000</speed>
</trkpt>
<trkpt lat="55.660923" lon="26.571968">
<ele>144.759888</ele>
<time>2010-07-18T11:39:19Z</time>
<desc>lat.=55.660923, lon.=26.571968, Alt.=144.759888m. Speed=0.036000m/h.</desc>
<speed>0.010000</speed>
</trkpt>
<trkpt lat="55.660923" lon="26.571968">
<ele>144.767700</ele>
<time>2010-07-18T11:39:20Z</time>
<desc>lat.=55.660923, lon.=26.571968, Alt.=144.767700m. Speed=0.468000m/h.</desc>
<speed>0.130000</speed>
</trkpt>
<trkpt lat="55.660923" lon="26.571968">
<ele>144.775513</ele>
<time>2010-07-18T11:39:21Z</time>
<desc>lat.=55.660923, lon.=26.571968, Alt.=144.775513m. Speed=2.052000m/h.</desc>
<speed>0.570000</speed>
</trkpt>
<trkpt lat="55.660927" lon="26.571970">
<ele>144.986450</ele>
<time>2010-07-18T11:39:22Z</time>
<desc>lat.=55.660927, lon.=26.571970, Alt.=144.986450m. Speed=1.440000m/h.</desc>
<speed>0.400000</speed>
</trkpt>
<trkpt lat="55.660927" lon="26.571974">
<ele>144.939575</ele>
<time>2010-07-18T11:39:23Z</time>
<desc>lat.=55.660927, lon.=26.571974, Alt.=144.939575m. Speed=2.052000m/h.</desc>
<speed>0.570000</speed>
</trkpt>
<trkpt lat="55.660934" lon="26.571976">
<ele>145.076294</ele>
<time>2010-07-18T11:39:24Z</time>
<desc>lat.=55.660934, lon.=26.571976, Alt.=145.076294m. Speed=1.584000m/h.</desc>
<speed>0.440000</speed>
</trkpt>
<trkpt lat="55.660934" lon="26.571978">
<ele>144.920044</ele>
<time>2010-07-18T11:39:25Z</time>
<desc>lat.=55.660934, lon.=26.571978, Alt.=144.920044m. Speed=0.648000m/h.</desc>
<speed>0.180000</speed>
</trkpt>
<trkpt lat="55.660938" lon="26.571980">
<ele>144.994263</ele>
<time>2010-07-18T11:39:26Z</time>
<desc>lat.=55.660938, lon.=26.571980, Alt.=144.994263m. Speed=1.620000m/h.</desc>
<speed>0.450000</speed>
</trkpt>
<trkpt lat="55.660938" lon="26.571980">
<ele>145.123169</ele>
<time>2010-07-18T11:39:27Z</time>
<desc>lat.=55.660938, lon.=26.571980, Alt.=145.123169m. Speed=0.288000m/h.</desc>
<speed>0.080000</speed>
</trkpt>
<trkpt lat="55.660938" lon="26.571980">
<ele>145.029419</ele>
<time>2010-07-18T11:39:28Z</time>
<desc>lat.=55.660938, lon.=26.571980, Alt.=145.029419m. Speed=0.756000m/h.</desc>
<speed>0.210000</speed>
</trkpt>
<trkpt lat="55.660942" lon="26.571987">
<ele>145.048950</ele>
<time>2010-07-18T11:39:29Z</time>
<desc>lat.=55.660942, lon.=26.571987, Alt.=145.048950m. Speed=1.692000m/h.</desc>
<speed>0.470000</speed>
</trkpt>
<trkpt lat="55.660946" lon="26.572001">
<ele>145.115356</ele>
<time>2010-07-18T11:39:30Z</time>
<desc>lat.=55.660946, lon.=26.572001, Alt.=145.115356m. Speed=3.168000m/h.</desc>
<speed>0.880000</speed>
</trkpt>
<trkpt lat="55.660954" lon="26.572016">
<ele>145.166138</ele>
<time>2010-07-18T11:39:31Z</time>
<desc>lat.=55.660954, lon.=26.572016, Alt.=145.166138m. Speed=3.816000m/h.</desc>
<speed>1.060000</speed>
</trkpt>
<trkpt lat="55.660957" lon="26.572039">
<ele>145.185669</ele>
<time>2010-07-18T11:39:32Z</time>
<desc>lat.=55.660957, lon.=26.572039, Alt.=145.185669m. Speed=4.464000m/h.</desc>
<speed>1.240000</speed>
</trkpt>
<trkpt lat="55.660965" lon="26.572058">
<ele>145.330200</ele>
<time>2010-07-18T11:39:33Z</time>
<desc>lat.=55.660965, lon.=26.572058, Alt.=145.330200m. Speed=4.536000m/h.</desc>
<speed>1.260000</speed>
</trkpt>
<trkpt lat="55.660969" lon="26.572086">
<ele>145.923950</ele>
<time>2010-07-18T11:39:34Z</time>
<desc>lat.=55.660969, lon.=26.572086, Alt.=145.923950m. Speed=4.788000m/h.</desc>
<speed>1.330000</speed>
</trkpt>
<trkpt lat="55.660976" lon="26.572111">
<ele>146.279419</ele>
<time>2010-07-18T11:39:35Z</time>
<desc>lat.=55.660976, lon.=26.572111, Alt.=146.279419m. Speed=4.860000m/h.</desc>
<speed>1.350000</speed>
</trkpt>
<trkpt lat="55.660984" lon="26.572136">
<ele>146.677856</ele>
<time>2010-07-18T11:39:36Z</time>
<desc>lat.=55.660984, lon.=26.572136, Alt.=146.677856m. Speed=5.328000m/h.</desc>
<speed>1.480000</speed>
</trkpt>
<trkpt lat="55.660992" lon="26.572159">
<ele>146.888794</ele>
<time>2010-07-18T11:39:37Z</time>
<desc>lat.=55.660992, lon.=26.572159, Alt.=146.888794m. Speed=4.824000m/h.</desc>
<speed>1.340000</speed>
</trkpt>
<trkpt lat="55.660995" lon="26.572187">
<ele>147.017700</ele>
<time>2010-07-18T11:39:38Z</time>
<desc>lat.=55.660995, lon.=26.572187, Alt.=147.017700m. Speed=5.508000m/h.</desc>
<speed>1.530000</speed>
</trkpt>
<trkpt lat="55.661007" lon="26.572208">
<ele>147.298950</ele>
<time>2010-07-18T11:39:39Z</time>
<desc>lat.=55.661007, lon.=26.572208, Alt.=147.298950m. Speed=6.012000m/h.</desc>
<speed>1.670000</speed>
</trkpt>
<trkpt lat="55.661015" lon="26.572231">
<ele>147.427856</ele>
<time>2010-07-18T11:39:40Z</time>
<desc>lat.=55.661015, lon.=26.572231, Alt.=147.427856m. Speed=5.220000m/h.</desc>
<speed>1.450000</speed>
</trkpt>
<trkpt lat="55.661022" lon="26.572254">
<ele>147.615356</ele>
<time>2010-07-18T11:39:41Z</time>
<desc>lat.=55.661022, lon.=26.572254, Alt.=147.615356m. Speed=5.436000m/h.</desc>
<speed>1.510000</speed>
</trkpt>
<trkpt lat="55.661026" lon="26.572281">
<ele>148.033325</ele>
<time>2010-07-18T11:39:42Z</time>
<desc>lat.=55.661026, lon.=26.572281, Alt.=148.033325m. Speed=6.192000m/h.</desc>
<speed>1.720000</speed>
</trkpt>
<trkpt lat="55.661030" lon="26.572306">
<ele>148.220825</ele>
<time>2010-07-18T11:39:43Z</time>
<desc>lat.=55.661030, lon.=26.572306, Alt.=148.220825m. Speed=6.084000m/h.</desc>
<speed>1.690000</speed>
</trkpt>
<trkpt lat="55.661037" lon="26.572334">
<ele>148.392700</ele>
<time>2010-07-18T11:39:44Z</time>
<desc>lat.=55.661037, lon.=26.572334, Alt.=148.392700m. Speed=7.020000m/h.</desc>
<speed>1.950000</speed>
</trkpt>
<trkpt lat="55.661049" lon="26.572355">
<ele>148.431763</ele>
<time>2010-07-18T11:39:45Z</time>
<desc>lat.=55.661049, lon.=26.572355, Alt.=148.431763m. Speed=6.840000m/h.</desc>
<speed>1.900000</speed>
</trkpt>
<trkpt lat="55.661053" lon="26.572388">
<ele>148.482544</ele>
<time>2010-07-18T11:39:46Z</time>
<desc>lat.=55.661053, lon.=26.572388, Alt.=148.482544m. Speed=7.272000m/h.</desc>
<speed>2.020000</speed>
</trkpt>
<trkpt lat="55.661060" lon="26.572428">
<ele>148.775513</ele>
<time>2010-07-18T11:39:47Z</time>
<desc>lat.=55.661060, lon.=26.572428, Alt.=148.775513m. Speed=8.028000m/h.</desc>
<speed>2.230000</speed>
</trkpt>
<trkpt lat="55.661064" lon="26.572468">
<ele>148.982544</ele>
<time>2010-07-18T11:39:48Z</time>
<desc>lat.=55.661064, lon.=26.572468, Alt.=148.982544m. Speed=9.684000m/h.</desc>
<speed>2.690000</speed>
</trkpt>
<trkpt lat="55.661068" lon="26.572514">
<ele>149.224731</ele>
<time>2010-07-18T11:39:49Z</time>
<desc>lat.=55.661068, lon.=26.572514, Alt.=149.224731m. Speed=10.584000m/h.</desc>
<speed>2.940000</speed>
</trkpt>
<trkpt lat="55.661076" lon="26.572582">
<ele>148.060669</ele>
<time>2010-07-18T11:39:50Z</time>
<desc>lat.=55.661076, lon.=26.572582, Alt.=148.060669m. Speed=11.160000m/h.</desc>
<speed>3.100000</speed>
</trkpt>
<trkpt lat="55.661079" lon="26.572632">
<ele>147.068481</ele>
<time>2010-07-18T11:39:51Z</time>
<desc>lat.=55.661079, lon.=26.572632, Alt.=147.068481m. Speed=9.720000m/h.</desc>
<speed>2.700000</speed>
</trkpt>
<trkpt lat="55.661091" lon="26.572674">
<ele>147.205200</ele>
<time>2010-07-18T11:39:52Z</time>
<desc>lat.=55.661091, lon.=26.572674, Alt.=147.205200m. Speed=8.532000m/h.</desc>
<speed>2.370000</speed>
</trkpt>
<trkpt lat="55.661095" lon="26.572708">
<ele>147.185669</ele>
<time>2010-07-18T11:39:53Z</time>
<desc>lat.=55.661095, lon.=26.572708, Alt.=147.185669m. Speed=7.164000m/h.</desc>
<speed>1.990000</speed>
</trkpt>
<trkpt lat="55.661106" lon="26.572742">
<ele>146.861450</ele>
<time>2010-07-18T11:39:54Z</time>
<desc>lat.=55.661106, lon.=26.572742, Alt.=146.861450m. Speed=6.912000m/h.</desc>
<speed>1.920000</speed>
</trkpt>
<trkpt lat="55.661118" lon="26.572767">
<ele>147.158325</ele>
<time>2010-07-18T11:39:55Z</time>
<desc>lat.=55.661118, lon.=26.572767, Alt.=147.158325m. Speed=6.984000m/h.</desc>
<speed>1.940000</speed>
</trkpt>
<trkpt lat="55.661133" lon="26.572794">
<ele>147.048950</ele>
<time>2010-07-18T11:39:56Z</time>
<desc>lat.=55.661133, lon.=26.572794, Alt.=147.048950m. Speed=5.544000m/h.</desc>
<speed>1.540000</speed>
</trkpt>
<trkpt lat="55.661144" lon="26.572819">
<ele>147.295044</ele>
<time>2010-07-18T11:39:57Z</time>
<desc>lat.=55.661144, lon.=26.572819, Alt.=147.295044m. Speed=5.436000m/h.</desc>
<speed>1.510000</speed>
</trkpt>
<trkpt lat="55.661144" lon="26.572855">
<ele>147.275513</ele>
<time>2010-07-18T11:39:58Z</time>
<desc>lat.=55.661144, lon.=26.572855, Alt.=147.275513m. Speed=6.768000m/h.</desc>
<speed>1.880000</speed>
</trkpt>
<trkpt lat="55.661148" lon="26.572901">
<ele>147.357544</ele>
<time>2010-07-18T11:39:59Z</time>
<desc>lat.=55.661148, lon.=26.572901, Alt.=147.357544m. Speed=7.776000m/h.</desc>
<speed>2.160000</speed>
</trkpt>
<trkpt lat="55.661148" lon="26.572939">
<ele>147.361450</ele>
<time>2010-07-18T11:40:00Z</time>
<desc>lat.=55.661148, lon.=26.572939, Alt.=147.361450m. Speed=5.796000m/h.</desc>
<speed>1.610000</speed>
</trkpt>
<trkpt lat="55.661148" lon="26.572981">
<ele>146.869263</ele>
<time>2010-07-18T11:40:01Z</time>
<desc>lat.=55.661148, lon.=26.572981, Alt.=146.869263m. Speed=7.200000m/h.</desc>
<speed>2.000000</speed>
</trkpt>
<trkpt lat="55.661148" lon="26.573019">
<ele>146.724731</ele>
<time>2010-07-18T11:40:02Z</time>
<desc>lat.=55.661148, lon.=26.573019, Alt.=146.724731m. Speed=5.724000m/h.</desc>
<speed>1.590000</speed>
</trkpt>
<trkpt lat="55.661160" lon="26.573065">
<ele>146.740356</ele>
<time>2010-07-18T11:40:03Z</time>
<desc>lat.=55.661160, lon.=26.573065, Alt.=146.740356m. Speed=6.480000m/h.</desc>
<speed>1.800000</speed>
</trkpt>
<trkpt lat="55.661167" lon="26.573103">
<ele>146.884888</ele>
<time>2010-07-18T11:40:04Z</time>
<desc>lat.=55.661167, lon.=26.573103, Alt.=146.884888m. Speed=6.624000m/h.</desc>
<speed>1.840000</speed>
</trkpt>
<trkpt lat="55.661175" lon="26.573153">
<ele>147.045044</ele>
<time>2010-07-18T11:40:05Z</time>
<desc>lat.=55.661175, lon.=26.573153, Alt.=147.045044m. Speed=8.568000m/h.</desc>
<speed>2.380000</speed>
</trkpt>
<trkpt lat="55.661182" lon="26.573200">
<ele>147.162231</ele>
<time>2010-07-18T11:40:06Z</time>
<desc>lat.=55.661182, lon.=26.573200, Alt.=147.162231m. Speed=7.452000m/h.</desc>
<speed>2.070000</speed>
</trkpt>
<trkpt lat="55.661190" lon="26.573248">
<ele>146.892700</ele>
<time>2010-07-18T11:40:07Z</time>
<desc>lat.=55.661190, lon.=26.573248, Alt.=146.892700m. Speed=7.992000m/h.</desc>
<speed>2.220000</speed>
</trkpt>
<trkpt lat="55.661201" lon="26.573292">
<ele>146.861450</ele>
<time>2010-07-18T11:40:08Z</time>
<desc>lat.=55.661201, lon.=26.573292, Alt.=146.861450m. Speed=9.216000m/h.</desc>
<speed>2.560000</speed>
</trkpt>
<trkpt lat="55.661217" lon="26.573338">
<ele>147.646606</ele>
<time>2010-07-18T11:40:09Z</time>
<desc>lat.=55.661217, lon.=26.573338, Alt.=147.646606m. Speed=9.252000m/h.</desc>
<speed>2.570000</speed>
</trkpt>
<trkpt lat="55.661228" lon="26.573383">
<ele>148.134888</ele>
<time>2010-07-18T11:40:10Z</time>
<desc>lat.=55.661228, lon.=26.573383, Alt.=148.134888m. Speed=9.720000m/h.</desc>
<speed>2.700000</speed>
</trkpt>
<trkpt lat="55.661240" lon="26.573433">
<ele>147.861450</ele>
<time>2010-07-18T11:40:11Z</time>
<desc>lat.=55.661240, lon.=26.573433, Alt.=147.861450m. Speed=11.124000m/h.</desc>
<speed>3.090000</speed>
</trkpt>
<trkpt lat="55.661255" lon="26.573486">
<ele>148.490356</ele>
<time>2010-07-18T11:40:12Z</time>
<desc>lat.=55.661255, lon.=26.573486, Alt.=148.490356m. Speed=10.944000m/h.</desc>
<speed>3.040000</speed>
</trkpt>
<trkpt lat="55.661266" lon="26.573536">
<ele>148.619263</ele>
<time>2010-07-18T11:40:13Z</time>
<desc>lat.=55.661266, lon.=26.573536, Alt.=148.619263m. Speed=11.124000m/h.</desc>
<speed>3.090000</speed>
</trkpt>
<trkpt lat="55.661282" lon="26.573589">
<ele>148.443481</ele>
<time>2010-07-18T11:40:14Z</time>
<desc>lat.=55.661282, lon.=26.573589, Alt.=148.443481m. Speed=12.060000m/h.</desc>
<speed>3.350000</speed>
</trkpt>
<trkpt lat="55.661293" lon="26.573641">
<ele>148.318481</ele>
<time>2010-07-18T11:40:15Z</time>
<desc>lat.=55.661293, lon.=26.573641, Alt.=148.318481m. Speed=11.484000m/h.</desc>
<speed>3.190000</speed>
</trkpt>
<trkpt lat="55.661301" lon="26.573696">
<ele>147.525513</ele>
<time>2010-07-18T11:40:16Z</time>
<desc>lat.=55.661301, lon.=26.573696, Alt.=147.525513m. Speed=10.872000m/h.</desc>
<speed>3.020000</speed>
</trkpt>
<trkpt lat="55.661308" lon="26.573755">
<ele>147.619263</ele>
<time>2010-07-18T11:40:17Z</time>
<desc>lat.=55.661308, lon.=26.573755, Alt.=147.619263m. Speed=11.628000m/h.</desc>
<speed>3.230000</speed>
</trkpt>
<trkpt lat="55.661320" lon="26.573816">
<ele>147.463013</ele>
<time>2010-07-18T11:40:18Z</time>
<desc>lat.=55.661320, lon.=26.573816, Alt.=147.463013m. Speed=11.592000m/h.</desc>
<speed>3.220000</speed>
</trkpt>
<trkpt lat="55.661331" lon="26.573868">
<ele>146.693481</ele>
<time>2010-07-18T11:40:19Z</time>
<desc>lat.=55.661331, lon.=26.573868, Alt.=146.693481m. Speed=11.916000m/h.</desc>
<speed>3.310000</speed>
</trkpt>
<trkpt lat="55.661346" lon="26.573915">
<ele>146.295044</ele>
<time>2010-07-18T11:40:20Z</time>
<desc>lat.=55.661346, lon.=26.573915, Alt.=146.295044m. Speed=11.484000m/h.</desc>
<speed>3.190000</speed>
</trkpt>
<trkpt lat="55.661354" lon="26.573973">
<ele>145.357544</ele>
<time>2010-07-18T11:40:21Z</time>
<desc>lat.=55.661354, lon.=26.573973, Alt.=145.357544m. Speed=12.744000m/h.</desc>
<speed>3.540000</speed>
</trkpt>
<trkpt lat="55.661366" lon="26.574039">
<ele>145.095825</ele>
<time>2010-07-18T11:40:22Z</time>
<desc>lat.=55.661366, lon.=26.574039, Alt.=145.095825m. Speed=13.464000m/h.</desc>
<speed>3.740000</speed>
</trkpt>
<trkpt lat="55.661373" lon="26.574108">
<ele>144.666138</ele>
<time>2010-07-18T11:40:23Z</time>
<desc>lat.=55.661373, lon.=26.574108, Alt.=144.666138m. Speed=14.580000m/h.</desc>
<speed>4.050000</speed>
</trkpt>
<trkpt lat="55.661377" lon="26.574192">
<ele>144.396606</ele>
<time>2010-07-18T11:40:24Z</time>
<desc>lat.=55.661377, lon.=26.574192, Alt.=144.396606m. Speed=17.243999m/h.</desc>
<speed>4.790000</speed>
</trkpt>
<trkpt lat="55.661385" lon="26.574274">
<ele>143.322388</ele>
<time>2010-07-18T11:40:25Z</time>
<desc>lat.=55.661385, lon.=26.574274, Alt.=143.322388m. Speed=16.344000m/h.</desc>
<speed>4.540000</speed>
</trkpt>
<trkpt lat="55.661385" lon="26.574358">
<ele>142.908325</ele>
<time>2010-07-18T11:40:26Z</time>
<desc>lat.=55.661385, lon.=26.574358, Alt.=142.908325m. Speed=16.416000m/h.</desc>
<speed>4.560000</speed>
</trkpt>
<trkpt lat="55.661388" lon="26.574442">
<ele>142.994263</ele>
<time>2010-07-18T11:40:27Z</time>
<desc>lat.=55.661388, lon.=26.574442, Alt.=142.994263m. Speed=16.524000m/h.</desc>
<speed>4.590000</speed>
</trkpt>
<trkpt lat="55.661396" lon="26.574530">
<ele>142.963013</ele>
<time>2010-07-18T11:40:28Z</time>
<desc>lat.=55.661396, lon.=26.574530, Alt.=142.963013m. Speed=17.784000m/h.</desc>
<speed>4.940000</speed>
</trkpt>
<trkpt lat="55.661404" lon="26.574619">
<ele>143.263794</ele>
<time>2010-07-18T11:40:29Z</time>
<desc>lat.=55.661404, lon.=26.574619, Alt.=143.263794m. Speed=16.775999m/h.</desc>
<speed>4.660000</speed>
</trkpt>
<trkpt lat="55.661415" lon="26.574690">
<ele>142.701294</ele>
<time>2010-07-18T11:40:30Z</time>
<desc>lat.=55.661415, lon.=26.574690, Alt.=142.701294m. Speed=16.775999m/h.</desc>
<speed>4.660000</speed>
</trkpt>
<trkpt lat="55.661423" lon="26.574774">
<ele>140.736450</ele>
<time>2010-07-18T11:40:31Z</time>
<desc>lat.=55.661423, lon.=26.574774, Alt.=140.736450m. Speed=17.856001m/h.</desc>
<speed>4.960000</speed>
</trkpt>
<trkpt lat="55.661438" lon="26.574860">
<ele>140.838013</ele>
<time>2010-07-18T11:40:32Z</time>
<desc>lat.=55.661438, lon.=26.574860, Alt.=140.838013m. Speed=18.143999m/h.</desc>
<speed>5.040000</speed>
</trkpt>
<trkpt lat="55.661446" lon="26.574951">
<ele>139.345825</ele>
<time>2010-07-18T11:40:33Z</time>
<desc>lat.=55.661446, lon.=26.574951, Alt.=139.345825m. Speed=20.304001m/h.</desc>
<speed>5.640000</speed>
</trkpt>
<trkpt lat="55.661457" lon="26.575045">
<ele>138.666138</ele>
<time>2010-07-18T11:40:34Z</time>
<desc>lat.=55.661457, lon.=26.575045, Alt.=138.666138m. Speed=20.879999m/h.</desc>
<speed>5.800000</speed>
</trkpt>
<trkpt lat="55.661469" lon="26.575138">
<ele>138.884888</ele>
<time>2010-07-18T11:40:35Z</time>
<desc>lat.=55.661469, lon.=26.575138, Alt.=138.884888m. Speed=19.944000m/h.</desc>
<speed>5.540000</speed>
</trkpt>
<trkpt lat="55.661484" lon="26.575233">
<ele>140.373169</ele>
<time>2010-07-18T11:40:36Z</time>
<desc>lat.=55.661484, lon.=26.575233, Alt.=140.373169m. Speed=19.152000m/h.</desc>
<speed>5.320000</speed>
</trkpt>
<trkpt lat="55.661495" lon="26.575315">
<ele>140.205200</ele>
<time>2010-07-18T11:40:37Z</time>
<desc>lat.=55.661495, lon.=26.575315, Alt.=140.205200m. Speed=18.431999m/h.</desc>
<speed>5.120000</speed>
</trkpt>
<trkpt lat="55.661510" lon="26.575399">
<ele>141.857544</ele>
<time>2010-07-18T11:40:38Z</time>
<desc>lat.=55.661510, lon.=26.575399, Alt.=141.857544m. Speed=15.660000m/h.</desc>
<speed>4.350000</speed>
</trkpt>
<trkpt lat="55.661530" lon="26.575474">
<ele>141.181763</ele>
<time>2010-07-18T11:40:39Z</time>
<desc>lat.=55.661530, lon.=26.575474, Alt.=141.181763m. Speed=15.624000m/h.</desc>
<speed>4.340000</speed>
</trkpt>
<trkpt lat="55.661545" lon="26.575552">
<ele>141.861450</ele>
<time>2010-07-18T11:40:40Z</time>
<desc>lat.=55.661545, lon.=26.575552, Alt.=141.861450m. Speed=15.156000m/h.</desc>
<speed>4.210000</speed>
</trkpt>
<trkpt lat="55.661552" lon="26.575615">
<ele>141.341919</ele>
<time>2010-07-18T11:40:41Z</time>
<desc>lat.=55.661552, lon.=26.575615, Alt.=141.341919m. Speed=13.896000m/h.</desc>
<speed>3.860000</speed>
</trkpt>
<trkpt lat="55.661560" lon="26.575672">
<ele>140.568481</ele>
<time>2010-07-18T11:40:42Z</time>
<desc>lat.=55.661560, lon.=26.575672, Alt.=140.568481m. Speed=11.916000m/h.</desc>
<speed>3.310000</speed>
</trkpt>
<trkpt lat="55.661568" lon="26.575729">
<ele>140.724731</ele>
<time>2010-07-18T11:40:43Z</time>
<desc>lat.=55.661568, lon.=26.575729, Alt.=140.724731m. Speed=11.376000m/h.</desc>
<speed>3.160000</speed>
</trkpt>
<trkpt lat="55.661583" lon="26.575787">
<ele>140.295044</ele>
<time>2010-07-18T11:40:44Z</time>
<desc>lat.=55.661583, lon.=26.575787, Alt.=140.295044m. Speed=10.620000m/h.</desc>
<speed>2.950000</speed>
</trkpt>
<trkpt lat="55.661591" lon="26.575840">
<ele>139.713013</ele>
<time>2010-07-18T11:40:45Z</time>
<desc>lat.=55.661591, lon.=26.575840, Alt.=139.713013m. Speed=9.648000m/h.</desc>
<speed>2.680000</speed>
</trkpt>
<trkpt lat="55.661610" lon="26.575884">
<ele>138.134888</ele>
<time>2010-07-18T11:40:46Z</time>
<desc>lat.=55.661610, lon.=26.575884, Alt.=138.134888m. Speed=8.460000m/h.</desc>
<speed>2.350000</speed>
</trkpt>
<trkpt lat="55.661613" lon="26.575922">
<ele>137.748169</ele>
<time>2010-07-18T11:40:47Z</time>
<desc>lat.=55.661613, lon.=26.575922, Alt.=137.748169m. Speed=7.668000m/h.</desc>
<speed>2.130000</speed>
</trkpt>
<trkpt lat="55.661621" lon="26.575974">
<ele>136.670044</ele>
<time>2010-07-18T11:40:48Z</time>
<desc>lat.=55.661621, lon.=26.575974, Alt.=136.670044m. Speed=10.044000m/h.</desc>
<speed>2.790000</speed>
</trkpt>
<trkpt lat="55.661629" lon="26.576031">
<ele>137.197388</ele>
<time>2010-07-18T11:40:49Z</time>
<desc>lat.=55.661629, lon.=26.576031, Alt.=137.197388m. Speed=9.684000m/h.</desc>
<speed>2.690000</speed>
</trkpt>
<trkpt lat="55.661652" lon="26.576088">
<ele>138.170044</ele>
<time>2010-07-18T11:40:50Z</time>
<desc>lat.=55.661652, lon.=26.576088, Alt.=138.170044m. Speed=11.268000m/h.</desc>
<speed>3.130000</speed>
</trkpt>
<trkpt lat="55.661671" lon="26.576149">
<ele>139.236450</ele>
<time>2010-07-18T11:40:51Z</time>
<desc>lat.=55.661671, lon.=26.576149, Alt.=139.236450m. Speed=11.664000m/h.</desc>
<speed>3.240000</speed>
</trkpt>
<trkpt lat="55.661686" lon="26.576204">
<ele>139.486450</ele>
<time>2010-07-18T11:40:52Z</time>
<desc>lat.=55.661686, lon.=26.576204, Alt.=139.486450m. Speed=11.700000m/h.</desc>
<speed>3.250000</speed>
</trkpt>
<trkpt lat="55.661697" lon="26.576254">
<ele>139.826294</ele>
<time>2010-07-18T11:40:53Z</time>
<desc>lat.=55.661697, lon.=26.576254, Alt.=139.826294m. Speed=9.396000m/h.</desc>
<speed>2.610000</speed>
</trkpt>
<trkpt lat="55.661720" lon="26.576315">
<ele>140.900513</ele>
<time>2010-07-18T11:40:54Z</time>
<desc>lat.=55.661720, lon.=26.576315, Alt.=140.900513m. Speed=14.112000m/h.</desc>
<speed>3.920000</speed>
</trkpt>
<trkpt lat="55.661724" lon="26.576387">
<ele>139.173950</ele>
<time>2010-07-18T11:40:55Z</time>
<desc>lat.=55.661724, lon.=26.576387, Alt.=139.173950m. Speed=12.096000m/h.</desc>
<speed>3.360000</speed>
</trkpt>
<trkpt lat="55.661739" lon="26.576454">
<ele>139.177856</ele>
<time>2010-07-18T11:40:56Z</time>
<desc>lat.=55.661739, lon.=26.576454, Alt.=139.177856m. Speed=14.184000m/h.</desc>
<speed>3.940000</speed>
</trkpt>
<trkpt lat="55.661758" lon="26.576511">
<ele>139.759888</ele>
<time>2010-07-18T11:40:57Z</time>
<desc>lat.=55.661758, lon.=26.576511, Alt.=139.759888m. Speed=12.564000m/h.</desc>
<speed>3.490000</speed>
</trkpt>
<trkpt lat="55.661774" lon="26.576567">
<ele>140.150513</ele>
<time>2010-07-18T11:40:58Z</time>
<desc>lat.=55.661774, lon.=26.576567, Alt.=140.150513m. Speed=11.268000m/h.</desc>
<speed>3.130000</speed>
</trkpt>
<trkpt lat="55.661785" lon="26.576637">
<ele>140.912231</ele>
<time>2010-07-18T11:40:59Z</time>
<desc>lat.=55.661785, lon.=26.576637, Alt.=140.912231m. Speed=10.800000m/h.</desc>
<speed>3.000000</speed>
</trkpt>
<trkpt lat="55.661789" lon="26.576694">
<ele>141.142700</ele>
<time>2010-07-18T11:41:00Z</time>
<desc>lat.=55.661789, lon.=26.576694, Alt.=141.142700m. Speed=11.520000m/h.</desc>
<speed>3.200000</speed>
</trkpt>
<trkpt lat="55.661797" lon="26.576756">
<ele>141.693481</ele>
<time>2010-07-18T11:41:01Z</time>
<desc>lat.=55.661797, lon.=26.576756, Alt.=141.693481m. Speed=12.096000m/h.</desc>
<speed>3.360000</speed>
</trkpt>
<trkpt lat="55.661804" lon="26.576828">
<ele>142.150513</ele>
<time>2010-07-18T11:41:02Z</time>
<desc>lat.=55.661804, lon.=26.576828, Alt.=142.150513m. Speed=11.916000m/h.</desc>
<speed>3.310000</speed>
</trkpt>
<trkpt lat="55.661816" lon="26.576899">
<ele>143.943481</ele>
<time>2010-07-18T11:41:03Z</time>
<desc>lat.=55.661816, lon.=26.576899, Alt.=143.943481m. Speed=11.880000m/h.</desc>
<speed>3.300000</speed>
</trkpt>
<trkpt lat="55.661823" lon="26.576977">
<ele>145.619263</ele>
<time>2010-07-18T11:41:04Z</time>
<desc>lat.=55.661823, lon.=26.576977, Alt.=145.619263m. Speed=13.032000m/h.</desc>
<speed>3.620000</speed>
</trkpt>
<trkpt lat="55.661827" lon="26.577055">
<ele>146.216919</ele>
<time>2010-07-18T11:41:05Z</time>
<desc>lat.=55.661827, lon.=26.577055, Alt.=146.216919m. Speed=13.824000m/h.</desc>
<speed>3.840000</speed>
</trkpt>
<trkpt lat="55.661831" lon="26.577129">
<ele>146.338013</ele>
<time>2010-07-18T11:41:06Z</time>
<desc>lat.=55.661831, lon.=26.577129, Alt.=146.338013m. Speed=12.600000m/h.</desc>
<speed>3.500000</speed>
</trkpt>
<trkpt lat="55.661831" lon="26.577217">
<ele>144.759888</ele>
<time>2010-07-18T11:41:07Z</time>
<desc>lat.=55.661831, lon.=26.577217, Alt.=144.759888m. Speed=12.636000m/h.</desc>
<speed>3.510000</speed>
</trkpt>
<trkpt lat="55.661831" lon="26.577286">
<ele>146.275513</ele>
<time>2010-07-18T11:41:08Z</time>
<desc>lat.=55.661831, lon.=26.577286, Alt.=146.275513m. Speed=11.160000m/h.</desc>
<speed>3.100000</speed>
</trkpt>
<trkpt lat="55.661827" lon="26.577356">
<ele>147.228638</ele>
<time>2010-07-18T11:41:09Z</time>
<desc>lat.=55.661827, lon.=26.577356, Alt.=147.228638m. Speed=11.376000m/h.</desc>
<speed>3.160000</speed>
</trkpt>
<trkpt lat="55.661819" lon="26.577448">
<ele>147.912231</ele>
<time>2010-07-18T11:41:10Z</time>
<desc>lat.=55.661819, lon.=26.577448, Alt.=147.912231m. Speed=15.984000m/h.</desc>
<speed>4.440000</speed>
</trkpt>
<trkpt lat="55.661816" lon="26.577541">
<ele>149.091919</ele>
<time>2010-07-18T11:41:11Z</time>
<desc>lat.=55.661816, lon.=26.577541, Alt.=149.091919m. Speed=14.508000m/h.</desc>
<speed>4.030000</speed>
</trkpt>
<trkpt lat="55.661808" lon="26.577620">
<ele>148.236450</ele>
<time>2010-07-18T11:41:12Z</time>
<desc>lat.=55.661808, lon.=26.577620, Alt.=148.236450m. Speed=12.132000m/h.</desc>
<speed>3.370000</speed>
</trkpt>
<trkpt lat="55.661804" lon="26.577692">
<ele>148.412231</ele>
<time>2010-07-18T11:41:13Z</time>
<desc>lat.=55.661804, lon.=26.577692, Alt.=148.412231m. Speed=13.032000m/h.</desc>
<speed>3.620000</speed>
</trkpt>
<trkpt lat="55.661781" lon="26.577791">
<ele>146.455200</ele>
<time>2010-07-18T11:41:14Z</time>
<desc>lat.=55.661781, lon.=26.577791, Alt.=146.455200m. Speed=15.408000m/h.</desc>
<speed>4.280000</speed>
</trkpt>
<trkpt lat="55.661758" lon="26.577900">
<ele>145.615356</ele>
<time>2010-07-18T11:41:15Z</time>
<desc>lat.=55.661758, lon.=26.577900, Alt.=145.615356m. Speed=17.459999m/h.</desc>
<speed>4.850000</speed>
</trkpt>
<trkpt lat="55.661736" lon="26.577999">
<ele>145.505981</ele>
<time>2010-07-18T11:41:16Z</time>
<desc>lat.=55.661736, lon.=26.577999, Alt.=145.505981m. Speed=15.696000m/h.</desc>
<speed>4.360000</speed>
</trkpt>
<trkpt lat="55.661713" lon="26.578089">
<ele>144.197388</ele>
<time>2010-07-18T11:41:17Z</time>
<desc>lat.=55.661713, lon.=26.578089, Alt.=144.197388m. Speed=14.760000m/h.</desc>
<speed>4.100000</speed>
</trkpt>
<trkpt lat="55.661682" lon="26.578171">
<ele>143.572388</ele>
<time>2010-07-18T11:41:18Z</time>
<desc>lat.=55.661682, lon.=26.578171, Alt.=143.572388m. Speed=15.444000m/h.</desc>
<speed>4.290000</speed>
</trkpt>
<trkpt lat="55.661667" lon="26.578238">
<ele>143.232544</ele>
<time>2010-07-18T11:41:19Z</time>
<desc>lat.=55.661667, lon.=26.578238, Alt.=143.232544m. Speed=12.456000m/h.</desc>
<speed>3.460000</speed>
</trkpt>
<trkpt lat="55.661652" lon="26.578306">
<ele>143.857544</ele>
<time>2010-07-18T11:41:20Z</time>
<desc>lat.=55.661652, lon.=26.578306, Alt.=143.857544m. Speed=12.384000m/h.</desc>
<speed>3.440000</speed>
</trkpt>
<trkpt lat="55.661629" lon="26.578375">
<ele>143.009888</ele>
<time>2010-07-18T11:41:21Z</time>
<desc>lat.=55.661629, lon.=26.578375, Alt.=143.009888m. Speed=14.544000m/h.</desc>
<speed>4.040000</speed>
</trkpt>
<trkpt lat="55.661613" lon="26.578438">
<ele>142.771606</ele>
<time>2010-07-18T11:41:22Z</time>
<desc>lat.=55.661613, lon.=26.578438, Alt.=142.771606m. Speed=13.968000m/h.</desc>
<speed>3.880000</speed>
</trkpt>
<trkpt lat="55.661598" lon="26.578495">
<ele>143.384888</ele>
<time>2010-07-18T11:41:23Z</time>
<desc>lat.=55.661598, lon.=26.578495, Alt.=143.384888m. Speed=12.708000m/h.</desc>
<speed>3.530000</speed>
</trkpt>
<trkpt lat="55.661587" lon="26.578552">
<ele>143.470825</ele>
<time>2010-07-18T11:41:24Z</time>
<desc>lat.=55.661587, lon.=26.578552, Alt.=143.470825m. Speed=12.924000m/h.</desc>
<speed>3.590000</speed>
</trkpt>
<trkpt lat="55.661568" lon="26.578608">
<ele>143.931763</ele>
<time>2010-07-18T11:41:25Z</time>
<desc>lat.=55.661568, lon.=26.578608, Alt.=143.931763m. Speed=11.268000m/h.</desc>
<speed>3.130000</speed>
</trkpt>
<trkpt lat="55.661552" lon="26.578661">
<ele>144.646606</ele>
<time>2010-07-18T11:41:26Z</time>
<desc>lat.=55.661552, lon.=26.578661, Alt.=144.646606m. Speed=11.844000m/h.</desc>
<speed>3.290000</speed>
</trkpt>
<trkpt lat="55.661533" lon="26.578720">
<ele>143.416138</ele>
<time>2010-07-18T11:41:27Z</time>
<desc>lat.=55.661533, lon.=26.578720, Alt.=143.416138m. Speed=6.804000m/h.</desc>
<speed>1.890000</speed>
</trkpt>
<trkpt lat="55.661526" lon="26.578770">
<ele>142.884888</ele>
<time>2010-07-18T11:41:28Z</time>
<desc>lat.=55.661526, lon.=26.578770, Alt.=142.884888m. Speed=11.232000m/h.</desc>
<speed>3.120000</speed>
</trkpt>
<trkpt lat="55.661510" lon="26.578821">
<ele>142.795044</ele>
<time>2010-07-18T11:41:29Z</time>
<desc>lat.=55.661510, lon.=26.578821, Alt.=142.795044m. Speed=9.000000m/h.</desc>
<speed>2.500000</speed>
</trkpt>
<trkpt lat="55.661491" lon="26.578865">
<ele>142.638794</ele>
<time>2010-07-18T11:41:30Z</time>
<desc>lat.=55.661491, lon.=26.578865, Alt.=142.638794m. Speed=8.100000m/h.</desc>
<speed>2.250000</speed>
</trkpt>
<trkpt lat="55.661469" lon="26.578918">
<ele>141.923950</ele>
<time>2010-07-18T11:41:31Z</time>
<desc>lat.=55.661469, lon.=26.578918, Alt.=141.923950m. Speed=9.252000m/h.</desc>
<speed>2.570000</speed>
</trkpt>
<trkpt lat="55.661449" lon="26.578966">
<ele>142.298950</ele>
<time>2010-07-18T11:41:32Z</time>
<desc>lat.=55.661449, lon.=26.578966, Alt.=142.298950m. Speed=8.100000m/h.</desc>
<speed>2.250000</speed>
</trkpt>
<trkpt lat="55.661427" lon="26.579016">
<ele>141.865356</ele>
<time>2010-07-18T11:41:33Z</time>
<desc>lat.=55.661427, lon.=26.579016, Alt.=141.865356m. Speed=11.592000m/h.</desc>
<speed>3.220000</speed>
</trkpt>
<trkpt lat="55.661407" lon="26.579069">
<ele>141.677856</ele>
<time>2010-07-18T11:41:34Z</time>
<desc>lat.=55.661407, lon.=26.579069, Alt.=141.677856m. Speed=10.512000m/h.</desc>
<speed>2.920000</speed>
</trkpt>
<trkpt lat="55.661377" lon="26.579128">
<ele>139.658325</ele>
<time>2010-07-18T11:41:35Z</time>
<desc>lat.=55.661377, lon.=26.579128, Alt.=139.658325m. Speed=10.980000m/h.</desc>
<speed>3.050000</speed>
</trkpt>
<trkpt lat="55.661354" lon="26.579176">
<ele>138.302856</ele>
<time>2010-07-18T11:41:36Z</time>
<desc>lat.=55.661354, lon.=26.579176, Alt.=138.302856m. Speed=9.900000m/h.</desc>
<speed>2.750000</speed>
</trkpt>
<trkpt lat="55.661335" lon="26.579218">
<ele>138.595825</ele>
<time>2010-07-18T11:41:37Z</time>
<desc>lat.=55.661335, lon.=26.579218, Alt.=138.595825m. Speed=9.108000m/h.</desc>
<speed>2.530000</speed>
</trkpt>
<trkpt lat="55.661320" lon="26.579258">
<ele>138.810669</ele>
<time>2010-07-18T11:41:38Z</time>
<desc>lat.=55.661320, lon.=26.579258, Alt.=138.810669m. Speed=8.892000m/h.</desc>
<speed>2.470000</speed>
</trkpt>
<trkpt lat="55.661301" lon="26.579288">
<ele>138.963013</ele>
<time>2010-07-18T11:41:39Z</time>
<desc>lat.=55.661301, lon.=26.579288, Alt.=138.963013m. Speed=4.824000m/h.</desc>
<speed>1.340000</speed>
</trkpt>
<trkpt lat="55.661285" lon="26.579327">
<ele>139.705200</ele>
<time>2010-07-18T11:41:40Z</time>
<desc>lat.=55.661285, lon.=26.579327, Alt.=139.705200m. Speed=7.056000m/h.</desc>
<speed>1.960000</speed>
</trkpt>
<trkpt lat="55.661270" lon="26.579378">
<ele>140.431763</ele>
<time>2010-07-18T11:41:41Z</time>
<desc>lat.=55.661270, lon.=26.579378, Alt.=140.431763m. Speed=9.504000m/h.</desc>
<speed>2.640000</speed>
</trkpt>
<trkpt lat="55.661247" lon="26.579422">
<ele>140.904419</ele>
<time>2010-07-18T11:41:42Z</time>
<desc>lat.=55.661247, lon.=26.579422, Alt.=140.904419m. Speed=9.864000m/h.</desc>
<speed>2.740000</speed>
</trkpt>
<trkpt lat="55.661232" lon="26.579462">
<ele>141.959106</ele>
<time>2010-07-18T11:41:43Z</time>
<desc>lat.=55.661232, lon.=26.579462, Alt.=141.959106m. Speed=5.688000m/h.</desc>
<speed>1.580000</speed>
</trkpt>
<trkpt lat="55.661221" lon="26.579491">
<ele>142.416138</ele>
<time>2010-07-18T11:41:44Z</time>
<desc>lat.=55.661221, lon.=26.579491, Alt.=142.416138m. Speed=6.120000m/h.</desc>
<speed>1.700000</speed>
</trkpt>
<trkpt lat="55.661205" lon="26.579523">
<ele>142.982544</ele>
<time>2010-07-18T11:41:45Z</time>
<desc>lat.=55.661205, lon.=26.579523, Alt.=142.982544m. Speed=7.452000m/h.</desc>
<speed>2.070000</speed>
</trkpt>
<trkpt lat="55.661198" lon="26.579561">
<ele>143.896606</ele>
<time>2010-07-18T11:41:46Z</time>
<desc>lat.=55.661198, lon.=26.579561, Alt.=143.896606m. Speed=6.984000m/h.</desc>
<speed>1.940000</speed>
</trkpt>
<trkpt lat="55.661186" lon="26.579582">
<ele>145.552856</ele>
<time>2010-07-18T11:41:47Z</time>
<desc>lat.=55.661186, lon.=26.579582, Alt.=145.552856m. Speed=5.616000m/h.</desc>
<speed>1.560000</speed>
</trkpt>
<trkpt lat="55.661171" lon="26.579603">
<ele>146.373169</ele>
<time>2010-07-18T11:41:48Z</time>
<desc>lat.=55.661171, lon.=26.579603, Alt.=146.373169m. Speed=4.176000m/h.</desc>
<speed>1.160000</speed>
</trkpt>
<trkpt lat="55.661160" lon="26.579634">
<ele>147.236450</ele>
<time>2010-07-18T11:41:49Z</time>
<desc>lat.=55.661160, lon.=26.579634, Alt.=147.236450m. Speed=4.680000m/h.</desc>
<speed>1.300000</speed>
</trkpt>
<trkpt lat="55.661156" lon="26.579666">
<ele>148.498169</ele>
<time>2010-07-18T11:41:50Z</time>
<desc>lat.=55.661156, lon.=26.579666, Alt.=148.498169m. Speed=4.788000m/h.</desc>
<speed>1.330000</speed>
</trkpt>
<trkpt lat="55.661137" lon="26.579708">
<ele>149.701294</ele>
<time>2010-07-18T11:41:51Z</time>
<desc>lat.=55.661137, lon.=26.579708, Alt.=149.701294m. Speed=8.352000m/h.</desc>
<speed>2.320000</speed>
</trkpt>
<trkpt lat="55.661121" lon="26.579752">
<ele>150.388794</ele>
<time>2010-07-18T11:41:52Z</time>
<desc>lat.=55.661121, lon.=26.579752, Alt.=150.388794m. Speed=7.560000m/h.</desc>
<speed>2.100000</speed>
</trkpt>
<trkpt lat="55.661106" lon="26.579809">
<ele>150.361450</ele>
<time>2010-07-18T11:41:53Z</time>
<desc>lat.=55.661106, lon.=26.579809, Alt.=150.361450m. Speed=10.836000m/h.</desc>
<speed>3.010000</speed>
</trkpt>
<trkpt lat="55.661095" lon="26.579887">
<ele>149.470825</ele>
<time>2010-07-18T11:41:54Z</time>
<desc>lat.=55.661095, lon.=26.579887, Alt.=149.470825m. Speed=10.152000m/h.</desc>
<speed>2.820000</speed>
</trkpt>
<trkpt lat="55.661079" lon="26.579935">
<ele>150.115356</ele>
<time>2010-07-18T11:41:55Z</time>
<desc>lat.=55.661079, lon.=26.579935, Alt.=150.115356m. Speed=8.712000m/h.</desc>
<speed>2.420000</speed>
</trkpt>
<trkpt lat="55.661068" lon="26.579992">
<ele>149.654419</ele>
<time>2010-07-18T11:41:56Z</time>
<desc>lat.=55.661068, lon.=26.579992, Alt.=149.654419m. Speed=8.604000m/h.</desc>
<speed>2.390000</speed>
</trkpt>
<trkpt lat="55.661045" lon="26.580059">
<ele>148.142700</ele>
<time>2010-07-18T11:41:57Z</time>
<desc>lat.=55.661045, lon.=26.580059, Alt.=148.142700m. Speed=8.568000m/h.</desc>
<speed>2.380000</speed>
</trkpt>
<trkpt lat="55.661026" lon="26.580116">
<ele>148.642700</ele>
<time>2010-07-18T11:41:58Z</time>
<desc>lat.=55.661026, lon.=26.580116, Alt.=148.642700m. Speed=10.980000m/h.</desc>
<speed>3.050000</speed>
</trkpt>
<trkpt lat="55.661015" lon="26.580172">
<ele>148.107544</ele>
<time>2010-07-18T11:41:59Z</time>
<desc>lat.=55.661015, lon.=26.580172, Alt.=148.107544m. Speed=10.188000m/h.</desc>
<speed>2.830000</speed>
</trkpt>
<trkpt lat="55.660992" lon="26.580233">
<ele>146.685669</ele>
<time>2010-07-18T11:42:00Z</time>
<desc>lat.=55.660992, lon.=26.580233, Alt.=146.685669m. Speed=11.304000m/h.</desc>
<speed>3.140000</speed>
</trkpt>
<trkpt lat="55.660973" lon="26.580290">
<ele>146.377075</ele>
<time>2010-07-18T11:42:01Z</time>
<desc>lat.=55.660973, lon.=26.580290, Alt.=146.377075m. Speed=12.312000m/h.</desc>
<speed>3.420000</speed>
</trkpt>
<trkpt lat="55.660957" lon="26.580349">
<ele>146.181763</ele>
<time>2010-07-18T11:42:02Z</time>
<desc>lat.=55.660957, lon.=26.580349, Alt.=146.181763m. Speed=12.096000m/h.</desc>
<speed>3.360000</speed>
</trkpt>
<trkpt lat="55.660942" lon="26.580395">
<ele>145.873169</ele>
<time>2010-07-18T11:42:03Z</time>
<desc>lat.=55.660942, lon.=26.580395, Alt.=145.873169m. Speed=9.108000m/h.</desc>
<speed>2.530000</speed>
</trkpt>
<trkpt lat="55.660931" lon="26.580448">
<ele>145.998169</ele>
<time>2010-07-18T11:42:04Z</time>
<desc>lat.=55.660931, lon.=26.580448, Alt.=145.998169m. Speed=10.152000m/h.</desc>
<speed>2.820000</speed>
</trkpt>
<trkpt lat="55.660919" lon="26.580502">
<ele>145.849731</ele>
<time>2010-07-18T11:42:05Z</time>
<desc>lat.=55.660919, lon.=26.580502, Alt.=145.849731m. Speed=11.520000m/h.</desc>
<speed>3.200000</speed>
</trkpt>
<trkpt lat="55.660904" lon="26.580557">
<ele>146.091919</ele>
<time>2010-07-18T11:42:06Z</time>
<desc>lat.=55.660904, lon.=26.580557, Alt.=146.091919m. Speed=12.492000m/h.</desc>
<speed>3.470000</speed>
</trkpt>
<trkpt lat="55.660889" lon="26.580620">
<ele>145.841919</ele>
<time>2010-07-18T11:42:07Z</time>
<desc>lat.=55.660889, lon.=26.580620, Alt.=145.841919m. Speed=13.752000m/h.</desc>
<speed>3.820000</speed>
</trkpt>
<trkpt lat="55.660881" lon="26.580681">
<ele>147.236450</ele>
<time>2010-07-18T11:42:08Z</time>
<desc>lat.=55.660881, lon.=26.580681, Alt.=147.236450m. Speed=12.708000m/h.</desc>
<speed>3.530000</speed>
</trkpt>
<trkpt lat="55.660870" lon="26.580742">
<ele>147.564575</ele>
<time>2010-07-18T11:42:09Z</time>
<desc>lat.=55.660870, lon.=26.580742, Alt.=147.564575m. Speed=13.752000m/h.</desc>
<speed>3.820000</speed>
</trkpt>
<trkpt lat="55.660870" lon="26.580797">
<ele>147.638794</ele>
<time>2010-07-18T11:42:10Z</time>
<desc>lat.=55.660870, lon.=26.580797, Alt.=147.638794m. Speed=10.404000m/h.</desc>
<speed>2.890000</speed>
</trkpt>
<trkpt lat="55.660862" lon="26.580845">
<ele>147.728638</ele>
<time>2010-07-18T11:42:11Z</time>
<desc>lat.=55.660862, lon.=26.580845, Alt.=147.728638m. Speed=9.792000m/h.</desc>
<speed>2.720000</speed>
</trkpt>
<trkpt lat="55.660839" lon="26.580904">
<ele>147.470825</ele>
<time>2010-07-18T11:42:12Z</time>
<desc>lat.=55.660839, lon.=26.580904, Alt.=147.470825m. Speed=8.856000m/h.</desc>
<speed>2.460000</speed>
</trkpt>
<trkpt lat="55.660828" lon="26.580954">
<ele>147.322388</ele>
<time>2010-07-18T11:42:13Z</time>
<desc>lat.=55.660828, lon.=26.580954, Alt.=147.322388m. Speed=9.072000m/h.</desc>
<speed>2.520000</speed>
</trkpt>
<trkpt lat="55.660824" lon="26.581001">
<ele>147.693481</ele>
<time>2010-07-18T11:42:14Z</time>
<desc>lat.=55.660824, lon.=26.581001, Alt.=147.693481m. Speed=9.216000m/h.</desc>
<speed>2.560000</speed>
</trkpt>
<trkpt lat="55.660801" lon="26.581057">
<ele>148.185669</ele>
<time>2010-07-18T11:42:15Z</time>
<desc>lat.=55.660801, lon.=26.581057, Alt.=148.185669m. Speed=12.672000m/h.</desc>
<speed>3.520000</speed>
</trkpt>
<trkpt lat="55.660789" lon="26.581110">
<ele>148.923950</ele>
<time>2010-07-18T11:42:16Z</time>
<desc>lat.=55.660789, lon.=26.581110, Alt.=148.923950m. Speed=11.592000m/h.</desc>
<speed>3.220000</speed>
</trkpt>
<trkpt lat="55.660782" lon="26.581161">
<ele>149.642700</ele>
<time>2010-07-18T11:42:17Z</time>
<desc>lat.=55.660782, lon.=26.581161, Alt.=149.642700m. Speed=10.692000m/h.</desc>
<speed>2.970000</speed>
</trkpt>
<trkpt lat="55.660774" lon="26.581215">
<ele>150.646606</ele>
<time>2010-07-18T11:42:18Z</time>
<desc>lat.=55.660774, lon.=26.581215, Alt.=150.646606m. Speed=12.888000m/h.</desc>
<speed>3.580000</speed>
</trkpt>
<trkpt lat="55.660767" lon="26.581272">
<ele>150.853638</ele>
<time>2010-07-18T11:42:19Z</time>
<desc>lat.=55.660767, lon.=26.581272, Alt.=150.853638m. Speed=11.844000m/h.</desc>
<speed>3.290000</speed>
</trkpt>
<trkpt lat="55.660751" lon="26.581331">
<ele>151.619263</ele>
<time>2010-07-18T11:42:20Z</time>
<desc>lat.=55.660751, lon.=26.581331, Alt.=151.619263m. Speed=11.916000m/h.</desc>
<speed>3.310000</speed>
</trkpt>
<trkpt lat="55.660736" lon="26.581406">
<ele>150.494263</ele>
<time>2010-07-18T11:42:21Z</time>
<desc>lat.=55.660736, lon.=26.581406, Alt.=150.494263m. Speed=12.348000m/h.</desc>
<speed>3.430000</speed>
</trkpt>
<trkpt lat="55.660728" lon="26.581472">
<ele>150.638794</ele>
<time>2010-07-18T11:42:22Z</time>
<desc>lat.=55.660728, lon.=26.581472, Alt.=150.638794m. Speed=12.744000m/h.</desc>
<speed>3.540000</speed>
</trkpt>
<trkpt lat="55.660721" lon="26.581551">
<ele>150.619263</ele>
<time>2010-07-18T11:42:23Z</time>
<desc>lat.=55.660721, lon.=26.581551, Alt.=150.619263m. Speed=14.472000m/h.</desc>
<speed>4.020000</speed>
</trkpt>
<trkpt lat="55.660709" lon="26.581617">
<ele>151.275513</ele>
<time>2010-07-18T11:42:24Z</time>
<desc>lat.=55.660709, lon.=26.581617, Alt.=151.275513m. Speed=14.688000m/h.</desc>
<speed>4.080000</speed>
</trkpt>
<trkpt lat="55.660694" lon="26.581684">
<ele>152.658325</ele>
<time>2010-07-18T11:42:25Z</time>
<desc>lat.=55.660694, lon.=26.581684, Alt.=152.658325m. Speed=14.904000m/h.</desc>
<speed>4.140000</speed>
</trkpt>
<trkpt lat="55.660679" lon="26.581751">
<ele>153.498169</ele>
<time>2010-07-18T11:42:26Z</time>
<desc>lat.=55.660679, lon.=26.581751, Alt.=153.498169m. Speed=15.336000m/h.</desc>
<speed>4.260000</speed>
</trkpt>
<trkpt lat="55.660667" lon="26.581821">
<ele>152.869263</ele>
<time>2010-07-18T11:42:27Z</time>
<desc>lat.=55.660667, lon.=26.581821, Alt.=152.869263m. Speed=13.860000m/h.</desc>
<speed>3.850000</speed>
</trkpt>
<trkpt lat="55.660641" lon="26.581888">
<ele>152.177856</ele>
<time>2010-07-18T11:42:28Z</time>
<desc>lat.=55.660641, lon.=26.581888, Alt.=152.177856m. Speed=14.220000m/h.</desc>
<speed>3.950000</speed>
</trkpt>
<trkpt lat="55.660622" lon="26.581951">
<ele>151.427856</ele>
<time>2010-07-18T11:42:29Z</time>
<desc>lat.=55.660622, lon.=26.581951, Alt.=151.427856m. Speed=14.940000m/h.</desc>
<speed>4.150000</speed>
</trkpt>
<trkpt lat="55.660606" lon="26.582022">
<ele>151.466919</ele>
<time>2010-07-18T11:42:30Z</time>
<desc>lat.=55.660606, lon.=26.582022, Alt.=151.466919m. Speed=15.048000m/h.</desc>
<speed>4.180000</speed>
</trkpt>
<trkpt lat="55.660587" lon="26.582096">
<ele>151.228638</ele>
<time>2010-07-18T11:42:31Z</time>
<desc>lat.=55.660587, lon.=26.582096, Alt.=151.228638m. Speed=18.684000m/h.</desc>
<speed>5.190000</speed>
</trkpt>
<trkpt lat="55.660576" lon="26.582193">
<ele>150.537231</ele>
<time>2010-07-18T11:42:32Z</time>
<desc>lat.=55.660576, lon.=26.582193, Alt.=150.537231m. Speed=19.044001m/h.</desc>
<speed>5.290000</speed>
</trkpt>
<trkpt lat="55.660557" lon="26.582273">
<ele>150.056763</ele>
<time>2010-07-18T11:42:33Z</time>
<desc>lat.=55.660557, lon.=26.582273, Alt.=150.056763m. Speed=18.180000m/h.</desc>
<speed>5.050000</speed>
</trkpt>
<trkpt lat="55.660538" lon="26.582350">
<ele>149.802856</ele>
<time>2010-07-18T11:42:34Z</time>
<desc>lat.=55.660538, lon.=26.582350, Alt.=149.802856m. Speed=17.532000m/h.</desc>
<speed>4.870000</speed>
</trkpt>
<trkpt lat="55.660522" lon="26.582434">
<ele>149.201294</ele>
<time>2010-07-18T11:42:35Z</time>
<desc>lat.=55.660522, lon.=26.582434, Alt.=149.201294m. Speed=18.827999m/h.</desc>
<speed>5.230000</speed>
</trkpt>
<trkpt lat="55.660503" lon="26.582516">
<ele>149.037231</ele>
<time>2010-07-18T11:42:36Z</time>
<desc>lat.=55.660503, lon.=26.582516, Alt.=149.037231m. Speed=17.243999m/h.</desc>
<speed>4.790000</speed>
</trkpt>
<trkpt lat="55.660488" lon="26.582594">
<ele>149.005981</ele>
<time>2010-07-18T11:42:37Z</time>
<desc>lat.=55.660488, lon.=26.582594, Alt.=149.005981m. Speed=16.236000m/h.</desc>
<speed>4.510000</speed>
</trkpt>
<trkpt lat="55.660469" lon="26.582664">
<ele>148.740356</ele>
<time>2010-07-18T11:42:38Z</time>
<desc>lat.=55.660469, lon.=26.582664, Alt.=148.740356m. Speed=14.868000m/h.</desc>
<speed>4.130000</speed>
</trkpt>
<trkpt lat="55.660446" lon="26.582729">
<ele>150.029419</ele>
<time>2010-07-18T11:42:39Z</time>
<desc>lat.=55.660446, lon.=26.582729, Alt.=150.029419m. Speed=14.148000m/h.</desc>
<speed>3.930000</speed>
</trkpt>
<trkpt lat="55.660427" lon="26.582788">
<ele>149.888794</ele>
<time>2010-07-18T11:42:40Z</time>
<desc>lat.=55.660427, lon.=26.582788, Alt.=149.888794m. Speed=13.644000m/h.</desc>
<speed>3.790000</speed>
</trkpt>
<trkpt lat="55.660416" lon="26.582844">
<ele>149.845825</ele>
<time>2010-07-18T11:42:41Z</time>
<desc>lat.=55.660416, lon.=26.582844, Alt.=149.845825m. Speed=12.492000m/h.</desc>
<speed>3.470000</speed>
</trkpt>
<trkpt lat="55.660404" lon="26.582895">
<ele>149.658325</ele>
<time>2010-07-18T11:42:42Z</time>
<desc>lat.=55.660404, lon.=26.582895, Alt.=149.658325m. Speed=11.160000m/h.</desc>
<speed>3.100000</speed>
</trkpt>
<trkpt lat="55.660393" lon="26.582943">
<ele>149.283325</ele>
<time>2010-07-18T11:42:43Z</time>
<desc>lat.=55.660393, lon.=26.582943, Alt.=149.283325m. Speed=9.396000m/h.</desc>
<speed>2.610000</speed>
</trkpt>
<trkpt lat="55.660378" lon="26.582989">
<ele>149.271606</ele>
<time>2010-07-18T11:42:44Z</time>
<desc>lat.=55.660378, lon.=26.582989, Alt.=149.271606m. Speed=11.772000m/h.</desc>
<speed>3.270000</speed>
</trkpt>
<trkpt lat="55.660366" lon="26.583029">
<ele>149.416138</ele>
<time>2010-07-18T11:42:45Z</time>
<desc>lat.=55.660366, lon.=26.583029, Alt.=149.416138m. Speed=7.632000m/h.</desc>
<speed>2.120000</speed>
</trkpt>
<trkpt lat="55.660355" lon="26.583059">
<ele>149.978638</ele>
<time>2010-07-18T11:42:46Z</time>
<desc>lat.=55.660355, lon.=26.583059, Alt.=149.978638m. Speed=7.380000m/h.</desc>
<speed>2.050000</speed>
</trkpt>
<trkpt lat="55.660351" lon="26.583096">
<ele>150.005981</ele>
<time>2010-07-18T11:42:47Z</time>
<desc>lat.=55.660351, lon.=26.583096, Alt.=150.005981m. Speed=6.228000m/h.</desc>
<speed>1.730000</speed>
</trkpt>
<trkpt lat="55.660343" lon="26.583126">
<ele>150.240356</ele>
<time>2010-07-18T11:42:48Z</time>
<desc>lat.=55.660343, lon.=26.583126, Alt.=150.240356m. Speed=6.624000m/h.</desc>
<speed>1.840000</speed>
</trkpt>
<trkpt lat="55.660339" lon="26.583155">
<ele>150.439575</ele>
<time>2010-07-18T11:42:49Z</time>
<desc>lat.=55.660339, lon.=26.583155, Alt.=150.439575m. Speed=5.256000m/h.</desc>
<speed>1.460000</speed>
</trkpt>
<trkpt lat="55.660332" lon="26.583197">
<ele>150.228638</ele>
<time>2010-07-18T11:42:50Z</time>
<desc>lat.=55.660332, lon.=26.583197, Alt.=150.228638m. Speed=3.996000m/h.</desc>
<speed>1.110000</speed>
</trkpt>
<trkpt lat="55.660316" lon="26.583239">
<ele>150.380981</ele>
<time>2010-07-18T11:42:51Z</time>
<desc>lat.=55.660316, lon.=26.583239, Alt.=150.380981m. Speed=8.424000m/h.</desc>
<speed>2.340000</speed>
</trkpt>
<trkpt lat="55.660309" lon="26.583273">
<ele>150.310669</ele>
<time>2010-07-18T11:42:52Z</time>
<desc>lat.=55.660309, lon.=26.583273, Alt.=150.310669m. Speed=5.580000m/h.</desc>
<speed>1.550000</speed>
</trkpt>
<trkpt lat="55.660297" lon="26.583309">
<ele>149.588013</ele>
<time>2010-07-18T11:42:53Z</time>
<desc>lat.=55.660297, lon.=26.583309, Alt.=149.588013m. Speed=5.544000m/h.</desc>
<speed>1.540000</speed>
</trkpt>
<trkpt lat="55.660286" lon="26.583347">
<ele>149.185669</ele>
<time>2010-07-18T11:42:54Z</time>
<desc>lat.=55.660286, lon.=26.583347, Alt.=149.185669m. Speed=6.120000m/h.</desc>
<speed>1.700000</speed>
</trkpt>
<trkpt lat="55.660267" lon="26.583385">
<ele>149.130981</ele>
<time>2010-07-18T11:42:55Z</time>
<desc>lat.=55.660267, lon.=26.583385, Alt.=149.130981m. Speed=5.580000m/h.</desc>
<speed>1.550000</speed>
</trkpt>
<trkpt lat="55.660259" lon="26.583420">
<ele>149.556763</ele>
<time>2010-07-18T11:42:56Z</time>
<desc>lat.=55.660259, lon.=26.583420, Alt.=149.556763m. Speed=8.352000m/h.</desc>
<speed>2.320000</speed>
</trkpt>
<trkpt lat="55.660248" lon="26.583447">
<ele>150.451294</ele>
<time>2010-07-18T11:42:57Z</time>
<desc>lat.=55.660248, lon.=26.583447, Alt.=150.451294m. Speed=6.516000m/h.</desc>
<speed>1.810000</speed>
</trkpt>
<trkpt lat="55.660236" lon="26.583475">
<ele>151.158325</ele>
<time>2010-07-18T11:42:58Z</time>
<desc>lat.=55.660236, lon.=26.583475, Alt.=151.158325m. Speed=6.948000m/h.</desc>
<speed>1.930000</speed>
</trkpt>
<trkpt lat="55.660225" lon="26.583513">
<ele>151.572388</ele>
<time>2010-07-18T11:42:59Z</time>
<desc>lat.=55.660225, lon.=26.583513, Alt.=151.572388m. Speed=6.840000m/h.</desc>
<speed>1.900000</speed>
</trkpt>
<trkpt lat="55.660213" lon="26.583546">
<ele>151.810669</ele>
<time>2010-07-18T11:43:00Z</time>
<desc>lat.=55.660213, lon.=26.583546, Alt.=151.810669m. Speed=6.120000m/h.</desc>
<speed>1.700000</speed>
</trkpt>
<trkpt lat="55.660202" lon="26.583576">
<ele>151.873169</ele>
<time>2010-07-18T11:43:01Z</time>
<desc>lat.=55.660202, lon.=26.583576, Alt.=151.873169m. Speed=7.056000m/h.</desc>
<speed>1.960000</speed>
</trkpt>
<trkpt lat="55.660187" lon="26.583605">
<ele>152.025513</ele>
<time>2010-07-18T11:43:02Z</time>
<desc>lat.=55.660187, lon.=26.583605, Alt.=152.025513m. Speed=5.256000m/h.</desc>
<speed>1.460000</speed>
</trkpt>
<trkpt lat="55.660179" lon="26.583624">
<ele>152.502075</ele>
<time>2010-07-18T11:43:03Z</time>
<desc>lat.=55.660179, lon.=26.583624, Alt.=152.502075m. Speed=5.508000m/h.</desc>
<speed>1.530000</speed>
</trkpt>
<trkpt lat="55.660168" lon="26.583651">
<ele>152.533325</ele>
<time>2010-07-18T11:43:04Z</time>
<desc>lat.=55.660168, lon.=26.583651, Alt.=152.533325m. Speed=6.048000m/h.</desc>
<speed>1.680000</speed>
</trkpt>
<trkpt lat="55.660152" lon="26.583683">
<ele>152.900513</ele>
<time>2010-07-18T11:43:05Z</time>
<desc>lat.=55.660152, lon.=26.583683, Alt.=152.900513m. Speed=6.660000m/h.</desc>
<speed>1.850000</speed>
</trkpt>
<trkpt lat="55.660149" lon="26.583704">
<ele>153.373169</ele>
<time>2010-07-18T11:43:06Z</time>
<desc>lat.=55.660149, lon.=26.583704, Alt.=153.373169m. Speed=3.600000m/h.</desc>
<speed>1.000000</speed>
</trkpt>
<trkpt lat="55.660141" lon="26.583725">
<ele>153.845825</ele>
<time>2010-07-18T11:43:07Z</time>
<desc>lat.=55.660141, lon.=26.583725, Alt.=153.845825m. Speed=4.320000m/h.</desc>
<speed>1.200000</speed>
</trkpt>
<trkpt lat="55.660126" lon="26.583754">
<ele>153.920044</ele>
<time>2010-07-18T11:43:08Z</time>
<desc>lat.=55.660126, lon.=26.583754, Alt.=153.920044m. Speed=8.244000m/h.</desc>
<speed>2.290000</speed>
</trkpt>
<trkpt lat="55.660107" lon="26.583786">
<ele>154.568481</ele>
<time>2010-07-18T11:43:09Z</time>
<desc>lat.=55.660107, lon.=26.583786, Alt.=154.568481m. Speed=9.468000m/h.</desc>
<speed>2.630000</speed>
</trkpt>
<trkpt lat="55.660088" lon="26.583822">
<ele>155.205200</ele>
<time>2010-07-18T11:43:10Z</time>
<desc>lat.=55.660088, lon.=26.583822, Alt.=155.205200m. Speed=10.332000m/h.</desc>
<speed>2.870000</speed>
</trkpt>
<trkpt lat="55.660072" lon="26.583857">
<ele>155.638794</ele>
<time>2010-07-18T11:43:11Z</time>
<desc>lat.=55.660072, lon.=26.583857, Alt.=155.638794m. Speed=7.416000m/h.</desc>
<speed>2.060000</speed>
</trkpt>
<trkpt lat="55.660061" lon="26.583885">
<ele>155.830200</ele>
<time>2010-07-18T11:43:12Z</time>
<desc>lat.=55.660061, lon.=26.583885, Alt.=155.830200m. Speed=5.508000m/h.</desc>
<speed>1.530000</speed>
</trkpt>
<trkpt lat="55.660046" lon="26.583916">
<ele>155.818481</ele>
<time>2010-07-18T11:43:13Z</time>
<desc>lat.=55.660046, lon.=26.583916, Alt.=155.818481m. Speed=6.480000m/h.</desc>
<speed>1.800000</speed>
</trkpt>
<trkpt lat="55.660030" lon="26.583948">
<ele>155.584106</ele>
<time>2010-07-18T11:43:14Z</time>
<desc>lat.=55.660030, lon.=26.583948, Alt.=155.584106m. Speed=6.336000m/h.</desc>
<speed>1.760000</speed>
</trkpt>
<trkpt lat="55.660011" lon="26.583984">
<ele>155.220825</ele>
<time>2010-07-18T11:43:15Z</time>
<desc>lat.=55.660011, lon.=26.583984, Alt.=155.220825m. Speed=7.344000m/h.</desc>
<speed>2.040000</speed>
</trkpt>
<trkpt lat="55.659988" lon="26.584028">
<ele>155.037231</ele>
<time>2010-07-18T11:43:16Z</time>
<desc>lat.=55.659988, lon.=26.584028, Alt.=155.037231m. Speed=9.036000m/h.</desc>
<speed>2.510000</speed>
</trkpt>
<trkpt lat="55.659977" lon="26.584064">
<ele>155.310669</ele>
<time>2010-07-18T11:43:17Z</time>
<desc>lat.=55.659977, lon.=26.584064, Alt.=155.310669m. Speed=8.676000m/h.</desc>
<speed>2.410000</speed>
</trkpt>
<trkpt lat="55.659966" lon="26.584103">
<ele>155.697388</ele>
<time>2010-07-18T11:43:18Z</time>
<desc>lat.=55.659966, lon.=26.584103, Alt.=155.697388m. Speed=8.496000m/h.</desc>
<speed>2.360000</speed>
</trkpt>
<trkpt lat="55.659935" lon="26.584146">
<ele>155.029419</ele>
<time>2010-07-18T11:43:19Z</time>
<desc>lat.=55.659935, lon.=26.584146, Alt.=155.029419m. Speed=9.684000m/h.</desc>
<speed>2.690000</speed>
</trkpt>
<trkpt lat="55.659916" lon="26.584187">
<ele>154.779419</ele>
<time>2010-07-18T11:43:20Z</time>
<desc>lat.=55.659916, lon.=26.584187, Alt.=154.779419m. Speed=9.468000m/h.</desc>
<speed>2.630000</speed>
</trkpt>
<trkpt lat="55.659889" lon="26.584238">
<ele>154.033325</ele>
<time>2010-07-18T11:43:21Z</time>
<desc>lat.=55.659889, lon.=26.584238, Alt.=154.033325m. Speed=10.224000m/h.</desc>
<speed>2.840000</speed>
</trkpt>
<trkpt lat="55.659866" lon="26.584290">
<ele>153.834106</ele>
<time>2010-07-18T11:43:22Z</time>
<desc>lat.=55.659866, lon.=26.584290, Alt.=153.834106m. Speed=11.736000m/h.</desc>
<speed>3.260000</speed>
</trkpt>
<trkpt lat="55.659847" lon="26.584337">
<ele>154.556763</ele>
<time>2010-07-18T11:43:23Z</time>
<desc>lat.=55.659847, lon.=26.584337, Alt.=154.556763m. Speed=12.060000m/h.</desc>
<speed>3.350000</speed>
</trkpt>
<trkpt lat="55.659824" lon="26.584393">
<ele>154.060669</ele>
<time>2010-07-18T11:43:24Z</time>
<desc>lat.=55.659824, lon.=26.584393, Alt.=154.060669m. Speed=10.980000m/h.</desc>
<speed>3.050000</speed>
</trkpt>
<trkpt lat="55.659801" lon="26.584446">
<ele>154.099731</ele>
<time>2010-07-18T11:43:25Z</time>
<desc>lat.=55.659801, lon.=26.584446, Alt.=154.099731m. Speed=11.664000m/h.</desc>
<speed>3.240000</speed>
</trkpt>
<trkpt lat="55.659782" lon="26.584499">
<ele>154.369263</ele>
<time>2010-07-18T11:43:26Z</time>
<desc>lat.=55.659782, lon.=26.584499, Alt.=154.369263m. Speed=12.384000m/h.</desc>
<speed>3.440000</speed>
</trkpt>
<trkpt lat="55.659763" lon="26.584553">
<ele>154.447388</ele>
<time>2010-07-18T11:43:27Z</time>
<desc>lat.=55.659763, lon.=26.584553, Alt.=154.447388m. Speed=11.340000m/h.</desc>
<speed>3.150000</speed>
</trkpt>
<trkpt lat="55.659752" lon="26.584599">
<ele>154.728638</ele>
<time>2010-07-18T11:43:28Z</time>
<desc>lat.=55.659752, lon.=26.584599, Alt.=154.728638m. Speed=9.072000m/h.</desc>
<speed>2.520000</speed>
</trkpt>
<trkpt lat="55.659744" lon="26.584635">
<ele>154.595825</ele>
<time>2010-07-18T11:43:29Z</time>
<desc>lat.=55.659744, lon.=26.584635, Alt.=154.595825m. Speed=7.992000m/h.</desc>
<speed>2.220000</speed>
</trkpt>
<trkpt lat="55.659729" lon="26.584677">
<ele>155.068481</ele>
<time>2010-07-18T11:43:30Z</time>
<desc>lat.=55.659729, lon.=26.584677, Alt.=155.068481m. Speed=8.280000m/h.</desc>
<speed>2.300000</speed>
</trkpt>
<trkpt lat="55.659714" lon="26.584721">
<ele>154.588013</ele>
<time>2010-07-18T11:43:31Z</time>
<desc>lat.=55.659714, lon.=26.584721, Alt.=154.588013m. Speed=8.928000m/h.</desc>
<speed>2.480000</speed>
</trkpt>
<trkpt lat="55.659698" lon="26.584763">
<ele>154.232544</ele>
<time>2010-07-18T11:43:32Z</time>
<desc>lat.=55.659698, lon.=26.584763, Alt.=154.232544m. Speed=10.368000m/h.</desc>
<speed>2.880000</speed>
</trkpt>
<trkpt lat="55.659691" lon="26.584805">
<ele>154.259888</ele>
<time>2010-07-18T11:43:33Z</time>
<desc>lat.=55.659691, lon.=26.584805, Alt.=154.259888m. Speed=8.784000m/h.</desc>
<speed>2.440000</speed>
</trkpt>
<trkpt lat="55.659679" lon="26.584845">
<ele>154.060669</ele>
<time>2010-07-18T11:43:34Z</time>
<desc>lat.=55.659679, lon.=26.584845, Alt.=154.060669m. Speed=8.208000m/h.</desc>
<speed>2.280000</speed>
</trkpt>
<trkpt lat="55.659672" lon="26.584888">
<ele>153.978638</ele>
<time>2010-07-18T11:43:35Z</time>
<desc>lat.=55.659672, lon.=26.584888, Alt.=153.978638m. Speed=10.332000m/h.</desc>
<speed>2.870000</speed>
</trkpt>
<trkpt lat="55.659664" lon="26.584934">
<ele>153.845825</ele>
<time>2010-07-18T11:43:36Z</time>
<desc>lat.=55.659664, lon.=26.584934, Alt.=153.845825m. Speed=9.396000m/h.</desc>
<speed>2.610000</speed>
</trkpt>
<trkpt lat="55.659649" lon="26.584991">
<ele>152.861450</ele>
<time>2010-07-18T11:43:37Z</time>
<desc>lat.=55.659649, lon.=26.584991, Alt.=152.861450m. Speed=10.980000m/h.</desc>
<speed>3.050000</speed>
</trkpt>
<trkpt lat="55.659630" lon="26.585043">
<ele>152.533325</ele>
<time>2010-07-18T11:43:38Z</time>
<desc>lat.=55.659630, lon.=26.585043, Alt.=152.533325m. Speed=11.304000m/h.</desc>
<speed>3.140000</speed>
</trkpt>
<trkpt lat="55.659607" lon="26.585098">
<ele>151.216919</ele>
<time>2010-07-18T11:43:39Z</time>
<desc>lat.=55.659607, lon.=26.585098, Alt.=151.216919m. Speed=12.060000m/h.</desc>
<speed>3.350000</speed>
</trkpt>
<trkpt lat="55.659588" lon="26.585152">
<ele>150.509888</ele>
<time>2010-07-18T11:43:40Z</time>
<desc>lat.=55.659588, lon.=26.585152, Alt.=150.509888m. Speed=11.124000m/h.</desc>
<speed>3.090000</speed>
</trkpt>
<trkpt lat="55.659573" lon="26.585197">
<ele>150.318481</ele>
<time>2010-07-18T11:43:41Z</time>
<desc>lat.=55.659573, lon.=26.585197, Alt.=150.318481m. Speed=10.548000m/h.</desc>
<speed>2.930000</speed>
</trkpt>
<trkpt lat="55.659557" lon="26.585251">
<ele>150.451294</ele>
<time>2010-07-18T11:43:42Z</time>
<desc>lat.=55.659557, lon.=26.585251, Alt.=150.451294m. Speed=11.376000m/h.</desc>
<speed>3.160000</speed>
</trkpt>
<trkpt lat="55.659542" lon="26.585304">
<ele>150.095825</ele>
<time>2010-07-18T11:43:43Z</time>
<desc>lat.=55.659542, lon.=26.585304, Alt.=150.095825m. Speed=10.224000m/h.</desc>
<speed>2.840000</speed>
</trkpt>
<trkpt lat="55.659534" lon="26.585352">
<ele>150.619263</ele>
<time>2010-07-18T11:43:44Z</time>
<desc>lat.=55.659534, lon.=26.585352, Alt.=150.619263m. Speed=9.720000m/h.</desc>
<speed>2.700000</speed>
</trkpt>
<trkpt lat="55.659531" lon="26.585402">
<ele>151.630981</ele>
<time>2010-07-18T11:43:45Z</time>
<desc>lat.=55.659531, lon.=26.585402, Alt.=151.630981m. Speed=9.576000m/h.</desc>
<speed>2.660000</speed>
</trkpt>
<trkpt lat="55.659515" lon="26.585451">
<ele>151.037231</ele>
<time>2010-07-18T11:43:46Z</time>
<desc>lat.=55.659515, lon.=26.585451, Alt.=151.037231m. Speed=9.252000m/h.</desc>
<speed>2.570000</speed>
</trkpt>
<trkpt lat="55.659508" lon="26.585510">
<ele>150.396606</ele>
<time>2010-07-18T11:43:47Z</time>
<desc>lat.=55.659508, lon.=26.585510, Alt.=150.396606m. Speed=9.396000m/h.</desc>
<speed>2.610000</speed>
</trkpt>
<trkpt lat="55.659496" lon="26.585558">
<ele>150.173950</ele>
<time>2010-07-18T11:43:48Z</time>
<desc>lat.=55.659496, lon.=26.585558, Alt.=150.173950m. Speed=8.712000m/h.</desc>
<speed>2.420000</speed>
</trkpt>
<trkpt lat="55.659492" lon="26.585604">
<ele>149.896606</ele>
<time>2010-07-18T11:43:49Z</time>
<desc>lat.=55.659492, lon.=26.585604, Alt.=149.896606m. Speed=7.920000m/h.</desc>
<speed>2.200000</speed>
</trkpt>
<trkpt lat="55.659477" lon="26.585659">
<ele>150.615356</ele>
<time>2010-07-18T11:43:50Z</time>
<desc>lat.=55.659477, lon.=26.585659, Alt.=150.615356m. Speed=9.756000m/h.</desc>
<speed>2.710000</speed>
</trkpt>
<trkpt lat="55.659473" lon="26.585705">
<ele>151.045044</ele>
<time>2010-07-18T11:43:51Z</time>
<desc>lat.=55.659473, lon.=26.585705, Alt.=151.045044m. Speed=9.792000m/h.</desc>
<speed>2.720000</speed>
</trkpt>
<trkpt lat="55.659458" lon="26.585770">
<ele>151.002075</ele>
<time>2010-07-18T11:43:52Z</time>
<desc>lat.=55.659458, lon.=26.585770, Alt.=151.002075m. Speed=11.736000m/h.</desc>
<speed>3.260000</speed>
</trkpt>
<trkpt lat="55.659443" lon="26.585831">
<ele>151.037231</ele>
<time>2010-07-18T11:43:53Z</time>
<desc>lat.=55.659443, lon.=26.585831, Alt.=151.037231m. Speed=13.176000m/h.</desc>
<speed>3.660000</speed>
</trkpt>
<trkpt lat="55.659420" lon="26.585917">
<ele>149.767700</ele>
<time>2010-07-18T11:43:54Z</time>
<desc>lat.=55.659420, lon.=26.585917, Alt.=149.767700m. Speed=12.960000m/h.</desc>
<speed>3.600000</speed>
</trkpt>
<trkpt lat="55.659405" lon="26.585991">
<ele>149.830200</ele>
<time>2010-07-18T11:43:55Z</time>
<desc>lat.=55.659405, lon.=26.585991, Alt.=149.830200m. Speed=12.060000m/h.</desc>
<speed>3.350000</speed>
</trkpt>
<trkpt lat="55.659389" lon="26.586054">
<ele>150.244263</ele>
<time>2010-07-18T11:43:56Z</time>
<desc>lat.=55.659389, lon.=26.586054, Alt.=150.244263m. Speed=12.456000m/h.</desc>
<speed>3.460000</speed>
</trkpt>
<trkpt lat="55.659382" lon="26.586109">
<ele>151.966919</ele>
<time>2010-07-18T11:43:57Z</time>
<desc>lat.=55.659382, lon.=26.586109, Alt.=151.966919m. Speed=10.944000m/h.</desc>
<speed>3.040000</speed>
</trkpt>
<trkpt lat="55.659370" lon="26.586159">
<ele>152.634888</ele>
<time>2010-07-18T11:43:58Z</time>
<desc>lat.=55.659370, lon.=26.586159, Alt.=152.634888m. Speed=9.936000m/h.</desc>
<speed>2.760000</speed>
</trkpt>
<trkpt lat="55.659359" lon="26.586218">
<ele>153.017700</ele>
<time>2010-07-18T11:43:59Z</time>
<desc>lat.=55.659359, lon.=26.586218, Alt.=153.017700m. Speed=7.740000m/h.</desc>
<speed>2.150000</speed>
</trkpt>
<trkpt lat="55.659355" lon="26.586271">
<ele>154.295044</ele>
<time>2010-07-18T11:44:00Z</time>
<desc>lat.=55.659355, lon.=26.586271, Alt.=154.295044m. Speed=8.712000m/h.</desc>
<speed>2.420000</speed>
</trkpt>
<trkpt lat="55.659348" lon="26.586317">
<ele>154.888794</ele>
<time>2010-07-18T11:44:01Z</time>
<desc>lat.=55.659348, lon.=26.586317, Alt.=154.888794m. Speed=8.964000m/h.</desc>
<speed>2.490000</speed>
</trkpt>
<trkpt lat="55.659336" lon="26.586386">
<ele>155.009888</ele>
<time>2010-07-18T11:44:02Z</time>
<desc>lat.=55.659336, lon.=26.586386, Alt.=155.009888m. Speed=10.296000m/h.</desc>
<speed>2.860000</speed>
</trkpt>
<trkpt lat="55.659328" lon="26.586439">
<ele>156.193481</ele>
<time>2010-07-18T11:44:03Z</time>
<desc>lat.=55.659328, lon.=26.586439, Alt.=156.193481m. Speed=8.568000m/h.</desc>
<speed>2.380000</speed>
</trkpt>
<trkpt lat="55.659321" lon="26.586504">
<ele>155.552856</ele>
<time>2010-07-18T11:44:04Z</time>
<desc>lat.=55.659321, lon.=26.586504, Alt.=155.552856m. Speed=8.856000m/h.</desc>
<speed>2.460000</speed>
</trkpt>
<trkpt lat="55.659317" lon="26.586555">
<ele>156.013794</ele>
<time>2010-07-18T11:44:05Z</time>
<desc>lat.=55.659317, lon.=26.586555, Alt.=156.013794m. Speed=8.388000m/h.</desc>
<speed>2.330000</speed>
</trkpt>
<trkpt lat="55.659321" lon="26.586603">
<ele>156.740356</ele>
<time>2010-07-18T11:44:06Z</time>
<desc>lat.=55.659321, lon.=26.586603, Alt.=156.740356m. Speed=8.928000m/h.</desc>
<speed>2.480000</speed>
</trkpt>
<trkpt lat="55.659325" lon="26.586645">
<ele>159.099731</ele>
<time>2010-07-18T11:44:07Z</time>
<desc>lat.=55.659325, lon.=26.586645, Alt.=159.099731m. Speed=7.848000m/h.</desc>
<speed>2.180000</speed>
</trkpt>
<trkpt lat="55.659328" lon="26.586679">
<ele>159.658325</ele>
<time>2010-07-18T11:44:08Z</time>
<desc>lat.=55.659328, lon.=26.586679, Alt.=159.658325m. Speed=6.588000m/h.</desc>
<speed>1.830000</speed>
</trkpt>
<trkpt lat="55.659321" lon="26.586740">
<ele>158.638794</ele>
<time>2010-07-18T11:44:09Z</time>
<desc>lat.=55.659321, lon.=26.586740, Alt.=158.638794m. Speed=8.460000m/h.</desc>
<speed>2.350000</speed>
</trkpt>
<trkpt lat="55.659313" lon="26.586784">
<ele>158.193481</ele>
<time>2010-07-18T11:44:10Z</time>
<desc>lat.=55.659313, lon.=26.586784, Alt.=158.193481m. Speed=7.236000m/h.</desc>
<speed>2.010000</speed>
</trkpt>
<trkpt lat="55.659313" lon="26.586824">
<ele>157.502075</ele>
<time>2010-07-18T11:44:11Z</time>
<desc>lat.=55.659313, lon.=26.586824, Alt.=157.502075m. Speed=7.416000m/h.</desc>
<speed>2.060000</speed>
</trkpt>
<trkpt lat="55.659306" lon="26.586872">
<ele>156.791138</ele>
<time>2010-07-18T11:44:12Z</time>
<desc>lat.=55.659306, lon.=26.586872, Alt.=156.791138m. Speed=9.432000m/h.</desc>
<speed>2.620000</speed>
</trkpt>
<trkpt lat="55.659298" lon="26.586939">
<ele>155.752075</ele>
<time>2010-07-18T11:44:13Z</time>
<desc>lat.=55.659298, lon.=26.586939, Alt.=155.752075m. Speed=11.736000m/h.</desc>
<speed>3.260000</speed>
</trkpt>
<trkpt lat="55.659290" lon="26.587013">
<ele>152.209106</ele>
<time>2010-07-18T11:44:14Z</time>
<desc>lat.=55.659290, lon.=26.587013, Alt.=152.209106m. Speed=10.980000m/h.</desc>
<speed>3.050000</speed>
</trkpt>
<trkpt lat="55.659286" lon="26.587074">
<ele>151.334106</ele>
<time>2010-07-18T11:44:15Z</time>
<desc>lat.=55.659286, lon.=26.587074, Alt.=151.334106m. Speed=10.764000m/h.</desc>
<speed>2.990000</speed>
</trkpt>
<trkpt lat="55.659286" lon="26.587128">
<ele>150.545044</ele>
<time>2010-07-18T11:44:16Z</time>
<desc>lat.=55.659286, lon.=26.587128, Alt.=150.545044m. Speed=10.872000m/h.</desc>
<speed>3.020000</speed>
</trkpt>
<trkpt lat="55.659286" lon="26.587187">
<ele>148.599731</ele>
<time>2010-07-18T11:44:17Z</time>
<desc>lat.=55.659286, lon.=26.587187, Alt.=148.599731m. Speed=11.268000m/h.</desc>
<speed>3.130000</speed>
</trkpt>
<trkpt lat="55.659294" lon="26.587234">
<ele>148.439575</ele>
<time>2010-07-18T11:44:18Z</time>
<desc>lat.=55.659294, lon.=26.587234, Alt.=148.439575m. Speed=10.044000m/h.</desc>
<speed>2.790000</speed>
</trkpt>
<trkpt lat="55.659290" lon="26.587292">
<ele>147.720825</ele>
<time>2010-07-18T11:44:19Z</time>
<desc>lat.=55.659290, lon.=26.587292, Alt.=147.720825m. Speed=9.864000m/h.</desc>
<speed>2.740000</speed>
</trkpt>
<trkpt lat="55.659286" lon="26.587351">
<ele>146.810669</ele>
<time>2010-07-18T11:44:20Z</time>
<desc>lat.=55.659286, lon.=26.587351, Alt.=146.810669m. Speed=11.124000m/h.</desc>
<speed>3.090000</speed>
</trkpt>
<trkpt lat="55.659286" lon="26.587412">
<ele>145.552856</ele>
<time>2010-07-18T11:44:21Z</time>
<desc>lat.=55.659286, lon.=26.587412, Alt.=145.552856m. Speed=11.412000m/h.</desc>
<speed>3.170000</speed>
</trkpt>
<trkpt lat="55.659286" lon="26.587471">
<ele>145.334106</ele>
<time>2010-07-18T11:44:22Z</time>
<desc>lat.=55.659286, lon.=26.587471, Alt.=145.334106m. Speed=11.124000m/h.</desc>
<speed>3.090000</speed>
</trkpt>
<trkpt lat="55.659286" lon="26.587523">
<ele>145.439575</ele>
<time>2010-07-18T11:44:23Z</time>
<desc>lat.=55.659286, lon.=26.587523, Alt.=145.439575m. Speed=11.700000m/h.</desc>
<speed>3.250000</speed>
</trkpt>
<trkpt lat="55.659298" lon="26.587576">
<ele>147.107544</ele>
<time>2010-07-18T11:44:24Z</time>
<desc>lat.=55.659298, lon.=26.587576, Alt.=147.107544m. Speed=13.356000m/h.</desc>
<speed>3.710000</speed>
</trkpt>
<trkpt lat="55.659302" lon="26.587639">
<ele>146.744263</ele>
<time>2010-07-18T11:44:25Z</time>
<desc>lat.=55.659302, lon.=26.587639, Alt.=146.744263m. Speed=12.204000m/h.</desc>
<speed>3.390000</speed>
</trkpt>
<trkpt lat="55.659306" lon="26.587698">
<ele>146.576294</ele>
<time>2010-07-18T11:44:26Z</time>
<desc>lat.=55.659306, lon.=26.587698, Alt.=146.576294m. Speed=11.844000m/h.</desc>
<speed>3.290000</speed>
</trkpt>
<trkpt lat="55.659298" lon="26.587772">
<ele>143.201294</ele>
<time>2010-07-18T11:44:27Z</time>
<desc>lat.=55.659298, lon.=26.587772, Alt.=143.201294m. Speed=13.176000m/h.</desc>
<speed>3.660000</speed>
</trkpt>
<trkpt lat="55.659294" lon="26.587839">
<ele>141.927856</ele>
<time>2010-07-18T11:44:28Z</time>
<desc>lat.=55.659294, lon.=26.587839, Alt.=141.927856m. Speed=13.500000m/h.</desc>
<speed>3.750000</speed>
</trkpt>
<trkpt lat="55.659298" lon="26.587902">
<ele>141.392700</ele>
<time>2010-07-18T11:44:29Z</time>
<desc>lat.=55.659298, lon.=26.587902, Alt.=141.392700m. Speed=12.852000m/h.</desc>
<speed>3.570000</speed>
</trkpt>
<trkpt lat="55.659313" lon="26.587959">
<ele>142.591919</ele>
<time>2010-07-18T11:44:30Z</time>
<desc>lat.=55.659313, lon.=26.587959, Alt.=142.591919m. Speed=12.564000m/h.</desc>
<speed>3.490000</speed>
</trkpt>
<trkpt lat="55.659321" lon="26.588026">
<ele>142.400513</ele>
<time>2010-07-18T11:44:31Z</time>
<desc>lat.=55.659321, lon.=26.588026, Alt.=142.400513m. Speed=13.608000m/h.</desc>
<speed>3.780000</speed>
</trkpt>
<trkpt lat="55.659328" lon="26.588091">
<ele>141.650513</ele>
<time>2010-07-18T11:44:32Z</time>
<desc>lat.=55.659328, lon.=26.588091, Alt.=141.650513m. Speed=14.328000m/h.</desc>
<speed>3.980000</speed>
</trkpt>
<trkpt lat="55.659340" lon="26.588158">
<ele>141.447388</ele>
<time>2010-07-18T11:44:33Z</time>
<desc>lat.=55.659340, lon.=26.588158, Alt.=141.447388m. Speed=15.444000m/h.</desc>
<speed>4.290000</speed>
</trkpt>
<trkpt lat="55.659348" lon="26.588224">
<ele>141.349731</ele>
<time>2010-07-18T11:44:34Z</time>
<desc>lat.=55.659348, lon.=26.588224, Alt.=141.349731m. Speed=15.516000m/h.</desc>
<speed>4.310000</speed>
</trkpt>
<trkpt lat="55.659355" lon="26.588293">
<ele>141.302856</ele>
<time>2010-07-18T11:44:35Z</time>
<desc>lat.=55.659355, lon.=26.588293, Alt.=141.302856m. Speed=15.336000m/h.</desc>
<speed>4.260000</speed>
</trkpt>
<trkpt lat="55.659367" lon="26.588360">
<ele>141.099731</ele>
<time>2010-07-18T11:44:36Z</time>
<desc>lat.=55.659367, lon.=26.588360, Alt.=141.099731m. Speed=14.904000m/h.</desc>
<speed>4.140000</speed>
</trkpt>
<trkpt lat="55.659374" lon="26.588425">
<ele>140.595825</ele>
<time>2010-07-18T11:44:37Z</time>
<desc>lat.=55.659374, lon.=26.588425, Alt.=140.595825m. Speed=14.472000m/h.</desc>
<speed>4.020000</speed>
</trkpt>
<trkpt lat="55.659389" lon="26.588495">
<ele>140.619263</ele>
<time>2010-07-18T11:44:38Z</time>
<desc>lat.=55.659389, lon.=26.588495, Alt.=140.619263m. Speed=14.256000m/h.</desc>
<speed>3.960000</speed>
</trkpt>
<trkpt lat="55.659397" lon="26.588556">
<ele>139.802856</ele>
<time>2010-07-18T11:44:39Z</time>
<desc>lat.=55.659397, lon.=26.588556, Alt.=139.802856m. Speed=13.536000m/h.</desc>
<speed>3.760000</speed>
</trkpt>
<trkpt lat="55.659412" lon="26.588615">
<ele>140.779419</ele>
<time>2010-07-18T11:44:40Z</time>
<desc>lat.=55.659412, lon.=26.588615, Alt.=140.779419m. Speed=14.472000m/h.</desc>
<speed>4.020000</speed>
</trkpt>
<trkpt lat="55.659431" lon="26.588676">
<ele>142.009888</ele>
<time>2010-07-18T11:44:41Z</time>
<desc>lat.=55.659431, lon.=26.588676, Alt.=142.009888m. Speed=14.652000m/h.</desc>
<speed>4.070000</speed>
</trkpt>
<trkpt lat="55.659447" lon="26.588736">
<ele>142.275513</ele>
<time>2010-07-18T11:44:42Z</time>
<desc>lat.=55.659447, lon.=26.588736, Alt.=142.275513m. Speed=15.012000m/h.</desc>
<speed>4.170000</speed>
</trkpt>
<trkpt lat="55.659466" lon="26.588795">
<ele>143.037231</ele>
<time>2010-07-18T11:44:43Z</time>
<desc>lat.=55.659466, lon.=26.588795, Alt.=143.037231m. Speed=15.228000m/h.</desc>
<speed>4.230000</speed>
</trkpt>
<trkpt lat="55.659473" lon="26.588865">
<ele>142.705200</ele>
<time>2010-07-18T11:44:44Z</time>
<desc>lat.=55.659473, lon.=26.588865, Alt.=142.705200m. Speed=15.372000m/h.</desc>
<speed>4.270000</speed>
</trkpt>
<trkpt lat="55.659489" lon="26.588932">
<ele>142.545044</ele>
<time>2010-07-18T11:44:45Z</time>
<desc>lat.=55.659489, lon.=26.588932, Alt.=142.545044m. Speed=14.940000m/h.</desc>
<speed>4.150000</speed>
</trkpt>
<trkpt lat="55.659515" lon="26.588995">
<ele>143.982544</ele>
<time>2010-07-18T11:44:46Z</time>
<desc>lat.=55.659515, lon.=26.588995, Alt.=143.982544m. Speed=15.048000m/h.</desc>
<speed>4.180000</speed>
</trkpt>
<trkpt lat="55.659542" lon="26.589050">
<ele>145.509888</ele>
<time>2010-07-18T11:44:47Z</time>
<desc>lat.=55.659542, lon.=26.589050, Alt.=145.509888m. Speed=14.508000m/h.</desc>
<speed>4.030000</speed>
</trkpt>
<trkpt lat="55.659554" lon="26.589113">
<ele>145.279419</ele>
<time>2010-07-18T11:44:48Z</time>
<desc>lat.=55.659554, lon.=26.589113, Alt.=145.279419m. Speed=15.192000m/h.</desc>
<speed>4.220000</speed>
</trkpt>
<trkpt lat="55.659569" lon="26.589178">
<ele>145.013794</ele>
<time>2010-07-18T11:44:49Z</time>
<desc>lat.=55.659569, lon.=26.589178, Alt.=145.013794m. Speed=15.444000m/h.</desc>
<speed>4.290000</speed>
</trkpt>
<trkpt lat="55.659576" lon="26.589249">
<ele>142.681763</ele>
<time>2010-07-18T11:44:50Z</time>
<desc>lat.=55.659576, lon.=26.589249, Alt.=142.681763m. Speed=14.364000m/h.</desc>
<speed>3.990000</speed>
</trkpt>
<trkpt lat="55.659595" lon="26.589317">
<ele>142.490356</ele>
<time>2010-07-18T11:44:51Z</time>
<desc>lat.=55.659595, lon.=26.589317, Alt.=142.490356m. Speed=15.876000m/h.</desc>
<speed>4.410000</speed>
</trkpt>
<trkpt lat="55.659611" lon="26.589378">
<ele>142.939575</ele>
<time>2010-07-18T11:44:52Z</time>
<desc>lat.=55.659611, lon.=26.589378, Alt.=142.939575m. Speed=15.732000m/h.</desc>
<speed>4.370000</speed>
</trkpt>
<trkpt lat="55.659626" lon="26.589447">
<ele>143.443481</ele>
<time>2010-07-18T11:44:53Z</time>
<desc>lat.=55.659626, lon.=26.589447, Alt.=143.443481m. Speed=16.740000m/h.</desc>
<speed>4.650000</speed>
</trkpt>
<trkpt lat="55.659637" lon="26.589518">
<ele>143.564575</ele>
<time>2010-07-18T11:44:54Z</time>
<desc>lat.=55.659637, lon.=26.589518, Alt.=143.564575m. Speed=16.632000m/h.</desc>
<speed>4.620000</speed>
</trkpt>
<trkpt lat="55.659653" lon="26.589584">
<ele>144.529419</ele>
<time>2010-07-18T11:44:55Z</time>
<desc>lat.=55.659653, lon.=26.589584, Alt.=144.529419m. Speed=16.128000m/h.</desc>
<speed>4.480000</speed>
</trkpt>
<trkpt lat="55.659676" lon="26.589661">
<ele>145.693481</ele>
<time>2010-07-18T11:44:56Z</time>
<desc>lat.=55.659676, lon.=26.589661, Alt.=145.693481m. Speed=17.243999m/h.</desc>
<speed>4.790000</speed>
</trkpt>
<trkpt lat="55.659687" lon="26.589743">
<ele>145.916138</ele>
<time>2010-07-18T11:44:57Z</time>
<desc>lat.=55.659687, lon.=26.589743, Alt.=145.916138m. Speed=17.316000m/h.</desc>
<speed>4.810000</speed>
</trkpt>
<trkpt lat="55.659698" lon="26.589825">
<ele>145.244263</ele>
<time>2010-07-18T11:44:58Z</time>
<desc>lat.=55.659698, lon.=26.589825, Alt.=145.244263m. Speed=17.028000m/h.</desc>
<speed>4.730000</speed>
</trkpt>
<trkpt lat="55.659718" lon="26.589897">
<ele>145.845825</ele>
<time>2010-07-18T11:44:59Z</time>
<desc>lat.=55.659718, lon.=26.589897, Alt.=145.845825m. Speed=16.524000m/h.</desc>
<speed>4.590000</speed>
</trkpt>
<trkpt lat="55.659733" lon="26.589975">
<ele>145.236450</ele>
<time>2010-07-18T11:45:00Z</time>
<desc>lat.=55.659733, lon.=26.589975, Alt.=145.236450m. Speed=17.820000m/h.</desc>
<speed>4.950000</speed>
</trkpt>
<trkpt lat="55.659744" lon="26.590054">
<ele>145.287231</ele>
<time>2010-07-18T11:45:01Z</time>
<desc>lat.=55.659744, lon.=26.590054, Alt.=145.287231m. Speed=17.568001m/h.</desc>
<speed>4.880000</speed>
</trkpt>
<trkpt lat="55.659752" lon="26.590134">
<ele>144.935669</ele>
<time>2010-07-18T11:45:02Z</time>
<desc>lat.=55.659752, lon.=26.590134, Alt.=144.935669m. Speed=17.172001m/h.</desc>
<speed>4.770000</speed>
</trkpt>
<trkpt lat="55.659767" lon="26.590204">
<ele>144.771606</ele>
<time>2010-07-18T11:45:03Z</time>
<desc>lat.=55.659767, lon.=26.590204, Alt.=144.771606m. Speed=17.136000m/h.</desc>
<speed>4.760000</speed>
</trkpt>
<trkpt lat="55.659779" lon="26.590275">
<ele>144.650513</ele>
<time>2010-07-18T11:45:04Z</time>
<desc>lat.=55.659779, lon.=26.590275, Alt.=144.650513m. Speed=16.308001m/h.</desc>
<speed>4.530000</speed>
</trkpt>
<trkpt lat="55.659794" lon="26.590345">
<ele>144.486450</ele>
<time>2010-07-18T11:45:05Z</time>
<desc>lat.=55.659794, lon.=26.590345, Alt.=144.486450m. Speed=16.740000m/h.</desc>
<speed>4.650000</speed>
</trkpt>
<trkpt lat="55.659801" lon="26.590424">
<ele>143.908325</ele>
<time>2010-07-18T11:45:06Z</time>
<desc>lat.=55.659801, lon.=26.590424, Alt.=143.908325m. Speed=17.639999m/h.</desc>
<speed>4.900000</speed>
</trkpt>
<trkpt lat="55.659813" lon="26.590506">
<ele>142.670044</ele>
<time>2010-07-18T11:45:07Z</time>
<desc>lat.=55.659813, lon.=26.590506, Alt.=142.670044m. Speed=17.496000m/h.</desc>
<speed>4.860000</speed>
</trkpt>
<trkpt lat="55.659824" lon="26.590593">
<ele>141.310669</ele>
<time>2010-07-18T11:45:08Z</time>
<desc>lat.=55.659824, lon.=26.590593, Alt.=141.310669m. Speed=17.532000m/h.</desc>
<speed>4.870000</speed>
</trkpt>
<trkpt lat="55.659836" lon="26.590670">
<ele>141.283325</ele>
<time>2010-07-18T11:45:09Z</time>
<desc>lat.=55.659836, lon.=26.590670, Alt.=141.283325m. Speed=17.172001m/h.</desc>
<speed>4.770000</speed>
</trkpt>
<trkpt lat="55.659859" lon="26.590734">
<ele>142.630981</ele>
<time>2010-07-18T11:45:10Z</time>
<desc>lat.=55.659859, lon.=26.590734, Alt.=142.630981m. Speed=16.667999m/h.</desc>
<speed>4.630000</speed>
</trkpt>
<trkpt lat="55.659870" lon="26.590807">
<ele>142.818481</ele>
<time>2010-07-18T11:45:11Z</time>
<desc>lat.=55.659870, lon.=26.590807, Alt.=142.818481m. Speed=17.892000m/h.</desc>
<speed>4.970000</speed>
</trkpt>
<trkpt lat="55.659885" lon="26.590878">
<ele>142.814575</ele>
<time>2010-07-18T11:45:12Z</time>
<desc>lat.=55.659885, lon.=26.590878, Alt.=142.814575m. Speed=17.028000m/h.</desc>
<speed>4.730000</speed>
</trkpt>
<trkpt lat="55.659897" lon="26.590956">
<ele>142.521606</ele>
<time>2010-07-18T11:45:13Z</time>
<desc>lat.=55.659897, lon.=26.590956, Alt.=142.521606m. Speed=18.288000m/h.</desc>
<speed>5.080000</speed>
</trkpt>
<trkpt lat="55.659908" lon="26.591034">
<ele>141.670044</ele>
<time>2010-07-18T11:45:14Z</time>
<desc>lat.=55.659908, lon.=26.591034, Alt.=141.670044m. Speed=16.884001m/h.</desc>
<speed>4.690000</speed>
</trkpt>
<trkpt lat="55.659920" lon="26.591108">
<ele>141.826294</ele>
<time>2010-07-18T11:45:15Z</time>
<desc>lat.=55.659920, lon.=26.591108, Alt.=141.826294m. Speed=15.804000m/h.</desc>
<speed>4.390000</speed>
</trkpt>
<trkpt lat="55.659931" lon="26.591179">
<ele>141.369263</ele>
<time>2010-07-18T11:45:16Z</time>
<desc>lat.=55.659931, lon.=26.591179, Alt.=141.369263m. Speed=14.508000m/h.</desc>
<speed>4.030000</speed>
</trkpt>
<trkpt lat="55.659931" lon="26.591242">
<ele>139.791138</ele>
<time>2010-07-18T11:45:17Z</time>
<desc>lat.=55.659931, lon.=26.591242, Alt.=139.791138m. Speed=13.536000m/h.</desc>
<speed>3.760000</speed>
</trkpt>
<trkpt lat="55.659946" lon="26.591299">
<ele>140.295044</ele>
<time>2010-07-18T11:45:18Z</time>
<desc>lat.=55.659946, lon.=26.591299, Alt.=140.295044m. Speed=12.168000m/h.</desc>
<speed>3.380000</speed>
</trkpt>
<trkpt lat="55.659966" lon="26.591351">
<ele>141.115356</ele>
<time>2010-07-18T11:45:19Z</time>
<desc>lat.=55.659966, lon.=26.591351, Alt.=141.115356m. Speed=13.500000m/h.</desc>
<speed>3.750000</speed>
</trkpt>
<trkpt lat="55.659985" lon="26.591402">
<ele>141.908325</ele>
<time>2010-07-18T11:45:20Z</time>
<desc>lat.=55.659985, lon.=26.591402, Alt.=141.908325m. Speed=12.312000m/h.</desc>
<speed>3.420000</speed>
</trkpt>
<trkpt lat="55.659988" lon="26.591452">
<ele>141.584106</ele>
<time>2010-07-18T11:45:21Z</time>
<desc>lat.=55.659988, lon.=26.591452, Alt.=141.584106m. Speed=10.872000m/h.</desc>
<speed>3.020000</speed>
</trkpt>
<trkpt lat="55.659996" lon="26.591503">
<ele>141.451294</ele>
<time>2010-07-18T11:45:22Z</time>
<desc>lat.=55.659996, lon.=26.591503, Alt.=141.451294m. Speed=11.340000m/h.</desc>
<speed>3.150000</speed>
</trkpt>
<trkpt lat="55.660004" lon="26.591555">
<ele>141.283325</ele>
<time>2010-07-18T11:45:23Z</time>
<desc>lat.=55.660004, lon.=26.591555, Alt.=141.283325m. Speed=11.268000m/h.</desc>
<speed>3.130000</speed>
</trkpt>
<trkpt lat="55.660019" lon="26.591604">
<ele>141.029419</ele>
<time>2010-07-18T11:45:24Z</time>
<desc>lat.=55.660019, lon.=26.591604, Alt.=141.029419m. Speed=12.024000m/h.</desc>
<speed>3.340000</speed>
</trkpt>
<trkpt lat="55.660034" lon="26.591665">
<ele>141.857544</ele>
<time>2010-07-18T11:45:25Z</time>
<desc>lat.=55.660034, lon.=26.591665, Alt.=141.857544m. Speed=11.484000m/h.</desc>
<speed>3.190000</speed>
</trkpt>
<trkpt lat="55.660046" lon="26.591721">
<ele>141.986450</ele>
<time>2010-07-18T11:45:26Z</time>
<desc>lat.=55.660046, lon.=26.591721, Alt.=141.986450m. Speed=12.312000m/h.</desc>
<speed>3.420000</speed>
</trkpt>
<trkpt lat="55.660057" lon="26.591778">
<ele>140.787231</ele>
<time>2010-07-18T11:45:27Z</time>
<desc>lat.=55.660057, lon.=26.591778, Alt.=140.787231m. Speed=13.140000m/h.</desc>
<speed>3.650000</speed>
</trkpt>
<trkpt lat="55.660065" lon="26.591835">
<ele>140.556763</ele>
<time>2010-07-18T11:45:28Z</time>
<desc>lat.=55.660065, lon.=26.591835, Alt.=140.556763m. Speed=12.708000m/h.</desc>
<speed>3.530000</speed>
</trkpt>
<trkpt lat="55.660069" lon="26.591888">
<ele>140.341919</ele>
<time>2010-07-18T11:45:29Z</time>
<desc>lat.=55.660069, lon.=26.591888, Alt.=140.341919m. Speed=11.484000m/h.</desc>
<speed>3.190000</speed>
</trkpt>
<trkpt lat="55.660076" lon="26.591942">
<ele>139.537231</ele>
<time>2010-07-18T11:45:30Z</time>
<desc>lat.=55.660076, lon.=26.591942, Alt.=139.537231m. Speed=12.852000m/h.</desc>
<speed>3.570000</speed>
</trkpt>
<trkpt lat="55.660088" lon="26.591997">
<ele>138.736450</ele>
<time>2010-07-18T11:45:31Z</time>
<desc>lat.=55.660088, lon.=26.591997, Alt.=138.736450m. Speed=13.104000m/h.</desc>
<speed>3.640000</speed>
</trkpt>
<trkpt lat="55.660099" lon="26.592058">
<ele>138.779419</ele>
<time>2010-07-18T11:45:32Z</time>
<desc>lat.=55.660099, lon.=26.592058, Alt.=138.779419m. Speed=12.816000m/h.</desc>
<speed>3.560000</speed>
</trkpt>
<trkpt lat="55.660114" lon="26.592115">
<ele>138.841919</ele>
<time>2010-07-18T11:45:33Z</time>
<desc>lat.=55.660114, lon.=26.592115, Alt.=138.841919m. Speed=13.320000m/h.</desc>
<speed>3.700000</speed>
</trkpt>
<trkpt lat="55.660122" lon="26.592176">
<ele>138.841919</ele>
<time>2010-07-18T11:45:34Z</time>
<desc>lat.=55.660122, lon.=26.592176, Alt.=138.841919m. Speed=13.788000m/h.</desc>
<speed>3.830000</speed>
</trkpt>
<trkpt lat="55.660133" lon="26.592236">
<ele>139.310669</ele>
<time>2010-07-18T11:45:35Z</time>
<desc>lat.=55.660133, lon.=26.592236, Alt.=139.310669m. Speed=13.284000m/h.</desc>
<speed>3.690000</speed>
</trkpt>
<trkpt lat="55.660145" lon="26.592287">
<ele>139.466919</ele>
<time>2010-07-18T11:45:36Z</time>
<desc>lat.=55.660145, lon.=26.592287, Alt.=139.466919m. Speed=13.212000m/h.</desc>
<speed>3.670000</speed>
</trkpt>
<trkpt lat="55.660156" lon="26.592342">
<ele>139.627075</ele>
<time>2010-07-18T11:45:37Z</time>
<desc>lat.=55.660156, lon.=26.592342, Alt.=139.627075m. Speed=13.644000m/h.</desc>
<speed>3.790000</speed>
</trkpt>
<trkpt lat="55.660164" lon="26.592411">
<ele>138.349731</ele>
<time>2010-07-18T11:45:38Z</time>
<desc>lat.=55.660164, lon.=26.592411, Alt.=138.349731m. Speed=14.544000m/h.</desc>
<speed>4.040000</speed>
</trkpt>
<trkpt lat="55.660175" lon="26.592472">
<ele>138.287231</ele>
<time>2010-07-18T11:45:39Z</time>
<desc>lat.=55.660175, lon.=26.592472, Alt.=138.287231m. Speed=13.968000m/h.</desc>
<speed>3.880000</speed>
</trkpt>
<trkpt lat="55.660187" lon="26.592529">
<ele>138.162231</ele>
<time>2010-07-18T11:45:40Z</time>
<desc>lat.=55.660187, lon.=26.592529, Alt.=138.162231m. Speed=13.680000m/h.</desc>
<speed>3.800000</speed>
</trkpt>
<trkpt lat="55.660202" lon="26.592590">
<ele>139.209106</ele>
<time>2010-07-18T11:45:41Z</time>
<desc>lat.=55.660202, lon.=26.592590, Alt.=139.209106m. Speed=14.004000m/h.</desc>
<speed>3.890000</speed>
</trkpt>
<trkpt lat="55.660217" lon="26.592653">
<ele>138.548950</ele>
<time>2010-07-18T11:45:42Z</time>
<desc>lat.=55.660217, lon.=26.592653, Alt.=138.548950m. Speed=14.616000m/h.</desc>
<speed>4.060000</speed>
</trkpt>
<trkpt lat="55.660233" lon="26.592714">
<ele>138.357544</ele>
<time>2010-07-18T11:45:43Z</time>
<desc>lat.=55.660233, lon.=26.592714, Alt.=138.357544m. Speed=14.796000m/h.</desc>
<speed>4.110000</speed>
</trkpt>
<trkpt lat="55.660248" lon="26.592777">
<ele>138.892700</ele>
<time>2010-07-18T11:45:44Z</time>
<desc>lat.=55.660248, lon.=26.592777, Alt.=138.892700m. Speed=14.220000m/h.</desc>
<speed>3.950000</speed>
</trkpt>
<trkpt lat="55.660263" lon="26.592840">
<ele>138.806763</ele>
<time>2010-07-18T11:45:45Z</time>
<desc>lat.=55.660263, lon.=26.592840, Alt.=138.806763m. Speed=14.040000m/h.</desc>
<speed>3.900000</speed>
</trkpt>
<trkpt lat="55.660275" lon="26.592901">
<ele>137.970825</ele>
<time>2010-07-18T11:45:46Z</time>
<desc>lat.=55.660275, lon.=26.592901, Alt.=137.970825m. Speed=13.716000m/h.</desc>
<speed>3.810000</speed>
</trkpt>
<trkpt lat="55.660286" lon="26.592960">
<ele>137.158325</ele>
<time>2010-07-18T11:45:47Z</time>
<desc>lat.=55.660286, lon.=26.592960, Alt.=137.158325m. Speed=13.356000m/h.</desc>
<speed>3.710000</speed>
</trkpt>
<trkpt lat="55.660305" lon="26.593021">
<ele>137.963013</ele>
<time>2010-07-18T11:45:48Z</time>
<desc>lat.=55.660305, lon.=26.593021, Alt.=137.963013m. Speed=13.284000m/h.</desc>
<speed>3.690000</speed>
</trkpt>
<trkpt lat="55.660316" lon="26.593084">
<ele>137.291138</ele>
<time>2010-07-18T11:45:49Z</time>
<desc>lat.=55.660316, lon.=26.593084, Alt.=137.291138m. Speed=14.256000m/h.</desc>
<speed>3.960000</speed>
</trkpt>
<trkpt lat="55.660328" lon="26.593153">
<ele>136.607544</ele>
<time>2010-07-18T11:45:50Z</time>
<desc>lat.=55.660328, lon.=26.593153, Alt.=136.607544m. Speed=14.940000m/h.</desc>
<speed>4.150000</speed>
</trkpt>
<trkpt lat="55.660343" lon="26.593222">
<ele>136.365356</ele>
<time>2010-07-18T11:45:51Z</time>
<desc>lat.=55.660343, lon.=26.593222, Alt.=136.365356m. Speed=16.020000m/h.</desc>
<speed>4.450000</speed>
</trkpt>
<trkpt lat="55.660355" lon="26.593290">
<ele>135.623169</ele>
<time>2010-07-18T11:45:52Z</time>
<desc>lat.=55.660355, lon.=26.593290, Alt.=135.623169m. Speed=15.372000m/h.</desc>
<speed>4.270000</speed>
</trkpt>
<trkpt lat="55.660370" lon="26.593357">
<ele>135.185669</ele>
<time>2010-07-18T11:45:53Z</time>
<desc>lat.=55.660370, lon.=26.593357, Alt.=135.185669m. Speed=14.760000m/h.</desc>
<speed>4.100000</speed>
</trkpt>
<trkpt lat="55.660389" lon="26.593420">
<ele>135.517700</ele>
<time>2010-07-18T11:45:54Z</time>
<desc>lat.=55.660389, lon.=26.593420, Alt.=135.517700m. Speed=14.328000m/h.</desc>
<speed>3.980000</speed>
</trkpt>
<trkpt lat="55.660408" lon="26.593479">
<ele>136.076294</ele>
<time>2010-07-18T11:45:55Z</time>
<desc>lat.=55.660408, lon.=26.593479, Alt.=136.076294m. Speed=13.680000m/h.</desc>
<speed>3.800000</speed>
</trkpt>
<trkpt lat="55.660419" lon="26.593538">
<ele>136.728638</ele>
<time>2010-07-18T11:45:56Z</time>
<desc>lat.=55.660419, lon.=26.593538, Alt.=136.728638m. Speed=13.140000m/h.</desc>
<speed>3.650000</speed>
</trkpt>
<trkpt lat="55.660427" lon="26.593596">
<ele>136.795044</ele>
<time>2010-07-18T11:45:57Z</time>
<desc>lat.=55.660427, lon.=26.593596, Alt.=136.795044m. Speed=13.320000m/h.</desc>
<speed>3.700000</speed>
</trkpt>
<trkpt lat="55.660442" lon="26.593653">
<ele>137.392700</ele>
<time>2010-07-18T11:45:58Z</time>
<desc>lat.=55.660442, lon.=26.593653, Alt.=137.392700m. Speed=13.536000m/h.</desc>
<speed>3.760000</speed>
</trkpt>
<trkpt lat="55.660458" lon="26.593714">
<ele>137.392700</ele>
<time>2010-07-18T11:45:59Z</time>
<desc>lat.=55.660458, lon.=26.593714, Alt.=137.392700m. Speed=14.652000m/h.</desc>
<speed>4.070000</speed>
</trkpt>
<trkpt lat="55.660473" lon="26.593777">
<ele>137.724731</ele>
<time>2010-07-18T11:46:00Z</time>
<desc>lat.=55.660473, lon.=26.593777, Alt.=137.724731m. Speed=15.012000m/h.</desc>
<speed>4.170000</speed>
</trkpt>
<trkpt lat="55.660488" lon="26.593840">
<ele>137.060669</ele>
<time>2010-07-18T11:46:01Z</time>
<desc>lat.=55.660488, lon.=26.593840, Alt.=137.060669m. Speed=15.336000m/h.</desc>
<speed>4.260000</speed>
</trkpt>
<trkpt lat="55.660511" lon="26.593899">
<ele>137.439575</ele>
<time>2010-07-18T11:46:02Z</time>
<desc>lat.=55.660511, lon.=26.593899, Alt.=137.439575m. Speed=15.660000m/h.</desc>
<speed>4.350000</speed>
</trkpt>
<trkpt lat="55.660530" lon="26.593950">
<ele>137.630981</ele>
<time>2010-07-18T11:46:03Z</time>
<desc>lat.=55.660530, lon.=26.593950, Alt.=137.630981m. Speed=14.472000m/h.</desc>
<speed>4.020000</speed>
</trkpt>
<trkpt lat="55.660564" lon="26.594004">
<ele>140.119263</ele>
<time>2010-07-18T11:46:04Z</time>
<desc>lat.=55.660564, lon.=26.594004, Alt.=140.119263m. Speed=14.868000m/h.</desc>
<speed>4.130000</speed>
</trkpt>
<trkpt lat="55.660583" lon="26.594055">
<ele>140.373169</ele>
<time>2010-07-18T11:46:05Z</time>
<desc>lat.=55.660583, lon.=26.594055, Alt.=140.373169m. Speed=13.896000m/h.</desc>
<speed>3.860000</speed>
</trkpt>
<trkpt lat="55.660599" lon="26.594105">
<ele>140.541138</ele>
<time>2010-07-18T11:46:06Z</time>
<desc>lat.=55.660599, lon.=26.594105, Alt.=140.541138m. Speed=13.716000m/h.</desc>
<speed>3.810000</speed>
</trkpt>
<trkpt lat="55.660622" lon="26.594158">
<ele>140.670044</ele>
<time>2010-07-18T11:46:07Z</time>
<desc>lat.=55.660622, lon.=26.594158, Alt.=140.670044m. Speed=14.076000m/h.</desc>
<speed>3.910000</speed>
</trkpt>
<trkpt lat="55.660641" lon="26.594204">
<ele>140.689575</ele>
<time>2010-07-18T11:46:08Z</time>
<desc>lat.=55.660641, lon.=26.594204, Alt.=140.689575m. Speed=13.320000m/h.</desc>
<speed>3.700000</speed>
</trkpt>
<trkpt lat="55.660667" lon="26.594240">
<ele>140.779419</ele>
<time>2010-07-18T11:46:09Z</time>
<desc>lat.=55.660667, lon.=26.594240, Alt.=140.779419m. Speed=13.572000m/h.</desc>
<speed>3.770000</speed>
</trkpt>
<trkpt lat="55.660690" lon="26.594273">
<ele>140.357544</ele>
<time>2010-07-18T11:46:10Z</time>
<desc>lat.=55.660690, lon.=26.594273, Alt.=140.357544m. Speed=13.212000m/h.</desc>
<speed>3.670000</speed>
</trkpt>
<trkpt lat="55.660721" lon="26.594307">
<ele>140.861450</ele>
<time>2010-07-18T11:46:11Z</time>
<desc>lat.=55.660721, lon.=26.594307, Alt.=140.861450m. Speed=15.480000m/h.</desc>
<speed>4.300000</speed>
</trkpt>
<trkpt lat="55.660759" lon="26.594328">
<ele>140.959106</ele>
<time>2010-07-18T11:46:12Z</time>
<desc>lat.=55.660759, lon.=26.594328, Alt.=140.959106m. Speed=13.932000m/h.</desc>
<speed>3.870000</speed>
</trkpt>
<trkpt lat="55.660797" lon="26.594336">
<ele>141.185669</ele>
<time>2010-07-18T11:46:13Z</time>
<desc>lat.=55.660797, lon.=26.594336, Alt.=141.185669m. Speed=14.652000m/h.</desc>
<speed>4.070000</speed>
</trkpt>
<trkpt lat="55.660831" lon="26.594326">
<ele>141.334106</ele>
<time>2010-07-18T11:46:14Z</time>
<desc>lat.=55.660831, lon.=26.594326, Alt.=141.334106m. Speed=13.968000m/h.</desc>
<speed>3.880000</speed>
</trkpt>
<trkpt lat="55.660862" lon="26.594303">
<ele>141.322388</ele>
<time>2010-07-18T11:46:15Z</time>
<desc>lat.=55.660862, lon.=26.594303, Alt.=141.322388m. Speed=12.996000m/h.</desc>
<speed>3.610000</speed>
</trkpt>
<trkpt lat="55.660892" lon="26.594276">
<ele>141.220825</ele>
<time>2010-07-18T11:46:16Z</time>
<desc>lat.=55.660892, lon.=26.594276, Alt.=141.220825m. Speed=12.816000m/h.</desc>
<speed>3.560000</speed>
</trkpt>
<trkpt lat="55.660915" lon="26.594242">
<ele>141.349731</ele>
<time>2010-07-18T11:46:17Z</time>
<desc>lat.=55.660915, lon.=26.594242, Alt.=141.349731m. Speed=11.448000m/h.</desc>
<speed>3.180000</speed>
</trkpt>
<trkpt lat="55.660942" lon="26.594204">
<ele>142.127075</ele>
<time>2010-07-18T11:46:18Z</time>
<desc>lat.=55.660942, lon.=26.594204, Alt.=142.127075m. Speed=10.872000m/h.</desc>
<speed>3.020000</speed>
</trkpt>
<trkpt lat="55.660965" lon="26.594164">
<ele>143.068481</ele>
<time>2010-07-18T11:46:19Z</time>
<desc>lat.=55.660965, lon.=26.594164, Alt.=143.068481m. Speed=8.640000m/h.</desc>
<speed>2.400000</speed>
</trkpt>
<trkpt lat="55.660973" lon="26.594130">
<ele>142.447388</ele>
<time>2010-07-18T11:46:20Z</time>
<desc>lat.=55.660973, lon.=26.594130, Alt.=142.447388m. Speed=12.168000m/h.</desc>
<speed>3.380000</speed>
</trkpt>
<trkpt lat="55.660988" lon="26.594072">
<ele>142.810669</ele>
<time>2010-07-18T11:46:21Z</time>
<desc>lat.=55.660988, lon.=26.594072, Alt.=142.810669m. Speed=12.996000m/h.</desc>
<speed>3.610000</speed>
</trkpt>
<trkpt lat="55.660999" lon="26.594015">
<ele>143.310669</ele>
<time>2010-07-18T11:46:22Z</time>
<desc>lat.=55.660999, lon.=26.594015, Alt.=143.310669m. Speed=13.500000m/h.</desc>
<speed>3.750000</speed>
</trkpt>
<trkpt lat="55.661011" lon="26.593950">
<ele>143.627075</ele>
<time>2010-07-18T11:46:23Z</time>
<desc>lat.=55.661011, lon.=26.593950, Alt.=143.627075m. Speed=15.300000m/h.</desc>
<speed>4.250000</speed>
</trkpt>
<trkpt lat="55.661018" lon="26.593882">
<ele>143.826294</ele>
<time>2010-07-18T11:46:24Z</time>
<desc>lat.=55.661018, lon.=26.593882, Alt.=143.826294m. Speed=15.660000m/h.</desc>
<speed>4.350000</speed>
</trkpt>
<trkpt lat="55.661022" lon="26.593809">
<ele>144.228638</ele>
<time>2010-07-18T11:46:25Z</time>
<desc>lat.=55.661022, lon.=26.593809, Alt.=144.228638m. Speed=15.156000m/h.</desc>
<speed>4.210000</speed>
</trkpt>
<trkpt lat="55.661034" lon="26.593740">
<ele>145.111450</ele>
<time>2010-07-18T11:46:26Z</time>
<desc>lat.=55.661034, lon.=26.593740, Alt.=145.111450m. Speed=13.464000m/h.</desc>
<speed>3.740000</speed>
</trkpt>
<trkpt lat="55.661041" lon="26.593678">
<ele>145.259888</ele>
<time>2010-07-18T11:46:27Z</time>
<desc>lat.=55.661041, lon.=26.593678, Alt.=145.259888m. Speed=13.608000m/h.</desc>
<speed>3.780000</speed>
</trkpt>
<trkpt lat="55.661049" lon="26.593620">
<ele>145.658325</ele>
<time>2010-07-18T11:46:28Z</time>
<desc>lat.=55.661049, lon.=26.593620, Alt.=145.658325m. Speed=13.356000m/h.</desc>
<speed>3.710000</speed>
</trkpt>
<trkpt lat="55.661053" lon="26.593565">
<ele>145.927856</ele>
<time>2010-07-18T11:46:29Z</time>
<desc>lat.=55.661053, lon.=26.593565, Alt.=145.927856m. Speed=13.716000m/h.</desc>
<speed>3.810000</speed>
</trkpt>
<trkpt lat="55.661060" lon="26.593512">
<ele>146.435669</ele>
<time>2010-07-18T11:46:30Z</time>
<desc>lat.=55.661060, lon.=26.593512, Alt.=146.435669m. Speed=11.952000m/h.</desc>
<speed>3.320000</speed>
</trkpt>
<trkpt lat="55.661064" lon="26.593456">
<ele>146.830200</ele>
<time>2010-07-18T11:46:31Z</time>
<desc>lat.=55.661064, lon.=26.593456, Alt.=146.830200m. Speed=12.420000m/h.</desc>
<speed>3.450000</speed>
</trkpt>
<trkpt lat="55.661072" lon="26.593407">
<ele>147.220825</ele>
<time>2010-07-18T11:46:32Z</time>
<desc>lat.=55.661072, lon.=26.593407, Alt.=147.220825m. Speed=10.296000m/h.</desc>
<speed>2.860000</speed>
</trkpt>
<trkpt lat="55.661072" lon="26.593365">
<ele>147.658325</ele>
<time>2010-07-18T11:46:33Z</time>
<desc>lat.=55.661072, lon.=26.593365, Alt.=147.658325m. Speed=9.540000m/h.</desc>
<speed>2.650000</speed>
</trkpt>
<trkpt lat="55.661076" lon="26.593319">
<ele>148.205200</ele>
<time>2010-07-18T11:46:34Z</time>
<desc>lat.=55.661076, lon.=26.593319, Alt.=148.205200m. Speed=9.900000m/h.</desc>
<speed>2.750000</speed>
</trkpt>
<trkpt lat="55.661076" lon="26.593267">
<ele>147.970825</ele>
<time>2010-07-18T11:46:35Z</time>
<desc>lat.=55.661076, lon.=26.593267, Alt.=147.970825m. Speed=10.584000m/h.</desc>
<speed>2.940000</speed>
</trkpt>
<trkpt lat="55.661076" lon="26.593212">
<ele>148.095825</ele>
<time>2010-07-18T11:46:36Z</time>
<desc>lat.=55.661076, lon.=26.593212, Alt.=148.095825m. Speed=12.420000m/h.</desc>
<speed>3.450000</speed>
</trkpt>
<trkpt lat="55.661076" lon="26.593159">
<ele>148.146606</ele>
<time>2010-07-18T11:46:37Z</time>
<desc>lat.=55.661076, lon.=26.593159, Alt.=148.146606m. Speed=12.348000m/h.</desc>
<speed>3.430000</speed>
</trkpt>
<trkpt lat="55.661079" lon="26.593107">
<ele>148.134888</ele>
<time>2010-07-18T11:46:38Z</time>
<desc>lat.=55.661079, lon.=26.593107, Alt.=148.134888m. Speed=12.240000m/h.</desc>
<speed>3.400000</speed>
</trkpt>
<trkpt lat="55.661083" lon="26.593050">
<ele>148.009888</ele>
<time>2010-07-18T11:46:39Z</time>
<desc>lat.=55.661083, lon.=26.593050, Alt.=148.009888m. Speed=13.644000m/h.</desc>
<speed>3.790000</speed>
</trkpt>
<trkpt lat="55.661083" lon="26.592985">
<ele>147.408325</ele>
<time>2010-07-18T11:46:40Z</time>
<desc>lat.=55.661083, lon.=26.592985, Alt.=147.408325m. Speed=14.940000m/h.</desc>
<speed>4.150000</speed>
</trkpt>
<trkpt lat="55.661087" lon="26.592916">
<ele>147.170044</ele>
<time>2010-07-18T11:46:41Z</time>
<desc>lat.=55.661087, lon.=26.592916, Alt.=147.170044m. Speed=13.428000m/h.</desc>
<speed>3.730000</speed>
</trkpt>
<trkpt lat="55.661091" lon="26.592848">
<ele>147.255981</ele>
<time>2010-07-18T11:46:42Z</time>
<desc>lat.=55.661091, lon.=26.592848, Alt.=147.255981m. Speed=15.624000m/h.</desc>
<speed>4.340000</speed>
</trkpt>
<trkpt lat="55.661095" lon="26.592770">
<ele>147.267700</ele>
<time>2010-07-18T11:46:43Z</time>
<desc>lat.=55.661095, lon.=26.592770, Alt.=147.267700m. Speed=17.568001m/h.</desc>
<speed>4.880000</speed>
</trkpt>
<trkpt lat="55.661102" lon="26.592690">
<ele>147.052856</ele>
<time>2010-07-18T11:46:44Z</time>
<desc>lat.=55.661102, lon.=26.592690, Alt.=147.052856m. Speed=18.431999m/h.</desc>
<speed>5.120000</speed>
</trkpt>
<trkpt lat="55.661106" lon="26.592606">
<ele>146.927856</ele>
<time>2010-07-18T11:46:45Z</time>
<desc>lat.=55.661106, lon.=26.592606, Alt.=146.927856m. Speed=18.827999m/h.</desc>
<speed>5.230000</speed>
</trkpt>
<trkpt lat="55.661114" lon="26.592524">
<ele>146.584106</ele>
<time>2010-07-18T11:46:46Z</time>
<desc>lat.=55.661114, lon.=26.592524, Alt.=146.584106m. Speed=19.403999m/h.</desc>
<speed>5.390000</speed>
</trkpt>
<trkpt lat="55.661118" lon="26.592438">
<ele>146.455200</ele>
<time>2010-07-18T11:46:47Z</time>
<desc>lat.=55.661118, lon.=26.592438, Alt.=146.455200m. Speed=19.332001m/h.</desc>
<speed>5.370000</speed>
</trkpt>
<trkpt lat="55.661121" lon="26.592352">
<ele>146.076294</ele>
<time>2010-07-18T11:46:48Z</time>
<desc>lat.=55.661121, lon.=26.592352, Alt.=146.076294m. Speed=19.548000m/h.</desc>
<speed>5.430000</speed>
</trkpt>
<trkpt lat="55.661125" lon="26.592266">
<ele>145.607544</ele>
<time>2010-07-18T11:46:49Z</time>
<desc>lat.=55.661125, lon.=26.592266, Alt.=145.607544m. Speed=19.115999m/h.</desc>
<speed>5.310000</speed>
</trkpt>
<trkpt lat="55.661133" lon="26.592182">
<ele>145.177856</ele>
<time>2010-07-18T11:46:50Z</time>
<desc>lat.=55.661133, lon.=26.592182, Alt.=145.177856m. Speed=18.972000m/h.</desc>
<speed>5.270000</speed>
</trkpt>
<trkpt lat="55.661144" lon="26.592100">
<ele>145.080200</ele>
<time>2010-07-18T11:46:51Z</time>
<desc>lat.=55.661144, lon.=26.592100, Alt.=145.080200m. Speed=19.224001m/h.</desc>
<speed>5.340000</speed>
</trkpt>
<trkpt lat="55.661156" lon="26.592016">
<ele>144.701294</ele>
<time>2010-07-18T11:46:52Z</time>
<desc>lat.=55.661156, lon.=26.592016, Alt.=144.701294m. Speed=19.296000m/h.</desc>
<speed>5.360000</speed>
</trkpt>
<trkpt lat="55.661163" lon="26.591930">
<ele>144.615356</ele>
<time>2010-07-18T11:46:53Z</time>
<desc>lat.=55.661163, lon.=26.591930, Alt.=144.615356m. Speed=19.656000m/h.</desc>
<speed>5.460000</speed>
</trkpt>
<trkpt lat="55.661167" lon="26.591839">
<ele>144.697388</ele>
<time>2010-07-18T11:46:54Z</time>
<desc>lat.=55.661167, lon.=26.591839, Alt.=144.697388m. Speed=19.548000m/h.</desc>
<speed>5.430000</speed>
</trkpt>
<trkpt lat="55.661175" lon="26.591751">
<ele>144.697388</ele>
<time>2010-07-18T11:46:55Z</time>
<desc>lat.=55.661175, lon.=26.591751, Alt.=144.697388m. Speed=19.403999m/h.</desc>
<speed>5.390000</speed>
</trkpt>
<trkpt lat="55.661179" lon="26.591671">
<ele>144.509888</ele>
<time>2010-07-18T11:46:56Z</time>
<desc>lat.=55.661179, lon.=26.591671, Alt.=144.509888m. Speed=19.080000m/h.</desc>
<speed>5.300000</speed>
</trkpt>
<trkpt lat="55.661186" lon="26.591591">
<ele>144.361450</ele>
<time>2010-07-18T11:46:57Z</time>
<desc>lat.=55.661186, lon.=26.591591, Alt.=144.361450m. Speed=18.684000m/h.</desc>
<speed>5.190000</speed>
</trkpt>
<trkpt lat="55.661194" lon="26.591511">
<ele>144.267700</ele>
<time>2010-07-18T11:46:58Z</time>
<desc>lat.=55.661194, lon.=26.591511, Alt.=144.267700m. Speed=18.035999m/h.</desc>
<speed>5.010000</speed>
</trkpt>
<trkpt lat="55.661198" lon="26.591431">
<ele>144.267700</ele>
<time>2010-07-18T11:46:59Z</time>
<desc>lat.=55.661198, lon.=26.591431, Alt.=144.267700m. Speed=17.424000m/h.</desc>
<speed>4.840000</speed>
</trkpt>
<trkpt lat="55.661201" lon="26.591351">
<ele>144.369263</ele>
<time>2010-07-18T11:47:00Z</time>
<desc>lat.=55.661201, lon.=26.591351, Alt.=144.369263m. Speed=16.740000m/h.</desc>
<speed>4.650000</speed>
</trkpt>
<trkpt lat="55.661205" lon="26.591278">
<ele>144.400513</ele>
<time>2010-07-18T11:47:01Z</time>
<desc>lat.=55.661205, lon.=26.591278, Alt.=144.400513m. Speed=15.948000m/h.</desc>
<speed>4.430000</speed>
</trkpt>
<trkpt lat="55.661209" lon="26.591213">
<ele>144.259888</ele>
<time>2010-07-18T11:47:02Z</time>
<desc>lat.=55.661209, lon.=26.591213, Alt.=144.259888m. Speed=15.444000m/h.</desc>
<speed>4.290000</speed>
</trkpt>
<trkpt lat="55.661213" lon="26.591146">
<ele>144.259888</ele>
<time>2010-07-18T11:47:03Z</time>
<desc>lat.=55.661213, lon.=26.591146, Alt.=144.259888m. Speed=15.984000m/h.</desc>
<speed>4.440000</speed>
</trkpt>
<trkpt lat="55.661221" lon="26.591072">
<ele>144.154419</ele>
<time>2010-07-18T11:47:04Z</time>
<desc>lat.=55.661221, lon.=26.591072, Alt.=144.154419m. Speed=16.416000m/h.</desc>
<speed>4.560000</speed>
</trkpt>
<trkpt lat="55.661224" lon="26.590998">
<ele>144.025513</ele>
<time>2010-07-18T11:47:05Z</time>
<desc>lat.=55.661224, lon.=26.590998, Alt.=144.025513m. Speed=16.091999m/h.</desc>
<speed>4.470000</speed>
</trkpt>
<trkpt lat="55.661228" lon="26.590925">
<ele>144.170044</ele>
<time>2010-07-18T11:47:06Z</time>
<desc>lat.=55.661228, lon.=26.590925, Alt.=144.170044m. Speed=15.444000m/h.</desc>
<speed>4.290000</speed>
</trkpt>
<trkpt lat="55.661236" lon="26.590860">
<ele>144.119263</ele>
<time>2010-07-18T11:47:07Z</time>
<desc>lat.=55.661236, lon.=26.590860, Alt.=144.119263m. Speed=15.516000m/h.</desc>
<speed>4.310000</speed>
</trkpt>
<trkpt lat="55.661240" lon="26.590796">
<ele>143.916138</ele>
<time>2010-07-18T11:47:08Z</time>
<desc>lat.=55.661240, lon.=26.590796, Alt.=143.916138m. Speed=16.379999m/h.</desc>
<speed>4.550000</speed>
</trkpt>
<trkpt lat="55.661247" lon="26.590727">
<ele>143.841919</ele>
<time>2010-07-18T11:47:09Z</time>
<desc>lat.=55.661247, lon.=26.590727, Alt.=143.841919m. Speed=16.920000m/h.</desc>
<speed>4.700000</speed>
</trkpt>
<trkpt lat="55.661255" lon="26.590651">
<ele>143.662231</ele>
<time>2010-07-18T11:47:10Z</time>
<desc>lat.=55.661255, lon.=26.590651, Alt.=143.662231m. Speed=17.568001m/h.</desc>
<speed>4.880000</speed>
</trkpt>
<trkpt lat="55.661266" lon="26.590569">
<ele>143.451294</ele>
<time>2010-07-18T11:47:11Z</time>
<desc>lat.=55.661266, lon.=26.590569, Alt.=143.451294m. Speed=18.431999m/h.</desc>
<speed>5.120000</speed>
</trkpt>
<trkpt lat="55.661278" lon="26.590490">
<ele>143.123169</ele>
<time>2010-07-18T11:47:12Z</time>
<desc>lat.=55.661278, lon.=26.590490, Alt.=143.123169m. Speed=19.080000m/h.</desc>
<speed>5.300000</speed>
</trkpt>
<trkpt lat="55.661297" lon="26.590412">
<ele>142.896606</ele>
<time>2010-07-18T11:47:13Z</time>
<desc>lat.=55.661297, lon.=26.590412, Alt.=142.896606m. Speed=19.691999m/h.</desc>
<speed>5.470000</speed>
</trkpt>
<trkpt lat="55.661316" lon="26.590330">
<ele>142.740356</ele>
<time>2010-07-18T11:47:14Z</time>
<desc>lat.=55.661316, lon.=26.590330, Alt.=142.740356m. Speed=19.944000m/h.</desc>
<speed>5.540000</speed>
</trkpt>
<trkpt lat="55.661335" lon="26.590252">
<ele>142.713013</ele>
<time>2010-07-18T11:47:15Z</time>
<desc>lat.=55.661335, lon.=26.590252, Alt.=142.713013m. Speed=19.836000m/h.</desc>
<speed>5.510000</speed>
</trkpt>
<trkpt lat="55.661354" lon="26.590174">
<ele>142.705200</ele>
<time>2010-07-18T11:47:16Z</time>
<desc>lat.=55.661354, lon.=26.590174, Alt.=142.705200m. Speed=19.620001m/h.</desc>
<speed>5.450000</speed>
</trkpt>
<trkpt lat="55.661381" lon="26.590096">
<ele>142.619263</ele>
<time>2010-07-18T11:47:17Z</time>
<desc>lat.=55.661381, lon.=26.590096, Alt.=142.619263m. Speed=19.260000m/h.</desc>
<speed>5.350000</speed>
</trkpt>
<trkpt lat="55.661407" lon="26.590027">
<ele>142.627075</ele>
<time>2010-07-18T11:47:18Z</time>
<desc>lat.=55.661407, lon.=26.590027, Alt.=142.627075m. Speed=18.756001m/h.</desc>
<speed>5.210000</speed>
</trkpt>
<trkpt lat="55.661438" lon="26.589962">
<ele>142.701294</ele>
<time>2010-07-18T11:47:19Z</time>
<desc>lat.=55.661438, lon.=26.589962, Alt.=142.701294m. Speed=18.035999m/h.</desc>
<speed>5.010000</speed>
</trkpt>
<trkpt lat="55.661465" lon="26.589897">
<ele>142.607544</ele>
<time>2010-07-18T11:47:20Z</time>
<desc>lat.=55.661465, lon.=26.589897, Alt.=142.607544m. Speed=17.028000m/h.</desc>
<speed>4.730000</speed>
</trkpt>
<trkpt lat="55.661491" lon="26.589832">
<ele>142.689575</ele>
<time>2010-07-18T11:47:21Z</time>
<desc>lat.=55.661491, lon.=26.589832, Alt.=142.689575m. Speed=17.639999m/h.</desc>
<speed>4.900000</speed>
</trkpt>
<trkpt lat="55.661518" lon="26.589767">
<ele>142.896606</ele>
<time>2010-07-18T11:47:22Z</time>
<desc>lat.=55.661518, lon.=26.589767, Alt.=142.896606m. Speed=17.532000m/h.</desc>
<speed>4.870000</speed>
</trkpt>
<trkpt lat="55.661549" lon="26.589705">
<ele>142.822388</ele>
<time>2010-07-18T11:47:23Z</time>
<desc>lat.=55.661549, lon.=26.589705, Alt.=142.822388m. Speed=17.639999m/h.</desc>
<speed>4.900000</speed>
</trkpt>
<trkpt lat="55.661575" lon="26.589647">
<ele>142.963013</ele>
<time>2010-07-18T11:47:24Z</time>
<desc>lat.=55.661575, lon.=26.589647, Alt.=142.963013m. Speed=17.496000m/h.</desc>
<speed>4.860000</speed>
</trkpt>
<trkpt lat="55.661606" lon="26.589590">
<ele>142.873169</ele>
<time>2010-07-18T11:47:25Z</time>
<desc>lat.=55.661606, lon.=26.589590, Alt.=142.873169m. Speed=17.136000m/h.</desc>
<speed>4.760000</speed>
</trkpt>
<trkpt lat="55.661629" lon="26.589529">
<ele>142.963013</ele>
<time>2010-07-18T11:47:26Z</time>
<desc>lat.=55.661629, lon.=26.589529, Alt.=142.963013m. Speed=16.559999m/h.</desc>
<speed>4.600000</speed>
</trkpt>
<trkpt lat="55.661655" lon="26.589470">
<ele>143.177856</ele>
<time>2010-07-18T11:47:27Z</time>
<desc>lat.=55.661655, lon.=26.589470, Alt.=143.177856m. Speed=15.984000m/h.</desc>
<speed>4.440000</speed>
</trkpt>
<trkpt lat="55.661678" lon="26.589417">
<ele>143.427856</ele>
<time>2010-07-18T11:47:28Z</time>
<desc>lat.=55.661678, lon.=26.589417, Alt.=143.427856m. Speed=15.444000m/h.</desc>
<speed>4.290000</speed>
</trkpt>
<trkpt lat="55.661705" lon="26.589365">
<ele>143.470825</ele>
<time>2010-07-18T11:47:29Z</time>
<desc>lat.=55.661705, lon.=26.589365, Alt.=143.470825m. Speed=15.048000m/h.</desc>
<speed>4.180000</speed>
</trkpt>
<trkpt lat="55.661728" lon="26.589312">
<ele>143.509888</ele>
<time>2010-07-18T11:47:30Z</time>
<desc>lat.=55.661728, lon.=26.589312, Alt.=143.509888m. Speed=15.084000m/h.</desc>
<speed>4.190000</speed>
</trkpt>
<trkpt lat="55.661755" lon="26.589262">
<ele>143.638794</ele>
<time>2010-07-18T11:47:31Z</time>
<desc>lat.=55.661755, lon.=26.589262, Alt.=143.638794m. Speed=15.444000m/h.</desc>
<speed>4.290000</speed>
</trkpt>
<trkpt lat="55.661777" lon="26.589212">
<ele>143.681763</ele>
<time>2010-07-18T11:47:32Z</time>
<desc>lat.=55.661777, lon.=26.589212, Alt.=143.681763m. Speed=15.084000m/h.</desc>
<speed>4.190000</speed>
</trkpt>
<trkpt lat="55.661804" lon="26.589165">
<ele>143.896606</ele>
<time>2010-07-18T11:47:33Z</time>
<desc>lat.=55.661804, lon.=26.589165, Alt.=143.896606m. Speed=15.048000m/h.</desc>
<speed>4.180000</speed>
</trkpt>
<trkpt lat="55.661831" lon="26.589123">
<ele>144.013794</ele>
<time>2010-07-18T11:47:34Z</time>
<desc>lat.=55.661831, lon.=26.589123, Alt.=144.013794m. Speed=15.264000m/h.</desc>
<speed>4.240000</speed>
</trkpt>
<trkpt lat="55.661861" lon="26.589081">
<ele>144.017700</ele>
<time>2010-07-18T11:47:35Z</time>
<desc>lat.=55.661861, lon.=26.589081, Alt.=144.017700m. Speed=15.084000m/h.</desc>
<speed>4.190000</speed>
</trkpt>
<trkpt lat="55.661888" lon="26.589039">
<ele>144.029419</ele>
<time>2010-07-18T11:47:36Z</time>
<desc>lat.=55.661888, lon.=26.589039, Alt.=144.029419m. Speed=15.228000m/h.</desc>
<speed>4.230000</speed>
</trkpt>
<trkpt lat="55.661919" lon="26.588997">
<ele>144.220825</ele>
<time>2010-07-18T11:47:37Z</time>
<desc>lat.=55.661919, lon.=26.588997, Alt.=144.220825m. Speed=15.912000m/h.</desc>
<speed>4.420000</speed>
</trkpt>
<trkpt lat="55.661949" lon="26.588955">
<ele>144.345825</ele>
<time>2010-07-18T11:47:38Z</time>
<desc>lat.=55.661949, lon.=26.588955, Alt.=144.345825m. Speed=15.192000m/h.</desc>
<speed>4.220000</speed>
</trkpt>
<trkpt lat="55.661980" lon="26.588915">
<ele>144.361450</ele>
<time>2010-07-18T11:47:39Z</time>
<desc>lat.=55.661980, lon.=26.588915, Alt.=144.361450m. Speed=14.292000m/h.</desc>
<speed>3.970000</speed>
</trkpt>
<trkpt lat="55.662006" lon="26.588881">
<ele>144.084106</ele>
<time>2010-07-18T11:47:40Z</time>
<desc>lat.=55.662006, lon.=26.588881, Alt.=144.084106m. Speed=13.716000m/h.</desc>
<speed>3.810000</speed>
</trkpt>
<trkpt lat="55.662037" lon="26.588848">
<ele>144.041138</ele>
<time>2010-07-18T11:47:41Z</time>
<desc>lat.=55.662037, lon.=26.588848, Alt.=144.041138m. Speed=13.932000m/h.</desc>
<speed>3.870000</speed>
</trkpt>
<trkpt lat="55.662067" lon="26.588818">
<ele>143.869263</ele>
<time>2010-07-18T11:47:42Z</time>
<desc>lat.=55.662067, lon.=26.588818, Alt.=143.869263m. Speed=13.968000m/h.</desc>
<speed>3.880000</speed>
</trkpt>
<trkpt lat="55.662098" lon="26.588789">
<ele>143.857544</ele>
<time>2010-07-18T11:47:43Z</time>
<desc>lat.=55.662098, lon.=26.588789, Alt.=143.857544m. Speed=15.120000m/h.</desc>
<speed>4.200000</speed>
</trkpt>
<trkpt lat="55.662132" lon="26.588764">
<ele>144.009888</ele>
<time>2010-07-18T11:47:44Z</time>
<desc>lat.=55.662132, lon.=26.588764, Alt.=144.009888m. Speed=15.336000m/h.</desc>
<speed>4.260000</speed>
</trkpt>
<trkpt lat="55.662170" lon="26.588732">
<ele>144.263794</ele>
<time>2010-07-18T11:47:45Z</time>
<desc>lat.=55.662170, lon.=26.588732, Alt.=144.263794m. Speed=16.128000m/h.</desc>
<speed>4.480000</speed>
</trkpt>
<trkpt lat="55.662205" lon="26.588699">
<ele>144.037231</ele>
<time>2010-07-18T11:47:46Z</time>
<desc>lat.=55.662205, lon.=26.588699, Alt.=144.037231m. Speed=15.768000m/h.</desc>
<speed>4.380000</speed>
</trkpt>
<trkpt lat="55.662239" lon="26.588673">
<ele>143.986450</ele>
<time>2010-07-18T11:47:47Z</time>
<desc>lat.=55.662239, lon.=26.588673, Alt.=143.986450m. Speed=14.544000m/h.</desc>
<speed>4.040000</speed>
</trkpt>
<trkpt lat="55.662270" lon="26.588646">
<ele>144.142700</ele>
<time>2010-07-18T11:47:48Z</time>
<desc>lat.=55.662270, lon.=26.588646, Alt.=144.142700m. Speed=15.264000m/h.</desc>
<speed>4.240000</speed>
</trkpt>
<trkpt lat="55.662308" lon="26.588619">
<ele>144.150513</ele>
<time>2010-07-18T11:47:49Z</time>
<desc>lat.=55.662308, lon.=26.588619, Alt.=144.150513m. Speed=15.408000m/h.</desc>
<speed>4.280000</speed>
</trkpt>
<trkpt lat="55.662346" lon="26.588591">
<ele>144.127075</ele>
<time>2010-07-18T11:47:50Z</time>
<desc>lat.=55.662346, lon.=26.588591, Alt.=144.127075m. Speed=15.480000m/h.</desc>
<speed>4.300000</speed>
</trkpt>
<trkpt lat="55.662384" lon="26.588564">
<ele>144.041138</ele>
<time>2010-07-18T11:47:51Z</time>
<desc>lat.=55.662384, lon.=26.588564, Alt.=144.041138m. Speed=14.076000m/h.</desc>
<speed>3.910000</speed>
</trkpt>
<trkpt lat="55.662418" lon="26.588539">
<ele>144.134888</ele>
<time>2010-07-18T11:47:52Z</time>
<desc>lat.=55.662418, lon.=26.588539, Alt.=144.134888m. Speed=13.212000m/h.</desc>
<speed>3.670000</speed>
</trkpt>
<trkpt lat="55.662445" lon="26.588520">
<ele>144.240356</ele>
<time>2010-07-18T11:47:53Z</time>
<desc>lat.=55.662445, lon.=26.588520, Alt.=144.240356m. Speed=10.908000m/h.</desc>
<speed>3.030000</speed>
</trkpt>
<trkpt lat="55.662472" lon="26.588505">
<ele>144.189575</ele>
<time>2010-07-18T11:47:54Z</time>
<desc>lat.=55.662472, lon.=26.588505, Alt.=144.189575m. Speed=11.088000m/h.</desc>
<speed>3.080000</speed>
</trkpt>
<trkpt lat="55.662502" lon="26.588486">
<ele>143.947388</ele>
<time>2010-07-18T11:47:55Z</time>
<desc>lat.=55.662502, lon.=26.588486, Alt.=143.947388m. Speed=13.140000m/h.</desc>
<speed>3.650000</speed>
</trkpt>
<trkpt lat="55.662529" lon="26.588470">
<ele>143.033325</ele>
<time>2010-07-18T11:47:56Z</time>
<desc>lat.=55.662529, lon.=26.588470, Alt.=143.033325m. Speed=13.536000m/h.</desc>
<speed>3.760000</speed>
</trkpt>
<trkpt lat="55.662560" lon="26.588451">
<ele>142.627075</ele>
<time>2010-07-18T11:47:57Z</time>
<desc>lat.=55.662560, lon.=26.588451, Alt.=142.627075m. Speed=14.580000m/h.</desc>
<speed>4.050000</speed>
</trkpt>
<trkpt lat="55.662594" lon="26.588425">
<ele>142.943481</ele>
<time>2010-07-18T11:47:58Z</time>
<desc>lat.=55.662594, lon.=26.588425, Alt.=142.943481m. Speed=15.300000m/h.</desc>
<speed>4.250000</speed>
</trkpt>
<trkpt lat="55.662632" lon="26.588404">
<ele>142.951294</ele>
<time>2010-07-18T11:47:59Z</time>
<desc>lat.=55.662632, lon.=26.588404, Alt.=142.951294m. Speed=15.120000m/h.</desc>
<speed>4.200000</speed>
</trkpt>
<trkpt lat="55.662670" lon="26.588388">
<ele>142.888794</ele>
<time>2010-07-18T11:48:00Z</time>
<desc>lat.=55.662670, lon.=26.588388, Alt.=142.888794m. Speed=15.912000m/h.</desc>
<speed>4.420000</speed>
</trkpt>
<trkpt lat="55.662708" lon="26.588366">
<ele>142.908325</ele>
<time>2010-07-18T11:48:01Z</time>
<desc>lat.=55.662708, lon.=26.588366, Alt.=142.908325m. Speed=17.639999m/h.</desc>
<speed>4.900000</speed>
</trkpt>
<trkpt lat="55.662750" lon="26.588343">
<ele>142.978638</ele>
<time>2010-07-18T11:48:02Z</time>
<desc>lat.=55.662750, lon.=26.588343, Alt.=142.978638m. Speed=15.948000m/h.</desc>
<speed>4.430000</speed>
</trkpt>
<trkpt lat="55.662788" lon="26.588322">
<ele>142.943481</ele>
<time>2010-07-18T11:48:03Z</time>
<desc>lat.=55.662788, lon.=26.588322, Alt.=142.943481m. Speed=17.100000m/h.</desc>
<speed>4.750000</speed>
</trkpt>
<trkpt lat="55.662838" lon="26.588299">
<ele>142.838013</ele>
<time>2010-07-18T11:48:04Z</time>
<desc>lat.=55.662838, lon.=26.588299, Alt.=142.838013m. Speed=20.087999m/h.</desc>
<speed>5.580000</speed>
</trkpt>
<trkpt lat="55.662891" lon="26.588270">
<ele>142.654419</ele>
<time>2010-07-18T11:48:05Z</time>
<desc>lat.=55.662891, lon.=26.588270, Alt.=142.654419m. Speed=20.591999m/h.</desc>
<speed>5.720000</speed>
</trkpt>
<trkpt lat="55.662956" lon="26.588242">
<ele>143.943481</ele>
<time>2010-07-18T11:48:06Z</time>
<desc>lat.=55.662956, lon.=26.588242, Alt.=143.943481m. Speed=22.823999m/h.</desc>
<speed>6.340000</speed>
</trkpt>
<trkpt lat="55.663010" lon="26.588209">
<ele>143.920044</ele>
<time>2010-07-18T11:48:07Z</time>
<desc>lat.=55.663010, lon.=26.588209, Alt.=143.920044m. Speed=22.356001m/h.</desc>
<speed>6.210000</speed>
</trkpt>
<trkpt lat="55.663071" lon="26.588186">
<ele>144.490356</ele>
<time>2010-07-18T11:48:08Z</time>
<desc>lat.=55.663071, lon.=26.588186, Alt.=144.490356m. Speed=22.068001m/h.</desc>
<speed>6.130000</speed>
</trkpt>
<trkpt lat="55.663124" lon="26.588163">
<ele>144.048950</ele>
<time>2010-07-18T11:48:09Z</time>
<desc>lat.=55.663124, lon.=26.588163, Alt.=144.048950m. Speed=21.240000m/h.</desc>
<speed>5.900000</speed>
</trkpt>
<trkpt lat="55.663174" lon="26.588142">
<ele>143.689575</ele>
<time>2010-07-18T11:48:10Z</time>
<desc>lat.=55.663174, lon.=26.588142, Alt.=143.689575m. Speed=19.403999m/h.</desc>
<speed>5.390000</speed>
</trkpt>
<trkpt lat="55.663219" lon="26.588120">
<ele>143.798950</ele>
<time>2010-07-18T11:48:11Z</time>
<desc>lat.=55.663219, lon.=26.588120, Alt.=143.798950m. Speed=19.080000m/h.</desc>
<speed>5.300000</speed>
</trkpt>
<trkpt lat="55.663265" lon="26.588099">
<ele>144.416138</ele>
<time>2010-07-18T11:48:12Z</time>
<desc>lat.=55.663265, lon.=26.588099, Alt.=144.416138m. Speed=18.612000m/h.</desc>
<speed>5.170000</speed>
</trkpt>
<trkpt lat="55.663311" lon="26.588076">
<ele>144.513794</ele>
<time>2010-07-18T11:48:13Z</time>
<desc>lat.=55.663311, lon.=26.588076, Alt.=144.513794m. Speed=18.612000m/h.</desc>
<speed>5.170000</speed>
</trkpt>
<trkpt lat="55.663353" lon="26.588049">
<ele>144.576294</ele>
<time>2010-07-18T11:48:14Z</time>
<desc>lat.=55.663353, lon.=26.588049, Alt.=144.576294m. Speed=17.747999m/h.</desc>
<speed>4.930000</speed>
</trkpt>
<trkpt lat="55.663395" lon="26.588024">
<ele>144.463013</ele>
<time>2010-07-18T11:48:15Z</time>
<desc>lat.=55.663395, lon.=26.588024, Alt.=144.463013m. Speed=18.072001m/h.</desc>
<speed>5.020000</speed>
</trkpt>
<trkpt lat="55.663429" lon="26.587997">
<ele>143.361450</ele>
<time>2010-07-18T11:48:16Z</time>
<desc>lat.=55.663429, lon.=26.587997, Alt.=143.361450m. Speed=17.892000m/h.</desc>
<speed>4.970000</speed>
</trkpt>
<trkpt lat="55.663475" lon="26.587975">
<ele>143.130981</ele>
<time>2010-07-18T11:48:17Z</time>
<desc>lat.=55.663475, lon.=26.587975, Alt.=143.130981m. Speed=17.856001m/h.</desc>
<speed>4.960000</speed>
</trkpt>
<trkpt lat="55.663521" lon="26.587957">
<ele>142.517700</ele>
<time>2010-07-18T11:48:18Z</time>
<desc>lat.=55.663521, lon.=26.587957, Alt.=142.517700m. Speed=17.712000m/h.</desc>
<speed>4.920000</speed>
</trkpt>
<trkpt lat="55.663563" lon="26.587934">
<ele>141.880981</ele>
<time>2010-07-18T11:48:19Z</time>
<desc>lat.=55.663563, lon.=26.587934, Alt.=141.880981m. Speed=17.496000m/h.</desc>
<speed>4.860000</speed>
</trkpt>
<trkpt lat="55.663609" lon="26.587914">
<ele>142.892700</ele>
<time>2010-07-18T11:48:20Z</time>
<desc>lat.=55.663609, lon.=26.587914, Alt.=142.892700m. Speed=18.035999m/h.</desc>
<speed>5.010000</speed>
</trkpt>
<trkpt lat="55.663651" lon="26.587894">
<ele>143.060669</ele>
<time>2010-07-18T11:48:21Z</time>
<desc>lat.=55.663651, lon.=26.587894, Alt.=143.060669m. Speed=17.747999m/h.</desc>
<speed>4.930000</speed>
</trkpt>
<trkpt lat="55.663696" lon="26.587875">
<ele>142.923950</ele>
<time>2010-07-18T11:48:22Z</time>
<desc>lat.=55.663696, lon.=26.587875, Alt.=142.923950m. Speed=17.604000m/h.</desc>
<speed>4.890000</speed>
</trkpt>
<trkpt lat="55.663738" lon="26.587854">
<ele>142.963013</ele>
<time>2010-07-18T11:48:23Z</time>
<desc>lat.=55.663738, lon.=26.587854, Alt.=142.963013m. Speed=16.704000m/h.</desc>
<speed>4.640000</speed>
</trkpt>
<trkpt lat="55.663776" lon="26.587835">
<ele>143.123169</ele>
<time>2010-07-18T11:48:24Z</time>
<desc>lat.=55.663776, lon.=26.587835, Alt.=143.123169m. Speed=15.084000m/h.</desc>
<speed>4.190000</speed>
</trkpt>
<trkpt lat="55.663815" lon="26.587818">
<ele>143.330200</ele>
<time>2010-07-18T11:48:25Z</time>
<desc>lat.=55.663815, lon.=26.587818, Alt.=143.330200m. Speed=13.968000m/h.</desc>
<speed>3.880000</speed>
</trkpt>
<trkpt lat="55.663845" lon="26.587803">
<ele>143.295044</ele>
<time>2010-07-18T11:48:26Z</time>
<desc>lat.=55.663845, lon.=26.587803, Alt.=143.295044m. Speed=12.492000m/h.</desc>
<speed>3.470000</speed>
</trkpt>
<trkpt lat="55.663876" lon="26.587788">
<ele>143.673950</ele>
<time>2010-07-18T11:48:27Z</time>
<desc>lat.=55.663876, lon.=26.587788, Alt.=143.673950m. Speed=9.900000m/h.</desc>
<speed>2.750000</speed>
</trkpt>
<trkpt lat="55.663895" lon="26.587772">
<ele>144.060669</ele>
<time>2010-07-18T11:48:28Z</time>
<desc>lat.=55.663895, lon.=26.587772, Alt.=144.060669m. Speed=8.388000m/h.</desc>
<speed>2.330000</speed>
</trkpt>
<trkpt lat="55.663910" lon="26.587753">
<ele>144.322388</ele>
<time>2010-07-18T11:48:29Z</time>
<desc>lat.=55.663910, lon.=26.587753, Alt.=144.322388m. Speed=7.236000m/h.</desc>
<speed>2.010000</speed>
</trkpt>
<trkpt lat="55.663929" lon="26.587744">
<ele>144.377075</ele>
<time>2010-07-18T11:48:30Z</time>
<desc>lat.=55.663929, lon.=26.587744, Alt.=144.377075m. Speed=6.912000m/h.</desc>
<speed>1.920000</speed>
</trkpt>
<trkpt lat="55.663944" lon="26.587738">
<ele>144.580200</ele>
<time>2010-07-18T11:48:31Z</time>
<desc>lat.=55.663944, lon.=26.587738, Alt.=144.580200m. Speed=7.164000m/h.</desc>
<speed>1.990000</speed>
</trkpt>
<trkpt lat="55.663963" lon="26.587732">
<ele>144.916138</ele>
<time>2010-07-18T11:48:32Z</time>
<desc>lat.=55.663963, lon.=26.587732, Alt.=144.916138m. Speed=7.308000m/h.</desc>
<speed>2.030000</speed>
</trkpt>
<trkpt lat="55.663979" lon="26.587730">
<ele>145.295044</ele>
<time>2010-07-18T11:48:33Z</time>
<desc>lat.=55.663979, lon.=26.587730, Alt.=145.295044m. Speed=6.372000m/h.</desc>
<speed>1.770000</speed>
</trkpt>
<trkpt lat="55.663994" lon="26.587727">
<ele>145.791138</ele>
<time>2010-07-18T11:48:34Z</time>
<desc>lat.=55.663994, lon.=26.587727, Alt.=145.791138m. Speed=6.048000m/h.</desc>
<speed>1.680000</speed>
</trkpt>
<trkpt lat="55.664005" lon="26.587719">
<ele>145.990356</ele>
<time>2010-07-18T11:48:35Z</time>
<desc>lat.=55.664005, lon.=26.587719, Alt.=145.990356m. Speed=5.652000m/h.</desc>
<speed>1.570000</speed>
</trkpt>
<trkpt lat="55.664017" lon="26.587715">
<ele>146.076294</ele>
<time>2010-07-18T11:48:36Z</time>
<desc>lat.=55.664017, lon.=26.587715, Alt.=146.076294m. Speed=6.192000m/h.</desc>
<speed>1.720000</speed>
</trkpt>
<trkpt lat="55.664032" lon="26.587709">
<ele>146.130981</ele>
<time>2010-07-18T11:48:37Z</time>
<desc>lat.=55.664032, lon.=26.587709, Alt.=146.130981m. Speed=6.336000m/h.</desc>
<speed>1.760000</speed>
</trkpt>
<trkpt lat="55.664047" lon="26.587709">
<ele>145.994263</ele>
<time>2010-07-18T11:48:38Z</time>
<desc>lat.=55.664047, lon.=26.587709, Alt.=145.994263m. Speed=6.120000m/h.</desc>
<speed>1.700000</speed>
</trkpt>
<trkpt lat="55.664063" lon="26.587704">
<ele>146.002075</ele>
<time>2010-07-18T11:48:39Z</time>
<desc>lat.=55.664063, lon.=26.587704, Alt.=146.002075m. Speed=6.516000m/h.</desc>
<speed>1.810000</speed>
</trkpt>
<trkpt lat="55.664074" lon="26.587698">
<ele>145.853638</ele>
<time>2010-07-18T11:48:40Z</time>
<desc>lat.=55.664074, lon.=26.587698, Alt.=145.853638m. Speed=7.344000m/h.</desc>
<speed>2.040000</speed>
</trkpt>
<trkpt lat="55.664093" lon="26.587688">
<ele>145.880981</ele>
<time>2010-07-18T11:48:41Z</time>
<desc>lat.=55.664093, lon.=26.587688, Alt.=145.880981m. Speed=7.380000m/h.</desc>
<speed>2.050000</speed>
</trkpt>
<trkpt lat="55.664108" lon="26.587679">
<ele>145.798950</ele>
<time>2010-07-18T11:48:42Z</time>
<desc>lat.=55.664108, lon.=26.587679, Alt.=145.798950m. Speed=7.776000m/h.</desc>
<speed>2.160000</speed>
</trkpt>
<trkpt lat="55.664131" lon="26.587673">
<ele>145.841919</ele>
<time>2010-07-18T11:48:43Z</time>
<desc>lat.=55.664131, lon.=26.587673, Alt.=145.841919m. Speed=8.064000m/h.</desc>
<speed>2.240000</speed>
</trkpt>
<trkpt lat="55.664150" lon="26.587669">
<ele>145.900513</ele>
<time>2010-07-18T11:48:44Z</time>
<desc>lat.=55.664150, lon.=26.587669, Alt.=145.900513m. Speed=8.100000m/h.</desc>
<speed>2.250000</speed>
</trkpt>
<trkpt lat="55.664173" lon="26.587664">
<ele>146.154419</ele>
<time>2010-07-18T11:48:45Z</time>
<desc>lat.=55.664173, lon.=26.587664, Alt.=146.154419m. Speed=7.956000m/h.</desc>
<speed>2.210000</speed>
</trkpt>
<trkpt lat="55.664192" lon="26.587654">
<ele>146.435669</ele>
<time>2010-07-18T11:48:46Z</time>
<desc>lat.=55.664192, lon.=26.587654, Alt.=146.435669m. Speed=9.000000m/h.</desc>
<speed>2.500000</speed>
</trkpt>
<trkpt lat="55.664215" lon="26.587648">
<ele>146.353638</ele>
<time>2010-07-18T11:48:47Z</time>
<desc>lat.=55.664215, lon.=26.587648, Alt.=146.353638m. Speed=7.848000m/h.</desc>
<speed>2.180000</speed>
</trkpt>
<trkpt lat="55.664230" lon="26.587646">
<ele>146.181763</ele>
<time>2010-07-18T11:48:48Z</time>
<desc>lat.=55.664230, lon.=26.587646, Alt.=146.181763m. Speed=6.336000m/h.</desc>
<speed>1.760000</speed>
</trkpt>
<trkpt lat="55.664242" lon="26.587645">
<ele>146.158325</ele>
<time>2010-07-18T11:48:49Z</time>
<desc>lat.=55.664242, lon.=26.587645, Alt.=146.158325m. Speed=2.628000m/h.</desc>
<speed>0.730000</speed>
</trkpt>
<trkpt lat="55.664249" lon="26.587652">
<ele>145.877075</ele>
<time>2010-07-18T11:48:50Z</time>
<desc>lat.=55.664249, lon.=26.587652, Alt.=145.877075m. Speed=3.456000m/h.</desc>
<speed>0.960000</speed>
</trkpt>
<trkpt lat="55.664253" lon="26.587652">
<ele>145.826294</ele>
<time>2010-07-18T11:48:51Z</time>
<desc>lat.=55.664253, lon.=26.587652, Alt.=145.826294m. Speed=0.180000m/h.</desc>
<speed>0.050000</speed>
</trkpt>
<trkpt lat="55.664253" lon="26.587654">
<ele>145.920044</ele>
<time>2010-07-18T11:48:52Z</time>
<desc>lat.=55.664253, lon.=26.587654, Alt.=145.920044m. Speed=0.072000m/h.</desc>
<speed>0.020000</speed>
</trkpt>
<trkpt lat="55.664253" lon="26.587654">
<ele>145.908325</ele>
<time>2010-07-18T11:48:53Z</time>
<desc>lat.=55.664253, lon.=26.587654, Alt.=145.908325m. Speed=0.648000m/h.</desc>
<speed>0.180000</speed>
</trkpt>
<trkpt lat="55.664253" lon="26.587652">
<ele>145.896606</ele>
<time>2010-07-18T11:48:54Z</time>
<desc>lat.=55.664253, lon.=26.587652, Alt.=145.896606m. Speed=0.216000m/h.</desc>
<speed>0.060000</speed>
</trkpt>
<trkpt lat="55.664253" lon="26.587652">
<ele>145.888794</ele>
<time>2010-07-18T11:48:55Z</time>
<desc>lat.=55.664253, lon.=26.587652, Alt.=145.888794m. Speed=0.216000m/h.</desc>
<speed>0.060000</speed>
</trkpt>
<trkpt lat="55.664253" lon="26.587652">
<ele>145.888794</ele>
<time>2010-07-18T11:48:56Z</time>
<desc>lat.=55.664253, lon.=26.587652, Alt.=145.888794m. Speed=0.180000m/h.</desc>
<speed>0.050000</speed>
</trkpt>
<trkpt lat="55.664253" lon="26.587652">
<ele>145.892700</ele>
<time>2010-07-18T11:48:57Z</time>
<desc>lat.=55.664253, lon.=26.587652, Alt.=145.892700m. Speed=0.216000m/h.</desc>
<speed>0.060000</speed>
</trkpt>
<trkpt lat="55.664253" lon="26.587654">
<ele>145.896606</ele>
<time>2010-07-18T11:48:58Z</time>
<desc>lat.=55.664253, lon.=26.587654, Alt.=145.896606m. Speed=0.000000m/h.</desc>
<speed>0.000000</speed>
</trkpt>
<trkpt lat="55.664253" lon="26.587654">
<ele>145.900513</ele>
<time>2010-07-18T11:48:59Z</time>
<desc>lat.=55.664253, lon.=26.587654, Alt.=145.900513m. Speed=0.036000m/h.</desc>
<speed>0.010000</speed>
</trkpt>
<trkpt lat="55.664253" lon="26.587654">
<ele>145.900513</ele>
<time>2010-07-18T11:49:00Z</time>
<desc>lat.=55.664253, lon.=26.587654, Alt.=145.900513m. Speed=0.180000m/h.</desc>
<speed>0.050000</speed>
</trkpt>
<trkpt lat="55.664253" lon="26.587652">
<ele>145.904419</ele>
<time>2010-07-18T11:49:01Z</time>
<desc>lat.=55.664253, lon.=26.587652, Alt.=145.904419m. Speed=0.000000m/h.</desc>
<speed>0.000000</speed>
</trkpt>
<trkpt lat="55.664253" lon="26.587652">
<ele>145.908325</ele>
<time>2010-07-18T11:49:02Z</time>
<desc>lat.=55.664253, lon.=26.587652, Alt.=145.908325m. Speed=0.144000m/h.</desc>
<speed>0.040000</speed>
</trkpt>
<trkpt lat="55.664253" lon="26.587654">
<ele>145.912231</ele>
<time>2010-07-18T11:49:03Z</time>
<desc>lat.=55.664253, lon.=26.587654, Alt.=145.912231m. Speed=0.036000m/h.</desc>
<speed>0.010000</speed>
</trkpt>
<trkpt lat="55.664253" lon="26.587654">
<ele>145.920044</ele>
<time>2010-07-18T11:49:04Z</time>
<desc>lat.=55.664253, lon.=26.587654, Alt.=145.920044m. Speed=0.180000m/h.</desc>
<speed>0.050000</speed>
</trkpt>
<trkpt lat="55.664257" lon="26.587654">
<ele>145.923950</ele>
<time>2010-07-18T11:49:05Z</time>
<desc>lat.=55.664257, lon.=26.587654, Alt.=145.923950m. Speed=0.288000m/h.</desc>
<speed>0.080000</speed>
</trkpt>
<trkpt lat="55.664257" lon="26.587652">
<ele>145.927856</ele>
<time>2010-07-18T11:49:06Z</time>
<desc>lat.=55.664257, lon.=26.587652, Alt.=145.927856m. Speed=0.000000m/h.</desc>
<speed>0.000000</speed>
</trkpt>
<trkpt lat="55.664257" lon="26.587652">
<ele>145.951294</ele>
<time>2010-07-18T11:49:07Z</time>
<desc>lat.=55.664257, lon.=26.587652, Alt.=145.951294m. Speed=0.612000m/h.</desc>
<speed>0.170000</speed>
</trkpt>
<trkpt lat="55.664257" lon="26.587652">
<ele>146.158325</ele>
<time>2010-07-18T11:49:08Z</time>
<desc>lat.=55.664257, lon.=26.587652, Alt.=146.158325m. Speed=1.116000m/h.</desc>
<speed>0.310000</speed>
</trkpt>
<trkpt lat="55.664257" lon="26.587658">
<ele>146.443481</ele>
<time>2010-07-18T11:49:09Z</time>
<desc>lat.=55.664257, lon.=26.587658, Alt.=146.443481m. Speed=0.792000m/h.</desc>
<speed>0.220000</speed>
</trkpt>
<trkpt lat="55.664257" lon="26.587656">
<ele>146.802856</ele>
<time>2010-07-18T11:49:10Z</time>
<desc>lat.=55.664257, lon.=26.587656, Alt.=146.802856m. Speed=2.880000m/h.</desc>
<speed>0.800000</speed>
</trkpt>
<trkpt lat="55.664265" lon="26.587656">
<ele>147.154419</ele>
<time>2010-07-18T11:49:11Z</time>
<desc>lat.=55.664265, lon.=26.587656, Alt.=147.154419m. Speed=6.480000m/h.</desc>
<speed>1.800000</speed>
</trkpt>
<trkpt lat="55.664288" lon="26.587654">
<ele>147.240356</ele>
<time>2010-07-18T11:49:12Z</time>
<desc>lat.=55.664288, lon.=26.587654, Alt.=147.240356m. Speed=9.468000m/h.</desc>
<speed>2.630000</speed>
</trkpt>
<trkpt lat="55.664314" lon="26.587650">
<ele>147.287231</ele>
<time>2010-07-18T11:49:13Z</time>
<desc>lat.=55.664314, lon.=26.587650, Alt.=147.287231m. Speed=10.368000m/h.</desc>
<speed>2.880000</speed>
</trkpt>
<trkpt lat="55.664337" lon="26.587645">
<ele>146.658325</ele>
<time>2010-07-18T11:49:14Z</time>
<desc>lat.=55.664337, lon.=26.587645, Alt.=146.658325m. Speed=11.736000m/h.</desc>
<speed>3.260000</speed>
</trkpt>
<trkpt lat="55.664368" lon="26.587641">
<ele>146.470825</ele>
<time>2010-07-18T11:49:15Z</time>
<desc>lat.=55.664368, lon.=26.587641, Alt.=146.470825m. Speed=11.160000m/h.</desc>
<speed>3.100000</speed>
</trkpt>
<trkpt lat="55.664398" lon="26.587637">
<ele>146.017700</ele>
<time>2010-07-18T11:49:16Z</time>
<desc>lat.=55.664398, lon.=26.587637, Alt.=146.017700m. Speed=12.096000m/h.</desc>
<speed>3.360000</speed>
</trkpt>
<trkpt lat="55.664429" lon="26.587633">
<ele>146.002075</ele>
<time>2010-07-18T11:49:17Z</time>
<desc>lat.=55.664429, lon.=26.587633, Alt.=146.002075m. Speed=13.788000m/h.</desc>
<speed>3.830000</speed>
</trkpt>
<trkpt lat="55.664463" lon="26.587629">
<ele>145.826294</ele>
<time>2010-07-18T11:49:18Z</time>
<desc>lat.=55.664463, lon.=26.587629, Alt.=145.826294m. Speed=12.924000m/h.</desc>
<speed>3.590000</speed>
</trkpt>
<trkpt lat="55.664497" lon="26.587626">
<ele>145.455200</ele>
<time>2010-07-18T11:49:19Z</time>
<desc>lat.=55.664497, lon.=26.587626, Alt.=145.455200m. Speed=14.076000m/h.</desc>
<speed>3.910000</speed>
</trkpt>
<trkpt lat="55.664524" lon="26.587620">
<ele>145.556763</ele>
<time>2010-07-18T11:49:20Z</time>
<desc>lat.=55.664524, lon.=26.587620, Alt.=145.556763m. Speed=12.564000m/h.</desc>
<speed>3.490000</speed>
</trkpt>
<trkpt lat="55.664539" lon="26.587618">
<ele>145.584106</ele>
<time>2010-07-18T11:49:21Z</time>
<desc>lat.=55.664539, lon.=26.587618, Alt.=145.584106m. Speed=5.688000m/h.</desc>
<speed>1.580000</speed>
</trkpt>
<trkpt lat="55.664558" lon="26.587629">
<ele>146.045044</ele>
<time>2010-07-18T11:49:22Z</time>
<desc>lat.=55.664558, lon.=26.587629, Alt.=146.045044m. Speed=9.540000m/h.</desc>
<speed>2.650000</speed>
</trkpt>
<trkpt lat="55.664593" lon="26.587648">
<ele>146.322388</ele>
<time>2010-07-18T11:49:23Z</time>
<desc>lat.=55.664593, lon.=26.587648, Alt.=146.322388m. Speed=11.664000m/h.</desc>
<speed>3.240000</speed>
</trkpt>
<trkpt lat="55.664623" lon="26.587658">
<ele>146.787231</ele>
<time>2010-07-18T11:49:24Z</time>
<desc>lat.=55.664623, lon.=26.587658, Alt.=146.787231m. Speed=14.148000m/h.</desc>
<speed>3.930000</speed>
</trkpt>
<trkpt lat="55.664661" lon="26.587677">
<ele>147.017700</ele>
<time>2010-07-18T11:49:25Z</time>
<desc>lat.=55.664661, lon.=26.587677, Alt.=147.017700m. Speed=15.156000m/h.</desc>
<speed>4.210000</speed>
</trkpt>
<trkpt lat="55.664700" lon="26.587692">
<ele>146.771606</ele>
<time>2010-07-18T11:49:26Z</time>
<desc>lat.=55.664700, lon.=26.587692, Alt.=146.771606m. Speed=13.932000m/h.</desc>
<speed>3.870000</speed>
</trkpt>
<trkpt lat="55.664734" lon="26.587706">
<ele>146.685669</ele>
<time>2010-07-18T11:49:27Z</time>
<desc>lat.=55.664734, lon.=26.587706, Alt.=146.685669m. Speed=12.528000m/h.</desc>
<speed>3.480000</speed>
</trkpt>
<trkpt lat="55.664768" lon="26.587711">
<ele>147.041138</ele>
<time>2010-07-18T11:49:28Z</time>
<desc>lat.=55.664768, lon.=26.587711, Alt.=147.041138m. Speed=12.168000m/h.</desc>
<speed>3.380000</speed>
</trkpt>
<trkpt lat="55.664803" lon="26.587711">
<ele>147.568481</ele>
<time>2010-07-18T11:49:29Z</time>
<desc>lat.=55.664803, lon.=26.587711, Alt.=147.568481m. Speed=11.628000m/h.</desc>
<speed>3.230000</speed>
</trkpt>
<trkpt lat="55.664833" lon="26.587715">
<ele>147.880981</ele>
<time>2010-07-18T11:49:30Z</time>
<desc>lat.=55.664833, lon.=26.587715, Alt.=147.880981m. Speed=11.088000m/h.</desc>
<speed>3.080000</speed>
</trkpt>
<trkpt lat="55.664860" lon="26.587719">
<ele>147.533325</ele>
<time>2010-07-18T11:49:31Z</time>
<desc>lat.=55.664860, lon.=26.587719, Alt.=147.533325m. Speed=9.468000m/h.</desc>
<speed>2.630000</speed>
</trkpt>
<trkpt lat="55.664883" lon="26.587721">
<ele>147.470825</ele>
<time>2010-07-18T11:49:32Z</time>
<desc>lat.=55.664883, lon.=26.587721, Alt.=147.470825m. Speed=6.588000m/h.</desc>
<speed>1.830000</speed>
</trkpt>
<trkpt lat="55.664890" lon="26.587723">
<ele>147.634888</ele>
<time>2010-07-18T11:49:33Z</time>
<desc>lat.=55.664890, lon.=26.587723, Alt.=147.634888m. Speed=1.260000m/h.</desc>
<speed>0.350000</speed>
</trkpt>
<trkpt lat="55.664890" lon="26.587721">
<ele>147.541138</ele>
<time>2010-07-18T11:49:34Z</time>
<desc>lat.=55.664890, lon.=26.587721, Alt.=147.541138m. Speed=0.936000m/h.</desc>
<speed>0.260000</speed>
</trkpt>
<trkpt lat="55.664894" lon="26.587721">
<ele>147.373169</ele>
<time>2010-07-18T11:49:35Z</time>
<desc>lat.=55.664894, lon.=26.587721, Alt.=147.373169m. Speed=0.396000m/h.</desc>
<speed>0.110000</speed>
</trkpt>
<trkpt lat="55.664898" lon="26.587719">
<ele>147.166138</ele>
<time>2010-07-18T11:49:36Z</time>
<desc>lat.=55.664898, lon.=26.587719, Alt.=147.166138m. Speed=0.792000m/h.</desc>
<speed>0.220000</speed>
</trkpt>
<trkpt lat="55.664898" lon="26.587717">
<ele>147.252075</ele>
<time>2010-07-18T11:49:37Z</time>
<desc>lat.=55.664898, lon.=26.587717, Alt.=147.252075m. Speed=0.108000m/h.</desc>
<speed>0.030000</speed>
</trkpt>
<trkpt lat="55.664898" lon="26.587717">
<ele>147.314575</ele>
<time>2010-07-18T11:49:38Z</time>
<desc>lat.=55.664898, lon.=26.587717, Alt.=147.314575m. Speed=0.432000m/h.</desc>
<speed>0.120000</speed>
</trkpt>
<trkpt lat="55.664898" lon="26.587715">
<ele>147.361450</ele>
<time>2010-07-18T11:49:39Z</time>
<desc>lat.=55.664898, lon.=26.587715, Alt.=147.361450m. Speed=0.432000m/h.</desc>
<speed>0.120000</speed>
</trkpt>
<trkpt lat="55.664898" lon="26.587715">
<ele>147.388794</ele>
<time>2010-07-18T11:49:40Z</time>
<desc>lat.=55.664898, lon.=26.587715, Alt.=147.388794m. Speed=0.360000m/h.</desc>
<speed>0.100000</speed>
</trkpt>
<trkpt lat="55.664898" lon="26.587715">
<ele>147.408325</ele>
<time>2010-07-18T11:49:41Z</time>
<desc>lat.=55.664898, lon.=26.587715, Alt.=147.408325m. Speed=0.360000m/h.</desc>
<speed>0.100000</speed>
</trkpt>
<trkpt lat="55.664894" lon="26.587713">
<ele>147.439575</ele>
<time>2010-07-18T11:49:42Z</time>
<desc>lat.=55.664894, lon.=26.587713, Alt.=147.439575m. Speed=0.108000m/h.</desc>
<speed>0.030000</speed>
</trkpt>
<trkpt lat="55.664894" lon="26.587713">
<ele>147.451294</ele>
<time>2010-07-18T11:49:43Z</time>
<desc>lat.=55.664894, lon.=26.587713, Alt.=147.451294m. Speed=0.108000m/h.</desc>
<speed>0.030000</speed>
</trkpt>
<trkpt lat="55.664898" lon="26.587713">
<ele>147.451294</ele>
<time>2010-07-18T11:49:44Z</time>
<desc>lat.=55.664898, lon.=26.587713, Alt.=147.451294m. Speed=0.180000m/h.</desc>
<speed>0.050000</speed>
</trkpt>
<trkpt lat="55.664898" lon="26.587713">
<ele>147.459106</ele>
<time>2010-07-18T11:49:45Z</time>
<desc>lat.=55.664898, lon.=26.587713, Alt.=147.459106m. Speed=0.000000m/h.</desc>
<speed>0.000000</speed>
</trkpt>
<trkpt lat="55.664898" lon="26.587713">
<ele>147.463013</ele>
<time>2010-07-18T11:49:46Z</time>
<desc>lat.=55.664898, lon.=26.587713, Alt.=147.463013m. Speed=0.036000m/h.</desc>
<speed>0.010000</speed>
</trkpt>
<trkpt lat="55.664898" lon="26.587713">
<ele>147.466919</ele>
<time>2010-07-18T11:49:47Z</time>
<desc>lat.=55.664898, lon.=26.587713, Alt.=147.466919m. Speed=0.072000m/h.</desc>
<speed>0.020000</speed>
</trkpt>
<trkpt lat="55.664898" lon="26.587713">
<ele>147.459106</ele>
<time>2010-07-18T11:49:48Z</time>
<desc>lat.=55.664898, lon.=26.587713, Alt.=147.459106m. Speed=0.000000m/h.</desc>
<speed>0.000000</speed>
</trkpt>
<trkpt lat="55.664898" lon="26.587713">
<ele>147.459106</ele>
<time>2010-07-18T11:49:49Z</time>
<desc>lat.=55.664898, lon.=26.587713, Alt.=147.459106m. Speed=0.036000m/h.</desc>
<speed>0.010000</speed>
</trkpt>
<trkpt lat="55.664898" lon="26.587713">
<ele>147.466919</ele>
<time>2010-07-18T11:49:50Z</time>
<desc>lat.=55.664898, lon.=26.587713, Alt.=147.466919m. Speed=0.072000m/h.</desc>
<speed>0.020000</speed>
</trkpt>
<trkpt lat="55.664898" lon="26.587713">
<ele>147.466919</ele>
<time>2010-07-18T11:49:51Z</time>
<desc>lat.=55.664898, lon.=26.587713, Alt.=147.466919m. Speed=0.072000m/h.</desc>
<speed>0.020000</speed>
</trkpt>
<trkpt lat="55.664898" lon="26.587713">
<ele>147.478638</ele>
<time>2010-07-18T11:49:52Z</time>
<desc>lat.=55.664898, lon.=26.587713, Alt.=147.478638m. Speed=0.036000m/h.</desc>
<speed>0.010000</speed>
</trkpt>
<trkpt lat="55.664898" lon="26.587713">
<ele>147.482544</ele>
<time>2010-07-18T11:49:53Z</time>
<desc>lat.=55.664898, lon.=26.587713, Alt.=147.482544m. Speed=0.036000m/h.</desc>
<speed>0.010000</speed>
</trkpt>
<trkpt lat="55.664898" lon="26.587713">
<ele>147.482544</ele>
<time>2010-07-18T11:49:54Z</time>
<desc>lat.=55.664898, lon.=26.587713, Alt.=147.482544m. Speed=0.036000m/h.</desc>
<speed>0.010000</speed>
</trkpt>
<trkpt lat="55.664898" lon="26.587713">
<ele>147.490356</ele>
<time>2010-07-18T11:49:55Z</time>
<desc>lat.=55.664898, lon.=26.587713, Alt.=147.490356m. Speed=0.000000m/h.</desc>
<speed>0.000000</speed>
</trkpt>
<trkpt lat="55.664898" lon="26.587713">
<ele>147.478638</ele>
<time>2010-07-18T11:49:56Z</time>
<desc>lat.=55.664898, lon.=26.587713, Alt.=147.478638m. Speed=0.000000m/h.</desc>
<speed>0.000000</speed>
</trkpt>
<trkpt lat="55.664898" lon="26.587713">
<ele>147.466919</ele>
<time>2010-07-18T11:49:57Z</time>
<desc>lat.=55.664898, lon.=26.587713, Alt.=147.466919m. Speed=0.036000m/h.</desc>
<speed>0.010000</speed>
</trkpt>
<trkpt lat="55.664898" lon="26.587713">
<ele>147.486450</ele>
<time>2010-07-18T11:49:58Z</time>
<desc>lat.=55.664898, lon.=26.587713, Alt.=147.486450m. Speed=0.072000m/h.</desc>
<speed>0.020000</speed>
</trkpt>
<trkpt lat="55.664898" lon="26.587713">
<ele>147.474731</ele>
<time>2010-07-18T11:49:59Z</time>
<desc>lat.=55.664898, lon.=26.587713, Alt.=147.474731m. Speed=0.252000m/h.</desc>
<speed>0.070000</speed>
</trkpt>
<trkpt lat="55.664898" lon="26.587715">
<ele>147.470825</ele>
<time>2010-07-18T11:50:00Z</time>
<desc>lat.=55.664898, lon.=26.587715, Alt.=147.470825m. Speed=0.072000m/h.</desc>
<speed>0.020000</speed>
</trkpt>
<trkpt lat="55.664898" lon="26.587715">
<ele>147.470825</ele>
<time>2010-07-18T11:50:01Z</time>
<desc>lat.=55.664898, lon.=26.587715, Alt.=147.470825m. Speed=0.432000m/h.</desc>
<speed>0.120000</speed>
</trkpt>
<trkpt lat="55.664902" lon="26.587715">
<ele>147.482544</ele>
<time>2010-07-18T11:50:02Z</time>
<desc>lat.=55.664902, lon.=26.587715, Alt.=147.482544m. Speed=0.288000m/h.</desc>
<speed>0.080000</speed>
</trkpt>
<trkpt lat="55.664902" lon="26.587715">
<ele>147.494263</ele>
<time>2010-07-18T11:50:03Z</time>
<desc>lat.=55.664902, lon.=26.587715, Alt.=147.494263m. Speed=0.288000m/h.</desc>
<speed>0.080000</speed>
</trkpt>
<trkpt lat="55.664902" lon="26.587717">
<ele>147.498169</ele>
<time>2010-07-18T11:50:04Z</time>
<desc>lat.=55.664902, lon.=26.587717, Alt.=147.498169m. Speed=0.504000m/h.</desc>
<speed>0.140000</speed>
</trkpt>
<trkpt lat="55.664902" lon="26.587719">
<ele>147.482544</ele>
<time>2010-07-18T11:50:05Z</time>
<desc>lat.=55.664902, lon.=26.587719, Alt.=147.482544m. Speed=0.612000m/h.</desc>
<speed>0.170000</speed>
</trkpt>
<trkpt lat="55.664906" lon="26.587721">
<ele>147.466919</ele>
<time>2010-07-18T11:50:06Z</time>
<desc>lat.=55.664906, lon.=26.587721, Alt.=147.466919m. Speed=1.116000m/h.</desc>
<speed>0.310000</speed>
</trkpt>
<trkpt lat="55.664906" lon="26.587719">
<ele>147.459106</ele>
<time>2010-07-18T11:50:07Z</time>
<desc>lat.=55.664906, lon.=26.587719, Alt.=147.459106m. Speed=1.476000m/h.</desc>
<speed>0.410000</speed>
</trkpt>
<trkpt lat="55.664909" lon="26.587719">
<ele>147.459106</ele>
<time>2010-07-18T11:50:08Z</time>
<desc>lat.=55.664909, lon.=26.587719, Alt.=147.459106m. Speed=2.988000m/h.</desc>
<speed>0.830000</speed>
</trkpt>
<trkpt lat="55.664917" lon="26.587717">
<ele>147.459106</ele>
<time>2010-07-18T11:50:09Z</time>
<desc>lat.=55.664917, lon.=26.587717, Alt.=147.459106m. Speed=4.932000m/h.</desc>
<speed>1.370000</speed>
</trkpt>
<trkpt lat="55.664932" lon="26.587713">
<ele>147.470825</ele>
<time>2010-07-18T11:50:10Z</time>
<desc>lat.=55.664932, lon.=26.587713, Alt.=147.470825m. Speed=4.860000m/h.</desc>
<speed>1.350000</speed>
</trkpt>
<trkpt lat="55.664951" lon="26.587711">
<ele>147.509888</ele>
<time>2010-07-18T11:50:11Z</time>
<desc>lat.=55.664951, lon.=26.587711, Alt.=147.509888m. Speed=6.048000m/h.</desc>
<speed>1.680000</speed>
</trkpt>
<trkpt lat="55.664978" lon="26.587729">
<ele>147.752075</ele>
<time>2010-07-18T11:50:12Z</time>
<desc>lat.=55.664978, lon.=26.587729, Alt.=147.752075m. Speed=8.316000m/h.</desc>
<speed>2.310000</speed>
</trkpt>
<trkpt lat="55.665005" lon="26.587736">
<ele>148.138794</ele>
<time>2010-07-18T11:50:13Z</time>
<desc>lat.=55.665005, lon.=26.587736, Alt.=148.138794m. Speed=10.152000m/h.</desc>
<speed>2.820000</speed>
</trkpt>
<trkpt lat="55.665031" lon="26.587742">
<ele>148.021606</ele>
<time>2010-07-18T11:50:14Z</time>
<desc>lat.=55.665031, lon.=26.587742, Alt.=148.021606m. Speed=9.432000m/h.</desc>
<speed>2.620000</speed>
</trkpt>
<trkpt lat="55.665066" lon="26.587749">
<ele>148.084106</ele>
<time>2010-07-18T11:50:15Z</time>
<desc>lat.=55.665066, lon.=26.587749, Alt.=148.084106m. Speed=10.440000m/h.</desc>
<speed>2.900000</speed>
</trkpt>
<trkpt lat="55.665096" lon="26.587755">
<ele>148.314575</ele>
<time>2010-07-18T11:50:16Z</time>
<desc>lat.=55.665096, lon.=26.587755, Alt.=148.314575m. Speed=10.692000m/h.</desc>
<speed>2.970000</speed>
</trkpt>
<trkpt lat="55.665123" lon="26.587753">
<ele>148.115356</ele>
<time>2010-07-18T11:50:17Z</time>
<desc>lat.=55.665123, lon.=26.587753, Alt.=148.115356m. Speed=9.288000m/h.</desc>
<speed>2.580000</speed>
</trkpt>
<trkpt lat="55.665150" lon="26.587753">
<ele>148.103638</ele>
<time>2010-07-18T11:50:18Z</time>
<desc>lat.=55.665150, lon.=26.587753, Alt.=148.103638m. Speed=11.664000m/h.</desc>
<speed>3.240000</speed>
</trkpt>
<trkpt lat="55.665184" lon="26.587761">
<ele>148.220825</ele>
<time>2010-07-18T11:50:19Z</time>
<desc>lat.=55.665184, lon.=26.587761, Alt.=148.220825m. Speed=11.880000m/h.</desc>
<speed>3.300000</speed>
</trkpt>
<trkpt lat="55.665215" lon="26.587761">
<ele>148.138794</ele>
<time>2010-07-18T11:50:20Z</time>
<desc>lat.=55.665215, lon.=26.587761, Alt.=148.138794m. Speed=10.620000m/h.</desc>
<speed>2.950000</speed>
</trkpt>
<trkpt lat="55.665245" lon="26.587757">
<ele>147.849731</ele>
<time>2010-07-18T11:50:21Z</time>
<desc>lat.=55.665245, lon.=26.587757, Alt.=147.849731m. Speed=12.240000m/h.</desc>
<speed>3.400000</speed>
</trkpt>
<trkpt lat="55.665276" lon="26.587755">
<ele>147.154419</ele>
<time>2010-07-18T11:50:22Z</time>
<desc>lat.=55.665276, lon.=26.587755, Alt.=147.154419m. Speed=12.708000m/h.</desc>
<speed>3.530000</speed>
</trkpt>
<trkpt lat="55.665306" lon="26.587757">
<ele>147.447388</ele>
<time>2010-07-18T11:50:23Z</time>
<desc>lat.=55.665306, lon.=26.587757, Alt.=147.447388m. Speed=11.376000m/h.</desc>
<speed>3.160000</speed>
</trkpt>
<trkpt lat="55.665337" lon="26.587761">
<ele>147.685669</ele>
<time>2010-07-18T11:50:24Z</time>
<desc>lat.=55.665337, lon.=26.587761, Alt.=147.685669m. Speed=11.448000m/h.</desc>
<speed>3.180000</speed>
</trkpt>
<trkpt lat="55.665371" lon="26.587772">
<ele>147.795044</ele>
<time>2010-07-18T11:50:25Z</time>
<desc>lat.=55.665371, lon.=26.587772, Alt.=147.795044m. Speed=12.528000m/h.</desc>
<speed>3.480000</speed>
</trkpt>
<trkpt lat="55.665405" lon="26.587776">
<ele>148.115356</ele>
<time>2010-07-18T11:50:26Z</time>
<desc>lat.=55.665405, lon.=26.587776, Alt.=148.115356m. Speed=12.456000m/h.</desc>
<speed>3.460000</speed>
</trkpt>
<trkpt lat="55.665436" lon="26.587774">
<ele>148.240356</ele>
<time>2010-07-18T11:50:27Z</time>
<desc>lat.=55.665436, lon.=26.587774, Alt.=148.240356m. Speed=12.672000m/h.</desc>
<speed>3.520000</speed>
</trkpt>
<trkpt lat="55.665462" lon="26.587778">
<ele>148.404419</ele>
<time>2010-07-18T11:50:28Z</time>
<desc>lat.=55.665462, lon.=26.587778, Alt.=148.404419m. Speed=10.944000m/h.</desc>
<speed>3.040000</speed>
</trkpt>
<trkpt lat="55.665489" lon="26.587782">
<ele>148.666138</ele>
<time>2010-07-18T11:50:29Z</time>
<desc>lat.=55.665489, lon.=26.587782, Alt.=148.666138m. Speed=9.648000m/h.</desc>
<speed>2.680000</speed>
</trkpt>
<trkpt lat="55.665516" lon="26.587790">
<ele>148.646606</ele>
<time>2010-07-18T11:50:30Z</time>
<desc>lat.=55.665516, lon.=26.587790, Alt.=148.646606m. Speed=11.484000m/h.</desc>
<speed>3.190000</speed>
</trkpt>
<trkpt lat="55.665546" lon="26.587797">
<ele>148.630981</ele>
<time>2010-07-18T11:50:31Z</time>
<desc>lat.=55.665546, lon.=26.587797, Alt.=148.630981m. Speed=12.564000m/h.</desc>
<speed>3.490000</speed>
</trkpt>
<trkpt lat="55.665585" lon="26.587814">
<ele>148.154419</ele>
<time>2010-07-18T11:50:32Z</time>
<desc>lat.=55.665585, lon.=26.587814, Alt.=148.154419m. Speed=12.672000m/h.</desc>
<speed>3.520000</speed>
</trkpt>
<trkpt lat="55.665615" lon="26.587831">
<ele>147.802856</ele>
<time>2010-07-18T11:50:33Z</time>
<desc>lat.=55.665615, lon.=26.587831, Alt.=147.802856m. Speed=10.584000m/h.</desc>
<speed>2.940000</speed>
</trkpt>
<trkpt lat="55.665646" lon="26.587845">
<ele>147.763794</ele>
<time>2010-07-18T11:50:34Z</time>
<desc>lat.=55.665646, lon.=26.587845, Alt.=147.763794m. Speed=11.232000m/h.</desc>
<speed>3.120000</speed>
</trkpt>
<trkpt lat="55.665684" lon="26.587856">
<ele>147.365356</ele>
<time>2010-07-18T11:50:35Z</time>
<desc>lat.=55.665684, lon.=26.587856, Alt.=147.365356m. Speed=12.564000m/h.</desc>
<speed>3.490000</speed>
</trkpt>
<trkpt lat="55.665714" lon="26.587864">
<ele>147.052856</ele>
<time>2010-07-18T11:50:36Z</time>
<desc>lat.=55.665714, lon.=26.587864, Alt.=147.052856m. Speed=13.680000m/h.</desc>
<speed>3.800000</speed>
</trkpt>
<trkpt lat="55.665752" lon="26.587862">
<ele>146.763794</ele>
<time>2010-07-18T11:50:37Z</time>
<desc>lat.=55.665752, lon.=26.587862, Alt.=146.763794m. Speed=14.184000m/h.</desc>
<speed>3.940000</speed>
</trkpt>
<trkpt lat="55.665791" lon="26.587868">
<ele>146.505981</ele>
<time>2010-07-18T11:50:38Z</time>
<desc>lat.=55.665791, lon.=26.587868, Alt.=146.505981m. Speed=13.752000m/h.</desc>
<speed>3.820000</speed>
</trkpt>
<trkpt lat="55.665829" lon="26.587872">
<ele>146.380981</ele>
<time>2010-07-18T11:50:39Z</time>
<desc>lat.=55.665829, lon.=26.587872, Alt.=146.380981m. Speed=14.544000m/h.</desc>
<speed>4.040000</speed>
</trkpt>
<trkpt lat="55.665867" lon="26.587887">
<ele>145.783325</ele>
<time>2010-07-18T11:50:40Z</time>
<desc>lat.=55.665867, lon.=26.587887, Alt.=145.783325m. Speed=14.652000m/h.</desc>
<speed>4.070000</speed>
</trkpt>
<trkpt lat="55.665901" lon="26.587902">
<ele>145.560669</ele>
<time>2010-07-18T11:50:41Z</time>
<desc>lat.=55.665901, lon.=26.587902, Alt.=145.560669m. Speed=14.364000m/h.</desc>
<speed>3.990000</speed>
</trkpt>
<trkpt lat="55.665939" lon="26.587921">
<ele>145.017700</ele>
<time>2010-07-18T11:50:42Z</time>
<desc>lat.=55.665939, lon.=26.587921, Alt.=145.017700m. Speed=13.752000m/h.</desc>
<speed>3.820000</speed>
</trkpt>
<trkpt lat="55.665974" lon="26.587931">
<ele>144.755981</ele>
<time>2010-07-18T11:50:43Z</time>
<desc>lat.=55.665974, lon.=26.587931, Alt.=144.755981m. Speed=12.708000m/h.</desc>
<speed>3.530000</speed>
</trkpt>
<trkpt lat="55.666008" lon="26.587942">
<ele>144.498169</ele>
<time>2010-07-18T11:50:44Z</time>
<desc>lat.=55.666008, lon.=26.587942, Alt.=144.498169m. Speed=12.168000m/h.</desc>
<speed>3.380000</speed>
</trkpt>
<trkpt lat="55.666042" lon="26.587946">
<ele>145.502075</ele>
<time>2010-07-18T11:50:45Z</time>
<desc>lat.=55.666042, lon.=26.587946, Alt.=145.502075m. Speed=11.448000m/h.</desc>
<speed>3.180000</speed>
</trkpt>
<trkpt lat="55.666073" lon="26.587955">
<ele>145.798950</ele>
<time>2010-07-18T11:50:46Z</time>
<desc>lat.=55.666073, lon.=26.587955, Alt.=145.798950m. Speed=11.088000m/h.</desc>
<speed>3.080000</speed>
</trkpt>
<trkpt lat="55.666100" lon="26.587961">
<ele>145.880981</ele>
<time>2010-07-18T11:50:47Z</time>
<desc>lat.=55.666100, lon.=26.587961, Alt.=145.880981m. Speed=10.692000m/h.</desc>
<speed>2.970000</speed>
</trkpt>
<trkpt lat="55.666122" lon="26.587976">
<ele>145.076294</ele>
<time>2010-07-18T11:50:48Z</time>
<desc>lat.=55.666122, lon.=26.587976, Alt.=145.076294m. Speed=10.152000m/h.</desc>
<speed>2.820000</speed>
</trkpt>
<trkpt lat="55.666145" lon="26.587990">
<ele>144.916138</ele>
<time>2010-07-18T11:50:49Z</time>
<desc>lat.=55.666145, lon.=26.587990, Alt.=144.916138m. Speed=10.656000m/h.</desc>
<speed>2.960000</speed>
</trkpt>
<trkpt lat="55.666172" lon="26.587999">
<ele>145.080200</ele>
<time>2010-07-18T11:50:50Z</time>
<desc>lat.=55.666172, lon.=26.587999, Alt.=145.080200m. Speed=9.612000m/h.</desc>
<speed>2.670000</speed>
</trkpt>
<trkpt lat="55.666195" lon="26.588009">
<ele>146.111450</ele>
<time>2010-07-18T11:50:51Z</time>
<desc>lat.=55.666195, lon.=26.588009, Alt.=146.111450m. Speed=9.900000m/h.</desc>
<speed>2.750000</speed>
</trkpt>
<trkpt lat="55.666218" lon="26.588020">
<ele>146.009888</ele>
<time>2010-07-18T11:50:52Z</time>
<desc>lat.=55.666218, lon.=26.588020, Alt.=146.009888m. Speed=10.548000m/h.</desc>
<speed>2.930000</speed>
</trkpt>
<trkpt lat="55.666245" lon="26.588036">
<ele>146.138794</ele>
<time>2010-07-18T11:50:53Z</time>
<desc>lat.=55.666245, lon.=26.588036, Alt.=146.138794m. Speed=10.836000m/h.</desc>
<speed>3.010000</speed>
</trkpt>
<trkpt lat="55.666275" lon="26.588053">
<ele>146.037231</ele>
<time>2010-07-18T11:50:54Z</time>
<desc>lat.=55.666275, lon.=26.588053, Alt.=146.037231m. Speed=10.692000m/h.</desc>
<speed>2.970000</speed>
</trkpt>
<trkpt lat="55.666302" lon="26.588064">
<ele>145.916138</ele>
<time>2010-07-18T11:50:55Z</time>
<desc>lat.=55.666302, lon.=26.588064, Alt.=145.916138m. Speed=9.216000m/h.</desc>
<speed>2.560000</speed>
</trkpt>
<trkpt lat="55.666321" lon="26.588070">
<ele>145.943481</ele>
<time>2010-07-18T11:50:56Z</time>
<desc>lat.=55.666321, lon.=26.588070, Alt.=145.943481m. Speed=7.992000m/h.</desc>
<speed>2.220000</speed>
</trkpt>
<trkpt lat="55.666344" lon="26.588076">
<ele>146.017700</ele>
<time>2010-07-18T11:50:57Z</time>
<desc>lat.=55.666344, lon.=26.588076, Alt.=146.017700m. Speed=8.208000m/h.</desc>
<speed>2.280000</speed>
</trkpt>
<trkpt lat="55.666367" lon="26.588078">
<ele>145.927856</ele>
<time>2010-07-18T11:50:58Z</time>
<desc>lat.=55.666367, lon.=26.588078, Alt.=145.927856m. Speed=7.560000m/h.</desc>
<speed>2.100000</speed>
</trkpt>
<trkpt lat="55.666382" lon="26.588079">
<ele>146.220825</ele>
<time>2010-07-18T11:50:59Z</time>
<desc>lat.=55.666382, lon.=26.588079, Alt.=146.220825m. Speed=6.804000m/h.</desc>
<speed>1.890000</speed>
</trkpt>
<trkpt lat="55.666401" lon="26.588079">
<ele>146.279419</ele>
<time>2010-07-18T11:51:00Z</time>
<desc>lat.=55.666401, lon.=26.588079, Alt.=146.279419m. Speed=7.272000m/h.</desc>
<speed>2.020000</speed>
</trkpt>
<trkpt lat="55.666420" lon="26.588083">
<ele>146.314575</ele>
<time>2010-07-18T11:51:01Z</time>
<desc>lat.=55.666420, lon.=26.588083, Alt.=146.314575m. Speed=8.496000m/h.</desc>
<speed>2.360000</speed>
</trkpt>
<trkpt lat="55.666443" lon="26.588093">
<ele>146.369263</ele>
<time>2010-07-18T11:51:02Z</time>
<desc>lat.=55.666443, lon.=26.588093, Alt.=146.369263m. Speed=9.864000m/h.</desc>
<speed>2.740000</speed>
</trkpt>
<trkpt lat="55.666466" lon="26.588102">
<ele>146.244263</ele>
<time>2010-07-18T11:51:03Z</time>
<desc>lat.=55.666466, lon.=26.588102, Alt.=146.244263m. Speed=10.188000m/h.</desc>
<speed>2.830000</speed>
</trkpt>
<trkpt lat="55.666492" lon="26.588118">
<ele>146.025513</ele>
<time>2010-07-18T11:51:04Z</time>
<desc>lat.=55.666492, lon.=26.588118, Alt.=146.025513m. Speed=11.232000m/h.</desc>
<speed>3.120000</speed>
</trkpt>
<trkpt lat="55.666515" lon="26.588140">
<ele>145.490356</ele>
<time>2010-07-18T11:51:05Z</time>
<desc>lat.=55.666515, lon.=26.588140, Alt.=145.490356m. Speed=10.872000m/h.</desc>
<speed>3.020000</speed>
</trkpt>
<trkpt lat="55.666538" lon="26.588165">
<ele>145.142700</ele>
<time>2010-07-18T11:51:06Z</time>
<desc>lat.=55.666538, lon.=26.588165, Alt.=145.142700m. Speed=11.160000m/h.</desc>
<speed>3.100000</speed>
</trkpt>
<trkpt lat="55.666550" lon="26.588190">
<ele>142.572388</ele>
<time>2010-07-18T11:51:07Z</time>
<desc>lat.=55.666550, lon.=26.588190, Alt.=142.572388m. Speed=11.088000m/h.</desc>
<speed>3.080000</speed>
</trkpt>
<trkpt lat="55.666576" lon="26.588217">
<ele>142.263794</ele>
<time>2010-07-18T11:51:08Z</time>
<desc>lat.=55.666576, lon.=26.588217, Alt.=142.263794m. Speed=11.412000m/h.</desc>
<speed>3.170000</speed>
</trkpt>
<trkpt lat="55.666603" lon="26.588245">
<ele>142.369263</ele>
<time>2010-07-18T11:51:09Z</time>
<desc>lat.=55.666603, lon.=26.588245, Alt.=142.369263m. Speed=11.124000m/h.</desc>
<speed>3.090000</speed>
</trkpt>
<trkpt lat="55.666626" lon="26.588282">
<ele>142.334106</ele>
<time>2010-07-18T11:51:10Z</time>
<desc>lat.=55.666626, lon.=26.588282, Alt.=142.334106m. Speed=11.088000m/h.</desc>
<speed>3.080000</speed>
</trkpt>
<trkpt lat="55.666653" lon="26.588316">
<ele>142.084106</ele>
<time>2010-07-18T11:51:11Z</time>
<desc>lat.=55.666653, lon.=26.588316, Alt.=142.084106m. Speed=12.600000m/h.</desc>
<speed>3.500000</speed>
</trkpt>
<trkpt lat="55.666679" lon="26.588348">
<ele>141.966919</ele>
<time>2010-07-18T11:51:12Z</time>
<desc>lat.=55.666679, lon.=26.588348, Alt.=141.966919m. Speed=12.852000m/h.</desc>
<speed>3.570000</speed>
</trkpt>
<trkpt lat="55.666706" lon="26.588381">
<ele>141.623169</ele>
<time>2010-07-18T11:51:13Z</time>
<desc>lat.=55.666706, lon.=26.588381, Alt.=141.623169m. Speed=12.096000m/h.</desc>
<speed>3.360000</speed>
</trkpt>
<trkpt lat="55.666733" lon="26.588409">
<ele>141.115356</ele>
<time>2010-07-18T11:51:14Z</time>
<desc>lat.=55.666733, lon.=26.588409, Alt.=141.115356m. Speed=13.536000m/h.</desc>
<speed>3.760000</speed>
</trkpt>
<trkpt lat="55.666763" lon="26.588438">
<ele>140.681763</ele>
<time>2010-07-18T11:51:15Z</time>
<desc>lat.=55.666763, lon.=26.588438, Alt.=140.681763m. Speed=13.104000m/h.</desc>
<speed>3.640000</speed>
</trkpt>
<trkpt lat="55.666798" lon="26.588465">
<ele>141.060669</ele>
<time>2010-07-18T11:51:16Z</time>
<desc>lat.=55.666798, lon.=26.588465, Alt.=141.060669m. Speed=12.672000m/h.</desc>
<speed>3.520000</speed>
</trkpt>
<trkpt lat="55.666824" lon="26.588490">
<ele>140.841919</ele>
<time>2010-07-18T11:51:17Z</time>
<desc>lat.=55.666824, lon.=26.588490, Alt.=140.841919m. Speed=12.456000m/h.</desc>
<speed>3.460000</speed>
</trkpt>
<trkpt lat="55.666859" lon="26.588516">
<ele>141.728638</ele>
<time>2010-07-18T11:51:18Z</time>
<desc>lat.=55.666859, lon.=26.588516, Alt.=141.728638m. Speed=12.528000m/h.</desc>
<speed>3.480000</speed>
</trkpt>
<trkpt lat="55.666882" lon="26.588543">
<ele>141.459106</ele>
<time>2010-07-18T11:51:19Z</time>
<desc>lat.=55.666882, lon.=26.588543, Alt.=141.459106m. Speed=12.888000m/h.</desc>
<speed>3.580000</speed>
</trkpt>
<trkpt lat="55.666916" lon="26.588572">
<ele>141.658325</ele>
<time>2010-07-18T11:51:20Z</time>
<desc>lat.=55.666916, lon.=26.588572, Alt.=141.658325m. Speed=13.572000m/h.</desc>
<speed>3.770000</speed>
</trkpt>
<trkpt lat="55.666946" lon="26.588600">
<ele>141.611450</ele>
<time>2010-07-18T11:51:21Z</time>
<desc>lat.=55.666946, lon.=26.588600, Alt.=141.611450m. Speed=15.228000m/h.</desc>
<speed>4.230000</speed>
</trkpt>
<trkpt lat="55.666981" lon="26.588642">
<ele>141.713013</ele>
<time>2010-07-18T11:51:22Z</time>
<desc>lat.=55.666981, lon.=26.588642, Alt.=141.713013m. Speed=16.559999m/h.</desc>
<speed>4.600000</speed>
</trkpt>
<trkpt lat="55.667015" lon="26.588688">
<ele>141.775513</ele>
<time>2010-07-18T11:51:23Z</time>
<desc>lat.=55.667015, lon.=26.588688, Alt.=141.775513m. Speed=16.164000m/h.</desc>
<speed>4.490000</speed>
</trkpt>
<trkpt lat="55.667053" lon="26.588732">
<ele>142.158325</ele>
<time>2010-07-18T11:51:24Z</time>
<desc>lat.=55.667053, lon.=26.588732, Alt.=142.158325m. Speed=15.336000m/h.</desc>
<speed>4.260000</speed>
</trkpt>
<trkpt lat="55.667088" lon="26.588766">
<ele>142.463013</ele>
<time>2010-07-18T11:51:25Z</time>
<desc>lat.=55.667088, lon.=26.588766, Alt.=142.463013m. Speed=14.436000m/h.</desc>
<speed>4.010000</speed>
</trkpt>
<trkpt lat="55.667122" lon="26.588795">
<ele>142.084106</ele>
<time>2010-07-18T11:51:26Z</time>
<desc>lat.=55.667122, lon.=26.588795, Alt.=142.084106m. Speed=15.228000m/h.</desc>
<speed>4.230000</speed>
</trkpt>
<trkpt lat="55.667160" lon="26.588831">
<ele>142.408325</ele>
<time>2010-07-18T11:51:27Z</time>
<desc>lat.=55.667160, lon.=26.588831, Alt.=142.408325m. Speed=15.912000m/h.</desc>
<speed>4.420000</speed>
</trkpt>
<trkpt lat="55.667194" lon="26.588867">
<ele>142.642700</ele>
<time>2010-07-18T11:51:28Z</time>
<desc>lat.=55.667194, lon.=26.588867, Alt.=142.642700m. Speed=15.624000m/h.</desc>
<speed>4.340000</speed>
</trkpt>
<trkpt lat="55.667233" lon="26.588903">
<ele>142.752075</ele>
<time>2010-07-18T11:51:29Z</time>
<desc>lat.=55.667233, lon.=26.588903, Alt.=142.752075m. Speed=15.624000m/h.</desc>
<speed>4.340000</speed>
</trkpt>
<trkpt lat="55.667267" lon="26.588934">
<ele>142.654419</ele>
<time>2010-07-18T11:51:30Z</time>
<desc>lat.=55.667267, lon.=26.588934, Alt.=142.654419m. Speed=15.336000m/h.</desc>
<speed>4.260000</speed>
</trkpt>
<trkpt lat="55.667294" lon="26.588959">
<ele>140.490356</ele>
<time>2010-07-18T11:51:31Z</time>
<desc>lat.=55.667294, lon.=26.588959, Alt.=140.490356m. Speed=13.464000m/h.</desc>
<speed>3.740000</speed>
</trkpt>
<trkpt lat="55.667324" lon="26.588987">
<ele>140.252075</ele>
<time>2010-07-18T11:51:32Z</time>
<desc>lat.=55.667324, lon.=26.588987, Alt.=140.252075m. Speed=14.004000m/h.</desc>
<speed>3.890000</speed>
</trkpt>
<trkpt lat="55.667362" lon="26.589020">
<ele>140.162231</ele>
<time>2010-07-18T11:51:33Z</time>
<desc>lat.=55.667362, lon.=26.589020, Alt.=140.162231m. Speed=14.076000m/h.</desc>
<speed>3.910000</speed>
</trkpt>
<trkpt lat="55.667389" lon="26.589050">
<ele>139.912231</ele>
<time>2010-07-18T11:51:34Z</time>
<desc>lat.=55.667389, lon.=26.589050, Alt.=139.912231m. Speed=11.736000m/h.</desc>
<speed>3.260000</speed>
</trkpt>
<trkpt lat="55.667423" lon="26.589083">
<ele>139.802856</ele>
<time>2010-07-18T11:51:35Z</time>
<desc>lat.=55.667423, lon.=26.589083, Alt.=139.802856m. Speed=14.724000m/h.</desc>
<speed>4.090000</speed>
</trkpt>
<trkpt lat="55.667454" lon="26.589121">
<ele>139.556763</ele>
<time>2010-07-18T11:51:36Z</time>
<desc>lat.=55.667454, lon.=26.589121, Alt.=139.556763m. Speed=13.176000m/h.</desc>
<speed>3.660000</speed>
</trkpt>
<trkpt lat="55.667480" lon="26.589153">
<ele>139.365356</ele>
<time>2010-07-18T11:51:37Z</time>
<desc>lat.=55.667480, lon.=26.589153, Alt.=139.365356m. Speed=13.068000m/h.</desc>
<speed>3.630000</speed>
</trkpt>
<trkpt lat="55.667511" lon="26.589186">
<ele>139.173950</ele>
<time>2010-07-18T11:51:38Z</time>
<desc>lat.=55.667511, lon.=26.589186, Alt.=139.173950m. Speed=12.312000m/h.</desc>
<speed>3.420000</speed>
</trkpt>
<trkpt lat="55.667542" lon="26.589222">
<ele>139.763794</ele>
<time>2010-07-18T11:51:39Z</time>
<desc>lat.=55.667542, lon.=26.589222, Alt.=139.763794m. Speed=12.096000m/h.</desc>
<speed>3.360000</speed>
</trkpt>
<trkpt lat="55.667561" lon="26.589249">
<ele>139.541138</ele>
<time>2010-07-18T11:51:40Z</time>
<desc>lat.=55.667561, lon.=26.589249, Alt.=139.541138m. Speed=11.304000m/h.</desc>
<speed>3.140000</speed>
</trkpt>
<trkpt lat="55.667591" lon="26.589277">
<ele>140.064575</ele>
<time>2010-07-18T11:51:41Z</time>
<desc>lat.=55.667591, lon.=26.589277, Alt.=140.064575m. Speed=11.592000m/h.</desc>
<speed>3.220000</speed>
</trkpt>
<trkpt lat="55.667622" lon="26.589308">
<ele>140.431763</ele>
<time>2010-07-18T11:51:42Z</time>
<desc>lat.=55.667622, lon.=26.589308, Alt.=140.431763m. Speed=10.440000m/h.</desc>
<speed>2.900000</speed>
</trkpt>
<trkpt lat="55.667645" lon="26.589331">
<ele>140.443481</ele>
<time>2010-07-18T11:51:43Z</time>
<desc>lat.=55.667645, lon.=26.589331, Alt.=140.443481m. Speed=9.828000m/h.</desc>
<speed>2.730000</speed>
</trkpt>
<trkpt lat="55.667667" lon="26.589359">
<ele>139.568481</ele>
<time>2010-07-18T11:51:44Z</time>
<desc>lat.=55.667667, lon.=26.589359, Alt.=139.568481m. Speed=11.520000m/h.</desc>
<speed>3.200000</speed>
</trkpt>
<trkpt lat="55.667694" lon="26.589390">
<ele>140.384888</ele>
<time>2010-07-18T11:51:45Z</time>
<desc>lat.=55.667694, lon.=26.589390, Alt.=140.384888m. Speed=11.196000m/h.</desc>
<speed>3.110000</speed>
</trkpt>
<trkpt lat="55.667721" lon="26.589415">
<ele>140.795044</ele>
<time>2010-07-18T11:51:46Z</time>
<desc>lat.=55.667721, lon.=26.589415, Alt.=140.795044m. Speed=10.224000m/h.</desc>
<speed>2.840000</speed>
</trkpt>
<trkpt lat="55.667747" lon="26.589436">
<ele>139.912231</ele>
<time>2010-07-18T11:51:47Z</time>
<desc>lat.=55.667747, lon.=26.589436, Alt.=139.912231m. Speed=9.792000m/h.</desc>
<speed>2.720000</speed>
</trkpt>
<trkpt lat="55.667774" lon="26.589462">
<ele>140.361450</ele>
<time>2010-07-18T11:51:48Z</time>
<desc>lat.=55.667774, lon.=26.589462, Alt.=140.361450m. Speed=11.088000m/h.</desc>
<speed>3.080000</speed>
</trkpt>
<trkpt lat="55.667805" lon="26.589493">
<ele>140.697388</ele>
<time>2010-07-18T11:51:49Z</time>
<desc>lat.=55.667805, lon.=26.589493, Alt.=140.697388m. Speed=10.728000m/h.</desc>
<speed>2.980000</speed>
</trkpt>
<trkpt lat="55.667831" lon="26.589518">
<ele>141.306763</ele>
<time>2010-07-18T11:51:50Z</time>
<desc>lat.=55.667831, lon.=26.589518, Alt.=141.306763m. Speed=8.892000m/h.</desc>
<speed>2.470000</speed>
</trkpt>
<trkpt lat="55.667858" lon="26.589554">
<ele>141.244263</ele>
<time>2010-07-18T11:51:51Z</time>
<desc>lat.=55.667858, lon.=26.589554, Alt.=141.244263m. Speed=11.772000m/h.</desc>
<speed>3.270000</speed>
</trkpt>
<trkpt lat="55.667889" lon="26.589584">
<ele>140.916138</ele>
<time>2010-07-18T11:51:52Z</time>
<desc>lat.=55.667889, lon.=26.589584, Alt.=140.916138m. Speed=11.916000m/h.</desc>
<speed>3.310000</speed>
</trkpt>
<trkpt lat="55.667919" lon="26.589613">
<ele>140.170044</ele>
<time>2010-07-18T11:51:53Z</time>
<desc>lat.=55.667919, lon.=26.589613, Alt.=140.170044m. Speed=13.536000m/h.</desc>
<speed>3.760000</speed>
</trkpt>
<trkpt lat="55.667946" lon="26.589647">
<ele>139.830200</ele>
<time>2010-07-18T11:51:54Z</time>
<desc>lat.=55.667946, lon.=26.589647, Alt.=139.830200m. Speed=10.260000m/h.</desc>
<speed>2.850000</speed>
</trkpt>
<trkpt lat="55.667973" lon="26.589672">
<ele>139.349731</ele>
<time>2010-07-18T11:51:55Z</time>
<desc>lat.=55.667973, lon.=26.589672, Alt.=139.349731m. Speed=11.376000m/h.</desc>
<speed>3.160000</speed>
</trkpt>
<trkpt lat="55.667999" lon="26.589695">
<ele>139.697388</ele>
<time>2010-07-18T11:51:56Z</time>
<desc>lat.=55.667999, lon.=26.589695, Alt.=139.697388m. Speed=10.332000m/h.</desc>
<speed>2.870000</speed>
</trkpt>
<trkpt lat="55.668026" lon="26.589725">
<ele>140.123169</ele>
<time>2010-07-18T11:51:57Z</time>
<desc>lat.=55.668026, lon.=26.589725, Alt.=140.123169m. Speed=10.116000m/h.</desc>
<speed>2.810000</speed>
</trkpt>
<trkpt lat="55.668045" lon="26.589758">
<ele>138.677856</ele>
<time>2010-07-18T11:51:58Z</time>
<desc>lat.=55.668045, lon.=26.589758, Alt.=138.677856m. Speed=8.244000m/h.</desc>
<speed>2.290000</speed>
</trkpt>
<trkpt lat="55.668083" lon="26.589788">
<ele>139.146606</ele>
<time>2010-07-18T11:51:59Z</time>
<desc>lat.=55.668083, lon.=26.589788, Alt.=139.146606m. Speed=11.484000m/h.</desc>
<speed>3.190000</speed>
</trkpt>
<trkpt lat="55.668110" lon="26.589817">
<ele>138.798950</ele>
<time>2010-07-18T11:52:00Z</time>
<desc>lat.=55.668110, lon.=26.589817, Alt.=138.798950m. Speed=11.628000m/h.</desc>
<speed>3.230000</speed>
</trkpt>
<trkpt lat="55.668133" lon="26.589846">
<ele>138.822388</ele>
<time>2010-07-18T11:52:01Z</time>
<desc>lat.=55.668133, lon.=26.589846, Alt.=138.822388m. Speed=9.432000m/h.</desc>
<speed>2.620000</speed>
</trkpt>
<trkpt lat="55.668163" lon="26.589867">
<ele>138.693481</ele>
<time>2010-07-18T11:52:02Z</time>
<desc>lat.=55.668163, lon.=26.589867, Alt.=138.693481m. Speed=9.936000m/h.</desc>
<speed>2.760000</speed>
</trkpt>
<trkpt lat="55.668190" lon="26.589890">
<ele>138.888794</ele>
<time>2010-07-18T11:52:03Z</time>
<desc>lat.=55.668190, lon.=26.589890, Alt.=138.888794m. Speed=11.232000m/h.</desc>
<speed>3.120000</speed>
</trkpt>
<trkpt lat="55.668224" lon="26.589920">
<ele>139.314575</ele>
<time>2010-07-18T11:52:04Z</time>
<desc>lat.=55.668224, lon.=26.589920, Alt.=139.314575m. Speed=14.472000m/h.</desc>
<speed>4.020000</speed>
</trkpt>
<trkpt lat="55.668255" lon="26.589949">
<ele>138.517700</ele>
<time>2010-07-18T11:52:05Z</time>
<desc>lat.=55.668255, lon.=26.589949, Alt.=138.517700m. Speed=14.220000m/h.</desc>
<speed>3.950000</speed>
</trkpt>
<trkpt lat="55.668282" lon="26.589973">
<ele>137.701294</ele>
<time>2010-07-18T11:52:06Z</time>
<desc>lat.=55.668282, lon.=26.589973, Alt.=137.701294m. Speed=13.068000m/h.</desc>
<speed>3.630000</speed>
</trkpt>
<trkpt lat="55.668312" lon="26.590002">
<ele>137.767700</ele>
<time>2010-07-18T11:52:07Z</time>
<desc>lat.=55.668312, lon.=26.590002, Alt.=137.767700m. Speed=13.500000m/h.</desc>
<speed>3.750000</speed>
</trkpt>
<trkpt lat="55.668343" lon="26.590038">
<ele>138.455200</ele>
<time>2010-07-18T11:52:08Z</time>
<desc>lat.=55.668343, lon.=26.590038, Alt.=138.455200m. Speed=14.076000m/h.</desc>
<speed>3.910000</speed>
</trkpt>
<trkpt lat="55.668377" lon="26.590071">
<ele>139.045044</ele>
<time>2010-07-18T11:52:09Z</time>
<desc>lat.=55.668377, lon.=26.590071, Alt.=139.045044m. Speed=15.552000m/h.</desc>
<speed>4.320000</speed>
</trkpt>
<trkpt lat="55.668415" lon="26.590103">
<ele>139.716919</ele>
<time>2010-07-18T11:52:10Z</time>
<desc>lat.=55.668415, lon.=26.590103, Alt.=139.716919m. Speed=15.516000m/h.</desc>
<speed>4.310000</speed>
</trkpt>
<trkpt lat="55.668457" lon="26.590139">
<ele>139.888794</ele>
<time>2010-07-18T11:52:11Z</time>
<desc>lat.=55.668457, lon.=26.590139, Alt.=139.888794m. Speed=16.488001m/h.</desc>
<speed>4.580000</speed>
</trkpt>
<trkpt lat="55.668503" lon="26.590179">
<ele>141.017700</ele>
<time>2010-07-18T11:52:12Z</time>
<desc>lat.=55.668503, lon.=26.590179, Alt.=141.017700m. Speed=17.316000m/h.</desc>
<speed>4.810000</speed>
</trkpt>
<trkpt lat="55.668552" lon="26.590218">
<ele>142.650513</ele>
<time>2010-07-18T11:52:13Z</time>
<desc>lat.=55.668552, lon.=26.590218, Alt.=142.650513m. Speed=17.280001m/h.</desc>
<speed>4.800000</speed>
</trkpt>
<trkpt lat="55.668602" lon="26.590252">
<ele>143.728638</ele>
<time>2010-07-18T11:52:14Z</time>
<desc>lat.=55.668602, lon.=26.590252, Alt.=143.728638m. Speed=18.108000m/h.</desc>
<speed>5.030000</speed>
</trkpt>
<trkpt lat="55.668644" lon="26.590284">
<ele>143.662231</ele>
<time>2010-07-18T11:52:15Z</time>
<desc>lat.=55.668644, lon.=26.590284, Alt.=143.662231m. Speed=17.243999m/h.</desc>
<speed>4.790000</speed>
</trkpt>
<trkpt lat="55.668686" lon="26.590311">
<ele>143.295044</ele>
<time>2010-07-18T11:52:16Z</time>
<desc>lat.=55.668686, lon.=26.590311, Alt.=143.295044m. Speed=17.424000m/h.</desc>
<speed>4.840000</speed>
</trkpt>
<trkpt lat="55.668728" lon="26.590338">
<ele>143.197388</ele>
<time>2010-07-18T11:52:17Z</time>
<desc>lat.=55.668728, lon.=26.590338, Alt.=143.197388m. Speed=16.992001m/h.</desc>
<speed>4.720000</speed>
</trkpt>
<trkpt lat="55.668770" lon="26.590357">
<ele>143.384888</ele>
<time>2010-07-18T11:52:18Z</time>
<desc>lat.=55.668770, lon.=26.590357, Alt.=143.384888m. Speed=17.280001m/h.</desc>
<speed>4.800000</speed>
</trkpt>
<trkpt lat="55.668816" lon="26.590372">
<ele>143.427856</ele>
<time>2010-07-18T11:52:19Z</time>
<desc>lat.=55.668816, lon.=26.590372, Alt.=143.427856m. Speed=16.308001m/h.</desc>
<speed>4.530000</speed>
</trkpt>
<trkpt lat="55.668854" lon="26.590385">
<ele>143.377075</ele>
<time>2010-07-18T11:52:20Z</time>
<desc>lat.=55.668854, lon.=26.590385, Alt.=143.377075m. Speed=16.344000m/h.</desc>
<speed>4.540000</speed>
</trkpt>
<trkpt lat="55.668896" lon="26.590395">
<ele>143.123169</ele>
<time>2010-07-18T11:52:21Z</time>
<desc>lat.=55.668896, lon.=26.590395, Alt.=143.123169m. Speed=16.992001m/h.</desc>
<speed>4.720000</speed>
</trkpt>
<trkpt lat="55.668938" lon="26.590401">
<ele>143.029419</ele>
<time>2010-07-18T11:52:22Z</time>
<desc>lat.=55.668938, lon.=26.590401, Alt.=143.029419m. Speed=16.812000m/h.</desc>
<speed>4.670000</speed>
</trkpt>
<trkpt lat="55.668983" lon="26.590410">
<ele>142.990356</ele>
<time>2010-07-18T11:52:23Z</time>
<desc>lat.=55.668983, lon.=26.590410, Alt.=142.990356m. Speed=17.424000m/h.</desc>
<speed>4.840000</speed>
</trkpt>
<trkpt lat="55.669025" lon="26.590420">
<ele>143.045044</ele>
<time>2010-07-18T11:52:24Z</time>
<desc>lat.=55.669025, lon.=26.590420, Alt.=143.045044m. Speed=17.604000m/h.</desc>
<speed>4.890000</speed>
</trkpt>
<trkpt lat="55.669067" lon="26.590422">
<ele>143.291138</ele>
<time>2010-07-18T11:52:25Z</time>
<desc>lat.=55.669067, lon.=26.590422, Alt.=143.291138m. Speed=16.488001m/h.</desc>
<speed>4.580000</speed>
</trkpt>
<trkpt lat="55.669109" lon="26.590425">
<ele>143.275513</ele>
<time>2010-07-18T11:52:26Z</time>
<desc>lat.=55.669109, lon.=26.590425, Alt.=143.275513m. Speed=15.948000m/h.</desc>
<speed>4.430000</speed>
</trkpt>
<trkpt lat="55.669147" lon="26.590429">
<ele>143.142700</ele>
<time>2010-07-18T11:52:27Z</time>
<desc>lat.=55.669147, lon.=26.590429, Alt.=143.142700m. Speed=15.372000m/h.</desc>
<speed>4.270000</speed>
</trkpt>
<trkpt lat="55.669189" lon="26.590433">
<ele>143.318481</ele>
<time>2010-07-18T11:52:28Z</time>
<desc>lat.=55.669189, lon.=26.590433, Alt.=143.318481m. Speed=16.884001m/h.</desc>
<speed>4.690000</speed>
</trkpt>
<trkpt lat="55.669231" lon="26.590437">
<ele>143.380981</ele>
<time>2010-07-18T11:52:29Z</time>
<desc>lat.=55.669231, lon.=26.590437, Alt.=143.380981m. Speed=17.964001m/h.</desc>
<speed>4.990000</speed>
</trkpt>
<trkpt lat="55.669277" lon="26.590441">
<ele>143.459106</ele>
<time>2010-07-18T11:52:30Z</time>
<desc>lat.=55.669277, lon.=26.590441, Alt.=143.459106m. Speed=17.820000m/h.</desc>
<speed>4.950000</speed>
</trkpt>
<trkpt lat="55.669323" lon="26.590448">
<ele>143.759888</ele>
<time>2010-07-18T11:52:31Z</time>
<desc>lat.=55.669323, lon.=26.590448, Alt.=143.759888m. Speed=18.288000m/h.</desc>
<speed>5.080000</speed>
</trkpt>
<trkpt lat="55.669373" lon="26.590454">
<ele>144.013794</ele>
<time>2010-07-18T11:52:32Z</time>
<desc>lat.=55.669373, lon.=26.590454, Alt.=144.013794m. Speed=18.180000m/h.</desc>
<speed>5.050000</speed>
</trkpt>
<trkpt lat="55.669411" lon="26.590460">
<ele>144.005981</ele>
<time>2010-07-18T11:52:33Z</time>
<desc>lat.=55.669411, lon.=26.590460, Alt.=144.005981m. Speed=16.452000m/h.</desc>
<speed>4.570000</speed>
</trkpt>
<trkpt lat="55.669453" lon="26.590467">
<ele>143.982544</ele>
<time>2010-07-18T11:52:34Z</time>
<desc>lat.=55.669453, lon.=26.590467, Alt.=143.982544m. Speed=17.784000m/h.</desc>
<speed>4.940000</speed>
</trkpt>
<trkpt lat="55.669498" lon="26.590479">
<ele>143.877075</ele>
<time>2010-07-18T11:52:35Z</time>
<desc>lat.=55.669498, lon.=26.590479, Alt.=143.877075m. Speed=18.756001m/h.</desc>
<speed>5.210000</speed>
</trkpt>
<trkpt lat="55.669548" lon="26.590494">
<ele>143.576294</ele>
<time>2010-07-18T11:52:36Z</time>
<desc>lat.=55.669548, lon.=26.590494, Alt.=143.576294m. Speed=17.892000m/h.</desc>
<speed>4.970000</speed>
</trkpt>
<trkpt lat="55.669594" lon="26.590504">
<ele>143.630981</ele>
<time>2010-07-18T11:52:37Z</time>
<desc>lat.=55.669594, lon.=26.590504, Alt.=143.630981m. Speed=18.431999m/h.</desc>
<speed>5.120000</speed>
</trkpt>
<trkpt lat="55.669640" lon="26.590511">
<ele>143.486450</ele>
<time>2010-07-18T11:52:38Z</time>
<desc>lat.=55.669640, lon.=26.590511, Alt.=143.486450m. Speed=17.316000m/h.</desc>
<speed>4.810000</speed>
</trkpt>
<trkpt lat="55.669685" lon="26.590513">
<ele>143.142700</ele>
<time>2010-07-18T11:52:39Z</time>
<desc>lat.=55.669685, lon.=26.590513, Alt.=143.142700m. Speed=17.280001m/h.</desc>
<speed>4.800000</speed>
</trkpt>
<trkpt lat="55.669743" lon="26.590517">
<ele>142.689575</ele>
<time>2010-07-18T11:52:40Z</time>
<desc>lat.=55.669743, lon.=26.590517, Alt.=142.689575m. Speed=19.224001m/h.</desc>
<speed>5.340000</speed>
</trkpt>
<trkpt lat="55.669792" lon="26.590521">
<ele>142.439575</ele>
<time>2010-07-18T11:52:41Z</time>
<desc>lat.=55.669792, lon.=26.590521, Alt.=142.439575m. Speed=18.972000m/h.</desc>
<speed>5.270000</speed>
</trkpt>
<trkpt lat="55.669838" lon="26.590527">
<ele>142.627075</ele>
<time>2010-07-18T11:52:42Z</time>
<desc>lat.=55.669838, lon.=26.590527, Alt.=142.627075m. Speed=18.396000m/h.</desc>
<speed>5.110000</speed>
</trkpt>
<trkpt lat="55.669888" lon="26.590534">
<ele>142.677856</ele>
<time>2010-07-18T11:52:43Z</time>
<desc>lat.=55.669888, lon.=26.590534, Alt.=142.677856m. Speed=18.035999m/h.</desc>
<speed>5.010000</speed>
</trkpt>
<trkpt lat="55.669937" lon="26.590530">
<ele>142.369263</ele>
<time>2010-07-18T11:52:44Z</time>
<desc>lat.=55.669937, lon.=26.590530, Alt.=142.369263m. Speed=18.072001m/h.</desc>
<speed>5.020000</speed>
</trkpt>
<trkpt lat="55.669979" lon="26.590517">
<ele>142.037231</ele>
<time>2010-07-18T11:52:45Z</time>
<desc>lat.=55.669979, lon.=26.590517, Alt.=142.037231m. Speed=16.632000m/h.</desc>
<speed>4.620000</speed>
</trkpt>
<trkpt lat="55.670013" lon="26.590508">
<ele>141.959106</ele>
<time>2010-07-18T11:52:46Z</time>
<desc>lat.=55.670013, lon.=26.590508, Alt.=141.959106m. Speed=15.768000m/h.</desc>
<speed>4.380000</speed>
</trkpt>
<trkpt lat="55.670055" lon="26.590502">
<ele>141.841919</ele>
<time>2010-07-18T11:52:47Z</time>
<desc>lat.=55.670055, lon.=26.590502, Alt.=141.841919m. Speed=15.624000m/h.</desc>
<speed>4.340000</speed>
</trkpt>
<trkpt lat="55.670094" lon="26.590502">
<ele>141.552856</ele>
<time>2010-07-18T11:52:48Z</time>
<desc>lat.=55.670094, lon.=26.590502, Alt.=141.552856m. Speed=15.048000m/h.</desc>
<speed>4.180000</speed>
</trkpt>
<trkpt lat="55.670132" lon="26.590506">
<ele>141.787231</ele>
<time>2010-07-18T11:52:49Z</time>
<desc>lat.=55.670132, lon.=26.590506, Alt.=141.787231m. Speed=14.400000m/h.</desc>
<speed>4.000000</speed>
</trkpt>
<trkpt lat="55.670166" lon="26.590506">
<ele>141.869263</ele>
<time>2010-07-18T11:52:50Z</time>
<desc>lat.=55.670166, lon.=26.590506, Alt.=141.869263m. Speed=13.356000m/h.</desc>
<speed>3.710000</speed>
</trkpt>
<trkpt lat="55.670200" lon="26.590504">
<ele>142.064575</ele>
<time>2010-07-18T11:52:51Z</time>
<desc>lat.=55.670200, lon.=26.590504, Alt.=142.064575m. Speed=12.816000m/h.</desc>
<speed>3.560000</speed>
</trkpt>
<trkpt lat="55.670235" lon="26.590506">
<ele>142.314575</ele>
<time>2010-07-18T11:52:52Z</time>
<desc>lat.=55.670235, lon.=26.590506, Alt.=142.314575m. Speed=12.312000m/h.</desc>
<speed>3.420000</speed>
</trkpt>
<trkpt lat="55.670265" lon="26.590506">
<ele>142.455200</ele>
<time>2010-07-18T11:52:53Z</time>
<desc>lat.=55.670265, lon.=26.590506, Alt.=142.455200m. Speed=12.312000m/h.</desc>
<speed>3.420000</speed>
</trkpt>
<trkpt lat="55.670292" lon="26.590504">
<ele>142.427856</ele>
<time>2010-07-18T11:52:54Z</time>
<desc>lat.=55.670292, lon.=26.590504, Alt.=142.427856m. Speed=12.348000m/h.</desc>
<speed>3.430000</speed>
</trkpt>
<trkpt lat="55.670322" lon="26.590502">
<ele>142.341919</ele>
<time>2010-07-18T11:52:55Z</time>
<desc>lat.=55.670322, lon.=26.590502, Alt.=142.341919m. Speed=12.132000m/h.</desc>
<speed>3.370000</speed>
</trkpt>
<trkpt lat="55.670357" lon="26.590502">
<ele>142.826294</ele>
<time>2010-07-18T11:52:56Z</time>
<desc>lat.=55.670357, lon.=26.590502, Alt.=142.826294m. Speed=12.528000m/h.</desc>
<speed>3.480000</speed>
</trkpt>
<trkpt lat="55.670387" lon="26.590502">
<ele>142.978638</ele>
<time>2010-07-18T11:52:57Z</time>
<desc>lat.=55.670387, lon.=26.590502, Alt.=142.978638m. Speed=12.600000m/h.</desc>
<speed>3.500000</speed>
</trkpt>
<trkpt lat="55.670422" lon="26.590502">
<ele>143.173950</ele>
<time>2010-07-18T11:52:58Z</time>
<desc>lat.=55.670422, lon.=26.590502, Alt.=143.173950m. Speed=13.644000m/h.</desc>
<speed>3.790000</speed>
</trkpt>
<trkpt lat="55.670452" lon="26.590504">
<ele>143.150513</ele>
<time>2010-07-18T11:52:59Z</time>
<desc>lat.=55.670452, lon.=26.590504, Alt.=143.150513m. Speed=13.284000m/h.</desc>
<speed>3.690000</speed>
</trkpt>
<trkpt lat="55.670483" lon="26.590500">
<ele>143.099731</ele>
<time>2010-07-18T11:53:00Z</time>
<desc>lat.=55.670483, lon.=26.590500, Alt.=143.099731m. Speed=13.212000m/h.</desc>
<speed>3.670000</speed>
</trkpt>
<trkpt lat="55.670517" lon="26.590498">
<ele>143.548950</ele>
<time>2010-07-18T11:53:01Z</time>
<desc>lat.=55.670517, lon.=26.590498, Alt.=143.548950m. Speed=14.220000m/h.</desc>
<speed>3.950000</speed>
</trkpt>
<trkpt lat="55.670547" lon="26.590498">
<ele>142.525513</ele>
<time>2010-07-18T11:53:02Z</time>
<desc>lat.=55.670547, lon.=26.590498, Alt.=142.525513m. Speed=13.896000m/h.</desc>
<speed>3.860000</speed>
</trkpt>
<trkpt lat="55.670582" lon="26.590498">
<ele>142.798950</ele>
<time>2010-07-18T11:53:03Z</time>
<desc>lat.=55.670582, lon.=26.590498, Alt.=142.798950m. Speed=13.104000m/h.</desc>
<speed>3.640000</speed>
</trkpt>
<trkpt lat="55.670616" lon="26.590496">
<ele>143.021606</ele>
<time>2010-07-18T11:53:04Z</time>
<desc>lat.=55.670616, lon.=26.590496, Alt.=143.021606m. Speed=10.944000m/h.</desc>
<speed>3.040000</speed>
</trkpt>
<trkpt lat="55.670639" lon="26.590494">
<ele>143.513794</ele>
<time>2010-07-18T11:53:05Z</time>
<desc>lat.=55.670639, lon.=26.590494, Alt.=143.513794m. Speed=8.820000m/h.</desc>
<speed>2.450000</speed>
</trkpt>
<trkpt lat="55.670662" lon="26.590494">
<ele>143.498169</ele>
<time>2010-07-18T11:53:06Z</time>
<desc>lat.=55.670662, lon.=26.590494, Alt.=143.498169m. Speed=6.840000m/h.</desc>
<speed>1.900000</speed>
</trkpt>
<trkpt lat="55.670677" lon="26.590496">
<ele>143.603638</ele>
<time>2010-07-18T11:53:07Z</time>
<desc>lat.=55.670677, lon.=26.590496, Alt.=143.603638m. Speed=6.660000m/h.</desc>
<speed>1.850000</speed>
</trkpt>
<trkpt lat="55.670692" lon="26.590498">
<ele>143.904419</ele>
<time>2010-07-18T11:53:08Z</time>
<desc>lat.=55.670692, lon.=26.590498, Alt.=143.904419m. Speed=7.560000m/h.</desc>
<speed>2.100000</speed>
</trkpt>
<trkpt lat="55.670715" lon="26.590498">
<ele>144.111450</ele>
<time>2010-07-18T11:53:09Z</time>
<desc>lat.=55.670715, lon.=26.590498, Alt.=144.111450m. Speed=8.028000m/h.</desc>
<speed>2.230000</speed>
</trkpt>
<trkpt lat="55.670738" lon="26.590494">
<ele>144.326294</ele>
<time>2010-07-18T11:53:10Z</time>
<desc>lat.=55.670738, lon.=26.590494, Alt.=144.326294m. Speed=9.036000m/h.</desc>
<speed>2.510000</speed>
</trkpt>
<trkpt lat="55.670753" lon="26.590490">
<ele>144.236450</ele>
<time>2010-07-18T11:53:11Z</time>
<desc>lat.=55.670753, lon.=26.590490, Alt.=144.236450m. Speed=9.000000m/h.</desc>
<speed>2.500000</speed>
</trkpt>
<trkpt lat="55.670776" lon="26.590488">
<ele>144.423950</ele>
<time>2010-07-18T11:53:12Z</time>
<desc>lat.=55.670776, lon.=26.590488, Alt.=144.423950m. Speed=9.324000m/h.</desc>
<speed>2.590000</speed>
</trkpt>
<trkpt lat="55.670799" lon="26.590492">
<ele>144.470825</ele>
<time>2010-07-18T11:53:13Z</time>
<desc>lat.=55.670799, lon.=26.590492, Alt.=144.470825m. Speed=9.468000m/h.</desc>
<speed>2.630000</speed>
</trkpt>
<trkpt lat="55.670822" lon="26.590492">
<ele>144.127075</ele>
<time>2010-07-18T11:53:14Z</time>
<desc>lat.=55.670822, lon.=26.590492, Alt.=144.127075m. Speed=9.864000m/h.</desc>
<speed>2.740000</speed>
</trkpt>
<trkpt lat="55.670849" lon="26.590492">
<ele>144.396606</ele>
<time>2010-07-18T11:53:15Z</time>
<desc>lat.=55.670849, lon.=26.590492, Alt.=144.396606m. Speed=10.512000m/h.</desc>
<speed>2.920000</speed>
</trkpt>
<trkpt lat="55.670872" lon="26.590490">
<ele>144.396606</ele>
<time>2010-07-18T11:53:16Z</time>
<desc>lat.=55.670872, lon.=26.590490, Alt.=144.396606m. Speed=9.936000m/h.</desc>
<speed>2.760000</speed>
</trkpt>
<trkpt lat="55.670898" lon="26.590494">
<ele>144.326294</ele>
<time>2010-07-18T11:53:17Z</time>
<desc>lat.=55.670898, lon.=26.590494, Alt.=144.326294m. Speed=9.720000m/h.</desc>
<speed>2.700000</speed>
</trkpt>
<trkpt lat="55.670925" lon="26.590498">
<ele>144.252075</ele>
<time>2010-07-18T11:53:18Z</time>
<desc>lat.=55.670925, lon.=26.590498, Alt.=144.252075m. Speed=9.720000m/h.</desc>
<speed>2.700000</speed>
</trkpt>
<trkpt lat="55.670944" lon="26.590502">
<ele>144.107544</ele>
<time>2010-07-18T11:53:19Z</time>
<desc>lat.=55.670944, lon.=26.590502, Alt.=144.107544m. Speed=7.452000m/h.</desc>
<speed>2.070000</speed>
</trkpt>
<trkpt lat="55.670963" lon="26.590509">
<ele>144.400513</ele>
<time>2010-07-18T11:53:20Z</time>
<desc>lat.=55.670963, lon.=26.590509, Alt.=144.400513m. Speed=5.940000m/h.</desc>
<speed>1.650000</speed>
</trkpt>
<trkpt lat="55.670975" lon="26.590515">
<ele>144.314575</ele>
<time>2010-07-18T11:53:21Z</time>
<desc>lat.=55.670975, lon.=26.590515, Alt.=144.314575m. Speed=4.932000m/h.</desc>
<speed>1.370000</speed>
</trkpt>
<trkpt lat="55.670982" lon="26.590528">
<ele>144.369263</ele>
<time>2010-07-18T11:53:22Z</time>
<desc>lat.=55.670982, lon.=26.590528, Alt.=144.369263m. Speed=4.032000m/h.</desc>
<speed>1.120000</speed>
</trkpt>
<trkpt lat="55.670986" lon="26.590540">
<ele>144.533325</ele>
<time>2010-07-18T11:53:23Z</time>
<desc>lat.=55.670986, lon.=26.590540, Alt.=144.533325m. Speed=4.068000m/h.</desc>
<speed>1.130000</speed>
</trkpt>
<trkpt lat="55.670994" lon="26.590557">
<ele>144.556763</ele>
<time>2010-07-18T11:53:24Z</time>
<desc>lat.=55.670994, lon.=26.590557, Alt.=144.556763m. Speed=4.716000m/h.</desc>
<speed>1.310000</speed>
</trkpt>
<trkpt lat="55.671009" lon="26.590569">
<ele>144.982544</ele>
<time>2010-07-18T11:53:25Z</time>
<desc>lat.=55.671009, lon.=26.590569, Alt.=144.982544m. Speed=5.688000m/h.</desc>
<speed>1.580000</speed>
</trkpt>
<trkpt lat="55.671024" lon="26.590576">
<ele>144.955200</ele>
<time>2010-07-18T11:53:26Z</time>
<desc>lat.=55.671024, lon.=26.590576, Alt.=144.955200m. Speed=6.660000m/h.</desc>
<speed>1.850000</speed>
</trkpt>
<trkpt lat="55.671043" lon="26.590580">
<ele>144.900513</ele>
<time>2010-07-18T11:53:27Z</time>
<desc>lat.=55.671043, lon.=26.590580, Alt.=144.900513m. Speed=7.920000m/h.</desc>
<speed>2.200000</speed>
</trkpt>
<trkpt lat="55.671062" lon="26.590588">
<ele>144.939575</ele>
<time>2010-07-18T11:53:28Z</time>
<desc>lat.=55.671062, lon.=26.590588, Alt.=144.939575m. Speed=8.892000m/h.</desc>
<speed>2.470000</speed>
</trkpt>
<trkpt lat="55.671085" lon="26.590593">
<ele>144.752075</ele>
<time>2010-07-18T11:53:29Z</time>
<desc>lat.=55.671085, lon.=26.590593, Alt.=144.752075m. Speed=9.936000m/h.</desc>
<speed>2.760000</speed>
</trkpt>
<trkpt lat="55.671112" lon="26.590601">
<ele>144.470825</ele>
<time>2010-07-18T11:53:30Z</time>
<desc>lat.=55.671112, lon.=26.590601, Alt.=144.470825m. Speed=10.944000m/h.</desc>
<speed>3.040000</speed>
</trkpt>
<trkpt lat="55.671143" lon="26.590605">
<ele>144.275513</ele>
<time>2010-07-18T11:53:31Z</time>
<desc>lat.=55.671143, lon.=26.590605, Alt.=144.275513m. Speed=11.592000m/h.</desc>
<speed>3.220000</speed>
</trkpt>
<trkpt lat="55.671169" lon="26.590607">
<ele>144.080200</ele>
<time>2010-07-18T11:53:32Z</time>
<desc>lat.=55.671169, lon.=26.590607, Alt.=144.080200m. Speed=12.204000m/h.</desc>
<speed>3.390000</speed>
</trkpt>
<trkpt lat="55.671204" lon="26.590612">
<ele>144.263794</ele>
<time>2010-07-18T11:53:33Z</time>
<desc>lat.=55.671204, lon.=26.590612, Alt.=144.263794m. Speed=12.708000m/h.</desc>
<speed>3.530000</speed>
</trkpt>
<trkpt lat="55.671238" lon="26.590616">
<ele>144.173950</ele>
<time>2010-07-18T11:53:34Z</time>
<desc>lat.=55.671238, lon.=26.590616, Alt.=144.173950m. Speed=13.068000m/h.</desc>
<speed>3.630000</speed>
</trkpt>
<trkpt lat="55.671272" lon="26.590620">
<ele>143.900513</ele>
<time>2010-07-18T11:53:35Z</time>
<desc>lat.=55.671272, lon.=26.590620, Alt.=143.900513m. Speed=13.500000m/h.</desc>
<speed>3.750000</speed>
</trkpt>
<trkpt lat="55.671307" lon="26.590624">
<ele>143.838013</ele>
<time>2010-07-18T11:53:36Z</time>
<desc>lat.=55.671307, lon.=26.590624, Alt.=143.838013m. Speed=13.392000m/h.</desc>
<speed>3.720000</speed>
</trkpt>
<trkpt lat="55.671341" lon="26.590628">
<ele>143.701294</ele>
<time>2010-07-18T11:53:37Z</time>
<desc>lat.=55.671341, lon.=26.590628, Alt.=143.701294m. Speed=14.508000m/h.</desc>
<speed>4.030000</speed>
</trkpt>
<trkpt lat="55.671375" lon="26.590630">
<ele>143.334106</ele>
<time>2010-07-18T11:53:38Z</time>
<desc>lat.=55.671375, lon.=26.590630, Alt.=143.334106m. Speed=15.012000m/h.</desc>
<speed>4.170000</speed>
</trkpt>
<trkpt lat="55.671410" lon="26.590633">
<ele>142.806763</ele>
<time>2010-07-18T11:53:39Z</time>
<desc>lat.=55.671410, lon.=26.590633, Alt.=142.806763m. Speed=15.372000m/h.</desc>
<speed>4.270000</speed>
</trkpt>
<trkpt lat="55.671448" lon="26.590637">
<ele>142.908325</ele>
<time>2010-07-18T11:53:40Z</time>
<desc>lat.=55.671448, lon.=26.590637, Alt.=142.908325m. Speed=15.588000m/h.</desc>
<speed>4.330000</speed>
</trkpt>
<trkpt lat="55.671490" lon="26.590645">
<ele>142.767700</ele>
<time>2010-07-18T11:53:41Z</time>
<desc>lat.=55.671490, lon.=26.590645, Alt.=142.767700m. Speed=15.732000m/h.</desc>
<speed>4.370000</speed>
</trkpt>
<trkpt lat="55.671528" lon="26.590651">
<ele>142.701294</ele>
<time>2010-07-18T11:53:42Z</time>
<desc>lat.=55.671528, lon.=26.590651, Alt.=142.701294m. Speed=15.516000m/h.</desc>
<speed>4.310000</speed>
</trkpt>
<trkpt lat="55.671562" lon="26.590654">
<ele>142.181763</ele>
<time>2010-07-18T11:53:43Z</time>
<desc>lat.=55.671562, lon.=26.590654, Alt.=142.181763m. Speed=15.048000m/h.</desc>
<speed>4.180000</speed>
</trkpt>
<trkpt lat="55.671600" lon="26.590660">
<ele>142.502075</ele>
<time>2010-07-18T11:53:44Z</time>
<desc>lat.=55.671600, lon.=26.590660, Alt.=142.502075m. Speed=14.364000m/h.</desc>
<speed>3.990000</speed>
</trkpt>
<trkpt lat="55.671638" lon="26.590668">
<ele>142.498169</ele>
<time>2010-07-18T11:53:45Z</time>
<desc>lat.=55.671638, lon.=26.590668, Alt.=142.498169m. Speed=13.140000m/h.</desc>
<speed>3.650000</speed>
</trkpt>
<trkpt lat="55.671669" lon="26.590673">
<ele>142.470825</ele>
<time>2010-07-18T11:53:46Z</time>
<desc>lat.=55.671669, lon.=26.590673, Alt.=142.470825m. Speed=12.348000m/h.</desc>
<speed>3.430000</speed>
</trkpt>
<trkpt lat="55.671700" lon="26.590677">
<ele>142.435669</ele>
<time>2010-07-18T11:53:47Z</time>
<desc>lat.=55.671700, lon.=26.590677, Alt.=142.435669m. Speed=11.268000m/h.</desc>
<speed>3.130000</speed>
</trkpt>
<trkpt lat="55.671730" lon="26.590677">
<ele>142.455200</ele>
<time>2010-07-18T11:53:48Z</time>
<desc>lat.=55.671730, lon.=26.590677, Alt.=142.455200m. Speed=10.476000m/h.</desc>
<speed>2.910000</speed>
</trkpt>
<trkpt lat="55.671753" lon="26.590679">
<ele>142.654419</ele>
<time>2010-07-18T11:53:49Z</time>
<desc>lat.=55.671753, lon.=26.590679, Alt.=142.654419m. Speed=9.468000m/h.</desc>
<speed>2.630000</speed>
</trkpt>
<trkpt lat="55.671776" lon="26.590681">
<ele>142.849731</ele>
<time>2010-07-18T11:53:50Z</time>
<desc>lat.=55.671776, lon.=26.590681, Alt.=142.849731m. Speed=9.432000m/h.</desc>
<speed>2.620000</speed>
</trkpt>
<trkpt lat="55.671799" lon="26.590681">
<ele>142.736450</ele>
<time>2010-07-18T11:53:51Z</time>
<desc>lat.=55.671799, lon.=26.590681, Alt.=142.736450m. Speed=8.532000m/h.</desc>
<speed>2.370000</speed>
</trkpt>
<trkpt lat="55.671818" lon="26.590673">
<ele>142.599731</ele>
<time>2010-07-18T11:53:52Z</time>
<desc>lat.=55.671818, lon.=26.590673, Alt.=142.599731m. Speed=8.424000m/h.</desc>
<speed>2.340000</speed>
</trkpt>
<trkpt lat="55.671844" lon="26.590666">
<ele>144.580200</ele>
<time>2010-07-18T11:53:53Z</time>
<desc>lat.=55.671844, lon.=26.590666, Alt.=144.580200m. Speed=8.928000m/h.</desc>
<speed>2.480000</speed>
</trkpt>
<trkpt lat="55.671867" lon="26.590652">
<ele>144.806763</ele>
<time>2010-07-18T11:53:54Z</time>
<desc>lat.=55.671867, lon.=26.590652, Alt.=144.806763m. Speed=9.432000m/h.</desc>
<speed>2.620000</speed>
</trkpt>
<trkpt lat="55.671890" lon="26.590649">
<ele>145.173950</ele>
<time>2010-07-18T11:53:55Z</time>
<desc>lat.=55.671890, lon.=26.590649, Alt.=145.173950m. Speed=10.404000m/h.</desc>
<speed>2.890000</speed>
</trkpt>
<trkpt lat="55.671917" lon="26.590649">
<ele>145.502075</ele>
<time>2010-07-18T11:53:56Z</time>
<desc>lat.=55.671917, lon.=26.590649, Alt.=145.502075m. Speed=11.052000m/h.</desc>
<speed>3.070000</speed>
</trkpt>
<trkpt lat="55.671947" lon="26.590649">
<ele>145.838013</ele>
<time>2010-07-18T11:53:57Z</time>
<desc>lat.=55.671947, lon.=26.590649, Alt.=145.838013m. Speed=12.600000m/h.</desc>
<speed>3.500000</speed>
</trkpt>
<trkpt lat="55.671978" lon="26.590649">
<ele>146.158325</ele>
<time>2010-07-18T11:53:58Z</time>
<desc>lat.=55.671978, lon.=26.590649, Alt.=146.158325m. Speed=12.744000m/h.</desc>
<speed>3.540000</speed>
</trkpt>
<trkpt lat="55.672009" lon="26.590645">
<ele>146.627075</ele>
<time>2010-07-18T11:53:59Z</time>
<desc>lat.=55.672009, lon.=26.590645, Alt.=146.627075m. Speed=12.060000m/h.</desc>
<speed>3.350000</speed>
</trkpt>
<trkpt lat="55.672043" lon="26.590641">
<ele>147.357544</ele>
<time>2010-07-18T11:54:00Z</time>
<desc>lat.=55.672043, lon.=26.590641, Alt.=147.357544m. Speed=12.708000m/h.</desc>
<speed>3.530000</speed>
</trkpt>
<trkpt lat="55.672066" lon="26.590637">
<ele>145.884888</ele>
<time>2010-07-18T11:54:01Z</time>
<desc>lat.=55.672066, lon.=26.590637, Alt.=145.884888m. Speed=12.096000m/h.</desc>
<speed>3.360000</speed>
</trkpt>
<trkpt lat="55.672096" lon="26.590641">
<ele>146.173950</ele>
<time>2010-07-18T11:54:02Z</time>
<desc>lat.=55.672096, lon.=26.590641, Alt.=146.173950m. Speed=12.204000m/h.</desc>
<speed>3.390000</speed>
</trkpt>
<trkpt lat="55.672131" lon="26.590643">
<ele>146.619263</ele>
<time>2010-07-18T11:54:03Z</time>
<desc>lat.=55.672131, lon.=26.590643, Alt.=146.619263m. Speed=12.240000m/h.</desc>
<speed>3.400000</speed>
</trkpt>
<trkpt lat="55.672157" lon="26.590639">
<ele>146.595825</ele>
<time>2010-07-18T11:54:04Z</time>
<desc>lat.=55.672157, lon.=26.590639, Alt.=146.595825m. Speed=12.888000m/h.</desc>
<speed>3.580000</speed>
</trkpt>
<trkpt lat="55.672184" lon="26.590639">
<ele>146.830200</ele>
<time>2010-07-18T11:54:05Z</time>
<desc>lat.=55.672184, lon.=26.590639, Alt.=146.830200m. Speed=10.944000m/h.</desc>
<speed>3.040000</speed>
</trkpt>
<trkpt lat="55.672215" lon="26.590639">
<ele>146.857544</ele>
<time>2010-07-18T11:54:06Z</time>
<desc>lat.=55.672215, lon.=26.590639, Alt.=146.857544m. Speed=9.792000m/h.</desc>
<speed>2.720000</speed>
</trkpt>
<trkpt lat="55.672237" lon="26.590643">
<ele>146.990356</ele>
<time>2010-07-18T11:54:07Z</time>
<desc>lat.=55.672237, lon.=26.590643, Alt.=146.990356m. Speed=9.792000m/h.</desc>
<speed>2.720000</speed>
</trkpt>
<trkpt lat="55.672264" lon="26.590641">
<ele>147.025513</ele>
<time>2010-07-18T11:54:08Z</time>
<desc>lat.=55.672264, lon.=26.590641, Alt.=147.025513m. Speed=9.720000m/h.</desc>
<speed>2.700000</speed>
</trkpt>
<trkpt lat="55.672298" lon="26.590635">
<ele>148.826294</ele>
<time>2010-07-18T11:54:09Z</time>
<desc>lat.=55.672298, lon.=26.590635, Alt.=148.826294m. Speed=10.620000m/h.</desc>
<speed>2.950000</speed>
</trkpt>
<trkpt lat="55.672333" lon="26.590635">
<ele>150.619263</ele>
<time>2010-07-18T11:54:10Z</time>
<desc>lat.=55.672333, lon.=26.590635, Alt.=150.619263m. Speed=11.088000m/h.</desc>
<speed>3.080000</speed>
</trkpt>
<trkpt lat="55.672356" lon="26.590635">
<ele>150.591919</ele>
<time>2010-07-18T11:54:11Z</time>
<desc>lat.=55.672356, lon.=26.590635, Alt.=150.591919m. Speed=11.304000m/h.</desc>
<speed>3.140000</speed>
</trkpt>
<trkpt lat="55.672379" lon="26.590633">
<ele>150.127075</ele>
<time>2010-07-18T11:54:12Z</time>
<desc>lat.=55.672379, lon.=26.590633, Alt.=150.127075m. Speed=10.296000m/h.</desc>
<speed>2.860000</speed>
</trkpt>
<trkpt lat="55.672409" lon="26.590635">
<ele>150.771606</ele>
<time>2010-07-18T11:54:13Z</time>
<desc>lat.=55.672409, lon.=26.590635, Alt.=150.771606m. Speed=10.224000m/h.</desc>
<speed>2.840000</speed>
</trkpt>
<trkpt lat="55.672432" lon="26.590631">
<ele>150.982544</ele>
<time>2010-07-18T11:54:14Z</time>
<desc>lat.=55.672432, lon.=26.590631, Alt.=150.982544m. Speed=10.584000m/h.</desc>
<speed>2.940000</speed>
</trkpt>
<trkpt lat="55.672459" lon="26.590628">
<ele>151.158325</ele>
<time>2010-07-18T11:54:15Z</time>
<desc>lat.=55.672459, lon.=26.590628, Alt.=151.158325m. Speed=11.052000m/h.</desc>
<speed>3.070000</speed>
</trkpt>
<trkpt lat="55.672485" lon="26.590626">
<ele>151.443481</ele>
<time>2010-07-18T11:54:16Z</time>
<desc>lat.=55.672485, lon.=26.590626, Alt.=151.443481m. Speed=11.412000m/h.</desc>
<speed>3.170000</speed>
</trkpt>
<trkpt lat="55.672508" lon="26.590628">
<ele>151.427856</ele>
<time>2010-07-18T11:54:17Z</time>
<desc>lat.=55.672508, lon.=26.590628, Alt.=151.427856m. Speed=10.908000m/h.</desc>
<speed>3.030000</speed>
</trkpt>
<trkpt lat="55.672527" lon="26.590622">
<ele>150.365356</ele>
<time>2010-07-18T11:54:18Z</time>
<desc>lat.=55.672527, lon.=26.590622, Alt.=150.365356m. Speed=10.548000m/h.</desc>
<speed>2.930000</speed>
</trkpt>
<trkpt lat="55.672558" lon="26.590614">
<ele>150.673950</ele>
<time>2010-07-18T11:54:19Z</time>
<desc>lat.=55.672558, lon.=26.590614, Alt.=150.673950m. Speed=11.340000m/h.</desc>
<speed>3.150000</speed>
</trkpt>
<trkpt lat="55.672585" lon="26.590605">
<ele>150.650513</ele>
<time>2010-07-18T11:54:20Z</time>
<desc>lat.=55.672585, lon.=26.590605, Alt.=150.650513m. Speed=10.692000m/h.</desc>
<speed>2.970000</speed>
</trkpt>
<trkpt lat="55.672607" lon="26.590593">
<ele>150.607544</ele>
<time>2010-07-18T11:54:21Z</time>
<desc>lat.=55.672607, lon.=26.590593, Alt.=150.607544m. Speed=11.412000m/h.</desc>
<speed>3.170000</speed>
</trkpt>
<trkpt lat="55.672634" lon="26.590580">
<ele>150.463013</ele>
<time>2010-07-18T11:54:22Z</time>
<desc>lat.=55.672634, lon.=26.590580, Alt.=150.463013m. Speed=11.916000m/h.</desc>
<speed>3.310000</speed>
</trkpt>
<trkpt lat="55.672665" lon="26.590567">
<ele>150.263794</ele>
<time>2010-07-18T11:54:23Z</time>
<desc>lat.=55.672665, lon.=26.590567, Alt.=150.263794m. Speed=12.060000m/h.</desc>
<speed>3.350000</speed>
</trkpt>
<trkpt lat="55.672695" lon="26.590557">
<ele>151.193481</ele>
<time>2010-07-18T11:54:24Z</time>
<desc>lat.=55.672695, lon.=26.590557, Alt.=151.193481m. Speed=12.564000m/h.</desc>
<speed>3.490000</speed>
</trkpt>
<trkpt lat="55.672726" lon="26.590548">
<ele>150.818481</ele>
<time>2010-07-18T11:54:25Z</time>
<desc>lat.=55.672726, lon.=26.590548, Alt.=150.818481m. Speed=13.392000m/h.</desc>
<speed>3.720000</speed>
</trkpt>
<trkpt lat="55.672756" lon="26.590534">
<ele>150.861450</ele>
<time>2010-07-18T11:54:26Z</time>
<desc>lat.=55.672756, lon.=26.590534, Alt.=150.861450m. Speed=12.996000m/h.</desc>
<speed>3.610000</speed>
</trkpt>
<trkpt lat="55.672787" lon="26.590519">
<ele>150.732544</ele>
<time>2010-07-18T11:54:27Z</time>
<desc>lat.=55.672787, lon.=26.590519, Alt.=150.732544m. Speed=12.492000m/h.</desc>
<speed>3.470000</speed>
</trkpt>
<trkpt lat="55.672817" lon="26.590506">
<ele>150.552856</ele>
<time>2010-07-18T11:54:28Z</time>
<desc>lat.=55.672817, lon.=26.590506, Alt.=150.552856m. Speed=12.096000m/h.</desc>
<speed>3.360000</speed>
</trkpt>
<trkpt lat="55.672840" lon="26.590487">
<ele>149.947388</ele>
<time>2010-07-18T11:54:29Z</time>
<desc>lat.=55.672840, lon.=26.590487, Alt.=149.947388m. Speed=11.592000m/h.</desc>
<speed>3.220000</speed>
</trkpt>
<trkpt lat="55.672867" lon="26.590477">
<ele>150.548950</ele>
<time>2010-07-18T11:54:30Z</time>
<desc>lat.=55.672867, lon.=26.590477, Alt.=150.548950m. Speed=11.844000m/h.</desc>
<speed>3.290000</speed>
</trkpt>
<trkpt lat="55.672897" lon="26.590462">
<ele>150.642700</ele>
<time>2010-07-18T11:54:31Z</time>
<desc>lat.=55.672897, lon.=26.590462, Alt.=150.642700m. Speed=13.644000m/h.</desc>
<speed>3.790000</speed>
</trkpt>
<trkpt lat="55.672928" lon="26.590439">
<ele>150.502075</ele>
<time>2010-07-18T11:54:32Z</time>
<desc>lat.=55.672928, lon.=26.590439, Alt.=150.502075m. Speed=10.836000m/h.</desc>
<speed>3.010000</speed>
</trkpt>
<trkpt lat="55.672951" lon="26.590412">
<ele>150.255981</ele>
<time>2010-07-18T11:54:33Z</time>
<desc>lat.=55.672951, lon.=26.590412, Alt.=150.255981m. Speed=11.556000m/h.</desc>
<speed>3.210000</speed>
</trkpt>
<trkpt lat="55.672977" lon="26.590393">
<ele>150.013794</ele>
<time>2010-07-18T11:54:34Z</time>
<desc>lat.=55.672977, lon.=26.590393, Alt.=150.013794m. Speed=10.872000m/h.</desc>
<speed>3.020000</speed>
</trkpt>
<trkpt lat="55.673000" lon="26.590374">
<ele>149.787231</ele>
<time>2010-07-18T11:54:35Z</time>
<desc>lat.=55.673000, lon.=26.590374, Alt.=149.787231m. Speed=11.196000m/h.</desc>
<speed>3.110000</speed>
</trkpt>
<trkpt lat="55.673031" lon="26.590334">
<ele>148.810669</ele>
<time>2010-07-18T11:54:36Z</time>
<desc>lat.=55.673031, lon.=26.590334, Alt.=148.810669m. Speed=12.924000m/h.</desc>
<speed>3.590000</speed>
</trkpt>
<trkpt lat="55.673061" lon="26.590305">
<ele>147.880981</ele>
<time>2010-07-18T11:54:37Z</time>
<desc>lat.=55.673061, lon.=26.590305, Alt.=147.880981m. Speed=14.292000m/h.</desc>
<speed>3.970000</speed>
</trkpt>
<trkpt lat="55.673092" lon="26.590275">
<ele>147.431763</ele>
<time>2010-07-18T11:54:38Z</time>
<desc>lat.=55.673092, lon.=26.590275, Alt.=147.431763m. Speed=13.572000m/h.</desc>
<speed>3.770000</speed>
</trkpt>
<trkpt lat="55.673122" lon="26.590244">
<ele>146.427856</ele>
<time>2010-07-18T11:54:39Z</time>
<desc>lat.=55.673122, lon.=26.590244, Alt.=146.427856m. Speed=15.444000m/h.</desc>
<speed>4.290000</speed>
</trkpt>
<trkpt lat="55.673153" lon="26.590214">
<ele>145.892700</ele>
<time>2010-07-18T11:54:40Z</time>
<desc>lat.=55.673153, lon.=26.590214, Alt.=145.892700m. Speed=15.156000m/h.</desc>
<speed>4.210000</speed>
</trkpt>
<trkpt lat="55.673191" lon="26.590179">
<ele>145.388794</ele>
<time>2010-07-18T11:54:41Z</time>
<desc>lat.=55.673191, lon.=26.590179, Alt.=145.388794m. Speed=16.056000m/h.</desc>
<speed>4.460000</speed>
</trkpt>
<trkpt lat="55.673233" lon="26.590145">
<ele>144.857544</ele>
<time>2010-07-18T11:54:42Z</time>
<desc>lat.=55.673233, lon.=26.590145, Alt.=144.857544m. Speed=16.524000m/h.</desc>
<speed>4.590000</speed>
</trkpt>
<trkpt lat="55.673267" lon="26.590107">
<ele>143.963013</ele>
<time>2010-07-18T11:54:43Z</time>
<desc>lat.=55.673267, lon.=26.590107, Alt.=143.963013m. Speed=16.416000m/h.</desc>
<speed>4.560000</speed>
</trkpt>
<trkpt lat="55.673306" lon="26.590067">
<ele>143.431763</ele>
<time>2010-07-18T11:54:44Z</time>
<desc>lat.=55.673306, lon.=26.590067, Alt.=143.431763m. Speed=17.100000m/h.</desc>
<speed>4.750000</speed>
</trkpt>
<trkpt lat="55.673347" lon="26.590031">
<ele>142.904419</ele>
<time>2010-07-18T11:54:45Z</time>
<desc>lat.=55.673347, lon.=26.590031, Alt.=142.904419m. Speed=16.271999m/h.</desc>
<speed>4.520000</speed>
</trkpt>
<trkpt lat="55.673389" lon="26.590010">
<ele>143.423950</ele>
<time>2010-07-18T11:54:46Z</time>
<desc>lat.=55.673389, lon.=26.590010, Alt.=143.423950m. Speed=15.192000m/h.</desc>
<speed>4.220000</speed>
</trkpt>
<trkpt lat="55.673431" lon="26.589987">
<ele>144.060669</ele>
<time>2010-07-18T11:54:47Z</time>
<desc>lat.=55.673431, lon.=26.589987, Alt.=144.060669m. Speed=14.220000m/h.</desc>
<speed>3.950000</speed>
</trkpt>
<trkpt lat="55.673466" lon="26.589964">
<ele>144.033325</ele>
<time>2010-07-18T11:54:48Z</time>
<desc>lat.=55.673466, lon.=26.589964, Alt.=144.033325m. Speed=13.896000m/h.</desc>
<speed>3.860000</speed>
</trkpt>
<trkpt lat="55.673500" lon="26.589945">
<ele>144.588013</ele>
<time>2010-07-18T11:54:49Z</time>
<desc>lat.=55.673500, lon.=26.589945, Alt.=144.588013m. Speed=11.952000m/h.</desc>
<speed>3.320000</speed>
</trkpt>
<trkpt lat="55.673538" lon="26.589924">
<ele>145.162231</ele>
<time>2010-07-18T11:54:50Z</time>
<desc>lat.=55.673538, lon.=26.589924, Alt.=145.162231m. Speed=12.312000m/h.</desc>
<speed>3.420000</speed>
</trkpt>
<trkpt lat="55.673569" lon="26.589912">
<ele>146.052856</ele>
<time>2010-07-18T11:54:51Z</time>
<desc>lat.=55.673569, lon.=26.589912, Alt.=146.052856m. Speed=12.492000m/h.</desc>
<speed>3.470000</speed>
</trkpt>
<trkpt lat="55.673607" lon="26.589890">
<ele>146.912231</ele>
<time>2010-07-18T11:54:52Z</time>
<desc>lat.=55.673607, lon.=26.589890, Alt.=146.912231m. Speed=12.204000m/h.</desc>
<speed>3.390000</speed>
</trkpt>
<trkpt lat="55.673641" lon="26.589867">
<ele>147.681763</ele>
<time>2010-07-18T11:54:53Z</time>
<desc>lat.=55.673641, lon.=26.589867, Alt.=147.681763m. Speed=13.428000m/h.</desc>
<speed>3.730000</speed>
</trkpt>
<trkpt lat="55.673672" lon="26.589846">
<ele>148.138794</ele>
<time>2010-07-18T11:54:54Z</time>
<desc>lat.=55.673672, lon.=26.589846, Alt.=148.138794m. Speed=12.276000m/h.</desc>
<speed>3.410000</speed>
</trkpt>
<trkpt lat="55.673706" lon="26.589823">
<ele>148.338013</ele>
<time>2010-07-18T11:54:55Z</time>
<desc>lat.=55.673706, lon.=26.589823, Alt.=148.338013m. Speed=12.636000m/h.</desc>
<speed>3.510000</speed>
</trkpt>
<trkpt lat="55.673740" lon="26.589802">
<ele>148.752075</ele>
<time>2010-07-18T11:54:56Z</time>
<desc>lat.=55.673740, lon.=26.589802, Alt.=148.752075m. Speed=13.968000m/h.</desc>
<speed>3.880000</speed>
</trkpt>
<trkpt lat="55.673771" lon="26.589762">
<ele>149.443481</ele>
<time>2010-07-18T11:54:57Z</time>
<desc>lat.=55.673771, lon.=26.589762, Alt.=149.443481m. Speed=12.420000m/h.</desc>
<speed>3.450000</speed>
</trkpt>
<trkpt lat="55.673801" lon="26.589737">
<ele>149.505981</ele>
<time>2010-07-18T11:54:58Z</time>
<desc>lat.=55.673801, lon.=26.589737, Alt.=149.505981m. Speed=15.048000m/h.</desc>
<speed>4.180000</speed>
</trkpt>
<trkpt lat="55.673832" lon="26.589705">
<ele>149.150513</ele>
<time>2010-07-18T11:54:59Z</time>
<desc>lat.=55.673832, lon.=26.589705, Alt.=149.150513m. Speed=15.372000m/h.</desc>
<speed>4.270000</speed>
</trkpt>
<trkpt lat="55.673859" lon="26.589664">
<ele>149.384888</ele>
<time>2010-07-18T11:55:00Z</time>
<desc>lat.=55.673859, lon.=26.589664, Alt.=149.384888m. Speed=14.508000m/h.</desc>
<speed>4.030000</speed>
</trkpt>
<trkpt lat="55.673882" lon="26.589615">
<ele>149.279419</ele>
<time>2010-07-18T11:55:01Z</time>
<desc>lat.=55.673882, lon.=26.589615, Alt.=149.279419m. Speed=15.516000m/h.</desc>
<speed>4.310000</speed>
</trkpt>
<trkpt lat="55.673916" lon="26.589588">
<ele>148.447388</ele>
<time>2010-07-18T11:55:02Z</time>
<desc>lat.=55.673916, lon.=26.589588, Alt.=148.447388m. Speed=16.416000m/h.</desc>
<speed>4.560000</speed>
</trkpt>
<trkpt lat="55.673946" lon="26.589552">
<ele>147.732544</ele>
<time>2010-07-18T11:55:03Z</time>
<desc>lat.=55.673946, lon.=26.589552, Alt.=147.732544m. Speed=16.992001m/h.</desc>
<speed>4.720000</speed>
</trkpt>
<trkpt lat="55.673977" lon="26.589504">
<ele>146.998169</ele>
<time>2010-07-18T11:55:04Z</time>
<desc>lat.=55.673977, lon.=26.589504, Alt.=146.998169m. Speed=16.992001m/h.</desc>
<speed>4.720000</speed>
</trkpt>
<trkpt lat="55.674011" lon="26.589451">
<ele>146.705200</ele>
<time>2010-07-18T11:55:05Z</time>
<desc>lat.=55.674011, lon.=26.589451, Alt.=146.705200m. Speed=16.920000m/h.</desc>
<speed>4.700000</speed>
</trkpt>
<trkpt lat="55.674034" lon="26.589392">
<ele>146.095825</ele>
<time>2010-07-18T11:55:06Z</time>
<desc>lat.=55.674034, lon.=26.589392, Alt.=146.095825m. Speed=16.200001m/h.</desc>
<speed>4.500000</speed>
</trkpt>
<trkpt lat="55.674061" lon="26.589331">
<ele>146.263794</ele>
<time>2010-07-18T11:55:07Z</time>
<desc>lat.=55.674061, lon.=26.589331, Alt.=146.263794m. Speed=14.904000m/h.</desc>
<speed>4.140000</speed>
</trkpt>
<trkpt lat="55.674080" lon="26.589270">
<ele>146.408325</ele>
<time>2010-07-18T11:55:08Z</time>
<desc>lat.=55.674080, lon.=26.589270, Alt.=146.408325m. Speed=15.336000m/h.</desc>
<speed>4.260000</speed>
</trkpt>
<trkpt lat="55.674099" lon="26.589205">
<ele>146.451294</ele>
<time>2010-07-18T11:55:09Z</time>
<desc>lat.=55.674099, lon.=26.589205, Alt.=146.451294m. Speed=15.408000m/h.</desc>
<speed>4.280000</speed>
</trkpt>
<trkpt lat="55.674114" lon="26.589140">
<ele>146.162231</ele>
<time>2010-07-18T11:55:10Z</time>
<desc>lat.=55.674114, lon.=26.589140, Alt.=146.162231m. Speed=16.128000m/h.</desc>
<speed>4.480000</speed>
</trkpt>
<trkpt lat="55.674126" lon="26.589071">
<ele>146.271606</ele>
<time>2010-07-18T11:55:11Z</time>
<desc>lat.=55.674126, lon.=26.589071, Alt.=146.271606m. Speed=16.632000m/h.</desc>
<speed>4.620000</speed>
</trkpt>
<trkpt lat="55.674141" lon="26.588999">
<ele>146.478638</ele>
<time>2010-07-18T11:55:12Z</time>
<desc>lat.=55.674141, lon.=26.588999, Alt.=146.478638m. Speed=16.812000m/h.</desc>
<speed>4.670000</speed>
</trkpt>
<trkpt lat="55.674152" lon="26.588928">
<ele>146.884888</ele>
<time>2010-07-18T11:55:13Z</time>
<desc>lat.=55.674152, lon.=26.588928, Alt.=146.884888m. Speed=17.063999m/h.</desc>
<speed>4.740000</speed>
</trkpt>
<trkpt lat="55.674164" lon="26.588854">
<ele>146.853638</ele>
<time>2010-07-18T11:55:14Z</time>
<desc>lat.=55.674164, lon.=26.588854, Alt.=146.853638m. Speed=17.496000m/h.</desc>
<speed>4.860000</speed>
</trkpt>
<trkpt lat="55.674175" lon="26.588776">
<ele>146.892700</ele>
<time>2010-07-18T11:55:15Z</time>
<desc>lat.=55.674175, lon.=26.588776, Alt.=146.892700m. Speed=17.604000m/h.</desc>
<speed>4.890000</speed>
</trkpt>
<trkpt lat="55.674187" lon="26.588707">
<ele>147.373169</ele>
<time>2010-07-18T11:55:16Z</time>
<desc>lat.=55.674187, lon.=26.588707, Alt.=147.373169m. Speed=15.804000m/h.</desc>
<speed>4.390000</speed>
</trkpt>
<trkpt lat="55.674191" lon="26.588636">
<ele>147.533325</ele>
<time>2010-07-18T11:55:17Z</time>
<desc>lat.=55.674191, lon.=26.588636, Alt.=147.533325m. Speed=15.696000m/h.</desc>
<speed>4.360000</speed>
</trkpt>
<trkpt lat="55.674198" lon="26.588566">
<ele>147.705200</ele>
<time>2010-07-18T11:55:18Z</time>
<desc>lat.=55.674198, lon.=26.588566, Alt.=147.705200m. Speed=15.588000m/h.</desc>
<speed>4.330000</speed>
</trkpt>
<trkpt lat="55.674206" lon="26.588497">
<ele>147.748169</ele>
<time>2010-07-18T11:55:19Z</time>
<desc>lat.=55.674206, lon.=26.588497, Alt.=147.748169m. Speed=15.984000m/h.</desc>
<speed>4.440000</speed>
</trkpt>
<trkpt lat="55.674217" lon="26.588425">
<ele>147.798950</ele>
<time>2010-07-18T11:55:20Z</time>
<desc>lat.=55.674217, lon.=26.588425, Alt.=147.798950m. Speed=15.948000m/h.</desc>
<speed>4.430000</speed>
</trkpt>
<trkpt lat="55.674229" lon="26.588354">
<ele>147.998169</ele>
<time>2010-07-18T11:55:21Z</time>
<desc>lat.=55.674229, lon.=26.588354, Alt.=147.998169m. Speed=16.308001m/h.</desc>
<speed>4.530000</speed>
</trkpt>
<trkpt lat="55.674236" lon="26.588280">
<ele>147.974731</ele>
<time>2010-07-18T11:55:22Z</time>
<desc>lat.=55.674236, lon.=26.588280, Alt.=147.974731m. Speed=16.884001m/h.</desc>
<speed>4.690000</speed>
</trkpt>
<trkpt lat="55.674248" lon="26.588205">
<ele>148.158325</ele>
<time>2010-07-18T11:55:23Z</time>
<desc>lat.=55.674248, lon.=26.588205, Alt.=148.158325m. Speed=16.524000m/h.</desc>
<speed>4.590000</speed>
</trkpt>
<trkpt lat="55.674255" lon="26.588139">
<ele>148.177856</ele>
<time>2010-07-18T11:55:24Z</time>
<desc>lat.=55.674255, lon.=26.588139, Alt.=148.177856m. Speed=15.768000m/h.</desc>
<speed>4.380000</speed>
</trkpt>
<trkpt lat="55.674267" lon="26.588072">
<ele>148.291138</ele>
<time>2010-07-18T11:55:25Z</time>
<desc>lat.=55.674267, lon.=26.588072, Alt.=148.291138m. Speed=15.804000m/h.</desc>
<speed>4.390000</speed>
</trkpt>
<trkpt lat="55.674278" lon="26.588007">
<ele>148.478638</ele>
<time>2010-07-18T11:55:26Z</time>
<desc>lat.=55.674278, lon.=26.588007, Alt.=148.478638m. Speed=15.120000m/h.</desc>
<speed>4.200000</speed>
</trkpt>
<trkpt lat="55.674286" lon="26.587942">
<ele>148.584106</ele>
<time>2010-07-18T11:55:27Z</time>
<desc>lat.=55.674286, lon.=26.587942, Alt.=148.584106m. Speed=14.724000m/h.</desc>
<speed>4.090000</speed>
</trkpt>
<trkpt lat="55.674294" lon="26.587877">
<ele>148.627075</ele>
<time>2010-07-18T11:55:28Z</time>
<desc>lat.=55.674294, lon.=26.587877, Alt.=148.627075m. Speed=14.652000m/h.</desc>
<speed>4.070000</speed>
</trkpt>
<trkpt lat="55.674301" lon="26.587816">
<ele>148.845825</ele>
<time>2010-07-18T11:55:29Z</time>
<desc>lat.=55.674301, lon.=26.587816, Alt.=148.845825m. Speed=14.580000m/h.</desc>
<speed>4.050000</speed>
</trkpt>
<trkpt lat="55.674313" lon="26.587759">
<ele>148.810669</ele>
<time>2010-07-18T11:55:30Z</time>
<desc>lat.=55.674313, lon.=26.587759, Alt.=148.810669m. Speed=13.896000m/h.</desc>
<speed>3.860000</speed>
</trkpt>
<trkpt lat="55.674320" lon="26.587694">
<ele>148.556763</ele>
<time>2010-07-18T11:55:31Z</time>
<desc>lat.=55.674320, lon.=26.587694, Alt.=148.556763m. Speed=13.500000m/h.</desc>
<speed>3.750000</speed>
</trkpt>
<trkpt lat="55.674332" lon="26.587639">
<ele>148.787231</ele>
<time>2010-07-18T11:55:32Z</time>
<desc>lat.=55.674332, lon.=26.587639, Alt.=148.787231m. Speed=13.500000m/h.</desc>
<speed>3.750000</speed>
</trkpt>
<trkpt lat="55.674339" lon="26.587585">
<ele>149.017700</ele>
<time>2010-07-18T11:55:33Z</time>
<desc>lat.=55.674339, lon.=26.587585, Alt.=149.017700m. Speed=13.464000m/h.</desc>
<speed>3.740000</speed>
</trkpt>
<trkpt lat="55.674347" lon="26.587528">
<ele>149.088013</ele>
<time>2010-07-18T11:55:34Z</time>
<desc>lat.=55.674347, lon.=26.587528, Alt.=149.088013m. Speed=13.788000m/h.</desc>
<speed>3.830000</speed>
</trkpt>
<trkpt lat="55.674355" lon="26.587473">
<ele>149.263794</ele>
<time>2010-07-18T11:55:35Z</time>
<desc>lat.=55.674355, lon.=26.587473, Alt.=149.263794m. Speed=13.680000m/h.</desc>
<speed>3.800000</speed>
</trkpt>
<trkpt lat="55.674366" lon="26.587418">
<ele>149.224731</ele>
<time>2010-07-18T11:55:36Z</time>
<desc>lat.=55.674366, lon.=26.587418, Alt.=149.224731m. Speed=12.708000m/h.</desc>
<speed>3.530000</speed>
</trkpt>
<trkpt lat="55.674374" lon="26.587368">
<ele>149.291138</ele>
<time>2010-07-18T11:55:37Z</time>
<desc>lat.=55.674374, lon.=26.587368, Alt.=149.291138m. Speed=12.564000m/h.</desc>
<speed>3.490000</speed>
</trkpt>
<trkpt lat="55.674381" lon="26.587313">
<ele>149.330200</ele>
<time>2010-07-18T11:55:38Z</time>
<desc>lat.=55.674381, lon.=26.587313, Alt.=149.330200m. Speed=12.744000m/h.</desc>
<speed>3.540000</speed>
</trkpt>
<trkpt lat="55.674393" lon="26.587254">
<ele>149.416138</ele>
<time>2010-07-18T11:55:39Z</time>
<desc>lat.=55.674393, lon.=26.587254, Alt.=149.416138m. Speed=13.356000m/h.</desc>
<speed>3.710000</speed>
</trkpt>
<trkpt lat="55.674400" lon="26.587200">
<ele>149.459106</ele>
<time>2010-07-18T11:55:40Z</time>
<desc>lat.=55.674400, lon.=26.587200, Alt.=149.459106m. Speed=12.924000m/h.</desc>
<speed>3.590000</speed>
</trkpt>
<trkpt lat="55.674408" lon="26.587147">
<ele>149.420044</ele>
<time>2010-07-18T11:55:41Z</time>
<desc>lat.=55.674408, lon.=26.587147, Alt.=149.420044m. Speed=12.312000m/h.</desc>
<speed>3.420000</speed>
</trkpt>
<trkpt lat="55.674416" lon="26.587099">
<ele>149.463013</ele>
<time>2010-07-18T11:55:42Z</time>
<desc>lat.=55.674416, lon.=26.587099, Alt.=149.463013m. Speed=11.052000m/h.</desc>
<speed>3.070000</speed>
</trkpt>
<trkpt lat="55.674427" lon="26.587055">
<ele>149.377075</ele>
<time>2010-07-18T11:55:43Z</time>
<desc>lat.=55.674427, lon.=26.587055, Alt.=149.377075m. Speed=10.044000m/h.</desc>
<speed>2.790000</speed>
</trkpt>
<trkpt lat="55.674431" lon="26.587011">
<ele>149.361450</ele>
<time>2010-07-18T11:55:44Z</time>
<desc>lat.=55.674431, lon.=26.587011, Alt.=149.361450m. Speed=9.972000m/h.</desc>
<speed>2.770000</speed>
</trkpt>
<trkpt lat="55.674438" lon="26.586967">
<ele>149.318481</ele>
<time>2010-07-18T11:55:45Z</time>
<desc>lat.=55.674438, lon.=26.586967, Alt.=149.318481m. Speed=10.980000m/h.</desc>
<speed>3.050000</speed>
</trkpt>
<trkpt lat="55.674442" lon="26.586916">
<ele>149.291138</ele>
<time>2010-07-18T11:55:46Z</time>
<desc>lat.=55.674442, lon.=26.586916, Alt.=149.291138m. Speed=12.492000m/h.</desc>
<speed>3.470000</speed>
</trkpt>
<trkpt lat="55.674454" lon="26.586859">
<ele>149.201294</ele>
<time>2010-07-18T11:55:47Z</time>
<desc>lat.=55.674454, lon.=26.586859, Alt.=149.201294m. Speed=14.400000m/h.</desc>
<speed>4.000000</speed>
</trkpt>
<trkpt lat="55.674461" lon="26.586792">
<ele>149.076294</ele>
<time>2010-07-18T11:55:48Z</time>
<desc>lat.=55.674461, lon.=26.586792, Alt.=149.076294m. Speed=16.020000m/h.</desc>
<speed>4.450000</speed>
</trkpt>
<trkpt lat="55.674469" lon="26.586721">
<ele>148.744263</ele>
<time>2010-07-18T11:55:49Z</time>
<desc>lat.=55.674469, lon.=26.586721, Alt.=148.744263m. Speed=15.264000m/h.</desc>
<speed>4.240000</speed>
</trkpt>
<trkpt lat="55.674477" lon="26.586653">
<ele>148.502075</ele>
<time>2010-07-18T11:55:50Z</time>
<desc>lat.=55.674477, lon.=26.586653, Alt.=148.502075m. Speed=15.732000m/h.</desc>
<speed>4.370000</speed>
</trkpt>
<trkpt lat="55.674484" lon="26.586580">
<ele>148.107544</ele>
<time>2010-07-18T11:55:51Z</time>
<desc>lat.=55.674484, lon.=26.586580, Alt.=148.107544m. Speed=16.271999m/h.</desc>
<speed>4.520000</speed>
</trkpt>
<trkpt lat="55.674492" lon="26.586504">
<ele>147.865356</ele>
<time>2010-07-18T11:55:52Z</time>
<desc>lat.=55.674492, lon.=26.586504, Alt.=147.865356m. Speed=17.351999m/h.</desc>
<speed>4.820000</speed>
</trkpt>
<trkpt lat="55.674503" lon="26.586426">
<ele>147.541138</ele>
<time>2010-07-18T11:55:53Z</time>
<desc>lat.=55.674503, lon.=26.586426, Alt.=147.541138m. Speed=17.712000m/h.</desc>
<speed>4.920000</speed>
</trkpt>
<trkpt lat="55.674511" lon="26.586344">
<ele>147.326294</ele>
<time>2010-07-18T11:55:54Z</time>
<desc>lat.=55.674511, lon.=26.586344, Alt.=147.326294m. Speed=18.792000m/h.</desc>
<speed>5.220000</speed>
</trkpt>
<trkpt lat="55.674522" lon="26.586260">
<ele>147.220825</ele>
<time>2010-07-18T11:55:55Z</time>
<desc>lat.=55.674522, lon.=26.586260, Alt.=147.220825m. Speed=19.548000m/h.</desc>
<speed>5.430000</speed>
</trkpt>
<trkpt lat="55.674534" lon="26.586176">
<ele>147.146606</ele>
<time>2010-07-18T11:55:56Z</time>
<desc>lat.=55.674534, lon.=26.586176, Alt.=147.146606m. Speed=20.016001m/h.</desc>
<speed>5.560000</speed>
</trkpt>
<trkpt lat="55.674545" lon="26.586090">
<ele>147.005981</ele>
<time>2010-07-18T11:55:57Z</time>
<desc>lat.=55.674545, lon.=26.586090, Alt.=147.005981m. Speed=20.375999m/h.</desc>
<speed>5.660000</speed>
</trkpt>
<trkpt lat="55.674557" lon="26.586002">
<ele>146.959106</ele>
<time>2010-07-18T11:55:58Z</time>
<desc>lat.=55.674557, lon.=26.586002, Alt.=146.959106m. Speed=20.628000m/h.</desc>
<speed>5.730000</speed>
</trkpt>
<trkpt lat="55.674564" lon="26.585909">
<ele>147.080200</ele>
<time>2010-07-18T11:55:59Z</time>
<desc>lat.=55.674564, lon.=26.585909, Alt.=147.080200m. Speed=21.780001m/h.</desc>
<speed>6.050000</speed>
</trkpt>
<trkpt lat="55.674572" lon="26.585815">
<ele>146.861450</ele>
<time>2010-07-18T11:56:00Z</time>
<desc>lat.=55.674572, lon.=26.585815, Alt.=146.861450m. Speed=20.556000m/h.</desc>
<speed>5.710000</speed>
</trkpt>
<trkpt lat="55.674583" lon="26.585724">
<ele>146.634888</ele>
<time>2010-07-18T11:56:01Z</time>
<desc>lat.=55.674583, lon.=26.585724, Alt.=146.634888m. Speed=21.167999m/h.</desc>
<speed>5.880000</speed>
</trkpt>
<trkpt lat="55.674595" lon="26.585634">
<ele>146.443481</ele>
<time>2010-07-18T11:56:02Z</time>
<desc>lat.=55.674595, lon.=26.585634, Alt.=146.443481m. Speed=20.664000m/h.</desc>
<speed>5.740000</speed>
</trkpt>
<trkpt lat="55.674606" lon="26.585543">
<ele>146.380981</ele>
<time>2010-07-18T11:56:03Z</time>
<desc>lat.=55.674606, lon.=26.585543, Alt.=146.380981m. Speed=20.879999m/h.</desc>
<speed>5.800000</speed>
</trkpt>
<trkpt lat="55.674614" lon="26.585451">
<ele>146.392700</ele>
<time>2010-07-18T11:56:04Z</time>
<desc>lat.=55.674614, lon.=26.585451, Alt.=146.392700m. Speed=20.988001m/h.</desc>
<speed>5.830000</speed>
</trkpt>
<trkpt lat="55.674622" lon="26.585361">
<ele>146.380981</ele>
<time>2010-07-18T11:56:05Z</time>
<desc>lat.=55.674622, lon.=26.585361, Alt.=146.380981m. Speed=20.232000m/h.</desc>
<speed>5.620000</speed>
</trkpt>
<trkpt lat="55.674629" lon="26.585276">
<ele>146.177856</ele>
<time>2010-07-18T11:56:06Z</time>
<desc>lat.=55.674629, lon.=26.585276, Alt.=146.177856m. Speed=19.476000m/h.</desc>
<speed>5.410000</speed>
</trkpt>
<trkpt lat="55.674637" lon="26.585188">
<ele>146.396606</ele>
<time>2010-07-18T11:56:07Z</time>
<desc>lat.=55.674637, lon.=26.585188, Alt.=146.396606m. Speed=19.872000m/h.</desc>
<speed>5.520000</speed>
</trkpt>
<trkpt lat="55.674648" lon="26.585096">
<ele>146.213013</ele>
<time>2010-07-18T11:56:08Z</time>
<desc>lat.=55.674648, lon.=26.585096, Alt.=146.213013m. Speed=18.900000m/h.</desc>
<speed>5.250000</speed>
</trkpt>
<trkpt lat="55.674656" lon="26.585014">
<ele>146.213013</ele>
<time>2010-07-18T11:56:09Z</time>
<desc>lat.=55.674656, lon.=26.585014, Alt.=146.213013m. Speed=18.396000m/h.</desc>
<speed>5.110000</speed>
</trkpt>
<trkpt lat="55.674667" lon="26.584936">
<ele>146.459106</ele>
<time>2010-07-18T11:56:10Z</time>
<desc>lat.=55.674667, lon.=26.584936, Alt.=146.459106m. Speed=17.496000m/h.</desc>
<speed>4.860000</speed>
</trkpt>
<trkpt lat="55.674679" lon="26.584866">
<ele>146.310669</ele>
<time>2010-07-18T11:56:11Z</time>
<desc>lat.=55.674679, lon.=26.584866, Alt.=146.310669m. Speed=17.496000m/h.</desc>
<speed>4.860000</speed>
</trkpt>
<trkpt lat="55.674690" lon="26.584793">
<ele>146.201294</ele>
<time>2010-07-18T11:56:12Z</time>
<desc>lat.=55.674690, lon.=26.584793, Alt.=146.201294m. Speed=18.216000m/h.</desc>
<speed>5.060000</speed>
</trkpt>
<trkpt lat="55.674706" lon="26.584723">
<ele>146.275513</ele>
<time>2010-07-18T11:56:13Z</time>
<desc>lat.=55.674706, lon.=26.584723, Alt.=146.275513m. Speed=18.684000m/h.</desc>
<speed>5.190000</speed>
</trkpt>
<trkpt lat="55.674721" lon="26.584648">
<ele>146.341919</ele>
<time>2010-07-18T11:56:14Z</time>
<desc>lat.=55.674721, lon.=26.584648, Alt.=146.341919m. Speed=18.143999m/h.</desc>
<speed>5.040000</speed>
</trkpt>
<trkpt lat="55.674736" lon="26.584579">
<ele>146.482544</ele>
<time>2010-07-18T11:56:15Z</time>
<desc>lat.=55.674736, lon.=26.584579, Alt.=146.482544m. Speed=17.351999m/h.</desc>
<speed>4.820000</speed>
</trkpt>
<trkpt lat="55.674751" lon="26.584513">
<ele>146.377075</ele>
<time>2010-07-18T11:56:16Z</time>
<desc>lat.=55.674751, lon.=26.584513, Alt.=146.377075m. Speed=16.416000m/h.</desc>
<speed>4.560000</speed>
</trkpt>
<trkpt lat="55.674763" lon="26.584446">
<ele>146.459106</ele>
<time>2010-07-18T11:56:17Z</time>
<desc>lat.=55.674763, lon.=26.584446, Alt.=146.459106m. Speed=15.624000m/h.</desc>
<speed>4.340000</speed>
</trkpt>
<trkpt lat="55.674778" lon="26.584385">
<ele>146.466919</ele>
<time>2010-07-18T11:56:18Z</time>
<desc>lat.=55.674778, lon.=26.584385, Alt.=146.466919m. Speed=14.580000m/h.</desc>
<speed>4.050000</speed>
</trkpt>
<trkpt lat="55.674789" lon="26.584335">
<ele>146.607544</ele>
<time>2010-07-18T11:56:19Z</time>
<desc>lat.=55.674789, lon.=26.584335, Alt.=146.607544m. Speed=13.824000m/h.</desc>
<speed>3.840000</speed>
</trkpt>
<trkpt lat="55.674805" lon="26.584282">
<ele>146.584106</ele>
<time>2010-07-18T11:56:20Z</time>
<desc>lat.=55.674805, lon.=26.584282, Alt.=146.584106m. Speed=14.400000m/h.</desc>
<speed>4.000000</speed>
</trkpt>
<trkpt lat="55.674824" lon="26.584221">
<ele>146.623169</ele>
<time>2010-07-18T11:56:21Z</time>
<desc>lat.=55.674824, lon.=26.584221, Alt.=146.623169m. Speed=15.084000m/h.</desc>
<speed>4.190000</speed>
</trkpt>
<trkpt lat="55.674843" lon="26.584164">
<ele>146.685669</ele>
<time>2010-07-18T11:56:22Z</time>
<desc>lat.=55.674843, lon.=26.584164, Alt.=146.685669m. Speed=13.968000m/h.</desc>
<speed>3.880000</speed>
</trkpt>
<trkpt lat="55.674858" lon="26.584110">
<ele>147.037231</ele>
<time>2010-07-18T11:56:23Z</time>
<desc>lat.=55.674858, lon.=26.584110, Alt.=147.037231m. Speed=13.392000m/h.</desc>
<speed>3.720000</speed>
</trkpt>
<trkpt lat="55.674877" lon="26.584064">
<ele>146.943481</ele>
<time>2010-07-18T11:56:24Z</time>
<desc>lat.=55.674877, lon.=26.584064, Alt.=146.943481m. Speed=13.104000m/h.</desc>
<speed>3.640000</speed>
</trkpt>
<trkpt lat="55.674896" lon="26.584007">
<ele>147.173950</ele>
<time>2010-07-18T11:56:25Z</time>
<desc>lat.=55.674896, lon.=26.584007, Alt.=147.173950m. Speed=13.932000m/h.</desc>
<speed>3.870000</speed>
</trkpt>
<trkpt lat="55.674919" lon="26.583954">
<ele>147.326294</ele>
<time>2010-07-18T11:56:26Z</time>
<desc>lat.=55.674919, lon.=26.583954, Alt.=147.326294m. Speed=14.796000m/h.</desc>
<speed>4.110000</speed>
</trkpt>
<trkpt lat="55.674938" lon="26.583908">
<ele>147.560669</ele>
<time>2010-07-18T11:56:27Z</time>
<desc>lat.=55.674938, lon.=26.583908, Alt.=147.560669m. Speed=13.104000m/h.</desc>
<speed>3.640000</speed>
</trkpt>
<trkpt lat="55.674965" lon="26.583858">
<ele>147.873169</ele>
<time>2010-07-18T11:56:28Z</time>
<desc>lat.=55.674965, lon.=26.583858, Alt.=147.873169m. Speed=15.084000m/h.</desc>
<speed>4.190000</speed>
</trkpt>
<trkpt lat="55.674988" lon="26.583805">
<ele>147.646606</ele>
<time>2010-07-18T11:56:29Z</time>
<desc>lat.=55.674988, lon.=26.583805, Alt.=147.646606m. Speed=14.400000m/h.</desc>
<speed>4.000000</speed>
</trkpt>
<trkpt lat="55.675011" lon="26.583754">
<ele>147.818481</ele>
<time>2010-07-18T11:56:30Z</time>
<desc>lat.=55.675011, lon.=26.583754, Alt.=147.818481m. Speed=13.752000m/h.</desc>
<speed>3.820000</speed>
</trkpt>
<trkpt lat="55.675030" lon="26.583704">
<ele>147.927856</ele>
<time>2010-07-18T11:56:31Z</time>
<desc>lat.=55.675030, lon.=26.583704, Alt.=147.927856m. Speed=13.464000m/h.</desc>
<speed>3.740000</speed>
</trkpt>
<trkpt lat="55.675049" lon="26.583654">
<ele>147.982544</ele>
<time>2010-07-18T11:56:32Z</time>
<desc>lat.=55.675049, lon.=26.583654, Alt.=147.982544m. Speed=13.068000m/h.</desc>
<speed>3.630000</speed>
</trkpt>
<trkpt lat="55.675068" lon="26.583607">
<ele>147.713013</ele>
<time>2010-07-18T11:56:33Z</time>
<desc>lat.=55.675068, lon.=26.583607, Alt.=147.713013m. Speed=13.680000m/h.</desc>
<speed>3.800000</speed>
</trkpt>
<trkpt lat="55.675083" lon="26.583551">
<ele>147.548950</ele>
<time>2010-07-18T11:56:34Z</time>
<desc>lat.=55.675083, lon.=26.583551, Alt.=147.548950m. Speed=14.472000m/h.</desc>
<speed>4.020000</speed>
</trkpt>
<trkpt lat="55.675106" lon="26.583500">
<ele>147.435669</ele>
<time>2010-07-18T11:56:35Z</time>
<desc>lat.=55.675106, lon.=26.583500, Alt.=147.435669m. Speed=14.364000m/h.</desc>
<speed>3.990000</speed>
</trkpt>
<trkpt lat="55.675125" lon="26.583447">
<ele>147.420044</ele>
<time>2010-07-18T11:56:36Z</time>
<desc>lat.=55.675125, lon.=26.583447, Alt.=147.420044m. Speed=13.716000m/h.</desc>
<speed>3.810000</speed>
</trkpt>
<trkpt lat="55.675140" lon="26.583397">
<ele>147.521606</ele>
<time>2010-07-18T11:56:37Z</time>
<desc>lat.=55.675140, lon.=26.583397, Alt.=147.521606m. Speed=13.392000m/h.</desc>
<speed>3.720000</speed>
</trkpt>
<trkpt lat="55.675159" lon="26.583347">
<ele>147.392700</ele>
<time>2010-07-18T11:56:38Z</time>
<desc>lat.=55.675159, lon.=26.583347, Alt.=147.392700m. Speed=13.752000m/h.</desc>
<speed>3.820000</speed>
</trkpt>
<trkpt lat="55.675179" lon="26.583292">
<ele>147.459106</ele>
<time>2010-07-18T11:56:39Z</time>
<desc>lat.=55.675179, lon.=26.583292, Alt.=147.459106m. Speed=13.428000m/h.</desc>
<speed>3.730000</speed>
</trkpt>
<trkpt lat="55.675194" lon="26.583244">
<ele>147.470825</ele>
<time>2010-07-18T11:56:40Z</time>
<desc>lat.=55.675194, lon.=26.583244, Alt.=147.470825m. Speed=13.464000m/h.</desc>
<speed>3.740000</speed>
</trkpt>
<trkpt lat="55.675209" lon="26.583191">
<ele>147.404419</ele>
<time>2010-07-18T11:56:41Z</time>
<desc>lat.=55.675209, lon.=26.583191, Alt.=147.404419m. Speed=13.212000m/h.</desc>
<speed>3.670000</speed>
</trkpt>
<trkpt lat="55.675220" lon="26.583139">
<ele>147.611450</ele>
<time>2010-07-18T11:56:42Z</time>
<desc>lat.=55.675220, lon.=26.583139, Alt.=147.611450m. Speed=12.816000m/h.</desc>
<speed>3.560000</speed>
</trkpt>
<trkpt lat="55.675240" lon="26.583097">
<ele>148.111450</ele>
<time>2010-07-18T11:56:43Z</time>
<desc>lat.=55.675240, lon.=26.583097, Alt.=148.111450m. Speed=11.016000m/h.</desc>
<speed>3.060000</speed>
</trkpt>
<trkpt lat="55.675255" lon="26.583052">
<ele>148.275513</ele>
<time>2010-07-18T11:56:44Z</time>
<desc>lat.=55.675255, lon.=26.583052, Alt.=148.275513m. Speed=12.384000m/h.</desc>
<speed>3.440000</speed>
</trkpt>
<trkpt lat="55.675270" lon="26.583006">
<ele>148.314575</ele>
<time>2010-07-18T11:56:45Z</time>
<desc>lat.=55.675270, lon.=26.583006, Alt.=148.314575m. Speed=11.376000m/h.</desc>
<speed>3.160000</speed>
</trkpt>
<trkpt lat="55.675285" lon="26.582966">
<ele>148.423950</ele>
<time>2010-07-18T11:56:46Z</time>
<desc>lat.=55.675285, lon.=26.582966, Alt.=148.423950m. Speed=10.692000m/h.</desc>
<speed>2.970000</speed>
</trkpt>
<trkpt lat="55.675301" lon="26.582926">
<ele>148.439575</ele>
<time>2010-07-18T11:56:47Z</time>
<desc>lat.=55.675301, lon.=26.582926, Alt.=148.439575m. Speed=11.124000m/h.</desc>
<speed>3.090000</speed>
</trkpt>
<trkpt lat="55.675312" lon="26.582880">
<ele>148.568481</ele>
<time>2010-07-18T11:56:48Z</time>
<desc>lat.=55.675312, lon.=26.582880, Alt.=148.568481m. Speed=11.952000m/h.</desc>
<speed>3.320000</speed>
</trkpt>
<trkpt lat="55.675327" lon="26.582829">
<ele>148.599731</ele>
<time>2010-07-18T11:56:49Z</time>
<desc>lat.=55.675327, lon.=26.582829, Alt.=148.599731m. Speed=12.420000m/h.</desc>
<speed>3.450000</speed>
</trkpt>
<trkpt lat="55.675339" lon="26.582781">
<ele>148.666138</ele>
<time>2010-07-18T11:56:50Z</time>
<desc>lat.=55.675339, lon.=26.582781, Alt.=148.666138m. Speed=13.068000m/h.</desc>
<speed>3.630000</speed>
</trkpt>
<trkpt lat="55.675354" lon="26.582729">
<ele>148.673950</ele>
<time>2010-07-18T11:56:51Z</time>
<desc>lat.=55.675354, lon.=26.582729, Alt.=148.673950m. Speed=13.176000m/h.</desc>
<speed>3.660000</speed>
</trkpt>
<trkpt lat="55.675362" lon="26.582670">
<ele>148.466919</ele>
<time>2010-07-18T11:56:52Z</time>
<desc>lat.=55.675362, lon.=26.582670, Alt.=148.466919m. Speed=13.320000m/h.</desc>
<speed>3.700000</speed>
</trkpt>
<trkpt lat="55.675373" lon="26.582615">
<ele>148.439575</ele>
<time>2010-07-18T11:56:53Z</time>
<desc>lat.=55.675373, lon.=26.582615, Alt.=148.439575m. Speed=13.140000m/h.</desc>
<speed>3.650000</speed>
</trkpt>
<trkpt lat="55.675385" lon="26.582561">
<ele>148.384888</ele>
<time>2010-07-18T11:56:54Z</time>
<desc>lat.=55.675385, lon.=26.582561, Alt.=148.384888m. Speed=12.096000m/h.</desc>
<speed>3.360000</speed>
</trkpt>
<trkpt lat="55.675392" lon="26.582516">
<ele>148.478638</ele>
<time>2010-07-18T11:56:55Z</time>
<desc>lat.=55.675392, lon.=26.582516, Alt.=148.478638m. Speed=11.304000m/h.</desc>
<speed>3.140000</speed>
</trkpt>
<trkpt lat="55.675404" lon="26.582472">
<ele>148.634888</ele>
<time>2010-07-18T11:56:56Z</time>
<desc>lat.=55.675404, lon.=26.582472, Alt.=148.634888m. Speed=10.116000m/h.</desc>
<speed>2.810000</speed>
</trkpt>
<trkpt lat="55.675411" lon="26.582430">
<ele>148.537231</ele>
<time>2010-07-18T11:56:57Z</time>
<desc>lat.=55.675411, lon.=26.582430, Alt.=148.537231m. Speed=10.080000m/h.</desc>
<speed>2.800000</speed>
</trkpt>
<trkpt lat="55.675423" lon="26.582390">
<ele>148.455200</ele>
<time>2010-07-18T11:56:58Z</time>
<desc>lat.=55.675423, lon.=26.582390, Alt.=148.455200m. Speed=9.828000m/h.</desc>
<speed>2.730000</speed>
</trkpt>
<trkpt lat="55.675430" lon="26.582352">
<ele>148.377075</ele>
<time>2010-07-18T11:56:59Z</time>
<desc>lat.=55.675430, lon.=26.582352, Alt.=148.377075m. Speed=10.728000m/h.</desc>
<speed>2.980000</speed>
</trkpt>
<trkpt lat="55.675442" lon="26.582308">
<ele>148.252075</ele>
<time>2010-07-18T11:57:00Z</time>
<desc>lat.=55.675442, lon.=26.582308, Alt.=148.252075m. Speed=10.908000m/h.</desc>
<speed>3.030000</speed>
</trkpt>
<trkpt lat="55.675453" lon="26.582262">
<ele>148.279419</ele>
<time>2010-07-18T11:57:01Z</time>
<desc>lat.=55.675453, lon.=26.582262, Alt.=148.279419m. Speed=10.728000m/h.</desc>
<speed>2.980000</speed>
</trkpt>
<trkpt lat="55.675465" lon="26.582222">
<ele>148.338013</ele>
<time>2010-07-18T11:57:02Z</time>
<desc>lat.=55.675465, lon.=26.582222, Alt.=148.338013m. Speed=10.080000m/h.</desc>
<speed>2.800000</speed>
</trkpt>
<trkpt lat="55.675476" lon="26.582182">
<ele>148.459106</ele>
<time>2010-07-18T11:57:03Z</time>
<desc>lat.=55.675476, lon.=26.582182, Alt.=148.459106m. Speed=8.712000m/h.</desc>
<speed>2.420000</speed>
</trkpt>
<trkpt lat="55.675484" lon="26.582148">
<ele>148.431763</ele>
<time>2010-07-18T11:57:04Z</time>
<desc>lat.=55.675484, lon.=26.582148, Alt.=148.431763m. Speed=7.236000m/h.</desc>
<speed>2.010000</speed>
</trkpt>
<trkpt lat="55.675488" lon="26.582121">
<ele>148.447388</ele>
<time>2010-07-18T11:57:05Z</time>
<desc>lat.=55.675488, lon.=26.582121, Alt.=148.447388m. Speed=5.724000m/h.</desc>
<speed>1.590000</speed>
</trkpt>
<trkpt lat="55.675491" lon="26.582100">
<ele>148.478638</ele>
<time>2010-07-18T11:57:06Z</time>
<desc>lat.=55.675491, lon.=26.582100, Alt.=148.478638m. Speed=4.284000m/h.</desc>
<speed>1.190000</speed>
</trkpt>
<trkpt lat="55.675491" lon="26.582088">
<ele>148.412231</ele>
<time>2010-07-18T11:57:07Z</time>
<desc>lat.=55.675491, lon.=26.582088, Alt.=148.412231m. Speed=2.772000m/h.</desc>
<speed>0.770000</speed>
</trkpt>
<trkpt lat="55.675495" lon="26.582079">
<ele>148.322388</ele>
<time>2010-07-18T11:57:08Z</time>
<desc>lat.=55.675495, lon.=26.582079, Alt.=148.322388m. Speed=1.260000m/h.</desc>
<speed>0.350000</speed>
</trkpt>
<trkpt lat="55.675499" lon="26.582071">
<ele>148.236450</ele>
<time>2010-07-18T11:57:09Z</time>
<desc>lat.=55.675499, lon.=26.582071, Alt.=148.236450m. Speed=2.124000m/h.</desc>
<speed>0.590000</speed>
</trkpt>
<trkpt lat="55.675495" lon="26.582073">
<ele>148.295044</ele>
<time>2010-07-18T11:57:10Z</time>
<desc>lat.=55.675495, lon.=26.582073, Alt.=148.295044m. Speed=0.648000m/h.</desc>
<speed>0.180000</speed>
</trkpt>
<trkpt lat="55.675495" lon="26.582073">
<ele>148.365356</ele>
<time>2010-07-18T11:57:11Z</time>
<desc>lat.=55.675495, lon.=26.582073, Alt.=148.365356m. Speed=0.324000m/h.</desc>
<speed>0.090000</speed>
</trkpt>
<trkpt lat="55.675495" lon="26.582075">
<ele>148.423950</ele>
<time>2010-07-18T11:57:12Z</time>
<desc>lat.=55.675495, lon.=26.582075, Alt.=148.423950m. Speed=0.180000m/h.</desc>
<speed>0.050000</speed>
</trkpt>
<trkpt lat="55.675495" lon="26.582075">
<ele>148.466919</ele>
<time>2010-07-18T11:57:13Z</time>
<desc>lat.=55.675495, lon.=26.582075, Alt.=148.466919m. Speed=0.108000m/h.</desc>
<speed>0.030000</speed>
</trkpt>
<trkpt lat="55.675495" lon="26.582075">
<ele>148.502075</ele>
<time>2010-07-18T11:57:14Z</time>
<desc>lat.=55.675495, lon.=26.582075, Alt.=148.502075m. Speed=0.432000m/h.</desc>
<speed>0.120000</speed>
</trkpt>
<trkpt lat="55.675495" lon="26.582075">
<ele>148.529419</ele>
<time>2010-07-18T11:57:15Z</time>
<desc>lat.=55.675495, lon.=26.582075, Alt.=148.529419m. Speed=0.432000m/h.</desc>
<speed>0.120000</speed>
</trkpt>
<trkpt lat="55.675495" lon="26.582077">
<ele>148.552856</ele>
<time>2010-07-18T11:57:16Z</time>
<desc>lat.=55.675495, lon.=26.582077, Alt.=148.552856m. Speed=0.360000m/h.</desc>
<speed>0.100000</speed>
</trkpt>
<trkpt lat="55.675499" lon="26.582077">
<ele>148.568481</ele>
<time>2010-07-18T11:57:17Z</time>
<desc>lat.=55.675499, lon.=26.582077, Alt.=148.568481m. Speed=0.180000m/h.</desc>
<speed>0.050000</speed>
</trkpt>
<trkpt lat="55.675499" lon="26.582075">
<ele>148.584106</ele>
<time>2010-07-18T11:57:18Z</time>
<desc>lat.=55.675499, lon.=26.582075, Alt.=148.584106m. Speed=0.180000m/h.</desc>
<speed>0.050000</speed>
</trkpt>
<trkpt lat="55.675499" lon="26.582077">
<ele>148.588013</ele>
<time>2010-07-18T11:57:19Z</time>
<desc>lat.=55.675499, lon.=26.582077, Alt.=148.588013m. Speed=0.036000m/h.</desc>
<speed>0.010000</speed>
</trkpt>
<trkpt lat="55.675499" lon="26.582077">
<ele>148.588013</ele>
<time>2010-07-18T11:57:20Z</time>
<desc>lat.=55.675499, lon.=26.582077, Alt.=148.588013m. Speed=0.072000m/h.</desc>
<speed>0.020000</speed>
</trkpt>
<trkpt lat="55.675499" lon="26.582077">
<ele>148.595825</ele>
<time>2010-07-18T11:57:21Z</time>
<desc>lat.=55.675499, lon.=26.582077, Alt.=148.595825m. Speed=0.108000m/h.</desc>
<speed>0.030000</speed>
</trkpt>
<trkpt lat="55.675499" lon="26.582075">
<ele>148.588013</ele>
<time>2010-07-18T11:57:22Z</time>
<desc>lat.=55.675499, lon.=26.582075, Alt.=148.588013m. Speed=0.072000m/h.</desc>
<speed>0.020000</speed>
</trkpt>
<trkpt lat="55.675499" lon="26.582077">
<ele>148.584106</ele>
<time>2010-07-18T11:57:23Z</time>
<desc>lat.=55.675499, lon.=26.582077, Alt.=148.584106m. Speed=0.000000m/h.</desc>
<speed>0.000000</speed>
</trkpt>
<trkpt lat="55.675499" lon="26.582077">
<ele>148.580200</ele>
<time>2010-07-18T11:57:24Z</time>
<desc>lat.=55.675499, lon.=26.582077, Alt.=148.580200m. Speed=0.036000m/h.</desc>
<speed>0.010000</speed>
</trkpt>
<trkpt lat="55.675499" lon="26.582077">
<ele>148.580200</ele>
<time>2010-07-18T11:57:25Z</time>
<desc>lat.=55.675499, lon.=26.582077, Alt.=148.580200m. Speed=0.108000m/h.</desc>
<speed>0.030000</speed>
</trkpt>
<trkpt lat="55.675499" lon="26.582077">
<ele>148.576294</ele>
<time>2010-07-18T11:57:26Z</time>
<desc>lat.=55.675499, lon.=26.582077, Alt.=148.576294m. Speed=0.036000m/h.</desc>
<speed>0.010000</speed>
</trkpt>
<trkpt lat="55.675499" lon="26.582077">
<ele>148.580200</ele>
<time>2010-07-18T11:57:27Z</time>
<desc>lat.=55.675499, lon.=26.582077, Alt.=148.580200m. Speed=0.072000m/h.</desc>
<speed>0.020000</speed>
</trkpt>
<trkpt lat="55.675499" lon="26.582077">
<ele>148.564575</ele>
<time>2010-07-18T11:57:28Z</time>
<desc>lat.=55.675499, lon.=26.582077, Alt.=148.564575m. Speed=0.036000m/h.</desc>
<speed>0.010000</speed>
</trkpt>
<trkpt lat="55.675499" lon="26.582077">
<ele>148.545044</ele>
<time>2010-07-18T11:57:29Z</time>
<desc>lat.=55.675499, lon.=26.582077, Alt.=148.545044m. Speed=0.072000m/h.</desc>
<speed>0.020000</speed>
</trkpt>
<trkpt lat="55.675499" lon="26.582077">
<ele>148.533325</ele>
<time>2010-07-18T11:57:30Z</time>
<desc>lat.=55.675499, lon.=26.582077, Alt.=148.533325m. Speed=0.180000m/h.</desc>
<speed>0.050000</speed>
</trkpt>
<trkpt lat="55.675499" lon="26.582075">
<ele>148.517700</ele>
<time>2010-07-18T11:57:31Z</time>
<desc>lat.=55.675499, lon.=26.582075, Alt.=148.517700m. Speed=0.000000m/h.</desc>
<speed>0.000000</speed>
</trkpt>
<trkpt lat="55.675499" lon="26.582075">
<ele>148.505981</ele>
<time>2010-07-18T11:57:32Z</time>
<desc>lat.=55.675499, lon.=26.582075, Alt.=148.505981m. Speed=0.252000m/h.</desc>
<speed>0.070000</speed>
</trkpt>
<trkpt lat="55.675499" lon="26.582077">
<ele>148.494263</ele>
<time>2010-07-18T11:57:33Z</time>
<desc>lat.=55.675499, lon.=26.582077, Alt.=148.494263m. Speed=0.324000m/h.</desc>
<speed>0.090000</speed>
</trkpt>
<trkpt lat="55.675499" lon="26.582077">
<ele>148.482544</ele>
<time>2010-07-18T11:57:34Z</time>
<desc>lat.=55.675499, lon.=26.582077, Alt.=148.482544m. Speed=0.252000m/h.</desc>
<speed>0.070000</speed>
</trkpt>
<trkpt lat="55.675499" lon="26.582077">
<ele>148.478638</ele>
<time>2010-07-18T11:57:35Z</time>
<desc>lat.=55.675499, lon.=26.582077, Alt.=148.478638m. Speed=0.180000m/h.</desc>
<speed>0.050000</speed>
</trkpt>
<trkpt lat="55.675499" lon="26.582075">
<ele>148.466919</ele>
<time>2010-07-18T11:57:36Z</time>
<desc>lat.=55.675499, lon.=26.582075, Alt.=148.466919m. Speed=0.072000m/h.</desc>
<speed>0.020000</speed>
</trkpt>
<trkpt lat="55.675499" lon="26.582077">
<ele>148.466919</ele>
<time>2010-07-18T11:57:37Z</time>
<desc>lat.=55.675499, lon.=26.582077, Alt.=148.466919m. Speed=0.288000m/h.</desc>
<speed>0.080000</speed>
</trkpt>
<trkpt lat="55.675499" lon="26.582075">
<ele>148.490356</ele>
<time>2010-07-18T11:57:38Z</time>
<desc>lat.=55.675499, lon.=26.582075, Alt.=148.490356m. Speed=0.252000m/h.</desc>
<speed>0.070000</speed>
</trkpt>
<trkpt lat="55.675499" lon="26.582075">
<ele>148.505981</ele>
<time>2010-07-18T11:57:39Z</time>
<desc>lat.=55.675499, lon.=26.582075, Alt.=148.505981m. Speed=0.036000m/h.</desc>
<speed>0.010000</speed>
</trkpt>
<trkpt lat="55.675499" lon="26.582075">
<ele>148.505981</ele>
<time>2010-07-18T11:57:40Z</time>
<desc>lat.=55.675499, lon.=26.582075, Alt.=148.505981m. Speed=0.036000m/h.</desc>
<speed>0.010000</speed>
</trkpt>
<trkpt lat="55.675499" lon="26.582075">
<ele>148.513794</ele>
<time>2010-07-18T11:57:41Z</time>
<desc>lat.=55.675499, lon.=26.582075, Alt.=148.513794m. Speed=0.036000m/h.</desc>
<speed>0.010000</speed>
</trkpt>
<trkpt lat="55.675499" lon="26.582075">
<ele>148.517700</ele>
<time>2010-07-18T11:57:42Z</time>
<desc>lat.=55.675499, lon.=26.582075, Alt.=148.517700m. Speed=0.108000m/h.</desc>
<speed>0.030000</speed>
</trkpt>
<trkpt lat="55.675499" lon="26.582075">
<ele>148.533325</ele>
<time>2010-07-18T11:57:43Z</time>
<desc>lat.=55.675499, lon.=26.582075, Alt.=148.533325m. Speed=0.072000m/h.</desc>
<speed>0.020000</speed>
</trkpt>
<trkpt lat="55.675499" lon="26.582077">
<ele>148.537231</ele>
<time>2010-07-18T11:57:44Z</time>
<desc>lat.=55.675499, lon.=26.582077, Alt.=148.537231m. Speed=0.180000m/h.</desc>
<speed>0.050000</speed>
</trkpt>
<trkpt lat="55.675499" lon="26.582075">
<ele>148.537231</ele>
<time>2010-07-18T11:57:45Z</time>
<desc>lat.=55.675499, lon.=26.582075, Alt.=148.537231m. Speed=0.108000m/h.</desc>
<speed>0.030000</speed>
</trkpt>
<trkpt lat="55.675499" lon="26.582075">
<ele>148.545044</ele>
<time>2010-07-18T11:57:46Z</time>
<desc>lat.=55.675499, lon.=26.582075, Alt.=148.545044m. Speed=0.036000m/h.</desc>
<speed>0.010000</speed>
</trkpt>
<trkpt lat="55.675499" lon="26.582075">
<ele>148.541138</ele>
<time>2010-07-18T11:57:47Z</time>
<desc>lat.=55.675499, lon.=26.582075, Alt.=148.541138m. Speed=0.000000m/h.</desc>
<speed>0.000000</speed>
</trkpt>
<trkpt lat="55.675499" lon="26.582075">
<ele>148.541138</ele>
<time>2010-07-18T11:57:48Z</time>
<desc>lat.=55.675499, lon.=26.582075, Alt.=148.541138m. Speed=0.036000m/h.</desc>
<speed>0.010000</speed>
</trkpt>
<trkpt lat="55.675499" lon="26.582075">
<ele>148.537231</ele>
<time>2010-07-18T11:57:49Z</time>
<desc>lat.=55.675499, lon.=26.582075, Alt.=148.537231m. Speed=0.036000m/h.</desc>
<speed>0.010000</speed>
</trkpt>
<trkpt lat="55.675499" lon="26.582075">
<ele>148.533325</ele>
<time>2010-07-18T11:57:50Z</time>
<desc>lat.=55.675499, lon.=26.582075, Alt.=148.533325m. Speed=0.180000m/h.</desc>
<speed>0.050000</speed>
</trkpt>
<trkpt lat="55.675499" lon="26.582075">
<ele>148.533325</ele>
<time>2010-07-18T11:57:51Z</time>
<desc>lat.=55.675499, lon.=26.582075, Alt.=148.533325m. Speed=0.252000m/h.</desc>
<speed>0.070000</speed>
</trkpt>
<trkpt lat="55.675499" lon="26.582075">
<ele>148.533325</ele>
<time>2010-07-18T11:57:52Z</time>
<desc>lat.=55.675499, lon.=26.582075, Alt.=148.533325m. Speed=0.144000m/h.</desc>
<speed>0.040000</speed>
</trkpt>
<trkpt lat="55.675499" lon="26.582075">
<ele>148.541138</ele>
<time>2010-07-18T11:57:53Z</time>
<desc>lat.=55.675499, lon.=26.582075, Alt.=148.541138m. Speed=0.072000m/h.</desc>
<speed>0.020000</speed>
</trkpt>
<trkpt lat="55.675499" lon="26.582075">
<ele>148.537231</ele>
<time>2010-07-18T11:57:54Z</time>
<desc>lat.=55.675499, lon.=26.582075, Alt.=148.537231m. Speed=0.000000m/h.</desc>
<speed>0.000000</speed>
</trkpt>
<trkpt lat="55.675499" lon="26.582075">
<ele>148.537231</ele>
<time>2010-07-18T11:57:55Z</time>
<desc>lat.=55.675499, lon.=26.582075, Alt.=148.537231m. Speed=0.072000m/h.</desc>
<speed>0.020000</speed>
</trkpt>
<trkpt lat="55.675499" lon="26.582075">
<ele>148.537231</ele>
<time>2010-07-18T11:57:56Z</time>
<desc>lat.=55.675499, lon.=26.582075, Alt.=148.537231m. Speed=0.072000m/h.</desc>
<speed>0.020000</speed>
</trkpt>
<trkpt lat="55.675499" lon="26.582075">
<ele>148.537231</ele>
<time>2010-07-18T11:57:57Z</time>
<desc>lat.=55.675499, lon.=26.582075, Alt.=148.537231m. Speed=0.108000m/h.</desc>
<speed>0.030000</speed>
</trkpt>
<trkpt lat="55.675499" lon="26.582075">
<ele>148.537231</ele>
<time>2010-07-18T11:57:58Z</time>
<desc>lat.=55.675499, lon.=26.582075, Alt.=148.537231m. Speed=0.000000m/h.</desc>
<speed>0.000000</speed>
</trkpt>
<trkpt lat="55.675499" lon="26.582075">
<ele>148.533325</ele>
<time>2010-07-18T11:57:59Z</time>
<desc>lat.=55.675499, lon.=26.582075, Alt.=148.533325m. Speed=0.036000m/h.</desc>
<speed>0.010000</speed>
</trkpt>
<trkpt lat="55.675499" lon="26.582075">
<ele>148.533325</ele>
<time>2010-07-18T11:58:00Z</time>
<desc>lat.=55.675499, lon.=26.582075, Alt.=148.533325m. Speed=0.000000m/h.</desc>
<speed>0.000000</speed>
</trkpt>
<trkpt lat="55.675499" lon="26.582075">
<ele>148.533325</ele>
<time>2010-07-18T11:58:01Z</time>
<desc>lat.=55.675499, lon.=26.582075, Alt.=148.533325m. Speed=0.108000m/h.</desc>
<speed>0.030000</speed>
</trkpt>
<trkpt lat="55.675499" lon="26.582075">
<ele>148.533325</ele>
<time>2010-07-18T11:58:02Z</time>
<desc>lat.=55.675499, lon.=26.582075, Alt.=148.533325m. Speed=0.000000m/h.</desc>
<speed>0.000000</speed>
</trkpt>
<trkpt lat="55.675499" lon="26.582075">
<ele>148.529419</ele>
<time>2010-07-18T11:58:03Z</time>
<desc>lat.=55.675499, lon.=26.582075, Alt.=148.529419m. Speed=0.036000m/h.</desc>
<speed>0.010000</speed>
</trkpt>
<trkpt lat="55.675499" lon="26.582075">
<ele>148.525513</ele>
<time>2010-07-18T11:58:04Z</time>
<desc>lat.=55.675499, lon.=26.582075, Alt.=148.525513m. Speed=0.000000m/h.</desc>
<speed>0.000000</speed>
</trkpt>
<trkpt lat="55.675499" lon="26.582075">
<ele>148.525513</ele>
<time>2010-07-18T11:58:05Z</time>
<desc>lat.=55.675499, lon.=26.582075, Alt.=148.525513m. Speed=0.000000m/h.</desc>
<speed>0.000000</speed>
</trkpt>
<trkpt lat="55.675499" lon="26.582075">
<ele>148.525513</ele>
<time>2010-07-18T11:58:06Z</time>
<desc>lat.=55.675499, lon.=26.582075, Alt.=148.525513m. Speed=0.000000m/h.</desc>
<speed>0.000000</speed>
</trkpt>
<trkpt lat="55.675499" lon="26.582075">
<ele>148.521606</ele>
<time>2010-07-18T11:58:07Z</time>
<desc>lat.=55.675499, lon.=26.582075, Alt.=148.521606m. Speed=0.000000m/h.</desc>
<speed>0.000000</speed>
</trkpt>
<trkpt lat="55.675499" lon="26.582075">
<ele>148.521606</ele>
<time>2010-07-18T11:58:08Z</time>
<desc>lat.=55.675499, lon.=26.582075, Alt.=148.521606m. Speed=0.000000m/h.</desc>
<speed>0.000000</speed>
</trkpt>
<trkpt lat="55.675499" lon="26.582075">
<ele>148.513794</ele>
<time>2010-07-18T11:58:09Z</time>
<desc>lat.=55.675499, lon.=26.582075, Alt.=148.513794m. Speed=0.000000m/h.</desc>
<speed>0.000000</speed>
</trkpt>
<trkpt lat="55.675499" lon="26.582075">
<ele>148.509888</ele>
<time>2010-07-18T11:58:10Z</time>
<desc>lat.=55.675499, lon.=26.582075, Alt.=148.509888m. Speed=0.000000m/h.</desc>
<speed>0.000000</speed>
</trkpt>
<trkpt lat="55.675499" lon="26.582075">
<ele>148.509888</ele>
<time>2010-07-18T11:58:11Z</time>
<desc>lat.=55.675499, lon.=26.582075, Alt.=148.509888m. Speed=0.252000m/h.</desc>
<speed>0.070000</speed>
</trkpt>
<trkpt lat="55.675499" lon="26.582073">
<ele>148.509888</ele>
<time>2010-07-18T11:58:12Z</time>
<desc>lat.=55.675499, lon.=26.582073, Alt.=148.509888m. Speed=0.396000m/h.</desc>
<speed>0.110000</speed>
</trkpt>
<trkpt lat="55.675499" lon="26.582073">
<ele>148.525513</ele>
<time>2010-07-18T11:58:13Z</time>
<desc>lat.=55.675499, lon.=26.582073, Alt.=148.525513m. Speed=0.144000m/h.</desc>
<speed>0.040000</speed>
</trkpt>
<trkpt lat="55.675499" lon="26.582073">
<ele>148.486450</ele>
<time>2010-07-18T11:58:14Z</time>
<desc>lat.=55.675499, lon.=26.582073, Alt.=148.486450m. Speed=0.108000m/h.</desc>
<speed>0.030000</speed>
</trkpt>
<trkpt lat="55.675499" lon="26.582073">
<ele>148.486450</ele>
<time>2010-07-18T11:58:15Z</time>
<desc>lat.=55.675499, lon.=26.582073, Alt.=148.486450m. Speed=0.036000m/h.</desc>
<speed>0.010000</speed>
</trkpt>
<trkpt lat="55.675499" lon="26.582073">
<ele>148.482544</ele>
<time>2010-07-18T11:58:16Z</time>
<desc>lat.=55.675499, lon.=26.582073, Alt.=148.482544m. Speed=0.036000m/h.</desc>
<speed>0.010000</speed>
</trkpt>
<trkpt lat="55.675499" lon="26.582073">
<ele>148.486450</ele>
<time>2010-07-18T11:58:17Z</time>
<desc>lat.=55.675499, lon.=26.582073, Alt.=148.486450m. Speed=0.000000m/h.</desc>
<speed>0.000000</speed>
</trkpt>
<trkpt lat="55.675499" lon="26.582073">
<ele>148.482544</ele>
<time>2010-07-18T11:58:18Z</time>
<desc>lat.=55.675499, lon.=26.582073, Alt.=148.482544m. Speed=0.036000m/h.</desc>
<speed>0.010000</speed>
</trkpt>
<trkpt lat="55.675499" lon="26.582073">
<ele>148.482544</ele>
<time>2010-07-18T11:58:19Z</time>
<desc>lat.=55.675499, lon.=26.582073, Alt.=148.482544m. Speed=0.000000m/h.</desc>
<speed>0.000000</speed>
</trkpt>
<trkpt lat="55.675499" lon="26.582071">
<ele>148.482544</ele>
<time>2010-07-18T11:58:20Z</time>
<desc>lat.=55.675499, lon.=26.582071, Alt.=148.482544m. Speed=0.000000m/h.</desc>
<speed>0.000000</speed>
</trkpt>
<trkpt lat="55.675499" lon="26.582071">
<ele>148.482544</ele>
<time>2010-07-18T11:58:21Z</time>
<desc>lat.=55.675499, lon.=26.582071, Alt.=148.482544m. Speed=0.000000m/h.</desc>
<speed>0.000000</speed>
</trkpt>
<trkpt lat="55.675499" lon="26.582071">
<ele>148.482544</ele>
<time>2010-07-18T11:58:22Z</time>
<desc>lat.=55.675499, lon.=26.582071, Alt.=148.482544m. Speed=0.036000m/h.</desc>
<speed>0.010000</speed>
</trkpt>
<trkpt lat="55.675499" lon="26.582071">
<ele>148.482544</ele>
<time>2010-07-18T11:58:23Z</time>
<desc>lat.=55.675499, lon.=26.582071, Alt.=148.482544m. Speed=0.036000m/h.</desc>
<speed>0.010000</speed>
</trkpt>
<trkpt lat="55.675499" lon="26.582071">
<ele>148.486450</ele>
<time>2010-07-18T11:58:24Z</time>
<desc>lat.=55.675499, lon.=26.582071, Alt.=148.486450m. Speed=0.036000m/h.</desc>
<speed>0.010000</speed>
</trkpt>
<trkpt lat="55.675499" lon="26.582071">
<ele>148.486450</ele>
<time>2010-07-18T11:58:25Z</time>
<desc>lat.=55.675499, lon.=26.582071, Alt.=148.486450m. Speed=0.036000m/h.</desc>
<speed>0.010000</speed>
</trkpt>
<trkpt lat="55.675499" lon="26.582071">
<ele>148.486450</ele>
<time>2010-07-18T11:58:26Z</time>
<desc>lat.=55.675499, lon.=26.582071, Alt.=148.486450m. Speed=0.072000m/h.</desc>
<speed>0.020000</speed>
</trkpt>
<trkpt lat="55.675499" lon="26.582071">
<ele>148.486450</ele>
<time>2010-07-18T11:58:27Z</time>
<desc>lat.=55.675499, lon.=26.582071, Alt.=148.486450m. Speed=0.072000m/h.</desc>
<speed>0.020000</speed>
</trkpt>
<trkpt lat="55.675499" lon="26.582071">
<ele>148.486450</ele>
<time>2010-07-18T11:58:28Z</time>
<desc>lat.=55.675499, lon.=26.582071, Alt.=148.486450m. Speed=0.144000m/h.</desc>
<speed>0.040000</speed>
</trkpt>
<trkpt lat="55.675499" lon="26.582071">
<ele>148.486450</ele>
<time>2010-07-18T11:58:29Z</time>
<desc>lat.=55.675499, lon.=26.582071, Alt.=148.486450m. Speed=0.036000m/h.</desc>
<speed>0.010000</speed>
</trkpt>
<trkpt lat="55.675499" lon="26.582071">
<ele>148.486450</ele>
<time>2010-07-18T11:58:30Z</time>
<desc>lat.=55.675499, lon.=26.582071, Alt.=148.486450m. Speed=0.000000m/h.</desc>
<speed>0.000000</speed>
</trkpt>
<trkpt lat="55.675499" lon="26.582071">
<ele>148.482544</ele>
<time>2010-07-18T11:58:31Z</time>
<desc>lat.=55.675499, lon.=26.582071, Alt.=148.482544m. Speed=0.000000m/h.</desc>
<speed>0.000000</speed>
</trkpt>
<trkpt lat="55.675499" lon="26.582071">
<ele>148.478638</ele>
<time>2010-07-18T11:58:32Z</time>
<desc>lat.=55.675499, lon.=26.582071, Alt.=148.478638m. Speed=0.036000m/h.</desc>
<speed>0.010000</speed>
</trkpt>
<trkpt lat="55.675499" lon="26.582071">
<ele>148.478638</ele>
<time>2010-07-18T11:58:33Z</time>
<desc>lat.=55.675499, lon.=26.582071, Alt.=148.478638m. Speed=0.000000m/h.</desc>
<speed>0.000000</speed>
</trkpt>
<trkpt lat="55.675499" lon="26.582071">
<ele>148.474731</ele>
<time>2010-07-18T11:58:34Z</time>
<desc>lat.=55.675499, lon.=26.582071, Alt.=148.474731m. Speed=0.000000m/h.</desc>
<speed>0.000000</speed>
</trkpt>
<trkpt lat="55.675499" lon="26.582071">
<ele>148.470825</ele>
<time>2010-07-18T11:58:35Z</time>
<desc>lat.=55.675499, lon.=26.582071, Alt.=148.470825m. Speed=0.000000m/h.</desc>
<speed>0.000000</speed>
</trkpt>
<trkpt lat="55.675499" lon="26.582071">
<ele>148.470825</ele>
<time>2010-07-18T11:58:36Z</time>
<desc>lat.=55.675499, lon.=26.582071, Alt.=148.470825m. Speed=0.000000m/h.</desc>
<speed>0.000000</speed>
</trkpt>
<trkpt lat="55.675499" lon="26.582071">
<ele>148.466919</ele>
<time>2010-07-18T11:58:37Z</time>
<desc>lat.=55.675499, lon.=26.582071, Alt.=148.466919m. Speed=0.000000m/h.</desc>
<speed>0.000000</speed>
</trkpt>
<trkpt lat="55.675499" lon="26.582071">
<ele>148.459106</ele>
<time>2010-07-18T11:58:38Z</time>
<desc>lat.=55.675499, lon.=26.582071, Alt.=148.459106m. Speed=0.000000m/h.</desc>
<speed>0.000000</speed>
</trkpt>
<trkpt lat="55.675499" lon="26.582071">
<ele>148.455200</ele>
<time>2010-07-18T11:58:39Z</time>
<desc>lat.=55.675499, lon.=26.582071, Alt.=148.455200m. Speed=0.000000m/h.</desc>
<speed>0.000000</speed>
</trkpt>
<trkpt lat="55.675499" lon="26.582071">
<ele>148.451294</ele>
<time>2010-07-18T11:58:40Z</time>
<desc>lat.=55.675499, lon.=26.582071, Alt.=148.451294m. Speed=0.036000m/h.</desc>
<speed>0.010000</speed>
</trkpt>
<trkpt lat="55.675499" lon="26.582071">
<ele>148.443481</ele>
<time>2010-07-18T11:58:41Z</time>
<desc>lat.=55.675499, lon.=26.582071, Alt.=148.443481m. Speed=0.000000m/h.</desc>
<speed>0.000000</speed>
</trkpt>
<trkpt lat="55.675499" lon="26.582071">
<ele>148.443481</ele>
<time>2010-07-18T11:58:42Z</time>
<desc>lat.=55.675499, lon.=26.582071, Alt.=148.443481m. Speed=0.000000m/h.</desc>
<speed>0.000000</speed>
</trkpt>
<trkpt lat="55.675499" lon="26.582071">
<ele>148.439575</ele>
<time>2010-07-18T11:58:43Z</time>
<desc>lat.=55.675499, lon.=26.582071, Alt.=148.439575m. Speed=0.000000m/h.</desc>
<speed>0.000000</speed>
</trkpt>
<trkpt lat="55.675499" lon="26.582071">
<ele>148.435669</ele>
<time>2010-07-18T11:58:44Z</time>
<desc>lat.=55.675499, lon.=26.582071, Alt.=148.435669m. Speed=0.036000m/h.</desc>
<speed>0.010000</speed>
</trkpt>
<trkpt lat="55.675499" lon="26.582071">
<ele>148.435669</ele>
<time>2010-07-18T11:58:45Z</time>
<desc>lat.=55.675499, lon.=26.582071, Alt.=148.435669m. Speed=0.108000m/h.</desc>
<speed>0.030000</speed>
</trkpt>
<trkpt lat="55.675499" lon="26.582071">
<ele>148.435669</ele>
<time>2010-07-18T11:58:46Z</time>
<desc>lat.=55.675499, lon.=26.582071, Alt.=148.435669m. Speed=0.144000m/h.</desc>
<speed>0.040000</speed>
</trkpt>
<trkpt lat="55.675499" lon="26.582071">
<ele>148.431763</ele>
<time>2010-07-18T11:58:47Z</time>
<desc>lat.=55.675499, lon.=26.582071, Alt.=148.431763m. Speed=0.108000m/h.</desc>
<speed>0.030000</speed>
</trkpt>
<trkpt lat="55.675499" lon="26.582071">
<ele>148.431763</ele>
<time>2010-07-18T11:58:48Z</time>
<desc>lat.=55.675499, lon.=26.582071, Alt.=148.431763m. Speed=0.144000m/h.</desc>
<speed>0.040000</speed>
</trkpt>
<trkpt lat="55.675499" lon="26.582071">
<ele>148.427856</ele>
<time>2010-07-18T11:58:49Z</time>
<desc>lat.=55.675499, lon.=26.582071, Alt.=148.427856m. Speed=0.072000m/h.</desc>
<speed>0.020000</speed>
</trkpt>
<trkpt lat="55.675499" lon="26.582071">
<ele>148.423950</ele>
<time>2010-07-18T11:58:50Z</time>
<desc>lat.=55.675499, lon.=26.582071, Alt.=148.423950m. Speed=0.108000m/h.</desc>
<speed>0.030000</speed>
</trkpt>
<trkpt lat="55.675499" lon="26.582071">
<ele>148.420044</ele>
<time>2010-07-18T11:58:51Z</time>
<desc>lat.=55.675499, lon.=26.582071, Alt.=148.420044m. Speed=0.000000m/h.</desc>
<speed>0.000000</speed>
</trkpt>
<trkpt lat="55.675499" lon="26.582071">
<ele>148.420044</ele>
<time>2010-07-18T11:58:52Z</time>
<desc>lat.=55.675499, lon.=26.582071, Alt.=148.420044m. Speed=0.036000m/h.</desc>
<speed>0.010000</speed>
</trkpt>
<trkpt lat="55.675499" lon="26.582071">
<ele>148.416138</ele>
<time>2010-07-18T11:58:53Z</time>
<desc>lat.=55.675499, lon.=26.582071, Alt.=148.416138m. Speed=0.000000m/h.</desc>
<speed>0.000000</speed>
</trkpt>
<trkpt lat="55.675499" lon="26.582071">
<ele>148.416138</ele>
<time>2010-07-18T11:58:54Z</time>
<desc>lat.=55.675499, lon.=26.582071, Alt.=148.416138m. Speed=0.000000m/h.</desc>
<speed>0.000000</speed>
</trkpt>
<trkpt lat="55.675499" lon="26.582071">
<ele>148.412231</ele>
<time>2010-07-18T11:58:55Z</time>
<desc>lat.=55.675499, lon.=26.582071, Alt.=148.412231m. Speed=0.000000m/h.</desc>
<speed>0.000000</speed>
</trkpt>
<trkpt lat="55.675499" lon="26.582071">
<ele>148.412231</ele>
<time>2010-07-18T11:58:56Z</time>
<desc>lat.=55.675499, lon.=26.582071, Alt.=148.412231m. Speed=0.000000m/h.</desc>
<speed>0.000000</speed>
</trkpt>
<trkpt lat="55.675499" lon="26.582071">
<ele>148.408325</ele>
<time>2010-07-18T11:58:57Z</time>
<desc>lat.=55.675499, lon.=26.582071, Alt.=148.408325m. Speed=0.000000m/h.</desc>
<speed>0.000000</speed>
</trkpt>
<trkpt lat="55.675499" lon="26.582071">
<ele>148.408325</ele>
<time>2010-07-18T11:58:58Z</time>
<desc>lat.=55.675499, lon.=26.582071, Alt.=148.408325m. Speed=0.000000m/h.</desc>
<speed>0.000000</speed>
</trkpt>
<trkpt lat="55.675499" lon="26.582071">
<ele>148.408325</ele>
<time>2010-07-18T11:58:59Z</time>
<desc>lat.=55.675499, lon.=26.582071, Alt.=148.408325m. Speed=0.000000m/h.</desc>
<speed>0.000000</speed>
</trkpt>
<trkpt lat="55.675499" lon="26.582071">
<ele>148.408325</ele>
<time>2010-07-18T11:59:00Z</time>
<desc>lat.=55.675499, lon.=26.582071, Alt.=148.408325m. Speed=0.000000m/h.</desc>
<speed>0.000000</speed>
</trkpt>
<trkpt lat="55.675499" lon="26.582071">
<ele>148.408325</ele>
<time>2010-07-18T11:59:01Z</time>
<desc>lat.=55.675499, lon.=26.582071, Alt.=148.408325m. Speed=0.000000m/h.</desc>
<speed>0.000000</speed>
</trkpt>
<trkpt lat="55.675499" lon="26.582071">
<ele>148.408325</ele>
<time>2010-07-18T11:59:02Z</time>
<desc>lat.=55.675499, lon.=26.582071, Alt.=148.408325m. Speed=0.000000m/h.</desc>
<speed>0.000000</speed>
</trkpt>
<trkpt lat="55.675499" lon="26.582071">
<ele>148.404419</ele>
<time>2010-07-18T11:59:03Z</time>
<desc>lat.=55.675499, lon.=26.582071, Alt.=148.404419m. Speed=0.000000m/h.</desc>
<speed>0.000000</speed>
</trkpt>
<trkpt lat="55.675499" lon="26.582071">
<ele>148.404419</ele>
<time>2010-07-18T11:59:04Z</time>
<desc>lat.=55.675499, lon.=26.582071, Alt.=148.404419m. Speed=0.036000m/h.</desc>
<speed>0.010000</speed>
</trkpt>
<trkpt lat="55.675499" lon="26.582071">
<ele>148.404419</ele>
<time>2010-07-18T11:59:05Z</time>
<desc>lat.=55.675499, lon.=26.582071, Alt.=148.404419m. Speed=0.108000m/h.</desc>
<speed>0.030000</speed>
</trkpt>
<trkpt lat="55.675499" lon="26.582071">
<ele>148.404419</ele>
<time>2010-07-18T11:59:06Z</time>
<desc>lat.=55.675499, lon.=26.582071, Alt.=148.404419m. Speed=0.072000m/h.</desc>
<speed>0.020000</speed>
</trkpt>
<trkpt lat="55.675499" lon="26.582071">
<ele>148.404419</ele>
<time>2010-07-18T11:59:07Z</time>
<desc>lat.=55.675499, lon.=26.582071, Alt.=148.404419m. Speed=0.000000m/h.</desc>
<speed>0.000000</speed>
</trkpt>
<trkpt lat="55.675499" lon="26.582071">
<ele>148.404419</ele>
<time>2010-07-18T11:59:08Z</time>
<desc>lat.=55.675499, lon.=26.582071, Alt.=148.404419m. Speed=0.000000m/h.</desc>
<speed>0.000000</speed>
</trkpt>
<trkpt lat="55.675499" lon="26.582071">
<ele>148.404419</ele>
<time>2010-07-18T11:59:09Z</time>
<desc>lat.=55.675499, lon.=26.582071, Alt.=148.404419m. Speed=0.000000m/h.</desc>
<speed>0.000000</speed>
</trkpt>
<trkpt lat="55.675499" lon="26.582071">
<ele>148.404419</ele>
<time>2010-07-18T11:59:10Z</time>
<desc>lat.=55.675499, lon.=26.582071, Alt.=148.404419m. Speed=0.000000m/h.</desc>
<speed>0.000000</speed>
</trkpt>
<trkpt lat="55.675499" lon="26.582073">
<ele>148.408325</ele>
<time>2010-07-18T11:59:11Z</time>
<desc>lat.=55.675499, lon.=26.582073, Alt.=148.408325m. Speed=0.000000m/h.</desc>
<speed>0.000000</speed>
</trkpt>
<trkpt lat="55.675499" lon="26.582073">
<ele>148.408325</ele>
<time>2010-07-18T11:59:12Z</time>
<desc>lat.=55.675499, lon.=26.582073, Alt.=148.408325m. Speed=0.000000m/h.</desc>
<speed>0.000000</speed>
</trkpt>
<trkpt lat="55.675499" lon="26.582073">
<ele>148.404419</ele>
<time>2010-07-18T11:59:13Z</time>
<desc>lat.=55.675499, lon.=26.582073, Alt.=148.404419m. Speed=0.000000m/h.</desc>
<speed>0.000000</speed>
</trkpt>
<trkpt lat="55.675499" lon="26.582073">
<ele>148.408325</ele>
<time>2010-07-18T11:59:14Z</time>
<desc>lat.=55.675499, lon.=26.582073, Alt.=148.408325m. Speed=0.000000m/h.</desc>
<speed>0.000000</speed>
</trkpt>
<trkpt lat="55.675499" lon="26.582073">
<ele>148.408325</ele>
<time>2010-07-18T11:59:15Z</time>
<desc>lat.=55.675499, lon.=26.582073, Alt.=148.408325m. Speed=0.000000m/h.</desc>
<speed>0.000000</speed>
</trkpt>
<trkpt lat="55.675499" lon="26.582073">
<ele>148.408325</ele>
<time>2010-07-18T11:59:16Z</time>
<desc>lat.=55.675499, lon.=26.582073, Alt.=148.408325m. Speed=0.036000m/h.</desc>
<speed>0.010000</speed>
</trkpt>
<trkpt lat="55.675499" lon="26.582073">
<ele>148.408325</ele>
<time>2010-07-18T11:59:17Z</time>
<desc>lat.=55.675499, lon.=26.582073, Alt.=148.408325m. Speed=0.036000m/h.</desc>
<speed>0.010000</speed>
</trkpt>
<trkpt lat="55.675499" lon="26.582073">
<ele>148.408325</ele>
<time>2010-07-18T11:59:18Z</time>
<desc>lat.=55.675499, lon.=26.582073, Alt.=148.408325m. Speed=0.072000m/h.</desc>
<speed>0.020000</speed>
</trkpt>
<trkpt lat="55.675499" lon="26.582073">
<ele>148.412231</ele>
<time>2010-07-18T11:59:19Z</time>
<desc>lat.=55.675499, lon.=26.582073, Alt.=148.412231m. Speed=0.000000m/h.</desc>
<speed>0.000000</speed>
</trkpt>
<trkpt lat="55.675499" lon="26.582073">
<ele>148.412231</ele>
<time>2010-07-18T11:59:20Z</time>
<desc>lat.=55.675499, lon.=26.582073, Alt.=148.412231m. Speed=0.072000m/h.</desc>
<speed>0.020000</speed>
</trkpt>
<trkpt lat="55.675499" lon="26.582073">
<ele>148.408325</ele>
<time>2010-07-18T11:59:21Z</time>
<desc>lat.=55.675499, lon.=26.582073, Alt.=148.408325m. Speed=0.108000m/h.</desc>
<speed>0.030000</speed>
</trkpt>
<trkpt lat="55.675499" lon="26.582071">
<ele>148.404419</ele>
<time>2010-07-18T11:59:22Z</time>
<desc>lat.=55.675499, lon.=26.582071, Alt.=148.404419m. Speed=0.036000m/h.</desc>
<speed>0.010000</speed>
</trkpt>
<trkpt lat="55.675499" lon="26.582071">
<ele>148.404419</ele>
<time>2010-07-18T11:59:23Z</time>
<desc>lat.=55.675499, lon.=26.582071, Alt.=148.404419m. Speed=0.540000m/h.</desc>
<speed>0.150000</speed>
</trkpt>
<trkpt lat="55.675499" lon="26.582073">
<ele>148.404419</ele>
<time>2010-07-18T11:59:24Z</time>
<desc>lat.=55.675499, lon.=26.582073, Alt.=148.404419m. Speed=0.072000m/h.</desc>
<speed>0.020000</speed>
</trkpt>
<trkpt lat="55.675499" lon="26.582073">
<ele>148.400513</ele>
<time>2010-07-18T11:59:25Z</time>
<desc>lat.=55.675499, lon.=26.582073, Alt.=148.400513m. Speed=0.252000m/h.</desc>
<speed>0.070000</speed>
</trkpt>
<trkpt lat="55.675499" lon="26.582073">
<ele>148.396606</ele>
<time>2010-07-18T11:59:26Z</time>
<desc>lat.=55.675499, lon.=26.582073, Alt.=148.396606m. Speed=0.180000m/h.</desc>
<speed>0.050000</speed>
</trkpt>
<trkpt lat="55.675499" lon="26.582071">
<ele>148.392700</ele>
<time>2010-07-18T11:59:27Z</time>
<desc>lat.=55.675499, lon.=26.582071, Alt.=148.392700m. Speed=0.468000m/h.</desc>
<speed>0.130000</speed>
</trkpt>
<trkpt lat="55.675499" lon="26.582071">
<ele>148.392700</ele>
<time>2010-07-18T11:59:28Z</time>
<desc>lat.=55.675499, lon.=26.582071, Alt.=148.392700m. Speed=0.540000m/h.</desc>
<speed>0.150000</speed>
</trkpt>
<trkpt lat="55.675499" lon="26.582073">
<ele>148.361450</ele>
<time>2010-07-18T11:59:29Z</time>
<desc>lat.=55.675499, lon.=26.582073, Alt.=148.361450m. Speed=0.144000m/h.</desc>
<speed>0.040000</speed>
</trkpt>
<trkpt lat="55.675499" lon="26.582075">
<ele>148.338013</ele>
<time>2010-07-18T11:59:30Z</time>
<desc>lat.=55.675499, lon.=26.582075, Alt.=148.338013m. Speed=0.144000m/h.</desc>
<speed>0.040000</speed>
</trkpt>
<trkpt lat="55.675499" lon="26.582075">
<ele>148.326294</ele>
<time>2010-07-18T11:59:31Z</time>
<desc>lat.=55.675499, lon.=26.582075, Alt.=148.326294m. Speed=0.108000m/h.</desc>
<speed>0.030000</speed>
</trkpt>
<trkpt lat="55.675499" lon="26.582075">
<ele>148.326294</ele>
<time>2010-07-18T11:59:32Z</time>
<desc>lat.=55.675499, lon.=26.582075, Alt.=148.326294m. Speed=0.072000m/h.</desc>
<speed>0.020000</speed>
</trkpt>
<trkpt lat="55.675499" lon="26.582075">
<ele>148.330200</ele>
<time>2010-07-18T11:59:33Z</time>
<desc>lat.=55.675499, lon.=26.582075, Alt.=148.330200m. Speed=0.000000m/h.</desc>
<speed>0.000000</speed>
</trkpt>
<trkpt lat="55.675499" lon="26.582075">
<ele>148.330200</ele>
<time>2010-07-18T11:59:34Z</time>
<desc>lat.=55.675499, lon.=26.582075, Alt.=148.330200m. Speed=0.000000m/h.</desc>
<speed>0.000000</speed>
</trkpt>
<trkpt lat="55.675499" lon="26.582075">
<ele>148.330200</ele>
<time>2010-07-18T11:59:35Z</time>
<desc>lat.=55.675499, lon.=26.582075, Alt.=148.330200m. Speed=0.000000m/h.</desc>
<speed>0.000000</speed>
</trkpt>
<trkpt lat="55.675499" lon="26.582075">
<ele>148.330200</ele>
<time>2010-07-18T11:59:36Z</time>
<desc>lat.=55.675499, lon.=26.582075, Alt.=148.330200m. Speed=0.036000m/h.</desc>
<speed>0.010000</speed>
</trkpt>
<trkpt lat="55.675499" lon="26.582075">
<ele>148.330200</ele>
<time>2010-07-18T11:59:37Z</time>
<desc>lat.=55.675499, lon.=26.582075, Alt.=148.330200m. Speed=0.216000m/h.</desc>
<speed>0.060000</speed>
</trkpt>
<trkpt lat="55.675499" lon="26.582075">
<ele>148.322388</ele>
<time>2010-07-18T11:59:38Z</time>
<desc>lat.=55.675499, lon.=26.582075, Alt.=148.322388m. Speed=0.936000m/h.</desc>
<speed>0.260000</speed>
</trkpt>
<trkpt lat="55.675499" lon="26.582075">
<ele>148.302856</ele>
<time>2010-07-18T11:59:39Z</time>
<desc>lat.=55.675499, lon.=26.582075, Alt.=148.302856m. Speed=0.252000m/h.</desc>
<speed>0.070000</speed>
</trkpt>
<trkpt lat="55.675499" lon="26.582075">
<ele>148.298950</ele>
<time>2010-07-18T11:59:40Z</time>
<desc>lat.=55.675499, lon.=26.582075, Alt.=148.298950m. Speed=0.432000m/h.</desc>
<speed>0.120000</speed>
</trkpt>
<trkpt lat="55.675499" lon="26.582077">
<ele>148.279419</ele>
<time>2010-07-18T11:59:41Z</time>
<desc>lat.=55.675499, lon.=26.582077, Alt.=148.279419m. Speed=0.360000m/h.</desc>
<speed>0.100000</speed>
</trkpt>
<trkpt lat="55.675499" lon="26.582079">
<ele>148.263794</ele>
<time>2010-07-18T11:59:42Z</time>
<desc>lat.=55.675499, lon.=26.582079, Alt.=148.263794m. Speed=0.648000m/h.</desc>
<speed>0.180000</speed>
</trkpt>
<trkpt lat="55.675499" lon="26.582081">
<ele>148.228638</ele>
<time>2010-07-18T11:59:43Z</time>
<desc>lat.=55.675499, lon.=26.582081, Alt.=148.228638m. Speed=5.004000m/h.</desc>
<speed>1.390000</speed>
</trkpt>
<trkpt lat="55.675510" lon="26.582087">
<ele>147.705200</ele>
<time>2010-07-18T11:59:44Z</time>
<desc>lat.=55.675510, lon.=26.582087, Alt.=147.705200m. Speed=5.220000m/h.</desc>
<speed>1.450000</speed>
</trkpt>
<trkpt lat="55.675522" lon="26.582094">
<ele>147.662231</ele>
<time>2010-07-18T11:59:45Z</time>
<desc>lat.=55.675522, lon.=26.582094, Alt.=147.662231m. Speed=5.040000m/h.</desc>
<speed>1.400000</speed>
</trkpt>
<trkpt lat="55.675533" lon="26.582098">
<ele>147.662231</ele>
<time>2010-07-18T11:59:46Z</time>
<desc>lat.=55.675533, lon.=26.582098, Alt.=147.662231m. Speed=3.672000m/h.</desc>
<speed>1.020000</speed>
</trkpt>
<trkpt lat="55.675545" lon="26.582100">
<ele>147.705200</ele>
<time>2010-07-18T11:59:47Z</time>
<desc>lat.=55.675545, lon.=26.582100, Alt.=147.705200m. Speed=2.124000m/h.</desc>
<speed>0.590000</speed>
</trkpt>
<trkpt lat="55.675549" lon="26.582096">
<ele>147.580200</ele>
<time>2010-07-18T11:59:48Z</time>
<desc>lat.=55.675549, lon.=26.582096, Alt.=147.580200m. Speed=1.116000m/h.</desc>
<speed>0.310000</speed>
</trkpt>
<trkpt lat="55.675549" lon="26.582092">
<ele>147.213013</ele>
<time>2010-07-18T11:59:49Z</time>
<desc>lat.=55.675549, lon.=26.582092, Alt.=147.213013m. Speed=0.252000m/h.</desc>
<speed>0.070000</speed>
</trkpt>
<trkpt lat="55.675549" lon="26.582094">
<ele>146.705200</ele>
<time>2010-07-18T11:59:50Z</time>
<desc>lat.=55.675549, lon.=26.582094, Alt.=146.705200m. Speed=0.000000m/h.</desc>
<speed>0.000000</speed>
</trkpt>
<trkpt lat="55.675549" lon="26.582100">
<ele>146.123169</ele>
<time>2010-07-18T11:59:51Z</time>
<desc>lat.=55.675549, lon.=26.582100, Alt.=146.123169m. Speed=0.000000m/h.</desc>
<speed>0.000000</speed>
</trkpt>
<trkpt lat="55.675545" lon="26.582102">
<ele>145.607544</ele>
<time>2010-07-18T11:59:52Z</time>
<desc>lat.=55.675545, lon.=26.582102, Alt.=145.607544m. Speed=0.072000m/h.</desc>
<speed>0.020000</speed>
</trkpt>
<trkpt lat="55.675545" lon="26.582102">
<ele>145.599731</ele>
<time>2010-07-18T11:59:53Z</time>
<desc>lat.=55.675545, lon.=26.582102, Alt.=145.599731m. Speed=0.036000m/h.</desc>
<speed>0.010000</speed>
</trkpt>
<trkpt lat="55.675545" lon="26.582102">
<ele>145.588013</ele>
<time>2010-07-18T11:59:54Z</time>
<desc>lat.=55.675545, lon.=26.582102, Alt.=145.588013m. Speed=0.108000m/h.</desc>
<speed>0.030000</speed>
</trkpt>
<trkpt lat="55.675545" lon="26.582102">
<ele>145.580200</ele>
<time>2010-07-18T11:59:55Z</time>
<desc>lat.=55.675545, lon.=26.582102, Alt.=145.580200m. Speed=0.000000m/h.</desc>
<speed>0.000000</speed>
</trkpt>
<trkpt lat="55.675545" lon="26.582102">
<ele>145.580200</ele>
<time>2010-07-18T11:59:56Z</time>
<desc>lat.=55.675545, lon.=26.582102, Alt.=145.580200m. Speed=0.000000m/h.</desc>
<speed>0.000000</speed>
</trkpt>
<trkpt lat="55.675545" lon="26.582102">
<ele>145.580200</ele>
<time>2010-07-18T11:59:57Z</time>
<desc>lat.=55.675545, lon.=26.582102, Alt.=145.580200m. Speed=0.000000m/h.</desc>
<speed>0.000000</speed>
</trkpt>
<trkpt lat="55.675545" lon="26.582102">
<ele>145.572388</ele>
<time>2010-07-18T11:59:58Z</time>
<desc>lat.=55.675545, lon.=26.582102, Alt.=145.572388m. Speed=0.036000m/h.</desc>
<speed>0.010000</speed>
</trkpt>
<trkpt lat="55.675545" lon="26.582102">
<ele>145.564575</ele>
<time>2010-07-18T11:59:59Z</time>
<desc>lat.=55.675545, lon.=26.582102, Alt.=145.564575m. Speed=0.828000m/h.</desc>
<speed>0.230000</speed>
</trkpt>
<trkpt lat="55.675549" lon="26.582102">
<ele>145.560669</ele>
<time>2010-07-18T12:00:00Z</time>
<desc>lat.=55.675549, lon.=26.582102, Alt.=145.560669m. Speed=1.440000m/h.</desc>
<speed>0.400000</speed>
</trkpt>
<trkpt lat="55.675552" lon="26.582106">
<ele>145.423950</ele>
<time>2010-07-18T12:00:01Z</time>
<desc>lat.=55.675552, lon.=26.582106, Alt.=145.423950m. Speed=0.360000m/h.</desc>
<speed>0.100000</speed>
</trkpt>
<trkpt lat="55.675552" lon="26.582106">
<ele>145.255981</ele>
<time>2010-07-18T12:00:02Z</time>
<desc>lat.=55.675552, lon.=26.582106, Alt.=145.255981m. Speed=0.108000m/h.</desc>
<speed>0.030000</speed>
</trkpt>
<trkpt lat="55.675552" lon="26.582106">
<ele>145.150513</ele>
<time>2010-07-18T12:00:03Z</time>
<desc>lat.=55.675552, lon.=26.582106, Alt.=145.150513m. Speed=0.108000m/h.</desc>
<speed>0.030000</speed>
</trkpt>
<trkpt lat="55.675556" lon="26.582100">
<ele>145.173950</ele>
<time>2010-07-18T12:00:04Z</time>
<desc>lat.=55.675556, lon.=26.582100, Alt.=145.173950m. Speed=0.252000m/h.</desc>
<speed>0.070000</speed>
</trkpt>
<trkpt lat="55.675556" lon="26.582100">
<ele>145.209106</ele>
<time>2010-07-18T12:00:05Z</time>
<desc>lat.=55.675556, lon.=26.582100, Alt.=145.209106m. Speed=0.576000m/h.</desc>
<speed>0.160000</speed>
</trkpt>
<trkpt lat="55.675552" lon="26.582098">
<ele>145.267700</ele>
<time>2010-07-18T12:00:06Z</time>
<desc>lat.=55.675552, lon.=26.582098, Alt.=145.267700m. Speed=0.648000m/h.</desc>
<speed>0.180000</speed>
</trkpt>
<trkpt lat="55.675552" lon="26.582098">
<ele>145.248169</ele>
<time>2010-07-18T12:00:07Z</time>
<desc>lat.=55.675552, lon.=26.582098, Alt.=145.248169m. Speed=0.504000m/h.</desc>
<speed>0.140000</speed>
</trkpt>
<trkpt lat="55.675552" lon="26.582098">
<ele>145.252075</ele>
<time>2010-07-18T12:00:08Z</time>
<desc>lat.=55.675552, lon.=26.582098, Alt.=145.252075m. Speed=0.900000m/h.</desc>
<speed>0.250000</speed>
</trkpt>
<trkpt lat="55.675549" lon="26.582102">
<ele>145.271606</ele>
<time>2010-07-18T12:00:09Z</time>
<desc>lat.=55.675549, lon.=26.582102, Alt.=145.271606m. Speed=0.936000m/h.</desc>
<speed>0.260000</speed>
</trkpt>
<trkpt lat="55.675549" lon="26.582102">
<ele>145.240356</ele>
<time>2010-07-18T12:00:10Z</time>
<desc>lat.=55.675549, lon.=26.582102, Alt.=145.240356m. Speed=0.036000m/h.</desc>
<speed>0.010000</speed>
</trkpt>
<trkpt lat="55.675549" lon="26.582102">
<ele>145.236450</ele>
<time>2010-07-18T12:00:11Z</time>
<desc>lat.=55.675549, lon.=26.582102, Alt.=145.236450m. Speed=0.036000m/h.</desc>
<speed>0.010000</speed>
</trkpt>
<trkpt lat="55.675549" lon="26.582102">
<ele>145.228638</ele>
<time>2010-07-18T12:00:12Z</time>
<desc>lat.=55.675549, lon.=26.582102, Alt.=145.228638m. Speed=0.000000m/h.</desc>
<speed>0.000000</speed>
</trkpt>
<trkpt lat="55.675549" lon="26.582102">
<ele>145.228638</ele>
<time>2010-07-18T12:00:13Z</time>
<desc>lat.=55.675549, lon.=26.582102, Alt.=145.228638m. Speed=0.000000m/h.</desc>
<speed>0.000000</speed>
</trkpt>
<trkpt lat="55.675549" lon="26.582102">
<ele>145.224731</ele>
<time>2010-07-18T12:00:14Z</time>
<desc>lat.=55.675549, lon.=26.582102, Alt.=145.224731m. Speed=0.000000m/h.</desc>
<speed>0.000000</speed>
</trkpt>
<trkpt lat="55.675549" lon="26.582102">
<ele>145.220825</ele>
<time>2010-07-18T12:00:15Z</time>
<desc>lat.=55.675549, lon.=26.582102, Alt.=145.220825m. Speed=0.000000m/h.</desc>
<speed>0.000000</speed>
</trkpt>
<trkpt lat="55.675549" lon="26.582102">
<ele>145.220825</ele>
<time>2010-07-18T12:00:16Z</time>
<desc>lat.=55.675549, lon.=26.582102, Alt.=145.220825m. Speed=0.000000m/h.</desc>
<speed>0.000000</speed>
</trkpt>
<trkpt lat="55.675549" lon="26.582102">
<ele>145.209106</ele>
<time>2010-07-18T12:00:17Z</time>
<desc>lat.=55.675549, lon.=26.582102, Alt.=145.209106m. Speed=0.036000m/h.</desc>
<speed>0.010000</speed>
</trkpt>
<trkpt lat="55.675549" lon="26.582102">
<ele>145.205200</ele>
<time>2010-07-18T12:00:18Z</time>
<desc>lat.=55.675549, lon.=26.582102, Alt.=145.205200m. Speed=0.036000m/h.</desc>
<speed>0.010000</speed>
</trkpt>
<trkpt lat="55.675549" lon="26.582102">
<ele>145.205200</ele>
<time>2010-07-18T12:00:19Z</time>
<desc>lat.=55.675549, lon.=26.582102, Alt.=145.205200m. Speed=0.072000m/h.</desc>
<speed>0.020000</speed>
</trkpt>
<trkpt lat="55.675549" lon="26.582102">
<ele>145.205200</ele>
<time>2010-07-18T12:00:20Z</time>
<desc>lat.=55.675549, lon.=26.582102, Alt.=145.205200m. Speed=0.072000m/h.</desc>
<speed>0.020000</speed>
</trkpt>
<trkpt lat="55.675549" lon="26.582102">
<ele>145.205200</ele>
<time>2010-07-18T12:00:21Z</time>
<desc>lat.=55.675549, lon.=26.582102, Alt.=145.205200m. Speed=0.576000m/h.</desc>
<speed>0.160000</speed>
</trkpt>
<trkpt lat="55.675549" lon="26.582102">
<ele>145.209106</ele>
<time>2010-07-18T12:00:22Z</time>
<desc>lat.=55.675549, lon.=26.582102, Alt.=145.209106m. Speed=1.584000m/h.</desc>
<speed>0.440000</speed>
</trkpt>
<trkpt lat="55.675545" lon="26.582100">
<ele>145.111450</ele>
<time>2010-07-18T12:00:23Z</time>
<desc>lat.=55.675545, lon.=26.582100, Alt.=145.111450m. Speed=1.908000m/h.</desc>
<speed>0.530000</speed>
</trkpt>
<trkpt lat="55.675541" lon="26.582098">
<ele>144.994263</ele>
<time>2010-07-18T12:00:24Z</time>
<desc>lat.=55.675541, lon.=26.582098, Alt.=144.994263m. Speed=1.296000m/h.</desc>
<speed>0.360000</speed>
</trkpt>
<trkpt lat="55.675541" lon="26.582094">
<ele>144.931763</ele>
<time>2010-07-18T12:00:25Z</time>
<desc>lat.=55.675541, lon.=26.582094, Alt.=144.931763m. Speed=0.648000m/h.</desc>
<speed>0.180000</speed>
</trkpt>
<trkpt lat="55.675537" lon="26.582090">
<ele>144.982544</ele>
<time>2010-07-18T12:00:26Z</time>
<desc>lat.=55.675537, lon.=26.582090, Alt.=144.982544m. Speed=1.764000m/h.</desc>
<speed>0.490000</speed>
</trkpt>
<trkpt lat="55.675533" lon="26.582087">
<ele>144.884888</ele>
<time>2010-07-18T12:00:27Z</time>
<desc>lat.=55.675533, lon.=26.582087, Alt.=144.884888m. Speed=3.852000m/h.</desc>
<speed>1.070000</speed>
</trkpt>
<trkpt lat="55.675526" lon="26.582081">
<ele>144.841919</ele>
<time>2010-07-18T12:00:28Z</time>
<desc>lat.=55.675526, lon.=26.582081, Alt.=144.841919m. Speed=4.536000m/h.</desc>
<speed>1.260000</speed>
</trkpt>
<trkpt lat="55.675518" lon="26.582067">
<ele>144.904419</ele>
<time>2010-07-18T12:00:29Z</time>
<desc>lat.=55.675518, lon.=26.582067, Alt.=144.904419m. Speed=5.724000m/h.</desc>
<speed>1.590000</speed>
</trkpt>
<trkpt lat="55.675514" lon="26.582047">
<ele>144.990356</ele>
<time>2010-07-18T12:00:30Z</time>
<desc>lat.=55.675514, lon.=26.582047, Alt.=144.990356m. Speed=4.932000m/h.</desc>
<speed>1.370000</speed>
</trkpt>
<trkpt lat="55.675514" lon="26.582031">
<ele>144.970825</ele>
<time>2010-07-18T12:00:31Z</time>
<desc>lat.=55.675514, lon.=26.582031, Alt.=144.970825m. Speed=3.456000m/h.</desc>
<speed>0.960000</speed>
</trkpt>
<trkpt lat="55.675514" lon="26.582026">
<ele>145.056763</ele>
<time>2010-07-18T12:00:32Z</time>
<desc>lat.=55.675514, lon.=26.582026, Alt.=145.056763m. Speed=0.972000m/h.</desc>
<speed>0.270000</speed>
</trkpt>
<trkpt lat="55.675518" lon="26.582020">
<ele>145.060669</ele>
<time>2010-07-18T12:00:33Z</time>
<desc>lat.=55.675518, lon.=26.582020, Alt.=145.060669m. Speed=2.196000m/h.</desc>
<speed>0.610000</speed>
</trkpt>
<trkpt lat="55.675522" lon="26.582008">
<ele>145.072388</ele>
<time>2010-07-18T12:00:34Z</time>
<desc>lat.=55.675522, lon.=26.582008, Alt.=145.072388m. Speed=3.636000m/h.</desc>
<speed>1.010000</speed>
</trkpt>
<trkpt lat="55.675522" lon="26.581989">
<ele>145.505981</ele>
<time>2010-07-18T12:00:35Z</time>
<desc>lat.=55.675522, lon.=26.581989, Alt.=145.505981m. Speed=3.960000m/h.</desc>
<speed>1.100000</speed>
</trkpt>
<trkpt lat="55.675526" lon="26.581970">
<ele>145.548950</ele>
<time>2010-07-18T12:00:36Z</time>
<desc>lat.=55.675526, lon.=26.581970, Alt.=145.548950m. Speed=5.904000m/h.</desc>
<speed>1.640000</speed>
</trkpt>
<trkpt lat="55.675533" lon="26.581949">
<ele>145.388794</ele>
<time>2010-07-18T12:00:37Z</time>
<desc>lat.=55.675533, lon.=26.581949, Alt.=145.388794m. Speed=6.264000m/h.</desc>
<speed>1.740000</speed>
</trkpt>
<trkpt lat="55.675545" lon="26.581926">
<ele>145.720825</ele>
<time>2010-07-18T12:00:38Z</time>
<desc>lat.=55.675545, lon.=26.581926, Alt.=145.720825m. Speed=6.300000m/h.</desc>
<speed>1.750000</speed>
</trkpt>
<trkpt lat="55.675552" lon="26.581903">
<ele>145.920044</ele>
<time>2010-07-18T12:00:39Z</time>
<desc>lat.=55.675552, lon.=26.581903, Alt.=145.920044m. Speed=7.596000m/h.</desc>
<speed>2.110000</speed>
</trkpt>
<trkpt lat="55.675560" lon="26.581871">
<ele>145.908325</ele>
<time>2010-07-18T12:00:40Z</time>
<desc>lat.=55.675560, lon.=26.581871, Alt.=145.908325m. Speed=8.100000m/h.</desc>
<speed>2.250000</speed>
</trkpt>
<trkpt lat="55.675564" lon="26.581837">
<ele>146.138794</ele>
<time>2010-07-18T12:00:41Z</time>
<desc>lat.=55.675564, lon.=26.581837, Alt.=146.138794m. Speed=8.496000m/h.</desc>
<speed>2.360000</speed>
</trkpt>
<trkpt lat="55.675568" lon="26.581799">
<ele>146.408325</ele>
<time>2010-07-18T12:00:42Z</time>
<desc>lat.=55.675568, lon.=26.581799, Alt.=146.408325m. Speed=9.108000m/h.</desc>
<speed>2.530000</speed>
</trkpt>
<trkpt lat="55.675575" lon="26.581760">
<ele>146.564575</ele>
<time>2010-07-18T12:00:43Z</time>
<desc>lat.=55.675575, lon.=26.581760, Alt.=146.564575m. Speed=9.612000m/h.</desc>
<speed>2.670000</speed>
</trkpt>
<trkpt lat="55.675583" lon="26.581717">
<ele>146.752075</ele>
<time>2010-07-18T12:00:44Z</time>
<desc>lat.=55.675583, lon.=26.581717, Alt.=146.752075m. Speed=10.260000m/h.</desc>
<speed>2.850000</speed>
</trkpt>
<trkpt lat="55.675598" lon="26.581678">
<ele>146.330200</ele>
<time>2010-07-18T12:00:45Z</time>
<desc>lat.=55.675598, lon.=26.581678, Alt.=146.330200m. Speed=10.692000m/h.</desc>
<speed>2.970000</speed>
</trkpt>
<trkpt lat="55.675606" lon="26.581633">
<ele>146.295044</ele>
<time>2010-07-18T12:00:46Z</time>
<desc>lat.=55.675606, lon.=26.581633, Alt.=146.295044m. Speed=11.628000m/h.</desc>
<speed>3.230000</speed>
</trkpt>
<trkpt lat="55.675617" lon="26.581579">
<ele>146.494263</ele>
<time>2010-07-18T12:00:47Z</time>
<desc>lat.=55.675617, lon.=26.581579, Alt.=146.494263m. Speed=12.348000m/h.</desc>
<speed>3.430000</speed>
</trkpt>
<trkpt lat="55.675629" lon="26.581526">
<ele>146.603638</ele>
<time>2010-07-18T12:00:48Z</time>
<desc>lat.=55.675629, lon.=26.581526, Alt.=146.603638m. Speed=12.852000m/h.</desc>
<speed>3.570000</speed>
</trkpt>
<trkpt lat="55.675640" lon="26.581470">
<ele>146.666138</ele>
<time>2010-07-18T12:00:49Z</time>
<desc>lat.=55.675640, lon.=26.581470, Alt.=146.666138m. Speed=13.716000m/h.</desc>
<speed>3.810000</speed>
</trkpt>
<trkpt lat="55.675652" lon="26.581413">
<ele>146.818481</ele>
<time>2010-07-18T12:00:50Z</time>
<desc>lat.=55.675652, lon.=26.581413, Alt.=146.818481m. Speed=14.364000m/h.</desc>
<speed>3.990000</speed>
</trkpt>
<trkpt lat="55.675663" lon="26.581352">
<ele>146.904419</ele>
<time>2010-07-18T12:00:51Z</time>
<desc>lat.=55.675663, lon.=26.581352, Alt.=146.904419m. Speed=14.004000m/h.</desc>
<speed>3.890000</speed>
</trkpt>
<trkpt lat="55.675674" lon="26.581297">
<ele>146.998169</ele>
<time>2010-07-18T12:00:52Z</time>
<desc>lat.=55.675674, lon.=26.581297, Alt.=146.998169m. Speed=13.068000m/h.</desc>
<speed>3.630000</speed>
</trkpt>
<trkpt lat="55.675686" lon="26.581245">
<ele>147.080200</ele>
<time>2010-07-18T12:00:53Z</time>
<desc>lat.=55.675686, lon.=26.581245, Alt.=147.080200m. Speed=12.204000m/h.</desc>
<speed>3.390000</speed>
</trkpt>
<trkpt lat="55.675701" lon="26.581202">
<ele>147.048950</ele>
<time>2010-07-18T12:00:54Z</time>
<desc>lat.=55.675701, lon.=26.581202, Alt.=147.048950m. Speed=11.448000m/h.</desc>
<speed>3.180000</speed>
</trkpt>
<trkpt lat="55.675720" lon="26.581163">
<ele>146.920044</ele>
<time>2010-07-18T12:00:55Z</time>
<desc>lat.=55.675720, lon.=26.581163, Alt.=146.920044m. Speed=11.088000m/h.</desc>
<speed>3.080000</speed>
</trkpt>
<trkpt lat="55.675732" lon="26.581116">
<ele>146.908325</ele>
<time>2010-07-18T12:00:56Z</time>
<desc>lat.=55.675732, lon.=26.581116, Alt.=146.908325m. Speed=11.664000m/h.</desc>
<speed>3.240000</speed>
</trkpt>
<trkpt lat="55.675743" lon="26.581066">
<ele>146.834106</ele>
<time>2010-07-18T12:00:57Z</time>
<desc>lat.=55.675743, lon.=26.581066, Alt.=146.834106m. Speed=12.708000m/h.</desc>
<speed>3.530000</speed>
</trkpt>
<trkpt lat="55.675762" lon="26.581017">
<ele>146.845825</ele>
<time>2010-07-18T12:00:58Z</time>
<desc>lat.=55.675762, lon.=26.581017, Alt.=146.845825m. Speed=13.176000m/h.</desc>
<speed>3.660000</speed>
</trkpt>
<trkpt lat="55.675781" lon="26.580963">
<ele>146.841919</ele>
<time>2010-07-18T12:00:59Z</time>
<desc>lat.=55.675781, lon.=26.580963, Alt.=146.841919m. Speed=13.536000m/h.</desc>
<speed>3.760000</speed>
</trkpt>
<trkpt lat="55.675797" lon="26.580914">
<ele>146.787231</ele>
<time>2010-07-18T12:01:00Z</time>
<desc>lat.=55.675797, lon.=26.580914, Alt.=146.787231m. Speed=13.608000m/h.</desc>
<speed>3.780000</speed>
</trkpt>
<trkpt lat="55.675812" lon="26.580862">
<ele>146.724731</ele>
<time>2010-07-18T12:01:01Z</time>
<desc>lat.=55.675812, lon.=26.580862, Alt.=146.724731m. Speed=13.068000m/h.</desc>
<speed>3.630000</speed>
</trkpt>
<trkpt lat="55.675831" lon="26.580814">
<ele>146.681763</ele>
<time>2010-07-18T12:01:02Z</time>
<desc>lat.=55.675831, lon.=26.580814, Alt.=146.681763m. Speed=11.664000m/h.</desc>
<speed>3.240000</speed>
</trkpt>
<trkpt lat="55.675850" lon="26.580770">
<ele>146.615356</ele>
<time>2010-07-18T12:01:03Z</time>
<desc>lat.=55.675850, lon.=26.580770, Alt.=146.615356m. Speed=10.764000m/h.</desc>
<speed>2.990000</speed>
</trkpt>
<trkpt lat="55.675865" lon="26.580725">
<ele>146.673950</ele>
<time>2010-07-18T12:01:04Z</time>
<desc>lat.=55.675865, lon.=26.580725, Alt.=146.673950m. Speed=10.656000m/h.</desc>
<speed>2.960000</speed>
</trkpt>
<trkpt lat="55.675884" lon="26.580685">
<ele>146.838013</ele>
<time>2010-07-18T12:01:05Z</time>
<desc>lat.=55.675884, lon.=26.580685, Alt.=146.838013m. Speed=11.700000m/h.</desc>
<speed>3.250000</speed>
</trkpt>
<trkpt lat="55.675903" lon="26.580647">
<ele>147.037231</ele>
<time>2010-07-18T12:01:06Z</time>
<desc>lat.=55.675903, lon.=26.580647, Alt.=147.037231m. Speed=12.636000m/h.</desc>
<speed>3.510000</speed>
</trkpt>
<trkpt lat="55.675922" lon="26.580603">
<ele>147.052856</ele>
<time>2010-07-18T12:01:07Z</time>
<desc>lat.=55.675922, lon.=26.580603, Alt.=147.052856m. Speed=13.284000m/h.</desc>
<speed>3.690000</speed>
</trkpt>
<trkpt lat="55.675941" lon="26.580555">
<ele>147.068481</ele>
<time>2010-07-18T12:01:08Z</time>
<desc>lat.=55.675941, lon.=26.580555, Alt.=147.068481m. Speed=13.860000m/h.</desc>
<speed>3.850000</speed>
</trkpt>
<trkpt lat="55.675964" lon="26.580511">
<ele>147.146606</ele>
<time>2010-07-18T12:01:09Z</time>
<desc>lat.=55.675964, lon.=26.580511, Alt.=147.146606m. Speed=13.428000m/h.</desc>
<speed>3.730000</speed>
</trkpt>
<trkpt lat="55.675983" lon="26.580462">
<ele>147.189575</ele>
<time>2010-07-18T12:01:10Z</time>
<desc>lat.=55.675983, lon.=26.580462, Alt.=147.189575m. Speed=13.788000m/h.</desc>
<speed>3.830000</speed>
</trkpt>
<trkpt lat="55.676003" lon="26.580414">
<ele>147.298950</ele>
<time>2010-07-18T12:01:11Z</time>
<desc>lat.=55.676003, lon.=26.580414, Alt.=147.298950m. Speed=14.472000m/h.</desc>
<speed>4.020000</speed>
</trkpt>
<trkpt lat="55.676022" lon="26.580368">
<ele>147.408325</ele>
<time>2010-07-18T12:01:12Z</time>
<desc>lat.=55.676022, lon.=26.580368, Alt.=147.408325m. Speed=14.220000m/h.</desc>
<speed>3.950000</speed>
</trkpt>
<trkpt lat="55.676048" lon="26.580328">
<ele>147.455200</ele>
<time>2010-07-18T12:01:13Z</time>
<desc>lat.=55.676048, lon.=26.580328, Alt.=147.455200m. Speed=13.608000m/h.</desc>
<speed>3.780000</speed>
</trkpt>
<trkpt lat="55.676067" lon="26.580284">
<ele>147.420044</ele>
<time>2010-07-18T12:01:14Z</time>
<desc>lat.=55.676067, lon.=26.580284, Alt.=147.420044m. Speed=12.780000m/h.</desc>
<speed>3.550000</speed>
</trkpt>
<trkpt lat="55.676086" lon="26.580242">
<ele>147.466919</ele>
<time>2010-07-18T12:01:15Z</time>
<desc>lat.=55.676086, lon.=26.580242, Alt.=147.466919m. Speed=11.916000m/h.</desc>
<speed>3.310000</speed>
</trkpt>
<trkpt lat="55.676105" lon="26.580204">
<ele>147.615356</ele>
<time>2010-07-18T12:01:16Z</time>
<desc>lat.=55.676105, lon.=26.580204, Alt.=147.615356m. Speed=11.412000m/h.</desc>
<speed>3.170000</speed>
</trkpt>
<trkpt lat="55.676125" lon="26.580170">
<ele>147.584106</ele>
<time>2010-07-18T12:01:17Z</time>
<desc>lat.=55.676125, lon.=26.580170, Alt.=147.584106m. Speed=11.844000m/h.</desc>
<speed>3.290000</speed>
</trkpt>
<trkpt lat="55.676147" lon="26.580139">
<ele>147.474731</ele>
<time>2010-07-18T12:01:18Z</time>
<desc>lat.=55.676147, lon.=26.580139, Alt.=147.474731m. Speed=12.492000m/h.</desc>
<speed>3.470000</speed>
</trkpt>
<trkpt lat="55.676170" lon="26.580103">
<ele>147.463013</ele>
<time>2010-07-18T12:01:19Z</time>
<desc>lat.=55.676170, lon.=26.580103, Alt.=147.463013m. Speed=12.996000m/h.</desc>
<speed>3.610000</speed>
</trkpt>
<trkpt lat="55.676193" lon="26.580063">
<ele>147.423950</ele>
<time>2010-07-18T12:01:20Z</time>
<desc>lat.=55.676193, lon.=26.580063, Alt.=147.423950m. Speed=12.816000m/h.</desc>
<speed>3.560000</speed>
</trkpt>
<trkpt lat="55.676216" lon="26.580023">
<ele>147.388794</ele>
<time>2010-07-18T12:01:21Z</time>
<desc>lat.=55.676216, lon.=26.580023, Alt.=147.388794m. Speed=12.744000m/h.</desc>
<speed>3.540000</speed>
</trkpt>
<trkpt lat="55.676239" lon="26.579981">
<ele>147.486450</ele>
<time>2010-07-18T12:01:22Z</time>
<desc>lat.=55.676239, lon.=26.579981, Alt.=147.486450m. Speed=13.248000m/h.</desc>
<speed>3.680000</speed>
</trkpt>
<trkpt lat="55.676262" lon="26.579939">
<ele>147.513794</ele>
<time>2010-07-18T12:01:23Z</time>
<desc>lat.=55.676262, lon.=26.579939, Alt.=147.513794m. Speed=13.860000m/h.</desc>
<speed>3.850000</speed>
</trkpt>
<trkpt lat="55.676296" lon="26.579897">
<ele>147.525513</ele>
<time>2010-07-18T12:01:24Z</time>
<desc>lat.=55.676296, lon.=26.579897, Alt.=147.525513m. Speed=14.472000m/h.</desc>
<speed>4.020000</speed>
</trkpt>
<trkpt lat="55.676327" lon="26.579855">
<ele>147.459106</ele>
<time>2010-07-18T12:01:25Z</time>
<desc>lat.=55.676327, lon.=26.579855, Alt.=147.459106m. Speed=15.192000m/h.</desc>
<speed>4.220000</speed>
</trkpt>
<trkpt lat="55.676353" lon="26.579809">
<ele>147.388794</ele>
<time>2010-07-18T12:01:26Z</time>
<desc>lat.=55.676353, lon.=26.579809, Alt.=147.388794m. Speed=16.091999m/h.</desc>
<speed>4.470000</speed>
</trkpt>
<trkpt lat="55.676380" lon="26.579758">
<ele>147.552856</ele>
<time>2010-07-18T12:01:27Z</time>
<desc>lat.=55.676380, lon.=26.579758, Alt.=147.552856m. Speed=16.236000m/h.</desc>
<speed>4.510000</speed>
</trkpt>
<trkpt lat="55.676411" lon="26.579714">
<ele>147.537231</ele>
<time>2010-07-18T12:01:28Z</time>
<desc>lat.=55.676411, lon.=26.579714, Alt.=147.537231m. Speed=14.544000m/h.</desc>
<speed>4.040000</speed>
</trkpt>
<trkpt lat="55.676434" lon="26.579676">
<ele>147.611450</ele>
<time>2010-07-18T12:01:29Z</time>
<desc>lat.=55.676434, lon.=26.579676, Alt.=147.611450m. Speed=13.464000m/h.</desc>
<speed>3.740000</speed>
</trkpt>
<trkpt lat="55.676460" lon="26.579636">
<ele>147.611450</ele>
<time>2010-07-18T12:01:30Z</time>
<desc>lat.=55.676460, lon.=26.579636, Alt.=147.611450m. Speed=12.744000m/h.</desc>
<speed>3.540000</speed>
</trkpt>
<trkpt lat="55.676487" lon="26.579599">
<ele>147.623169</ele>
<time>2010-07-18T12:01:31Z</time>
<desc>lat.=55.676487, lon.=26.579599, Alt.=147.623169m. Speed=13.068000m/h.</desc>
<speed>3.630000</speed>
</trkpt>
<trkpt lat="55.676517" lon="26.579559">
<ele>147.552856</ele>
<time>2010-07-18T12:01:32Z</time>
<desc>lat.=55.676517, lon.=26.579559, Alt.=147.552856m. Speed=14.076000m/h.</desc>
<speed>3.910000</speed>
</trkpt>
<trkpt lat="55.676544" lon="26.579523">
<ele>147.400513</ele>
<time>2010-07-18T12:01:33Z</time>
<desc>lat.=55.676544, lon.=26.579523, Alt.=147.400513m. Speed=14.040000m/h.</desc>
<speed>3.900000</speed>
</trkpt>
<trkpt lat="55.676579" lon="26.579489">
<ele>147.330200</ele>
<time>2010-07-18T12:01:34Z</time>
<desc>lat.=55.676579, lon.=26.579489, Alt.=147.330200m. Speed=13.212000m/h.</desc>
<speed>3.670000</speed>
</trkpt>
<trkpt lat="55.676605" lon="26.579462">
<ele>147.334106</ele>
<time>2010-07-18T12:01:35Z</time>
<desc>lat.=55.676605, lon.=26.579462, Alt.=147.334106m. Speed=12.744000m/h.</desc>
<speed>3.540000</speed>
</trkpt>
<trkpt lat="55.676628" lon="26.579430">
<ele>147.412231</ele>
<time>2010-07-18T12:01:36Z</time>
<desc>lat.=55.676628, lon.=26.579430, Alt.=147.412231m. Speed=11.988000m/h.</desc>
<speed>3.330000</speed>
</trkpt>
<trkpt lat="55.676659" lon="26.579399">
<ele>147.400513</ele>
<time>2010-07-18T12:01:37Z</time>
<desc>lat.=55.676659, lon.=26.579399, Alt.=147.400513m. Speed=10.980000m/h.</desc>
<speed>3.050000</speed>
</trkpt>
<trkpt lat="55.676682" lon="26.579376">
<ele>147.427856</ele>
<time>2010-07-18T12:01:38Z</time>
<desc>lat.=55.676682, lon.=26.579376, Alt.=147.427856m. Speed=11.700000m/h.</desc>
<speed>3.250000</speed>
</trkpt>
<trkpt lat="55.676701" lon="26.579350">
<ele>147.267700</ele>
<time>2010-07-18T12:01:39Z</time>
<desc>lat.=55.676701, lon.=26.579350, Alt.=147.267700m. Speed=10.908000m/h.</desc>
<speed>3.030000</speed>
</trkpt>
<trkpt lat="55.676720" lon="26.579317">
<ele>147.447388</ele>
<time>2010-07-18T12:01:40Z</time>
<desc>lat.=55.676720, lon.=26.579317, Alt.=147.447388m. Speed=12.600000m/h.</desc>
<speed>3.500000</speed>
</trkpt>
<trkpt lat="55.676746" lon="26.579292">
<ele>147.474731</ele>
<time>2010-07-18T12:01:41Z</time>
<desc>lat.=55.676746, lon.=26.579292, Alt.=147.474731m. Speed=11.556000m/h.</desc>
<speed>3.210000</speed>
</trkpt>
<trkpt lat="55.676769" lon="26.579268">
<ele>147.818481</ele>
<time>2010-07-18T12:01:42Z</time>
<desc>lat.=55.676769, lon.=26.579268, Alt.=147.818481m. Speed=11.052000m/h.</desc>
<speed>3.070000</speed>
</trkpt>
<trkpt lat="55.676796" lon="26.579252">
<ele>147.943481</ele>
<time>2010-07-18T12:01:43Z</time>
<desc>lat.=55.676796, lon.=26.579252, Alt.=147.943481m. Speed=10.224000m/h.</desc>
<speed>2.840000</speed>
</trkpt>
<trkpt lat="55.676819" lon="26.579235">
<ele>147.810669</ele>
<time>2010-07-18T12:01:44Z</time>
<desc>lat.=55.676819, lon.=26.579235, Alt.=147.810669m. Speed=10.512000m/h.</desc>
<speed>2.920000</speed>
</trkpt>
<trkpt lat="55.676842" lon="26.579218">
<ele>147.963013</ele>
<time>2010-07-18T12:01:45Z</time>
<desc>lat.=55.676842, lon.=26.579218, Alt.=147.963013m. Speed=11.844000m/h.</desc>
<speed>3.290000</speed>
</trkpt>
<trkpt lat="55.676868" lon="26.579197">
<ele>147.994263</ele>
<time>2010-07-18T12:01:46Z</time>
<desc>lat.=55.676868, lon.=26.579197, Alt.=147.994263m. Speed=12.996000m/h.</desc>
<speed>3.610000</speed>
</trkpt>
<trkpt lat="55.676899" lon="26.579168">
<ele>147.920044</ele>
<time>2010-07-18T12:01:47Z</time>
<desc>lat.=55.676899, lon.=26.579168, Alt.=147.920044m. Speed=13.284000m/h.</desc>
<speed>3.690000</speed>
</trkpt>
<trkpt lat="55.676926" lon="26.579138">
<ele>147.963013</ele>
<time>2010-07-18T12:01:48Z</time>
<desc>lat.=55.676926, lon.=26.579138, Alt.=147.963013m. Speed=13.752000m/h.</desc>
<speed>3.820000</speed>
</trkpt>
<trkpt lat="55.676952" lon="26.579105">
<ele>148.048950</ele>
<time>2010-07-18T12:01:49Z</time>
<desc>lat.=55.676952, lon.=26.579105, Alt.=148.048950m. Speed=13.896000m/h.</desc>
<speed>3.860000</speed>
</trkpt>
<trkpt lat="55.676979" lon="26.579071">
<ele>148.209106</ele>
<time>2010-07-18T12:01:50Z</time>
<desc>lat.=55.676979, lon.=26.579071, Alt.=148.209106m. Speed=13.356000m/h.</desc>
<speed>3.710000</speed>
</trkpt>
<trkpt lat="55.677006" lon="26.579041">
<ele>148.322388</ele>
<time>2010-07-18T12:01:51Z</time>
<desc>lat.=55.677006, lon.=26.579041, Alt.=148.322388m. Speed=12.600000m/h.</desc>
<speed>3.500000</speed>
</trkpt>
<trkpt lat="55.677029" lon="26.579012">
<ele>148.357544</ele>
<time>2010-07-18T12:01:52Z</time>
<desc>lat.=55.677029, lon.=26.579012, Alt.=148.357544m. Speed=11.916000m/h.</desc>
<speed>3.310000</speed>
</trkpt>
<trkpt lat="55.677048" lon="26.578978">
<ele>148.490356</ele>
<time>2010-07-18T12:01:53Z</time>
<desc>lat.=55.677048, lon.=26.578978, Alt.=148.490356m. Speed=11.304000m/h.</desc>
<speed>3.140000</speed>
</trkpt>
<trkpt lat="55.677067" lon="26.578941">
<ele>148.568481</ele>
<time>2010-07-18T12:01:54Z</time>
<desc>lat.=55.677067, lon.=26.578941, Alt.=148.568481m. Speed=11.124000m/h.</desc>
<speed>3.090000</speed>
</trkpt>
<trkpt lat="55.677090" lon="26.578907">
<ele>148.056763</ele>
<time>2010-07-18T12:01:55Z</time>
<desc>lat.=55.677090, lon.=26.578907, Alt.=148.056763m. Speed=9.864000m/h.</desc>
<speed>2.740000</speed>
</trkpt>
<trkpt lat="55.677116" lon="26.578863">
<ele>148.013794</ele>
<time>2010-07-18T12:01:56Z</time>
<desc>lat.=55.677116, lon.=26.578863, Alt.=148.013794m. Speed=12.564000m/h.</desc>
<speed>3.490000</speed>
</trkpt>
<trkpt lat="55.677143" lon="26.578827">
<ele>148.052856</ele>
<time>2010-07-18T12:01:57Z</time>
<desc>lat.=55.677143, lon.=26.578827, Alt.=148.052856m. Speed=13.428000m/h.</desc>
<speed>3.730000</speed>
</trkpt>
<trkpt lat="55.677174" lon="26.578794">
<ele>147.970825</ele>
<time>2010-07-18T12:01:58Z</time>
<desc>lat.=55.677174, lon.=26.578794, Alt.=147.970825m. Speed=14.544000m/h.</desc>
<speed>4.040000</speed>
</trkpt>
<trkpt lat="55.677212" lon="26.578762">
<ele>147.904419</ele>
<time>2010-07-18T12:01:59Z</time>
<desc>lat.=55.677212, lon.=26.578762, Alt.=147.904419m. Speed=15.372000m/h.</desc>
<speed>4.270000</speed>
</trkpt>
<trkpt lat="55.677246" lon="26.578722">
<ele>147.931763</ele>
<time>2010-07-18T12:02:00Z</time>
<desc>lat.=55.677246, lon.=26.578722, Alt.=147.931763m. Speed=15.156000m/h.</desc>
<speed>4.210000</speed>
</trkpt>
<trkpt lat="55.677277" lon="26.578684">
<ele>148.045044</ele>
<time>2010-07-18T12:02:01Z</time>
<desc>lat.=55.677277, lon.=26.578684, Alt.=148.045044m. Speed=14.616000m/h.</desc>
<speed>4.060000</speed>
</trkpt>
<trkpt lat="55.677307" lon="26.578646">
<ele>148.056763</ele>
<time>2010-07-18T12:02:02Z</time>
<desc>lat.=55.677307, lon.=26.578646, Alt.=148.056763m. Speed=13.572000m/h.</desc>
<speed>3.770000</speed>
</trkpt>
<trkpt lat="55.677338" lon="26.578609">
<ele>148.123169</ele>
<time>2010-07-18T12:02:03Z</time>
<desc>lat.=55.677338, lon.=26.578609, Alt.=148.123169m. Speed=15.048000m/h.</desc>
<speed>4.180000</speed>
</trkpt>
<trkpt lat="55.677372" lon="26.578569">
<ele>148.224731</ele>
<time>2010-07-18T12:02:04Z</time>
<desc>lat.=55.677372, lon.=26.578569, Alt.=148.224731m. Speed=15.444000m/h.</desc>
<speed>4.290000</speed>
</trkpt>
<trkpt lat="55.677406" lon="26.578531">
<ele>148.400513</ele>
<time>2010-07-18T12:02:05Z</time>
<desc>lat.=55.677406, lon.=26.578531, Alt.=148.400513m. Speed=14.544000m/h.</desc>
<speed>4.040000</speed>
</trkpt>
<trkpt lat="55.677437" lon="26.578497">
<ele>148.482544</ele>
<time>2010-07-18T12:02:06Z</time>
<desc>lat.=55.677437, lon.=26.578497, Alt.=148.482544m. Speed=13.572000m/h.</desc>
<speed>3.770000</speed>
</trkpt>
<trkpt lat="55.677464" lon="26.578472">
<ele>148.568481</ele>
<time>2010-07-18T12:02:07Z</time>
<desc>lat.=55.677464, lon.=26.578472, Alt.=148.568481m. Speed=12.528000m/h.</desc>
<speed>3.480000</speed>
</trkpt>
<trkpt lat="55.677490" lon="26.578440">
<ele>148.685669</ele>
<time>2010-07-18T12:02:08Z</time>
<desc>lat.=55.677490, lon.=26.578440, Alt.=148.685669m. Speed=11.700000m/h.</desc>
<speed>3.250000</speed>
</trkpt>
<trkpt lat="55.677513" lon="26.578415">
<ele>148.724731</ele>
<time>2010-07-18T12:02:09Z</time>
<desc>lat.=55.677513, lon.=26.578415, Alt.=148.724731m. Speed=10.260000m/h.</desc>
<speed>2.850000</speed>
</trkpt>
<trkpt lat="55.677536" lon="26.578394">
<ele>148.588013</ele>
<time>2010-07-18T12:02:10Z</time>
<desc>lat.=55.677536, lon.=26.578394, Alt.=148.588013m. Speed=10.260000m/h.</desc>
<speed>2.850000</speed>
</trkpt>
<trkpt lat="55.677555" lon="26.578377">
<ele>148.533325</ele>
<time>2010-07-18T12:02:11Z</time>
<desc>lat.=55.677555, lon.=26.578377, Alt.=148.533325m. Speed=9.468000m/h.</desc>
<speed>2.630000</speed>
</trkpt>
<trkpt lat="55.677578" lon="26.578360">
<ele>148.298950</ele>
<time>2010-07-18T12:02:12Z</time>
<desc>lat.=55.677578, lon.=26.578360, Alt.=148.298950m. Speed=8.820000m/h.</desc>
<speed>2.450000</speed>
</trkpt>
<trkpt lat="55.677597" lon="26.578335">
<ele>148.564575</ele>
<time>2010-07-18T12:02:13Z</time>
<desc>lat.=55.677597, lon.=26.578335, Alt.=148.564575m. Speed=9.036000m/h.</desc>
<speed>2.510000</speed>
</trkpt>
<trkpt lat="55.677616" lon="26.578316">
<ele>148.373169</ele>
<time>2010-07-18T12:02:14Z</time>
<desc>lat.=55.677616, lon.=26.578316, Alt.=148.373169m. Speed=9.540000m/h.</desc>
<speed>2.650000</speed>
</trkpt>
<trkpt lat="55.677639" lon="26.578295">
<ele>148.396606</ele>
<time>2010-07-18T12:02:15Z</time>
<desc>lat.=55.677639, lon.=26.578295, Alt.=148.396606m. Speed=11.088000m/h.</desc>
<speed>3.080000</speed>
</trkpt>
<trkpt lat="55.677662" lon="26.578264">
<ele>148.384888</ele>
<time>2010-07-18T12:02:16Z</time>
<desc>lat.=55.677662, lon.=26.578264, Alt.=148.384888m. Speed=12.024000m/h.</desc>
<speed>3.340000</speed>
</trkpt>
<trkpt lat="55.677689" lon="26.578236">
<ele>148.213013</ele>
<time>2010-07-18T12:02:17Z</time>
<desc>lat.=55.677689, lon.=26.578236, Alt.=148.213013m. Speed=12.096000m/h.</desc>
<speed>3.360000</speed>
</trkpt>
<trkpt lat="55.677715" lon="26.578207">
<ele>148.420044</ele>
<time>2010-07-18T12:02:18Z</time>
<desc>lat.=55.677715, lon.=26.578207, Alt.=148.420044m. Speed=13.068000m/h.</desc>
<speed>3.630000</speed>
</trkpt>
<trkpt lat="55.677746" lon="26.578178">
<ele>148.201294</ele>
<time>2010-07-18T12:02:19Z</time>
<desc>lat.=55.677746, lon.=26.578178, Alt.=148.201294m. Speed=13.644000m/h.</desc>
<speed>3.790000</speed>
</trkpt>
<trkpt lat="55.677773" lon="26.578140">
<ele>148.509888</ele>
<time>2010-07-18T12:02:20Z</time>
<desc>lat.=55.677773, lon.=26.578140, Alt.=148.509888m. Speed=13.788000m/h.</desc>
<speed>3.830000</speed>
</trkpt>
<trkpt lat="55.677807" lon="26.578102">
<ele>148.634888</ele>
<time>2010-07-18T12:02:21Z</time>
<desc>lat.=55.677807, lon.=26.578102, Alt.=148.634888m. Speed=14.148000m/h.</desc>
<speed>3.930000</speed>
</trkpt>
<trkpt lat="55.677837" lon="26.578068">
<ele>148.638794</ele>
<time>2010-07-18T12:02:22Z</time>
<desc>lat.=55.677837, lon.=26.578068, Alt.=148.638794m. Speed=14.220000m/h.</desc>
<speed>3.950000</speed>
</trkpt>
<trkpt lat="55.677872" lon="26.578035">
<ele>148.580200</ele>
<time>2010-07-18T12:02:23Z</time>
<desc>lat.=55.677872, lon.=26.578035, Alt.=148.580200m. Speed=14.112000m/h.</desc>
<speed>3.920000</speed>
</trkpt>
<trkpt lat="55.677902" lon="26.578012">
<ele>148.466919</ele>
<time>2010-07-18T12:02:24Z</time>
<desc>lat.=55.677902, lon.=26.578012, Alt.=148.466919m. Speed=13.860000m/h.</desc>
<speed>3.850000</speed>
</trkpt>
<trkpt lat="55.677929" lon="26.577984">
<ele>148.486450</ele>
<time>2010-07-18T12:02:25Z</time>
<desc>lat.=55.677929, lon.=26.577984, Alt.=148.486450m. Speed=12.456000m/h.</desc>
<speed>3.460000</speed>
</trkpt>
<trkpt lat="55.677956" lon="26.577955">
<ele>148.638794</ele>
<time>2010-07-18T12:02:26Z</time>
<desc>lat.=55.677956, lon.=26.577955, Alt.=148.638794m. Speed=11.772000m/h.</desc>
<speed>3.270000</speed>
</trkpt>
<trkpt lat="55.677979" lon="26.577923">
<ele>148.892700</ele>
<time>2010-07-18T12:02:27Z</time>
<desc>lat.=55.677979, lon.=26.577923, Alt.=148.892700m. Speed=12.708000m/h.</desc>
<speed>3.530000</speed>
</trkpt>
<trkpt lat="55.678009" lon="26.577892">
<ele>148.959106</ele>
<time>2010-07-18T12:02:28Z</time>
<desc>lat.=55.678009, lon.=26.577892, Alt.=148.959106m. Speed=13.284000m/h.</desc>
<speed>3.690000</speed>
</trkpt>
<trkpt lat="55.678040" lon="26.577858">
<ele>148.931763</ele>
<time>2010-07-18T12:02:29Z</time>
<desc>lat.=55.678040, lon.=26.577858, Alt.=148.931763m. Speed=14.400000m/h.</desc>
<speed>4.000000</speed>
</trkpt>
<trkpt lat="55.678066" lon="26.577827">
<ele>149.154419</ele>
<time>2010-07-18T12:02:30Z</time>
<desc>lat.=55.678066, lon.=26.577827, Alt.=149.154419m. Speed=13.608000m/h.</desc>
<speed>3.780000</speed>
</trkpt>
<trkpt lat="55.678093" lon="26.577803">
<ele>148.798950</ele>
<time>2010-07-18T12:02:31Z</time>
<desc>lat.=55.678093, lon.=26.577803, Alt.=148.798950m. Speed=12.240000m/h.</desc>
<speed>3.400000</speed>
</trkpt>
<trkpt lat="55.678123" lon="26.577774">
<ele>148.634888</ele>
<time>2010-07-18T12:02:32Z</time>
<desc>lat.=55.678123, lon.=26.577774, Alt.=148.634888m. Speed=13.932000m/h.</desc>
<speed>3.870000</speed>
</trkpt>
<trkpt lat="55.678154" lon="26.577744">
<ele>148.482544</ele>
<time>2010-07-18T12:02:33Z</time>
<desc>lat.=55.678154, lon.=26.577744, Alt.=148.482544m. Speed=14.436000m/h.</desc>
<speed>4.010000</speed>
</trkpt>
<trkpt lat="55.678185" lon="26.577713">
<ele>148.431763</ele>
<time>2010-07-18T12:02:34Z</time>
<desc>lat.=55.678185, lon.=26.577713, Alt.=148.431763m. Speed=14.832000m/h.</desc>
<speed>4.120000</speed>
</trkpt>
<trkpt lat="55.678211" lon="26.577677">
<ele>148.849731</ele>
<time>2010-07-18T12:02:35Z</time>
<desc>lat.=55.678211, lon.=26.577677, Alt.=148.849731m. Speed=15.084000m/h.</desc>
<speed>4.190000</speed>
</trkpt>
<trkpt lat="55.678238" lon="26.577637">
<ele>148.935669</ele>
<time>2010-07-18T12:02:36Z</time>
<desc>lat.=55.678238, lon.=26.577637, Alt.=148.935669m. Speed=14.004000m/h.</desc>
<speed>3.890000</speed>
</trkpt>
<trkpt lat="55.678268" lon="26.577600">
<ele>149.025513</ele>
<time>2010-07-18T12:02:37Z</time>
<desc>lat.=55.678268, lon.=26.577600, Alt.=149.025513m. Speed=13.104000m/h.</desc>
<speed>3.640000</speed>
</trkpt>
<trkpt lat="55.678295" lon="26.577570">
<ele>149.107544</ele>
<time>2010-07-18T12:02:38Z</time>
<desc>lat.=55.678295, lon.=26.577570, Alt.=149.107544m. Speed=12.276000m/h.</desc>
<speed>3.410000</speed>
</trkpt>
<trkpt lat="55.678329" lon="26.577541">
<ele>149.119263</ele>
<time>2010-07-18T12:02:39Z</time>
<desc>lat.=55.678329, lon.=26.577541, Alt.=149.119263m. Speed=12.996000m/h.</desc>
<speed>3.610000</speed>
</trkpt>
<trkpt lat="55.678360" lon="26.577518">
<ele>148.861450</ele>
<time>2010-07-18T12:02:40Z</time>
<desc>lat.=55.678360, lon.=26.577518, Alt.=148.861450m. Speed=14.040000m/h.</desc>
<speed>3.900000</speed>
</trkpt>
<trkpt lat="55.678391" lon="26.577486">
<ele>148.701294</ele>
<time>2010-07-18T12:02:41Z</time>
<desc>lat.=55.678391, lon.=26.577486, Alt.=148.701294m. Speed=13.896000m/h.</desc>
<speed>3.860000</speed>
</trkpt>
<trkpt lat="55.678429" lon="26.577450">
<ele>148.716919</ele>
<time>2010-07-18T12:02:42Z</time>
<desc>lat.=55.678429, lon.=26.577450, Alt.=148.716919m. Speed=14.904000m/h.</desc>
<speed>4.140000</speed>
</trkpt>
<trkpt lat="55.678463" lon="26.577415">
<ele>148.908325</ele>
<time>2010-07-18T12:02:43Z</time>
<desc>lat.=55.678463, lon.=26.577415, Alt.=148.908325m. Speed=14.796000m/h.</desc>
<speed>4.110000</speed>
</trkpt>
<trkpt lat="55.678490" lon="26.577381">
<ele>149.170044</ele>
<time>2010-07-18T12:02:44Z</time>
<desc>lat.=55.678490, lon.=26.577381, Alt.=149.170044m. Speed=15.732000m/h.</desc>
<speed>4.370000</speed>
</trkpt>
<trkpt lat="55.678524" lon="26.577343">
<ele>149.412231</ele>
<time>2010-07-18T12:02:45Z</time>
<desc>lat.=55.678524, lon.=26.577343, Alt.=149.412231m. Speed=16.596001m/h.</desc>
<speed>4.610000</speed>
</trkpt>
<trkpt lat="55.678558" lon="26.577303">
<ele>149.447388</ele>
<time>2010-07-18T12:02:46Z</time>
<desc>lat.=55.678558, lon.=26.577303, Alt.=149.447388m. Speed=15.768000m/h.</desc>
<speed>4.380000</speed>
</trkpt>
<trkpt lat="55.678589" lon="26.577265">
<ele>149.603638</ele>
<time>2010-07-18T12:02:47Z</time>
<desc>lat.=55.678589, lon.=26.577265, Alt.=149.603638m. Speed=15.588000m/h.</desc>
<speed>4.330000</speed>
</trkpt>
<trkpt lat="55.678619" lon="26.577230">
<ele>149.771606</ele>
<time>2010-07-18T12:02:48Z</time>
<desc>lat.=55.678619, lon.=26.577230, Alt.=149.771606m. Speed=14.652000m/h.</desc>
<speed>4.070000</speed>
</trkpt>
<trkpt lat="55.678650" lon="26.577198">
<ele>149.798950</ele>
<time>2010-07-18T12:02:49Z</time>
<desc>lat.=55.678650, lon.=26.577198, Alt.=149.798950m. Speed=14.580000m/h.</desc>
<speed>4.050000</speed>
</trkpt>
<trkpt lat="55.678684" lon="26.577164">
<ele>149.861450</ele>
<time>2010-07-18T12:02:50Z</time>
<desc>lat.=55.678684, lon.=26.577164, Alt.=149.861450m. Speed=15.372000m/h.</desc>
<speed>4.270000</speed>
</trkpt>
<trkpt lat="55.678719" lon="26.577127">
<ele>149.798950</ele>
<time>2010-07-18T12:02:51Z</time>
<desc>lat.=55.678719, lon.=26.577127, Alt.=149.798950m. Speed=16.955999m/h.</desc>
<speed>4.710000</speed>
</trkpt>
<trkpt lat="55.678757" lon="26.577089">
<ele>149.568481</ele>
<time>2010-07-18T12:02:52Z</time>
<desc>lat.=55.678757, lon.=26.577089, Alt.=149.568481m. Speed=17.063999m/h.</desc>
<speed>4.740000</speed>
</trkpt>
<trkpt lat="55.678795" lon="26.577057">
<ele>149.662231</ele>
<time>2010-07-18T12:02:53Z</time>
<desc>lat.=55.678795, lon.=26.577057, Alt.=149.662231m. Speed=17.100000m/h.</desc>
<speed>4.750000</speed>
</trkpt>
<trkpt lat="55.678833" lon="26.577019">
<ele>149.920044</ele>
<time>2010-07-18T12:02:54Z</time>
<desc>lat.=55.678833, lon.=26.577019, Alt.=149.920044m. Speed=15.912000m/h.</desc>
<speed>4.420000</speed>
</trkpt>
<trkpt lat="55.678864" lon="26.576988">
<ele>150.123169</ele>
<time>2010-07-18T12:02:55Z</time>
<desc>lat.=55.678864, lon.=26.576988, Alt.=150.123169m. Speed=14.832000m/h.</desc>
<speed>4.120000</speed>
</trkpt>
<trkpt lat="55.678898" lon="26.576956">
<ele>150.072388</ele>
<time>2010-07-18T12:02:56Z</time>
<desc>lat.=55.678898, lon.=26.576956, Alt.=150.072388m. Speed=13.860000m/h.</desc>
<speed>3.850000</speed>
</trkpt>
<trkpt lat="55.678921" lon="26.576921">
<ele>150.482544</ele>
<time>2010-07-18T12:02:57Z</time>
<desc>lat.=55.678921, lon.=26.576921, Alt.=150.482544m. Speed=13.068000m/h.</desc>
<speed>3.630000</speed>
</trkpt>
<trkpt lat="55.678947" lon="26.576893">
<ele>150.627075</ele>
<time>2010-07-18T12:02:58Z</time>
<desc>lat.=55.678947, lon.=26.576893, Alt.=150.627075m. Speed=13.320000m/h.</desc>
<speed>3.700000</speed>
</trkpt>
<trkpt lat="55.678978" lon="26.576862">
<ele>150.716919</ele>
<time>2010-07-18T12:02:59Z</time>
<desc>lat.=55.678978, lon.=26.576862, Alt.=150.716919m. Speed=13.932000m/h.</desc>
<speed>3.870000</speed>
</trkpt>
<trkpt lat="55.679008" lon="26.576828">
<ele>150.685669</ele>
<time>2010-07-18T12:03:00Z</time>
<desc>lat.=55.679008, lon.=26.576828, Alt.=150.685669m. Speed=14.760000m/h.</desc>
<speed>4.100000</speed>
</trkpt>
<trkpt lat="55.679039" lon="26.576797">
<ele>150.623169</ele>
<time>2010-07-18T12:03:01Z</time>
<desc>lat.=55.679039, lon.=26.576797, Alt.=150.623169m. Speed=15.732000m/h.</desc>
<speed>4.370000</speed>
</trkpt>
<trkpt lat="55.679077" lon="26.576765">
<ele>150.400513</ele>
<time>2010-07-18T12:03:02Z</time>
<desc>lat.=55.679077, lon.=26.576765, Alt.=150.400513m. Speed=15.336000m/h.</desc>
<speed>4.260000</speed>
</trkpt>
<trkpt lat="55.679111" lon="26.576729">
<ele>150.103638</ele>
<time>2010-07-18T12:03:03Z</time>
<desc>lat.=55.679111, lon.=26.576729, Alt.=150.103638m. Speed=15.264000m/h.</desc>
<speed>4.240000</speed>
</trkpt>
<trkpt lat="55.679142" lon="26.576691">
<ele>150.306763</ele>
<time>2010-07-18T12:03:04Z</time>
<desc>lat.=55.679142, lon.=26.576691, Alt.=150.306763m. Speed=15.192000m/h.</desc>
<speed>4.220000</speed>
</trkpt>
<trkpt lat="55.679176" lon="26.576649">
<ele>150.334106</ele>
<time>2010-07-18T12:03:05Z</time>
<desc>lat.=55.679176, lon.=26.576649, Alt.=150.334106m. Speed=16.559999m/h.</desc>
<speed>4.600000</speed>
</trkpt>
<trkpt lat="55.679214" lon="26.576611">
<ele>150.060669</ele>
<time>2010-07-18T12:03:06Z</time>
<desc>lat.=55.679214, lon.=26.576611, Alt.=150.060669m. Speed=17.280001m/h.</desc>
<speed>4.800000</speed>
</trkpt>
<trkpt lat="55.679253" lon="26.576572">
<ele>150.037231</ele>
<time>2010-07-18T12:03:07Z</time>
<desc>lat.=55.679253, lon.=26.576572, Alt.=150.037231m. Speed=16.559999m/h.</desc>
<speed>4.600000</speed>
</trkpt>
<trkpt lat="55.679283" lon="26.576540">
<ele>150.091919</ele>
<time>2010-07-18T12:03:08Z</time>
<desc>lat.=55.679283, lon.=26.576540, Alt.=150.091919m. Speed=15.192000m/h.</desc>
<speed>4.220000</speed>
</trkpt>
<trkpt lat="55.679321" lon="26.576500">
<ele>149.877075</ele>
<time>2010-07-18T12:03:09Z</time>
<desc>lat.=55.679321, lon.=26.576500, Alt.=149.877075m. Speed=15.372000m/h.</desc>
<speed>4.270000</speed>
</trkpt>
<trkpt lat="55.679359" lon="26.576454">
<ele>149.759888</ele>
<time>2010-07-18T12:03:10Z</time>
<desc>lat.=55.679359, lon.=26.576454, Alt.=149.759888m. Speed=17.172001m/h.</desc>
<speed>4.770000</speed>
</trkpt>
<trkpt lat="55.679394" lon="26.576416">
<ele>149.791138</ele>
<time>2010-07-18T12:03:11Z</time>
<desc>lat.=55.679394, lon.=26.576416, Alt.=149.791138m. Speed=16.740000m/h.</desc>
<speed>4.650000</speed>
</trkpt>
<trkpt lat="55.679432" lon="26.576382">
<ele>149.701294</ele>
<time>2010-07-18T12:03:12Z</time>
<desc>lat.=55.679432, lon.=26.576382, Alt.=149.701294m. Speed=15.912000m/h.</desc>
<speed>4.420000</speed>
</trkpt>
<trkpt lat="55.679474" lon="26.576351">
<ele>149.552856</ele>
<time>2010-07-18T12:03:13Z</time>
<desc>lat.=55.679474, lon.=26.576351, Alt.=149.552856m. Speed=15.804000m/h.</desc>
<speed>4.390000</speed>
</trkpt>
<trkpt lat="55.679512" lon="26.576321">
<ele>149.537231</ele>
<time>2010-07-18T12:03:14Z</time>
<desc>lat.=55.679512, lon.=26.576321, Alt.=149.537231m. Speed=16.632000m/h.</desc>
<speed>4.620000</speed>
</trkpt>
<trkpt lat="55.679546" lon="26.576283">
<ele>149.283325</ele>
<time>2010-07-18T12:03:15Z</time>
<desc>lat.=55.679546, lon.=26.576283, Alt.=149.283325m. Speed=16.992001m/h.</desc>
<speed>4.720000</speed>
</trkpt>
<trkpt lat="55.679581" lon="26.576244">
<ele>149.400513</ele>
<time>2010-07-18T12:03:16Z</time>
<desc>lat.=55.679581, lon.=26.576244, Alt.=149.400513m. Speed=17.424000m/h.</desc>
<speed>4.840000</speed>
</trkpt>
<trkpt lat="55.679615" lon="26.576208">
<ele>149.537231</ele>
<time>2010-07-18T12:03:17Z</time>
<desc>lat.=55.679615, lon.=26.576208, Alt.=149.537231m. Speed=15.660000m/h.</desc>
<speed>4.350000</speed>
</trkpt>
<trkpt lat="55.679649" lon="26.576170">
<ele>149.623169</ele>
<time>2010-07-18T12:03:18Z</time>
<desc>lat.=55.679649, lon.=26.576170, Alt.=149.623169m. Speed=15.012000m/h.</desc>
<speed>4.170000</speed>
</trkpt>
<trkpt lat="55.679676" lon="26.576138">
<ele>149.732544</ele>
<time>2010-07-18T12:03:19Z</time>
<desc>lat.=55.679676, lon.=26.576138, Alt.=149.732544m. Speed=14.148000m/h.</desc>
<speed>3.930000</speed>
</trkpt>
<trkpt lat="55.679707" lon="26.576105">
<ele>149.705200</ele>
<time>2010-07-18T12:03:20Z</time>
<desc>lat.=55.679707, lon.=26.576105, Alt.=149.705200m. Speed=13.500000m/h.</desc>
<speed>3.750000</speed>
</trkpt>
<trkpt lat="55.679737" lon="26.576078">
<ele>149.720825</ele>
<time>2010-07-18T12:03:21Z</time>
<desc>lat.=55.679737, lon.=26.576078, Alt.=149.720825m. Speed=15.768000m/h.</desc>
<speed>4.380000</speed>
</trkpt>
<trkpt lat="55.679775" lon="26.576044">
<ele>149.681763</ele>
<time>2010-07-18T12:03:22Z</time>
<desc>lat.=55.679775, lon.=26.576044, Alt.=149.681763m. Speed=15.552000m/h.</desc>
<speed>4.320000</speed>
</trkpt>
<trkpt lat="55.679806" lon="26.576008">
<ele>149.642700</ele>
<time>2010-07-18T12:03:23Z</time>
<desc>lat.=55.679806, lon.=26.576008, Alt.=149.642700m. Speed=16.271999m/h.</desc>
<speed>4.520000</speed>
</trkpt>
<trkpt lat="55.679840" lon="26.575974">
<ele>149.763794</ele>
<time>2010-07-18T12:03:24Z</time>
<desc>lat.=55.679840, lon.=26.575974, Alt.=149.763794m. Speed=15.912000m/h.</desc>
<speed>4.420000</speed>
</trkpt>
<trkpt lat="55.679878" lon="26.575939">
<ele>149.826294</ele>
<time>2010-07-18T12:03:25Z</time>
<desc>lat.=55.679878, lon.=26.575939, Alt.=149.826294m. Speed=16.128000m/h.</desc>
<speed>4.480000</speed>
</trkpt>
<trkpt lat="55.679909" lon="26.575907">
<ele>149.869263</ele>
<time>2010-07-18T12:03:26Z</time>
<desc>lat.=55.679909, lon.=26.575907, Alt.=149.869263m. Speed=16.236000m/h.</desc>
<speed>4.510000</speed>
</trkpt>
<trkpt lat="55.679943" lon="26.575872">
<ele>149.994263</ele>
<time>2010-07-18T12:03:27Z</time>
<desc>lat.=55.679943, lon.=26.575872, Alt.=149.994263m. Speed=16.308001m/h.</desc>
<speed>4.530000</speed>
</trkpt>
<trkpt lat="55.679977" lon="26.575834">
<ele>150.041138</ele>
<time>2010-07-18T12:03:28Z</time>
<desc>lat.=55.679977, lon.=26.575834, Alt.=150.041138m. Speed=15.876000m/h.</desc>
<speed>4.410000</speed>
</trkpt>
<trkpt lat="55.680012" lon="26.575792">
<ele>149.861450</ele>
<time>2010-07-18T12:03:29Z</time>
<desc>lat.=55.680012, lon.=26.575792, Alt.=149.861450m. Speed=17.459999m/h.</desc>
<speed>4.850000</speed>
</trkpt>
<trkpt lat="55.680050" lon="26.575752">
<ele>149.880981</ele>
<time>2010-07-18T12:03:30Z</time>
<desc>lat.=55.680050, lon.=26.575752, Alt.=149.880981m. Speed=17.388000m/h.</desc>
<speed>4.830000</speed>
</trkpt>
<trkpt lat="55.680088" lon="26.575718">
<ele>149.931763</ele>
<time>2010-07-18T12:03:31Z</time>
<desc>lat.=55.680088, lon.=26.575718, Alt.=149.931763m. Speed=16.775999m/h.</desc>
<speed>4.660000</speed>
</trkpt>
<trkpt lat="55.680122" lon="26.575680">
<ele>150.068481</ele>
<time>2010-07-18T12:03:32Z</time>
<desc>lat.=55.680122, lon.=26.575680, Alt.=150.068481m. Speed=16.308001m/h.</desc>
<speed>4.530000</speed>
</trkpt>
<trkpt lat="55.680161" lon="26.575645">
<ele>148.966919</ele>
<time>2010-07-18T12:03:33Z</time>
<desc>lat.=55.680161, lon.=26.575645, Alt.=148.966919m. Speed=16.775999m/h.</desc>
<speed>4.660000</speed>
</trkpt>
<trkpt lat="55.680195" lon="26.575605">
<ele>148.568481</ele>
<time>2010-07-18T12:03:34Z</time>
<desc>lat.=55.680195, lon.=26.575605, Alt.=148.568481m. Speed=15.804000m/h.</desc>
<speed>4.390000</speed>
</trkpt>
<trkpt lat="55.680225" lon="26.575567">
<ele>148.326294</ele>
<time>2010-07-18T12:03:35Z</time>
<desc>lat.=55.680225, lon.=26.575567, Alt.=148.326294m. Speed=15.912000m/h.</desc>
<speed>4.420000</speed>
</trkpt>
<trkpt lat="55.680256" lon="26.575525">
<ele>147.920044</ele>
<time>2010-07-18T12:03:36Z</time>
<desc>lat.=55.680256, lon.=26.575525, Alt.=147.920044m. Speed=15.696000m/h.</desc>
<speed>4.360000</speed>
</trkpt>
<trkpt lat="55.680294" lon="26.575483">
<ele>148.037231</ele>
<time>2010-07-18T12:03:37Z</time>
<desc>lat.=55.680294, lon.=26.575483, Alt.=148.037231m. Speed=17.280001m/h.</desc>
<speed>4.800000</speed>
</trkpt>
<trkpt lat="55.680336" lon="26.575445">
<ele>148.170044</ele>
<time>2010-07-18T12:03:38Z</time>
<desc>lat.=55.680336, lon.=26.575445, Alt.=148.170044m. Speed=17.927999m/h.</desc>
<speed>4.980000</speed>
</trkpt>
<trkpt lat="55.680378" lon="26.575405">
<ele>148.314575</ele>
<time>2010-07-18T12:03:39Z</time>
<desc>lat.=55.680378, lon.=26.575405, Alt.=148.314575m. Speed=17.351999m/h.</desc>
<speed>4.820000</speed>
</trkpt>
<trkpt lat="55.680412" lon="26.575365">
<ele>148.529419</ele>
<time>2010-07-18T12:03:40Z</time>
<desc>lat.=55.680412, lon.=26.575365, Alt.=148.529419m. Speed=16.775999m/h.</desc>
<speed>4.660000</speed>
</trkpt>
<trkpt lat="55.680450" lon="26.575327">
<ele>148.607544</ele>
<time>2010-07-18T12:03:41Z</time>
<desc>lat.=55.680450, lon.=26.575327, Alt.=148.607544m. Speed=16.308001m/h.</desc>
<speed>4.530000</speed>
</trkpt>
<trkpt lat="55.680489" lon="26.575287">
<ele>148.111450</ele>
<time>2010-07-18T12:03:42Z</time>
<desc>lat.=55.680489, lon.=26.575287, Alt.=148.111450m. Speed=16.884001m/h.</desc>
<speed>4.690000</speed>
</trkpt>
<trkpt lat="55.680531" lon="26.575245">
<ele>148.170044</ele>
<time>2010-07-18T12:03:43Z</time>
<desc>lat.=55.680531, lon.=26.575245, Alt.=148.170044m. Speed=16.920000m/h.</desc>
<speed>4.700000</speed>
</trkpt>
<trkpt lat="55.680569" lon="26.575205">
<ele>148.408325</ele>
<time>2010-07-18T12:03:44Z</time>
<desc>lat.=55.680569, lon.=26.575205, Alt.=148.408325m. Speed=18.143999m/h.</desc>
<speed>5.040000</speed>
</trkpt>
<trkpt lat="55.680607" lon="26.575161">
<ele>148.420044</ele>
<time>2010-07-18T12:03:45Z</time>
<desc>lat.=55.680607, lon.=26.575161, Alt.=148.420044m. Speed=17.243999m/h.</desc>
<speed>4.790000</speed>
</trkpt>
<trkpt lat="55.680641" lon="26.575115">
<ele>148.545044</ele>
<time>2010-07-18T12:03:46Z</time>
<desc>lat.=55.680641, lon.=26.575115, Alt.=148.545044m. Speed=17.136000m/h.</desc>
<speed>4.760000</speed>
</trkpt>
<trkpt lat="55.680676" lon="26.575077">
<ele>148.701294</ele>
<time>2010-07-18T12:03:47Z</time>
<desc>lat.=55.680676, lon.=26.575077, Alt.=148.701294m. Speed=16.128000m/h.</desc>
<speed>4.480000</speed>
</trkpt>
<trkpt lat="55.680710" lon="26.575035">
<ele>149.005981</ele>
<time>2010-07-18T12:03:48Z</time>
<desc>lat.=55.680710, lon.=26.575035, Alt.=149.005981m. Speed=15.444000m/h.</desc>
<speed>4.290000</speed>
</trkpt>
<trkpt lat="55.680740" lon="26.574995">
<ele>149.111450</ele>
<time>2010-07-18T12:03:49Z</time>
<desc>lat.=55.680740, lon.=26.574995, Alt.=149.111450m. Speed=15.948000m/h.</desc>
<speed>4.430000</speed>
</trkpt>
<trkpt lat="55.680771" lon="26.574957">
<ele>149.283325</ele>
<time>2010-07-18T12:03:50Z</time>
<desc>lat.=55.680771, lon.=26.574957, Alt.=149.283325m. Speed=15.516000m/h.</desc>
<speed>4.310000</speed>
</trkpt>
<trkpt lat="55.680809" lon="26.574919">
<ele>149.716919</ele>
<time>2010-07-18T12:03:51Z</time>
<desc>lat.=55.680809, lon.=26.574919, Alt.=149.716919m. Speed=15.660000m/h.</desc>
<speed>4.350000</speed>
</trkpt>
<trkpt lat="55.680840" lon="26.574877">
<ele>149.955200</ele>
<time>2010-07-18T12:03:52Z</time>
<desc>lat.=55.680840, lon.=26.574877, Alt.=149.955200m. Speed=16.488001m/h.</desc>
<speed>4.580000</speed>
</trkpt>
<trkpt lat="55.680878" lon="26.574839">
<ele>149.947388</ele>
<time>2010-07-18T12:03:53Z</time>
<desc>lat.=55.680878, lon.=26.574839, Alt.=149.947388m. Speed=17.280001m/h.</desc>
<speed>4.800000</speed>
</trkpt>
<trkpt lat="55.680920" lon="26.574799">
<ele>150.267700</ele>
<time>2010-07-18T12:03:54Z</time>
<desc>lat.=55.680920, lon.=26.574799, Alt.=150.267700m. Speed=17.712000m/h.</desc>
<speed>4.920000</speed>
</trkpt>
<trkpt lat="55.680958" lon="26.574760">
<ele>150.373169</ele>
<time>2010-07-18T12:03:55Z</time>
<desc>lat.=55.680958, lon.=26.574760, Alt.=150.373169m. Speed=19.007999m/h.</desc>
<speed>5.280000</speed>
</trkpt>
<trkpt lat="55.681000" lon="26.574718">
<ele>150.283325</ele>
<time>2010-07-18T12:03:56Z</time>
<desc>lat.=55.681000, lon.=26.574718, Alt.=150.283325m. Speed=17.459999m/h.</desc>
<speed>4.850000</speed>
</trkpt>
<trkpt lat="55.681046" lon="26.574682">
<ele>150.060669</ele>
<time>2010-07-18T12:03:57Z</time>
<desc>lat.=55.681046, lon.=26.574682, Alt.=150.060669m. Speed=18.000000m/h.</desc>
<speed>5.000000</speed>
</trkpt>
<trkpt lat="55.681095" lon="26.574650">
<ele>150.666138</ele>
<time>2010-07-18T12:03:58Z</time>
<desc>lat.=55.681095, lon.=26.574650, Alt.=150.666138m. Speed=17.316000m/h.</desc>
<speed>4.810000</speed>
</trkpt>
<trkpt lat="55.681129" lon="26.574614">
<ele>150.912231</ele>
<time>2010-07-18T12:03:59Z</time>
<desc>lat.=55.681129, lon.=26.574614, Alt.=150.912231m. Speed=16.452000m/h.</desc>
<speed>4.570000</speed>
</trkpt>
<trkpt lat="55.681164" lon="26.574568">
<ele>151.982544</ele>
<time>2010-07-18T12:04:00Z</time>
<desc>lat.=55.681164, lon.=26.574568, Alt.=151.982544m. Speed=15.876000m/h.</desc>
<speed>4.410000</speed>
</trkpt>
<trkpt lat="55.681194" lon="26.574526">
<ele>152.498169</ele>
<time>2010-07-18T12:04:01Z</time>
<desc>lat.=55.681194, lon.=26.574526, Alt.=152.498169m. Speed=15.588000m/h.</desc>
<speed>4.330000</speed>
</trkpt>
<trkpt lat="55.681229" lon="26.574486">
<ele>152.798950</ele>
<time>2010-07-18T12:04:02Z</time>
<desc>lat.=55.681229, lon.=26.574486, Alt.=152.798950m. Speed=18.108000m/h.</desc>
<speed>5.030000</speed>
</trkpt>
<trkpt lat="55.681271" lon="26.574448">
<ele>153.193481</ele>
<time>2010-07-18T12:04:03Z</time>
<desc>lat.=55.681271, lon.=26.574448, Alt.=153.193481m. Speed=18.288000m/h.</desc>
<speed>5.080000</speed>
</trkpt>
<trkpt lat="55.681305" lon="26.574408">
<ele>153.779419</ele>
<time>2010-07-18T12:04:04Z</time>
<desc>lat.=55.681305, lon.=26.574408, Alt.=153.779419m. Speed=16.884001m/h.</desc>
<speed>4.690000</speed>
</trkpt>
<trkpt lat="55.681335" lon="26.574369">
<ele>154.005981</ele>
<time>2010-07-18T12:04:05Z</time>
<desc>lat.=55.681335, lon.=26.574369, Alt.=154.005981m. Speed=16.812000m/h.</desc>
<speed>4.670000</speed>
</trkpt>
<trkpt lat="55.681370" lon="26.574326">
<ele>154.572388</ele>
<time>2010-07-18T12:04:06Z</time>
<desc>lat.=55.681370, lon.=26.574326, Alt.=154.572388m. Speed=17.639999m/h.</desc>
<speed>4.900000</speed>
</trkpt>
<trkpt lat="55.681408" lon="26.574280">
<ele>155.103638</ele>
<time>2010-07-18T12:04:07Z</time>
<desc>lat.=55.681408, lon.=26.574280, Alt.=155.103638m. Speed=16.955999m/h.</desc>
<speed>4.710000</speed>
</trkpt>
<trkpt lat="55.681442" lon="26.574234">
<ele>155.412231</ele>
<time>2010-07-18T12:04:08Z</time>
<desc>lat.=55.681442, lon.=26.574234, Alt.=155.412231m. Speed=17.459999m/h.</desc>
<speed>4.850000</speed>
</trkpt>
<trkpt lat="55.681480" lon="26.574190">
<ele>155.283325</ele>
<time>2010-07-18T12:04:09Z</time>
<desc>lat.=55.681480, lon.=26.574190, Alt.=155.283325m. Speed=17.747999m/h.</desc>
<speed>4.930000</speed>
</trkpt>
<trkpt lat="55.681519" lon="26.574148">
<ele>155.658325</ele>
<time>2010-07-18T12:04:10Z</time>
<desc>lat.=55.681519, lon.=26.574148, Alt.=155.658325m. Speed=17.424000m/h.</desc>
<speed>4.840000</speed>
</trkpt>
<trkpt lat="55.681557" lon="26.574112">
<ele>154.783325</ele>
<time>2010-07-18T12:04:11Z</time>
<desc>lat.=55.681557, lon.=26.574112, Alt.=154.783325m. Speed=17.424000m/h.</desc>
<speed>4.840000</speed>
</trkpt>
<trkpt lat="55.681591" lon="26.574070">
<ele>154.763794</ele>
<time>2010-07-18T12:04:12Z</time>
<desc>lat.=55.681591, lon.=26.574070, Alt.=154.763794m. Speed=17.351999m/h.</desc>
<speed>4.820000</speed>
</trkpt>
<trkpt lat="55.681625" lon="26.574034">
<ele>154.560669</ele>
<time>2010-07-18T12:04:13Z</time>
<desc>lat.=55.681625, lon.=26.574034, Alt.=154.560669m. Speed=16.128000m/h.</desc>
<speed>4.480000</speed>
</trkpt>
<trkpt lat="55.681664" lon="26.573997">
<ele>154.498169</ele>
<time>2010-07-18T12:04:14Z</time>
<desc>lat.=55.681664, lon.=26.573997, Alt.=154.498169m. Speed=18.288000m/h.</desc>
<speed>5.080000</speed>
</trkpt>
<trkpt lat="55.681702" lon="26.573957">
<ele>154.623169</ele>
<time>2010-07-18T12:04:15Z</time>
<desc>lat.=55.681702, lon.=26.573957, Alt.=154.623169m. Speed=17.243999m/h.</desc>
<speed>4.790000</speed>
</trkpt>
<trkpt lat="55.681736" lon="26.573919">
<ele>154.423950</ele>
<time>2010-07-18T12:04:16Z</time>
<desc>lat.=55.681736, lon.=26.573919, Alt.=154.423950m. Speed=16.920000m/h.</desc>
<speed>4.700000</speed>
</trkpt>
<trkpt lat="55.681774" lon="26.573879">
<ele>154.056763</ele>
<time>2010-07-18T12:04:17Z</time>
<desc>lat.=55.681774, lon.=26.573879, Alt.=154.056763m. Speed=15.660000m/h.</desc>
<speed>4.350000</speed>
</trkpt>
<trkpt lat="55.681808" lon="26.573841">
<ele>154.127075</ele>
<time>2010-07-18T12:04:18Z</time>
<desc>lat.=55.681808, lon.=26.573841, Alt.=154.127075m. Speed=16.056000m/h.</desc>
<speed>4.460000</speed>
</trkpt>
<trkpt lat="55.681843" lon="26.573805">
<ele>154.283325</ele>
<time>2010-07-18T12:04:19Z</time>
<desc>lat.=55.681843, lon.=26.573805, Alt.=154.283325m. Speed=15.480000m/h.</desc>
<speed>4.300000</speed>
</trkpt>
<trkpt lat="55.681877" lon="26.573769">
<ele>154.322388</ele>
<time>2010-07-18T12:04:20Z</time>
<desc>lat.=55.681877, lon.=26.573769, Alt.=154.322388m. Speed=15.480000m/h.</desc>
<speed>4.300000</speed>
</trkpt>
<trkpt lat="55.681915" lon="26.573734">
<ele>154.658325</ele>
<time>2010-07-18T12:04:21Z</time>
<desc>lat.=55.681915, lon.=26.573734, Alt.=154.658325m. Speed=15.084000m/h.</desc>
<speed>4.190000</speed>
</trkpt>
<trkpt lat="55.681946" lon="26.573700">
<ele>155.197388</ele>
<time>2010-07-18T12:04:22Z</time>
<desc>lat.=55.681946, lon.=26.573700, Alt.=155.197388m. Speed=15.624000m/h.</desc>
<speed>4.340000</speed>
</trkpt>
<trkpt lat="55.681980" lon="26.573658">
<ele>155.045044</ele>
<time>2010-07-18T12:04:23Z</time>
<desc>lat.=55.681980, lon.=26.573658, Alt.=155.045044m. Speed=15.804000m/h.</desc>
<speed>4.390000</speed>
</trkpt>
<trkpt lat="55.682007" lon="26.573612">
<ele>154.892700</ele>
<time>2010-07-18T12:04:24Z</time>
<desc>lat.=55.682007, lon.=26.573612, Alt.=154.892700m. Speed=15.660000m/h.</desc>
<speed>4.350000</speed>
</trkpt>
<trkpt lat="55.682034" lon="26.573578">
<ele>154.787231</ele>
<time>2010-07-18T12:04:25Z</time>
<desc>lat.=55.682034, lon.=26.573578, Alt.=154.787231m. Speed=14.616000m/h.</desc>
<speed>4.060000</speed>
</trkpt>
<trkpt lat="55.682072" lon="26.573549">
<ele>154.056763</ele>
<time>2010-07-18T12:04:26Z</time>
<desc>lat.=55.682072, lon.=26.573549, Alt.=154.056763m. Speed=15.048000m/h.</desc>
<speed>4.180000</speed>
</trkpt>
<trkpt lat="55.682110" lon="26.573523">
<ele>153.685669</ele>
<time>2010-07-18T12:04:27Z</time>
<desc>lat.=55.682110, lon.=26.573523, Alt.=153.685669m. Speed=15.624000m/h.</desc>
<speed>4.340000</speed>
</trkpt>
<trkpt lat="55.682148" lon="26.573484">
<ele>153.634888</ele>
<time>2010-07-18T12:04:28Z</time>
<desc>lat.=55.682148, lon.=26.573484, Alt.=153.634888m. Speed=16.128000m/h.</desc>
<speed>4.480000</speed>
</trkpt>
<trkpt lat="55.682186" lon="26.573444">
<ele>153.900513</ele>
<time>2010-07-18T12:04:29Z</time>
<desc>lat.=55.682186, lon.=26.573444, Alt.=153.900513m. Speed=17.604000m/h.</desc>
<speed>4.890000</speed>
</trkpt>
<trkpt lat="55.682224" lon="26.573404">
<ele>154.209106</ele>
<time>2010-07-18T12:04:30Z</time>
<desc>lat.=55.682224, lon.=26.573404, Alt.=154.209106m. Speed=16.955999m/h.</desc>
<speed>4.710000</speed>
</trkpt>
<trkpt lat="55.682262" lon="26.573364">
<ele>154.267700</ele>
<time>2010-07-18T12:04:31Z</time>
<desc>lat.=55.682262, lon.=26.573364, Alt.=154.267700m. Speed=17.351999m/h.</desc>
<speed>4.820000</speed>
</trkpt>
<trkpt lat="55.682301" lon="26.573326">
<ele>154.607544</ele>
<time>2010-07-18T12:04:32Z</time>
<desc>lat.=55.682301, lon.=26.573326, Alt.=154.607544m. Speed=16.236000m/h.</desc>
<speed>4.510000</speed>
</trkpt>
<trkpt lat="55.682335" lon="26.573294">
<ele>154.795044</ele>
<time>2010-07-18T12:04:33Z</time>
<desc>lat.=55.682335, lon.=26.573294, Alt.=154.795044m. Speed=16.596001m/h.</desc>
<speed>4.610000</speed>
</trkpt>
<trkpt lat="55.682369" lon="26.573263">
<ele>154.841919</ele>
<time>2010-07-18T12:04:34Z</time>
<desc>lat.=55.682369, lon.=26.573263, Alt.=154.841919m. Speed=15.840000m/h.</desc>
<speed>4.400000</speed>
</trkpt>
<trkpt lat="55.682404" lon="26.573229">
<ele>154.923950</ele>
<time>2010-07-18T12:04:35Z</time>
<desc>lat.=55.682404, lon.=26.573229, Alt.=154.923950m. Speed=15.120000m/h.</desc>
<speed>4.200000</speed>
</trkpt>
<trkpt lat="55.682434" lon="26.573198">
<ele>154.920044</ele>
<time>2010-07-18T12:04:36Z</time>
<desc>lat.=55.682434, lon.=26.573198, Alt.=154.920044m. Speed=14.328000m/h.</desc>
<speed>3.980000</speed>
</trkpt>
<trkpt lat="55.682461" lon="26.573166">
<ele>154.455200</ele>
<time>2010-07-18T12:04:37Z</time>
<desc>lat.=55.682461, lon.=26.573166, Alt.=154.455200m. Speed=14.616000m/h.</desc>
<speed>4.060000</speed>
</trkpt>
<trkpt lat="55.682491" lon="26.573135">
<ele>154.263794</ele>
<time>2010-07-18T12:04:38Z</time>
<desc>lat.=55.682491, lon.=26.573135, Alt.=154.263794m. Speed=14.868000m/h.</desc>
<speed>4.130000</speed>
</trkpt>
<trkpt lat="55.682522" lon="26.573105">
<ele>153.838013</ele>
<time>2010-07-18T12:04:39Z</time>
<desc>lat.=55.682522, lon.=26.573105, Alt.=153.838013m. Speed=15.012000m/h.</desc>
<speed>4.170000</speed>
</trkpt>
<trkpt lat="55.682556" lon="26.573074">
<ele>153.935669</ele>
<time>2010-07-18T12:04:40Z</time>
<desc>lat.=55.682556, lon.=26.573074, Alt.=153.935669m. Speed=12.672000m/h.</desc>
<speed>3.520000</speed>
</trkpt>
<trkpt lat="55.682587" lon="26.573046">
<ele>153.904419</ele>
<time>2010-07-18T12:04:41Z</time>
<desc>lat.=55.682587, lon.=26.573046, Alt.=153.904419m. Speed=14.472000m/h.</desc>
<speed>4.020000</speed>
</trkpt>
<trkpt lat="55.682613" lon="26.573008">
<ele>153.849731</ele>
<time>2010-07-18T12:04:42Z</time>
<desc>lat.=55.682613, lon.=26.573008, Alt.=153.849731m. Speed=14.004000m/h.</desc>
<speed>3.890000</speed>
</trkpt>
<trkpt lat="55.682632" lon="26.572964">
<ele>153.681763</ele>
<time>2010-07-18T12:04:43Z</time>
<desc>lat.=55.682632, lon.=26.572964, Alt.=153.681763m. Speed=14.580000m/h.</desc>
<speed>4.050000</speed>
</trkpt>
<trkpt lat="55.682663" lon="26.572927">
<ele>153.783325</ele>
<time>2010-07-18T12:04:44Z</time>
<desc>lat.=55.682663, lon.=26.572927, Alt.=153.783325m. Speed=16.344000m/h.</desc>
<speed>4.540000</speed>
</trkpt>
<trkpt lat="55.682701" lon="26.572893">
<ele>154.193481</ele>
<time>2010-07-18T12:04:45Z</time>
<desc>lat.=55.682701, lon.=26.572893, Alt.=154.193481m. Speed=15.552000m/h.</desc>
<speed>4.320000</speed>
</trkpt>
<trkpt lat="55.682735" lon="26.572863">
<ele>154.431763</ele>
<time>2010-07-18T12:04:46Z</time>
<desc>lat.=55.682735, lon.=26.572863, Alt.=154.431763m. Speed=15.696000m/h.</desc>
<speed>4.360000</speed>
</trkpt>
<trkpt lat="55.682766" lon="26.572826">
<ele>154.763794</ele>
<time>2010-07-18T12:04:47Z</time>
<desc>lat.=55.682766, lon.=26.572826, Alt.=154.763794m. Speed=15.480000m/h.</desc>
<speed>4.300000</speed>
</trkpt>
<trkpt lat="55.682796" lon="26.572784">
<ele>155.099731</ele>
<time>2010-07-18T12:04:48Z</time>
<desc>lat.=55.682796, lon.=26.572784, Alt.=155.099731m. Speed=16.056000m/h.</desc>
<speed>4.460000</speed>
</trkpt>
<trkpt lat="55.682827" lon="26.572742">
<ele>155.396606</ele>
<time>2010-07-18T12:04:49Z</time>
<desc>lat.=55.682827, lon.=26.572742, Alt.=155.396606m. Speed=16.128000m/h.</desc>
<speed>4.480000</speed>
</trkpt>
<trkpt lat="55.682861" lon="26.572704">
<ele>155.611450</ele>
<time>2010-07-18T12:04:50Z</time>
<desc>lat.=55.682861, lon.=26.572704, Alt.=155.611450m. Speed=15.984000m/h.</desc>
<speed>4.440000</speed>
</trkpt>
<trkpt lat="55.682899" lon="26.572668">
<ele>155.990356</ele>
<time>2010-07-18T12:04:51Z</time>
<desc>lat.=55.682899, lon.=26.572668, Alt.=155.990356m. Speed=17.100000m/h.</desc>
<speed>4.750000</speed>
</trkpt>
<trkpt lat="55.682938" lon="26.572641">
<ele>154.670044</ele>
<time>2010-07-18T12:04:52Z</time>
<desc>lat.=55.682938, lon.=26.572641, Alt.=154.670044m. Speed=16.020000m/h.</desc>
<speed>4.450000</speed>
</trkpt>
<trkpt lat="55.682972" lon="26.572603">
<ele>154.459106</ele>
<time>2010-07-18T12:04:53Z</time>
<desc>lat.=55.682972, lon.=26.572603, Alt.=154.459106m. Speed=16.920000m/h.</desc>
<speed>4.700000</speed>
</trkpt>
<trkpt lat="55.683014" lon="26.572563">
<ele>154.384888</ele>
<time>2010-07-18T12:04:54Z</time>
<desc>lat.=55.683014, lon.=26.572563, Alt.=154.384888m. Speed=17.100000m/h.</desc>
<speed>4.750000</speed>
</trkpt>
<trkpt lat="55.683052" lon="26.572525">
<ele>154.603638</ele>
<time>2010-07-18T12:04:55Z</time>
<desc>lat.=55.683052, lon.=26.572525, Alt.=154.603638m. Speed=16.775999m/h.</desc>
<speed>4.660000</speed>
</trkpt>
<trkpt lat="55.683086" lon="26.572493">
<ele>154.814575</ele>
<time>2010-07-18T12:04:56Z</time>
<desc>lat.=55.683086, lon.=26.572493, Alt.=154.814575m. Speed=16.416000m/h.</desc>
<speed>4.560000</speed>
</trkpt>
<trkpt lat="55.683125" lon="26.572454">
<ele>154.927856</ele>
<time>2010-07-18T12:04:57Z</time>
<desc>lat.=55.683125, lon.=26.572454, Alt.=154.927856m. Speed=14.904000m/h.</desc>
<speed>4.140000</speed>
</trkpt>
<trkpt lat="55.683155" lon="26.572414">
<ele>155.045044</ele>
<time>2010-07-18T12:04:58Z</time>
<desc>lat.=55.683155, lon.=26.572414, Alt.=155.045044m. Speed=15.372000m/h.</desc>
<speed>4.270000</speed>
</trkpt>
<trkpt lat="55.683186" lon="26.572371">
<ele>155.045044</ele>
<time>2010-07-18T12:04:59Z</time>
<desc>lat.=55.683186, lon.=26.572371, Alt.=155.045044m. Speed=16.524000m/h.</desc>
<speed>4.590000</speed>
</trkpt>
<trkpt lat="55.683220" lon="26.572327">
<ele>154.818481</ele>
<time>2010-07-18T12:05:00Z</time>
<desc>lat.=55.683220, lon.=26.572327, Alt.=154.818481m. Speed=16.271999m/h.</desc>
<speed>4.520000</speed>
</trkpt>
<trkpt lat="55.683262" lon="26.572283">
<ele>154.662231</ele>
<time>2010-07-18T12:05:01Z</time>
<desc>lat.=55.683262, lon.=26.572283, Alt.=154.662231m. Speed=17.208000m/h.</desc>
<speed>4.780000</speed>
</trkpt>
<trkpt lat="55.683300" lon="26.572245">
<ele>154.607544</ele>
<time>2010-07-18T12:05:02Z</time>
<desc>lat.=55.683300, lon.=26.572245, Alt.=154.607544m. Speed=16.920000m/h.</desc>
<speed>4.700000</speed>
</trkpt>
<trkpt lat="55.683334" lon="26.572206">
<ele>154.603638</ele>
<time>2010-07-18T12:05:03Z</time>
<desc>lat.=55.683334, lon.=26.572206, Alt.=154.603638m. Speed=17.063999m/h.</desc>
<speed>4.740000</speed>
</trkpt>
<trkpt lat="55.683372" lon="26.572161">
<ele>154.865356</ele>
<time>2010-07-18T12:05:04Z</time>
<desc>lat.=55.683372, lon.=26.572161, Alt.=154.865356m. Speed=16.056000m/h.</desc>
<speed>4.460000</speed>
</trkpt>
<trkpt lat="55.683411" lon="26.572128">
<ele>154.931763</ele>
<time>2010-07-18T12:05:05Z</time>
<desc>lat.=55.683411, lon.=26.572128, Alt.=154.931763m. Speed=15.876000m/h.</desc>
<speed>4.410000</speed>
</trkpt>
<trkpt lat="55.683449" lon="26.572092">
<ele>154.966919</ele>
<time>2010-07-18T12:05:06Z</time>
<desc>lat.=55.683449, lon.=26.572092, Alt.=154.966919m. Speed=15.912000m/h.</desc>
<speed>4.420000</speed>
</trkpt>
<trkpt lat="55.683479" lon="26.572062">
<ele>154.959106</ele>
<time>2010-07-18T12:05:07Z</time>
<desc>lat.=55.683479, lon.=26.572062, Alt.=154.959106m. Speed=14.040000m/h.</desc>
<speed>3.900000</speed>
</trkpt>
<trkpt lat="55.683517" lon="26.572050">
<ele>154.052856</ele>
<time>2010-07-18T12:05:08Z</time>
<desc>lat.=55.683517, lon.=26.572050, Alt.=154.052856m. Speed=13.788000m/h.</desc>
<speed>3.830000</speed>
</trkpt>
<trkpt lat="55.683552" lon="26.572012">
<ele>153.568481</ele>
<time>2010-07-18T12:05:09Z</time>
<desc>lat.=55.683552, lon.=26.572012, Alt.=153.568481m. Speed=15.372000m/h.</desc>
<speed>4.270000</speed>
</trkpt>
<trkpt lat="55.683590" lon="26.571976">
<ele>153.591919</ele>
<time>2010-07-18T12:05:10Z</time>
<desc>lat.=55.683590, lon.=26.571976, Alt.=153.591919m. Speed=15.120000m/h.</desc>
<speed>4.200000</speed>
</trkpt>
<trkpt lat="55.683624" lon="26.571936">
<ele>152.705200</ele>
<time>2010-07-18T12:05:11Z</time>
<desc>lat.=55.683624, lon.=26.571936, Alt.=152.705200m. Speed=15.552000m/h.</desc>
<speed>4.320000</speed>
</trkpt>
<trkpt lat="55.683659" lon="26.571899">
<ele>152.529419</ele>
<time>2010-07-18T12:05:12Z</time>
<desc>lat.=55.683659, lon.=26.571899, Alt.=152.529419m. Speed=17.208000m/h.</desc>
<speed>4.780000</speed>
</trkpt>
<trkpt lat="55.683693" lon="26.571863">
<ele>152.384888</ele>
<time>2010-07-18T12:05:13Z</time>
<desc>lat.=55.683693, lon.=26.571863, Alt.=152.384888m. Speed=17.063999m/h.</desc>
<speed>4.740000</speed>
</trkpt>
<trkpt lat="55.683731" lon="26.571819">
<ele>152.666138</ele>
<time>2010-07-18T12:05:14Z</time>
<desc>lat.=55.683731, lon.=26.571819, Alt.=152.666138m. Speed=16.955999m/h.</desc>
<speed>4.710000</speed>
</trkpt>
<trkpt lat="55.683769" lon="26.571779">
<ele>152.310669</ele>
<time>2010-07-18T12:05:15Z</time>
<desc>lat.=55.683769, lon.=26.571779, Alt.=152.310669m. Speed=16.596001m/h.</desc>
<speed>4.610000</speed>
</trkpt>
<trkpt lat="55.683804" lon="26.571743">
<ele>152.642700</ele>
<time>2010-07-18T12:05:16Z</time>
<desc>lat.=55.683804, lon.=26.571743, Alt.=152.642700m. Speed=15.840000m/h.</desc>
<speed>4.400000</speed>
</trkpt>
<trkpt lat="55.683834" lon="26.571712">
<ele>152.713013</ele>
<time>2010-07-18T12:05:17Z</time>
<desc>lat.=55.683834, lon.=26.571712, Alt.=152.713013m. Speed=14.904000m/h.</desc>
<speed>4.140000</speed>
</trkpt>
<trkpt lat="55.683865" lon="26.571678">
<ele>152.845825</ele>
<time>2010-07-18T12:05:18Z</time>
<desc>lat.=55.683865, lon.=26.571678, Alt.=152.845825m. Speed=14.436000m/h.</desc>
<speed>4.010000</speed>
</trkpt>
<trkpt lat="55.683895" lon="26.571646">
<ele>152.853638</ele>
<time>2010-07-18T12:05:19Z</time>
<desc>lat.=55.683895, lon.=26.571646, Alt.=152.853638m. Speed=13.896000m/h.</desc>
<speed>3.860000</speed>
</trkpt>
<trkpt lat="55.683922" lon="26.571617">
<ele>152.705200</ele>
<time>2010-07-18T12:05:20Z</time>
<desc>lat.=55.683922, lon.=26.571617, Alt.=152.705200m. Speed=13.680000m/h.</desc>
<speed>3.800000</speed>
</trkpt>
<trkpt lat="55.683956" lon="26.571589">
<ele>152.236450</ele>
<time>2010-07-18T12:05:21Z</time>
<desc>lat.=55.683956, lon.=26.571589, Alt.=152.236450m. Speed=13.680000m/h.</desc>
<speed>3.800000</speed>
</trkpt>
<trkpt lat="55.683990" lon="26.571566">
<ele>151.826294</ele>
<time>2010-07-18T12:05:22Z</time>
<desc>lat.=55.683990, lon.=26.571566, Alt.=151.826294m. Speed=12.636000m/h.</desc>
<speed>3.510000</speed>
</trkpt>
<trkpt lat="55.684025" lon="26.571537">
<ele>151.263794</ele>
<time>2010-07-18T12:05:23Z</time>
<desc>lat.=55.684025, lon.=26.571537, Alt.=151.263794m. Speed=14.580000m/h.</desc>
<speed>4.050000</speed>
</trkpt>
<trkpt lat="55.684059" lon="26.571510">
<ele>151.150513</ele>
<time>2010-07-18T12:05:24Z</time>
<desc>lat.=55.684059, lon.=26.571510, Alt.=151.150513m. Speed=15.732000m/h.</desc>
<speed>4.370000</speed>
</trkpt>
<trkpt lat="55.684093" lon="26.571476">
<ele>150.826294</ele>
<time>2010-07-18T12:05:25Z</time>
<desc>lat.=55.684093, lon.=26.571476, Alt.=150.826294m. Speed=15.480000m/h.</desc>
<speed>4.300000</speed>
</trkpt>
<trkpt lat="55.684124" lon="26.571426">
<ele>150.474731</ele>
<time>2010-07-18T12:05:26Z</time>
<desc>lat.=55.684124, lon.=26.571426, Alt.=150.474731m. Speed=15.444000m/h.</desc>
<speed>4.290000</speed>
</trkpt>
<trkpt lat="55.684155" lon="26.571390">
<ele>150.568481</ele>
<time>2010-07-18T12:05:27Z</time>
<desc>lat.=55.684155, lon.=26.571390, Alt.=150.568481m. Speed=14.364000m/h.</desc>
<speed>3.990000</speed>
</trkpt>
<trkpt lat="55.684181" lon="26.571348">
<ele>150.771606</ele>
<time>2010-07-18T12:05:28Z</time>
<desc>lat.=55.684181, lon.=26.571348, Alt.=150.771606m. Speed=13.644000m/h.</desc>
<speed>3.790000</speed>
</trkpt>
<trkpt lat="55.684212" lon="26.571312">
<ele>150.654419</ele>
<time>2010-07-18T12:05:29Z</time>
<desc>lat.=55.684212, lon.=26.571312, Alt.=150.654419m. Speed=13.608000m/h.</desc>
<speed>3.780000</speed>
</trkpt>
<trkpt lat="55.684242" lon="26.571281">
<ele>150.439575</ele>
<time>2010-07-18T12:05:30Z</time>
<desc>lat.=55.684242, lon.=26.571281, Alt.=150.439575m. Speed=13.536000m/h.</desc>
<speed>3.760000</speed>
</trkpt>
<trkpt lat="55.684273" lon="26.571253">
<ele>150.396606</ele>
<time>2010-07-18T12:05:31Z</time>
<desc>lat.=55.684273, lon.=26.571253, Alt.=150.396606m. Speed=13.284000m/h.</desc>
<speed>3.690000</speed>
</trkpt>
<trkpt lat="55.684303" lon="26.571224">
<ele>150.521606</ele>
<time>2010-07-18T12:05:32Z</time>
<desc>lat.=55.684303, lon.=26.571224, Alt.=150.521606m. Speed=13.284000m/h.</desc>
<speed>3.690000</speed>
</trkpt>
<trkpt lat="55.684334" lon="26.571194">
<ele>150.537231</ele>
<time>2010-07-18T12:05:33Z</time>
<desc>lat.=55.684334, lon.=26.571194, Alt.=150.537231m. Speed=13.824000m/h.</desc>
<speed>3.840000</speed>
</trkpt>
<trkpt lat="55.684364" lon="26.571165">
<ele>150.779419</ele>
<time>2010-07-18T12:05:34Z</time>
<desc>lat.=55.684364, lon.=26.571165, Alt.=150.779419m. Speed=14.400000m/h.</desc>
<speed>4.000000</speed>
</trkpt>
<trkpt lat="55.684399" lon="26.571140">
<ele>150.904419</ele>
<time>2010-07-18T12:05:35Z</time>
<desc>lat.=55.684399, lon.=26.571140, Alt.=150.904419m. Speed=15.732000m/h.</desc>
<speed>4.370000</speed>
</trkpt>
<trkpt lat="55.684433" lon="26.571106">
<ele>150.861450</ele>
<time>2010-07-18T12:05:36Z</time>
<desc>lat.=55.684433, lon.=26.571106, Alt.=150.861450m. Speed=15.300000m/h.</desc>
<speed>4.250000</speed>
</trkpt>
<trkpt lat="55.684471" lon="26.571072">
<ele>150.588013</ele>
<time>2010-07-18T12:05:37Z</time>
<desc>lat.=55.684471, lon.=26.571072, Alt.=150.588013m. Speed=15.984000m/h.</desc>
<speed>4.440000</speed>
</trkpt>
<trkpt lat="55.684505" lon="26.571043">
<ele>150.623169</ele>
<time>2010-07-18T12:05:38Z</time>
<desc>lat.=55.684505, lon.=26.571043, Alt.=150.623169m. Speed=15.264000m/h.</desc>
<speed>4.240000</speed>
</trkpt>
<trkpt lat="55.684532" lon="26.571011">
<ele>150.857544</ele>
<time>2010-07-18T12:05:39Z</time>
<desc>lat.=55.684532, lon.=26.571011, Alt.=150.857544m. Speed=14.580000m/h.</desc>
<speed>4.050000</speed>
</trkpt>
<trkpt lat="55.684563" lon="26.570976">
<ele>151.021606</ele>
<time>2010-07-18T12:05:40Z</time>
<desc>lat.=55.684563, lon.=26.570976, Alt.=151.021606m. Speed=14.184000m/h.</desc>
<speed>3.940000</speed>
</trkpt>
<trkpt lat="55.684597" lon="26.570938">
<ele>151.060669</ele>
<time>2010-07-18T12:05:41Z</time>
<desc>lat.=55.684597, lon.=26.570938, Alt.=151.060669m. Speed=13.428000m/h.</desc>
<speed>3.730000</speed>
</trkpt>
<trkpt lat="55.684624" lon="26.570913">
<ele>151.111450</ele>
<time>2010-07-18T12:05:42Z</time>
<desc>lat.=55.684624, lon.=26.570913, Alt.=151.111450m. Speed=12.780000m/h.</desc>
<speed>3.550000</speed>
</trkpt>
<trkpt lat="55.684650" lon="26.570885">
<ele>151.216919</ele>
<time>2010-07-18T12:05:43Z</time>
<desc>lat.=55.684650, lon.=26.570885, Alt.=151.216919m. Speed=11.988000m/h.</desc>
<speed>3.330000</speed>
</trkpt>
<trkpt lat="55.684673" lon="26.570858">
<ele>151.377075</ele>
<time>2010-07-18T12:05:44Z</time>
<desc>lat.=55.684673, lon.=26.570858, Alt.=151.377075m. Speed=11.232000m/h.</desc>
<speed>3.120000</speed>
</trkpt>
<trkpt lat="55.684700" lon="26.570845">
<ele>151.060669</ele>
<time>2010-07-18T12:05:45Z</time>
<desc>lat.=55.684700, lon.=26.570845, Alt.=151.060669m. Speed=10.728000m/h.</desc>
<speed>2.980000</speed>
</trkpt>
<trkpt lat="55.684727" lon="26.570833">
<ele>151.052856</ele>
<time>2010-07-18T12:05:46Z</time>
<desc>lat.=55.684727, lon.=26.570833, Alt.=151.052856m. Speed=9.792000m/h.</desc>
<speed>2.720000</speed>
</trkpt>
<trkpt lat="55.684750" lon="26.570814">
<ele>150.880981</ele>
<time>2010-07-18T12:05:47Z</time>
<desc>lat.=55.684750, lon.=26.570814, Alt.=150.880981m. Speed=9.756000m/h.</desc>
<speed>2.710000</speed>
</trkpt>
<trkpt lat="55.684769" lon="26.570793">
<ele>150.740356</ele>
<time>2010-07-18T12:05:48Z</time>
<desc>lat.=55.684769, lon.=26.570793, Alt.=150.740356m. Speed=10.296000m/h.</desc>
<speed>2.860000</speed>
</trkpt>
<trkpt lat="55.684788" lon="26.570770">
<ele>150.654419</ele>
<time>2010-07-18T12:05:49Z</time>
<desc>lat.=55.684788, lon.=26.570770, Alt.=150.654419m. Speed=7.668000m/h.</desc>
<speed>2.130000</speed>
</trkpt>
<trkpt lat="55.684795" lon="26.570755">
<ele>150.736450</ele>
<time>2010-07-18T12:05:50Z</time>
<desc>lat.=55.684795, lon.=26.570755, Alt.=150.736450m. Speed=2.880000m/h.</desc>
<speed>0.800000</speed>
</trkpt>
<trkpt lat="55.684803" lon="26.570753">
<ele>150.771606</ele>
<time>2010-07-18T12:05:51Z</time>
<desc>lat.=55.684803, lon.=26.570753, Alt.=150.771606m. Speed=2.484000m/h.</desc>
<speed>0.690000</speed>
</trkpt>
<trkpt lat="55.684807" lon="26.570751">
<ele>150.834106</ele>
<time>2010-07-18T12:05:52Z</time>
<desc>lat.=55.684807, lon.=26.570751, Alt.=150.834106m. Speed=1.800000m/h.</desc>
<speed>0.500000</speed>
</trkpt>
<trkpt lat="55.684807" lon="26.570753">
<ele>150.935669</ele>
<time>2010-07-18T12:05:53Z</time>
<desc>lat.=55.684807, lon.=26.570753, Alt.=150.935669m. Speed=1.008000m/h.</desc>
<speed>0.280000</speed>
</trkpt>
<trkpt lat="55.684807" lon="26.570751">
<ele>151.025513</ele>
<time>2010-07-18T12:05:54Z</time>
<desc>lat.=55.684807, lon.=26.570751, Alt.=151.025513m. Speed=0.756000m/h.</desc>
<speed>0.210000</speed>
</trkpt>
<trkpt lat="55.684811" lon="26.570751">
<ele>151.115356</ele>
<time>2010-07-18T12:05:55Z</time>
<desc>lat.=55.684811, lon.=26.570751, Alt.=151.115356m. Speed=0.900000m/h.</desc>
<speed>0.250000</speed>
</trkpt>
<trkpt lat="55.684814" lon="26.570751">
<ele>151.209106</ele>
<time>2010-07-18T12:05:56Z</time>
<desc>lat.=55.684814, lon.=26.570751, Alt.=151.209106m. Speed=0.756000m/h.</desc>
<speed>0.210000</speed>
</trkpt>
<trkpt lat="55.684814" lon="26.570749">
<ele>151.298950</ele>
<time>2010-07-18T12:05:57Z</time>
<desc>lat.=55.684814, lon.=26.570749, Alt.=151.298950m. Speed=0.432000m/h.</desc>
<speed>0.120000</speed>
</trkpt>
<trkpt lat="55.684814" lon="26.570749">
<ele>151.353638</ele>
<time>2010-07-18T12:05:58Z</time>
<desc>lat.=55.684814, lon.=26.570749, Alt.=151.353638m. Speed=0.432000m/h.</desc>
<speed>0.120000</speed>
</trkpt>
<trkpt lat="55.684818" lon="26.570747">
<ele>151.388794</ele>
<time>2010-07-18T12:05:59Z</time>
<desc>lat.=55.684818, lon.=26.570747, Alt.=151.388794m. Speed=0.468000m/h.</desc>
<speed>0.130000</speed>
</trkpt>
<trkpt lat="55.684818" lon="26.570745">
<ele>151.416138</ele>
<time>2010-07-18T12:06:00Z</time>
<desc>lat.=55.684818, lon.=26.570745, Alt.=151.416138m. Speed=0.396000m/h.</desc>
<speed>0.110000</speed>
</trkpt>
<trkpt lat="55.684818" lon="26.570744">
<ele>151.439575</ele>
<time>2010-07-18T12:06:01Z</time>
<desc>lat.=55.684818, lon.=26.570744, Alt.=151.439575m. Speed=0.108000m/h.</desc>
<speed>0.030000</speed>
</trkpt>
<trkpt lat="55.684818" lon="26.570744">
<ele>151.447388</ele>
<time>2010-07-18T12:06:02Z</time>
<desc>lat.=55.684818, lon.=26.570744, Alt.=151.447388m. Speed=0.432000m/h.</desc>
<speed>0.120000</speed>
</trkpt>
<trkpt lat="55.684818" lon="26.570742">
<ele>151.459106</ele>
<time>2010-07-18T12:06:03Z</time>
<desc>lat.=55.684818, lon.=26.570742, Alt.=151.459106m. Speed=0.936000m/h.</desc>
<speed>0.260000</speed>
</trkpt>
<trkpt lat="55.684822" lon="26.570740">
<ele>151.466919</ele>
<time>2010-07-18T12:06:04Z</time>
<desc>lat.=55.684822, lon.=26.570740, Alt.=151.466919m. Speed=3.492000m/h.</desc>
<speed>0.970000</speed>
</trkpt>
<trkpt lat="55.684826" lon="26.570730">
<ele>151.470825</ele>
<time>2010-07-18T12:06:05Z</time>
<desc>lat.=55.684826, lon.=26.570730, Alt.=151.470825m. Speed=3.924000m/h.</desc>
<speed>1.090000</speed>
</trkpt>
<trkpt lat="55.684837" lon="26.570728">
<ele>151.525513</ele>
<time>2010-07-18T12:06:06Z</time>
<desc>lat.=55.684837, lon.=26.570728, Alt.=151.525513m. Speed=5.796000m/h.</desc>
<speed>1.610000</speed>
</trkpt>
<trkpt lat="55.684856" lon="26.570713">
<ele>151.310669</ele>
<time>2010-07-18T12:06:07Z</time>
<desc>lat.=55.684856, lon.=26.570713, Alt.=151.310669m. Speed=5.976000m/h.</desc>
<speed>1.660000</speed>
</trkpt>
<trkpt lat="55.684872" lon="26.570696">
<ele>151.447388</ele>
<time>2010-07-18T12:06:08Z</time>
<desc>lat.=55.684872, lon.=26.570696, Alt.=151.447388m. Speed=8.244000m/h.</desc>
<speed>2.290000</speed>
</trkpt>
<trkpt lat="55.684887" lon="26.570677">
<ele>151.377075</ele>
<time>2010-07-18T12:06:09Z</time>
<desc>lat.=55.684887, lon.=26.570677, Alt.=151.377075m. Speed=8.244000m/h.</desc>
<speed>2.290000</speed>
</trkpt>
<trkpt lat="55.684914" lon="26.570654">
<ele>151.388794</ele>
<time>2010-07-18T12:06:10Z</time>
<desc>lat.=55.684914, lon.=26.570654, Alt.=151.388794m. Speed=9.252000m/h.</desc>
<speed>2.570000</speed>
</trkpt>
<trkpt lat="55.684929" lon="26.570646">
<ele>150.896606</ele>
<time>2010-07-18T12:06:11Z</time>
<desc>lat.=55.684929, lon.=26.570646, Alt.=150.896606m. Speed=9.144000m/h.</desc>
<speed>2.540000</speed>
</trkpt>
<trkpt lat="55.684944" lon="26.570623">
<ele>150.634888</ele>
<time>2010-07-18T12:06:12Z</time>
<desc>lat.=55.684944, lon.=26.570623, Alt.=150.634888m. Speed=10.728000m/h.</desc>
<speed>2.980000</speed>
</trkpt>
<trkpt lat="55.684959" lon="26.570583">
<ele>150.369263</ele>
<time>2010-07-18T12:06:13Z</time>
<desc>lat.=55.684959, lon.=26.570583, Alt.=150.369263m. Speed=11.376000m/h.</desc>
<speed>3.160000</speed>
</trkpt>
<trkpt lat="55.684986" lon="26.570560">
<ele>149.939575</ele>
<time>2010-07-18T12:06:14Z</time>
<desc>lat.=55.684986, lon.=26.570560, Alt.=149.939575m. Speed=12.708000m/h.</desc>
<speed>3.530000</speed>
</trkpt>
<trkpt lat="55.685017" lon="26.570538">
<ele>149.810669</ele>
<time>2010-07-18T12:06:15Z</time>
<desc>lat.=55.685017, lon.=26.570538, Alt.=149.810669m. Speed=13.824000m/h.</desc>
<speed>3.840000</speed>
</trkpt>
<trkpt lat="55.685043" lon="26.570517">
<ele>149.634888</ele>
<time>2010-07-18T12:06:16Z</time>
<desc>lat.=55.685043, lon.=26.570517, Alt.=149.634888m. Speed=12.996000m/h.</desc>
<speed>3.610000</speed>
</trkpt>
<trkpt lat="55.685074" lon="26.570492">
<ele>149.400513</ele>
<time>2010-07-18T12:06:17Z</time>
<desc>lat.=55.685074, lon.=26.570492, Alt.=149.400513m. Speed=13.572000m/h.</desc>
<speed>3.770000</speed>
</trkpt>
<trkpt lat="55.685104" lon="26.570467">
<ele>149.404419</ele>
<time>2010-07-18T12:06:18Z</time>
<desc>lat.=55.685104, lon.=26.570467, Alt.=149.404419m. Speed=12.528000m/h.</desc>
<speed>3.480000</speed>
</trkpt>
<trkpt lat="55.685127" lon="26.570435">
<ele>149.482544</ele>
<time>2010-07-18T12:06:19Z</time>
<desc>lat.=55.685127, lon.=26.570435, Alt.=149.482544m. Speed=12.600000m/h.</desc>
<speed>3.500000</speed>
</trkpt>
<trkpt lat="55.685154" lon="26.570402">
<ele>149.341919</ele>
<time>2010-07-18T12:06:20Z</time>
<desc>lat.=55.685154, lon.=26.570402, Alt.=149.341919m. Speed=13.248000m/h.</desc>
<speed>3.680000</speed>
</trkpt>
<trkpt lat="55.685188" lon="26.570374">
<ele>149.373169</ele>
<time>2010-07-18T12:06:21Z</time>
<desc>lat.=55.685188, lon.=26.570374, Alt.=149.373169m. Speed=14.004000m/h.</desc>
<speed>3.890000</speed>
</trkpt>
<trkpt lat="55.685223" lon="26.570337">
<ele>149.443481</ele>
<time>2010-07-18T12:06:22Z</time>
<desc>lat.=55.685223, lon.=26.570337, Alt.=149.443481m. Speed=15.048000m/h.</desc>
<speed>4.180000</speed>
</trkpt>
<trkpt lat="55.685253" lon="26.570313">
<ele>149.263794</ele>
<time>2010-07-18T12:06:23Z</time>
<desc>lat.=55.685253, lon.=26.570313, Alt.=149.263794m. Speed=15.876000m/h.</desc>
<speed>4.410000</speed>
</trkpt>
<trkpt lat="55.685287" lon="26.570288">
<ele>149.033325</ele>
<time>2010-07-18T12:06:24Z</time>
<desc>lat.=55.685287, lon.=26.570288, Alt.=149.033325m. Speed=15.228000m/h.</desc>
<speed>4.230000</speed>
</trkpt>
<trkpt lat="55.685322" lon="26.570259">
<ele>149.021606</ele>
<time>2010-07-18T12:06:25Z</time>
<desc>lat.=55.685322, lon.=26.570259, Alt.=149.021606m. Speed=15.012000m/h.</desc>
<speed>4.170000</speed>
</trkpt>
<trkpt lat="55.685356" lon="26.570225">
<ele>148.470825</ele>
<time>2010-07-18T12:06:26Z</time>
<desc>lat.=55.685356, lon.=26.570225, Alt.=148.470825m. Speed=14.616000m/h.</desc>
<speed>4.060000</speed>
</trkpt>
<trkpt lat="55.685387" lon="26.570190">
<ele>147.947388</ele>
<time>2010-07-18T12:06:27Z</time>
<desc>lat.=55.685387, lon.=26.570190, Alt.=147.947388m. Speed=13.752000m/h.</desc>
<speed>3.820000</speed>
</trkpt>
<trkpt lat="55.685421" lon="26.570160">
<ele>147.486450</ele>
<time>2010-07-18T12:06:28Z</time>
<desc>lat.=55.685421, lon.=26.570160, Alt.=147.486450m. Speed=14.760000m/h.</desc>
<speed>4.100000</speed>
</trkpt>
<trkpt lat="55.685448" lon="26.570129">
<ele>147.119263</ele>
<time>2010-07-18T12:06:29Z</time>
<desc>lat.=55.685448, lon.=26.570129, Alt.=147.119263m. Speed=13.320000m/h.</desc>
<speed>3.700000</speed>
</trkpt>
<trkpt lat="55.685474" lon="26.570089">
<ele>147.197388</ele>
<time>2010-07-18T12:06:30Z</time>
<desc>lat.=55.685474, lon.=26.570089, Alt.=147.197388m. Speed=13.248000m/h.</desc>
<speed>3.680000</speed>
</trkpt>
<trkpt lat="55.685505" lon="26.570059">
<ele>147.138794</ele>
<time>2010-07-18T12:06:31Z</time>
<desc>lat.=55.685505, lon.=26.570059, Alt.=147.138794m. Speed=13.068000m/h.</desc>
<speed>3.630000</speed>
</trkpt>
<trkpt lat="55.685532" lon="26.570028">
<ele>146.857544</ele>
<time>2010-07-18T12:06:32Z</time>
<desc>lat.=55.685532, lon.=26.570028, Alt.=146.857544m. Speed=12.456000m/h.</desc>
<speed>3.460000</speed>
</trkpt>
<trkpt lat="55.685558" lon="26.570005">
<ele>146.982544</ele>
<time>2010-07-18T12:06:33Z</time>
<desc>lat.=55.685558, lon.=26.570005, Alt.=146.982544m. Speed=12.276000m/h.</desc>
<speed>3.410000</speed>
</trkpt>
<trkpt lat="55.685585" lon="26.569983">
<ele>146.865356</ele>
<time>2010-07-18T12:06:34Z</time>
<desc>lat.=55.685585, lon.=26.569983, Alt.=146.865356m. Speed=11.520000m/h.</desc>
<speed>3.200000</speed>
</trkpt>
<trkpt lat="55.685616" lon="26.569956">
<ele>146.744263</ele>
<time>2010-07-18T12:06:35Z</time>
<desc>lat.=55.685616, lon.=26.569956, Alt.=146.744263m. Speed=11.808000m/h.</desc>
<speed>3.280000</speed>
</trkpt>
<trkpt lat="55.685642" lon="26.569931">
<ele>146.580200</ele>
<time>2010-07-18T12:06:36Z</time>
<desc>lat.=55.685642, lon.=26.569931, Alt.=146.580200m. Speed=11.592000m/h.</desc>
<speed>3.220000</speed>
</trkpt>
<trkpt lat="55.685669" lon="26.569902">
<ele>146.408325</ele>
<time>2010-07-18T12:06:37Z</time>
<desc>lat.=55.685669, lon.=26.569902, Alt.=146.408325m. Speed=11.952000m/h.</desc>
<speed>3.320000</speed>
</trkpt>
<trkpt lat="55.685696" lon="26.569880">
<ele>146.505981</ele>
<time>2010-07-18T12:06:38Z</time>
<desc>lat.=55.685696, lon.=26.569880, Alt.=146.505981m. Speed=11.736000m/h.</desc>
<speed>3.260000</speed>
</trkpt>
<trkpt lat="55.685719" lon="26.569851">
<ele>146.494263</ele>
<time>2010-07-18T12:06:39Z</time>
<desc>lat.=55.685719, lon.=26.569851, Alt.=146.494263m. Speed=11.592000m/h.</desc>
<speed>3.220000</speed>
</trkpt>
<trkpt lat="55.685741" lon="26.569818">
<ele>146.392700</ele>
<time>2010-07-18T12:06:40Z</time>
<desc>lat.=55.685741, lon.=26.569818, Alt.=146.392700m. Speed=13.788000m/h.</desc>
<speed>3.830000</speed>
</trkpt>
<trkpt lat="55.685772" lon="26.569786">
<ele>146.213013</ele>
<time>2010-07-18T12:06:41Z</time>
<desc>lat.=55.685772, lon.=26.569786, Alt.=146.213013m. Speed=15.012000m/h.</desc>
<speed>4.170000</speed>
</trkpt>
<trkpt lat="55.685806" lon="26.569746">
<ele>145.963013</ele>
<time>2010-07-18T12:06:42Z</time>
<desc>lat.=55.685806, lon.=26.569746, Alt.=145.963013m. Speed=16.091999m/h.</desc>
<speed>4.470000</speed>
</trkpt>
<trkpt lat="55.685844" lon="26.569708">
<ele>145.834106</ele>
<time>2010-07-18T12:06:43Z</time>
<desc>lat.=55.685844, lon.=26.569708, Alt.=145.834106m. Speed=16.812000m/h.</desc>
<speed>4.670000</speed>
</trkpt>
<trkpt lat="55.685883" lon="26.569664">
<ele>145.689575</ele>
<time>2010-07-18T12:06:44Z</time>
<desc>lat.=55.685883, lon.=26.569664, Alt.=145.689575m. Speed=17.172001m/h.</desc>
<speed>4.770000</speed>
</trkpt>
<trkpt lat="55.685913" lon="26.569616">
<ele>145.603638</ele>
<time>2010-07-18T12:06:45Z</time>
<desc>lat.=55.685913, lon.=26.569616, Alt.=145.603638m. Speed=17.424000m/h.</desc>
<speed>4.840000</speed>
</trkpt>
<trkpt lat="55.685947" lon="26.569567">
<ele>145.677856</ele>
<time>2010-07-18T12:06:46Z</time>
<desc>lat.=55.685947, lon.=26.569567, Alt.=145.677856m. Speed=18.072001m/h.</desc>
<speed>5.020000</speed>
</trkpt>
<trkpt lat="55.685989" lon="26.569523">
<ele>145.689575</ele>
<time>2010-07-18T12:06:47Z</time>
<desc>lat.=55.685989, lon.=26.569523, Alt.=145.689575m. Speed=18.252001m/h.</desc>
<speed>5.070000</speed>
</trkpt>
<trkpt lat="55.686028" lon="26.569485">
<ele>145.615356</ele>
<time>2010-07-18T12:06:48Z</time>
<desc>lat.=55.686028, lon.=26.569485, Alt.=145.615356m. Speed=18.216000m/h.</desc>
<speed>5.060000</speed>
</trkpt>
<trkpt lat="55.686062" lon="26.569443">
<ele>145.517700</ele>
<time>2010-07-18T12:06:49Z</time>
<desc>lat.=55.686062, lon.=26.569443, Alt.=145.517700m. Speed=17.964001m/h.</desc>
<speed>4.990000</speed>
</trkpt>
<trkpt lat="55.686100" lon="26.569399">
<ele>145.427856</ele>
<time>2010-07-18T12:06:50Z</time>
<desc>lat.=55.686100, lon.=26.569399, Alt.=145.427856m. Speed=17.784000m/h.</desc>
<speed>4.940000</speed>
</trkpt>
<trkpt lat="55.686138" lon="26.569355">
<ele>145.244263</ele>
<time>2010-07-18T12:06:51Z</time>
<desc>lat.=55.686138, lon.=26.569355, Alt.=145.244263m. Speed=18.648001m/h.</desc>
<speed>5.180000</speed>
</trkpt>
<trkpt lat="55.686180" lon="26.569313">
<ele>145.189575</ele>
<time>2010-07-18T12:06:52Z</time>
<desc>lat.=55.686180, lon.=26.569313, Alt.=145.189575m. Speed=18.900000m/h.</desc>
<speed>5.250000</speed>
</trkpt>
<trkpt lat="55.686218" lon="26.569275">
<ele>145.166138</ele>
<time>2010-07-18T12:06:53Z</time>
<desc>lat.=55.686218, lon.=26.569275, Alt.=145.166138m. Speed=18.648001m/h.</desc>
<speed>5.180000</speed>
</trkpt>
<trkpt lat="55.686256" lon="26.569237">
<ele>145.127075</ele>
<time>2010-07-18T12:06:54Z</time>
<desc>lat.=55.686256, lon.=26.569237, Alt.=145.127075m. Speed=18.504000m/h.</desc>
<speed>5.140000</speed>
</trkpt>
<trkpt lat="55.686295" lon="26.569197">
<ele>145.107544</ele>
<time>2010-07-18T12:06:55Z</time>
<desc>lat.=55.686295, lon.=26.569197, Alt.=145.107544m. Speed=18.216000m/h.</desc>
<speed>5.060000</speed>
</trkpt>
<trkpt lat="55.686329" lon="26.569149">
<ele>145.084106</ele>
<time>2010-07-18T12:06:56Z</time>
<desc>lat.=55.686329, lon.=26.569149, Alt.=145.084106m. Speed=17.927999m/h.</desc>
<speed>4.980000</speed>
</trkpt>
<trkpt lat="55.686363" lon="26.569109">
<ele>144.974731</ele>
<time>2010-07-18T12:06:57Z</time>
<desc>lat.=55.686363, lon.=26.569109, Alt.=144.974731m. Speed=17.568001m/h.</desc>
<speed>4.880000</speed>
</trkpt>
<trkpt lat="55.686401" lon="26.569065">
<ele>144.966919</ele>
<time>2010-07-18T12:06:58Z</time>
<desc>lat.=55.686401, lon.=26.569065, Alt.=144.966919m. Speed=17.280001m/h.</desc>
<speed>4.800000</speed>
</trkpt>
<trkpt lat="55.686436" lon="26.569025">
<ele>144.916138</ele>
<time>2010-07-18T12:06:59Z</time>
<desc>lat.=55.686436, lon.=26.569025, Alt.=144.916138m. Speed=16.955999m/h.</desc>
<speed>4.710000</speed>
</trkpt>
<trkpt lat="55.686470" lon="26.568979">
<ele>145.099731</ele>
<time>2010-07-18T12:07:00Z</time>
<desc>lat.=55.686470, lon.=26.568979, Alt.=145.099731m. Speed=18.468000m/h.</desc>
<speed>5.130000</speed>
</trkpt>
<trkpt lat="55.686508" lon="26.568932">
<ele>145.310669</ele>
<time>2010-07-18T12:07:01Z</time>
<desc>lat.=55.686508, lon.=26.568932, Alt.=145.310669m. Speed=18.323999m/h.</desc>
<speed>5.090000</speed>
</trkpt>
<trkpt lat="55.686546" lon="26.568886">
<ele>145.353638</ele>
<time>2010-07-18T12:07:02Z</time>
<desc>lat.=55.686546, lon.=26.568886, Alt.=145.353638m. Speed=18.504000m/h.</desc>
<speed>5.140000</speed>
</trkpt>
<trkpt lat="55.686584" lon="26.568844">
<ele>145.357544</ele>
<time>2010-07-18T12:07:03Z</time>
<desc>lat.=55.686584, lon.=26.568844, Alt.=145.357544m. Speed=17.712000m/h.</desc>
<speed>4.920000</speed>
</trkpt>
<trkpt lat="55.686623" lon="26.568806">
<ele>145.310669</ele>
<time>2010-07-18T12:07:04Z</time>
<desc>lat.=55.686623, lon.=26.568806, Alt.=145.310669m. Speed=17.172001m/h.</desc>
<speed>4.770000</speed>
</trkpt>
<trkpt lat="55.686661" lon="26.568766">
<ele>145.146606</ele>
<time>2010-07-18T12:07:05Z</time>
<desc>lat.=55.686661, lon.=26.568766, Alt.=145.146606m. Speed=16.452000m/h.</desc>
<speed>4.570000</speed>
</trkpt>
<trkpt lat="55.686695" lon="26.568724">
<ele>144.970825</ele>
<time>2010-07-18T12:07:06Z</time>
<desc>lat.=55.686695, lon.=26.568724, Alt.=144.970825m. Speed=16.128000m/h.</desc>
<speed>4.480000</speed>
</trkpt>
<trkpt lat="55.686729" lon="26.568689">
<ele>144.865356</ele>
<time>2010-07-18T12:07:07Z</time>
<desc>lat.=55.686729, lon.=26.568689, Alt.=144.865356m. Speed=15.372000m/h.</desc>
<speed>4.270000</speed>
</trkpt>
<trkpt lat="55.686760" lon="26.568653">
<ele>144.818481</ele>
<time>2010-07-18T12:07:08Z</time>
<desc>lat.=55.686760, lon.=26.568653, Alt.=144.818481m. Speed=15.336000m/h.</desc>
<speed>4.260000</speed>
</trkpt>
<trkpt lat="55.686794" lon="26.568615">
<ele>144.416138</ele>
<time>2010-07-18T12:07:09Z</time>
<desc>lat.=55.686794, lon.=26.568615, Alt.=144.416138m. Speed=14.832000m/h.</desc>
<speed>4.120000</speed>
</trkpt>
<trkpt lat="55.686825" lon="26.568584">
<ele>144.490356</ele>
<time>2010-07-18T12:07:10Z</time>
<desc>lat.=55.686825, lon.=26.568584, Alt.=144.490356m. Speed=14.076000m/h.</desc>
<speed>3.910000</speed>
</trkpt>
<trkpt lat="55.686852" lon="26.568554">
<ele>144.009888</ele>
<time>2010-07-18T12:07:11Z</time>
<desc>lat.=55.686852, lon.=26.568554, Alt.=144.009888m. Speed=13.536000m/h.</desc>
<speed>3.760000</speed>
</trkpt>
<trkpt lat="55.686882" lon="26.568518">
<ele>144.021606</ele>
<time>2010-07-18T12:07:12Z</time>
<desc>lat.=55.686882, lon.=26.568518, Alt.=144.021606m. Speed=13.608000m/h.</desc>
<speed>3.780000</speed>
</trkpt>
<trkpt lat="55.686905" lon="26.568483">
<ele>144.345825</ele>
<time>2010-07-18T12:07:13Z</time>
<desc>lat.=55.686905, lon.=26.568483, Alt.=144.345825m. Speed=14.148000m/h.</desc>
<speed>3.930000</speed>
</trkpt>
<trkpt lat="55.686939" lon="26.568453">
<ele>144.295044</ele>
<time>2010-07-18T12:07:14Z</time>
<desc>lat.=55.686939, lon.=26.568453, Alt.=144.295044m. Speed=14.400000m/h.</desc>
<speed>4.000000</speed>
</trkpt>
<trkpt lat="55.686970" lon="26.568420">
<ele>144.103638</ele>
<time>2010-07-18T12:07:15Z</time>
<desc>lat.=55.686970, lon.=26.568420, Alt.=144.103638m. Speed=13.788000m/h.</desc>
<speed>3.830000</speed>
</trkpt>
<trkpt lat="55.687000" lon="26.568392">
<ele>143.998169</ele>
<time>2010-07-18T12:07:16Z</time>
<desc>lat.=55.687000, lon.=26.568392, Alt.=143.998169m. Speed=13.716000m/h.</desc>
<speed>3.810000</speed>
</trkpt>
<trkpt lat="55.687031" lon="26.568356">
<ele>143.935669</ele>
<time>2010-07-18T12:07:17Z</time>
<desc>lat.=55.687031, lon.=26.568356, Alt.=143.935669m. Speed=13.284000m/h.</desc>
<speed>3.690000</speed>
</trkpt>
<trkpt lat="55.687061" lon="26.568319">
<ele>143.998169</ele>
<time>2010-07-18T12:07:18Z</time>
<desc>lat.=55.687061, lon.=26.568319, Alt.=143.998169m. Speed=14.148000m/h.</desc>
<speed>3.930000</speed>
</trkpt>
<trkpt lat="55.687088" lon="26.568281">
<ele>144.017700</ele>
<time>2010-07-18T12:07:19Z</time>
<desc>lat.=55.687088, lon.=26.568281, Alt.=144.017700m. Speed=14.940000m/h.</desc>
<speed>4.150000</speed>
</trkpt>
<trkpt lat="55.687122" lon="26.568237">
<ele>144.095825</ele>
<time>2010-07-18T12:07:20Z</time>
<desc>lat.=55.687122, lon.=26.568237, Alt.=144.095825m. Speed=15.696000m/h.</desc>
<speed>4.360000</speed>
</trkpt>
<trkpt lat="55.687149" lon="26.568195">
<ele>144.244263</ele>
<time>2010-07-18T12:07:21Z</time>
<desc>lat.=55.687149, lon.=26.568195, Alt.=144.244263m. Speed=16.667999m/h.</desc>
<speed>4.630000</speed>
</trkpt>
<trkpt lat="55.687183" lon="26.568153">
<ele>144.177856</ele>
<time>2010-07-18T12:07:22Z</time>
<desc>lat.=55.687183, lon.=26.568153, Alt.=144.177856m. Speed=17.280001m/h.</desc>
<speed>4.800000</speed>
</trkpt>
<trkpt lat="55.687218" lon="26.568111">
<ele>144.201294</ele>
<time>2010-07-18T12:07:23Z</time>
<desc>lat.=55.687218, lon.=26.568111, Alt.=144.201294m. Speed=16.920000m/h.</desc>
<speed>4.700000</speed>
</trkpt>
<trkpt lat="55.687248" lon="26.568073">
<ele>144.236450</ele>
<time>2010-07-18T12:07:24Z</time>
<desc>lat.=55.687248, lon.=26.568073, Alt.=144.236450m. Speed=16.379999m/h.</desc>
<speed>4.550000</speed>
</trkpt>
<trkpt lat="55.687279" lon="26.568035">
<ele>144.318481</ele>
<time>2010-07-18T12:07:25Z</time>
<desc>lat.=55.687279, lon.=26.568035, Alt.=144.318481m. Speed=15.588000m/h.</desc>
<speed>4.330000</speed>
</trkpt>
<trkpt lat="55.687309" lon="26.567991">
<ele>144.377075</ele>
<time>2010-07-18T12:07:26Z</time>
<desc>lat.=55.687309, lon.=26.567991, Alt.=144.377075m. Speed=15.840000m/h.</desc>
<speed>4.400000</speed>
</trkpt>
<trkpt lat="55.687344" lon="26.567951">
<ele>144.548950</ele>
<time>2010-07-18T12:07:27Z</time>
<desc>lat.=55.687344, lon.=26.567951, Alt.=144.548950m. Speed=15.156000m/h.</desc>
<speed>4.210000</speed>
</trkpt>
<trkpt lat="55.687370" lon="26.567917">
<ele>144.525513</ele>
<time>2010-07-18T12:07:28Z</time>
<desc>lat.=55.687370, lon.=26.567917, Alt.=144.525513m. Speed=12.708000m/h.</desc>
<speed>3.530000</speed>
</trkpt>
<trkpt lat="55.687389" lon="26.567894">
<ele>144.334106</ele>
<time>2010-07-18T12:07:29Z</time>
<desc>lat.=55.687389, lon.=26.567894, Alt.=144.334106m. Speed=5.148000m/h.</desc>
<speed>1.430000</speed>
</trkpt>
<trkpt lat="55.687397" lon="26.567886">
<ele>144.216919</ele>
<time>2010-07-18T12:07:30Z</time>
<desc>lat.=55.687397, lon.=26.567886, Alt.=144.216919m. Speed=0.828000m/h.</desc>
<speed>0.230000</speed>
</trkpt>
<trkpt lat="55.687397" lon="26.567884">
<ele>144.138794</ele>
<time>2010-07-18T12:07:31Z</time>
<desc>lat.=55.687397, lon.=26.567884, Alt.=144.138794m. Speed=0.720000m/h.</desc>
<speed>0.200000</speed>
</trkpt>
<trkpt lat="55.687397" lon="26.567883">
<ele>144.076294</ele>
<time>2010-07-18T12:07:32Z</time>
<desc>lat.=55.687397, lon.=26.567883, Alt.=144.076294m. Speed=0.612000m/h.</desc>
<speed>0.170000</speed>
</trkpt>
<trkpt lat="55.687397" lon="26.567883">
<ele>144.037231</ele>
<time>2010-07-18T12:07:33Z</time>
<desc>lat.=55.687397, lon.=26.567883, Alt.=144.037231m. Speed=0.432000m/h.</desc>
<speed>0.120000</speed>
</trkpt>
<trkpt lat="55.687397" lon="26.567881">
<ele>143.955200</ele>
<time>2010-07-18T12:07:34Z</time>
<desc>lat.=55.687397, lon.=26.567881, Alt.=143.955200m. Speed=0.396000m/h.</desc>
<speed>0.110000</speed>
</trkpt>
<trkpt lat="55.687401" lon="26.567881">
<ele>143.900513</ele>
<time>2010-07-18T12:07:35Z</time>
<desc>lat.=55.687401, lon.=26.567881, Alt.=143.900513m. Speed=0.252000m/h.</desc>
<speed>0.070000</speed>
</trkpt>
<trkpt lat="55.687401" lon="26.567883">
<ele>143.853638</ele>
<time>2010-07-18T12:07:36Z</time>
<desc>lat.=55.687401, lon.=26.567883, Alt.=143.853638m. Speed=0.252000m/h.</desc>
<speed>0.070000</speed>
</trkpt>
<trkpt lat="55.687401" lon="26.567883">
<ele>143.818481</ele>
<time>2010-07-18T12:07:37Z</time>
<desc>lat.=55.687401, lon.=26.567883, Alt.=143.818481m. Speed=0.324000m/h.</desc>
<speed>0.090000</speed>
</trkpt>
<trkpt lat="55.687401" lon="26.567883">
<ele>143.791138</ele>
<time>2010-07-18T12:07:38Z</time>
<desc>lat.=55.687401, lon.=26.567883, Alt.=143.791138m. Speed=0.504000m/h.</desc>
<speed>0.140000</speed>
</trkpt>
<trkpt lat="55.687401" lon="26.567884">
<ele>143.763794</ele>
<time>2010-07-18T12:07:39Z</time>
<desc>lat.=55.687401, lon.=26.567884, Alt.=143.763794m. Speed=0.432000m/h.</desc>
<speed>0.120000</speed>
</trkpt>
<trkpt lat="55.687405" lon="26.567884">
<ele>143.744263</ele>
<time>2010-07-18T12:07:40Z</time>
<desc>lat.=55.687405, lon.=26.567884, Alt.=143.744263m. Speed=0.324000m/h.</desc>
<speed>0.090000</speed>
</trkpt>
<trkpt lat="55.687405" lon="26.567886">
<ele>143.728638</ele>
<time>2010-07-18T12:07:41Z</time>
<desc>lat.=55.687405, lon.=26.567886, Alt.=143.728638m. Speed=0.432000m/h.</desc>
<speed>0.120000</speed>
</trkpt>
<trkpt lat="55.687405" lon="26.567886">
<ele>143.716919</ele>
<time>2010-07-18T12:07:42Z</time>
<desc>lat.=55.687405, lon.=26.567886, Alt.=143.716919m. Speed=1.656000m/h.</desc>
<speed>0.460000</speed>
</trkpt>
<trkpt lat="55.687408" lon="26.567879">
<ele>143.709106</ele>
<time>2010-07-18T12:07:43Z</time>
<desc>lat.=55.687408, lon.=26.567879, Alt.=143.709106m. Speed=2.232000m/h.</desc>
<speed>0.620000</speed>
</trkpt>
<trkpt lat="55.687412" lon="26.567871">
<ele>143.701294</ele>
<time>2010-07-18T12:07:44Z</time>
<desc>lat.=55.687412, lon.=26.567871, Alt.=143.701294m. Speed=5.328000m/h.</desc>
<speed>1.480000</speed>
</trkpt>
<trkpt lat="55.687435" lon="26.567833">
<ele>143.755981</ele>
<time>2010-07-18T12:07:45Z</time>
<desc>lat.=55.687435, lon.=26.567833, Alt.=143.755981m. Speed=7.092000m/h.</desc>
<speed>1.970000</speed>
</trkpt>
<trkpt lat="55.687450" lon="26.567795">
<ele>143.841919</ele>
<time>2010-07-18T12:07:46Z</time>
<desc>lat.=55.687450, lon.=26.567795, Alt.=143.841919m. Speed=9.900000m/h.</desc>
<speed>2.750000</speed>
</trkpt>
<trkpt lat="55.687469" lon="26.567762">
<ele>143.701294</ele>
<time>2010-07-18T12:07:47Z</time>
<desc>lat.=55.687469, lon.=26.567762, Alt.=143.701294m. Speed=11.700000m/h.</desc>
<speed>3.250000</speed>
</trkpt>
<trkpt lat="55.687492" lon="26.567722">
<ele>143.271606</ele>
<time>2010-07-18T12:07:48Z</time>
<desc>lat.=55.687492, lon.=26.567722, Alt.=143.271606m. Speed=12.960000m/h.</desc>
<speed>3.600000</speed>
</trkpt>
<trkpt lat="55.687519" lon="26.567688">
<ele>142.943481</ele>
<time>2010-07-18T12:07:49Z</time>
<desc>lat.=55.687519, lon.=26.567688, Alt.=142.943481m. Speed=13.500000m/h.</desc>
<speed>3.750000</speed>
</trkpt>
<trkpt lat="55.687546" lon="26.567654">
<ele>142.806763</ele>
<time>2010-07-18T12:07:50Z</time>
<desc>lat.=55.687546, lon.=26.567654, Alt.=142.806763m. Speed=14.760000m/h.</desc>
<speed>4.100000</speed>
</trkpt>
<trkpt lat="55.687576" lon="26.567616">
<ele>142.427856</ele>
<time>2010-07-18T12:07:51Z</time>
<desc>lat.=55.687576, lon.=26.567616, Alt.=142.427856m. Speed=14.760000m/h.</desc>
<speed>4.100000</speed>
</trkpt>
<trkpt lat="55.687607" lon="26.567570">
<ele>142.369263</ele>
<time>2010-07-18T12:07:52Z</time>
<desc>lat.=55.687607, lon.=26.567570, Alt.=142.369263m. Speed=15.660000m/h.</desc>
<speed>4.350000</speed>
</trkpt>
<trkpt lat="55.687637" lon="26.567530">
<ele>142.677856</ele>
<time>2010-07-18T12:07:53Z</time>
<desc>lat.=55.687637, lon.=26.567530, Alt.=142.677856m. Speed=15.912000m/h.</desc>
<speed>4.420000</speed>
</trkpt>
<trkpt lat="55.687668" lon="26.567488">
<ele>142.775513</ele>
<time>2010-07-18T12:07:54Z</time>
<desc>lat.=55.687668, lon.=26.567488, Alt.=142.775513m. Speed=16.271999m/h.</desc>
<speed>4.520000</speed>
</trkpt>
<trkpt lat="55.687702" lon="26.567436">
<ele>142.935669</ele>
<time>2010-07-18T12:07:55Z</time>
<desc>lat.=55.687702, lon.=26.567436, Alt.=142.935669m. Speed=16.955999m/h.</desc>
<speed>4.710000</speed>
</trkpt>
<trkpt lat="55.687737" lon="26.567398">
<ele>143.146606</ele>
<time>2010-07-18T12:07:56Z</time>
<desc>lat.=55.687737, lon.=26.567398, Alt.=143.146606m. Speed=16.992001m/h.</desc>
<speed>4.720000</speed>
</trkpt>
<trkpt lat="55.687771" lon="26.567362">
<ele>143.236450</ele>
<time>2010-07-18T12:07:57Z</time>
<desc>lat.=55.687771, lon.=26.567362, Alt.=143.236450m. Speed=16.020000m/h.</desc>
<speed>4.450000</speed>
</trkpt>
<trkpt lat="55.687801" lon="26.567327">
<ele>143.486450</ele>
<time>2010-07-18T12:07:58Z</time>
<desc>lat.=55.687801, lon.=26.567327, Alt.=143.486450m. Speed=15.012000m/h.</desc>
<speed>4.170000</speed>
</trkpt>
<trkpt lat="55.687828" lon="26.567293">
<ele>143.580200</ele>
<time>2010-07-18T12:07:59Z</time>
<desc>lat.=55.687828, lon.=26.567293, Alt.=143.580200m. Speed=14.004000m/h.</desc>
<speed>3.890000</speed>
</trkpt>
<trkpt lat="55.687851" lon="26.567251">
<ele>143.595825</ele>
<time>2010-07-18T12:08:00Z</time>
<desc>lat.=55.687851, lon.=26.567251, Alt.=143.595825m. Speed=12.960000m/h.</desc>
<speed>3.600000</speed>
</trkpt>
<trkpt lat="55.687874" lon="26.567207">
<ele>143.802856</ele>
<time>2010-07-18T12:08:01Z</time>
<desc>lat.=55.687874, lon.=26.567207, Alt.=143.802856m. Speed=13.680000m/h.</desc>
<speed>3.800000</speed>
</trkpt>
<trkpt lat="55.687901" lon="26.567162">
<ele>143.830200</ele>
<time>2010-07-18T12:08:02Z</time>
<desc>lat.=55.687901, lon.=26.567162, Alt.=143.830200m. Speed=14.580000m/h.</desc>
<speed>4.050000</speed>
</trkpt>
<trkpt lat="55.687927" lon="26.567122">
<ele>144.220825</ele>
<time>2010-07-18T12:08:03Z</time>
<desc>lat.=55.687927, lon.=26.567122, Alt.=144.220825m. Speed=15.444000m/h.</desc>
<speed>4.290000</speed>
</trkpt>
<trkpt lat="55.687962" lon="26.567081">
<ele>144.545044</ele>
<time>2010-07-18T12:08:04Z</time>
<desc>lat.=55.687962, lon.=26.567081, Alt.=144.545044m. Speed=15.516000m/h.</desc>
<speed>4.310000</speed>
</trkpt>
<trkpt lat="55.687996" lon="26.567043">
<ele>144.736450</ele>
<time>2010-07-18T12:08:05Z</time>
<desc>lat.=55.687996, lon.=26.567043, Alt.=144.736450m. Speed=15.624000m/h.</desc>
<speed>4.340000</speed>
</trkpt>
<trkpt lat="55.688030" lon="26.567011">
<ele>144.521606</ele>
<time>2010-07-18T12:08:06Z</time>
<desc>lat.=55.688030, lon.=26.567011, Alt.=144.521606m. Speed=16.344000m/h.</desc>
<speed>4.540000</speed>
</trkpt>
<trkpt lat="55.688068" lon="26.566967">
<ele>144.521606</ele>
<time>2010-07-18T12:08:07Z</time>
<desc>lat.=55.688068, lon.=26.566967, Alt.=144.521606m. Speed=17.784000m/h.</desc>
<speed>4.940000</speed>
</trkpt>
<trkpt lat="55.688107" lon="26.566914">
<ele>144.435669</ele>
<time>2010-07-18T12:08:08Z</time>
<desc>lat.=55.688107, lon.=26.566914, Alt.=144.435669m. Speed=19.007999m/h.</desc>
<speed>5.280000</speed>
</trkpt>
<trkpt lat="55.688145" lon="26.566860">
<ele>144.088013</ele>
<time>2010-07-18T12:08:09Z</time>
<desc>lat.=55.688145, lon.=26.566860, Alt.=144.088013m. Speed=19.836000m/h.</desc>
<speed>5.510000</speed>
</trkpt>
<trkpt lat="55.688187" lon="26.566807">
<ele>144.318481</ele>
<time>2010-07-18T12:08:10Z</time>
<desc>lat.=55.688187, lon.=26.566807, Alt.=144.318481m. Speed=21.384001m/h.</desc>
<speed>5.940000</speed>
</trkpt>
<trkpt lat="55.688225" lon="26.566746">
<ele>144.513794</ele>
<time>2010-07-18T12:08:11Z</time>
<desc>lat.=55.688225, lon.=26.566746, Alt.=144.513794m. Speed=21.816000m/h.</desc>
<speed>6.060000</speed>
</trkpt>
<trkpt lat="55.688267" lon="26.566690">
<ele>144.396606</ele>
<time>2010-07-18T12:08:12Z</time>
<desc>lat.=55.688267, lon.=26.566690, Alt.=144.396606m. Speed=20.448000m/h.</desc>
<speed>5.680000</speed>
</trkpt>
<trkpt lat="55.688313" lon="26.566645">
<ele>143.951294</ele>
<time>2010-07-18T12:08:13Z</time>
<desc>lat.=55.688313, lon.=26.566645, Alt.=143.951294m. Speed=19.368000m/h.</desc>
<speed>5.380000</speed>
</trkpt>
<trkpt lat="55.688354" lon="26.566603">
<ele>144.095825</ele>
<time>2010-07-18T12:08:14Z</time>
<desc>lat.=55.688354, lon.=26.566603, Alt.=144.095825m. Speed=17.856001m/h.</desc>
<speed>4.960000</speed>
</trkpt>
<trkpt lat="55.688393" lon="26.566561">
<ele>144.088013</ele>
<time>2010-07-18T12:08:15Z</time>
<desc>lat.=55.688393, lon.=26.566561, Alt.=144.088013m. Speed=17.459999m/h.</desc>
<speed>4.850000</speed>
</trkpt>
<trkpt lat="55.688427" lon="26.566511">
<ele>144.037231</ele>
<time>2010-07-18T12:08:16Z</time>
<desc>lat.=55.688427, lon.=26.566511, Alt.=144.037231m. Speed=17.784000m/h.</desc>
<speed>4.940000</speed>
</trkpt>
<trkpt lat="55.688465" lon="26.566463">
<ele>143.998169</ele>
<time>2010-07-18T12:08:17Z</time>
<desc>lat.=55.688465, lon.=26.566463, Alt.=143.998169m. Speed=18.719999m/h.</desc>
<speed>5.200000</speed>
</trkpt>
<trkpt lat="55.688503" lon="26.566408">
<ele>144.052856</ele>
<time>2010-07-18T12:08:18Z</time>
<desc>lat.=55.688503, lon.=26.566408, Alt.=144.052856m. Speed=19.691999m/h.</desc>
<speed>5.470000</speed>
</trkpt>
<trkpt lat="55.688541" lon="26.566351">
<ele>144.107544</ele>
<time>2010-07-18T12:08:19Z</time>
<desc>lat.=55.688541, lon.=26.566351, Alt.=144.107544m. Speed=20.375999m/h.</desc>
<speed>5.660000</speed>
</trkpt>
<trkpt lat="55.688580" lon="26.566296">
<ele>144.138794</ele>
<time>2010-07-18T12:08:20Z</time>
<desc>lat.=55.688580, lon.=26.566296, Alt.=144.138794m. Speed=20.232000m/h.</desc>
<speed>5.620000</speed>
</trkpt>
<trkpt lat="55.688622" lon="26.566244">
<ele>144.123169</ele>
<time>2010-07-18T12:08:21Z</time>
<desc>lat.=55.688622, lon.=26.566244, Alt.=144.123169m. Speed=19.224001m/h.</desc>
<speed>5.340000</speed>
</trkpt>
<trkpt lat="55.688652" lon="26.566187">
<ele>144.658325</ele>
<time>2010-07-18T12:08:22Z</time>
<desc>lat.=55.688652, lon.=26.566187, Alt.=144.658325m. Speed=17.351999m/h.</desc>
<speed>4.820000</speed>
</trkpt>
<trkpt lat="55.688686" lon="26.566137">
<ele>144.787231</ele>
<time>2010-07-18T12:08:23Z</time>
<desc>lat.=55.688686, lon.=26.566137, Alt.=144.787231m. Speed=17.820000m/h.</desc>
<speed>4.950000</speed>
</trkpt>
<trkpt lat="55.688717" lon="26.566090">
<ele>144.955200</ele>
<time>2010-07-18T12:08:24Z</time>
<desc>lat.=55.688717, lon.=26.566090, Alt.=144.955200m. Speed=17.208000m/h.</desc>
<speed>4.780000</speed>
</trkpt>
<trkpt lat="55.688751" lon="26.566046">
<ele>145.013794</ele>
<time>2010-07-18T12:08:25Z</time>
<desc>lat.=55.688751, lon.=26.566046, Alt.=145.013794m. Speed=16.308001m/h.</desc>
<speed>4.530000</speed>
</trkpt>
<trkpt lat="55.688786" lon="26.565996">
<ele>145.041138</ele>
<time>2010-07-18T12:08:26Z</time>
<desc>lat.=55.688786, lon.=26.565996, Alt.=145.041138m. Speed=15.876000m/h.</desc>
<speed>4.410000</speed>
</trkpt>
<trkpt lat="55.688816" lon="26.565947">
<ele>145.130981</ele>
<time>2010-07-18T12:08:27Z</time>
<desc>lat.=55.688816, lon.=26.565947, Alt.=145.130981m. Speed=16.200001m/h.</desc>
<speed>4.500000</speed>
</trkpt>
<trkpt lat="55.688843" lon="26.565901">
<ele>145.134888</ele>
<time>2010-07-18T12:08:28Z</time>
<desc>lat.=55.688843, lon.=26.565901, Alt.=145.134888m. Speed=16.559999m/h.</desc>
<speed>4.600000</speed>
</trkpt>
<trkpt lat="55.688873" lon="26.565851">
<ele>145.197388</ele>
<time>2010-07-18T12:08:29Z</time>
<desc>lat.=55.688873, lon.=26.565851, Alt.=145.197388m. Speed=16.416000m/h.</desc>
<speed>4.560000</speed>
</trkpt>
<trkpt lat="55.688900" lon="26.565805">
<ele>145.369263</ele>
<time>2010-07-18T12:08:30Z</time>
<desc>lat.=55.688900, lon.=26.565805, Alt.=145.369263m. Speed=16.667999m/h.</desc>
<speed>4.630000</speed>
</trkpt>
<trkpt lat="55.688934" lon="26.565758">
<ele>145.439575</ele>
<time>2010-07-18T12:08:31Z</time>
<desc>lat.=55.688934, lon.=26.565758, Alt.=145.439575m. Speed=16.884001m/h.</desc>
<speed>4.690000</speed>
</trkpt>
<trkpt lat="55.688969" lon="26.565708">
<ele>145.650513</ele>
<time>2010-07-18T12:08:32Z</time>
<desc>lat.=55.688969, lon.=26.565708, Alt.=145.650513m. Speed=17.459999m/h.</desc>
<speed>4.850000</speed>
</trkpt>
<trkpt lat="55.689003" lon="26.565659">
<ele>145.638794</ele>
<time>2010-07-18T12:08:33Z</time>
<desc>lat.=55.689003, lon.=26.565659, Alt.=145.638794m. Speed=17.208000m/h.</desc>
<speed>4.780000</speed>
</trkpt>
<trkpt lat="55.689034" lon="26.565611">
<ele>145.740356</ele>
<time>2010-07-18T12:08:34Z</time>
<desc>lat.=55.689034, lon.=26.565611, Alt.=145.740356m. Speed=16.559999m/h.</desc>
<speed>4.600000</speed>
</trkpt>
<trkpt lat="55.689060" lon="26.565567">
<ele>145.857544</ele>
<time>2010-07-18T12:08:35Z</time>
<desc>lat.=55.689060, lon.=26.565567, Alt.=145.857544m. Speed=15.336000m/h.</desc>
<speed>4.260000</speed>
</trkpt>
<trkpt lat="55.689087" lon="26.565529">
<ele>145.986450</ele>
<time>2010-07-18T12:08:36Z</time>
<desc>lat.=55.689087, lon.=26.565529, Alt.=145.986450m. Speed=14.220000m/h.</desc>
<speed>3.950000</speed>
</trkpt>
<trkpt lat="55.689117" lon="26.565491">
<ele>146.080200</ele>
<time>2010-07-18T12:08:37Z</time>
<desc>lat.=55.689117, lon.=26.565491, Alt.=146.080200m. Speed=13.968000m/h.</desc>
<speed>3.880000</speed>
</trkpt>
<trkpt lat="55.689144" lon="26.565456">
<ele>146.166138</ele>
<time>2010-07-18T12:08:38Z</time>
<desc>lat.=55.689144, lon.=26.565456, Alt.=146.166138m. Speed=14.292000m/h.</desc>
<speed>3.970000</speed>
</trkpt>
<trkpt lat="55.689175" lon="26.565414">
<ele>146.322388</ele>
<time>2010-07-18T12:08:39Z</time>
<desc>lat.=55.689175, lon.=26.565414, Alt.=146.322388m. Speed=15.336000m/h.</desc>
<speed>4.260000</speed>
</trkpt>
<trkpt lat="55.689201" lon="26.565371">
<ele>146.420044</ele>
<time>2010-07-18T12:08:40Z</time>
<desc>lat.=55.689201, lon.=26.565371, Alt.=146.420044m. Speed=15.516000m/h.</desc>
<speed>4.310000</speed>
</trkpt>
<trkpt lat="55.689232" lon="26.565334">
<ele>146.193481</ele>
<time>2010-07-18T12:08:41Z</time>
<desc>lat.=55.689232, lon.=26.565334, Alt.=146.193481m. Speed=14.400000m/h.</desc>
<speed>4.000000</speed>
</trkpt>
<trkpt lat="55.689259" lon="26.565294">
<ele>146.091919</ele>
<time>2010-07-18T12:08:42Z</time>
<desc>lat.=55.689259, lon.=26.565294, Alt.=146.091919m. Speed=14.184000m/h.</desc>
<speed>3.940000</speed>
</trkpt>
<trkpt lat="55.689285" lon="26.565256">
<ele>146.283325</ele>
<time>2010-07-18T12:08:43Z</time>
<desc>lat.=55.689285, lon.=26.565256, Alt.=146.283325m. Speed=14.112000m/h.</desc>
<speed>3.920000</speed>
</trkpt>
<trkpt lat="55.689312" lon="26.565212">
<ele>146.380981</ele>
<time>2010-07-18T12:08:44Z</time>
<desc>lat.=55.689312, lon.=26.565212, Alt.=146.380981m. Speed=13.824000m/h.</desc>
<speed>3.840000</speed>
</trkpt>
<trkpt lat="55.689339" lon="26.565176">
<ele>146.298950</ele>
<time>2010-07-18T12:08:45Z</time>
<desc>lat.=55.689339, lon.=26.565176, Alt.=146.298950m. Speed=13.896000m/h.</desc>
<speed>3.860000</speed>
</trkpt>
<trkpt lat="55.689358" lon="26.565136">
<ele>146.478638</ele>
<time>2010-07-18T12:08:46Z</time>
<desc>lat.=55.689358, lon.=26.565136, Alt.=146.478638m. Speed=13.752000m/h.</desc>
<speed>3.820000</speed>
</trkpt>
<trkpt lat="55.689384" lon="26.565098">
<ele>146.560669</ele>
<time>2010-07-18T12:08:47Z</time>
<desc>lat.=55.689384, lon.=26.565098, Alt.=146.560669m. Speed=13.716000m/h.</desc>
<speed>3.810000</speed>
</trkpt>
<trkpt lat="55.689411" lon="26.565062">
<ele>146.611450</ele>
<time>2010-07-18T12:08:48Z</time>
<desc>lat.=55.689411, lon.=26.565062, Alt.=146.611450m. Speed=13.932000m/h.</desc>
<speed>3.870000</speed>
</trkpt>
<trkpt lat="55.689438" lon="26.565023">
<ele>146.552856</ele>
<time>2010-07-18T12:08:49Z</time>
<desc>lat.=55.689438, lon.=26.565023, Alt.=146.552856m. Speed=14.364000m/h.</desc>
<speed>3.990000</speed>
</trkpt>
<trkpt lat="55.689465" lon="26.564981">
<ele>146.568481</ele>
<time>2010-07-18T12:08:50Z</time>
<desc>lat.=55.689465, lon.=26.564981, Alt.=146.568481m. Speed=14.004000m/h.</desc>
<speed>3.890000</speed>
</trkpt>
<trkpt lat="55.689491" lon="26.564932">
<ele>146.896606</ele>
<time>2010-07-18T12:08:51Z</time>
<desc>lat.=55.689491, lon.=26.564932, Alt.=146.896606m. Speed=14.256000m/h.</desc>
<speed>3.960000</speed>
</trkpt>
<trkpt lat="55.689522" lon="26.564899">
<ele>146.763794</ele>
<time>2010-07-18T12:08:52Z</time>
<desc>lat.=55.689522, lon.=26.564899, Alt.=146.763794m. Speed=13.032000m/h.</desc>
<speed>3.620000</speed>
</trkpt>
<trkpt lat="55.689545" lon="26.564865">
<ele>146.759888</ele>
<time>2010-07-18T12:08:53Z</time>
<desc>lat.=55.689545, lon.=26.564865, Alt.=146.759888m. Speed=12.780000m/h.</desc>
<speed>3.550000</speed>
</trkpt>
<trkpt lat="55.689571" lon="26.564829">
<ele>146.767700</ele>
<time>2010-07-18T12:08:54Z</time>
<desc>lat.=55.689571, lon.=26.564829, Alt.=146.767700m. Speed=11.952000m/h.</desc>
<speed>3.320000</speed>
</trkpt>
<trkpt lat="55.689590" lon="26.564793">
<ele>146.545044</ele>
<time>2010-07-18T12:08:55Z</time>
<desc>lat.=55.689590, lon.=26.564793, Alt.=146.545044m. Speed=11.916000m/h.</desc>
<speed>3.310000</speed>
</trkpt>
<trkpt lat="55.689613" lon="26.564758">
<ele>146.255981</ele>
<time>2010-07-18T12:08:56Z</time>
<desc>lat.=55.689613, lon.=26.564758, Alt.=146.255981m. Speed=11.844000m/h.</desc>
<speed>3.290000</speed>
</trkpt>
<trkpt lat="55.689640" lon="26.564726">
<ele>146.380981</ele>
<time>2010-07-18T12:08:57Z</time>
<desc>lat.=55.689640, lon.=26.564726, Alt.=146.380981m. Speed=12.168000m/h.</desc>
<speed>3.380000</speed>
</trkpt>
<trkpt lat="55.689663" lon="26.564688">
<ele>146.509888</ele>
<time>2010-07-18T12:08:58Z</time>
<desc>lat.=55.689663, lon.=26.564688, Alt.=146.509888m. Speed=12.672000m/h.</desc>
<speed>3.520000</speed>
</trkpt>
<trkpt lat="55.689686" lon="26.564653">
<ele>146.248169</ele>
<time>2010-07-18T12:08:59Z</time>
<desc>lat.=55.689686, lon.=26.564653, Alt.=146.248169m. Speed=13.212000m/h.</desc>
<speed>3.670000</speed>
</trkpt>
<trkpt lat="55.689713" lon="26.564617">
<ele>146.267700</ele>
<time>2010-07-18T12:09:00Z</time>
<desc>lat.=55.689713, lon.=26.564617, Alt.=146.267700m. Speed=13.140000m/h.</desc>
<speed>3.650000</speed>
</trkpt>
<trkpt lat="55.689739" lon="26.564577">
<ele>146.279419</ele>
<time>2010-07-18T12:09:01Z</time>
<desc>lat.=55.689739, lon.=26.564577, Alt.=146.279419m. Speed=13.572000m/h.</desc>
<speed>3.770000</speed>
</trkpt>
<trkpt lat="55.689762" lon="26.564537">
<ele>146.224731</ele>
<time>2010-07-18T12:09:02Z</time>
<desc>lat.=55.689762, lon.=26.564537, Alt.=146.224731m. Speed=13.464000m/h.</desc>
<speed>3.740000</speed>
</trkpt>
<trkpt lat="55.689789" lon="26.564495">
<ele>146.334106</ele>
<time>2010-07-18T12:09:03Z</time>
<desc>lat.=55.689789, lon.=26.564495, Alt.=146.334106m. Speed=13.932000m/h.</desc>
<speed>3.870000</speed>
</trkpt>
<trkpt lat="55.689812" lon="26.564444">
<ele>146.748169</ele>
<time>2010-07-18T12:09:04Z</time>
<desc>lat.=55.689812, lon.=26.564444, Alt.=146.748169m. Speed=14.112000m/h.</desc>
<speed>3.920000</speed>
</trkpt>
<trkpt lat="55.689838" lon="26.564402">
<ele>146.841919</ele>
<time>2010-07-18T12:09:05Z</time>
<desc>lat.=55.689838, lon.=26.564402, Alt.=146.841919m. Speed=14.292000m/h.</desc>
<speed>3.970000</speed>
</trkpt>
<trkpt lat="55.689861" lon="26.564360">
<ele>147.080200</ele>
<time>2010-07-18T12:09:06Z</time>
<desc>lat.=55.689861, lon.=26.564360, Alt.=147.080200m. Speed=14.076000m/h.</desc>
<speed>3.910000</speed>
</trkpt>
<trkpt lat="55.689884" lon="26.564316">
<ele>147.298950</ele>
<time>2010-07-18T12:09:07Z</time>
<desc>lat.=55.689884, lon.=26.564316, Alt.=147.298950m. Speed=12.924000m/h.</desc>
<speed>3.590000</speed>
</trkpt>
<trkpt lat="55.689907" lon="26.564280">
<ele>147.466919</ele>
<time>2010-07-18T12:09:08Z</time>
<desc>lat.=55.689907, lon.=26.564280, Alt.=147.466919m. Speed=11.988000m/h.</desc>
<speed>3.330000</speed>
</trkpt>
<trkpt lat="55.689930" lon="26.564247">
<ele>147.584106</ele>
<time>2010-07-18T12:09:09Z</time>
<desc>lat.=55.689930, lon.=26.564247, Alt.=147.584106m. Speed=12.564000m/h.</desc>
<speed>3.490000</speed>
</trkpt>
<trkpt lat="55.689957" lon="26.564215">
<ele>147.634888</ele>
<time>2010-07-18T12:09:10Z</time>
<desc>lat.=55.689957, lon.=26.564215, Alt.=147.634888m. Speed=12.600000m/h.</desc>
<speed>3.500000</speed>
</trkpt>
<trkpt lat="55.689983" lon="26.564184">
<ele>147.634888</ele>
<time>2010-07-18T12:09:11Z</time>
<desc>lat.=55.689983, lon.=26.564184, Alt.=147.634888m. Speed=12.060000m/h.</desc>
<speed>3.350000</speed>
</trkpt>
<trkpt lat="55.690010" lon="26.564144">
<ele>147.783325</ele>
<time>2010-07-18T12:09:12Z</time>
<desc>lat.=55.690010, lon.=26.564144, Alt.=147.783325m. Speed=13.536000m/h.</desc>
<speed>3.760000</speed>
</trkpt>
<trkpt lat="55.690033" lon="26.564116">
<ele>147.767700</ele>
<time>2010-07-18T12:09:13Z</time>
<desc>lat.=55.690033, lon.=26.564116, Alt.=147.767700m. Speed=11.448000m/h.</desc>
<speed>3.180000</speed>
</trkpt>
<trkpt lat="55.690060" lon="26.564077">
<ele>147.982544</ele>
<time>2010-07-18T12:09:14Z</time>
<desc>lat.=55.690060, lon.=26.564077, Alt.=147.982544m. Speed=12.636000m/h.</desc>
<speed>3.510000</speed>
</trkpt>
<trkpt lat="55.690083" lon="26.564041">
<ele>148.302856</ele>
<time>2010-07-18T12:09:15Z</time>
<desc>lat.=55.690083, lon.=26.564041, Alt.=148.302856m. Speed=12.096000m/h.</desc>
<speed>3.360000</speed>
</trkpt>
<trkpt lat="55.690102" lon="26.564007">
<ele>148.404419</ele>
<time>2010-07-18T12:09:16Z</time>
<desc>lat.=55.690102, lon.=26.564007, Alt.=148.404419m. Speed=12.096000m/h.</desc>
<speed>3.360000</speed>
</trkpt>
<trkpt lat="55.690132" lon="26.563967">
<ele>148.326294</ele>
<time>2010-07-18T12:09:17Z</time>
<desc>lat.=55.690132, lon.=26.563967, Alt.=148.326294m. Speed=13.500000m/h.</desc>
<speed>3.750000</speed>
</trkpt>
<trkpt lat="55.690159" lon="26.563923">
<ele>148.357544</ele>
<time>2010-07-18T12:09:18Z</time>
<desc>lat.=55.690159, lon.=26.563923, Alt.=148.357544m. Speed=14.076000m/h.</desc>
<speed>3.910000</speed>
</trkpt>
<trkpt lat="55.690189" lon="26.563879">
<ele>148.431763</ele>
<time>2010-07-18T12:09:19Z</time>
<desc>lat.=55.690189, lon.=26.563879, Alt.=148.431763m. Speed=14.256000m/h.</desc>
<speed>3.960000</speed>
</trkpt>
<trkpt lat="55.690220" lon="26.563839">
<ele>148.513794</ele>
<time>2010-07-18T12:09:20Z</time>
<desc>lat.=55.690220, lon.=26.563839, Alt.=148.513794m. Speed=13.788000m/h.</desc>
<speed>3.830000</speed>
</trkpt>
<trkpt lat="55.690243" lon="26.563807">
<ele>148.420044</ele>
<time>2010-07-18T12:09:21Z</time>
<desc>lat.=55.690243, lon.=26.563807, Alt.=148.420044m. Speed=12.708000m/h.</desc>
<speed>3.530000</speed>
</trkpt>
<trkpt lat="55.690269" lon="26.563772">
<ele>148.302856</ele>
<time>2010-07-18T12:09:22Z</time>
<desc>lat.=55.690269, lon.=26.563772, Alt.=148.302856m. Speed=12.348000m/h.</desc>
<speed>3.430000</speed>
</trkpt>
<trkpt lat="55.690296" lon="26.563736">
<ele>148.224731</ele>
<time>2010-07-18T12:09:23Z</time>
<desc>lat.=55.690296, lon.=26.563736, Alt.=148.224731m. Speed=12.600000m/h.</desc>
<speed>3.500000</speed>
</trkpt>
<trkpt lat="55.690327" lon="26.563700">
<ele>148.025513</ele>
<time>2010-07-18T12:09:24Z</time>
<desc>lat.=55.690327, lon.=26.563700, Alt.=148.025513m. Speed=13.572000m/h.</desc>
<speed>3.770000</speed>
</trkpt>
<trkpt lat="55.690357" lon="26.563662">
<ele>148.111450</ele>
<time>2010-07-18T12:09:25Z</time>
<desc>lat.=55.690357, lon.=26.563662, Alt.=148.111450m. Speed=13.860000m/h.</desc>
<speed>3.850000</speed>
</trkpt>
<trkpt lat="55.690380" lon="26.563625">
<ele>148.255981</ele>
<time>2010-07-18T12:09:26Z</time>
<desc>lat.=55.690380, lon.=26.563625, Alt.=148.255981m. Speed=13.680000m/h.</desc>
<speed>3.800000</speed>
</trkpt>
<trkpt lat="55.690407" lon="26.563591">
<ele>148.357544</ele>
<time>2010-07-18T12:09:27Z</time>
<desc>lat.=55.690407, lon.=26.563591, Alt.=148.357544m. Speed=12.924000m/h.</desc>
<speed>3.590000</speed>
</trkpt>
<trkpt lat="55.690434" lon="26.563557">
<ele>148.740356</ele>
<time>2010-07-18T12:09:28Z</time>
<desc>lat.=55.690434, lon.=26.563557, Alt.=148.740356m. Speed=11.916000m/h.</desc>
<speed>3.310000</speed>
</trkpt>
<trkpt lat="55.690460" lon="26.563522">
<ele>149.185669</ele>
<time>2010-07-18T12:09:29Z</time>
<desc>lat.=55.690460, lon.=26.563522, Alt.=149.185669m. Speed=12.204000m/h.</desc>
<speed>3.390000</speed>
</trkpt>
<trkpt lat="55.690479" lon="26.563486">
<ele>149.283325</ele>
<time>2010-07-18T12:09:30Z</time>
<desc>lat.=55.690479, lon.=26.563486, Alt.=149.283325m. Speed=12.600000m/h.</desc>
<speed>3.500000</speed>
</trkpt>
<trkpt lat="55.690506" lon="26.563444">
<ele>149.634888</ele>
<time>2010-07-18T12:09:31Z</time>
<desc>lat.=55.690506, lon.=26.563444, Alt.=149.634888m. Speed=13.896000m/h.</desc>
<speed>3.860000</speed>
</trkpt>
<trkpt lat="55.690536" lon="26.563404">
<ele>149.849731</ele>
<time>2010-07-18T12:09:32Z</time>
<desc>lat.=55.690536, lon.=26.563404, Alt.=149.849731m. Speed=13.896000m/h.</desc>
<speed>3.860000</speed>
</trkpt>
<trkpt lat="55.690563" lon="26.563368">
<ele>149.873169</ele>
<time>2010-07-18T12:09:33Z</time>
<desc>lat.=55.690563, lon.=26.563368, Alt.=149.873169m. Speed=13.536000m/h.</desc>
<speed>3.760000</speed>
</trkpt>
<trkpt lat="55.690594" lon="26.563330">
<ele>150.017700</ele>
<time>2010-07-18T12:09:34Z</time>
<desc>lat.=55.690594, lon.=26.563330, Alt.=150.017700m. Speed=13.464000m/h.</desc>
<speed>3.740000</speed>
</trkpt>
<trkpt lat="55.690617" lon="26.563293">
<ele>150.134888</ele>
<time>2010-07-18T12:09:35Z</time>
<desc>lat.=55.690617, lon.=26.563293, Alt.=150.134888m. Speed=12.672000m/h.</desc>
<speed>3.520000</speed>
</trkpt>
<trkpt lat="55.690639" lon="26.563259">
<ele>150.088013</ele>
<time>2010-07-18T12:09:36Z</time>
<desc>lat.=55.690639, lon.=26.563259, Alt.=150.088013m. Speed=11.988000m/h.</desc>
<speed>3.330000</speed>
</trkpt>
<trkpt lat="55.690662" lon="26.563223">
<ele>150.107544</ele>
<time>2010-07-18T12:09:37Z</time>
<desc>lat.=55.690662, lon.=26.563223, Alt.=150.107544m. Speed=12.312000m/h.</desc>
<speed>3.420000</speed>
</trkpt>
<trkpt lat="55.690689" lon="26.563187">
<ele>150.197388</ele>
<time>2010-07-18T12:09:38Z</time>
<desc>lat.=55.690689, lon.=26.563187, Alt.=150.197388m. Speed=12.636000m/h.</desc>
<speed>3.510000</speed>
</trkpt>
<trkpt lat="55.690716" lon="26.563147">
<ele>150.427856</ele>
<time>2010-07-18T12:09:39Z</time>
<desc>lat.=55.690716, lon.=26.563147, Alt.=150.427856m. Speed=13.500000m/h.</desc>
<speed>3.750000</speed>
</trkpt>
<trkpt lat="55.690742" lon="26.563108">
<ele>150.482544</ele>
<time>2010-07-18T12:09:40Z</time>
<desc>lat.=55.690742, lon.=26.563108, Alt.=150.482544m. Speed=13.464000m/h.</desc>
<speed>3.740000</speed>
</trkpt>
<trkpt lat="55.690773" lon="26.563078">
<ele>150.271606</ele>
<time>2010-07-18T12:09:41Z</time>
<desc>lat.=55.690773, lon.=26.563078, Alt.=150.271606m. Speed=13.464000m/h.</desc>
<speed>3.740000</speed>
</trkpt>
<trkpt lat="55.690796" lon="26.563042">
<ele>150.193481</ele>
<time>2010-07-18T12:09:42Z</time>
<desc>lat.=55.690796, lon.=26.563042, Alt.=150.193481m. Speed=13.680000m/h.</desc>
<speed>3.800000</speed>
</trkpt>
<trkpt lat="55.690823" lon="26.563004">
<ele>150.181763</ele>
<time>2010-07-18T12:09:43Z</time>
<desc>lat.=55.690823, lon.=26.563004, Alt.=150.181763m. Speed=14.436000m/h.</desc>
<speed>4.010000</speed>
</trkpt>
<trkpt lat="55.690849" lon="26.562960">
<ele>150.228638</ele>
<time>2010-07-18T12:09:44Z</time>
<desc>lat.=55.690849, lon.=26.562960, Alt.=150.228638m. Speed=14.472000m/h.</desc>
<speed>4.020000</speed>
</trkpt>
<trkpt lat="55.690872" lon="26.562920">
<ele>150.279419</ele>
<time>2010-07-18T12:09:45Z</time>
<desc>lat.=55.690872, lon.=26.562920, Alt.=150.279419m. Speed=13.608000m/h.</desc>
<speed>3.780000</speed>
</trkpt>
<trkpt lat="55.690899" lon="26.562885">
<ele>150.330200</ele>
<time>2010-07-18T12:09:46Z</time>
<desc>lat.=55.690899, lon.=26.562885, Alt.=150.330200m. Speed=12.384000m/h.</desc>
<speed>3.440000</speed>
</trkpt>
<trkpt lat="55.690926" lon="26.562845">
<ele>150.349731</ele>
<time>2010-07-18T12:09:47Z</time>
<desc>lat.=55.690926, lon.=26.562845, Alt.=150.349731m. Speed=12.312000m/h.</desc>
<speed>3.420000</speed>
</trkpt>
<trkpt lat="55.690948" lon="26.562807">
<ele>150.314575</ele>
<time>2010-07-18T12:09:48Z</time>
<desc>lat.=55.690948, lon.=26.562807, Alt.=150.314575m. Speed=12.492000m/h.</desc>
<speed>3.470000</speed>
</trkpt>
<trkpt lat="55.690975" lon="26.562769">
<ele>150.505981</ele>
<time>2010-07-18T12:09:49Z</time>
<desc>lat.=55.690975, lon.=26.562769, Alt.=150.505981m. Speed=12.456000m/h.</desc>
<speed>3.460000</speed>
</trkpt>
<trkpt lat="55.690998" lon="26.562731">
<ele>150.588013</ele>
<time>2010-07-18T12:09:50Z</time>
<desc>lat.=55.690998, lon.=26.562731, Alt.=150.588013m. Speed=13.140000m/h.</desc>
<speed>3.650000</speed>
</trkpt>
<trkpt lat="55.691021" lon="26.562685">
<ele>150.509888</ele>
<time>2010-07-18T12:09:51Z</time>
<desc>lat.=55.691021, lon.=26.562685, Alt.=150.509888m. Speed=12.996000m/h.</desc>
<speed>3.610000</speed>
</trkpt>
<trkpt lat="55.691044" lon="26.562647">
<ele>150.564575</ele>
<time>2010-07-18T12:09:52Z</time>
<desc>lat.=55.691044, lon.=26.562647, Alt.=150.564575m. Speed=12.852000m/h.</desc>
<speed>3.570000</speed>
</trkpt>
<trkpt lat="55.691067" lon="26.562613">
<ele>150.322388</ele>
<time>2010-07-18T12:09:53Z</time>
<desc>lat.=55.691067, lon.=26.562613, Alt.=150.322388m. Speed=12.600000m/h.</desc>
<speed>3.500000</speed>
</trkpt>
<trkpt lat="55.691090" lon="26.562574">
<ele>150.341919</ele>
<time>2010-07-18T12:09:54Z</time>
<desc>lat.=55.691090, lon.=26.562574, Alt.=150.341919m. Speed=13.212000m/h.</desc>
<speed>3.670000</speed>
</trkpt>
<trkpt lat="55.691113" lon="26.562538">
<ele>150.380981</ele>
<time>2010-07-18T12:09:55Z</time>
<desc>lat.=55.691113, lon.=26.562538, Alt.=150.380981m. Speed=11.916000m/h.</desc>
<speed>3.310000</speed>
</trkpt>
<trkpt lat="55.691124" lon="26.562502">
<ele>149.888794</ele>
<time>2010-07-18T12:09:56Z</time>
<desc>lat.=55.691124, lon.=26.562502, Alt.=149.888794m. Speed=11.520000m/h.</desc>
<speed>3.200000</speed>
</trkpt>
<trkpt lat="55.691143" lon="26.562460">
<ele>150.568481</ele>
<time>2010-07-18T12:09:57Z</time>
<desc>lat.=55.691143, lon.=26.562460, Alt.=150.568481m. Speed=12.384000m/h.</desc>
<speed>3.440000</speed>
</trkpt>
<trkpt lat="55.691162" lon="26.562416">
<ele>150.857544</ele>
<time>2010-07-18T12:09:58Z</time>
<desc>lat.=55.691162, lon.=26.562416, Alt.=150.857544m. Speed=11.844000m/h.</desc>
<speed>3.290000</speed>
</trkpt>
<trkpt lat="55.691185" lon="26.562372">
<ele>151.298950</ele>
<time>2010-07-18T12:09:59Z</time>
<desc>lat.=55.691185, lon.=26.562372, Alt.=151.298950m. Speed=13.032000m/h.</desc>
<speed>3.620000</speed>
</trkpt>
<trkpt lat="55.691208" lon="26.562334">
<ele>151.658325</ele>
<time>2010-07-18T12:10:00Z</time>
<desc>lat.=55.691208, lon.=26.562334, Alt.=151.658325m. Speed=13.104000m/h.</desc>
<speed>3.640000</speed>
</trkpt>
<trkpt lat="55.691231" lon="26.562294">
<ele>151.974731</ele>
<time>2010-07-18T12:10:01Z</time>
<desc>lat.=55.691231, lon.=26.562294, Alt.=151.974731m. Speed=12.852000m/h.</desc>
<speed>3.570000</speed>
</trkpt>
<trkpt lat="55.691250" lon="26.562256">
<ele>152.220825</ele>
<time>2010-07-18T12:10:02Z</time>
<desc>lat.=55.691250, lon.=26.562256, Alt.=152.220825m. Speed=11.160000m/h.</desc>
<speed>3.100000</speed>
</trkpt>
<trkpt lat="55.691277" lon="26.562233">
<ele>152.009888</ele>
<time>2010-07-18T12:10:03Z</time>
<desc>lat.=55.691277, lon.=26.562233, Alt.=152.009888m. Speed=11.772000m/h.</desc>
<speed>3.270000</speed>
</trkpt>
<trkpt lat="55.691303" lon="26.562193">
<ele>151.810669</ele>
<time>2010-07-18T12:10:04Z</time>
<desc>lat.=55.691303, lon.=26.562193, Alt.=151.810669m. Speed=12.168000m/h.</desc>
<speed>3.380000</speed>
</trkpt>
<trkpt lat="55.691330" lon="26.562155">
<ele>151.564575</ele>
<time>2010-07-18T12:10:05Z</time>
<desc>lat.=55.691330, lon.=26.562155, Alt.=151.564575m. Speed=12.384000m/h.</desc>
<speed>3.440000</speed>
</trkpt>
<trkpt lat="55.691353" lon="26.562109">
<ele>151.111450</ele>
<time>2010-07-18T12:10:06Z</time>
<desc>lat.=55.691353, lon.=26.562109, Alt.=151.111450m. Speed=12.852000m/h.</desc>
<speed>3.570000</speed>
</trkpt>
<trkpt lat="55.691380" lon="26.562065">
<ele>151.166138</ele>
<time>2010-07-18T12:10:07Z</time>
<desc>lat.=55.691380, lon.=26.562065, Alt.=151.166138m. Speed=13.320000m/h.</desc>
<speed>3.700000</speed>
</trkpt>
<trkpt lat="55.691402" lon="26.562017">
<ele>151.298950</ele>
<time>2010-07-18T12:10:08Z</time>
<desc>lat.=55.691402, lon.=26.562017, Alt.=151.298950m. Speed=13.176000m/h.</desc>
<speed>3.660000</speed>
</trkpt>
<trkpt lat="55.691429" lon="26.561977">
<ele>151.451294</ele>
<time>2010-07-18T12:10:09Z</time>
<desc>lat.=55.691429, lon.=26.561977, Alt.=151.451294m. Speed=12.744000m/h.</desc>
<speed>3.540000</speed>
</trkpt>
<trkpt lat="55.691456" lon="26.561943">
<ele>151.252075</ele>
<time>2010-07-18T12:10:10Z</time>
<desc>lat.=55.691456, lon.=26.561943, Alt.=151.252075m. Speed=13.968000m/h.</desc>
<speed>3.880000</speed>
</trkpt>
<trkpt lat="55.691483" lon="26.561909">
<ele>150.709106</ele>
<time>2010-07-18T12:10:11Z</time>
<desc>lat.=55.691483, lon.=26.561909, Alt.=150.709106m. Speed=14.400000m/h.</desc>
<speed>4.000000</speed>
</trkpt>
<trkpt lat="55.691509" lon="26.561867">
<ele>150.588013</ele>
<time>2010-07-18T12:10:12Z</time>
<desc>lat.=55.691509, lon.=26.561867, Alt.=150.588013m. Speed=14.112000m/h.</desc>
<speed>3.920000</speed>
</trkpt>
<trkpt lat="55.691532" lon="26.561823">
<ele>150.541138</ele>
<time>2010-07-18T12:10:13Z</time>
<desc>lat.=55.691532, lon.=26.561823, Alt.=150.541138m. Speed=14.184000m/h.</desc>
<speed>3.940000</speed>
</trkpt>
<trkpt lat="55.691563" lon="26.561783">
<ele>150.509888</ele>
<time>2010-07-18T12:10:14Z</time>
<desc>lat.=55.691563, lon.=26.561783, Alt.=150.509888m. Speed=12.852000m/h.</desc>
<speed>3.570000</speed>
</trkpt>
<trkpt lat="55.691586" lon="26.561749">
<ele>150.123169</ele>
<time>2010-07-18T12:10:15Z</time>
<desc>lat.=55.691586, lon.=26.561749, Alt.=150.123169m. Speed=12.312000m/h.</desc>
<speed>3.420000</speed>
</trkpt>
<trkpt lat="55.691608" lon="26.561710">
<ele>149.990356</ele>
<time>2010-07-18T12:10:16Z</time>
<desc>lat.=55.691608, lon.=26.561710, Alt.=149.990356m. Speed=11.268000m/h.</desc>
<speed>3.130000</speed>
</trkpt>
<trkpt lat="55.691631" lon="26.561687">
<ele>150.076294</ele>
<time>2010-07-18T12:10:17Z</time>
<desc>lat.=55.691631, lon.=26.561687, Alt.=150.076294m. Speed=10.692000m/h.</desc>
<speed>2.970000</speed>
</trkpt>
<trkpt lat="55.691647" lon="26.561663">
<ele>149.494263</ele>
<time>2010-07-18T12:10:18Z</time>
<desc>lat.=55.691647, lon.=26.561663, Alt.=149.494263m. Speed=9.972000m/h.</desc>
<speed>2.770000</speed>
</trkpt>
<trkpt lat="55.691669" lon="26.561636">
<ele>148.845825</ele>
<time>2010-07-18T12:10:19Z</time>
<desc>lat.=55.691669, lon.=26.561636, Alt.=148.845825m. Speed=10.044000m/h.</desc>
<speed>2.790000</speed>
</trkpt>
<trkpt lat="55.691692" lon="26.561604">
<ele>148.857544</ele>
<time>2010-07-18T12:10:20Z</time>
<desc>lat.=55.691692, lon.=26.561604, Alt.=148.857544m. Speed=11.340000m/h.</desc>
<speed>3.150000</speed>
</trkpt>
<trkpt lat="55.691715" lon="26.561573">
<ele>149.412231</ele>
<time>2010-07-18T12:10:21Z</time>
<desc>lat.=55.691715, lon.=26.561573, Alt.=149.412231m. Speed=11.880000m/h.</desc>
<speed>3.300000</speed>
</trkpt>
<trkpt lat="55.691734" lon="26.561539">
<ele>148.873169</ele>
<time>2010-07-18T12:10:22Z</time>
<desc>lat.=55.691734, lon.=26.561539, Alt.=148.873169m. Speed=12.564000m/h.</desc>
<speed>3.490000</speed>
</trkpt>
<trkpt lat="55.691761" lon="26.561506">
<ele>148.724731</ele>
<time>2010-07-18T12:10:23Z</time>
<desc>lat.=55.691761, lon.=26.561506, Alt.=148.724731m. Speed=12.708000m/h.</desc>
<speed>3.530000</speed>
</trkpt>
<trkpt lat="55.691788" lon="26.561466">
<ele>148.654419</ele>
<time>2010-07-18T12:10:24Z</time>
<desc>lat.=55.691788, lon.=26.561466, Alt.=148.654419m. Speed=13.572000m/h.</desc>
<speed>3.770000</speed>
</trkpt>
<trkpt lat="55.691811" lon="26.561422">
<ele>148.310669</ele>
<time>2010-07-18T12:10:25Z</time>
<desc>lat.=55.691811, lon.=26.561422, Alt.=148.310669m. Speed=14.112000m/h.</desc>
<speed>3.920000</speed>
</trkpt>
<trkpt lat="55.691833" lon="26.561380">
<ele>148.642700</ele>
<time>2010-07-18T12:10:26Z</time>
<desc>lat.=55.691833, lon.=26.561380, Alt.=148.642700m. Speed=13.536000m/h.</desc>
<speed>3.760000</speed>
</trkpt>
<trkpt lat="55.691860" lon="26.561344">
<ele>148.533325</ele>
<time>2010-07-18T12:10:27Z</time>
<desc>lat.=55.691860, lon.=26.561344, Alt.=148.533325m. Speed=12.636000m/h.</desc>
<speed>3.510000</speed>
</trkpt>
<trkpt lat="55.691883" lon="26.561308">
<ele>148.752075</ele>
<time>2010-07-18T12:10:28Z</time>
<desc>lat.=55.691883, lon.=26.561308, Alt.=148.752075m. Speed=11.304000m/h.</desc>
<speed>3.140000</speed>
</trkpt>
<trkpt lat="55.691906" lon="26.561274">
<ele>148.877075</ele>
<time>2010-07-18T12:10:29Z</time>
<desc>lat.=55.691906, lon.=26.561274, Alt.=148.877075m. Speed=12.528000m/h.</desc>
<speed>3.480000</speed>
</trkpt>
<trkpt lat="55.691933" lon="26.561241">
<ele>148.673950</ele>
<time>2010-07-18T12:10:30Z</time>
<desc>lat.=55.691933, lon.=26.561241, Alt.=148.673950m. Speed=12.960000m/h.</desc>
<speed>3.600000</speed>
</trkpt>
<trkpt lat="55.691956" lon="26.561201">
<ele>148.306763</ele>
<time>2010-07-18T12:10:31Z</time>
<desc>lat.=55.691956, lon.=26.561201, Alt.=148.306763m. Speed=13.680000m/h.</desc>
<speed>3.800000</speed>
</trkpt>
<trkpt lat="55.691982" lon="26.561155">
<ele>148.302856</ele>
<time>2010-07-18T12:10:32Z</time>
<desc>lat.=55.691982, lon.=26.561155, Alt.=148.302856m. Speed=14.148000m/h.</desc>
<speed>3.930000</speed>
</trkpt>
<trkpt lat="55.692009" lon="26.561113">
<ele>148.123169</ele>
<time>2010-07-18T12:10:33Z</time>
<desc>lat.=55.692009, lon.=26.561113, Alt.=148.123169m. Speed=14.112000m/h.</desc>
<speed>3.920000</speed>
</trkpt>
<trkpt lat="55.692036" lon="26.561069">
<ele>148.556763</ele>
<time>2010-07-18T12:10:34Z</time>
<desc>lat.=55.692036, lon.=26.561069, Alt.=148.556763m. Speed=14.940000m/h.</desc>
<speed>4.150000</speed>
</trkpt>
<trkpt lat="55.692062" lon="26.561033">
<ele>148.650513</ele>
<time>2010-07-18T12:10:35Z</time>
<desc>lat.=55.692062, lon.=26.561033, Alt.=148.650513m. Speed=14.976000m/h.</desc>
<speed>4.160000</speed>
</trkpt>
<trkpt lat="55.692089" lon="26.560991">
<ele>148.646606</ele>
<time>2010-07-18T12:10:36Z</time>
<desc>lat.=55.692089, lon.=26.560991, Alt.=148.646606m. Speed=14.256000m/h.</desc>
<speed>3.960000</speed>
</trkpt>
<trkpt lat="55.692112" lon="26.560953">
<ele>148.709106</ele>
<time>2010-07-18T12:10:37Z</time>
<desc>lat.=55.692112, lon.=26.560953, Alt.=148.709106m. Speed=13.356000m/h.</desc>
<speed>3.710000</speed>
</trkpt>
<trkpt lat="55.692131" lon="26.560917">
<ele>148.724731</ele>
<time>2010-07-18T12:10:38Z</time>
<desc>lat.=55.692131, lon.=26.560917, Alt.=148.724731m. Speed=12.636000m/h.</desc>
<speed>3.510000</speed>
</trkpt>
<trkpt lat="55.692150" lon="26.560881">
<ele>148.693481</ele>
<time>2010-07-18T12:10:39Z</time>
<desc>lat.=55.692150, lon.=26.560881, Alt.=148.693481m. Speed=11.376000m/h.</desc>
<speed>3.160000</speed>
</trkpt>
<trkpt lat="55.692177" lon="26.560856">
<ele>148.384888</ele>
<time>2010-07-18T12:10:40Z</time>
<desc>lat.=55.692177, lon.=26.560856, Alt.=148.384888m. Speed=11.196000m/h.</desc>
<speed>3.110000</speed>
</trkpt>
<trkpt lat="55.692200" lon="26.560835">
<ele>148.341919</ele>
<time>2010-07-18T12:10:41Z</time>
<desc>lat.=55.692200, lon.=26.560835, Alt.=148.341919m. Speed=10.836000m/h.</desc>
<speed>3.010000</speed>
</trkpt>
<trkpt lat="55.692223" lon="26.560818">
<ele>148.310669</ele>
<time>2010-07-18T12:10:42Z</time>
<desc>lat.=55.692223, lon.=26.560818, Alt.=148.310669m. Speed=10.044000m/h.</desc>
<speed>2.790000</speed>
</trkpt>
<trkpt lat="55.692245" lon="26.560793">
<ele>148.326294</ele>
<time>2010-07-18T12:10:43Z</time>
<desc>lat.=55.692245, lon.=26.560793, Alt.=148.326294m. Speed=11.196000m/h.</desc>
<speed>3.110000</speed>
</trkpt>
<trkpt lat="55.692272" lon="26.560757">
<ele>148.224731</ele>
<time>2010-07-18T12:10:44Z</time>
<desc>lat.=55.692272, lon.=26.560757, Alt.=148.224731m. Speed=12.096000m/h.</desc>
<speed>3.360000</speed>
</trkpt>
<trkpt lat="55.692291" lon="26.560720">
<ele>148.431763</ele>
<time>2010-07-18T12:10:45Z</time>
<desc>lat.=55.692291, lon.=26.560720, Alt.=148.431763m. Speed=12.096000m/h.</desc>
<speed>3.360000</speed>
</trkpt>
<trkpt lat="55.692307" lon="26.560690">
<ele>148.584106</ele>
<time>2010-07-18T12:10:46Z</time>
<desc>lat.=55.692307, lon.=26.560690, Alt.=148.584106m. Speed=11.340000m/h.</desc>
<speed>3.150000</speed>
</trkpt>
<trkpt lat="55.692322" lon="26.560663">
<ele>148.513794</ele>
<time>2010-07-18T12:10:47Z</time>
<desc>lat.=55.692322, lon.=26.560663, Alt.=148.513794m. Speed=10.476000m/h.</desc>
<speed>2.910000</speed>
</trkpt>
<trkpt lat="55.692345" lon="26.560633">
<ele>148.634888</ele>
<time>2010-07-18T12:10:48Z</time>
<desc>lat.=55.692345, lon.=26.560633, Alt.=148.634888m. Speed=10.512000m/h.</desc>
<speed>2.920000</speed>
</trkpt>
<trkpt lat="55.692368" lon="26.560602">
<ele>148.470825</ele>
<time>2010-07-18T12:10:49Z</time>
<desc>lat.=55.692368, lon.=26.560602, Alt.=148.470825m. Speed=10.872000m/h.</desc>
<speed>3.020000</speed>
</trkpt>
<trkpt lat="55.692387" lon="26.560574">
<ele>148.373169</ele>
<time>2010-07-18T12:10:50Z</time>
<desc>lat.=55.692387, lon.=26.560574, Alt.=148.373169m. Speed=11.376000m/h.</desc>
<speed>3.160000</speed>
</trkpt>
<trkpt lat="55.692410" lon="26.560535">
<ele>148.388794</ele>
<time>2010-07-18T12:10:51Z</time>
<desc>lat.=55.692410, lon.=26.560535, Alt.=148.388794m. Speed=12.060000m/h.</desc>
<speed>3.350000</speed>
</trkpt>
<trkpt lat="55.692436" lon="26.560497">
<ele>148.119263</ele>
<time>2010-07-18T12:10:52Z</time>
<desc>lat.=55.692436, lon.=26.560497, Alt.=148.119263m. Speed=12.672000m/h.</desc>
<speed>3.520000</speed>
</trkpt>
<trkpt lat="55.692467" lon="26.560467">
<ele>147.584106</ele>
<time>2010-07-18T12:10:53Z</time>
<desc>lat.=55.692467, lon.=26.560467, Alt.=147.584106m. Speed=13.140000m/h.</desc>
<speed>3.650000</speed>
</trkpt>
<trkpt lat="55.692501" lon="26.560436">
<ele>146.627075</ele>
<time>2010-07-18T12:10:54Z</time>
<desc>lat.=55.692501, lon.=26.560436, Alt.=146.627075m. Speed=13.320000m/h.</desc>
<speed>3.700000</speed>
</trkpt>
<trkpt lat="55.692528" lon="26.560394">
<ele>146.572388</ele>
<time>2010-07-18T12:10:55Z</time>
<desc>lat.=55.692528, lon.=26.560394, Alt.=146.572388m. Speed=13.356000m/h.</desc>
<speed>3.710000</speed>
</trkpt>
<trkpt lat="55.692554" lon="26.560349">
<ele>146.986450</ele>
<time>2010-07-18T12:10:56Z</time>
<desc>lat.=55.692554, lon.=26.560349, Alt.=146.986450m. Speed=13.320000m/h.</desc>
<speed>3.700000</speed>
</trkpt>
<trkpt lat="55.692574" lon="26.560307">
<ele>147.205200</ele>
<time>2010-07-18T12:10:57Z</time>
<desc>lat.=55.692574, lon.=26.560307, Alt.=147.205200m. Speed=13.608000m/h.</desc>
<speed>3.780000</speed>
</trkpt>
<trkpt lat="55.692604" lon="26.560259">
<ele>147.283325</ele>
<time>2010-07-18T12:10:58Z</time>
<desc>lat.=55.692604, lon.=26.560259, Alt.=147.283325m. Speed=14.004000m/h.</desc>
<speed>3.890000</speed>
</trkpt>
<trkpt lat="55.692631" lon="26.560215">
<ele>147.494263</ele>
<time>2010-07-18T12:10:59Z</time>
<desc>lat.=55.692631, lon.=26.560215, Alt.=147.494263m. Speed=14.004000m/h.</desc>
<speed>3.890000</speed>
</trkpt>
<trkpt lat="55.692657" lon="26.560171">
<ele>147.662231</ele>
<time>2010-07-18T12:11:00Z</time>
<desc>lat.=55.692657, lon.=26.560171, Alt.=147.662231m. Speed=14.580000m/h.</desc>
<speed>4.050000</speed>
</trkpt>
<trkpt lat="55.692680" lon="26.560135">
<ele>147.877075</ele>
<time>2010-07-18T12:11:01Z</time>
<desc>lat.=55.692680, lon.=26.560135, Alt.=147.877075m. Speed=14.220000m/h.</desc>
<speed>3.950000</speed>
</trkpt>
<trkpt lat="55.692703" lon="26.560097">
<ele>147.982544</ele>
<time>2010-07-18T12:11:02Z</time>
<desc>lat.=55.692703, lon.=26.560097, Alt.=147.982544m. Speed=13.284000m/h.</desc>
<speed>3.690000</speed>
</trkpt>
<trkpt lat="55.692734" lon="26.560057">
<ele>147.787231</ele>
<time>2010-07-18T12:11:03Z</time>
<desc>lat.=55.692734, lon.=26.560057, Alt.=147.787231m. Speed=13.680000m/h.</desc>
<speed>3.800000</speed>
</trkpt>
<trkpt lat="55.692760" lon="26.560024">
<ele>147.423950</ele>
<time>2010-07-18T12:11:04Z</time>
<desc>lat.=55.692760, lon.=26.560024, Alt.=147.423950m. Speed=12.816000m/h.</desc>
<speed>3.560000</speed>
</trkpt>
<trkpt lat="55.692783" lon="26.559988">
<ele>147.119263</ele>
<time>2010-07-18T12:11:05Z</time>
<desc>lat.=55.692783, lon.=26.559988, Alt.=147.119263m. Speed=12.780000m/h.</desc>
<speed>3.550000</speed>
</trkpt>
<trkpt lat="55.692810" lon="26.559954">
<ele>147.013794</ele>
<time>2010-07-18T12:11:06Z</time>
<desc>lat.=55.692810, lon.=26.559954, Alt.=147.013794m. Speed=10.980000m/h.</desc>
<speed>3.050000</speed>
</trkpt>
<trkpt lat="55.692833" lon="26.559919">
<ele>146.677856</ele>
<time>2010-07-18T12:11:07Z</time>
<desc>lat.=55.692833, lon.=26.559919, Alt.=146.677856m. Speed=11.880000m/h.</desc>
<speed>3.300000</speed>
</trkpt>
<trkpt lat="55.692860" lon="26.559881">
<ele>146.603638</ele>
<time>2010-07-18T12:11:08Z</time>
<desc>lat.=55.692860, lon.=26.559881, Alt.=146.603638m. Speed=12.816000m/h.</desc>
<speed>3.560000</speed>
</trkpt>
<trkpt lat="55.692886" lon="26.559841">
<ele>146.822388</ele>
<time>2010-07-18T12:11:09Z</time>
<desc>lat.=55.692886, lon.=26.559841, Alt.=146.822388m. Speed=13.320000m/h.</desc>
<speed>3.700000</speed>
</trkpt>
<trkpt lat="55.692913" lon="26.559809">
<ele>146.630981</ele>
<time>2010-07-18T12:11:10Z</time>
<desc>lat.=55.692913, lon.=26.559809, Alt.=146.630981m. Speed=13.320000m/h.</desc>
<speed>3.700000</speed>
</trkpt>
<trkpt lat="55.692944" lon="26.559767">
<ele>146.537231</ele>
<time>2010-07-18T12:11:11Z</time>
<desc>lat.=55.692944, lon.=26.559767, Alt.=146.537231m. Speed=14.256000m/h.</desc>
<speed>3.960000</speed>
</trkpt>
<trkpt lat="55.692970" lon="26.559723">
<ele>146.095825</ele>
<time>2010-07-18T12:11:12Z</time>
<desc>lat.=55.692970, lon.=26.559723, Alt.=146.095825m. Speed=13.680000m/h.</desc>
<speed>3.800000</speed>
</trkpt>
<trkpt lat="55.692997" lon="26.559685">
<ele>145.912231</ele>
<time>2010-07-18T12:11:13Z</time>
<desc>lat.=55.692997, lon.=26.559685, Alt.=145.912231m. Speed=12.960000m/h.</desc>
<speed>3.600000</speed>
</trkpt>
<trkpt lat="55.693020" lon="26.559649">
<ele>146.127075</ele>
<time>2010-07-18T12:11:14Z</time>
<desc>lat.=55.693020, lon.=26.559649, Alt.=146.127075m. Speed=11.880000m/h.</desc>
<speed>3.300000</speed>
</trkpt>
<trkpt lat="55.693043" lon="26.559616">
<ele>146.084106</ele>
<time>2010-07-18T12:11:15Z</time>
<desc>lat.=55.693043, lon.=26.559616, Alt.=146.084106m. Speed=12.312000m/h.</desc>
<speed>3.420000</speed>
</trkpt>
<trkpt lat="55.693069" lon="26.559582">
<ele>146.052856</ele>
<time>2010-07-18T12:11:16Z</time>
<desc>lat.=55.693069, lon.=26.559582, Alt.=146.052856m. Speed=12.744000m/h.</desc>
<speed>3.540000</speed>
</trkpt>
<trkpt lat="55.693096" lon="26.559546">
<ele>145.990356</ele>
<time>2010-07-18T12:11:17Z</time>
<desc>lat.=55.693096, lon.=26.559546, Alt.=145.990356m. Speed=13.716000m/h.</desc>
<speed>3.810000</speed>
</trkpt>
<trkpt lat="55.693123" lon="26.559507">
<ele>145.838013</ele>
<time>2010-07-18T12:11:18Z</time>
<desc>lat.=55.693123, lon.=26.559507, Alt.=145.838013m. Speed=14.364000m/h.</desc>
<speed>3.990000</speed>
</trkpt>
<trkpt lat="55.693153" lon="26.559473">
<ele>145.318481</ele>
<time>2010-07-18T12:11:19Z</time>
<desc>lat.=55.693153, lon.=26.559473, Alt.=145.318481m. Speed=14.688000m/h.</desc>
<speed>4.080000</speed>
</trkpt>
<trkpt lat="55.693180" lon="26.559427">
<ele>145.388794</ele>
<time>2010-07-18T12:11:20Z</time>
<desc>lat.=55.693180, lon.=26.559427, Alt.=145.388794m. Speed=14.832000m/h.</desc>
<speed>4.120000</speed>
</trkpt>
<trkpt lat="55.693211" lon="26.559385">
<ele>145.365356</ele>
<time>2010-07-18T12:11:21Z</time>
<desc>lat.=55.693211, lon.=26.559385, Alt.=145.365356m. Speed=14.364000m/h.</desc>
<speed>3.990000</speed>
</trkpt>
<trkpt lat="55.693237" lon="26.559351">
<ele>145.568481</ele>
<time>2010-07-18T12:11:22Z</time>
<desc>lat.=55.693237, lon.=26.559351, Alt.=145.568481m. Speed=13.104000m/h.</desc>
<speed>3.640000</speed>
</trkpt>
<trkpt lat="55.693264" lon="26.559320">
<ele>145.752075</ele>
<time>2010-07-18T12:11:23Z</time>
<desc>lat.=55.693264, lon.=26.559320, Alt.=145.752075m. Speed=13.428000m/h.</desc>
<speed>3.730000</speed>
</trkpt>
<trkpt lat="55.693287" lon="26.559288">
<ele>145.740356</ele>
<time>2010-07-18T12:11:24Z</time>
<desc>lat.=55.693287, lon.=26.559288, Alt.=145.740356m. Speed=11.808000m/h.</desc>
<speed>3.280000</speed>
</trkpt>
<trkpt lat="55.693310" lon="26.559252">
<ele>145.744263</ele>
<time>2010-07-18T12:11:25Z</time>
<desc>lat.=55.693310, lon.=26.559252, Alt.=145.744263m. Speed=12.240000m/h.</desc>
<speed>3.400000</speed>
</trkpt>
<trkpt lat="55.693329" lon="26.559219">
<ele>145.904419</ele>
<time>2010-07-18T12:11:26Z</time>
<desc>lat.=55.693329, lon.=26.559219, Alt.=145.904419m. Speed=11.412000m/h.</desc>
<speed>3.170000</speed>
</trkpt>
<trkpt lat="55.693348" lon="26.559191">
<ele>146.279419</ele>
<time>2010-07-18T12:11:27Z</time>
<desc>lat.=55.693348, lon.=26.559191, Alt.=146.279419m. Speed=11.340000m/h.</desc>
<speed>3.150000</speed>
</trkpt>
<trkpt lat="55.693371" lon="26.559164">
<ele>145.775513</ele>
<time>2010-07-18T12:11:28Z</time>
<desc>lat.=55.693371, lon.=26.559164, Alt.=145.775513m. Speed=10.908000m/h.</desc>
<speed>3.030000</speed>
</trkpt>
<trkpt lat="55.693394" lon="26.559130">
<ele>145.884888</ele>
<time>2010-07-18T12:11:29Z</time>
<desc>lat.=55.693394, lon.=26.559130, Alt.=145.884888m. Speed=11.016000m/h.</desc>
<speed>3.060000</speed>
</trkpt>
<trkpt lat="55.693409" lon="26.559093">
<ele>145.834106</ele>
<time>2010-07-18T12:11:30Z</time>
<desc>lat.=55.693409, lon.=26.559093, Alt.=145.834106m. Speed=12.276000m/h.</desc>
<speed>3.410000</speed>
</trkpt>
<trkpt lat="55.693428" lon="26.559055">
<ele>145.779419</ele>
<time>2010-07-18T12:11:31Z</time>
<desc>lat.=55.693428, lon.=26.559055, Alt.=145.779419m. Speed=12.096000m/h.</desc>
<speed>3.360000</speed>
</trkpt>
<trkpt lat="55.693447" lon="26.559025">
<ele>145.884888</ele>
<time>2010-07-18T12:11:32Z</time>
<desc>lat.=55.693447, lon.=26.559025, Alt.=145.884888m. Speed=11.412000m/h.</desc>
<speed>3.170000</speed>
</trkpt>
<trkpt lat="55.693462" lon="26.558992">
<ele>146.326294</ele>
<time>2010-07-18T12:11:33Z</time>
<desc>lat.=55.693462, lon.=26.558992, Alt.=146.326294m. Speed=11.340000m/h.</desc>
<speed>3.150000</speed>
</trkpt>
<trkpt lat="55.693485" lon="26.558966">
<ele>146.509888</ele>
<time>2010-07-18T12:11:34Z</time>
<desc>lat.=55.693485, lon.=26.558966, Alt.=146.509888m. Speed=11.412000m/h.</desc>
<speed>3.170000</speed>
</trkpt>
<trkpt lat="55.693508" lon="26.558937">
<ele>146.552856</ele>
<time>2010-07-18T12:11:35Z</time>
<desc>lat.=55.693508, lon.=26.558937, Alt.=146.552856m. Speed=11.844000m/h.</desc>
<speed>3.290000</speed>
</trkpt>
<trkpt lat="55.693531" lon="26.558905">
<ele>146.630981</ele>
<time>2010-07-18T12:11:36Z</time>
<desc>lat.=55.693531, lon.=26.558905, Alt.=146.630981m. Speed=11.124000m/h.</desc>
<speed>3.090000</speed>
</trkpt>
<trkpt lat="55.693546" lon="26.558855">
<ele>148.322388</ele>
<time>2010-07-18T12:11:37Z</time>
<desc>lat.=55.693546, lon.=26.558855, Alt.=148.322388m. Speed=11.628000m/h.</desc>
<speed>3.230000</speed>
</trkpt>
<trkpt lat="55.693565" lon="26.558821">
<ele>148.607544</ele>
<time>2010-07-18T12:11:38Z</time>
<desc>lat.=55.693565, lon.=26.558821, Alt.=148.607544m. Speed=12.096000m/h.</desc>
<speed>3.360000</speed>
</trkpt>
<trkpt lat="55.693588" lon="26.558779">
<ele>148.990356</ele>
<time>2010-07-18T12:11:39Z</time>
<desc>lat.=55.693588, lon.=26.558779, Alt.=148.990356m. Speed=13.176000m/h.</desc>
<speed>3.660000</speed>
</trkpt>
<trkpt lat="55.693611" lon="26.558743">
<ele>149.252075</ele>
<time>2010-07-18T12:11:40Z</time>
<desc>lat.=55.693611, lon.=26.558743, Alt.=149.252075m. Speed=13.212000m/h.</desc>
<speed>3.670000</speed>
</trkpt>
<trkpt lat="55.693630" lon="26.558691">
<ele>150.779419</ele>
<time>2010-07-18T12:11:41Z</time>
<desc>lat.=55.693630, lon.=26.558691, Alt.=150.779419m. Speed=13.104000m/h.</desc>
<speed>3.640000</speed>
</trkpt>
<trkpt lat="55.693653" lon="26.558647">
<ele>151.033325</ele>
<time>2010-07-18T12:11:42Z</time>
<desc>lat.=55.693653, lon.=26.558647, Alt.=151.033325m. Speed=12.456000m/h.</desc>
<speed>3.460000</speed>
</trkpt>
<trkpt lat="55.693676" lon="26.558599">
<ele>153.377075</ele>
<time>2010-07-18T12:11:43Z</time>
<desc>lat.=55.693676, lon.=26.558599, Alt.=153.377075m. Speed=11.196000m/h.</desc>
<speed>3.110000</speed>
</trkpt>
<trkpt lat="55.693695" lon="26.558567">
<ele>153.947388</ele>
<time>2010-07-18T12:11:44Z</time>
<desc>lat.=55.693695, lon.=26.558567, Alt.=153.947388m. Speed=12.312000m/h.</desc>
<speed>3.420000</speed>
</trkpt>
<trkpt lat="55.693718" lon="26.558529">
<ele>154.345825</ele>
<time>2010-07-18T12:11:45Z</time>
<desc>lat.=55.693718, lon.=26.558529, Alt.=154.345825m. Speed=13.752000m/h.</desc>
<speed>3.820000</speed>
</trkpt>
<trkpt lat="55.693745" lon="26.558483">
<ele>154.912231</ele>
<time>2010-07-18T12:11:46Z</time>
<desc>lat.=55.693745, lon.=26.558483, Alt.=154.912231m. Speed=14.256000m/h.</desc>
<speed>3.960000</speed>
</trkpt>
<trkpt lat="55.693771" lon="26.558437">
<ele>155.033325</ele>
<time>2010-07-18T12:11:47Z</time>
<desc>lat.=55.693771, lon.=26.558437, Alt.=155.033325m. Speed=15.156000m/h.</desc>
<speed>4.210000</speed>
</trkpt>
<trkpt lat="55.693806" lon="26.558399">
<ele>154.306763</ele>
<time>2010-07-18T12:11:48Z</time>
<desc>lat.=55.693806, lon.=26.558399, Alt.=154.306763m. Speed=15.732000m/h.</desc>
<speed>4.370000</speed>
</trkpt>
<trkpt lat="55.693836" lon="26.558355">
<ele>154.138794</ele>
<time>2010-07-18T12:11:49Z</time>
<desc>lat.=55.693836, lon.=26.558355, Alt.=154.138794m. Speed=14.868000m/h.</desc>
<speed>4.130000</speed>
</trkpt>
<trkpt lat="55.693867" lon="26.558311">
<ele>154.138794</ele>
<time>2010-07-18T12:11:50Z</time>
<desc>lat.=55.693867, lon.=26.558311, Alt.=154.138794m. Speed=14.112000m/h.</desc>
<speed>3.920000</speed>
</trkpt>
<trkpt lat="55.693901" lon="26.558290">
<ele>153.611450</ele>
<time>2010-07-18T12:11:51Z</time>
<desc>lat.=55.693901, lon.=26.558290, Alt.=153.611450m. Speed=14.256000m/h.</desc>
<speed>3.960000</speed>
</trkpt>
<trkpt lat="55.693932" lon="26.558256">
<ele>153.193481</ele>
<time>2010-07-18T12:11:52Z</time>
<desc>lat.=55.693932, lon.=26.558256, Alt.=153.193481m. Speed=14.796000m/h.</desc>
<speed>4.110000</speed>
</trkpt>
<trkpt lat="55.693958" lon="26.558216">
<ele>153.322388</ele>
<time>2010-07-18T12:11:53Z</time>
<desc>lat.=55.693958, lon.=26.558216, Alt.=153.322388m. Speed=15.264000m/h.</desc>
<speed>4.240000</speed>
</trkpt>
<trkpt lat="55.693989" lon="26.558176">
<ele>153.076294</ele>
<time>2010-07-18T12:11:54Z</time>
<desc>lat.=55.693989, lon.=26.558176, Alt.=153.076294m. Speed=14.400000m/h.</desc>
<speed>4.000000</speed>
</trkpt>
<trkpt lat="55.694016" lon="26.558138">
<ele>153.064575</ele>
<time>2010-07-18T12:11:55Z</time>
<desc>lat.=55.694016, lon.=26.558138, Alt.=153.064575m. Speed=14.328000m/h.</desc>
<speed>3.980000</speed>
</trkpt>
<trkpt lat="55.694046" lon="26.558096">
<ele>153.115356</ele>
<time>2010-07-18T12:11:56Z</time>
<desc>lat.=55.694046, lon.=26.558096, Alt.=153.115356m. Speed=14.868000m/h.</desc>
<speed>4.130000</speed>
</trkpt>
<trkpt lat="55.694080" lon="26.558050">
<ele>153.111450</ele>
<time>2010-07-18T12:11:57Z</time>
<desc>lat.=55.694080, lon.=26.558050, Alt.=153.111450m. Speed=15.048000m/h.</desc>
<speed>4.180000</speed>
</trkpt>
<trkpt lat="55.694111" lon="26.558008">
<ele>153.236450</ele>
<time>2010-07-18T12:11:58Z</time>
<desc>lat.=55.694111, lon.=26.558008, Alt.=153.236450m. Speed=15.696000m/h.</desc>
<speed>4.360000</speed>
</trkpt>
<trkpt lat="55.694138" lon="26.557974">
<ele>153.904419</ele>
<time>2010-07-18T12:11:59Z</time>
<desc>lat.=55.694138, lon.=26.557974, Alt.=153.904419m. Speed=13.572000m/h.</desc>
<speed>3.770000</speed>
</trkpt>
<trkpt lat="55.694160" lon="26.557945">
<ele>154.787231</ele>
<time>2010-07-18T12:12:00Z</time>
<desc>lat.=55.694160, lon.=26.557945, Alt.=154.787231m. Speed=12.564000m/h.</desc>
<speed>3.490000</speed>
</trkpt>
<trkpt lat="55.694183" lon="26.557915">
<ele>155.912231</ele>
<time>2010-07-18T12:12:01Z</time>
<desc>lat.=55.694183, lon.=26.557915, Alt.=155.912231m. Speed=12.312000m/h.</desc>
<speed>3.420000</speed>
</trkpt>
<trkpt lat="55.694210" lon="26.557880">
<ele>157.095825</ele>
<time>2010-07-18T12:12:02Z</time>
<desc>lat.=55.694210, lon.=26.557880, Alt.=157.095825m. Speed=11.772000m/h.</desc>
<speed>3.270000</speed>
</trkpt>
<trkpt lat="55.694233" lon="26.557831">
<ele>157.205200</ele>
<time>2010-07-18T12:12:03Z</time>
<desc>lat.=55.694233, lon.=26.557831, Alt.=157.205200m. Speed=14.652000m/h.</desc>
<speed>4.070000</speed>
</trkpt>
<trkpt lat="55.694263" lon="26.557787">
<ele>156.693481</ele>
<time>2010-07-18T12:12:04Z</time>
<desc>lat.=55.694263, lon.=26.557787, Alt.=156.693481m. Speed=14.904000m/h.</desc>
<speed>4.140000</speed>
</trkpt>
<trkpt lat="55.694294" lon="26.557741">
<ele>156.560669</ele>
<time>2010-07-18T12:12:05Z</time>
<desc>lat.=55.694294, lon.=26.557741, Alt.=156.560669m. Speed=14.724000m/h.</desc>
<speed>4.090000</speed>
</trkpt>
<trkpt lat="55.694324" lon="26.557699">
<ele>156.513794</ele>
<time>2010-07-18T12:12:06Z</time>
<desc>lat.=55.694324, lon.=26.557699, Alt.=156.513794m. Speed=14.688000m/h.</desc>
<speed>4.080000</speed>
</trkpt>
<trkpt lat="55.694355" lon="26.557665">
<ele>156.517700</ele>
<time>2010-07-18T12:12:07Z</time>
<desc>lat.=55.694355, lon.=26.557665, Alt.=156.517700m. Speed=14.328000m/h.</desc>
<speed>3.980000</speed>
</trkpt>
<trkpt lat="55.694386" lon="26.557631">
<ele>155.841919</ele>
<time>2010-07-18T12:12:08Z</time>
<desc>lat.=55.694386, lon.=26.557631, Alt.=155.841919m. Speed=14.904000m/h.</desc>
<speed>4.140000</speed>
</trkpt>
<trkpt lat="55.694412" lon="26.557581">
<ele>156.502075</ele>
<time>2010-07-18T12:12:09Z</time>
<desc>lat.=55.694412, lon.=26.557581, Alt.=156.502075m. Speed=15.480000m/h.</desc>
<speed>4.300000</speed>
</trkpt>
<trkpt lat="55.694443" lon="26.557541">
<ele>156.502075</ele>
<time>2010-07-18T12:12:10Z</time>
<desc>lat.=55.694443, lon.=26.557541, Alt.=156.502075m. Speed=13.860000m/h.</desc>
<speed>3.850000</speed>
</trkpt>
<trkpt lat="55.694469" lon="26.557508">
<ele>156.892700</ele>
<time>2010-07-18T12:12:11Z</time>
<desc>lat.=55.694469, lon.=26.557508, Alt.=156.892700m. Speed=13.176000m/h.</desc>
<speed>3.660000</speed>
</trkpt>
<trkpt lat="55.694492" lon="26.557472">
<ele>157.716919</ele>
<time>2010-07-18T12:12:12Z</time>
<desc>lat.=55.694492, lon.=26.557472, Alt.=157.716919m. Speed=12.672000m/h.</desc>
<speed>3.520000</speed>
</trkpt>
<trkpt lat="55.694511" lon="26.557434">
<ele>158.369263</ele>
<time>2010-07-18T12:12:13Z</time>
<desc>lat.=55.694511, lon.=26.557434, Alt.=158.369263m. Speed=11.952000m/h.</desc>
<speed>3.320000</speed>
</trkpt>
<trkpt lat="55.694530" lon="26.557404">
<ele>158.451294</ele>
<time>2010-07-18T12:12:14Z</time>
<desc>lat.=55.694530, lon.=26.557404, Alt.=158.451294m. Speed=10.332000m/h.</desc>
<speed>2.870000</speed>
</trkpt>
<trkpt lat="55.694550" lon="26.557367">
<ele>159.142700</ele>
<time>2010-07-18T12:12:15Z</time>
<desc>lat.=55.694550, lon.=26.557367, Alt.=159.142700m. Speed=12.780000m/h.</desc>
<speed>3.550000</speed>
</trkpt>
<trkpt lat="55.694576" lon="26.557329">
<ele>159.658325</ele>
<time>2010-07-18T12:12:16Z</time>
<desc>lat.=55.694576, lon.=26.557329, Alt.=159.658325m. Speed=13.392000m/h.</desc>
<speed>3.720000</speed>
</trkpt>
<trkpt lat="55.694603" lon="26.557295">
<ele>160.380981</ele>
<time>2010-07-18T12:12:17Z</time>
<desc>lat.=55.694603, lon.=26.557295, Alt.=160.380981m. Speed=13.500000m/h.</desc>
<speed>3.750000</speed>
</trkpt>
<trkpt lat="55.694637" lon="26.557253">
<ele>160.220825</ele>
<time>2010-07-18T12:12:18Z</time>
<desc>lat.=55.694637, lon.=26.557253, Alt.=160.220825m. Speed=14.076000m/h.</desc>
<speed>3.910000</speed>
</trkpt>
<trkpt lat="55.694672" lon="26.557211">
<ele>159.978638</ele>
<time>2010-07-18T12:12:19Z</time>
<desc>lat.=55.694672, lon.=26.557211, Alt.=159.978638m. Speed=14.076000m/h.</desc>
<speed>3.910000</speed>
</trkpt>
<trkpt lat="55.694710" lon="26.557165">
<ele>159.455200</ele>
<time>2010-07-18T12:12:20Z</time>
<desc>lat.=55.694710, lon.=26.557165, Alt.=159.455200m. Speed=15.552000m/h.</desc>
<speed>4.320000</speed>
</trkpt>
<trkpt lat="55.694740" lon="26.557114">
<ele>158.451294</ele>
<time>2010-07-18T12:12:21Z</time>
<desc>lat.=55.694740, lon.=26.557114, Alt.=158.451294m. Speed=16.848000m/h.</desc>
<speed>4.680000</speed>
</trkpt>
<trkpt lat="55.694775" lon="26.557062">
<ele>158.349731</ele>
<time>2010-07-18T12:12:22Z</time>
<desc>lat.=55.694775, lon.=26.557062, Alt.=158.349731m. Speed=16.236000m/h.</desc>
<speed>4.510000</speed>
</trkpt>
<trkpt lat="55.694801" lon="26.557009">
<ele>158.041138</ele>
<time>2010-07-18T12:12:23Z</time>
<desc>lat.=55.694801, lon.=26.557009, Alt.=158.041138m. Speed=15.444000m/h.</desc>
<speed>4.290000</speed>
</trkpt>
<trkpt lat="55.694832" lon="26.556961">
<ele>157.759888</ele>
<time>2010-07-18T12:12:24Z</time>
<desc>lat.=55.694832, lon.=26.556961, Alt.=157.759888m. Speed=14.580000m/h.</desc>
<speed>4.050000</speed>
</trkpt>
<trkpt lat="55.694862" lon="26.556913">
<ele>157.443481</ele>
<time>2010-07-18T12:12:25Z</time>
<desc>lat.=55.694862, lon.=26.556913, Alt.=157.443481m. Speed=13.932000m/h.</desc>
<speed>3.870000</speed>
</trkpt>
<trkpt lat="55.694889" lon="26.556871">
<ele>157.244263</ele>
<time>2010-07-18T12:12:26Z</time>
<desc>lat.=55.694889, lon.=26.556871, Alt.=157.244263m. Speed=11.700000m/h.</desc>
<speed>3.250000</speed>
</trkpt>
<trkpt lat="55.694916" lon="26.556835">
<ele>156.830200</ele>
<time>2010-07-18T12:12:27Z</time>
<desc>lat.=55.694916, lon.=26.556835, Alt.=156.830200m. Speed=13.464000m/h.</desc>
<speed>3.740000</speed>
</trkpt>
<trkpt lat="55.694946" lon="26.556789">
<ele>156.568481</ele>
<time>2010-07-18T12:12:28Z</time>
<desc>lat.=55.694946, lon.=26.556789, Alt.=156.568481m. Speed=14.904000m/h.</desc>
<speed>4.140000</speed>
</trkpt>
<trkpt lat="55.694973" lon="26.556742">
<ele>156.330200</ele>
<time>2010-07-18T12:12:29Z</time>
<desc>lat.=55.694973, lon.=26.556742, Alt.=156.330200m. Speed=12.996000m/h.</desc>
<speed>3.610000</speed>
</trkpt>
<trkpt lat="55.695000" lon="26.556704">
<ele>156.365356</ele>
<time>2010-07-18T12:12:30Z</time>
<desc>lat.=55.695000, lon.=26.556704, Alt.=156.365356m. Speed=14.148000m/h.</desc>
<speed>3.930000</speed>
</trkpt>
<trkpt lat="55.695030" lon="26.556662">
<ele>156.037231</ele>
<time>2010-07-18T12:12:31Z</time>
<desc>lat.=55.695030, lon.=26.556662, Alt.=156.037231m. Speed=13.824000m/h.</desc>
<speed>3.840000</speed>
</trkpt>
<trkpt lat="55.695061" lon="26.556620">
<ele>155.716919</ele>
<time>2010-07-18T12:12:32Z</time>
<desc>lat.=55.695061, lon.=26.556620, Alt.=155.716919m. Speed=13.032000m/h.</desc>
<speed>3.620000</speed>
</trkpt>
<trkpt lat="55.695087" lon="26.556576">
<ele>155.685669</ele>
<time>2010-07-18T12:12:33Z</time>
<desc>lat.=55.695087, lon.=26.556576, Alt.=155.685669m. Speed=13.320000m/h.</desc>
<speed>3.700000</speed>
</trkpt>
<trkpt lat="55.695110" lon="26.556532">
<ele>155.771606</ele>
<time>2010-07-18T12:12:34Z</time>
<desc>lat.=55.695110, lon.=26.556532, Alt.=155.771606m. Speed=11.844000m/h.</desc>
<speed>3.290000</speed>
</trkpt>
<trkpt lat="55.695137" lon="26.556488">
<ele>155.880981</ele>
<time>2010-07-18T12:12:35Z</time>
<desc>lat.=55.695137, lon.=26.556488, Alt.=155.880981m. Speed=13.392000m/h.</desc>
<speed>3.720000</speed>
</trkpt>
<trkpt lat="55.695168" lon="26.556448">
<ele>155.931763</ele>
<time>2010-07-18T12:12:36Z</time>
<desc>lat.=55.695168, lon.=26.556448, Alt.=155.931763m. Speed=14.328000m/h.</desc>
<speed>3.980000</speed>
</trkpt>
<trkpt lat="55.695198" lon="26.556404">
<ele>155.841919</ele>
<time>2010-07-18T12:12:37Z</time>
<desc>lat.=55.695198, lon.=26.556404, Alt.=155.841919m. Speed=14.904000m/h.</desc>
<speed>4.140000</speed>
</trkpt>
<trkpt lat="55.695229" lon="26.556362">
<ele>155.705200</ele>
<time>2010-07-18T12:12:38Z</time>
<desc>lat.=55.695229, lon.=26.556362, Alt.=155.705200m. Speed=15.084000m/h.</desc>
<speed>4.190000</speed>
</trkpt>
<trkpt lat="55.695259" lon="26.556318">
<ele>155.388794</ele>
<time>2010-07-18T12:12:39Z</time>
<desc>lat.=55.695259, lon.=26.556318, Alt.=155.388794m. Speed=14.940000m/h.</desc>
<speed>4.150000</speed>
</trkpt>
<trkpt lat="55.695286" lon="26.556274">
<ele>154.963013</ele>
<time>2010-07-18T12:12:40Z</time>
<desc>lat.=55.695286, lon.=26.556274, Alt.=154.963013m. Speed=13.968000m/h.</desc>
<speed>3.880000</speed>
</trkpt>
<trkpt lat="55.695309" lon="26.556232">
<ele>155.048950</ele>
<time>2010-07-18T12:12:41Z</time>
<desc>lat.=55.695309, lon.=26.556232, Alt.=155.048950m. Speed=13.392000m/h.</desc>
<speed>3.720000</speed>
</trkpt>
<trkpt lat="55.695335" lon="26.556192">
<ele>155.041138</ele>
<time>2010-07-18T12:12:42Z</time>
<desc>lat.=55.695335, lon.=26.556192, Alt.=155.041138m. Speed=13.500000m/h.</desc>
<speed>3.750000</speed>
</trkpt>
<trkpt lat="55.695366" lon="26.556152">
<ele>154.939575</ele>
<time>2010-07-18T12:12:43Z</time>
<desc>lat.=55.695366, lon.=26.556152, Alt.=154.939575m. Speed=14.868000m/h.</desc>
<speed>4.130000</speed>
</trkpt>
<trkpt lat="55.695396" lon="26.556108">
<ele>154.923950</ele>
<time>2010-07-18T12:12:44Z</time>
<desc>lat.=55.695396, lon.=26.556108, Alt.=154.923950m. Speed=14.400000m/h.</desc>
<speed>4.000000</speed>
</trkpt>
<trkpt lat="55.695423" lon="26.556063">
<ele>154.943481</ele>
<time>2010-07-18T12:12:45Z</time>
<desc>lat.=55.695423, lon.=26.556063, Alt.=154.943481m. Speed=15.876000m/h.</desc>
<speed>4.410000</speed>
</trkpt>
<trkpt lat="55.695454" lon="26.556017">
<ele>155.009888</ele>
<time>2010-07-18T12:12:46Z</time>
<desc>lat.=55.695454, lon.=26.556017, Alt.=155.009888m. Speed=15.696000m/h.</desc>
<speed>4.360000</speed>
</trkpt>
<trkpt lat="55.695484" lon="26.555977">
<ele>154.853638</ele>
<time>2010-07-18T12:12:47Z</time>
<desc>lat.=55.695484, lon.=26.555977, Alt.=154.853638m. Speed=14.508000m/h.</desc>
<speed>4.030000</speed>
</trkpt>
<trkpt lat="55.695515" lon="26.555935">
<ele>154.814575</ele>
<time>2010-07-18T12:12:48Z</time>
<desc>lat.=55.695515, lon.=26.555935, Alt.=154.814575m. Speed=14.076000m/h.</desc>
<speed>3.910000</speed>
</trkpt>
<trkpt lat="55.695538" lon="26.555891">
<ele>154.599731</ele>
<time>2010-07-18T12:12:49Z</time>
<desc>lat.=55.695538, lon.=26.555891, Alt.=154.599731m. Speed=12.996000m/h.</desc>
<speed>3.610000</speed>
</trkpt>
<trkpt lat="55.695564" lon="26.555853">
<ele>154.353638</ele>
<time>2010-07-18T12:12:50Z</time>
<desc>lat.=55.695564, lon.=26.555853, Alt.=154.353638m. Speed=12.564000m/h.</desc>
<speed>3.490000</speed>
</trkpt>
<trkpt lat="55.695591" lon="26.555813">
<ele>154.123169</ele>
<time>2010-07-18T12:12:51Z</time>
<desc>lat.=55.695591, lon.=26.555813, Alt.=154.123169m. Speed=13.896000m/h.</desc>
<speed>3.860000</speed>
</trkpt>
<trkpt lat="55.695618" lon="26.555775">
<ele>154.084106</ele>
<time>2010-07-18T12:12:52Z</time>
<desc>lat.=55.695618, lon.=26.555775, Alt.=154.084106m. Speed=13.500000m/h.</desc>
<speed>3.750000</speed>
</trkpt>
<trkpt lat="55.695644" lon="26.555742">
<ele>154.005981</ele>
<time>2010-07-18T12:12:53Z</time>
<desc>lat.=55.695644, lon.=26.555742, Alt.=154.005981m. Speed=13.644000m/h.</desc>
<speed>3.790000</speed>
</trkpt>
<trkpt lat="55.695671" lon="26.555706">
<ele>153.970825</ele>
<time>2010-07-18T12:12:54Z</time>
<desc>lat.=55.695671, lon.=26.555706, Alt.=153.970825m. Speed=14.112000m/h.</desc>
<speed>3.920000</speed>
</trkpt>
<trkpt lat="55.695698" lon="26.555670">
<ele>154.029419</ele>
<time>2010-07-18T12:12:55Z</time>
<desc>lat.=55.695698, lon.=26.555670, Alt.=154.029419m. Speed=14.112000m/h.</desc>
<speed>3.920000</speed>
</trkpt>
<trkpt lat="55.695724" lon="26.555630">
<ele>154.318481</ele>
<time>2010-07-18T12:12:56Z</time>
<desc>lat.=55.695724, lon.=26.555630, Alt.=154.318481m. Speed=13.212000m/h.</desc>
<speed>3.670000</speed>
</trkpt>
<trkpt lat="55.695751" lon="26.555593">
<ele>154.185669</ele>
<time>2010-07-18T12:12:57Z</time>
<desc>lat.=55.695751, lon.=26.555593, Alt.=154.185669m. Speed=12.852000m/h.</desc>
<speed>3.570000</speed>
</trkpt>
<trkpt lat="55.695774" lon="26.555553">
<ele>154.693481</ele>
<time>2010-07-18T12:12:58Z</time>
<desc>lat.=55.695774, lon.=26.555553, Alt.=154.693481m. Speed=13.536000m/h.</desc>
<speed>3.760000</speed>
</trkpt>
<trkpt lat="55.695797" lon="26.555511">
<ele>155.056763</ele>
<time>2010-07-18T12:12:59Z</time>
<desc>lat.=55.695797, lon.=26.555511, Alt.=155.056763m. Speed=13.068000m/h.</desc>
<speed>3.630000</speed>
</trkpt>
<trkpt lat="55.695824" lon="26.555470">
<ele>154.927856</ele>
<time>2010-07-18T12:13:00Z</time>
<desc>lat.=55.695824, lon.=26.555470, Alt.=154.927856m. Speed=15.048000m/h.</desc>
<speed>4.180000</speed>
</trkpt>
<trkpt lat="55.695854" lon="26.555424">
<ele>155.056763</ele>
<time>2010-07-18T12:13:01Z</time>
<desc>lat.=55.695854, lon.=26.555424, Alt.=155.056763m. Speed=14.940000m/h.</desc>
<speed>4.150000</speed>
</trkpt>
<trkpt lat="55.695885" lon="26.555376">
<ele>155.158325</ele>
<time>2010-07-18T12:13:02Z</time>
<desc>lat.=55.695885, lon.=26.555376, Alt.=155.158325m. Speed=14.724000m/h.</desc>
<speed>4.090000</speed>
</trkpt>
<trkpt lat="55.695911" lon="26.555334">
<ele>155.263794</ele>
<time>2010-07-18T12:13:03Z</time>
<desc>lat.=55.695911, lon.=26.555334, Alt.=155.263794m. Speed=13.212000m/h.</desc>
<speed>3.670000</speed>
</trkpt>
<trkpt lat="55.695938" lon="26.555294">
<ele>155.408325</ele>
<time>2010-07-18T12:13:04Z</time>
<desc>lat.=55.695938, lon.=26.555294, Alt.=155.408325m. Speed=12.276000m/h.</desc>
<speed>3.410000</speed>
</trkpt>
<trkpt lat="55.695965" lon="26.555248">
<ele>155.369263</ele>
<time>2010-07-18T12:13:05Z</time>
<desc>lat.=55.695965, lon.=26.555248, Alt.=155.369263m. Speed=15.120000m/h.</desc>
<speed>4.200000</speed>
</trkpt>
<trkpt lat="55.695992" lon="26.555210">
<ele>155.662231</ele>
<time>2010-07-18T12:13:06Z</time>
<desc>lat.=55.695992, lon.=26.555210, Alt.=155.662231m. Speed=12.528000m/h.</desc>
<speed>3.480000</speed>
</trkpt>
<trkpt lat="55.696022" lon="26.555168">
<ele>155.572388</ele>
<time>2010-07-18T12:13:07Z</time>
<desc>lat.=55.696022, lon.=26.555168, Alt.=155.572388m. Speed=14.652000m/h.</desc>
<speed>4.070000</speed>
</trkpt>
<trkpt lat="55.696049" lon="26.555117">
<ele>155.248169</ele>
<time>2010-07-18T12:13:08Z</time>
<desc>lat.=55.696049, lon.=26.555117, Alt.=155.248169m. Speed=15.372000m/h.</desc>
<speed>4.270000</speed>
</trkpt>
<trkpt lat="55.696079" lon="26.555067">
<ele>155.021606</ele>
<time>2010-07-18T12:13:09Z</time>
<desc>lat.=55.696079, lon.=26.555067, Alt.=155.021606m. Speed=14.904000m/h.</desc>
<speed>4.140000</speed>
</trkpt>
<trkpt lat="55.696106" lon="26.555029">
<ele>155.193481</ele>
<time>2010-07-18T12:13:10Z</time>
<desc>lat.=55.696106, lon.=26.555029, Alt.=155.193481m. Speed=14.184000m/h.</desc>
<speed>3.940000</speed>
</trkpt>
<trkpt lat="55.696133" lon="26.554991">
<ele>155.017700</ele>
<time>2010-07-18T12:13:11Z</time>
<desc>lat.=55.696133, lon.=26.554991, Alt.=155.017700m. Speed=12.456000m/h.</desc>
<speed>3.460000</speed>
</trkpt>
<trkpt lat="55.696163" lon="26.554953">
<ele>155.048950</ele>
<time>2010-07-18T12:13:12Z</time>
<desc>lat.=55.696163, lon.=26.554953, Alt.=155.048950m. Speed=13.428000m/h.</desc>
<speed>3.730000</speed>
</trkpt>
<trkpt lat="55.696194" lon="26.554903">
<ele>154.607544</ele>
<time>2010-07-18T12:13:13Z</time>
<desc>lat.=55.696194, lon.=26.554903, Alt.=154.607544m. Speed=15.948000m/h.</desc>
<speed>4.430000</speed>
</trkpt>
<trkpt lat="55.696220" lon="26.554857">
<ele>154.724731</ele>
<time>2010-07-18T12:13:14Z</time>
<desc>lat.=55.696220, lon.=26.554857, Alt.=154.724731m. Speed=14.544000m/h.</desc>
<speed>4.040000</speed>
</trkpt>
<trkpt lat="55.696247" lon="26.554823">
<ele>154.970825</ele>
<time>2010-07-18T12:13:15Z</time>
<desc>lat.=55.696247, lon.=26.554823, Alt.=154.970825m. Speed=12.996000m/h.</desc>
<speed>3.610000</speed>
</trkpt>
<trkpt lat="55.696278" lon="26.554787">
<ele>154.939575</ele>
<time>2010-07-18T12:13:16Z</time>
<desc>lat.=55.696278, lon.=26.554787, Alt.=154.939575m. Speed=14.004000m/h.</desc>
<speed>3.890000</speed>
</trkpt>
<trkpt lat="55.696304" lon="26.554739">
<ele>154.892700</ele>
<time>2010-07-18T12:13:17Z</time>
<desc>lat.=55.696304, lon.=26.554739, Alt.=154.892700m. Speed=14.832000m/h.</desc>
<speed>4.120000</speed>
</trkpt>
<trkpt lat="55.696331" lon="26.554689">
<ele>154.990356</ele>
<time>2010-07-18T12:13:18Z</time>
<desc>lat.=55.696331, lon.=26.554689, Alt.=154.990356m. Speed=15.336000m/h.</desc>
<speed>4.260000</speed>
</trkpt>
<trkpt lat="55.696362" lon="26.554649">
<ele>155.041138</ele>
<time>2010-07-18T12:13:19Z</time>
<desc>lat.=55.696362, lon.=26.554649, Alt.=155.041138m. Speed=15.120000m/h.</desc>
<speed>4.200000</speed>
</trkpt>
<trkpt lat="55.696392" lon="26.554607">
<ele>155.412231</ele>
<time>2010-07-18T12:13:20Z</time>
<desc>lat.=55.696392, lon.=26.554607, Alt.=155.412231m. Speed=14.544000m/h.</desc>
<speed>4.040000</speed>
</trkpt>
<trkpt lat="55.696419" lon="26.554564">
<ele>155.541138</ele>
<time>2010-07-18T12:13:21Z</time>
<desc>lat.=55.696419, lon.=26.554564, Alt.=155.541138m. Speed=14.796000m/h.</desc>
<speed>4.110000</speed>
</trkpt>
<trkpt lat="55.696449" lon="26.554522">
<ele>155.513794</ele>
<time>2010-07-18T12:13:22Z</time>
<desc>lat.=55.696449, lon.=26.554522, Alt.=155.513794m. Speed=14.580000m/h.</desc>
<speed>4.050000</speed>
</trkpt>
<trkpt lat="55.696480" lon="26.554482">
<ele>155.841919</ele>
<time>2010-07-18T12:13:23Z</time>
<desc>lat.=55.696480, lon.=26.554482, Alt.=155.841919m. Speed=13.428000m/h.</desc>
<speed>3.730000</speed>
</trkpt>
<trkpt lat="55.696507" lon="26.554445">
<ele>156.236450</ele>
<time>2010-07-18T12:13:24Z</time>
<desc>lat.=55.696507, lon.=26.554445, Alt.=156.236450m. Speed=13.932000m/h.</desc>
<speed>3.870000</speed>
</trkpt>
<trkpt lat="55.696529" lon="26.554413">
<ele>157.173950</ele>
<time>2010-07-18T12:13:25Z</time>
<desc>lat.=55.696529, lon.=26.554413, Alt.=157.173950m. Speed=12.780000m/h.</desc>
<speed>3.550000</speed>
</trkpt>
<trkpt lat="55.696560" lon="26.554379">
<ele>158.080200</ele>
<time>2010-07-18T12:13:26Z</time>
<desc>lat.=55.696560, lon.=26.554379, Alt.=158.080200m. Speed=14.004000m/h.</desc>
<speed>3.890000</speed>
</trkpt>
<trkpt lat="55.696587" lon="26.554335">
<ele>158.435669</ele>
<time>2010-07-18T12:13:27Z</time>
<desc>lat.=55.696587, lon.=26.554335, Alt.=158.435669m. Speed=14.616000m/h.</desc>
<speed>4.060000</speed>
</trkpt>
<trkpt lat="55.696609" lon="26.554295">
<ele>158.713013</ele>
<time>2010-07-18T12:13:28Z</time>
<desc>lat.=55.696609, lon.=26.554295, Alt.=158.713013m. Speed=14.580000m/h.</desc>
<speed>4.050000</speed>
</trkpt>
<trkpt lat="55.696640" lon="26.554255">
<ele>158.732544</ele>
<time>2010-07-18T12:13:29Z</time>
<desc>lat.=55.696640, lon.=26.554255, Alt.=158.732544m. Speed=13.824000m/h.</desc>
<speed>3.840000</speed>
</trkpt>
<trkpt lat="55.696663" lon="26.554213">
<ele>158.943481</ele>
<time>2010-07-18T12:13:30Z</time>
<desc>lat.=55.696663, lon.=26.554213, Alt.=158.943481m. Speed=14.184000m/h.</desc>
<speed>3.940000</speed>
</trkpt>
<trkpt lat="55.696690" lon="26.554169">
<ele>158.845825</ele>
<time>2010-07-18T12:13:31Z</time>
<desc>lat.=55.696690, lon.=26.554169, Alt.=158.845825m. Speed=13.140000m/h.</desc>
<speed>3.650000</speed>
</trkpt>
<trkpt lat="55.696709" lon="26.554127">
<ele>158.959106</ele>
<time>2010-07-18T12:13:32Z</time>
<desc>lat.=55.696709, lon.=26.554127, Alt.=158.959106m. Speed=12.348000m/h.</desc>
<speed>3.430000</speed>
</trkpt>
<trkpt lat="55.696732" lon="26.554098">
<ele>159.099731</ele>
<time>2010-07-18T12:13:33Z</time>
<desc>lat.=55.696732, lon.=26.554098, Alt.=159.099731m. Speed=11.484000m/h.</desc>
<speed>3.190000</speed>
</trkpt>
<trkpt lat="55.696762" lon="26.554070">
<ele>158.275513</ele>
<time>2010-07-18T12:13:34Z</time>
<desc>lat.=55.696762, lon.=26.554070, Alt.=158.275513m. Speed=12.024000m/h.</desc>
<speed>3.340000</speed>
</trkpt>
<trkpt lat="55.696785" lon="26.554043">
<ele>158.115356</ele>
<time>2010-07-18T12:13:35Z</time>
<desc>lat.=55.696785, lon.=26.554043, Alt.=158.115356m. Speed=12.780000m/h.</desc>
<speed>3.550000</speed>
</trkpt>
<trkpt lat="55.696812" lon="26.554005">
<ele>157.478638</ele>
<time>2010-07-18T12:13:36Z</time>
<desc>lat.=55.696812, lon.=26.554005, Alt.=157.478638m. Speed=11.772000m/h.</desc>
<speed>3.270000</speed>
</trkpt>
<trkpt lat="55.696831" lon="26.553965">
<ele>157.591919</ele>
<time>2010-07-18T12:13:37Z</time>
<desc>lat.=55.696831, lon.=26.553965, Alt.=157.591919m. Speed=12.672000m/h.</desc>
<speed>3.520000</speed>
</trkpt>
<trkpt lat="55.696857" lon="26.553926">
<ele>157.365356</ele>
<time>2010-07-18T12:13:38Z</time>
<desc>lat.=55.696857, lon.=26.553926, Alt.=157.365356m. Speed=11.088000m/h.</desc>
<speed>3.080000</speed>
</trkpt>
<trkpt lat="55.696877" lon="26.553888">
<ele>157.134888</ele>
<time>2010-07-18T12:13:39Z</time>
<desc>lat.=55.696877, lon.=26.553888, Alt.=157.134888m. Speed=11.160000m/h.</desc>
<speed>3.100000</speed>
</trkpt>
<trkpt lat="55.696896" lon="26.553860">
<ele>156.966919</ele>
<time>2010-07-18T12:13:40Z</time>
<desc>lat.=55.696896, lon.=26.553860, Alt.=156.966919m. Speed=8.172000m/h.</desc>
<speed>2.270000</speed>
</trkpt>
<trkpt lat="55.696915" lon="26.553835">
<ele>156.338013</ele>
<time>2010-07-18T12:13:41Z</time>
<desc>lat.=55.696915, lon.=26.553835, Alt.=156.338013m. Speed=9.432000m/h.</desc>
<speed>2.620000</speed>
</trkpt>
<trkpt lat="55.696938" lon="26.553810">
<ele>156.041138</ele>
<time>2010-07-18T12:13:42Z</time>
<desc>lat.=55.696938, lon.=26.553810, Alt.=156.041138m. Speed=9.756000m/h.</desc>
<speed>2.710000</speed>
</trkpt>
<trkpt lat="55.696957" lon="26.553783">
<ele>155.713013</ele>
<time>2010-07-18T12:13:43Z</time>
<desc>lat.=55.696957, lon.=26.553783, Alt.=155.713013m. Speed=9.072000m/h.</desc>
<speed>2.520000</speed>
</trkpt>
<trkpt lat="55.696980" lon="26.553749">
<ele>155.443481</ele>
<time>2010-07-18T12:13:44Z</time>
<desc>lat.=55.696980, lon.=26.553749, Alt.=155.443481m. Speed=11.016000m/h.</desc>
<speed>3.060000</speed>
</trkpt>
<trkpt lat="55.696999" lon="26.553715">
<ele>155.466919</ele>
<time>2010-07-18T12:13:45Z</time>
<desc>lat.=55.696999, lon.=26.553715, Alt.=155.466919m. Speed=11.484000m/h.</desc>
<speed>3.190000</speed>
</trkpt>
<trkpt lat="55.697025" lon="26.553680">
<ele>155.384888</ele>
<time>2010-07-18T12:13:46Z</time>
<desc>lat.=55.697025, lon.=26.553680, Alt.=155.384888m. Speed=13.104000m/h.</desc>
<speed>3.640000</speed>
</trkpt>
<trkpt lat="55.697056" lon="26.553642">
<ele>155.240356</ele>
<time>2010-07-18T12:13:47Z</time>
<desc>lat.=55.697056, lon.=26.553642, Alt.=155.240356m. Speed=13.932000m/h.</desc>
<speed>3.870000</speed>
</trkpt>
<trkpt lat="55.697083" lon="26.553602">
<ele>155.181763</ele>
<time>2010-07-18T12:13:48Z</time>
<desc>lat.=55.697083, lon.=26.553602, Alt.=155.181763m. Speed=11.160000m/h.</desc>
<speed>3.100000</speed>
</trkpt>
<trkpt lat="55.697105" lon="26.553570">
<ele>155.146606</ele>
<time>2010-07-18T12:13:49Z</time>
<desc>lat.=55.697105, lon.=26.553570, Alt.=155.146606m. Speed=11.556000m/h.</desc>
<speed>3.210000</speed>
</trkpt>
<trkpt lat="55.697124" lon="26.553541">
<ele>155.173950</ele>
<time>2010-07-18T12:13:50Z</time>
<desc>lat.=55.697124, lon.=26.553541, Alt.=155.173950m. Speed=10.332000m/h.</desc>
<speed>2.870000</speed>
</trkpt>
<trkpt lat="55.697140" lon="26.553514">
<ele>155.201294</ele>
<time>2010-07-18T12:13:51Z</time>
<desc>lat.=55.697140, lon.=26.553514, Alt.=155.201294m. Speed=8.532000m/h.</desc>
<speed>2.370000</speed>
</trkpt>
<trkpt lat="55.697155" lon="26.553493">
<ele>155.119263</ele>
<time>2010-07-18T12:13:52Z</time>
<desc>lat.=55.697155, lon.=26.553493, Alt.=155.119263m. Speed=6.912000m/h.</desc>
<speed>1.920000</speed>
</trkpt>
<trkpt lat="55.697170" lon="26.553474">
<ele>155.029419</ele>
<time>2010-07-18T12:13:53Z</time>
<desc>lat.=55.697170, lon.=26.553474, Alt.=155.029419m. Speed=8.100000m/h.</desc>
<speed>2.250000</speed>
</trkpt>
<trkpt lat="55.697189" lon="26.553450">
<ele>154.841919</ele>
<time>2010-07-18T12:13:54Z</time>
<desc>lat.=55.697189, lon.=26.553450, Alt.=154.841919m. Speed=8.496000m/h.</desc>
<speed>2.360000</speed>
</trkpt>
<trkpt lat="55.697208" lon="26.553423">
<ele>154.775513</ele>
<time>2010-07-18T12:13:55Z</time>
<desc>lat.=55.697208, lon.=26.553423, Alt.=154.775513m. Speed=9.396000m/h.</desc>
<speed>2.610000</speed>
</trkpt>
<trkpt lat="55.697227" lon="26.553391">
<ele>154.670044</ele>
<time>2010-07-18T12:13:56Z</time>
<desc>lat.=55.697227, lon.=26.553391, Alt.=154.670044m. Speed=10.116000m/h.</desc>
<speed>2.810000</speed>
</trkpt>
<trkpt lat="55.697247" lon="26.553364">
<ele>154.466919</ele>
<time>2010-07-18T12:13:57Z</time>
<desc>lat.=55.697247, lon.=26.553364, Alt.=154.466919m. Speed=9.792000m/h.</desc>
<speed>2.720000</speed>
</trkpt>
<trkpt lat="55.697266" lon="26.553333">
<ele>154.353638</ele>
<time>2010-07-18T12:13:58Z</time>
<desc>lat.=55.697266, lon.=26.553333, Alt.=154.353638m. Speed=9.576000m/h.</desc>
<speed>2.660000</speed>
</trkpt>
<trkpt lat="55.697292" lon="26.553307">
<ele>154.502075</ele>
<time>2010-07-18T12:13:59Z</time>
<desc>lat.=55.697292, lon.=26.553307, Alt.=154.502075m. Speed=10.224000m/h.</desc>
<speed>2.840000</speed>
</trkpt>
<trkpt lat="55.697311" lon="26.553274">
<ele>154.486450</ele>
<time>2010-07-18T12:14:00Z</time>
<desc>lat.=55.697311, lon.=26.553274, Alt.=154.486450m. Speed=11.016000m/h.</desc>
<speed>3.060000</speed>
</trkpt>
<trkpt lat="55.697334" lon="26.553244">
<ele>154.369263</ele>
<time>2010-07-18T12:14:01Z</time>
<desc>lat.=55.697334, lon.=26.553244, Alt.=154.369263m. Speed=10.764000m/h.</desc>
<speed>2.990000</speed>
</trkpt>
<trkpt lat="55.697353" lon="26.553215">
<ele>154.365356</ele>
<time>2010-07-18T12:14:02Z</time>
<desc>lat.=55.697353, lon.=26.553215, Alt.=154.365356m. Speed=10.476000m/h.</desc>
<speed>2.910000</speed>
</trkpt>
<trkpt lat="55.697376" lon="26.553186">
<ele>154.451294</ele>
<time>2010-07-18T12:14:03Z</time>
<desc>lat.=55.697376, lon.=26.553186, Alt.=154.451294m. Speed=9.648000m/h.</desc>
<speed>2.680000</speed>
</trkpt>
<trkpt lat="55.697395" lon="26.553158">
<ele>154.080200</ele>
<time>2010-07-18T12:14:04Z</time>
<desc>lat.=55.697395, lon.=26.553158, Alt.=154.080200m. Speed=10.332000m/h.</desc>
<speed>2.870000</speed>
</trkpt>
<trkpt lat="55.697418" lon="26.553123">
<ele>153.943481</ele>
<time>2010-07-18T12:14:05Z</time>
<desc>lat.=55.697418, lon.=26.553123, Alt.=153.943481m. Speed=10.692000m/h.</desc>
<speed>2.970000</speed>
</trkpt>
<trkpt lat="55.697437" lon="26.553093">
<ele>153.873169</ele>
<time>2010-07-18T12:14:06Z</time>
<desc>lat.=55.697437, lon.=26.553093, Alt.=153.873169m. Speed=10.908000m/h.</desc>
<speed>3.030000</speed>
</trkpt>
<trkpt lat="55.697460" lon="26.553061">
<ele>153.830200</ele>
<time>2010-07-18T12:14:07Z</time>
<desc>lat.=55.697460, lon.=26.553061, Alt.=153.830200m. Speed=11.556000m/h.</desc>
<speed>3.210000</speed>
</trkpt>
<trkpt lat="55.697483" lon="26.553028">
<ele>153.724731</ele>
<time>2010-07-18T12:14:08Z</time>
<desc>lat.=55.697483, lon.=26.553028, Alt.=153.724731m. Speed=11.376000m/h.</desc>
<speed>3.160000</speed>
</trkpt>
<trkpt lat="55.697510" lon="26.552998">
<ele>153.689575</ele>
<time>2010-07-18T12:14:09Z</time>
<desc>lat.=55.697510, lon.=26.552998, Alt.=153.689575m. Speed=11.952000m/h.</desc>
<speed>3.320000</speed>
</trkpt>
<trkpt lat="55.697533" lon="26.552959">
<ele>153.642700</ele>
<time>2010-07-18T12:14:10Z</time>
<desc>lat.=55.697533, lon.=26.552959, Alt.=153.642700m. Speed=12.132000m/h.</desc>
<speed>3.370000</speed>
</trkpt>
<trkpt lat="55.697559" lon="26.552925">
<ele>153.642700</ele>
<time>2010-07-18T12:14:11Z</time>
<desc>lat.=55.697559, lon.=26.552925, Alt.=153.642700m. Speed=12.456000m/h.</desc>
<speed>3.460000</speed>
</trkpt>
<trkpt lat="55.697582" lon="26.552893">
<ele>153.713013</ele>
<time>2010-07-18T12:14:12Z</time>
<desc>lat.=55.697582, lon.=26.552893, Alt.=153.713013m. Speed=11.952000m/h.</desc>
<speed>3.320000</speed>
</trkpt>
<trkpt lat="55.697605" lon="26.552858">
<ele>153.959106</ele>
<time>2010-07-18T12:14:13Z</time>
<desc>lat.=55.697605, lon.=26.552858, Alt.=153.959106m. Speed=12.348000m/h.</desc>
<speed>3.430000</speed>
</trkpt>
<trkpt lat="55.697628" lon="26.552822">
<ele>154.123169</ele>
<time>2010-07-18T12:14:14Z</time>
<desc>lat.=55.697628, lon.=26.552822, Alt.=154.123169m. Speed=12.600000m/h.</desc>
<speed>3.500000</speed>
</trkpt>
<trkpt lat="55.697651" lon="26.552792">
<ele>154.060669</ele>
<time>2010-07-18T12:14:15Z</time>
<desc>lat.=55.697651, lon.=26.552792, Alt.=154.060669m. Speed=11.520000m/h.</desc>
<speed>3.200000</speed>
</trkpt>
<trkpt lat="55.697678" lon="26.552761">
<ele>154.123169</ele>
<time>2010-07-18T12:14:16Z</time>
<desc>lat.=55.697678, lon.=26.552761, Alt.=154.123169m. Speed=12.168000m/h.</desc>
<speed>3.380000</speed>
</trkpt>
<trkpt lat="55.697701" lon="26.552727">
<ele>154.154419</ele>
<time>2010-07-18T12:14:17Z</time>
<desc>lat.=55.697701, lon.=26.552727, Alt.=154.154419m. Speed=12.708000m/h.</desc>
<speed>3.530000</speed>
</trkpt>
<trkpt lat="55.697727" lon="26.552689">
<ele>154.005981</ele>
<time>2010-07-18T12:14:18Z</time>
<desc>lat.=55.697727, lon.=26.552689, Alt.=154.005981m. Speed=13.500000m/h.</desc>
<speed>3.750000</speed>
</trkpt>
<trkpt lat="55.697758" lon="26.552650">
<ele>154.318481</ele>
<time>2010-07-18T12:14:19Z</time>
<desc>lat.=55.697758, lon.=26.552650, Alt.=154.318481m. Speed=13.176000m/h.</desc>
<speed>3.660000</speed>
</trkpt>
<trkpt lat="55.697781" lon="26.552618">
<ele>154.213013</ele>
<time>2010-07-18T12:14:20Z</time>
<desc>lat.=55.697781, lon.=26.552618, Alt.=154.213013m. Speed=13.608000m/h.</desc>
<speed>3.780000</speed>
</trkpt>
<trkpt lat="55.697811" lon="26.552584">
<ele>154.263794</ele>
<time>2010-07-18T12:14:21Z</time>
<desc>lat.=55.697811, lon.=26.552584, Alt.=154.263794m. Speed=12.960000m/h.</desc>
<speed>3.600000</speed>
</trkpt>
<trkpt lat="55.697834" lon="26.552547">
<ele>154.525513</ele>
<time>2010-07-18T12:14:22Z</time>
<desc>lat.=55.697834, lon.=26.552547, Alt.=154.525513m. Speed=13.068000m/h.</desc>
<speed>3.630000</speed>
</trkpt>
<trkpt lat="55.697861" lon="26.552509">
<ele>154.666138</ele>
<time>2010-07-18T12:14:23Z</time>
<desc>lat.=55.697861, lon.=26.552509, Alt.=154.666138m. Speed=13.932000m/h.</desc>
<speed>3.870000</speed>
</trkpt>
<trkpt lat="55.697887" lon="26.552471">
<ele>154.713013</ele>
<time>2010-07-18T12:14:24Z</time>
<desc>lat.=55.697887, lon.=26.552471, Alt.=154.713013m. Speed=14.832000m/h.</desc>
<speed>4.120000</speed>
</trkpt>
<trkpt lat="55.697918" lon="26.552433">
<ele>154.627075</ele>
<time>2010-07-18T12:14:25Z</time>
<desc>lat.=55.697918, lon.=26.552433, Alt.=154.627075m. Speed=15.084000m/h.</desc>
<speed>4.190000</speed>
</trkpt>
<trkpt lat="55.697948" lon="26.552397">
<ele>154.556763</ele>
<time>2010-07-18T12:14:26Z</time>
<desc>lat.=55.697948, lon.=26.552397, Alt.=154.556763m. Speed=15.264000m/h.</desc>
<speed>4.240000</speed>
</trkpt>
<trkpt lat="55.697979" lon="26.552357">
<ele>154.541138</ele>
<time>2010-07-18T12:14:27Z</time>
<desc>lat.=55.697979, lon.=26.552357, Alt.=154.541138m. Speed=14.832000m/h.</desc>
<speed>4.120000</speed>
</trkpt>
<trkpt lat="55.698009" lon="26.552317">
<ele>154.502075</ele>
<time>2010-07-18T12:14:28Z</time>
<desc>lat.=55.698009, lon.=26.552317, Alt.=154.502075m. Speed=14.544000m/h.</desc>
<speed>4.040000</speed>
</trkpt>
<trkpt lat="55.698040" lon="26.552273">
<ele>154.545044</ele>
<time>2010-07-18T12:14:29Z</time>
<desc>lat.=55.698040, lon.=26.552273, Alt.=154.545044m. Speed=14.508000m/h.</desc>
<speed>4.030000</speed>
</trkpt>
<trkpt lat="55.698067" lon="26.552233">
<ele>154.420044</ele>
<time>2010-07-18T12:14:30Z</time>
<desc>lat.=55.698067, lon.=26.552233, Alt.=154.420044m. Speed=14.652000m/h.</desc>
<speed>4.070000</speed>
</trkpt>
<trkpt lat="55.698097" lon="26.552189">
<ele>154.388794</ele>
<time>2010-07-18T12:14:31Z</time>
<desc>lat.=55.698097, lon.=26.552189, Alt.=154.388794m. Speed=14.832000m/h.</desc>
<speed>4.120000</speed>
</trkpt>
<trkpt lat="55.698128" lon="26.552151">
<ele>154.404419</ele>
<time>2010-07-18T12:14:32Z</time>
<desc>lat.=55.698128, lon.=26.552151, Alt.=154.404419m. Speed=14.940000m/h.</desc>
<speed>4.150000</speed>
</trkpt>
<trkpt lat="55.698158" lon="26.552113">
<ele>154.713013</ele>
<time>2010-07-18T12:14:33Z</time>
<desc>lat.=55.698158, lon.=26.552113, Alt.=154.713013m. Speed=14.292000m/h.</desc>
<speed>3.970000</speed>
</trkpt>
<trkpt lat="55.698189" lon="26.552080">
<ele>154.931763</ele>
<time>2010-07-18T12:14:34Z</time>
<desc>lat.=55.698189, lon.=26.552080, Alt.=154.931763m. Speed=14.760000m/h.</desc>
<speed>4.100000</speed>
</trkpt>
<trkpt lat="55.698219" lon="26.552044">
<ele>155.048950</ele>
<time>2010-07-18T12:14:35Z</time>
<desc>lat.=55.698219, lon.=26.552044, Alt.=155.048950m. Speed=14.004000m/h.</desc>
<speed>3.890000</speed>
</trkpt>
<trkpt lat="55.698246" lon="26.552008">
<ele>154.912231</ele>
<time>2010-07-18T12:14:36Z</time>
<desc>lat.=55.698246, lon.=26.552008, Alt.=154.912231m. Speed=15.372000m/h.</desc>
<speed>4.270000</speed>
</trkpt>
<trkpt lat="55.698277" lon="26.551964">
<ele>154.974731</ele>
<time>2010-07-18T12:14:37Z</time>
<desc>lat.=55.698277, lon.=26.551964, Alt.=154.974731m. Speed=15.408000m/h.</desc>
<speed>4.280000</speed>
</trkpt>
<trkpt lat="55.698307" lon="26.551922">
<ele>155.095825</ele>
<time>2010-07-18T12:14:38Z</time>
<desc>lat.=55.698307, lon.=26.551922, Alt.=155.095825m. Speed=14.976000m/h.</desc>
<speed>4.160000</speed>
</trkpt>
<trkpt lat="55.698338" lon="26.551886">
<ele>154.970825</ele>
<time>2010-07-18T12:14:39Z</time>
<desc>lat.=55.698338, lon.=26.551886, Alt.=154.970825m. Speed=14.076000m/h.</desc>
<speed>3.910000</speed>
</trkpt>
<trkpt lat="55.698364" lon="26.551851">
<ele>154.681763</ele>
<time>2010-07-18T12:14:40Z</time>
<desc>lat.=55.698364, lon.=26.551851, Alt.=154.681763m. Speed=12.780000m/h.</desc>
<speed>3.550000</speed>
</trkpt>
<trkpt lat="55.698391" lon="26.551813">
<ele>154.517700</ele>
<time>2010-07-18T12:14:41Z</time>
<desc>lat.=55.698391, lon.=26.551813, Alt.=154.517700m. Speed=14.256000m/h.</desc>
<speed>3.960000</speed>
</trkpt>
<trkpt lat="55.698425" lon="26.551773">
<ele>154.560669</ele>
<time>2010-07-18T12:14:42Z</time>
<desc>lat.=55.698425, lon.=26.551773, Alt.=154.560669m. Speed=15.156000m/h.</desc>
<speed>4.210000</speed>
</trkpt>
<trkpt lat="55.698456" lon="26.551731">
<ele>154.420044</ele>
<time>2010-07-18T12:14:43Z</time>
<desc>lat.=55.698456, lon.=26.551731, Alt.=154.420044m. Speed=15.516000m/h.</desc>
<speed>4.310000</speed>
</trkpt>
<trkpt lat="55.698490" lon="26.551687">
<ele>154.576294</ele>
<time>2010-07-18T12:14:44Z</time>
<desc>lat.=55.698490, lon.=26.551687, Alt.=154.576294m. Speed=15.372000m/h.</desc>
<speed>4.270000</speed>
</trkpt>
<trkpt lat="55.698521" lon="26.551649">
<ele>154.580200</ele>
<time>2010-07-18T12:14:45Z</time>
<desc>lat.=55.698521, lon.=26.551649, Alt.=154.580200m. Speed=14.724000m/h.</desc>
<speed>4.090000</speed>
</trkpt>
<trkpt lat="55.698551" lon="26.551615">
<ele>154.556763</ele>
<time>2010-07-18T12:14:46Z</time>
<desc>lat.=55.698551, lon.=26.551615, Alt.=154.556763m. Speed=14.256000m/h.</desc>
<speed>3.960000</speed>
</trkpt>
<trkpt lat="55.698582" lon="26.551582">
<ele>154.533325</ele>
<time>2010-07-18T12:14:47Z</time>
<desc>lat.=55.698582, lon.=26.551582, Alt.=154.533325m. Speed=14.292000m/h.</desc>
<speed>3.970000</speed>
</trkpt>
<trkpt lat="55.698612" lon="26.551548">
<ele>154.806763</ele>
<time>2010-07-18T12:14:48Z</time>
<desc>lat.=55.698612, lon.=26.551548, Alt.=154.806763m. Speed=13.608000m/h.</desc>
<speed>3.780000</speed>
</trkpt>
<trkpt lat="55.698639" lon="26.551512">
<ele>154.783325</ele>
<time>2010-07-18T12:14:49Z</time>
<desc>lat.=55.698639, lon.=26.551512, Alt.=154.783325m. Speed=14.256000m/h.</desc>
<speed>3.960000</speed>
</trkpt>
<trkpt lat="55.698673" lon="26.551474">
<ele>154.634888</ele>
<time>2010-07-18T12:14:50Z</time>
<desc>lat.=55.698673, lon.=26.551474, Alt.=154.634888m. Speed=15.120000m/h.</desc>
<speed>4.200000</speed>
</trkpt>
<trkpt lat="55.698704" lon="26.551439">
<ele>154.662231</ele>
<time>2010-07-18T12:14:51Z</time>
<desc>lat.=55.698704, lon.=26.551439, Alt.=154.662231m. Speed=15.768000m/h.</desc>
<speed>4.380000</speed>
</trkpt>
<trkpt lat="55.698734" lon="26.551399">
<ele>154.662231</ele>
<time>2010-07-18T12:14:52Z</time>
<desc>lat.=55.698734, lon.=26.551399, Alt.=154.662231m. Speed=14.904000m/h.</desc>
<speed>4.140000</speed>
</trkpt>
<trkpt lat="55.698765" lon="26.551365">
<ele>154.502075</ele>
<time>2010-07-18T12:14:53Z</time>
<desc>lat.=55.698765, lon.=26.551365, Alt.=154.502075m. Speed=14.544000m/h.</desc>
<speed>4.040000</speed>
</trkpt>
<trkpt lat="55.698799" lon="26.551332">
<ele>154.463013</ele>
<time>2010-07-18T12:14:54Z</time>
<desc>lat.=55.698799, lon.=26.551332, Alt.=154.463013m. Speed=15.732000m/h.</desc>
<speed>4.370000</speed>
</trkpt>
<trkpt lat="55.698833" lon="26.551296">
<ele>154.537231</ele>
<time>2010-07-18T12:14:55Z</time>
<desc>lat.=55.698833, lon.=26.551296, Alt.=154.537231m. Speed=15.084000m/h.</desc>
<speed>4.190000</speed>
</trkpt>
<trkpt lat="55.698864" lon="26.551266">
<ele>154.334106</ele>
<time>2010-07-18T12:14:56Z</time>
<desc>lat.=55.698864, lon.=26.551266, Alt.=154.334106m. Speed=15.048000m/h.</desc>
<speed>4.180000</speed>
</trkpt>
<trkpt lat="55.698898" lon="26.551228">
<ele>154.224731</ele>
<time>2010-07-18T12:14:57Z</time>
<desc>lat.=55.698898, lon.=26.551228, Alt.=154.224731m. Speed=16.271999m/h.</desc>
<speed>4.520000</speed>
</trkpt>
<trkpt lat="55.698933" lon="26.551191">
<ele>154.298950</ele>
<time>2010-07-18T12:14:58Z</time>
<desc>lat.=55.698933, lon.=26.551191, Alt.=154.298950m. Speed=16.488001m/h.</desc>
<speed>4.580000</speed>
</trkpt>
<trkpt lat="55.698967" lon="26.551153">
<ele>154.228638</ele>
<time>2010-07-18T12:14:59Z</time>
<desc>lat.=55.698967, lon.=26.551153, Alt.=154.228638m. Speed=15.840000m/h.</desc>
<speed>4.400000</speed>
</trkpt>
<trkpt lat="55.698997" lon="26.551115">
<ele>153.908325</ele>
<time>2010-07-18T12:15:00Z</time>
<desc>lat.=55.698997, lon.=26.551115, Alt.=153.908325m. Speed=15.444000m/h.</desc>
<speed>4.290000</speed>
</trkpt>
<trkpt lat="55.699036" lon="26.551077">
<ele>154.103638</ele>
<time>2010-07-18T12:15:01Z</time>
<desc>lat.=55.699036, lon.=26.551077, Alt.=154.103638m. Speed=16.667999m/h.</desc>
<speed>4.630000</speed>
</trkpt>
<trkpt lat="55.699070" lon="26.551039">
<ele>154.185669</ele>
<time>2010-07-18T12:15:02Z</time>
<desc>lat.=55.699070, lon.=26.551039, Alt.=154.185669m. Speed=16.308001m/h.</desc>
<speed>4.530000</speed>
</trkpt>
<trkpt lat="55.699104" lon="26.550999">
<ele>154.005981</ele>
<time>2010-07-18T12:15:03Z</time>
<desc>lat.=55.699104, lon.=26.550999, Alt.=154.005981m. Speed=15.948000m/h.</desc>
<speed>4.430000</speed>
</trkpt>
<trkpt lat="55.699135" lon="26.550957">
<ele>154.048950</ele>
<time>2010-07-18T12:15:04Z</time>
<desc>lat.=55.699135, lon.=26.550957, Alt.=154.048950m. Speed=15.048000m/h.</desc>
<speed>4.180000</speed>
</trkpt>
<trkpt lat="55.699165" lon="26.550920">
<ele>153.978638</ele>
<time>2010-07-18T12:15:05Z</time>
<desc>lat.=55.699165, lon.=26.550920, Alt.=153.978638m. Speed=14.616000m/h.</desc>
<speed>4.060000</speed>
</trkpt>
<trkpt lat="55.699200" lon="26.550888">
<ele>153.884888</ele>
<time>2010-07-18T12:15:06Z</time>
<desc>lat.=55.699200, lon.=26.550888, Alt.=153.884888m. Speed=14.472000m/h.</desc>
<speed>4.020000</speed>
</trkpt>
<trkpt lat="55.699230" lon="26.550854">
<ele>153.951294</ele>
<time>2010-07-18T12:15:07Z</time>
<desc>lat.=55.699230, lon.=26.550854, Alt.=153.951294m. Speed=14.436000m/h.</desc>
<speed>4.010000</speed>
</trkpt>
<trkpt lat="55.699261" lon="26.550817">
<ele>153.970825</ele>
<time>2010-07-18T12:15:08Z</time>
<desc>lat.=55.699261, lon.=26.550817, Alt.=153.970825m. Speed=15.336000m/h.</desc>
<speed>4.260000</speed>
</trkpt>
<trkpt lat="55.699291" lon="26.550783">
<ele>153.548950</ele>
<time>2010-07-18T12:15:09Z</time>
<desc>lat.=55.699291, lon.=26.550783, Alt.=153.548950m. Speed=14.940000m/h.</desc>
<speed>4.150000</speed>
</trkpt>
<trkpt lat="55.699326" lon="26.550743">
<ele>153.302856</ele>
<time>2010-07-18T12:15:10Z</time>
<desc>lat.=55.699326, lon.=26.550743, Alt.=153.302856m. Speed=16.236000m/h.</desc>
<speed>4.510000</speed>
</trkpt>
<trkpt lat="55.699360" lon="26.550707">
<ele>152.990356</ele>
<time>2010-07-18T12:15:11Z</time>
<desc>lat.=55.699360, lon.=26.550707, Alt.=152.990356m. Speed=14.796000m/h.</desc>
<speed>4.110000</speed>
</trkpt>
<trkpt lat="55.699390" lon="26.550673">
<ele>152.880981</ele>
<time>2010-07-18T12:15:12Z</time>
<desc>lat.=55.699390, lon.=26.550673, Alt.=152.880981m. Speed=15.624000m/h.</desc>
<speed>4.340000</speed>
</trkpt>
<trkpt lat="55.699421" lon="26.550638">
<ele>152.611450</ele>
<time>2010-07-18T12:15:13Z</time>
<desc>lat.=55.699421, lon.=26.550638, Alt.=152.611450m. Speed=13.716000m/h.</desc>
<speed>3.810000</speed>
</trkpt>
<trkpt lat="55.699451" lon="26.550604">
<ele>152.408325</ele>
<time>2010-07-18T12:15:14Z</time>
<desc>lat.=55.699451, lon.=26.550604, Alt.=152.408325m. Speed=15.444000m/h.</desc>
<speed>4.290000</speed>
</trkpt>
<trkpt lat="55.699486" lon="26.550570">
<ele>152.380981</ele>
<time>2010-07-18T12:15:15Z</time>
<desc>lat.=55.699486, lon.=26.550570, Alt.=152.380981m. Speed=15.192000m/h.</desc>
<speed>4.220000</speed>
</trkpt>
<trkpt lat="55.699520" lon="26.550529">
<ele>152.306763</ele>
<time>2010-07-18T12:15:16Z</time>
<desc>lat.=55.699520, lon.=26.550529, Alt.=152.306763m. Speed=16.236000m/h.</desc>
<speed>4.510000</speed>
</trkpt>
<trkpt lat="55.699558" lon="26.550491">
<ele>152.095825</ele>
<time>2010-07-18T12:15:17Z</time>
<desc>lat.=55.699558, lon.=26.550491, Alt.=152.095825m. Speed=16.667999m/h.</desc>
<speed>4.630000</speed>
</trkpt>
<trkpt lat="55.699593" lon="26.550457">
<ele>151.947388</ele>
<time>2010-07-18T12:15:18Z</time>
<desc>lat.=55.699593, lon.=26.550457, Alt.=151.947388m. Speed=15.696000m/h.</desc>
<speed>4.360000</speed>
</trkpt>
<trkpt lat="55.699623" lon="26.550415">
<ele>151.755981</ele>
<time>2010-07-18T12:15:19Z</time>
<desc>lat.=55.699623, lon.=26.550415, Alt.=151.755981m. Speed=15.840000m/h.</desc>
<speed>4.400000</speed>
</trkpt>
<trkpt lat="55.699654" lon="26.550377">
<ele>151.560669</ele>
<time>2010-07-18T12:15:20Z</time>
<desc>lat.=55.699654, lon.=26.550377, Alt.=151.560669m. Speed=16.020000m/h.</desc>
<speed>4.450000</speed>
</trkpt>
<trkpt lat="55.699688" lon="26.550337">
<ele>151.463013</ele>
<time>2010-07-18T12:15:21Z</time>
<desc>lat.=55.699688, lon.=26.550337, Alt.=151.463013m. Speed=16.740000m/h.</desc>
<speed>4.650000</speed>
</trkpt>
<trkpt lat="55.699726" lon="26.550299">
<ele>151.420044</ele>
<time>2010-07-18T12:15:22Z</time>
<desc>lat.=55.699726, lon.=26.550299, Alt.=151.420044m. Speed=18.143999m/h.</desc>
<speed>5.040000</speed>
</trkpt>
<trkpt lat="55.699764" lon="26.550261">
<ele>151.068481</ele>
<time>2010-07-18T12:15:23Z</time>
<desc>lat.=55.699764, lon.=26.550261, Alt.=151.068481m. Speed=17.351999m/h.</desc>
<speed>4.820000</speed>
</trkpt>
<trkpt lat="55.699802" lon="26.550226">
<ele>150.904419</ele>
<time>2010-07-18T12:15:24Z</time>
<desc>lat.=55.699802, lon.=26.550226, Alt.=150.904419m. Speed=16.775999m/h.</desc>
<speed>4.660000</speed>
</trkpt>
<trkpt lat="55.699837" lon="26.550188">
<ele>150.896606</ele>
<time>2010-07-18T12:15:25Z</time>
<desc>lat.=55.699837, lon.=26.550188, Alt.=150.896606m. Speed=16.667999m/h.</desc>
<speed>4.630000</speed>
</trkpt>
<trkpt lat="55.699875" lon="26.550158">
<ele>150.826294</ele>
<time>2010-07-18T12:15:26Z</time>
<desc>lat.=55.699875, lon.=26.550158, Alt.=150.826294m. Speed=16.344000m/h.</desc>
<speed>4.540000</speed>
</trkpt>
<trkpt lat="55.699913" lon="26.550121">
<ele>150.697388</ele>
<time>2010-07-18T12:15:27Z</time>
<desc>lat.=55.699913, lon.=26.550121, Alt.=150.697388m. Speed=15.192000m/h.</desc>
<speed>4.220000</speed>
</trkpt>
<trkpt lat="55.699951" lon="26.550093">
<ele>150.435669</ele>
<time>2010-07-18T12:15:28Z</time>
<desc>lat.=55.699951, lon.=26.550093, Alt.=150.435669m. Speed=16.488001m/h.</desc>
<speed>4.580000</speed>
</trkpt>
<trkpt lat="55.699989" lon="26.550060">
<ele>150.283325</ele>
<time>2010-07-18T12:15:29Z</time>
<desc>lat.=55.699989, lon.=26.550060, Alt.=150.283325m. Speed=15.912000m/h.</desc>
<speed>4.420000</speed>
</trkpt>
<trkpt lat="55.700024" lon="26.550034">
<ele>150.302856</ele>
<time>2010-07-18T12:15:30Z</time>
<desc>lat.=55.700024, lon.=26.550034, Alt.=150.302856m. Speed=14.580000m/h.</desc>
<speed>4.050000</speed>
</trkpt>
<trkpt lat="55.700054" lon="26.550011">
<ele>149.947388</ele>
<time>2010-07-18T12:15:31Z</time>
<desc>lat.=55.700054, lon.=26.550011, Alt.=149.947388m. Speed=13.860000m/h.</desc>
<speed>3.850000</speed>
</trkpt>
<trkpt lat="55.700089" lon="26.549988">
<ele>149.822388</ele>
<time>2010-07-18T12:15:32Z</time>
<desc>lat.=55.700089, lon.=26.549988, Alt.=149.822388m. Speed=13.176000m/h.</desc>
<speed>3.660000</speed>
</trkpt>
<trkpt lat="55.700119" lon="26.549961">
<ele>149.759888</ele>
<time>2010-07-18T12:15:33Z</time>
<desc>lat.=55.700119, lon.=26.549961, Alt.=149.759888m. Speed=13.824000m/h.</desc>
<speed>3.840000</speed>
</trkpt>
<trkpt lat="55.700153" lon="26.549931">
<ele>149.638794</ele>
<time>2010-07-18T12:15:34Z</time>
<desc>lat.=55.700153, lon.=26.549931, Alt.=149.638794m. Speed=14.220000m/h.</desc>
<speed>3.950000</speed>
</trkpt>
<trkpt lat="55.700188" lon="26.549902">
<ele>149.650513</ele>
<time>2010-07-18T12:15:35Z</time>
<desc>lat.=55.700188, lon.=26.549902, Alt.=149.650513m. Speed=15.372000m/h.</desc>
<speed>4.270000</speed>
</trkpt>
<trkpt lat="55.700226" lon="26.549871">
<ele>149.517700</ele>
<time>2010-07-18T12:15:36Z</time>
<desc>lat.=55.700226, lon.=26.549871, Alt.=149.517700m. Speed=14.832000m/h.</desc>
<speed>4.120000</speed>
</trkpt>
<trkpt lat="55.700260" lon="26.549845">
<ele>149.545044</ele>
<time>2010-07-18T12:15:37Z</time>
<desc>lat.=55.700260, lon.=26.549845, Alt.=149.545044m. Speed=15.120000m/h.</desc>
<speed>4.200000</speed>
</trkpt>
<trkpt lat="55.700294" lon="26.549816">
<ele>149.584106</ele>
<time>2010-07-18T12:15:38Z</time>
<desc>lat.=55.700294, lon.=26.549816, Alt.=149.584106m. Speed=15.444000m/h.</desc>
<speed>4.290000</speed>
</trkpt>
<trkpt lat="55.700329" lon="26.549791">
<ele>149.693481</ele>
<time>2010-07-18T12:15:39Z</time>
<desc>lat.=55.700329, lon.=26.549791, Alt.=149.693481m. Speed=14.904000m/h.</desc>
<speed>4.140000</speed>
</trkpt>
<trkpt lat="55.700356" lon="26.549763">
<ele>149.502075</ele>
<time>2010-07-18T12:15:40Z</time>
<desc>lat.=55.700356, lon.=26.549763, Alt.=149.502075m. Speed=12.636000m/h.</desc>
<speed>3.510000</speed>
</trkpt>
<trkpt lat="55.700386" lon="26.549740">
<ele>149.494263</ele>
<time>2010-07-18T12:15:41Z</time>
<desc>lat.=55.700386, lon.=26.549740, Alt.=149.494263m. Speed=11.952000m/h.</desc>
<speed>3.320000</speed>
</trkpt>
<trkpt lat="55.700413" lon="26.549715">
<ele>149.416138</ele>
<time>2010-07-18T12:15:42Z</time>
<desc>lat.=55.700413, lon.=26.549715, Alt.=149.416138m. Speed=13.248000m/h.</desc>
<speed>3.680000</speed>
</trkpt>
<trkpt lat="55.700439" lon="26.549685">
<ele>149.701294</ele>
<time>2010-07-18T12:15:43Z</time>
<desc>lat.=55.700439, lon.=26.549685, Alt.=149.701294m. Speed=14.148000m/h.</desc>
<speed>3.930000</speed>
</trkpt>
<trkpt lat="55.700470" lon="26.549656">
<ele>149.857544</ele>
<time>2010-07-18T12:15:44Z</time>
<desc>lat.=55.700470, lon.=26.549656, Alt.=149.857544m. Speed=14.976000m/h.</desc>
<speed>4.160000</speed>
</trkpt>
<trkpt lat="55.700508" lon="26.549625">
<ele>149.802856</ele>
<time>2010-07-18T12:15:45Z</time>
<desc>lat.=55.700508, lon.=26.549625, Alt.=149.802856m. Speed=16.056000m/h.</desc>
<speed>4.460000</speed>
</trkpt>
<trkpt lat="55.700546" lon="26.549597">
<ele>149.720825</ele>
<time>2010-07-18T12:15:46Z</time>
<desc>lat.=55.700546, lon.=26.549597, Alt.=149.720825m. Speed=16.488001m/h.</desc>
<speed>4.580000</speed>
</trkpt>
<trkpt lat="55.700581" lon="26.549570">
<ele>149.752075</ele>
<time>2010-07-18T12:15:47Z</time>
<desc>lat.=55.700581, lon.=26.549570, Alt.=149.752075m. Speed=16.200001m/h.</desc>
<speed>4.500000</speed>
</trkpt>
<trkpt lat="55.700619" lon="26.549541">
<ele>149.880981</ele>
<time>2010-07-18T12:15:48Z</time>
<desc>lat.=55.700619, lon.=26.549541, Alt.=149.880981m. Speed=15.804000m/h.</desc>
<speed>4.390000</speed>
</trkpt>
<trkpt lat="55.700653" lon="26.549517">
<ele>149.884888</ele>
<time>2010-07-18T12:15:49Z</time>
<desc>lat.=55.700653, lon.=26.549517, Alt.=149.884888m. Speed=15.840000m/h.</desc>
<speed>4.400000</speed>
</trkpt>
<trkpt lat="55.700691" lon="26.549490">
<ele>149.685669</ele>
<time>2010-07-18T12:15:50Z</time>
<desc>lat.=55.700691, lon.=26.549490, Alt.=149.685669m. Speed=15.660000m/h.</desc>
<speed>4.350000</speed>
</trkpt>
<trkpt lat="55.700726" lon="26.549465">
<ele>149.478638</ele>
<time>2010-07-18T12:15:51Z</time>
<desc>lat.=55.700726, lon.=26.549465, Alt.=149.478638m. Speed=15.516000m/h.</desc>
<speed>4.310000</speed>
</trkpt>
<trkpt lat="55.700760" lon="26.549442">
<ele>149.353638</ele>
<time>2010-07-18T12:15:52Z</time>
<desc>lat.=55.700760, lon.=26.549442, Alt.=149.353638m. Speed=14.292000m/h.</desc>
<speed>3.970000</speed>
</trkpt>
<trkpt lat="55.700794" lon="26.549416">
<ele>149.427856</ele>
<time>2010-07-18T12:15:53Z</time>
<desc>lat.=55.700794, lon.=26.549416, Alt.=149.427856m. Speed=14.112000m/h.</desc>
<speed>3.920000</speed>
</trkpt>
<trkpt lat="55.700825" lon="26.549391">
<ele>149.377075</ele>
<time>2010-07-18T12:15:54Z</time>
<desc>lat.=55.700825, lon.=26.549391, Alt.=149.377075m. Speed=13.968000m/h.</desc>
<speed>3.880000</speed>
</trkpt>
<trkpt lat="55.700855" lon="26.549362">
<ele>149.252075</ele>
<time>2010-07-18T12:15:55Z</time>
<desc>lat.=55.700855, lon.=26.549362, Alt.=149.252075m. Speed=13.680000m/h.</desc>
<speed>3.800000</speed>
</trkpt>
<trkpt lat="55.700886" lon="26.549337">
<ele>149.170044</ele>
<time>2010-07-18T12:15:56Z</time>
<desc>lat.=55.700886, lon.=26.549337, Alt.=149.170044m. Speed=13.464000m/h.</desc>
<speed>3.740000</speed>
</trkpt>
<trkpt lat="55.700920" lon="26.549313">
<ele>149.181763</ele>
<time>2010-07-18T12:15:57Z</time>
<desc>lat.=55.700920, lon.=26.549313, Alt.=149.181763m. Speed=14.148000m/h.</desc>
<speed>3.930000</speed>
</trkpt>
<trkpt lat="55.700954" lon="26.549288">
<ele>149.236450</ele>
<time>2010-07-18T12:15:58Z</time>
<desc>lat.=55.700954, lon.=26.549288, Alt.=149.236450m. Speed=14.004000m/h.</desc>
<speed>3.890000</speed>
</trkpt>
<trkpt lat="55.700985" lon="26.549265">
<ele>149.537231</ele>
<time>2010-07-18T12:15:59Z</time>
<desc>lat.=55.700985, lon.=26.549265, Alt.=149.537231m. Speed=13.644000m/h.</desc>
<speed>3.790000</speed>
</trkpt>
<trkpt lat="55.701019" lon="26.549242">
<ele>149.486450</ele>
<time>2010-07-18T12:16:00Z</time>
<desc>lat.=55.701019, lon.=26.549242, Alt.=149.486450m. Speed=14.328000m/h.</desc>
<speed>3.980000</speed>
</trkpt>
<trkpt lat="55.701050" lon="26.549221">
<ele>149.134888</ele>
<time>2010-07-18T12:16:01Z</time>
<desc>lat.=55.701050, lon.=26.549221, Alt.=149.134888m. Speed=12.672000m/h.</desc>
<speed>3.520000</speed>
</trkpt>
<trkpt lat="55.701080" lon="26.549202">
<ele>148.713013</ele>
<time>2010-07-18T12:16:02Z</time>
<desc>lat.=55.701080, lon.=26.549202, Alt.=148.713013m. Speed=11.952000m/h.</desc>
<speed>3.320000</speed>
</trkpt>
<trkpt lat="55.701103" lon="26.549189">
<ele>148.189575</ele>
<time>2010-07-18T12:16:03Z</time>
<desc>lat.=55.701103, lon.=26.549189, Alt.=148.189575m. Speed=12.096000m/h.</desc>
<speed>3.360000</speed>
</trkpt>
<trkpt lat="55.701130" lon="26.549175">
<ele>147.779419</ele>
<time>2010-07-18T12:16:04Z</time>
<desc>lat.=55.701130, lon.=26.549175, Alt.=147.779419m. Speed=10.548000m/h.</desc>
<speed>2.930000</speed>
</trkpt>
<trkpt lat="55.701153" lon="26.549158">
<ele>147.638794</ele>
<time>2010-07-18T12:16:05Z</time>
<desc>lat.=55.701153, lon.=26.549158, Alt.=147.638794m. Speed=9.108000m/h.</desc>
<speed>2.530000</speed>
</trkpt>
<trkpt lat="55.701176" lon="26.549137">
<ele>147.459106</ele>
<time>2010-07-18T12:16:06Z</time>
<desc>lat.=55.701176, lon.=26.549137, Alt.=147.459106m. Speed=10.080000m/h.</desc>
<speed>2.800000</speed>
</trkpt>
<trkpt lat="55.701195" lon="26.549118">
<ele>146.994263</ele>
<time>2010-07-18T12:16:07Z</time>
<desc>lat.=55.701195, lon.=26.549118, Alt.=146.994263m. Speed=8.352000m/h.</desc>
<speed>2.320000</speed>
</trkpt>
<trkpt lat="55.701214" lon="26.549109">
<ele>146.755981</ele>
<time>2010-07-18T12:16:08Z</time>
<desc>lat.=55.701214, lon.=26.549109, Alt.=146.755981m. Speed=8.748000m/h.</desc>
<speed>2.430000</speed>
</trkpt>
<trkpt lat="55.701237" lon="26.549099">
<ele>146.361450</ele>
<time>2010-07-18T12:16:09Z</time>
<desc>lat.=55.701237, lon.=26.549099, Alt.=146.361450m. Speed=8.460000m/h.</desc>
<speed>2.350000</speed>
</trkpt>
<trkpt lat="55.701256" lon="26.549078">
<ele>146.107544</ele>
<time>2010-07-18T12:16:10Z</time>
<desc>lat.=55.701256, lon.=26.549078, Alt.=146.107544m. Speed=10.044000m/h.</desc>
<speed>2.790000</speed>
</trkpt>
<trkpt lat="55.701275" lon="26.549057">
<ele>145.802856</ele>
<time>2010-07-18T12:16:11Z</time>
<desc>lat.=55.701275, lon.=26.549057, Alt.=145.802856m. Speed=11.520000m/h.</desc>
<speed>3.200000</speed>
</trkpt>
<trkpt lat="55.701298" lon="26.549028">
<ele>146.267700</ele>
<time>2010-07-18T12:16:12Z</time>
<desc>lat.=55.701298, lon.=26.549028, Alt.=146.267700m. Speed=12.600000m/h.</desc>
<speed>3.500000</speed>
</trkpt>
<trkpt lat="55.701324" lon="26.548998">
<ele>145.963013</ele>
<time>2010-07-18T12:16:13Z</time>
<desc>lat.=55.701324, lon.=26.548998, Alt.=145.963013m. Speed=15.120000m/h.</desc>
<speed>4.200000</speed>
</trkpt>
<trkpt lat="55.701359" lon="26.548969">
<ele>145.482544</ele>
<time>2010-07-18T12:16:14Z</time>
<desc>lat.=55.701359, lon.=26.548969, Alt.=145.482544m. Speed=16.236000m/h.</desc>
<speed>4.510000</speed>
</trkpt>
<trkpt lat="55.701397" lon="26.548935">
<ele>145.060669</ele>
<time>2010-07-18T12:16:15Z</time>
<desc>lat.=55.701397, lon.=26.548935, Alt.=145.060669m. Speed=16.524000m/h.</desc>
<speed>4.590000</speed>
</trkpt>
<trkpt lat="55.701435" lon="26.548904">
<ele>144.869263</ele>
<time>2010-07-18T12:16:16Z</time>
<desc>lat.=55.701435, lon.=26.548904, Alt.=144.869263m. Speed=18.684000m/h.</desc>
<speed>5.190000</speed>
</trkpt>
<trkpt lat="55.701481" lon="26.548872">
<ele>144.552856</ele>
<time>2010-07-18T12:16:17Z</time>
<desc>lat.=55.701481, lon.=26.548872, Alt.=144.552856m. Speed=19.080000m/h.</desc>
<speed>5.300000</speed>
</trkpt>
<trkpt lat="55.701527" lon="26.548849">
<ele>144.255981</ele>
<time>2010-07-18T12:16:18Z</time>
<desc>lat.=55.701527, lon.=26.548849, Alt.=144.255981m. Speed=19.007999m/h.</desc>
<speed>5.280000</speed>
</trkpt>
<trkpt lat="55.701572" lon="26.548819">
<ele>143.615356</ele>
<time>2010-07-18T12:16:19Z</time>
<desc>lat.=55.701572, lon.=26.548819, Alt.=143.615356m. Speed=18.468000m/h.</desc>
<speed>5.130000</speed>
</trkpt>
<trkpt lat="55.701614" lon="26.548790">
<ele>143.447388</ele>
<time>2010-07-18T12:16:20Z</time>
<desc>lat.=55.701614, lon.=26.548790, Alt.=143.447388m. Speed=17.892000m/h.</desc>
<speed>4.970000</speed>
</trkpt>
<trkpt lat="55.701656" lon="26.548763">
<ele>143.005981</ele>
<time>2010-07-18T12:16:21Z</time>
<desc>lat.=55.701656, lon.=26.548763, Alt.=143.005981m. Speed=17.028000m/h.</desc>
<speed>4.730000</speed>
</trkpt>
<trkpt lat="55.701698" lon="26.548737">
<ele>142.857544</ele>
<time>2010-07-18T12:16:22Z</time>
<desc>lat.=55.701698, lon.=26.548737, Alt.=142.857544m. Speed=16.884001m/h.</desc>
<speed>4.690000</speed>
</trkpt>
<trkpt lat="55.701740" lon="26.548706">
<ele>142.509888</ele>
<time>2010-07-18T12:16:23Z</time>
<desc>lat.=55.701740, lon.=26.548706, Alt.=142.509888m. Speed=16.667999m/h.</desc>
<speed>4.630000</speed>
</trkpt>
<trkpt lat="55.701782" lon="26.548679">
<ele>142.338013</ele>
<time>2010-07-18T12:16:24Z</time>
<desc>lat.=55.701782, lon.=26.548679, Alt.=142.338013m. Speed=16.200001m/h.</desc>
<speed>4.500000</speed>
</trkpt>
<trkpt lat="55.701820" lon="26.548658">
<ele>142.084106</ele>
<time>2010-07-18T12:16:25Z</time>
<desc>lat.=55.701820, lon.=26.548658, Alt.=142.084106m. Speed=15.300000m/h.</desc>
<speed>4.250000</speed>
</trkpt>
<trkpt lat="55.701855" lon="26.548632">
<ele>142.041138</ele>
<time>2010-07-18T12:16:26Z</time>
<desc>lat.=55.701855, lon.=26.548632, Alt.=142.041138m. Speed=15.084000m/h.</desc>
<speed>4.190000</speed>
</trkpt>
<trkpt lat="55.701889" lon="26.548601">
<ele>142.002075</ele>
<time>2010-07-18T12:16:27Z</time>
<desc>lat.=55.701889, lon.=26.548601, Alt.=142.002075m. Speed=15.516000m/h.</desc>
<speed>4.310000</speed>
</trkpt>
<trkpt lat="55.701923" lon="26.548569">
<ele>142.052856</ele>
<time>2010-07-18T12:16:28Z</time>
<desc>lat.=55.701923, lon.=26.548569, Alt.=142.052856m. Speed=16.236000m/h.</desc>
<speed>4.510000</speed>
</trkpt>
<trkpt lat="55.701965" lon="26.548542">
<ele>141.900513</ele>
<time>2010-07-18T12:16:29Z</time>
<desc>lat.=55.701965, lon.=26.548542, Alt.=141.900513m. Speed=16.452000m/h.</desc>
<speed>4.570000</speed>
</trkpt>
<trkpt lat="55.702003" lon="26.548519">
<ele>141.818481</ele>
<time>2010-07-18T12:16:30Z</time>
<desc>lat.=55.702003, lon.=26.548519, Alt.=141.818481m. Speed=16.056000m/h.</desc>
<speed>4.460000</speed>
</trkpt>
<trkpt lat="55.702042" lon="26.548502">
<ele>141.486450</ele>
<time>2010-07-18T12:16:31Z</time>
<desc>lat.=55.702042, lon.=26.548502, Alt.=141.486450m. Speed=15.192000m/h.</desc>
<speed>4.220000</speed>
</trkpt>
<trkpt lat="55.702076" lon="26.548483">
<ele>141.443481</ele>
<time>2010-07-18T12:16:32Z</time>
<desc>lat.=55.702076, lon.=26.548483, Alt.=141.443481m. Speed=14.148000m/h.</desc>
<speed>3.930000</speed>
</trkpt>
<trkpt lat="55.702110" lon="26.548464">
<ele>141.365356</ele>
<time>2010-07-18T12:16:33Z</time>
<desc>lat.=55.702110, lon.=26.548464, Alt.=141.365356m. Speed=13.284000m/h.</desc>
<speed>3.690000</speed>
</trkpt>
<trkpt lat="55.702141" lon="26.548443">
<ele>141.423950</ele>
<time>2010-07-18T12:16:34Z</time>
<desc>lat.=55.702141, lon.=26.548443, Alt.=141.423950m. Speed=12.708000m/h.</desc>
<speed>3.530000</speed>
</trkpt>
<trkpt lat="55.702171" lon="26.548424">
<ele>141.447388</ele>
<time>2010-07-18T12:16:35Z</time>
<desc>lat.=55.702171, lon.=26.548424, Alt.=141.447388m. Speed=12.060000m/h.</desc>
<speed>3.350000</speed>
</trkpt>
<trkpt lat="55.702202" lon="26.548405">
<ele>141.396606</ele>
<time>2010-07-18T12:16:36Z</time>
<desc>lat.=55.702202, lon.=26.548405, Alt.=141.396606m. Speed=11.448000m/h.</desc>
<speed>3.180000</speed>
</trkpt>
<trkpt lat="55.702232" lon="26.548389">
<ele>141.134888</ele>
<time>2010-07-18T12:16:37Z</time>
<desc>lat.=55.702232, lon.=26.548389, Alt.=141.134888m. Speed=12.348000m/h.</desc>
<speed>3.430000</speed>
</trkpt>
<trkpt lat="55.702259" lon="26.548374">
<ele>140.709106</ele>
<time>2010-07-18T12:16:38Z</time>
<desc>lat.=55.702259, lon.=26.548374, Alt.=140.709106m. Speed=10.944000m/h.</desc>
<speed>3.040000</speed>
</trkpt>
<trkpt lat="55.702290" lon="26.548351">
<ele>140.576294</ele>
<time>2010-07-18T12:16:39Z</time>
<desc>lat.=55.702290, lon.=26.548351, Alt.=140.576294m. Speed=13.104000m/h.</desc>
<speed>3.640000</speed>
</trkpt>
<trkpt lat="55.702316" lon="26.548330">
<ele>140.623169</ele>
<time>2010-07-18T12:16:40Z</time>
<desc>lat.=55.702316, lon.=26.548330, Alt.=140.623169m. Speed=14.004000m/h.</desc>
<speed>3.890000</speed>
</trkpt>
<trkpt lat="55.702351" lon="26.548306">
<ele>140.537231</ele>
<time>2010-07-18T12:16:41Z</time>
<desc>lat.=55.702351, lon.=26.548306, Alt.=140.537231m. Speed=15.192000m/h.</desc>
<speed>4.220000</speed>
</trkpt>
<trkpt lat="55.702385" lon="26.548286">
<ele>140.595825</ele>
<time>2010-07-18T12:16:42Z</time>
<desc>lat.=55.702385, lon.=26.548286, Alt.=140.595825m. Speed=14.760000m/h.</desc>
<speed>4.100000</speed>
</trkpt>
<trkpt lat="55.702419" lon="26.548262">
<ele>140.818481</ele>
<time>2010-07-18T12:16:43Z</time>
<desc>lat.=55.702419, lon.=26.548262, Alt.=140.818481m. Speed=15.228000m/h.</desc>
<speed>4.230000</speed>
</trkpt>
<trkpt lat="55.702457" lon="26.548241">
<ele>140.748169</ele>
<time>2010-07-18T12:16:44Z</time>
<desc>lat.=55.702457, lon.=26.548241, Alt.=140.748169m. Speed=15.336000m/h.</desc>
<speed>4.260000</speed>
</trkpt>
<trkpt lat="55.702492" lon="26.548218">
<ele>140.838013</ele>
<time>2010-07-18T12:16:45Z</time>
<desc>lat.=55.702492, lon.=26.548218, Alt.=140.838013m. Speed=15.372000m/h.</desc>
<speed>4.270000</speed>
</trkpt>
<trkpt lat="55.702530" lon="26.548195">
<ele>141.009888</ele>
<time>2010-07-18T12:16:46Z</time>
<desc>lat.=55.702530, lon.=26.548195, Alt.=141.009888m. Speed=15.120000m/h.</desc>
<speed>4.200000</speed>
</trkpt>
<trkpt lat="55.702568" lon="26.548164">
<ele>141.213013</ele>
<time>2010-07-18T12:16:47Z</time>
<desc>lat.=55.702568, lon.=26.548164, Alt.=141.213013m. Speed=16.559999m/h.</desc>
<speed>4.600000</speed>
</trkpt>
<trkpt lat="55.702610" lon="26.548138">
<ele>141.142700</ele>
<time>2010-07-18T12:16:48Z</time>
<desc>lat.=55.702610, lon.=26.548138, Alt.=141.142700m. Speed=17.243999m/h.</desc>
<speed>4.790000</speed>
</trkpt>
<trkpt lat="55.702648" lon="26.548111">
<ele>141.103638</ele>
<time>2010-07-18T12:16:49Z</time>
<desc>lat.=55.702648, lon.=26.548111, Alt.=141.103638m. Speed=16.848000m/h.</desc>
<speed>4.680000</speed>
</trkpt>
<trkpt lat="55.702690" lon="26.548084">
<ele>141.146606</ele>
<time>2010-07-18T12:16:50Z</time>
<desc>lat.=55.702690, lon.=26.548084, Alt.=141.146606m. Speed=16.200001m/h.</desc>
<speed>4.500000</speed>
</trkpt>
<trkpt lat="55.702728" lon="26.548065">
<ele>141.173950</ele>
<time>2010-07-18T12:16:51Z</time>
<desc>lat.=55.702728, lon.=26.548065, Alt.=141.173950m. Speed=15.156000m/h.</desc>
<speed>4.210000</speed>
</trkpt>
<trkpt lat="55.702763" lon="26.548050">
<ele>141.107544</ele>
<time>2010-07-18T12:16:52Z</time>
<desc>lat.=55.702763, lon.=26.548050, Alt.=141.107544m. Speed=13.716000m/h.</desc>
<speed>3.810000</speed>
</trkpt>
<trkpt lat="55.702789" lon="26.548035">
<ele>141.248169</ele>
<time>2010-07-18T12:16:53Z</time>
<desc>lat.=55.702789, lon.=26.548035, Alt.=141.248169m. Speed=12.096000m/h.</desc>
<speed>3.360000</speed>
</trkpt>
<trkpt lat="55.702816" lon="26.548018">
<ele>141.322388</ele>
<time>2010-07-18T12:16:54Z</time>
<desc>lat.=55.702816, lon.=26.548018, Alt.=141.322388m. Speed=10.764000m/h.</desc>
<speed>2.990000</speed>
</trkpt>
<trkpt lat="55.702843" lon="26.548004">
<ele>141.353638</ele>
<time>2010-07-18T12:16:55Z</time>
<desc>lat.=55.702843, lon.=26.548004, Alt.=141.353638m. Speed=9.540000m/h.</desc>
<speed>2.650000</speed>
</trkpt>
<trkpt lat="55.702866" lon="26.547993">
<ele>141.427856</ele>
<time>2010-07-18T12:16:56Z</time>
<desc>lat.=55.702866, lon.=26.547993, Alt.=141.427856m. Speed=8.784000m/h.</desc>
<speed>2.440000</speed>
</trkpt>
<trkpt lat="55.702888" lon="26.547977">
<ele>141.607544</ele>
<time>2010-07-18T12:16:57Z</time>
<desc>lat.=55.702888, lon.=26.547977, Alt.=141.607544m. Speed=8.532000m/h.</desc>
<speed>2.370000</speed>
</trkpt>
<trkpt lat="55.702911" lon="26.547966">
<ele>141.744263</ele>
<time>2010-07-18T12:16:58Z</time>
<desc>lat.=55.702911, lon.=26.547966, Alt.=141.744263m. Speed=9.504000m/h.</desc>
<speed>2.640000</speed>
</trkpt>
<trkpt lat="55.702934" lon="26.547949">
<ele>141.650513</ele>
<time>2010-07-18T12:16:59Z</time>
<desc>lat.=55.702934, lon.=26.547949, Alt.=141.650513m. Speed=11.340000m/h.</desc>
<speed>3.150000</speed>
</trkpt>
<trkpt lat="55.702961" lon="26.547932">
<ele>141.623169</ele>
<time>2010-07-18T12:17:00Z</time>
<desc>lat.=55.702961, lon.=26.547932, Alt.=141.623169m. Speed=11.088000m/h.</desc>
<speed>3.080000</speed>
</trkpt>
<trkpt lat="55.702988" lon="26.547918">
<ele>141.416138</ele>
<time>2010-07-18T12:17:01Z</time>
<desc>lat.=55.702988, lon.=26.547918, Alt.=141.416138m. Speed=10.620000m/h.</desc>
<speed>2.950000</speed>
</trkpt>
<trkpt lat="55.703011" lon="26.547901">
<ele>141.365356</ele>
<time>2010-07-18T12:17:02Z</time>
<desc>lat.=55.703011, lon.=26.547901, Alt.=141.365356m. Speed=7.992000m/h.</desc>
<speed>2.220000</speed>
</trkpt>
<trkpt lat="55.703030" lon="26.547890">
<ele>141.814575</ele>
<time>2010-07-18T12:17:03Z</time>
<desc>lat.=55.703030, lon.=26.547890, Alt.=141.814575m. Speed=7.812000m/h.</desc>
<speed>2.170000</speed>
</trkpt>
<trkpt lat="55.703049" lon="26.547878">
<ele>141.705200</ele>
<time>2010-07-18T12:17:04Z</time>
<desc>lat.=55.703049, lon.=26.547878, Alt.=141.705200m. Speed=10.152000m/h.</desc>
<speed>2.820000</speed>
</trkpt>
<trkpt lat="55.703075" lon="26.547869">
<ele>141.673950</ele>
<time>2010-07-18T12:17:05Z</time>
<desc>lat.=55.703075, lon.=26.547869, Alt.=141.673950m. Speed=10.188000m/h.</desc>
<speed>2.830000</speed>
</trkpt>
<trkpt lat="55.703098" lon="26.547857">
<ele>141.634888</ele>
<time>2010-07-18T12:17:06Z</time>
<desc>lat.=55.703098, lon.=26.547857, Alt.=141.634888m. Speed=10.980000m/h.</desc>
<speed>3.050000</speed>
</trkpt>
<trkpt lat="55.703125" lon="26.547838">
<ele>141.724731</ele>
<time>2010-07-18T12:17:07Z</time>
<desc>lat.=55.703125, lon.=26.547838, Alt.=141.724731m. Speed=11.700000m/h.</desc>
<speed>3.250000</speed>
</trkpt>
<trkpt lat="55.703152" lon="26.547823">
<ele>141.853638</ele>
<time>2010-07-18T12:17:08Z</time>
<desc>lat.=55.703152, lon.=26.547823, Alt.=141.853638m. Speed=11.124000m/h.</desc>
<speed>3.090000</speed>
</trkpt>
<trkpt lat="55.703178" lon="26.547810">
<ele>141.908325</ele>
<time>2010-07-18T12:17:09Z</time>
<desc>lat.=55.703178, lon.=26.547810, Alt.=141.908325m. Speed=9.972000m/h.</desc>
<speed>2.770000</speed>
</trkpt>
<trkpt lat="55.703201" lon="26.547796">
<ele>142.045044</ele>
<time>2010-07-18T12:17:10Z</time>
<desc>lat.=55.703201, lon.=26.547796, Alt.=142.045044m. Speed=9.792000m/h.</desc>
<speed>2.720000</speed>
</trkpt>
<trkpt lat="55.703224" lon="26.547781">
<ele>141.974731</ele>
<time>2010-07-18T12:17:11Z</time>
<desc>lat.=55.703224, lon.=26.547781, Alt.=141.974731m. Speed=10.656000m/h.</desc>
<speed>2.960000</speed>
</trkpt>
<trkpt lat="55.703255" lon="26.547758">
<ele>141.861450</ele>
<time>2010-07-18T12:17:12Z</time>
<desc>lat.=55.703255, lon.=26.547758, Alt.=141.861450m. Speed=11.700000m/h.</desc>
<speed>3.250000</speed>
</trkpt>
<trkpt lat="55.703281" lon="26.547743">
<ele>141.865356</ele>
<time>2010-07-18T12:17:13Z</time>
<desc>lat.=55.703281, lon.=26.547743, Alt.=141.865356m. Speed=11.664000m/h.</desc>
<speed>3.240000</speed>
</trkpt>
<trkpt lat="55.703308" lon="26.547726">
<ele>141.935669</ele>
<time>2010-07-18T12:17:14Z</time>
<desc>lat.=55.703308, lon.=26.547726, Alt.=141.935669m. Speed=12.528000m/h.</desc>
<speed>3.480000</speed>
</trkpt>
<trkpt lat="55.703339" lon="26.547718">
<ele>142.584106</ele>
<time>2010-07-18T12:17:15Z</time>
<desc>lat.=55.703339, lon.=26.547718, Alt.=142.584106m. Speed=13.464000m/h.</desc>
<speed>3.740000</speed>
</trkpt>
<trkpt lat="55.703373" lon="26.547701">
<ele>142.900513</ele>
<time>2010-07-18T12:17:16Z</time>
<desc>lat.=55.703373, lon.=26.547701, Alt.=142.900513m. Speed=14.364000m/h.</desc>
<speed>3.990000</speed>
</trkpt>
<trkpt lat="55.703407" lon="26.547680">
<ele>142.959106</ele>
<time>2010-07-18T12:17:17Z</time>
<desc>lat.=55.703407, lon.=26.547680, Alt.=142.959106m. Speed=15.048000m/h.</desc>
<speed>4.180000</speed>
</trkpt>
<trkpt lat="55.703445" lon="26.547657">
<ele>142.951294</ele>
<time>2010-07-18T12:17:18Z</time>
<desc>lat.=55.703445, lon.=26.547657, Alt.=142.951294m. Speed=16.271999m/h.</desc>
<speed>4.520000</speed>
</trkpt>
<trkpt lat="55.703487" lon="26.547632">
<ele>143.029419</ele>
<time>2010-07-18T12:17:19Z</time>
<desc>lat.=55.703487, lon.=26.547632, Alt.=143.029419m. Speed=17.136000m/h.</desc>
<speed>4.760000</speed>
</trkpt>
<trkpt lat="55.703529" lon="26.547611">
<ele>143.068481</ele>
<time>2010-07-18T12:17:20Z</time>
<desc>lat.=55.703529, lon.=26.547611, Alt.=143.068481m. Speed=18.035999m/h.</desc>
<speed>5.010000</speed>
</trkpt>
<trkpt lat="55.703571" lon="26.547588">
<ele>143.318481</ele>
<time>2010-07-18T12:17:21Z</time>
<desc>lat.=55.703571, lon.=26.547588, Alt.=143.318481m. Speed=16.955999m/h.</desc>
<speed>4.710000</speed>
</trkpt>
<trkpt lat="55.703609" lon="26.547565">
<ele>143.380981</ele>
<time>2010-07-18T12:17:22Z</time>
<desc>lat.=55.703609, lon.=26.547565, Alt.=143.380981m. Speed=16.704000m/h.</desc>
<speed>4.640000</speed>
</trkpt>
<trkpt lat="55.703651" lon="26.547541">
<ele>143.607544</ele>
<time>2010-07-18T12:17:23Z</time>
<desc>lat.=55.703651, lon.=26.547541, Alt.=143.607544m. Speed=16.559999m/h.</desc>
<speed>4.600000</speed>
</trkpt>
<trkpt lat="55.703693" lon="26.547520">
<ele>143.806763</ele>
<time>2010-07-18T12:17:24Z</time>
<desc>lat.=55.703693, lon.=26.547520, Alt.=143.806763m. Speed=17.388000m/h.</desc>
<speed>4.830000</speed>
</trkpt>
<trkpt lat="55.703735" lon="26.547501">
<ele>143.998169</ele>
<time>2010-07-18T12:17:25Z</time>
<desc>lat.=55.703735, lon.=26.547501, Alt.=143.998169m. Speed=16.596001m/h.</desc>
<speed>4.610000</speed>
</trkpt>
<trkpt lat="55.703770" lon="26.547483">
<ele>144.072388</ele>
<time>2010-07-18T12:17:26Z</time>
<desc>lat.=55.703770, lon.=26.547483, Alt.=144.072388m. Speed=15.660000m/h.</desc>
<speed>4.350000</speed>
</trkpt>
<trkpt lat="55.703808" lon="26.547464">
<ele>144.103638</ele>
<time>2010-07-18T12:17:27Z</time>
<desc>lat.=55.703808, lon.=26.547464, Alt.=144.103638m. Speed=15.480000m/h.</desc>
<speed>4.300000</speed>
</trkpt>
<trkpt lat="55.703846" lon="26.547445">
<ele>144.185669</ele>
<time>2010-07-18T12:17:28Z</time>
<desc>lat.=55.703846, lon.=26.547445, Alt.=144.185669m. Speed=15.876000m/h.</desc>
<speed>4.410000</speed>
</trkpt>
<trkpt lat="55.703884" lon="26.547422">
<ele>144.005981</ele>
<time>2010-07-18T12:17:29Z</time>
<desc>lat.=55.703884, lon.=26.547422, Alt.=144.005981m. Speed=16.559999m/h.</desc>
<speed>4.600000</speed>
</trkpt>
<trkpt lat="55.703926" lon="26.547403">
<ele>143.970825</ele>
<time>2010-07-18T12:17:30Z</time>
<desc>lat.=55.703926, lon.=26.547403, Alt.=143.970825m. Speed=17.208000m/h.</desc>
<speed>4.780000</speed>
</trkpt>
<trkpt lat="55.703968" lon="26.547382">
<ele>143.974731</ele>
<time>2010-07-18T12:17:31Z</time>
<desc>lat.=55.703968, lon.=26.547382, Alt.=143.974731m. Speed=17.747999m/h.</desc>
<speed>4.930000</speed>
</trkpt>
<trkpt lat="55.704014" lon="26.547361">
<ele>144.091919</ele>
<time>2010-07-18T12:17:32Z</time>
<desc>lat.=55.704014, lon.=26.547361, Alt.=144.091919m. Speed=17.532000m/h.</desc>
<speed>4.870000</speed>
</trkpt>
<trkpt lat="55.704056" lon="26.547344">
<ele>144.048950</ele>
<time>2010-07-18T12:17:33Z</time>
<desc>lat.=55.704056, lon.=26.547344, Alt.=144.048950m. Speed=16.559999m/h.</desc>
<speed>4.600000</speed>
</trkpt>
<trkpt lat="55.704094" lon="26.547325">
<ele>144.123169</ele>
<time>2010-07-18T12:17:34Z</time>
<desc>lat.=55.704094, lon.=26.547325, Alt.=144.123169m. Speed=16.020000m/h.</desc>
<speed>4.450000</speed>
</trkpt>
<trkpt lat="55.704128" lon="26.547306">
<ele>144.185669</ele>
<time>2010-07-18T12:17:35Z</time>
<desc>lat.=55.704128, lon.=26.547306, Alt.=144.185669m. Speed=15.264000m/h.</desc>
<speed>4.240000</speed>
</trkpt>
<trkpt lat="55.704166" lon="26.547291">
<ele>144.248169</ele>
<time>2010-07-18T12:17:36Z</time>
<desc>lat.=55.704166, lon.=26.547291, Alt.=144.248169m. Speed=14.580000m/h.</desc>
<speed>4.050000</speed>
</trkpt>
<trkpt lat="55.704197" lon="26.547276">
<ele>144.236450</ele>
<time>2010-07-18T12:17:37Z</time>
<desc>lat.=55.704197, lon.=26.547276, Alt.=144.236450m. Speed=14.076000m/h.</desc>
<speed>3.910000</speed>
</trkpt>
<trkpt lat="55.704231" lon="26.547266">
<ele>144.162231</ele>
<time>2010-07-18T12:17:38Z</time>
<desc>lat.=55.704231, lon.=26.547266, Alt.=144.162231m. Speed=14.148000m/h.</desc>
<speed>3.930000</speed>
</trkpt>
<trkpt lat="55.704269" lon="26.547255">
<ele>144.185669</ele>
<time>2010-07-18T12:17:39Z</time>
<desc>lat.=55.704269, lon.=26.547255, Alt.=144.185669m. Speed=15.372000m/h.</desc>
<speed>4.270000</speed>
</trkpt>
<trkpt lat="55.704304" lon="26.547237">
<ele>144.373169</ele>
<time>2010-07-18T12:17:40Z</time>
<desc>lat.=55.704304, lon.=26.547237, Alt.=144.373169m. Speed=15.912000m/h.</desc>
<speed>4.420000</speed>
</trkpt>
<trkpt lat="55.704342" lon="26.547222">
<ele>144.474731</ele>
<time>2010-07-18T12:17:41Z</time>
<desc>lat.=55.704342, lon.=26.547222, Alt.=144.474731m. Speed=16.200001m/h.</desc>
<speed>4.500000</speed>
</trkpt>
<trkpt lat="55.704380" lon="26.547209">
<ele>144.545044</ele>
<time>2010-07-18T12:17:42Z</time>
<desc>lat.=55.704380, lon.=26.547209, Alt.=144.545044m. Speed=16.667999m/h.</desc>
<speed>4.630000</speed>
</trkpt>
<trkpt lat="55.704422" lon="26.547195">
<ele>144.599731</ele>
<time>2010-07-18T12:17:43Z</time>
<desc>lat.=55.704422, lon.=26.547195, Alt.=144.599731m. Speed=16.128000m/h.</desc>
<speed>4.480000</speed>
</trkpt>
<trkpt lat="55.704460" lon="26.547184">
<ele>144.658325</ele>
<time>2010-07-18T12:17:44Z</time>
<desc>lat.=55.704460, lon.=26.547184, Alt.=144.658325m. Speed=15.588000m/h.</desc>
<speed>4.330000</speed>
</trkpt>
<trkpt lat="55.704498" lon="26.547174">
<ele>144.693481</ele>
<time>2010-07-18T12:17:45Z</time>
<desc>lat.=55.704498, lon.=26.547174, Alt.=144.693481m. Speed=14.976000m/h.</desc>
<speed>4.160000</speed>
</trkpt>
<trkpt lat="55.704536" lon="26.547165">
<ele>144.795044</ele>
<time>2010-07-18T12:17:46Z</time>
<desc>lat.=55.704536, lon.=26.547165, Alt.=144.795044m. Speed=15.768000m/h.</desc>
<speed>4.380000</speed>
</trkpt>
<trkpt lat="55.704575" lon="26.547155">
<ele>144.884888</ele>
<time>2010-07-18T12:17:47Z</time>
<desc>lat.=55.704575, lon.=26.547155, Alt.=144.884888m. Speed=15.804000m/h.</desc>
<speed>4.390000</speed>
</trkpt>
<trkpt lat="55.704613" lon="26.547142">
<ele>144.935669</ele>
<time>2010-07-18T12:17:48Z</time>
<desc>lat.=55.704613, lon.=26.547142, Alt.=144.935669m. Speed=15.444000m/h.</desc>
<speed>4.290000</speed>
</trkpt>
<trkpt lat="55.704647" lon="26.547129">
<ele>145.029419</ele>
<time>2010-07-18T12:17:49Z</time>
<desc>lat.=55.704647, lon.=26.547129, Alt.=145.029419m. Speed=15.048000m/h.</desc>
<speed>4.180000</speed>
</trkpt>
<trkpt lat="55.704685" lon="26.547115">
<ele>145.052856</ele>
<time>2010-07-18T12:17:50Z</time>
<desc>lat.=55.704685, lon.=26.547115, Alt.=145.052856m. Speed=14.724000m/h.</desc>
<speed>4.090000</speed>
</trkpt>
<trkpt lat="55.704723" lon="26.547102">
<ele>145.130981</ele>
<time>2010-07-18T12:17:51Z</time>
<desc>lat.=55.704723, lon.=26.547102, Alt.=145.130981m. Speed=15.696000m/h.</desc>
<speed>4.360000</speed>
</trkpt>
<trkpt lat="55.704762" lon="26.547089">
<ele>145.259888</ele>
<time>2010-07-18T12:17:52Z</time>
<desc>lat.=55.704762, lon.=26.547089, Alt.=145.259888m. Speed=15.660000m/h.</desc>
<speed>4.350000</speed>
</trkpt>
<trkpt lat="55.704800" lon="26.547079">
<ele>145.373169</ele>
<time>2010-07-18T12:17:53Z</time>
<desc>lat.=55.704800, lon.=26.547079, Alt.=145.373169m. Speed=15.948000m/h.</desc>
<speed>4.430000</speed>
</trkpt>
<trkpt lat="55.704838" lon="26.547066">
<ele>145.420044</ele>
<time>2010-07-18T12:17:54Z</time>
<desc>lat.=55.704838, lon.=26.547066, Alt.=145.420044m. Speed=15.300000m/h.</desc>
<speed>4.250000</speed>
</trkpt>
<trkpt lat="55.704876" lon="26.547058">
<ele>145.478638</ele>
<time>2010-07-18T12:17:55Z</time>
<desc>lat.=55.704876, lon.=26.547058, Alt.=145.478638m. Speed=14.400000m/h.</desc>
<speed>4.000000</speed>
</trkpt>
<trkpt lat="55.704910" lon="26.547049">
<ele>145.556763</ele>
<time>2010-07-18T12:17:56Z</time>
<desc>lat.=55.704910, lon.=26.547049, Alt.=145.556763m. Speed=13.572000m/h.</desc>
<speed>3.770000</speed>
</trkpt>
<trkpt lat="55.704941" lon="26.547041">
<ele>145.521606</ele>
<time>2010-07-18T12:17:57Z</time>
<desc>lat.=55.704941, lon.=26.547041, Alt.=145.521606m. Speed=12.528000m/h.</desc>
<speed>3.480000</speed>
</trkpt>
<trkpt lat="55.704975" lon="26.547031">
<ele>145.584106</ele>
<time>2010-07-18T12:17:58Z</time>
<desc>lat.=55.704975, lon.=26.547031, Alt.=145.584106m. Speed=13.176000m/h.</desc>
<speed>3.660000</speed>
</trkpt>
<trkpt lat="55.705009" lon="26.547016">
<ele>145.771606</ele>
<time>2010-07-18T12:17:59Z</time>
<desc>lat.=55.705009, lon.=26.547016, Alt.=145.771606m. Speed=14.616000m/h.</desc>
<speed>4.060000</speed>
</trkpt>
<trkpt lat="55.705044" lon="26.547007">
<ele>145.849731</ele>
<time>2010-07-18T12:18:00Z</time>
<desc>lat.=55.705044, lon.=26.547007, Alt.=145.849731m. Speed=15.228000m/h.</desc>
<speed>4.230000</speed>
</trkpt>
<trkpt lat="55.705082" lon="26.546999">
<ele>145.884888</ele>
<time>2010-07-18T12:18:01Z</time>
<desc>lat.=55.705082, lon.=26.546999, Alt.=145.884888m. Speed=15.552000m/h.</desc>
<speed>4.320000</speed>
</trkpt>
<trkpt lat="55.705120" lon="26.546984">
<ele>145.966919</ele>
<time>2010-07-18T12:18:02Z</time>
<desc>lat.=55.705120, lon.=26.546984, Alt.=145.966919m. Speed=15.408000m/h.</desc>
<speed>4.280000</speed>
</trkpt>
<trkpt lat="55.705162" lon="26.546972">
<ele>146.166138</ele>
<time>2010-07-18T12:18:03Z</time>
<desc>lat.=55.705162, lon.=26.546972, Alt.=146.166138m. Speed=15.444000m/h.</desc>
<speed>4.290000</speed>
</trkpt>
<trkpt lat="55.705200" lon="26.546959">
<ele>146.388794</ele>
<time>2010-07-18T12:18:04Z</time>
<desc>lat.=55.705200, lon.=26.546959, Alt.=146.388794m. Speed=15.696000m/h.</desc>
<speed>4.360000</speed>
</trkpt>
<trkpt lat="55.705238" lon="26.546946">
<ele>146.525513</ele>
<time>2010-07-18T12:18:05Z</time>
<desc>lat.=55.705238, lon.=26.546946, Alt.=146.525513m. Speed=15.552000m/h.</desc>
<speed>4.320000</speed>
</trkpt>
<trkpt lat="55.705273" lon="26.546938">
<ele>146.673950</ele>
<time>2010-07-18T12:18:06Z</time>
<desc>lat.=55.705273, lon.=26.546938, Alt.=146.673950m. Speed=14.976000m/h.</desc>
<speed>4.160000</speed>
</trkpt>
<trkpt lat="55.705307" lon="26.546934">
<ele>146.677856</ele>
<time>2010-07-18T12:18:07Z</time>
<desc>lat.=55.705307, lon.=26.546934, Alt.=146.677856m. Speed=13.788000m/h.</desc>
<speed>3.830000</speed>
</trkpt>
<trkpt lat="55.705345" lon="26.546926">
<ele>146.787231</ele>
<time>2010-07-18T12:18:08Z</time>
<desc>lat.=55.705345, lon.=26.546926, Alt.=146.787231m. Speed=13.032000m/h.</desc>
<speed>3.620000</speed>
</trkpt>
<trkpt lat="55.705379" lon="26.546919">
<ele>146.810669</ele>
<time>2010-07-18T12:18:09Z</time>
<desc>lat.=55.705379, lon.=26.546919, Alt.=146.810669m. Speed=13.392000m/h.</desc>
<speed>3.720000</speed>
</trkpt>
<trkpt lat="55.705414" lon="26.546911">
<ele>146.826294</ele>
<time>2010-07-18T12:18:10Z</time>
<desc>lat.=55.705414, lon.=26.546911, Alt.=146.826294m. Speed=14.256000m/h.</desc>
<speed>3.960000</speed>
</trkpt>
<trkpt lat="55.705448" lon="26.546900">
<ele>146.920044</ele>
<time>2010-07-18T12:18:11Z</time>
<desc>lat.=55.705448, lon.=26.546900, Alt.=146.920044m. Speed=14.616000m/h.</desc>
<speed>4.060000</speed>
</trkpt>
<trkpt lat="55.705482" lon="26.546894">
<ele>147.224731</ele>
<time>2010-07-18T12:18:12Z</time>
<desc>lat.=55.705482, lon.=26.546894, Alt.=147.224731m. Speed=13.032000m/h.</desc>
<speed>3.620000</speed>
</trkpt>
<trkpt lat="55.705521" lon="26.546885">
<ele>147.279419</ele>
<time>2010-07-18T12:18:13Z</time>
<desc>lat.=55.705521, lon.=26.546885, Alt.=147.279419m. Speed=15.084000m/h.</desc>
<speed>4.190000</speed>
</trkpt>
<trkpt lat="55.705555" lon="26.546881">
<ele>147.486450</ele>
<time>2010-07-18T12:18:14Z</time>
<desc>lat.=55.705555, lon.=26.546881, Alt.=147.486450m. Speed=14.688000m/h.</desc>
<speed>4.080000</speed>
</trkpt>
<trkpt lat="55.705597" lon="26.546875">
<ele>147.521606</ele>
<time>2010-07-18T12:18:15Z</time>
<desc>lat.=55.705597, lon.=26.546875, Alt.=147.521606m. Speed=15.336000m/h.</desc>
<speed>4.260000</speed>
</trkpt>
<trkpt lat="55.705635" lon="26.546867">
<ele>147.517700</ele>
<time>2010-07-18T12:18:16Z</time>
<desc>lat.=55.705635, lon.=26.546867, Alt.=147.517700m. Speed=14.868000m/h.</desc>
<speed>4.130000</speed>
</trkpt>
<trkpt lat="55.705669" lon="26.546860">
<ele>147.494263</ele>
<time>2010-07-18T12:18:17Z</time>
<desc>lat.=55.705669, lon.=26.546860, Alt.=147.494263m. Speed=13.932000m/h.</desc>
<speed>3.870000</speed>
</trkpt>
<trkpt lat="55.705704" lon="26.546858">
<ele>147.435669</ele>
<time>2010-07-18T12:18:18Z</time>
<desc>lat.=55.705704, lon.=26.546858, Alt.=147.435669m. Speed=13.464000m/h.</desc>
<speed>3.740000</speed>
</trkpt>
<trkpt lat="55.705742" lon="26.546850">
<ele>147.377075</ele>
<time>2010-07-18T12:18:19Z</time>
<desc>lat.=55.705742, lon.=26.546850, Alt.=147.377075m. Speed=14.184000m/h.</desc>
<speed>3.940000</speed>
</trkpt>
<trkpt lat="55.705776" lon="26.546841">
<ele>147.423950</ele>
<time>2010-07-18T12:18:20Z</time>
<desc>lat.=55.705776, lon.=26.546841, Alt.=147.423950m. Speed=14.148000m/h.</desc>
<speed>3.930000</speed>
</trkpt>
<trkpt lat="55.705814" lon="26.546841">
<ele>147.416138</ele>
<time>2010-07-18T12:18:21Z</time>
<desc>lat.=55.705814, lon.=26.546841, Alt.=147.416138m. Speed=15.156000m/h.</desc>
<speed>4.210000</speed>
</trkpt>
<trkpt lat="55.705853" lon="26.546843">
<ele>147.365356</ele>
<time>2010-07-18T12:18:22Z</time>
<desc>lat.=55.705853, lon.=26.546843, Alt.=147.365356m. Speed=15.228000m/h.</desc>
<speed>4.230000</speed>
</trkpt>
<trkpt lat="55.705891" lon="26.546833">
<ele>147.529419</ele>
<time>2010-07-18T12:18:23Z</time>
<desc>lat.=55.705891, lon.=26.546833, Alt.=147.529419m. Speed=14.688000m/h.</desc>
<speed>4.080000</speed>
</trkpt>
<trkpt lat="55.705929" lon="26.546825">
<ele>147.724731</ele>
<time>2010-07-18T12:18:24Z</time>
<desc>lat.=55.705929, lon.=26.546825, Alt.=147.724731m. Speed=14.688000m/h.</desc>
<speed>4.080000</speed>
</trkpt>
<trkpt lat="55.705967" lon="26.546816">
<ele>147.865356</ele>
<time>2010-07-18T12:18:25Z</time>
<desc>lat.=55.705967, lon.=26.546816, Alt.=147.865356m. Speed=15.984000m/h.</desc>
<speed>4.440000</speed>
</trkpt>
<trkpt lat="55.706005" lon="26.546814">
<ele>147.900513</ele>
<time>2010-07-18T12:18:26Z</time>
<desc>lat.=55.706005, lon.=26.546814, Alt.=147.900513m. Speed=16.236000m/h.</desc>
<speed>4.510000</speed>
</trkpt>
<trkpt lat="55.706043" lon="26.546808">
<ele>148.002075</ele>
<time>2010-07-18T12:18:27Z</time>
<desc>lat.=55.706043, lon.=26.546808, Alt.=148.002075m. Speed=16.344000m/h.</desc>
<speed>4.540000</speed>
</trkpt>
<trkpt lat="55.706081" lon="26.546804">
<ele>148.158325</ele>
<time>2010-07-18T12:18:28Z</time>
<desc>lat.=55.706081, lon.=26.546804, Alt.=148.158325m. Speed=15.444000m/h.</desc>
<speed>4.290000</speed>
</trkpt>
<trkpt lat="55.706120" lon="26.546799">
<ele>148.252075</ele>
<time>2010-07-18T12:18:29Z</time>
<desc>lat.=55.706120, lon.=26.546799, Alt.=148.252075m. Speed=14.616000m/h.</desc>
<speed>4.060000</speed>
</trkpt>
<trkpt lat="55.706154" lon="26.546795">
<ele>148.330200</ele>
<time>2010-07-18T12:18:30Z</time>
<desc>lat.=55.706154, lon.=26.546795, Alt.=148.330200m. Speed=14.832000m/h.</desc>
<speed>4.120000</speed>
</trkpt>
<trkpt lat="55.706192" lon="26.546789">
<ele>148.408325</ele>
<time>2010-07-18T12:18:31Z</time>
<desc>lat.=55.706192, lon.=26.546789, Alt.=148.408325m. Speed=15.084000m/h.</desc>
<speed>4.190000</speed>
</trkpt>
<trkpt lat="55.706234" lon="26.546785">
<ele>148.502075</ele>
<time>2010-07-18T12:18:32Z</time>
<desc>lat.=55.706234, lon.=26.546785, Alt.=148.502075m. Speed=15.876000m/h.</desc>
<speed>4.410000</speed>
</trkpt>
<trkpt lat="55.706272" lon="26.546780">
<ele>148.595825</ele>
<time>2010-07-18T12:18:33Z</time>
<desc>lat.=55.706272, lon.=26.546780, Alt.=148.595825m. Speed=15.156000m/h.</desc>
<speed>4.210000</speed>
</trkpt>
<trkpt lat="55.706310" lon="26.546776">
<ele>148.740356</ele>
<time>2010-07-18T12:18:34Z</time>
<desc>lat.=55.706310, lon.=26.546776, Alt.=148.740356m. Speed=15.444000m/h.</desc>
<speed>4.290000</speed>
</trkpt>
<trkpt lat="55.706348" lon="26.546774">
<ele>148.838013</ele>
<time>2010-07-18T12:18:35Z</time>
<desc>lat.=55.706348, lon.=26.546774, Alt.=148.838013m. Speed=15.192000m/h.</desc>
<speed>4.220000</speed>
</trkpt>
<trkpt lat="55.706387" lon="26.546774">
<ele>148.959106</ele>
<time>2010-07-18T12:18:36Z</time>
<desc>lat.=55.706387, lon.=26.546774, Alt.=148.959106m. Speed=15.048000m/h.</desc>
<speed>4.180000</speed>
</trkpt>
<trkpt lat="55.706425" lon="26.546772">
<ele>149.084106</ele>
<time>2010-07-18T12:18:37Z</time>
<desc>lat.=55.706425, lon.=26.546772, Alt.=149.084106m. Speed=14.796000m/h.</desc>
<speed>4.110000</speed>
</trkpt>
<trkpt lat="55.706463" lon="26.546768">
<ele>149.197388</ele>
<time>2010-07-18T12:18:38Z</time>
<desc>lat.=55.706463, lon.=26.546768, Alt.=149.197388m. Speed=14.832000m/h.</desc>
<speed>4.120000</speed>
</trkpt>
<trkpt lat="55.706501" lon="26.546764">
<ele>149.318481</ele>
<time>2010-07-18T12:18:39Z</time>
<desc>lat.=55.706501, lon.=26.546764, Alt.=149.318481m. Speed=14.724000m/h.</desc>
<speed>4.090000</speed>
</trkpt>
<trkpt lat="55.706539" lon="26.546759">
<ele>149.459106</ele>
<time>2010-07-18T12:18:40Z</time>
<desc>lat.=55.706539, lon.=26.546759, Alt.=149.459106m. Speed=14.940000m/h.</desc>
<speed>4.150000</speed>
</trkpt>
<trkpt lat="55.706577" lon="26.546755">
<ele>149.463013</ele>
<time>2010-07-18T12:18:41Z</time>
<desc>lat.=55.706577, lon.=26.546755, Alt.=149.463013m. Speed=14.184000m/h.</desc>
<speed>3.940000</speed>
</trkpt>
<trkpt lat="55.706612" lon="26.546751">
<ele>149.439575</ele>
<time>2010-07-18T12:18:42Z</time>
<desc>lat.=55.706612, lon.=26.546751, Alt.=149.439575m. Speed=14.436000m/h.</desc>
<speed>4.010000</speed>
</trkpt>
<trkpt lat="55.706646" lon="26.546749">
<ele>149.529419</ele>
<time>2010-07-18T12:18:43Z</time>
<desc>lat.=55.706646, lon.=26.546749, Alt.=149.529419m. Speed=14.076000m/h.</desc>
<speed>3.910000</speed>
</trkpt>
<trkpt lat="55.706680" lon="26.546741">
<ele>149.646606</ele>
<time>2010-07-18T12:18:44Z</time>
<desc>lat.=55.706680, lon.=26.546741, Alt.=149.646606m. Speed=13.860000m/h.</desc>
<speed>3.850000</speed>
</trkpt>
<trkpt lat="55.706718" lon="26.546738">
<ele>149.880981</ele>
<time>2010-07-18T12:18:45Z</time>
<desc>lat.=55.706718, lon.=26.546738, Alt.=149.880981m. Speed=13.968000m/h.</desc>
<speed>3.880000</speed>
</trkpt>
<trkpt lat="55.706753" lon="26.546740">
<ele>149.916138</ele>
<time>2010-07-18T12:18:46Z</time>
<desc>lat.=55.706753, lon.=26.546740, Alt.=149.916138m. Speed=14.436000m/h.</desc>
<speed>4.010000</speed>
</trkpt>
<trkpt lat="55.706791" lon="26.546741">
<ele>149.974731</ele>
<time>2010-07-18T12:18:47Z</time>
<desc>lat.=55.706791, lon.=26.546741, Alt.=149.974731m. Speed=14.616000m/h.</desc>
<speed>4.060000</speed>
</trkpt>
<trkpt lat="55.706825" lon="26.546738">
<ele>150.154419</ele>
<time>2010-07-18T12:18:48Z</time>
<desc>lat.=55.706825, lon.=26.546738, Alt.=150.154419m. Speed=13.644000m/h.</desc>
<speed>3.790000</speed>
</trkpt>
<trkpt lat="55.706860" lon="26.546736">
<ele>150.259888</ele>
<time>2010-07-18T12:18:49Z</time>
<desc>lat.=55.706860, lon.=26.546736, Alt.=150.259888m. Speed=13.608000m/h.</desc>
<speed>3.780000</speed>
</trkpt>
<trkpt lat="55.706894" lon="26.546732">
<ele>150.353638</ele>
<time>2010-07-18T12:18:50Z</time>
<desc>lat.=55.706894, lon.=26.546732, Alt.=150.353638m. Speed=14.328000m/h.</desc>
<speed>3.980000</speed>
</trkpt>
<trkpt lat="55.706932" lon="26.546732">
<ele>150.427856</ele>
<time>2010-07-18T12:18:51Z</time>
<desc>lat.=55.706932, lon.=26.546732, Alt.=150.427856m. Speed=14.580000m/h.</desc>
<speed>4.050000</speed>
</trkpt>
<trkpt lat="55.706966" lon="26.546724">
<ele>150.482544</ele>
<time>2010-07-18T12:18:52Z</time>
<desc>lat.=55.706966, lon.=26.546724, Alt.=150.482544m. Speed=15.660000m/h.</desc>
<speed>4.350000</speed>
</trkpt>
<trkpt lat="55.707005" lon="26.546722">
<ele>150.560669</ele>
<time>2010-07-18T12:18:53Z</time>
<desc>lat.=55.707005, lon.=26.546722, Alt.=150.560669m. Speed=16.128000m/h.</desc>
<speed>4.480000</speed>
</trkpt>
<trkpt lat="55.707047" lon="26.546719">
<ele>150.705200</ele>
<time>2010-07-18T12:18:54Z</time>
<desc>lat.=55.707047, lon.=26.546719, Alt.=150.705200m. Speed=15.156000m/h.</desc>
<speed>4.210000</speed>
</trkpt>
<trkpt lat="55.707081" lon="26.546717">
<ele>150.775513</ele>
<time>2010-07-18T12:18:55Z</time>
<desc>lat.=55.707081, lon.=26.546717, Alt.=150.775513m. Speed=14.652000m/h.</desc>
<speed>4.070000</speed>
</trkpt>
<trkpt lat="55.707119" lon="26.546713">
<ele>150.877075</ele>
<time>2010-07-18T12:18:56Z</time>
<desc>lat.=55.707119, lon.=26.546713, Alt.=150.877075m. Speed=14.616000m/h.</desc>
<speed>4.060000</speed>
</trkpt>
<trkpt lat="55.707153" lon="26.546707">
<ele>151.064575</ele>
<time>2010-07-18T12:18:57Z</time>
<desc>lat.=55.707153, lon.=26.546707, Alt.=151.064575m. Speed=14.832000m/h.</desc>
<speed>4.120000</speed>
</trkpt>
<trkpt lat="55.707191" lon="26.546705">
<ele>151.170044</ele>
<time>2010-07-18T12:18:58Z</time>
<desc>lat.=55.707191, lon.=26.546705, Alt.=151.170044m. Speed=15.228000m/h.</desc>
<speed>4.230000</speed>
</trkpt>
<trkpt lat="55.707230" lon="26.546700">
<ele>151.388794</ele>
<time>2010-07-18T12:18:59Z</time>
<desc>lat.=55.707230, lon.=26.546700, Alt.=151.388794m. Speed=16.020000m/h.</desc>
<speed>4.450000</speed>
</trkpt>
<trkpt lat="55.707272" lon="26.546698">
<ele>151.459106</ele>
<time>2010-07-18T12:19:00Z</time>
<desc>lat.=55.707272, lon.=26.546698, Alt.=151.459106m. Speed=15.732000m/h.</desc>
<speed>4.370000</speed>
</trkpt>
<trkpt lat="55.707310" lon="26.546692">
<ele>151.576294</ele>
<time>2010-07-18T12:19:01Z</time>
<desc>lat.=55.707310, lon.=26.546692, Alt.=151.576294m. Speed=14.472000m/h.</desc>
<speed>4.020000</speed>
</trkpt>
<trkpt lat="55.707348" lon="26.546690">
<ele>151.689575</ele>
<time>2010-07-18T12:19:02Z</time>
<desc>lat.=55.707348, lon.=26.546690, Alt.=151.689575m. Speed=13.644000m/h.</desc>
<speed>3.790000</speed>
</trkpt>
<trkpt lat="55.707378" lon="26.546690">
<ele>151.791138</ele>
<time>2010-07-18T12:19:03Z</time>
<desc>lat.=55.707378, lon.=26.546690, Alt.=151.791138m. Speed=12.960000m/h.</desc>
<speed>3.600000</speed>
</trkpt>
<trkpt lat="55.707413" lon="26.546690">
<ele>151.830200</ele>
<time>2010-07-18T12:19:04Z</time>
<desc>lat.=55.707413, lon.=26.546690, Alt.=151.830200m. Speed=14.796000m/h.</desc>
<speed>4.110000</speed>
</trkpt>
<trkpt lat="55.707455" lon="26.546692">
<ele>151.857544</ele>
<time>2010-07-18T12:19:05Z</time>
<desc>lat.=55.707455, lon.=26.546692, Alt.=151.857544m. Speed=14.472000m/h.</desc>
<speed>4.020000</speed>
</trkpt>
<trkpt lat="55.707485" lon="26.546692">
<ele>151.892700</ele>
<time>2010-07-18T12:19:06Z</time>
<desc>lat.=55.707485, lon.=26.546692, Alt.=151.892700m. Speed=12.852000m/h.</desc>
<speed>3.570000</speed>
</trkpt>
<trkpt lat="55.707516" lon="26.546692">
<ele>151.955200</ele>
<time>2010-07-18T12:19:07Z</time>
<desc>lat.=55.707516, lon.=26.546692, Alt.=151.955200m. Speed=11.664000m/h.</desc>
<speed>3.240000</speed>
</trkpt>
<trkpt lat="55.707546" lon="26.546686">
<ele>152.068481</ele>
<time>2010-07-18T12:19:08Z</time>
<desc>lat.=55.707546, lon.=26.546686, Alt.=152.068481m. Speed=11.952000m/h.</desc>
<speed>3.320000</speed>
</trkpt>
<trkpt lat="55.707581" lon="26.546684">
<ele>151.841919</ele>
<time>2010-07-18T12:19:09Z</time>
<desc>lat.=55.707581, lon.=26.546684, Alt.=151.841919m. Speed=15.336000m/h.</desc>
<speed>4.260000</speed>
</trkpt>
<trkpt lat="55.707623" lon="26.546682">
<ele>151.752075</ele>
<time>2010-07-18T12:19:10Z</time>
<desc>lat.=55.707623, lon.=26.546682, Alt.=151.752075m. Speed=13.896000m/h.</desc>
<speed>3.860000</speed>
</trkpt>
<trkpt lat="55.707657" lon="26.546680">
<ele>151.923950</ele>
<time>2010-07-18T12:19:11Z</time>
<desc>lat.=55.707657, lon.=26.546680, Alt.=151.923950m. Speed=13.716000m/h.</desc>
<speed>3.810000</speed>
</trkpt>
<trkpt lat="55.707695" lon="26.546675">
<ele>152.838013</ele>
<time>2010-07-18T12:19:12Z</time>
<desc>lat.=55.707695, lon.=26.546675, Alt.=152.838013m. Speed=11.520000m/h.</desc>
<speed>3.200000</speed>
</trkpt>
<trkpt lat="55.707729" lon="26.546679">
<ele>153.111450</ele>
<time>2010-07-18T12:19:13Z</time>
<desc>lat.=55.707729, lon.=26.546679, Alt.=153.111450m. Speed=13.788000m/h.</desc>
<speed>3.830000</speed>
</trkpt>
<trkpt lat="55.707764" lon="26.546680">
<ele>153.298950</ele>
<time>2010-07-18T12:19:14Z</time>
<desc>lat.=55.707764, lon.=26.546680, Alt.=153.298950m. Speed=13.680000m/h.</desc>
<speed>3.800000</speed>
</trkpt>
<trkpt lat="55.707798" lon="26.546677">
<ele>153.541138</ele>
<time>2010-07-18T12:19:15Z</time>
<desc>lat.=55.707798, lon.=26.546677, Alt.=153.541138m. Speed=13.428000m/h.</desc>
<speed>3.730000</speed>
</trkpt>
<trkpt lat="55.707832" lon="26.546671">
<ele>153.896606</ele>
<time>2010-07-18T12:19:16Z</time>
<desc>lat.=55.707832, lon.=26.546671, Alt.=153.896606m. Speed=12.888000m/h.</desc>
<speed>3.580000</speed>
</trkpt>
<trkpt lat="55.707863" lon="26.546673">
<ele>153.412231</ele>
<time>2010-07-18T12:19:17Z</time>
<desc>lat.=55.707863, lon.=26.546673, Alt.=153.412231m. Speed=12.852000m/h.</desc>
<speed>3.570000</speed>
</trkpt>
<trkpt lat="55.707897" lon="26.546677">
<ele>153.455200</ele>
<time>2010-07-18T12:19:18Z</time>
<desc>lat.=55.707897, lon.=26.546677, Alt.=153.455200m. Speed=13.320000m/h.</desc>
<speed>3.700000</speed>
</trkpt>
<trkpt lat="55.707928" lon="26.546675">
<ele>153.681763</ele>
<time>2010-07-18T12:19:19Z</time>
<desc>lat.=55.707928, lon.=26.546675, Alt.=153.681763m. Speed=13.428000m/h.</desc>
<speed>3.730000</speed>
</trkpt>
<trkpt lat="55.707962" lon="26.546679">
<ele>153.431763</ele>
<time>2010-07-18T12:19:20Z</time>
<desc>lat.=55.707962, lon.=26.546679, Alt.=153.431763m. Speed=13.032000m/h.</desc>
<speed>3.620000</speed>
</trkpt>
<trkpt lat="55.707996" lon="26.546680">
<ele>153.603638</ele>
<time>2010-07-18T12:19:21Z</time>
<desc>lat.=55.707996, lon.=26.546680, Alt.=153.603638m. Speed=12.636000m/h.</desc>
<speed>3.510000</speed>
</trkpt>
<trkpt lat="55.708027" lon="26.546684">
<ele>153.877075</ele>
<time>2010-07-18T12:19:22Z</time>
<desc>lat.=55.708027, lon.=26.546684, Alt.=153.877075m. Speed=11.772000m/h.</desc>
<speed>3.270000</speed>
</trkpt>
<trkpt lat="55.708054" lon="26.546684">
<ele>153.963013</ele>
<time>2010-07-18T12:19:23Z</time>
<desc>lat.=55.708054, lon.=26.546684, Alt.=153.963013m. Speed=11.160000m/h.</desc>
<speed>3.100000</speed>
</trkpt>
<trkpt lat="55.708088" lon="26.546686">
<ele>154.045044</ele>
<time>2010-07-18T12:19:24Z</time>
<desc>lat.=55.708088, lon.=26.546686, Alt.=154.045044m. Speed=12.816000m/h.</desc>
<speed>3.560000</speed>
</trkpt>
<trkpt lat="55.708118" lon="26.546690">
<ele>154.134888</ele>
<time>2010-07-18T12:19:25Z</time>
<desc>lat.=55.708118, lon.=26.546690, Alt.=154.134888m. Speed=12.456000m/h.</desc>
<speed>3.460000</speed>
</trkpt>
<trkpt lat="55.708149" lon="26.546694">
<ele>154.041138</ele>
<time>2010-07-18T12:19:26Z</time>
<desc>lat.=55.708149, lon.=26.546694, Alt.=154.041138m. Speed=9.252000m/h.</desc>
<speed>2.570000</speed>
</trkpt>
<trkpt lat="55.708176" lon="26.546703">
<ele>153.974731</ele>
<time>2010-07-18T12:19:27Z</time>
<desc>lat.=55.708176, lon.=26.546703, Alt.=153.974731m. Speed=12.204000m/h.</desc>
<speed>3.390000</speed>
</trkpt>
<trkpt lat="55.708206" lon="26.546703">
<ele>154.021606</ele>
<time>2010-07-18T12:19:28Z</time>
<desc>lat.=55.708206, lon.=26.546703, Alt.=154.021606m. Speed=11.700000m/h.</desc>
<speed>3.250000</speed>
</trkpt>
<trkpt lat="55.708237" lon="26.546709">
<ele>154.017700</ele>
<time>2010-07-18T12:19:29Z</time>
<desc>lat.=55.708237, lon.=26.546709, Alt.=154.017700m. Speed=12.528000m/h.</desc>
<speed>3.480000</speed>
</trkpt>
<trkpt lat="55.708271" lon="26.546717">
<ele>153.998169</ele>
<time>2010-07-18T12:19:30Z</time>
<desc>lat.=55.708271, lon.=26.546717, Alt.=153.998169m. Speed=14.184000m/h.</desc>
<speed>3.940000</speed>
</trkpt>
<trkpt lat="55.708313" lon="26.546719">
<ele>153.787231</ele>
<time>2010-07-18T12:19:31Z</time>
<desc>lat.=55.708313, lon.=26.546719, Alt.=153.787231m. Speed=13.212000m/h.</desc>
<speed>3.670000</speed>
</trkpt>
<trkpt lat="55.708347" lon="26.546715">
<ele>153.681763</ele>
<time>2010-07-18T12:19:32Z</time>
<desc>lat.=55.708347, lon.=26.546715, Alt.=153.681763m. Speed=13.968000m/h.</desc>
<speed>3.880000</speed>
</trkpt>
<trkpt lat="55.708385" lon="26.546721">
<ele>153.498169</ele>
<time>2010-07-18T12:19:33Z</time>
<desc>lat.=55.708385, lon.=26.546721, Alt.=153.498169m. Speed=12.492000m/h.</desc>
<speed>3.470000</speed>
</trkpt>
<trkpt lat="55.708408" lon="26.546726">
<ele>153.619263</ele>
<time>2010-07-18T12:19:34Z</time>
<desc>lat.=55.708408, lon.=26.546726, Alt.=153.619263m. Speed=11.556000m/h.</desc>
<speed>3.210000</speed>
</trkpt>
<trkpt lat="55.708443" lon="26.546732">
<ele>153.853638</ele>
<time>2010-07-18T12:19:35Z</time>
<desc>lat.=55.708443, lon.=26.546732, Alt.=153.853638m. Speed=12.780000m/h.</desc>
<speed>3.550000</speed>
</trkpt>
<trkpt lat="55.708477" lon="26.546734">
<ele>153.916138</ele>
<time>2010-07-18T12:19:36Z</time>
<desc>lat.=55.708477, lon.=26.546734, Alt.=153.916138m. Speed=13.392000m/h.</desc>
<speed>3.720000</speed>
</trkpt>
<trkpt lat="55.708511" lon="26.546732">
<ele>154.005981</ele>
<time>2010-07-18T12:19:37Z</time>
<desc>lat.=55.708511, lon.=26.546732, Alt.=154.005981m. Speed=12.636000m/h.</desc>
<speed>3.510000</speed>
</trkpt>
<trkpt lat="55.708549" lon="26.546738">
<ele>154.072388</ele>
<time>2010-07-18T12:19:38Z</time>
<desc>lat.=55.708549, lon.=26.546738, Alt.=154.072388m. Speed=15.012000m/h.</desc>
<speed>4.170000</speed>
</trkpt>
<trkpt lat="55.708584" lon="26.546738">
<ele>154.533325</ele>
<time>2010-07-18T12:19:39Z</time>
<desc>lat.=55.708584, lon.=26.546738, Alt.=154.533325m. Speed=12.816000m/h.</desc>
<speed>3.560000</speed>
</trkpt>
<trkpt lat="55.708614" lon="26.546745">
<ele>154.638794</ele>
<time>2010-07-18T12:19:40Z</time>
<desc>lat.=55.708614, lon.=26.546745, Alt.=154.638794m. Speed=12.924000m/h.</desc>
<speed>3.590000</speed>
</trkpt>
<trkpt lat="55.708649" lon="26.546751">
<ele>153.963013</ele>
<time>2010-07-18T12:19:41Z</time>
<desc>lat.=55.708649, lon.=26.546751, Alt.=153.963013m. Speed=11.844000m/h.</desc>
<speed>3.290000</speed>
</trkpt>
<trkpt lat="55.708683" lon="26.546753">
<ele>154.099731</ele>
<time>2010-07-18T12:19:42Z</time>
<desc>lat.=55.708683, lon.=26.546753, Alt.=154.099731m. Speed=12.996000m/h.</desc>
<speed>3.610000</speed>
</trkpt>
<trkpt lat="55.708721" lon="26.546755">
<ele>154.033325</ele>
<time>2010-07-18T12:19:43Z</time>
<desc>lat.=55.708721, lon.=26.546755, Alt.=154.033325m. Speed=13.392000m/h.</desc>
<speed>3.720000</speed>
</trkpt>
<trkpt lat="55.708759" lon="26.546759">
<ele>154.045044</ele>
<time>2010-07-18T12:19:44Z</time>
<desc>lat.=55.708759, lon.=26.546759, Alt.=154.045044m. Speed=14.868000m/h.</desc>
<speed>4.130000</speed>
</trkpt>
<trkpt lat="55.708794" lon="26.546764">
<ele>154.041138</ele>
<time>2010-07-18T12:19:45Z</time>
<desc>lat.=55.708794, lon.=26.546764, Alt.=154.041138m. Speed=14.436000m/h.</desc>
<speed>4.010000</speed>
</trkpt>
<trkpt lat="55.708828" lon="26.546774">
<ele>154.154419</ele>
<time>2010-07-18T12:19:46Z</time>
<desc>lat.=55.708828, lon.=26.546774, Alt.=154.154419m. Speed=14.328000m/h.</desc>
<speed>3.980000</speed>
</trkpt>
<trkpt lat="55.708862" lon="26.546780">
<ele>154.162231</ele>
<time>2010-07-18T12:19:47Z</time>
<desc>lat.=55.708862, lon.=26.546780, Alt.=154.162231m. Speed=13.212000m/h.</desc>
<speed>3.670000</speed>
</trkpt>
<trkpt lat="55.708897" lon="26.546789">
<ele>154.170044</ele>
<time>2010-07-18T12:19:48Z</time>
<desc>lat.=55.708897, lon.=26.546789, Alt.=154.170044m. Speed=12.168000m/h.</desc>
<speed>3.380000</speed>
</trkpt>
<trkpt lat="55.708927" lon="26.546804">
<ele>154.213013</ele>
<time>2010-07-18T12:19:49Z</time>
<desc>lat.=55.708927, lon.=26.546804, Alt.=154.213013m. Speed=11.232000m/h.</desc>
<speed>3.120000</speed>
</trkpt>
<trkpt lat="55.708954" lon="26.546818">
<ele>154.162231</ele>
<time>2010-07-18T12:19:50Z</time>
<desc>lat.=55.708954, lon.=26.546818, Alt.=154.162231m. Speed=12.024000m/h.</desc>
<speed>3.340000</speed>
</trkpt>
<trkpt lat="55.708984" lon="26.546829">
<ele>154.080200</ele>
<time>2010-07-18T12:19:51Z</time>
<desc>lat.=55.708984, lon.=26.546829, Alt.=154.080200m. Speed=12.852000m/h.</desc>
<speed>3.570000</speed>
</trkpt>
<trkpt lat="55.709019" lon="26.546841">
<ele>154.068481</ele>
<time>2010-07-18T12:19:52Z</time>
<desc>lat.=55.709019, lon.=26.546841, Alt.=154.068481m. Speed=13.788000m/h.</desc>
<speed>3.830000</speed>
</trkpt>
<trkpt lat="55.709053" lon="26.546850">
<ele>153.912231</ele>
<time>2010-07-18T12:19:53Z</time>
<desc>lat.=55.709053, lon.=26.546850, Alt.=153.912231m. Speed=14.256000m/h.</desc>
<speed>3.960000</speed>
</trkpt>
<trkpt lat="55.709087" lon="26.546860">
<ele>153.892700</ele>
<time>2010-07-18T12:19:54Z</time>
<desc>lat.=55.709087, lon.=26.546860, Alt.=153.892700m. Speed=14.508000m/h.</desc>
<speed>4.030000</speed>
</trkpt>
<trkpt lat="55.709126" lon="26.546865">
<ele>153.810669</ele>
<time>2010-07-18T12:19:55Z</time>
<desc>lat.=55.709126, lon.=26.546865, Alt.=153.810669m. Speed=14.616000m/h.</desc>
<speed>4.060000</speed>
</trkpt>
<trkpt lat="55.709164" lon="26.546873">
<ele>153.779419</ele>
<time>2010-07-18T12:19:56Z</time>
<desc>lat.=55.709164, lon.=26.546873, Alt.=153.779419m. Speed=14.580000m/h.</desc>
<speed>4.050000</speed>
</trkpt>
<trkpt lat="55.709206" lon="26.546877">
<ele>154.240356</ele>
<time>2010-07-18T12:19:57Z</time>
<desc>lat.=55.709206, lon.=26.546877, Alt.=154.240356m. Speed=14.976000m/h.</desc>
<speed>4.160000</speed>
</trkpt>
<trkpt lat="55.709244" lon="26.546886">
<ele>154.240356</ele>
<time>2010-07-18T12:19:58Z</time>
<desc>lat.=55.709244, lon.=26.546886, Alt.=154.240356m. Speed=14.292000m/h.</desc>
<speed>3.970000</speed>
</trkpt>
<trkpt lat="55.709282" lon="26.546892">
<ele>154.259888</ele>
<time>2010-07-18T12:19:59Z</time>
<desc>lat.=55.709282, lon.=26.546892, Alt.=154.259888m. Speed=14.760000m/h.</desc>
<speed>4.100000</speed>
</trkpt>
<trkpt lat="55.709316" lon="26.546888">
<ele>154.459106</ele>
<time>2010-07-18T12:20:00Z</time>
<desc>lat.=55.709316, lon.=26.546888, Alt.=154.459106m. Speed=14.976000m/h.</desc>
<speed>4.160000</speed>
</trkpt>
<trkpt lat="55.709351" lon="26.546886">
<ele>154.052856</ele>
<time>2010-07-18T12:20:01Z</time>
<desc>lat.=55.709351, lon.=26.546886, Alt.=154.052856m. Speed=15.084000m/h.</desc>
<speed>4.190000</speed>
</trkpt>
<trkpt lat="55.709393" lon="26.546888">
<ele>154.099731</ele>
<time>2010-07-18T12:20:02Z</time>
<desc>lat.=55.709393, lon.=26.546888, Alt.=154.099731m. Speed=15.732000m/h.</desc>
<speed>4.370000</speed>
</trkpt>
<trkpt lat="55.709435" lon="26.546896">
<ele>154.177856</ele>
<time>2010-07-18T12:20:03Z</time>
<desc>lat.=55.709435, lon.=26.546896, Alt.=154.177856m. Speed=16.559999m/h.</desc>
<speed>4.600000</speed>
</trkpt>
<trkpt lat="55.709476" lon="26.546907">
<ele>154.302856</ele>
<time>2010-07-18T12:20:04Z</time>
<desc>lat.=55.709476, lon.=26.546907, Alt.=154.302856m. Speed=17.568001m/h.</desc>
<speed>4.880000</speed>
</trkpt>
<trkpt lat="55.709518" lon="26.546917">
<ele>154.431763</ele>
<time>2010-07-18T12:20:05Z</time>
<desc>lat.=55.709518, lon.=26.546917, Alt.=154.431763m. Speed=17.280001m/h.</desc>
<speed>4.800000</speed>
</trkpt>
<trkpt lat="55.709560" lon="26.546928">
<ele>154.463013</ele>
<time>2010-07-18T12:20:06Z</time>
<desc>lat.=55.709560, lon.=26.546928, Alt.=154.463013m. Speed=16.920000m/h.</desc>
<speed>4.700000</speed>
</trkpt>
<trkpt lat="55.709602" lon="26.546938">
<ele>154.545044</ele>
<time>2010-07-18T12:20:07Z</time>
<desc>lat.=55.709602, lon.=26.546938, Alt.=154.545044m. Speed=16.236000m/h.</desc>
<speed>4.510000</speed>
</trkpt>
<trkpt lat="55.709641" lon="26.546949">
<ele>154.607544</ele>
<time>2010-07-18T12:20:08Z</time>
<desc>lat.=55.709641, lon.=26.546949, Alt.=154.607544m. Speed=15.696000m/h.</desc>
<speed>4.360000</speed>
</trkpt>
<trkpt lat="55.709679" lon="26.546961">
<ele>154.689575</ele>
<time>2010-07-18T12:20:09Z</time>
<desc>lat.=55.709679, lon.=26.546961, Alt.=154.689575m. Speed=14.832000m/h.</desc>
<speed>4.120000</speed>
</trkpt>
<trkpt lat="55.709717" lon="26.546972">
<ele>154.806763</ele>
<time>2010-07-18T12:20:10Z</time>
<desc>lat.=55.709717, lon.=26.546972, Alt.=154.806763m. Speed=15.768000m/h.</desc>
<speed>4.380000</speed>
</trkpt>
<trkpt lat="55.709755" lon="26.546986">
<ele>154.650513</ele>
<time>2010-07-18T12:20:11Z</time>
<desc>lat.=55.709755, lon.=26.546986, Alt.=154.650513m. Speed=16.416000m/h.</desc>
<speed>4.560000</speed>
</trkpt>
<trkpt lat="55.709797" lon="26.546999">
<ele>154.611450</ele>
<time>2010-07-18T12:20:12Z</time>
<desc>lat.=55.709797, lon.=26.546999, Alt.=154.611450m. Speed=16.271999m/h.</desc>
<speed>4.520000</speed>
</trkpt>
<trkpt lat="55.709839" lon="26.547016">
<ele>154.509888</ele>
<time>2010-07-18T12:20:13Z</time>
<desc>lat.=55.709839, lon.=26.547016, Alt.=154.509888m. Speed=15.372000m/h.</desc>
<speed>4.270000</speed>
</trkpt>
<trkpt lat="55.709873" lon="26.547024">
<ele>154.658325</ele>
<time>2010-07-18T12:20:14Z</time>
<desc>lat.=55.709873, lon.=26.547024, Alt.=154.658325m. Speed=14.940000m/h.</desc>
<speed>4.150000</speed>
</trkpt>
<trkpt lat="55.709911" lon="26.547035">
<ele>154.658325</ele>
<time>2010-07-18T12:20:15Z</time>
<desc>lat.=55.709911, lon.=26.547035, Alt.=154.658325m. Speed=14.220000m/h.</desc>
<speed>3.950000</speed>
</trkpt>
<trkpt lat="55.709946" lon="26.547043">
<ele>154.810669</ele>
<time>2010-07-18T12:20:16Z</time>
<desc>lat.=55.709946, lon.=26.547043, Alt.=154.810669m. Speed=13.896000m/h.</desc>
<speed>3.860000</speed>
</trkpt>
<trkpt lat="55.709980" lon="26.547058">
<ele>154.865356</ele>
<time>2010-07-18T12:20:17Z</time>
<desc>lat.=55.709980, lon.=26.547058, Alt.=154.865356m. Speed=14.580000m/h.</desc>
<speed>4.050000</speed>
</trkpt>
<trkpt lat="55.710018" lon="26.547077">
<ele>154.904419</ele>
<time>2010-07-18T12:20:18Z</time>
<desc>lat.=55.710018, lon.=26.547077, Alt.=154.904419m. Speed=14.544000m/h.</desc>
<speed>4.040000</speed>
</trkpt>
<trkpt lat="55.710056" lon="26.547091">
<ele>154.927856</ele>
<time>2010-07-18T12:20:19Z</time>
<desc>lat.=55.710056, lon.=26.547091, Alt.=154.927856m. Speed=15.408000m/h.</desc>
<speed>4.280000</speed>
</trkpt>
<trkpt lat="55.710094" lon="26.547102">
<ele>155.056763</ele>
<time>2010-07-18T12:20:20Z</time>
<desc>lat.=55.710094, lon.=26.547102, Alt.=155.056763m. Speed=15.876000m/h.</desc>
<speed>4.410000</speed>
</trkpt>
<trkpt lat="55.710133" lon="26.547113">
<ele>154.998169</ele>
<time>2010-07-18T12:20:21Z</time>
<desc>lat.=55.710133, lon.=26.547113, Alt.=154.998169m. Speed=15.552000m/h.</desc>
<speed>4.320000</speed>
</trkpt>
<trkpt lat="55.710171" lon="26.547127">
<ele>155.037231</ele>
<time>2010-07-18T12:20:22Z</time>
<desc>lat.=55.710171, lon.=26.547127, Alt.=155.037231m. Speed=15.156000m/h.</desc>
<speed>4.210000</speed>
</trkpt>
<trkpt lat="55.710209" lon="26.547146">
<ele>155.068481</ele>
<time>2010-07-18T12:20:23Z</time>
<desc>lat.=55.710209, lon.=26.547146, Alt.=155.068481m. Speed=15.948000m/h.</desc>
<speed>4.430000</speed>
</trkpt>
<trkpt lat="55.710247" lon="26.547161">
<ele>155.224731</ele>
<time>2010-07-18T12:20:24Z</time>
<desc>lat.=55.710247, lon.=26.547161, Alt.=155.224731m. Speed=15.804000m/h.</desc>
<speed>4.390000</speed>
</trkpt>
<trkpt lat="55.710285" lon="26.547176">
<ele>155.244263</ele>
<time>2010-07-18T12:20:25Z</time>
<desc>lat.=55.710285, lon.=26.547176, Alt.=155.244263m. Speed=15.768000m/h.</desc>
<speed>4.380000</speed>
</trkpt>
<trkpt lat="55.710323" lon="26.547190">
<ele>155.603638</ele>
<time>2010-07-18T12:20:26Z</time>
<desc>lat.=55.710323, lon.=26.547190, Alt.=155.603638m. Speed=14.292000m/h.</desc>
<speed>3.970000</speed>
</trkpt>
<trkpt lat="55.710365" lon="26.547199">
<ele>155.830200</ele>
<time>2010-07-18T12:20:27Z</time>
<desc>lat.=55.710365, lon.=26.547199, Alt.=155.830200m. Speed=17.028000m/h.</desc>
<speed>4.730000</speed>
</trkpt>
<trkpt lat="55.710403" lon="26.547213">
<ele>155.920044</ele>
<time>2010-07-18T12:20:28Z</time>
<desc>lat.=55.710403, lon.=26.547213, Alt.=155.920044m. Speed=15.372000m/h.</desc>
<speed>4.270000</speed>
</trkpt>
<trkpt lat="55.710445" lon="26.547228">
<ele>155.931763</ele>
<time>2010-07-18T12:20:29Z</time>
<desc>lat.=55.710445, lon.=26.547228, Alt.=155.931763m. Speed=18.180000m/h.</desc>
<speed>5.050000</speed>
</trkpt>
<trkpt lat="55.710491" lon="26.547241">
<ele>156.037231</ele>
<time>2010-07-18T12:20:30Z</time>
<desc>lat.=55.710491, lon.=26.547241, Alt.=156.037231m. Speed=16.884001m/h.</desc>
<speed>4.690000</speed>
</trkpt>
<trkpt lat="55.710537" lon="26.547249">
<ele>156.111450</ele>
<time>2010-07-18T12:20:31Z</time>
<desc>lat.=55.710537, lon.=26.547249, Alt.=156.111450m. Speed=20.124001m/h.</desc>
<speed>5.590000</speed>
</trkpt>
<trkpt lat="55.710587" lon="26.547264">
<ele>156.185669</ele>
<time>2010-07-18T12:20:32Z</time>
<desc>lat.=55.710587, lon.=26.547264, Alt.=156.185669m. Speed=21.059999m/h.</desc>
<speed>5.850000</speed>
</trkpt>
<trkpt lat="55.710636" lon="26.547279">
<ele>156.236450</ele>
<time>2010-07-18T12:20:33Z</time>
<desc>lat.=55.710636, lon.=26.547279, Alt.=156.236450m. Speed=19.511999m/h.</desc>
<speed>5.420000</speed>
</trkpt>
<trkpt lat="55.710686" lon="26.547295">
<ele>156.302856</ele>
<time>2010-07-18T12:20:34Z</time>
<desc>lat.=55.710686, lon.=26.547295, Alt.=156.302856m. Speed=18.864000m/h.</desc>
<speed>5.240000</speed>
</trkpt>
<trkpt lat="55.710732" lon="26.547310">
<ele>156.275513</ele>
<time>2010-07-18T12:20:35Z</time>
<desc>lat.=55.710732, lon.=26.547310, Alt.=156.275513m. Speed=18.864000m/h.</desc>
<speed>5.240000</speed>
</trkpt>
<trkpt lat="55.710777" lon="26.547327">
<ele>156.373169</ele>
<time>2010-07-18T12:20:36Z</time>
<desc>lat.=55.710777, lon.=26.547327, Alt.=156.373169m. Speed=18.323999m/h.</desc>
<speed>5.090000</speed>
</trkpt>
<trkpt lat="55.710823" lon="26.547344">
<ele>156.388794</ele>
<time>2010-07-18T12:20:37Z</time>
<desc>lat.=55.710823, lon.=26.547344, Alt.=156.388794m. Speed=17.280001m/h.</desc>
<speed>4.800000</speed>
</trkpt>
<trkpt lat="55.710861" lon="26.547358">
<ele>155.615356</ele>
<time>2010-07-18T12:20:38Z</time>
<desc>lat.=55.710861, lon.=26.547358, Alt.=155.615356m. Speed=16.812000m/h.</desc>
<speed>4.670000</speed>
</trkpt>
<trkpt lat="55.710903" lon="26.547371">
<ele>154.822388</ele>
<time>2010-07-18T12:20:39Z</time>
<desc>lat.=55.710903, lon.=26.547371, Alt.=154.822388m. Speed=17.351999m/h.</desc>
<speed>4.820000</speed>
</trkpt>
<trkpt lat="55.710949" lon="26.547386">
<ele>154.002075</ele>
<time>2010-07-18T12:20:40Z</time>
<desc>lat.=55.710949, lon.=26.547386, Alt.=154.002075m. Speed=18.396000m/h.</desc>
<speed>5.110000</speed>
</trkpt>
<trkpt lat="55.710995" lon="26.547400">
<ele>154.064575</ele>
<time>2010-07-18T12:20:41Z</time>
<desc>lat.=55.710995, lon.=26.547400, Alt.=154.064575m. Speed=19.188000m/h.</desc>
<speed>5.330000</speed>
</trkpt>
<trkpt lat="55.711040" lon="26.547415">
<ele>154.166138</ele>
<time>2010-07-18T12:20:42Z</time>
<desc>lat.=55.711040, lon.=26.547415, Alt.=154.166138m. Speed=18.972000m/h.</desc>
<speed>5.270000</speed>
</trkpt>
<trkpt lat="55.711086" lon="26.547426">
<ele>154.107544</ele>
<time>2010-07-18T12:20:43Z</time>
<desc>lat.=55.711086, lon.=26.547426, Alt.=154.107544m. Speed=18.072001m/h.</desc>
<speed>5.020000</speed>
</trkpt>
<trkpt lat="55.711132" lon="26.547441">
<ele>153.248169</ele>
<time>2010-07-18T12:20:44Z</time>
<desc>lat.=55.711132, lon.=26.547441, Alt.=153.248169m. Speed=18.792000m/h.</desc>
<speed>5.220000</speed>
</trkpt>
<trkpt lat="55.711178" lon="26.547459">
<ele>152.798950</ele>
<time>2010-07-18T12:20:45Z</time>
<desc>lat.=55.711178, lon.=26.547459, Alt.=152.798950m. Speed=19.403999m/h.</desc>
<speed>5.390000</speed>
</trkpt>
<trkpt lat="55.711224" lon="26.547472">
<ele>152.802856</ele>
<time>2010-07-18T12:20:46Z</time>
<desc>lat.=55.711224, lon.=26.547472, Alt.=152.802856m. Speed=19.476000m/h.</desc>
<speed>5.410000</speed>
</trkpt>
<trkpt lat="55.711269" lon="26.547485">
<ele>152.888794</ele>
<time>2010-07-18T12:20:47Z</time>
<desc>lat.=55.711269, lon.=26.547485, Alt.=152.888794m. Speed=18.756001m/h.</desc>
<speed>5.210000</speed>
</trkpt>
<trkpt lat="55.711315" lon="26.547499">
<ele>152.986450</ele>
<time>2010-07-18T12:20:48Z</time>
<desc>lat.=55.711315, lon.=26.547499, Alt.=152.986450m. Speed=17.856001m/h.</desc>
<speed>4.960000</speed>
</trkpt>
<trkpt lat="55.711357" lon="26.547512">
<ele>153.037231</ele>
<time>2010-07-18T12:20:49Z</time>
<desc>lat.=55.711357, lon.=26.547512, Alt.=153.037231m. Speed=16.848000m/h.</desc>
<speed>4.680000</speed>
</trkpt>
<trkpt lat="55.711403" lon="26.547523">
<ele>153.095825</ele>
<time>2010-07-18T12:20:50Z</time>
<desc>lat.=55.711403, lon.=26.547523, Alt.=153.095825m. Speed=16.740000m/h.</desc>
<speed>4.650000</speed>
</trkpt>
<trkpt lat="55.711449" lon="26.547535">
<ele>153.068481</ele>
<time>2010-07-18T12:20:51Z</time>
<desc>lat.=55.711449, lon.=26.547535, Alt.=153.068481m. Speed=18.000000m/h.</desc>
<speed>5.000000</speed>
</trkpt>
<trkpt lat="55.711491" lon="26.547552">
<ele>153.119263</ele>
<time>2010-07-18T12:20:52Z</time>
<desc>lat.=55.711491, lon.=26.547552, Alt.=153.119263m. Speed=18.612000m/h.</desc>
<speed>5.170000</speed>
</trkpt>
<trkpt lat="55.711536" lon="26.547564">
<ele>153.127075</ele>
<time>2010-07-18T12:20:53Z</time>
<desc>lat.=55.711536, lon.=26.547564, Alt.=153.127075m. Speed=18.792000m/h.</desc>
<speed>5.220000</speed>
</trkpt>
<trkpt lat="55.711582" lon="26.547575">
<ele>153.150513</ele>
<time>2010-07-18T12:20:54Z</time>
<desc>lat.=55.711582, lon.=26.547575, Alt.=153.150513m. Speed=18.288000m/h.</desc>
<speed>5.080000</speed>
</trkpt>
<trkpt lat="55.711624" lon="26.547581">
<ele>153.111450</ele>
<time>2010-07-18T12:20:55Z</time>
<desc>lat.=55.711624, lon.=26.547581, Alt.=153.111450m. Speed=16.740000m/h.</desc>
<speed>4.650000</speed>
</trkpt>
<trkpt lat="55.711666" lon="26.547590">
<ele>153.029419</ele>
<time>2010-07-18T12:20:56Z</time>
<desc>lat.=55.711666, lon.=26.547590, Alt.=153.029419m. Speed=16.416000m/h.</desc>
<speed>4.560000</speed>
</trkpt>
<trkpt lat="55.711704" lon="26.547602">
<ele>152.978638</ele>
<time>2010-07-18T12:20:57Z</time>
<desc>lat.=55.711704, lon.=26.547602, Alt.=152.978638m. Speed=15.588000m/h.</desc>
<speed>4.330000</speed>
</trkpt>
<trkpt lat="55.711742" lon="26.547607">
<ele>153.048950</ele>
<time>2010-07-18T12:20:58Z</time>
<desc>lat.=55.711742, lon.=26.547607, Alt.=153.048950m. Speed=15.660000m/h.</desc>
<speed>4.350000</speed>
</trkpt>
<trkpt lat="55.711781" lon="26.547606">
<ele>153.127075</ele>
<time>2010-07-18T12:20:59Z</time>
<desc>lat.=55.711781, lon.=26.547606, Alt.=153.127075m. Speed=13.464000m/h.</desc>
<speed>3.740000</speed>
</trkpt>
<trkpt lat="55.711815" lon="26.547607">
<ele>153.029419</ele>
<time>2010-07-18T12:21:00Z</time>
<desc>lat.=55.711815, lon.=26.547607, Alt.=153.029419m. Speed=12.852000m/h.</desc>
<speed>3.570000</speed>
</trkpt>
<trkpt lat="55.711853" lon="26.547615">
<ele>152.943481</ele>
<time>2010-07-18T12:21:01Z</time>
<desc>lat.=55.711853, lon.=26.547615, Alt.=152.943481m. Speed=13.176000m/h.</desc>
<speed>3.660000</speed>
</trkpt>
<trkpt lat="55.711884" lon="26.547630">
<ele>152.951294</ele>
<time>2010-07-18T12:21:02Z</time>
<desc>lat.=55.711884, lon.=26.547630, Alt.=152.951294m. Speed=12.672000m/h.</desc>
<speed>3.520000</speed>
</trkpt>
<trkpt lat="55.711906" lon="26.547651">
<ele>153.076294</ele>
<time>2010-07-18T12:21:03Z</time>
<desc>lat.=55.711906, lon.=26.547651, Alt.=153.076294m. Speed=10.116000m/h.</desc>
<speed>2.810000</speed>
</trkpt>
<trkpt lat="55.711937" lon="26.547668">
<ele>153.119263</ele>
<time>2010-07-18T12:21:04Z</time>
<desc>lat.=55.711937, lon.=26.547668, Alt.=153.119263m. Speed=12.636000m/h.</desc>
<speed>3.510000</speed>
</trkpt>
<trkpt lat="55.711971" lon="26.547682">
<ele>153.013794</ele>
<time>2010-07-18T12:21:05Z</time>
<desc>lat.=55.711971, lon.=26.547682, Alt.=153.013794m. Speed=14.688000m/h.</desc>
<speed>4.080000</speed>
</trkpt>
<trkpt lat="55.712017" lon="26.547693">
<ele>152.951294</ele>
<time>2010-07-18T12:21:06Z</time>
<desc>lat.=55.712017, lon.=26.547693, Alt.=152.951294m. Speed=16.920000m/h.</desc>
<speed>4.700000</speed>
</trkpt>
<trkpt lat="55.712059" lon="26.547707">
<ele>153.002075</ele>
<time>2010-07-18T12:21:07Z</time>
<desc>lat.=55.712059, lon.=26.547707, Alt.=153.002075m. Speed=16.128000m/h.</desc>
<speed>4.480000</speed>
</trkpt>
<trkpt lat="55.712097" lon="26.547712">
<ele>153.021606</ele>
<time>2010-07-18T12:21:08Z</time>
<desc>lat.=55.712097, lon.=26.547712, Alt.=153.021606m. Speed=16.632000m/h.</desc>
<speed>4.620000</speed>
</trkpt>
<trkpt lat="55.712135" lon="26.547718">
<ele>153.103638</ele>
<time>2010-07-18T12:21:09Z</time>
<desc>lat.=55.712135, lon.=26.547718, Alt.=153.103638m. Speed=15.552000m/h.</desc>
<speed>4.320000</speed>
</trkpt>
<trkpt lat="55.712173" lon="26.547731">
<ele>153.181763</ele>
<time>2010-07-18T12:21:10Z</time>
<desc>lat.=55.712173, lon.=26.547731, Alt.=153.181763m. Speed=15.084000m/h.</desc>
<speed>4.190000</speed>
</trkpt>
<trkpt lat="55.712208" lon="26.547741">
<ele>153.255981</ele>
<time>2010-07-18T12:21:11Z</time>
<desc>lat.=55.712208, lon.=26.547741, Alt.=153.255981m. Speed=14.796000m/h.</desc>
<speed>4.110000</speed>
</trkpt>
<trkpt lat="55.712246" lon="26.547747">
<ele>153.236450</ele>
<time>2010-07-18T12:21:12Z</time>
<desc>lat.=55.712246, lon.=26.547747, Alt.=153.236450m. Speed=15.480000m/h.</desc>
<speed>4.300000</speed>
</trkpt>
<trkpt lat="55.712284" lon="26.547747">
<ele>153.275513</ele>
<time>2010-07-18T12:21:13Z</time>
<desc>lat.=55.712284, lon.=26.547747, Alt.=153.275513m. Speed=16.056000m/h.</desc>
<speed>4.460000</speed>
</trkpt>
<trkpt lat="55.712326" lon="26.547752">
<ele>153.271606</ele>
<time>2010-07-18T12:21:14Z</time>
<desc>lat.=55.712326, lon.=26.547752, Alt.=153.271606m. Speed=17.208000m/h.</desc>
<speed>4.780000</speed>
</trkpt>
<trkpt lat="55.712372" lon="26.547762">
<ele>153.310669</ele>
<time>2010-07-18T12:21:15Z</time>
<desc>lat.=55.712372, lon.=26.547762, Alt.=153.310669m. Speed=18.035999m/h.</desc>
<speed>5.010000</speed>
</trkpt>
<trkpt lat="55.712418" lon="26.547775">
<ele>153.353638</ele>
<time>2010-07-18T12:21:16Z</time>
<desc>lat.=55.712418, lon.=26.547775, Alt.=153.353638m. Speed=17.964001m/h.</desc>
<speed>4.990000</speed>
</trkpt>
<trkpt lat="55.712463" lon="26.547787">
<ele>153.384888</ele>
<time>2010-07-18T12:21:17Z</time>
<desc>lat.=55.712463, lon.=26.547787, Alt.=153.384888m. Speed=17.351999m/h.</desc>
<speed>4.820000</speed>
</trkpt>
<trkpt lat="55.712505" lon="26.547800">
<ele>153.431763</ele>
<time>2010-07-18T12:21:18Z</time>
<desc>lat.=55.712505, lon.=26.547800, Alt.=153.431763m. Speed=16.955999m/h.</desc>
<speed>4.710000</speed>
</trkpt>
<trkpt lat="55.712551" lon="26.547812">
<ele>153.404419</ele>
<time>2010-07-18T12:21:19Z</time>
<desc>lat.=55.712551, lon.=26.547812, Alt.=153.404419m. Speed=16.884001m/h.</desc>
<speed>4.690000</speed>
</trkpt>
<trkpt lat="55.712593" lon="26.547827">
<ele>153.310669</ele>
<time>2010-07-18T12:21:20Z</time>
<desc>lat.=55.712593, lon.=26.547827, Alt.=153.310669m. Speed=17.496000m/h.</desc>
<speed>4.860000</speed>
</trkpt>
<trkpt lat="55.712635" lon="26.547846">
<ele>153.103638</ele>
<time>2010-07-18T12:21:21Z</time>
<desc>lat.=55.712635, lon.=26.547846, Alt.=153.103638m. Speed=18.252001m/h.</desc>
<speed>5.070000</speed>
</trkpt>
<trkpt lat="55.712681" lon="26.547861">
<ele>152.982544</ele>
<time>2010-07-18T12:21:22Z</time>
<desc>lat.=55.712681, lon.=26.547861, Alt.=152.982544m. Speed=17.316000m/h.</desc>
<speed>4.810000</speed>
</trkpt>
<trkpt lat="55.712727" lon="26.547878">
<ele>152.904419</ele>
<time>2010-07-18T12:21:23Z</time>
<desc>lat.=55.712727, lon.=26.547878, Alt.=152.904419m. Speed=19.296000m/h.</desc>
<speed>5.360000</speed>
</trkpt>
<trkpt lat="55.712776" lon="26.547894">
<ele>152.798950</ele>
<time>2010-07-18T12:21:24Z</time>
<desc>lat.=55.712776, lon.=26.547894, Alt.=152.798950m. Speed=18.143999m/h.</desc>
<speed>5.040000</speed>
</trkpt>
<trkpt lat="55.712818" lon="26.547909">
<ele>152.771606</ele>
<time>2010-07-18T12:21:25Z</time>
<desc>lat.=55.712818, lon.=26.547909, Alt.=152.771606m. Speed=17.747999m/h.</desc>
<speed>4.930000</speed>
</trkpt>
<trkpt lat="55.712864" lon="26.547920">
<ele>152.826294</ele>
<time>2010-07-18T12:21:26Z</time>
<desc>lat.=55.712864, lon.=26.547920, Alt.=152.826294m. Speed=17.676001m/h.</desc>
<speed>4.910000</speed>
</trkpt>
<trkpt lat="55.712906" lon="26.547930">
<ele>152.923950</ele>
<time>2010-07-18T12:21:27Z</time>
<desc>lat.=55.712906, lon.=26.547930, Alt.=152.923950m. Speed=17.243999m/h.</desc>
<speed>4.790000</speed>
</trkpt>
<trkpt lat="55.712948" lon="26.547943">
<ele>152.974731</ele>
<time>2010-07-18T12:21:28Z</time>
<desc>lat.=55.712948, lon.=26.547943, Alt.=152.974731m. Speed=17.712000m/h.</desc>
<speed>4.920000</speed>
</trkpt>
<trkpt lat="55.712994" lon="26.547958">
<ele>152.838013</ele>
<time>2010-07-18T12:21:29Z</time>
<desc>lat.=55.712994, lon.=26.547958, Alt.=152.838013m. Speed=16.452000m/h.</desc>
<speed>4.570000</speed>
</trkpt>
<trkpt lat="55.713036" lon="26.547981">
<ele>152.740356</ele>
<time>2010-07-18T12:21:30Z</time>
<desc>lat.=55.713036, lon.=26.547981, Alt.=152.740356m. Speed=16.344000m/h.</desc>
<speed>4.540000</speed>
</trkpt>
<trkpt lat="55.713074" lon="26.548004">
<ele>152.490356</ele>
<time>2010-07-18T12:21:31Z</time>
<desc>lat.=55.713074, lon.=26.548004, Alt.=152.490356m. Speed=16.775999m/h.</desc>
<speed>4.660000</speed>
</trkpt>
<trkpt lat="55.713112" lon="26.548025">
<ele>152.338013</ele>
<time>2010-07-18T12:21:32Z</time>
<desc>lat.=55.713112, lon.=26.548025, Alt.=152.338013m. Speed=15.516000m/h.</desc>
<speed>4.310000</speed>
</trkpt>
<trkpt lat="55.713146" lon="26.548040">
<ele>152.259888</ele>
<time>2010-07-18T12:21:33Z</time>
<desc>lat.=55.713146, lon.=26.548040, Alt.=152.259888m. Speed=14.760000m/h.</desc>
<speed>4.100000</speed>
</trkpt>
<trkpt lat="55.713184" lon="26.548054">
<ele>152.228638</ele>
<time>2010-07-18T12:21:34Z</time>
<desc>lat.=55.713184, lon.=26.548054, Alt.=152.228638m. Speed=14.400000m/h.</desc>
<speed>4.000000</speed>
</trkpt>
<trkpt lat="55.713223" lon="26.548065">
<ele>152.255981</ele>
<time>2010-07-18T12:21:35Z</time>
<desc>lat.=55.713223, lon.=26.548065, Alt.=152.255981m. Speed=17.136000m/h.</desc>
<speed>4.760000</speed>
</trkpt>
<trkpt lat="55.713268" lon="26.548077">
<ele>152.084106</ele>
<time>2010-07-18T12:21:36Z</time>
<desc>lat.=55.713268, lon.=26.548077, Alt.=152.084106m. Speed=18.216000m/h.</desc>
<speed>5.060000</speed>
</trkpt>
<trkpt lat="55.713314" lon="26.548088">
<ele>151.935669</ele>
<time>2010-07-18T12:21:37Z</time>
<desc>lat.=55.713314, lon.=26.548088, Alt.=151.935669m. Speed=18.360001m/h.</desc>
<speed>5.100000</speed>
</trkpt>
<trkpt lat="55.713360" lon="26.548101">
<ele>151.830200</ele>
<time>2010-07-18T12:21:38Z</time>
<desc>lat.=55.713360, lon.=26.548101, Alt.=151.830200m. Speed=18.108000m/h.</desc>
<speed>5.030000</speed>
</trkpt>
<trkpt lat="55.713406" lon="26.548115">
<ele>151.666138</ele>
<time>2010-07-18T12:21:39Z</time>
<desc>lat.=55.713406, lon.=26.548115, Alt.=151.666138m. Speed=17.568001m/h.</desc>
<speed>4.880000</speed>
</trkpt>
<trkpt lat="55.713448" lon="26.548128">
<ele>151.673950</ele>
<time>2010-07-18T12:21:40Z</time>
<desc>lat.=55.713448, lon.=26.548128, Alt.=151.673950m. Speed=16.884001m/h.</desc>
<speed>4.690000</speed>
</trkpt>
<trkpt lat="55.713493" lon="26.548140">
<ele>151.603638</ele>
<time>2010-07-18T12:21:41Z</time>
<desc>lat.=55.713493, lon.=26.548140, Alt.=151.603638m. Speed=17.676001m/h.</desc>
<speed>4.910000</speed>
</trkpt>
<trkpt lat="55.713543" lon="26.548151">
<ele>151.525513</ele>
<time>2010-07-18T12:21:42Z</time>
<desc>lat.=55.713543, lon.=26.548151, Alt.=151.525513m. Speed=18.252001m/h.</desc>
<speed>5.070000</speed>
</trkpt>
<trkpt lat="55.713585" lon="26.548164">
<ele>151.482544</ele>
<time>2010-07-18T12:21:43Z</time>
<desc>lat.=55.713585, lon.=26.548164, Alt.=151.482544m. Speed=16.740000m/h.</desc>
<speed>4.650000</speed>
</trkpt>
<trkpt lat="55.713634" lon="26.548178">
<ele>151.314575</ele>
<time>2010-07-18T12:21:44Z</time>
<desc>lat.=55.713634, lon.=26.548178, Alt.=151.314575m. Speed=18.143999m/h.</desc>
<speed>5.040000</speed>
</trkpt>
<trkpt lat="55.713680" lon="26.548189">
<ele>151.060669</ele>
<time>2010-07-18T12:21:45Z</time>
<desc>lat.=55.713680, lon.=26.548189, Alt.=151.060669m. Speed=18.288000m/h.</desc>
<speed>5.080000</speed>
</trkpt>
<trkpt lat="55.713730" lon="26.548206">
<ele>151.263794</ele>
<time>2010-07-18T12:21:46Z</time>
<desc>lat.=55.713730, lon.=26.548206, Alt.=151.263794m. Speed=18.323999m/h.</desc>
<speed>5.090000</speed>
</trkpt>
<trkpt lat="55.713779" lon="26.548220">
<ele>150.529419</ele>
<time>2010-07-18T12:21:47Z</time>
<desc>lat.=55.713779, lon.=26.548220, Alt.=150.529419m. Speed=17.172001m/h.</desc>
<speed>4.770000</speed>
</trkpt>
<trkpt lat="55.713821" lon="26.548233">
<ele>150.166138</ele>
<time>2010-07-18T12:21:48Z</time>
<desc>lat.=55.713821, lon.=26.548233, Alt.=150.166138m. Speed=16.775999m/h.</desc>
<speed>4.660000</speed>
</trkpt>
<trkpt lat="55.713867" lon="26.548244">
<ele>150.041138</ele>
<time>2010-07-18T12:21:49Z</time>
<desc>lat.=55.713867, lon.=26.548244, Alt.=150.041138m. Speed=17.243999m/h.</desc>
<speed>4.790000</speed>
</trkpt>
<trkpt lat="55.713913" lon="26.548260">
<ele>149.994263</ele>
<time>2010-07-18T12:21:50Z</time>
<desc>lat.=55.713913, lon.=26.548260, Alt.=149.994263m. Speed=17.172001m/h.</desc>
<speed>4.770000</speed>
</trkpt>
<trkpt lat="55.713955" lon="26.548271">
<ele>149.853638</ele>
<time>2010-07-18T12:21:51Z</time>
<desc>lat.=55.713955, lon.=26.548271, Alt.=149.853638m. Speed=16.740000m/h.</desc>
<speed>4.650000</speed>
</trkpt>
<trkpt lat="55.713997" lon="26.548285">
<ele>149.818481</ele>
<time>2010-07-18T12:21:52Z</time>
<desc>lat.=55.713997, lon.=26.548285, Alt.=149.818481m. Speed=16.667999m/h.</desc>
<speed>4.630000</speed>
</trkpt>
<trkpt lat="55.714039" lon="26.548298">
<ele>149.685669</ele>
<time>2010-07-18T12:21:53Z</time>
<desc>lat.=55.714039, lon.=26.548298, Alt.=149.685669m. Speed=16.271999m/h.</desc>
<speed>4.520000</speed>
</trkpt>
<trkpt lat="55.714081" lon="26.548313">
<ele>149.455200</ele>
<time>2010-07-18T12:21:54Z</time>
<desc>lat.=55.714081, lon.=26.548313, Alt.=149.455200m. Speed=16.344000m/h.</desc>
<speed>4.540000</speed>
</trkpt>
<trkpt lat="55.714119" lon="26.548325">
<ele>149.408325</ele>
<time>2010-07-18T12:21:55Z</time>
<desc>lat.=55.714119, lon.=26.548325, Alt.=149.408325m. Speed=15.660000m/h.</desc>
<speed>4.350000</speed>
</trkpt>
<trkpt lat="55.714153" lon="26.548332">
<ele>149.326294</ele>
<time>2010-07-18T12:21:56Z</time>
<desc>lat.=55.714153, lon.=26.548332, Alt.=149.326294m. Speed=15.516000m/h.</desc>
<speed>4.310000</speed>
</trkpt>
<trkpt lat="55.714188" lon="26.548326">
<ele>149.619263</ele>
<time>2010-07-18T12:21:57Z</time>
<desc>lat.=55.714188, lon.=26.548326, Alt.=149.619263m. Speed=13.356000m/h.</desc>
<speed>3.710000</speed>
</trkpt>
<trkpt lat="55.714218" lon="26.548317">
<ele>149.607544</ele>
<time>2010-07-18T12:21:58Z</time>
<desc>lat.=55.714218, lon.=26.548317, Alt.=149.607544m. Speed=14.328000m/h.</desc>
<speed>3.980000</speed>
</trkpt>
<trkpt lat="55.714256" lon="26.548317">
<ele>149.654419</ele>
<time>2010-07-18T12:21:59Z</time>
<desc>lat.=55.714256, lon.=26.548317, Alt.=149.654419m. Speed=14.940000m/h.</desc>
<speed>4.150000</speed>
</trkpt>
<trkpt lat="55.714294" lon="26.548325">
<ele>149.545044</ele>
<time>2010-07-18T12:22:00Z</time>
<desc>lat.=55.714294, lon.=26.548325, Alt.=149.545044m. Speed=16.632000m/h.</desc>
<speed>4.620000</speed>
</trkpt>
<trkpt lat="55.714336" lon="26.548334">
<ele>149.552856</ele>
<time>2010-07-18T12:22:01Z</time>
<desc>lat.=55.714336, lon.=26.548334, Alt.=149.552856m. Speed=17.351999m/h.</desc>
<speed>4.820000</speed>
</trkpt>
<trkpt lat="55.714382" lon="26.548344">
<ele>149.572388</ele>
<time>2010-07-18T12:22:02Z</time>
<desc>lat.=55.714382, lon.=26.548344, Alt.=149.572388m. Speed=18.468000m/h.</desc>
<speed>5.130000</speed>
</trkpt>
<trkpt lat="55.714428" lon="26.548355">
<ele>149.693481</ele>
<time>2010-07-18T12:22:03Z</time>
<desc>lat.=55.714428, lon.=26.548355, Alt.=149.693481m. Speed=17.532000m/h.</desc>
<speed>4.870000</speed>
</trkpt>
<trkpt lat="55.714470" lon="26.548368">
<ele>149.740356</ele>
<time>2010-07-18T12:22:04Z</time>
<desc>lat.=55.714470, lon.=26.548368, Alt.=149.740356m. Speed=17.316000m/h.</desc>
<speed>4.810000</speed>
</trkpt>
<trkpt lat="55.714512" lon="26.548380">
<ele>149.740356</ele>
<time>2010-07-18T12:22:05Z</time>
<desc>lat.=55.714512, lon.=26.548380, Alt.=149.740356m. Speed=16.992001m/h.</desc>
<speed>4.720000</speed>
</trkpt>
<trkpt lat="55.714554" lon="26.548395">
<ele>149.806763</ele>
<time>2010-07-18T12:22:06Z</time>
<desc>lat.=55.714554, lon.=26.548395, Alt.=149.806763m. Speed=16.775999m/h.</desc>
<speed>4.660000</speed>
</trkpt>
<trkpt lat="55.714596" lon="26.548409">
<ele>149.798950</ele>
<time>2010-07-18T12:22:07Z</time>
<desc>lat.=55.714596, lon.=26.548409, Alt.=149.798950m. Speed=16.200001m/h.</desc>
<speed>4.500000</speed>
</trkpt>
<trkpt lat="55.714634" lon="26.548418">
<ele>149.826294</ele>
<time>2010-07-18T12:22:08Z</time>
<desc>lat.=55.714634, lon.=26.548418, Alt.=149.826294m. Speed=15.948000m/h.</desc>
<speed>4.430000</speed>
</trkpt>
<trkpt lat="55.714676" lon="26.548429">
<ele>149.806763</ele>
<time>2010-07-18T12:22:09Z</time>
<desc>lat.=55.714676, lon.=26.548429, Alt.=149.806763m. Speed=15.876000m/h.</desc>
<speed>4.410000</speed>
</trkpt>
<trkpt lat="55.714710" lon="26.548439">
<ele>149.720825</ele>
<time>2010-07-18T12:22:10Z</time>
<desc>lat.=55.714710, lon.=26.548439, Alt.=149.720825m. Speed=14.112000m/h.</desc>
<speed>3.920000</speed>
</trkpt>
<trkpt lat="55.714748" lon="26.548450">
<ele>149.767700</ele>
<time>2010-07-18T12:22:11Z</time>
<desc>lat.=55.714748, lon.=26.548450, Alt.=149.767700m. Speed=17.243999m/h.</desc>
<speed>4.790000</speed>
</trkpt>
<trkpt lat="55.714790" lon="26.548454">
<ele>149.888794</ele>
<time>2010-07-18T12:22:12Z</time>
<desc>lat.=55.714790, lon.=26.548454, Alt.=149.888794m. Speed=18.468000m/h.</desc>
<speed>5.130000</speed>
</trkpt>
<trkpt lat="55.714836" lon="26.548464">
<ele>149.873169</ele>
<time>2010-07-18T12:22:13Z</time>
<desc>lat.=55.714836, lon.=26.548464, Alt.=149.873169m. Speed=18.252001m/h.</desc>
<speed>5.070000</speed>
</trkpt>
<trkpt lat="55.714878" lon="26.548477">
<ele>149.931763</ele>
<time>2010-07-18T12:22:14Z</time>
<desc>lat.=55.714878, lon.=26.548477, Alt.=149.931763m. Speed=16.596001m/h.</desc>
<speed>4.610000</speed>
</trkpt>
<trkpt lat="55.714920" lon="26.548494">
<ele>150.052856</ele>
<time>2010-07-18T12:22:15Z</time>
<desc>lat.=55.714920, lon.=26.548494, Alt.=150.052856m. Speed=16.452000m/h.</desc>
<speed>4.570000</speed>
</trkpt>
<trkpt lat="55.714962" lon="26.548510">
<ele>150.080200</ele>
<time>2010-07-18T12:22:16Z</time>
<desc>lat.=55.714962, lon.=26.548510, Alt.=150.080200m. Speed=18.360001m/h.</desc>
<speed>5.100000</speed>
</trkpt>
<trkpt lat="55.715004" lon="26.548519">
<ele>150.091919</ele>
<time>2010-07-18T12:22:17Z</time>
<desc>lat.=55.715004, lon.=26.548519, Alt.=150.091919m. Speed=17.172001m/h.</desc>
<speed>4.770000</speed>
</trkpt>
<trkpt lat="55.715046" lon="26.548534">
<ele>150.275513</ele>
<time>2010-07-18T12:22:18Z</time>
<desc>lat.=55.715046, lon.=26.548534, Alt.=150.275513m. Speed=17.172001m/h.</desc>
<speed>4.770000</speed>
</trkpt>
<trkpt lat="55.715088" lon="26.548548">
<ele>150.236450</ele>
<time>2010-07-18T12:22:19Z</time>
<desc>lat.=55.715088, lon.=26.548548, Alt.=150.236450m. Speed=17.100000m/h.</desc>
<speed>4.750000</speed>
</trkpt>
<trkpt lat="55.715126" lon="26.548555">
<ele>150.623169</ele>
<time>2010-07-18T12:22:20Z</time>
<desc>lat.=55.715126, lon.=26.548555, Alt.=150.623169m. Speed=16.416000m/h.</desc>
<speed>4.560000</speed>
</trkpt>
<trkpt lat="55.715164" lon="26.548565">
<ele>149.373169</ele>
<time>2010-07-18T12:22:21Z</time>
<desc>lat.=55.715164, lon.=26.548565, Alt.=149.373169m. Speed=16.416000m/h.</desc>
<speed>4.560000</speed>
</trkpt>
<trkpt lat="55.715202" lon="26.548573">
<ele>149.318481</ele>
<time>2010-07-18T12:22:22Z</time>
<desc>lat.=55.715202, lon.=26.548573, Alt.=149.318481m. Speed=16.775999m/h.</desc>
<speed>4.660000</speed>
</trkpt>
<trkpt lat="55.715244" lon="26.548584">
<ele>149.154419</ele>
<time>2010-07-18T12:22:23Z</time>
<desc>lat.=55.715244, lon.=26.548584, Alt.=149.154419m. Speed=16.632000m/h.</desc>
<speed>4.620000</speed>
</trkpt>
<trkpt lat="55.715279" lon="26.548597">
<ele>149.123169</ele>
<time>2010-07-18T12:22:24Z</time>
<desc>lat.=55.715279, lon.=26.548597, Alt.=149.123169m. Speed=15.660000m/h.</desc>
<speed>4.350000</speed>
</trkpt>
<trkpt lat="55.715313" lon="26.548611">
<ele>148.759888</ele>
<time>2010-07-18T12:22:25Z</time>
<desc>lat.=55.715313, lon.=26.548611, Alt.=148.759888m. Speed=16.344000m/h.</desc>
<speed>4.540000</speed>
</trkpt>
<trkpt lat="55.715351" lon="26.548616">
<ele>148.740356</ele>
<time>2010-07-18T12:22:26Z</time>
<desc>lat.=55.715351, lon.=26.548616, Alt.=148.740356m. Speed=15.984000m/h.</desc>
<speed>4.440000</speed>
</trkpt>
<trkpt lat="55.715389" lon="26.548624">
<ele>148.900513</ele>
<time>2010-07-18T12:22:27Z</time>
<desc>lat.=55.715389, lon.=26.548624, Alt.=148.900513m. Speed=14.472000m/h.</desc>
<speed>4.020000</speed>
</trkpt>
<trkpt lat="55.715424" lon="26.548637">
<ele>148.505981</ele>
<time>2010-07-18T12:22:28Z</time>
<desc>lat.=55.715424, lon.=26.548637, Alt.=148.505981m. Speed=16.128000m/h.</desc>
<speed>4.480000</speed>
</trkpt>
<trkpt lat="55.715462" lon="26.548647">
<ele>148.091919</ele>
<time>2010-07-18T12:22:29Z</time>
<desc>lat.=55.715462, lon.=26.548647, Alt.=148.091919m. Speed=15.876000m/h.</desc>
<speed>4.410000</speed>
</trkpt>
<trkpt lat="55.715500" lon="26.548656">
<ele>148.107544</ele>
<time>2010-07-18T12:22:30Z</time>
<desc>lat.=55.715500, lon.=26.548656, Alt.=148.107544m. Speed=15.840000m/h.</desc>
<speed>4.400000</speed>
</trkpt>
<trkpt lat="55.715538" lon="26.548672">
<ele>148.017700</ele>
<time>2010-07-18T12:22:31Z</time>
<desc>lat.=55.715538, lon.=26.548672, Alt.=148.017700m. Speed=16.704000m/h.</desc>
<speed>4.640000</speed>
</trkpt>
<trkpt lat="55.715584" lon="26.548689">
<ele>147.923950</ele>
<time>2010-07-18T12:22:32Z</time>
<desc>lat.=55.715584, lon.=26.548689, Alt.=147.923950m. Speed=16.740000m/h.</desc>
<speed>4.650000</speed>
</trkpt>
<trkpt lat="55.715626" lon="26.548704">
<ele>147.955200</ele>
<time>2010-07-18T12:22:33Z</time>
<desc>lat.=55.715626, lon.=26.548704, Alt.=147.955200m. Speed=17.172001m/h.</desc>
<speed>4.770000</speed>
</trkpt>
<trkpt lat="55.715672" lon="26.548723">
<ele>147.916138</ele>
<time>2010-07-18T12:22:34Z</time>
<desc>lat.=55.715672, lon.=26.548723, Alt.=147.916138m. Speed=16.812000m/h.</desc>
<speed>4.670000</speed>
</trkpt>
<trkpt lat="55.715714" lon="26.548748">
<ele>147.935669</ele>
<time>2010-07-18T12:22:35Z</time>
<desc>lat.=55.715714, lon.=26.548748, Alt.=147.935669m. Speed=17.712000m/h.</desc>
<speed>4.920000</speed>
</trkpt>
<trkpt lat="55.715759" lon="26.548767">
<ele>148.068481</ele>
<time>2010-07-18T12:22:36Z</time>
<desc>lat.=55.715759, lon.=26.548767, Alt.=148.068481m. Speed=16.775999m/h.</desc>
<speed>4.660000</speed>
</trkpt>
<trkpt lat="55.715790" lon="26.548779">
<ele>148.080200</ele>
<time>2010-07-18T12:22:37Z</time>
<desc>lat.=55.715790, lon.=26.548779, Alt.=148.080200m. Speed=9.684000m/h.</desc>
<speed>2.690000</speed>
</trkpt>
<trkpt lat="55.715797" lon="26.548782">
<ele>147.880981</ele>
<time>2010-07-18T12:22:38Z</time>
<desc>lat.=55.715797, lon.=26.548782, Alt.=147.880981m. Speed=1.512000m/h.</desc>
<speed>0.420000</speed>
</trkpt>
<trkpt lat="55.715801" lon="26.548779">
<ele>147.763794</ele>
<time>2010-07-18T12:22:39Z</time>
<desc>lat.=55.715801, lon.=26.548779, Alt.=147.763794m. Speed=1.296000m/h.</desc>
<speed>0.360000</speed>
</trkpt>
<trkpt lat="55.715805" lon="26.548779">
<ele>147.658325</ele>
<time>2010-07-18T12:22:40Z</time>
<desc>lat.=55.715805, lon.=26.548779, Alt.=147.658325m. Speed=0.900000m/h.</desc>
<speed>0.250000</speed>
</trkpt>
<trkpt lat="55.715805" lon="26.548775">
<ele>147.638794</ele>
<time>2010-07-18T12:22:41Z</time>
<desc>lat.=55.715805, lon.=26.548775, Alt.=147.638794m. Speed=0.612000m/h.</desc>
<speed>0.170000</speed>
</trkpt>
<trkpt lat="55.715809" lon="26.548773">
<ele>147.556763</ele>
<time>2010-07-18T12:22:42Z</time>
<desc>lat.=55.715809, lon.=26.548773, Alt.=147.556763m. Speed=0.216000m/h.</desc>
<speed>0.060000</speed>
</trkpt>
<trkpt lat="55.715809" lon="26.548773">
<ele>147.494263</ele>
<time>2010-07-18T12:22:43Z</time>
<desc>lat.=55.715809, lon.=26.548773, Alt.=147.494263m. Speed=0.900000m/h.</desc>
<speed>0.250000</speed>
</trkpt>
<trkpt lat="55.715813" lon="26.548775">
<ele>147.439575</ele>
<time>2010-07-18T12:22:44Z</time>
<desc>lat.=55.715813, lon.=26.548775, Alt.=147.439575m. Speed=1.692000m/h.</desc>
<speed>0.470000</speed>
</trkpt>
<trkpt lat="55.715816" lon="26.548777">
<ele>147.400513</ele>
<time>2010-07-18T12:22:45Z</time>
<desc>lat.=55.715816, lon.=26.548777, Alt.=147.400513m. Speed=3.132000m/h.</desc>
<speed>0.870000</speed>
</trkpt>
<trkpt lat="55.715824" lon="26.548777">
<ele>147.357544</ele>
<time>2010-07-18T12:22:46Z</time>
<desc>lat.=55.715824, lon.=26.548777, Alt.=147.357544m. Speed=4.608000m/h.</desc>
<speed>1.280000</speed>
</trkpt>
<trkpt lat="55.715843" lon="26.548779">
<ele>147.400513</ele>
<time>2010-07-18T12:22:47Z</time>
<desc>lat.=55.715843, lon.=26.548779, Alt.=147.400513m. Speed=7.128000m/h.</desc>
<speed>1.980000</speed>
</trkpt>
<trkpt lat="55.715862" lon="26.548782">
<ele>147.478638</ele>
<time>2010-07-18T12:22:48Z</time>
<desc>lat.=55.715862, lon.=26.548782, Alt.=147.478638m. Speed=4.176000m/h.</desc>
<speed>1.160000</speed>
</trkpt>
<trkpt lat="55.715870" lon="26.548786">
<ele>147.533325</ele>
<time>2010-07-18T12:22:49Z</time>
<desc>lat.=55.715870, lon.=26.548786, Alt.=147.533325m. Speed=0.468000m/h.</desc>
<speed>0.130000</speed>
</trkpt>
<trkpt lat="55.715870" lon="26.548784">
<ele>147.545044</ele>
<time>2010-07-18T12:22:50Z</time>
<desc>lat.=55.715870, lon.=26.548784, Alt.=147.545044m. Speed=0.540000m/h.</desc>
<speed>0.150000</speed>
</trkpt>
<trkpt lat="55.715866" lon="26.548782">
<ele>147.584106</ele>
<time>2010-07-18T12:22:51Z</time>
<desc>lat.=55.715866, lon.=26.548782, Alt.=147.584106m. Speed=0.576000m/h.</desc>
<speed>0.160000</speed>
</trkpt>
<trkpt lat="55.715878" lon="26.548784">
<ele>147.814575</ele>
<time>2010-07-18T12:22:52Z</time>
<desc>lat.=55.715878, lon.=26.548784, Alt.=147.814575m. Speed=0.360000m/h.</desc>
<speed>0.100000</speed>
</trkpt>
<trkpt lat="55.715878" lon="26.548786">
<ele>147.814575</ele>
<time>2010-07-18T12:22:53Z</time>
<desc>lat.=55.715878, lon.=26.548786, Alt.=147.814575m. Speed=0.396000m/h.</desc>
<speed>0.110000</speed>
</trkpt>
<trkpt lat="55.715881" lon="26.548786">
<ele>147.818481</ele>
<time>2010-07-18T12:22:54Z</time>
<desc>lat.=55.715881, lon.=26.548786, Alt.=147.818481m. Speed=0.432000m/h.</desc>
<speed>0.120000</speed>
</trkpt>
<trkpt lat="55.715881" lon="26.548786">
<ele>147.814575</ele>
<time>2010-07-18T12:22:55Z</time>
<desc>lat.=55.715881, lon.=26.548786, Alt.=147.814575m. Speed=0.072000m/h.</desc>
<speed>0.020000</speed>
</trkpt>
<trkpt lat="55.715881" lon="26.548786">
<ele>147.818481</ele>
<time>2010-07-18T12:22:56Z</time>
<desc>lat.=55.715881, lon.=26.548786, Alt.=147.818481m. Speed=0.036000m/h.</desc>
<speed>0.010000</speed>
</trkpt>
<trkpt lat="55.715881" lon="26.548786">
<ele>147.822388</ele>
<time>2010-07-18T12:22:57Z</time>
<desc>lat.=55.715881, lon.=26.548786, Alt.=147.822388m. Speed=0.396000m/h.</desc>
<speed>0.110000</speed>
</trkpt>
<trkpt lat="55.715881" lon="26.548784">
<ele>147.830200</ele>
<time>2010-07-18T12:22:58Z</time>
<desc>lat.=55.715881, lon.=26.548784, Alt.=147.830200m. Speed=0.288000m/h.</desc>
<speed>0.080000</speed>
</trkpt>
<trkpt lat="55.715881" lon="26.548784">
<ele>147.841919</ele>
<time>2010-07-18T12:22:59Z</time>
<desc>lat.=55.715881, lon.=26.548784, Alt.=147.841919m. Speed=0.108000m/h.</desc>
<speed>0.030000</speed>
</trkpt>
<trkpt lat="55.715881" lon="26.548784">
<ele>147.857544</ele>
<time>2010-07-18T12:23:00Z</time>
<desc>lat.=55.715881, lon.=26.548784, Alt.=147.857544m. Speed=0.108000m/h.</desc>
<speed>0.030000</speed>
</trkpt>
<trkpt lat="55.715881" lon="26.548784">
<ele>147.865356</ele>
<time>2010-07-18T12:23:01Z</time>
<desc>lat.=55.715881, lon.=26.548784, Alt.=147.865356m. Speed=0.108000m/h.</desc>
<speed>0.030000</speed>
</trkpt>
<trkpt lat="55.715881" lon="26.548784">
<ele>147.877075</ele>
<time>2010-07-18T12:23:02Z</time>
<desc>lat.=55.715881, lon.=26.548784, Alt.=147.877075m. Speed=0.216000m/h.</desc>
<speed>0.060000</speed>
</trkpt>
<trkpt lat="55.715881" lon="26.548782">
<ele>147.888794</ele>
<time>2010-07-18T12:23:03Z</time>
<desc>lat.=55.715881, lon.=26.548782, Alt.=147.888794m. Speed=0.216000m/h.</desc>
<speed>0.060000</speed>
</trkpt>
<trkpt lat="55.715881" lon="26.548782">
<ele>147.896606</ele>
<time>2010-07-18T12:23:04Z</time>
<desc>lat.=55.715881, lon.=26.548782, Alt.=147.896606m. Speed=0.432000m/h.</desc>
<speed>0.120000</speed>
</trkpt>
<trkpt lat="55.715881" lon="26.548780">
<ele>147.904419</ele>
<time>2010-07-18T12:23:05Z</time>
<desc>lat.=55.715881, lon.=26.548780, Alt.=147.904419m. Speed=0.720000m/h.</desc>
<speed>0.200000</speed>
</trkpt>
<trkpt lat="55.715878" lon="26.548777">
<ele>147.916138</ele>
<time>2010-07-18T12:23:06Z</time>
<desc>lat.=55.715878, lon.=26.548777, Alt.=147.916138m. Speed=0.612000m/h.</desc>
<speed>0.170000</speed>
</trkpt>
<trkpt lat="55.715878" lon="26.548775">
<ele>147.920044</ele>
<time>2010-07-18T12:23:07Z</time>
<desc>lat.=55.715878, lon.=26.548775, Alt.=147.920044m. Speed=0.468000m/h.</desc>
<speed>0.130000</speed>
</trkpt>
<trkpt lat="55.715878" lon="26.548773">
<ele>147.920044</ele>
<time>2010-07-18T12:23:08Z</time>
<desc>lat.=55.715878, lon.=26.548773, Alt.=147.920044m. Speed=0.108000m/h.</desc>
<speed>0.030000</speed>
</trkpt>
<trkpt lat="55.715878" lon="26.548773">
<ele>147.916138</ele>
<time>2010-07-18T12:23:09Z</time>
<desc>lat.=55.715878, lon.=26.548773, Alt.=147.916138m. Speed=0.180000m/h.</desc>
<speed>0.050000</speed>
</trkpt>
<trkpt lat="55.715878" lon="26.548775">
<ele>147.912231</ele>
<time>2010-07-18T12:23:10Z</time>
<desc>lat.=55.715878, lon.=26.548775, Alt.=147.912231m. Speed=0.324000m/h.</desc>
<speed>0.090000</speed>
</trkpt>
<trkpt lat="55.715878" lon="26.548775">
<ele>147.908325</ele>
<time>2010-07-18T12:23:11Z</time>
<desc>lat.=55.715878, lon.=26.548775, Alt.=147.908325m. Speed=0.216000m/h.</desc>
<speed>0.060000</speed>
</trkpt>
<trkpt lat="55.715878" lon="26.548777">
<ele>147.908325</ele>
<time>2010-07-18T12:23:12Z</time>
<desc>lat.=55.715878, lon.=26.548777, Alt.=147.908325m. Speed=0.180000m/h.</desc>
<speed>0.050000</speed>
</trkpt>
<trkpt lat="55.715878" lon="26.548777">
<ele>147.904419</ele>
<time>2010-07-18T12:23:13Z</time>
<desc>lat.=55.715878, lon.=26.548777, Alt.=147.904419m. Speed=0.252000m/h.</desc>
<speed>0.070000</speed>
</trkpt>
<trkpt lat="55.715878" lon="26.548779">
<ele>147.900513</ele>
<time>2010-07-18T12:23:14Z</time>
<desc>lat.=55.715878, lon.=26.548779, Alt.=147.900513m. Speed=0.144000m/h.</desc>
<speed>0.040000</speed>
</trkpt>
<trkpt lat="55.715878" lon="26.548779">
<ele>147.896606</ele>
<time>2010-07-18T12:23:15Z</time>
<desc>lat.=55.715878, lon.=26.548779, Alt.=147.896606m. Speed=0.180000m/h.</desc>
<speed>0.050000</speed>
</trkpt>
<trkpt lat="55.715878" lon="26.548779">
<ele>147.896606</ele>
<time>2010-07-18T12:23:16Z</time>
<desc>lat.=55.715878, lon.=26.548779, Alt.=147.896606m. Speed=0.036000m/h.</desc>
<speed>0.010000</speed>
</trkpt>
<trkpt lat="55.715878" lon="26.548779">
<ele>147.896606</ele>
<time>2010-07-18T12:23:17Z</time>
<desc>lat.=55.715878, lon.=26.548779, Alt.=147.896606m. Speed=0.072000m/h.</desc>
<speed>0.020000</speed>
</trkpt>
<trkpt lat="55.715878" lon="26.548779">
<ele>147.896606</ele>
<time>2010-07-18T12:23:18Z</time>
<desc>lat.=55.715878, lon.=26.548779, Alt.=147.896606m. Speed=0.252000m/h.</desc>
<speed>0.070000</speed>
</trkpt>
<trkpt lat="55.715878" lon="26.548779">
<ele>147.892700</ele>
<time>2010-07-18T12:23:19Z</time>
<desc>lat.=55.715878, lon.=26.548779, Alt.=147.892700m. Speed=0.180000m/h.</desc>
<speed>0.050000</speed>
</trkpt>
<trkpt lat="55.715874" lon="26.548779">
<ele>147.888794</ele>
<time>2010-07-18T12:23:20Z</time>
<desc>lat.=55.715874, lon.=26.548779, Alt.=147.888794m. Speed=0.252000m/h.</desc>
<speed>0.070000</speed>
</trkpt>
<trkpt lat="55.715874" lon="26.548779">
<ele>147.884888</ele>
<time>2010-07-18T12:23:21Z</time>
<desc>lat.=55.715874, lon.=26.548779, Alt.=147.884888m. Speed=0.324000m/h.</desc>
<speed>0.090000</speed>
</trkpt>
<trkpt lat="55.715874" lon="26.548777">
<ele>147.884888</ele>
<time>2010-07-18T12:23:22Z</time>
<desc>lat.=55.715874, lon.=26.548777, Alt.=147.884888m. Speed=0.252000m/h.</desc>
<speed>0.070000</speed>
</trkpt>
<trkpt lat="55.715874" lon="26.548777">
<ele>147.884888</ele>
<time>2010-07-18T12:23:23Z</time>
<desc>lat.=55.715874, lon.=26.548777, Alt.=147.884888m. Speed=0.036000m/h.</desc>
<speed>0.010000</speed>
</trkpt>
<trkpt lat="55.715874" lon="26.548777">
<ele>147.884888</ele>
<time>2010-07-18T12:23:24Z</time>
<desc>lat.=55.715874, lon.=26.548777, Alt.=147.884888m. Speed=0.144000m/h.</desc>
<speed>0.040000</speed>
</trkpt>
<trkpt lat="55.715874" lon="26.548777">
<ele>147.884888</ele>
<time>2010-07-18T12:23:25Z</time>
<desc>lat.=55.715874, lon.=26.548777, Alt.=147.884888m. Speed=0.396000m/h.</desc>
<speed>0.110000</speed>
</trkpt>
<trkpt lat="55.715874" lon="26.548779">
<ele>147.892700</ele>
<time>2010-07-18T12:23:26Z</time>
<desc>lat.=55.715874, lon.=26.548779, Alt.=147.892700m. Speed=1.116000m/h.</desc>
<speed>0.310000</speed>
</trkpt>
<trkpt lat="55.715885" lon="26.548780">
<ele>148.037231</ele>
<time>2010-07-18T12:23:27Z</time>
<desc>lat.=55.715885, lon.=26.548780, Alt.=148.037231m. Speed=0.144000m/h.</desc>
<speed>0.040000</speed>
</trkpt>
<trkpt lat="55.715889" lon="26.548779">
<ele>148.052856</ele>
<time>2010-07-18T12:23:28Z</time>
<desc>lat.=55.715889, lon.=26.548779, Alt.=148.052856m. Speed=0.288000m/h.</desc>
<speed>0.080000</speed>
</trkpt>
<trkpt lat="55.715893" lon="26.548780">
<ele>148.052856</ele>
<time>2010-07-18T12:23:29Z</time>
<desc>lat.=55.715893, lon.=26.548780, Alt.=148.052856m. Speed=0.576000m/h.</desc>
<speed>0.160000</speed>
</trkpt>
<trkpt lat="55.715893" lon="26.548780">
<ele>148.056763</ele>
<time>2010-07-18T12:23:30Z</time>
<desc>lat.=55.715893, lon.=26.548780, Alt.=148.056763m. Speed=0.504000m/h.</desc>
<speed>0.140000</speed>
</trkpt>
<trkpt lat="55.715897" lon="26.548780">
<ele>148.056763</ele>
<time>2010-07-18T12:23:31Z</time>
<desc>lat.=55.715897, lon.=26.548780, Alt.=148.056763m. Speed=0.612000m/h.</desc>
<speed>0.170000</speed>
</trkpt>
<trkpt lat="55.715897" lon="26.548782">
<ele>148.060669</ele>
<time>2010-07-18T12:23:32Z</time>
<desc>lat.=55.715897, lon.=26.548782, Alt.=148.060669m. Speed=0.756000m/h.</desc>
<speed>0.210000</speed>
</trkpt>
<trkpt lat="55.715897" lon="26.548782">
<ele>148.060669</ele>
<time>2010-07-18T12:23:33Z</time>
<desc>lat.=55.715897, lon.=26.548782, Alt.=148.060669m. Speed=1.548000m/h.</desc>
<speed>0.430000</speed>
</trkpt>
<trkpt lat="55.715904" lon="26.548796">
<ele>148.111450</ele>
<time>2010-07-18T12:23:34Z</time>
<desc>lat.=55.715904, lon.=26.548796, Alt.=148.111450m. Speed=0.936000m/h.</desc>
<speed>0.260000</speed>
</trkpt>
<trkpt lat="55.715912" lon="26.548805">
<ele>148.142700</ele>
<time>2010-07-18T12:23:35Z</time>
<desc>lat.=55.715912, lon.=26.548805, Alt.=148.142700m. Speed=1.548000m/h.</desc>
<speed>0.430000</speed>
</trkpt>
<trkpt lat="55.715919" lon="26.548813">
<ele>148.240356</ele>
<time>2010-07-18T12:23:36Z</time>
<desc>lat.=55.715919, lon.=26.548813, Alt.=148.240356m. Speed=2.376000m/h.</desc>
<speed>0.660000</speed>
</trkpt>
<trkpt lat="55.715927" lon="26.548819">
<ele>148.384888</ele>
<time>2010-07-18T12:23:37Z</time>
<desc>lat.=55.715927, lon.=26.548819, Alt.=148.384888m. Speed=0.828000m/h.</desc>
<speed>0.230000</speed>
</trkpt>
<trkpt lat="55.715931" lon="26.548832">
<ele>147.791138</ele>
<time>2010-07-18T12:23:38Z</time>
<desc>lat.=55.715931, lon.=26.548832, Alt.=147.791138m. Speed=1.656000m/h.</desc>
<speed>0.460000</speed>
</trkpt>
<trkpt lat="55.715935" lon="26.548832">
<ele>147.732544</ele>
<time>2010-07-18T12:23:39Z</time>
<desc>lat.=55.715935, lon.=26.548832, Alt.=147.732544m. Speed=0.684000m/h.</desc>
<speed>0.190000</speed>
</trkpt>
<trkpt lat="55.715935" lon="26.548832">
<ele>147.748169</ele>
<time>2010-07-18T12:23:40Z</time>
<desc>lat.=55.715935, lon.=26.548832, Alt.=147.748169m. Speed=0.648000m/h.</desc>
<speed>0.180000</speed>
</trkpt>
<trkpt lat="55.715935" lon="26.548828">
<ele>147.744263</ele>
<time>2010-07-18T12:23:41Z</time>
<desc>lat.=55.715935, lon.=26.548828, Alt.=147.744263m. Speed=0.612000m/h.</desc>
<speed>0.170000</speed>
</trkpt>
<trkpt lat="55.715935" lon="26.548826">
<ele>147.689575</ele>
<time>2010-07-18T12:23:42Z</time>
<desc>lat.=55.715935, lon.=26.548826, Alt.=147.689575m. Speed=0.468000m/h.</desc>
<speed>0.130000</speed>
</trkpt>
<trkpt lat="55.715939" lon="26.548826">
<ele>147.670044</ele>
<time>2010-07-18T12:23:43Z</time>
<desc>lat.=55.715939, lon.=26.548826, Alt.=147.670044m. Speed=0.468000m/h.</desc>
<speed>0.130000</speed>
</trkpt>
<trkpt lat="55.715939" lon="26.548826">
<ele>147.654419</ele>
<time>2010-07-18T12:23:44Z</time>
<desc>lat.=55.715939, lon.=26.548826, Alt.=147.654419m. Speed=0.396000m/h.</desc>
<speed>0.110000</speed>
</trkpt>
<trkpt lat="55.715939" lon="26.548826">
<ele>147.638794</ele>
<time>2010-07-18T12:23:45Z</time>
<desc>lat.=55.715939, lon.=26.548826, Alt.=147.638794m. Speed=0.540000m/h.</desc>
<speed>0.150000</speed>
</trkpt>
<trkpt lat="55.715939" lon="26.548828">
<ele>147.619263</ele>
<time>2010-07-18T12:23:46Z</time>
<desc>lat.=55.715939, lon.=26.548828, Alt.=147.619263m. Speed=0.900000m/h.</desc>
<speed>0.250000</speed>
</trkpt>
<trkpt lat="55.715942" lon="26.548828">
<ele>147.599731</ele>
<time>2010-07-18T12:23:47Z</time>
<desc>lat.=55.715942, lon.=26.548828, Alt.=147.599731m. Speed=1.152000m/h.</desc>
<speed>0.320000</speed>
</trkpt>
<trkpt lat="55.715969" lon="26.548822">
<ele>147.771606</ele>
<time>2010-07-18T12:23:48Z</time>
<desc>lat.=55.715969, lon.=26.548822, Alt.=147.771606m. Speed=3.816000m/h.</desc>
<speed>1.060000</speed>
</trkpt>
<trkpt lat="55.715981" lon="26.548824">
<ele>147.615356</ele>
<time>2010-07-18T12:23:49Z</time>
<desc>lat.=55.715981, lon.=26.548824, Alt.=147.615356m. Speed=6.768000m/h.</desc>
<speed>1.880000</speed>
</trkpt>
<trkpt lat="55.715996" lon="26.548834">
<ele>147.638794</ele>
<time>2010-07-18T12:23:50Z</time>
<desc>lat.=55.715996, lon.=26.548834, Alt.=147.638794m. Speed=8.172000m/h.</desc>
<speed>2.270000</speed>
</trkpt>
<trkpt lat="55.716011" lon="26.548836">
<ele>148.162231</ele>
<time>2010-07-18T12:23:51Z</time>
<desc>lat.=55.716011, lon.=26.548836, Alt.=148.162231m. Speed=9.756000m/h.</desc>
<speed>2.710000</speed>
</trkpt>
<trkpt lat="55.716038" lon="26.548847">
<ele>148.548950</ele>
<time>2010-07-18T12:23:52Z</time>
<desc>lat.=55.716038, lon.=26.548847, Alt.=148.548950m. Speed=11.808000m/h.</desc>
<speed>3.280000</speed>
</trkpt>
<trkpt lat="55.716068" lon="26.548857">
<ele>148.588013</ele>
<time>2010-07-18T12:23:53Z</time>
<desc>lat.=55.716068, lon.=26.548857, Alt.=148.588013m. Speed=12.672000m/h.</desc>
<speed>3.520000</speed>
</trkpt>
<trkpt lat="55.716095" lon="26.548872">
<ele>148.341919</ele>
<time>2010-07-18T12:23:54Z</time>
<desc>lat.=55.716095, lon.=26.548872, Alt.=148.341919m. Speed=14.472000m/h.</desc>
<speed>4.020000</speed>
</trkpt>
<trkpt lat="55.716129" lon="26.548887">
<ele>148.380981</ele>
<time>2010-07-18T12:23:55Z</time>
<desc>lat.=55.716129, lon.=26.548887, Alt.=148.380981m. Speed=15.876000m/h.</desc>
<speed>4.410000</speed>
</trkpt>
<trkpt lat="55.716171" lon="26.548899">
<ele>148.658325</ele>
<time>2010-07-18T12:23:56Z</time>
<desc>lat.=55.716171, lon.=26.548899, Alt.=148.658325m. Speed=17.063999m/h.</desc>
<speed>4.740000</speed>
</trkpt>
<trkpt lat="55.716209" lon="26.548910">
<ele>148.783325</ele>
<time>2010-07-18T12:23:57Z</time>
<desc>lat.=55.716209, lon.=26.548910, Alt.=148.783325m. Speed=17.712000m/h.</desc>
<speed>4.920000</speed>
</trkpt>
<trkpt lat="55.716255" lon="26.548918">
<ele>148.775513</ele>
<time>2010-07-18T12:23:58Z</time>
<desc>lat.=55.716255, lon.=26.548918, Alt.=148.775513m. Speed=17.424000m/h.</desc>
<speed>4.840000</speed>
</trkpt>
<trkpt lat="55.716297" lon="26.548931">
<ele>148.716919</ele>
<time>2010-07-18T12:23:59Z</time>
<desc>lat.=55.716297, lon.=26.548931, Alt.=148.716919m. Speed=17.712000m/h.</desc>
<speed>4.920000</speed>
</trkpt>
<trkpt lat="55.716343" lon="26.548944">
<ele>148.908325</ele>
<time>2010-07-18T12:24:00Z</time>
<desc>lat.=55.716343, lon.=26.548944, Alt.=148.908325m. Speed=18.936001m/h.</desc>
<speed>5.260000</speed>
</trkpt>
<trkpt lat="55.716393" lon="26.548960">
<ele>148.994263</ele>
<time>2010-07-18T12:24:01Z</time>
<desc>lat.=55.716393, lon.=26.548960, Alt.=148.994263m. Speed=20.052000m/h.</desc>
<speed>5.570000</speed>
</trkpt>
<trkpt lat="55.716442" lon="26.548975">
<ele>148.990356</ele>
<time>2010-07-18T12:24:02Z</time>
<desc>lat.=55.716442, lon.=26.548975, Alt.=148.990356m. Speed=20.808001m/h.</desc>
<speed>5.780000</speed>
</trkpt>
<trkpt lat="55.716492" lon="26.548986">
<ele>149.052856</ele>
<time>2010-07-18T12:24:03Z</time>
<desc>lat.=55.716492, lon.=26.548986, Alt.=149.052856m. Speed=19.728001m/h.</desc>
<speed>5.480000</speed>
</trkpt>
<trkpt lat="55.716541" lon="26.549006">
<ele>149.541138</ele>
<time>2010-07-18T12:24:04Z</time>
<desc>lat.=55.716541, lon.=26.549006, Alt.=149.541138m. Speed=19.691999m/h.</desc>
<speed>5.470000</speed>
</trkpt>
<trkpt lat="55.716587" lon="26.549021">
<ele>149.775513</ele>
<time>2010-07-18T12:24:05Z</time>
<desc>lat.=55.716587, lon.=26.549021, Alt.=149.775513m. Speed=18.864000m/h.</desc>
<speed>5.240000</speed>
</trkpt>
<trkpt lat="55.716629" lon="26.549034">
<ele>149.732544</ele>
<time>2010-07-18T12:24:06Z</time>
<desc>lat.=55.716629, lon.=26.549034, Alt.=149.732544m. Speed=18.468000m/h.</desc>
<speed>5.130000</speed>
</trkpt>
<trkpt lat="55.716671" lon="26.549047">
<ele>149.920044</ele>
<time>2010-07-18T12:24:07Z</time>
<desc>lat.=55.716671, lon.=26.549047, Alt.=149.920044m. Speed=17.747999m/h.</desc>
<speed>4.930000</speed>
</trkpt>
<trkpt lat="55.716713" lon="26.549057">
<ele>150.076294</ele>
<time>2010-07-18T12:24:08Z</time>
<desc>lat.=55.716713, lon.=26.549057, Alt.=150.076294m. Speed=17.063999m/h.</desc>
<speed>4.740000</speed>
</trkpt>
<trkpt lat="55.716751" lon="26.549063">
<ele>150.166138</ele>
<time>2010-07-18T12:24:09Z</time>
<desc>lat.=55.716751, lon.=26.549063, Alt.=150.166138m. Speed=16.271999m/h.</desc>
<speed>4.520000</speed>
</trkpt>
<trkpt lat="55.716789" lon="26.549070">
<ele>150.314575</ele>
<time>2010-07-18T12:24:10Z</time>
<desc>lat.=55.716789, lon.=26.549070, Alt.=150.314575m. Speed=15.408000m/h.</desc>
<speed>4.280000</speed>
</trkpt>
<trkpt lat="55.716827" lon="26.549078">
<ele>150.412231</ele>
<time>2010-07-18T12:24:11Z</time>
<desc>lat.=55.716827, lon.=26.549078, Alt.=150.412231m. Speed=14.508000m/h.</desc>
<speed>4.030000</speed>
</trkpt>
<trkpt lat="55.716862" lon="26.549086">
<ele>150.502075</ele>
<time>2010-07-18T12:24:12Z</time>
<desc>lat.=55.716862, lon.=26.549086, Alt.=150.502075m. Speed=14.328000m/h.</desc>
<speed>3.980000</speed>
</trkpt>
<trkpt lat="55.716896" lon="26.549101">
<ele>150.498169</ele>
<time>2010-07-18T12:24:13Z</time>
<desc>lat.=55.716896, lon.=26.549101, Alt.=150.498169m. Speed=14.184000m/h.</desc>
<speed>3.940000</speed>
</trkpt>
<trkpt lat="55.716934" lon="26.549109">
<ele>150.670044</ele>
<time>2010-07-18T12:24:14Z</time>
<desc>lat.=55.716934, lon.=26.549109, Alt.=150.670044m. Speed=15.588000m/h.</desc>
<speed>4.330000</speed>
</trkpt>
<trkpt lat="55.716980" lon="26.549122">
<ele>150.880981</ele>
<time>2010-07-18T12:24:15Z</time>
<desc>lat.=55.716980, lon.=26.549122, Alt.=150.880981m. Speed=18.072001m/h.</desc>
<speed>5.020000</speed>
</trkpt>
<trkpt lat="55.717026" lon="26.549135">
<ele>150.974731</ele>
<time>2010-07-18T12:24:16Z</time>
<desc>lat.=55.717026, lon.=26.549135, Alt.=150.974731m. Speed=19.080000m/h.</desc>
<speed>5.300000</speed>
</trkpt>
<trkpt lat="55.717072" lon="26.549154">
<ele>151.021606</ele>
<time>2010-07-18T12:24:17Z</time>
<desc>lat.=55.717072, lon.=26.549154, Alt.=151.021606m. Speed=20.016001m/h.</desc>
<speed>5.560000</speed>
</trkpt>
<trkpt lat="55.717117" lon="26.549173">
<ele>150.677856</ele>
<time>2010-07-18T12:24:18Z</time>
<desc>lat.=55.717117, lon.=26.549173, Alt.=150.677856m. Speed=19.152000m/h.</desc>
<speed>5.320000</speed>
</trkpt>
<trkpt lat="55.717167" lon="26.549191">
<ele>150.880981</ele>
<time>2010-07-18T12:24:19Z</time>
<desc>lat.=55.717167, lon.=26.549191, Alt.=150.880981m. Speed=20.952000m/h.</desc>
<speed>5.820000</speed>
</trkpt>
<trkpt lat="55.717216" lon="26.549206">
<ele>150.877075</ele>
<time>2010-07-18T12:24:20Z</time>
<desc>lat.=55.717216, lon.=26.549206, Alt.=150.877075m. Speed=21.888000m/h.</desc>
<speed>6.080000</speed>
</trkpt>
<trkpt lat="55.717274" lon="26.549221">
<ele>150.845825</ele>
<time>2010-07-18T12:24:21Z</time>
<desc>lat.=55.717274, lon.=26.549221, Alt.=150.845825m. Speed=25.848000m/h.</desc>
<speed>7.180000</speed>
</trkpt>
<trkpt lat="55.717339" lon="26.549234">
<ele>150.970825</ele>
<time>2010-07-18T12:24:22Z</time>
<desc>lat.=55.717339, lon.=26.549234, Alt.=150.970825m. Speed=25.452000m/h.</desc>
<speed>7.070000</speed>
</trkpt>
<trkpt lat="55.717400" lon="26.549248">
<ele>151.181763</ele>
<time>2010-07-18T12:24:23Z</time>
<desc>lat.=55.717400, lon.=26.549248, Alt.=151.181763m. Speed=26.892000m/h.</desc>
<speed>7.470000</speed>
</trkpt>
<trkpt lat="55.717464" lon="26.549261">
<ele>151.396606</ele>
<time>2010-07-18T12:24:24Z</time>
<desc>lat.=55.717464, lon.=26.549261, Alt.=151.396606m. Speed=24.768000m/h.</desc>
<speed>6.880000</speed>
</trkpt>
<trkpt lat="55.717522" lon="26.549276">
<ele>151.615356</ele>
<time>2010-07-18T12:24:25Z</time>
<desc>lat.=55.717522, lon.=26.549276, Alt.=151.615356m. Speed=23.040001m/h.</desc>
<speed>6.400000</speed>
</trkpt>
<trkpt lat="55.717583" lon="26.549290">
<ele>151.880981</ele>
<time>2010-07-18T12:24:26Z</time>
<desc>lat.=55.717583, lon.=26.549290, Alt.=151.880981m. Speed=24.948000m/h.</desc>
<speed>6.930000</speed>
</trkpt>
<trkpt lat="55.717644" lon="26.549305">
<ele>152.064575</ele>
<time>2010-07-18T12:24:27Z</time>
<desc>lat.=55.717644, lon.=26.549305, Alt.=152.064575m. Speed=25.020000m/h.</desc>
<speed>6.950000</speed>
</trkpt>
<trkpt lat="55.717701" lon="26.549322">
<ele>152.244263</ele>
<time>2010-07-18T12:24:28Z</time>
<desc>lat.=55.717701, lon.=26.549322, Alt.=152.244263m. Speed=24.120001m/h.</desc>
<speed>6.700000</speed>
</trkpt>
<trkpt lat="55.717758" lon="26.549334">
<ele>152.771606</ele>
<time>2010-07-18T12:24:29Z</time>
<desc>lat.=55.717758, lon.=26.549334, Alt.=152.771606m. Speed=23.148001m/h.</desc>
<speed>6.430000</speed>
</trkpt>
<trkpt lat="55.717819" lon="26.549353">
<ele>152.693481</ele>
<time>2010-07-18T12:24:30Z</time>
<desc>lat.=55.717819, lon.=26.549353, Alt.=152.693481m. Speed=23.615999m/h.</desc>
<speed>6.560000</speed>
</trkpt>
<trkpt lat="55.717873" lon="26.549381">
<ele>152.752075</ele>
<time>2010-07-18T12:24:31Z</time>
<desc>lat.=55.717873, lon.=26.549381, Alt.=152.752075m. Speed=23.040001m/h.</desc>
<speed>6.400000</speed>
</trkpt>
<trkpt lat="55.717926" lon="26.549400">
<ele>153.255981</ele>
<time>2010-07-18T12:24:32Z</time>
<desc>lat.=55.717926, lon.=26.549400, Alt.=153.255981m. Speed=21.384001m/h.</desc>
<speed>5.940000</speed>
</trkpt>
<trkpt lat="55.717972" lon="26.549408">
<ele>153.572388</ele>
<time>2010-07-18T12:24:33Z</time>
<desc>lat.=55.717972, lon.=26.549408, Alt.=153.572388m. Speed=15.768000m/h.</desc>
<speed>4.380000</speed>
</trkpt>
<trkpt lat="55.718014" lon="26.549402">
<ele>153.513794</ele>
<time>2010-07-18T12:24:34Z</time>
<desc>lat.=55.718014, lon.=26.549402, Alt.=153.513794m. Speed=16.164000m/h.</desc>
<speed>4.490000</speed>
</trkpt>
<trkpt lat="55.718060" lon="26.549414">
<ele>153.826294</ele>
<time>2010-07-18T12:24:35Z</time>
<desc>lat.=55.718060, lon.=26.549414, Alt.=153.826294m. Speed=20.124001m/h.</desc>
<speed>5.590000</speed>
</trkpt>
<trkpt lat="55.718109" lon="26.549421">
<ele>153.963013</ele>
<time>2010-07-18T12:24:36Z</time>
<desc>lat.=55.718109, lon.=26.549421, Alt.=153.963013m. Speed=18.000000m/h.</desc>
<speed>5.000000</speed>
</trkpt>
<trkpt lat="55.718151" lon="26.549419">
<ele>154.423950</ele>
<time>2010-07-18T12:24:37Z</time>
<desc>lat.=55.718151, lon.=26.549419, Alt.=154.423950m. Speed=17.100000m/h.</desc>
<speed>4.750000</speed>
</trkpt>
<trkpt lat="55.718197" lon="26.549421">
<ele>154.689575</ele>
<time>2010-07-18T12:24:38Z</time>
<desc>lat.=55.718197, lon.=26.549421, Alt.=154.689575m. Speed=17.712000m/h.</desc>
<speed>4.920000</speed>
</trkpt>
<trkpt lat="55.718243" lon="26.549437">
<ele>154.939575</ele>
<time>2010-07-18T12:24:39Z</time>
<desc>lat.=55.718243, lon.=26.549437, Alt.=154.939575m. Speed=17.639999m/h.</desc>
<speed>4.900000</speed>
</trkpt>
<trkpt lat="55.718292" lon="26.549456">
<ele>154.423950</ele>
<time>2010-07-18T12:24:40Z</time>
<desc>lat.=55.718292, lon.=26.549456, Alt.=154.423950m. Speed=16.812000m/h.</desc>
<speed>4.670000</speed>
</trkpt>
<trkpt lat="55.718338" lon="26.549473">
<ele>154.314575</ele>
<time>2010-07-18T12:24:41Z</time>
<desc>lat.=55.718338, lon.=26.549473, Alt.=154.314575m. Speed=18.035999m/h.</desc>
<speed>5.010000</speed>
</trkpt>
<trkpt lat="55.718384" lon="26.549484">
<ele>154.287231</ele>
<time>2010-07-18T12:24:42Z</time>
<desc>lat.=55.718384, lon.=26.549484, Alt.=154.287231m. Speed=18.612000m/h.</desc>
<speed>5.170000</speed>
</trkpt>
<trkpt lat="55.718441" lon="26.549517">
<ele>153.627075</ele>
<time>2010-07-18T12:24:43Z</time>
<desc>lat.=55.718441, lon.=26.549517, Alt.=153.627075m. Speed=20.087999m/h.</desc>
<speed>5.580000</speed>
</trkpt>
<trkpt lat="55.718494" lon="26.549559">
<ele>152.115356</ele>
<time>2010-07-18T12:24:44Z</time>
<desc>lat.=55.718494, lon.=26.549559, Alt.=152.115356m. Speed=21.240000m/h.</desc>
<speed>5.900000</speed>
</trkpt>
<trkpt lat="55.718552" lon="26.549576">
<ele>151.666138</ele>
<time>2010-07-18T12:24:45Z</time>
<desc>lat.=55.718552, lon.=26.549576, Alt.=151.666138m. Speed=20.520000m/h.</desc>
<speed>5.700000</speed>
</trkpt>
<trkpt lat="55.718609" lon="26.549604">
<ele>151.111450</ele>
<time>2010-07-18T12:24:46Z</time>
<desc>lat.=55.718609, lon.=26.549604, Alt.=151.111450m. Speed=20.700001m/h.</desc>
<speed>5.750000</speed>
</trkpt>
<trkpt lat="55.718658" lon="26.549618">
<ele>151.099731</ele>
<time>2010-07-18T12:24:47Z</time>
<desc>lat.=55.718658, lon.=26.549618, Alt.=151.099731m. Speed=20.412001m/h.</desc>
<speed>5.670000</speed>
</trkpt>
<trkpt lat="55.718712" lon="26.549635">
<ele>151.041138</ele>
<time>2010-07-18T12:24:48Z</time>
<desc>lat.=55.718712, lon.=26.549635, Alt.=151.041138m. Speed=19.980000m/h.</desc>
<speed>5.550000</speed>
</trkpt>
<trkpt lat="55.718765" lon="26.549658">
<ele>151.072388</ele>
<time>2010-07-18T12:24:49Z</time>
<desc>lat.=55.718765, lon.=26.549658, Alt.=151.072388m. Speed=20.268000m/h.</desc>
<speed>5.630000</speed>
</trkpt>
<trkpt lat="55.718819" lon="26.549673">
<ele>151.173950</ele>
<time>2010-07-18T12:24:50Z</time>
<desc>lat.=55.718819, lon.=26.549673, Alt.=151.173950m. Speed=21.636000m/h.</desc>
<speed>6.010000</speed>
</trkpt>
<trkpt lat="55.718876" lon="26.549704">
<ele>150.580200</ele>
<time>2010-07-18T12:24:51Z</time>
<desc>lat.=55.718876, lon.=26.549704, Alt.=150.580200m. Speed=21.024000m/h.</desc>
<speed>5.840000</speed>
</trkpt>
<trkpt lat="55.718929" lon="26.549726">
<ele>150.224731</ele>
<time>2010-07-18T12:24:52Z</time>
<desc>lat.=55.718929, lon.=26.549726, Alt.=150.224731m. Speed=20.879999m/h.</desc>
<speed>5.800000</speed>
</trkpt>
<trkpt lat="55.718987" lon="26.549751">
<ele>149.939575</ele>
<time>2010-07-18T12:24:53Z</time>
<desc>lat.=55.718987, lon.=26.549751, Alt.=149.939575m. Speed=21.492001m/h.</desc>
<speed>5.970000</speed>
</trkpt>
<trkpt lat="55.719040" lon="26.549774">
<ele>149.845825</ele>
<time>2010-07-18T12:24:54Z</time>
<desc>lat.=55.719040, lon.=26.549774, Alt.=149.845825m. Speed=21.167999m/h.</desc>
<speed>5.880000</speed>
</trkpt>
<trkpt lat="55.719093" lon="26.549789">
<ele>149.830200</ele>
<time>2010-07-18T12:24:55Z</time>
<desc>lat.=55.719093, lon.=26.549789, Alt.=149.830200m. Speed=20.808001m/h.</desc>
<speed>5.780000</speed>
</trkpt>
<trkpt lat="55.719147" lon="26.549805">
<ele>149.744263</ele>
<time>2010-07-18T12:24:56Z</time>
<desc>lat.=55.719147, lon.=26.549805, Alt.=149.744263m. Speed=20.340000m/h.</desc>
<speed>5.650000</speed>
</trkpt>
<trkpt lat="55.719200" lon="26.549818">
<ele>149.677856</ele>
<time>2010-07-18T12:24:57Z</time>
<desc>lat.=55.719200, lon.=26.549818, Alt.=149.677856m. Speed=20.087999m/h.</desc>
<speed>5.580000</speed>
</trkpt>
<trkpt lat="55.719250" lon="26.549831">
<ele>149.697388</ele>
<time>2010-07-18T12:24:58Z</time>
<desc>lat.=55.719250, lon.=26.549831, Alt.=149.697388m. Speed=19.872000m/h.</desc>
<speed>5.520000</speed>
</trkpt>
<trkpt lat="55.719303" lon="26.549852">
<ele>149.580200</ele>
<time>2010-07-18T12:24:59Z</time>
<desc>lat.=55.719303, lon.=26.549852, Alt.=149.580200m. Speed=19.764000m/h.</desc>
<speed>5.490000</speed>
</trkpt>
<trkpt lat="55.719353" lon="26.549871">
<ele>149.564575</ele>
<time>2010-07-18T12:25:00Z</time>
<desc>lat.=55.719353, lon.=26.549871, Alt.=149.564575m. Speed=19.548000m/h.</desc>
<speed>5.430000</speed>
</trkpt>
<trkpt lat="55.719402" lon="26.549885">
<ele>149.502075</ele>
<time>2010-07-18T12:25:01Z</time>
<desc>lat.=55.719402, lon.=26.549885, Alt.=149.502075m. Speed=19.368000m/h.</desc>
<speed>5.380000</speed>
</trkpt>
<trkpt lat="55.719456" lon="26.549896">
<ele>149.353638</ele>
<time>2010-07-18T12:25:02Z</time>
<desc>lat.=55.719456, lon.=26.549896, Alt.=149.353638m. Speed=20.268000m/h.</desc>
<speed>5.630000</speed>
</trkpt>
<trkpt lat="55.719505" lon="26.549911">
<ele>149.146606</ele>
<time>2010-07-18T12:25:03Z</time>
<desc>lat.=55.719505, lon.=26.549911, Alt.=149.146606m. Speed=21.420000m/h.</desc>
<speed>5.950000</speed>
</trkpt>
<trkpt lat="55.719563" lon="26.549931">
<ele>148.966919</ele>
<time>2010-07-18T12:25:04Z</time>
<desc>lat.=55.719563, lon.=26.549931, Alt.=148.966919m. Speed=22.535999m/h.</desc>
<speed>6.260000</speed>
</trkpt>
<trkpt lat="55.719620" lon="26.549944">
<ele>148.947388</ele>
<time>2010-07-18T12:25:05Z</time>
<desc>lat.=55.719620, lon.=26.549944, Alt.=148.947388m. Speed=23.256001m/h.</desc>
<speed>6.460000</speed>
</trkpt>
<trkpt lat="55.719681" lon="26.549961">
<ele>148.990356</ele>
<time>2010-07-18T12:25:06Z</time>
<desc>lat.=55.719681, lon.=26.549961, Alt.=148.990356m. Speed=24.552000m/h.</desc>
<speed>6.820000</speed>
</trkpt>
<trkpt lat="55.719742" lon="26.549980">
<ele>148.873169</ele>
<time>2010-07-18T12:25:07Z</time>
<desc>lat.=55.719742, lon.=26.549980, Alt.=148.873169m. Speed=24.840000m/h.</desc>
<speed>6.900000</speed>
</trkpt>
<trkpt lat="55.719803" lon="26.550001">
<ele>149.048950</ele>
<time>2010-07-18T12:25:08Z</time>
<desc>lat.=55.719803, lon.=26.550001, Alt.=149.048950m. Speed=24.480000m/h.</desc>
<speed>6.800000</speed>
</trkpt>
<trkpt lat="55.719860" lon="26.550020">
<ele>149.072388</ele>
<time>2010-07-18T12:25:09Z</time>
<desc>lat.=55.719860, lon.=26.550020, Alt.=149.072388m. Speed=24.084000m/h.</desc>
<speed>6.690000</speed>
</trkpt>
<trkpt lat="55.719917" lon="26.550037">
<ele>149.326294</ele>
<time>2010-07-18T12:25:10Z</time>
<desc>lat.=55.719917, lon.=26.550037, Alt.=149.326294m. Speed=23.652000m/h.</desc>
<speed>6.570000</speed>
</trkpt>
<trkpt lat="55.719975" lon="26.550055">
<ele>149.318481</ele>
<time>2010-07-18T12:25:11Z</time>
<desc>lat.=55.719975, lon.=26.550055, Alt.=149.318481m. Speed=23.112000m/h.</desc>
<speed>6.420000</speed>
</trkpt>
<trkpt lat="55.720032" lon="26.550072">
<ele>149.255981</ele>
<time>2010-07-18T12:25:12Z</time>
<desc>lat.=55.720032, lon.=26.550072, Alt.=149.255981m. Speed=22.392000m/h.</desc>
<speed>6.220000</speed>
</trkpt>
<trkpt lat="55.720085" lon="26.550087">
<ele>149.283325</ele>
<time>2010-07-18T12:25:13Z</time>
<desc>lat.=55.720085, lon.=26.550087, Alt.=149.283325m. Speed=21.600000m/h.</desc>
<speed>6.000000</speed>
</trkpt>
<trkpt lat="55.720139" lon="26.550102">
<ele>149.201294</ele>
<time>2010-07-18T12:25:14Z</time>
<desc>lat.=55.720139, lon.=26.550102, Alt.=149.201294m. Speed=21.096001m/h.</desc>
<speed>5.860000</speed>
</trkpt>
<trkpt lat="55.720192" lon="26.550117">
<ele>149.130981</ele>
<time>2010-07-18T12:25:15Z</time>
<desc>lat.=55.720192, lon.=26.550117, Alt.=149.130981m. Speed=20.808001m/h.</desc>
<speed>5.780000</speed>
</trkpt>
<trkpt lat="55.720242" lon="26.550135">
<ele>149.213013</ele>
<time>2010-07-18T12:25:16Z</time>
<desc>lat.=55.720242, lon.=26.550135, Alt.=149.213013m. Speed=21.563999m/h.</desc>
<speed>5.990000</speed>
</trkpt>
<trkpt lat="55.720299" lon="26.550146">
<ele>149.291138</ele>
<time>2010-07-18T12:25:17Z</time>
<desc>lat.=55.720299, lon.=26.550146, Alt.=149.291138m. Speed=22.752001m/h.</desc>
<speed>6.320000</speed>
</trkpt>
<trkpt lat="55.720356" lon="26.550159">
<ele>149.380981</ele>
<time>2010-07-18T12:25:18Z</time>
<desc>lat.=55.720356, lon.=26.550159, Alt.=149.380981m. Speed=23.868000m/h.</desc>
<speed>6.630000</speed>
</trkpt>
<trkpt lat="55.720413" lon="26.550175">
<ele>149.560669</ele>
<time>2010-07-18T12:25:19Z</time>
<desc>lat.=55.720413, lon.=26.550175, Alt.=149.560669m. Speed=23.796000m/h.</desc>
<speed>6.610000</speed>
</trkpt>
<trkpt lat="55.720470" lon="26.550194">
<ele>149.564575</ele>
<time>2010-07-18T12:25:20Z</time>
<desc>lat.=55.720470, lon.=26.550194, Alt.=149.564575m. Speed=23.580000m/h.</desc>
<speed>6.550000</speed>
</trkpt>
<trkpt lat="55.720531" lon="26.550211">
<ele>149.494263</ele>
<time>2010-07-18T12:25:21Z</time>
<desc>lat.=55.720531, lon.=26.550211, Alt.=149.494263m. Speed=23.219999m/h.</desc>
<speed>6.450000</speed>
</trkpt>
<trkpt lat="55.720589" lon="26.550228">
<ele>149.584106</ele>
<time>2010-07-18T12:25:22Z</time>
<desc>lat.=55.720589, lon.=26.550228, Alt.=149.584106m. Speed=22.823999m/h.</desc>
<speed>6.340000</speed>
</trkpt>
<trkpt lat="55.720642" lon="26.550241">
<ele>149.697388</ele>
<time>2010-07-18T12:25:23Z</time>
<desc>lat.=55.720642, lon.=26.550241, Alt.=149.697388m. Speed=22.968000m/h.</desc>
<speed>6.380000</speed>
</trkpt>
<trkpt lat="55.720699" lon="26.550259">
<ele>149.802856</ele>
<time>2010-07-18T12:25:24Z</time>
<desc>lat.=55.720699, lon.=26.550259, Alt.=149.802856m. Speed=23.112000m/h.</desc>
<speed>6.420000</speed>
</trkpt>
<trkpt lat="55.720757" lon="26.550283">
<ele>149.791138</ele>
<time>2010-07-18T12:25:25Z</time>
<desc>lat.=55.720757, lon.=26.550283, Alt.=149.791138m. Speed=22.752001m/h.</desc>
<speed>6.320000</speed>
</trkpt>
<trkpt lat="55.720814" lon="26.550301">
<ele>149.748169</ele>
<time>2010-07-18T12:25:26Z</time>
<desc>lat.=55.720814, lon.=26.550301, Alt.=149.748169m. Speed=22.643999m/h.</desc>
<speed>6.290000</speed>
</trkpt>
<trkpt lat="55.720867" lon="26.550316">
<ele>149.615356</ele>
<time>2010-07-18T12:25:27Z</time>
<desc>lat.=55.720867, lon.=26.550316, Alt.=149.615356m. Speed=22.860001m/h.</desc>
<speed>6.350000</speed>
</trkpt>
<trkpt lat="55.720924" lon="26.550331">
<ele>149.537231</ele>
<time>2010-07-18T12:25:28Z</time>
<desc>lat.=55.720924, lon.=26.550331, Alt.=149.537231m. Speed=21.996000m/h.</desc>
<speed>6.110000</speed>
</trkpt>
<trkpt lat="55.720978" lon="26.550344">
<ele>149.509888</ele>
<time>2010-07-18T12:25:29Z</time>
<desc>lat.=55.720978, lon.=26.550344, Alt.=149.509888m. Speed=21.924000m/h.</desc>
<speed>6.090000</speed>
</trkpt>
<trkpt lat="55.721031" lon="26.550362">
<ele>149.521606</ele>
<time>2010-07-18T12:25:30Z</time>
<desc>lat.=55.721031, lon.=26.550362, Alt.=149.521606m. Speed=21.600000m/h.</desc>
<speed>6.000000</speed>
</trkpt>
<trkpt lat="55.721088" lon="26.550375">
<ele>149.595825</ele>
<time>2010-07-18T12:25:31Z</time>
<desc>lat.=55.721088, lon.=26.550375, Alt.=149.595825m. Speed=23.112000m/h.</desc>
<speed>6.420000</speed>
</trkpt>
<trkpt lat="55.721146" lon="26.550388">
<ele>149.701294</ele>
<time>2010-07-18T12:25:32Z</time>
<desc>lat.=55.721146, lon.=26.550388, Alt.=149.701294m. Speed=23.364000m/h.</desc>
<speed>6.490000</speed>
</trkpt>
<trkpt lat="55.721203" lon="26.550404">
<ele>149.814575</ele>
<time>2010-07-18T12:25:33Z</time>
<desc>lat.=55.721203, lon.=26.550404, Alt.=149.814575m. Speed=23.040001m/h.</desc>
<speed>6.400000</speed>
</trkpt>
<trkpt lat="55.721256" lon="26.550421">
<ele>149.693481</ele>
<time>2010-07-18T12:25:34Z</time>
<desc>lat.=55.721256, lon.=26.550421, Alt.=149.693481m. Speed=22.427999m/h.</desc>
<speed>6.230000</speed>
</trkpt>
<trkpt lat="55.721310" lon="26.550434">
<ele>149.673950</ele>
<time>2010-07-18T12:25:35Z</time>
<desc>lat.=55.721310, lon.=26.550434, Alt.=149.673950m. Speed=21.959999m/h.</desc>
<speed>6.100000</speed>
</trkpt>
<trkpt lat="55.721363" lon="26.550455">
<ele>149.716919</ele>
<time>2010-07-18T12:25:36Z</time>
<desc>lat.=55.721363, lon.=26.550455, Alt.=149.716919m. Speed=21.672001m/h.</desc>
<speed>6.020000</speed>
</trkpt>
<trkpt lat="55.721416" lon="26.550472">
<ele>149.752075</ele>
<time>2010-07-18T12:25:37Z</time>
<desc>lat.=55.721416, lon.=26.550472, Alt.=149.752075m. Speed=21.312000m/h.</desc>
<speed>5.920000</speed>
</trkpt>
<trkpt lat="55.721470" lon="26.550491">
<ele>149.740356</ele>
<time>2010-07-18T12:25:38Z</time>
<desc>lat.=55.721470, lon.=26.550491, Alt.=149.740356m. Speed=20.916000m/h.</desc>
<speed>5.810000</speed>
</trkpt>
<trkpt lat="55.721519" lon="26.550507">
<ele>149.650513</ele>
<time>2010-07-18T12:25:39Z</time>
<desc>lat.=55.721519, lon.=26.550507, Alt.=149.650513m. Speed=20.375999m/h.</desc>
<speed>5.660000</speed>
</trkpt>
<trkpt lat="55.721569" lon="26.550522">
<ele>149.689575</ele>
<time>2010-07-18T12:25:40Z</time>
<desc>lat.=55.721569, lon.=26.550522, Alt.=149.689575m. Speed=19.836000m/h.</desc>
<speed>5.510000</speed>
</trkpt>
<trkpt lat="55.721619" lon="26.550533">
<ele>149.763794</ele>
<time>2010-07-18T12:25:41Z</time>
<desc>lat.=55.721619, lon.=26.550533, Alt.=149.763794m. Speed=19.691999m/h.</desc>
<speed>5.470000</speed>
</trkpt>
<trkpt lat="55.721668" lon="26.550545">
<ele>149.849731</ele>
<time>2010-07-18T12:25:42Z</time>
<desc>lat.=55.721668, lon.=26.550545, Alt.=149.849731m. Speed=20.268000m/h.</desc>
<speed>5.630000</speed>
</trkpt>
<trkpt lat="55.721718" lon="26.550556">
<ele>149.869263</ele>
<time>2010-07-18T12:25:43Z</time>
<desc>lat.=55.721718, lon.=26.550556, Alt.=149.869263m. Speed=21.059999m/h.</desc>
<speed>5.850000</speed>
</trkpt>
<trkpt lat="55.721771" lon="26.550577">
<ele>149.466919</ele>
<time>2010-07-18T12:25:44Z</time>
<desc>lat.=55.721771, lon.=26.550577, Alt.=149.466919m. Speed=22.104000m/h.</desc>
<speed>6.140000</speed>
</trkpt>
<trkpt lat="55.721828" lon="26.550591">
<ele>150.287231</ele>
<time>2010-07-18T12:25:45Z</time>
<desc>lat.=55.721828, lon.=26.550591, Alt.=150.287231m. Speed=22.320000m/h.</desc>
<speed>6.200000</speed>
</trkpt>
<trkpt lat="55.721882" lon="26.550611">
<ele>150.259888</ele>
<time>2010-07-18T12:25:46Z</time>
<desc>lat.=55.721882, lon.=26.550611, Alt.=150.259888m. Speed=22.500000m/h.</desc>
<speed>6.250000</speed>
</trkpt>
<trkpt lat="55.721935" lon="26.550627">
<ele>150.322388</ele>
<time>2010-07-18T12:25:47Z</time>
<desc>lat.=55.721935, lon.=26.550627, Alt.=150.322388m. Speed=22.356001m/h.</desc>
<speed>6.210000</speed>
</trkpt>
<trkpt lat="55.721989" lon="26.550644">
<ele>150.474731</ele>
<time>2010-07-18T12:25:48Z</time>
<desc>lat.=55.721989, lon.=26.550644, Alt.=150.474731m. Speed=21.851999m/h.</desc>
<speed>6.070000</speed>
</trkpt>
<trkpt lat="55.722042" lon="26.550655">
<ele>150.369263</ele>
<time>2010-07-18T12:25:49Z</time>
<desc>lat.=55.722042, lon.=26.550655, Alt.=150.369263m. Speed=21.600000m/h.</desc>
<speed>6.000000</speed>
</trkpt>
<trkpt lat="55.722095" lon="26.550671">
<ele>150.380981</ele>
<time>2010-07-18T12:25:50Z</time>
<desc>lat.=55.722095, lon.=26.550671, Alt.=150.380981m. Speed=22.032000m/h.</desc>
<speed>6.120000</speed>
</trkpt>
<trkpt lat="55.722149" lon="26.550678">
<ele>150.431763</ele>
<time>2010-07-18T12:25:51Z</time>
<desc>lat.=55.722149, lon.=26.550678, Alt.=150.431763m. Speed=22.608000m/h.</desc>
<speed>6.280000</speed>
</trkpt>
<trkpt lat="55.722206" lon="26.550695">
<ele>150.412231</ele>
<time>2010-07-18T12:25:52Z</time>
<desc>lat.=55.722206, lon.=26.550695, Alt.=150.412231m. Speed=22.608000m/h.</desc>
<speed>6.280000</speed>
</trkpt>
<trkpt lat="55.722263" lon="26.550714">
<ele>150.295044</ele>
<time>2010-07-18T12:25:53Z</time>
<desc>lat.=55.722263, lon.=26.550714, Alt.=150.295044m. Speed=23.327999m/h.</desc>
<speed>6.480000</speed>
</trkpt>
<trkpt lat="55.722321" lon="26.550732">
<ele>150.369263</ele>
<time>2010-07-18T12:25:54Z</time>
<desc>lat.=55.722321, lon.=26.550732, Alt.=150.369263m. Speed=22.788000m/h.</desc>
<speed>6.330000</speed>
</trkpt>
<trkpt lat="55.722374" lon="26.550745">
<ele>150.533325</ele>
<time>2010-07-18T12:25:55Z</time>
<desc>lat.=55.722374, lon.=26.550745, Alt.=150.533325m. Speed=22.212000m/h.</desc>
<speed>6.170000</speed>
</trkpt>
<trkpt lat="55.722427" lon="26.550760">
<ele>150.638794</ele>
<time>2010-07-18T12:25:56Z</time>
<desc>lat.=55.722427, lon.=26.550760, Alt.=150.638794m. Speed=21.780001m/h.</desc>
<speed>6.050000</speed>
</trkpt>
<trkpt lat="55.722485" lon="26.550774">
<ele>150.670044</ele>
<time>2010-07-18T12:25:57Z</time>
<desc>lat.=55.722485, lon.=26.550774, Alt.=150.670044m. Speed=21.420000m/h.</desc>
<speed>5.950000</speed>
</trkpt>
<trkpt lat="55.722534" lon="26.550787">
<ele>150.877075</ele>
<time>2010-07-18T12:25:58Z</time>
<desc>lat.=55.722534, lon.=26.550787, Alt.=150.877075m. Speed=22.032000m/h.</desc>
<speed>6.120000</speed>
</trkpt>
<trkpt lat="55.722591" lon="26.550804">
<ele>151.037231</ele>
<time>2010-07-18T12:25:59Z</time>
<desc>lat.=55.722591, lon.=26.550804, Alt.=151.037231m. Speed=22.860001m/h.</desc>
<speed>6.350000</speed>
</trkpt>
<trkpt lat="55.722649" lon="26.550816">
<ele>151.568481</ele>
<time>2010-07-18T12:26:00Z</time>
<desc>lat.=55.722649, lon.=26.550816, Alt.=151.568481m. Speed=23.148001m/h.</desc>
<speed>6.430000</speed>
</trkpt>
<trkpt lat="55.722710" lon="26.550827">
<ele>152.013794</ele>
<time>2010-07-18T12:26:01Z</time>
<desc>lat.=55.722710, lon.=26.550827, Alt.=152.013794m. Speed=24.372000m/h.</desc>
<speed>6.770000</speed>
</trkpt>
<trkpt lat="55.722771" lon="26.550838">
<ele>152.361450</ele>
<time>2010-07-18T12:26:02Z</time>
<desc>lat.=55.722771, lon.=26.550838, Alt.=152.361450m. Speed=23.400000m/h.</desc>
<speed>6.500000</speed>
</trkpt>
<trkpt lat="55.722828" lon="26.550859">
<ele>152.005981</ele>
<time>2010-07-18T12:26:03Z</time>
<desc>lat.=55.722828, lon.=26.550859, Alt.=152.005981m. Speed=22.104000m/h.</desc>
<speed>6.140000</speed>
</trkpt>
<trkpt lat="55.722881" lon="26.550875">
<ele>152.146606</ele>
<time>2010-07-18T12:26:04Z</time>
<desc>lat.=55.722881, lon.=26.550875, Alt.=152.146606m. Speed=22.032000m/h.</desc>
<speed>6.120000</speed>
</trkpt>
<trkpt lat="55.722939" lon="26.550890">
<ele>152.185669</ele>
<time>2010-07-18T12:26:05Z</time>
<desc>lat.=55.722939, lon.=26.550890, Alt.=152.185669m. Speed=22.643999m/h.</desc>
<speed>6.290000</speed>
</trkpt>
<trkpt lat="55.722992" lon="26.550901">
<ele>152.298950</ele>
<time>2010-07-18T12:26:06Z</time>
<desc>lat.=55.722992, lon.=26.550901, Alt.=152.298950m. Speed=22.860001m/h.</desc>
<speed>6.350000</speed>
</trkpt>
<trkpt lat="55.723049" lon="26.550917">
<ele>152.525513</ele>
<time>2010-07-18T12:26:07Z</time>
<desc>lat.=55.723049, lon.=26.550917, Alt.=152.525513m. Speed=23.184000m/h.</desc>
<speed>6.440000</speed>
</trkpt>
<trkpt lat="55.723106" lon="26.550934">
<ele>152.630981</ele>
<time>2010-07-18T12:26:08Z</time>
<desc>lat.=55.723106, lon.=26.550934, Alt.=152.630981m. Speed=22.716000m/h.</desc>
<speed>6.310000</speed>
</trkpt>
<trkpt lat="55.723160" lon="26.550947">
<ele>152.845825</ele>
<time>2010-07-18T12:26:09Z</time>
<desc>lat.=55.723160, lon.=26.550947, Alt.=152.845825m. Speed=21.851999m/h.</desc>
<speed>6.070000</speed>
</trkpt>
<trkpt lat="55.723213" lon="26.550961">
<ele>153.037231</ele>
<time>2010-07-18T12:26:10Z</time>
<desc>lat.=55.723213, lon.=26.550961, Alt.=153.037231m. Speed=21.312000m/h.</desc>
<speed>5.920000</speed>
</trkpt>
<trkpt lat="55.723263" lon="26.550978">
<ele>153.103638</ele>
<time>2010-07-18T12:26:11Z</time>
<desc>lat.=55.723263, lon.=26.550978, Alt.=153.103638m. Speed=20.628000m/h.</desc>
<speed>5.730000</speed>
</trkpt>
<trkpt lat="55.723312" lon="26.550991">
<ele>153.029419</ele>
<time>2010-07-18T12:26:12Z</time>
<desc>lat.=55.723312, lon.=26.550991, Alt.=153.029419m. Speed=19.799999m/h.</desc>
<speed>5.500000</speed>
</trkpt>
<trkpt lat="55.723358" lon="26.551003">
<ele>152.697388</ele>
<time>2010-07-18T12:26:13Z</time>
<desc>lat.=55.723358, lon.=26.551003, Alt.=152.697388m. Speed=18.180000m/h.</desc>
<speed>5.050000</speed>
</trkpt>
<trkpt lat="55.723404" lon="26.551008">
<ele>152.736450</ele>
<time>2010-07-18T12:26:14Z</time>
<desc>lat.=55.723404, lon.=26.551008, Alt.=152.736450m. Speed=19.188000m/h.</desc>
<speed>5.330000</speed>
</trkpt>
<trkpt lat="55.723450" lon="26.551016">
<ele>152.748169</ele>
<time>2010-07-18T12:26:15Z</time>
<desc>lat.=55.723450, lon.=26.551016, Alt.=152.748169m. Speed=19.115999m/h.</desc>
<speed>5.310000</speed>
</trkpt>
<trkpt lat="55.723495" lon="26.551031">
<ele>152.697388</ele>
<time>2010-07-18T12:26:16Z</time>
<desc>lat.=55.723495, lon.=26.551031, Alt.=152.697388m. Speed=19.368000m/h.</desc>
<speed>5.380000</speed>
</trkpt>
<trkpt lat="55.723545" lon="26.551054">
<ele>152.771606</ele>
<time>2010-07-18T12:26:17Z</time>
<desc>lat.=55.723545, lon.=26.551054, Alt.=152.771606m. Speed=19.908001m/h.</desc>
<speed>5.530000</speed>
</trkpt>
<trkpt lat="55.723595" lon="26.551079">
<ele>152.822388</ele>
<time>2010-07-18T12:26:18Z</time>
<desc>lat.=55.723595, lon.=26.551079, Alt.=152.822388m. Speed=20.520000m/h.</desc>
<speed>5.700000</speed>
</trkpt>
<trkpt lat="55.723644" lon="26.551096">
<ele>152.752075</ele>
<time>2010-07-18T12:26:19Z</time>
<desc>lat.=55.723644, lon.=26.551096, Alt.=152.752075m. Speed=20.879999m/h.</desc>
<speed>5.800000</speed>
</trkpt>
<trkpt lat="55.723698" lon="26.551115">
<ele>152.564575</ele>
<time>2010-07-18T12:26:20Z</time>
<desc>lat.=55.723698, lon.=26.551115, Alt.=152.564575m. Speed=21.708000m/h.</desc>
<speed>6.030000</speed>
</trkpt>
<trkpt lat="55.723755" lon="26.551128">
<ele>152.490356</ele>
<time>2010-07-18T12:26:21Z</time>
<desc>lat.=55.723755, lon.=26.551128, Alt.=152.490356m. Speed=22.176001m/h.</desc>
<speed>6.160000</speed>
</trkpt>
<trkpt lat="55.723808" lon="26.551140">
<ele>152.623169</ele>
<time>2010-07-18T12:26:22Z</time>
<desc>lat.=55.723808, lon.=26.551140, Alt.=152.623169m. Speed=21.204000m/h.</desc>
<speed>5.890000</speed>
</trkpt>
<trkpt lat="55.723862" lon="26.551151">
<ele>152.603638</ele>
<time>2010-07-18T12:26:23Z</time>
<desc>lat.=55.723862, lon.=26.551151, Alt.=152.603638m. Speed=20.700001m/h.</desc>
<speed>5.750000</speed>
</trkpt>
<trkpt lat="55.723911" lon="26.551165">
<ele>152.865356</ele>
<time>2010-07-18T12:26:24Z</time>
<desc>lat.=55.723911, lon.=26.551165, Alt.=152.865356m. Speed=20.160000m/h.</desc>
<speed>5.600000</speed>
</trkpt>
<trkpt lat="55.723961" lon="26.551176">
<ele>152.900513</ele>
<time>2010-07-18T12:26:25Z</time>
<desc>lat.=55.723961, lon.=26.551176, Alt.=152.900513m. Speed=19.799999m/h.</desc>
<speed>5.500000</speed>
</trkpt>
<trkpt lat="55.724010" lon="26.551188">
<ele>153.021606</ele>
<time>2010-07-18T12:26:26Z</time>
<desc>lat.=55.724010, lon.=26.551188, Alt.=153.021606m. Speed=19.511999m/h.</desc>
<speed>5.420000</speed>
</trkpt>
<trkpt lat="55.724060" lon="26.551201">
<ele>153.095825</ele>
<time>2010-07-18T12:26:27Z</time>
<desc>lat.=55.724060, lon.=26.551201, Alt.=153.095825m. Speed=19.188000m/h.</desc>
<speed>5.330000</speed>
</trkpt>
<trkpt lat="55.724106" lon="26.551218">
<ele>153.127075</ele>
<time>2010-07-18T12:26:28Z</time>
<desc>lat.=55.724106, lon.=26.551218, Alt.=153.127075m. Speed=19.440001m/h.</desc>
<speed>5.400000</speed>
</trkpt>
<trkpt lat="55.724155" lon="26.551231">
<ele>153.170044</ele>
<time>2010-07-18T12:26:29Z</time>
<desc>lat.=55.724155, lon.=26.551231, Alt.=153.170044m. Speed=19.620001m/h.</desc>
<speed>5.450000</speed>
</trkpt>
<trkpt lat="55.724205" lon="26.551247">
<ele>153.166138</ele>
<time>2010-07-18T12:26:30Z</time>
<desc>lat.=55.724205, lon.=26.551247, Alt.=153.166138m. Speed=20.195999m/h.</desc>
<speed>5.610000</speed>
</trkpt>
<trkpt lat="55.724255" lon="26.551262">
<ele>153.213013</ele>
<time>2010-07-18T12:26:31Z</time>
<desc>lat.=55.724255, lon.=26.551262, Alt.=153.213013m. Speed=18.684000m/h.</desc>
<speed>5.190000</speed>
</trkpt>
<trkpt lat="55.724297" lon="26.551277">
<ele>153.173950</ele>
<time>2010-07-18T12:26:32Z</time>
<desc>lat.=55.724297, lon.=26.551277, Alt.=153.173950m. Speed=15.696000m/h.</desc>
<speed>4.360000</speed>
</trkpt>
<trkpt lat="55.724342" lon="26.551291">
<ele>153.134888</ele>
<time>2010-07-18T12:26:33Z</time>
<desc>lat.=55.724342, lon.=26.551291, Alt.=153.134888m. Speed=17.927999m/h.</desc>
<speed>4.980000</speed>
</trkpt>
<trkpt lat="55.724392" lon="26.551306">
<ele>153.048950</ele>
<time>2010-07-18T12:26:34Z</time>
<desc>lat.=55.724392, lon.=26.551306, Alt.=153.048950m. Speed=18.143999m/h.</desc>
<speed>5.040000</speed>
</trkpt>
<trkpt lat="55.724434" lon="26.551319">
<ele>152.966919</ele>
<time>2010-07-18T12:26:35Z</time>
<desc>lat.=55.724434, lon.=26.551319, Alt.=152.966919m. Speed=17.856001m/h.</desc>
<speed>4.960000</speed>
</trkpt>
<trkpt lat="55.724483" lon="26.551334">
<ele>152.935669</ele>
<time>2010-07-18T12:26:36Z</time>
<desc>lat.=55.724483, lon.=26.551334, Alt.=152.935669m. Speed=18.504000m/h.</desc>
<speed>5.140000</speed>
</trkpt>
<trkpt lat="55.724537" lon="26.551340">
<ele>152.904419</ele>
<time>2010-07-18T12:26:37Z</time>
<desc>lat.=55.724537, lon.=26.551340, Alt.=152.904419m. Speed=17.676001m/h.</desc>
<speed>4.910000</speed>
</trkpt>
<trkpt lat="55.724579" lon="26.551348">
<ele>152.798950</ele>
<time>2010-07-18T12:26:38Z</time>
<desc>lat.=55.724579, lon.=26.551348, Alt.=152.798950m. Speed=17.280001m/h.</desc>
<speed>4.800000</speed>
</trkpt>
<trkpt lat="55.724632" lon="26.551357">
<ele>152.986450</ele>
<time>2010-07-18T12:26:39Z</time>
<desc>lat.=55.724632, lon.=26.551357, Alt.=152.986450m. Speed=18.108000m/h.</desc>
<speed>5.030000</speed>
</trkpt>
<trkpt lat="55.724670" lon="26.551369">
<ele>152.763794</ele>
<time>2010-07-18T12:26:40Z</time>
<desc>lat.=55.724670, lon.=26.551369, Alt.=152.763794m. Speed=16.884001m/h.</desc>
<speed>4.690000</speed>
</trkpt>
<trkpt lat="55.724716" lon="26.551382">
<ele>152.670044</ele>
<time>2010-07-18T12:26:41Z</time>
<desc>lat.=55.724716, lon.=26.551382, Alt.=152.670044m. Speed=17.927999m/h.</desc>
<speed>4.980000</speed>
</trkpt>
<trkpt lat="55.724762" lon="26.551395">
<ele>152.580200</ele>
<time>2010-07-18T12:26:42Z</time>
<desc>lat.=55.724762, lon.=26.551395, Alt.=152.580200m. Speed=19.044001m/h.</desc>
<speed>5.290000</speed>
</trkpt>
<trkpt lat="55.724808" lon="26.551407">
<ele>152.275513</ele>
<time>2010-07-18T12:26:43Z</time>
<desc>lat.=55.724808, lon.=26.551407, Alt.=152.275513m. Speed=19.260000m/h.</desc>
<speed>5.350000</speed>
</trkpt>
<trkpt lat="55.724857" lon="26.551414">
<ele>151.896606</ele>
<time>2010-07-18T12:26:44Z</time>
<desc>lat.=55.724857, lon.=26.551414, Alt.=151.896606m. Speed=20.052000m/h.</desc>
<speed>5.570000</speed>
</trkpt>
<trkpt lat="55.724911" lon="26.551424">
<ele>151.884888</ele>
<time>2010-07-18T12:26:45Z</time>
<desc>lat.=55.724911, lon.=26.551424, Alt.=151.884888m. Speed=19.260000m/h.</desc>
<speed>5.350000</speed>
</trkpt>
<trkpt lat="55.724964" lon="26.551428">
<ele>151.755981</ele>
<time>2010-07-18T12:26:46Z</time>
<desc>lat.=55.724964, lon.=26.551428, Alt.=151.755981m. Speed=20.124001m/h.</desc>
<speed>5.590000</speed>
</trkpt>
<trkpt lat="55.725018" lon="26.551435">
<ele>151.666138</ele>
<time>2010-07-18T12:26:47Z</time>
<desc>lat.=55.725018, lon.=26.551435, Alt.=151.666138m. Speed=20.375999m/h.</desc>
<speed>5.660000</speed>
</trkpt>
<trkpt lat="55.725067" lon="26.551443">
<ele>151.509888</ele>
<time>2010-07-18T12:26:48Z</time>
<desc>lat.=55.725067, lon.=26.551443, Alt.=151.509888m. Speed=19.007999m/h.</desc>
<speed>5.280000</speed>
</trkpt>
<trkpt lat="55.725113" lon="26.551447">
<ele>151.334106</ele>
<time>2010-07-18T12:26:49Z</time>
<desc>lat.=55.725113, lon.=26.551447, Alt.=151.334106m. Speed=20.052000m/h.</desc>
<speed>5.570000</speed>
</trkpt>
<trkpt lat="55.725166" lon="26.551453">
<ele>151.287231</ele>
<time>2010-07-18T12:26:50Z</time>
<desc>lat.=55.725166, lon.=26.551453, Alt.=151.287231m. Speed=20.124001m/h.</desc>
<speed>5.590000</speed>
</trkpt>
<trkpt lat="55.725220" lon="26.551458">
<ele>151.295044</ele>
<time>2010-07-18T12:26:51Z</time>
<desc>lat.=55.725220, lon.=26.551458, Alt.=151.295044m. Speed=20.483999m/h.</desc>
<speed>5.690000</speed>
</trkpt>
<trkpt lat="55.725273" lon="26.551464">
<ele>151.369263</ele>
<time>2010-07-18T12:26:52Z</time>
<desc>lat.=55.725273, lon.=26.551464, Alt.=151.369263m. Speed=20.736000m/h.</desc>
<speed>5.760000</speed>
</trkpt>
<trkpt lat="55.725319" lon="26.551462">
<ele>151.162231</ele>
<time>2010-07-18T12:26:53Z</time>
<desc>lat.=55.725319, lon.=26.551462, Alt.=151.162231m. Speed=21.275999m/h.</desc>
<speed>5.910000</speed>
</trkpt>
<trkpt lat="55.725372" lon="26.551462">
<ele>151.088013</ele>
<time>2010-07-18T12:26:54Z</time>
<desc>lat.=55.725372, lon.=26.551462, Alt.=151.088013m. Speed=21.420000m/h.</desc>
<speed>5.950000</speed>
</trkpt>
<trkpt lat="55.725426" lon="26.551466">
<ele>150.806763</ele>
<time>2010-07-18T12:26:55Z</time>
<desc>lat.=55.725426, lon.=26.551466, Alt.=150.806763m. Speed=22.788000m/h.</desc>
<speed>6.330000</speed>
</trkpt>
<trkpt lat="55.725483" lon="26.551470">
<ele>150.927856</ele>
<time>2010-07-18T12:26:56Z</time>
<desc>lat.=55.725483, lon.=26.551470, Alt.=150.927856m. Speed=19.944000m/h.</desc>
<speed>5.540000</speed>
</trkpt>
<trkpt lat="55.725536" lon="26.551476">
<ele>151.091919</ele>
<time>2010-07-18T12:26:57Z</time>
<desc>lat.=55.725536, lon.=26.551476, Alt.=151.091919m. Speed=20.412001m/h.</desc>
<speed>5.670000</speed>
</trkpt>
<trkpt lat="55.725586" lon="26.551485">
<ele>150.548950</ele>
<time>2010-07-18T12:26:58Z</time>
<desc>lat.=55.725586, lon.=26.551485, Alt.=150.548950m. Speed=20.052000m/h.</desc>
<speed>5.570000</speed>
</trkpt>
<trkpt lat="55.725636" lon="26.551489">
<ele>150.638794</ele>
<time>2010-07-18T12:26:59Z</time>
<desc>lat.=55.725636, lon.=26.551489, Alt.=150.638794m. Speed=20.268000m/h.</desc>
<speed>5.630000</speed>
</trkpt>
<trkpt lat="55.725685" lon="26.551495">
<ele>150.584106</ele>
<time>2010-07-18T12:27:00Z</time>
<desc>lat.=55.725685, lon.=26.551495, Alt.=150.584106m. Speed=19.080000m/h.</desc>
<speed>5.300000</speed>
</trkpt>
<trkpt lat="55.725723" lon="26.551498">
<ele>150.646606</ele>
<time>2010-07-18T12:27:01Z</time>
<desc>lat.=55.725723, lon.=26.551498, Alt.=150.646606m. Speed=16.667999m/h.</desc>
<speed>4.630000</speed>
</trkpt>
<trkpt lat="55.725761" lon="26.551502">
<ele>150.603638</ele>
<time>2010-07-18T12:27:02Z</time>
<desc>lat.=55.725761, lon.=26.551502, Alt.=150.603638m. Speed=14.724000m/h.</desc>
<speed>4.090000</speed>
</trkpt>
<trkpt lat="55.725796" lon="26.551512">
<ele>150.560669</ele>
<time>2010-07-18T12:27:03Z</time>
<desc>lat.=55.725796, lon.=26.551512, Alt.=150.560669m. Speed=14.112000m/h.</desc>
<speed>3.920000</speed>
</trkpt>
<trkpt lat="55.725834" lon="26.551519">
<ele>150.845825</ele>
<time>2010-07-18T12:27:04Z</time>
<desc>lat.=55.725834, lon.=26.551519, Alt.=150.845825m. Speed=14.724000m/h.</desc>
<speed>4.090000</speed>
</trkpt>
<trkpt lat="55.725864" lon="26.551533">
<ele>150.920044</ele>
<time>2010-07-18T12:27:05Z</time>
<desc>lat.=55.725864, lon.=26.551533, Alt.=150.920044m. Speed=12.492000m/h.</desc>
<speed>3.470000</speed>
</trkpt>
<trkpt lat="55.725891" lon="26.551540">
<ele>151.029419</ele>
<time>2010-07-18T12:27:06Z</time>
<desc>lat.=55.725891, lon.=26.551540, Alt.=151.029419m. Speed=10.368000m/h.</desc>
<speed>2.880000</speed>
</trkpt>
<trkpt lat="55.725914" lon="26.551540">
<ele>151.185669</ele>
<time>2010-07-18T12:27:07Z</time>
<desc>lat.=55.725914, lon.=26.551540, Alt.=151.185669m. Speed=8.820000m/h.</desc>
<speed>2.450000</speed>
</trkpt>
<trkpt lat="55.725933" lon="26.551538">
<ele>151.353638</ele>
<time>2010-07-18T12:27:08Z</time>
<desc>lat.=55.725933, lon.=26.551538, Alt.=151.353638m. Speed=8.172000m/h.</desc>
<speed>2.270000</speed>
</trkpt>
<trkpt lat="55.725956" lon="26.551537">
<ele>151.470825</ele>
<time>2010-07-18T12:27:09Z</time>
<desc>lat.=55.725956, lon.=26.551537, Alt.=151.470825m. Speed=8.064000m/h.</desc>
<speed>2.240000</speed>
</trkpt>
<trkpt lat="55.725971" lon="26.551538">
<ele>151.482544</ele>
<time>2010-07-18T12:27:10Z</time>
<desc>lat.=55.725971, lon.=26.551538, Alt.=151.482544m. Speed=7.812000m/h.</desc>
<speed>2.170000</speed>
</trkpt>
<trkpt lat="55.725994" lon="26.551542">
<ele>151.443481</ele>
<time>2010-07-18T12:27:11Z</time>
<desc>lat.=55.725994, lon.=26.551542, Alt.=151.443481m. Speed=7.452000m/h.</desc>
<speed>2.070000</speed>
</trkpt>
<trkpt lat="55.726009" lon="26.551550">
<ele>151.291138</ele>
<time>2010-07-18T12:27:12Z</time>
<desc>lat.=55.726009, lon.=26.551550, Alt.=151.291138m. Speed=7.416000m/h.</desc>
<speed>2.060000</speed>
</trkpt>
<trkpt lat="55.726028" lon="26.551550">
<ele>151.216919</ele>
<time>2010-07-18T12:27:13Z</time>
<desc>lat.=55.726028, lon.=26.551550, Alt.=151.216919m. Speed=7.344000m/h.</desc>
<speed>2.040000</speed>
</trkpt>
<trkpt lat="55.726044" lon="26.551546">
<ele>151.463013</ele>
<time>2010-07-18T12:27:14Z</time>
<desc>lat.=55.726044, lon.=26.551546, Alt.=151.463013m. Speed=7.092000m/h.</desc>
<speed>1.970000</speed>
</trkpt>
<trkpt lat="55.726063" lon="26.551546">
<ele>151.666138</ele>
<time>2010-07-18T12:27:15Z</time>
<desc>lat.=55.726063, lon.=26.551546, Alt.=151.666138m. Speed=7.236000m/h.</desc>
<speed>2.010000</speed>
</trkpt>
<trkpt lat="55.726078" lon="26.551546">
<ele>151.853638</ele>
<time>2010-07-18T12:27:16Z</time>
<desc>lat.=55.726078, lon.=26.551546, Alt.=151.853638m. Speed=7.308000m/h.</desc>
<speed>2.030000</speed>
</trkpt>
<trkpt lat="55.726097" lon="26.551550">
<ele>151.966919</ele>
<time>2010-07-18T12:27:17Z</time>
<desc>lat.=55.726097, lon.=26.551550, Alt.=151.966919m. Speed=7.164000m/h.</desc>
<speed>1.990000</speed>
</trkpt>
<trkpt lat="55.726109" lon="26.551546">
<ele>152.224731</ele>
<time>2010-07-18T12:27:18Z</time>
<desc>lat.=55.726109, lon.=26.551546, Alt.=152.224731m. Speed=6.984000m/h.</desc>
<speed>1.940000</speed>
</trkpt>
<trkpt lat="55.726131" lon="26.551550">
<ele>152.357544</ele>
<time>2010-07-18T12:27:19Z</time>
<desc>lat.=55.726131, lon.=26.551550, Alt.=152.357544m. Speed=7.452000m/h.</desc>
<speed>2.070000</speed>
</trkpt>
<trkpt lat="55.726151" lon="26.551558">
<ele>152.349731</ele>
<time>2010-07-18T12:27:20Z</time>
<desc>lat.=55.726151, lon.=26.551558, Alt.=152.349731m. Speed=7.776000m/h.</desc>
<speed>2.160000</speed>
</trkpt>
<trkpt lat="55.726170" lon="26.551561">
<ele>152.545044</ele>
<time>2010-07-18T12:27:21Z</time>
<desc>lat.=55.726170, lon.=26.551561, Alt.=152.545044m. Speed=7.200000m/h.</desc>
<speed>2.000000</speed>
</trkpt>
<trkpt lat="55.726192" lon="26.551561">
<ele>152.908325</ele>
<time>2010-07-18T12:27:22Z</time>
<desc>lat.=55.726192, lon.=26.551561, Alt.=152.908325m. Speed=9.252000m/h.</desc>
<speed>2.570000</speed>
</trkpt>
<trkpt lat="55.726215" lon="26.551565">
<ele>153.029419</ele>
<time>2010-07-18T12:27:23Z</time>
<desc>lat.=55.726215, lon.=26.551565, Alt.=153.029419m. Speed=10.980000m/h.</desc>
<speed>3.050000</speed>
</trkpt>
<trkpt lat="55.726242" lon="26.551556">
<ele>153.420044</ele>
<time>2010-07-18T12:27:24Z</time>
<desc>lat.=55.726242, lon.=26.551556, Alt.=153.420044m. Speed=9.324000m/h.</desc>
<speed>2.590000</speed>
</trkpt>
<trkpt lat="55.726269" lon="26.551548">
<ele>153.466919</ele>
<time>2010-07-18T12:27:25Z</time>
<desc>lat.=55.726269, lon.=26.551548, Alt.=153.466919m. Speed=11.448000m/h.</desc>
<speed>3.180000</speed>
</trkpt>
<trkpt lat="55.726299" lon="26.551550">
<ele>153.146606</ele>
<time>2010-07-18T12:27:26Z</time>
<desc>lat.=55.726299, lon.=26.551550, Alt.=153.146606m. Speed=14.328000m/h.</desc>
<speed>3.980000</speed>
</trkpt>
<trkpt lat="55.726334" lon="26.551569">
<ele>152.974731</ele>
<time>2010-07-18T12:27:27Z</time>
<desc>lat.=55.726334, lon.=26.551569, Alt.=152.974731m. Speed=13.896000m/h.</desc>
<speed>3.860000</speed>
</trkpt>
<trkpt lat="55.726368" lon="26.551588">
<ele>152.931763</ele>
<time>2010-07-18T12:27:28Z</time>
<desc>lat.=55.726368, lon.=26.551588, Alt.=152.931763m. Speed=13.932000m/h.</desc>
<speed>3.870000</speed>
</trkpt>
<trkpt lat="55.726402" lon="26.551605">
<ele>152.002075</ele>
<time>2010-07-18T12:27:29Z</time>
<desc>lat.=55.726402, lon.=26.551605, Alt.=152.002075m. Speed=13.968000m/h.</desc>
<speed>3.880000</speed>
</trkpt>
<trkpt lat="55.726440" lon="26.551607">
<ele>152.216919</ele>
<time>2010-07-18T12:27:30Z</time>
<desc>lat.=55.726440, lon.=26.551607, Alt.=152.216919m. Speed=14.220000m/h.</desc>
<speed>3.950000</speed>
</trkpt>
<trkpt lat="55.726475" lon="26.551613">
<ele>151.974731</ele>
<time>2010-07-18T12:27:31Z</time>
<desc>lat.=55.726475, lon.=26.551613, Alt.=151.974731m. Speed=14.112000m/h.</desc>
<speed>3.920000</speed>
</trkpt>
<trkpt lat="55.726509" lon="26.551628">
<ele>151.482544</ele>
<time>2010-07-18T12:27:32Z</time>
<desc>lat.=55.726509, lon.=26.551628, Alt.=151.482544m. Speed=14.328000m/h.</desc>
<speed>3.980000</speed>
</trkpt>
<trkpt lat="55.726547" lon="26.551632">
<ele>151.486450</ele>
<time>2010-07-18T12:27:33Z</time>
<desc>lat.=55.726547, lon.=26.551632, Alt.=151.486450m. Speed=14.616000m/h.</desc>
<speed>4.060000</speed>
</trkpt>
<trkpt lat="55.726585" lon="26.551638">
<ele>150.939575</ele>
<time>2010-07-18T12:27:34Z</time>
<desc>lat.=55.726585, lon.=26.551638, Alt.=150.939575m. Speed=14.544000m/h.</desc>
<speed>4.040000</speed>
</trkpt>
<trkpt lat="55.726620" lon="26.551643">
<ele>150.935669</ele>
<time>2010-07-18T12:27:35Z</time>
<desc>lat.=55.726620, lon.=26.551643, Alt.=150.935669m. Speed=14.616000m/h.</desc>
<speed>4.060000</speed>
</trkpt>
<trkpt lat="55.726654" lon="26.551651">
<ele>150.451294</ele>
<time>2010-07-18T12:27:36Z</time>
<desc>lat.=55.726654, lon.=26.551651, Alt.=150.451294m. Speed=14.652000m/h.</desc>
<speed>4.070000</speed>
</trkpt>
<trkpt lat="55.726692" lon="26.551653">
<ele>150.552856</ele>
<time>2010-07-18T12:27:37Z</time>
<desc>lat.=55.726692, lon.=26.551653, Alt.=150.552856m. Speed=14.796000m/h.</desc>
<speed>4.110000</speed>
</trkpt>
<trkpt lat="55.726730" lon="26.551662">
<ele>150.677856</ele>
<time>2010-07-18T12:27:38Z</time>
<desc>lat.=55.726730, lon.=26.551662, Alt.=150.677856m. Speed=14.220000m/h.</desc>
<speed>3.950000</speed>
</trkpt>
<trkpt lat="55.726765" lon="26.551672">
<ele>150.826294</ele>
<time>2010-07-18T12:27:39Z</time>
<desc>lat.=55.726765, lon.=26.551672, Alt.=150.826294m. Speed=14.472000m/h.</desc>
<speed>4.020000</speed>
</trkpt>
<trkpt lat="55.726803" lon="26.551683">
<ele>150.685669</ele>
<time>2010-07-18T12:27:40Z</time>
<desc>lat.=55.726803, lon.=26.551683, Alt.=150.685669m. Speed=14.508000m/h.</desc>
<speed>4.030000</speed>
</trkpt>
<trkpt lat="55.726837" lon="26.551691">
<ele>150.533325</ele>
<time>2010-07-18T12:27:41Z</time>
<desc>lat.=55.726837, lon.=26.551691, Alt.=150.533325m. Speed=14.724000m/h.</desc>
<speed>4.090000</speed>
</trkpt>
<trkpt lat="55.726871" lon="26.551701">
<ele>150.564575</ele>
<time>2010-07-18T12:27:42Z</time>
<desc>lat.=55.726871, lon.=26.551701, Alt.=150.564575m. Speed=13.968000m/h.</desc>
<speed>3.880000</speed>
</trkpt>
<trkpt lat="55.726906" lon="26.551710">
<ele>150.709106</ele>
<time>2010-07-18T12:27:43Z</time>
<desc>lat.=55.726906, lon.=26.551710, Alt.=150.709106m. Speed=12.096000m/h.</desc>
<speed>3.360000</speed>
</trkpt>
<trkpt lat="55.726933" lon="26.551712">
<ele>150.545044</ele>
<time>2010-07-18T12:27:44Z</time>
<desc>lat.=55.726933, lon.=26.551712, Alt.=150.545044m. Speed=11.592000m/h.</desc>
<speed>3.220000</speed>
</trkpt>
<trkpt lat="55.726963" lon="26.551718">
<ele>150.275513</ele>
<time>2010-07-18T12:27:45Z</time>
<desc>lat.=55.726963, lon.=26.551718, Alt.=150.275513m. Speed=10.764000m/h.</desc>
<speed>2.990000</speed>
</trkpt>
<trkpt lat="55.726990" lon="26.551716">
<ele>150.216919</ele>
<time>2010-07-18T12:27:46Z</time>
<desc>lat.=55.726990, lon.=26.551716, Alt.=150.216919m. Speed=10.584000m/h.</desc>
<speed>2.940000</speed>
</trkpt>
<trkpt lat="55.727020" lon="26.551712">
<ele>149.720825</ele>
<time>2010-07-18T12:27:47Z</time>
<desc>lat.=55.727020, lon.=26.551712, Alt.=149.720825m. Speed=11.160000m/h.</desc>
<speed>3.100000</speed>
</trkpt>
<trkpt lat="55.727047" lon="26.551708">
<ele>149.580200</ele>
<time>2010-07-18T12:27:48Z</time>
<desc>lat.=55.727047, lon.=26.551708, Alt.=149.580200m. Speed=9.432000m/h.</desc>
<speed>2.620000</speed>
</trkpt>
<trkpt lat="55.727074" lon="26.551701">
<ele>148.572388</ele>
<time>2010-07-18T12:27:49Z</time>
<desc>lat.=55.727074, lon.=26.551701, Alt.=148.572388m. Speed=9.288000m/h.</desc>
<speed>2.580000</speed>
</trkpt>
<trkpt lat="55.727093" lon="26.551685">
<ele>147.966919</ele>
<time>2010-07-18T12:27:50Z</time>
<desc>lat.=55.727093, lon.=26.551685, Alt.=147.966919m. Speed=7.740000m/h.</desc>
<speed>2.150000</speed>
</trkpt>
<trkpt lat="55.727100" lon="26.551657">
<ele>147.927856</ele>
<time>2010-07-18T12:27:51Z</time>
<desc>lat.=55.727100, lon.=26.551657, Alt.=147.927856m. Speed=7.308000m/h.</desc>
<speed>2.030000</speed>
</trkpt>
<trkpt lat="55.727104" lon="26.551622">
<ele>147.443481</ele>
<time>2010-07-18T12:27:52Z</time>
<desc>lat.=55.727104, lon.=26.551622, Alt.=147.443481m. Speed=8.100000m/h.</desc>
<speed>2.250000</speed>
</trkpt>
<trkpt lat="55.727108" lon="26.551586">
<ele>147.584106</ele>
<time>2010-07-18T12:27:53Z</time>
<desc>lat.=55.727108, lon.=26.551586, Alt.=147.584106m. Speed=8.424000m/h.</desc>
<speed>2.340000</speed>
</trkpt>
<trkpt lat="55.727108" lon="26.551542">
<ele>147.435669</ele>
<time>2010-07-18T12:27:54Z</time>
<desc>lat.=55.727108, lon.=26.551542, Alt.=147.435669m. Speed=10.872000m/h.</desc>
<speed>3.020000</speed>
</trkpt>
<trkpt lat="55.727108" lon="26.551495">
<ele>146.740356</ele>
<time>2010-07-18T12:27:55Z</time>
<desc>lat.=55.727108, lon.=26.551495, Alt.=146.740356m. Speed=12.456000m/h.</desc>
<speed>3.460000</speed>
</trkpt>
<trkpt lat="55.727104" lon="26.551432">
<ele>146.361450</ele>
<time>2010-07-18T12:27:56Z</time>
<desc>lat.=55.727104, lon.=26.551432, Alt.=146.361450m. Speed=15.336000m/h.</desc>
<speed>4.260000</speed>
</trkpt>
<trkpt lat="55.727108" lon="26.551363">
<ele>146.392700</ele>
<time>2010-07-18T12:27:57Z</time>
<desc>lat.=55.727108, lon.=26.551363, Alt.=146.392700m. Speed=15.660000m/h.</desc>
<speed>4.350000</speed>
</trkpt>
<trkpt lat="55.727112" lon="26.551296">
<ele>146.341919</ele>
<time>2010-07-18T12:27:58Z</time>
<desc>lat.=55.727112, lon.=26.551296, Alt.=146.341919m. Speed=15.840000m/h.</desc>
<speed>4.400000</speed>
</trkpt>
<trkpt lat="55.727116" lon="26.551226">
<ele>146.205200</ele>
<time>2010-07-18T12:27:59Z</time>
<desc>lat.=55.727116, lon.=26.551226, Alt.=146.205200m. Speed=16.596001m/h.</desc>
<speed>4.610000</speed>
</trkpt>
<trkpt lat="55.727116" lon="26.551149">
<ele>146.650513</ele>
<time>2010-07-18T12:28:00Z</time>
<desc>lat.=55.727116, lon.=26.551149, Alt.=146.650513m. Speed=16.559999m/h.</desc>
<speed>4.600000</speed>
</trkpt>
<trkpt lat="55.727123" lon="26.551081">
<ele>146.560669</ele>
<time>2010-07-18T12:28:01Z</time>
<desc>lat.=55.727123, lon.=26.551081, Alt.=146.560669m. Speed=15.048000m/h.</desc>
<speed>4.180000</speed>
</trkpt>
<trkpt lat="55.727123" lon="26.551022">
<ele>146.365356</ele>
<time>2010-07-18T12:28:02Z</time>
<desc>lat.=55.727123, lon.=26.551022, Alt.=146.365356m. Speed=11.088000m/h.</desc>
<speed>3.080000</speed>
</trkpt>
<trkpt lat="55.727119" lon="26.550978">
<ele>146.103638</ele>
<time>2010-07-18T12:28:03Z</time>
<desc>lat.=55.727119, lon.=26.550978, Alt.=146.103638m. Speed=8.028000m/h.</desc>
<speed>2.230000</speed>
</trkpt>
<trkpt lat="55.727116" lon="26.550951">
<ele>145.865356</ele>
<time>2010-07-18T12:28:04Z</time>
<desc>lat.=55.727116, lon.=26.550951, Alt.=145.865356m. Speed=6.444000m/h.</desc>
<speed>1.790000</speed>
</trkpt>
<trkpt lat="55.727104" lon="26.550926">
<ele>146.158325</ele>
<time>2010-07-18T12:28:05Z</time>
<desc>lat.=55.727104, lon.=26.550926, Alt.=146.158325m. Speed=6.012000m/h.</desc>
<speed>1.670000</speed>
</trkpt>
<trkpt lat="55.727093" lon="26.550898">
<ele>146.533325</ele>
<time>2010-07-18T12:28:06Z</time>
<desc>lat.=55.727093, lon.=26.550898, Alt.=146.533325m. Speed=6.084000m/h.</desc>
<speed>1.690000</speed>
</trkpt>
<trkpt lat="55.727081" lon="26.550871">
<ele>147.025513</ele>
<time>2010-07-18T12:28:07Z</time>
<desc>lat.=55.727081, lon.=26.550871, Alt.=147.025513m. Speed=8.208000m/h.</desc>
<speed>2.280000</speed>
</trkpt>
<trkpt lat="55.727070" lon="26.550846">
<ele>147.005981</ele>
<time>2010-07-18T12:28:08Z</time>
<desc>lat.=55.727070, lon.=26.550846, Alt.=147.005981m. Speed=7.092000m/h.</desc>
<speed>1.970000</speed>
</trkpt>
<trkpt lat="55.727055" lon="26.550825">
<ele>147.091919</ele>
<time>2010-07-18T12:28:09Z</time>
<desc>lat.=55.727055, lon.=26.550825, Alt.=147.091919m. Speed=6.840000m/h.</desc>
<speed>1.900000</speed>
</trkpt>
<trkpt lat="55.727043" lon="26.550812">
<ele>146.892700</ele>
<time>2010-07-18T12:28:10Z</time>
<desc>lat.=55.727043, lon.=26.550812, Alt.=146.892700m. Speed=5.760000m/h.</desc>
<speed>1.600000</speed>
</trkpt>
<trkpt lat="55.727032" lon="26.550806">
<ele>147.025513</ele>
<time>2010-07-18T12:28:11Z</time>
<desc>lat.=55.727032, lon.=26.550806, Alt.=147.025513m. Speed=1.908000m/h.</desc>
<speed>0.530000</speed>
</trkpt>
<trkpt lat="55.727032" lon="26.550806">
<ele>147.119263</ele>
<time>2010-07-18T12:28:12Z</time>
<desc>lat.=55.727032, lon.=26.550806, Alt.=147.119263m. Speed=0.396000m/h.</desc>
<speed>0.110000</speed>
</trkpt>
<trkpt lat="55.727028" lon="26.550810">
<ele>147.064575</ele>
<time>2010-07-18T12:28:13Z</time>
<desc>lat.=55.727028, lon.=26.550810, Alt.=147.064575m. Speed=0.576000m/h.</desc>
<speed>0.160000</speed>
</trkpt>
<trkpt lat="55.727024" lon="26.550816">
<ele>147.240356</ele>
<time>2010-07-18T12:28:14Z</time>
<desc>lat.=55.727024, lon.=26.550816, Alt.=147.240356m. Speed=0.792000m/h.</desc>
<speed>0.220000</speed>
</trkpt>
<trkpt lat="55.727024" lon="26.550819">
<ele>147.267700</ele>
<time>2010-07-18T12:28:15Z</time>
<desc>lat.=55.727024, lon.=26.550819, Alt.=147.267700m. Speed=0.324000m/h.</desc>
<speed>0.090000</speed>
</trkpt>
<trkpt lat="55.727024" lon="26.550819">
<ele>147.295044</ele>
<time>2010-07-18T12:28:16Z</time>
<desc>lat.=55.727024, lon.=26.550819, Alt.=147.295044m. Speed=0.324000m/h.</desc>
<speed>0.090000</speed>
</trkpt>
<trkpt lat="55.727020" lon="26.550819">
<ele>147.314575</ele>
<time>2010-07-18T12:28:17Z</time>
<desc>lat.=55.727020, lon.=26.550819, Alt.=147.314575m. Speed=0.540000m/h.</desc>
<speed>0.150000</speed>
</trkpt>
<trkpt lat="55.727020" lon="26.550821">
<ele>147.330200</ele>
<time>2010-07-18T12:28:18Z</time>
<desc>lat.=55.727020, lon.=26.550821, Alt.=147.330200m. Speed=0.540000m/h.</desc>
<speed>0.150000</speed>
</trkpt>
<trkpt lat="55.727020" lon="26.550823">
<ele>147.341919</ele>
<time>2010-07-18T12:28:19Z</time>
<desc>lat.=55.727020, lon.=26.550823, Alt.=147.341919m. Speed=0.288000m/h.</desc>
<speed>0.080000</speed>
</trkpt>
<trkpt lat="55.727020" lon="26.550823">
<ele>147.353638</ele>
<time>2010-07-18T12:28:20Z</time>
<desc>lat.=55.727020, lon.=26.550823, Alt.=147.353638m. Speed=0.324000m/h.</desc>
<speed>0.090000</speed>
</trkpt>
<trkpt lat="55.727016" lon="26.550825">
<ele>147.361450</ele>
<time>2010-07-18T12:28:21Z</time>
<desc>lat.=55.727016, lon.=26.550825, Alt.=147.361450m. Speed=0.252000m/h.</desc>
<speed>0.070000</speed>
</trkpt>
<trkpt lat="55.727020" lon="26.550825">
<ele>147.369263</ele>
<time>2010-07-18T12:28:22Z</time>
<desc>lat.=55.727020, lon.=26.550825, Alt.=147.369263m. Speed=0.540000m/h.</desc>
<speed>0.150000</speed>
</trkpt>
<trkpt lat="55.727020" lon="26.550825">
<ele>147.380981</ele>
<time>2010-07-18T12:28:23Z</time>
<desc>lat.=55.727020, lon.=26.550825, Alt.=147.380981m. Speed=0.288000m/h.</desc>
<speed>0.080000</speed>
</trkpt>
<trkpt lat="55.727020" lon="26.550825">
<ele>147.396606</ele>
<time>2010-07-18T12:28:24Z</time>
<desc>lat.=55.727020, lon.=26.550825, Alt.=147.396606m. Speed=0.216000m/h.</desc>
<speed>0.060000</speed>
</trkpt>
<trkpt lat="55.727020" lon="26.550827">
<ele>147.408325</ele>
<time>2010-07-18T12:28:25Z</time>
<desc>lat.=55.727020, lon.=26.550827, Alt.=147.408325m. Speed=0.180000m/h.</desc>
<speed>0.050000</speed>
</trkpt>
<trkpt lat="55.727020" lon="26.550825">
<ele>147.420044</ele>
<time>2010-07-18T12:28:26Z</time>
<desc>lat.=55.727020, lon.=26.550825, Alt.=147.420044m. Speed=0.144000m/h.</desc>
<speed>0.040000</speed>
</trkpt>
<trkpt lat="55.727020" lon="26.550825">
<ele>147.431763</ele>
<time>2010-07-18T12:28:27Z</time>
<desc>lat.=55.727020, lon.=26.550825, Alt.=147.431763m. Speed=0.648000m/h.</desc>
<speed>0.180000</speed>
</trkpt>
<trkpt lat="55.727016" lon="26.550827">
<ele>147.443481</ele>
<time>2010-07-18T12:28:28Z</time>
<desc>lat.=55.727016, lon.=26.550827, Alt.=147.443481m. Speed=0.756000m/h.</desc>
<speed>0.210000</speed>
</trkpt>
<trkpt lat="55.727016" lon="26.550827">
<ele>147.443481</ele>
<time>2010-07-18T12:28:29Z</time>
<desc>lat.=55.727016, lon.=26.550827, Alt.=147.443481m. Speed=1.152000m/h.</desc>
<speed>0.320000</speed>
</trkpt>
<trkpt lat="55.727013" lon="26.550827">
<ele>147.431763</ele>
<time>2010-07-18T12:28:30Z</time>
<desc>lat.=55.727013, lon.=26.550827, Alt.=147.431763m. Speed=1.116000m/h.</desc>
<speed>0.310000</speed>
</trkpt>
<trkpt lat="55.727013" lon="26.550827">
<ele>147.416138</ele>
<time>2010-07-18T12:28:31Z</time>
<desc>lat.=55.727013, lon.=26.550827, Alt.=147.416138m. Speed=0.756000m/h.</desc>
<speed>0.210000</speed>
</trkpt>
<trkpt lat="55.727009" lon="26.550825">
<ele>147.400513</ele>
<time>2010-07-18T12:28:32Z</time>
<desc>lat.=55.727009, lon.=26.550825, Alt.=147.400513m. Speed=0.360000m/h.</desc>
<speed>0.100000</speed>
</trkpt>
<trkpt lat="55.727009" lon="26.550823">
<ele>147.384888</ele>
<time>2010-07-18T12:28:33Z</time>
<desc>lat.=55.727009, lon.=26.550823, Alt.=147.384888m. Speed=1.260000m/h.</desc>
<speed>0.350000</speed>
</trkpt>
<trkpt lat="55.727005" lon="26.550821">
<ele>147.377075</ele>
<time>2010-07-18T12:28:34Z</time>
<desc>lat.=55.727005, lon.=26.550821, Alt.=147.377075m. Speed=0.540000m/h.</desc>
<speed>0.150000</speed>
</trkpt>
<trkpt lat="55.727005" lon="26.550821">
<ele>147.373169</ele>
<time>2010-07-18T12:28:35Z</time>
<desc>lat.=55.727005, lon.=26.550821, Alt.=147.373169m. Speed=0.576000m/h.</desc>
<speed>0.160000</speed>
</trkpt>
<trkpt lat="55.727005" lon="26.550821">
<ele>147.365356</ele>
<time>2010-07-18T12:28:36Z</time>
<desc>lat.=55.727005, lon.=26.550821, Alt.=147.365356m. Speed=0.684000m/h.</desc>
<speed>0.190000</speed>
</trkpt>
<trkpt lat="55.727001" lon="26.550819">
<ele>147.361450</ele>
<time>2010-07-18T12:28:37Z</time>
<desc>lat.=55.727001, lon.=26.550819, Alt.=147.361450m. Speed=0.360000m/h.</desc>
<speed>0.100000</speed>
</trkpt>
<trkpt lat="55.727001" lon="26.550819">
<ele>147.334106</ele>
<time>2010-07-18T12:28:38Z</time>
<desc>lat.=55.727001, lon.=26.550819, Alt.=147.334106m. Speed=0.504000m/h.</desc>
<speed>0.140000</speed>
</trkpt>
<trkpt lat="55.727001" lon="26.550821">
<ele>147.306763</ele>
<time>2010-07-18T12:28:39Z</time>
<desc>lat.=55.727001, lon.=26.550821, Alt.=147.306763m. Speed=0.288000m/h.</desc>
<speed>0.080000</speed>
</trkpt>
<trkpt lat="55.727001" lon="26.550821">
<ele>147.295044</ele>
<time>2010-07-18T12:28:40Z</time>
<desc>lat.=55.727001, lon.=26.550821, Alt.=147.295044m. Speed=0.216000m/h.</desc>
<speed>0.060000</speed>
</trkpt>
<trkpt lat="55.727001" lon="26.550821">
<ele>147.287231</ele>
<time>2010-07-18T12:28:41Z</time>
<desc>lat.=55.727001, lon.=26.550821, Alt.=147.287231m. Speed=0.828000m/h.</desc>
<speed>0.230000</speed>
</trkpt>
<trkpt lat="55.727001" lon="26.550819">
<ele>147.271606</ele>
<time>2010-07-18T12:28:42Z</time>
<desc>lat.=55.727001, lon.=26.550819, Alt.=147.271606m. Speed=0.720000m/h.</desc>
<speed>0.200000</speed>
</trkpt>
<trkpt lat="55.727005" lon="26.550817">
<ele>147.263794</ele>
<time>2010-07-18T12:28:43Z</time>
<desc>lat.=55.727005, lon.=26.550817, Alt.=147.263794m. Speed=0.612000m/h.</desc>
<speed>0.170000</speed>
</trkpt>
<trkpt lat="55.727005" lon="26.550817">
<ele>147.259888</ele>
<time>2010-07-18T12:28:44Z</time>
<desc>lat.=55.727005, lon.=26.550817, Alt.=147.259888m. Speed=0.648000m/h.</desc>
<speed>0.180000</speed>
</trkpt>
<trkpt lat="55.727005" lon="26.550816">
<ele>147.255981</ele>
<time>2010-07-18T12:28:45Z</time>
<desc>lat.=55.727005, lon.=26.550816, Alt.=147.255981m. Speed=0.864000m/h.</desc>
<speed>0.240000</speed>
</trkpt>
<trkpt lat="55.727009" lon="26.550814">
<ele>147.255981</ele>
<time>2010-07-18T12:28:46Z</time>
<desc>lat.=55.727009, lon.=26.550814, Alt.=147.255981m. Speed=0.792000m/h.</desc>
<speed>0.220000</speed>
</trkpt>
<trkpt lat="55.727013" lon="26.550814">
<ele>147.248169</ele>
<time>2010-07-18T12:28:47Z</time>
<desc>lat.=55.727013, lon.=26.550814, Alt.=147.248169m. Speed=0.288000m/h.</desc>
<speed>0.080000</speed>
</trkpt>
<trkpt lat="55.727013" lon="26.550814">
<ele>147.263794</ele>
<time>2010-07-18T12:28:48Z</time>
<desc>lat.=55.727013, lon.=26.550814, Alt.=147.263794m. Speed=0.756000m/h.</desc>
<speed>0.210000</speed>
</trkpt>
<trkpt lat="55.727013" lon="26.550814">
<ele>147.291138</ele>
<time>2010-07-18T12:28:49Z</time>
<desc>lat.=55.727013, lon.=26.550814, Alt.=147.291138m. Speed=0.756000m/h.</desc>
<speed>0.210000</speed>
</trkpt>
<trkpt lat="55.727016" lon="26.550814">
<ele>147.318481</ele>
<time>2010-07-18T12:28:50Z</time>
<desc>lat.=55.727016, lon.=26.550814, Alt.=147.318481m. Speed=0.504000m/h.</desc>
<speed>0.140000</speed>
</trkpt>
<trkpt lat="55.727016" lon="26.550814">
<ele>147.349731</ele>
<time>2010-07-18T12:28:51Z</time>
<desc>lat.=55.727016, lon.=26.550814, Alt.=147.349731m. Speed=0.180000m/h.</desc>
<speed>0.050000</speed>
</trkpt>
<trkpt lat="55.727016" lon="26.550814">
<ele>147.384888</ele>
<time>2010-07-18T12:28:52Z</time>
<desc>lat.=55.727016, lon.=26.550814, Alt.=147.384888m. Speed=0.252000m/h.</desc>
<speed>0.070000</speed>
</trkpt>
<trkpt lat="55.727016" lon="26.550814">
<ele>147.377075</ele>
<time>2010-07-18T12:28:53Z</time>
<desc>lat.=55.727016, lon.=26.550814, Alt.=147.377075m. Speed=0.036000m/h.</desc>
<speed>0.010000</speed>
</trkpt>
<trkpt lat="55.727016" lon="26.550812">
<ele>147.357544</ele>
<time>2010-07-18T12:28:54Z</time>
<desc>lat.=55.727016, lon.=26.550812, Alt.=147.357544m. Speed=0.108000m/h.</desc>
<speed>0.030000</speed>
</trkpt>
<trkpt lat="55.727020" lon="26.550812">
<ele>147.330200</ele>
<time>2010-07-18T12:28:55Z</time>
<desc>lat.=55.727020, lon.=26.550812, Alt.=147.330200m. Speed=0.288000m/h.</desc>
<speed>0.080000</speed>
</trkpt>
<trkpt lat="55.727020" lon="26.550812">
<ele>147.302856</ele>
<time>2010-07-18T12:28:56Z</time>
<desc>lat.=55.727020, lon.=26.550812, Alt.=147.302856m. Speed=0.216000m/h.</desc>
<speed>0.060000</speed>
</trkpt>
<trkpt lat="55.727020" lon="26.550810">
<ele>147.275513</ele>
<time>2010-07-18T12:28:57Z</time>
<desc>lat.=55.727020, lon.=26.550810, Alt.=147.275513m. Speed=0.252000m/h.</desc>
<speed>0.070000</speed>
</trkpt>
<trkpt lat="55.727020" lon="26.550810">
<ele>147.259888</ele>
<time>2010-07-18T12:28:58Z</time>
<desc>lat.=55.727020, lon.=26.550810, Alt.=147.259888m. Speed=0.540000m/h.</desc>
<speed>0.150000</speed>
</trkpt>
<trkpt lat="55.727020" lon="26.550808">
<ele>147.244263</ele>
<time>2010-07-18T12:28:59Z</time>
<desc>lat.=55.727020, lon.=26.550808, Alt.=147.244263m. Speed=0.576000m/h.</desc>
<speed>0.160000</speed>
</trkpt>
<trkpt lat="55.727020" lon="26.550806">
<ele>147.232544</ele>
<time>2010-07-18T12:29:00Z</time>
<desc>lat.=55.727020, lon.=26.550806, Alt.=147.232544m. Speed=0.720000m/h.</desc>
<speed>0.200000</speed>
</trkpt>
<trkpt lat="55.727016" lon="26.550802">
<ele>147.224731</ele>
<time>2010-07-18T12:29:01Z</time>
<desc>lat.=55.727016, lon.=26.550802, Alt.=147.224731m. Speed=0.900000m/h.</desc>
<speed>0.250000</speed>
</trkpt>
<trkpt lat="55.727020" lon="26.550798">
<ele>147.220825</ele>
<time>2010-07-18T12:29:02Z</time>
<desc>lat.=55.727020, lon.=26.550798, Alt.=147.220825m. Speed=0.684000m/h.</desc>
<speed>0.190000</speed>
</trkpt>
<trkpt lat="55.727020" lon="26.550795">
<ele>147.213013</ele>
<time>2010-07-18T12:29:03Z</time>
<desc>lat.=55.727020, lon.=26.550795, Alt.=147.213013m. Speed=0.648000m/h.</desc>
<speed>0.180000</speed>
</trkpt>
<trkpt lat="55.727016" lon="26.550793">
<ele>147.197388</ele>
<time>2010-07-18T12:29:04Z</time>
<desc>lat.=55.727016, lon.=26.550793, Alt.=147.197388m. Speed=0.324000m/h.</desc>
<speed>0.090000</speed>
</trkpt>
<trkpt lat="55.727016" lon="26.550791">
<ele>147.181763</ele>
<time>2010-07-18T12:29:05Z</time>
<desc>lat.=55.727016, lon.=26.550791, Alt.=147.181763m. Speed=0.180000m/h.</desc>
<speed>0.050000</speed>
</trkpt>
<trkpt lat="55.727016" lon="26.550791">
<ele>147.170044</ele>
<time>2010-07-18T12:29:06Z</time>
<desc>lat.=55.727016, lon.=26.550791, Alt.=147.170044m. Speed=0.000000m/h.</desc>
<speed>0.000000</speed>
</trkpt>
<trkpt lat="55.727016" lon="26.550791">
<ele>147.154419</ele>
<time>2010-07-18T12:29:07Z</time>
<desc>lat.=55.727016, lon.=26.550791, Alt.=147.154419m. Speed=0.504000m/h.</desc>
<speed>0.140000</speed>
</trkpt>
<trkpt lat="55.727016" lon="26.550793">
<ele>147.146606</ele>
<time>2010-07-18T12:29:08Z</time>
<desc>lat.=55.727016, lon.=26.550793, Alt.=147.146606m. Speed=0.288000m/h.</desc>
<speed>0.080000</speed>
</trkpt>
<trkpt lat="55.727016" lon="26.550793">
<ele>147.134888</ele>
<time>2010-07-18T12:29:09Z</time>
<desc>lat.=55.727016, lon.=26.550793, Alt.=147.134888m. Speed=0.072000m/h.</desc>
<speed>0.020000</speed>
</trkpt>
<trkpt lat="55.727016" lon="26.550791">
<ele>147.127075</ele>
<time>2010-07-18T12:29:10Z</time>
<desc>lat.=55.727016, lon.=26.550791, Alt.=147.127075m. Speed=0.252000m/h.</desc>
<speed>0.070000</speed>
</trkpt>
<trkpt lat="55.727016" lon="26.550791">
<ele>147.127075</ele>
<time>2010-07-18T12:29:11Z</time>
<desc>lat.=55.727016, lon.=26.550791, Alt.=147.127075m. Speed=0.324000m/h.</desc>
<speed>0.090000</speed>
</trkpt>
<trkpt lat="55.727016" lon="26.550789">
<ele>147.127075</ele>
<time>2010-07-18T12:29:12Z</time>
<desc>lat.=55.727016, lon.=26.550789, Alt.=147.127075m. Speed=0.216000m/h.</desc>
<speed>0.060000</speed>
</trkpt>
<trkpt lat="55.727016" lon="26.550789">
<ele>147.130981</ele>
<time>2010-07-18T12:29:13Z</time>
<desc>lat.=55.727016, lon.=26.550789, Alt.=147.130981m. Speed=0.252000m/h.</desc>
<speed>0.070000</speed>
</trkpt>
<trkpt lat="55.727013" lon="26.550787">
<ele>147.130981</ele>
<time>2010-07-18T12:29:14Z</time>
<desc>lat.=55.727013, lon.=26.550787, Alt.=147.130981m. Speed=0.144000m/h.</desc>
<speed>0.040000</speed>
</trkpt>
<trkpt lat="55.727013" lon="26.550787">
<ele>147.130981</ele>
<time>2010-07-18T12:29:15Z</time>
<desc>lat.=55.727013, lon.=26.550787, Alt.=147.130981m. Speed=0.504000m/h.</desc>
<speed>0.140000</speed>
</trkpt>
<trkpt lat="55.727013" lon="26.550785">
<ele>147.127075</ele>
<time>2010-07-18T12:29:16Z</time>
<desc>lat.=55.727013, lon.=26.550785, Alt.=147.127075m. Speed=0.468000m/h.</desc>
<speed>0.130000</speed>
</trkpt>
<trkpt lat="55.727013" lon="26.550783">
<ele>147.130981</ele>
<time>2010-07-18T12:29:17Z</time>
<desc>lat.=55.727013, lon.=26.550783, Alt.=147.130981m. Speed=0.288000m/h.</desc>
<speed>0.080000</speed>
</trkpt>
<trkpt lat="55.727013" lon="26.550781">
<ele>147.142700</ele>
<time>2010-07-18T12:29:18Z</time>
<desc>lat.=55.727013, lon.=26.550781, Alt.=147.142700m. Speed=0.468000m/h.</desc>
<speed>0.130000</speed>
</trkpt>
<trkpt lat="55.727013" lon="26.550779">
<ele>147.142700</ele>
<time>2010-07-18T12:29:19Z</time>
<desc>lat.=55.727013, lon.=26.550779, Alt.=147.142700m. Speed=0.180000m/h.</desc>
<speed>0.050000</speed>
</trkpt>
<trkpt lat="55.727013" lon="26.550779">
<ele>147.138794</ele>
<time>2010-07-18T12:29:20Z</time>
<desc>lat.=55.727013, lon.=26.550779, Alt.=147.138794m. Speed=0.216000m/h.</desc>
<speed>0.060000</speed>
</trkpt>
<trkpt lat="55.727013" lon="26.550777">
<ele>147.138794</ele>
<time>2010-07-18T12:29:21Z</time>
<desc>lat.=55.727013, lon.=26.550777, Alt.=147.138794m. Speed=0.216000m/h.</desc>
<speed>0.060000</speed>
</trkpt>
<trkpt lat="55.727013" lon="26.550777">
<ele>147.142700</ele>
<time>2010-07-18T12:29:22Z</time>
<desc>lat.=55.727013, lon.=26.550777, Alt.=147.142700m. Speed=0.504000m/h.</desc>
<speed>0.140000</speed>
</trkpt>
<trkpt lat="55.727013" lon="26.550776">
<ele>147.142700</ele>
<time>2010-07-18T12:29:23Z</time>
<desc>lat.=55.727013, lon.=26.550776, Alt.=147.142700m. Speed=0.864000m/h.</desc>
<speed>0.240000</speed>
</trkpt>
<trkpt lat="55.727013" lon="26.550772">
<ele>147.138794</ele>
<time>2010-07-18T12:29:24Z</time>
<desc>lat.=55.727013, lon.=26.550772, Alt.=147.138794m. Speed=0.900000m/h.</desc>
<speed>0.250000</speed>
</trkpt>
<trkpt lat="55.727009" lon="26.550768">
<ele>147.134888</ele>
<time>2010-07-18T12:29:25Z</time>
<desc>lat.=55.727009, lon.=26.550768, Alt.=147.134888m. Speed=0.540000m/h.</desc>
<speed>0.150000</speed>
</trkpt>
<trkpt lat="55.727009" lon="26.550766">
<ele>147.130981</ele>
<time>2010-07-18T12:29:26Z</time>
<desc>lat.=55.727009, lon.=26.550766, Alt.=147.130981m. Speed=0.468000m/h.</desc>
<speed>0.130000</speed>
</trkpt>
<trkpt lat="55.727009" lon="26.550766">
<ele>147.130981</ele>
<time>2010-07-18T12:29:27Z</time>
<desc>lat.=55.727009, lon.=26.550766, Alt.=147.130981m. Speed=0.432000m/h.</desc>
<speed>0.120000</speed>
</trkpt>
<trkpt lat="55.727009" lon="26.550766">
<ele>147.127075</ele>
<time>2010-07-18T12:29:28Z</time>
<desc>lat.=55.727009, lon.=26.550766, Alt.=147.127075m. Speed=0.324000m/h.</desc>
<speed>0.090000</speed>
</trkpt>
<trkpt lat="55.727009" lon="26.550764">
<ele>147.119263</ele>
<time>2010-07-18T12:29:29Z</time>
<desc>lat.=55.727009, lon.=26.550764, Alt.=147.119263m. Speed=0.432000m/h.</desc>
<speed>0.120000</speed>
</trkpt>
<trkpt lat="55.727005" lon="26.550762">
<ele>147.115356</ele>
<time>2010-07-18T12:29:30Z</time>
<desc>lat.=55.727005, lon.=26.550762, Alt.=147.115356m. Speed=0.324000m/h.</desc>
<speed>0.090000</speed>
</trkpt>
<trkpt lat="55.727005" lon="26.550762">
<ele>147.107544</ele>
<time>2010-07-18T12:29:31Z</time>
<desc>lat.=55.727005, lon.=26.550762, Alt.=147.107544m. Speed=0.792000m/h.</desc>
<speed>0.220000</speed>
</trkpt>
<trkpt lat="55.727005" lon="26.550762">
<ele>147.107544</ele>
<time>2010-07-18T12:29:32Z</time>
<desc>lat.=55.727005, lon.=26.550762, Alt.=147.107544m. Speed=0.540000m/h.</desc>
<speed>0.150000</speed>
</trkpt>
<trkpt lat="55.727001" lon="26.550760">
<ele>147.103638</ele>
<time>2010-07-18T12:29:33Z</time>
<desc>lat.=55.727001, lon.=26.550760, Alt.=147.103638m. Speed=0.828000m/h.</desc>
<speed>0.230000</speed>
</trkpt>
<trkpt lat="55.727001" lon="26.550758">
<ele>147.103638</ele>
<time>2010-07-18T12:29:34Z</time>
<desc>lat.=55.727001, lon.=26.550758, Alt.=147.103638m. Speed=0.360000m/h.</desc>
<speed>0.100000</speed>
</trkpt>
<trkpt lat="55.727001" lon="26.550760">
<ele>147.099731</ele>
<time>2010-07-18T12:29:35Z</time>
<desc>lat.=55.727001, lon.=26.550760, Alt.=147.099731m. Speed=0.252000m/h.</desc>
<speed>0.070000</speed>
</trkpt>
<trkpt lat="55.727001" lon="26.550760">
<ele>147.095825</ele>
<time>2010-07-18T12:29:36Z</time>
<desc>lat.=55.727001, lon.=26.550760, Alt.=147.095825m. Speed=0.036000m/h.</desc>
<speed>0.010000</speed>
</trkpt>
<trkpt lat="55.726997" lon="26.550760">
<ele>147.095825</ele>
<time>2010-07-18T12:29:37Z</time>
<desc>lat.=55.726997, lon.=26.550760, Alt.=147.095825m. Speed=0.504000m/h.</desc>
<speed>0.140000</speed>
</trkpt>
<trkpt lat="55.726997" lon="26.550760">
<ele>147.091919</ele>
<time>2010-07-18T12:29:38Z</time>
<desc>lat.=55.726997, lon.=26.550760, Alt.=147.091919m. Speed=0.396000m/h.</desc>
<speed>0.110000</speed>
</trkpt>
<trkpt lat="55.726997" lon="26.550758">
<ele>147.091919</ele>
<time>2010-07-18T12:29:39Z</time>
<desc>lat.=55.726997, lon.=26.550758, Alt.=147.091919m. Speed=0.720000m/h.</desc>
<speed>0.200000</speed>
</trkpt>
<trkpt lat="55.726997" lon="26.550756">
<ele>147.088013</ele>
<time>2010-07-18T12:29:40Z</time>
<desc>lat.=55.726997, lon.=26.550756, Alt.=147.088013m. Speed=2.196000m/h.</desc>
<speed>0.610000</speed>
</trkpt>
<trkpt lat="55.726990" lon="26.550755">
<ele>147.091919</ele>
<time>2010-07-18T12:29:41Z</time>
<desc>lat.=55.726990, lon.=26.550755, Alt.=147.091919m. Speed=0.864000m/h.</desc>
<speed>0.240000</speed>
</trkpt>
<trkpt lat="55.726990" lon="26.550753">
<ele>147.088013</ele>
<time>2010-07-18T12:29:42Z</time>
<desc>lat.=55.726990, lon.=26.550753, Alt.=147.088013m. Speed=2.556000m/h.</desc>
<speed>0.710000</speed>
</trkpt>
<trkpt lat="55.726982" lon="26.550749">
<ele>147.095825</ele>
<time>2010-07-18T12:29:43Z</time>
<desc>lat.=55.726982, lon.=26.550749, Alt.=147.095825m. Speed=2.052000m/h.</desc>
<speed>0.570000</speed>
</trkpt>
<trkpt lat="55.726978" lon="26.550747">
<ele>147.099731</ele>
<time>2010-07-18T12:29:44Z</time>
<desc>lat.=55.726978, lon.=26.550747, Alt.=147.099731m. Speed=1.548000m/h.</desc>
<speed>0.430000</speed>
</trkpt>
<trkpt lat="55.726974" lon="26.550745">
<ele>147.107544</ele>
<time>2010-07-18T12:29:45Z</time>
<desc>lat.=55.726974, lon.=26.550745, Alt.=147.107544m. Speed=1.260000m/h.</desc>
<speed>0.350000</speed>
</trkpt>
<trkpt lat="55.726971" lon="26.550745">
<ele>147.115356</ele>
<time>2010-07-18T12:29:46Z</time>
<desc>lat.=55.726971, lon.=26.550745, Alt.=147.115356m. Speed=1.332000m/h.</desc>
<speed>0.370000</speed>
</trkpt>
<trkpt lat="55.726967" lon="26.550745">
<ele>147.127075</ele>
<time>2010-07-18T12:29:47Z</time>
<desc>lat.=55.726967, lon.=26.550745, Alt.=147.127075m. Speed=1.404000m/h.</desc>
<speed>0.390000</speed>
</trkpt>
<trkpt lat="55.726963" lon="26.550743">
<ele>147.134888</ele>
<time>2010-07-18T12:29:48Z</time>
<desc>lat.=55.726963, lon.=26.550743, Alt.=147.134888m. Speed=1.476000m/h.</desc>
<speed>0.410000</speed>
</trkpt>
<trkpt lat="55.726959" lon="26.550743">
<ele>147.142700</ele>
<time>2010-07-18T12:29:49Z</time>
<desc>lat.=55.726959, lon.=26.550743, Alt.=147.142700m. Speed=1.476000m/h.</desc>
<speed>0.410000</speed>
</trkpt>
<trkpt lat="55.726955" lon="26.550741">
<ele>147.150513</ele>
<time>2010-07-18T12:29:50Z</time>
<desc>lat.=55.726955, lon.=26.550741, Alt.=147.150513m. Speed=1.404000m/h.</desc>
<speed>0.390000</speed>
</trkpt>
<trkpt lat="55.726952" lon="26.550737">
<ele>147.158325</ele>
<time>2010-07-18T12:29:51Z</time>
<desc>lat.=55.726952, lon.=26.550737, Alt.=147.158325m. Speed=1.512000m/h.</desc>
<speed>0.420000</speed>
</trkpt>
<trkpt lat="55.726948" lon="26.550735">
<ele>147.166138</ele>
<time>2010-07-18T12:29:52Z</time>
<desc>lat.=55.726948, lon.=26.550735, Alt.=147.166138m. Speed=1.440000m/h.</desc>
<speed>0.400000</speed>
</trkpt>
<trkpt lat="55.726948" lon="26.550732">
<ele>147.173950</ele>
<time>2010-07-18T12:29:53Z</time>
<desc>lat.=55.726948, lon.=26.550732, Alt.=147.173950m. Speed=1.692000m/h.</desc>
<speed>0.470000</speed>
</trkpt>
<trkpt lat="55.726944" lon="26.550728">
<ele>147.185669</ele>
<time>2010-07-18T12:29:54Z</time>
<desc>lat.=55.726944, lon.=26.550728, Alt.=147.185669m. Speed=1.800000m/h.</desc>
<speed>0.500000</speed>
</trkpt>
<trkpt lat="55.726940" lon="26.550722">
<ele>147.193481</ele>
<time>2010-07-18T12:29:55Z</time>
<desc>lat.=55.726940, lon.=26.550722, Alt.=147.193481m. Speed=1.764000m/h.</desc>
<speed>0.490000</speed>
</trkpt>
<trkpt lat="55.726936" lon="26.550716">
<ele>147.201294</ele>
<time>2010-07-18T12:29:56Z</time>
<desc>lat.=55.726936, lon.=26.550716, Alt.=147.201294m. Speed=2.232000m/h.</desc>
<speed>0.620000</speed>
</trkpt>
<trkpt lat="55.726933" lon="26.550711">
<ele>147.209106</ele>
<time>2010-07-18T12:29:57Z</time>
<desc>lat.=55.726933, lon.=26.550711, Alt.=147.209106m. Speed=3.744000m/h.</desc>
<speed>1.040000</speed>
</trkpt>
<trkpt lat="55.726925" lon="26.550688">
<ele>146.955200</ele>
<time>2010-07-18T12:29:58Z</time>
<desc>lat.=55.726925, lon.=26.550688, Alt.=146.955200m. Speed=2.448000m/h.</desc>
<speed>0.680000</speed>
</trkpt>
<trkpt lat="55.726921" lon="26.550663">
<ele>147.138794</ele>
<time>2010-07-18T12:29:59Z</time>
<desc>lat.=55.726921, lon.=26.550663, Alt.=147.138794m. Speed=0.756000m/h.</desc>
<speed>0.210000</speed>
</trkpt>
<trkpt lat="55.726917" lon="26.550657">
<ele>147.142700</ele>
<time>2010-07-18T12:30:00Z</time>
<desc>lat.=55.726917, lon.=26.550657, Alt.=147.142700m. Speed=1.512000m/h.</desc>
<speed>0.420000</speed>
</trkpt>
<trkpt lat="55.726913" lon="26.550638">
<ele>147.263794</ele>
<time>2010-07-18T12:30:01Z</time>
<desc>lat.=55.726913, lon.=26.550638, Alt.=147.263794m. Speed=2.088000m/h.</desc>
<speed>0.580000</speed>
</trkpt>
<trkpt lat="55.726906" lon="26.550625">
<ele>147.369263</ele>
<time>2010-07-18T12:30:02Z</time>
<desc>lat.=55.726906, lon.=26.550625, Alt.=147.369263m. Speed=2.376000m/h.</desc>
<speed>0.660000</speed>
</trkpt>
<trkpt lat="55.726902" lon="26.550598">
<ele>147.611450</ele>
<time>2010-07-18T12:30:03Z</time>
<desc>lat.=55.726902, lon.=26.550598, Alt.=147.611450m. Speed=2.340000m/h.</desc>
<speed>0.650000</speed>
</trkpt>
<trkpt lat="55.726902" lon="26.550587">
<ele>147.646606</ele>
<time>2010-07-18T12:30:04Z</time>
<desc>lat.=55.726902, lon.=26.550587, Alt.=147.646606m. Speed=1.584000m/h.</desc>
<speed>0.440000</speed>
</trkpt>
<trkpt lat="55.726898" lon="26.550568">
<ele>147.341919</ele>
<time>2010-07-18T12:30:05Z</time>
<desc>lat.=55.726898, lon.=26.550568, Alt.=147.341919m. Speed=2.160000m/h.</desc>
<speed>0.600000</speed>
</trkpt>
<trkpt lat="55.726902" lon="26.550549">
<ele>147.306763</ele>
<time>2010-07-18T12:30:06Z</time>
<desc>lat.=55.726902, lon.=26.550549, Alt.=147.306763m. Speed=1.620000m/h.</desc>
<speed>0.450000</speed>
</trkpt>
<trkpt lat="55.726902" lon="26.550535">
<ele>147.404419</ele>
<time>2010-07-18T12:30:07Z</time>
<desc>lat.=55.726902, lon.=26.550535, Alt.=147.404419m. Speed=1.188000m/h.</desc>
<speed>0.330000</speed>
</trkpt>
<trkpt lat="55.726894" lon="26.550526">
<ele>147.623169</ele>
<time>2010-07-18T12:30:08Z</time>
<desc>lat.=55.726894, lon.=26.550526, Alt.=147.623169m. Speed=1.152000m/h.</desc>
<speed>0.320000</speed>
</trkpt>
<trkpt lat="55.726902" lon="26.550520">
<ele>147.521606</ele>
<time>2010-07-18T12:30:09Z</time>
<desc>lat.=55.726902, lon.=26.550520, Alt.=147.521606m. Speed=0.216000m/h.</desc>
<speed>0.060000</speed>
</trkpt>
<trkpt lat="55.726898" lon="26.550508">
<ele>147.494263</ele>
<time>2010-07-18T12:30:10Z</time>
<desc>lat.=55.726898, lon.=26.550508, Alt.=147.494263m. Speed=1.152000m/h.</desc>
<speed>0.320000</speed>
</trkpt>
<trkpt lat="55.726898" lon="26.550503">
<ele>147.209106</ele>
<time>2010-07-18T12:30:11Z</time>
<desc>lat.=55.726898, lon.=26.550503, Alt.=147.209106m. Speed=1.044000m/h.</desc>
<speed>0.290000</speed>
</trkpt>
<trkpt lat="55.726894" lon="26.550499">
<ele>146.576294</ele>
<time>2010-07-18T12:30:12Z</time>
<desc>lat.=55.726894, lon.=26.550499, Alt.=146.576294m. Speed=0.972000m/h.</desc>
<speed>0.270000</speed>
</trkpt>
<trkpt lat="55.726891" lon="26.550489">
<ele>145.693481</ele>
<time>2010-07-18T12:30:13Z</time>
<desc>lat.=55.726891, lon.=26.550489, Alt.=145.693481m. Speed=1.368000m/h.</desc>
<speed>0.380000</speed>
</trkpt>
<trkpt lat="55.726891" lon="26.550480">
<ele>145.545044</ele>
<time>2010-07-18T12:30:14Z</time>
<desc>lat.=55.726891, lon.=26.550480, Alt.=145.545044m. Speed=0.648000m/h.</desc>
<speed>0.180000</speed>
</trkpt>
<trkpt lat="55.726887" lon="26.550476">
<ele>144.880981</ele>
<time>2010-07-18T12:30:15Z</time>
<desc>lat.=55.726887, lon.=26.550476, Alt.=144.880981m. Speed=0.756000m/h.</desc>
<speed>0.210000</speed>
</trkpt>
<trkpt lat="55.726891" lon="26.550474">
<ele>144.787231</ele>
<time>2010-07-18T12:30:16Z</time>
<desc>lat.=55.726891, lon.=26.550474, Alt.=144.787231m. Speed=0.612000m/h.</desc>
<speed>0.170000</speed>
</trkpt>
<trkpt lat="55.726887" lon="26.550467">
<ele>144.638794</ele>
<time>2010-07-18T12:30:17Z</time>
<desc>lat.=55.726887, lon.=26.550467, Alt.=144.638794m. Speed=0.468000m/h.</desc>
<speed>0.130000</speed>
</trkpt>
<trkpt lat="55.726887" lon="26.550465">
<ele>144.662231</ele>
<time>2010-07-18T12:30:18Z</time>
<desc>lat.=55.726887, lon.=26.550465, Alt.=144.662231m. Speed=0.180000m/h.</desc>
<speed>0.050000</speed>
</trkpt>
<trkpt lat="55.726887" lon="26.550465">
<ele>144.681763</ele>
<time>2010-07-18T12:30:19Z</time>
<desc>lat.=55.726887, lon.=26.550465, Alt.=144.681763m. Speed=0.072000m/h.</desc>
<speed>0.020000</speed>
</trkpt>
<trkpt lat="55.726887" lon="26.550465">
<ele>144.701294</ele>
<time>2010-07-18T12:30:20Z</time>
<desc>lat.=55.726887, lon.=26.550465, Alt.=144.701294m. Speed=0.180000m/h.</desc>
<speed>0.050000</speed>
</trkpt>
<trkpt lat="55.726887" lon="26.550465">
<ele>144.732544</ele>
<time>2010-07-18T12:30:21Z</time>
<desc>lat.=55.726887, lon.=26.550465, Alt.=144.732544m. Speed=0.036000m/h.</desc>
<speed>0.010000</speed>
</trkpt>
<trkpt lat="55.726887" lon="26.550465">
<ele>144.724731</ele>
<time>2010-07-18T12:30:22Z</time>
<desc>lat.=55.726887, lon.=26.550465, Alt.=144.724731m. Speed=0.180000m/h.</desc>
<speed>0.050000</speed>
</trkpt>
<trkpt lat="55.726887" lon="26.550465">
<ele>144.755981</ele>
<time>2010-07-18T12:30:23Z</time>
<desc>lat.=55.726887, lon.=26.550465, Alt.=144.755981m. Speed=0.288000m/h.</desc>
<speed>0.080000</speed>
</trkpt>
<trkpt lat="55.726887" lon="26.550465">
<ele>144.759888</ele>
<time>2010-07-18T12:30:24Z</time>
<desc>lat.=55.726887, lon.=26.550465, Alt.=144.759888m. Speed=0.216000m/h.</desc>
<speed>0.060000</speed>
</trkpt>
<trkpt lat="55.726887" lon="26.550465">
<ele>144.740356</ele>
<time>2010-07-18T12:30:25Z</time>
<desc>lat.=55.726887, lon.=26.550465, Alt.=144.740356m. Speed=0.072000m/h.</desc>
<speed>0.020000</speed>
</trkpt>
<trkpt lat="55.726887" lon="26.550465">
<ele>144.732544</ele>
<time>2010-07-18T12:30:26Z</time>
<desc>lat.=55.726887, lon.=26.550465, Alt.=144.732544m. Speed=0.072000m/h.</desc>
<speed>0.020000</speed>
</trkpt>
<trkpt lat="55.726887" lon="26.550463">
<ele>144.720825</ele>
<time>2010-07-18T12:30:27Z</time>
<desc>lat.=55.726887, lon.=26.550463, Alt.=144.720825m. Speed=0.108000m/h.</desc>
<speed>0.030000</speed>
</trkpt>
<trkpt lat="55.726887" lon="26.550465">
<ele>144.728638</ele>
<time>2010-07-18T12:30:28Z</time>
<desc>lat.=55.726887, lon.=26.550465, Alt.=144.728638m. Speed=0.108000m/h.</desc>
<speed>0.030000</speed>
</trkpt>
<trkpt lat="55.726887" lon="26.550463">
<ele>144.713013</ele>
<time>2010-07-18T12:30:29Z</time>
<desc>lat.=55.726887, lon.=26.550463, Alt.=144.713013m. Speed=0.432000m/h.</desc>
<speed>0.120000</speed>
</trkpt>
<trkpt lat="55.726887" lon="26.550465">
<ele>144.697388</ele>
<time>2010-07-18T12:30:30Z</time>
<desc>lat.=55.726887, lon.=26.550465, Alt.=144.697388m. Speed=0.072000m/h.</desc>
<speed>0.020000</speed>
</trkpt>
<trkpt lat="55.726887" lon="26.550465">
<ele>144.689575</ele>
<time>2010-07-18T12:30:31Z</time>
<desc>lat.=55.726887, lon.=26.550465, Alt.=144.689575m. Speed=0.072000m/h.</desc>
<speed>0.020000</speed>
</trkpt>
<trkpt lat="55.726887" lon="26.550465">
<ele>144.681763</ele>
<time>2010-07-18T12:30:32Z</time>
<desc>lat.=55.726887, lon.=26.550465, Alt.=144.681763m. Speed=0.036000m/h.</desc>
<speed>0.010000</speed>
</trkpt>
<trkpt lat="55.726887" lon="26.550465">
<ele>144.677856</ele>
<time>2010-07-18T12:30:33Z</time>
<desc>lat.=55.726887, lon.=26.550465, Alt.=144.677856m. Speed=0.144000m/h.</desc>
<speed>0.040000</speed>
</trkpt>
<trkpt lat="55.726887" lon="26.550467">
<ele>144.670044</ele>
<time>2010-07-18T12:30:34Z</time>
<desc>lat.=55.726887, lon.=26.550467, Alt.=144.670044m. Speed=0.000000m/h.</desc>
<speed>0.000000</speed>
</trkpt>
<trkpt lat="55.726887" lon="26.550465">
<ele>144.658325</ele>
<time>2010-07-18T12:30:35Z</time>
<desc>lat.=55.726887, lon.=26.550465, Alt.=144.658325m. Speed=0.072000m/h.</desc>
<speed>0.020000</speed>
</trkpt>
<trkpt lat="55.726887" lon="26.550465">
<ele>144.646606</ele>
<time>2010-07-18T12:30:36Z</time>
<desc>lat.=55.726887, lon.=26.550465, Alt.=144.646606m. Speed=0.072000m/h.</desc>
<speed>0.020000</speed>
</trkpt>
<trkpt lat="55.726887" lon="26.550467">
<ele>144.638794</ele>
<time>2010-07-18T12:30:37Z</time>
<desc>lat.=55.726887, lon.=26.550467, Alt.=144.638794m. Speed=0.000000m/h.</desc>
<speed>0.000000</speed>
</trkpt>
<trkpt lat="55.726887" lon="26.550467">
<ele>144.627075</ele>
<time>2010-07-18T12:30:38Z</time>
<desc>lat.=55.726887, lon.=26.550467, Alt.=144.627075m. Speed=0.072000m/h.</desc>
<speed>0.020000</speed>
</trkpt>
<trkpt lat="55.726887" lon="26.550467">
<ele>144.615356</ele>
<time>2010-07-18T12:30:39Z</time>
<desc>lat.=55.726887, lon.=26.550467, Alt.=144.615356m. Speed=0.036000m/h.</desc>
<speed>0.010000</speed>
</trkpt>
<trkpt lat="55.726887" lon="26.550467">
<ele>144.607544</ele>
<time>2010-07-18T12:30:40Z</time>
<desc>lat.=55.726887, lon.=26.550467, Alt.=144.607544m. Speed=0.000000m/h.</desc>
<speed>0.000000</speed>
</trkpt>
<trkpt lat="55.726887" lon="26.550467">
<ele>144.603638</ele>
<time>2010-07-18T12:30:41Z</time>
<desc>lat.=55.726887, lon.=26.550467, Alt.=144.603638m. Speed=0.000000m/h.</desc>
<speed>0.000000</speed>
</trkpt>
<trkpt lat="55.726891" lon="26.550467">
<ele>144.595825</ele>
<time>2010-07-18T12:30:42Z</time>
<desc>lat.=55.726891, lon.=26.550467, Alt.=144.595825m. Speed=0.000000m/h.</desc>
<speed>0.000000</speed>
</trkpt>
<trkpt lat="55.726891" lon="26.550467">
<ele>144.588013</ele>
<time>2010-07-18T12:30:43Z</time>
<desc>lat.=55.726891, lon.=26.550467, Alt.=144.588013m. Speed=0.072000m/h.</desc>
<speed>0.020000</speed>
</trkpt>
<trkpt lat="55.726891" lon="26.550467">
<ele>144.580200</ele>
<time>2010-07-18T12:30:44Z</time>
<desc>lat.=55.726891, lon.=26.550467, Alt.=144.580200m. Speed=0.036000m/h.</desc>
<speed>0.010000</speed>
</trkpt>
<trkpt lat="55.726891" lon="26.550467">
<ele>144.576294</ele>
<time>2010-07-18T12:30:45Z</time>
<desc>lat.=55.726891, lon.=26.550467, Alt.=144.576294m. Speed=0.000000m/h.</desc>
<speed>0.000000</speed>
</trkpt>
<trkpt lat="55.726891" lon="26.550467">
<ele>144.568481</ele>
<time>2010-07-18T12:30:46Z</time>
<desc>lat.=55.726891, lon.=26.550467, Alt.=144.568481m. Speed=0.000000m/h.</desc>
<speed>0.000000</speed>
</trkpt>
<trkpt lat="55.726891" lon="26.550467">
<ele>144.560669</ele>
<time>2010-07-18T12:30:47Z</time>
<desc>lat.=55.726891, lon.=26.550467, Alt.=144.560669m. Speed=0.036000m/h.</desc>
<speed>0.010000</speed>
</trkpt>
<trkpt lat="55.726891" lon="26.550467">
<ele>144.556763</ele>
<time>2010-07-18T12:30:48Z</time>
<desc>lat.=55.726891, lon.=26.550467, Alt.=144.556763m. Speed=0.000000m/h.</desc>
<speed>0.000000</speed>
</trkpt>
<trkpt lat="55.726891" lon="26.550467">
<ele>144.552856</ele>
<time>2010-07-18T12:30:49Z</time>
<desc>lat.=55.726891, lon.=26.550467, Alt.=144.552856m. Speed=0.000000m/h.</desc>
<speed>0.000000</speed>
</trkpt>
<trkpt lat="55.726891" lon="26.550467">
<ele>144.552856</ele>
<time>2010-07-18T12:30:50Z</time>
<desc>lat.=55.726891, lon.=26.550467, Alt.=144.552856m. Speed=0.000000m/h.</desc>
<speed>0.000000</speed>
</trkpt>
<trkpt lat="55.726891" lon="26.550467">
<ele>144.548950</ele>
<time>2010-07-18T12:30:51Z</time>
<desc>lat.=55.726891, lon.=26.550467, Alt.=144.548950m. Speed=0.000000m/h.</desc>
<speed>0.000000</speed>
</trkpt>
<trkpt lat="55.726891" lon="26.550467">
<ele>144.548950</ele>
<time>2010-07-18T12:30:52Z</time>
<desc>lat.=55.726891, lon.=26.550467, Alt.=144.548950m. Speed=0.108000m/h.</desc>
<speed>0.030000</speed>
</trkpt>
<trkpt lat="55.726891" lon="26.550467">
<ele>144.548950</ele>
<time>2010-07-18T12:30:53Z</time>
<desc>lat.=55.726891, lon.=26.550467, Alt.=144.548950m. Speed=0.036000m/h.</desc>
<speed>0.010000</speed>
</trkpt>
<trkpt lat="55.726891" lon="26.550467">
<ele>144.548950</ele>
<time>2010-07-18T12:30:54Z</time>
<desc>lat.=55.726891, lon.=26.550467, Alt.=144.548950m. Speed=0.108000m/h.</desc>
<speed>0.030000</speed>
</trkpt>
<trkpt lat="55.726891" lon="26.550467">
<ele>144.545044</ele>
<time>2010-07-18T12:30:55Z</time>
<desc>lat.=55.726891, lon.=26.550467, Alt.=144.545044m. Speed=0.036000m/h.</desc>
<speed>0.010000</speed>
</trkpt>
<trkpt lat="55.726891" lon="26.550467">
<ele>144.545044</ele>
<time>2010-07-18T12:30:56Z</time>
<desc>lat.=55.726891, lon.=26.550467, Alt.=144.545044m. Speed=0.036000m/h.</desc>
<speed>0.010000</speed>
</trkpt>
<trkpt lat="55.726891" lon="26.550467">
<ele>144.545044</ele>
<time>2010-07-18T12:30:57Z</time>
<desc>lat.=55.726891, lon.=26.550467, Alt.=144.545044m. Speed=0.000000m/h.</desc>
<speed>0.000000</speed>
</trkpt>
<trkpt lat="55.726891" lon="26.550467">
<ele>144.541138</ele>
<time>2010-07-18T12:30:58Z</time>
<desc>lat.=55.726891, lon.=26.550467, Alt.=144.541138m. Speed=0.000000m/h.</desc>
<speed>0.000000</speed>
</trkpt>
<trkpt lat="55.726891" lon="26.550467">
<ele>144.537231</ele>
<time>2010-07-18T12:30:59Z</time>
<desc>lat.=55.726891, lon.=26.550467, Alt.=144.537231m. Speed=0.000000m/h.</desc>
<speed>0.000000</speed>
</trkpt>
<trkpt lat="55.726891" lon="26.550467">
<ele>144.537231</ele>
<time>2010-07-18T12:31:00Z</time>
<desc>lat.=55.726891, lon.=26.550467, Alt.=144.537231m. Speed=0.000000m/h.</desc>
<speed>0.000000</speed>
</trkpt>
<trkpt lat="55.726891" lon="26.550467">
<ele>144.533325</ele>
<time>2010-07-18T12:31:01Z</time>
<desc>lat.=55.726891, lon.=26.550467, Alt.=144.533325m. Speed=0.000000m/h.</desc>
<speed>0.000000</speed>
</trkpt>
<trkpt lat="55.726891" lon="26.550467">
<ele>144.529419</ele>
<time>2010-07-18T12:31:02Z</time>
<desc>lat.=55.726891, lon.=26.550467, Alt.=144.529419m. Speed=0.036000m/h.</desc>
<speed>0.010000</speed>
</trkpt>
<trkpt lat="55.726891" lon="26.550468">
<ele>144.529419</ele>
<time>2010-07-18T12:31:03Z</time>
<desc>lat.=55.726891, lon.=26.550468, Alt.=144.529419m. Speed=0.000000m/h.</desc>
<speed>0.000000</speed>
</trkpt>
<trkpt lat="55.726891" lon="26.550468">
<ele>144.521606</ele>
<time>2010-07-18T12:31:04Z</time>
<desc>lat.=55.726891, lon.=26.550468, Alt.=144.521606m. Speed=0.000000m/h.</desc>
<speed>0.000000</speed>
</trkpt>
<trkpt lat="55.726891" lon="26.550468">
<ele>144.517700</ele>
<time>2010-07-18T12:31:05Z</time>
<desc>lat.=55.726891, lon.=26.550468, Alt.=144.517700m. Speed=0.036000m/h.</desc>
<speed>0.010000</speed>
</trkpt>
<trkpt lat="55.726891" lon="26.550468">
<ele>144.513794</ele>
<time>2010-07-18T12:31:06Z</time>
<desc>lat.=55.726891, lon.=26.550468, Alt.=144.513794m. Speed=0.000000m/h.</desc>
<speed>0.000000</speed>
</trkpt>
<trkpt lat="55.726891" lon="26.550468">
<ele>144.509888</ele>
<time>2010-07-18T12:31:07Z</time>
<desc>lat.=55.726891, lon.=26.550468, Alt.=144.509888m. Speed=0.000000m/h.</desc>
<speed>0.000000</speed>
</trkpt>
<trkpt lat="55.726891" lon="26.550468">
<ele>144.502075</ele>
<time>2010-07-18T12:31:08Z</time>
<desc>lat.=55.726891, lon.=26.550468, Alt.=144.502075m. Speed=0.000000m/h.</desc>
<speed>0.000000</speed>
</trkpt>
<trkpt lat="55.726891" lon="26.550468">
<ele>144.494263</ele>
<time>2010-07-18T12:31:09Z</time>
<desc>lat.=55.726891, lon.=26.550468, Alt.=144.494263m. Speed=0.000000m/h.</desc>
<speed>0.000000</speed>
</trkpt>
<trkpt lat="55.726891" lon="26.550468">
<ele>144.490356</ele>
<time>2010-07-18T12:31:10Z</time>
<desc>lat.=55.726891, lon.=26.550468, Alt.=144.490356m. Speed=0.000000m/h.</desc>
<speed>0.000000</speed>
</trkpt>
<trkpt lat="55.726891" lon="26.550468">
<ele>144.482544</ele>
<time>2010-07-18T12:31:11Z</time>
<desc>lat.=55.726891, lon.=26.550468, Alt.=144.482544m. Speed=0.000000m/h.</desc>
<speed>0.000000</speed>
</trkpt>
<trkpt lat="55.726891" lon="26.550468">
<ele>144.478638</ele>
<time>2010-07-18T12:31:12Z</time>
<desc>lat.=55.726891, lon.=26.550468, Alt.=144.478638m. Speed=0.000000m/h.</desc>
<speed>0.000000</speed>
</trkpt>
<trkpt lat="55.726891" lon="26.550468">
<ele>144.474731</ele>
<time>2010-07-18T12:31:13Z</time>
<desc>lat.=55.726891, lon.=26.550468, Alt.=144.474731m. Speed=0.000000m/h.</desc>
<speed>0.000000</speed>
</trkpt>
<trkpt lat="55.726891" lon="26.550468">
<ele>144.470825</ele>
<time>2010-07-18T12:31:14Z</time>
<desc>lat.=55.726891, lon.=26.550468, Alt.=144.470825m. Speed=0.036000m/h.</desc>
<speed>0.010000</speed>
</trkpt>
<trkpt lat="55.726891" lon="26.550468">
<ele>144.466919</ele>
<time>2010-07-18T12:31:15Z</time>
<desc>lat.=55.726891, lon.=26.550468, Alt.=144.466919m. Speed=0.000000m/h.</desc>
<speed>0.000000</speed>
</trkpt>
<trkpt lat="55.726891" lon="26.550468">
<ele>144.463013</ele>
<time>2010-07-18T12:31:16Z</time>
<desc>lat.=55.726891, lon.=26.550468, Alt.=144.463013m. Speed=0.000000m/h.</desc>
<speed>0.000000</speed>
</trkpt>
<trkpt lat="55.726891" lon="26.550468">
<ele>144.459106</ele>
<time>2010-07-18T12:31:17Z</time>
<desc>lat.=55.726891, lon.=26.550468, Alt.=144.459106m. Speed=0.000000m/h.</desc>
<speed>0.000000</speed>
</trkpt>
<trkpt lat="55.726891" lon="26.550468">
<ele>144.455200</ele>
<time>2010-07-18T12:31:18Z</time>
<desc>lat.=55.726891, lon.=26.550468, Alt.=144.455200m. Speed=0.000000m/h.</desc>
<speed>0.000000</speed>
</trkpt>
<trkpt lat="55.726891" lon="26.550468">
<ele>144.455200</ele>
<time>2010-07-18T12:31:19Z</time>
<desc>lat.=55.726891, lon.=26.550468, Alt.=144.455200m. Speed=0.000000m/h.</desc>
<speed>0.000000</speed>
</trkpt>
<trkpt lat="55.726891" lon="26.550468">
<ele>144.451294</ele>
<time>2010-07-18T12:31:20Z</time>
<desc>lat.=55.726891, lon.=26.550468, Alt.=144.451294m. Speed=0.000000m/h.</desc>
<speed>0.000000</speed>
</trkpt>
<trkpt lat="55.726891" lon="26.550468">
<ele>144.447388</ele>
<time>2010-07-18T12:31:21Z</time>
<desc>lat.=55.726891, lon.=26.550468, Alt.=144.447388m. Speed=0.000000m/h.</desc>
<speed>0.000000</speed>
</trkpt>
<trkpt lat="55.726891" lon="26.550468">
<ele>144.443481</ele>
<time>2010-07-18T12:31:22Z</time>
<desc>lat.=55.726891, lon.=26.550468, Alt.=144.443481m. Speed=0.000000m/h.</desc>
<speed>0.000000</speed>
</trkpt>
<trkpt lat="55.726891" lon="26.550468">
<ele>144.439575</ele>
<time>2010-07-18T12:31:23Z</time>
<desc>lat.=55.726891, lon.=26.550468, Alt.=144.439575m. Speed=0.000000m/h.</desc>
<speed>0.000000</speed>
</trkpt>
<trkpt lat="55.726891" lon="26.550468">
<ele>144.439575</ele>
<time>2010-07-18T12:31:24Z</time>
<desc>lat.=55.726891, lon.=26.550468, Alt.=144.439575m. Speed=0.000000m/h.</desc>
<speed>0.000000</speed>
</trkpt>
<trkpt lat="55.726891" lon="26.550468">
<ele>144.431763</ele>
<time>2010-07-18T12:31:25Z</time>
<desc>lat.=55.726891, lon.=26.550468, Alt.=144.431763m. Speed=0.072000m/h.</desc>
<speed>0.020000</speed>
</trkpt>
<trkpt lat="55.726891" lon="26.550468">
<ele>144.431763</ele>
<time>2010-07-18T12:31:26Z</time>
<desc>lat.=55.726891, lon.=26.550468, Alt.=144.431763m. Speed=0.108000m/h.</desc>
<speed>0.030000</speed>
</trkpt>
<trkpt lat="55.726891" lon="26.550468">
<ele>144.427856</ele>
<time>2010-07-18T12:31:27Z</time>
<desc>lat.=55.726891, lon.=26.550468, Alt.=144.427856m. Speed=0.036000m/h.</desc>
<speed>0.010000</speed>
</trkpt>
<trkpt lat="55.726891" lon="26.550468">
<ele>144.423950</ele>
<time>2010-07-18T12:31:28Z</time>
<desc>lat.=55.726891, lon.=26.550468, Alt.=144.423950m. Speed=0.036000m/h.</desc>
<speed>0.010000</speed>
</trkpt>
<trkpt lat="55.726891" lon="26.550468">
<ele>144.420044</ele>
<time>2010-07-18T12:31:29Z</time>
<desc>lat.=55.726891, lon.=26.550468, Alt.=144.420044m. Speed=0.000000m/h.</desc>
<speed>0.000000</speed>
</trkpt>
<trkpt lat="55.726891" lon="26.550468">
<ele>144.412231</ele>
<time>2010-07-18T12:31:30Z</time>
<desc>lat.=55.726891, lon.=26.550468, Alt.=144.412231m. Speed=0.000000m/h.</desc>
<speed>0.000000</speed>
</trkpt>
<trkpt lat="55.726891" lon="26.550468">
<ele>144.408325</ele>
<time>2010-07-18T12:31:31Z</time>
<desc>lat.=55.726891, lon.=26.550468, Alt.=144.408325m. Speed=0.036000m/h.</desc>
<speed>0.010000</speed>
</trkpt>
<trkpt lat="55.726891" lon="26.550468">
<ele>144.404419</ele>
<time>2010-07-18T12:31:32Z</time>
<desc>lat.=55.726891, lon.=26.550468, Alt.=144.404419m. Speed=0.072000m/h.</desc>
<speed>0.020000</speed>
</trkpt>
<trkpt lat="55.726891" lon="26.550468">
<ele>144.404419</ele>
<time>2010-07-18T12:31:33Z</time>
<desc>lat.=55.726891, lon.=26.550468, Alt.=144.404419m. Speed=0.036000m/h.</desc>
<speed>0.010000</speed>
</trkpt>
<trkpt lat="55.726891" lon="26.550468">
<ele>144.400513</ele>
<time>2010-07-18T12:31:34Z</time>
<desc>lat.=55.726891, lon.=26.550468, Alt.=144.400513m. Speed=0.000000m/h.</desc>
<speed>0.000000</speed>
</trkpt>
<trkpt lat="55.726891" lon="26.550468">
<ele>144.396606</ele>
<time>2010-07-18T12:31:35Z</time>
<desc>lat.=55.726891, lon.=26.550468, Alt.=144.396606m. Speed=0.000000m/h.</desc>
<speed>0.000000</speed>
</trkpt>
<trkpt lat="55.726891" lon="26.550468">
<ele>144.388794</ele>
<time>2010-07-18T12:31:36Z</time>
<desc>lat.=55.726891, lon.=26.550468, Alt.=144.388794m. Speed=0.000000m/h.</desc>
<speed>0.000000</speed>
</trkpt>
<trkpt lat="55.726891" lon="26.550468">
<ele>144.384888</ele>
<time>2010-07-18T12:31:37Z</time>
<desc>lat.=55.726891, lon.=26.550468, Alt.=144.384888m. Speed=0.000000m/h.</desc>
<speed>0.000000</speed>
</trkpt>
<trkpt lat="55.726891" lon="26.550468">
<ele>144.380981</ele>
<time>2010-07-18T12:31:38Z</time>
<desc>lat.=55.726891, lon.=26.550468, Alt.=144.380981m. Speed=0.000000m/h.</desc>
<speed>0.000000</speed>
</trkpt>
<trkpt lat="55.726891" lon="26.550468">
<ele>144.377075</ele>
<time>2010-07-18T12:31:39Z</time>
<desc>lat.=55.726891, lon.=26.550468, Alt.=144.377075m. Speed=0.000000m/h.</desc>
<speed>0.000000</speed>
</trkpt>
<trkpt lat="55.726891" lon="26.550468">
<ele>144.373169</ele>
<time>2010-07-18T12:31:40Z</time>
<desc>lat.=55.726891, lon.=26.550468, Alt.=144.373169m. Speed=0.036000m/h.</desc>
<speed>0.010000</speed>
</trkpt>
<trkpt lat="55.726891" lon="26.550468">
<ele>144.369263</ele>
<time>2010-07-18T12:31:41Z</time>
<desc>lat.=55.726891, lon.=26.550468, Alt.=144.369263m. Speed=0.000000m/h.</desc>
<speed>0.000000</speed>
</trkpt>
<trkpt lat="55.726891" lon="26.550468">
<ele>144.361450</ele>
<time>2010-07-18T12:31:42Z</time>
<desc>lat.=55.726891, lon.=26.550468, Alt.=144.361450m. Speed=0.000000m/h.</desc>
<speed>0.000000</speed>
</trkpt>
<trkpt lat="55.726891" lon="26.550468">
<ele>144.357544</ele>
<time>2010-07-18T12:31:43Z</time>
<desc>lat.=55.726891, lon.=26.550468, Alt.=144.357544m. Speed=0.000000m/h.</desc>
<speed>0.000000</speed>
</trkpt>
<trkpt lat="55.726891" lon="26.550468">
<ele>144.353638</ele>
<time>2010-07-18T12:31:44Z</time>
<desc>lat.=55.726891, lon.=26.550468, Alt.=144.353638m. Speed=0.000000m/h.</desc>
<speed>0.000000</speed>
</trkpt>
<trkpt lat="55.726891" lon="26.550468">
<ele>144.349731</ele>
<time>2010-07-18T12:31:45Z</time>
<desc>lat.=55.726891, lon.=26.550468, Alt.=144.349731m. Speed=0.000000m/h.</desc>
<speed>0.000000</speed>
</trkpt>
<trkpt lat="55.726891" lon="26.550468">
<ele>144.345825</ele>
<time>2010-07-18T12:31:46Z</time>
<desc>lat.=55.726891, lon.=26.550468, Alt.=144.345825m. Speed=0.000000m/h.</desc>
<speed>0.000000</speed>
</trkpt>
<trkpt lat="55.726891" lon="26.550468">
<ele>144.345825</ele>
<time>2010-07-18T12:31:47Z</time>
<desc>lat.=55.726891, lon.=26.550468, Alt.=144.345825m. Speed=0.000000m/h.</desc>
<speed>0.000000</speed>
</trkpt>
<trkpt lat="55.726891" lon="26.550470">
<ele>144.341919</ele>
<time>2010-07-18T12:31:48Z</time>
<desc>lat.=55.726891, lon.=26.550470, Alt.=144.341919m. Speed=0.000000m/h.</desc>
<speed>0.000000</speed>
</trkpt>
<trkpt lat="55.726891" lon="26.550470">
<ele>144.338013</ele>
<time>2010-07-18T12:31:49Z</time>
<desc>lat.=55.726891, lon.=26.550470, Alt.=144.338013m. Speed=0.000000m/h.</desc>
<speed>0.000000</speed>
</trkpt>
<trkpt lat="55.726891" lon="26.550470">
<ele>144.334106</ele>
<time>2010-07-18T12:31:50Z</time>
<desc>lat.=55.726891, lon.=26.550470, Alt.=144.334106m. Speed=0.000000m/h.</desc>
<speed>0.000000</speed>
</trkpt>
<trkpt lat="55.726891" lon="26.550470">
<ele>144.330200</ele>
<time>2010-07-18T12:31:51Z</time>
<desc>lat.=55.726891, lon.=26.550470, Alt.=144.330200m. Speed=0.000000m/h.</desc>
<speed>0.000000</speed>
</trkpt>
<trkpt lat="55.726891" lon="26.550470">
<ele>144.326294</ele>
<time>2010-07-18T12:31:52Z</time>
<desc>lat.=55.726891, lon.=26.550470, Alt.=144.326294m. Speed=0.000000m/h.</desc>
<speed>0.000000</speed>
</trkpt>
<trkpt lat="55.726891" lon="26.550470">
<ele>144.326294</ele>
<time>2010-07-18T12:31:53Z</time>
<desc>lat.=55.726891, lon.=26.550470, Alt.=144.326294m. Speed=0.000000m/h.</desc>
<speed>0.000000</speed>
</trkpt>
<trkpt lat="55.726891" lon="26.550470">
<ele>144.322388</ele>
<time>2010-07-18T12:31:54Z</time>
<desc>lat.=55.726891, lon.=26.550470, Alt.=144.322388m. Speed=0.000000m/h.</desc>
<speed>0.000000</speed>
</trkpt>
<trkpt lat="55.726891" lon="26.550470">
<ele>144.318481</ele>
<time>2010-07-18T12:31:55Z</time>
<desc>lat.=55.726891, lon.=26.550470, Alt.=144.318481m. Speed=0.000000m/h.</desc>
<speed>0.000000</speed>
</trkpt>
<trkpt lat="55.726891" lon="26.550470">
<ele>144.318481</ele>
<time>2010-07-18T12:31:56Z</time>
<desc>lat.=55.726891, lon.=26.550470, Alt.=144.318481m. Speed=0.000000m/h.</desc>
<speed>0.000000</speed>
</trkpt>
<trkpt lat="55.726891" lon="26.550470">
<ele>144.318481</ele>
<time>2010-07-18T12:31:57Z</time>
<desc>lat.=55.726891, lon.=26.550470, Alt.=144.318481m. Speed=0.000000m/h.</desc>
<speed>0.000000</speed>
</trkpt>
<trkpt lat="55.726891" lon="26.550470">
<ele>144.318481</ele>
<time>2010-07-18T12:31:58Z</time>
<desc>lat.=55.726891, lon.=26.550470, Alt.=144.318481m. Speed=0.000000m/h.</desc>
<speed>0.000000</speed>
</trkpt>
<trkpt lat="55.726891" lon="26.550470">
<ele>144.318481</ele>
<time>2010-07-18T12:31:59Z</time>
<desc>lat.=55.726891, lon.=26.550470, Alt.=144.318481m. Speed=0.036000m/h.</desc>
<speed>0.010000</speed>
</trkpt>
<trkpt lat="55.726891" lon="26.550470">
<ele>144.314575</ele>
<time>2010-07-18T12:32:00Z</time>
<desc>lat.=55.726891, lon.=26.550470, Alt.=144.314575m. Speed=0.000000m/h.</desc>
<speed>0.000000</speed>
</trkpt>
<trkpt lat="55.726891" lon="26.550470">
<ele>144.314575</ele>
<time>2010-07-18T12:32:01Z</time>
<desc>lat.=55.726891, lon.=26.550470, Alt.=144.314575m. Speed=0.000000m/h.</desc>
<speed>0.000000</speed>
</trkpt>
<trkpt lat="55.726891" lon="26.550470">
<ele>144.310669</ele>
<time>2010-07-18T12:32:02Z</time>
<desc>lat.=55.726891, lon.=26.550470, Alt.=144.310669m. Speed=0.000000m/h.</desc>
<speed>0.000000</speed>
</trkpt>
<trkpt lat="55.726891" lon="26.550470">
<ele>144.306763</ele>
<time>2010-07-18T12:32:03Z</time>
<desc>lat.=55.726891, lon.=26.550470, Alt.=144.306763m. Speed=0.000000m/h.</desc>
<speed>0.000000</speed>
</trkpt>
<trkpt lat="55.726891" lon="26.550470">
<ele>144.302856</ele>
<time>2010-07-18T12:32:04Z</time>
<desc>lat.=55.726891, lon.=26.550470, Alt.=144.302856m. Speed=0.000000m/h.</desc>
<speed>0.000000</speed>
</trkpt>
<trkpt lat="55.726891" lon="26.550470">
<ele>144.298950</ele>
<time>2010-07-18T12:32:05Z</time>
<desc>lat.=55.726891, lon.=26.550470, Alt.=144.298950m. Speed=0.000000m/h.</desc>
<speed>0.000000</speed>
</trkpt>
<trkpt lat="55.726891" lon="26.550470">
<ele>144.298950</ele>
<time>2010-07-18T12:32:06Z</time>
<desc>lat.=55.726891, lon.=26.550470, Alt.=144.298950m. Speed=0.000000m/h.</desc>
<speed>0.000000</speed>
</trkpt>
<trkpt lat="55.726891" lon="26.550470">
<ele>144.295044</ele>
<time>2010-07-18T12:32:07Z</time>
<desc>lat.=55.726891, lon.=26.550470, Alt.=144.295044m. Speed=0.000000m/h.</desc>
<speed>0.000000</speed>
</trkpt>
<trkpt lat="55.726891" lon="26.550470">
<ele>144.291138</ele>
<time>2010-07-18T12:32:08Z</time>
<desc>lat.=55.726891, lon.=26.550470, Alt.=144.291138m. Speed=0.000000m/h.</desc>
<speed>0.000000</speed>
</trkpt>
<trkpt lat="55.726891" lon="26.550470">
<ele>144.291138</ele>
<time>2010-07-18T12:32:09Z</time>
<desc>lat.=55.726891, lon.=26.550470, Alt.=144.291138m. Speed=0.000000m/h.</desc>
<speed>0.000000</speed>
</trkpt>
<trkpt lat="55.726891" lon="26.550470">
<ele>144.287231</ele>
<time>2010-07-18T12:32:10Z</time>
<desc>lat.=55.726891, lon.=26.550470, Alt.=144.287231m. Speed=0.000000m/h.</desc>
<speed>0.000000</speed>
</trkpt>
<trkpt lat="55.726891" lon="26.550470">
<ele>144.287231</ele>
<time>2010-07-18T12:32:11Z</time>
<desc>lat.=55.726891, lon.=26.550470, Alt.=144.287231m. Speed=0.000000m/h.</desc>
<speed>0.000000</speed>
</trkpt>
<trkpt lat="55.726891" lon="26.550470">
<ele>144.283325</ele>
<time>2010-07-18T12:32:12Z</time>
<desc>lat.=55.726891, lon.=26.550470, Alt.=144.283325m. Speed=0.036000m/h.</desc>
<speed>0.010000</speed>
</trkpt>
<trkpt lat="55.726891" lon="26.550470">
<ele>144.283325</ele>
<time>2010-07-18T12:32:13Z</time>
<desc>lat.=55.726891, lon.=26.550470, Alt.=144.283325m. Speed=0.000000m/h.</desc>
<speed>0.000000</speed>
</trkpt>
<trkpt lat="55.726891" lon="26.550470">
<ele>144.279419</ele>
<time>2010-07-18T12:32:14Z</time>
<desc>lat.=55.726891, lon.=26.550470, Alt.=144.279419m. Speed=0.000000m/h.</desc>
<speed>0.000000</speed>
</trkpt>
<trkpt lat="55.726891" lon="26.550470">
<ele>144.279419</ele>
<time>2010-07-18T12:32:15Z</time>
<desc>lat.=55.726891, lon.=26.550470, Alt.=144.279419m. Speed=0.000000m/h.</desc>
<speed>0.000000</speed>
</trkpt>
<trkpt lat="55.726891" lon="26.550470">
<ele>144.275513</ele>
<time>2010-07-18T12:32:16Z</time>
<desc>lat.=55.726891, lon.=26.550470, Alt.=144.275513m. Speed=0.000000m/h.</desc>
<speed>0.000000</speed>
</trkpt>
<trkpt lat="55.726891" lon="26.550470">
<ele>144.271606</ele>
<time>2010-07-18T12:32:17Z</time>
<desc>lat.=55.726891, lon.=26.550470, Alt.=144.271606m. Speed=0.000000m/h.</desc>
<speed>0.000000</speed>
</trkpt>
<trkpt lat="55.726891" lon="26.550470">
<ele>144.267700</ele>
<time>2010-07-18T12:32:18Z</time>
<desc>lat.=55.726891, lon.=26.550470, Alt.=144.267700m. Speed=0.000000m/h.</desc>
<speed>0.000000</speed>
</trkpt>
<trkpt lat="55.726891" lon="26.550470">
<ele>144.267700</ele>
<time>2010-07-18T12:32:19Z</time>
<desc>lat.=55.726891, lon.=26.550470, Alt.=144.267700m. Speed=0.036000m/h.</desc>
<speed>0.010000</speed>
</trkpt>
<trkpt lat="55.726891" lon="26.550470">
<ele>144.263794</ele>
<time>2010-07-18T12:32:20Z</time>
<desc>lat.=55.726891, lon.=26.550470, Alt.=144.263794m. Speed=0.000000m/h.</desc>
<speed>0.000000</speed>
</trkpt>
<trkpt lat="55.726891" lon="26.550470">
<ele>144.259888</ele>
<time>2010-07-18T12:32:21Z</time>
<desc>lat.=55.726891, lon.=26.550470, Alt.=144.259888m. Speed=0.000000m/h.</desc>
<speed>0.000000</speed>
</trkpt>
<trkpt lat="55.726891" lon="26.550470">
<ele>144.255981</ele>
<time>2010-07-18T12:32:22Z</time>
<desc>lat.=55.726891, lon.=26.550470, Alt.=144.255981m. Speed=0.000000m/h.</desc>
<speed>0.000000</speed>
</trkpt>
<trkpt lat="55.726891" lon="26.550470">
<ele>144.248169</ele>
<time>2010-07-18T12:32:23Z</time>
<desc>lat.=55.726891, lon.=26.550470, Alt.=144.248169m. Speed=0.000000m/h.</desc>
<speed>0.000000</speed>
</trkpt>
<trkpt lat="55.726891" lon="26.550470">
<ele>144.248169</ele>
<time>2010-07-18T12:32:24Z</time>
<desc>lat.=55.726891, lon.=26.550470, Alt.=144.248169m. Speed=0.000000m/h.</desc>
<speed>0.000000</speed>
</trkpt>
<trkpt lat="55.726891" lon="26.550470">
<ele>144.244263</ele>
<time>2010-07-18T12:32:25Z</time>
<desc>lat.=55.726891, lon.=26.550470, Alt.=144.244263m. Speed=0.000000m/h.</desc>
<speed>0.000000</speed>
</trkpt>
<trkpt lat="55.726891" lon="26.550470">
<ele>144.236450</ele>
<time>2010-07-18T12:32:26Z</time>
<desc>lat.=55.726891, lon.=26.550470, Alt.=144.236450m. Speed=0.000000m/h.</desc>
<speed>0.000000</speed>
</trkpt>
<trkpt lat="55.726891" lon="26.550470">
<ele>144.232544</ele>
<time>2010-07-18T12:32:27Z</time>
<desc>lat.=55.726891, lon.=26.550470, Alt.=144.232544m. Speed=0.000000m/h.</desc>
<speed>0.000000</speed>
</trkpt>
<trkpt lat="55.726891" lon="26.550470">
<ele>144.228638</ele>
<time>2010-07-18T12:32:28Z</time>
<desc>lat.=55.726891, lon.=26.550470, Alt.=144.228638m. Speed=0.000000m/h.</desc>
<speed>0.000000</speed>
</trkpt>
<trkpt lat="55.726891" lon="26.550470">
<ele>144.224731</ele>
<time>2010-07-18T12:32:29Z</time>
<desc>lat.=55.726891, lon.=26.550470, Alt.=144.224731m. Speed=0.000000m/h.</desc>
<speed>0.000000</speed>
</trkpt>
<trkpt lat="55.726891" lon="26.550470">
<ele>144.220825</ele>
<time>2010-07-18T12:32:30Z</time>
<desc>lat.=55.726891, lon.=26.550470, Alt.=144.220825m. Speed=0.000000m/h.</desc>
<speed>0.000000</speed>
</trkpt>
<trkpt lat="55.726891" lon="26.550470">
<ele>144.216919</ele>
<time>2010-07-18T12:32:31Z</time>
<desc>lat.=55.726891, lon.=26.550470, Alt.=144.216919m. Speed=0.000000m/h.</desc>
<speed>0.000000</speed>
</trkpt>
<trkpt lat="55.726891" lon="26.550470">
<ele>144.213013</ele>
<time>2010-07-18T12:32:32Z</time>
<desc>lat.=55.726891, lon.=26.550470, Alt.=144.213013m. Speed=0.000000m/h.</desc>
<speed>0.000000</speed>
</trkpt>
<trkpt lat="55.726891" lon="26.550470">
<ele>144.209106</ele>
<time>2010-07-18T12:32:33Z</time>
<desc>lat.=55.726891, lon.=26.550470, Alt.=144.209106m. Speed=0.000000m/h.</desc>
<speed>0.000000</speed>
</trkpt>
<trkpt lat="55.726891" lon="26.550470">
<ele>144.201294</ele>
<time>2010-07-18T12:32:34Z</time>
<desc>lat.=55.726891, lon.=26.550470, Alt.=144.201294m. Speed=0.000000m/h.</desc>
<speed>0.000000</speed>
</trkpt>
<trkpt lat="55.726891" lon="26.550470">
<ele>144.201294</ele>
<time>2010-07-18T12:32:35Z</time>
<desc>lat.=55.726891, lon.=26.550470, Alt.=144.201294m. Speed=0.000000m/h.</desc>
<speed>0.000000</speed>
</trkpt>
<trkpt lat="55.726891" lon="26.550470">
<ele>144.197388</ele>
<time>2010-07-18T12:32:36Z</time>
<desc>lat.=55.726891, lon.=26.550470, Alt.=144.197388m. Speed=0.036000m/h.</desc>
<speed>0.010000</speed>
</trkpt>
<trkpt lat="55.726891" lon="26.550470">
<ele>144.197388</ele>
<time>2010-07-18T12:32:37Z</time>
<desc>lat.=55.726891, lon.=26.550470, Alt.=144.197388m. Speed=0.036000m/h.</desc>
<speed>0.010000</speed>
</trkpt>
<trkpt lat="55.726891" lon="26.550470">
<ele>144.189575</ele>
<time>2010-07-18T12:32:38Z</time>
<desc>lat.=55.726891, lon.=26.550470, Alt.=144.189575m. Speed=0.000000m/h.</desc>
<speed>0.000000</speed>
</trkpt>
<trkpt lat="55.726891" lon="26.550470">
<ele>144.189575</ele>
<time>2010-07-18T12:32:39Z</time>
<desc>lat.=55.726891, lon.=26.550470, Alt.=144.189575m. Speed=0.000000m/h.</desc>
<speed>0.000000</speed>
</trkpt>
<trkpt lat="55.726891" lon="26.550470">
<ele>144.189575</ele>
<time>2010-07-18T12:32:40Z</time>
<desc>lat.=55.726891, lon.=26.550470, Alt.=144.189575m. Speed=0.000000m/h.</desc>
<speed>0.000000</speed>
</trkpt>
<trkpt lat="55.726891" lon="26.550470">
<ele>144.189575</ele>
<time>2010-07-18T12:32:41Z</time>
<desc>lat.=55.726891, lon.=26.550470, Alt.=144.189575m. Speed=0.036000m/h.</desc>
<speed>0.010000</speed>
</trkpt>
<trkpt lat="55.726891" lon="26.550470">
<ele>144.185669</ele>
<time>2010-07-18T12:32:42Z</time>
<desc>lat.=55.726891, lon.=26.550470, Alt.=144.185669m. Speed=0.000000m/h.</desc>
<speed>0.000000</speed>
</trkpt>
<trkpt lat="55.726891" lon="26.550470">
<ele>144.185669</ele>
<time>2010-07-18T12:32:43Z</time>
<desc>lat.=55.726891, lon.=26.550470, Alt.=144.185669m. Speed=0.000000m/h.</desc>
<speed>0.000000</speed>
</trkpt>
<trkpt lat="55.726891" lon="26.550470">
<ele>144.185669</ele>
<time>2010-07-18T12:32:44Z</time>
<desc>lat.=55.726891, lon.=26.550470, Alt.=144.185669m. Speed=0.000000m/h.</desc>
<speed>0.000000</speed>
</trkpt>
<trkpt lat="55.726891" lon="26.550470">
<ele>144.181763</ele>
<time>2010-07-18T12:32:45Z</time>
<desc>lat.=55.726891, lon.=26.550470, Alt.=144.181763m. Speed=0.036000m/h.</desc>
<speed>0.010000</speed>
</trkpt>
<trkpt lat="55.726891" lon="26.550470">
<ele>144.177856</ele>
<time>2010-07-18T12:32:46Z</time>
<desc>lat.=55.726891, lon.=26.550470, Alt.=144.177856m. Speed=0.036000m/h.</desc>
<speed>0.010000</speed>
</trkpt>
<trkpt lat="55.726891" lon="26.550472">
<ele>144.173950</ele>
<time>2010-07-18T12:32:47Z</time>
<desc>lat.=55.726891, lon.=26.550472, Alt.=144.173950m. Speed=0.000000m/h.</desc>
<speed>0.000000</speed>
</trkpt>
<trkpt lat="55.726891" lon="26.550472">
<ele>144.170044</ele>
<time>2010-07-18T12:32:48Z</time>
<desc>lat.=55.726891, lon.=26.550472, Alt.=144.170044m. Speed=0.000000m/h.</desc>
<speed>0.000000</speed>
</trkpt>
<trkpt lat="55.726891" lon="26.550472">
<ele>144.166138</ele>
<time>2010-07-18T12:32:49Z</time>
<desc>lat.=55.726891, lon.=26.550472, Alt.=144.166138m. Speed=0.000000m/h.</desc>
<speed>0.000000</speed>
</trkpt>
<trkpt lat="55.726891" lon="26.550472">
<ele>144.162231</ele>
<time>2010-07-18T12:32:50Z</time>
<desc>lat.=55.726891, lon.=26.550472, Alt.=144.162231m. Speed=0.000000m/h.</desc>
<speed>0.000000</speed>
</trkpt>
<trkpt lat="55.726891" lon="26.550472">
<ele>144.158325</ele>
<time>2010-07-18T12:32:51Z</time>
<desc>lat.=55.726891, lon.=26.550472, Alt.=144.158325m. Speed=0.000000m/h.</desc>
<speed>0.000000</speed>
</trkpt>
<trkpt lat="55.726891" lon="26.550472">
<ele>144.154419</ele>
<time>2010-07-18T12:32:52Z</time>
<desc>lat.=55.726891, lon.=26.550472, Alt.=144.154419m. Speed=0.000000m/h.</desc>
<speed>0.000000</speed>
</trkpt>
<trkpt lat="55.726891" lon="26.550472">
<ele>144.146606</ele>
<time>2010-07-18T12:32:53Z</time>
<desc>lat.=55.726891, lon.=26.550472, Alt.=144.146606m. Speed=0.000000m/h.</desc>
<speed>0.000000</speed>
</trkpt>
<trkpt lat="55.726891" lon="26.550472">
<ele>144.142700</ele>
<time>2010-07-18T12:32:54Z</time>
<desc>lat.=55.726891, lon.=26.550472, Alt.=144.142700m. Speed=0.000000m/h.</desc>
<speed>0.000000</speed>
</trkpt>
<trkpt lat="55.726891" lon="26.550472">
<ele>144.138794</ele>
<time>2010-07-18T12:32:55Z</time>
<desc>lat.=55.726891, lon.=26.550472, Alt.=144.138794m. Speed=0.036000m/h.</desc>
<speed>0.010000</speed>
</trkpt>
<trkpt lat="55.726891" lon="26.550472">
<ele>144.134888</ele>
<time>2010-07-18T12:32:56Z</time>
<desc>lat.=55.726891, lon.=26.550472, Alt.=144.134888m. Speed=0.000000m/h.</desc>
<speed>0.000000</speed>
</trkpt>
<trkpt lat="55.726891" lon="26.550472">
<ele>144.130981</ele>
<time>2010-07-18T12:32:57Z</time>
<desc>lat.=55.726891, lon.=26.550472, Alt.=144.130981m. Speed=0.036000m/h.</desc>
<speed>0.010000</speed>
</trkpt>
<trkpt lat="55.726891" lon="26.550472">
<ele>144.127075</ele>
<time>2010-07-18T12:32:58Z</time>
<desc>lat.=55.726891, lon.=26.550472, Alt.=144.127075m. Speed=0.000000m/h.</desc>
<speed>0.000000</speed>
</trkpt>
<trkpt lat="55.726891" lon="26.550472">
<ele>144.123169</ele>
<time>2010-07-18T12:32:59Z</time>
<desc>lat.=55.726891, lon.=26.550472, Alt.=144.123169m. Speed=0.000000m/h.</desc>
<speed>0.000000</speed>
</trkpt>
<trkpt lat="55.726891" lon="26.550472">
<ele>144.115356</ele>
<time>2010-07-18T12:33:00Z</time>
<desc>lat.=55.726891, lon.=26.550472, Alt.=144.115356m. Speed=0.072000m/h.</desc>
<speed>0.020000</speed>
</trkpt>
<trkpt lat="55.726891" lon="26.550472">
<ele>144.107544</ele>
<time>2010-07-18T12:33:01Z</time>
<desc>lat.=55.726891, lon.=26.550472, Alt.=144.107544m. Speed=0.072000m/h.</desc>
<speed>0.020000</speed>
</trkpt>
<trkpt lat="55.726891" lon="26.550472">
<ele>144.103638</ele>
<time>2010-07-18T12:33:02Z</time>
<desc>lat.=55.726891, lon.=26.550472, Alt.=144.103638m. Speed=0.000000m/h.</desc>
<speed>0.000000</speed>
</trkpt>
<trkpt lat="55.726891" lon="26.550472">
<ele>144.099731</ele>
<time>2010-07-18T12:33:03Z</time>
<desc>lat.=55.726891, lon.=26.550472, Alt.=144.099731m. Speed=0.000000m/h.</desc>
<speed>0.000000</speed>
</trkpt>
<trkpt lat="55.726891" lon="26.550472">
<ele>144.095825</ele>
<time>2010-07-18T12:33:04Z</time>
<desc>lat.=55.726891, lon.=26.550472, Alt.=144.095825m. Speed=0.000000m/h.</desc>
<speed>0.000000</speed>
</trkpt>
<trkpt lat="55.726891" lon="26.550472">
<ele>144.091919</ele>
<time>2010-07-18T12:33:05Z</time>
<desc>lat.=55.726891, lon.=26.550472, Alt.=144.091919m. Speed=0.000000m/h.</desc>
<speed>0.000000</speed>
</trkpt>
<trkpt lat="55.726891" lon="26.550472">
<ele>144.091919</ele>
<time>2010-07-18T12:33:06Z</time>
<desc>lat.=55.726891, lon.=26.550472, Alt.=144.091919m. Speed=0.000000m/h.</desc>
<speed>0.000000</speed>
</trkpt>
<trkpt lat="55.726891" lon="26.550472">
<ele>144.088013</ele>
<time>2010-07-18T12:33:07Z</time>
<desc>lat.=55.726891, lon.=26.550472, Alt.=144.088013m. Speed=0.000000m/h.</desc>
<speed>0.000000</speed>
</trkpt>
<trkpt lat="55.726891" lon="26.550472">
<ele>144.084106</ele>
<time>2010-07-18T12:33:08Z</time>
<desc>lat.=55.726891, lon.=26.550472, Alt.=144.084106m. Speed=0.000000m/h.</desc>
<speed>0.000000</speed>
</trkpt>
<trkpt lat="55.726891" lon="26.550472">
<ele>144.084106</ele>
<time>2010-07-18T12:33:09Z</time>
<desc>lat.=55.726891, lon.=26.550472, Alt.=144.084106m. Speed=0.000000m/h.</desc>
<speed>0.000000</speed>
</trkpt>
<trkpt lat="55.726891" lon="26.550472">
<ele>144.084106</ele>
<time>2010-07-18T12:33:10Z</time>
<desc>lat.=55.726891, lon.=26.550472, Alt.=144.084106m. Speed=0.000000m/h.</desc>
<speed>0.000000</speed>
</trkpt>
<trkpt lat="55.726891" lon="26.550472">
<ele>144.076294</ele>
<time>2010-07-18T12:33:11Z</time>
<desc>lat.=55.726891, lon.=26.550472, Alt.=144.076294m. Speed=0.000000m/h.</desc>
<speed>0.000000</speed>
</trkpt>
<trkpt lat="55.726891" lon="26.550472">
<ele>144.076294</ele>
<time>2010-07-18T12:33:12Z</time>
<desc>lat.=55.726891, lon.=26.550472, Alt.=144.076294m. Speed=0.000000m/h.</desc>
<speed>0.000000</speed>
</trkpt>
<trkpt lat="55.726891" lon="26.550472">
<ele>144.072388</ele>
<time>2010-07-18T12:33:13Z</time>
<desc>lat.=55.726891, lon.=26.550472, Alt.=144.072388m. Speed=0.000000m/h.</desc>
<speed>0.000000</speed>
</trkpt>
<trkpt lat="55.726891" lon="26.550472">
<ele>144.068481</ele>
<time>2010-07-18T12:33:14Z</time>
<desc>lat.=55.726891, lon.=26.550472, Alt.=144.068481m. Speed=0.000000m/h.</desc>
<speed>0.000000</speed>
</trkpt>
<trkpt lat="55.726891" lon="26.550472">
<ele>144.064575</ele>
<time>2010-07-18T12:33:15Z</time>
<desc>lat.=55.726891, lon.=26.550472, Alt.=144.064575m. Speed=0.000000m/h.</desc>
<speed>0.000000</speed>
</trkpt>
<trkpt lat="55.726891" lon="26.550472">
<ele>144.060669</ele>
<time>2010-07-18T12:33:16Z</time>
<desc>lat.=55.726891, lon.=26.550472, Alt.=144.060669m. Speed=0.000000m/h.</desc>
<speed>0.000000</speed>
</trkpt>
<trkpt lat="55.726891" lon="26.550472">
<ele>144.056763</ele>
<time>2010-07-18T12:33:17Z</time>
<desc>lat.=55.726891, lon.=26.550472, Alt.=144.056763m. Speed=0.000000m/h.</desc>
<speed>0.000000</speed>
</trkpt>
<trkpt lat="55.726891" lon="26.550472">
<ele>144.056763</ele>
<time>2010-07-18T12:33:18Z</time>
<desc>lat.=55.726891, lon.=26.550472, Alt.=144.056763m. Speed=0.000000m/h.</desc>
<speed>0.000000</speed>
</trkpt>
<trkpt lat="55.726891" lon="26.550472">
<ele>144.056763</ele>
<time>2010-07-18T12:33:19Z</time>
<desc>lat.=55.726891, lon.=26.550472, Alt.=144.056763m. Speed=0.000000m/h.</desc>
<speed>0.000000</speed>
</trkpt>
<trkpt lat="55.726891" lon="26.550472">
<ele>144.052856</ele>
<time>2010-07-18T12:33:20Z</time>
<desc>lat.=55.726891, lon.=26.550472, Alt.=144.052856m. Speed=0.000000m/h.</desc>
<speed>0.000000</speed>
</trkpt>
<trkpt lat="55.726891" lon="26.550472">
<ele>144.052856</ele>
<time>2010-07-18T12:33:21Z</time>
<desc>lat.=55.726891, lon.=26.550472, Alt.=144.052856m. Speed=0.000000m/h.</desc>
<speed>0.000000</speed>
</trkpt>
<trkpt lat="55.726891" lon="26.550472">
<ele>144.056763</ele>
<time>2010-07-18T12:33:22Z</time>
<desc>lat.=55.726891, lon.=26.550472, Alt.=144.056763m. Speed=0.000000m/h.</desc>
<speed>0.000000</speed>
</trkpt>
<trkpt lat="55.726891" lon="26.550472">
<ele>144.056763</ele>
<time>2010-07-18T12:33:23Z</time>
<desc>lat.=55.726891, lon.=26.550472, Alt.=144.056763m. Speed=0.000000m/h.</desc>
<speed>0.000000</speed>
</trkpt>
<trkpt lat="55.726891" lon="26.550472">
<ele>144.056763</ele>
<time>2010-07-18T12:33:24Z</time>
<desc>lat.=55.726891, lon.=26.550472, Alt.=144.056763m. Speed=0.000000m/h.</desc>
<speed>0.000000</speed>
</trkpt>
<trkpt lat="55.726891" lon="26.550472">
<ele>144.056763</ele>
<time>2010-07-18T12:33:25Z</time>
<desc>lat.=55.726891, lon.=26.550472, Alt.=144.056763m. Speed=0.000000m/h.</desc>
<speed>0.000000</speed>
</trkpt>
<trkpt lat="55.726891" lon="26.550472">
<ele>144.056763</ele>
<time>2010-07-18T12:33:26Z</time>
<desc>lat.=55.726891, lon.=26.550472, Alt.=144.056763m. Speed=0.000000m/h.</desc>
<speed>0.000000</speed>
</trkpt>
<trkpt lat="55.726891" lon="26.550472">
<ele>144.056763</ele>
<time>2010-07-18T12:33:27Z</time>
<desc>lat.=55.726891, lon.=26.550472, Alt.=144.056763m. Speed=0.000000m/h.</desc>
<speed>0.000000</speed>
</trkpt>
<trkpt lat="55.726891" lon="26.550472">
<ele>144.052856</ele>
<time>2010-07-18T12:33:28Z</time>
<desc>lat.=55.726891, lon.=26.550472, Alt.=144.052856m. Speed=0.000000m/h.</desc>
<speed>0.000000</speed>
</trkpt>
<trkpt lat="55.726891" lon="26.550472">
<ele>144.052856</ele>
<time>2010-07-18T12:33:29Z</time>
<desc>lat.=55.726891, lon.=26.550472, Alt.=144.052856m. Speed=0.000000m/h.</desc>
<speed>0.000000</speed>
</trkpt>
<trkpt lat="55.726891" lon="26.550472">
<ele>144.048950</ele>
<time>2010-07-18T12:33:30Z</time>
<desc>lat.=55.726891, lon.=26.550472, Alt.=144.048950m. Speed=0.000000m/h.</desc>
<speed>0.000000</speed>
</trkpt>
<trkpt lat="55.726891" lon="26.550472">
<ele>144.048950</ele>
<time>2010-07-18T12:33:31Z</time>
<desc>lat.=55.726891, lon.=26.550472, Alt.=144.048950m. Speed=0.000000m/h.</desc>
<speed>0.000000</speed>
</trkpt>
<trkpt lat="55.726891" lon="26.550472">
<ele>144.048950</ele>
<time>2010-07-18T12:33:32Z</time>
<desc>lat.=55.726891, lon.=26.550472, Alt.=144.048950m. Speed=0.000000m/h.</desc>
<speed>0.000000</speed>
</trkpt>
<trkpt lat="55.726894" lon="26.550472">
<ele>144.048950</ele>
<time>2010-07-18T12:33:33Z</time>
<desc>lat.=55.726894, lon.=26.550472, Alt.=144.048950m. Speed=0.000000m/h.</desc>
<speed>0.000000</speed>
</trkpt>
<trkpt lat="55.726894" lon="26.550472">
<ele>144.048950</ele>
<time>2010-07-18T12:33:34Z</time>
<desc>lat.=55.726894, lon.=26.550472, Alt.=144.048950m. Speed=0.000000m/h.</desc>
<speed>0.000000</speed>
</trkpt>
<trkpt lat="55.726894" lon="26.550472">
<ele>144.048950</ele>
<time>2010-07-18T12:33:35Z</time>
<desc>lat.=55.726894, lon.=26.550472, Alt.=144.048950m. Speed=0.000000m/h.</desc>
<speed>0.000000</speed>
</trkpt>
<trkpt lat="55.726894" lon="26.550472">
<ele>144.048950</ele>
<time>2010-07-18T12:33:36Z</time>
<desc>lat.=55.726894, lon.=26.550472, Alt.=144.048950m. Speed=0.000000m/h.</desc>
<speed>0.000000</speed>
</trkpt>
<trkpt lat="55.726894" lon="26.550472">
<ele>144.048950</ele>
<time>2010-07-18T12:33:37Z</time>
<desc>lat.=55.726894, lon.=26.550472, Alt.=144.048950m. Speed=0.000000m/h.</desc>
<speed>0.000000</speed>
</trkpt>
<trkpt lat="55.726894" lon="26.550472">
<ele>144.048950</ele>
<time>2010-07-18T12:33:38Z</time>
<desc>lat.=55.726894, lon.=26.550472, Alt.=144.048950m. Speed=0.000000m/h.</desc>
<speed>0.000000</speed>
</trkpt>
<trkpt lat="55.726894" lon="26.550472">
<ele>144.045044</ele>
<time>2010-07-18T12:33:39Z</time>
<desc>lat.=55.726894, lon.=26.550472, Alt.=144.045044m. Speed=0.000000m/h.</desc>
<speed>0.000000</speed>
</trkpt>
<trkpt lat="55.726894" lon="26.550472">
<ele>144.045044</ele>
<time>2010-07-18T12:33:40Z</time>
<desc>lat.=55.726894, lon.=26.550472, Alt.=144.045044m. Speed=0.000000m/h.</desc>
<speed>0.000000</speed>
</trkpt>
<trkpt lat="55.726894" lon="26.550472">
<ele>144.041138</ele>
<time>2010-07-18T12:33:41Z</time>
<desc>lat.=55.726894, lon.=26.550472, Alt.=144.041138m. Speed=0.000000m/h.</desc>
<speed>0.000000</speed>
</trkpt>
<trkpt lat="55.726894" lon="26.550472">
<ele>144.041138</ele>
<time>2010-07-18T12:33:42Z</time>
<desc>lat.=55.726894, lon.=26.550472, Alt.=144.041138m. Speed=0.000000m/h.</desc>
<speed>0.000000</speed>
</trkpt>
<trkpt lat="55.726894" lon="26.550472">
<ele>144.037231</ele>
<time>2010-07-18T12:33:43Z</time>
<desc>lat.=55.726894, lon.=26.550472, Alt.=144.037231m. Speed=0.000000m/h.</desc>
<speed>0.000000</speed>
</trkpt>
<trkpt lat="55.726894" lon="26.550472">
<ele>144.037231</ele>
<time>2010-07-18T12:33:44Z</time>
<desc>lat.=55.726894, lon.=26.550472, Alt.=144.037231m. Speed=0.000000m/h.</desc>
<speed>0.000000</speed>
</trkpt>
<trkpt lat="55.726894" lon="26.550472">
<ele>144.037231</ele>
<time>2010-07-18T12:33:45Z</time>
<desc>lat.=55.726894, lon.=26.550472, Alt.=144.037231m. Speed=0.000000m/h.</desc>
<speed>0.000000</speed>
</trkpt>
<trkpt lat="55.726894" lon="26.550472">
<ele>144.037231</ele>
<time>2010-07-18T12:33:46Z</time>
<desc>lat.=55.726894, lon.=26.550472, Alt.=144.037231m. Speed=0.000000m/h.</desc>
<speed>0.000000</speed>
</trkpt>
<trkpt lat="55.726894" lon="26.550472">
<ele>144.033325</ele>
<time>2010-07-18T12:33:47Z</time>
<desc>lat.=55.726894, lon.=26.550472, Alt.=144.033325m. Speed=0.000000m/h.</desc>
<speed>0.000000</speed>
</trkpt>
<trkpt lat="55.726894" lon="26.550472">
<ele>144.033325</ele>
<time>2010-07-18T12:33:48Z</time>
<desc>lat.=55.726894, lon.=26.550472, Alt.=144.033325m. Speed=0.000000m/h.</desc>
<speed>0.000000</speed>
</trkpt>
<trkpt lat="55.726894" lon="26.550472">
<ele>144.029419</ele>
<time>2010-07-18T12:33:49Z</time>
<desc>lat.=55.726894, lon.=26.550472, Alt.=144.029419m. Speed=0.000000m/h.</desc>
<speed>0.000000</speed>
</trkpt>
<trkpt lat="55.726894" lon="26.550472">
<ele>144.029419</ele>
<time>2010-07-18T12:33:50Z</time>
<desc>lat.=55.726894, lon.=26.550472, Alt.=144.029419m. Speed=0.000000m/h.</desc>
<speed>0.000000</speed>
</trkpt>
<trkpt lat="55.726894" lon="26.550472">
<ele>144.029419</ele>
<time>2010-07-18T12:33:51Z</time>
<desc>lat.=55.726894, lon.=26.550472, Alt.=144.029419m. Speed=0.000000m/h.</desc>
<speed>0.000000</speed>
</trkpt>
<trkpt lat="55.726894" lon="26.550472">
<ele>144.029419</ele>
<time>2010-07-18T12:33:52Z</time>
<desc>lat.=55.726894, lon.=26.550472, Alt.=144.029419m. Speed=0.000000m/h.</desc>
<speed>0.000000</speed>
</trkpt>
<trkpt lat="55.726894" lon="26.550472">
<ele>144.029419</ele>
<time>2010-07-18T12:33:53Z</time>
<desc>lat.=55.726894, lon.=26.550472, Alt.=144.029419m. Speed=0.000000m/h.</desc>
<speed>0.000000</speed>
</trkpt>
<trkpt lat="55.726894" lon="26.550472">
<ele>144.025513</ele>
<time>2010-07-18T12:33:54Z</time>
<desc>lat.=55.726894, lon.=26.550472, Alt.=144.025513m. Speed=0.000000m/h.</desc>
<speed>0.000000</speed>
</trkpt>
<trkpt lat="55.726894" lon="26.550472">
<ele>144.025513</ele>
<time>2010-07-18T12:33:55Z</time>
<desc>lat.=55.726894, lon.=26.550472, Alt.=144.025513m. Speed=0.000000m/h.</desc>
<speed>0.000000</speed>
</trkpt>
<trkpt lat="55.726894" lon="26.550472">
<ele>144.025513</ele>
<time>2010-07-18T12:33:56Z</time>
<desc>lat.=55.726894, lon.=26.550472, Alt.=144.025513m. Speed=0.000000m/h.</desc>
<speed>0.000000</speed>
</trkpt>
<trkpt lat="55.726894" lon="26.550472">
<ele>144.021606</ele>
<time>2010-07-18T12:33:57Z</time>
<desc>lat.=55.726894, lon.=26.550472, Alt.=144.021606m. Speed=0.000000m/h.</desc>
<speed>0.000000</speed>
</trkpt>
<trkpt lat="55.726894" lon="26.550472">
<ele>144.021606</ele>
<time>2010-07-18T12:33:58Z</time>
<desc>lat.=55.726894, lon.=26.550472, Alt.=144.021606m. Speed=0.000000m/h.</desc>
<speed>0.000000</speed>
</trkpt>
<trkpt lat="55.726894" lon="26.550472">
<ele>144.021606</ele>
<time>2010-07-18T12:33:59Z</time>
<desc>lat.=55.726894, lon.=26.550472, Alt.=144.021606m. Speed=0.000000m/h.</desc>
<speed>0.000000</speed>
</trkpt>
<trkpt lat="55.726894" lon="26.550472">
<ele>144.017700</ele>
<time>2010-07-18T12:34:00Z</time>
<desc>lat.=55.726894, lon.=26.550472, Alt.=144.017700m. Speed=0.000000m/h.</desc>
<speed>0.000000</speed>
</trkpt>
<trkpt lat="55.726894" lon="26.550472">
<ele>144.017700</ele>
<time>2010-07-18T12:34:01Z</time>
<desc>lat.=55.726894, lon.=26.550472, Alt.=144.017700m. Speed=0.000000m/h.</desc>
<speed>0.000000</speed>
</trkpt>
<trkpt lat="55.726894" lon="26.550472">
<ele>144.017700</ele>
<time>2010-07-18T12:34:02Z</time>
<desc>lat.=55.726894, lon.=26.550472, Alt.=144.017700m. Speed=0.000000m/h.</desc>
<speed>0.000000</speed>
</trkpt>
<trkpt lat="55.726894" lon="26.550472">
<ele>144.017700</ele>
<time>2010-07-18T12:34:03Z</time>
<desc>lat.=55.726894, lon.=26.550472, Alt.=144.017700m. Speed=0.000000m/h.</desc>
<speed>0.000000</speed>
</trkpt>
<trkpt lat="55.726894" lon="26.550472">
<ele>144.017700</ele>
<time>2010-07-18T12:34:04Z</time>
<desc>lat.=55.726894, lon.=26.550472, Alt.=144.017700m. Speed=0.000000m/h.</desc>
<speed>0.000000</speed>
</trkpt>
<trkpt lat="55.726894" lon="26.550472">
<ele>144.017700</ele>
<time>2010-07-18T12:34:05Z</time>
<desc>lat.=55.726894, lon.=26.550472, Alt.=144.017700m. Speed=0.000000m/h.</desc>
<speed>0.000000</speed>
</trkpt>
<trkpt lat="55.726894" lon="26.550472">
<ele>144.017700</ele>
<time>2010-07-18T12:34:06Z</time>
<desc>lat.=55.726894, lon.=26.550472, Alt.=144.017700m. Speed=0.000000m/h.</desc>
<speed>0.000000</speed>
</trkpt>
<trkpt lat="55.726894" lon="26.550472">
<ele>144.017700</ele>
<time>2010-07-18T12:34:07Z</time>
<desc>lat.=55.726894, lon.=26.550472, Alt.=144.017700m. Speed=0.000000m/h.</desc>
<speed>0.000000</speed>
</trkpt>
<trkpt lat="55.726894" lon="26.550472">
<ele>144.013794</ele>
<time>2010-07-18T12:34:08Z</time>
<desc>lat.=55.726894, lon.=26.550472, Alt.=144.013794m. Speed=0.000000m/h.</desc>
<speed>0.000000</speed>
</trkpt>
<trkpt lat="55.726894" lon="26.550472">
<ele>144.013794</ele>
<time>2010-07-18T12:34:09Z</time>
<desc>lat.=55.726894, lon.=26.550472, Alt.=144.013794m. Speed=0.000000m/h.</desc>
<speed>0.000000</speed>
</trkpt>
<trkpt lat="55.726894" lon="26.550472">
<ele>144.013794</ele>
<time>2010-07-18T12:34:10Z</time>
<desc>lat.=55.726894, lon.=26.550472, Alt.=144.013794m. Speed=0.000000m/h.</desc>
<speed>0.000000</speed>
</trkpt>
<trkpt lat="55.726894" lon="26.550472">
<ele>144.009888</ele>
<time>2010-07-18T12:34:11Z</time>
<desc>lat.=55.726894, lon.=26.550472, Alt.=144.009888m. Speed=0.000000m/h.</desc>
<speed>0.000000</speed>
</trkpt>
<trkpt lat="55.726894" lon="26.550472">
<ele>144.009888</ele>
<time>2010-07-18T12:34:12Z</time>
<desc>lat.=55.726894, lon.=26.550472, Alt.=144.009888m. Speed=0.000000m/h.</desc>
<speed>0.000000</speed>
</trkpt>
<trkpt lat="55.726894" lon="26.550472">
<ele>144.005981</ele>
<time>2010-07-18T12:34:13Z</time>
<desc>lat.=55.726894, lon.=26.550472, Alt.=144.005981m. Speed=0.000000m/h.</desc>
<speed>0.000000</speed>
</trkpt>
<trkpt lat="55.726894" lon="26.550472">
<ele>144.005981</ele>
<time>2010-07-18T12:34:14Z</time>
<desc>lat.=55.726894, lon.=26.550472, Alt.=144.005981m. Speed=0.000000m/h.</desc>
<speed>0.000000</speed>
</trkpt>
<trkpt lat="55.726894" lon="26.550472">
<ele>144.005981</ele>
<time>2010-07-18T12:34:15Z</time>
<desc>lat.=55.726894, lon.=26.550472, Alt.=144.005981m. Speed=0.000000m/h.</desc>
<speed>0.000000</speed>
</trkpt>
<trkpt lat="55.726894" lon="26.550472">
<ele>144.005981</ele>
<time>2010-07-18T12:34:16Z</time>
<desc>lat.=55.726894, lon.=26.550472, Alt.=144.005981m. Speed=0.000000m/h.</desc>
<speed>0.000000</speed>
</trkpt>
<trkpt lat="55.726894" lon="26.550472">
<ele>144.005981</ele>
<time>2010-07-18T12:34:17Z</time>
<desc>lat.=55.726894, lon.=26.550472, Alt.=144.005981m. Speed=0.000000m/h.</desc>
<speed>0.000000</speed>
</trkpt>
<trkpt lat="55.726894" lon="26.550474">
<ele>144.005981</ele>
<time>2010-07-18T12:34:18Z</time>
<desc>lat.=55.726894, lon.=26.550474, Alt.=144.005981m. Speed=0.000000m/h.</desc>
<speed>0.000000</speed>
</trkpt>
<trkpt lat="55.726894" lon="26.550474">
<ele>144.005981</ele>
<time>2010-07-18T12:34:19Z</time>
<desc>lat.=55.726894, lon.=26.550474, Alt.=144.005981m. Speed=0.000000m/h.</desc>
<speed>0.000000</speed>
</trkpt>
<trkpt lat="55.726894" lon="26.550474">
<ele>144.002075</ele>
<time>2010-07-18T12:34:20Z</time>
<desc>lat.=55.726894, lon.=26.550474, Alt.=144.002075m. Speed=0.000000m/h.</desc>
<speed>0.000000</speed>
</trkpt>
<trkpt lat="55.726894" lon="26.550474">
<ele>143.998169</ele>
<time>2010-07-18T12:34:21Z</time>
<desc>lat.=55.726894, lon.=26.550474, Alt.=143.998169m. Speed=0.000000m/h.</desc>
<speed>0.000000</speed>
</trkpt>
<trkpt lat="55.726894" lon="26.550474">
<ele>144.002075</ele>
<time>2010-07-18T12:34:22Z</time>
<desc>lat.=55.726894, lon.=26.550474, Alt.=144.002075m. Speed=0.036000m/h.</desc>
<speed>0.010000</speed>
</trkpt>
<trkpt lat="55.726894" lon="26.550474">
<ele>144.002075</ele>
<time>2010-07-18T12:34:23Z</time>
<desc>lat.=55.726894, lon.=26.550474, Alt.=144.002075m. Speed=0.000000m/h.</desc>
<speed>0.000000</speed>
</trkpt>
<trkpt lat="55.726894" lon="26.550474">
<ele>144.002075</ele>
<time>2010-07-18T12:34:24Z</time>
<desc>lat.=55.726894, lon.=26.550474, Alt.=144.002075m. Speed=0.000000m/h.</desc>
<speed>0.000000</speed>
</trkpt>
<trkpt lat="55.726894" lon="26.550474">
<ele>144.002075</ele>
<time>2010-07-18T12:34:25Z</time>
<desc>lat.=55.726894, lon.=26.550474, Alt.=144.002075m. Speed=0.000000m/h.</desc>
<speed>0.000000</speed>
</trkpt>
<trkpt lat="55.726894" lon="26.550474">
<ele>143.998169</ele>
<time>2010-07-18T12:34:26Z</time>
<desc>lat.=55.726894, lon.=26.550474, Alt.=143.998169m. Speed=0.000000m/h.</desc>
<speed>0.000000</speed>
</trkpt>
<trkpt lat="55.726894" lon="26.550474">
<ele>143.994263</ele>
<time>2010-07-18T12:34:27Z</time>
<desc>lat.=55.726894, lon.=26.550474, Alt.=143.994263m. Speed=0.000000m/h.</desc>
<speed>0.000000</speed>
</trkpt>
<trkpt lat="55.726894" lon="26.550474">
<ele>143.994263</ele>
<time>2010-07-18T12:34:28Z</time>
<desc>lat.=55.726894, lon.=26.550474, Alt.=143.994263m. Speed=0.000000m/h.</desc>
<speed>0.000000</speed>
</trkpt>
<trkpt lat="55.726894" lon="26.550474">
<ele>143.994263</ele>
<time>2010-07-18T12:34:29Z</time>
<desc>lat.=55.726894, lon.=26.550474, Alt.=143.994263m. Speed=0.000000m/h.</desc>
<speed>0.000000</speed>
</trkpt>
<trkpt lat="55.726894" lon="26.550474">
<ele>143.994263</ele>
<time>2010-07-18T12:34:30Z</time>
<desc>lat.=55.726894, lon.=26.550474, Alt.=143.994263m. Speed=0.000000m/h.</desc>
<speed>0.000000</speed>
</trkpt>
<trkpt lat="55.726894" lon="26.550474">
<ele>143.994263</ele>
<time>2010-07-18T12:34:31Z</time>
<desc>lat.=55.726894, lon.=26.550474, Alt.=143.994263m. Speed=0.000000m/h.</desc>
<speed>0.000000</speed>
</trkpt>
<trkpt lat="55.726894" lon="26.550474">
<ele>143.990356</ele>
<time>2010-07-18T12:34:32Z</time>
<desc>lat.=55.726894, lon.=26.550474, Alt.=143.990356m. Speed=0.000000m/h.</desc>
<speed>0.000000</speed>
</trkpt>
<trkpt lat="55.726894" lon="26.550474">
<ele>143.990356</ele>
<time>2010-07-18T12:34:33Z</time>
<desc>lat.=55.726894, lon.=26.550474, Alt.=143.990356m. Speed=0.000000m/h.</desc>
<speed>0.000000</speed>
</trkpt>
<trkpt lat="55.726894" lon="26.550474">
<ele>143.990356</ele>
<time>2010-07-18T12:34:34Z</time>
<desc>lat.=55.726894, lon.=26.550474, Alt.=143.990356m. Speed=0.000000m/h.</desc>
<speed>0.000000</speed>
</trkpt>
<trkpt lat="55.726894" lon="26.550474">
<ele>143.990356</ele>
<time>2010-07-18T12:34:35Z</time>
<desc>lat.=55.726894, lon.=26.550474, Alt.=143.990356m. Speed=0.000000m/h.</desc>
<speed>0.000000</speed>
</trkpt>
<trkpt lat="55.726894" lon="26.550474">
<ele>143.990356</ele>
<time>2010-07-18T12:34:36Z</time>
<desc>lat.=55.726894, lon.=26.550474, Alt.=143.990356m. Speed=0.000000m/h.</desc>
<speed>0.000000</speed>
</trkpt>
<trkpt lat="55.726894" lon="26.550474">
<ele>143.990356</ele>
<time>2010-07-18T12:34:37Z</time>
<desc>lat.=55.726894, lon.=26.550474, Alt.=143.990356m. Speed=0.036000m/h.</desc>
<speed>0.010000</speed>
</trkpt>
<trkpt lat="55.726894" lon="26.550474">
<ele>143.990356</ele>
<time>2010-07-18T12:34:38Z</time>
<desc>lat.=55.726894, lon.=26.550474, Alt.=143.990356m. Speed=0.000000m/h.</desc>
<speed>0.000000</speed>
</trkpt>
<trkpt lat="55.726894" lon="26.550474">
<ele>143.990356</ele>
<time>2010-07-18T12:34:39Z</time>
<desc>lat.=55.726894, lon.=26.550474, Alt.=143.990356m. Speed=0.000000m/h.</desc>
<speed>0.000000</speed>
</trkpt>
<trkpt lat="55.726894" lon="26.550474">
<ele>143.994263</ele>
<time>2010-07-18T12:34:40Z</time>
<desc>lat.=55.726894, lon.=26.550474, Alt.=143.994263m. Speed=0.000000m/h.</desc>
<speed>0.000000</speed>
</trkpt>
<trkpt lat="55.726894" lon="26.550474">
<ele>143.994263</ele>
<time>2010-07-18T12:34:41Z</time>
<desc>lat.=55.726894, lon.=26.550474, Alt.=143.994263m. Speed=0.000000m/h.</desc>
<speed>0.000000</speed>
</trkpt>
<trkpt lat="55.726894" lon="26.550474">
<ele>143.994263</ele>
<time>2010-07-18T12:34:42Z</time>
<desc>lat.=55.726894, lon.=26.550474, Alt.=143.994263m. Speed=0.000000m/h.</desc>
<speed>0.000000</speed>
</trkpt>
<trkpt lat="55.726894" lon="26.550474">
<ele>143.994263</ele>
<time>2010-07-18T12:34:43Z</time>
<desc>lat.=55.726894, lon.=26.550474, Alt.=143.994263m. Speed=0.000000m/h.</desc>
<speed>0.000000</speed>
</trkpt>
<trkpt lat="55.726894" lon="26.550474">
<ele>143.990356</ele>
<time>2010-07-18T12:34:44Z</time>
<desc>lat.=55.726894, lon.=26.550474, Alt.=143.990356m. Speed=0.000000m/h.</desc>
<speed>0.000000</speed>
</trkpt>
<trkpt lat="55.726894" lon="26.550474">
<ele>143.990356</ele>
<time>2010-07-18T12:34:45Z</time>
<desc>lat.=55.726894, lon.=26.550474, Alt.=143.990356m. Speed=0.000000m/h.</desc>
<speed>0.000000</speed>
</trkpt>
<trkpt lat="55.726894" lon="26.550474">
<ele>143.990356</ele>
<time>2010-07-18T12:34:46Z</time>
<desc>lat.=55.726894, lon.=26.550474, Alt.=143.990356m. Speed=0.000000m/h.</desc>
<speed>0.000000</speed>
</trkpt>
<trkpt lat="55.726894" lon="26.550474">
<ele>143.986450</ele>
<time>2010-07-18T12:34:47Z</time>
<desc>lat.=55.726894, lon.=26.550474, Alt.=143.986450m. Speed=0.000000m/h.</desc>
<speed>0.000000</speed>
</trkpt>
<trkpt lat="55.726894" lon="26.550474">
<ele>143.986450</ele>
<time>2010-07-18T12:34:48Z</time>
<desc>lat.=55.726894, lon.=26.550474, Alt.=143.986450m. Speed=0.000000m/h.</desc>
<speed>0.000000</speed>
</trkpt>
<trkpt lat="55.726894" lon="26.550474">
<ele>143.982544</ele>
<time>2010-07-18T12:34:49Z</time>
<desc>lat.=55.726894, lon.=26.550474, Alt.=143.982544m. Speed=0.000000m/h.</desc>
<speed>0.000000</speed>
</trkpt>
<trkpt lat="55.726894" lon="26.550474">
<ele>143.982544</ele>
<time>2010-07-18T12:34:50Z</time>
<desc>lat.=55.726894, lon.=26.550474, Alt.=143.982544m. Speed=0.000000m/h.</desc>
<speed>0.000000</speed>
</trkpt>
<trkpt lat="55.726894" lon="26.550474">
<ele>143.978638</ele>
<time>2010-07-18T12:34:51Z</time>
<desc>lat.=55.726894, lon.=26.550474, Alt.=143.978638m. Speed=0.000000m/h.</desc>
<speed>0.000000</speed>
</trkpt>
<trkpt lat="55.726894" lon="26.550474">
<ele>143.974731</ele>
<time>2010-07-18T12:34:52Z</time>
<desc>lat.=55.726894, lon.=26.550474, Alt.=143.974731m. Speed=0.000000m/h.</desc>
<speed>0.000000</speed>
</trkpt>
<trkpt lat="55.726894" lon="26.550474">
<ele>143.970825</ele>
<time>2010-07-18T12:34:53Z</time>
<desc>lat.=55.726894, lon.=26.550474, Alt.=143.970825m. Speed=0.000000m/h.</desc>
<speed>0.000000</speed>
</trkpt>
<trkpt lat="55.726894" lon="26.550474">
<ele>143.966919</ele>
<time>2010-07-18T12:34:54Z</time>
<desc>lat.=55.726894, lon.=26.550474, Alt.=143.966919m. Speed=0.000000m/h.</desc>
<speed>0.000000</speed>
</trkpt>
<trkpt lat="55.726894" lon="26.550474">
<ele>143.966919</ele>
<time>2010-07-18T12:34:55Z</time>
<desc>lat.=55.726894, lon.=26.550474, Alt.=143.966919m. Speed=0.000000m/h.</desc>
<speed>0.000000</speed>
</trkpt>
<trkpt lat="55.726894" lon="26.550474">
<ele>143.963013</ele>
<time>2010-07-18T12:34:56Z</time>
<desc>lat.=55.726894, lon.=26.550474, Alt.=143.963013m. Speed=0.000000m/h.</desc>
<speed>0.000000</speed>
</trkpt>
<trkpt lat="55.726894" lon="26.550474">
<ele>143.963013</ele>
<time>2010-07-18T12:34:57Z</time>
<desc>lat.=55.726894, lon.=26.550474, Alt.=143.963013m. Speed=0.000000m/h.</desc>
<speed>0.000000</speed>
</trkpt>
<trkpt lat="55.726894" lon="26.550474">
<ele>143.959106</ele>
<time>2010-07-18T12:34:58Z</time>
<desc>lat.=55.726894, lon.=26.550474, Alt.=143.959106m. Speed=0.000000m/h.</desc>
<speed>0.000000</speed>
</trkpt>
<trkpt lat="55.726894" lon="26.550474">
<ele>143.959106</ele>
<time>2010-07-18T12:34:59Z</time>
<desc>lat.=55.726894, lon.=26.550474, Alt.=143.959106m. Speed=0.000000m/h.</desc>
<speed>0.000000</speed>
</trkpt>
<trkpt lat="55.726894" lon="26.550474">
<ele>143.955200</ele>
<time>2010-07-18T12:35:00Z</time>
<desc>lat.=55.726894, lon.=26.550474, Alt.=143.955200m. Speed=0.000000m/h.</desc>
<speed>0.000000</speed>
</trkpt>
<trkpt lat="55.726894" lon="26.550474">
<ele>143.951294</ele>
<time>2010-07-18T12:35:01Z</time>
<desc>lat.=55.726894, lon.=26.550474, Alt.=143.951294m. Speed=0.000000m/h.</desc>
<speed>0.000000</speed>
</trkpt>
<trkpt lat="55.726894" lon="26.550474">
<ele>143.951294</ele>
<time>2010-07-18T12:35:02Z</time>
<desc>lat.=55.726894, lon.=26.550474, Alt.=143.951294m. Speed=0.000000m/h.</desc>
<speed>0.000000</speed>
</trkpt>
<trkpt lat="55.726894" lon="26.550474">
<ele>143.947388</ele>
<time>2010-07-18T12:35:03Z</time>
<desc>lat.=55.726894, lon.=26.550474, Alt.=143.947388m. Speed=0.000000m/h.</desc>
<speed>0.000000</speed>
</trkpt>
<trkpt lat="55.726894" lon="26.550474">
<ele>143.947388</ele>
<time>2010-07-18T12:35:04Z</time>
<desc>lat.=55.726894, lon.=26.550474, Alt.=143.947388m. Speed=0.036000m/h.</desc>
<speed>0.010000</speed>
</trkpt>
<trkpt lat="55.726894" lon="26.550474">
<ele>143.943481</ele>
<time>2010-07-18T12:35:05Z</time>
<desc>lat.=55.726894, lon.=26.550474, Alt.=143.943481m. Speed=0.000000m/h.</desc>
<speed>0.000000</speed>
</trkpt>
<trkpt lat="55.726894" lon="26.550474">
<ele>143.943481</ele>
<time>2010-07-18T12:35:06Z</time>
<desc>lat.=55.726894, lon.=26.550474, Alt.=143.943481m. Speed=0.000000m/h.</desc>
<speed>0.000000</speed>
</trkpt>
<trkpt lat="55.726894" lon="26.550474">
<ele>143.943481</ele>
<time>2010-07-18T12:35:07Z</time>
<desc>lat.=55.726894, lon.=26.550474, Alt.=143.943481m. Speed=0.000000m/h.</desc>
<speed>0.000000</speed>
</trkpt>
<trkpt lat="55.726894" lon="26.550476">
<ele>143.947388</ele>
<time>2010-07-18T12:35:08Z</time>
<desc>lat.=55.726894, lon.=26.550476, Alt.=143.947388m. Speed=0.000000m/h.</desc>
<speed>0.000000</speed>
</trkpt>
<trkpt lat="55.726894" lon="26.550476">
<ele>143.947388</ele>
<time>2010-07-18T12:35:09Z</time>
<desc>lat.=55.726894, lon.=26.550476, Alt.=143.947388m. Speed=0.000000m/h.</desc>
<speed>0.000000</speed>
</trkpt>
<trkpt lat="55.726894" lon="26.550476">
<ele>143.951294</ele>
<time>2010-07-18T12:35:10Z</time>
<desc>lat.=55.726894, lon.=26.550476, Alt.=143.951294m. Speed=0.000000m/h.</desc>
<speed>0.000000</speed>
</trkpt>
<trkpt lat="55.726894" lon="26.550476">
<ele>143.951294</ele>
<time>2010-07-18T12:35:11Z</time>
<desc>lat.=55.726894, lon.=26.550476, Alt.=143.951294m. Speed=0.000000m/h.</desc>
<speed>0.000000</speed>
</trkpt>
<trkpt lat="55.726894" lon="26.550476">
<ele>143.951294</ele>
<time>2010-07-18T12:35:12Z</time>
<desc>lat.=55.726894, lon.=26.550476, Alt.=143.951294m. Speed=0.000000m/h.</desc>
<speed>0.000000</speed>
</trkpt>
<trkpt lat="55.726894" lon="26.550476">
<ele>143.955200</ele>
<time>2010-07-18T12:35:13Z</time>
<desc>lat.=55.726894, lon.=26.550476, Alt.=143.955200m. Speed=0.000000m/h.</desc>
<speed>0.000000</speed>
</trkpt>
<trkpt lat="55.726894" lon="26.550476">
<ele>143.963013</ele>
<time>2010-07-18T12:35:14Z</time>
<desc>lat.=55.726894, lon.=26.550476, Alt.=143.963013m. Speed=0.000000m/h.</desc>
<speed>0.000000</speed>
</trkpt>
<trkpt lat="55.726894" lon="26.550476">
<ele>143.966919</ele>
<time>2010-07-18T12:35:15Z</time>
<desc>lat.=55.726894, lon.=26.550476, Alt.=143.966919m. Speed=0.000000m/h.</desc>
<speed>0.000000</speed>
</trkpt>
<trkpt lat="55.726894" lon="26.550476">
<ele>143.966919</ele>
<time>2010-07-18T12:35:16Z</time>
<desc>lat.=55.726894, lon.=26.550476, Alt.=143.966919m. Speed=0.000000m/h.</desc>
<speed>0.000000</speed>
</trkpt>
<trkpt lat="55.726894" lon="26.550476">
<ele>143.970825</ele>
<time>2010-07-18T12:35:17Z</time>
<desc>lat.=55.726894, lon.=26.550476, Alt.=143.970825m. Speed=0.000000m/h.</desc>
<speed>0.000000</speed>
</trkpt>
<trkpt lat="55.726894" lon="26.550476">
<ele>143.970825</ele>
<time>2010-07-18T12:35:18Z</time>
<desc>lat.=55.726894, lon.=26.550476, Alt.=143.970825m. Speed=0.000000m/h.</desc>
<speed>0.000000</speed>
</trkpt>
<trkpt lat="55.726894" lon="26.550476">
<ele>143.974731</ele>
<time>2010-07-18T12:35:19Z</time>
<desc>lat.=55.726894, lon.=26.550476, Alt.=143.974731m. Speed=0.000000m/h.</desc>
<speed>0.000000</speed>
</trkpt>
<trkpt lat="55.726894" lon="26.550476">
<ele>143.974731</ele>
<time>2010-07-18T12:35:20Z</time>
<desc>lat.=55.726894, lon.=26.550476, Alt.=143.974731m. Speed=0.000000m/h.</desc>
<speed>0.000000</speed>
</trkpt>
<trkpt lat="55.726894" lon="26.550476">
<ele>143.978638</ele>
<time>2010-07-18T12:35:21Z</time>
<desc>lat.=55.726894, lon.=26.550476, Alt.=143.978638m. Speed=0.000000m/h.</desc>
<speed>0.000000</speed>
</trkpt>
<trkpt lat="55.726894" lon="26.550476">
<ele>143.974731</ele>
<time>2010-07-18T12:35:22Z</time>
<desc>lat.=55.726894, lon.=26.550476, Alt.=143.974731m. Speed=0.000000m/h.</desc>
<speed>0.000000</speed>
</trkpt>
<trkpt lat="55.726894" lon="26.550476">
<ele>143.974731</ele>
<time>2010-07-18T12:35:23Z</time>
<desc>lat.=55.726894, lon.=26.550476, Alt.=143.974731m. Speed=0.000000m/h.</desc>
<speed>0.000000</speed>
</trkpt>
<trkpt lat="55.726894" lon="26.550476">
<ele>143.974731</ele>
<time>2010-07-18T12:35:24Z</time>
<desc>lat.=55.726894, lon.=26.550476, Alt.=143.974731m. Speed=0.000000m/h.</desc>
<speed>0.000000</speed>
</trkpt>
<trkpt lat="55.726894" lon="26.550476">
<ele>143.970825</ele>
<time>2010-07-18T12:35:25Z</time>
<desc>lat.=55.726894, lon.=26.550476, Alt.=143.970825m. Speed=0.000000m/h.</desc>
<speed>0.000000</speed>
</trkpt>
<trkpt lat="55.726894" lon="26.550476">
<ele>143.970825</ele>
<time>2010-07-18T12:35:26Z</time>
<desc>lat.=55.726894, lon.=26.550476, Alt.=143.970825m. Speed=0.000000m/h.</desc>
<speed>0.000000</speed>
</trkpt>
<trkpt lat="55.726894" lon="26.550476">
<ele>143.966919</ele>
<time>2010-07-18T12:35:27Z</time>
<desc>lat.=55.726894, lon.=26.550476, Alt.=143.966919m. Speed=0.000000m/h.</desc>
<speed>0.000000</speed>
</trkpt>
<trkpt lat="55.726894" lon="26.550476">
<ele>143.966919</ele>
<time>2010-07-18T12:35:28Z</time>
<desc>lat.=55.726894, lon.=26.550476, Alt.=143.966919m. Speed=0.000000m/h.</desc>
<speed>0.000000</speed>
</trkpt>
<trkpt lat="55.726894" lon="26.550476">
<ele>143.963013</ele>
<time>2010-07-18T12:35:29Z</time>
<desc>lat.=55.726894, lon.=26.550476, Alt.=143.963013m. Speed=0.000000m/h.</desc>
<speed>0.000000</speed>
</trkpt>
<trkpt lat="55.726894" lon="26.550476">
<ele>143.963013</ele>
<time>2010-07-18T12:35:30Z</time>
<desc>lat.=55.726894, lon.=26.550476, Alt.=143.963013m. Speed=0.000000m/h.</desc>
<speed>0.000000</speed>
</trkpt>
<trkpt lat="55.726894" lon="26.550476">
<ele>143.963013</ele>
<time>2010-07-18T12:35:31Z</time>
<desc>lat.=55.726894, lon.=26.550476, Alt.=143.963013m. Speed=0.000000m/h.</desc>
<speed>0.000000</speed>
</trkpt>
<trkpt lat="55.726894" lon="26.550476">
<ele>143.963013</ele>
<time>2010-07-18T12:35:32Z</time>
<desc>lat.=55.726894, lon.=26.550476, Alt.=143.963013m. Speed=0.000000m/h.</desc>
<speed>0.000000</speed>
</trkpt>
<trkpt lat="55.726894" lon="26.550476">
<ele>143.963013</ele>
<time>2010-07-18T12:35:33Z</time>
<desc>lat.=55.726894, lon.=26.550476, Alt.=143.963013m. Speed=0.000000m/h.</desc>
<speed>0.000000</speed>
</trkpt>
<trkpt lat="55.726894" lon="26.550476">
<ele>143.966919</ele>
<time>2010-07-18T12:35:34Z</time>
<desc>lat.=55.726894, lon.=26.550476, Alt.=143.966919m. Speed=0.000000m/h.</desc>
<speed>0.000000</speed>
</trkpt>
<trkpt lat="55.726894" lon="26.550476">
<ele>143.966919</ele>
<time>2010-07-18T12:35:35Z</time>
<desc>lat.=55.726894, lon.=26.550476, Alt.=143.966919m. Speed=0.000000m/h.</desc>
<speed>0.000000</speed>
</trkpt>
<trkpt lat="55.726894" lon="26.550476">
<ele>143.966919</ele>
<time>2010-07-18T12:35:36Z</time>
<desc>lat.=55.726894, lon.=26.550476, Alt.=143.966919m. Speed=0.000000m/h.</desc>
<speed>0.000000</speed>
</trkpt>
<trkpt lat="55.726894" lon="26.550476">
<ele>143.966919</ele>
<time>2010-07-18T12:35:37Z</time>
<desc>lat.=55.726894, lon.=26.550476, Alt.=143.966919m. Speed=0.000000m/h.</desc>
<speed>0.000000</speed>
</trkpt>
<trkpt lat="55.726894" lon="26.550476">
<ele>143.963013</ele>
<time>2010-07-18T12:35:38Z</time>
<desc>lat.=55.726894, lon.=26.550476, Alt.=143.963013m. Speed=0.000000m/h.</desc>
<speed>0.000000</speed>
</trkpt>
<trkpt lat="55.726894" lon="26.550476">
<ele>143.963013</ele>
<time>2010-07-18T12:35:39Z</time>
<desc>lat.=55.726894, lon.=26.550476, Alt.=143.963013m. Speed=0.000000m/h.</desc>
<speed>0.000000</speed>
</trkpt>
<trkpt lat="55.726894" lon="26.550476">
<ele>143.963013</ele>
<time>2010-07-18T12:35:40Z</time>
<desc>lat.=55.726894, lon.=26.550476, Alt.=143.963013m. Speed=0.000000m/h.</desc>
<speed>0.000000</speed>
</trkpt>
<trkpt lat="55.726894" lon="26.550476">
<ele>143.966919</ele>
<time>2010-07-18T12:35:41Z</time>
<desc>lat.=55.726894, lon.=26.550476, Alt.=143.966919m. Speed=0.000000m/h.</desc>
<speed>0.000000</speed>
</trkpt>
<trkpt lat="55.726894" lon="26.550476">
<ele>143.966919</ele>
<time>2010-07-18T12:35:42Z</time>
<desc>lat.=55.726894, lon.=26.550476, Alt.=143.966919m. Speed=0.000000m/h.</desc>
<speed>0.000000</speed>
</trkpt>
<trkpt lat="55.726894" lon="26.550476">
<ele>143.966919</ele>
<time>2010-07-18T12:35:43Z</time>
<desc>lat.=55.726894, lon.=26.550476, Alt.=143.966919m. Speed=0.072000m/h.</desc>
<speed>0.020000</speed>
</trkpt>
<trkpt lat="55.726894" lon="26.550476">
<ele>143.970825</ele>
<time>2010-07-18T12:35:44Z</time>
<desc>lat.=55.726894, lon.=26.550476, Alt.=143.970825m. Speed=0.000000m/h.</desc>
<speed>0.000000</speed>
</trkpt>
<trkpt lat="55.726894" lon="26.550476">
<ele>143.970825</ele>
<time>2010-07-18T12:35:45Z</time>
<desc>lat.=55.726894, lon.=26.550476, Alt.=143.970825m. Speed=0.000000m/h.</desc>
<speed>0.000000</speed>
</trkpt>
<trkpt lat="55.726894" lon="26.550476">
<ele>143.966919</ele>
<time>2010-07-18T12:35:46Z</time>
<desc>lat.=55.726894, lon.=26.550476, Alt.=143.966919m. Speed=0.000000m/h.</desc>
<speed>0.000000</speed>
</trkpt>
<trkpt lat="55.726894" lon="26.550476">
<ele>143.966919</ele>
<time>2010-07-18T12:35:47Z</time>
<desc>lat.=55.726894, lon.=26.550476, Alt.=143.966919m. Speed=0.000000m/h.</desc>
<speed>0.000000</speed>
</trkpt>
<trkpt lat="55.726894" lon="26.550476">
<ele>143.966919</ele>
<time>2010-07-18T12:35:48Z</time>
<desc>lat.=55.726894, lon.=26.550476, Alt.=143.966919m. Speed=0.000000m/h.</desc>
<speed>0.000000</speed>
</trkpt>
<trkpt lat="55.726894" lon="26.550476">
<ele>143.966919</ele>
<time>2010-07-18T12:35:49Z</time>
<desc>lat.=55.726894, lon.=26.550476, Alt.=143.966919m. Speed=0.000000m/h.</desc>
<speed>0.000000</speed>
</trkpt>
<trkpt lat="55.726894" lon="26.550476">
<ele>143.966919</ele>
<time>2010-07-18T12:35:50Z</time>
<desc>lat.=55.726894, lon.=26.550476, Alt.=143.966919m. Speed=0.000000m/h.</desc>
<speed>0.000000</speed>
</trkpt>
<trkpt lat="55.726894" lon="26.550476">
<ele>143.966919</ele>
<time>2010-07-18T12:35:51Z</time>
<desc>lat.=55.726894, lon.=26.550476, Alt.=143.966919m. Speed=0.000000m/h.</desc>
<speed>0.000000</speed>
</trkpt>
<trkpt lat="55.726894" lon="26.550476">
<ele>143.966919</ele>
<time>2010-07-18T12:35:52Z</time>
<desc>lat.=55.726894, lon.=26.550476, Alt.=143.966919m. Speed=0.000000m/h.</desc>
<speed>0.000000</speed>
</trkpt>
<trkpt lat="55.726894" lon="26.550476">
<ele>143.966919</ele>
<time>2010-07-18T12:35:53Z</time>
<desc>lat.=55.726894, lon.=26.550476, Alt.=143.966919m. Speed=0.000000m/h.</desc>
<speed>0.000000</speed>
</trkpt>
<trkpt lat="55.726894" lon="26.550476">
<ele>143.966919</ele>
<time>2010-07-18T12:35:54Z</time>
<desc>lat.=55.726894, lon.=26.550476, Alt.=143.966919m. Speed=0.000000m/h.</desc>
<speed>0.000000</speed>
</trkpt>
<trkpt lat="55.726894" lon="26.550476">
<ele>143.966919</ele>
<time>2010-07-18T12:35:55Z</time>
<desc>lat.=55.726894, lon.=26.550476, Alt.=143.966919m. Speed=0.000000m/h.</desc>
<speed>0.000000</speed>
</trkpt>
<trkpt lat="55.726894" lon="26.550476">
<ele>143.966919</ele>
<time>2010-07-18T12:35:56Z</time>
<desc>lat.=55.726894, lon.=26.550476, Alt.=143.966919m. Speed=0.000000m/h.</desc>
<speed>0.000000</speed>
</trkpt>
<trkpt lat="55.726894" lon="26.550476">
<ele>143.970825</ele>
<time>2010-07-18T12:35:57Z</time>
<desc>lat.=55.726894, lon.=26.550476, Alt.=143.970825m. Speed=0.000000m/h.</desc>
<speed>0.000000</speed>
</trkpt>
<trkpt lat="55.726894" lon="26.550476">
<ele>143.970825</ele>
<time>2010-07-18T12:35:58Z</time>
<desc>lat.=55.726894, lon.=26.550476, Alt.=143.970825m. Speed=0.000000m/h.</desc>
<speed>0.000000</speed>
</trkpt>
<trkpt lat="55.726894" lon="26.550476">
<ele>143.966919</ele>
<time>2010-07-18T12:35:59Z</time>
<desc>lat.=55.726894, lon.=26.550476, Alt.=143.966919m. Speed=0.000000m/h.</desc>
<speed>0.000000</speed>
</trkpt>
<trkpt lat="55.726894" lon="26.550476">
<ele>143.966919</ele>
<time>2010-07-18T12:36:00Z</time>
<desc>lat.=55.726894, lon.=26.550476, Alt.=143.966919m. Speed=0.000000m/h.</desc>
<speed>0.000000</speed>
</trkpt>
<trkpt lat="55.726894" lon="26.550476">
<ele>143.970825</ele>
<time>2010-07-18T12:36:01Z</time>
<desc>lat.=55.726894, lon.=26.550476, Alt.=143.970825m. Speed=0.000000m/h.</desc>
<speed>0.000000</speed>
</trkpt>
<trkpt lat="55.726894" lon="26.550476">
<ele>143.966919</ele>
<time>2010-07-18T12:36:02Z</time>
<desc>lat.=55.726894, lon.=26.550476, Alt.=143.966919m. Speed=0.000000m/h.</desc>
<speed>0.000000</speed>
</trkpt>
<trkpt lat="55.726894" lon="26.550476">
<ele>143.966919</ele>
<time>2010-07-18T12:36:03Z</time>
<desc>lat.=55.726894, lon.=26.550476, Alt.=143.966919m. Speed=0.000000m/h.</desc>
<speed>0.000000</speed>
</trkpt>
<trkpt lat="55.726894" lon="26.550476">
<ele>143.966919</ele>
<time>2010-07-18T12:36:04Z</time>
<desc>lat.=55.726894, lon.=26.550476, Alt.=143.966919m. Speed=0.000000m/h.</desc>
<speed>0.000000</speed>
</trkpt>
<trkpt lat="55.726894" lon="26.550476">
<ele>143.966919</ele>
<time>2010-07-18T12:36:05Z</time>
<desc>lat.=55.726894, lon.=26.550476, Alt.=143.966919m. Speed=0.000000m/h.</desc>
<speed>0.000000</speed>
</trkpt>
<trkpt lat="55.726894" lon="26.550476">
<ele>143.963013</ele>
<time>2010-07-18T12:36:06Z</time>
<desc>lat.=55.726894, lon.=26.550476, Alt.=143.963013m. Speed=0.000000m/h.</desc>
<speed>0.000000</speed>
</trkpt>
<trkpt lat="55.726894" lon="26.550476">
<ele>143.966919</ele>
<time>2010-07-18T12:36:07Z</time>
<desc>lat.=55.726894, lon.=26.550476, Alt.=143.966919m. Speed=0.000000m/h.</desc>
<speed>0.000000</speed>
</trkpt>
<trkpt lat="55.726894" lon="26.550476">
<ele>143.966919</ele>
<time>2010-07-18T12:36:08Z</time>
<desc>lat.=55.726894, lon.=26.550476, Alt.=143.966919m. Speed=0.000000m/h.</desc>
<speed>0.000000</speed>
</trkpt>
<trkpt lat="55.726894" lon="26.550476">
<ele>143.966919</ele>
<time>2010-07-18T12:36:09Z</time>
<desc>lat.=55.726894, lon.=26.550476, Alt.=143.966919m. Speed=0.000000m/h.</desc>
<speed>0.000000</speed>
</trkpt>
<trkpt lat="55.726894" lon="26.550476">
<ele>143.966919</ele>
<time>2010-07-18T12:36:10Z</time>
<desc>lat.=55.726894, lon.=26.550476, Alt.=143.966919m. Speed=0.000000m/h.</desc>
<speed>0.000000</speed>
</trkpt>
<trkpt lat="55.726894" lon="26.550476">
<ele>143.966919</ele>
<time>2010-07-18T12:36:11Z</time>
<desc>lat.=55.726894, lon.=26.550476, Alt.=143.966919m. Speed=0.000000m/h.</desc>
<speed>0.000000</speed>
</trkpt>
<trkpt lat="55.726894" lon="26.550476">
<ele>143.970825</ele>
<time>2010-07-18T12:36:12Z</time>
<desc>lat.=55.726894, lon.=26.550476, Alt.=143.970825m. Speed=0.000000m/h.</desc>
<speed>0.000000</speed>
</trkpt>
<trkpt lat="55.726894" lon="26.550476">
<ele>143.966919</ele>
<time>2010-07-18T12:36:13Z</time>
<desc>lat.=55.726894, lon.=26.550476, Alt.=143.966919m. Speed=0.000000m/h.</desc>
<speed>0.000000</speed>
</trkpt>
<trkpt lat="55.726894" lon="26.550476">
<ele>143.966919</ele>
<time>2010-07-18T12:36:14Z</time>
<desc>lat.=55.726894, lon.=26.550476, Alt.=143.966919m. Speed=0.000000m/h.</desc>
<speed>0.000000</speed>
</trkpt>
<trkpt lat="55.726894" lon="26.550476">
<ele>143.970825</ele>
<time>2010-07-18T12:36:15Z</time>
<desc>lat.=55.726894, lon.=26.550476, Alt.=143.970825m. Speed=0.000000m/h.</desc>
<speed>0.000000</speed>
</trkpt>
<trkpt lat="55.726894" lon="26.550476">
<ele>143.970825</ele>
<time>2010-07-18T12:36:16Z</time>
<desc>lat.=55.726894, lon.=26.550476, Alt.=143.970825m. Speed=0.000000m/h.</desc>
<speed>0.000000</speed>
</trkpt>
<trkpt lat="55.726894" lon="26.550476">
<ele>143.966919</ele>
<time>2010-07-18T12:36:17Z</time>
<desc>lat.=55.726894, lon.=26.550476, Alt.=143.966919m. Speed=0.000000m/h.</desc>
<speed>0.000000</speed>
</trkpt>
<trkpt lat="55.726894" lon="26.550476">
<ele>143.970825</ele>
<time>2010-07-18T12:36:18Z</time>
<desc>lat.=55.726894, lon.=26.550476, Alt.=143.970825m. Speed=0.000000m/h.</desc>
<speed>0.000000</speed>
</trkpt>
<trkpt lat="55.726894" lon="26.550476">
<ele>143.966919</ele>
<time>2010-07-18T12:36:19Z</time>
<desc>lat.=55.726894, lon.=26.550476, Alt.=143.966919m. Speed=0.000000m/h.</desc>
<speed>0.000000</speed>
</trkpt>
<trkpt lat="55.726894" lon="26.550476">
<ele>143.966919</ele>
<time>2010-07-18T12:36:20Z</time>
<desc>lat.=55.726894, lon.=26.550476, Alt.=143.966919m. Speed=0.000000m/h.</desc>
<speed>0.000000</speed>
</trkpt>
<trkpt lat="55.726894" lon="26.550476">
<ele>143.966919</ele>
<time>2010-07-18T12:36:21Z</time>
<desc>lat.=55.726894, lon.=26.550476, Alt.=143.966919m. Speed=0.000000m/h.</desc>
<speed>0.000000</speed>
</trkpt>
<trkpt lat="55.726894" lon="26.550476">
<ele>143.970825</ele>
<time>2010-07-18T12:36:22Z</time>
<desc>lat.=55.726894, lon.=26.550476, Alt.=143.970825m. Speed=0.000000m/h.</desc>
<speed>0.000000</speed>
</trkpt>
<trkpt lat="55.726894" lon="26.550476">
<ele>143.970825</ele>
<time>2010-07-18T12:36:23Z</time>
<desc>lat.=55.726894, lon.=26.550476, Alt.=143.970825m. Speed=0.000000m/h.</desc>
<speed>0.000000</speed>
</trkpt>
<trkpt lat="55.726894" lon="26.550476">
<ele>143.970825</ele>
<time>2010-07-18T12:36:24Z</time>
<desc>lat.=55.726894, lon.=26.550476, Alt.=143.970825m. Speed=0.000000m/h.</desc>
<speed>0.000000</speed>
</trkpt>
<trkpt lat="55.726894" lon="26.550476">
<ele>143.970825</ele>
<time>2010-07-18T12:36:25Z</time>
<desc>lat.=55.726894, lon.=26.550476, Alt.=143.970825m. Speed=0.000000m/h.</desc>
<speed>0.000000</speed>
</trkpt>
<trkpt lat="55.726894" lon="26.550476">
<ele>143.970825</ele>
<time>2010-07-18T12:36:26Z</time>
<desc>lat.=55.726894, lon.=26.550476, Alt.=143.970825m. Speed=0.000000m/h.</desc>
<speed>0.000000</speed>
</trkpt>
<trkpt lat="55.726894" lon="26.550476">
<ele>143.970825</ele>
<time>2010-07-18T12:36:27Z</time>
<desc>lat.=55.726894, lon.=26.550476, Alt.=143.970825m. Speed=0.000000m/h.</desc>
<speed>0.000000</speed>
</trkpt>
<trkpt lat="55.726894" lon="26.550476">
<ele>143.970825</ele>
<time>2010-07-18T12:36:28Z</time>
<desc>lat.=55.726894, lon.=26.550476, Alt.=143.970825m. Speed=0.000000m/h.</desc>
<speed>0.000000</speed>
</trkpt>
<trkpt lat="55.726894" lon="26.550476">
<ele>143.970825</ele>
<time>2010-07-18T12:36:29Z</time>
<desc>lat.=55.726894, lon.=26.550476, Alt.=143.970825m. Speed=0.000000m/h.</desc>
<speed>0.000000</speed>
</trkpt>
<trkpt lat="55.726894" lon="26.550476">
<ele>143.970825</ele>
<time>2010-07-18T12:36:30Z</time>
<desc>lat.=55.726894, lon.=26.550476, Alt.=143.970825m. Speed=0.000000m/h.</desc>
<speed>0.000000</speed>
</trkpt>
<trkpt lat="55.726894" lon="26.550476">
<ele>143.966919</ele>
<time>2010-07-18T12:36:31Z</time>
<desc>lat.=55.726894, lon.=26.550476, Alt.=143.966919m. Speed=0.000000m/h.</desc>
<speed>0.000000</speed>
</trkpt>
<trkpt lat="55.726894" lon="26.550476">
<ele>143.966919</ele>
<time>2010-07-18T12:36:32Z</time>
<desc>lat.=55.726894, lon.=26.550476, Alt.=143.966919m. Speed=0.000000m/h.</desc>
<speed>0.000000</speed>
</trkpt>
<trkpt lat="55.726894" lon="26.550476">
<ele>143.966919</ele>
<time>2010-07-18T12:36:33Z</time>
<desc>lat.=55.726894, lon.=26.550476, Alt.=143.966919m. Speed=0.000000m/h.</desc>
<speed>0.000000</speed>
</trkpt>
<trkpt lat="55.726894" lon="26.550476">
<ele>143.963013</ele>
<time>2010-07-18T12:36:34Z</time>
<desc>lat.=55.726894, lon.=26.550476, Alt.=143.963013m. Speed=0.000000m/h.</desc>
<speed>0.000000</speed>
</trkpt>
<trkpt lat="55.726894" lon="26.550476">
<ele>143.963013</ele>
<time>2010-07-18T12:36:35Z</time>
<desc>lat.=55.726894, lon.=26.550476, Alt.=143.963013m. Speed=0.000000m/h.</desc>
<speed>0.000000</speed>
</trkpt>
<trkpt lat="55.726894" lon="26.550476">
<ele>143.959106</ele>
<time>2010-07-18T12:36:36Z</time>
<desc>lat.=55.726894, lon.=26.550476, Alt.=143.959106m. Speed=0.000000m/h.</desc>
<speed>0.000000</speed>
</trkpt>
<trkpt lat="55.726894" lon="26.550476">
<ele>143.959106</ele>
<time>2010-07-18T12:36:37Z</time>
<desc>lat.=55.726894, lon.=26.550476, Alt.=143.959106m. Speed=0.000000m/h.</desc>
<speed>0.000000</speed>
</trkpt>
<trkpt lat="55.726894" lon="26.550476">
<ele>143.959106</ele>
<time>2010-07-18T12:36:38Z</time>
<desc>lat.=55.726894, lon.=26.550476, Alt.=143.959106m. Speed=0.000000m/h.</desc>
<speed>0.000000</speed>
</trkpt>
<trkpt lat="55.726894" lon="26.550476">
<ele>143.959106</ele>
<time>2010-07-18T12:36:39Z</time>
<desc>lat.=55.726894, lon.=26.550476, Alt.=143.959106m. Speed=0.000000m/h.</desc>
<speed>0.000000</speed>
</trkpt>
<trkpt lat="55.726894" lon="26.550476">
<ele>143.955200</ele>
<time>2010-07-18T12:36:40Z</time>
<desc>lat.=55.726894, lon.=26.550476, Alt.=143.955200m. Speed=0.000000m/h.</desc>
<speed>0.000000</speed>
</trkpt>
<trkpt lat="55.726894" lon="26.550476">
<ele>143.959106</ele>
<time>2010-07-18T12:36:41Z</time>
<desc>lat.=55.726894, lon.=26.550476, Alt.=143.959106m. Speed=0.000000m/h.</desc>
<speed>0.000000</speed>
</trkpt>
<trkpt lat="55.726894" lon="26.550476">
<ele>143.955200</ele>
<time>2010-07-18T12:36:42Z</time>
<desc>lat.=55.726894, lon.=26.550476, Alt.=143.955200m. Speed=0.000000m/h.</desc>
<speed>0.000000</speed>
</trkpt>
<trkpt lat="55.726894" lon="26.550476">
<ele>143.955200</ele>
<time>2010-07-18T12:36:43Z</time>
<desc>lat.=55.726894, lon.=26.550476, Alt.=143.955200m. Speed=0.000000m/h.</desc>
<speed>0.000000</speed>
</trkpt>
<trkpt lat="55.726894" lon="26.550476">
<ele>143.955200</ele>
<time>2010-07-18T12:36:44Z</time>
<desc>lat.=55.726894, lon.=26.550476, Alt.=143.955200m. Speed=0.000000m/h.</desc>
<speed>0.000000</speed>
</trkpt>
<trkpt lat="55.726894" lon="26.550476">
<ele>143.955200</ele>
<time>2010-07-18T12:36:45Z</time>
<desc>lat.=55.726894, lon.=26.550476, Alt.=143.955200m. Speed=0.000000m/h.</desc>
<speed>0.000000</speed>
</trkpt>
<trkpt lat="55.726894" lon="26.550476">
<ele>143.955200</ele>
<time>2010-07-18T12:36:46Z</time>
<desc>lat.=55.726894, lon.=26.550476, Alt.=143.955200m. Speed=0.000000m/h.</desc>
<speed>0.000000</speed>
</trkpt>
<trkpt lat="55.726894" lon="26.550476">
<ele>143.959106</ele>
<time>2010-07-18T12:36:47Z</time>
<desc>lat.=55.726894, lon.=26.550476, Alt.=143.959106m. Speed=0.000000m/h.</desc>
<speed>0.000000</speed>
</trkpt>
<trkpt lat="55.726894" lon="26.550476">
<ele>143.959106</ele>
<time>2010-07-18T12:36:48Z</time>
<desc>lat.=55.726894, lon.=26.550476, Alt.=143.959106m. Speed=0.000000m/h.</desc>
<speed>0.000000</speed>
</trkpt>
<trkpt lat="55.726894" lon="26.550476">
<ele>143.959106</ele>
<time>2010-07-18T12:36:49Z</time>
<desc>lat.=55.726894, lon.=26.550476, Alt.=143.959106m. Speed=0.000000m/h.</desc>
<speed>0.000000</speed>
</trkpt>
<trkpt lat="55.726894" lon="26.550476">
<ele>143.959106</ele>
<time>2010-07-18T12:36:50Z</time>
<desc>lat.=55.726894, lon.=26.550476, Alt.=143.959106m. Speed=0.000000m/h.</desc>
<speed>0.000000</speed>
</trkpt>
<trkpt lat="55.726894" lon="26.550476">
<ele>143.955200</ele>
<time>2010-07-18T12:36:51Z</time>
<desc>lat.=55.726894, lon.=26.550476, Alt.=143.955200m. Speed=0.000000m/h.</desc>
<speed>0.000000</speed>
</trkpt>
<trkpt lat="55.726894" lon="26.550476">
<ele>143.955200</ele>
<time>2010-07-18T12:36:52Z</time>
<desc>lat.=55.726894, lon.=26.550476, Alt.=143.955200m. Speed=0.000000m/h.</desc>
<speed>0.000000</speed>
</trkpt>
<trkpt lat="55.726894" lon="26.550476">
<ele>143.955200</ele>
<time>2010-07-18T12:36:53Z</time>
<desc>lat.=55.726894, lon.=26.550476, Alt.=143.955200m. Speed=0.000000m/h.</desc>
<speed>0.000000</speed>
</trkpt>
<trkpt lat="55.726894" lon="26.550476">
<ele>143.951294</ele>
<time>2010-07-18T12:36:54Z</time>
<desc>lat.=55.726894, lon.=26.550476, Alt.=143.951294m. Speed=0.000000m/h.</desc>
<speed>0.000000</speed>
</trkpt>
<trkpt lat="55.726894" lon="26.550476">
<ele>143.951294</ele>
<time>2010-07-18T12:36:55Z</time>
<desc>lat.=55.726894, lon.=26.550476, Alt.=143.951294m. Speed=0.000000m/h.</desc>
<speed>0.000000</speed>
</trkpt>
<trkpt lat="55.726894" lon="26.550476">
<ele>143.947388</ele>
<time>2010-07-18T12:36:56Z</time>
<desc>lat.=55.726894, lon.=26.550476, Alt.=143.947388m. Speed=0.000000m/h.</desc>
<speed>0.000000</speed>
</trkpt>
<trkpt lat="55.726894" lon="26.550476">
<ele>143.947388</ele>
<time>2010-07-18T12:36:57Z</time>
<desc>lat.=55.726894, lon.=26.550476, Alt.=143.947388m. Speed=0.000000m/h.</desc>
<speed>0.000000</speed>
</trkpt>
<trkpt lat="55.726894" lon="26.550476">
<ele>143.943481</ele>
<time>2010-07-18T12:36:58Z</time>
<desc>lat.=55.726894, lon.=26.550476, Alt.=143.943481m. Speed=0.000000m/h.</desc>
<speed>0.000000</speed>
</trkpt>
<trkpt lat="55.726894" lon="26.550476">
<ele>143.935669</ele>
<time>2010-07-18T12:36:59Z</time>
<desc>lat.=55.726894, lon.=26.550476, Alt.=143.935669m. Speed=0.000000m/h.</desc>
<speed>0.000000</speed>
</trkpt>
<trkpt lat="55.726894" lon="26.550476">
<ele>143.935669</ele>
<time>2010-07-18T12:37:00Z</time>
<desc>lat.=55.726894, lon.=26.550476, Alt.=143.935669m. Speed=0.000000m/h.</desc>
<speed>0.000000</speed>
</trkpt>
<trkpt lat="55.726894" lon="26.550476">
<ele>143.935669</ele>
<time>2010-07-18T12:37:01Z</time>
<desc>lat.=55.726894, lon.=26.550476, Alt.=143.935669m. Speed=0.000000m/h.</desc>
<speed>0.000000</speed>
</trkpt>
<trkpt lat="55.726894" lon="26.550476">
<ele>143.939575</ele>
<time>2010-07-18T12:37:02Z</time>
<desc>lat.=55.726894, lon.=26.550476, Alt.=143.939575m. Speed=0.000000m/h.</desc>
<speed>0.000000</speed>
</trkpt>
<trkpt lat="55.726894" lon="26.550476">
<ele>143.935669</ele>
<time>2010-07-18T12:37:03Z</time>
<desc>lat.=55.726894, lon.=26.550476, Alt.=143.935669m. Speed=0.000000m/h.</desc>
<speed>0.000000</speed>
</trkpt>
<trkpt lat="55.726894" lon="26.550476">
<ele>143.939575</ele>
<time>2010-07-18T12:37:04Z</time>
<desc>lat.=55.726894, lon.=26.550476, Alt.=143.939575m. Speed=0.000000m/h.</desc>
<speed>0.000000</speed>
</trkpt>
<trkpt lat="55.726894" lon="26.550476">
<ele>143.939575</ele>
<time>2010-07-18T12:37:05Z</time>
<desc>lat.=55.726894, lon.=26.550476, Alt.=143.939575m. Speed=0.000000m/h.</desc>
<speed>0.000000</speed>
</trkpt>
<trkpt lat="55.726894" lon="26.550476">
<ele>143.939575</ele>
<time>2010-07-18T12:37:06Z</time>
<desc>lat.=55.726894, lon.=26.550476, Alt.=143.939575m. Speed=0.000000m/h.</desc>
<speed>0.000000</speed>
</trkpt>
<trkpt lat="55.726894" lon="26.550476">
<ele>143.939575</ele>
<time>2010-07-18T12:37:07Z</time>
<desc>lat.=55.726894, lon.=26.550476, Alt.=143.939575m. Speed=0.000000m/h.</desc>
<speed>0.000000</speed>
</trkpt>
<trkpt lat="55.726894" lon="26.550476">
<ele>143.939575</ele>
<time>2010-07-18T12:37:08Z</time>
<desc>lat.=55.726894, lon.=26.550476, Alt.=143.939575m. Speed=0.000000m/h.</desc>
<speed>0.000000</speed>
</trkpt>
<trkpt lat="55.726894" lon="26.550476">
<ele>143.943481</ele>
<time>2010-07-18T12:37:09Z</time>
<desc>lat.=55.726894, lon.=26.550476, Alt.=143.943481m. Speed=0.000000m/h.</desc>
<speed>0.000000</speed>
</trkpt>
<trkpt lat="55.726894" lon="26.550476">
<ele>143.943481</ele>
<time>2010-07-18T12:37:10Z</time>
<desc>lat.=55.726894, lon.=26.550476, Alt.=143.943481m. Speed=0.036000m/h.</desc>
<speed>0.010000</speed>
</trkpt>
<trkpt lat="55.726894" lon="26.550476">
<ele>143.947388</ele>
<time>2010-07-18T12:37:11Z</time>
<desc>lat.=55.726894, lon.=26.550476, Alt.=143.947388m. Speed=0.000000m/h.</desc>
<speed>0.000000</speed>
</trkpt>
<trkpt lat="55.726894" lon="26.550476">
<ele>143.951294</ele>
<time>2010-07-18T12:37:12Z</time>
<desc>lat.=55.726894, lon.=26.550476, Alt.=143.951294m. Speed=0.000000m/h.</desc>
<speed>0.000000</speed>
</trkpt>
<trkpt lat="55.726894" lon="26.550476">
<ele>143.955200</ele>
<time>2010-07-18T12:37:13Z</time>
<desc>lat.=55.726894, lon.=26.550476, Alt.=143.955200m. Speed=0.000000m/h.</desc>
<speed>0.000000</speed>
</trkpt>
<trkpt lat="55.726894" lon="26.550476">
<ele>143.959106</ele>
<time>2010-07-18T12:37:14Z</time>
<desc>lat.=55.726894, lon.=26.550476, Alt.=143.959106m. Speed=0.000000m/h.</desc>
<speed>0.000000</speed>
</trkpt>
<trkpt lat="55.726894" lon="26.550476">
<ele>143.959106</ele>
<time>2010-07-18T12:37:15Z</time>
<desc>lat.=55.726894, lon.=26.550476, Alt.=143.959106m. Speed=0.000000m/h.</desc>
<speed>0.000000</speed>
</trkpt>
<trkpt lat="55.726894" lon="26.550476">
<ele>143.963013</ele>
<time>2010-07-18T12:37:16Z</time>
<desc>lat.=55.726894, lon.=26.550476, Alt.=143.963013m. Speed=0.000000m/h.</desc>
<speed>0.000000</speed>
</trkpt>
<trkpt lat="55.726894" lon="26.550476">
<ele>143.966919</ele>
<time>2010-07-18T12:37:17Z</time>
<desc>lat.=55.726894, lon.=26.550476, Alt.=143.966919m. Speed=0.000000m/h.</desc>
<speed>0.000000</speed>
</trkpt>
<trkpt lat="55.726894" lon="26.550476">
<ele>143.970825</ele>
<time>2010-07-18T12:37:18Z</time>
<desc>lat.=55.726894, lon.=26.550476, Alt.=143.970825m. Speed=0.000000m/h.</desc>
<speed>0.000000</speed>
</trkpt>
<trkpt lat="55.726894" lon="26.550476">
<ele>143.970825</ele>
<time>2010-07-18T12:37:19Z</time>
<desc>lat.=55.726894, lon.=26.550476, Alt.=143.970825m. Speed=0.000000m/h.</desc>
<speed>0.000000</speed>
</trkpt>
<trkpt lat="55.726894" lon="26.550476">
<ele>143.974731</ele>
<time>2010-07-18T12:37:20Z</time>
<desc>lat.=55.726894, lon.=26.550476, Alt.=143.974731m. Speed=0.000000m/h.</desc>
<speed>0.000000</speed>
</trkpt>
<trkpt lat="55.726894" lon="26.550476">
<ele>143.978638</ele>
<time>2010-07-18T12:37:21Z</time>
<desc>lat.=55.726894, lon.=26.550476, Alt.=143.978638m. Speed=0.000000m/h.</desc>
<speed>0.000000</speed>
</trkpt>
<trkpt lat="55.726894" lon="26.550476">
<ele>143.982544</ele>
<time>2010-07-18T12:37:22Z</time>
<desc>lat.=55.726894, lon.=26.550476, Alt.=143.982544m. Speed=0.000000m/h.</desc>
<speed>0.000000</speed>
</trkpt>
<trkpt lat="55.726894" lon="26.550476">
<ele>143.986450</ele>
<time>2010-07-18T12:37:23Z</time>
<desc>lat.=55.726894, lon.=26.550476, Alt.=143.986450m. Speed=0.000000m/h.</desc>
<speed>0.000000</speed>
</trkpt>
<trkpt lat="55.726894" lon="26.550476">
<ele>143.994263</ele>
<time>2010-07-18T12:37:24Z</time>
<desc>lat.=55.726894, lon.=26.550476, Alt.=143.994263m. Speed=0.000000m/h.</desc>
<speed>0.000000</speed>
</trkpt>
<trkpt lat="55.726894" lon="26.550476">
<ele>143.998169</ele>
<time>2010-07-18T12:37:25Z</time>
<desc>lat.=55.726894, lon.=26.550476, Alt.=143.998169m. Speed=0.000000m/h.</desc>
<speed>0.000000</speed>
</trkpt>
<trkpt lat="55.726894" lon="26.550476">
<ele>143.998169</ele>
<time>2010-07-18T12:37:26Z</time>
<desc>lat.=55.726894, lon.=26.550476, Alt.=143.998169m. Speed=0.036000m/h.</desc>
<speed>0.010000</speed>
</trkpt>
<trkpt lat="55.726894" lon="26.550476">
<ele>144.002075</ele>
<time>2010-07-18T12:37:27Z</time>
<desc>lat.=55.726894, lon.=26.550476, Alt.=144.002075m. Speed=0.000000m/h.</desc>
<speed>0.000000</speed>
</trkpt>
<trkpt lat="55.726894" lon="26.550476">
<ele>144.002075</ele>
<time>2010-07-18T12:37:28Z</time>
<desc>lat.=55.726894, lon.=26.550476, Alt.=144.002075m. Speed=0.000000m/h.</desc>
<speed>0.000000</speed>
</trkpt>
<trkpt lat="55.726894" lon="26.550476">
<ele>144.002075</ele>
<time>2010-07-18T12:37:29Z</time>
<desc>lat.=55.726894, lon.=26.550476, Alt.=144.002075m. Speed=0.000000m/h.</desc>
<speed>0.000000</speed>
</trkpt>
<trkpt lat="55.726894" lon="26.550476">
<ele>144.002075</ele>
<time>2010-07-18T12:37:30Z</time>
<desc>lat.=55.726894, lon.=26.550476, Alt.=144.002075m. Speed=0.000000m/h.</desc>
<speed>0.000000</speed>
</trkpt>
<trkpt lat="55.726894" lon="26.550476">
<ele>144.002075</ele>
<time>2010-07-18T12:37:31Z</time>
<desc>lat.=55.726894, lon.=26.550476, Alt.=144.002075m. Speed=0.000000m/h.</desc>
<speed>0.000000</speed>
</trkpt>
<trkpt lat="55.726894" lon="26.550476">
<ele>144.002075</ele>
<time>2010-07-18T12:37:32Z</time>
<desc>lat.=55.726894, lon.=26.550476, Alt.=144.002075m. Speed=0.000000m/h.</desc>
<speed>0.000000</speed>
</trkpt>
<trkpt lat="55.726894" lon="26.550476">
<ele>143.998169</ele>
<time>2010-07-18T12:37:33Z</time>
<desc>lat.=55.726894, lon.=26.550476, Alt.=143.998169m. Speed=0.000000m/h.</desc>
<speed>0.000000</speed>
</trkpt>
<trkpt lat="55.726894" lon="26.550476">
<ele>143.998169</ele>
<time>2010-07-18T12:37:34Z</time>
<desc>lat.=55.726894, lon.=26.550476, Alt.=143.998169m. Speed=0.000000m/h.</desc>
<speed>0.000000</speed>
</trkpt>
<trkpt lat="55.726894" lon="26.550476">
<ele>143.998169</ele>
<time>2010-07-18T12:37:35Z</time>
<desc>lat.=55.726894, lon.=26.550476, Alt.=143.998169m. Speed=0.000000m/h.</desc>
<speed>0.000000</speed>
</trkpt>
<trkpt lat="55.726894" lon="26.550476">
<ele>143.998169</ele>
<time>2010-07-18T12:37:36Z</time>
<desc>lat.=55.726894, lon.=26.550476, Alt.=143.998169m. Speed=0.000000m/h.</desc>
<speed>0.000000</speed>
</trkpt>
<trkpt lat="55.726894" lon="26.550476">
<ele>143.998169</ele>
<time>2010-07-18T12:37:37Z</time>
<desc>lat.=55.726894, lon.=26.550476, Alt.=143.998169m. Speed=0.000000m/h.</desc>
<speed>0.000000</speed>
</trkpt>
<trkpt lat="55.726894" lon="26.550476">
<ele>143.998169</ele>
<time>2010-07-18T12:37:38Z</time>
<desc>lat.=55.726894, lon.=26.550476, Alt.=143.998169m. Speed=0.000000m/h.</desc>
<speed>0.000000</speed>
</trkpt>
<trkpt lat="55.726894" lon="26.550476">
<ele>143.998169</ele>
<time>2010-07-18T12:37:39Z</time>
<desc>lat.=55.726894, lon.=26.550476, Alt.=143.998169m. Speed=0.000000m/h.</desc>
<speed>0.000000</speed>
</trkpt>
<trkpt lat="55.726894" lon="26.550476">
<ele>143.994263</ele>
<time>2010-07-18T12:37:40Z</time>
<desc>lat.=55.726894, lon.=26.550476, Alt.=143.994263m. Speed=0.000000m/h.</desc>
<speed>0.000000</speed>
</trkpt>
<trkpt lat="55.726894" lon="26.550478">
<ele>143.994263</ele>
<time>2010-07-18T12:37:41Z</time>
<desc>lat.=55.726894, lon.=26.550478, Alt.=143.994263m. Speed=0.000000m/h.</desc>
<speed>0.000000</speed>
</trkpt>
<trkpt lat="55.726894" lon="26.550478">
<ele>143.990356</ele>
<time>2010-07-18T12:37:42Z</time>
<desc>lat.=55.726894, lon.=26.550478, Alt.=143.990356m. Speed=0.000000m/h.</desc>
<speed>0.000000</speed>
</trkpt>
<trkpt lat="55.726894" lon="26.550478">
<ele>143.986450</ele>
<time>2010-07-18T12:37:43Z</time>
<desc>lat.=55.726894, lon.=26.550478, Alt.=143.986450m. Speed=0.000000m/h.</desc>
<speed>0.000000</speed>
</trkpt>
<trkpt lat="55.726894" lon="26.550478">
<ele>143.986450</ele>
<time>2010-07-18T12:37:44Z</time>
<desc>lat.=55.726894, lon.=26.550478, Alt.=143.986450m. Speed=0.000000m/h.</desc>
<speed>0.000000</speed>
</trkpt>
<trkpt lat="55.726894" lon="26.550478">
<ele>143.986450</ele>
<time>2010-07-18T12:37:45Z</time>
<desc>lat.=55.726894, lon.=26.550478, Alt.=143.986450m. Speed=0.000000m/h.</desc>
<speed>0.000000</speed>
</trkpt>
<trkpt lat="55.726894" lon="26.550478">
<ele>143.986450</ele>
<time>2010-07-18T12:37:46Z</time>
<desc>lat.=55.726894, lon.=26.550478, Alt.=143.986450m. Speed=0.000000m/h.</desc>
<speed>0.000000</speed>
</trkpt>
<trkpt lat="55.726894" lon="26.550478">
<ele>143.986450</ele>
<time>2010-07-18T12:37:47Z</time>
<desc>lat.=55.726894, lon.=26.550478, Alt.=143.986450m. Speed=0.000000m/h.</desc>
<speed>0.000000</speed>
</trkpt>
<trkpt lat="55.726894" lon="26.550478">
<ele>143.986450</ele>
<time>2010-07-18T12:37:48Z</time>
<desc>lat.=55.726894, lon.=26.550478, Alt.=143.986450m. Speed=0.000000m/h.</desc>
<speed>0.000000</speed>
</trkpt>
<trkpt lat="55.726894" lon="26.550478">
<ele>143.986450</ele>
<time>2010-07-18T12:37:49Z</time>
<desc>lat.=55.726894, lon.=26.550478, Alt.=143.986450m. Speed=0.000000m/h.</desc>
<speed>0.000000</speed>
</trkpt>
<trkpt lat="55.726894" lon="26.550478">
<ele>143.986450</ele>
<time>2010-07-18T12:37:50Z</time>
<desc>lat.=55.726894, lon.=26.550478, Alt.=143.986450m. Speed=0.000000m/h.</desc>
<speed>0.000000</speed>
</trkpt>
<trkpt lat="55.726894" lon="26.550478">
<ele>143.986450</ele>
<time>2010-07-18T12:37:51Z</time>
<desc>lat.=55.726894, lon.=26.550478, Alt.=143.986450m. Speed=0.000000m/h.</desc>
<speed>0.000000</speed>
</trkpt>
<trkpt lat="55.726894" lon="26.550478">
<ele>143.982544</ele>
<time>2010-07-18T12:37:52Z</time>
<desc>lat.=55.726894, lon.=26.550478, Alt.=143.982544m. Speed=0.000000m/h.</desc>
<speed>0.000000</speed>
</trkpt>
<trkpt lat="55.726894" lon="26.550478">
<ele>143.982544</ele>
<time>2010-07-18T12:37:53Z</time>
<desc>lat.=55.726894, lon.=26.550478, Alt.=143.982544m. Speed=0.000000m/h.</desc>
<speed>0.000000</speed>
</trkpt>
<trkpt lat="55.726894" lon="26.550478">
<ele>143.982544</ele>
<time>2010-07-18T12:37:54Z</time>
<desc>lat.=55.726894, lon.=26.550478, Alt.=143.982544m. Speed=0.000000m/h.</desc>
<speed>0.000000</speed>
</trkpt>
<trkpt lat="55.726894" lon="26.550478">
<ele>143.986450</ele>
<time>2010-07-18T12:37:55Z</time>
<desc>lat.=55.726894, lon.=26.550478, Alt.=143.986450m. Speed=0.000000m/h.</desc>
<speed>0.000000</speed>
</trkpt>
<trkpt lat="55.726894" lon="26.550478">
<ele>143.986450</ele>
<time>2010-07-18T12:37:56Z</time>
<desc>lat.=55.726894, lon.=26.550478, Alt.=143.986450m. Speed=0.036000m/h.</desc>
<speed>0.010000</speed>
</trkpt>
<trkpt lat="55.726894" lon="26.550478">
<ele>143.986450</ele>
<time>2010-07-18T12:37:57Z</time>
<desc>lat.=55.726894, lon.=26.550478, Alt.=143.986450m. Speed=0.000000m/h.</desc>
<speed>0.000000</speed>
</trkpt>
<trkpt lat="55.726894" lon="26.550478">
<ele>143.990356</ele>
<time>2010-07-18T12:37:58Z</time>
<desc>lat.=55.726894, lon.=26.550478, Alt.=143.990356m. Speed=0.000000m/h.</desc>
<speed>0.000000</speed>
</trkpt>
<trkpt lat="55.726894" lon="26.550478">
<ele>143.994263</ele>
<time>2010-07-18T12:37:59Z</time>
<desc>lat.=55.726894, lon.=26.550478, Alt.=143.994263m. Speed=0.000000m/h.</desc>
<speed>0.000000</speed>
</trkpt>
<trkpt lat="55.726894" lon="26.550478">
<ele>143.994263</ele>
<time>2010-07-18T12:38:00Z</time>
<desc>lat.=55.726894, lon.=26.550478, Alt.=143.994263m. Speed=0.000000m/h.</desc>
<speed>0.000000</speed>
</trkpt>
<trkpt lat="55.726894" lon="26.550478">
<ele>143.998169</ele>
<time>2010-07-18T12:38:01Z</time>
<desc>lat.=55.726894, lon.=26.550478, Alt.=143.998169m. Speed=0.000000m/h.</desc>
<speed>0.000000</speed>
</trkpt>
<trkpt lat="55.726894" lon="26.550478">
<ele>143.998169</ele>
<time>2010-07-18T12:38:02Z</time>
<desc>lat.=55.726894, lon.=26.550478, Alt.=143.998169m. Speed=0.000000m/h.</desc>
<speed>0.000000</speed>
</trkpt>
<trkpt lat="55.726894" lon="26.550478">
<ele>144.002075</ele>
<time>2010-07-18T12:38:03Z</time>
<desc>lat.=55.726894, lon.=26.550478, Alt.=144.002075m. Speed=0.000000m/h.</desc>
<speed>0.000000</speed>
</trkpt>
<trkpt lat="55.726894" lon="26.550478">
<ele>144.002075</ele>
<time>2010-07-18T12:38:04Z</time>
<desc>lat.=55.726894, lon.=26.550478, Alt.=144.002075m. Speed=0.000000m/h.</desc>
<speed>0.000000</speed>
</trkpt>
<trkpt lat="55.726894" lon="26.550478">
<ele>144.005981</ele>
<time>2010-07-18T12:38:05Z</time>
<desc>lat.=55.726894, lon.=26.550478, Alt.=144.005981m. Speed=0.000000m/h.</desc>
<speed>0.000000</speed>
</trkpt>
<trkpt lat="55.726894" lon="26.550478">
<ele>144.009888</ele>
<time>2010-07-18T12:38:06Z</time>
<desc>lat.=55.726894, lon.=26.550478, Alt.=144.009888m. Speed=0.000000m/h.</desc>
<speed>0.000000</speed>
</trkpt>
<trkpt lat="55.726894" lon="26.550478">
<ele>144.009888</ele>
<time>2010-07-18T12:38:07Z</time>
<desc>lat.=55.726894, lon.=26.550478, Alt.=144.009888m. Speed=0.000000m/h.</desc>
<speed>0.000000</speed>
</trkpt>
<trkpt lat="55.726894" lon="26.550478">
<ele>144.013794</ele>
<time>2010-07-18T12:38:08Z</time>
<desc>lat.=55.726894, lon.=26.550478, Alt.=144.013794m. Speed=0.000000m/h.</desc>
<speed>0.000000</speed>
</trkpt>
<trkpt lat="55.726894" lon="26.550478">
<ele>144.013794</ele>
<time>2010-07-18T12:38:09Z</time>
<desc>lat.=55.726894, lon.=26.550478, Alt.=144.013794m. Speed=0.000000m/h.</desc>
<speed>0.000000</speed>
</trkpt>
<trkpt lat="55.726894" lon="26.550480">
<ele>144.017700</ele>
<time>2010-07-18T12:38:10Z</time>
<desc>lat.=55.726894, lon.=26.550480, Alt.=144.017700m. Speed=0.000000m/h.</desc>
<speed>0.000000</speed>
</trkpt>
<trkpt lat="55.726894" lon="26.550480">
<ele>144.021606</ele>
<time>2010-07-18T12:38:11Z</time>
<desc>lat.=55.726894, lon.=26.550480, Alt.=144.021606m. Speed=0.000000m/h.</desc>
<speed>0.000000</speed>
</trkpt>
<trkpt lat="55.726894" lon="26.550480">
<ele>144.025513</ele>
<time>2010-07-18T12:38:12Z</time>
<desc>lat.=55.726894, lon.=26.550480, Alt.=144.025513m. Speed=0.000000m/h.</desc>
<speed>0.000000</speed>
</trkpt>
<trkpt lat="55.726894" lon="26.550480">
<ele>144.029419</ele>
<time>2010-07-18T12:38:13Z</time>
<desc>lat.=55.726894, lon.=26.550480, Alt.=144.029419m. Speed=0.000000m/h.</desc>
<speed>0.000000</speed>
</trkpt>
<trkpt lat="55.726894" lon="26.550480">
<ele>144.029419</ele>
<time>2010-07-18T12:38:14Z</time>
<desc>lat.=55.726894, lon.=26.550480, Alt.=144.029419m. Speed=0.000000m/h.</desc>
<speed>0.000000</speed>
</trkpt>
<trkpt lat="55.726894" lon="26.550480">
<ele>144.033325</ele>
<time>2010-07-18T12:38:15Z</time>
<desc>lat.=55.726894, lon.=26.550480, Alt.=144.033325m. Speed=0.000000m/h.</desc>
<speed>0.000000</speed>
</trkpt>
<trkpt lat="55.726894" lon="26.550480">
<ele>144.033325</ele>
<time>2010-07-18T12:38:16Z</time>
<desc>lat.=55.726894, lon.=26.550480, Alt.=144.033325m. Speed=0.000000m/h.</desc>
<speed>0.000000</speed>
</trkpt>
<trkpt lat="55.726894" lon="26.550480">
<ele>144.033325</ele>
<time>2010-07-18T12:38:17Z</time>
<desc>lat.=55.726894, lon.=26.550480, Alt.=144.033325m. Speed=0.000000m/h.</desc>
<speed>0.000000</speed>
</trkpt>
<trkpt lat="55.726894" lon="26.550480">
<ele>144.037231</ele>
<time>2010-07-18T12:38:18Z</time>
<desc>lat.=55.726894, lon.=26.550480, Alt.=144.037231m. Speed=0.000000m/h.</desc>
<speed>0.000000</speed>
</trkpt>
<trkpt lat="55.726894" lon="26.550480">
<ele>144.041138</ele>
<time>2010-07-18T12:38:19Z</time>
<desc>lat.=55.726894, lon.=26.550480, Alt.=144.041138m. Speed=0.000000m/h.</desc>
<speed>0.000000</speed>
</trkpt>
<trkpt lat="55.726894" lon="26.550480">
<ele>144.045044</ele>
<time>2010-07-18T12:38:20Z</time>
<desc>lat.=55.726894, lon.=26.550480, Alt.=144.045044m. Speed=0.000000m/h.</desc>
<speed>0.000000</speed>
</trkpt>
<trkpt lat="55.726894" lon="26.550480">
<ele>144.048950</ele>
<time>2010-07-18T12:38:21Z</time>
<desc>lat.=55.726894, lon.=26.550480, Alt.=144.048950m. Speed=0.000000m/h.</desc>
<speed>0.000000</speed>
</trkpt>
<trkpt lat="55.726894" lon="26.550480">
<ele>144.048950</ele>
<time>2010-07-18T12:38:22Z</time>
<desc>lat.=55.726894, lon.=26.550480, Alt.=144.048950m. Speed=0.000000m/h.</desc>
<speed>0.000000</speed>
</trkpt>
<trkpt lat="55.726894" lon="26.550480">
<ele>144.052856</ele>
<time>2010-07-18T12:38:23Z</time>
<desc>lat.=55.726894, lon.=26.550480, Alt.=144.052856m. Speed=0.000000m/h.</desc>
<speed>0.000000</speed>
</trkpt>
<trkpt lat="55.726894" lon="26.550480">
<ele>144.052856</ele>
<time>2010-07-18T12:38:24Z</time>
<desc>lat.=55.726894, lon.=26.550480, Alt.=144.052856m. Speed=0.000000m/h.</desc>
<speed>0.000000</speed>
</trkpt>
<trkpt lat="55.726894" lon="26.550480">
<ele>144.056763</ele>
<time>2010-07-18T12:38:25Z</time>
<desc>lat.=55.726894, lon.=26.550480, Alt.=144.056763m. Speed=0.000000m/h.</desc>
<speed>0.000000</speed>
</trkpt>
<trkpt lat="55.726894" lon="26.550480">
<ele>144.064575</ele>
<time>2010-07-18T12:38:26Z</time>
<desc>lat.=55.726894, lon.=26.550480, Alt.=144.064575m. Speed=0.000000m/h.</desc>
<speed>0.000000</speed>
</trkpt>
<trkpt lat="55.726894" lon="26.550480">
<ele>144.068481</ele>
<time>2010-07-18T12:38:27Z</time>
<desc>lat.=55.726894, lon.=26.550480, Alt.=144.068481m. Speed=0.000000m/h.</desc>
<speed>0.000000</speed>
</trkpt>
<trkpt lat="55.726894" lon="26.550480">
<ele>144.068481</ele>
<time>2010-07-18T12:38:28Z</time>
<desc>lat.=55.726894, lon.=26.550480, Alt.=144.068481m. Speed=0.036000m/h.</desc>
<speed>0.010000</speed>
</trkpt>
<trkpt lat="55.726894" lon="26.550480">
<ele>144.072388</ele>
<time>2010-07-18T12:38:29Z</time>
<desc>lat.=55.726894, lon.=26.550480, Alt.=144.072388m. Speed=0.000000m/h.</desc>
<speed>0.000000</speed>
</trkpt>
<trkpt lat="55.726894" lon="26.550480">
<ele>144.068481</ele>
<time>2010-07-18T12:38:30Z</time>
<desc>lat.=55.726894, lon.=26.550480, Alt.=144.068481m. Speed=0.000000m/h.</desc>
<speed>0.000000</speed>
</trkpt>
<trkpt lat="55.726894" lon="26.550480">
<ele>144.068481</ele>
<time>2010-07-18T12:38:31Z</time>
<desc>lat.=55.726894, lon.=26.550480, Alt.=144.068481m. Speed=0.000000m/h.</desc>
<speed>0.000000</speed>
</trkpt>
<trkpt lat="55.726894" lon="26.550480">
<ele>144.068481</ele>
<time>2010-07-18T12:38:32Z</time>
<desc>lat.=55.726894, lon.=26.550480, Alt.=144.068481m. Speed=0.000000m/h.</desc>
<speed>0.000000</speed>
</trkpt>
<trkpt lat="55.726894" lon="26.550480">
<ele>144.068481</ele>
<time>2010-07-18T12:38:33Z</time>
<desc>lat.=55.726894, lon.=26.550480, Alt.=144.068481m. Speed=0.000000m/h.</desc>
<speed>0.000000</speed>
</trkpt>
<trkpt lat="55.726894" lon="26.550480">
<ele>144.064575</ele>
<time>2010-07-18T12:38:34Z</time>
<desc>lat.=55.726894, lon.=26.550480, Alt.=144.064575m. Speed=0.000000m/h.</desc>
<speed>0.000000</speed>
</trkpt>
<trkpt lat="55.726894" lon="26.550480">
<ele>144.064575</ele>
<time>2010-07-18T12:38:35Z</time>
<desc>lat.=55.726894, lon.=26.550480, Alt.=144.064575m. Speed=0.000000m/h.</desc>
<speed>0.000000</speed>
</trkpt>
<trkpt lat="55.726894" lon="26.550480">
<ele>144.060669</ele>
<time>2010-07-18T12:38:36Z</time>
<desc>lat.=55.726894, lon.=26.550480, Alt.=144.060669m. Speed=0.000000m/h.</desc>
<speed>0.000000</speed>
</trkpt>
<trkpt lat="55.726894" lon="26.550480">
<ele>144.060669</ele>
<time>2010-07-18T12:38:37Z</time>
<desc>lat.=55.726894, lon.=26.550480, Alt.=144.060669m. Speed=0.000000m/h.</desc>
<speed>0.000000</speed>
</trkpt>
<trkpt lat="55.726894" lon="26.550480">
<ele>144.060669</ele>
<time>2010-07-18T12:38:38Z</time>
<desc>lat.=55.726894, lon.=26.550480, Alt.=144.060669m. Speed=0.000000m/h.</desc>
<speed>0.000000</speed>
</trkpt>
<trkpt lat="55.726894" lon="26.550480">
<ele>144.060669</ele>
<time>2010-07-18T12:38:39Z</time>
<desc>lat.=55.726894, lon.=26.550480, Alt.=144.060669m. Speed=0.000000m/h.</desc>
<speed>0.000000</speed>
</trkpt>
<trkpt lat="55.726894" lon="26.550480">
<ele>144.060669</ele>
<time>2010-07-18T12:38:40Z</time>
<desc>lat.=55.726894, lon.=26.550480, Alt.=144.060669m. Speed=0.000000m/h.</desc>
<speed>0.000000</speed>
</trkpt>
<trkpt lat="55.726894" lon="26.550480">
<ele>144.056763</ele>
<time>2010-07-18T12:38:41Z</time>
<desc>lat.=55.726894, lon.=26.550480, Alt.=144.056763m. Speed=0.000000m/h.</desc>
<speed>0.000000</speed>
</trkpt>
<trkpt lat="55.726894" lon="26.550480">
<ele>144.052856</ele>
<time>2010-07-18T12:38:42Z</time>
<desc>lat.=55.726894, lon.=26.550480, Alt.=144.052856m. Speed=0.000000m/h.</desc>
<speed>0.000000</speed>
</trkpt>
<trkpt lat="55.726894" lon="26.550480">
<ele>144.052856</ele>
<time>2010-07-18T12:38:43Z</time>
<desc>lat.=55.726894, lon.=26.550480, Alt.=144.052856m. Speed=0.000000m/h.</desc>
<speed>0.000000</speed>
</trkpt>
<trkpt lat="55.726894" lon="26.550480">
<ele>144.056763</ele>
<time>2010-07-18T12:38:44Z</time>
<desc>lat.=55.726894, lon.=26.550480, Alt.=144.056763m. Speed=0.000000m/h.</desc>
<speed>0.000000</speed>
</trkpt>
<trkpt lat="55.726894" lon="26.550480">
<ele>144.056763</ele>
<time>2010-07-18T12:38:45Z</time>
<desc>lat.=55.726894, lon.=26.550480, Alt.=144.056763m. Speed=0.000000m/h.</desc>
<speed>0.000000</speed>
</trkpt>
<trkpt lat="55.726894" lon="26.550480">
<ele>144.056763</ele>
<time>2010-07-18T12:38:46Z</time>
<desc>lat.=55.726894, lon.=26.550480, Alt.=144.056763m. Speed=0.000000m/h.</desc>
<speed>0.000000</speed>
</trkpt>
<trkpt lat="55.726894" lon="26.550480">
<ele>144.056763</ele>
<time>2010-07-18T12:38:47Z</time>
<desc>lat.=55.726894, lon.=26.550480, Alt.=144.056763m. Speed=0.000000m/h.</desc>
<speed>0.000000</speed>
</trkpt>
<trkpt lat="55.726894" lon="26.550480">
<ele>144.060669</ele>
<time>2010-07-18T12:38:48Z</time>
<desc>lat.=55.726894, lon.=26.550480, Alt.=144.060669m. Speed=0.000000m/h.</desc>
<speed>0.000000</speed>
</trkpt>
<trkpt lat="55.726894" lon="26.550480">
<ele>144.064575</ele>
<time>2010-07-18T12:38:49Z</time>
<desc>lat.=55.726894, lon.=26.550480, Alt.=144.064575m. Speed=0.000000m/h.</desc>
<speed>0.000000</speed>
</trkpt>
<trkpt lat="55.726894" lon="26.550480">
<ele>144.064575</ele>
<time>2010-07-18T12:38:50Z</time>
<desc>lat.=55.726894, lon.=26.550480, Alt.=144.064575m. Speed=0.000000m/h.</desc>
<speed>0.000000</speed>
</trkpt>
<trkpt lat="55.726894" lon="26.550480">
<ele>144.068481</ele>
<time>2010-07-18T12:38:51Z</time>
<desc>lat.=55.726894, lon.=26.550480, Alt.=144.068481m. Speed=0.000000m/h.</desc>
<speed>0.000000</speed>
</trkpt>
<trkpt lat="55.726894" lon="26.550480">
<ele>144.072388</ele>
<time>2010-07-18T12:38:52Z</time>
<desc>lat.=55.726894, lon.=26.550480, Alt.=144.072388m. Speed=0.000000m/h.</desc>
<speed>0.000000</speed>
</trkpt>
<trkpt lat="55.726894" lon="26.550480">
<ele>144.072388</ele>
<time>2010-07-18T12:38:53Z</time>
<desc>lat.=55.726894, lon.=26.550480, Alt.=144.072388m. Speed=0.000000m/h.</desc>
<speed>0.000000</speed>
</trkpt>
<trkpt lat="55.726894" lon="26.550480">
<ele>144.076294</ele>
<time>2010-07-18T12:38:54Z</time>
<desc>lat.=55.726894, lon.=26.550480, Alt.=144.076294m. Speed=0.000000m/h.</desc>
<speed>0.000000</speed>
</trkpt>
<trkpt lat="55.726894" lon="26.550480">
<ele>144.080200</ele>
<time>2010-07-18T12:38:55Z</time>
<desc>lat.=55.726894, lon.=26.550480, Alt.=144.080200m. Speed=0.000000m/h.</desc>
<speed>0.000000</speed>
</trkpt>
<trkpt lat="55.726894" lon="26.550480">
<ele>144.088013</ele>
<time>2010-07-18T12:38:56Z</time>
<desc>lat.=55.726894, lon.=26.550480, Alt.=144.088013m. Speed=0.000000m/h.</desc>
<speed>0.000000</speed>
</trkpt>
<trkpt lat="55.726894" lon="26.550480">
<ele>144.088013</ele>
<time>2010-07-18T12:38:57Z</time>
<desc>lat.=55.726894, lon.=26.550480, Alt.=144.088013m. Speed=0.000000m/h.</desc>
<speed>0.000000</speed>
</trkpt>
<trkpt lat="55.726894" lon="26.550480">
<ele>144.091919</ele>
<time>2010-07-18T12:38:58Z</time>
<desc>lat.=55.726894, lon.=26.550480, Alt.=144.091919m. Speed=0.000000m/h.</desc>
<speed>0.000000</speed>
</trkpt>
<trkpt lat="55.726894" lon="26.550480">
<ele>144.099731</ele>
<time>2010-07-18T12:38:59Z</time>
<desc>lat.=55.726894, lon.=26.550480, Alt.=144.099731m. Speed=0.000000m/h.</desc>
<speed>0.000000</speed>
</trkpt>
<trkpt lat="55.726894" lon="26.550480">
<ele>144.103638</ele>
<time>2010-07-18T12:39:00Z</time>
<desc>lat.=55.726894, lon.=26.550480, Alt.=144.103638m. Speed=0.000000m/h.</desc>
<speed>0.000000</speed>
</trkpt>
<trkpt lat="55.726894" lon="26.550480">
<ele>144.111450</ele>
<time>2010-07-18T12:39:01Z</time>
<desc>lat.=55.726894, lon.=26.550480, Alt.=144.111450m. Speed=0.036000m/h.</desc>
<speed>0.010000</speed>
</trkpt>
<trkpt lat="55.726894" lon="26.550480">
<ele>144.115356</ele>
<time>2010-07-18T12:39:02Z</time>
<desc>lat.=55.726894, lon.=26.550480, Alt.=144.115356m. Speed=0.000000m/h.</desc>
<speed>0.000000</speed>
</trkpt>
<trkpt lat="55.726894" lon="26.550480">
<ele>144.119263</ele>
<time>2010-07-18T12:39:03Z</time>
<desc>lat.=55.726894, lon.=26.550480, Alt.=144.119263m. Speed=0.036000m/h.</desc>
<speed>0.010000</speed>
</trkpt>
<trkpt lat="55.726894" lon="26.550480">
<ele>144.123169</ele>
<time>2010-07-18T12:39:04Z</time>
<desc>lat.=55.726894, lon.=26.550480, Alt.=144.123169m. Speed=0.000000m/h.</desc>
<speed>0.000000</speed>
</trkpt>
<trkpt lat="55.726894" lon="26.550482">
<ele>144.127075</ele>
<time>2010-07-18T12:39:05Z</time>
<desc>lat.=55.726894, lon.=26.550482, Alt.=144.127075m. Speed=0.000000m/h.</desc>
<speed>0.000000</speed>
</trkpt>
<trkpt lat="55.726894" lon="26.550482">
<ele>144.127075</ele>
<time>2010-07-18T12:39:06Z</time>
<desc>lat.=55.726894, lon.=26.550482, Alt.=144.127075m. Speed=0.000000m/h.</desc>
<speed>0.000000</speed>
</trkpt>
<trkpt lat="55.726894" lon="26.550482">
<ele>144.130981</ele>
<time>2010-07-18T12:39:07Z</time>
<desc>lat.=55.726894, lon.=26.550482, Alt.=144.130981m. Speed=0.036000m/h.</desc>
<speed>0.010000</speed>
</trkpt>
<trkpt lat="55.726894" lon="26.550482">
<ele>144.134888</ele>
<time>2010-07-18T12:39:08Z</time>
<desc>lat.=55.726894, lon.=26.550482, Alt.=144.134888m. Speed=0.000000m/h.</desc>
<speed>0.000000</speed>
</trkpt>
<trkpt lat="55.726894" lon="26.550482">
<ele>144.138794</ele>
<time>2010-07-18T12:39:09Z</time>
<desc>lat.=55.726894, lon.=26.550482, Alt.=144.138794m. Speed=0.000000m/h.</desc>
<speed>0.000000</speed>
</trkpt>
<trkpt lat="55.726894" lon="26.550482">
<ele>144.138794</ele>
<time>2010-07-18T12:39:10Z</time>
<desc>lat.=55.726894, lon.=26.550482, Alt.=144.138794m. Speed=0.000000m/h.</desc>
<speed>0.000000</speed>
</trkpt>
<trkpt lat="55.726894" lon="26.550482">
<ele>144.142700</ele>
<time>2010-07-18T12:39:11Z</time>
<desc>lat.=55.726894, lon.=26.550482, Alt.=144.142700m. Speed=0.000000m/h.</desc>
<speed>0.000000</speed>
</trkpt>
<trkpt lat="55.726894" lon="26.550482">
<ele>144.142700</ele>
<time>2010-07-18T12:39:12Z</time>
<desc>lat.=55.726894, lon.=26.550482, Alt.=144.142700m. Speed=0.000000m/h.</desc>
<speed>0.000000</speed>
</trkpt>
<trkpt lat="55.726894" lon="26.550482">
<ele>144.142700</ele>
<time>2010-07-18T12:39:13Z</time>
<desc>lat.=55.726894, lon.=26.550482, Alt.=144.142700m. Speed=0.000000m/h.</desc>
<speed>0.000000</speed>
</trkpt>
<trkpt lat="55.726894" lon="26.550482">
<ele>144.142700</ele>
<time>2010-07-18T12:39:14Z</time>
<desc>lat.=55.726894, lon.=26.550482, Alt.=144.142700m. Speed=0.000000m/h.</desc>
<speed>0.000000</speed>
</trkpt>
<trkpt lat="55.726894" lon="26.550482">
<ele>144.146606</ele>
<time>2010-07-18T12:39:15Z</time>
<desc>lat.=55.726894, lon.=26.550482, Alt.=144.146606m. Speed=0.000000m/h.</desc>
<speed>0.000000</speed>
</trkpt>
<trkpt lat="55.726894" lon="26.550482">
<ele>144.150513</ele>
<time>2010-07-18T12:39:16Z</time>
<desc>lat.=55.726894, lon.=26.550482, Alt.=144.150513m. Speed=0.000000m/h.</desc>
<speed>0.000000</speed>
</trkpt>
<trkpt lat="55.726894" lon="26.550482">
<ele>144.154419</ele>
<time>2010-07-18T12:39:17Z</time>
<desc>lat.=55.726894, lon.=26.550482, Alt.=144.154419m. Speed=0.036000m/h.</desc>
<speed>0.010000</speed>
</trkpt>
<trkpt lat="55.726894" lon="26.550482">
<ele>144.154419</ele>
<time>2010-07-18T12:39:18Z</time>
<desc>lat.=55.726894, lon.=26.550482, Alt.=144.154419m. Speed=0.000000m/h.</desc>
<speed>0.000000</speed>
</trkpt>
<trkpt lat="55.726894" lon="26.550482">
<ele>144.154419</ele>
<time>2010-07-18T12:39:19Z</time>
<desc>lat.=55.726894, lon.=26.550482, Alt.=144.154419m. Speed=0.000000m/h.</desc>
<speed>0.000000</speed>
</trkpt>
<trkpt lat="55.726894" lon="26.550482">
<ele>144.158325</ele>
<time>2010-07-18T12:39:20Z</time>
<desc>lat.=55.726894, lon.=26.550482, Alt.=144.158325m. Speed=0.000000m/h.</desc>
<speed>0.000000</speed>
</trkpt>
<trkpt lat="55.726894" lon="26.550482">
<ele>144.162231</ele>
<time>2010-07-18T12:39:21Z</time>
<desc>lat.=55.726894, lon.=26.550482, Alt.=144.162231m. Speed=0.000000m/h.</desc>
<speed>0.000000</speed>
</trkpt>
<trkpt lat="55.726894" lon="26.550482">
<ele>144.166138</ele>
<time>2010-07-18T12:39:22Z</time>
<desc>lat.=55.726894, lon.=26.550482, Alt.=144.166138m. Speed=0.000000m/h.</desc>
<speed>0.000000</speed>
</trkpt>
<trkpt lat="55.726894" lon="26.550482">
<ele>144.170044</ele>
<time>2010-07-18T12:39:23Z</time>
<desc>lat.=55.726894, lon.=26.550482, Alt.=144.170044m. Speed=0.000000m/h.</desc>
<speed>0.000000</speed>
</trkpt>
<trkpt lat="55.726894" lon="26.550482">
<ele>144.173950</ele>
<time>2010-07-18T12:39:24Z</time>
<desc>lat.=55.726894, lon.=26.550482, Alt.=144.173950m. Speed=0.000000m/h.</desc>
<speed>0.000000</speed>
</trkpt>
<trkpt lat="55.726894" lon="26.550482">
<ele>144.177856</ele>
<time>2010-07-18T12:39:25Z</time>
<desc>lat.=55.726894, lon.=26.550482, Alt.=144.177856m. Speed=0.000000m/h.</desc>
<speed>0.000000</speed>
</trkpt>
<trkpt lat="55.726894" lon="26.550482">
<ele>144.181763</ele>
<time>2010-07-18T12:39:26Z</time>
<desc>lat.=55.726894, lon.=26.550482, Alt.=144.181763m. Speed=0.000000m/h.</desc>
<speed>0.000000</speed>
</trkpt>
<trkpt lat="55.726894" lon="26.550482">
<ele>144.185669</ele>
<time>2010-07-18T12:39:27Z</time>
<desc>lat.=55.726894, lon.=26.550482, Alt.=144.185669m. Speed=0.000000m/h.</desc>
<speed>0.000000</speed>
</trkpt>
<trkpt lat="55.726894" lon="26.550482">
<ele>144.189575</ele>
<time>2010-07-18T12:39:28Z</time>
<desc>lat.=55.726894, lon.=26.550482, Alt.=144.189575m. Speed=0.000000m/h.</desc>
<speed>0.000000</speed>
</trkpt>
<trkpt lat="55.726894" lon="26.550482">
<ele>144.193481</ele>
<time>2010-07-18T12:39:29Z</time>
<desc>lat.=55.726894, lon.=26.550482, Alt.=144.193481m. Speed=0.000000m/h.</desc>
<speed>0.000000</speed>
</trkpt>
<trkpt lat="55.726894" lon="26.550482">
<ele>144.193481</ele>
<time>2010-07-18T12:39:30Z</time>
<desc>lat.=55.726894, lon.=26.550482, Alt.=144.193481m. Speed=0.000000m/h.</desc>
<speed>0.000000</speed>
</trkpt>
<trkpt lat="55.726894" lon="26.550482">
<ele>144.197388</ele>
<time>2010-07-18T12:39:31Z</time>
<desc>lat.=55.726894, lon.=26.550482, Alt.=144.197388m. Speed=0.000000m/h.</desc>
<speed>0.000000</speed>
</trkpt>
<trkpt lat="55.726894" lon="26.550482">
<ele>144.197388</ele>
<time>2010-07-18T12:39:32Z</time>
<desc>lat.=55.726894, lon.=26.550482, Alt.=144.197388m. Speed=0.000000m/h.</desc>
<speed>0.000000</speed>
</trkpt>
<trkpt lat="55.726894" lon="26.550484">
<ele>144.201294</ele>
<time>2010-07-18T12:39:33Z</time>
<desc>lat.=55.726894, lon.=26.550484, Alt.=144.201294m. Speed=0.000000m/h.</desc>
<speed>0.000000</speed>
</trkpt>
<trkpt lat="55.726894" lon="26.550484">
<ele>144.205200</ele>
<time>2010-07-18T12:39:34Z</time>
<desc>lat.=55.726894, lon.=26.550484, Alt.=144.205200m. Speed=0.000000m/h.</desc>
<speed>0.000000</speed>
</trkpt>
<trkpt lat="55.726894" lon="26.550484">
<ele>144.209106</ele>
<time>2010-07-18T12:39:35Z</time>
<desc>lat.=55.726894, lon.=26.550484, Alt.=144.209106m. Speed=0.000000m/h.</desc>
<speed>0.000000</speed>
</trkpt>
<trkpt lat="55.726894" lon="26.550484">
<ele>144.209106</ele>
<time>2010-07-18T12:39:36Z</time>
<desc>lat.=55.726894, lon.=26.550484, Alt.=144.209106m. Speed=0.000000m/h.</desc>
<speed>0.000000</speed>
</trkpt>
<trkpt lat="55.726894" lon="26.550484">
<ele>144.213013</ele>
<time>2010-07-18T12:39:37Z</time>
<desc>lat.=55.726894, lon.=26.550484, Alt.=144.213013m. Speed=0.000000m/h.</desc>
<speed>0.000000</speed>
</trkpt>
<trkpt lat="55.726894" lon="26.550484">
<ele>144.213013</ele>
<time>2010-07-18T12:39:38Z</time>
<desc>lat.=55.726894, lon.=26.550484, Alt.=144.213013m. Speed=0.000000m/h.</desc>
<speed>0.000000</speed>
</trkpt>
<trkpt lat="55.726894" lon="26.550484">
<ele>144.213013</ele>
<time>2010-07-18T12:39:39Z</time>
<desc>lat.=55.726894, lon.=26.550484, Alt.=144.213013m. Speed=0.000000m/h.</desc>
<speed>0.000000</speed>
</trkpt>
<trkpt lat="55.726894" lon="26.550484">
<ele>144.213013</ele>
<time>2010-07-18T12:39:40Z</time>
<desc>lat.=55.726894, lon.=26.550484, Alt.=144.213013m. Speed=0.000000m/h.</desc>
<speed>0.000000</speed>
</trkpt>
<trkpt lat="55.726894" lon="26.550484">
<ele>144.213013</ele>
<time>2010-07-18T12:39:41Z</time>
<desc>lat.=55.726894, lon.=26.550484, Alt.=144.213013m. Speed=0.000000m/h.</desc>
<speed>0.000000</speed>
</trkpt>
<trkpt lat="55.726894" lon="26.550484">
<ele>144.213013</ele>
<time>2010-07-18T12:39:42Z</time>
<desc>lat.=55.726894, lon.=26.550484, Alt.=144.213013m. Speed=0.000000m/h.</desc>
<speed>0.000000</speed>
</trkpt>
<trkpt lat="55.726894" lon="26.550484">
<ele>144.213013</ele>
<time>2010-07-18T12:39:43Z</time>
<desc>lat.=55.726894, lon.=26.550484, Alt.=144.213013m. Speed=0.000000m/h.</desc>
<speed>0.000000</speed>
</trkpt>
<trkpt lat="55.726894" lon="26.550484">
<ele>144.213013</ele>
<time>2010-07-18T12:39:44Z</time>
<desc>lat.=55.726894, lon.=26.550484, Alt.=144.213013m. Speed=0.000000m/h.</desc>
<speed>0.000000</speed>
</trkpt>
<trkpt lat="55.726894" lon="26.550484">
<ele>144.209106</ele>
<time>2010-07-18T12:39:45Z</time>
<desc>lat.=55.726894, lon.=26.550484, Alt.=144.209106m. Speed=0.000000m/h.</desc>
<speed>0.000000</speed>
</trkpt>
<trkpt lat="55.726894" lon="26.550484">
<ele>144.209106</ele>
<time>2010-07-18T12:39:46Z</time>
<desc>lat.=55.726894, lon.=26.550484, Alt.=144.209106m. Speed=0.000000m/h.</desc>
<speed>0.000000</speed>
</trkpt>
<trkpt lat="55.726894" lon="26.550484">
<ele>144.205200</ele>
<time>2010-07-18T12:39:47Z</time>
<desc>lat.=55.726894, lon.=26.550484, Alt.=144.205200m. Speed=0.000000m/h.</desc>
<speed>0.000000</speed>
</trkpt>
<trkpt lat="55.726894" lon="26.550484">
<ele>144.205200</ele>
<time>2010-07-18T12:39:48Z</time>
<desc>lat.=55.726894, lon.=26.550484, Alt.=144.205200m. Speed=0.000000m/h.</desc>
<speed>0.000000</speed>
</trkpt>
<trkpt lat="55.726894" lon="26.550484">
<ele>144.201294</ele>
<time>2010-07-18T12:39:49Z</time>
<desc>lat.=55.726894, lon.=26.550484, Alt.=144.201294m. Speed=0.000000m/h.</desc>
<speed>0.000000</speed>
</trkpt>
<trkpt lat="55.726894" lon="26.550484">
<ele>144.205200</ele>
<time>2010-07-18T12:39:50Z</time>
<desc>lat.=55.726894, lon.=26.550484, Alt.=144.205200m. Speed=0.000000m/h.</desc>
<speed>0.000000</speed>
</trkpt>
<trkpt lat="55.726894" lon="26.550484">
<ele>144.205200</ele>
<time>2010-07-18T12:39:51Z</time>
<desc>lat.=55.726894, lon.=26.550484, Alt.=144.205200m. Speed=0.000000m/h.</desc>
<speed>0.000000</speed>
</trkpt>
<trkpt lat="55.726894" lon="26.550484">
<ele>144.201294</ele>
<time>2010-07-18T12:39:52Z</time>
<desc>lat.=55.726894, lon.=26.550484, Alt.=144.201294m. Speed=0.000000m/h.</desc>
<speed>0.000000</speed>
</trkpt>
<trkpt lat="55.726894" lon="26.550484">
<ele>144.201294</ele>
<time>2010-07-18T12:39:53Z</time>
<desc>lat.=55.726894, lon.=26.550484, Alt.=144.201294m. Speed=0.000000m/h.</desc>
<speed>0.000000</speed>
</trkpt>
<trkpt lat="55.726894" lon="26.550484">
<ele>144.205200</ele>
<time>2010-07-18T12:39:54Z</time>
<desc>lat.=55.726894, lon.=26.550484, Alt.=144.205200m. Speed=0.000000m/h.</desc>
<speed>0.000000</speed>
</trkpt>
<trkpt lat="55.726894" lon="26.550484">
<ele>144.205200</ele>
<time>2010-07-18T12:39:55Z</time>
<desc>lat.=55.726894, lon.=26.550484, Alt.=144.205200m. Speed=0.000000m/h.</desc>
<speed>0.000000</speed>
</trkpt>
<trkpt lat="55.726894" lon="26.550484">
<ele>144.205200</ele>
<time>2010-07-18T12:39:56Z</time>
<desc>lat.=55.726894, lon.=26.550484, Alt.=144.205200m. Speed=0.000000m/h.</desc>
<speed>0.000000</speed>
</trkpt>
<trkpt lat="55.726894" lon="26.550484">
<ele>144.201294</ele>
<time>2010-07-18T12:39:57Z</time>
<desc>lat.=55.726894, lon.=26.550484, Alt.=144.201294m. Speed=0.000000m/h.</desc>
<speed>0.000000</speed>
</trkpt>
<trkpt lat="55.726894" lon="26.550484">
<ele>144.201294</ele>
<time>2010-07-18T12:39:58Z</time>
<desc>lat.=55.726894, lon.=26.550484, Alt.=144.201294m. Speed=0.000000m/h.</desc>
<speed>0.000000</speed>
</trkpt>
<trkpt lat="55.726894" lon="26.550486">
<ele>144.201294</ele>
<time>2010-07-18T12:39:59Z</time>
<desc>lat.=55.726894, lon.=26.550486, Alt.=144.201294m. Speed=0.000000m/h.</desc>
<speed>0.000000</speed>
</trkpt>
<trkpt lat="55.726894" lon="26.550486">
<ele>144.197388</ele>
<time>2010-07-18T12:40:00Z</time>
<desc>lat.=55.726894, lon.=26.550486, Alt.=144.197388m. Speed=0.000000m/h.</desc>
<speed>0.000000</speed>
</trkpt>
<trkpt lat="55.726894" lon="26.550486">
<ele>144.197388</ele>
<time>2010-07-18T12:40:01Z</time>
<desc>lat.=55.726894, lon.=26.550486, Alt.=144.197388m. Speed=0.000000m/h.</desc>
<speed>0.000000</speed>
</trkpt>
<trkpt lat="55.726894" lon="26.550486">
<ele>144.197388</ele>
<time>2010-07-18T12:40:02Z</time>
<desc>lat.=55.726894, lon.=26.550486, Alt.=144.197388m. Speed=0.000000m/h.</desc>
<speed>0.000000</speed>
</trkpt>
<trkpt lat="55.726894" lon="26.550486">
<ele>144.193481</ele>
<time>2010-07-18T12:40:03Z</time>
<desc>lat.=55.726894, lon.=26.550486, Alt.=144.193481m. Speed=0.000000m/h.</desc>
<speed>0.000000</speed>
</trkpt>
<trkpt lat="55.726894" lon="26.550484">
<ele>144.189575</ele>
<time>2010-07-18T12:40:04Z</time>
<desc>lat.=55.726894, lon.=26.550484, Alt.=144.189575m. Speed=0.000000m/h.</desc>
<speed>0.000000</speed>
</trkpt>
<trkpt lat="55.726894" lon="26.550484">
<ele>144.185669</ele>
<time>2010-07-18T12:40:05Z</time>
<desc>lat.=55.726894, lon.=26.550484, Alt.=144.185669m. Speed=0.000000m/h.</desc>
<speed>0.000000</speed>
</trkpt>
<trkpt lat="55.726894" lon="26.550484">
<ele>144.185669</ele>
<time>2010-07-18T12:40:06Z</time>
<desc>lat.=55.726894, lon.=26.550484, Alt.=144.185669m. Speed=0.000000m/h.</desc>
<speed>0.000000</speed>
</trkpt>
<trkpt lat="55.726894" lon="26.550484">
<ele>144.181763</ele>
<time>2010-07-18T12:40:07Z</time>
<desc>lat.=55.726894, lon.=26.550484, Alt.=144.181763m. Speed=0.000000m/h.</desc>
<speed>0.000000</speed>
</trkpt>
<trkpt lat="55.726894" lon="26.550484">
<ele>144.177856</ele>
<time>2010-07-18T12:40:08Z</time>
<desc>lat.=55.726894, lon.=26.550484, Alt.=144.177856m. Speed=0.000000m/h.</desc>
<speed>0.000000</speed>
</trkpt>
<trkpt lat="55.726894" lon="26.550484">
<ele>144.181763</ele>
<time>2010-07-18T12:40:09Z</time>
<desc>lat.=55.726894, lon.=26.550484, Alt.=144.181763m. Speed=0.000000m/h.</desc>
<speed>0.000000</speed>
</trkpt>
<trkpt lat="55.726894" lon="26.550484">
<ele>144.181763</ele>
<time>2010-07-18T12:40:10Z</time>
<desc>lat.=55.726894, lon.=26.550484, Alt.=144.181763m. Speed=0.000000m/h.</desc>
<speed>0.000000</speed>
</trkpt>
<trkpt lat="55.726894" lon="26.550484">
<ele>144.177856</ele>
<time>2010-07-18T12:40:11Z</time>
<desc>lat.=55.726894, lon.=26.550484, Alt.=144.177856m. Speed=0.000000m/h.</desc>
<speed>0.000000</speed>
</trkpt>
<trkpt lat="55.726894" lon="26.550484">
<ele>144.181763</ele>
<time>2010-07-18T12:40:12Z</time>
<desc>lat.=55.726894, lon.=26.550484, Alt.=144.181763m. Speed=0.000000m/h.</desc>
<speed>0.000000</speed>
</trkpt>
<trkpt lat="55.726894" lon="26.550484">
<ele>144.181763</ele>
<time>2010-07-18T12:40:13Z</time>
<desc>lat.=55.726894, lon.=26.550484, Alt.=144.181763m. Speed=0.000000m/h.</desc>
<speed>0.000000</speed>
</trkpt>
<trkpt lat="55.726894" lon="26.550484">
<ele>144.185669</ele>
<time>2010-07-18T12:40:14Z</time>
<desc>lat.=55.726894, lon.=26.550484, Alt.=144.185669m. Speed=0.000000m/h.</desc>
<speed>0.000000</speed>
</trkpt>
<trkpt lat="55.726894" lon="26.550484">
<ele>144.185669</ele>
<time>2010-07-18T12:40:15Z</time>
<desc>lat.=55.726894, lon.=26.550484, Alt.=144.185669m. Speed=0.000000m/h.</desc>
<speed>0.000000</speed>
</trkpt>
<trkpt lat="55.726894" lon="26.550484">
<ele>144.185669</ele>
<time>2010-07-18T12:40:16Z</time>
<desc>lat.=55.726894, lon.=26.550484, Alt.=144.185669m. Speed=0.000000m/h.</desc>
<speed>0.000000</speed>
</trkpt>
<trkpt lat="55.726894" lon="26.550484">
<ele>144.185669</ele>
<time>2010-07-18T12:40:17Z</time>
<desc>lat.=55.726894, lon.=26.550484, Alt.=144.185669m. Speed=0.000000m/h.</desc>
<speed>0.000000</speed>
</trkpt>
<trkpt lat="55.726894" lon="26.550484">
<ele>144.181763</ele>
<time>2010-07-18T12:40:18Z</time>
<desc>lat.=55.726894, lon.=26.550484, Alt.=144.181763m. Speed=0.000000m/h.</desc>
<speed>0.000000</speed>
</trkpt>
<trkpt lat="55.726894" lon="26.550486">
<ele>144.185669</ele>
<time>2010-07-18T12:40:19Z</time>
<desc>lat.=55.726894, lon.=26.550486, Alt.=144.185669m. Speed=0.000000m/h.</desc>
<speed>0.000000</speed>
</trkpt>
<trkpt lat="55.726894" lon="26.550486">
<ele>144.181763</ele>
<time>2010-07-18T12:40:20Z</time>
<desc>lat.=55.726894, lon.=26.550486, Alt.=144.181763m. Speed=0.000000m/h.</desc>
<speed>0.000000</speed>
</trkpt>
<trkpt lat="55.726894" lon="26.550486">
<ele>144.181763</ele>
<time>2010-07-18T12:40:21Z</time>
<desc>lat.=55.726894, lon.=26.550486, Alt.=144.181763m. Speed=0.000000m/h.</desc>
<speed>0.000000</speed>
</trkpt>
<trkpt lat="55.726894" lon="26.550486">
<ele>144.177856</ele>
<time>2010-07-18T12:40:22Z</time>
<desc>lat.=55.726894, lon.=26.550486, Alt.=144.177856m. Speed=0.000000m/h.</desc>
<speed>0.000000</speed>
</trkpt>
<trkpt lat="55.726894" lon="26.550486">
<ele>144.181763</ele>
<time>2010-07-18T12:40:23Z</time>
<desc>lat.=55.726894, lon.=26.550486, Alt.=144.181763m. Speed=0.000000m/h.</desc>
<speed>0.000000</speed>
</trkpt>
<trkpt lat="55.726894" lon="26.550486">
<ele>144.177856</ele>
<time>2010-07-18T12:40:24Z</time>
<desc>lat.=55.726894, lon.=26.550486, Alt.=144.177856m. Speed=0.000000m/h.</desc>
<speed>0.000000</speed>
</trkpt>
<trkpt lat="55.726894" lon="26.550486">
<ele>144.177856</ele>
<time>2010-07-18T12:40:25Z</time>
<desc>lat.=55.726894, lon.=26.550486, Alt.=144.177856m. Speed=0.000000m/h.</desc>
<speed>0.000000</speed>
</trkpt>
<trkpt lat="55.726894" lon="26.550486">
<ele>144.181763</ele>
<time>2010-07-18T12:40:26Z</time>
<desc>lat.=55.726894, lon.=26.550486, Alt.=144.181763m. Speed=0.000000m/h.</desc>
<speed>0.000000</speed>
</trkpt>
<trkpt lat="55.726894" lon="26.550486">
<ele>144.185669</ele>
<time>2010-07-18T12:40:27Z</time>
<desc>lat.=55.726894, lon.=26.550486, Alt.=144.185669m. Speed=0.000000m/h.</desc>
<speed>0.000000</speed>
</trkpt>
<trkpt lat="55.726894" lon="26.550486">
<ele>144.181763</ele>
<time>2010-07-18T12:40:28Z</time>
<desc>lat.=55.726894, lon.=26.550486, Alt.=144.181763m. Speed=0.000000m/h.</desc>
<speed>0.000000</speed>
</trkpt>
<trkpt lat="55.726894" lon="26.550486">
<ele>144.181763</ele>
<time>2010-07-18T12:40:29Z</time>
<desc>lat.=55.726894, lon.=26.550486, Alt.=144.181763m. Speed=0.000000m/h.</desc>
<speed>0.000000</speed>
</trkpt>
<trkpt lat="55.726894" lon="26.550486">
<ele>144.185669</ele>
<time>2010-07-18T12:40:30Z</time>
<desc>lat.=55.726894, lon.=26.550486, Alt.=144.185669m. Speed=0.000000m/h.</desc>
<speed>0.000000</speed>
</trkpt>
<trkpt lat="55.726894" lon="26.550486">
<ele>144.185669</ele>
<time>2010-07-18T12:40:31Z</time>
<desc>lat.=55.726894, lon.=26.550486, Alt.=144.185669m. Speed=0.000000m/h.</desc>
<speed>0.000000</speed>
</trkpt>
<trkpt lat="55.726894" lon="26.550486">
<ele>144.185669</ele>
<time>2010-07-18T12:40:32Z</time>
<desc>lat.=55.726894, lon.=26.550486, Alt.=144.185669m. Speed=0.000000m/h.</desc>
<speed>0.000000</speed>
</trkpt>
<trkpt lat="55.726894" lon="26.550486">
<ele>144.185669</ele>
<time>2010-07-18T12:40:33Z</time>
<desc>lat.=55.726894, lon.=26.550486, Alt.=144.185669m. Speed=0.000000m/h.</desc>
<speed>0.000000</speed>
</trkpt>
<trkpt lat="55.726894" lon="26.550486">
<ele>144.189575</ele>
<time>2010-07-18T12:40:34Z</time>
<desc>lat.=55.726894, lon.=26.550486, Alt.=144.189575m. Speed=0.000000m/h.</desc>
<speed>0.000000</speed>
</trkpt>
<trkpt lat="55.726894" lon="26.550486">
<ele>144.189575</ele>
<time>2010-07-18T12:40:35Z</time>
<desc>lat.=55.726894, lon.=26.550486, Alt.=144.189575m. Speed=0.000000m/h.</desc>
<speed>0.000000</speed>
</trkpt>
<trkpt lat="55.726894" lon="26.550486">
<ele>144.189575</ele>
<time>2010-07-18T12:40:36Z</time>
<desc>lat.=55.726894, lon.=26.550486, Alt.=144.189575m. Speed=0.000000m/h.</desc>
<speed>0.000000</speed>
</trkpt>
<trkpt lat="55.726894" lon="26.550486">
<ele>144.189575</ele>
<time>2010-07-18T12:40:37Z</time>
<desc>lat.=55.726894, lon.=26.550486, Alt.=144.189575m. Speed=0.000000m/h.</desc>
<speed>0.000000</speed>
</trkpt>
<trkpt lat="55.726894" lon="26.550486">
<ele>144.189575</ele>
<time>2010-07-18T12:40:38Z</time>
<desc>lat.=55.726894, lon.=26.550486, Alt.=144.189575m. Speed=0.000000m/h.</desc>
<speed>0.000000</speed>
</trkpt>
<trkpt lat="55.726894" lon="26.550486">
<ele>144.189575</ele>
<time>2010-07-18T12:40:39Z</time>
<desc>lat.=55.726894, lon.=26.550486, Alt.=144.189575m. Speed=0.000000m/h.</desc>
<speed>0.000000</speed>
</trkpt>
<trkpt lat="55.726894" lon="26.550486">
<ele>144.189575</ele>
<time>2010-07-18T12:40:40Z</time>
<desc>lat.=55.726894, lon.=26.550486, Alt.=144.189575m. Speed=0.000000m/h.</desc>
<speed>0.000000</speed>
</trkpt>
<trkpt lat="55.726894" lon="26.550486">
<ele>144.193481</ele>
<time>2010-07-18T12:40:41Z</time>
<desc>lat.=55.726894, lon.=26.550486, Alt.=144.193481m. Speed=0.000000m/h.</desc>
<speed>0.000000</speed>
</trkpt>
<trkpt lat="55.726894" lon="26.550486">
<ele>144.193481</ele>
<time>2010-07-18T12:40:42Z</time>
<desc>lat.=55.726894, lon.=26.550486, Alt.=144.193481m. Speed=0.036000m/h.</desc>
<speed>0.010000</speed>
</trkpt>
<trkpt lat="55.726894" lon="26.550486">
<ele>144.193481</ele>
<time>2010-07-18T12:40:43Z</time>
<desc>lat.=55.726894, lon.=26.550486, Alt.=144.193481m. Speed=0.000000m/h.</desc>
<speed>0.000000</speed>
</trkpt>
<trkpt lat="55.726894" lon="26.550486">
<ele>144.197388</ele>
<time>2010-07-18T12:40:44Z</time>
<desc>lat.=55.726894, lon.=26.550486, Alt.=144.197388m. Speed=0.000000m/h.</desc>
<speed>0.000000</speed>
</trkpt>
<trkpt lat="55.726894" lon="26.550486">
<ele>144.201294</ele>
<time>2010-07-18T12:40:45Z</time>
<desc>lat.=55.726894, lon.=26.550486, Alt.=144.201294m. Speed=0.000000m/h.</desc>
<speed>0.000000</speed>
</trkpt>
<trkpt lat="55.726894" lon="26.550486">
<ele>144.201294</ele>
<time>2010-07-18T12:40:46Z</time>
<desc>lat.=55.726894, lon.=26.550486, Alt.=144.201294m. Speed=0.000000m/h.</desc>
<speed>0.000000</speed>
</trkpt>
<trkpt lat="55.726894" lon="26.550486">
<ele>144.201294</ele>
<time>2010-07-18T12:40:47Z</time>
<desc>lat.=55.726894, lon.=26.550486, Alt.=144.201294m. Speed=0.000000m/h.</desc>
<speed>0.000000</speed>
</trkpt>
<trkpt lat="55.726894" lon="26.550486">
<ele>144.201294</ele>
<time>2010-07-18T12:40:48Z</time>
<desc>lat.=55.726894, lon.=26.550486, Alt.=144.201294m. Speed=0.000000m/h.</desc>
<speed>0.000000</speed>
</trkpt>
<trkpt lat="55.726894" lon="26.550486">
<ele>144.201294</ele>
<time>2010-07-18T12:40:49Z</time>
<desc>lat.=55.726894, lon.=26.550486, Alt.=144.201294m. Speed=0.036000m/h.</desc>
<speed>0.010000</speed>
</trkpt>
<trkpt lat="55.726894" lon="26.550486">
<ele>144.205200</ele>
<time>2010-07-18T12:40:50Z</time>
<desc>lat.=55.726894, lon.=26.550486, Alt.=144.205200m. Speed=0.000000m/h.</desc>
<speed>0.000000</speed>
</trkpt>
<trkpt lat="55.726894" lon="26.550486">
<ele>144.205200</ele>
<time>2010-07-18T12:40:51Z</time>
<desc>lat.=55.726894, lon.=26.550486, Alt.=144.205200m. Speed=0.000000m/h.</desc>
<speed>0.000000</speed>
</trkpt>
<trkpt lat="55.726894" lon="26.550486">
<ele>144.209106</ele>
<time>2010-07-18T12:40:52Z</time>
<desc>lat.=55.726894, lon.=26.550486, Alt.=144.209106m. Speed=0.000000m/h.</desc>
<speed>0.000000</speed>
</trkpt>
<trkpt lat="55.726894" lon="26.550486">
<ele>144.209106</ele>
<time>2010-07-18T12:40:53Z</time>
<desc>lat.=55.726894, lon.=26.550486, Alt.=144.209106m. Speed=0.036000m/h.</desc>
<speed>0.010000</speed>
</trkpt>
<trkpt lat="55.726894" lon="26.550486">
<ele>144.209106</ele>
<time>2010-07-18T12:40:54Z</time>
<desc>lat.=55.726894, lon.=26.550486, Alt.=144.209106m. Speed=0.000000m/h.</desc>
<speed>0.000000</speed>
</trkpt>
<trkpt lat="55.726894" lon="26.550486">
<ele>144.213013</ele>
<time>2010-07-18T12:40:55Z</time>
<desc>lat.=55.726894, lon.=26.550486, Alt.=144.213013m. Speed=0.036000m/h.</desc>
<speed>0.010000</speed>
</trkpt>
<trkpt lat="55.726894" lon="26.550486">
<ele>144.216919</ele>
<time>2010-07-18T12:40:56Z</time>
<desc>lat.=55.726894, lon.=26.550486, Alt.=144.216919m. Speed=0.000000m/h.</desc>
<speed>0.000000</speed>
</trkpt>
<trkpt lat="55.726894" lon="26.550486">
<ele>144.216919</ele>
<time>2010-07-18T12:40:57Z</time>
<desc>lat.=55.726894, lon.=26.550486, Alt.=144.216919m. Speed=0.000000m/h.</desc>
<speed>0.000000</speed>
</trkpt>
<trkpt lat="55.726894" lon="26.550486">
<ele>144.220825</ele>
<time>2010-07-18T12:40:58Z</time>
<desc>lat.=55.726894, lon.=26.550486, Alt.=144.220825m. Speed=0.000000m/h.</desc>
<speed>0.000000</speed>
</trkpt>
<trkpt lat="55.726894" lon="26.550486">
<ele>144.220825</ele>
<time>2010-07-18T12:40:59Z</time>
<desc>lat.=55.726894, lon.=26.550486, Alt.=144.220825m. Speed=0.000000m/h.</desc>
<speed>0.000000</speed>
</trkpt>
<trkpt lat="55.726894" lon="26.550486">
<ele>144.216919</ele>
<time>2010-07-18T12:41:00Z</time>
<desc>lat.=55.726894, lon.=26.550486, Alt.=144.216919m. Speed=0.000000m/h.</desc>
<speed>0.000000</speed>
</trkpt>
<trkpt lat="55.726894" lon="26.550486">
<ele>144.220825</ele>
<time>2010-07-18T12:41:01Z</time>
<desc>lat.=55.726894, lon.=26.550486, Alt.=144.220825m. Speed=0.000000m/h.</desc>
<speed>0.000000</speed>
</trkpt>
<trkpt lat="55.726894" lon="26.550486">
<ele>144.216919</ele>
<time>2010-07-18T12:41:02Z</time>
<desc>lat.=55.726894, lon.=26.550486, Alt.=144.216919m. Speed=0.000000m/h.</desc>
<speed>0.000000</speed>
</trkpt>
<trkpt lat="55.726894" lon="26.550486">
<ele>144.220825</ele>
<time>2010-07-18T12:41:03Z</time>
<desc>lat.=55.726894, lon.=26.550486, Alt.=144.220825m. Speed=0.000000m/h.</desc>
<speed>0.000000</speed>
</trkpt>
<trkpt lat="55.726894" lon="26.550486">
<ele>144.220825</ele>
<time>2010-07-18T12:41:04Z</time>
<desc>lat.=55.726894, lon.=26.550486, Alt.=144.220825m. Speed=0.000000m/h.</desc>
<speed>0.000000</speed>
</trkpt>
<trkpt lat="55.726894" lon="26.550486">
<ele>144.220825</ele>
<time>2010-07-18T12:41:05Z</time>
<desc>lat.=55.726894, lon.=26.550486, Alt.=144.220825m. Speed=0.000000m/h.</desc>
<speed>0.000000</speed>
</trkpt>
<trkpt lat="55.726894" lon="26.550486">
<ele>144.216919</ele>
<time>2010-07-18T12:41:06Z</time>
<desc>lat.=55.726894, lon.=26.550486, Alt.=144.216919m. Speed=0.000000m/h.</desc>
<speed>0.000000</speed>
</trkpt>
<trkpt lat="55.726894" lon="26.550486">
<ele>144.216919</ele>
<time>2010-07-18T12:41:07Z</time>
<desc>lat.=55.726894, lon.=26.550486, Alt.=144.216919m. Speed=0.000000m/h.</desc>
<speed>0.000000</speed>
</trkpt>
<trkpt lat="55.726894" lon="26.550486">
<ele>144.213013</ele>
<time>2010-07-18T12:41:08Z</time>
<desc>lat.=55.726894, lon.=26.550486, Alt.=144.213013m. Speed=0.000000m/h.</desc>
<speed>0.000000</speed>
</trkpt>
<trkpt lat="55.726894" lon="26.550486">
<ele>144.213013</ele>
<time>2010-07-18T12:41:09Z</time>
<desc>lat.=55.726894, lon.=26.550486, Alt.=144.213013m. Speed=0.000000m/h.</desc>
<speed>0.000000</speed>
</trkpt>
<trkpt lat="55.726894" lon="26.550486">
<ele>144.209106</ele>
<time>2010-07-18T12:41:10Z</time>
<desc>lat.=55.726894, lon.=26.550486, Alt.=144.209106m. Speed=0.000000m/h.</desc>
<speed>0.000000</speed>
</trkpt>
<trkpt lat="55.726894" lon="26.550488">
<ele>144.209106</ele>
<time>2010-07-18T12:41:11Z</time>
<desc>lat.=55.726894, lon.=26.550488, Alt.=144.209106m. Speed=0.036000m/h.</desc>
<speed>0.010000</speed>
</trkpt>
<trkpt lat="55.726894" lon="26.550488">
<ele>144.209106</ele>
<time>2010-07-18T12:41:12Z</time>
<desc>lat.=55.726894, lon.=26.550488, Alt.=144.209106m. Speed=0.000000m/h.</desc>
<speed>0.000000</speed>
</trkpt>
<trkpt lat="55.726894" lon="26.550488">
<ele>144.209106</ele>
<time>2010-07-18T12:41:13Z</time>
<desc>lat.=55.726894, lon.=26.550488, Alt.=144.209106m. Speed=0.000000m/h.</desc>
<speed>0.000000</speed>
</trkpt>
<trkpt lat="55.726894" lon="26.550488">
<ele>144.205200</ele>
<time>2010-07-18T12:41:14Z</time>
<desc>lat.=55.726894, lon.=26.550488, Alt.=144.205200m. Speed=0.000000m/h.</desc>
<speed>0.000000</speed>
</trkpt>
<trkpt lat="55.726894" lon="26.550488">
<ele>144.209106</ele>
<time>2010-07-18T12:41:15Z</time>
<desc>lat.=55.726894, lon.=26.550488, Alt.=144.209106m. Speed=0.000000m/h.</desc>
<speed>0.000000</speed>
</trkpt>
<trkpt lat="55.726894" lon="26.550488">
<ele>144.209106</ele>
<time>2010-07-18T12:41:16Z</time>
<desc>lat.=55.726894, lon.=26.550488, Alt.=144.209106m. Speed=0.000000m/h.</desc>
<speed>0.000000</speed>
</trkpt>
<trkpt lat="55.726894" lon="26.550488">
<ele>144.213013</ele>
<time>2010-07-18T12:41:17Z</time>
<desc>lat.=55.726894, lon.=26.550488, Alt.=144.213013m. Speed=0.000000m/h.</desc>
<speed>0.000000</speed>
</trkpt>
<trkpt lat="55.726894" lon="26.550488">
<ele>144.213013</ele>
<time>2010-07-18T12:41:18Z</time>
<desc>lat.=55.726894, lon.=26.550488, Alt.=144.213013m. Speed=0.000000m/h.</desc>
<speed>0.000000</speed>
</trkpt>
<trkpt lat="55.726894" lon="26.550488">
<ele>144.213013</ele>
<time>2010-07-18T12:41:19Z</time>
<desc>lat.=55.726894, lon.=26.550488, Alt.=144.213013m. Speed=0.000000m/h.</desc>
<speed>0.000000</speed>
</trkpt>
<trkpt lat="55.726894" lon="26.550488">
<ele>144.213013</ele>
<time>2010-07-18T12:41:20Z</time>
<desc>lat.=55.726894, lon.=26.550488, Alt.=144.213013m. Speed=0.000000m/h.</desc>
<speed>0.000000</speed>
</trkpt>
<trkpt lat="55.726894" lon="26.550488">
<ele>144.216919</ele>
<time>2010-07-18T12:41:21Z</time>
<desc>lat.=55.726894, lon.=26.550488, Alt.=144.216919m. Speed=0.036000m/h.</desc>
<speed>0.010000</speed>
</trkpt>
<trkpt lat="55.726894" lon="26.550488">
<ele>144.213013</ele>
<time>2010-07-18T12:41:22Z</time>
<desc>lat.=55.726894, lon.=26.550488, Alt.=144.213013m. Speed=0.000000m/h.</desc>
<speed>0.000000</speed>
</trkpt>
<trkpt lat="55.726894" lon="26.550488">
<ele>144.216919</ele>
<time>2010-07-18T12:41:23Z</time>
<desc>lat.=55.726894, lon.=26.550488, Alt.=144.216919m. Speed=0.000000m/h.</desc>
<speed>0.000000</speed>
</trkpt>
<trkpt lat="55.726894" lon="26.550488">
<ele>144.216919</ele>
<time>2010-07-18T12:41:24Z</time>
<desc>lat.=55.726894, lon.=26.550488, Alt.=144.216919m. Speed=0.000000m/h.</desc>
<speed>0.000000</speed>
</trkpt>
<trkpt lat="55.726894" lon="26.550488">
<ele>144.216919</ele>
<time>2010-07-18T12:41:25Z</time>
<desc>lat.=55.726894, lon.=26.550488, Alt.=144.216919m. Speed=0.000000m/h.</desc>
<speed>0.000000</speed>
</trkpt>
<trkpt lat="55.726894" lon="26.550488">
<ele>144.216919</ele>
<time>2010-07-18T12:41:26Z</time>
<desc>lat.=55.726894, lon.=26.550488, Alt.=144.216919m. Speed=0.000000m/h.</desc>
<speed>0.000000</speed>
</trkpt>
<trkpt lat="55.726894" lon="26.550488">
<ele>144.213013</ele>
<time>2010-07-18T12:41:27Z</time>
<desc>lat.=55.726894, lon.=26.550488, Alt.=144.213013m. Speed=0.036000m/h.</desc>
<speed>0.010000</speed>
</trkpt>
<trkpt lat="55.726894" lon="26.550488">
<ele>144.209106</ele>
<time>2010-07-18T12:41:28Z</time>
<desc>lat.=55.726894, lon.=26.550488, Alt.=144.209106m. Speed=0.000000m/h.</desc>
<speed>0.000000</speed>
</trkpt>
<trkpt lat="55.726894" lon="26.550488">
<ele>144.209106</ele>
<time>2010-07-18T12:41:29Z</time>
<desc>lat.=55.726894, lon.=26.550488, Alt.=144.209106m. Speed=0.000000m/h.</desc>
<speed>0.000000</speed>
</trkpt>
<trkpt lat="55.726894" lon="26.550488">
<ele>144.209106</ele>
<time>2010-07-18T12:41:30Z</time>
<desc>lat.=55.726894, lon.=26.550488, Alt.=144.209106m. Speed=0.000000m/h.</desc>
<speed>0.000000</speed>
</trkpt>
<trkpt lat="55.726894" lon="26.550488">
<ele>144.209106</ele>
<time>2010-07-18T12:41:31Z</time>
<desc>lat.=55.726894, lon.=26.550488, Alt.=144.209106m. Speed=0.000000m/h.</desc>
<speed>0.000000</speed>
</trkpt>
<trkpt lat="55.726894" lon="26.550488">
<ele>144.209106</ele>
<time>2010-07-18T12:41:32Z</time>
<desc>lat.=55.726894, lon.=26.550488, Alt.=144.209106m. Speed=0.000000m/h.</desc>
<speed>0.000000</speed>
</trkpt>
<trkpt lat="55.726894" lon="26.550488">
<ele>144.209106</ele>
<time>2010-07-18T12:41:33Z</time>
<desc>lat.=55.726894, lon.=26.550488, Alt.=144.209106m. Speed=0.036000m/h.</desc>
<speed>0.010000</speed>
</trkpt>
<trkpt lat="55.726894" lon="26.550488">
<ele>144.213013</ele>
<time>2010-07-18T12:41:34Z</time>
<desc>lat.=55.726894, lon.=26.550488, Alt.=144.213013m. Speed=0.000000m/h.</desc>
<speed>0.000000</speed>
</trkpt>
<trkpt lat="55.726894" lon="26.550488">
<ele>144.213013</ele>
<time>2010-07-18T12:41:35Z</time>
<desc>lat.=55.726894, lon.=26.550488, Alt.=144.213013m. Speed=0.000000m/h.</desc>
<speed>0.000000</speed>
</trkpt>
<trkpt lat="55.726894" lon="26.550488">
<ele>144.216919</ele>
<time>2010-07-18T12:41:36Z</time>
<desc>lat.=55.726894, lon.=26.550488, Alt.=144.216919m. Speed=0.000000m/h.</desc>
<speed>0.000000</speed>
</trkpt>
<trkpt lat="55.726894" lon="26.550488">
<ele>144.216919</ele>
<time>2010-07-18T12:41:37Z</time>
<desc>lat.=55.726894, lon.=26.550488, Alt.=144.216919m. Speed=0.000000m/h.</desc>
<speed>0.000000</speed>
</trkpt>
<trkpt lat="55.726894" lon="26.550488">
<ele>144.220825</ele>
<time>2010-07-18T12:41:38Z</time>
<desc>lat.=55.726894, lon.=26.550488, Alt.=144.220825m. Speed=0.000000m/h.</desc>
<speed>0.000000</speed>
</trkpt>
<trkpt lat="55.726894" lon="26.550488">
<ele>144.224731</ele>
<time>2010-07-18T12:41:39Z</time>
<desc>lat.=55.726894, lon.=26.550488, Alt.=144.224731m. Speed=0.000000m/h.</desc>
<speed>0.000000</speed>
</trkpt>
<trkpt lat="55.726894" lon="26.550488">
<ele>144.228638</ele>
<time>2010-07-18T12:41:40Z</time>
<desc>lat.=55.726894, lon.=26.550488, Alt.=144.228638m. Speed=0.000000m/h.</desc>
<speed>0.000000</speed>
</trkpt>
<trkpt lat="55.726894" lon="26.550488">
<ele>144.228638</ele>
<time>2010-07-18T12:41:41Z</time>
<desc>lat.=55.726894, lon.=26.550488, Alt.=144.228638m. Speed=0.000000m/h.</desc>
<speed>0.000000</speed>
</trkpt>
<trkpt lat="55.726894" lon="26.550488">
<ele>144.232544</ele>
<time>2010-07-18T12:41:42Z</time>
<desc>lat.=55.726894, lon.=26.550488, Alt.=144.232544m. Speed=0.000000m/h.</desc>
<speed>0.000000</speed>
</trkpt>
<trkpt lat="55.726894" lon="26.550488">
<ele>144.236450</ele>
<time>2010-07-18T12:41:43Z</time>
<desc>lat.=55.726894, lon.=26.550488, Alt.=144.236450m. Speed=0.000000m/h.</desc>
<speed>0.000000</speed>
</trkpt>
<trkpt lat="55.726894" lon="26.550488">
<ele>144.240356</ele>
<time>2010-07-18T12:41:44Z</time>
<desc>lat.=55.726894, lon.=26.550488, Alt.=144.240356m. Speed=0.000000m/h.</desc>
<speed>0.000000</speed>
</trkpt>
<trkpt lat="55.726894" lon="26.550489">
<ele>144.244263</ele>
<time>2010-07-18T12:41:45Z</time>
<desc>lat.=55.726894, lon.=26.550489, Alt.=144.244263m. Speed=0.000000m/h.</desc>
<speed>0.000000</speed>
</trkpt>
<trkpt lat="55.726894" lon="26.550489">
<ele>144.244263</ele>
<time>2010-07-18T12:41:46Z</time>
<desc>lat.=55.726894, lon.=26.550489, Alt.=144.244263m. Speed=0.000000m/h.</desc>
<speed>0.000000</speed>
</trkpt>
<trkpt lat="55.726894" lon="26.550489">
<ele>144.248169</ele>
<time>2010-07-18T12:41:47Z</time>
<desc>lat.=55.726894, lon.=26.550489, Alt.=144.248169m. Speed=0.000000m/h.</desc>
<speed>0.000000</speed>
</trkpt>
<trkpt lat="55.726894" lon="26.550489">
<ele>144.252075</ele>
<time>2010-07-18T12:41:48Z</time>
<desc>lat.=55.726894, lon.=26.550489, Alt.=144.252075m. Speed=0.000000m/h.</desc>
<speed>0.000000</speed>
</trkpt>
<trkpt lat="55.726894" lon="26.550489">
<ele>144.255981</ele>
<time>2010-07-18T12:41:49Z</time>
<desc>lat.=55.726894, lon.=26.550489, Alt.=144.255981m. Speed=0.000000m/h.</desc>
<speed>0.000000</speed>
</trkpt>
<trkpt lat="55.726894" lon="26.550489">
<ele>144.259888</ele>
<time>2010-07-18T12:41:50Z</time>
<desc>lat.=55.726894, lon.=26.550489, Alt.=144.259888m. Speed=0.000000m/h.</desc>
<speed>0.000000</speed>
</trkpt>
<trkpt lat="55.726894" lon="26.550489">
<ele>144.263794</ele>
<time>2010-07-18T12:41:51Z</time>
<desc>lat.=55.726894, lon.=26.550489, Alt.=144.263794m. Speed=0.000000m/h.</desc>
<speed>0.000000</speed>
</trkpt>
<trkpt lat="55.726894" lon="26.550489">
<ele>144.271606</ele>
<time>2010-07-18T12:41:52Z</time>
<desc>lat.=55.726894, lon.=26.550489, Alt.=144.271606m. Speed=0.000000m/h.</desc>
<speed>0.000000</speed>
</trkpt>
<trkpt lat="55.726894" lon="26.550489">
<ele>144.275513</ele>
<time>2010-07-18T12:41:53Z</time>
<desc>lat.=55.726894, lon.=26.550489, Alt.=144.275513m. Speed=0.000000m/h.</desc>
<speed>0.000000</speed>
</trkpt>
<trkpt lat="55.726894" lon="26.550489">
<ele>144.279419</ele>
<time>2010-07-18T12:41:54Z</time>
<desc>lat.=55.726894, lon.=26.550489, Alt.=144.279419m. Speed=0.000000m/h.</desc>
<speed>0.000000</speed>
</trkpt>
<trkpt lat="55.726894" lon="26.550489">
<ele>144.287231</ele>
<time>2010-07-18T12:41:55Z</time>
<desc>lat.=55.726894, lon.=26.550489, Alt.=144.287231m. Speed=0.000000m/h.</desc>
<speed>0.000000</speed>
</trkpt>
<trkpt lat="55.726894" lon="26.550489">
<ele>144.291138</ele>
<time>2010-07-18T12:41:56Z</time>
<desc>lat.=55.726894, lon.=26.550489, Alt.=144.291138m. Speed=0.000000m/h.</desc>
<speed>0.000000</speed>
</trkpt>
<trkpt lat="55.726894" lon="26.550489">
<ele>144.295044</ele>
<time>2010-07-18T12:41:57Z</time>
<desc>lat.=55.726894, lon.=26.550489, Alt.=144.295044m. Speed=0.000000m/h.</desc>
<speed>0.000000</speed>
</trkpt>
<trkpt lat="55.726894" lon="26.550489">
<ele>144.298950</ele>
<time>2010-07-18T12:41:58Z</time>
<desc>lat.=55.726894, lon.=26.550489, Alt.=144.298950m. Speed=0.000000m/h.</desc>
<speed>0.000000</speed>
</trkpt>
<trkpt lat="55.726894" lon="26.550489">
<ele>144.302856</ele>
<time>2010-07-18T12:41:59Z</time>
<desc>lat.=55.726894, lon.=26.550489, Alt.=144.302856m. Speed=0.000000m/h.</desc>
<speed>0.000000</speed>
</trkpt>
<trkpt lat="55.726894" lon="26.550489">
<ele>144.302856</ele>
<time>2010-07-18T12:42:00Z</time>
<desc>lat.=55.726894, lon.=26.550489, Alt.=144.302856m. Speed=0.000000m/h.</desc>
<speed>0.000000</speed>
</trkpt>
<trkpt lat="55.726894" lon="26.550489">
<ele>144.306763</ele>
<time>2010-07-18T12:42:01Z</time>
<desc>lat.=55.726894, lon.=26.550489, Alt.=144.306763m. Speed=0.000000m/h.</desc>
<speed>0.000000</speed>
</trkpt>
<trkpt lat="55.726894" lon="26.550489">
<ele>144.310669</ele>
<time>2010-07-18T12:42:02Z</time>
<desc>lat.=55.726894, lon.=26.550489, Alt.=144.310669m. Speed=0.000000m/h.</desc>
<speed>0.000000</speed>
</trkpt>
<trkpt lat="55.726894" lon="26.550489">
<ele>144.310669</ele>
<time>2010-07-18T12:42:03Z</time>
<desc>lat.=55.726894, lon.=26.550489, Alt.=144.310669m. Speed=0.000000m/h.</desc>
<speed>0.000000</speed>
</trkpt>
<trkpt lat="55.726894" lon="26.550489">
<ele>144.314575</ele>
<time>2010-07-18T12:42:04Z</time>
<desc>lat.=55.726894, lon.=26.550489, Alt.=144.314575m. Speed=0.000000m/h.</desc>
<speed>0.000000</speed>
</trkpt>
<trkpt lat="55.726894" lon="26.550489">
<ele>144.314575</ele>
<time>2010-07-18T12:42:05Z</time>
<desc>lat.=55.726894, lon.=26.550489, Alt.=144.314575m. Speed=0.000000m/h.</desc>
<speed>0.000000</speed>
</trkpt>
<trkpt lat="55.726894" lon="26.550489">
<ele>144.318481</ele>
<time>2010-07-18T12:42:06Z</time>
<desc>lat.=55.726894, lon.=26.550489, Alt.=144.318481m. Speed=0.000000m/h.</desc>
<speed>0.000000</speed>
</trkpt>
<trkpt lat="55.726894" lon="26.550489">
<ele>144.318481</ele>
<time>2010-07-18T12:42:07Z</time>
<desc>lat.=55.726894, lon.=26.550489, Alt.=144.318481m. Speed=0.000000m/h.</desc>
<speed>0.000000</speed>
</trkpt>
<trkpt lat="55.726894" lon="26.550489">
<ele>144.318481</ele>
<time>2010-07-18T12:42:08Z</time>
<desc>lat.=55.726894, lon.=26.550489, Alt.=144.318481m. Speed=0.000000m/h.</desc>
<speed>0.000000</speed>
</trkpt>
<trkpt lat="55.726894" lon="26.550489">
<ele>144.326294</ele>
<time>2010-07-18T12:42:09Z</time>
<desc>lat.=55.726894, lon.=26.550489, Alt.=144.326294m. Speed=0.036000m/h.</desc>
<speed>0.010000</speed>
</trkpt>
<trkpt lat="55.726894" lon="26.550489">
<ele>144.326294</ele>
<time>2010-07-18T12:42:10Z</time>
<desc>lat.=55.726894, lon.=26.550489, Alt.=144.326294m. Speed=0.000000m/h.</desc>
<speed>0.000000</speed>
</trkpt>
<trkpt lat="55.726894" lon="26.550489">
<ele>144.330200</ele>
<time>2010-07-18T12:42:11Z</time>
<desc>lat.=55.726894, lon.=26.550489, Alt.=144.330200m. Speed=0.000000m/h.</desc>
<speed>0.000000</speed>
</trkpt>
<trkpt lat="55.726894" lon="26.550489">
<ele>144.334106</ele>
<time>2010-07-18T12:42:12Z</time>
<desc>lat.=55.726894, lon.=26.550489, Alt.=144.334106m. Speed=0.000000m/h.</desc>
<speed>0.000000</speed>
</trkpt>
<trkpt lat="55.726894" lon="26.550489">
<ele>144.338013</ele>
<time>2010-07-18T12:42:13Z</time>
<desc>lat.=55.726894, lon.=26.550489, Alt.=144.338013m. Speed=0.000000m/h.</desc>
<speed>0.000000</speed>
</trkpt>
<trkpt lat="55.726894" lon="26.550489">
<ele>144.341919</ele>
<time>2010-07-18T12:42:14Z</time>
<desc>lat.=55.726894, lon.=26.550489, Alt.=144.341919m. Speed=0.036000m/h.</desc>
<speed>0.010000</speed>
</trkpt>
<trkpt lat="55.726894" lon="26.550489">
<ele>144.341919</ele>
<time>2010-07-18T12:42:15Z</time>
<desc>lat.=55.726894, lon.=26.550489, Alt.=144.341919m. Speed=0.036000m/h.</desc>
<speed>0.010000</speed>
</trkpt>
<trkpt lat="55.726894" lon="26.550489">
<ele>144.345825</ele>
<time>2010-07-18T12:42:16Z</time>
<desc>lat.=55.726894, lon.=26.550489, Alt.=144.345825m. Speed=0.000000m/h.</desc>
<speed>0.000000</speed>
</trkpt>
<trkpt lat="55.726894" lon="26.550489">
<ele>144.345825</ele>
<time>2010-07-18T12:42:17Z</time>
<desc>lat.=55.726894, lon.=26.550489, Alt.=144.345825m. Speed=0.000000m/h.</desc>
<speed>0.000000</speed>
</trkpt>
<trkpt lat="55.726894" lon="26.550489">
<ele>144.349731</ele>
<time>2010-07-18T12:42:18Z</time>
<desc>lat.=55.726894, lon.=26.550489, Alt.=144.349731m. Speed=0.000000m/h.</desc>
<speed>0.000000</speed>
</trkpt>
<trkpt lat="55.726894" lon="26.550488">
<ele>144.349731</ele>
<time>2010-07-18T12:42:19Z</time>
<desc>lat.=55.726894, lon.=26.550488, Alt.=144.349731m. Speed=0.000000m/h.</desc>
<speed>0.000000</speed>
</trkpt>
<trkpt lat="55.726894" lon="26.550488">
<ele>144.349731</ele>
<time>2010-07-18T12:42:20Z</time>
<desc>lat.=55.726894, lon.=26.550488, Alt.=144.349731m. Speed=0.000000m/h.</desc>
<speed>0.000000</speed>
</trkpt>
<trkpt lat="55.726894" lon="26.550488">
<ele>144.353638</ele>
<time>2010-07-18T12:42:21Z</time>
<desc>lat.=55.726894, lon.=26.550488, Alt.=144.353638m. Speed=0.000000m/h.</desc>
<speed>0.000000</speed>
</trkpt>
<trkpt lat="55.726894" lon="26.550488">
<ele>144.353638</ele>
<time>2010-07-18T12:42:22Z</time>
<desc>lat.=55.726894, lon.=26.550488, Alt.=144.353638m. Speed=0.000000m/h.</desc>
<speed>0.000000</speed>
</trkpt>
<trkpt lat="55.726894" lon="26.550488">
<ele>144.357544</ele>
<time>2010-07-18T12:42:23Z</time>
<desc>lat.=55.726894, lon.=26.550488, Alt.=144.357544m. Speed=0.000000m/h.</desc>
<speed>0.000000</speed>
</trkpt>
<trkpt lat="55.726894" lon="26.550488">
<ele>144.357544</ele>
<time>2010-07-18T12:42:24Z</time>
<desc>lat.=55.726894, lon.=26.550488, Alt.=144.357544m. Speed=0.000000m/h.</desc>
<speed>0.000000</speed>
</trkpt>
<trkpt lat="55.726894" lon="26.550488">
<ele>144.361450</ele>
<time>2010-07-18T12:42:25Z</time>
<desc>lat.=55.726894, lon.=26.550488, Alt.=144.361450m. Speed=0.000000m/h.</desc>
<speed>0.000000</speed>
</trkpt>
<trkpt lat="55.726894" lon="26.550488">
<ele>144.365356</ele>
<time>2010-07-18T12:42:26Z</time>
<desc>lat.=55.726894, lon.=26.550488, Alt.=144.365356m. Speed=0.000000m/h.</desc>
<speed>0.000000</speed>
</trkpt>
<trkpt lat="55.726894" lon="26.550488">
<ele>144.369263</ele>
<time>2010-07-18T12:42:27Z</time>
<desc>lat.=55.726894, lon.=26.550488, Alt.=144.369263m. Speed=0.000000m/h.</desc>
<speed>0.000000</speed>
</trkpt>
<trkpt lat="55.726894" lon="26.550488">
<ele>144.369263</ele>
<time>2010-07-18T12:42:28Z</time>
<desc>lat.=55.726894, lon.=26.550488, Alt.=144.369263m. Speed=0.036000m/h.</desc>
<speed>0.010000</speed>
</trkpt>
<trkpt lat="55.726894" lon="26.550488">
<ele>144.373169</ele>
<time>2010-07-18T12:42:29Z</time>
<desc>lat.=55.726894, lon.=26.550488, Alt.=144.373169m. Speed=0.000000m/h.</desc>
<speed>0.000000</speed>
</trkpt>
<trkpt lat="55.726894" lon="26.550488">
<ele>144.377075</ele>
<time>2010-07-18T12:42:30Z</time>
<desc>lat.=55.726894, lon.=26.550488, Alt.=144.377075m. Speed=0.000000m/h.</desc>
<speed>0.000000</speed>
</trkpt>
<trkpt lat="55.726894" lon="26.550488">
<ele>144.377075</ele>
<time>2010-07-18T12:42:31Z</time>
<desc>lat.=55.726894, lon.=26.550488, Alt.=144.377075m. Speed=0.000000m/h.</desc>
<speed>0.000000</speed>
</trkpt>
<trkpt lat="55.726894" lon="26.550488">
<ele>144.384888</ele>
<time>2010-07-18T12:42:32Z</time>
<desc>lat.=55.726894, lon.=26.550488, Alt.=144.384888m. Speed=0.000000m/h.</desc>
<speed>0.000000</speed>
</trkpt>
<trkpt lat="55.726894" lon="26.550488">
<ele>144.384888</ele>
<time>2010-07-18T12:42:33Z</time>
<desc>lat.=55.726894, lon.=26.550488, Alt.=144.384888m. Speed=0.036000m/h.</desc>
<speed>0.010000</speed>
</trkpt>
<trkpt lat="55.726894" lon="26.550488">
<ele>144.388794</ele>
<time>2010-07-18T12:42:34Z</time>
<desc>lat.=55.726894, lon.=26.550488, Alt.=144.388794m. Speed=0.000000m/h.</desc>
<speed>0.000000</speed>
</trkpt>
<trkpt lat="55.726894" lon="26.550488">
<ele>144.388794</ele>
<time>2010-07-18T12:42:35Z</time>
<desc>lat.=55.726894, lon.=26.550488, Alt.=144.388794m. Speed=0.000000m/h.</desc>
<speed>0.000000</speed>
</trkpt>
<trkpt lat="55.726894" lon="26.550488">
<ele>144.392700</ele>
<time>2010-07-18T12:42:36Z</time>
<desc>lat.=55.726894, lon.=26.550488, Alt.=144.392700m. Speed=0.000000m/h.</desc>
<speed>0.000000</speed>
</trkpt>
<trkpt lat="55.726894" lon="26.550488">
<ele>144.392700</ele>
<time>2010-07-18T12:42:37Z</time>
<desc>lat.=55.726894, lon.=26.550488, Alt.=144.392700m. Speed=0.000000m/h.</desc>
<speed>0.000000</speed>
</trkpt>
<trkpt lat="55.726894" lon="26.550488">
<ele>144.392700</ele>
<time>2010-07-18T12:42:38Z</time>
<desc>lat.=55.726894, lon.=26.550488, Alt.=144.392700m. Speed=0.000000m/h.</desc>
<speed>0.000000</speed>
</trkpt>
<trkpt lat="55.726894" lon="26.550488">
<ele>144.392700</ele>
<time>2010-07-18T12:42:39Z</time>
<desc>lat.=55.726894, lon.=26.550488, Alt.=144.392700m. Speed=0.000000m/h.</desc>
<speed>0.000000</speed>
</trkpt>
<trkpt lat="55.726894" lon="26.550488">
<ele>144.396606</ele>
<time>2010-07-18T12:42:40Z</time>
<desc>lat.=55.726894, lon.=26.550488, Alt.=144.396606m. Speed=0.000000m/h.</desc>
<speed>0.000000</speed>
</trkpt>
<trkpt lat="55.726894" lon="26.550488">
<ele>144.396606</ele>
<time>2010-07-18T12:42:41Z</time>
<desc>lat.=55.726894, lon.=26.550488, Alt.=144.396606m. Speed=0.000000m/h.</desc>
<speed>0.000000</speed>
</trkpt>
<trkpt lat="55.726894" lon="26.550488">
<ele>144.396606</ele>
<time>2010-07-18T12:42:42Z</time>
<desc>lat.=55.726894, lon.=26.550488, Alt.=144.396606m. Speed=0.000000m/h.</desc>
<speed>0.000000</speed>
</trkpt>
<trkpt lat="55.726894" lon="26.550488">
<ele>144.400513</ele>
<time>2010-07-18T12:42:43Z</time>
<desc>lat.=55.726894, lon.=26.550488, Alt.=144.400513m. Speed=0.000000m/h.</desc>
<speed>0.000000</speed>
</trkpt>
<trkpt lat="55.726894" lon="26.550488">
<ele>144.400513</ele>
<time>2010-07-18T12:42:44Z</time>
<desc>lat.=55.726894, lon.=26.550488, Alt.=144.400513m. Speed=0.000000m/h.</desc>
<speed>0.000000</speed>
</trkpt>
<trkpt lat="55.726894" lon="26.550488">
<ele>144.404419</ele>
<time>2010-07-18T12:42:45Z</time>
<desc>lat.=55.726894, lon.=26.550488, Alt.=144.404419m. Speed=0.036000m/h.</desc>
<speed>0.010000</speed>
</trkpt>
<trkpt lat="55.726894" lon="26.550488">
<ele>144.404419</ele>
<time>2010-07-18T12:42:46Z</time>
<desc>lat.=55.726894, lon.=26.550488, Alt.=144.404419m. Speed=0.000000m/h.</desc>
<speed>0.000000</speed>
</trkpt>
<trkpt lat="55.726894" lon="26.550488">
<ele>144.412231</ele>
<time>2010-07-18T12:42:47Z</time>
<desc>lat.=55.726894, lon.=26.550488, Alt.=144.412231m. Speed=0.000000m/h.</desc>
<speed>0.000000</speed>
</trkpt>
<trkpt lat="55.726894" lon="26.550488">
<ele>144.412231</ele>
<time>2010-07-18T12:42:48Z</time>
<desc>lat.=55.726894, lon.=26.550488, Alt.=144.412231m. Speed=0.036000m/h.</desc>
<speed>0.010000</speed>
</trkpt>
<trkpt lat="55.726894" lon="26.550488">
<ele>144.420044</ele>
<time>2010-07-18T12:42:49Z</time>
<desc>lat.=55.726894, lon.=26.550488, Alt.=144.420044m. Speed=0.036000m/h.</desc>
<speed>0.010000</speed>
</trkpt>
<trkpt lat="55.726894" lon="26.550488">
<ele>144.420044</ele>
<time>2010-07-18T12:42:50Z</time>
<desc>lat.=55.726894, lon.=26.550488, Alt.=144.420044m. Speed=0.000000m/h.</desc>
<speed>0.000000</speed>
</trkpt>
<trkpt lat="55.726894" lon="26.550488">
<ele>144.423950</ele>
<time>2010-07-18T12:42:51Z</time>
<desc>lat.=55.726894, lon.=26.550488, Alt.=144.423950m. Speed=0.000000m/h.</desc>
<speed>0.000000</speed>
</trkpt>
<trkpt lat="55.726894" lon="26.550488">
<ele>144.427856</ele>
<time>2010-07-18T12:42:52Z</time>
<desc>lat.=55.726894, lon.=26.550488, Alt.=144.427856m. Speed=0.000000m/h.</desc>
<speed>0.000000</speed>
</trkpt>
<trkpt lat="55.726894" lon="26.550488">
<ele>144.431763</ele>
<time>2010-07-18T12:42:53Z</time>
<desc>lat.=55.726894, lon.=26.550488, Alt.=144.431763m. Speed=0.000000m/h.</desc>
<speed>0.000000</speed>
</trkpt>
<trkpt lat="55.726894" lon="26.550488">
<ele>144.435669</ele>
<time>2010-07-18T12:42:54Z</time>
<desc>lat.=55.726894, lon.=26.550488, Alt.=144.435669m. Speed=0.000000m/h.</desc>
<speed>0.000000</speed>
</trkpt>
<trkpt lat="55.726894" lon="26.550488">
<ele>144.439575</ele>
<time>2010-07-18T12:42:55Z</time>
<desc>lat.=55.726894, lon.=26.550488, Alt.=144.439575m. Speed=0.000000m/h.</desc>
<speed>0.000000</speed>
</trkpt>
<trkpt lat="55.726894" lon="26.550488">
<ele>144.443481</ele>
<time>2010-07-18T12:42:56Z</time>
<desc>lat.=55.726894, lon.=26.550488, Alt.=144.443481m. Speed=0.036000m/h.</desc>
<speed>0.010000</speed>
</trkpt>
<trkpt lat="55.726894" lon="26.550488">
<ele>144.447388</ele>
<time>2010-07-18T12:42:57Z</time>
<desc>lat.=55.726894, lon.=26.550488, Alt.=144.447388m. Speed=0.000000m/h.</desc>
<speed>0.000000</speed>
</trkpt>
<trkpt lat="55.726894" lon="26.550488">
<ele>144.451294</ele>
<time>2010-07-18T12:42:58Z</time>
<desc>lat.=55.726894, lon.=26.550488, Alt.=144.451294m. Speed=0.000000m/h.</desc>
<speed>0.000000</speed>
</trkpt>
<trkpt lat="55.726894" lon="26.550488">
<ele>144.459106</ele>
<time>2010-07-18T12:42:59Z</time>
<desc>lat.=55.726894, lon.=26.550488, Alt.=144.459106m. Speed=0.000000m/h.</desc>
<speed>0.000000</speed>
</trkpt>
<trkpt lat="55.726894" lon="26.550488">
<ele>144.463013</ele>
<time>2010-07-18T12:43:00Z</time>
<desc>lat.=55.726894, lon.=26.550488, Alt.=144.463013m. Speed=0.000000m/h.</desc>
<speed>0.000000</speed>
</trkpt>
<trkpt lat="55.726894" lon="26.550488">
<ele>144.466919</ele>
<time>2010-07-18T12:43:01Z</time>
<desc>lat.=55.726894, lon.=26.550488, Alt.=144.466919m. Speed=0.000000m/h.</desc>
<speed>0.000000</speed>
</trkpt>
<trkpt lat="55.726894" lon="26.550488">
<ele>144.470825</ele>
<time>2010-07-18T12:43:02Z</time>
<desc>lat.=55.726894, lon.=26.550488, Alt.=144.470825m. Speed=0.036000m/h.</desc>
<speed>0.010000</speed>
</trkpt>
<trkpt lat="55.726894" lon="26.550488">
<ele>144.474731</ele>
<time>2010-07-18T12:43:03Z</time>
<desc>lat.=55.726894, lon.=26.550488, Alt.=144.474731m. Speed=0.000000m/h.</desc>
<speed>0.000000</speed>
</trkpt>
<trkpt lat="55.726894" lon="26.550488">
<ele>144.478638</ele>
<time>2010-07-18T12:43:04Z</time>
<desc>lat.=55.726894, lon.=26.550488, Alt.=144.478638m. Speed=0.000000m/h.</desc>
<speed>0.000000</speed>
</trkpt>
<trkpt lat="55.726894" lon="26.550488">
<ele>144.478638</ele>
<time>2010-07-18T12:43:05Z</time>
<desc>lat.=55.726894, lon.=26.550488, Alt.=144.478638m. Speed=0.000000m/h.</desc>
<speed>0.000000</speed>
</trkpt>
<trkpt lat="55.726894" lon="26.550488">
<ele>144.482544</ele>
<time>2010-07-18T12:43:06Z</time>
<desc>lat.=55.726894, lon.=26.550488, Alt.=144.482544m. Speed=0.000000m/h.</desc>
<speed>0.000000</speed>
</trkpt>
<trkpt lat="55.726891" lon="26.550488">
<ele>144.486450</ele>
<time>2010-07-18T12:43:07Z</time>
<desc>lat.=55.726891, lon.=26.550488, Alt.=144.486450m. Speed=0.036000m/h.</desc>
<speed>0.010000</speed>
</trkpt>
<trkpt lat="55.726891" lon="26.550489">
<ele>144.486450</ele>
<time>2010-07-18T12:43:08Z</time>
<desc>lat.=55.726891, lon.=26.550489, Alt.=144.486450m. Speed=0.000000m/h.</desc>
<speed>0.000000</speed>
</trkpt>
<trkpt lat="55.726891" lon="26.550489">
<ele>144.486450</ele>
<time>2010-07-18T12:43:09Z</time>
<desc>lat.=55.726891, lon.=26.550489, Alt.=144.486450m. Speed=0.036000m/h.</desc>
<speed>0.010000</speed>
</trkpt>
<trkpt lat="55.726891" lon="26.550489">
<ele>144.486450</ele>
<time>2010-07-18T12:43:10Z</time>
<desc>lat.=55.726891, lon.=26.550489, Alt.=144.486450m. Speed=0.036000m/h.</desc>
<speed>0.010000</speed>
</trkpt>
<trkpt lat="55.726891" lon="26.550489">
<ele>144.486450</ele>
<time>2010-07-18T12:43:11Z</time>
<desc>lat.=55.726891, lon.=26.550489, Alt.=144.486450m. Speed=0.000000m/h.</desc>
<speed>0.000000</speed>
</trkpt>
<trkpt lat="55.726891" lon="26.550489">
<ele>144.482544</ele>
<time>2010-07-18T12:43:12Z</time>
<desc>lat.=55.726891, lon.=26.550489, Alt.=144.482544m. Speed=0.000000m/h.</desc>
<speed>0.000000</speed>
</trkpt>
<trkpt lat="55.726891" lon="26.550489">
<ele>144.482544</ele>
<time>2010-07-18T12:43:13Z</time>
<desc>lat.=55.726891, lon.=26.550489, Alt.=144.482544m. Speed=0.000000m/h.</desc>
<speed>0.000000</speed>
</trkpt>
<trkpt lat="55.726891" lon="26.550489">
<ele>144.486450</ele>
<time>2010-07-18T12:43:14Z</time>
<desc>lat.=55.726891, lon.=26.550489, Alt.=144.486450m. Speed=0.000000m/h.</desc>
<speed>0.000000</speed>
</trkpt>
<trkpt lat="55.726891" lon="26.550489">
<ele>144.482544</ele>
<time>2010-07-18T12:43:15Z</time>
<desc>lat.=55.726891, lon.=26.550489, Alt.=144.482544m. Speed=0.000000m/h.</desc>
<speed>0.000000</speed>
</trkpt>
<trkpt lat="55.726891" lon="26.550489">
<ele>144.486450</ele>
<time>2010-07-18T12:43:16Z</time>
<desc>lat.=55.726891, lon.=26.550489, Alt.=144.486450m. Speed=0.000000m/h.</desc>
<speed>0.000000</speed>
</trkpt>
<trkpt lat="55.726891" lon="26.550489">
<ele>144.486450</ele>
<time>2010-07-18T12:43:17Z</time>
<desc>lat.=55.726891, lon.=26.550489, Alt.=144.486450m. Speed=0.000000m/h.</desc>
<speed>0.000000</speed>
</trkpt>
<trkpt lat="55.726891" lon="26.550489">
<ele>144.486450</ele>
<time>2010-07-18T12:43:18Z</time>
<desc>lat.=55.726891, lon.=26.550489, Alt.=144.486450m. Speed=0.000000m/h.</desc>
<speed>0.000000</speed>
</trkpt>
<trkpt lat="55.726891" lon="26.550489">
<ele>144.486450</ele>
<time>2010-07-18T12:43:19Z</time>
<desc>lat.=55.726891, lon.=26.550489, Alt.=144.486450m. Speed=0.000000m/h.</desc>
<speed>0.000000</speed>
</trkpt>
<trkpt lat="55.726891" lon="26.550489">
<ele>144.490356</ele>
<time>2010-07-18T12:43:20Z</time>
<desc>lat.=55.726891, lon.=26.550489, Alt.=144.490356m. Speed=0.000000m/h.</desc>
<speed>0.000000</speed>
</trkpt>
<trkpt lat="55.726894" lon="26.550489">
<ele>144.490356</ele>
<time>2010-07-18T12:43:21Z</time>
<desc>lat.=55.726894, lon.=26.550489, Alt.=144.490356m. Speed=0.000000m/h.</desc>
<speed>0.000000</speed>
</trkpt>
<trkpt lat="55.726894" lon="26.550489">
<ele>144.490356</ele>
<time>2010-07-18T12:43:22Z</time>
<desc>lat.=55.726894, lon.=26.550489, Alt.=144.490356m. Speed=0.000000m/h.</desc>
<speed>0.000000</speed>
</trkpt>
<trkpt lat="55.726894" lon="26.550489">
<ele>144.494263</ele>
<time>2010-07-18T12:43:23Z</time>
<desc>lat.=55.726894, lon.=26.550489, Alt.=144.494263m. Speed=0.000000m/h.</desc>
<speed>0.000000</speed>
</trkpt>
<trkpt lat="55.726894" lon="26.550489">
<ele>144.494263</ele>
<time>2010-07-18T12:43:24Z</time>
<desc>lat.=55.726894, lon.=26.550489, Alt.=144.494263m. Speed=0.000000m/h.</desc>
<speed>0.000000</speed>
</trkpt>
<trkpt lat="55.726894" lon="26.550489">
<ele>144.494263</ele>
<time>2010-07-18T12:43:25Z</time>
<desc>lat.=55.726894, lon.=26.550489, Alt.=144.494263m. Speed=0.036000m/h.</desc>
<speed>0.010000</speed>
</trkpt>
<trkpt lat="55.726894" lon="26.550489">
<ele>144.498169</ele>
<time>2010-07-18T12:43:26Z</time>
<desc>lat.=55.726894, lon.=26.550489, Alt.=144.498169m. Speed=0.000000m/h.</desc>
<speed>0.000000</speed>
</trkpt>
<trkpt lat="55.726894" lon="26.550489">
<ele>144.498169</ele>
<time>2010-07-18T12:43:27Z</time>
<desc>lat.=55.726894, lon.=26.550489, Alt.=144.498169m. Speed=0.000000m/h.</desc>
<speed>0.000000</speed>
</trkpt>
<trkpt lat="55.726894" lon="26.550489">
<ele>144.498169</ele>
<time>2010-07-18T12:43:28Z</time>
<desc>lat.=55.726894, lon.=26.550489, Alt.=144.498169m. Speed=0.000000m/h.</desc>
<speed>0.000000</speed>
</trkpt>
<trkpt lat="55.726894" lon="26.550489">
<ele>144.498169</ele>
<time>2010-07-18T12:43:29Z</time>
<desc>lat.=55.726894, lon.=26.550489, Alt.=144.498169m. Speed=0.000000m/h.</desc>
<speed>0.000000</speed>
</trkpt>
<trkpt lat="55.726894" lon="26.550489">
<ele>144.498169</ele>
<time>2010-07-18T12:43:30Z</time>
<desc>lat.=55.726894, lon.=26.550489, Alt.=144.498169m. Speed=0.036000m/h.</desc>
<speed>0.010000</speed>
</trkpt>
<trkpt lat="55.726894" lon="26.550489">
<ele>144.502075</ele>
<time>2010-07-18T12:43:31Z</time>
<desc>lat.=55.726894, lon.=26.550489, Alt.=144.502075m. Speed=0.000000m/h.</desc>
<speed>0.000000</speed>
</trkpt>
<trkpt lat="55.726894" lon="26.550489">
<ele>144.502075</ele>
<time>2010-07-18T12:43:32Z</time>
<desc>lat.=55.726894, lon.=26.550489, Alt.=144.502075m. Speed=0.000000m/h.</desc>
<speed>0.000000</speed>
</trkpt>
<trkpt lat="55.726894" lon="26.550489">
<ele>144.502075</ele>
<time>2010-07-18T12:43:33Z</time>
<desc>lat.=55.726894, lon.=26.550489, Alt.=144.502075m. Speed=0.000000m/h.</desc>
<speed>0.000000</speed>
</trkpt>
<trkpt lat="55.726894" lon="26.550489">
<ele>144.502075</ele>
<time>2010-07-18T12:43:34Z</time>
<desc>lat.=55.726894, lon.=26.550489, Alt.=144.502075m. Speed=0.000000m/h.</desc>
<speed>0.000000</speed>
</trkpt>
<trkpt lat="55.726894" lon="26.550489">
<ele>144.502075</ele>
<time>2010-07-18T12:43:35Z</time>
<desc>lat.=55.726894, lon.=26.550489, Alt.=144.502075m. Speed=0.000000m/h.</desc>
<speed>0.000000</speed>
</trkpt>
<trkpt lat="55.726894" lon="26.550489">
<ele>144.502075</ele>
<time>2010-07-18T12:43:36Z</time>
<desc>lat.=55.726894, lon.=26.550489, Alt.=144.502075m. Speed=0.000000m/h.</desc>
<speed>0.000000</speed>
</trkpt>
<trkpt lat="55.726894" lon="26.550489">
<ele>144.502075</ele>
<time>2010-07-18T12:43:37Z</time>
<desc>lat.=55.726894, lon.=26.550489, Alt.=144.502075m. Speed=0.000000m/h.</desc>
<speed>0.000000</speed>
</trkpt>
<trkpt lat="55.726894" lon="26.550489">
<ele>144.502075</ele>
<time>2010-07-18T12:43:38Z</time>
<desc>lat.=55.726894, lon.=26.550489, Alt.=144.502075m. Speed=0.036000m/h.</desc>
<speed>0.010000</speed>
</trkpt>
<trkpt lat="55.726894" lon="26.550489">
<ele>144.502075</ele>
<time>2010-07-18T12:43:39Z</time>
<desc>lat.=55.726894, lon.=26.550489, Alt.=144.502075m. Speed=0.000000m/h.</desc>
<speed>0.000000</speed>
</trkpt>
<trkpt lat="55.726894" lon="26.550489">
<ele>144.498169</ele>
<time>2010-07-18T12:43:40Z</time>
<desc>lat.=55.726894, lon.=26.550489, Alt.=144.498169m. Speed=0.036000m/h.</desc>
<speed>0.010000</speed>
</trkpt>
<trkpt lat="55.726894" lon="26.550489">
<ele>144.502075</ele>
<time>2010-07-18T12:43:41Z</time>
<desc>lat.=55.726894, lon.=26.550489, Alt.=144.502075m. Speed=0.000000m/h.</desc>
<speed>0.000000</speed>
</trkpt>
<trkpt lat="55.726894" lon="26.550489">
<ele>144.502075</ele>
<time>2010-07-18T12:43:42Z</time>
<desc>lat.=55.726894, lon.=26.550489, Alt.=144.502075m. Speed=0.000000m/h.</desc>
<speed>0.000000</speed>
</trkpt>
<trkpt lat="55.726894" lon="26.550489">
<ele>144.498169</ele>
<time>2010-07-18T12:43:43Z</time>
<desc>lat.=55.726894, lon.=26.550489, Alt.=144.498169m. Speed=0.000000m/h.</desc>
<speed>0.000000</speed>
</trkpt>
<trkpt lat="55.726894" lon="26.550489">
<ele>144.498169</ele>
<time>2010-07-18T12:43:44Z</time>
<desc>lat.=55.726894, lon.=26.550489, Alt.=144.498169m. Speed=0.000000m/h.</desc>
<speed>0.000000</speed>
</trkpt>
<trkpt lat="55.726894" lon="26.550489">
<ele>144.498169</ele>
<time>2010-07-18T12:43:45Z</time>
<desc>lat.=55.726894, lon.=26.550489, Alt.=144.498169m. Speed=0.000000m/h.</desc>
<speed>0.000000</speed>
</trkpt>
<trkpt lat="55.726894" lon="26.550489">
<ele>144.498169</ele>
<time>2010-07-18T12:43:46Z</time>
<desc>lat.=55.726894, lon.=26.550489, Alt.=144.498169m. Speed=0.000000m/h.</desc>
<speed>0.000000</speed>
</trkpt>
<trkpt lat="55.726894" lon="26.550489">
<ele>144.494263</ele>
<time>2010-07-18T12:43:47Z</time>
<desc>lat.=55.726894, lon.=26.550489, Alt.=144.494263m. Speed=0.000000m/h.</desc>
<speed>0.000000</speed>
</trkpt>
<trkpt lat="55.726894" lon="26.550489">
<ele>144.498169</ele>
<time>2010-07-18T12:43:48Z</time>
<desc>lat.=55.726894, lon.=26.550489, Alt.=144.498169m. Speed=0.000000m/h.</desc>
<speed>0.000000</speed>
</trkpt>
<trkpt lat="55.726894" lon="26.550489">
<ele>144.498169</ele>
<time>2010-07-18T12:43:49Z</time>
<desc>lat.=55.726894, lon.=26.550489, Alt.=144.498169m. Speed=0.000000m/h.</desc>
<speed>0.000000</speed>
</trkpt>
<trkpt lat="55.726894" lon="26.550489">
<ele>144.498169</ele>
<time>2010-07-18T12:43:50Z</time>
<desc>lat.=55.726894, lon.=26.550489, Alt.=144.498169m. Speed=0.000000m/h.</desc>
<speed>0.000000</speed>
</trkpt>
<trkpt lat="55.726894" lon="26.550489">
<ele>144.498169</ele>
<time>2010-07-18T12:43:51Z</time>
<desc>lat.=55.726894, lon.=26.550489, Alt.=144.498169m. Speed=0.000000m/h.</desc>
<speed>0.000000</speed>
</trkpt>
<trkpt lat="55.726894" lon="26.550489">
<ele>144.502075</ele>
<time>2010-07-18T12:43:52Z</time>
<desc>lat.=55.726894, lon.=26.550489, Alt.=144.502075m. Speed=0.000000m/h.</desc>
<speed>0.000000</speed>
</trkpt>
<trkpt lat="55.726894" lon="26.550489">
<ele>144.502075</ele>
<time>2010-07-18T12:43:53Z</time>
<desc>lat.=55.726894, lon.=26.550489, Alt.=144.502075m. Speed=0.036000m/h.</desc>
<speed>0.010000</speed>
</trkpt>
<trkpt lat="55.726894" lon="26.550489">
<ele>144.502075</ele>
<time>2010-07-18T12:43:54Z</time>
<desc>lat.=55.726894, lon.=26.550489, Alt.=144.502075m. Speed=0.000000m/h.</desc>
<speed>0.000000</speed>
</trkpt>
<trkpt lat="55.726894" lon="26.550489">
<ele>144.505981</ele>
<time>2010-07-18T12:43:55Z</time>
<desc>lat.=55.726894, lon.=26.550489, Alt.=144.505981m. Speed=0.036000m/h.</desc>
<speed>0.010000</speed>
</trkpt>
<trkpt lat="55.726894" lon="26.550489">
<ele>144.505981</ele>
<time>2010-07-18T12:43:56Z</time>
<desc>lat.=55.726894, lon.=26.550489, Alt.=144.505981m. Speed=0.036000m/h.</desc>
<speed>0.010000</speed>
</trkpt>
<trkpt lat="55.726894" lon="26.550489">
<ele>144.513794</ele>
<time>2010-07-18T12:43:57Z</time>
<desc>lat.=55.726894, lon.=26.550489, Alt.=144.513794m. Speed=0.036000m/h.</desc>
<speed>0.010000</speed>
</trkpt>
<trkpt lat="55.726894" lon="26.550489">
<ele>144.513794</ele>
<time>2010-07-18T12:43:58Z</time>
<desc>lat.=55.726894, lon.=26.550489, Alt.=144.513794m. Speed=0.000000m/h.</desc>
<speed>0.000000</speed>
</trkpt>
<trkpt lat="55.726894" lon="26.550489">
<ele>144.517700</ele>
<time>2010-07-18T12:43:59Z</time>
<desc>lat.=55.726894, lon.=26.550489, Alt.=144.517700m. Speed=0.036000m/h.</desc>
<speed>0.010000</speed>
</trkpt>
<trkpt lat="55.726894" lon="26.550489">
<ele>144.521606</ele>
<time>2010-07-18T12:44:00Z</time>
<desc>lat.=55.726894, lon.=26.550489, Alt.=144.521606m. Speed=0.000000m/h.</desc>
<speed>0.000000</speed>
</trkpt>
<trkpt lat="55.726894" lon="26.550489">
<ele>144.521606</ele>
<time>2010-07-18T12:44:01Z</time>
<desc>lat.=55.726894, lon.=26.550489, Alt.=144.521606m. Speed=0.036000m/h.</desc>
<speed>0.010000</speed>
</trkpt>
<trkpt lat="55.726894" lon="26.550489">
<ele>144.521606</ele>
<time>2010-07-18T12:44:02Z</time>
<desc>lat.=55.726894, lon.=26.550489, Alt.=144.521606m. Speed=0.000000m/h.</desc>
<speed>0.000000</speed>
</trkpt>
<trkpt lat="55.726894" lon="26.550489">
<ele>144.521606</ele>
<time>2010-07-18T12:44:03Z</time>
<desc>lat.=55.726894, lon.=26.550489, Alt.=144.521606m. Speed=0.000000m/h.</desc>
<speed>0.000000</speed>
</trkpt>
<trkpt lat="55.726894" lon="26.550489">
<ele>144.521606</ele>
<time>2010-07-18T12:44:04Z</time>
<desc>lat.=55.726894, lon.=26.550489, Alt.=144.521606m. Speed=0.000000m/h.</desc>
<speed>0.000000</speed>
</trkpt>
<trkpt lat="55.726894" lon="26.550489">
<ele>144.525513</ele>
<time>2010-07-18T12:44:05Z</time>
<desc>lat.=55.726894, lon.=26.550489, Alt.=144.525513m. Speed=0.000000m/h.</desc>
<speed>0.000000</speed>
</trkpt>
<trkpt lat="55.726894" lon="26.550489">
<ele>144.529419</ele>
<time>2010-07-18T12:44:06Z</time>
<desc>lat.=55.726894, lon.=26.550489, Alt.=144.529419m. Speed=0.000000m/h.</desc>
<speed>0.000000</speed>
</trkpt>
<trkpt lat="55.726894" lon="26.550489">
<ele>144.533325</ele>
<time>2010-07-18T12:44:07Z</time>
<desc>lat.=55.726894, lon.=26.550489, Alt.=144.533325m. Speed=0.000000m/h.</desc>
<speed>0.000000</speed>
</trkpt>
<trkpt lat="55.726894" lon="26.550491">
<ele>144.533325</ele>
<time>2010-07-18T12:44:08Z</time>
<desc>lat.=55.726894, lon.=26.550491, Alt.=144.533325m. Speed=0.000000m/h.</desc>
<speed>0.000000</speed>
</trkpt>
<trkpt lat="55.726894" lon="26.550491">
<ele>144.537231</ele>
<time>2010-07-18T12:44:09Z</time>
<desc>lat.=55.726894, lon.=26.550491, Alt.=144.537231m. Speed=0.000000m/h.</desc>
<speed>0.000000</speed>
</trkpt>
<trkpt lat="55.726894" lon="26.550491">
<ele>144.537231</ele>
<time>2010-07-18T12:44:10Z</time>
<desc>lat.=55.726894, lon.=26.550491, Alt.=144.537231m. Speed=0.000000m/h.</desc>
<speed>0.000000</speed>
</trkpt>
<trkpt lat="55.726894" lon="26.550491">
<ele>144.541138</ele>
<time>2010-07-18T12:44:11Z</time>
<desc>lat.=55.726894, lon.=26.550491, Alt.=144.541138m. Speed=0.036000m/h.</desc>
<speed>0.010000</speed>
</trkpt>
<trkpt lat="55.726894" lon="26.550491">
<ele>144.541138</ele>
<time>2010-07-18T12:44:12Z</time>
<desc>lat.=55.726894, lon.=26.550491, Alt.=144.541138m. Speed=0.000000m/h.</desc>
<speed>0.000000</speed>
</trkpt>
<trkpt lat="55.726894" lon="26.550491">
<ele>144.545044</ele>
<time>2010-07-18T12:44:13Z</time>
<desc>lat.=55.726894, lon.=26.550491, Alt.=144.545044m. Speed=0.000000m/h.</desc>
<speed>0.000000</speed>
</trkpt>
<trkpt lat="55.726894" lon="26.550491">
<ele>144.548950</ele>
<time>2010-07-18T12:44:14Z</time>
<desc>lat.=55.726894, lon.=26.550491, Alt.=144.548950m. Speed=0.000000m/h.</desc>
<speed>0.000000</speed>
</trkpt>
<trkpt lat="55.726894" lon="26.550491">
<ele>144.548950</ele>
<time>2010-07-18T12:44:15Z</time>
<desc>lat.=55.726894, lon.=26.550491, Alt.=144.548950m. Speed=0.000000m/h.</desc>
<speed>0.000000</speed>
</trkpt>
<trkpt lat="55.726894" lon="26.550491">
<ele>144.548950</ele>
<time>2010-07-18T12:44:16Z</time>
<desc>lat.=55.726894, lon.=26.550491, Alt.=144.548950m. Speed=0.000000m/h.</desc>
<speed>0.000000</speed>
</trkpt>
<trkpt lat="55.726894" lon="26.550491">
<ele>144.548950</ele>
<time>2010-07-18T12:44:17Z</time>
<desc>lat.=55.726894, lon.=26.550491, Alt.=144.548950m. Speed=0.000000m/h.</desc>
<speed>0.000000</speed>
</trkpt>
<trkpt lat="55.726894" lon="26.550491">
<ele>144.552856</ele>
<time>2010-07-18T12:44:18Z</time>
<desc>lat.=55.726894, lon.=26.550491, Alt.=144.552856m. Speed=0.000000m/h.</desc>
<speed>0.000000</speed>
</trkpt>
<trkpt lat="55.726894" lon="26.550491">
<ele>144.552856</ele>
<time>2010-07-18T12:44:19Z</time>
<desc>lat.=55.726894, lon.=26.550491, Alt.=144.552856m. Speed=0.000000m/h.</desc>
<speed>0.000000</speed>
</trkpt>
<trkpt lat="55.726894" lon="26.550491">
<ele>144.552856</ele>
<time>2010-07-18T12:44:20Z</time>
<desc>lat.=55.726894, lon.=26.550491, Alt.=144.552856m. Speed=0.000000m/h.</desc>
<speed>0.000000</speed>
</trkpt>
<trkpt lat="55.726894" lon="26.550491">
<ele>144.552856</ele>
<time>2010-07-18T12:44:21Z</time>
<desc>lat.=55.726894, lon.=26.550491, Alt.=144.552856m. Speed=0.000000m/h.</desc>
<speed>0.000000</speed>
</trkpt>
<trkpt lat="55.726894" lon="26.550491">
<ele>144.556763</ele>
<time>2010-07-18T12:44:22Z</time>
<desc>lat.=55.726894, lon.=26.550491, Alt.=144.556763m. Speed=0.000000m/h.</desc>
<speed>0.000000</speed>
</trkpt>
<trkpt lat="55.726894" lon="26.550491">
<ele>144.556763</ele>
<time>2010-07-18T12:44:23Z</time>
<desc>lat.=55.726894, lon.=26.550491, Alt.=144.556763m. Speed=0.000000m/h.</desc>
<speed>0.000000</speed>
</trkpt>
<trkpt lat="55.726894" lon="26.550491">
<ele>144.556763</ele>
<time>2010-07-18T12:44:24Z</time>
<desc>lat.=55.726894, lon.=26.550491, Alt.=144.556763m. Speed=0.036000m/h.</desc>
<speed>0.010000</speed>
</trkpt>
<trkpt lat="55.726894" lon="26.550491">
<ele>144.560669</ele>
<time>2010-07-18T12:44:25Z</time>
<desc>lat.=55.726894, lon.=26.550491, Alt.=144.560669m. Speed=0.000000m/h.</desc>
<speed>0.000000</speed>
</trkpt>
<trkpt lat="55.726894" lon="26.550491">
<ele>144.560669</ele>
<time>2010-07-18T12:44:26Z</time>
<desc>lat.=55.726894, lon.=26.550491, Alt.=144.560669m. Speed=0.000000m/h.</desc>
<speed>0.000000</speed>
</trkpt>
<trkpt lat="55.726894" lon="26.550491">
<ele>144.560669</ele>
<time>2010-07-18T12:44:27Z</time>
<desc>lat.=55.726894, lon.=26.550491, Alt.=144.560669m. Speed=0.000000m/h.</desc>
<speed>0.000000</speed>
</trkpt>
<trkpt lat="55.726894" lon="26.550491">
<ele>144.560669</ele>
<time>2010-07-18T12:44:28Z</time>
<desc>lat.=55.726894, lon.=26.550491, Alt.=144.560669m. Speed=0.000000m/h.</desc>
<speed>0.000000</speed>
</trkpt>
<trkpt lat="55.726894" lon="26.550491">
<ele>144.564575</ele>
<time>2010-07-18T12:44:29Z</time>
<desc>lat.=55.726894, lon.=26.550491, Alt.=144.564575m. Speed=0.000000m/h.</desc>
<speed>0.000000</speed>
</trkpt>
<trkpt lat="55.726894" lon="26.550491">
<ele>144.564575</ele>
<time>2010-07-18T12:44:30Z</time>
<desc>lat.=55.726894, lon.=26.550491, Alt.=144.564575m. Speed=0.000000m/h.</desc>
<speed>0.000000</speed>
</trkpt>
<trkpt lat="55.726894" lon="26.550491">
<ele>144.564575</ele>
<time>2010-07-18T12:44:31Z</time>
<desc>lat.=55.726894, lon.=26.550491, Alt.=144.564575m. Speed=0.000000m/h.</desc>
<speed>0.000000</speed>
</trkpt>
<trkpt lat="55.726894" lon="26.550491">
<ele>144.564575</ele>
<time>2010-07-18T12:44:32Z</time>
<desc>lat.=55.726894, lon.=26.550491, Alt.=144.564575m. Speed=0.000000m/h.</desc>
<speed>0.000000</speed>
</trkpt>
<trkpt lat="55.726894" lon="26.550491">
<ele>144.564575</ele>
<time>2010-07-18T12:44:33Z</time>
<desc>lat.=55.726894, lon.=26.550491, Alt.=144.564575m. Speed=0.000000m/h.</desc>
<speed>0.000000</speed>
</trkpt>
<trkpt lat="55.726894" lon="26.550491">
<ele>144.560669</ele>
<time>2010-07-18T12:44:34Z</time>
<desc>lat.=55.726894, lon.=26.550491, Alt.=144.560669m. Speed=0.000000m/h.</desc>
<speed>0.000000</speed>
</trkpt>
<trkpt lat="55.726894" lon="26.550491">
<ele>144.564575</ele>
<time>2010-07-18T12:44:35Z</time>
<desc>lat.=55.726894, lon.=26.550491, Alt.=144.564575m. Speed=0.036000m/h.</desc>
<speed>0.010000</speed>
</trkpt>
<trkpt lat="55.726894" lon="26.550491">
<ele>144.560669</ele>
<time>2010-07-18T12:44:36Z</time>
<desc>lat.=55.726894, lon.=26.550491, Alt.=144.560669m. Speed=0.000000m/h.</desc>
<speed>0.000000</speed>
</trkpt>
<trkpt lat="55.726894" lon="26.550491">
<ele>144.564575</ele>
<time>2010-07-18T12:44:37Z</time>
<desc>lat.=55.726894, lon.=26.550491, Alt.=144.564575m. Speed=0.000000m/h.</desc>
<speed>0.000000</speed>
</trkpt>
<trkpt lat="55.726894" lon="26.550491">
<ele>144.564575</ele>
<time>2010-07-18T12:44:38Z</time>
<desc>lat.=55.726894, lon.=26.550491, Alt.=144.564575m. Speed=0.000000m/h.</desc>
<speed>0.000000</speed>
</trkpt>
<trkpt lat="55.726894" lon="26.550491">
<ele>144.564575</ele>
<time>2010-07-18T12:44:39Z</time>
<desc>lat.=55.726894, lon.=26.550491, Alt.=144.564575m. Speed=0.000000m/h.</desc>
<speed>0.000000</speed>
</trkpt>
<trkpt lat="55.726894" lon="26.550491">
<ele>144.564575</ele>
<time>2010-07-18T12:44:40Z</time>
<desc>lat.=55.726894, lon.=26.550491, Alt.=144.564575m. Speed=0.000000m/h.</desc>
<speed>0.000000</speed>
</trkpt>
<trkpt lat="55.726894" lon="26.550491">
<ele>144.564575</ele>
<time>2010-07-18T12:44:41Z</time>
<desc>lat.=55.726894, lon.=26.550491, Alt.=144.564575m. Speed=0.000000m/h.</desc>
<speed>0.000000</speed>
</trkpt>
<trkpt lat="55.726894" lon="26.550491">
<ele>144.564575</ele>
<time>2010-07-18T12:44:42Z</time>
<desc>lat.=55.726894, lon.=26.550491, Alt.=144.564575m. Speed=0.000000m/h.</desc>
<speed>0.000000</speed>
</trkpt>
<trkpt lat="55.726894" lon="26.550491">
<ele>144.564575</ele>
<time>2010-07-18T12:44:43Z</time>
<desc>lat.=55.726894, lon.=26.550491, Alt.=144.564575m. Speed=0.000000m/h.</desc>
<speed>0.000000</speed>
</trkpt>
<trkpt lat="55.726894" lon="26.550491">
<ele>144.564575</ele>
<time>2010-07-18T12:44:44Z</time>
<desc>lat.=55.726894, lon.=26.550491, Alt.=144.564575m. Speed=0.000000m/h.</desc>
<speed>0.000000</speed>
</trkpt>
<trkpt lat="55.726894" lon="26.550491">
<ele>144.568481</ele>
<time>2010-07-18T12:44:45Z</time>
<desc>lat.=55.726894, lon.=26.550491, Alt.=144.568481m. Speed=0.000000m/h.</desc>
<speed>0.000000</speed>
</trkpt>
<trkpt lat="55.726894" lon="26.550491">
<ele>144.568481</ele>
<time>2010-07-18T12:44:46Z</time>
<desc>lat.=55.726894, lon.=26.550491, Alt.=144.568481m. Speed=0.000000m/h.</desc>
<speed>0.000000</speed>
</trkpt>
<trkpt lat="55.726894" lon="26.550491">
<ele>144.564575</ele>
<time>2010-07-18T12:44:47Z</time>
<desc>lat.=55.726894, lon.=26.550491, Alt.=144.564575m. Speed=0.000000m/h.</desc>
<speed>0.000000</speed>
</trkpt>
<trkpt lat="55.726894" lon="26.550491">
<ele>144.564575</ele>
<time>2010-07-18T12:44:48Z</time>
<desc>lat.=55.726894, lon.=26.550491, Alt.=144.564575m. Speed=0.000000m/h.</desc>
<speed>0.000000</speed>
</trkpt>
<trkpt lat="55.726894" lon="26.550491">
<ele>144.560669</ele>
<time>2010-07-18T12:44:49Z</time>
<desc>lat.=55.726894, lon.=26.550491, Alt.=144.560669m. Speed=0.000000m/h.</desc>
<speed>0.000000</speed>
</trkpt>
<trkpt lat="55.726894" lon="26.550491">
<ele>144.560669</ele>
<time>2010-07-18T12:44:50Z</time>
<desc>lat.=55.726894, lon.=26.550491, Alt.=144.560669m. Speed=0.036000m/h.</desc>
<speed>0.010000</speed>
</trkpt>
<trkpt lat="55.726894" lon="26.550491">
<ele>144.564575</ele>
<time>2010-07-18T12:44:51Z</time>
<desc>lat.=55.726894, lon.=26.550491, Alt.=144.564575m. Speed=0.000000m/h.</desc>
<speed>0.000000</speed>
</trkpt>
<trkpt lat="55.726894" lon="26.550491">
<ele>144.560669</ele>
<time>2010-07-18T12:44:52Z</time>
<desc>lat.=55.726894, lon.=26.550491, Alt.=144.560669m. Speed=0.000000m/h.</desc>
<speed>0.000000</speed>
</trkpt>
<trkpt lat="55.726894" lon="26.550491">
<ele>144.564575</ele>
<time>2010-07-18T12:44:53Z</time>
<desc>lat.=55.726894, lon.=26.550491, Alt.=144.564575m. Speed=0.000000m/h.</desc>
<speed>0.000000</speed>
</trkpt>
<trkpt lat="55.726894" lon="26.550491">
<ele>144.564575</ele>
<time>2010-07-18T12:44:54Z</time>
<desc>lat.=55.726894, lon.=26.550491, Alt.=144.564575m. Speed=0.000000m/h.</desc>
<speed>0.000000</speed>
</trkpt>
<trkpt lat="55.726894" lon="26.550491">
<ele>144.564575</ele>
<time>2010-07-18T12:44:55Z</time>
<desc>lat.=55.726894, lon.=26.550491, Alt.=144.564575m. Speed=0.000000m/h.</desc>
<speed>0.000000</speed>
</trkpt>
<trkpt lat="55.726894" lon="26.550491">
<ele>144.564575</ele>
<time>2010-07-18T12:44:56Z</time>
<desc>lat.=55.726894, lon.=26.550491, Alt.=144.564575m. Speed=0.000000m/h.</desc>
<speed>0.000000</speed>
</trkpt>
<trkpt lat="55.726894" lon="26.550491">
<ele>144.560669</ele>
<time>2010-07-18T12:44:57Z</time>
<desc>lat.=55.726894, lon.=26.550491, Alt.=144.560669m. Speed=0.000000m/h.</desc>
<speed>0.000000</speed>
</trkpt>
<trkpt lat="55.726894" lon="26.550491">
<ele>144.564575</ele>
<time>2010-07-18T12:44:58Z</time>
<desc>lat.=55.726894, lon.=26.550491, Alt.=144.564575m. Speed=0.000000m/h.</desc>
<speed>0.000000</speed>
</trkpt>
<trkpt lat="55.726894" lon="26.550491">
<ele>144.564575</ele>
<time>2010-07-18T12:44:59Z</time>
<desc>lat.=55.726894, lon.=26.550491, Alt.=144.564575m. Speed=0.000000m/h.</desc>
<speed>0.000000</speed>
</trkpt>
<trkpt lat="55.726894" lon="26.550491">
<ele>144.564575</ele>
<time>2010-07-18T12:45:00Z</time>
<desc>lat.=55.726894, lon.=26.550491, Alt.=144.564575m. Speed=0.000000m/h.</desc>
<speed>0.000000</speed>
</trkpt>
<trkpt lat="55.726894" lon="26.550491">
<ele>144.564575</ele>
<time>2010-07-18T12:45:01Z</time>
<desc>lat.=55.726894, lon.=26.550491, Alt.=144.564575m. Speed=0.000000m/h.</desc>
<speed>0.000000</speed>
</trkpt>
<trkpt lat="55.726894" lon="26.550491">
<ele>144.564575</ele>
<time>2010-07-18T12:45:02Z</time>
<desc>lat.=55.726894, lon.=26.550491, Alt.=144.564575m. Speed=0.000000m/h.</desc>
<speed>0.000000</speed>
</trkpt>
<trkpt lat="55.726894" lon="26.550491">
<ele>144.568481</ele>
<time>2010-07-18T12:45:03Z</time>
<desc>lat.=55.726894, lon.=26.550491, Alt.=144.568481m. Speed=0.000000m/h.</desc>
<speed>0.000000</speed>
</trkpt>
<trkpt lat="55.726894" lon="26.550491">
<ele>144.572388</ele>
<time>2010-07-18T12:45:04Z</time>
<desc>lat.=55.726894, lon.=26.550491, Alt.=144.572388m. Speed=0.000000m/h.</desc>
<speed>0.000000</speed>
</trkpt>
<trkpt lat="55.726894" lon="26.550491">
<ele>144.568481</ele>
<time>2010-07-18T12:45:05Z</time>
<desc>lat.=55.726894, lon.=26.550491, Alt.=144.568481m. Speed=0.000000m/h.</desc>
<speed>0.000000</speed>
</trkpt>
<trkpt lat="55.726894" lon="26.550491">
<ele>144.572388</ele>
<time>2010-07-18T12:45:06Z</time>
<desc>lat.=55.726894, lon.=26.550491, Alt.=144.572388m. Speed=0.036000m/h.</desc>
<speed>0.010000</speed>
</trkpt>
<trkpt lat="55.726894" lon="26.550491">
<ele>144.576294</ele>
<time>2010-07-18T12:45:07Z</time>
<desc>lat.=55.726894, lon.=26.550491, Alt.=144.576294m. Speed=0.000000m/h.</desc>
<speed>0.000000</speed>
</trkpt>
<trkpt lat="55.726894" lon="26.550491">
<ele>144.576294</ele>
<time>2010-07-18T12:45:08Z</time>
<desc>lat.=55.726894, lon.=26.550491, Alt.=144.576294m. Speed=0.000000m/h.</desc>
<speed>0.000000</speed>
</trkpt>
<trkpt lat="55.726894" lon="26.550491">
<ele>144.576294</ele>
<time>2010-07-18T12:45:09Z</time>
<desc>lat.=55.726894, lon.=26.550491, Alt.=144.576294m. Speed=0.000000m/h.</desc>
<speed>0.000000</speed>
</trkpt>
<trkpt lat="55.726894" lon="26.550491">
<ele>144.576294</ele>
<time>2010-07-18T12:45:10Z</time>
<desc>lat.=55.726894, lon.=26.550491, Alt.=144.576294m. Speed=0.000000m/h.</desc>
<speed>0.000000</speed>
</trkpt>
<trkpt lat="55.726894" lon="26.550491">
<ele>144.576294</ele>
<time>2010-07-18T12:45:11Z</time>
<desc>lat.=55.726894, lon.=26.550491, Alt.=144.576294m. Speed=0.000000m/h.</desc>
<speed>0.000000</speed>
</trkpt>
<trkpt lat="55.726894" lon="26.550491">
<ele>144.580200</ele>
<time>2010-07-18T12:45:12Z</time>
<desc>lat.=55.726894, lon.=26.550491, Alt.=144.580200m. Speed=0.000000m/h.</desc>
<speed>0.000000</speed>
</trkpt>
<trkpt lat="55.726894" lon="26.550491">
<ele>144.576294</ele>
<time>2010-07-18T12:45:13Z</time>
<desc>lat.=55.726894, lon.=26.550491, Alt.=144.576294m. Speed=0.000000m/h.</desc>
<speed>0.000000</speed>
</trkpt>
<trkpt lat="55.726894" lon="26.550491">
<ele>144.576294</ele>
<time>2010-07-18T12:45:14Z</time>
<desc>lat.=55.726894, lon.=26.550491, Alt.=144.576294m. Speed=0.000000m/h.</desc>
<speed>0.000000</speed>
</trkpt>
<trkpt lat="55.726894" lon="26.550493">
<ele>144.576294</ele>
<time>2010-07-18T12:45:15Z</time>
<desc>lat.=55.726894, lon.=26.550493, Alt.=144.576294m. Speed=0.000000m/h.</desc>
<speed>0.000000</speed>
</trkpt>
<trkpt lat="55.726894" lon="26.550493">
<ele>144.576294</ele>
<time>2010-07-18T12:45:16Z</time>
<desc>lat.=55.726894, lon.=26.550493, Alt.=144.576294m. Speed=0.000000m/h.</desc>
<speed>0.000000</speed>
</trkpt>
<trkpt lat="55.726894" lon="26.550493">
<ele>144.572388</ele>
<time>2010-07-18T12:45:17Z</time>
<desc>lat.=55.726894, lon.=26.550493, Alt.=144.572388m. Speed=0.000000m/h.</desc>
<speed>0.000000</speed>
</trkpt>
<trkpt lat="55.726894" lon="26.550493">
<ele>144.576294</ele>
<time>2010-07-18T12:45:18Z</time>
<desc>lat.=55.726894, lon.=26.550493, Alt.=144.576294m. Speed=0.000000m/h.</desc>
<speed>0.000000</speed>
</trkpt>
<trkpt lat="55.726894" lon="26.550493">
<ele>144.576294</ele>
<time>2010-07-18T12:45:19Z</time>
<desc>lat.=55.726894, lon.=26.550493, Alt.=144.576294m. Speed=0.000000m/h.</desc>
<speed>0.000000</speed>
</trkpt>
<trkpt lat="55.726894" lon="26.550493">
<ele>144.576294</ele>
<time>2010-07-18T12:45:20Z</time>
<desc>lat.=55.726894, lon.=26.550493, Alt.=144.576294m. Speed=0.000000m/h.</desc>
<speed>0.000000</speed>
</trkpt>
<trkpt lat="55.726894" lon="26.550493">
<ele>144.580200</ele>
<time>2010-07-18T12:45:21Z</time>
<desc>lat.=55.726894, lon.=26.550493, Alt.=144.580200m. Speed=0.000000m/h.</desc>
<speed>0.000000</speed>
</trkpt>
<trkpt lat="55.726894" lon="26.550493">
<ele>144.576294</ele>
<time>2010-07-18T12:45:22Z</time>
<desc>lat.=55.726894, lon.=26.550493, Alt.=144.576294m. Speed=0.000000m/h.</desc>
<speed>0.000000</speed>
</trkpt>
<trkpt lat="55.726894" lon="26.550493">
<ele>144.576294</ele>
<time>2010-07-18T12:45:23Z</time>
<desc>lat.=55.726894, lon.=26.550493, Alt.=144.576294m. Speed=0.000000m/h.</desc>
<speed>0.000000</speed>
</trkpt>
<trkpt lat="55.726894" lon="26.550493">
<ele>144.580200</ele>
<time>2010-07-18T12:45:24Z</time>
<desc>lat.=55.726894, lon.=26.550493, Alt.=144.580200m. Speed=0.000000m/h.</desc>
<speed>0.000000</speed>
</trkpt>
<trkpt lat="55.726894" lon="26.550493">
<ele>144.580200</ele>
<time>2010-07-18T12:45:25Z</time>
<desc>lat.=55.726894, lon.=26.550493, Alt.=144.580200m. Speed=0.000000m/h.</desc>
<speed>0.000000</speed>
</trkpt>
<trkpt lat="55.726894" lon="26.550493">
<ele>144.580200</ele>
<time>2010-07-18T12:45:26Z</time>
<desc>lat.=55.726894, lon.=26.550493, Alt.=144.580200m. Speed=0.000000m/h.</desc>
<speed>0.000000</speed>
</trkpt>
<trkpt lat="55.726894" lon="26.550493">
<ele>144.584106</ele>
<time>2010-07-18T12:45:27Z</time>
<desc>lat.=55.726894, lon.=26.550493, Alt.=144.584106m. Speed=0.000000m/h.</desc>
<speed>0.000000</speed>
</trkpt>
<trkpt lat="55.726894" lon="26.550493">
<ele>144.584106</ele>
<time>2010-07-18T12:45:28Z</time>
<desc>lat.=55.726894, lon.=26.550493, Alt.=144.584106m. Speed=0.000000m/h.</desc>
<speed>0.000000</speed>
</trkpt>
<trkpt lat="55.726894" lon="26.550493">
<ele>144.584106</ele>
<time>2010-07-18T12:45:29Z</time>
<desc>lat.=55.726894, lon.=26.550493, Alt.=144.584106m. Speed=0.000000m/h.</desc>
<speed>0.000000</speed>
</trkpt>
<trkpt lat="55.726894" lon="26.550493">
<ele>144.588013</ele>
<time>2010-07-18T12:45:30Z</time>
<desc>lat.=55.726894, lon.=26.550493, Alt.=144.588013m. Speed=0.000000m/h.</desc>
<speed>0.000000</speed>
</trkpt>
<trkpt lat="55.726894" lon="26.550493">
<ele>144.588013</ele>
<time>2010-07-18T12:45:31Z</time>
<desc>lat.=55.726894, lon.=26.550493, Alt.=144.588013m. Speed=0.000000m/h.</desc>
<speed>0.000000</speed>
</trkpt>
<trkpt lat="55.726894" lon="26.550493">
<ele>144.588013</ele>
<time>2010-07-18T12:45:32Z</time>
<desc>lat.=55.726894, lon.=26.550493, Alt.=144.588013m. Speed=0.000000m/h.</desc>
<speed>0.000000</speed>
</trkpt>
<trkpt lat="55.726894" lon="26.550493">
<ele>144.591919</ele>
<time>2010-07-18T12:45:33Z</time>
<desc>lat.=55.726894, lon.=26.550493, Alt.=144.591919m. Speed=0.000000m/h.</desc>
<speed>0.000000</speed>
</trkpt>
<trkpt lat="55.726894" lon="26.550493">
<ele>144.591919</ele>
<time>2010-07-18T12:45:34Z</time>
<desc>lat.=55.726894, lon.=26.550493, Alt.=144.591919m. Speed=0.000000m/h.</desc>
<speed>0.000000</speed>
</trkpt>
<trkpt lat="55.726894" lon="26.550493">
<ele>144.591919</ele>
<time>2010-07-18T12:45:35Z</time>
<desc>lat.=55.726894, lon.=26.550493, Alt.=144.591919m. Speed=0.000000m/h.</desc>
<speed>0.000000</speed>
</trkpt>
<trkpt lat="55.726894" lon="26.550493">
<ele>144.595825</ele>
<time>2010-07-18T12:45:36Z</time>
<desc>lat.=55.726894, lon.=26.550493, Alt.=144.595825m. Speed=0.000000m/h.</desc>
<speed>0.000000</speed>
</trkpt>
<trkpt lat="55.726894" lon="26.550493">
<ele>144.595825</ele>
<time>2010-07-18T12:45:37Z</time>
<desc>lat.=55.726894, lon.=26.550493, Alt.=144.595825m. Speed=0.036000m/h.</desc>
<speed>0.010000</speed>
</trkpt>
<trkpt lat="55.726894" lon="26.550493">
<ele>144.595825</ele>
<time>2010-07-18T12:45:38Z</time>
<desc>lat.=55.726894, lon.=26.550493, Alt.=144.595825m. Speed=0.000000m/h.</desc>
<speed>0.000000</speed>
</trkpt>
<trkpt lat="55.726894" lon="26.550493">
<ele>144.599731</ele>
<time>2010-07-18T12:45:39Z</time>
<desc>lat.=55.726894, lon.=26.550493, Alt.=144.599731m. Speed=0.000000m/h.</desc>
<speed>0.000000</speed>
</trkpt>
<trkpt lat="55.726894" lon="26.550493">
<ele>144.599731</ele>
<time>2010-07-18T12:45:40Z</time>
<desc>lat.=55.726894, lon.=26.550493, Alt.=144.599731m. Speed=0.000000m/h.</desc>
<speed>0.000000</speed>
</trkpt>
<trkpt lat="55.726894" lon="26.550493">
<ele>144.599731</ele>
<time>2010-07-18T12:45:41Z</time>
<desc>lat.=55.726894, lon.=26.550493, Alt.=144.599731m. Speed=0.000000m/h.</desc>
<speed>0.000000</speed>
</trkpt>
<trkpt lat="55.726894" lon="26.550493">
<ele>144.607544</ele>
<time>2010-07-18T12:45:42Z</time>
<desc>lat.=55.726894, lon.=26.550493, Alt.=144.607544m. Speed=0.000000m/h.</desc>
<speed>0.000000</speed>
</trkpt>
<trkpt lat="55.726894" lon="26.550493">
<ele>144.607544</ele>
<time>2010-07-18T12:45:43Z</time>
<desc>lat.=55.726894, lon.=26.550493, Alt.=144.607544m. Speed=0.000000m/h.</desc>
<speed>0.000000</speed>
</trkpt>
<trkpt lat="55.726894" lon="26.550493">
<ele>144.607544</ele>
<time>2010-07-18T12:45:44Z</time>
<desc>lat.=55.726894, lon.=26.550493, Alt.=144.607544m. Speed=0.000000m/h.</desc>
<speed>0.000000</speed>
</trkpt>
<trkpt lat="55.726894" lon="26.550493">
<ele>144.611450</ele>
<time>2010-07-18T12:45:45Z</time>
<desc>lat.=55.726894, lon.=26.550493, Alt.=144.611450m. Speed=0.000000m/h.</desc>
<speed>0.000000</speed>
</trkpt>
<trkpt lat="55.726894" lon="26.550493">
<ele>144.615356</ele>
<time>2010-07-18T12:45:46Z</time>
<desc>lat.=55.726894, lon.=26.550493, Alt.=144.615356m. Speed=0.000000m/h.</desc>
<speed>0.000000</speed>
</trkpt>
<trkpt lat="55.726894" lon="26.550493">
<ele>144.615356</ele>
<time>2010-07-18T12:45:47Z</time>
<desc>lat.=55.726894, lon.=26.550493, Alt.=144.615356m. Speed=0.000000m/h.</desc>
<speed>0.000000</speed>
</trkpt>
<trkpt lat="55.726894" lon="26.550493">
<ele>144.619263</ele>
<time>2010-07-18T12:45:48Z</time>
<desc>lat.=55.726894, lon.=26.550493, Alt.=144.619263m. Speed=0.000000m/h.</desc>
<speed>0.000000</speed>
</trkpt>
<trkpt lat="55.726894" lon="26.550493">
<ele>144.623169</ele>
<time>2010-07-18T12:45:49Z</time>
<desc>lat.=55.726894, lon.=26.550493, Alt.=144.623169m. Speed=0.000000m/h.</desc>
<speed>0.000000</speed>
</trkpt>
<trkpt lat="55.726894" lon="26.550493">
<ele>144.627075</ele>
<time>2010-07-18T12:45:50Z</time>
<desc>lat.=55.726894, lon.=26.550493, Alt.=144.627075m. Speed=0.036000m/h.</desc>
<speed>0.010000</speed>
</trkpt>
<trkpt lat="55.726894" lon="26.550493">
<ele>144.627075</ele>
<time>2010-07-18T12:45:51Z</time>
<desc>lat.=55.726894, lon.=26.550493, Alt.=144.627075m. Speed=0.000000m/h.</desc>
<speed>0.000000</speed>
</trkpt>
<trkpt lat="55.726894" lon="26.550493">
<ele>144.630981</ele>
<time>2010-07-18T12:45:52Z</time>
<desc>lat.=55.726894, lon.=26.550493, Alt.=144.630981m. Speed=0.000000m/h.</desc>
<speed>0.000000</speed>
</trkpt>
<trkpt lat="55.726894" lon="26.550493">
<ele>144.630981</ele>
<time>2010-07-18T12:45:53Z</time>
<desc>lat.=55.726894, lon.=26.550493, Alt.=144.630981m. Speed=0.000000m/h.</desc>
<speed>0.000000</speed>
</trkpt>
<trkpt lat="55.726894" lon="26.550493">
<ele>144.627075</ele>
<time>2010-07-18T12:45:54Z</time>
<desc>lat.=55.726894, lon.=26.550493, Alt.=144.627075m. Speed=0.000000m/h.</desc>
<speed>0.000000</speed>
</trkpt>
<trkpt lat="55.726894" lon="26.550493">
<ele>144.630981</ele>
<time>2010-07-18T12:45:55Z</time>
<desc>lat.=55.726894, lon.=26.550493, Alt.=144.630981m. Speed=0.036000m/h.</desc>
<speed>0.010000</speed>
</trkpt>
<trkpt lat="55.726894" lon="26.550493">
<ele>144.630981</ele>
<time>2010-07-18T12:45:56Z</time>
<desc>lat.=55.726894, lon.=26.550493, Alt.=144.630981m. Speed=0.000000m/h.</desc>
<speed>0.000000</speed>
</trkpt>
<trkpt lat="55.726894" lon="26.550493">
<ele>144.627075</ele>
<time>2010-07-18T12:45:57Z</time>
<desc>lat.=55.726894, lon.=26.550493, Alt.=144.627075m. Speed=0.000000m/h.</desc>
<speed>0.000000</speed>
</trkpt>
<trkpt lat="55.726894" lon="26.550493">
<ele>144.627075</ele>
<time>2010-07-18T12:45:58Z</time>
<desc>lat.=55.726894, lon.=26.550493, Alt.=144.627075m. Speed=0.000000m/h.</desc>
<speed>0.000000</speed>
</trkpt>
<trkpt lat="55.726894" lon="26.550493">
<ele>144.630981</ele>
<time>2010-07-18T12:45:59Z</time>
<desc>lat.=55.726894, lon.=26.550493, Alt.=144.630981m. Speed=0.072000m/h.</desc>
<speed>0.020000</speed>
</trkpt>
<trkpt lat="55.726894" lon="26.550493">
<ele>144.627075</ele>
<time>2010-07-18T12:46:00Z</time>
<desc>lat.=55.726894, lon.=26.550493, Alt.=144.627075m. Speed=0.036000m/h.</desc>
<speed>0.010000</speed>
</trkpt>
<trkpt lat="55.726894" lon="26.550493">
<ele>144.627075</ele>
<time>2010-07-18T12:46:01Z</time>
<desc>lat.=55.726894, lon.=26.550493, Alt.=144.627075m. Speed=0.000000m/h.</desc>
<speed>0.000000</speed>
</trkpt>
<trkpt lat="55.726894" lon="26.550493">
<ele>144.627075</ele>
<time>2010-07-18T12:46:02Z</time>
<desc>lat.=55.726894, lon.=26.550493, Alt.=144.627075m. Speed=0.000000m/h.</desc>
<speed>0.000000</speed>
</trkpt>
<trkpt lat="55.726894" lon="26.550493">
<ele>144.627075</ele>
<time>2010-07-18T12:46:03Z</time>
<desc>lat.=55.726894, lon.=26.550493, Alt.=144.627075m. Speed=0.108000m/h.</desc>
<speed>0.030000</speed>
</trkpt>
<trkpt lat="55.726894" lon="26.550493">
<ele>144.623169</ele>
<time>2010-07-18T12:46:04Z</time>
<desc>lat.=55.726894, lon.=26.550493, Alt.=144.623169m. Speed=0.684000m/h.</desc>
<speed>0.190000</speed>
</trkpt>
<trkpt lat="55.726894" lon="26.550493">
<ele>144.615356</ele>
<time>2010-07-18T12:46:05Z</time>
<desc>lat.=55.726894, lon.=26.550493, Alt.=144.615356m. Speed=0.036000m/h.</desc>
<speed>0.010000</speed>
</trkpt>
<trkpt lat="55.726894" lon="26.550493">
<ele>144.619263</ele>
<time>2010-07-18T12:46:06Z</time>
<desc>lat.=55.726894, lon.=26.550493, Alt.=144.619263m. Speed=0.036000m/h.</desc>
<speed>0.010000</speed>
</trkpt>
<trkpt lat="55.726894" lon="26.550493">
<ele>144.615356</ele>
<time>2010-07-18T12:46:07Z</time>
<desc>lat.=55.726894, lon.=26.550493, Alt.=144.615356m. Speed=0.468000m/h.</desc>
<speed>0.130000</speed>
</trkpt>
<trkpt lat="55.726894" lon="26.550493">
<ele>144.611450</ele>
<time>2010-07-18T12:46:08Z</time>
<desc>lat.=55.726894, lon.=26.550493, Alt.=144.611450m. Speed=0.180000m/h.</desc>
<speed>0.050000</speed>
</trkpt>
<trkpt lat="55.726894" lon="26.550493">
<ele>144.627075</ele>
<time>2010-07-18T12:46:09Z</time>
<desc>lat.=55.726894, lon.=26.550493, Alt.=144.627075m. Speed=0.072000m/h.</desc>
<speed>0.020000</speed>
</trkpt>
<trkpt lat="55.726894" lon="26.550493">
<ele>144.623169</ele>
<time>2010-07-18T12:46:10Z</time>
<desc>lat.=55.726894, lon.=26.550493, Alt.=144.623169m. Speed=0.072000m/h.</desc>
<speed>0.020000</speed>
</trkpt>
<trkpt lat="55.726894" lon="26.550493">
<ele>144.623169</ele>
<time>2010-07-18T12:46:11Z</time>
<desc>lat.=55.726894, lon.=26.550493, Alt.=144.623169m. Speed=0.036000m/h.</desc>
<speed>0.010000</speed>
</trkpt>
<trkpt lat="55.726894" lon="26.550493">
<ele>144.619263</ele>
<time>2010-07-18T12:46:12Z</time>
<desc>lat.=55.726894, lon.=26.550493, Alt.=144.619263m. Speed=0.000000m/h.</desc>
<speed>0.000000</speed>
</trkpt>
<trkpt lat="55.726894" lon="26.550493">
<ele>144.615356</ele>
<time>2010-07-18T12:46:13Z</time>
<desc>lat.=55.726894, lon.=26.550493, Alt.=144.615356m. Speed=0.036000m/h.</desc>
<speed>0.010000</speed>
</trkpt>
<trkpt lat="55.726894" lon="26.550493">
<ele>144.611450</ele>
<time>2010-07-18T12:46:14Z</time>
<desc>lat.=55.726894, lon.=26.550493, Alt.=144.611450m. Speed=0.000000m/h.</desc>
<speed>0.000000</speed>
</trkpt>
<trkpt lat="55.726894" lon="26.550493">
<ele>144.607544</ele>
<time>2010-07-18T12:46:15Z</time>
<desc>lat.=55.726894, lon.=26.550493, Alt.=144.607544m. Speed=0.036000m/h.</desc>
<speed>0.010000</speed>
</trkpt>
<trkpt lat="55.726894" lon="26.550493">
<ele>144.607544</ele>
<time>2010-07-18T12:46:16Z</time>
<desc>lat.=55.726894, lon.=26.550493, Alt.=144.607544m. Speed=0.000000m/h.</desc>
<speed>0.000000</speed>
</trkpt>
<trkpt lat="55.726894" lon="26.550493">
<ele>144.607544</ele>
<time>2010-07-18T12:46:17Z</time>
<desc>lat.=55.726894, lon.=26.550493, Alt.=144.607544m. Speed=0.000000m/h.</desc>
<speed>0.000000</speed>
</trkpt>
<trkpt lat="55.726894" lon="26.550493">
<ele>144.607544</ele>
<time>2010-07-18T12:46:18Z</time>
<desc>lat.=55.726894, lon.=26.550493, Alt.=144.607544m. Speed=0.036000m/h.</desc>
<speed>0.010000</speed>
</trkpt>
<trkpt lat="55.726894" lon="26.550493">
<ele>144.607544</ele>
<time>2010-07-18T12:46:19Z</time>
<desc>lat.=55.726894, lon.=26.550493, Alt.=144.607544m. Speed=0.036000m/h.</desc>
<speed>0.010000</speed>
</trkpt>
<trkpt lat="55.726894" lon="26.550493">
<ele>144.607544</ele>
<time>2010-07-18T12:46:20Z</time>
<desc>lat.=55.726894, lon.=26.550493, Alt.=144.607544m. Speed=0.036000m/h.</desc>
<speed>0.010000</speed>
</trkpt>
<trkpt lat="55.726894" lon="26.550493">
<ele>144.603638</ele>
<time>2010-07-18T12:46:21Z</time>
<desc>lat.=55.726894, lon.=26.550493, Alt.=144.603638m. Speed=0.036000m/h.</desc>
<speed>0.010000</speed>
</trkpt>
<trkpt lat="55.726894" lon="26.550493">
<ele>144.599731</ele>
<time>2010-07-18T12:46:22Z</time>
<desc>lat.=55.726894, lon.=26.550493, Alt.=144.599731m. Speed=0.000000m/h.</desc>
<speed>0.000000</speed>
</trkpt>
<trkpt lat="55.726894" lon="26.550493">
<ele>144.599731</ele>
<time>2010-07-18T12:46:23Z</time>
<desc>lat.=55.726894, lon.=26.550493, Alt.=144.599731m. Speed=0.036000m/h.</desc>
<speed>0.010000</speed>
</trkpt>
<trkpt lat="55.726894" lon="26.550493">
<ele>144.603638</ele>
<time>2010-07-18T12:46:24Z</time>
<desc>lat.=55.726894, lon.=26.550493, Alt.=144.603638m. Speed=0.000000m/h.</desc>
<speed>0.000000</speed>
</trkpt>
<trkpt lat="55.726894" lon="26.550493">
<ele>144.603638</ele>
<time>2010-07-18T12:46:25Z</time>
<desc>lat.=55.726894, lon.=26.550493, Alt.=144.603638m. Speed=0.000000m/h.</desc>
<speed>0.000000</speed>
</trkpt>
<trkpt lat="55.726894" lon="26.550493">
<ele>144.603638</ele>
<time>2010-07-18T12:46:26Z</time>
<desc>lat.=55.726894, lon.=26.550493, Alt.=144.603638m. Speed=0.000000m/h.</desc>
<speed>0.000000</speed>
</trkpt>
<trkpt lat="55.726894" lon="26.550493">
<ele>144.599731</ele>
<time>2010-07-18T12:46:27Z</time>
<desc>lat.=55.726894, lon.=26.550493, Alt.=144.599731m. Speed=0.036000m/h.</desc>
<speed>0.010000</speed>
</trkpt>
<trkpt lat="55.726894" lon="26.550493">
<ele>144.595825</ele>
<time>2010-07-18T12:46:28Z</time>
<desc>lat.=55.726894, lon.=26.550493, Alt.=144.595825m. Speed=0.036000m/h.</desc>
<speed>0.010000</speed>
</trkpt>
<trkpt lat="55.726894" lon="26.550493">
<ele>144.595825</ele>
<time>2010-07-18T12:46:29Z</time>
<desc>lat.=55.726894, lon.=26.550493, Alt.=144.595825m. Speed=0.108000m/h.</desc>
<speed>0.030000</speed>
</trkpt>
<trkpt lat="55.726894" lon="26.550493">
<ele>144.591919</ele>
<time>2010-07-18T12:46:30Z</time>
<desc>lat.=55.726894, lon.=26.550493, Alt.=144.591919m. Speed=0.000000m/h.</desc>
<speed>0.000000</speed>
</trkpt>
<trkpt lat="55.726894" lon="26.550493">
<ele>144.591919</ele>
<time>2010-07-18T12:46:31Z</time>
<desc>lat.=55.726894, lon.=26.550493, Alt.=144.591919m. Speed=0.072000m/h.</desc>
<speed>0.020000</speed>
</trkpt>
<trkpt lat="55.726894" lon="26.550493">
<ele>144.588013</ele>
<time>2010-07-18T12:46:32Z</time>
<desc>lat.=55.726894, lon.=26.550493, Alt.=144.588013m. Speed=0.072000m/h.</desc>
<speed>0.020000</speed>
</trkpt>
<trkpt lat="55.726894" lon="26.550493">
<ele>144.580200</ele>
<time>2010-07-18T12:46:33Z</time>
<desc>lat.=55.726894, lon.=26.550493, Alt.=144.580200m. Speed=0.000000m/h.</desc>
<speed>0.000000</speed>
</trkpt>
<trkpt lat="55.726894" lon="26.550493">
<ele>144.576294</ele>
<time>2010-07-18T12:46:34Z</time>
<desc>lat.=55.726894, lon.=26.550493, Alt.=144.576294m. Speed=0.072000m/h.</desc>
<speed>0.020000</speed>
</trkpt>
<trkpt lat="55.726894" lon="26.550493">
<ele>144.568481</ele>
<time>2010-07-18T12:46:35Z</time>
<desc>lat.=55.726894, lon.=26.550493, Alt.=144.568481m. Speed=0.072000m/h.</desc>
<speed>0.020000</speed>
</trkpt>
<trkpt lat="55.726894" lon="26.550493">
<ele>144.568481</ele>
<time>2010-07-18T12:46:36Z</time>
<desc>lat.=55.726894, lon.=26.550493, Alt.=144.568481m. Speed=0.036000m/h.</desc>
<speed>0.010000</speed>
</trkpt>
<trkpt lat="55.726894" lon="26.550493">
<ele>144.560669</ele>
<time>2010-07-18T12:46:37Z</time>
<desc>lat.=55.726894, lon.=26.550493, Alt.=144.560669m. Speed=0.000000m/h.</desc>
<speed>0.000000</speed>
</trkpt>
<trkpt lat="55.726894" lon="26.550493">
<ele>144.556763</ele>
<time>2010-07-18T12:46:38Z</time>
<desc>lat.=55.726894, lon.=26.550493, Alt.=144.556763m. Speed=0.000000m/h.</desc>
<speed>0.000000</speed>
</trkpt>
<trkpt lat="55.726894" lon="26.550493">
<ele>144.548950</ele>
<time>2010-07-18T12:46:39Z</time>
<desc>lat.=55.726894, lon.=26.550493, Alt.=144.548950m. Speed=0.000000m/h.</desc>
<speed>0.000000</speed>
</trkpt>
<trkpt lat="55.726894" lon="26.550493">
<ele>144.548950</ele>
<time>2010-07-18T12:46:40Z</time>
<desc>lat.=55.726894, lon.=26.550493, Alt.=144.548950m. Speed=0.000000m/h.</desc>
<speed>0.000000</speed>
</trkpt>
<trkpt lat="55.726894" lon="26.550493">
<ele>144.541138</ele>
<time>2010-07-18T12:46:41Z</time>
<desc>lat.=55.726894, lon.=26.550493, Alt.=144.541138m. Speed=0.072000m/h.</desc>
<speed>0.020000</speed>
</trkpt>
<trkpt lat="55.726894" lon="26.550493">
<ele>144.533325</ele>
<time>2010-07-18T12:46:42Z</time>
<desc>lat.=55.726894, lon.=26.550493, Alt.=144.533325m. Speed=0.000000m/h.</desc>
<speed>0.000000</speed>
</trkpt>
<trkpt lat="55.726894" lon="26.550493">
<ele>144.529419</ele>
<time>2010-07-18T12:46:43Z</time>
<desc>lat.=55.726894, lon.=26.550493, Alt.=144.529419m. Speed=0.036000m/h.</desc>
<speed>0.010000</speed>
</trkpt>
<trkpt lat="55.726894" lon="26.550493">
<ele>144.529419</ele>
<time>2010-07-18T12:46:44Z</time>
<desc>lat.=55.726894, lon.=26.550493, Alt.=144.529419m. Speed=0.072000m/h.</desc>
<speed>0.020000</speed>
</trkpt>
<trkpt lat="55.726894" lon="26.550493">
<ele>144.529419</ele>
<time>2010-07-18T12:46:45Z</time>
<desc>lat.=55.726894, lon.=26.550493, Alt.=144.529419m. Speed=0.072000m/h.</desc>
<speed>0.020000</speed>
</trkpt>
<trkpt lat="55.726894" lon="26.550493">
<ele>144.529419</ele>
<time>2010-07-18T12:46:46Z</time>
<desc>lat.=55.726894, lon.=26.550493, Alt.=144.529419m. Speed=0.108000m/h.</desc>
<speed>0.030000</speed>
</trkpt>
<trkpt lat="55.726894" lon="26.550493">
<ele>144.529419</ele>
<time>2010-07-18T12:46:47Z</time>
<desc>lat.=55.726894, lon.=26.550493, Alt.=144.529419m. Speed=0.036000m/h.</desc>
<speed>0.010000</speed>
</trkpt>
<trkpt lat="55.726894" lon="26.550493">
<ele>144.529419</ele>
<time>2010-07-18T12:46:48Z</time>
<desc>lat.=55.726894, lon.=26.550493, Alt.=144.529419m. Speed=0.180000m/h.</desc>
<speed>0.050000</speed>
</trkpt>
<trkpt lat="55.726894" lon="26.550493">
<ele>144.529419</ele>
<time>2010-07-18T12:46:49Z</time>
<desc>lat.=55.726894, lon.=26.550493, Alt.=144.529419m. Speed=0.000000m/h.</desc>
<speed>0.000000</speed>
</trkpt>
<trkpt lat="55.726894" lon="26.550493">
<ele>144.525513</ele>
<time>2010-07-18T12:46:50Z</time>
<desc>lat.=55.726894, lon.=26.550493, Alt.=144.525513m. Speed=0.108000m/h.</desc>
<speed>0.030000</speed>
</trkpt>
<trkpt lat="55.726894" lon="26.550491">
<ele>144.525513</ele>
<time>2010-07-18T12:46:51Z</time>
<desc>lat.=55.726894, lon.=26.550491, Alt.=144.525513m. Speed=0.108000m/h.</desc>
<speed>0.030000</speed>
</trkpt>
<trkpt lat="55.726894" lon="26.550491">
<ele>144.525513</ele>
<time>2010-07-18T12:46:52Z</time>
<desc>lat.=55.726894, lon.=26.550491, Alt.=144.525513m. Speed=0.036000m/h.</desc>
<speed>0.010000</speed>
</trkpt>
<trkpt lat="55.726894" lon="26.550491">
<ele>144.525513</ele>
<time>2010-07-18T12:46:53Z</time>
<desc>lat.=55.726894, lon.=26.550491, Alt.=144.525513m. Speed=0.036000m/h.</desc>
<speed>0.010000</speed>
</trkpt>
<trkpt lat="55.726894" lon="26.550491">
<ele>144.525513</ele>
<time>2010-07-18T12:46:54Z</time>
<desc>lat.=55.726894, lon.=26.550491, Alt.=144.525513m. Speed=0.072000m/h.</desc>
<speed>0.020000</speed>
</trkpt>
<trkpt lat="55.726894" lon="26.550491">
<ele>144.521606</ele>
<time>2010-07-18T12:46:55Z</time>
<desc>lat.=55.726894, lon.=26.550491, Alt.=144.521606m. Speed=0.036000m/h.</desc>
<speed>0.010000</speed>
</trkpt>
<trkpt lat="55.726894" lon="26.550491">
<ele>144.521606</ele>
<time>2010-07-18T12:46:56Z</time>
<desc>lat.=55.726894, lon.=26.550491, Alt.=144.521606m. Speed=0.000000m/h.</desc>
<speed>0.000000</speed>
</trkpt>
<trkpt lat="55.726894" lon="26.550491">
<ele>144.521606</ele>
<time>2010-07-18T12:46:57Z</time>
<desc>lat.=55.726894, lon.=26.550491, Alt.=144.521606m. Speed=0.000000m/h.</desc>
<speed>0.000000</speed>
</trkpt>
<trkpt lat="55.726894" lon="26.550491">
<ele>144.517700</ele>
<time>2010-07-18T12:46:58Z</time>
<desc>lat.=55.726894, lon.=26.550491, Alt.=144.517700m. Speed=0.000000m/h.</desc>
<speed>0.000000</speed>
</trkpt>
<trkpt lat="55.726894" lon="26.550491">
<ele>144.517700</ele>
<time>2010-07-18T12:46:59Z</time>
<desc>lat.=55.726894, lon.=26.550491, Alt.=144.517700m. Speed=0.000000m/h.</desc>
<speed>0.000000</speed>
</trkpt>
<trkpt lat="55.726894" lon="26.550491">
<ele>144.517700</ele>
<time>2010-07-18T12:47:00Z</time>
<desc>lat.=55.726894, lon.=26.550491, Alt.=144.517700m. Speed=0.036000m/h.</desc>
<speed>0.010000</speed>
</trkpt>
<trkpt lat="55.726894" lon="26.550491">
<ele>144.517700</ele>
<time>2010-07-18T12:47:01Z</time>
<desc>lat.=55.726894, lon.=26.550491, Alt.=144.517700m. Speed=0.036000m/h.</desc>
<speed>0.010000</speed>
</trkpt>
<trkpt lat="55.726894" lon="26.550491">
<ele>144.517700</ele>
<time>2010-07-18T12:47:02Z</time>
<desc>lat.=55.726894, lon.=26.550491, Alt.=144.517700m. Speed=0.036000m/h.</desc>
<speed>0.010000</speed>
</trkpt>
<trkpt lat="55.726894" lon="26.550491">
<ele>144.517700</ele>
<time>2010-07-18T12:47:03Z</time>
<desc>lat.=55.726894, lon.=26.550491, Alt.=144.517700m. Speed=0.108000m/h.</desc>
<speed>0.030000</speed>
</trkpt>
<trkpt lat="55.726894" lon="26.550491">
<ele>144.517700</ele>
<time>2010-07-18T12:47:04Z</time>
<desc>lat.=55.726894, lon.=26.550491, Alt.=144.517700m. Speed=0.072000m/h.</desc>
<speed>0.020000</speed>
</trkpt>
<trkpt lat="55.726894" lon="26.550491">
<ele>144.517700</ele>
<time>2010-07-18T12:47:05Z</time>
<desc>lat.=55.726894, lon.=26.550491, Alt.=144.517700m. Speed=0.036000m/h.</desc>
<speed>0.010000</speed>
</trkpt>
<trkpt lat="55.726894" lon="26.550491">
<ele>144.525513</ele>
<time>2010-07-18T12:47:06Z</time>
<desc>lat.=55.726894, lon.=26.550491, Alt.=144.525513m. Speed=0.288000m/h.</desc>
<speed>0.080000</speed>
</trkpt>
<trkpt lat="55.726894" lon="26.550491">
<ele>144.525513</ele>
<time>2010-07-18T12:47:07Z</time>
<desc>lat.=55.726894, lon.=26.550491, Alt.=144.525513m. Speed=0.072000m/h.</desc>
<speed>0.020000</speed>
</trkpt>
<trkpt lat="55.726894" lon="26.550491">
<ele>144.545044</ele>
<time>2010-07-18T12:47:08Z</time>
<desc>lat.=55.726894, lon.=26.550491, Alt.=144.545044m. Speed=0.000000m/h.</desc>
<speed>0.000000</speed>
</trkpt>
<trkpt lat="55.726894" lon="26.550491">
<ele>144.548950</ele>
<time>2010-07-18T12:47:09Z</time>
<desc>lat.=55.726894, lon.=26.550491, Alt.=144.548950m. Speed=0.000000m/h.</desc>
<speed>0.000000</speed>
</trkpt>
<trkpt lat="55.726894" lon="26.550491">
<ele>144.552856</ele>
<time>2010-07-18T12:47:10Z</time>
<desc>lat.=55.726894, lon.=26.550491, Alt.=144.552856m. Speed=0.000000m/h.</desc>
<speed>0.000000</speed>
</trkpt>
<trkpt lat="55.726894" lon="26.550491">
<ele>144.552856</ele>
<time>2010-07-18T12:47:11Z</time>
<desc>lat.=55.726894, lon.=26.550491, Alt.=144.552856m. Speed=0.036000m/h.</desc>
<speed>0.010000</speed>
</trkpt>
<trkpt lat="55.726894" lon="26.550491">
<ele>144.548950</ele>
<time>2010-07-18T12:47:12Z</time>
<desc>lat.=55.726894, lon.=26.550491, Alt.=144.548950m. Speed=0.036000m/h.</desc>
<speed>0.010000</speed>
</trkpt>
<trkpt lat="55.726894" lon="26.550491">
<ele>144.541138</ele>
<time>2010-07-18T12:47:13Z</time>
<desc>lat.=55.726894, lon.=26.550491, Alt.=144.541138m. Speed=0.000000m/h.</desc>
<speed>0.000000</speed>
</trkpt>
<trkpt lat="55.726894" lon="26.550491">
<ele>144.541138</ele>
<time>2010-07-18T12:47:14Z</time>
<desc>lat.=55.726894, lon.=26.550491, Alt.=144.541138m. Speed=0.000000m/h.</desc>
<speed>0.000000</speed>
</trkpt>
<trkpt lat="55.726894" lon="26.550491">
<ele>144.541138</ele>
<time>2010-07-18T12:47:15Z</time>
<desc>lat.=55.726894, lon.=26.550491, Alt.=144.541138m. Speed=0.000000m/h.</desc>
<speed>0.000000</speed>
</trkpt>
<trkpt lat="55.726894" lon="26.550491">
<ele>144.533325</ele>
<time>2010-07-18T12:47:16Z</time>
<desc>lat.=55.726894, lon.=26.550491, Alt.=144.533325m. Speed=0.000000m/h.</desc>
<speed>0.000000</speed>
</trkpt>
<trkpt lat="55.726894" lon="26.550491">
<ele>144.525513</ele>
<time>2010-07-18T12:47:17Z</time>
<desc>lat.=55.726894, lon.=26.550491, Alt.=144.525513m. Speed=0.000000m/h.</desc>
<speed>0.000000</speed>
</trkpt>
<trkpt lat="55.726894" lon="26.550491">
<ele>144.521606</ele>
<time>2010-07-18T12:47:18Z</time>
<desc>lat.=55.726894, lon.=26.550491, Alt.=144.521606m. Speed=0.000000m/h.</desc>
<speed>0.000000</speed>
</trkpt>
<trkpt lat="55.726894" lon="26.550489">
<ele>144.513794</ele>
<time>2010-07-18T12:47:19Z</time>
<desc>lat.=55.726894, lon.=26.550489, Alt.=144.513794m. Speed=0.000000m/h.</desc>
<speed>0.000000</speed>
</trkpt>
<trkpt lat="55.726894" lon="26.550489">
<ele>144.509888</ele>
<time>2010-07-18T12:47:20Z</time>
<desc>lat.=55.726894, lon.=26.550489, Alt.=144.509888m. Speed=0.000000m/h.</desc>
<speed>0.000000</speed>
</trkpt>
<trkpt lat="55.726894" lon="26.550489">
<ele>144.509888</ele>
<time>2010-07-18T12:47:21Z</time>
<desc>lat.=55.726894, lon.=26.550489, Alt.=144.509888m. Speed=0.000000m/h.</desc>
<speed>0.000000</speed>
</trkpt>
<trkpt lat="55.726894" lon="26.550489">
<ele>144.502075</ele>
<time>2010-07-18T12:47:22Z</time>
<desc>lat.=55.726894, lon.=26.550489, Alt.=144.502075m. Speed=0.000000m/h.</desc>
<speed>0.000000</speed>
</trkpt>
<trkpt lat="55.726894" lon="26.550489">
<ele>144.502075</ele>
<time>2010-07-18T12:47:23Z</time>
<desc>lat.=55.726894, lon.=26.550489, Alt.=144.502075m. Speed=0.036000m/h.</desc>
<speed>0.010000</speed>
</trkpt>
<trkpt lat="55.726894" lon="26.550489">
<ele>144.498169</ele>
<time>2010-07-18T12:47:24Z</time>
<desc>lat.=55.726894, lon.=26.550489, Alt.=144.498169m. Speed=0.000000m/h.</desc>
<speed>0.000000</speed>
</trkpt>
<trkpt lat="55.726894" lon="26.550489">
<ele>144.498169</ele>
<time>2010-07-18T12:47:25Z</time>
<desc>lat.=55.726894, lon.=26.550489, Alt.=144.498169m. Speed=0.000000m/h.</desc>
<speed>0.000000</speed>
</trkpt>
<trkpt lat="55.726894" lon="26.550489">
<ele>144.498169</ele>
<time>2010-07-18T12:47:26Z</time>
<desc>lat.=55.726894, lon.=26.550489, Alt.=144.498169m. Speed=0.036000m/h.</desc>
<speed>0.010000</speed>
</trkpt>
<trkpt lat="55.726894" lon="26.550489">
<ele>144.498169</ele>
<time>2010-07-18T12:47:27Z</time>
<desc>lat.=55.726894, lon.=26.550489, Alt.=144.498169m. Speed=0.000000m/h.</desc>
<speed>0.000000</speed>
</trkpt>
<trkpt lat="55.726894" lon="26.550489">
<ele>144.494263</ele>
<time>2010-07-18T12:47:28Z</time>
<desc>lat.=55.726894, lon.=26.550489, Alt.=144.494263m. Speed=0.000000m/h.</desc>
<speed>0.000000</speed>
</trkpt>
<trkpt lat="55.726894" lon="26.550489">
<ele>144.494263</ele>
<time>2010-07-18T12:47:29Z</time>
<desc>lat.=55.726894, lon.=26.550489, Alt.=144.494263m. Speed=0.000000m/h.</desc>
<speed>0.000000</speed>
</trkpt>
<trkpt lat="55.726894" lon="26.550489">
<ele>144.490356</ele>
<time>2010-07-18T12:47:30Z</time>
<desc>lat.=55.726894, lon.=26.550489, Alt.=144.490356m. Speed=0.036000m/h.</desc>
<speed>0.010000</speed>
</trkpt>
<trkpt lat="55.726894" lon="26.550489">
<ele>144.486450</ele>
<time>2010-07-18T12:47:31Z</time>
<desc>lat.=55.726894, lon.=26.550489, Alt.=144.486450m. Speed=0.000000m/h.</desc>
<speed>0.000000</speed>
</trkpt>
<trkpt lat="55.726894" lon="26.550489">
<ele>144.482544</ele>
<time>2010-07-18T12:47:32Z</time>
<desc>lat.=55.726894, lon.=26.550489, Alt.=144.482544m. Speed=0.000000m/h.</desc>
<speed>0.000000</speed>
</trkpt>
<trkpt lat="55.726894" lon="26.550489">
<ele>144.478638</ele>
<time>2010-07-18T12:47:33Z</time>
<desc>lat.=55.726894, lon.=26.550489, Alt.=144.478638m. Speed=0.000000m/h.</desc>
<speed>0.000000</speed>
</trkpt>
<trkpt lat="55.726898" lon="26.550489">
<ele>144.474731</ele>
<time>2010-07-18T12:47:34Z</time>
<desc>lat.=55.726898, lon.=26.550489, Alt.=144.474731m. Speed=0.000000m/h.</desc>
<speed>0.000000</speed>
</trkpt>
<trkpt lat="55.726898" lon="26.550489">
<ele>144.474731</ele>
<time>2010-07-18T12:47:35Z</time>
<desc>lat.=55.726898, lon.=26.550489, Alt.=144.474731m. Speed=0.036000m/h.</desc>
<speed>0.010000</speed>
</trkpt>
<trkpt lat="55.726898" lon="26.550489">
<ele>144.470825</ele>
<time>2010-07-18T12:47:36Z</time>
<desc>lat.=55.726898, lon.=26.550489, Alt.=144.470825m. Speed=0.036000m/h.</desc>
<speed>0.010000</speed>
</trkpt>
<trkpt lat="55.726898" lon="26.550489">
<ele>144.470825</ele>
<time>2010-07-18T12:47:37Z</time>
<desc>lat.=55.726898, lon.=26.550489, Alt.=144.470825m. Speed=0.000000m/h.</desc>
<speed>0.000000</speed>
</trkpt>
<trkpt lat="55.726898" lon="26.550489">
<ele>144.466919</ele>
<time>2010-07-18T12:47:38Z</time>
<desc>lat.=55.726898, lon.=26.550489, Alt.=144.466919m. Speed=0.000000m/h.</desc>
<speed>0.000000</speed>
</trkpt>
<trkpt lat="55.726898" lon="26.550489">
<ele>144.466919</ele>
<time>2010-07-18T12:47:39Z</time>
<desc>lat.=55.726898, lon.=26.550489, Alt.=144.466919m. Speed=0.036000m/h.</desc>
<speed>0.010000</speed>
</trkpt>
<trkpt lat="55.726898" lon="26.550489">
<ele>144.466919</ele>
<time>2010-07-18T12:47:40Z</time>
<desc>lat.=55.726898, lon.=26.550489, Alt.=144.466919m. Speed=0.108000m/h.</desc>
<speed>0.030000</speed>
</trkpt>
<trkpt lat="55.726898" lon="26.550489">
<ele>144.463013</ele>
<time>2010-07-18T12:47:41Z</time>
<desc>lat.=55.726898, lon.=26.550489, Alt.=144.463013m. Speed=0.000000m/h.</desc>
<speed>0.000000</speed>
</trkpt>
<trkpt lat="55.726898" lon="26.550489">
<ele>144.459106</ele>
<time>2010-07-18T12:47:42Z</time>
<desc>lat.=55.726898, lon.=26.550489, Alt.=144.459106m. Speed=0.108000m/h.</desc>
<speed>0.030000</speed>
</trkpt>
<trkpt lat="55.726898" lon="26.550489">
<ele>144.455200</ele>
<time>2010-07-18T12:47:43Z</time>
<desc>lat.=55.726898, lon.=26.550489, Alt.=144.455200m. Speed=0.036000m/h.</desc>
<speed>0.010000</speed>
</trkpt>
<trkpt lat="55.726898" lon="26.550489">
<ele>144.455200</ele>
<time>2010-07-18T12:47:44Z</time>
<desc>lat.=55.726898, lon.=26.550489, Alt.=144.455200m. Speed=0.036000m/h.</desc>
<speed>0.010000</speed>
</trkpt>
<trkpt lat="55.726898" lon="26.550489">
<ele>144.451294</ele>
<time>2010-07-18T12:47:45Z</time>
<desc>lat.=55.726898, lon.=26.550489, Alt.=144.451294m. Speed=0.072000m/h.</desc>
<speed>0.020000</speed>
</trkpt>
<trkpt lat="55.726898" lon="26.550489">
<ele>144.447388</ele>
<time>2010-07-18T12:47:46Z</time>
<desc>lat.=55.726898, lon.=26.550489, Alt.=144.447388m. Speed=0.036000m/h.</desc>
<speed>0.010000</speed>
</trkpt>
<trkpt lat="55.726898" lon="26.550489">
<ele>144.447388</ele>
<time>2010-07-18T12:47:47Z</time>
<desc>lat.=55.726898, lon.=26.550489, Alt.=144.447388m. Speed=0.036000m/h.</desc>
<speed>0.010000</speed>
</trkpt>
<trkpt lat="55.726898" lon="26.550489">
<ele>144.443481</ele>
<time>2010-07-18T12:47:48Z</time>
<desc>lat.=55.726898, lon.=26.550489, Alt.=144.443481m. Speed=0.036000m/h.</desc>
<speed>0.010000</speed>
</trkpt>
<trkpt lat="55.726894" lon="26.550489">
<ele>144.443481</ele>
<time>2010-07-18T12:47:49Z</time>
<desc>lat.=55.726894, lon.=26.550489, Alt.=144.443481m. Speed=0.000000m/h.</desc>
<speed>0.000000</speed>
</trkpt>
<trkpt lat="55.726894" lon="26.550489">
<ele>144.443481</ele>
<time>2010-07-18T12:47:50Z</time>
<desc>lat.=55.726894, lon.=26.550489, Alt.=144.443481m. Speed=0.000000m/h.</desc>
<speed>0.000000</speed>
</trkpt>
<trkpt lat="55.726894" lon="26.550489">
<ele>144.443481</ele>
<time>2010-07-18T12:47:51Z</time>
<desc>lat.=55.726894, lon.=26.550489, Alt.=144.443481m. Speed=0.000000m/h.</desc>
<speed>0.000000</speed>
</trkpt>
<trkpt lat="55.726894" lon="26.550489">
<ele>144.439575</ele>
<time>2010-07-18T12:47:52Z</time>
<desc>lat.=55.726894, lon.=26.550489, Alt.=144.439575m. Speed=0.000000m/h.</desc>
<speed>0.000000</speed>
</trkpt>
<trkpt lat="55.726894" lon="26.550489">
<ele>144.439575</ele>
<time>2010-07-18T12:47:53Z</time>
<desc>lat.=55.726894, lon.=26.550489, Alt.=144.439575m. Speed=0.036000m/h.</desc>
<speed>0.010000</speed>
</trkpt>
<trkpt lat="55.726894" lon="26.550489">
<ele>144.435669</ele>
<time>2010-07-18T12:47:54Z</time>
<desc>lat.=55.726894, lon.=26.550489, Alt.=144.435669m. Speed=0.000000m/h.</desc>
<speed>0.000000</speed>
</trkpt>
<trkpt lat="55.726894" lon="26.550489">
<ele>144.435669</ele>
<time>2010-07-18T12:47:55Z</time>
<desc>lat.=55.726894, lon.=26.550489, Alt.=144.435669m. Speed=0.000000m/h.</desc>
<speed>0.000000</speed>
</trkpt>
<trkpt lat="55.726894" lon="26.550489">
<ele>144.431763</ele>
<time>2010-07-18T12:47:56Z</time>
<desc>lat.=55.726894, lon.=26.550489, Alt.=144.431763m. Speed=0.036000m/h.</desc>
<speed>0.010000</speed>
</trkpt>
<trkpt lat="55.726894" lon="26.550489">
<ele>144.427856</ele>
<time>2010-07-18T12:47:57Z</time>
<desc>lat.=55.726894, lon.=26.550489, Alt.=144.427856m. Speed=0.000000m/h.</desc>
<speed>0.000000</speed>
</trkpt>
<trkpt lat="55.726894" lon="26.550489">
<ele>144.427856</ele>
<time>2010-07-18T12:47:58Z</time>
<desc>lat.=55.726894, lon.=26.550489, Alt.=144.427856m. Speed=0.000000m/h.</desc>
<speed>0.000000</speed>
</trkpt>
<trkpt lat="55.726894" lon="26.550489">
<ele>144.427856</ele>
<time>2010-07-18T12:47:59Z</time>
<desc>lat.=55.726894, lon.=26.550489, Alt.=144.427856m. Speed=0.000000m/h.</desc>
<speed>0.000000</speed>
</trkpt>
<trkpt lat="55.726894" lon="26.550489">
<ele>144.427856</ele>
<time>2010-07-18T12:48:00Z</time>
<desc>lat.=55.726894, lon.=26.550489, Alt.=144.427856m. Speed=0.000000m/h.</desc>
<speed>0.000000</speed>
</trkpt>
<trkpt lat="55.726894" lon="26.550489">
<ele>144.427856</ele>
<time>2010-07-18T12:48:01Z</time>
<desc>lat.=55.726894, lon.=26.550489, Alt.=144.427856m. Speed=0.000000m/h.</desc>
<speed>0.000000</speed>
</trkpt>
<trkpt lat="55.726894" lon="26.550489">
<ele>144.427856</ele>
<time>2010-07-18T12:48:02Z</time>
<desc>lat.=55.726894, lon.=26.550489, Alt.=144.427856m. Speed=0.036000m/h.</desc>
<speed>0.010000</speed>
</trkpt>
<trkpt lat="55.726894" lon="26.550489">
<ele>144.427856</ele>
<time>2010-07-18T12:48:03Z</time>
<desc>lat.=55.726894, lon.=26.550489, Alt.=144.427856m. Speed=0.000000m/h.</desc>
<speed>0.000000</speed>
</trkpt>
<trkpt lat="55.726898" lon="26.550489">
<ele>144.427856</ele>
<time>2010-07-18T12:48:04Z</time>
<desc>lat.=55.726898, lon.=26.550489, Alt.=144.427856m. Speed=0.000000m/h.</desc>
<speed>0.000000</speed>
</trkpt>
<trkpt lat="55.726898" lon="26.550489">
<ele>144.427856</ele>
<time>2010-07-18T12:48:05Z</time>
<desc>lat.=55.726898, lon.=26.550489, Alt.=144.427856m. Speed=0.000000m/h.</desc>
<speed>0.000000</speed>
</trkpt>
<trkpt lat="55.726898" lon="26.550489">
<ele>144.427856</ele>
<time>2010-07-18T12:48:06Z</time>
<desc>lat.=55.726898, lon.=26.550489, Alt.=144.427856m. Speed=0.072000m/h.</desc>
<speed>0.020000</speed>
</trkpt>
<trkpt lat="55.726898" lon="26.550489">
<ele>144.427856</ele>
<time>2010-07-18T12:48:07Z</time>
<desc>lat.=55.726898, lon.=26.550489, Alt.=144.427856m. Speed=0.000000m/h.</desc>
<speed>0.000000</speed>
</trkpt>
<trkpt lat="55.726898" lon="26.550489">
<ele>144.427856</ele>
<time>2010-07-18T12:48:08Z</time>
<desc>lat.=55.726898, lon.=26.550489, Alt.=144.427856m. Speed=0.036000m/h.</desc>
<speed>0.010000</speed>
</trkpt>
<trkpt lat="55.726898" lon="26.550489">
<ele>144.423950</ele>
<time>2010-07-18T12:48:09Z</time>
<desc>lat.=55.726898, lon.=26.550489, Alt.=144.423950m. Speed=0.108000m/h.</desc>
<speed>0.030000</speed>
</trkpt>
<trkpt lat="55.726898" lon="26.550489">
<ele>144.423950</ele>
<time>2010-07-18T12:48:10Z</time>
<desc>lat.=55.726898, lon.=26.550489, Alt.=144.423950m. Speed=0.000000m/h.</desc>
<speed>0.000000</speed>
</trkpt>
<trkpt lat="55.726898" lon="26.550489">
<ele>144.439575</ele>
<time>2010-07-18T12:48:11Z</time>
<desc>lat.=55.726898, lon.=26.550489, Alt.=144.439575m. Speed=0.576000m/h.</desc>
<speed>0.160000</speed>
</trkpt>
<trkpt lat="55.726898" lon="26.550489">
<ele>144.447388</ele>
<time>2010-07-18T12:48:12Z</time>
<desc>lat.=55.726898, lon.=26.550489, Alt.=144.447388m. Speed=0.072000m/h.</desc>
<speed>0.020000</speed>
</trkpt>
<trkpt lat="55.726898" lon="26.550489">
<ele>144.447388</ele>
<time>2010-07-18T12:48:13Z</time>
<desc>lat.=55.726898, lon.=26.550489, Alt.=144.447388m. Speed=0.000000m/h.</desc>
<speed>0.000000</speed>
</trkpt>
<trkpt lat="55.726898" lon="26.550489">
<ele>144.447388</ele>
<time>2010-07-18T12:48:14Z</time>
<desc>lat.=55.726898, lon.=26.550489, Alt.=144.447388m. Speed=0.036000m/h.</desc>
<speed>0.010000</speed>
</trkpt>
<trkpt lat="55.726898" lon="26.550489">
<ele>144.451294</ele>
<time>2010-07-18T12:48:15Z</time>
<desc>lat.=55.726898, lon.=26.550489, Alt.=144.451294m. Speed=0.000000m/h.</desc>
<speed>0.000000</speed>
</trkpt>
<trkpt lat="55.726898" lon="26.550489">
<ele>144.451294</ele>
<time>2010-07-18T12:48:16Z</time>
<desc>lat.=55.726898, lon.=26.550489, Alt.=144.451294m. Speed=0.000000m/h.</desc>
<speed>0.000000</speed>
</trkpt>
<trkpt lat="55.726898" lon="26.550489">
<ele>144.455200</ele>
<time>2010-07-18T12:48:17Z</time>
<desc>lat.=55.726898, lon.=26.550489, Alt.=144.455200m. Speed=0.036000m/h.</desc>
<speed>0.010000</speed>
</trkpt>
<trkpt lat="55.726898" lon="26.550489">
<ele>144.459106</ele>
<time>2010-07-18T12:48:18Z</time>
<desc>lat.=55.726898, lon.=26.550489, Alt.=144.459106m. Speed=0.000000m/h.</desc>
<speed>0.000000</speed>
</trkpt>
<trkpt lat="55.726898" lon="26.550489">
<ele>144.463013</ele>
<time>2010-07-18T12:48:19Z</time>
<desc>lat.=55.726898, lon.=26.550489, Alt.=144.463013m. Speed=0.000000m/h.</desc>
<speed>0.000000</speed>
</trkpt>
<trkpt lat="55.726898" lon="26.550489">
<ele>144.463013</ele>
<time>2010-07-18T12:48:20Z</time>
<desc>lat.=55.726898, lon.=26.550489, Alt.=144.463013m. Speed=0.036000m/h.</desc>
<speed>0.010000</speed>
</trkpt>
<trkpt lat="55.726898" lon="26.550489">
<ele>144.463013</ele>
<time>2010-07-18T12:48:21Z</time>
<desc>lat.=55.726898, lon.=26.550489, Alt.=144.463013m. Speed=0.036000m/h.</desc>
<speed>0.010000</speed>
</trkpt>
<trkpt lat="55.726898" lon="26.550489">
<ele>144.466919</ele>
<time>2010-07-18T12:48:22Z</time>
<desc>lat.=55.726898, lon.=26.550489, Alt.=144.466919m. Speed=0.000000m/h.</desc>
<speed>0.000000</speed>
</trkpt>
<trkpt lat="55.726898" lon="26.550489">
<ele>144.466919</ele>
<time>2010-07-18T12:48:23Z</time>
<desc>lat.=55.726898, lon.=26.550489, Alt.=144.466919m. Speed=0.036000m/h.</desc>
<speed>0.010000</speed>
</trkpt>
<trkpt lat="55.726898" lon="26.550489">
<ele>144.470825</ele>
<time>2010-07-18T12:48:24Z</time>
<desc>lat.=55.726898, lon.=26.550489, Alt.=144.470825m. Speed=0.000000m/h.</desc>
<speed>0.000000</speed>
</trkpt>
<trkpt lat="55.726898" lon="26.550489">
<ele>144.474731</ele>
<time>2010-07-18T12:48:25Z</time>
<desc>lat.=55.726898, lon.=26.550489, Alt.=144.474731m. Speed=0.000000m/h.</desc>
<speed>0.000000</speed>
</trkpt>
<trkpt lat="55.726898" lon="26.550489">
<ele>144.474731</ele>
<time>2010-07-18T12:48:26Z</time>
<desc>lat.=55.726898, lon.=26.550489, Alt.=144.474731m. Speed=0.000000m/h.</desc>
<speed>0.000000</speed>
</trkpt>
<trkpt lat="55.726898" lon="26.550489">
<ele>144.478638</ele>
<time>2010-07-18T12:48:27Z</time>
<desc>lat.=55.726898, lon.=26.550489, Alt.=144.478638m. Speed=0.036000m/h.</desc>
<speed>0.010000</speed>
</trkpt>
<trkpt lat="55.726898" lon="26.550489">
<ele>144.482544</ele>
<time>2010-07-18T12:48:28Z</time>
<desc>lat.=55.726898, lon.=26.550489, Alt.=144.482544m. Speed=0.000000m/h.</desc>
<speed>0.000000</speed>
</trkpt>
<trkpt lat="55.726898" lon="26.550489">
<ele>144.486450</ele>
<time>2010-07-18T12:48:29Z</time>
<desc>lat.=55.726898, lon.=26.550489, Alt.=144.486450m. Speed=0.000000m/h.</desc>
<speed>0.000000</speed>
</trkpt>
<trkpt lat="55.726898" lon="26.550489">
<ele>144.486450</ele>
<time>2010-07-18T12:48:30Z</time>
<desc>lat.=55.726898, lon.=26.550489, Alt.=144.486450m. Speed=0.000000m/h.</desc>
<speed>0.000000</speed>
</trkpt>
<trkpt lat="55.726898" lon="26.550489">
<ele>144.490356</ele>
<time>2010-07-18T12:48:31Z</time>
<desc>lat.=55.726898, lon.=26.550489, Alt.=144.490356m. Speed=0.000000m/h.</desc>
<speed>0.000000</speed>
</trkpt>
<trkpt lat="55.726898" lon="26.550489">
<ele>144.490356</ele>
<time>2010-07-18T12:48:32Z</time>
<desc>lat.=55.726898, lon.=26.550489, Alt.=144.490356m. Speed=0.000000m/h.</desc>
<speed>0.000000</speed>
</trkpt>
<trkpt lat="55.726898" lon="26.550489">
<ele>144.494263</ele>
<time>2010-07-18T12:48:33Z</time>
<desc>lat.=55.726898, lon.=26.550489, Alt.=144.494263m. Speed=0.000000m/h.</desc>
<speed>0.000000</speed>
</trkpt>
<trkpt lat="55.726898" lon="26.550489">
<ele>144.498169</ele>
<time>2010-07-18T12:48:34Z</time>
<desc>lat.=55.726898, lon.=26.550489, Alt.=144.498169m. Speed=0.000000m/h.</desc>
<speed>0.000000</speed>
</trkpt>
<trkpt lat="55.726898" lon="26.550489">
<ele>144.498169</ele>
<time>2010-07-18T12:48:35Z</time>
<desc>lat.=55.726898, lon.=26.550489, Alt.=144.498169m. Speed=0.000000m/h.</desc>
<speed>0.000000</speed>
</trkpt>
<trkpt lat="55.726898" lon="26.550489">
<ele>144.498169</ele>
<time>2010-07-18T12:48:36Z</time>
<desc>lat.=55.726898, lon.=26.550489, Alt.=144.498169m. Speed=0.036000m/h.</desc>
<speed>0.010000</speed>
</trkpt>
<trkpt lat="55.726898" lon="26.550489">
<ele>144.498169</ele>
<time>2010-07-18T12:48:37Z</time>
<desc>lat.=55.726898, lon.=26.550489, Alt.=144.498169m. Speed=0.036000m/h.</desc>
<speed>0.010000</speed>
</trkpt>
<trkpt lat="55.726898" lon="26.550489">
<ele>144.498169</ele>
<time>2010-07-18T12:48:38Z</time>
<desc>lat.=55.726898, lon.=26.550489, Alt.=144.498169m. Speed=0.072000m/h.</desc>
<speed>0.020000</speed>
</trkpt>
<trkpt lat="55.726898" lon="26.550489">
<ele>144.502075</ele>
<time>2010-07-18T12:48:39Z</time>
<desc>lat.=55.726898, lon.=26.550489, Alt.=144.502075m. Speed=0.000000m/h.</desc>
<speed>0.000000</speed>
</trkpt>
<trkpt lat="55.726898" lon="26.550489">
<ele>144.502075</ele>
<time>2010-07-18T12:48:40Z</time>
<desc>lat.=55.726898, lon.=26.550489, Alt.=144.502075m. Speed=0.000000m/h.</desc>
<speed>0.000000</speed>
</trkpt>
<trkpt lat="55.726898" lon="26.550489">
<ele>144.505981</ele>
<time>2010-07-18T12:48:41Z</time>
<desc>lat.=55.726898, lon.=26.550489, Alt.=144.505981m. Speed=0.000000m/h.</desc>
<speed>0.000000</speed>
</trkpt>
<trkpt lat="55.726898" lon="26.550489">
<ele>144.505981</ele>
<time>2010-07-18T12:48:42Z</time>
<desc>lat.=55.726898, lon.=26.550489, Alt.=144.505981m. Speed=0.000000m/h.</desc>
<speed>0.000000</speed>
</trkpt>
<trkpt lat="55.726898" lon="26.550489">
<ele>144.509888</ele>
<time>2010-07-18T12:48:43Z</time>
<desc>lat.=55.726898, lon.=26.550489, Alt.=144.509888m. Speed=0.072000m/h.</desc>
<speed>0.020000</speed>
</trkpt>
<trkpt lat="55.726898" lon="26.550489">
<ele>144.509888</ele>
<time>2010-07-18T12:48:44Z</time>
<desc>lat.=55.726898, lon.=26.550489, Alt.=144.509888m. Speed=0.000000m/h.</desc>
<speed>0.000000</speed>
</trkpt>
<trkpt lat="55.726898" lon="26.550489">
<ele>144.513794</ele>
<time>2010-07-18T12:48:45Z</time>
<desc>lat.=55.726898, lon.=26.550489, Alt.=144.513794m. Speed=0.072000m/h.</desc>
<speed>0.020000</speed>
</trkpt>
<trkpt lat="55.726898" lon="26.550489">
<ele>144.513794</ele>
<time>2010-07-18T12:48:46Z</time>
<desc>lat.=55.726898, lon.=26.550489, Alt.=144.513794m. Speed=0.108000m/h.</desc>
<speed>0.030000</speed>
</trkpt>
<trkpt lat="55.726898" lon="26.550489">
<ele>144.517700</ele>
<time>2010-07-18T12:48:47Z</time>
<desc>lat.=55.726898, lon.=26.550489, Alt.=144.517700m. Speed=0.072000m/h.</desc>
<speed>0.020000</speed>
</trkpt>
<trkpt lat="55.726898" lon="26.550489">
<ele>144.521606</ele>
<time>2010-07-18T12:48:48Z</time>
<desc>lat.=55.726898, lon.=26.550489, Alt.=144.521606m. Speed=0.036000m/h.</desc>
<speed>0.010000</speed>
</trkpt>
<trkpt lat="55.726898" lon="26.550489">
<ele>144.521606</ele>
<time>2010-07-18T12:48:49Z</time>
<desc>lat.=55.726898, lon.=26.550489, Alt.=144.521606m. Speed=0.000000m/h.</desc>
<speed>0.000000</speed>
</trkpt>
<trkpt lat="55.726898" lon="26.550489">
<ele>144.521606</ele>
<time>2010-07-18T12:48:50Z</time>
<desc>lat.=55.726898, lon.=26.550489, Alt.=144.521606m. Speed=0.000000m/h.</desc>
<speed>0.000000</speed>
</trkpt>
<trkpt lat="55.726898" lon="26.550489">
<ele>144.521606</ele>
<time>2010-07-18T12:48:51Z</time>
<desc>lat.=55.726898, lon.=26.550489, Alt.=144.521606m. Speed=0.036000m/h.</desc>
<speed>0.010000</speed>
</trkpt>
<trkpt lat="55.726898" lon="26.550489">
<ele>144.521606</ele>
<time>2010-07-18T12:48:52Z</time>
<desc>lat.=55.726898, lon.=26.550489, Alt.=144.521606m. Speed=0.036000m/h.</desc>
<speed>0.010000</speed>
</trkpt>
<trkpt lat="55.726898" lon="26.550489">
<ele>144.517700</ele>
<time>2010-07-18T12:48:53Z</time>
<desc>lat.=55.726898, lon.=26.550489, Alt.=144.517700m. Speed=0.000000m/h.</desc>
<speed>0.000000</speed>
</trkpt>
<trkpt lat="55.726898" lon="26.550489">
<ele>144.517700</ele>
<time>2010-07-18T12:48:54Z</time>
<desc>lat.=55.726898, lon.=26.550489, Alt.=144.517700m. Speed=0.000000m/h.</desc>
<speed>0.000000</speed>
</trkpt>
<trkpt lat="55.726898" lon="26.550489">
<ele>144.517700</ele>
<time>2010-07-18T12:48:55Z</time>
<desc>lat.=55.726898, lon.=26.550489, Alt.=144.517700m. Speed=0.000000m/h.</desc>
<speed>0.000000</speed>
</trkpt>
<trkpt lat="55.726898" lon="26.550489">
<ele>144.513794</ele>
<time>2010-07-18T12:48:56Z</time>
<desc>lat.=55.726898, lon.=26.550489, Alt.=144.513794m. Speed=0.000000m/h.</desc>
<speed>0.000000</speed>
</trkpt>
<trkpt lat="55.726898" lon="26.550489">
<ele>144.509888</ele>
<time>2010-07-18T12:48:57Z</time>
<desc>lat.=55.726898, lon.=26.550489, Alt.=144.509888m. Speed=0.072000m/h.</desc>
<speed>0.020000</speed>
</trkpt>
<trkpt lat="55.726898" lon="26.550489">
<ele>144.509888</ele>
<time>2010-07-18T12:48:58Z</time>
<desc>lat.=55.726898, lon.=26.550489, Alt.=144.509888m. Speed=0.036000m/h.</desc>
<speed>0.010000</speed>
</trkpt>
<trkpt lat="55.726898" lon="26.550489">
<ele>144.505981</ele>
<time>2010-07-18T12:48:59Z</time>
<desc>lat.=55.726898, lon.=26.550489, Alt.=144.505981m. Speed=0.000000m/h.</desc>
<speed>0.000000</speed>
</trkpt>
<trkpt lat="55.726898" lon="26.550489">
<ele>144.505981</ele>
<time>2010-07-18T12:49:00Z</time>
<desc>lat.=55.726898, lon.=26.550489, Alt.=144.505981m. Speed=0.036000m/h.</desc>
<speed>0.010000</speed>
</trkpt>
<trkpt lat="55.726898" lon="26.550489">
<ele>144.502075</ele>
<time>2010-07-18T12:49:01Z</time>
<desc>lat.=55.726898, lon.=26.550489, Alt.=144.502075m. Speed=0.108000m/h.</desc>
<speed>0.030000</speed>
</trkpt>
<trkpt lat="55.726898" lon="26.550489">
<ele>144.505981</ele>
<time>2010-07-18T12:49:02Z</time>
<desc>lat.=55.726898, lon.=26.550489, Alt.=144.505981m. Speed=0.072000m/h.</desc>
<speed>0.020000</speed>
</trkpt>
<trkpt lat="55.726898" lon="26.550489">
<ele>144.502075</ele>
<time>2010-07-18T12:49:03Z</time>
<desc>lat.=55.726898, lon.=26.550489, Alt.=144.502075m. Speed=0.036000m/h.</desc>
<speed>0.010000</speed>
</trkpt>
<trkpt lat="55.726898" lon="26.550489">
<ele>144.505981</ele>
<time>2010-07-18T12:49:04Z</time>
<desc>lat.=55.726898, lon.=26.550489, Alt.=144.505981m. Speed=0.000000m/h.</desc>
<speed>0.000000</speed>
</trkpt>
<trkpt lat="55.726898" lon="26.550489">
<ele>144.505981</ele>
<time>2010-07-18T12:49:05Z</time>
<desc>lat.=55.726898, lon.=26.550489, Alt.=144.505981m. Speed=0.000000m/h.</desc>
<speed>0.000000</speed>
</trkpt>
<trkpt lat="55.726898" lon="26.550489">
<ele>144.505981</ele>
<time>2010-07-18T12:49:06Z</time>
<desc>lat.=55.726898, lon.=26.550489, Alt.=144.505981m. Speed=0.036000m/h.</desc>
<speed>0.010000</speed>
</trkpt>
<trkpt lat="55.726898" lon="26.550489">
<ele>144.505981</ele>
<time>2010-07-18T12:49:07Z</time>
<desc>lat.=55.726898, lon.=26.550489, Alt.=144.505981m. Speed=0.036000m/h.</desc>
<speed>0.010000</speed>
</trkpt>
<trkpt lat="55.726898" lon="26.550489">
<ele>144.505981</ele>
<time>2010-07-18T12:49:08Z</time>
<desc>lat.=55.726898, lon.=26.550489, Alt.=144.505981m. Speed=0.000000m/h.</desc>
<speed>0.000000</speed>
</trkpt>
<trkpt lat="55.726898" lon="26.550489">
<ele>144.505981</ele>
<time>2010-07-18T12:49:09Z</time>
<desc>lat.=55.726898, lon.=26.550489, Alt.=144.505981m. Speed=0.000000m/h.</desc>
<speed>0.000000</speed>
</trkpt>
<trkpt lat="55.726898" lon="26.550489">
<ele>144.505981</ele>
<time>2010-07-18T12:49:10Z</time>
<desc>lat.=55.726898, lon.=26.550489, Alt.=144.505981m. Speed=0.000000m/h.</desc>
<speed>0.000000</speed>
</trkpt>
<trkpt lat="55.726898" lon="26.550489">
<ele>144.505981</ele>
<time>2010-07-18T12:49:11Z</time>
<desc>lat.=55.726898, lon.=26.550489, Alt.=144.505981m. Speed=0.000000m/h.</desc>
<speed>0.000000</speed>
</trkpt>
<trkpt lat="55.726898" lon="26.550489">
<ele>144.509888</ele>
<time>2010-07-18T12:49:12Z</time>
<desc>lat.=55.726898, lon.=26.550489, Alt.=144.509888m. Speed=0.000000m/h.</desc>
<speed>0.000000</speed>
</trkpt>
<trkpt lat="55.726898" lon="26.550489">
<ele>144.509888</ele>
<time>2010-07-18T12:49:13Z</time>
<desc>lat.=55.726898, lon.=26.550489, Alt.=144.509888m. Speed=0.000000m/h.</desc>
<speed>0.000000</speed>
</trkpt>
<trkpt lat="55.726898" lon="26.550489">
<ele>144.509888</ele>
<time>2010-07-18T12:49:14Z</time>
<desc>lat.=55.726898, lon.=26.550489, Alt.=144.509888m. Speed=0.000000m/h.</desc>
<speed>0.000000</speed>
</trkpt>
<trkpt lat="55.726898" lon="26.550489">
<ele>144.509888</ele>
<time>2010-07-18T12:49:15Z</time>
<desc>lat.=55.726898, lon.=26.550489, Alt.=144.509888m. Speed=0.000000m/h.</desc>
<speed>0.000000</speed>
</trkpt>
<trkpt lat="55.726898" lon="26.550489">
<ele>144.509888</ele>
<time>2010-07-18T12:49:16Z</time>
<desc>lat.=55.726898, lon.=26.550489, Alt.=144.509888m. Speed=0.000000m/h.</desc>
<speed>0.000000</speed>
</trkpt>
<trkpt lat="55.726898" lon="26.550489">
<ele>144.505981</ele>
<time>2010-07-18T12:49:17Z</time>
<desc>lat.=55.726898, lon.=26.550489, Alt.=144.505981m. Speed=0.000000m/h.</desc>
<speed>0.000000</speed>
</trkpt>
<trkpt lat="55.726898" lon="26.550489">
<ele>144.505981</ele>
<time>2010-07-18T12:49:18Z</time>
<desc>lat.=55.726898, lon.=26.550489, Alt.=144.505981m. Speed=0.000000m/h.</desc>
<speed>0.000000</speed>
</trkpt>
<trkpt lat="55.726898" lon="26.550489">
<ele>144.505981</ele>
<time>2010-07-18T12:49:19Z</time>
<desc>lat.=55.726898, lon.=26.550489, Alt.=144.505981m. Speed=0.000000m/h.</desc>
<speed>0.000000</speed>
</trkpt>
<trkpt lat="55.726898" lon="26.550489">
<ele>144.505981</ele>
<time>2010-07-18T12:49:20Z</time>
<desc>lat.=55.726898, lon.=26.550489, Alt.=144.505981m. Speed=0.000000m/h.</desc>
<speed>0.000000</speed>
</trkpt>
<trkpt lat="55.726898" lon="26.550489">
<ele>144.505981</ele>
<time>2010-07-18T12:49:21Z</time>
<desc>lat.=55.726898, lon.=26.550489, Alt.=144.505981m. Speed=0.000000m/h.</desc>
<speed>0.000000</speed>
</trkpt>
<trkpt lat="55.726898" lon="26.550489">
<ele>144.505981</ele>
<time>2010-07-18T12:49:22Z</time>
<desc>lat.=55.726898, lon.=26.550489, Alt.=144.505981m. Speed=0.036000m/h.</desc>
<speed>0.010000</speed>
</trkpt>
<trkpt lat="55.726898" lon="26.550489">
<ele>144.505981</ele>
<time>2010-07-18T12:49:23Z</time>
<desc>lat.=55.726898, lon.=26.550489, Alt.=144.505981m. Speed=0.000000m/h.</desc>
<speed>0.000000</speed>
</trkpt>
<trkpt lat="55.726898" lon="26.550489">
<ele>144.505981</ele>
<time>2010-07-18T12:49:24Z</time>
<desc>lat.=55.726898, lon.=26.550489, Alt.=144.505981m. Speed=0.000000m/h.</desc>
<speed>0.000000</speed>
</trkpt>
<trkpt lat="55.726898" lon="26.550489">
<ele>144.502075</ele>
<time>2010-07-18T12:49:25Z</time>
<desc>lat.=55.726898, lon.=26.550489, Alt.=144.502075m. Speed=0.036000m/h.</desc>
<speed>0.010000</speed>
</trkpt>
<trkpt lat="55.726898" lon="26.550489">
<ele>144.502075</ele>
<time>2010-07-18T12:49:26Z</time>
<desc>lat.=55.726898, lon.=26.550489, Alt.=144.502075m. Speed=0.036000m/h.</desc>
<speed>0.010000</speed>
</trkpt>
<trkpt lat="55.726898" lon="26.550489">
<ele>144.505981</ele>
<time>2010-07-18T12:49:27Z</time>
<desc>lat.=55.726898, lon.=26.550489, Alt.=144.505981m. Speed=0.036000m/h.</desc>
<speed>0.010000</speed>
</trkpt>
<trkpt lat="55.726898" lon="26.550489">
<ele>144.505981</ele>
<time>2010-07-18T12:49:28Z</time>
<desc>lat.=55.726898, lon.=26.550489, Alt.=144.505981m. Speed=0.036000m/h.</desc>
<speed>0.010000</speed>
</trkpt>
<trkpt lat="55.726898" lon="26.550489">
<ele>144.513794</ele>
<time>2010-07-18T12:49:29Z</time>
<desc>lat.=55.726898, lon.=26.550489, Alt.=144.513794m. Speed=0.036000m/h.</desc>
<speed>0.010000</speed>
</trkpt>
<trkpt lat="55.726898" lon="26.550489">
<ele>144.517700</ele>
<time>2010-07-18T12:49:30Z</time>
<desc>lat.=55.726898, lon.=26.550489, Alt.=144.517700m. Speed=0.000000m/h.</desc>
<speed>0.000000</speed>
</trkpt>
<trkpt lat="55.726898" lon="26.550489">
<ele>144.521606</ele>
<time>2010-07-18T12:49:31Z</time>
<desc>lat.=55.726898, lon.=26.550489, Alt.=144.521606m. Speed=0.000000m/h.</desc>
<speed>0.000000</speed>
</trkpt>
<trkpt lat="55.726898" lon="26.550489">
<ele>144.529419</ele>
<time>2010-07-18T12:49:32Z</time>
<desc>lat.=55.726898, lon.=26.550489, Alt.=144.529419m. Speed=0.000000m/h.</desc>
<speed>0.000000</speed>
</trkpt>
<trkpt lat="55.726898" lon="26.550489">
<ele>144.533325</ele>
<time>2010-07-18T12:49:33Z</time>
<desc>lat.=55.726898, lon.=26.550489, Alt.=144.533325m. Speed=0.036000m/h.</desc>
<speed>0.010000</speed>
</trkpt>
<trkpt lat="55.726898" lon="26.550489">
<ele>144.541138</ele>
<time>2010-07-18T12:49:34Z</time>
<desc>lat.=55.726898, lon.=26.550489, Alt.=144.541138m. Speed=0.000000m/h.</desc>
<speed>0.000000</speed>
</trkpt>
<trkpt lat="55.726898" lon="26.550489">
<ele>144.548950</ele>
<time>2010-07-18T12:49:35Z</time>
<desc>lat.=55.726898, lon.=26.550489, Alt.=144.548950m. Speed=0.072000m/h.</desc>
<speed>0.020000</speed>
</trkpt>
<trkpt lat="55.726898" lon="26.550489">
<ele>144.548950</ele>
<time>2010-07-18T12:49:36Z</time>
<desc>lat.=55.726898, lon.=26.550489, Alt.=144.548950m. Speed=0.036000m/h.</desc>
<speed>0.010000</speed>
</trkpt>
<trkpt lat="55.726898" lon="26.550489">
<ele>144.552856</ele>
<time>2010-07-18T12:49:37Z</time>
<desc>lat.=55.726898, lon.=26.550489, Alt.=144.552856m. Speed=0.000000m/h.</desc>
<speed>0.000000</speed>
</trkpt>
<trkpt lat="55.726898" lon="26.550489">
<ele>144.556763</ele>
<time>2010-07-18T12:49:38Z</time>
<desc>lat.=55.726898, lon.=26.550489, Alt.=144.556763m. Speed=0.036000m/h.</desc>
<speed>0.010000</speed>
</trkpt>
<trkpt lat="55.726898" lon="26.550489">
<ele>144.560669</ele>
<time>2010-07-18T12:49:39Z</time>
<desc>lat.=55.726898, lon.=26.550489, Alt.=144.560669m. Speed=0.036000m/h.</desc>
<speed>0.010000</speed>
</trkpt>
<trkpt lat="55.726898" lon="26.550489">
<ele>144.560669</ele>
<time>2010-07-18T12:49:40Z</time>
<desc>lat.=55.726898, lon.=26.550489, Alt.=144.560669m. Speed=0.000000m/h.</desc>
<speed>0.000000</speed>
</trkpt>
<trkpt lat="55.726898" lon="26.550489">
<ele>144.564575</ele>
<time>2010-07-18T12:49:41Z</time>
<desc>lat.=55.726898, lon.=26.550489, Alt.=144.564575m. Speed=0.036000m/h.</desc>
<speed>0.010000</speed>
</trkpt>
<trkpt lat="55.726898" lon="26.550488">
<ele>144.568481</ele>
<time>2010-07-18T12:49:42Z</time>
<desc>lat.=55.726898, lon.=26.550488, Alt.=144.568481m. Speed=0.036000m/h.</desc>
<speed>0.010000</speed>
</trkpt>
<trkpt lat="55.726898" lon="26.550488">
<ele>144.568481</ele>
<time>2010-07-18T12:49:43Z</time>
<desc>lat.=55.726898, lon.=26.550488, Alt.=144.568481m. Speed=0.000000m/h.</desc>
<speed>0.000000</speed>
</trkpt>
<trkpt lat="55.726898" lon="26.550488">
<ele>144.572388</ele>
<time>2010-07-18T12:49:44Z</time>
<desc>lat.=55.726898, lon.=26.550488, Alt.=144.572388m. Speed=0.108000m/h.</desc>
<speed>0.030000</speed>
</trkpt>
<trkpt lat="55.726898" lon="26.550488">
<ele>144.576294</ele>
<time>2010-07-18T12:49:45Z</time>
<desc>lat.=55.726898, lon.=26.550488, Alt.=144.576294m. Speed=0.000000m/h.</desc>
<speed>0.000000</speed>
</trkpt>
<trkpt lat="55.726898" lon="26.550488">
<ele>144.576294</ele>
<time>2010-07-18T12:49:46Z</time>
<desc>lat.=55.726898, lon.=26.550488, Alt.=144.576294m. Speed=0.000000m/h.</desc>
<speed>0.000000</speed>
</trkpt>
<trkpt lat="55.726898" lon="26.550488">
<ele>144.580200</ele>
<time>2010-07-18T12:49:47Z</time>
<desc>lat.=55.726898, lon.=26.550488, Alt.=144.580200m. Speed=0.000000m/h.</desc>
<speed>0.000000</speed>
</trkpt>
<trkpt lat="55.726898" lon="26.550488">
<ele>144.584106</ele>
<time>2010-07-18T12:49:48Z</time>
<desc>lat.=55.726898, lon.=26.550488, Alt.=144.584106m. Speed=0.000000m/h.</desc>
<speed>0.000000</speed>
</trkpt>
<trkpt lat="55.726898" lon="26.550488">
<ele>144.584106</ele>
<time>2010-07-18T12:49:49Z</time>
<desc>lat.=55.726898, lon.=26.550488, Alt.=144.584106m. Speed=0.000000m/h.</desc>
<speed>0.000000</speed>
</trkpt>
<trkpt lat="55.726898" lon="26.550488">
<ele>144.584106</ele>
<time>2010-07-18T12:49:50Z</time>
<desc>lat.=55.726898, lon.=26.550488, Alt.=144.584106m. Speed=0.000000m/h.</desc>
<speed>0.000000</speed>
</trkpt>
<trkpt lat="55.726898" lon="26.550488">
<ele>144.584106</ele>
<time>2010-07-18T12:49:51Z</time>
<desc>lat.=55.726898, lon.=26.550488, Alt.=144.584106m. Speed=0.036000m/h.</desc>
<speed>0.010000</speed>
</trkpt>
<trkpt lat="55.726898" lon="26.550488">
<ele>144.584106</ele>
<time>2010-07-18T12:49:52Z</time>
<desc>lat.=55.726898, lon.=26.550488, Alt.=144.584106m. Speed=0.036000m/h.</desc>
<speed>0.010000</speed>
</trkpt>
<trkpt lat="55.726898" lon="26.550488">
<ele>144.584106</ele>
<time>2010-07-18T12:49:53Z</time>
<desc>lat.=55.726898, lon.=26.550488, Alt.=144.584106m. Speed=0.000000m/h.</desc>
<speed>0.000000</speed>
</trkpt>
<trkpt lat="55.726898" lon="26.550488">
<ele>144.584106</ele>
<time>2010-07-18T12:49:54Z</time>
<desc>lat.=55.726898, lon.=26.550488, Alt.=144.584106m. Speed=0.144000m/h.</desc>
<speed>0.040000</speed>
</trkpt>
<trkpt lat="55.726898" lon="26.550488">
<ele>144.580200</ele>
<time>2010-07-18T12:49:55Z</time>
<desc>lat.=55.726898, lon.=26.550488, Alt.=144.580200m. Speed=0.036000m/h.</desc>
<speed>0.010000</speed>
</trkpt>
<trkpt lat="55.726898" lon="26.550488">
<ele>144.580200</ele>
<time>2010-07-18T12:49:56Z</time>
<desc>lat.=55.726898, lon.=26.550488, Alt.=144.580200m. Speed=0.072000m/h.</desc>
<speed>0.020000</speed>
</trkpt>
<trkpt lat="55.726898" lon="26.550488">
<ele>144.576294</ele>
<time>2010-07-18T12:49:57Z</time>
<desc>lat.=55.726898, lon.=26.550488, Alt.=144.576294m. Speed=0.036000m/h.</desc>
<speed>0.010000</speed>
</trkpt>
<trkpt lat="55.726898" lon="26.550488">
<ele>144.576294</ele>
<time>2010-07-18T12:49:58Z</time>
<desc>lat.=55.726898, lon.=26.550488, Alt.=144.576294m. Speed=0.000000m/h.</desc>
<speed>0.000000</speed>
</trkpt>
<trkpt lat="55.726898" lon="26.550488">
<ele>144.572388</ele>
<time>2010-07-18T12:49:59Z</time>
<desc>lat.=55.726898, lon.=26.550488, Alt.=144.572388m. Speed=0.036000m/h.</desc>
<speed>0.010000</speed>
</trkpt>
<trkpt lat="55.726898" lon="26.550488">
<ele>144.568481</ele>
<time>2010-07-18T12:50:00Z</time>
<desc>lat.=55.726898, lon.=26.550488, Alt.=144.568481m. Speed=0.000000m/h.</desc>
<speed>0.000000</speed>
</trkpt>
<trkpt lat="55.726898" lon="26.550488">
<ele>144.568481</ele>
<time>2010-07-18T12:50:01Z</time>
<desc>lat.=55.726898, lon.=26.550488, Alt.=144.568481m. Speed=0.036000m/h.</desc>
<speed>0.010000</speed>
</trkpt>
<trkpt lat="55.726898" lon="26.550488">
<ele>144.564575</ele>
<time>2010-07-18T12:50:02Z</time>
<desc>lat.=55.726898, lon.=26.550488, Alt.=144.564575m. Speed=0.036000m/h.</desc>
<speed>0.010000</speed>
</trkpt>
<trkpt lat="55.726898" lon="26.550488">
<ele>144.564575</ele>
<time>2010-07-18T12:50:03Z</time>
<desc>lat.=55.726898, lon.=26.550488, Alt.=144.564575m. Speed=0.036000m/h.</desc>
<speed>0.010000</speed>
</trkpt>
<trkpt lat="55.726898" lon="26.550488">
<ele>144.560669</ele>
<time>2010-07-18T12:50:04Z</time>
<desc>lat.=55.726898, lon.=26.550488, Alt.=144.560669m. Speed=0.000000m/h.</desc>
<speed>0.000000</speed>
</trkpt>
<trkpt lat="55.726898" lon="26.550488">
<ele>144.560669</ele>
<time>2010-07-18T12:50:05Z</time>
<desc>lat.=55.726898, lon.=26.550488, Alt.=144.560669m. Speed=0.000000m/h.</desc>
<speed>0.000000</speed>
</trkpt>
<trkpt lat="55.726898" lon="26.550488">
<ele>144.560669</ele>
<time>2010-07-18T12:50:06Z</time>
<desc>lat.=55.726898, lon.=26.550488, Alt.=144.560669m. Speed=0.072000m/h.</desc>
<speed>0.020000</speed>
</trkpt>
<trkpt lat="55.726898" lon="26.550488">
<ele>144.556763</ele>
<time>2010-07-18T12:50:07Z</time>
<desc>lat.=55.726898, lon.=26.550488, Alt.=144.556763m. Speed=0.036000m/h.</desc>
<speed>0.010000</speed>
</trkpt>
<trkpt lat="55.726898" lon="26.550488">
<ele>144.560669</ele>
<time>2010-07-18T12:50:08Z</time>
<desc>lat.=55.726898, lon.=26.550488, Alt.=144.560669m. Speed=0.036000m/h.</desc>
<speed>0.010000</speed>
</trkpt>
<trkpt lat="55.726898" lon="26.550488">
<ele>144.556763</ele>
<time>2010-07-18T12:50:09Z</time>
<desc>lat.=55.726898, lon.=26.550488, Alt.=144.556763m. Speed=0.000000m/h.</desc>
<speed>0.000000</speed>
</trkpt>
<trkpt lat="55.726898" lon="26.550488">
<ele>144.556763</ele>
<time>2010-07-18T12:50:10Z</time>
<desc>lat.=55.726898, lon.=26.550488, Alt.=144.556763m. Speed=0.000000m/h.</desc>
<speed>0.000000</speed>
</trkpt>
<trkpt lat="55.726898" lon="26.550488">
<ele>144.556763</ele>
<time>2010-07-18T12:50:11Z</time>
<desc>lat.=55.726898, lon.=26.550488, Alt.=144.556763m. Speed=0.000000m/h.</desc>
<speed>0.000000</speed>
</trkpt>
<trkpt lat="55.726898" lon="26.550488">
<ele>144.556763</ele>
<time>2010-07-18T12:50:12Z</time>
<desc>lat.=55.726898, lon.=26.550488, Alt.=144.556763m. Speed=0.000000m/h.</desc>
<speed>0.000000</speed>
</trkpt>
<trkpt lat="55.726902" lon="26.550488">
<ele>144.552856</ele>
<time>2010-07-18T12:50:13Z</time>
<desc>lat.=55.726902, lon.=26.550488, Alt.=144.552856m. Speed=0.000000m/h.</desc>
<speed>0.000000</speed>
</trkpt>
<trkpt lat="55.726902" lon="26.550488">
<ele>144.556763</ele>
<time>2010-07-18T12:50:14Z</time>
<desc>lat.=55.726902, lon.=26.550488, Alt.=144.556763m. Speed=0.000000m/h.</desc>
<speed>0.000000</speed>
</trkpt>
<trkpt lat="55.726902" lon="26.550488">
<ele>144.556763</ele>
<time>2010-07-18T12:50:15Z</time>
<desc>lat.=55.726902, lon.=26.550488, Alt.=144.556763m. Speed=0.144000m/h.</desc>
<speed>0.040000</speed>
</trkpt>
<trkpt lat="55.726902" lon="26.550488">
<ele>144.552856</ele>
<time>2010-07-18T12:50:16Z</time>
<desc>lat.=55.726902, lon.=26.550488, Alt.=144.552856m. Speed=0.036000m/h.</desc>
<speed>0.010000</speed>
</trkpt>
<trkpt lat="55.726902" lon="26.550488">
<ele>144.552856</ele>
<time>2010-07-18T12:50:17Z</time>
<desc>lat.=55.726902, lon.=26.550488, Alt.=144.552856m. Speed=0.072000m/h.</desc>
<speed>0.020000</speed>
</trkpt>
<trkpt lat="55.726902" lon="26.550488">
<ele>144.552856</ele>
<time>2010-07-18T12:50:18Z</time>
<desc>lat.=55.726902, lon.=26.550488, Alt.=144.552856m. Speed=0.072000m/h.</desc>
<speed>0.020000</speed>
</trkpt>
<trkpt lat="55.726902" lon="26.550488">
<ele>144.552856</ele>
<time>2010-07-18T12:50:19Z</time>
<desc>lat.=55.726902, lon.=26.550488, Alt.=144.552856m. Speed=0.036000m/h.</desc>
<speed>0.010000</speed>
</trkpt>
<trkpt lat="55.726902" lon="26.550488">
<ele>144.552856</ele>
<time>2010-07-18T12:50:20Z</time>
<desc>lat.=55.726902, lon.=26.550488, Alt.=144.552856m. Speed=0.036000m/h.</desc>
<speed>0.010000</speed>
</trkpt>
<trkpt lat="55.726902" lon="26.550488">
<ele>144.552856</ele>
<time>2010-07-18T12:50:21Z</time>
<desc>lat.=55.726902, lon.=26.550488, Alt.=144.552856m. Speed=0.000000m/h.</desc>
<speed>0.000000</speed>
</trkpt>
<trkpt lat="55.726902" lon="26.550488">
<ele>144.548950</ele>
<time>2010-07-18T12:50:22Z</time>
<desc>lat.=55.726902, lon.=26.550488, Alt.=144.548950m. Speed=0.000000m/h.</desc>
<speed>0.000000</speed>
</trkpt>
<trkpt lat="55.726902" lon="26.550488">
<ele>144.548950</ele>
<time>2010-07-18T12:50:23Z</time>
<desc>lat.=55.726902, lon.=26.550488, Alt.=144.548950m. Speed=0.000000m/h.</desc>
<speed>0.000000</speed>
</trkpt>
<trkpt lat="55.726902" lon="26.550488">
<ele>144.548950</ele>
<time>2010-07-18T12:50:24Z</time>
<desc>lat.=55.726902, lon.=26.550488, Alt.=144.548950m. Speed=0.000000m/h.</desc>
<speed>0.000000</speed>
</trkpt>
<trkpt lat="55.726902" lon="26.550488">
<ele>144.548950</ele>
<time>2010-07-18T12:50:25Z</time>
<desc>lat.=55.726902, lon.=26.550488, Alt.=144.548950m. Speed=0.000000m/h.</desc>
<speed>0.000000</speed>
</trkpt>
<trkpt lat="55.726902" lon="26.550488">
<ele>144.548950</ele>
<time>2010-07-18T12:50:26Z</time>
<desc>lat.=55.726902, lon.=26.550488, Alt.=144.548950m. Speed=0.000000m/h.</desc>
<speed>0.000000</speed>
</trkpt>
<trkpt lat="55.726902" lon="26.550488">
<ele>144.548950</ele>
<time>2010-07-18T12:50:27Z</time>
<desc>lat.=55.726902, lon.=26.550488, Alt.=144.548950m. Speed=0.000000m/h.</desc>
<speed>0.000000</speed>
</trkpt>
<trkpt lat="55.726902" lon="26.550488">
<ele>144.548950</ele>
<time>2010-07-18T12:50:28Z</time>
<desc>lat.=55.726902, lon.=26.550488, Alt.=144.548950m. Speed=0.000000m/h.</desc>
<speed>0.000000</speed>
</trkpt>
<trkpt lat="55.726902" lon="26.550488">
<ele>144.548950</ele>
<time>2010-07-18T12:50:29Z</time>
<desc>lat.=55.726902, lon.=26.550488, Alt.=144.548950m. Speed=0.036000m/h.</desc>
<speed>0.010000</speed>
</trkpt>
<trkpt lat="55.726902" lon="26.550488">
<ele>144.545044</ele>
<time>2010-07-18T12:50:30Z</time>
<desc>lat.=55.726902, lon.=26.550488, Alt.=144.545044m. Speed=0.072000m/h.</desc>
<speed>0.020000</speed>
</trkpt>
<trkpt lat="55.726902" lon="26.550488">
<ele>144.545044</ele>
<time>2010-07-18T12:50:31Z</time>
<desc>lat.=55.726902, lon.=26.550488, Alt.=144.545044m. Speed=0.036000m/h.</desc>
<speed>0.010000</speed>
</trkpt>
<trkpt lat="55.726902" lon="26.550488">
<ele>144.545044</ele>
<time>2010-07-18T12:50:32Z</time>
<desc>lat.=55.726902, lon.=26.550488, Alt.=144.545044m. Speed=0.000000m/h.</desc>
<speed>0.000000</speed>
</trkpt>
<trkpt lat="55.726902" lon="26.550488">
<ele>144.545044</ele>
<time>2010-07-18T12:50:33Z</time>
<desc>lat.=55.726902, lon.=26.550488, Alt.=144.545044m. Speed=0.000000m/h.</desc>
<speed>0.000000</speed>
</trkpt>
<trkpt lat="55.726902" lon="26.550488">
<ele>144.545044</ele>
<time>2010-07-18T12:50:34Z</time>
<desc>lat.=55.726902, lon.=26.550488, Alt.=144.545044m. Speed=0.036000m/h.</desc>
<speed>0.010000</speed>
</trkpt>
<trkpt lat="55.726902" lon="26.550488">
<ele>144.545044</ele>
<time>2010-07-18T12:50:35Z</time>
<desc>lat.=55.726902, lon.=26.550488, Alt.=144.545044m. Speed=0.000000m/h.</desc>
<speed>0.000000</speed>
</trkpt>
<trkpt lat="55.726902" lon="26.550488">
<ele>144.545044</ele>
<time>2010-07-18T12:50:36Z</time>
<desc>lat.=55.726902, lon.=26.550488, Alt.=144.545044m. Speed=0.036000m/h.</desc>
<speed>0.010000</speed>
</trkpt>
<trkpt lat="55.726902" lon="26.550488">
<ele>144.548950</ele>
<time>2010-07-18T12:50:37Z</time>
<desc>lat.=55.726902, lon.=26.550488, Alt.=144.548950m. Speed=0.108000m/h.</desc>
<speed>0.030000</speed>
</trkpt>
<trkpt lat="55.726902" lon="26.550488">
<ele>144.545044</ele>
<time>2010-07-18T12:50:38Z</time>
<desc>lat.=55.726902, lon.=26.550488, Alt.=144.545044m. Speed=0.036000m/h.</desc>
<speed>0.010000</speed>
</trkpt>
<trkpt lat="55.726902" lon="26.550488">
<ele>144.545044</ele>
<time>2010-07-18T12:50:39Z</time>
<desc>lat.=55.726902, lon.=26.550488, Alt.=144.545044m. Speed=0.000000m/h.</desc>
<speed>0.000000</speed>
</trkpt>
<trkpt lat="55.726902" lon="26.550488">
<ele>144.545044</ele>
<time>2010-07-18T12:50:40Z</time>
<desc>lat.=55.726902, lon.=26.550488, Alt.=144.545044m. Speed=0.036000m/h.</desc>
<speed>0.010000</speed>
</trkpt>
<trkpt lat="55.726902" lon="26.550488">
<ele>144.545044</ele>
<time>2010-07-18T12:50:41Z</time>
<desc>lat.=55.726902, lon.=26.550488, Alt.=144.545044m. Speed=0.036000m/h.</desc>
<speed>0.010000</speed>
</trkpt>
<trkpt lat="55.726902" lon="26.550488">
<ele>144.545044</ele>
<time>2010-07-18T12:50:42Z</time>
<desc>lat.=55.726902, lon.=26.550488, Alt.=144.545044m. Speed=0.000000m/h.</desc>
<speed>0.000000</speed>
</trkpt>
<trkpt lat="55.726902" lon="26.550488">
<ele>144.545044</ele>
<time>2010-07-18T12:50:43Z</time>
<desc>lat.=55.726902, lon.=26.550488, Alt.=144.545044m. Speed=0.072000m/h.</desc>
<speed>0.020000</speed>
</trkpt>
<trkpt lat="55.726902" lon="26.550488">
<ele>144.545044</ele>
<time>2010-07-18T12:50:44Z</time>
<desc>lat.=55.726902, lon.=26.550488, Alt.=144.545044m. Speed=0.072000m/h.</desc>
<speed>0.020000</speed>
</trkpt>
<trkpt lat="55.726902" lon="26.550488">
<ele>144.545044</ele>
<time>2010-07-18T12:50:45Z</time>
<desc>lat.=55.726902, lon.=26.550488, Alt.=144.545044m. Speed=0.504000m/h.</desc>
<speed>0.140000</speed>
</trkpt>
<trkpt lat="55.726902" lon="26.550488">
<ele>144.545044</ele>
<time>2010-07-18T12:50:46Z</time>
<desc>lat.=55.726902, lon.=26.550488, Alt.=144.545044m. Speed=0.036000m/h.</desc>
<speed>0.010000</speed>
</trkpt>
<trkpt lat="55.726902" lon="26.550486">
<ele>144.545044</ele>
<time>2010-07-18T12:50:47Z</time>
<desc>lat.=55.726902, lon.=26.550486, Alt.=144.545044m. Speed=0.396000m/h.</desc>
<speed>0.110000</speed>
</trkpt>
<trkpt lat="55.726902" lon="26.550486">
<ele>144.541138</ele>
<time>2010-07-18T12:50:48Z</time>
<desc>lat.=55.726902, lon.=26.550486, Alt.=144.541138m. Speed=0.072000m/h.</desc>
<speed>0.020000</speed>
</trkpt>
<trkpt lat="55.726902" lon="26.550486">
<ele>144.537231</ele>
<time>2010-07-18T12:50:49Z</time>
<desc>lat.=55.726902, lon.=26.550486, Alt.=144.537231m. Speed=0.036000m/h.</desc>
<speed>0.010000</speed>
</trkpt>
<trkpt lat="55.726902" lon="26.550486">
<ele>144.537231</ele>
<time>2010-07-18T12:50:50Z</time>
<desc>lat.=55.726902, lon.=26.550486, Alt.=144.537231m. Speed=0.144000m/h.</desc>
<speed>0.040000</speed>
</trkpt>
<trkpt lat="55.726902" lon="26.550486">
<ele>144.533325</ele>
<time>2010-07-18T12:50:51Z</time>
<desc>lat.=55.726902, lon.=26.550486, Alt.=144.533325m. Speed=0.180000m/h.</desc>
<speed>0.050000</speed>
</trkpt>
<trkpt lat="55.726902" lon="26.550486">
<ele>144.529419</ele>
<time>2010-07-18T12:50:52Z</time>
<desc>lat.=55.726902, lon.=26.550486, Alt.=144.529419m. Speed=0.036000m/h.</desc>
<speed>0.010000</speed>
</trkpt>
<trkpt lat="55.726902" lon="26.550486">
<ele>144.529419</ele>
<time>2010-07-18T12:50:53Z</time>
<desc>lat.=55.726902, lon.=26.550486, Alt.=144.529419m. Speed=0.000000m/h.</desc>
<speed>0.000000</speed>
</trkpt>
<trkpt lat="55.726902" lon="26.550486">
<ele>144.529419</ele>
<time>2010-07-18T12:50:54Z</time>
<desc>lat.=55.726902, lon.=26.550486, Alt.=144.529419m. Speed=0.036000m/h.</desc>
<speed>0.010000</speed>
</trkpt>
<trkpt lat="55.726902" lon="26.550486">
<ele>144.529419</ele>
<time>2010-07-18T12:50:55Z</time>
<desc>lat.=55.726902, lon.=26.550486, Alt.=144.529419m. Speed=0.036000m/h.</desc>
<speed>0.010000</speed>
</trkpt>
<trkpt lat="55.726902" lon="26.550486">
<ele>144.529419</ele>
<time>2010-07-18T12:50:56Z</time>
<desc>lat.=55.726902, lon.=26.550486, Alt.=144.529419m. Speed=0.000000m/h.</desc>
<speed>0.000000</speed>
</trkpt>
<trkpt lat="55.726902" lon="26.550486">
<ele>144.533325</ele>
<time>2010-07-18T12:50:57Z</time>
<desc>lat.=55.726902, lon.=26.550486, Alt.=144.533325m. Speed=0.000000m/h.</desc>
<speed>0.000000</speed>
</trkpt>
<trkpt lat="55.726902" lon="26.550486">
<ele>144.537231</ele>
<time>2010-07-18T12:50:58Z</time>
<desc>lat.=55.726902, lon.=26.550486, Alt.=144.537231m. Speed=0.000000m/h.</desc>
<speed>0.000000</speed>
</trkpt>
<trkpt lat="55.726902" lon="26.550486">
<ele>144.537231</ele>
<time>2010-07-18T12:50:59Z</time>
<desc>lat.=55.726902, lon.=26.550486, Alt.=144.537231m. Speed=0.000000m/h.</desc>
<speed>0.000000</speed>
</trkpt>
<trkpt lat="55.726902" lon="26.550486">
<ele>144.537231</ele>
<time>2010-07-18T12:51:00Z</time>
<desc>lat.=55.726902, lon.=26.550486, Alt.=144.537231m. Speed=0.000000m/h.</desc>
<speed>0.000000</speed>
</trkpt>
<trkpt lat="55.726902" lon="26.550486">
<ele>144.537231</ele>
<time>2010-07-18T12:51:01Z</time>
<desc>lat.=55.726902, lon.=26.550486, Alt.=144.537231m. Speed=0.000000m/h.</desc>
<speed>0.000000</speed>
</trkpt>
<trkpt lat="55.726902" lon="26.550486">
<ele>144.537231</ele>
<time>2010-07-18T12:51:02Z</time>
<desc>lat.=55.726902, lon.=26.550486, Alt.=144.537231m. Speed=0.000000m/h.</desc>
<speed>0.000000</speed>
</trkpt>
<trkpt lat="55.726902" lon="26.550486">
<ele>144.537231</ele>
<time>2010-07-18T12:51:03Z</time>
<desc>lat.=55.726902, lon.=26.550486, Alt.=144.537231m. Speed=0.000000m/h.</desc>
<speed>0.000000</speed>
</trkpt>
<trkpt lat="55.726902" lon="26.550486">
<ele>144.533325</ele>
<time>2010-07-18T12:51:04Z</time>
<desc>lat.=55.726902, lon.=26.550486, Alt.=144.533325m. Speed=0.000000m/h.</desc>
<speed>0.000000</speed>
</trkpt>
<trkpt lat="55.726902" lon="26.550488">
<ele>144.529419</ele>
<time>2010-07-18T12:51:05Z</time>
<desc>lat.=55.726902, lon.=26.550488, Alt.=144.529419m. Speed=0.000000m/h.</desc>
<speed>0.000000</speed>
</trkpt>
<trkpt lat="55.726902" lon="26.550488">
<ele>144.529419</ele>
<time>2010-07-18T12:51:06Z</time>
<desc>lat.=55.726902, lon.=26.550488, Alt.=144.529419m. Speed=0.000000m/h.</desc>
<speed>0.000000</speed>
</trkpt>
<trkpt lat="55.726902" lon="26.550488">
<ele>144.529419</ele>
<time>2010-07-18T12:51:07Z</time>
<desc>lat.=55.726902, lon.=26.550488, Alt.=144.529419m. Speed=0.000000m/h.</desc>
<speed>0.000000</speed>
</trkpt>
<trkpt lat="55.726902" lon="26.550488">
<ele>144.533325</ele>
<time>2010-07-18T12:51:08Z</time>
<desc>lat.=55.726902, lon.=26.550488, Alt.=144.533325m. Speed=0.036000m/h.</desc>
<speed>0.010000</speed>
</trkpt>
<trkpt lat="55.726902" lon="26.550488">
<ele>144.533325</ele>
<time>2010-07-18T12:51:09Z</time>
<desc>lat.=55.726902, lon.=26.550488, Alt.=144.533325m. Speed=0.000000m/h.</desc>
<speed>0.000000</speed>
</trkpt>
<trkpt lat="55.726902" lon="26.550488">
<ele>144.537231</ele>
<time>2010-07-18T12:51:10Z</time>
<desc>lat.=55.726902, lon.=26.550488, Alt.=144.537231m. Speed=0.000000m/h.</desc>
<speed>0.000000</speed>
</trkpt>
<trkpt lat="55.726902" lon="26.550488">
<ele>144.537231</ele>
<time>2010-07-18T12:51:11Z</time>
<desc>lat.=55.726902, lon.=26.550488, Alt.=144.537231m. Speed=0.000000m/h.</desc>
<speed>0.000000</speed>
</trkpt>
<trkpt lat="55.726902" lon="26.550486">
<ele>144.541138</ele>
<time>2010-07-18T12:51:12Z</time>
<desc>lat.=55.726902, lon.=26.550486, Alt.=144.541138m. Speed=0.000000m/h.</desc>
<speed>0.000000</speed>
</trkpt>
<trkpt lat="55.726902" lon="26.550486">
<ele>144.541138</ele>
<time>2010-07-18T12:51:13Z</time>
<desc>lat.=55.726902, lon.=26.550486, Alt.=144.541138m. Speed=0.000000m/h.</desc>
<speed>0.000000</speed>
</trkpt>
<trkpt lat="55.726902" lon="26.550486">
<ele>144.541138</ele>
<time>2010-07-18T12:51:14Z</time>
<desc>lat.=55.726902, lon.=26.550486, Alt.=144.541138m. Speed=0.000000m/h.</desc>
<speed>0.000000</speed>
</trkpt>
<trkpt lat="55.726902" lon="26.550486">
<ele>144.541138</ele>
<time>2010-07-18T12:51:15Z</time>
<desc>lat.=55.726902, lon.=26.550486, Alt.=144.541138m. Speed=0.000000m/h.</desc>
<speed>0.000000</speed>
</trkpt>
<trkpt lat="55.726902" lon="26.550486">
<ele>144.541138</ele>
<time>2010-07-18T12:51:16Z</time>
<desc>lat.=55.726902, lon.=26.550486, Alt.=144.541138m. Speed=0.000000m/h.</desc>
<speed>0.000000</speed>
</trkpt>
<trkpt lat="55.726902" lon="26.550486">
<ele>144.537231</ele>
<time>2010-07-18T12:51:17Z</time>
<desc>lat.=55.726902, lon.=26.550486, Alt.=144.537231m. Speed=0.000000m/h.</desc>
<speed>0.000000</speed>
</trkpt>
<trkpt lat="55.726902" lon="26.550486">
<ele>144.541138</ele>
<time>2010-07-18T12:51:18Z</time>
<desc>lat.=55.726902, lon.=26.550486, Alt.=144.541138m. Speed=0.000000m/h.</desc>
<speed>0.000000</speed>
</trkpt>
<trkpt lat="55.726902" lon="26.550486">
<ele>144.541138</ele>
<time>2010-07-18T12:51:19Z</time>
<desc>lat.=55.726902, lon.=26.550486, Alt.=144.541138m. Speed=0.036000m/h.</desc>
<speed>0.010000</speed>
</trkpt>
<trkpt lat="55.726902" lon="26.550486">
<ele>144.541138</ele>
<time>2010-07-18T12:51:20Z</time>
<desc>lat.=55.726902, lon.=26.550486, Alt.=144.541138m. Speed=0.000000m/h.</desc>
<speed>0.000000</speed>
</trkpt>
<trkpt lat="55.726902" lon="26.550486">
<ele>144.545044</ele>
<time>2010-07-18T12:51:21Z</time>
<desc>lat.=55.726902, lon.=26.550486, Alt.=144.545044m. Speed=0.000000m/h.</desc>
<speed>0.000000</speed>
</trkpt>
<trkpt lat="55.726902" lon="26.550486">
<ele>144.545044</ele>
<time>2010-07-18T12:51:22Z</time>
<desc>lat.=55.726902, lon.=26.550486, Alt.=144.545044m. Speed=0.000000m/h.</desc>
<speed>0.000000</speed>
</trkpt>
<trkpt lat="55.726902" lon="26.550486">
<ele>144.545044</ele>
<time>2010-07-18T12:51:23Z</time>
<desc>lat.=55.726902, lon.=26.550486, Alt.=144.545044m. Speed=0.000000m/h.</desc>
<speed>0.000000</speed>
</trkpt>
<trkpt lat="55.726902" lon="26.550486">
<ele>144.545044</ele>
<time>2010-07-18T12:51:24Z</time>
<desc>lat.=55.726902, lon.=26.550486, Alt.=144.545044m. Speed=0.000000m/h.</desc>
<speed>0.000000</speed>
</trkpt>
<trkpt lat="55.726902" lon="26.550486">
<ele>144.545044</ele>
<time>2010-07-18T12:51:25Z</time>
<desc>lat.=55.726902, lon.=26.550486, Alt.=144.545044m. Speed=0.000000m/h.</desc>
<speed>0.000000</speed>
</trkpt>
<trkpt lat="55.726902" lon="26.550486">
<ele>144.548950</ele>
<time>2010-07-18T12:51:26Z</time>
<desc>lat.=55.726902, lon.=26.550486, Alt.=144.548950m. Speed=0.000000m/h.</desc>
<speed>0.000000</speed>
</trkpt>
<trkpt lat="55.726902" lon="26.550486">
<ele>144.548950</ele>
<time>2010-07-18T12:51:27Z</time>
<desc>lat.=55.726902, lon.=26.550486, Alt.=144.548950m. Speed=0.000000m/h.</desc>
<speed>0.000000</speed>
</trkpt>
<trkpt lat="55.726902" lon="26.550486">
<ele>144.552856</ele>
<time>2010-07-18T12:51:28Z</time>
<desc>lat.=55.726902, lon.=26.550486, Alt.=144.552856m. Speed=0.000000m/h.</desc>
<speed>0.000000</speed>
</trkpt>
<trkpt lat="55.726902" lon="26.550486">
<ele>144.560669</ele>
<time>2010-07-18T12:51:29Z</time>
<desc>lat.=55.726902, lon.=26.550486, Alt.=144.560669m. Speed=0.036000m/h.</desc>
<speed>0.010000</speed>
</trkpt>
<trkpt lat="55.726902" lon="26.550486">
<ele>144.560669</ele>
<time>2010-07-18T12:51:30Z</time>
<desc>lat.=55.726902, lon.=26.550486, Alt.=144.560669m. Speed=0.036000m/h.</desc>
<speed>0.010000</speed>
</trkpt>
<trkpt lat="55.726902" lon="26.550486">
<ele>144.560669</ele>
<time>2010-07-18T12:51:31Z</time>
<desc>lat.=55.726902, lon.=26.550486, Alt.=144.560669m. Speed=0.036000m/h.</desc>
<speed>0.010000</speed>
</trkpt>
<trkpt lat="55.726902" lon="26.550486">
<ele>144.564575</ele>
<time>2010-07-18T12:51:32Z</time>
<desc>lat.=55.726902, lon.=26.550486, Alt.=144.564575m. Speed=0.288000m/h.</desc>
<speed>0.080000</speed>
</trkpt>
<trkpt lat="55.726902" lon="26.550486">
<ele>144.564575</ele>
<time>2010-07-18T12:51:33Z</time>
<desc>lat.=55.726902, lon.=26.550486, Alt.=144.564575m. Speed=0.036000m/h.</desc>
<speed>0.010000</speed>
</trkpt>
<trkpt lat="55.726902" lon="26.550486">
<ele>144.564575</ele>
<time>2010-07-18T12:51:34Z</time>
<desc>lat.=55.726902, lon.=26.550486, Alt.=144.564575m. Speed=0.036000m/h.</desc>
<speed>0.010000</speed>
</trkpt>
<trkpt lat="55.726902" lon="26.550486">
<ele>144.560669</ele>
<time>2010-07-18T12:51:35Z</time>
<desc>lat.=55.726902, lon.=26.550486, Alt.=144.560669m. Speed=0.000000m/h.</desc>
<speed>0.000000</speed>
</trkpt>
<trkpt lat="55.726902" lon="26.550486">
<ele>144.560669</ele>
<time>2010-07-18T12:51:36Z</time>
<desc>lat.=55.726902, lon.=26.550486, Alt.=144.560669m. Speed=0.036000m/h.</desc>
<speed>0.010000</speed>
</trkpt>
<trkpt lat="55.726902" lon="26.550486">
<ele>144.556763</ele>
<time>2010-07-18T12:51:37Z</time>
<desc>lat.=55.726902, lon.=26.550486, Alt.=144.556763m. Speed=0.000000m/h.</desc>
<speed>0.000000</speed>
</trkpt>
<trkpt lat="55.726902" lon="26.550486">
<ele>144.552856</ele>
<time>2010-07-18T12:51:38Z</time>
<desc>lat.=55.726902, lon.=26.550486, Alt.=144.552856m. Speed=0.036000m/h.</desc>
<speed>0.010000</speed>
</trkpt>
<trkpt lat="55.726902" lon="26.550486">
<ele>144.552856</ele>
<time>2010-07-18T12:51:39Z</time>
<desc>lat.=55.726902, lon.=26.550486, Alt.=144.552856m. Speed=0.000000m/h.</desc>
<speed>0.000000</speed>
</trkpt>
<trkpt lat="55.726902" lon="26.550486">
<ele>144.552856</ele>
<time>2010-07-18T12:51:40Z</time>
<desc>lat.=55.726902, lon.=26.550486, Alt.=144.552856m. Speed=0.036000m/h.</desc>
<speed>0.010000</speed>
</trkpt>
<trkpt lat="55.726902" lon="26.550486">
<ele>144.548950</ele>
<time>2010-07-18T12:51:41Z</time>
<desc>lat.=55.726902, lon.=26.550486, Alt.=144.548950m. Speed=0.036000m/h.</desc>
<speed>0.010000</speed>
</trkpt>
<trkpt lat="55.726902" lon="26.550486">
<ele>144.548950</ele>
<time>2010-07-18T12:51:42Z</time>
<desc>lat.=55.726902, lon.=26.550486, Alt.=144.548950m. Speed=0.036000m/h.</desc>
<speed>0.010000</speed>
</trkpt>
<trkpt lat="55.726902" lon="26.550486">
<ele>144.548950</ele>
<time>2010-07-18T12:51:43Z</time>
<desc>lat.=55.726902, lon.=26.550486, Alt.=144.548950m. Speed=0.000000m/h.</desc>
<speed>0.000000</speed>
</trkpt>
<trkpt lat="55.726902" lon="26.550486">
<ele>144.548950</ele>
<time>2010-07-18T12:51:44Z</time>
<desc>lat.=55.726902, lon.=26.550486, Alt.=144.548950m. Speed=0.036000m/h.</desc>
<speed>0.010000</speed>
</trkpt>
<trkpt lat="55.726902" lon="26.550486">
<ele>144.545044</ele>
<time>2010-07-18T12:51:45Z</time>
<desc>lat.=55.726902, lon.=26.550486, Alt.=144.545044m. Speed=0.072000m/h.</desc>
<speed>0.020000</speed>
</trkpt>
<trkpt lat="55.726902" lon="26.550486">
<ele>144.545044</ele>
<time>2010-07-18T12:51:46Z</time>
<desc>lat.=55.726902, lon.=26.550486, Alt.=144.545044m. Speed=0.036000m/h.</desc>
<speed>0.010000</speed>
</trkpt>
<trkpt lat="55.726902" lon="26.550486">
<ele>144.537231</ele>
<time>2010-07-18T12:51:47Z</time>
<desc>lat.=55.726902, lon.=26.550486, Alt.=144.537231m. Speed=0.036000m/h.</desc>
<speed>0.010000</speed>
</trkpt>
<trkpt lat="55.726902" lon="26.550486">
<ele>144.537231</ele>
<time>2010-07-18T12:51:48Z</time>
<desc>lat.=55.726902, lon.=26.550486, Alt.=144.537231m. Speed=0.036000m/h.</desc>
<speed>0.010000</speed>
</trkpt>
<trkpt lat="55.726902" lon="26.550486">
<ele>144.529419</ele>
<time>2010-07-18T12:51:49Z</time>
<desc>lat.=55.726902, lon.=26.550486, Alt.=144.529419m. Speed=0.036000m/h.</desc>
<speed>0.010000</speed>
</trkpt>
<trkpt lat="55.726902" lon="26.550486">
<ele>144.525513</ele>
<time>2010-07-18T12:51:50Z</time>
<desc>lat.=55.726902, lon.=26.550486, Alt.=144.525513m. Speed=0.000000m/h.</desc>
<speed>0.000000</speed>
</trkpt>
<trkpt lat="55.726902" lon="26.550486">
<ele>144.525513</ele>
<time>2010-07-18T12:51:51Z</time>
<desc>lat.=55.726902, lon.=26.550486, Alt.=144.525513m. Speed=0.000000m/h.</desc>
<speed>0.000000</speed>
</trkpt>
<trkpt lat="55.726902" lon="26.550486">
<ele>144.525513</ele>
<time>2010-07-18T12:51:52Z</time>
<desc>lat.=55.726902, lon.=26.550486, Alt.=144.525513m. Speed=0.036000m/h.</desc>
<speed>0.010000</speed>
</trkpt>
<trkpt lat="55.726902" lon="26.550486">
<ele>144.521606</ele>
<time>2010-07-18T12:51:53Z</time>
<desc>lat.=55.726902, lon.=26.550486, Alt.=144.521606m. Speed=0.036000m/h.</desc>
<speed>0.010000</speed>
</trkpt>
<trkpt lat="55.726902" lon="26.550486">
<ele>144.517700</ele>
<time>2010-07-18T12:51:54Z</time>
<desc>lat.=55.726902, lon.=26.550486, Alt.=144.517700m. Speed=0.108000m/h.</desc>
<speed>0.030000</speed>
</trkpt>
<trkpt lat="55.726902" lon="26.550486">
<ele>144.517700</ele>
<time>2010-07-18T12:51:55Z</time>
<desc>lat.=55.726902, lon.=26.550486, Alt.=144.517700m. Speed=0.000000m/h.</desc>
<speed>0.000000</speed>
</trkpt>
<trkpt lat="55.726902" lon="26.550486">
<ele>144.517700</ele>
<time>2010-07-18T12:51:56Z</time>
<desc>lat.=55.726902, lon.=26.550486, Alt.=144.517700m. Speed=0.000000m/h.</desc>
<speed>0.000000</speed>
</trkpt>
<trkpt lat="55.726902" lon="26.550486">
<ele>144.513794</ele>
<time>2010-07-18T12:51:57Z</time>
<desc>lat.=55.726902, lon.=26.550486, Alt.=144.513794m. Speed=0.000000m/h.</desc>
<speed>0.000000</speed>
</trkpt>
<trkpt lat="55.726902" lon="26.550486">
<ele>144.509888</ele>
<time>2010-07-18T12:51:58Z</time>
<desc>lat.=55.726902, lon.=26.550486, Alt.=144.509888m. Speed=0.036000m/h.</desc>
<speed>0.010000</speed>
</trkpt>
<trkpt lat="55.726902" lon="26.550486">
<ele>144.509888</ele>
<time>2010-07-18T12:51:59Z</time>
<desc>lat.=55.726902, lon.=26.550486, Alt.=144.509888m. Speed=0.000000m/h.</desc>
<speed>0.000000</speed>
</trkpt>
<trkpt lat="55.726902" lon="26.550486">
<ele>144.505981</ele>
<time>2010-07-18T12:52:00Z</time>
<desc>lat.=55.726902, lon.=26.550486, Alt.=144.505981m. Speed=0.000000m/h.</desc>
<speed>0.000000</speed>
</trkpt>
<trkpt lat="55.726902" lon="26.550486">
<ele>144.509888</ele>
<time>2010-07-18T12:52:01Z</time>
<desc>lat.=55.726902, lon.=26.550486, Alt.=144.509888m. Speed=0.036000m/h.</desc>
<speed>0.010000</speed>
</trkpt>
<trkpt lat="55.726902" lon="26.550486">
<ele>144.509888</ele>
<time>2010-07-18T12:52:02Z</time>
<desc>lat.=55.726902, lon.=26.550486, Alt.=144.509888m. Speed=0.036000m/h.</desc>
<speed>0.010000</speed>
</trkpt>
<trkpt lat="55.726902" lon="26.550486">
<ele>144.509888</ele>
<time>2010-07-18T12:52:03Z</time>
<desc>lat.=55.726902, lon.=26.550486, Alt.=144.509888m. Speed=0.036000m/h.</desc>
<speed>0.010000</speed>
</trkpt>
<trkpt lat="55.726902" lon="26.550486">
<ele>144.509888</ele>
<time>2010-07-18T12:52:04Z</time>
<desc>lat.=55.726902, lon.=26.550486, Alt.=144.509888m. Speed=0.000000m/h.</desc>
<speed>0.000000</speed>
</trkpt>
<trkpt lat="55.726902" lon="26.550486">
<ele>144.505981</ele>
<time>2010-07-18T12:52:05Z</time>
<desc>lat.=55.726902, lon.=26.550486, Alt.=144.505981m. Speed=0.036000m/h.</desc>
<speed>0.010000</speed>
</trkpt>
<trkpt lat="55.726902" lon="26.550486">
<ele>144.505981</ele>
<time>2010-07-18T12:52:06Z</time>
<desc>lat.=55.726902, lon.=26.550486, Alt.=144.505981m. Speed=0.036000m/h.</desc>
<speed>0.010000</speed>
</trkpt>
<trkpt lat="55.726902" lon="26.550486">
<ele>144.502075</ele>
<time>2010-07-18T12:52:07Z</time>
<desc>lat.=55.726902, lon.=26.550486, Alt.=144.502075m. Speed=0.000000m/h.</desc>
<speed>0.000000</speed>
</trkpt>
<trkpt lat="55.726902" lon="26.550486">
<ele>144.502075</ele>
<time>2010-07-18T12:52:08Z</time>
<desc>lat.=55.726902, lon.=26.550486, Alt.=144.502075m. Speed=0.000000m/h.</desc>
<speed>0.000000</speed>
</trkpt>
<trkpt lat="55.726902" lon="26.550486">
<ele>144.498169</ele>
<time>2010-07-18T12:52:09Z</time>
<desc>lat.=55.726902, lon.=26.550486, Alt.=144.498169m. Speed=0.000000m/h.</desc>
<speed>0.000000</speed>
</trkpt>
<trkpt lat="55.726902" lon="26.550486">
<ele>144.498169</ele>
<time>2010-07-18T12:52:10Z</time>
<desc>lat.=55.726902, lon.=26.550486, Alt.=144.498169m. Speed=0.000000m/h.</desc>
<speed>0.000000</speed>
</trkpt>
<trkpt lat="55.726902" lon="26.550486">
<ele>144.498169</ele>
<time>2010-07-18T12:52:11Z</time>
<desc>lat.=55.726902, lon.=26.550486, Alt.=144.498169m. Speed=0.036000m/h.</desc>
<speed>0.010000</speed>
</trkpt>
<trkpt lat="55.726902" lon="26.550486">
<ele>144.498169</ele>
<time>2010-07-18T12:52:12Z</time>
<desc>lat.=55.726902, lon.=26.550486, Alt.=144.498169m. Speed=0.036000m/h.</desc>
<speed>0.010000</speed>
</trkpt>
<trkpt lat="55.726902" lon="26.550486">
<ele>144.498169</ele>
<time>2010-07-18T12:52:13Z</time>
<desc>lat.=55.726902, lon.=26.550486, Alt.=144.498169m. Speed=0.072000m/h.</desc>
<speed>0.020000</speed>
</trkpt>
<trkpt lat="55.726902" lon="26.550486">
<ele>144.498169</ele>
<time>2010-07-18T12:52:14Z</time>
<desc>lat.=55.726902, lon.=26.550486, Alt.=144.498169m. Speed=0.036000m/h.</desc>
<speed>0.010000</speed>
</trkpt>
<trkpt lat="55.726902" lon="26.550486">
<ele>144.498169</ele>
<time>2010-07-18T12:52:15Z</time>
<desc>lat.=55.726902, lon.=26.550486, Alt.=144.498169m. Speed=0.036000m/h.</desc>
<speed>0.010000</speed>
</trkpt>
<trkpt lat="55.726902" lon="26.550486">
<ele>144.498169</ele>
<time>2010-07-18T12:52:16Z</time>
<desc>lat.=55.726902, lon.=26.550486, Alt.=144.498169m. Speed=0.000000m/h.</desc>
<speed>0.000000</speed>
</trkpt>
<trkpt lat="55.726902" lon="26.550486">
<ele>144.498169</ele>
<time>2010-07-18T12:52:17Z</time>
<desc>lat.=55.726902, lon.=26.550486, Alt.=144.498169m. Speed=0.036000m/h.</desc>
<speed>0.010000</speed>
</trkpt>
<trkpt lat="55.726902" lon="26.550486">
<ele>144.498169</ele>
<time>2010-07-18T12:52:18Z</time>
<desc>lat.=55.726902, lon.=26.550486, Alt.=144.498169m. Speed=0.000000m/h.</desc>
<speed>0.000000</speed>
</trkpt>
<trkpt lat="55.726902" lon="26.550486">
<ele>144.494263</ele>
<time>2010-07-18T12:52:19Z</time>
<desc>lat.=55.726902, lon.=26.550486, Alt.=144.494263m. Speed=0.000000m/h.</desc>
<speed>0.000000</speed>
</trkpt>
<trkpt lat="55.726902" lon="26.550486">
<ele>144.494263</ele>
<time>2010-07-18T12:52:20Z</time>
<desc>lat.=55.726902, lon.=26.550486, Alt.=144.494263m. Speed=0.000000m/h.</desc>
<speed>0.000000</speed>
</trkpt>
<trkpt lat="55.726902" lon="26.550486">
<ele>144.494263</ele>
<time>2010-07-18T12:52:21Z</time>
<desc>lat.=55.726902, lon.=26.550486, Alt.=144.494263m. Speed=0.036000m/h.</desc>
<speed>0.010000</speed>
</trkpt>
<trkpt lat="55.726902" lon="26.550486">
<ele>144.490356</ele>
<time>2010-07-18T12:52:22Z</time>
<desc>lat.=55.726902, lon.=26.550486, Alt.=144.490356m. Speed=0.000000m/h.</desc>
<speed>0.000000</speed>
</trkpt>
<trkpt lat="55.726902" lon="26.550486">
<ele>144.486450</ele>
<time>2010-07-18T12:52:23Z</time>
<desc>lat.=55.726902, lon.=26.550486, Alt.=144.486450m. Speed=0.000000m/h.</desc>
<speed>0.000000</speed>
</trkpt>
<trkpt lat="55.726902" lon="26.550486">
<ele>144.486450</ele>
<time>2010-07-18T12:52:24Z</time>
<desc>lat.=55.726902, lon.=26.550486, Alt.=144.486450m. Speed=0.000000m/h.</desc>
<speed>0.000000</speed>
</trkpt>
<trkpt lat="55.726902" lon="26.550486">
<ele>144.482544</ele>
<time>2010-07-18T12:52:25Z</time>
<desc>lat.=55.726902, lon.=26.550486, Alt.=144.482544m. Speed=0.000000m/h.</desc>
<speed>0.000000</speed>
</trkpt>
<trkpt lat="55.726902" lon="26.550486">
<ele>144.482544</ele>
<time>2010-07-18T12:52:26Z</time>
<desc>lat.=55.726902, lon.=26.550486, Alt.=144.482544m. Speed=0.000000m/h.</desc>
<speed>0.000000</speed>
</trkpt>
<trkpt lat="55.726902" lon="26.550486">
<ele>144.478638</ele>
<time>2010-07-18T12:52:27Z</time>
<desc>lat.=55.726902, lon.=26.550486, Alt.=144.478638m. Speed=0.036000m/h.</desc>
<speed>0.010000</speed>
</trkpt>
<trkpt lat="55.726902" lon="26.550486">
<ele>144.474731</ele>
<time>2010-07-18T12:52:28Z</time>
<desc>lat.=55.726902, lon.=26.550486, Alt.=144.474731m. Speed=0.000000m/h.</desc>
<speed>0.000000</speed>
</trkpt>
<trkpt lat="55.726902" lon="26.550486">
<ele>144.474731</ele>
<time>2010-07-18T12:52:29Z</time>
<desc>lat.=55.726902, lon.=26.550486, Alt.=144.474731m. Speed=0.000000m/h.</desc>
<speed>0.000000</speed>
</trkpt>
<trkpt lat="55.726902" lon="26.550486">
<ele>144.474731</ele>
<time>2010-07-18T12:52:30Z</time>
<desc>lat.=55.726902, lon.=26.550486, Alt.=144.474731m. Speed=0.000000m/h.</desc>
<speed>0.000000</speed>
</trkpt>
<trkpt lat="55.726902" lon="26.550486">
<ele>144.474731</ele>
<time>2010-07-18T12:52:31Z</time>
<desc>lat.=55.726902, lon.=26.550486, Alt.=144.474731m. Speed=0.000000m/h.</desc>
<speed>0.000000</speed>
</trkpt>
<trkpt lat="55.726902" lon="26.550486">
<ele>144.474731</ele>
<time>2010-07-18T12:52:32Z</time>
<desc>lat.=55.726902, lon.=26.550486, Alt.=144.474731m. Speed=0.000000m/h.</desc>
<speed>0.000000</speed>
</trkpt>
<trkpt lat="55.726902" lon="26.550486">
<ele>144.470825</ele>
<time>2010-07-18T12:52:33Z</time>
<desc>lat.=55.726902, lon.=26.550486, Alt.=144.470825m. Speed=0.036000m/h.</desc>
<speed>0.010000</speed>
</trkpt>
<trkpt lat="55.726902" lon="26.550486">
<ele>144.470825</ele>
<time>2010-07-18T12:52:34Z</time>
<desc>lat.=55.726902, lon.=26.550486, Alt.=144.470825m. Speed=0.000000m/h.</desc>
<speed>0.000000</speed>
</trkpt>
<trkpt lat="55.726902" lon="26.550486">
<ele>144.466919</ele>
<time>2010-07-18T12:52:35Z</time>
<desc>lat.=55.726902, lon.=26.550486, Alt.=144.466919m. Speed=0.036000m/h.</desc>
<speed>0.010000</speed>
</trkpt>
<trkpt lat="55.726902" lon="26.550486">
<ele>144.466919</ele>
<time>2010-07-18T12:52:36Z</time>
<desc>lat.=55.726902, lon.=26.550486, Alt.=144.466919m. Speed=0.000000m/h.</desc>
<speed>0.000000</speed>
</trkpt>
<trkpt lat="55.726902" lon="26.550486">
<ele>144.466919</ele>
<time>2010-07-18T12:52:37Z</time>
<desc>lat.=55.726902, lon.=26.550486, Alt.=144.466919m. Speed=0.000000m/h.</desc>
<speed>0.000000</speed>
</trkpt>
<trkpt lat="55.726902" lon="26.550486">
<ele>144.463013</ele>
<time>2010-07-18T12:52:38Z</time>
<desc>lat.=55.726902, lon.=26.550486, Alt.=144.463013m. Speed=0.000000m/h.</desc>
<speed>0.000000</speed>
</trkpt>
<trkpt lat="55.726902" lon="26.550486">
<ele>144.463013</ele>
<time>2010-07-18T12:52:39Z</time>
<desc>lat.=55.726902, lon.=26.550486, Alt.=144.463013m. Speed=0.000000m/h.</desc>
<speed>0.000000</speed>
</trkpt>
<trkpt lat="55.726902" lon="26.550486">
<ele>144.463013</ele>
<time>2010-07-18T12:52:40Z</time>
<desc>lat.=55.726902, lon.=26.550486, Alt.=144.463013m. Speed=0.036000m/h.</desc>
<speed>0.010000</speed>
</trkpt>
<trkpt lat="55.726902" lon="26.550486">
<ele>144.459106</ele>
<time>2010-07-18T12:52:41Z</time>
<desc>lat.=55.726902, lon.=26.550486, Alt.=144.459106m. Speed=0.000000m/h.</desc>
<speed>0.000000</speed>
</trkpt>
<trkpt lat="55.726902" lon="26.550486">
<ele>144.459106</ele>
<time>2010-07-18T12:52:42Z</time>
<desc>lat.=55.726902, lon.=26.550486, Alt.=144.459106m. Speed=0.000000m/h.</desc>
<speed>0.000000</speed>
</trkpt>
<trkpt lat="55.726902" lon="26.550486">
<ele>144.455200</ele>
<time>2010-07-18T12:52:43Z</time>
<desc>lat.=55.726902, lon.=26.550486, Alt.=144.455200m. Speed=0.000000m/h.</desc>
<speed>0.000000</speed>
</trkpt>
<trkpt lat="55.726902" lon="26.550486">
<ele>144.455200</ele>
<time>2010-07-18T12:52:44Z</time>
<desc>lat.=55.726902, lon.=26.550486, Alt.=144.455200m. Speed=0.000000m/h.</desc>
<speed>0.000000</speed>
</trkpt>
<trkpt lat="55.726902" lon="26.550486">
<ele>144.451294</ele>
<time>2010-07-18T12:52:45Z</time>
<desc>lat.=55.726902, lon.=26.550486, Alt.=144.451294m. Speed=0.000000m/h.</desc>
<speed>0.000000</speed>
</trkpt>
<trkpt lat="55.726902" lon="26.550486">
<ele>144.451294</ele>
<time>2010-07-18T12:52:46Z</time>
<desc>lat.=55.726902, lon.=26.550486, Alt.=144.451294m. Speed=0.036000m/h.</desc>
<speed>0.010000</speed>
</trkpt>
<trkpt lat="55.726902" lon="26.550486">
<ele>144.443481</ele>
<time>2010-07-18T12:52:47Z</time>
<desc>lat.=55.726902, lon.=26.550486, Alt.=144.443481m. Speed=0.000000m/h.</desc>
<speed>0.000000</speed>
</trkpt>
<trkpt lat="55.726902" lon="26.550486">
<ele>144.439575</ele>
<time>2010-07-18T12:52:48Z</time>
<desc>lat.=55.726902, lon.=26.550486, Alt.=144.439575m. Speed=0.036000m/h.</desc>
<speed>0.010000</speed>
</trkpt>
<trkpt lat="55.726902" lon="26.550486">
<ele>144.435669</ele>
<time>2010-07-18T12:52:49Z</time>
<desc>lat.=55.726902, lon.=26.550486, Alt.=144.435669m. Speed=0.000000m/h.</desc>
<speed>0.000000</speed>
</trkpt>
<trkpt lat="55.726902" lon="26.550486">
<ele>144.431763</ele>
<time>2010-07-18T12:52:50Z</time>
<desc>lat.=55.726902, lon.=26.550486, Alt.=144.431763m. Speed=0.000000m/h.</desc>
<speed>0.000000</speed>
</trkpt>
<trkpt lat="55.726902" lon="26.550486">
<ele>144.423950</ele>
<time>2010-07-18T12:52:51Z</time>
<desc>lat.=55.726902, lon.=26.550486, Alt.=144.423950m. Speed=0.000000m/h.</desc>
<speed>0.000000</speed>
</trkpt>
<trkpt lat="55.726902" lon="26.550486">
<ele>144.423950</ele>
<time>2010-07-18T12:52:52Z</time>
<desc>lat.=55.726902, lon.=26.550486, Alt.=144.423950m. Speed=0.000000m/h.</desc>
<speed>0.000000</speed>
</trkpt>
<trkpt lat="55.726902" lon="26.550486">
<ele>144.423950</ele>
<time>2010-07-18T12:52:53Z</time>
<desc>lat.=55.726902, lon.=26.550486, Alt.=144.423950m. Speed=0.000000m/h.</desc>
<speed>0.000000</speed>
</trkpt>
<trkpt lat="55.726902" lon="26.550484">
<ele>144.420044</ele>
<time>2010-07-18T12:52:54Z</time>
<desc>lat.=55.726902, lon.=26.550484, Alt.=144.420044m. Speed=0.000000m/h.</desc>
<speed>0.000000</speed>
</trkpt>
<trkpt lat="55.726902" lon="26.550484">
<ele>144.420044</ele>
<time>2010-07-18T12:52:55Z</time>
<desc>lat.=55.726902, lon.=26.550484, Alt.=144.420044m. Speed=0.000000m/h.</desc>
<speed>0.000000</speed>
</trkpt>
<trkpt lat="55.726902" lon="26.550484">
<ele>144.420044</ele>
<time>2010-07-18T12:52:56Z</time>
<desc>lat.=55.726902, lon.=26.550484, Alt.=144.420044m. Speed=0.000000m/h.</desc>
<speed>0.000000</speed>
</trkpt>
<trkpt lat="55.726902" lon="26.550484">
<ele>144.416138</ele>
<time>2010-07-18T12:52:57Z</time>
<desc>lat.=55.726902, lon.=26.550484, Alt.=144.416138m. Speed=0.000000m/h.</desc>
<speed>0.000000</speed>
</trkpt>
<trkpt lat="55.726902" lon="26.550484">
<ele>144.416138</ele>
<time>2010-07-18T12:52:58Z</time>
<desc>lat.=55.726902, lon.=26.550484, Alt.=144.416138m. Speed=0.000000m/h.</desc>
<speed>0.000000</speed>
</trkpt>
<trkpt lat="55.726902" lon="26.550484">
<ele>144.412231</ele>
<time>2010-07-18T12:52:59Z</time>
<desc>lat.=55.726902, lon.=26.550484, Alt.=144.412231m. Speed=0.000000m/h.</desc>
<speed>0.000000</speed>
</trkpt>
<trkpt lat="55.726902" lon="26.550484">
<ele>144.408325</ele>
<time>2010-07-18T12:53:00Z</time>
<desc>lat.=55.726902, lon.=26.550484, Alt.=144.408325m. Speed=0.000000m/h.</desc>
<speed>0.000000</speed>
</trkpt>
<trkpt lat="55.726902" lon="26.550484">
<ele>144.408325</ele>
<time>2010-07-18T12:53:01Z</time>
<desc>lat.=55.726902, lon.=26.550484, Alt.=144.408325m. Speed=0.000000m/h.</desc>
<speed>0.000000</speed>
</trkpt>
<trkpt lat="55.726902" lon="26.550484">
<ele>144.404419</ele>
<time>2010-07-18T12:53:02Z</time>
<desc>lat.=55.726902, lon.=26.550484, Alt.=144.404419m. Speed=0.000000m/h.</desc>
<speed>0.000000</speed>
</trkpt>
<trkpt lat="55.726902" lon="26.550484">
<ele>144.404419</ele>
<time>2010-07-18T12:53:03Z</time>
<desc>lat.=55.726902, lon.=26.550484, Alt.=144.404419m. Speed=0.000000m/h.</desc>
<speed>0.000000</speed>
</trkpt>
<trkpt lat="55.726902" lon="26.550484">
<ele>144.400513</ele>
<time>2010-07-18T12:53:04Z</time>
<desc>lat.=55.726902, lon.=26.550484, Alt.=144.400513m. Speed=0.000000m/h.</desc>
<speed>0.000000</speed>
</trkpt>
<trkpt lat="55.726902" lon="26.550484">
<ele>144.400513</ele>
<time>2010-07-18T12:53:05Z</time>
<desc>lat.=55.726902, lon.=26.550484, Alt.=144.400513m. Speed=0.000000m/h.</desc>
<speed>0.000000</speed>
</trkpt>
<trkpt lat="55.726902" lon="26.550484">
<ele>144.400513</ele>
<time>2010-07-18T12:53:06Z</time>
<desc>lat.=55.726902, lon.=26.550484, Alt.=144.400513m. Speed=0.036000m/h.</desc>
<speed>0.010000</speed>
</trkpt>
<trkpt lat="55.726902" lon="26.550484">
<ele>144.400513</ele>
<time>2010-07-18T12:53:07Z</time>
<desc>lat.=55.726902, lon.=26.550484, Alt.=144.400513m. Speed=0.000000m/h.</desc>
<speed>0.000000</speed>
</trkpt>
<trkpt lat="55.726902" lon="26.550484">
<ele>144.400513</ele>
<time>2010-07-18T12:53:08Z</time>
<desc>lat.=55.726902, lon.=26.550484, Alt.=144.400513m. Speed=0.036000m/h.</desc>
<speed>0.010000</speed>
</trkpt>
<trkpt lat="55.726902" lon="26.550484">
<ele>144.400513</ele>
<time>2010-07-18T12:53:09Z</time>
<desc>lat.=55.726902, lon.=26.550484, Alt.=144.400513m. Speed=0.036000m/h.</desc>
<speed>0.010000</speed>
</trkpt>
<trkpt lat="55.726902" lon="26.550484">
<ele>144.396606</ele>
<time>2010-07-18T12:53:10Z</time>
<desc>lat.=55.726902, lon.=26.550484, Alt.=144.396606m. Speed=0.036000m/h.</desc>
<speed>0.010000</speed>
</trkpt>
<trkpt lat="55.726902" lon="26.550484">
<ele>144.396606</ele>
<time>2010-07-18T12:53:11Z</time>
<desc>lat.=55.726902, lon.=26.550484, Alt.=144.396606m. Speed=0.072000m/h.</desc>
<speed>0.020000</speed>
</trkpt>
<trkpt lat="55.726902" lon="26.550484">
<ele>144.396606</ele>
<time>2010-07-18T12:53:12Z</time>
<desc>lat.=55.726902, lon.=26.550484, Alt.=144.396606m. Speed=0.000000m/h.</desc>
<speed>0.000000</speed>
</trkpt>
<trkpt lat="55.726902" lon="26.550484">
<ele>144.392700</ele>
<time>2010-07-18T12:53:13Z</time>
<desc>lat.=55.726902, lon.=26.550484, Alt.=144.392700m. Speed=0.036000m/h.</desc>
<speed>0.010000</speed>
</trkpt>
<trkpt lat="55.726902" lon="26.550484">
<ele>144.388794</ele>
<time>2010-07-18T12:53:14Z</time>
<desc>lat.=55.726902, lon.=26.550484, Alt.=144.388794m. Speed=0.036000m/h.</desc>
<speed>0.010000</speed>
</trkpt>
<trkpt lat="55.726902" lon="26.550484">
<ele>144.388794</ele>
<time>2010-07-18T12:53:15Z</time>
<desc>lat.=55.726902, lon.=26.550484, Alt.=144.388794m. Speed=0.000000m/h.</desc>
<speed>0.000000</speed>
</trkpt>
<trkpt lat="55.726902" lon="26.550484">
<ele>144.388794</ele>
<time>2010-07-18T12:53:16Z</time>
<desc>lat.=55.726902, lon.=26.550484, Alt.=144.388794m. Speed=0.000000m/h.</desc>
<speed>0.000000</speed>
</trkpt>
<trkpt lat="55.726902" lon="26.550484">
<ele>144.388794</ele>
<time>2010-07-18T12:53:17Z</time>
<desc>lat.=55.726902, lon.=26.550484, Alt.=144.388794m. Speed=0.000000m/h.</desc>
<speed>0.000000</speed>
</trkpt>
<trkpt lat="55.726902" lon="26.550482">
<ele>144.388794</ele>
<time>2010-07-18T12:53:18Z</time>
<desc>lat.=55.726902, lon.=26.550482, Alt.=144.388794m. Speed=0.036000m/h.</desc>
<speed>0.010000</speed>
</trkpt>
<trkpt lat="55.726902" lon="26.550482">
<ele>144.388794</ele>
<time>2010-07-18T12:53:19Z</time>
<desc>lat.=55.726902, lon.=26.550482, Alt.=144.388794m. Speed=0.036000m/h.</desc>
<speed>0.010000</speed>
</trkpt>
<trkpt lat="55.726902" lon="26.550482">
<ele>144.384888</ele>
<time>2010-07-18T12:53:20Z</time>
<desc>lat.=55.726902, lon.=26.550482, Alt.=144.384888m. Speed=0.000000m/h.</desc>
<speed>0.000000</speed>
</trkpt>
<trkpt lat="55.726902" lon="26.550482">
<ele>144.388794</ele>
<time>2010-07-18T12:53:21Z</time>
<desc>lat.=55.726902, lon.=26.550482, Alt.=144.388794m. Speed=0.000000m/h.</desc>
<speed>0.000000</speed>
</trkpt>
<trkpt lat="55.726902" lon="26.550482">
<ele>144.384888</ele>
<time>2010-07-18T12:53:22Z</time>
<desc>lat.=55.726902, lon.=26.550482, Alt.=144.384888m. Speed=0.000000m/h.</desc>
<speed>0.000000</speed>
</trkpt>
<trkpt lat="55.726902" lon="26.550482">
<ele>144.384888</ele>
<time>2010-07-18T12:53:23Z</time>
<desc>lat.=55.726902, lon.=26.550482, Alt.=144.384888m. Speed=0.000000m/h.</desc>
<speed>0.000000</speed>
</trkpt>
<trkpt lat="55.726902" lon="26.550482">
<ele>144.384888</ele>
<time>2010-07-18T12:53:24Z</time>
<desc>lat.=55.726902, lon.=26.550482, Alt.=144.384888m. Speed=0.036000m/h.</desc>
<speed>0.010000</speed>
</trkpt>
<trkpt lat="55.726902" lon="26.550482">
<ele>144.384888</ele>
<time>2010-07-18T12:53:25Z</time>
<desc>lat.=55.726902, lon.=26.550482, Alt.=144.384888m. Speed=0.000000m/h.</desc>
<speed>0.000000</speed>
</trkpt>
<trkpt lat="55.726902" lon="26.550482">
<ele>144.380981</ele>
<time>2010-07-18T12:53:26Z</time>
<desc>lat.=55.726902, lon.=26.550482, Alt.=144.380981m. Speed=0.000000m/h.</desc>
<speed>0.000000</speed>
</trkpt>
<trkpt lat="55.726902" lon="26.550482">
<ele>144.380981</ele>
<time>2010-07-18T12:53:27Z</time>
<desc>lat.=55.726902, lon.=26.550482, Alt.=144.380981m. Speed=0.000000m/h.</desc>
<speed>0.000000</speed>
</trkpt>
<trkpt lat="55.726902" lon="26.550482">
<ele>144.380981</ele>
<time>2010-07-18T12:53:28Z</time>
<desc>lat.=55.726902, lon.=26.550482, Alt.=144.380981m. Speed=0.000000m/h.</desc>
<speed>0.000000</speed>
</trkpt>
<trkpt lat="55.726902" lon="26.550482">
<ele>144.380981</ele>
<time>2010-07-18T12:53:29Z</time>
<desc>lat.=55.726902, lon.=26.550482, Alt.=144.380981m. Speed=0.036000m/h.</desc>
<speed>0.010000</speed>
</trkpt>
<trkpt lat="55.726902" lon="26.550482">
<ele>144.380981</ele>
<time>2010-07-18T12:53:30Z</time>
<desc>lat.=55.726902, lon.=26.550482, Alt.=144.380981m. Speed=0.000000m/h.</desc>
<speed>0.000000</speed>
</trkpt>
<trkpt lat="55.726902" lon="26.550482">
<ele>144.377075</ele>
<time>2010-07-18T12:53:31Z</time>
<desc>lat.=55.726902, lon.=26.550482, Alt.=144.377075m. Speed=0.000000m/h.</desc>
<speed>0.000000</speed>
</trkpt>
<trkpt lat="55.726902" lon="26.550482">
<ele>144.377075</ele>
<time>2010-07-18T12:53:32Z</time>
<desc>lat.=55.726902, lon.=26.550482, Alt.=144.377075m. Speed=0.000000m/h.</desc>
<speed>0.000000</speed>
</trkpt>
<trkpt lat="55.726902" lon="26.550482">
<ele>144.377075</ele>
<time>2010-07-18T12:53:33Z</time>
<desc>lat.=55.726902, lon.=26.550482, Alt.=144.377075m. Speed=0.000000m/h.</desc>
<speed>0.000000</speed>
</trkpt>
<trkpt lat="55.726902" lon="26.550482">
<ele>144.377075</ele>
<time>2010-07-18T12:53:34Z</time>
<desc>lat.=55.726902, lon.=26.550482, Alt.=144.377075m. Speed=0.000000m/h.</desc>
<speed>0.000000</speed>
</trkpt>
<trkpt lat="55.726902" lon="26.550482">
<ele>144.377075</ele>
<time>2010-07-18T12:53:35Z</time>
<desc>lat.=55.726902, lon.=26.550482, Alt.=144.377075m. Speed=0.000000m/h.</desc>
<speed>0.000000</speed>
</trkpt>
<trkpt lat="55.726902" lon="26.550482">
<ele>144.373169</ele>
<time>2010-07-18T12:53:36Z</time>
<desc>lat.=55.726902, lon.=26.550482, Alt.=144.373169m. Speed=0.036000m/h.</desc>
<speed>0.010000</speed>
</trkpt>
<trkpt lat="55.726902" lon="26.550482">
<ele>144.377075</ele>
<time>2010-07-18T12:53:37Z</time>
<desc>lat.=55.726902, lon.=26.550482, Alt.=144.377075m. Speed=0.000000m/h.</desc>
<speed>0.000000</speed>
</trkpt>
<trkpt lat="55.726902" lon="26.550482">
<ele>144.373169</ele>
<time>2010-07-18T12:53:38Z</time>
<desc>lat.=55.726902, lon.=26.550482, Alt.=144.373169m. Speed=0.000000m/h.</desc>
<speed>0.000000</speed>
</trkpt>
<trkpt lat="55.726902" lon="26.550482">
<ele>144.373169</ele>
<time>2010-07-18T12:53:39Z</time>
<desc>lat.=55.726902, lon.=26.550482, Alt.=144.373169m. Speed=0.000000m/h.</desc>
<speed>0.000000</speed>
</trkpt>
<trkpt lat="55.726902" lon="26.550482">
<ele>144.373169</ele>
<time>2010-07-18T12:53:40Z</time>
<desc>lat.=55.726902, lon.=26.550482, Alt.=144.373169m. Speed=0.000000m/h.</desc>
<speed>0.000000</speed>
</trkpt>
<trkpt lat="55.726902" lon="26.550482">
<ele>144.373169</ele>
<time>2010-07-18T12:53:41Z</time>
<desc>lat.=55.726902, lon.=26.550482, Alt.=144.373169m. Speed=0.000000m/h.</desc>
<speed>0.000000</speed>
</trkpt>
<trkpt lat="55.726902" lon="26.550482">
<ele>144.373169</ele>
<time>2010-07-18T12:53:42Z</time>
<desc>lat.=55.726902, lon.=26.550482, Alt.=144.373169m. Speed=0.000000m/h.</desc>
<speed>0.000000</speed>
</trkpt>
<trkpt lat="55.726902" lon="26.550482">
<ele>144.369263</ele>
<time>2010-07-18T12:53:43Z</time>
<desc>lat.=55.726902, lon.=26.550482, Alt.=144.369263m. Speed=0.036000m/h.</desc>
<speed>0.010000</speed>
</trkpt>
<trkpt lat="55.726902" lon="26.550482">
<ele>144.369263</ele>
<time>2010-07-18T12:53:44Z</time>
<desc>lat.=55.726902, lon.=26.550482, Alt.=144.369263m. Speed=0.000000m/h.</desc>
<speed>0.000000</speed>
</trkpt>
<trkpt lat="55.726902" lon="26.550482">
<ele>144.369263</ele>
<time>2010-07-18T12:53:45Z</time>
<desc>lat.=55.726902, lon.=26.550482, Alt.=144.369263m. Speed=0.036000m/h.</desc>
<speed>0.010000</speed>
</trkpt>
<trkpt lat="55.726902" lon="26.550482">
<ele>144.365356</ele>
<time>2010-07-18T12:53:46Z</time>
<desc>lat.=55.726902, lon.=26.550482, Alt.=144.365356m. Speed=0.036000m/h.</desc>
<speed>0.010000</speed>
</trkpt>
<trkpt lat="55.726902" lon="26.550480">
<ele>144.365356</ele>
<time>2010-07-18T12:53:47Z</time>
<desc>lat.=55.726902, lon.=26.550480, Alt.=144.365356m. Speed=0.036000m/h.</desc>
<speed>0.010000</speed>
</trkpt>
<trkpt lat="55.726902" lon="26.550480">
<ele>144.361450</ele>
<time>2010-07-18T12:53:48Z</time>
<desc>lat.=55.726902, lon.=26.550480, Alt.=144.361450m. Speed=0.000000m/h.</desc>
<speed>0.000000</speed>
</trkpt>
<trkpt lat="55.726902" lon="26.550480">
<ele>144.361450</ele>
<time>2010-07-18T12:53:49Z</time>
<desc>lat.=55.726902, lon.=26.550480, Alt.=144.361450m. Speed=0.036000m/h.</desc>
<speed>0.010000</speed>
</trkpt>
<trkpt lat="55.726902" lon="26.550480">
<ele>144.361450</ele>
<time>2010-07-18T12:53:50Z</time>
<desc>lat.=55.726902, lon.=26.550480, Alt.=144.361450m. Speed=0.072000m/h.</desc>
<speed>0.020000</speed>
</trkpt>
<trkpt lat="55.726902" lon="26.550480">
<ele>144.361450</ele>
<time>2010-07-18T12:53:51Z</time>
<desc>lat.=55.726902, lon.=26.550480, Alt.=144.361450m. Speed=0.108000m/h.</desc>
<speed>0.030000</speed>
</trkpt>
<trkpt lat="55.726902" lon="26.550480">
<ele>144.361450</ele>
<time>2010-07-18T12:53:52Z</time>
<desc>lat.=55.726902, lon.=26.550480, Alt.=144.361450m. Speed=0.072000m/h.</desc>
<speed>0.020000</speed>
</trkpt>
<trkpt lat="55.726902" lon="26.550480">
<ele>144.361450</ele>
<time>2010-07-18T12:53:53Z</time>
<desc>lat.=55.726902, lon.=26.550480, Alt.=144.361450m. Speed=0.000000m/h.</desc>
<speed>0.000000</speed>
</trkpt>
<trkpt lat="55.726902" lon="26.550480">
<ele>144.361450</ele>
<time>2010-07-18T12:53:54Z</time>
<desc>lat.=55.726902, lon.=26.550480, Alt.=144.361450m. Speed=0.000000m/h.</desc>
<speed>0.000000</speed>
</trkpt>
<trkpt lat="55.726902" lon="26.550480">
<ele>144.365356</ele>
<time>2010-07-18T12:53:55Z</time>
<desc>lat.=55.726902, lon.=26.550480, Alt.=144.365356m. Speed=0.000000m/h.</desc>
<speed>0.000000</speed>
</trkpt>
<trkpt lat="55.726898" lon="26.550480">
<ele>144.365356</ele>
<time>2010-07-18T12:53:56Z</time>
<desc>lat.=55.726898, lon.=26.550480, Alt.=144.365356m. Speed=0.000000m/h.</desc>
<speed>0.000000</speed>
</trkpt>
<trkpt lat="55.726898" lon="26.550480">
<ele>144.365356</ele>
<time>2010-07-18T12:53:57Z</time>
<desc>lat.=55.726898, lon.=26.550480, Alt.=144.365356m. Speed=0.036000m/h.</desc>
<speed>0.010000</speed>
</trkpt>
<trkpt lat="55.726898" lon="26.550478">
<ele>144.365356</ele>
<time>2010-07-18T12:53:58Z</time>
<desc>lat.=55.726898, lon.=26.550478, Alt.=144.365356m. Speed=0.072000m/h.</desc>
<speed>0.020000</speed>
</trkpt>
<trkpt lat="55.726898" lon="26.550478">
<ele>144.369263</ele>
<time>2010-07-18T12:53:59Z</time>
<desc>lat.=55.726898, lon.=26.550478, Alt.=144.369263m. Speed=0.000000m/h.</desc>
<speed>0.000000</speed>
</trkpt>
<trkpt lat="55.726898" lon="26.550478">
<ele>144.369263</ele>
<time>2010-07-18T12:54:00Z</time>
<desc>lat.=55.726898, lon.=26.550478, Alt.=144.369263m. Speed=0.000000m/h.</desc>
<speed>0.000000</speed>
</trkpt>
<trkpt lat="55.726898" lon="26.550478">
<ele>144.369263</ele>
<time>2010-07-18T12:54:01Z</time>
<desc>lat.=55.726898, lon.=26.550478, Alt.=144.369263m. Speed=0.036000m/h.</desc>
<speed>0.010000</speed>
</trkpt>
<trkpt lat="55.726898" lon="26.550478">
<ele>144.369263</ele>
<time>2010-07-18T12:54:02Z</time>
<desc>lat.=55.726898, lon.=26.550478, Alt.=144.369263m. Speed=0.036000m/h.</desc>
<speed>0.010000</speed>
</trkpt>
<trkpt lat="55.726898" lon="26.550478">
<ele>144.365356</ele>
<time>2010-07-18T12:54:03Z</time>
<desc>lat.=55.726898, lon.=26.550478, Alt.=144.365356m. Speed=0.000000m/h.</desc>
<speed>0.000000</speed>
</trkpt>
<trkpt lat="55.726898" lon="26.550478">
<ele>144.365356</ele>
<time>2010-07-18T12:54:04Z</time>
<desc>lat.=55.726898, lon.=26.550478, Alt.=144.365356m. Speed=0.000000m/h.</desc>
<speed>0.000000</speed>
</trkpt>
<trkpt lat="55.726898" lon="26.550478">
<ele>144.365356</ele>
<time>2010-07-18T12:54:05Z</time>
<desc>lat.=55.726898, lon.=26.550478, Alt.=144.365356m. Speed=0.036000m/h.</desc>
<speed>0.010000</speed>
</trkpt>
<trkpt lat="55.726898" lon="26.550478">
<ele>144.361450</ele>
<time>2010-07-18T12:54:06Z</time>
<desc>lat.=55.726898, lon.=26.550478, Alt.=144.361450m. Speed=0.000000m/h.</desc>
<speed>0.000000</speed>
</trkpt>
<trkpt lat="55.726898" lon="26.550478">
<ele>144.361450</ele>
<time>2010-07-18T12:54:07Z</time>
<desc>lat.=55.726898, lon.=26.550478, Alt.=144.361450m. Speed=0.000000m/h.</desc>
<speed>0.000000</speed>
</trkpt>
<trkpt lat="55.726898" lon="26.550478">
<ele>144.357544</ele>
<time>2010-07-18T12:54:08Z</time>
<desc>lat.=55.726898, lon.=26.550478, Alt.=144.357544m. Speed=0.000000m/h.</desc>
<speed>0.000000</speed>
</trkpt>
<trkpt lat="55.726898" lon="26.550478">
<ele>144.357544</ele>
<time>2010-07-18T12:54:09Z</time>
<desc>lat.=55.726898, lon.=26.550478, Alt.=144.357544m. Speed=0.000000m/h.</desc>
<speed>0.000000</speed>
</trkpt>
<trkpt lat="55.726898" lon="26.550478">
<ele>144.357544</ele>
<time>2010-07-18T12:54:10Z</time>
<desc>lat.=55.726898, lon.=26.550478, Alt.=144.357544m. Speed=0.036000m/h.</desc>
<speed>0.010000</speed>
</trkpt>
<trkpt lat="55.726898" lon="26.550476">
<ele>144.357544</ele>
<time>2010-07-18T12:54:11Z</time>
<desc>lat.=55.726898, lon.=26.550476, Alt.=144.357544m. Speed=0.000000m/h.</desc>
<speed>0.000000</speed>
</trkpt>
<trkpt lat="55.726898" lon="26.550476">
<ele>144.353638</ele>
<time>2010-07-18T12:54:12Z</time>
<desc>lat.=55.726898, lon.=26.550476, Alt.=144.353638m. Speed=0.036000m/h.</desc>
<speed>0.010000</speed>
</trkpt>
<trkpt lat="55.726898" lon="26.550476">
<ele>144.353638</ele>
<time>2010-07-18T12:54:13Z</time>
<desc>lat.=55.726898, lon.=26.550476, Alt.=144.353638m. Speed=0.036000m/h.</desc>
<speed>0.010000</speed>
</trkpt>
<trkpt lat="55.726898" lon="26.550476">
<ele>144.349731</ele>
<time>2010-07-18T12:54:14Z</time>
<desc>lat.=55.726898, lon.=26.550476, Alt.=144.349731m. Speed=0.000000m/h.</desc>
<speed>0.000000</speed>
</trkpt>
<trkpt lat="55.726898" lon="26.550476">
<ele>144.349731</ele>
<time>2010-07-18T12:54:15Z</time>
<desc>lat.=55.726898, lon.=26.550476, Alt.=144.349731m. Speed=0.036000m/h.</desc>
<speed>0.010000</speed>
</trkpt>
<trkpt lat="55.726898" lon="26.550476">
<ele>144.341919</ele>
<time>2010-07-18T12:54:16Z</time>
<desc>lat.=55.726898, lon.=26.550476, Alt.=144.341919m. Speed=0.036000m/h.</desc>
<speed>0.010000</speed>
</trkpt>
<trkpt lat="55.726898" lon="26.550476">
<ele>144.341919</ele>
<time>2010-07-18T12:54:17Z</time>
<desc>lat.=55.726898, lon.=26.550476, Alt.=144.341919m. Speed=0.000000m/h.</desc>
<speed>0.000000</speed>
</trkpt>
<trkpt lat="55.726898" lon="26.550476">
<ele>144.338013</ele>
<time>2010-07-18T12:54:18Z</time>
<desc>lat.=55.726898, lon.=26.550476, Alt.=144.338013m. Speed=0.000000m/h.</desc>
<speed>0.000000</speed>
</trkpt>
<trkpt lat="55.726898" lon="26.550476">
<ele>144.330200</ele>
<time>2010-07-18T12:54:19Z</time>
<desc>lat.=55.726898, lon.=26.550476, Alt.=144.330200m. Speed=0.036000m/h.</desc>
<speed>0.010000</speed>
</trkpt>
<trkpt lat="55.726898" lon="26.550476">
<ele>144.326294</ele>
<time>2010-07-18T12:54:20Z</time>
<desc>lat.=55.726898, lon.=26.550476, Alt.=144.326294m. Speed=0.036000m/h.</desc>
<speed>0.010000</speed>
</trkpt>
<trkpt lat="55.726898" lon="26.550476">
<ele>144.318481</ele>
<time>2010-07-18T12:54:21Z</time>
<desc>lat.=55.726898, lon.=26.550476, Alt.=144.318481m. Speed=0.000000m/h.</desc>
<speed>0.000000</speed>
</trkpt>
<trkpt lat="55.726898" lon="26.550476">
<ele>144.310669</ele>
<time>2010-07-18T12:54:22Z</time>
<desc>lat.=55.726898, lon.=26.550476, Alt.=144.310669m. Speed=0.000000m/h.</desc>
<speed>0.000000</speed>
</trkpt>
<trkpt lat="55.726898" lon="26.550476">
<ele>144.306763</ele>
<time>2010-07-18T12:54:23Z</time>
<desc>lat.=55.726898, lon.=26.550476, Alt.=144.306763m. Speed=0.036000m/h.</desc>
<speed>0.010000</speed>
</trkpt>
<trkpt lat="55.726898" lon="26.550476">
<ele>144.302856</ele>
<time>2010-07-18T12:54:24Z</time>
<desc>lat.=55.726898, lon.=26.550476, Alt.=144.302856m. Speed=0.036000m/h.</desc>
<speed>0.010000</speed>
</trkpt>
<trkpt lat="55.726898" lon="26.550476">
<ele>144.302856</ele>
<time>2010-07-18T12:54:25Z</time>
<desc>lat.=55.726898, lon.=26.550476, Alt.=144.302856m. Speed=0.036000m/h.</desc>
<speed>0.010000</speed>
</trkpt>
<trkpt lat="55.726898" lon="26.550476">
<ele>144.298950</ele>
<time>2010-07-18T12:54:26Z</time>
<desc>lat.=55.726898, lon.=26.550476, Alt.=144.298950m. Speed=0.036000m/h.</desc>
<speed>0.010000</speed>
</trkpt>
<trkpt lat="55.726898" lon="26.550476">
<ele>144.298950</ele>
<time>2010-07-18T12:54:27Z</time>
<desc>lat.=55.726898, lon.=26.550476, Alt.=144.298950m. Speed=0.000000m/h.</desc>
<speed>0.000000</speed>
</trkpt>
<trkpt lat="55.726898" lon="26.550476">
<ele>144.295044</ele>
<time>2010-07-18T12:54:28Z</time>
<desc>lat.=55.726898, lon.=26.550476, Alt.=144.295044m. Speed=0.036000m/h.</desc>
<speed>0.010000</speed>
</trkpt>
<trkpt lat="55.726898" lon="26.550476">
<ele>144.295044</ele>
<time>2010-07-18T12:54:29Z</time>
<desc>lat.=55.726898, lon.=26.550476, Alt.=144.295044m. Speed=0.036000m/h.</desc>
<speed>0.010000</speed>
</trkpt>
<trkpt lat="55.726898" lon="26.550476">
<ele>144.295044</ele>
<time>2010-07-18T12:54:30Z</time>
<desc>lat.=55.726898, lon.=26.550476, Alt.=144.295044m. Speed=0.036000m/h.</desc>
<speed>0.010000</speed>
</trkpt>
<trkpt lat="55.726898" lon="26.550476">
<ele>144.295044</ele>
<time>2010-07-18T12:54:31Z</time>
<desc>lat.=55.726898, lon.=26.550476, Alt.=144.295044m. Speed=0.000000m/h.</desc>
<speed>0.000000</speed>
</trkpt>
<trkpt lat="55.726898" lon="26.550476">
<ele>144.295044</ele>
<time>2010-07-18T12:54:32Z</time>
<desc>lat.=55.726898, lon.=26.550476, Alt.=144.295044m. Speed=0.000000m/h.</desc>
<speed>0.000000</speed>
</trkpt>
<trkpt lat="55.726898" lon="26.550476">
<ele>144.291138</ele>
<time>2010-07-18T12:54:33Z</time>
<desc>lat.=55.726898, lon.=26.550476, Alt.=144.291138m. Speed=0.000000m/h.</desc>
<speed>0.000000</speed>
</trkpt>
<trkpt lat="55.726898" lon="26.550476">
<ele>144.291138</ele>
<time>2010-07-18T12:54:34Z</time>
<desc>lat.=55.726898, lon.=26.550476, Alt.=144.291138m. Speed=0.000000m/h.</desc>
<speed>0.000000</speed>
</trkpt>
<trkpt lat="55.726898" lon="26.550476">
<ele>144.291138</ele>
<time>2010-07-18T12:54:35Z</time>
<desc>lat.=55.726898, lon.=26.550476, Alt.=144.291138m. Speed=0.000000m/h.</desc>
<speed>0.000000</speed>
</trkpt>
<trkpt lat="55.726898" lon="26.550476">
<ele>144.287231</ele>
<time>2010-07-18T12:54:36Z</time>
<desc>lat.=55.726898, lon.=26.550476, Alt.=144.287231m. Speed=0.000000m/h.</desc>
<speed>0.000000</speed>
</trkpt>
<trkpt lat="55.726898" lon="26.550476">
<ele>144.287231</ele>
<time>2010-07-18T12:54:37Z</time>
<desc>lat.=55.726898, lon.=26.550476, Alt.=144.287231m. Speed=0.000000m/h.</desc>
<speed>0.000000</speed>
</trkpt>
<trkpt lat="55.726898" lon="26.550476">
<ele>144.287231</ele>
<time>2010-07-18T12:54:38Z</time>
<desc>lat.=55.726898, lon.=26.550476, Alt.=144.287231m. Speed=0.000000m/h.</desc>
<speed>0.000000</speed>
</trkpt>
<trkpt lat="55.726898" lon="26.550476">
<ele>144.287231</ele>
<time>2010-07-18T12:54:39Z</time>
<desc>lat.=55.726898, lon.=26.550476, Alt.=144.287231m. Speed=0.000000m/h.</desc>
<speed>0.000000</speed>
</trkpt>
<trkpt lat="55.726898" lon="26.550476">
<ele>144.283325</ele>
<time>2010-07-18T12:54:40Z</time>
<desc>lat.=55.726898, lon.=26.550476, Alt.=144.283325m. Speed=0.000000m/h.</desc>
<speed>0.000000</speed>
</trkpt>
<trkpt lat="55.726898" lon="26.550474">
<ele>144.283325</ele>
<time>2010-07-18T12:54:41Z</time>
<desc>lat.=55.726898, lon.=26.550474, Alt.=144.283325m. Speed=0.000000m/h.</desc>
<speed>0.000000</speed>
</trkpt>
<trkpt lat="55.726898" lon="26.550474">
<ele>144.279419</ele>
<time>2010-07-18T12:54:42Z</time>
<desc>lat.=55.726898, lon.=26.550474, Alt.=144.279419m. Speed=0.036000m/h.</desc>
<speed>0.010000</speed>
</trkpt>
<trkpt lat="55.726898" lon="26.550474">
<ele>144.275513</ele>
<time>2010-07-18T12:54:43Z</time>
<desc>lat.=55.726898, lon.=26.550474, Alt.=144.275513m. Speed=0.000000m/h.</desc>
<speed>0.000000</speed>
</trkpt>
<trkpt lat="55.726898" lon="26.550474">
<ele>144.275513</ele>
<time>2010-07-18T12:54:44Z</time>
<desc>lat.=55.726898, lon.=26.550474, Alt.=144.275513m. Speed=0.000000m/h.</desc>
<speed>0.000000</speed>
</trkpt>
<trkpt lat="55.726898" lon="26.550474">
<ele>144.271606</ele>
<time>2010-07-18T12:54:45Z</time>
<desc>lat.=55.726898, lon.=26.550474, Alt.=144.271606m. Speed=0.000000m/h.</desc>
<speed>0.000000</speed>
</trkpt>
<trkpt lat="55.726898" lon="26.550474">
<ele>144.267700</ele>
<time>2010-07-18T12:54:46Z</time>
<desc>lat.=55.726898, lon.=26.550474, Alt.=144.267700m. Speed=0.000000m/h.</desc>
<speed>0.000000</speed>
</trkpt>
<trkpt lat="55.726898" lon="26.550474">
<ele>144.267700</ele>
<time>2010-07-18T12:54:47Z</time>
<desc>lat.=55.726898, lon.=26.550474, Alt.=144.267700m. Speed=0.000000m/h.</desc>
<speed>0.000000</speed>
</trkpt>
<trkpt lat="55.726898" lon="26.550474">
<ele>144.259888</ele>
<time>2010-07-18T12:54:48Z</time>
<desc>lat.=55.726898, lon.=26.550474, Alt.=144.259888m. Speed=0.000000m/h.</desc>
<speed>0.000000</speed>
</trkpt>
<trkpt lat="55.726898" lon="26.550474">
<ele>144.259888</ele>
<time>2010-07-18T12:54:49Z</time>
<desc>lat.=55.726898, lon.=26.550474, Alt.=144.259888m. Speed=0.000000m/h.</desc>
<speed>0.000000</speed>
</trkpt>
<trkpt lat="55.726898" lon="26.550474">
<ele>144.259888</ele>
<time>2010-07-18T12:54:50Z</time>
<desc>lat.=55.726898, lon.=26.550474, Alt.=144.259888m. Speed=0.000000m/h.</desc>
<speed>0.000000</speed>
</trkpt>
<trkpt lat="55.726898" lon="26.550474">
<ele>144.259888</ele>
<time>2010-07-18T12:54:51Z</time>
<desc>lat.=55.726898, lon.=26.550474, Alt.=144.259888m. Speed=0.000000m/h.</desc>
<speed>0.000000</speed>
</trkpt>
<trkpt lat="55.726898" lon="26.550474">
<ele>144.255981</ele>
<time>2010-07-18T12:54:52Z</time>
<desc>lat.=55.726898, lon.=26.550474, Alt.=144.255981m. Speed=0.000000m/h.</desc>
<speed>0.000000</speed>
</trkpt>
<trkpt lat="55.726898" lon="26.550474">
<ele>144.255981</ele>
<time>2010-07-18T12:54:53Z</time>
<desc>lat.=55.726898, lon.=26.550474, Alt.=144.255981m. Speed=0.000000m/h.</desc>
<speed>0.000000</speed>
</trkpt>
<trkpt lat="55.726898" lon="26.550474">
<ele>144.255981</ele>
<time>2010-07-18T12:54:54Z</time>
<desc>lat.=55.726898, lon.=26.550474, Alt.=144.255981m. Speed=0.000000m/h.</desc>
<speed>0.000000</speed>
</trkpt>
<trkpt lat="55.726898" lon="26.550474">
<ele>144.259888</ele>
<time>2010-07-18T12:54:55Z</time>
<desc>lat.=55.726898, lon.=26.550474, Alt.=144.259888m. Speed=0.000000m/h.</desc>
<speed>0.000000</speed>
</trkpt>
<trkpt lat="55.726898" lon="26.550474">
<ele>144.263794</ele>
<time>2010-07-18T12:54:56Z</time>
<desc>lat.=55.726898, lon.=26.550474, Alt.=144.263794m. Speed=0.000000m/h.</desc>
<speed>0.000000</speed>
</trkpt>
<trkpt lat="55.726898" lon="26.550474">
<ele>144.263794</ele>
<time>2010-07-18T12:54:57Z</time>
<desc>lat.=55.726898, lon.=26.550474, Alt.=144.263794m. Speed=0.000000m/h.</desc>
<speed>0.000000</speed>
</trkpt>
<trkpt lat="55.726898" lon="26.550474">
<ele>144.267700</ele>
<time>2010-07-18T12:54:58Z</time>
<desc>lat.=55.726898, lon.=26.550474, Alt.=144.267700m. Speed=0.000000m/h.</desc>
<speed>0.000000</speed>
</trkpt>
<trkpt lat="55.726898" lon="26.550474">
<ele>144.271606</ele>
<time>2010-07-18T12:54:59Z</time>
<desc>lat.=55.726898, lon.=26.550474, Alt.=144.271606m. Speed=0.036000m/h.</desc>
<speed>0.010000</speed>
</trkpt>
<trkpt lat="55.726898" lon="26.550474">
<ele>144.275513</ele>
<time>2010-07-18T12:55:00Z</time>
<desc>lat.=55.726898, lon.=26.550474, Alt.=144.275513m. Speed=0.000000m/h.</desc>
<speed>0.000000</speed>
</trkpt>
<trkpt lat="55.726898" lon="26.550474">
<ele>144.283325</ele>
<time>2010-07-18T12:55:01Z</time>
<desc>lat.=55.726898, lon.=26.550474, Alt.=144.283325m. Speed=0.000000m/h.</desc>
<speed>0.000000</speed>
</trkpt>
<trkpt lat="55.726898" lon="26.550474">
<ele>144.287231</ele>
<time>2010-07-18T12:55:02Z</time>
<desc>lat.=55.726898, lon.=26.550474, Alt.=144.287231m. Speed=0.000000m/h.</desc>
<speed>0.000000</speed>
</trkpt>
<trkpt lat="55.726898" lon="26.550474">
<ele>144.287231</ele>
<time>2010-07-18T12:55:03Z</time>
<desc>lat.=55.726898, lon.=26.550474, Alt.=144.287231m. Speed=0.000000m/h.</desc>
<speed>0.000000</speed>
</trkpt>
<trkpt lat="55.726898" lon="26.550472">
<ele>144.287231</ele>
<time>2010-07-18T12:55:04Z</time>
<desc>lat.=55.726898, lon.=26.550472, Alt.=144.287231m. Speed=0.000000m/h.</desc>
<speed>0.000000</speed>
</trkpt>
<trkpt lat="55.726898" lon="26.550472">
<ele>144.283325</ele>
<time>2010-07-18T12:55:05Z</time>
<desc>lat.=55.726898, lon.=26.550472, Alt.=144.283325m. Speed=0.000000m/h.</desc>
<speed>0.000000</speed>
</trkpt>
<trkpt lat="55.726898" lon="26.550472">
<ele>144.283325</ele>
<time>2010-07-18T12:55:06Z</time>
<desc>lat.=55.726898, lon.=26.550472, Alt.=144.283325m. Speed=0.036000m/h.</desc>
<speed>0.010000</speed>
</trkpt>
<trkpt lat="55.726898" lon="26.550472">
<ele>144.275513</ele>
<time>2010-07-18T12:55:07Z</time>
<desc>lat.=55.726898, lon.=26.550472, Alt.=144.275513m. Speed=0.000000m/h.</desc>
<speed>0.000000</speed>
</trkpt>
<trkpt lat="55.726898" lon="26.550472">
<ele>144.271606</ele>
<time>2010-07-18T12:55:08Z</time>
<desc>lat.=55.726898, lon.=26.550472, Alt.=144.271606m. Speed=0.036000m/h.</desc>
<speed>0.010000</speed>
</trkpt>
<trkpt lat="55.726898" lon="26.550472">
<ele>144.267700</ele>
<time>2010-07-18T12:55:09Z</time>
<desc>lat.=55.726898, lon.=26.550472, Alt.=144.267700m. Speed=0.000000m/h.</desc>
<speed>0.000000</speed>
</trkpt>
<trkpt lat="55.726898" lon="26.550472">
<ele>144.263794</ele>
<time>2010-07-18T12:55:10Z</time>
<desc>lat.=55.726898, lon.=26.550472, Alt.=144.263794m. Speed=0.000000m/h.</desc>
<speed>0.000000</speed>
</trkpt>
<trkpt lat="55.726898" lon="26.550472">
<ele>144.259888</ele>
<time>2010-07-18T12:55:11Z</time>
<desc>lat.=55.726898, lon.=26.550472, Alt.=144.259888m. Speed=0.000000m/h.</desc>
<speed>0.000000</speed>
</trkpt>
<trkpt lat="55.726898" lon="26.550472">
<ele>144.255981</ele>
<time>2010-07-18T12:55:12Z</time>
<desc>lat.=55.726898, lon.=26.550472, Alt.=144.255981m. Speed=0.000000m/h.</desc>
<speed>0.000000</speed>
</trkpt>
<trkpt lat="55.726898" lon="26.550472">
<ele>144.248169</ele>
<time>2010-07-18T12:55:13Z</time>
<desc>lat.=55.726898, lon.=26.550472, Alt.=144.248169m. Speed=0.000000m/h.</desc>
<speed>0.000000</speed>
</trkpt>
<trkpt lat="55.726898" lon="26.550472">
<ele>144.244263</ele>
<time>2010-07-18T12:55:14Z</time>
<desc>lat.=55.726898, lon.=26.550472, Alt.=144.244263m. Speed=0.000000m/h.</desc>
<speed>0.000000</speed>
</trkpt>
<trkpt lat="55.726898" lon="26.550472">
<ele>144.240356</ele>
<time>2010-07-18T12:55:15Z</time>
<desc>lat.=55.726898, lon.=26.550472, Alt.=144.240356m. Speed=0.000000m/h.</desc>
<speed>0.000000</speed>
</trkpt>
<trkpt lat="55.726898" lon="26.550472">
<ele>144.236450</ele>
<time>2010-07-18T12:55:16Z</time>
<desc>lat.=55.726898, lon.=26.550472, Alt.=144.236450m. Speed=0.036000m/h.</desc>
<speed>0.010000</speed>
</trkpt>
<trkpt lat="55.726898" lon="26.550472">
<ele>144.236450</ele>
<time>2010-07-18T12:55:17Z</time>
<desc>lat.=55.726898, lon.=26.550472, Alt.=144.236450m. Speed=0.036000m/h.</desc>
<speed>0.010000</speed>
</trkpt>
<trkpt lat="55.726898" lon="26.550472">
<ele>144.232544</ele>
<time>2010-07-18T12:55:18Z</time>
<desc>lat.=55.726898, lon.=26.550472, Alt.=144.232544m. Speed=0.072000m/h.</desc>
<speed>0.020000</speed>
</trkpt>
<trkpt lat="55.726898" lon="26.550472">
<ele>144.232544</ele>
<time>2010-07-18T12:55:19Z</time>
<desc>lat.=55.726898, lon.=26.550472, Alt.=144.232544m. Speed=0.036000m/h.</desc>
<speed>0.010000</speed>
</trkpt>
<trkpt lat="55.726898" lon="26.550472">
<ele>144.228638</ele>
<time>2010-07-18T12:55:20Z</time>
<desc>lat.=55.726898, lon.=26.550472, Alt.=144.228638m. Speed=0.000000m/h.</desc>
<speed>0.000000</speed>
</trkpt>
<trkpt lat="55.726898" lon="26.550472">
<ele>144.228638</ele>
<time>2010-07-18T12:55:21Z</time>
<desc>lat.=55.726898, lon.=26.550472, Alt.=144.228638m. Speed=0.000000m/h.</desc>
<speed>0.000000</speed>
</trkpt>
<trkpt lat="55.726898" lon="26.550472">
<ele>144.224731</ele>
<time>2010-07-18T12:55:22Z</time>
<desc>lat.=55.726898, lon.=26.550472, Alt.=144.224731m. Speed=0.036000m/h.</desc>
<speed>0.010000</speed>
</trkpt>
<trkpt lat="55.726898" lon="26.550472">
<ele>144.224731</ele>
<time>2010-07-18T12:55:23Z</time>
<desc>lat.=55.726898, lon.=26.550472, Alt.=144.224731m. Speed=0.000000m/h.</desc>
<speed>0.000000</speed>
</trkpt>
<trkpt lat="55.726898" lon="26.550472">
<ele>144.220825</ele>
<time>2010-07-18T12:55:24Z</time>
<desc>lat.=55.726898, lon.=26.550472, Alt.=144.220825m. Speed=0.036000m/h.</desc>
<speed>0.010000</speed>
</trkpt>
<trkpt lat="55.726898" lon="26.550472">
<ele>144.216919</ele>
<time>2010-07-18T12:55:25Z</time>
<desc>lat.=55.726898, lon.=26.550472, Alt.=144.216919m. Speed=0.000000m/h.</desc>
<speed>0.000000</speed>
</trkpt>
<trkpt lat="55.726898" lon="26.550472">
<ele>144.213013</ele>
<time>2010-07-18T12:55:26Z</time>
<desc>lat.=55.726898, lon.=26.550472, Alt.=144.213013m. Speed=0.000000m/h.</desc>
<speed>0.000000</speed>
</trkpt>
<trkpt lat="55.726898" lon="26.550472">
<ele>144.213013</ele>
<time>2010-07-18T12:55:27Z</time>
<desc>lat.=55.726898, lon.=26.550472, Alt.=144.213013m. Speed=0.072000m/h.</desc>
<speed>0.020000</speed>
</trkpt>
<trkpt lat="55.726898" lon="26.550472">
<ele>144.213013</ele>
<time>2010-07-18T12:55:28Z</time>
<desc>lat.=55.726898, lon.=26.550472, Alt.=144.213013m. Speed=0.036000m/h.</desc>
<speed>0.010000</speed>
</trkpt>
<trkpt lat="55.726898" lon="26.550472">
<ele>144.213013</ele>
<time>2010-07-18T12:55:29Z</time>
<desc>lat.=55.726898, lon.=26.550472, Alt.=144.213013m. Speed=0.000000m/h.</desc>
<speed>0.000000</speed>
</trkpt>
<trkpt lat="55.726898" lon="26.550472">
<ele>144.209106</ele>
<time>2010-07-18T12:55:30Z</time>
<desc>lat.=55.726898, lon.=26.550472, Alt.=144.209106m. Speed=0.000000m/h.</desc>
<speed>0.000000</speed>
</trkpt>
<trkpt lat="55.726898" lon="26.550472">
<ele>144.209106</ele>
<time>2010-07-18T12:55:31Z</time>
<desc>lat.=55.726898, lon.=26.550472, Alt.=144.209106m. Speed=0.000000m/h.</desc>
<speed>0.000000</speed>
</trkpt>
<trkpt lat="55.726898" lon="26.550472">
<ele>144.209106</ele>
<time>2010-07-18T12:55:32Z</time>
<desc>lat.=55.726898, lon.=26.550472, Alt.=144.209106m. Speed=0.000000m/h.</desc>
<speed>0.000000</speed>
</trkpt>
<trkpt lat="55.726898" lon="26.550472">
<ele>144.205200</ele>
<time>2010-07-18T12:55:33Z</time>
<desc>lat.=55.726898, lon.=26.550472, Alt.=144.205200m. Speed=0.000000m/h.</desc>
<speed>0.000000</speed>
</trkpt>
<trkpt lat="55.726898" lon="26.550472">
<ele>144.205200</ele>
<time>2010-07-18T12:55:34Z</time>
<desc>lat.=55.726898, lon.=26.550472, Alt.=144.205200m. Speed=0.000000m/h.</desc>
<speed>0.000000</speed>
</trkpt>
<trkpt lat="55.726898" lon="26.550472">
<ele>144.205200</ele>
<time>2010-07-18T12:55:35Z</time>
<desc>lat.=55.726898, lon.=26.550472, Alt.=144.205200m. Speed=0.000000m/h.</desc>
<speed>0.000000</speed>
</trkpt>
<trkpt lat="55.726898" lon="26.550472">
<ele>144.205200</ele>
<time>2010-07-18T12:55:36Z</time>
<desc>lat.=55.726898, lon.=26.550472, Alt.=144.205200m. Speed=0.000000m/h.</desc>
<speed>0.000000</speed>
</trkpt>
<trkpt lat="55.726898" lon="26.550472">
<ele>144.205200</ele>
<time>2010-07-18T12:55:37Z</time>
<desc>lat.=55.726898, lon.=26.550472, Alt.=144.205200m. Speed=0.000000m/h.</desc>
<speed>0.000000</speed>
</trkpt>
<trkpt lat="55.726898" lon="26.550472">
<ele>144.201294</ele>
<time>2010-07-18T12:55:38Z</time>
<desc>lat.=55.726898, lon.=26.550472, Alt.=144.201294m. Speed=0.000000m/h.</desc>
<speed>0.000000</speed>
</trkpt>
<trkpt lat="55.726898" lon="26.550472">
<ele>144.197388</ele>
<time>2010-07-18T12:55:39Z</time>
<desc>lat.=55.726898, lon.=26.550472, Alt.=144.197388m. Speed=0.036000m/h.</desc>
<speed>0.010000</speed>
</trkpt>
<trkpt lat="55.726898" lon="26.550472">
<ele>144.197388</ele>
<time>2010-07-18T12:55:40Z</time>
<desc>lat.=55.726898, lon.=26.550472, Alt.=144.197388m. Speed=0.000000m/h.</desc>
<speed>0.000000</speed>
</trkpt>
<trkpt lat="55.726898" lon="26.550472">
<ele>144.197388</ele>
<time>2010-07-18T12:55:41Z</time>
<desc>lat.=55.726898, lon.=26.550472, Alt.=144.197388m. Speed=0.000000m/h.</desc>
<speed>0.000000</speed>
</trkpt>
<trkpt lat="55.726898" lon="26.550472">
<ele>144.193481</ele>
<time>2010-07-18T12:55:42Z</time>
<desc>lat.=55.726898, lon.=26.550472, Alt.=144.193481m. Speed=0.000000m/h.</desc>
<speed>0.000000</speed>
</trkpt>
<trkpt lat="55.726898" lon="26.550472">
<ele>144.193481</ele>
<time>2010-07-18T12:55:43Z</time>
<desc>lat.=55.726898, lon.=26.550472, Alt.=144.193481m. Speed=0.000000m/h.</desc>
<speed>0.000000</speed>
</trkpt>
<trkpt lat="55.726898" lon="26.550472">
<ele>144.193481</ele>
<time>2010-07-18T12:55:44Z</time>
<desc>lat.=55.726898, lon.=26.550472, Alt.=144.193481m. Speed=0.000000m/h.</desc>
<speed>0.000000</speed>
</trkpt>
<trkpt lat="55.726898" lon="26.550472">
<ele>144.193481</ele>
<time>2010-07-18T12:55:45Z</time>
<desc>lat.=55.726898, lon.=26.550472, Alt.=144.193481m. Speed=0.000000m/h.</desc>
<speed>0.000000</speed>
</trkpt>
<trkpt lat="55.726898" lon="26.550472">
<ele>144.193481</ele>
<time>2010-07-18T12:55:46Z</time>
<desc>lat.=55.726898, lon.=26.550472, Alt.=144.193481m. Speed=0.000000m/h.</desc>
<speed>0.000000</speed>
</trkpt>
<trkpt lat="55.726898" lon="26.550472">
<ele>144.189575</ele>
<time>2010-07-18T12:55:47Z</time>
<desc>lat.=55.726898, lon.=26.550472, Alt.=144.189575m. Speed=0.000000m/h.</desc>
<speed>0.000000</speed>
</trkpt>
<trkpt lat="55.726898" lon="26.550472">
<ele>144.189575</ele>
<time>2010-07-18T12:55:48Z</time>
<desc>lat.=55.726898, lon.=26.550472, Alt.=144.189575m. Speed=0.000000m/h.</desc>
<speed>0.000000</speed>
</trkpt>
<trkpt lat="55.726898" lon="26.550472">
<ele>144.185669</ele>
<time>2010-07-18T12:55:49Z</time>
<desc>lat.=55.726898, lon.=26.550472, Alt.=144.185669m. Speed=0.000000m/h.</desc>
<speed>0.000000</speed>
</trkpt>
<trkpt lat="55.726898" lon="26.550472">
<ele>144.181763</ele>
<time>2010-07-18T12:55:50Z</time>
<desc>lat.=55.726898, lon.=26.550472, Alt.=144.181763m. Speed=0.000000m/h.</desc>
<speed>0.000000</speed>
</trkpt>
<trkpt lat="55.726898" lon="26.550472">
<ele>144.177856</ele>
<time>2010-07-18T12:55:51Z</time>
<desc>lat.=55.726898, lon.=26.550472, Alt.=144.177856m. Speed=0.072000m/h.</desc>
<speed>0.020000</speed>
</trkpt>
<trkpt lat="55.726898" lon="26.550472">
<ele>144.177856</ele>
<time>2010-07-18T12:55:52Z</time>
<desc>lat.=55.726898, lon.=26.550472, Alt.=144.177856m. Speed=0.036000m/h.</desc>
<speed>0.010000</speed>
</trkpt>
<trkpt lat="55.726898" lon="26.550472">
<ele>144.173950</ele>
<time>2010-07-18T12:55:53Z</time>
<desc>lat.=55.726898, lon.=26.550472, Alt.=144.173950m. Speed=0.000000m/h.</desc>
<speed>0.000000</speed>
</trkpt>
<trkpt lat="55.726898" lon="26.550472">
<ele>144.173950</ele>
<time>2010-07-18T12:55:54Z</time>
<desc>lat.=55.726898, lon.=26.550472, Alt.=144.173950m. Speed=0.000000m/h.</desc>
<speed>0.000000</speed>
</trkpt>
<trkpt lat="55.726898" lon="26.550472">
<ele>144.170044</ele>
<time>2010-07-18T12:55:55Z</time>
<desc>lat.=55.726898, lon.=26.550472, Alt.=144.170044m. Speed=0.000000m/h.</desc>
<speed>0.000000</speed>
</trkpt>
<trkpt lat="55.726898" lon="26.550472">
<ele>144.170044</ele>
<time>2010-07-18T12:55:56Z</time>
<desc>lat.=55.726898, lon.=26.550472, Alt.=144.170044m. Speed=0.000000m/h.</desc>
<speed>0.000000</speed>
</trkpt>
<trkpt lat="55.726898" lon="26.550472">
<ele>144.166138</ele>
<time>2010-07-18T12:55:57Z</time>
<desc>lat.=55.726898, lon.=26.550472, Alt.=144.166138m. Speed=0.036000m/h.</desc>
<speed>0.010000</speed>
</trkpt>
<trkpt lat="55.726898" lon="26.550470">
<ele>144.162231</ele>
<time>2010-07-18T12:55:58Z</time>
<desc>lat.=55.726898, lon.=26.550470, Alt.=144.162231m. Speed=0.000000m/h.</desc>
<speed>0.000000</speed>
</trkpt>
<trkpt lat="55.726898" lon="26.550470">
<ele>144.162231</ele>
<time>2010-07-18T12:55:59Z</time>
<desc>lat.=55.726898, lon.=26.550470, Alt.=144.162231m. Speed=0.000000m/h.</desc>
<speed>0.000000</speed>
</trkpt>
<trkpt lat="55.726898" lon="26.550470">
<ele>144.158325</ele>
<time>2010-07-18T12:56:00Z</time>
<desc>lat.=55.726898, lon.=26.550470, Alt.=144.158325m. Speed=0.036000m/h.</desc>
<speed>0.010000</speed>
</trkpt>
<trkpt lat="55.726898" lon="26.550470">
<ele>144.154419</ele>
<time>2010-07-18T12:56:01Z</time>
<desc>lat.=55.726898, lon.=26.550470, Alt.=144.154419m. Speed=0.036000m/h.</desc>
<speed>0.010000</speed>
</trkpt>
<trkpt lat="55.726898" lon="26.550470">
<ele>144.150513</ele>
<time>2010-07-18T12:56:02Z</time>
<desc>lat.=55.726898, lon.=26.550470, Alt.=144.150513m. Speed=0.036000m/h.</desc>
<speed>0.010000</speed>
</trkpt>
<trkpt lat="55.726898" lon="26.550470">
<ele>144.142700</ele>
<time>2010-07-18T12:56:03Z</time>
<desc>lat.=55.726898, lon.=26.550470, Alt.=144.142700m. Speed=0.000000m/h.</desc>
<speed>0.000000</speed>
</trkpt>
<trkpt lat="55.726898" lon="26.550470">
<ele>144.138794</ele>
<time>2010-07-18T12:56:04Z</time>
<desc>lat.=55.726898, lon.=26.550470, Alt.=144.138794m. Speed=0.036000m/h.</desc>
<speed>0.010000</speed>
</trkpt>
<trkpt lat="55.726898" lon="26.550470">
<ele>144.130981</ele>
<time>2010-07-18T12:56:05Z</time>
<desc>lat.=55.726898, lon.=26.550470, Alt.=144.130981m. Speed=0.036000m/h.</desc>
<speed>0.010000</speed>
</trkpt>
<trkpt lat="55.726898" lon="26.550470">
<ele>144.127075</ele>
<time>2010-07-18T12:56:06Z</time>
<desc>lat.=55.726898, lon.=26.550470, Alt.=144.127075m. Speed=0.036000m/h.</desc>
<speed>0.010000</speed>
</trkpt>
<trkpt lat="55.726898" lon="26.550470">
<ele>144.123169</ele>
<time>2010-07-18T12:56:07Z</time>
<desc>lat.=55.726898, lon.=26.550470, Alt.=144.123169m. Speed=0.000000m/h.</desc>
<speed>0.000000</speed>
</trkpt>
<trkpt lat="55.726898" lon="26.550470">
<ele>144.119263</ele>
<time>2010-07-18T12:56:08Z</time>
<desc>lat.=55.726898, lon.=26.550470, Alt.=144.119263m. Speed=0.072000m/h.</desc>
<speed>0.020000</speed>
</trkpt>
<trkpt lat="55.726898" lon="26.550470">
<ele>144.115356</ele>
<time>2010-07-18T12:56:09Z</time>
<desc>lat.=55.726898, lon.=26.550470, Alt.=144.115356m. Speed=0.036000m/h.</desc>
<speed>0.010000</speed>
</trkpt>
<trkpt lat="55.726898" lon="26.550470">
<ele>144.107544</ele>
<time>2010-07-18T12:56:10Z</time>
<desc>lat.=55.726898, lon.=26.550470, Alt.=144.107544m. Speed=0.072000m/h.</desc>
<speed>0.020000</speed>
</trkpt>
<trkpt lat="55.726898" lon="26.550470">
<ele>144.088013</ele>
<time>2010-07-18T12:56:11Z</time>
<desc>lat.=55.726898, lon.=26.550470, Alt.=144.088013m. Speed=0.036000m/h.</desc>
<speed>0.010000</speed>
</trkpt>
<trkpt lat="55.726898" lon="26.550470">
<ele>144.072388</ele>
<time>2010-07-18T12:56:12Z</time>
<desc>lat.=55.726898, lon.=26.550470, Alt.=144.072388m. Speed=0.036000m/h.</desc>
<speed>0.010000</speed>
</trkpt>
<trkpt lat="55.726898" lon="26.550470">
<ele>144.064575</ele>
<time>2010-07-18T12:56:13Z</time>
<desc>lat.=55.726898, lon.=26.550470, Alt.=144.064575m. Speed=0.000000m/h.</desc>
<speed>0.000000</speed>
</trkpt>
<trkpt lat="55.726898" lon="26.550470">
<ele>144.052856</ele>
<time>2010-07-18T12:56:14Z</time>
<desc>lat.=55.726898, lon.=26.550470, Alt.=144.052856m. Speed=0.000000m/h.</desc>
<speed>0.000000</speed>
</trkpt>
<trkpt lat="55.726898" lon="26.550470">
<ele>144.037231</ele>
<time>2010-07-18T12:56:15Z</time>
<desc>lat.=55.726898, lon.=26.550470, Alt.=144.037231m. Speed=0.000000m/h.</desc>
<speed>0.000000</speed>
</trkpt>
<trkpt lat="55.726898" lon="26.550470">
<ele>144.029419</ele>
<time>2010-07-18T12:56:16Z</time>
<desc>lat.=55.726898, lon.=26.550470, Alt.=144.029419m. Speed=0.000000m/h.</desc>
<speed>0.000000</speed>
</trkpt>
<trkpt lat="55.726898" lon="26.550470">
<ele>144.025513</ele>
<time>2010-07-18T12:56:17Z</time>
<desc>lat.=55.726898, lon.=26.550470, Alt.=144.025513m. Speed=0.000000m/h.</desc>
<speed>0.000000</speed>
</trkpt>
<trkpt lat="55.726898" lon="26.550470">
<ele>144.021606</ele>
<time>2010-07-18T12:56:18Z</time>
<desc>lat.=55.726898, lon.=26.550470, Alt.=144.021606m. Speed=0.000000m/h.</desc>
<speed>0.000000</speed>
</trkpt>
<trkpt lat="55.726898" lon="26.550470">
<ele>144.017700</ele>
<time>2010-07-18T12:56:19Z</time>
<desc>lat.=55.726898, lon.=26.550470, Alt.=144.017700m. Speed=0.000000m/h.</desc>
<speed>0.000000</speed>
</trkpt>
<trkpt lat="55.726898" lon="26.550470">
<ele>144.013794</ele>
<time>2010-07-18T12:56:20Z</time>
<desc>lat.=55.726898, lon.=26.550470, Alt.=144.013794m. Speed=0.036000m/h.</desc>
<speed>0.010000</speed>
</trkpt>
<trkpt lat="55.726898" lon="26.550470">
<ele>144.009888</ele>
<time>2010-07-18T12:56:21Z</time>
<desc>lat.=55.726898, lon.=26.550470, Alt.=144.009888m. Speed=0.000000m/h.</desc>
<speed>0.000000</speed>
</trkpt>
<trkpt lat="55.726898" lon="26.550470">
<ele>144.009888</ele>
<time>2010-07-18T12:56:22Z</time>
<desc>lat.=55.726898, lon.=26.550470, Alt.=144.009888m. Speed=0.000000m/h.</desc>
<speed>0.000000</speed>
</trkpt>
<trkpt lat="55.726898" lon="26.550470">
<ele>144.009888</ele>
<time>2010-07-18T12:56:23Z</time>
<desc>lat.=55.726898, lon.=26.550470, Alt.=144.009888m. Speed=0.000000m/h.</desc>
<speed>0.000000</speed>
</trkpt>
<trkpt lat="55.726898" lon="26.550470">
<ele>144.009888</ele>
<time>2010-07-18T12:56:24Z</time>
<desc>lat.=55.726898, lon.=26.550470, Alt.=144.009888m. Speed=0.072000m/h.</desc>
<speed>0.020000</speed>
</trkpt>
<trkpt lat="55.726898" lon="26.550470">
<ele>144.005981</ele>
<time>2010-07-18T12:56:25Z</time>
<desc>lat.=55.726898, lon.=26.550470, Alt.=144.005981m. Speed=0.036000m/h.</desc>
<speed>0.010000</speed>
</trkpt>
<trkpt lat="55.726898" lon="26.550470">
<ele>144.005981</ele>
<time>2010-07-18T12:56:26Z</time>
<desc>lat.=55.726898, lon.=26.550470, Alt.=144.005981m. Speed=0.036000m/h.</desc>
<speed>0.010000</speed>
</trkpt>
<trkpt lat="55.726898" lon="26.550470">
<ele>144.002075</ele>
<time>2010-07-18T12:56:27Z</time>
<desc>lat.=55.726898, lon.=26.550470, Alt.=144.002075m. Speed=0.000000m/h.</desc>
<speed>0.000000</speed>
</trkpt>
<trkpt lat="55.726898" lon="26.550470">
<ele>144.002075</ele>
<time>2010-07-18T12:56:28Z</time>
<desc>lat.=55.726898, lon.=26.550470, Alt.=144.002075m. Speed=0.000000m/h.</desc>
<speed>0.000000</speed>
</trkpt>
<trkpt lat="55.726898" lon="26.550470">
<ele>143.998169</ele>
<time>2010-07-18T12:56:29Z</time>
<desc>lat.=55.726898, lon.=26.550470, Alt.=143.998169m. Speed=0.000000m/h.</desc>
<speed>0.000000</speed>
</trkpt>
<trkpt lat="55.726898" lon="26.550470">
<ele>143.998169</ele>
<time>2010-07-18T12:56:30Z</time>
<desc>lat.=55.726898, lon.=26.550470, Alt.=143.998169m. Speed=0.072000m/h.</desc>
<speed>0.020000</speed>
</trkpt>
<trkpt lat="55.726898" lon="26.550470">
<ele>143.998169</ele>
<time>2010-07-18T12:56:31Z</time>
<desc>lat.=55.726898, lon.=26.550470, Alt.=143.998169m. Speed=0.000000m/h.</desc>
<speed>0.000000</speed>
</trkpt>
<trkpt lat="55.726898" lon="26.550470">
<ele>143.998169</ele>
<time>2010-07-18T12:56:32Z</time>
<desc>lat.=55.726898, lon.=26.550470, Alt.=143.998169m. Speed=0.000000m/h.</desc>
<speed>0.000000</speed>
</trkpt>
<trkpt lat="55.726898" lon="26.550470">
<ele>143.998169</ele>
<time>2010-07-18T12:56:33Z</time>
<desc>lat.=55.726898, lon.=26.550470, Alt.=143.998169m. Speed=0.036000m/h.</desc>
<speed>0.010000</speed>
</trkpt>
<trkpt lat="55.726898" lon="26.550470">
<ele>143.998169</ele>
<time>2010-07-18T12:56:34Z</time>
<desc>lat.=55.726898, lon.=26.550470, Alt.=143.998169m. Speed=0.000000m/h.</desc>
<speed>0.000000</speed>
</trkpt>
<trkpt lat="55.726894" lon="26.550470">
<ele>144.002075</ele>
<time>2010-07-18T12:56:35Z</time>
<desc>lat.=55.726894, lon.=26.550470, Alt.=144.002075m. Speed=0.072000m/h.</desc>
<speed>0.020000</speed>
</trkpt>
<trkpt lat="55.726894" lon="26.550470">
<ele>144.002075</ele>
<time>2010-07-18T12:56:36Z</time>
<desc>lat.=55.726894, lon.=26.550470, Alt.=144.002075m. Speed=0.000000m/h.</desc>
<speed>0.000000</speed>
</trkpt>
<trkpt lat="55.726894" lon="26.550468">
<ele>144.005981</ele>
<time>2010-07-18T12:56:37Z</time>
<desc>lat.=55.726894, lon.=26.550468, Alt.=144.005981m. Speed=0.000000m/h.</desc>
<speed>0.000000</speed>
</trkpt>
<trkpt lat="55.726894" lon="26.550468">
<ele>144.009888</ele>
<time>2010-07-18T12:56:38Z</time>
<desc>lat.=55.726894, lon.=26.550468, Alt.=144.009888m. Speed=0.000000m/h.</desc>
<speed>0.000000</speed>
</trkpt>
<trkpt lat="55.726894" lon="26.550468">
<ele>144.009888</ele>
<time>2010-07-18T12:56:39Z</time>
<desc>lat.=55.726894, lon.=26.550468, Alt.=144.009888m. Speed=0.000000m/h.</desc>
<speed>0.000000</speed>
</trkpt>
<trkpt lat="55.726894" lon="26.550468">
<ele>144.013794</ele>
<time>2010-07-18T12:56:40Z</time>
<desc>lat.=55.726894, lon.=26.550468, Alt.=144.013794m. Speed=0.036000m/h.</desc>
<speed>0.010000</speed>
</trkpt>
<trkpt lat="55.726894" lon="26.550468">
<ele>144.017700</ele>
<time>2010-07-18T12:56:41Z</time>
<desc>lat.=55.726894, lon.=26.550468, Alt.=144.017700m. Speed=0.000000m/h.</desc>
<speed>0.000000</speed>
</trkpt>
<trkpt lat="55.726894" lon="26.550468">
<ele>144.021606</ele>
<time>2010-07-18T12:56:42Z</time>
<desc>lat.=55.726894, lon.=26.550468, Alt.=144.021606m. Speed=0.000000m/h.</desc>
<speed>0.000000</speed>
</trkpt>
<trkpt lat="55.726894" lon="26.550468">
<ele>144.021606</ele>
<time>2010-07-18T12:56:43Z</time>
<desc>lat.=55.726894, lon.=26.550468, Alt.=144.021606m. Speed=0.000000m/h.</desc>
<speed>0.000000</speed>
</trkpt>
<trkpt lat="55.726894" lon="26.550468">
<ele>144.021606</ele>
<time>2010-07-18T12:56:44Z</time>
<desc>lat.=55.726894, lon.=26.550468, Alt.=144.021606m. Speed=0.000000m/h.</desc>
<speed>0.000000</speed>
</trkpt>
<trkpt lat="55.726894" lon="26.550468">
<ele>144.021606</ele>
<time>2010-07-18T12:56:45Z</time>
<desc>lat.=55.726894, lon.=26.550468, Alt.=144.021606m. Speed=0.000000m/h.</desc>
<speed>0.000000</speed>
</trkpt>
<trkpt lat="55.726894" lon="26.550468">
<ele>144.021606</ele>
<time>2010-07-18T12:56:46Z</time>
<desc>lat.=55.726894, lon.=26.550468, Alt.=144.021606m. Speed=0.000000m/h.</desc>
<speed>0.000000</speed>
</trkpt>
<trkpt lat="55.726894" lon="26.550468">
<ele>144.025513</ele>
<time>2010-07-18T12:56:47Z</time>
<desc>lat.=55.726894, lon.=26.550468, Alt.=144.025513m. Speed=0.000000m/h.</desc>
<speed>0.000000</speed>
</trkpt>
<trkpt lat="55.726894" lon="26.550468">
<ele>144.025513</ele>
<time>2010-07-18T12:56:48Z</time>
<desc>lat.=55.726894, lon.=26.550468, Alt.=144.025513m. Speed=0.000000m/h.</desc>
<speed>0.000000</speed>
</trkpt>
<trkpt lat="55.726894" lon="26.550468">
<ele>144.025513</ele>
<time>2010-07-18T12:56:49Z</time>
<desc>lat.=55.726894, lon.=26.550468, Alt.=144.025513m. Speed=0.000000m/h.</desc>
<speed>0.000000</speed>
</trkpt>
<trkpt lat="55.726894" lon="26.550468">
<ele>144.025513</ele>
<time>2010-07-18T12:56:50Z</time>
<desc>lat.=55.726894, lon.=26.550468, Alt.=144.025513m. Speed=0.000000m/h.</desc>
<speed>0.000000</speed>
</trkpt>
<trkpt lat="55.726894" lon="26.550468">
<ele>144.025513</ele>
<time>2010-07-18T12:56:51Z</time>
<desc>lat.=55.726894, lon.=26.550468, Alt.=144.025513m. Speed=0.000000m/h.</desc>
<speed>0.000000</speed>
</trkpt>
<trkpt lat="55.726894" lon="26.550468">
<ele>144.025513</ele>
<time>2010-07-18T12:56:52Z</time>
<desc>lat.=55.726894, lon.=26.550468, Alt.=144.025513m. Speed=0.036000m/h.</desc>
<speed>0.010000</speed>
</trkpt>
<trkpt lat="55.726894" lon="26.550467">
<ele>144.025513</ele>
<time>2010-07-18T12:56:53Z</time>
<desc>lat.=55.726894, lon.=26.550467, Alt.=144.025513m. Speed=0.036000m/h.</desc>
<speed>0.010000</speed>
</trkpt>
<trkpt lat="55.726894" lon="26.550467">
<ele>144.025513</ele>
<time>2010-07-18T12:56:54Z</time>
<desc>lat.=55.726894, lon.=26.550467, Alt.=144.025513m. Speed=0.000000m/h.</desc>
<speed>0.000000</speed>
</trkpt>
<trkpt lat="55.726894" lon="26.550467">
<ele>144.025513</ele>
<time>2010-07-18T12:56:55Z</time>
<desc>lat.=55.726894, lon.=26.550467, Alt.=144.025513m. Speed=0.000000m/h.</desc>
<speed>0.000000</speed>
</trkpt>
<trkpt lat="55.726894" lon="26.550467">
<ele>144.025513</ele>
<time>2010-07-18T12:56:56Z</time>
<desc>lat.=55.726894, lon.=26.550467, Alt.=144.025513m. Speed=0.072000m/h.</desc>
<speed>0.020000</speed>
</trkpt>
<trkpt lat="55.726894" lon="26.550467">
<ele>144.025513</ele>
<time>2010-07-18T12:56:57Z</time>
<desc>lat.=55.726894, lon.=26.550467, Alt.=144.025513m. Speed=0.036000m/h.</desc>
<speed>0.010000</speed>
</trkpt>
<trkpt lat="55.726894" lon="26.550467">
<ele>144.025513</ele>
<time>2010-07-18T12:56:58Z</time>
<desc>lat.=55.726894, lon.=26.550467, Alt.=144.025513m. Speed=0.000000m/h.</desc>
<speed>0.000000</speed>
</trkpt>
<trkpt lat="55.726894" lon="26.550467">
<ele>144.029419</ele>
<time>2010-07-18T12:56:59Z</time>
<desc>lat.=55.726894, lon.=26.550467, Alt.=144.029419m. Speed=0.036000m/h.</desc>
<speed>0.010000</speed>
</trkpt>
<trkpt lat="55.726894" lon="26.550467">
<ele>144.029419</ele>
<time>2010-07-18T12:57:00Z</time>
<desc>lat.=55.726894, lon.=26.550467, Alt.=144.029419m. Speed=0.036000m/h.</desc>
<speed>0.010000</speed>
</trkpt>
<trkpt lat="55.726894" lon="26.550467">
<ele>144.029419</ele>
<time>2010-07-18T12:57:01Z</time>
<desc>lat.=55.726894, lon.=26.550467, Alt.=144.029419m. Speed=0.036000m/h.</desc>
<speed>0.010000</speed>
</trkpt>
<trkpt lat="55.726894" lon="26.550467">
<ele>144.029419</ele>
<time>2010-07-18T12:57:02Z</time>
<desc>lat.=55.726894, lon.=26.550467, Alt.=144.029419m. Speed=0.000000m/h.</desc>
<speed>0.000000</speed>
</trkpt>
<trkpt lat="55.726894" lon="26.550467">
<ele>144.029419</ele>
<time>2010-07-18T12:57:03Z</time>
<desc>lat.=55.726894, lon.=26.550467, Alt.=144.029419m. Speed=0.000000m/h.</desc>
<speed>0.000000</speed>
</trkpt>
<trkpt lat="55.726894" lon="26.550467">
<ele>144.033325</ele>
<time>2010-07-18T12:57:04Z</time>
<desc>lat.=55.726894, lon.=26.550467, Alt.=144.033325m. Speed=0.000000m/h.</desc>
<speed>0.000000</speed>
</trkpt>
<trkpt lat="55.726894" lon="26.550467">
<ele>144.033325</ele>
<time>2010-07-18T12:57:05Z</time>
<desc>lat.=55.726894, lon.=26.550467, Alt.=144.033325m. Speed=0.000000m/h.</desc>
<speed>0.000000</speed>
</trkpt>
<trkpt lat="55.726894" lon="26.550467">
<ele>144.033325</ele>
<time>2010-07-18T12:57:06Z</time>
<desc>lat.=55.726894, lon.=26.550467, Alt.=144.033325m. Speed=0.000000m/h.</desc>
<speed>0.000000</speed>
</trkpt>
<trkpt lat="55.726894" lon="26.550467">
<ele>144.033325</ele>
<time>2010-07-18T12:57:07Z</time>
<desc>lat.=55.726894, lon.=26.550467, Alt.=144.033325m. Speed=0.000000m/h.</desc>
<speed>0.000000</speed>
</trkpt>
<trkpt lat="55.726894" lon="26.550467">
<ele>144.033325</ele>
<time>2010-07-18T12:57:08Z</time>
<desc>lat.=55.726894, lon.=26.550467, Alt.=144.033325m. Speed=0.000000m/h.</desc>
<speed>0.000000</speed>
</trkpt>
<trkpt lat="55.726894" lon="26.550467">
<ele>144.029419</ele>
<time>2010-07-18T12:57:09Z</time>
<desc>lat.=55.726894, lon.=26.550467, Alt.=144.029419m. Speed=0.000000m/h.</desc>
<speed>0.000000</speed>
</trkpt>
<trkpt lat="55.726894" lon="26.550467">
<ele>144.025513</ele>
<time>2010-07-18T12:57:10Z</time>
<desc>lat.=55.726894, lon.=26.550467, Alt.=144.025513m. Speed=0.036000m/h.</desc>
<speed>0.010000</speed>
</trkpt>
<trkpt lat="55.726894" lon="26.550467">
<ele>144.025513</ele>
<time>2010-07-18T12:57:11Z</time>
<desc>lat.=55.726894, lon.=26.550467, Alt.=144.025513m. Speed=0.036000m/h.</desc>
<speed>0.010000</speed>
</trkpt>
<trkpt lat="55.726894" lon="26.550467">
<ele>144.025513</ele>
<time>2010-07-18T12:57:12Z</time>
<desc>lat.=55.726894, lon.=26.550467, Alt.=144.025513m. Speed=0.000000m/h.</desc>
<speed>0.000000</speed>
</trkpt>
<trkpt lat="55.726894" lon="26.550467">
<ele>144.025513</ele>
<time>2010-07-18T12:57:13Z</time>
<desc>lat.=55.726894, lon.=26.550467, Alt.=144.025513m. Speed=0.036000m/h.</desc>
<speed>0.010000</speed>
</trkpt>
<trkpt lat="55.726894" lon="26.550467">
<ele>144.025513</ele>
<time>2010-07-18T12:57:14Z</time>
<desc>lat.=55.726894, lon.=26.550467, Alt.=144.025513m. Speed=0.036000m/h.</desc>
<speed>0.010000</speed>
</trkpt>
<trkpt lat="55.726894" lon="26.550467">
<ele>144.025513</ele>
<time>2010-07-18T12:57:15Z</time>
<desc>lat.=55.726894, lon.=26.550467, Alt.=144.025513m. Speed=0.000000m/h.</desc>
<speed>0.000000</speed>
</trkpt>
<trkpt lat="55.726894" lon="26.550467">
<ele>144.029419</ele>
<time>2010-07-18T12:57:16Z</time>
<desc>lat.=55.726894, lon.=26.550467, Alt.=144.029419m. Speed=0.036000m/h.</desc>
<speed>0.010000</speed>
</trkpt>
<trkpt lat="55.726894" lon="26.550467">
<ele>144.025513</ele>
<time>2010-07-18T12:57:17Z</time>
<desc>lat.=55.726894, lon.=26.550467, Alt.=144.025513m. Speed=0.000000m/h.</desc>
<speed>0.000000</speed>
</trkpt>
<trkpt lat="55.726894" lon="26.550467">
<ele>144.025513</ele>
<time>2010-07-18T12:57:18Z</time>
<desc>lat.=55.726894, lon.=26.550467, Alt.=144.025513m. Speed=0.000000m/h.</desc>
<speed>0.000000</speed>
</trkpt>
<trkpt lat="55.726894" lon="26.550467">
<ele>144.025513</ele>
<time>2010-07-18T12:57:19Z</time>
<desc>lat.=55.726894, lon.=26.550467, Alt.=144.025513m. Speed=0.036000m/h.</desc>
<speed>0.010000</speed>
</trkpt>
<trkpt lat="55.726894" lon="26.550465">
<ele>144.025513</ele>
<time>2010-07-18T12:57:20Z</time>
<desc>lat.=55.726894, lon.=26.550465, Alt.=144.025513m. Speed=0.000000m/h.</desc>
<speed>0.000000</speed>
</trkpt>
<trkpt lat="55.726894" lon="26.550465">
<ele>144.025513</ele>
<time>2010-07-18T12:57:21Z</time>
<desc>lat.=55.726894, lon.=26.550465, Alt.=144.025513m. Speed=0.036000m/h.</desc>
<speed>0.010000</speed>
</trkpt>
<trkpt lat="55.726894" lon="26.550465">
<ele>144.021606</ele>
<time>2010-07-18T12:57:22Z</time>
<desc>lat.=55.726894, lon.=26.550465, Alt.=144.021606m. Speed=0.000000m/h.</desc>
<speed>0.000000</speed>
</trkpt>
<trkpt lat="55.726894" lon="26.550465">
<ele>144.021606</ele>
<time>2010-07-18T12:57:23Z</time>
<desc>lat.=55.726894, lon.=26.550465, Alt.=144.021606m. Speed=0.000000m/h.</desc>
<speed>0.000000</speed>
</trkpt>
<trkpt lat="55.726894" lon="26.550465">
<ele>144.021606</ele>
<time>2010-07-18T12:57:24Z</time>
<desc>lat.=55.726894, lon.=26.550465, Alt.=144.021606m. Speed=0.000000m/h.</desc>
<speed>0.000000</speed>
</trkpt>
<trkpt lat="55.726894" lon="26.550465">
<ele>144.017700</ele>
<time>2010-07-18T12:57:25Z</time>
<desc>lat.=55.726894, lon.=26.550465, Alt.=144.017700m. Speed=0.000000m/h.</desc>
<speed>0.000000</speed>
</trkpt>
<trkpt lat="55.726894" lon="26.550465">
<ele>144.017700</ele>
<time>2010-07-18T12:57:26Z</time>
<desc>lat.=55.726894, lon.=26.550465, Alt.=144.017700m. Speed=0.000000m/h.</desc>
<speed>0.000000</speed>
</trkpt>
<trkpt lat="55.726894" lon="26.550465">
<ele>144.013794</ele>
<time>2010-07-18T12:57:27Z</time>
<desc>lat.=55.726894, lon.=26.550465, Alt.=144.013794m. Speed=0.072000m/h.</desc>
<speed>0.020000</speed>
</trkpt>
<trkpt lat="55.726894" lon="26.550465">
<ele>144.013794</ele>
<time>2010-07-18T12:57:28Z</time>
<desc>lat.=55.726894, lon.=26.550465, Alt.=144.013794m. Speed=0.000000m/h.</desc>
<speed>0.000000</speed>
</trkpt>
<trkpt lat="55.726894" lon="26.550465">
<ele>144.009888</ele>
<time>2010-07-18T12:57:29Z</time>
<desc>lat.=55.726894, lon.=26.550465, Alt.=144.009888m. Speed=0.036000m/h.</desc>
<speed>0.010000</speed>
</trkpt>
<trkpt lat="55.726894" lon="26.550465">
<ele>144.005981</ele>
<time>2010-07-18T12:57:30Z</time>
<desc>lat.=55.726894, lon.=26.550465, Alt.=144.005981m. Speed=0.000000m/h.</desc>
<speed>0.000000</speed>
</trkpt>
<trkpt lat="55.726894" lon="26.550465">
<ele>143.998169</ele>
<time>2010-07-18T12:57:31Z</time>
<desc>lat.=55.726894, lon.=26.550465, Alt.=143.998169m. Speed=0.000000m/h.</desc>
<speed>0.000000</speed>
</trkpt>
<trkpt lat="55.726894" lon="26.550465">
<ele>143.994263</ele>
<time>2010-07-18T12:57:32Z</time>
<desc>lat.=55.726894, lon.=26.550465, Alt.=143.994263m. Speed=0.036000m/h.</desc>
<speed>0.010000</speed>
</trkpt>
<trkpt lat="55.726894" lon="26.550465">
<ele>143.986450</ele>
<time>2010-07-18T12:57:33Z</time>
<desc>lat.=55.726894, lon.=26.550465, Alt.=143.986450m. Speed=0.000000m/h.</desc>
<speed>0.000000</speed>
</trkpt>
<trkpt lat="55.726894" lon="26.550465">
<ele>143.982544</ele>
<time>2010-07-18T12:57:34Z</time>
<desc>lat.=55.726894, lon.=26.550465, Alt.=143.982544m. Speed=0.000000m/h.</desc>
<speed>0.000000</speed>
</trkpt>
<trkpt lat="55.726894" lon="26.550465">
<ele>143.974731</ele>
<time>2010-07-18T12:57:35Z</time>
<desc>lat.=55.726894, lon.=26.550465, Alt.=143.974731m. Speed=0.000000m/h.</desc>
<speed>0.000000</speed>
</trkpt>
<trkpt lat="55.726894" lon="26.550465">
<ele>143.970825</ele>
<time>2010-07-18T12:57:36Z</time>
<desc>lat.=55.726894, lon.=26.550465, Alt.=143.970825m. Speed=0.000000m/h.</desc>
<speed>0.000000</speed>
</trkpt>
<trkpt lat="55.726894" lon="26.550465">
<ele>143.970825</ele>
<time>2010-07-18T12:57:37Z</time>
<desc>lat.=55.726894, lon.=26.550465, Alt.=143.970825m. Speed=0.036000m/h.</desc>
<speed>0.010000</speed>
</trkpt>
<trkpt lat="55.726894" lon="26.550465">
<ele>143.970825</ele>
<time>2010-07-18T12:57:38Z</time>
<desc>lat.=55.726894, lon.=26.550465, Alt.=143.970825m. Speed=0.036000m/h.</desc>
<speed>0.010000</speed>
</trkpt>
<trkpt lat="55.726894" lon="26.550465">
<ele>143.966919</ele>
<time>2010-07-18T12:57:39Z</time>
<desc>lat.=55.726894, lon.=26.550465, Alt.=143.966919m. Speed=0.036000m/h.</desc>
<speed>0.010000</speed>
</trkpt>
<trkpt lat="55.726894" lon="26.550465">
<ele>143.966919</ele>
<time>2010-07-18T12:57:40Z</time>
<desc>lat.=55.726894, lon.=26.550465, Alt.=143.966919m. Speed=0.072000m/h.</desc>
<speed>0.020000</speed>
</trkpt>
<trkpt lat="55.726894" lon="26.550465">
<ele>143.970825</ele>
<time>2010-07-18T12:57:41Z</time>
<desc>lat.=55.726894, lon.=26.550465, Alt.=143.970825m. Speed=0.036000m/h.</desc>
<speed>0.010000</speed>
</trkpt>
<trkpt lat="55.726894" lon="26.550465">
<ele>143.970825</ele>
<time>2010-07-18T12:57:42Z</time>
<desc>lat.=55.726894, lon.=26.550465, Alt.=143.970825m. Speed=0.036000m/h.</desc>
<speed>0.010000</speed>
</trkpt>
<trkpt lat="55.726894" lon="26.550465">
<ele>143.966919</ele>
<time>2010-07-18T12:57:43Z</time>
<desc>lat.=55.726894, lon.=26.550465, Alt.=143.966919m. Speed=0.036000m/h.</desc>
<speed>0.010000</speed>
</trkpt>
<trkpt lat="55.726894" lon="26.550465">
<ele>143.963013</ele>
<time>2010-07-18T12:57:44Z</time>
<desc>lat.=55.726894, lon.=26.550465, Alt.=143.963013m. Speed=0.000000m/h.</desc>
<speed>0.000000</speed>
</trkpt>
<trkpt lat="55.726894" lon="26.550465">
<ele>143.963013</ele>
<time>2010-07-18T12:57:45Z</time>
<desc>lat.=55.726894, lon.=26.550465, Alt.=143.963013m. Speed=0.000000m/h.</desc>
<speed>0.000000</speed>
</trkpt>
<trkpt lat="55.726894" lon="26.550465">
<ele>143.959106</ele>
<time>2010-07-18T12:57:46Z</time>
<desc>lat.=55.726894, lon.=26.550465, Alt.=143.959106m. Speed=0.000000m/h.</desc>
<speed>0.000000</speed>
</trkpt>
<trkpt lat="55.726894" lon="26.550465">
<ele>143.959106</ele>
<time>2010-07-18T12:57:47Z</time>
<desc>lat.=55.726894, lon.=26.550465, Alt.=143.959106m. Speed=0.036000m/h.</desc>
<speed>0.010000</speed>
</trkpt>
<trkpt lat="55.726894" lon="26.550465">
<ele>143.955200</ele>
<time>2010-07-18T12:57:48Z</time>
<desc>lat.=55.726894, lon.=26.550465, Alt.=143.955200m. Speed=0.000000m/h.</desc>
<speed>0.000000</speed>
</trkpt>
<trkpt lat="55.726894" lon="26.550465">
<ele>143.947388</ele>
<time>2010-07-18T12:57:49Z</time>
<desc>lat.=55.726894, lon.=26.550465, Alt.=143.947388m. Speed=0.072000m/h.</desc>
<speed>0.020000</speed>
</trkpt>
<trkpt lat="55.726894" lon="26.550465">
<ele>143.939575</ele>
<time>2010-07-18T12:57:50Z</time>
<desc>lat.=55.726894, lon.=26.550465, Alt.=143.939575m. Speed=0.000000m/h.</desc>
<speed>0.000000</speed>
</trkpt>
<trkpt lat="55.726894" lon="26.550465">
<ele>143.939575</ele>
<time>2010-07-18T12:57:51Z</time>
<desc>lat.=55.726894, lon.=26.550465, Alt.=143.939575m. Speed=0.000000m/h.</desc>
<speed>0.000000</speed>
</trkpt>
<trkpt lat="55.726894" lon="26.550465">
<ele>143.939575</ele>
<time>2010-07-18T12:57:52Z</time>
<desc>lat.=55.726894, lon.=26.550465, Alt.=143.939575m. Speed=0.036000m/h.</desc>
<speed>0.010000</speed>
</trkpt>
<trkpt lat="55.726894" lon="26.550465">
<ele>143.935669</ele>
<time>2010-07-18T12:57:53Z</time>
<desc>lat.=55.726894, lon.=26.550465, Alt.=143.935669m. Speed=0.036000m/h.</desc>
<speed>0.010000</speed>
</trkpt>
<trkpt lat="55.726894" lon="26.550463">
<ele>143.935669</ele>
<time>2010-07-18T12:57:54Z</time>
<desc>lat.=55.726894, lon.=26.550463, Alt.=143.935669m. Speed=0.108000m/h.</desc>
<speed>0.030000</speed>
</trkpt>
<trkpt lat="55.726894" lon="26.550463">
<ele>143.935669</ele>
<time>2010-07-18T12:57:55Z</time>
<desc>lat.=55.726894, lon.=26.550463, Alt.=143.935669m. Speed=0.000000m/h.</desc>
<speed>0.000000</speed>
</trkpt>
<trkpt lat="55.726894" lon="26.550463">
<ele>143.931763</ele>
<time>2010-07-18T12:57:56Z</time>
<desc>lat.=55.726894, lon.=26.550463, Alt.=143.931763m. Speed=0.036000m/h.</desc>
<speed>0.010000</speed>
</trkpt>
<trkpt lat="55.726894" lon="26.550463">
<ele>143.927856</ele>
<time>2010-07-18T12:57:57Z</time>
<desc>lat.=55.726894, lon.=26.550463, Alt.=143.927856m. Speed=0.000000m/h.</desc>
<speed>0.000000</speed>
</trkpt>
<trkpt lat="55.726894" lon="26.550463">
<ele>143.927856</ele>
<time>2010-07-18T12:57:58Z</time>
<desc>lat.=55.726894, lon.=26.550463, Alt.=143.927856m. Speed=0.036000m/h.</desc>
<speed>0.010000</speed>
</trkpt>
<trkpt lat="55.726894" lon="26.550463">
<ele>143.927856</ele>
<time>2010-07-18T12:57:59Z</time>
<desc>lat.=55.726894, lon.=26.550463, Alt.=143.927856m. Speed=0.000000m/h.</desc>
<speed>0.000000</speed>
</trkpt>
<trkpt lat="55.726894" lon="26.550463">
<ele>143.923950</ele>
<time>2010-07-18T12:58:00Z</time>
<desc>lat.=55.726894, lon.=26.550463, Alt.=143.923950m. Speed=0.072000m/h.</desc>
<speed>0.020000</speed>
</trkpt>
<trkpt lat="55.726894" lon="26.550463">
<ele>143.923950</ele>
<time>2010-07-18T12:58:01Z</time>
<desc>lat.=55.726894, lon.=26.550463, Alt.=143.923950m. Speed=0.036000m/h.</desc>
<speed>0.010000</speed>
</trkpt>
<trkpt lat="55.726894" lon="26.550463">
<ele>143.920044</ele>
<time>2010-07-18T12:58:02Z</time>
<desc>lat.=55.726894, lon.=26.550463, Alt.=143.920044m. Speed=0.072000m/h.</desc>
<speed>0.020000</speed>
</trkpt>
<trkpt lat="55.726894" lon="26.550463">
<ele>143.920044</ele>
<time>2010-07-18T12:58:03Z</time>
<desc>lat.=55.726894, lon.=26.550463, Alt.=143.920044m. Speed=0.072000m/h.</desc>
<speed>0.020000</speed>
</trkpt>
<trkpt lat="55.726894" lon="26.550463">
<ele>143.916138</ele>
<time>2010-07-18T12:58:04Z</time>
<desc>lat.=55.726894, lon.=26.550463, Alt.=143.916138m. Speed=0.000000m/h.</desc>
<speed>0.000000</speed>
</trkpt>
<trkpt lat="55.726894" lon="26.550463">
<ele>143.912231</ele>
<time>2010-07-18T12:58:05Z</time>
<desc>lat.=55.726894, lon.=26.550463, Alt.=143.912231m. Speed=0.000000m/h.</desc>
<speed>0.000000</speed>
</trkpt>
<trkpt lat="55.726894" lon="26.550463">
<ele>143.912231</ele>
<time>2010-07-18T12:58:06Z</time>
<desc>lat.=55.726894, lon.=26.550463, Alt.=143.912231m. Speed=0.036000m/h.</desc>
<speed>0.010000</speed>
</trkpt>
<trkpt lat="55.726894" lon="26.550463">
<ele>143.912231</ele>
<time>2010-07-18T12:58:07Z</time>
<desc>lat.=55.726894, lon.=26.550463, Alt.=143.912231m. Speed=0.108000m/h.</desc>
<speed>0.030000</speed>
</trkpt>
<trkpt lat="55.726894" lon="26.550463">
<ele>143.912231</ele>
<time>2010-07-18T12:58:08Z</time>
<desc>lat.=55.726894, lon.=26.550463, Alt.=143.912231m. Speed=0.072000m/h.</desc>
<speed>0.020000</speed>
</trkpt>
<trkpt lat="55.726894" lon="26.550463">
<ele>143.916138</ele>
<time>2010-07-18T12:58:09Z</time>
<desc>lat.=55.726894, lon.=26.550463, Alt.=143.916138m. Speed=0.036000m/h.</desc>
<speed>0.010000</speed>
</trkpt>
<trkpt lat="55.726894" lon="26.550463">
<ele>143.912231</ele>
<time>2010-07-18T12:58:10Z</time>
<desc>lat.=55.726894, lon.=26.550463, Alt.=143.912231m. Speed=0.036000m/h.</desc>
<speed>0.010000</speed>
</trkpt>
<trkpt lat="55.726894" lon="26.550463">
<ele>143.916138</ele>
<time>2010-07-18T12:58:11Z</time>
<desc>lat.=55.726894, lon.=26.550463, Alt.=143.916138m. Speed=0.000000m/h.</desc>
<speed>0.000000</speed>
</trkpt>
<trkpt lat="55.726894" lon="26.550463">
<ele>143.916138</ele>
<time>2010-07-18T12:58:12Z</time>
<desc>lat.=55.726894, lon.=26.550463, Alt.=143.916138m. Speed=0.000000m/h.</desc>
<speed>0.000000</speed>
</trkpt>
<trkpt lat="55.726894" lon="26.550463">
<ele>143.916138</ele>
<time>2010-07-18T12:58:13Z</time>
<desc>lat.=55.726894, lon.=26.550463, Alt.=143.916138m. Speed=0.000000m/h.</desc>
<speed>0.000000</speed>
</trkpt>
<trkpt lat="55.726894" lon="26.550463">
<ele>143.912231</ele>
<time>2010-07-18T12:58:14Z</time>
<desc>lat.=55.726894, lon.=26.550463, Alt.=143.912231m. Speed=0.000000m/h.</desc>
<speed>0.000000</speed>
</trkpt>
<trkpt lat="55.726894" lon="26.550463">
<ele>143.908325</ele>
<time>2010-07-18T12:58:15Z</time>
<desc>lat.=55.726894, lon.=26.550463, Alt.=143.908325m. Speed=0.000000m/h.</desc>
<speed>0.000000</speed>
</trkpt>
<trkpt lat="55.726894" lon="26.550463">
<ele>143.904419</ele>
<time>2010-07-18T12:58:16Z</time>
<desc>lat.=55.726894, lon.=26.550463, Alt.=143.904419m. Speed=0.000000m/h.</desc>
<speed>0.000000</speed>
</trkpt>
<trkpt lat="55.726894" lon="26.550463">
<ele>143.900513</ele>
<time>2010-07-18T12:58:17Z</time>
<desc>lat.=55.726894, lon.=26.550463, Alt.=143.900513m. Speed=0.000000m/h.</desc>
<speed>0.000000</speed>
</trkpt>
<trkpt lat="55.726894" lon="26.550463">
<ele>143.892700</ele>
<time>2010-07-18T12:58:18Z</time>
<desc>lat.=55.726894, lon.=26.550463, Alt.=143.892700m. Speed=0.000000m/h.</desc>
<speed>0.000000</speed>
</trkpt>
<trkpt lat="55.726894" lon="26.550463">
<ele>143.884888</ele>
<time>2010-07-18T12:58:19Z</time>
<desc>lat.=55.726894, lon.=26.550463, Alt.=143.884888m. Speed=0.000000m/h.</desc>
<speed>0.000000</speed>
</trkpt>
<trkpt lat="55.726894" lon="26.550463">
<ele>143.880981</ele>
<time>2010-07-18T12:58:20Z</time>
<desc>lat.=55.726894, lon.=26.550463, Alt.=143.880981m. Speed=0.000000m/h.</desc>
<speed>0.000000</speed>
</trkpt>
<trkpt lat="55.726894" lon="26.550463">
<ele>143.873169</ele>
<time>2010-07-18T12:58:21Z</time>
<desc>lat.=55.726894, lon.=26.550463, Alt.=143.873169m. Speed=0.000000m/h.</desc>
<speed>0.000000</speed>
</trkpt>
<trkpt lat="55.726894" lon="26.550463">
<ele>143.869263</ele>
<time>2010-07-18T12:58:22Z</time>
<desc>lat.=55.726894, lon.=26.550463, Alt.=143.869263m. Speed=0.000000m/h.</desc>
<speed>0.000000</speed>
</trkpt>
<trkpt lat="55.726894" lon="26.550463">
<ele>143.861450</ele>
<time>2010-07-18T12:58:23Z</time>
<desc>lat.=55.726894, lon.=26.550463, Alt.=143.861450m. Speed=0.036000m/h.</desc>
<speed>0.010000</speed>
</trkpt>
<trkpt lat="55.726894" lon="26.550463">
<ele>143.861450</ele>
<time>2010-07-18T12:58:24Z</time>
<desc>lat.=55.726894, lon.=26.550463, Alt.=143.861450m. Speed=0.036000m/h.</desc>
<speed>0.010000</speed>
</trkpt>
<trkpt lat="55.726894" lon="26.550465">
<ele>143.853638</ele>
<time>2010-07-18T12:58:25Z</time>
<desc>lat.=55.726894, lon.=26.550465, Alt.=143.853638m. Speed=0.000000m/h.</desc>
<speed>0.000000</speed>
</trkpt>
<trkpt lat="55.726894" lon="26.550465">
<ele>143.849731</ele>
<time>2010-07-18T12:58:26Z</time>
<desc>lat.=55.726894, lon.=26.550465, Alt.=143.849731m. Speed=0.000000m/h.</desc>
<speed>0.000000</speed>
</trkpt>
<trkpt lat="55.726894" lon="26.550465">
<ele>143.849731</ele>
<time>2010-07-18T12:58:27Z</time>
<desc>lat.=55.726894, lon.=26.550465, Alt.=143.849731m. Speed=0.000000m/h.</desc>
<speed>0.000000</speed>
</trkpt>
<trkpt lat="55.726894" lon="26.550465">
<ele>143.849731</ele>
<time>2010-07-18T12:58:28Z</time>
<desc>lat.=55.726894, lon.=26.550465, Alt.=143.849731m. Speed=0.000000m/h.</desc>
<speed>0.000000</speed>
</trkpt>
<trkpt lat="55.726894" lon="26.550465">
<ele>143.845825</ele>
<time>2010-07-18T12:58:29Z</time>
<desc>lat.=55.726894, lon.=26.550465, Alt.=143.845825m. Speed=0.000000m/h.</desc>
<speed>0.000000</speed>
</trkpt>
<trkpt lat="55.726894" lon="26.550465">
<ele>143.841919</ele>
<time>2010-07-18T12:58:30Z</time>
<desc>lat.=55.726894, lon.=26.550465, Alt.=143.841919m. Speed=0.000000m/h.</desc>
<speed>0.000000</speed>
</trkpt>
<trkpt lat="55.726894" lon="26.550465">
<ele>143.838013</ele>
<time>2010-07-18T12:58:31Z</time>
<desc>lat.=55.726894, lon.=26.550465, Alt.=143.838013m. Speed=0.000000m/h.</desc>
<speed>0.000000</speed>
</trkpt>
<trkpt lat="55.726894" lon="26.550465">
<ele>143.830200</ele>
<time>2010-07-18T12:58:32Z</time>
<desc>lat.=55.726894, lon.=26.550465, Alt.=143.830200m. Speed=0.000000m/h.</desc>
<speed>0.000000</speed>
</trkpt>
<trkpt lat="55.726894" lon="26.550465">
<ele>143.826294</ele>
<time>2010-07-18T12:58:33Z</time>
<desc>lat.=55.726894, lon.=26.550465, Alt.=143.826294m. Speed=0.000000m/h.</desc>
<speed>0.000000</speed>
</trkpt>
<trkpt lat="55.726894" lon="26.550465">
<ele>143.818481</ele>
<time>2010-07-18T12:58:34Z</time>
<desc>lat.=55.726894, lon.=26.550465, Alt.=143.818481m. Speed=0.000000m/h.</desc>
<speed>0.000000</speed>
</trkpt>
<trkpt lat="55.726894" lon="26.550465">
<ele>143.814575</ele>
<time>2010-07-18T12:58:35Z</time>
<desc>lat.=55.726894, lon.=26.550465, Alt.=143.814575m. Speed=0.000000m/h.</desc>
<speed>0.000000</speed>
</trkpt>
<trkpt lat="55.726894" lon="26.550465">
<ele>143.810669</ele>
<time>2010-07-18T12:58:36Z</time>
<desc>lat.=55.726894, lon.=26.550465, Alt.=143.810669m. Speed=0.036000m/h.</desc>
<speed>0.010000</speed>
</trkpt>
<trkpt lat="55.726894" lon="26.550465">
<ele>143.806763</ele>
<time>2010-07-18T12:58:37Z</time>
<desc>lat.=55.726894, lon.=26.550465, Alt.=143.806763m. Speed=0.000000m/h.</desc>
<speed>0.000000</speed>
</trkpt>
<trkpt lat="55.726894" lon="26.550465">
<ele>143.798950</ele>
<time>2010-07-18T12:58:38Z</time>
<desc>lat.=55.726894, lon.=26.550465, Alt.=143.798950m. Speed=0.000000m/h.</desc>
<speed>0.000000</speed>
</trkpt>
<trkpt lat="55.726894" lon="26.550465">
<ele>143.795044</ele>
<time>2010-07-18T12:58:39Z</time>
<desc>lat.=55.726894, lon.=26.550465, Alt.=143.795044m. Speed=0.000000m/h.</desc>
<speed>0.000000</speed>
</trkpt>
<trkpt lat="55.726894" lon="26.550465">
<ele>143.791138</ele>
<time>2010-07-18T12:58:40Z</time>
<desc>lat.=55.726894, lon.=26.550465, Alt.=143.791138m. Speed=0.000000m/h.</desc>
<speed>0.000000</speed>
</trkpt>
<trkpt lat="55.726894" lon="26.550465">
<ele>143.783325</ele>
<time>2010-07-18T12:58:41Z</time>
<desc>lat.=55.726894, lon.=26.550465, Alt.=143.783325m. Speed=0.000000m/h.</desc>
<speed>0.000000</speed>
</trkpt>
<trkpt lat="55.726894" lon="26.550465">
<ele>143.783325</ele>
<time>2010-07-18T12:58:42Z</time>
<desc>lat.=55.726894, lon.=26.550465, Alt.=143.783325m. Speed=0.036000m/h.</desc>
<speed>0.010000</speed>
</trkpt>
<trkpt lat="55.726894" lon="26.550465">
<ele>143.771606</ele>
<time>2010-07-18T12:58:43Z</time>
<desc>lat.=55.726894, lon.=26.550465, Alt.=143.771606m. Speed=0.036000m/h.</desc>
<speed>0.010000</speed>
</trkpt>
<trkpt lat="55.726894" lon="26.550465">
<ele>143.763794</ele>
<time>2010-07-18T12:58:44Z</time>
<desc>lat.=55.726894, lon.=26.550465, Alt.=143.763794m. Speed=0.000000m/h.</desc>
<speed>0.000000</speed>
</trkpt>
<trkpt lat="55.726894" lon="26.550465">
<ele>143.759888</ele>
<time>2010-07-18T12:58:45Z</time>
<desc>lat.=55.726894, lon.=26.550465, Alt.=143.759888m. Speed=0.036000m/h.</desc>
<speed>0.010000</speed>
</trkpt>
<trkpt lat="55.726894" lon="26.550465">
<ele>143.748169</ele>
<time>2010-07-18T12:58:46Z</time>
<desc>lat.=55.726894, lon.=26.550465, Alt.=143.748169m. Speed=0.000000m/h.</desc>
<speed>0.000000</speed>
</trkpt>
<trkpt lat="55.726894" lon="26.550465">
<ele>143.744263</ele>
<time>2010-07-18T12:58:47Z</time>
<desc>lat.=55.726894, lon.=26.550465, Alt.=143.744263m. Speed=0.036000m/h.</desc>
<speed>0.010000</speed>
</trkpt>
<trkpt lat="55.726894" lon="26.550465">
<ele>143.732544</ele>
<time>2010-07-18T12:58:48Z</time>
<desc>lat.=55.726894, lon.=26.550465, Alt.=143.732544m. Speed=0.000000m/h.</desc>
<speed>0.000000</speed>
</trkpt>
<trkpt lat="55.726894" lon="26.550465">
<ele>143.724731</ele>
<time>2010-07-18T12:58:49Z</time>
<desc>lat.=55.726894, lon.=26.550465, Alt.=143.724731m. Speed=0.000000m/h.</desc>
<speed>0.000000</speed>
</trkpt>
<trkpt lat="55.726894" lon="26.550465">
<ele>143.716919</ele>
<time>2010-07-18T12:58:50Z</time>
<desc>lat.=55.726894, lon.=26.550465, Alt.=143.716919m. Speed=0.000000m/h.</desc>
<speed>0.000000</speed>
</trkpt>
<trkpt lat="55.726894" lon="26.550465">
<ele>143.713013</ele>
<time>2010-07-18T12:58:51Z</time>
<desc>lat.=55.726894, lon.=26.550465, Alt.=143.713013m. Speed=0.000000m/h.</desc>
<speed>0.000000</speed>
</trkpt>
<trkpt lat="55.726894" lon="26.550465">
<ele>143.705200</ele>
<time>2010-07-18T12:58:52Z</time>
<desc>lat.=55.726894, lon.=26.550465, Alt.=143.705200m. Speed=0.000000m/h.</desc>
<speed>0.000000</speed>
</trkpt>
<trkpt lat="55.726894" lon="26.550465">
<ele>143.701294</ele>
<time>2010-07-18T12:58:53Z</time>
<desc>lat.=55.726894, lon.=26.550465, Alt.=143.701294m. Speed=0.000000m/h.</desc>
<speed>0.000000</speed>
</trkpt>
<trkpt lat="55.726894" lon="26.550465">
<ele>143.697388</ele>
<time>2010-07-18T12:58:54Z</time>
<desc>lat.=55.726894, lon.=26.550465, Alt.=143.697388m. Speed=0.000000m/h.</desc>
<speed>0.000000</speed>
</trkpt>
<trkpt lat="55.726894" lon="26.550465">
<ele>143.693481</ele>
<time>2010-07-18T12:58:55Z</time>
<desc>lat.=55.726894, lon.=26.550465, Alt.=143.693481m. Speed=0.000000m/h.</desc>
<speed>0.000000</speed>
</trkpt>
<trkpt lat="55.726894" lon="26.550465">
<ele>143.689575</ele>
<time>2010-07-18T12:58:56Z</time>
<desc>lat.=55.726894, lon.=26.550465, Alt.=143.689575m. Speed=0.000000m/h.</desc>
<speed>0.000000</speed>
</trkpt>
<trkpt lat="55.726894" lon="26.550465">
<ele>143.689575</ele>
<time>2010-07-18T12:58:57Z</time>
<desc>lat.=55.726894, lon.=26.550465, Alt.=143.689575m. Speed=0.000000m/h.</desc>
<speed>0.000000</speed>
</trkpt>
<trkpt lat="55.726894" lon="26.550465">
<ele>143.685669</ele>
<time>2010-07-18T12:58:58Z</time>
<desc>lat.=55.726894, lon.=26.550465, Alt.=143.685669m. Speed=0.000000m/h.</desc>
<speed>0.000000</speed>
</trkpt>
<trkpt lat="55.726894" lon="26.550465">
<ele>143.685669</ele>
<time>2010-07-18T12:58:59Z</time>
<desc>lat.=55.726894, lon.=26.550465, Alt.=143.685669m. Speed=0.000000m/h.</desc>
<speed>0.000000</speed>
</trkpt>
<trkpt lat="55.726894" lon="26.550465">
<ele>143.681763</ele>
<time>2010-07-18T12:59:00Z</time>
<desc>lat.=55.726894, lon.=26.550465, Alt.=143.681763m. Speed=0.000000m/h.</desc>
<speed>0.000000</speed>
</trkpt>
<trkpt lat="55.726894" lon="26.550465">
<ele>143.677856</ele>
<time>2010-07-18T12:59:01Z</time>
<desc>lat.=55.726894, lon.=26.550465, Alt.=143.677856m. Speed=0.000000m/h.</desc>
<speed>0.000000</speed>
</trkpt>
<trkpt lat="55.726894" lon="26.550465">
<ele>143.673950</ele>
<time>2010-07-18T12:59:02Z</time>
<desc>lat.=55.726894, lon.=26.550465, Alt.=143.673950m. Speed=0.000000m/h.</desc>
<speed>0.000000</speed>
</trkpt>
<trkpt lat="55.726894" lon="26.550465">
<ele>143.666138</ele>
<time>2010-07-18T12:59:03Z</time>
<desc>lat.=55.726894, lon.=26.550465, Alt.=143.666138m. Speed=0.036000m/h.</desc>
<speed>0.010000</speed>
</trkpt>
<trkpt lat="55.726894" lon="26.550465">
<ele>143.662231</ele>
<time>2010-07-18T12:59:04Z</time>
<desc>lat.=55.726894, lon.=26.550465, Alt.=143.662231m. Speed=0.000000m/h.</desc>
<speed>0.000000</speed>
</trkpt>
<trkpt lat="55.726894" lon="26.550465">
<ele>143.654419</ele>
<time>2010-07-18T12:59:05Z</time>
<desc>lat.=55.726894, lon.=26.550465, Alt.=143.654419m. Speed=0.000000m/h.</desc>
<speed>0.000000</speed>
</trkpt>
<trkpt lat="55.726894" lon="26.550465">
<ele>143.646606</ele>
<time>2010-07-18T12:59:06Z</time>
<desc>lat.=55.726894, lon.=26.550465, Alt.=143.646606m. Speed=0.036000m/h.</desc>
<speed>0.010000</speed>
</trkpt>
<trkpt lat="55.726894" lon="26.550465">
<ele>143.642700</ele>
<time>2010-07-18T12:59:07Z</time>
<desc>lat.=55.726894, lon.=26.550465, Alt.=143.642700m. Speed=0.000000m/h.</desc>
<speed>0.000000</speed>
</trkpt>
<trkpt lat="55.726894" lon="26.550465">
<ele>143.634888</ele>
<time>2010-07-18T12:59:08Z</time>
<desc>lat.=55.726894, lon.=26.550465, Alt.=143.634888m. Speed=0.000000m/h.</desc>
<speed>0.000000</speed>
</trkpt>
<trkpt lat="55.726894" lon="26.550465">
<ele>143.630981</ele>
<time>2010-07-18T12:59:09Z</time>
<desc>lat.=55.726894, lon.=26.550465, Alt.=143.630981m. Speed=0.000000m/h.</desc>
<speed>0.000000</speed>
</trkpt>
<trkpt lat="55.726894" lon="26.550465">
<ele>143.627075</ele>
<time>2010-07-18T12:59:10Z</time>
<desc>lat.=55.726894, lon.=26.550465, Alt.=143.627075m. Speed=0.000000m/h.</desc>
<speed>0.000000</speed>
</trkpt>
<trkpt lat="55.726894" lon="26.550465">
<ele>143.619263</ele>
<time>2010-07-18T12:59:11Z</time>
<desc>lat.=55.726894, lon.=26.550465, Alt.=143.619263m. Speed=0.000000m/h.</desc>
<speed>0.000000</speed>
</trkpt>
<trkpt lat="55.726894" lon="26.550465">
<ele>143.611450</ele>
<time>2010-07-18T12:59:12Z</time>
<desc>lat.=55.726894, lon.=26.550465, Alt.=143.611450m. Speed=0.000000m/h.</desc>
<speed>0.000000</speed>
</trkpt>
<trkpt lat="55.726894" lon="26.550465">
<ele>143.603638</ele>
<time>2010-07-18T12:59:13Z</time>
<desc>lat.=55.726894, lon.=26.550465, Alt.=143.603638m. Speed=0.000000m/h.</desc>
<speed>0.000000</speed>
</trkpt>
<trkpt lat="55.726894" lon="26.550465">
<ele>143.599731</ele>
<time>2010-07-18T12:59:14Z</time>
<desc>lat.=55.726894, lon.=26.550465, Alt.=143.599731m. Speed=0.000000m/h.</desc>
<speed>0.000000</speed>
</trkpt>
<trkpt lat="55.726894" lon="26.550465">
<ele>143.591919</ele>
<time>2010-07-18T12:59:15Z</time>
<desc>lat.=55.726894, lon.=26.550465, Alt.=143.591919m. Speed=0.036000m/h.</desc>
<speed>0.010000</speed>
</trkpt>
<trkpt lat="55.726894" lon="26.550465">
<ele>143.588013</ele>
<time>2010-07-18T12:59:16Z</time>
<desc>lat.=55.726894, lon.=26.550465, Alt.=143.588013m. Speed=0.000000m/h.</desc>
<speed>0.000000</speed>
</trkpt>
<trkpt lat="55.726894" lon="26.550465">
<ele>143.580200</ele>
<time>2010-07-18T12:59:17Z</time>
<desc>lat.=55.726894, lon.=26.550465, Alt.=143.580200m. Speed=0.000000m/h.</desc>
<speed>0.000000</speed>
</trkpt>
<trkpt lat="55.726894" lon="26.550465">
<ele>143.572388</ele>
<time>2010-07-18T12:59:18Z</time>
<desc>lat.=55.726894, lon.=26.550465, Alt.=143.572388m. Speed=0.000000m/h.</desc>
<speed>0.000000</speed>
</trkpt>
<trkpt lat="55.726894" lon="26.550465">
<ele>143.564575</ele>
<time>2010-07-18T12:59:19Z</time>
<desc>lat.=55.726894, lon.=26.550465, Alt.=143.564575m. Speed=0.000000m/h.</desc>
<speed>0.000000</speed>
</trkpt>
<trkpt lat="55.726894" lon="26.550465">
<ele>143.556763</ele>
<time>2010-07-18T12:59:20Z</time>
<desc>lat.=55.726894, lon.=26.550465, Alt.=143.556763m. Speed=0.000000m/h.</desc>
<speed>0.000000</speed>
</trkpt>
<trkpt lat="55.726894" lon="26.550465">
<ele>143.548950</ele>
<time>2010-07-18T12:59:21Z</time>
<desc>lat.=55.726894, lon.=26.550465, Alt.=143.548950m. Speed=0.000000m/h.</desc>
<speed>0.000000</speed>
</trkpt>
<trkpt lat="55.726894" lon="26.550467">
<ele>143.545044</ele>
<time>2010-07-18T12:59:22Z</time>
<desc>lat.=55.726894, lon.=26.550467, Alt.=143.545044m. Speed=0.000000m/h.</desc>
<speed>0.000000</speed>
</trkpt>
<trkpt lat="55.726894" lon="26.550467">
<ele>143.537231</ele>
<time>2010-07-18T12:59:23Z</time>
<desc>lat.=55.726894, lon.=26.550467, Alt.=143.537231m. Speed=0.000000m/h.</desc>
<speed>0.000000</speed>
</trkpt>
<trkpt lat="55.726894" lon="26.550467">
<ele>143.533325</ele>
<time>2010-07-18T12:59:24Z</time>
<desc>lat.=55.726894, lon.=26.550467, Alt.=143.533325m. Speed=0.000000m/h.</desc>
<speed>0.000000</speed>
</trkpt>
<trkpt lat="55.726894" lon="26.550467">
<ele>143.529419</ele>
<time>2010-07-18T12:59:25Z</time>
<desc>lat.=55.726894, lon.=26.550467, Alt.=143.529419m. Speed=0.000000m/h.</desc>
<speed>0.000000</speed>
</trkpt>
<trkpt lat="55.726894" lon="26.550467">
<ele>143.529419</ele>
<time>2010-07-18T12:59:26Z</time>
<desc>lat.=55.726894, lon.=26.550467, Alt.=143.529419m. Speed=0.000000m/h.</desc>
<speed>0.000000</speed>
</trkpt>
<trkpt lat="55.726894" lon="26.550467">
<ele>143.525513</ele>
<time>2010-07-18T12:59:27Z</time>
<desc>lat.=55.726894, lon.=26.550467, Alt.=143.525513m. Speed=0.000000m/h.</desc>
<speed>0.000000</speed>
</trkpt>
<trkpt lat="55.726894" lon="26.550467">
<ele>143.521606</ele>
<time>2010-07-18T12:59:28Z</time>
<desc>lat.=55.726894, lon.=26.550467, Alt.=143.521606m. Speed=0.000000m/h.</desc>
<speed>0.000000</speed>
</trkpt>
<trkpt lat="55.726894" lon="26.550467">
<ele>143.517700</ele>
<time>2010-07-18T12:59:29Z</time>
<desc>lat.=55.726894, lon.=26.550467, Alt.=143.517700m. Speed=0.000000m/h.</desc>
<speed>0.000000</speed>
</trkpt>
<trkpt lat="55.726894" lon="26.550467">
<ele>143.517700</ele>
<time>2010-07-18T12:59:30Z</time>
<desc>lat.=55.726894, lon.=26.550467, Alt.=143.517700m. Speed=0.036000m/h.</desc>
<speed>0.010000</speed>
</trkpt>
<trkpt lat="55.726894" lon="26.550467">
<ele>143.509888</ele>
<time>2010-07-18T12:59:31Z</time>
<desc>lat.=55.726894, lon.=26.550467, Alt.=143.509888m. Speed=0.000000m/h.</desc>
<speed>0.000000</speed>
</trkpt>
<trkpt lat="55.726894" lon="26.550467">
<ele>143.505981</ele>
<time>2010-07-18T12:59:32Z</time>
<desc>lat.=55.726894, lon.=26.550467, Alt.=143.505981m. Speed=0.000000m/h.</desc>
<speed>0.000000</speed>
</trkpt>
<trkpt lat="55.726894" lon="26.550467">
<ele>143.502075</ele>
<time>2010-07-18T12:59:33Z</time>
<desc>lat.=55.726894, lon.=26.550467, Alt.=143.502075m. Speed=0.000000m/h.</desc>
<speed>0.000000</speed>
</trkpt>
<trkpt lat="55.726894" lon="26.550467">
<ele>143.494263</ele>
<time>2010-07-18T12:59:34Z</time>
<desc>lat.=55.726894, lon.=26.550467, Alt.=143.494263m. Speed=0.036000m/h.</desc>
<speed>0.010000</speed>
</trkpt>
<trkpt lat="55.726894" lon="26.550467">
<ele>143.490356</ele>
<time>2010-07-18T12:59:35Z</time>
<desc>lat.=55.726894, lon.=26.550467, Alt.=143.490356m. Speed=0.000000m/h.</desc>
<speed>0.000000</speed>
</trkpt>
<trkpt lat="55.726894" lon="26.550467">
<ele>143.482544</ele>
<time>2010-07-18T12:59:36Z</time>
<desc>lat.=55.726894, lon.=26.550467, Alt.=143.482544m. Speed=0.036000m/h.</desc>
<speed>0.010000</speed>
</trkpt>
<trkpt lat="55.726894" lon="26.550467">
<ele>143.478638</ele>
<time>2010-07-18T12:59:37Z</time>
<desc>lat.=55.726894, lon.=26.550467, Alt.=143.478638m. Speed=0.000000m/h.</desc>
<speed>0.000000</speed>
</trkpt>
<trkpt lat="55.726894" lon="26.550467">
<ele>143.466919</ele>
<time>2010-07-18T12:59:38Z</time>
<desc>lat.=55.726894, lon.=26.550467, Alt.=143.466919m. Speed=0.000000m/h.</desc>
<speed>0.000000</speed>
</trkpt>
<trkpt lat="55.726894" lon="26.550467">
<ele>143.463013</ele>
<time>2010-07-18T12:59:39Z</time>
<desc>lat.=55.726894, lon.=26.550467, Alt.=143.463013m. Speed=0.000000m/h.</desc>
<speed>0.000000</speed>
</trkpt>
<trkpt lat="55.726894" lon="26.550467">
<ele>143.455200</ele>
<time>2010-07-18T12:59:40Z</time>
<desc>lat.=55.726894, lon.=26.550467, Alt.=143.455200m. Speed=0.000000m/h.</desc>
<speed>0.000000</speed>
</trkpt>
<trkpt lat="55.726894" lon="26.550467">
<ele>143.451294</ele>
<time>2010-07-18T12:59:41Z</time>
<desc>lat.=55.726894, lon.=26.550467, Alt.=143.451294m. Speed=0.000000m/h.</desc>
<speed>0.000000</speed>
</trkpt>
<trkpt lat="55.726894" lon="26.550467">
<ele>143.443481</ele>
<time>2010-07-18T12:59:42Z</time>
<desc>lat.=55.726894, lon.=26.550467, Alt.=143.443481m. Speed=0.000000m/h.</desc>
<speed>0.000000</speed>
</trkpt>
<trkpt lat="55.726894" lon="26.550467">
<ele>143.439575</ele>
<time>2010-07-18T12:59:43Z</time>
<desc>lat.=55.726894, lon.=26.550467, Alt.=143.439575m. Speed=0.000000m/h.</desc>
<speed>0.000000</speed>
</trkpt>
<trkpt lat="55.726894" lon="26.550467">
<ele>143.431763</ele>
<time>2010-07-18T12:59:44Z</time>
<desc>lat.=55.726894, lon.=26.550467, Alt.=143.431763m. Speed=0.036000m/h.</desc>
<speed>0.010000</speed>
</trkpt>
<trkpt lat="55.726894" lon="26.550467">
<ele>143.427856</ele>
<time>2010-07-18T12:59:45Z</time>
<desc>lat.=55.726894, lon.=26.550467, Alt.=143.427856m. Speed=0.000000m/h.</desc>
<speed>0.000000</speed>
</trkpt>
<trkpt lat="55.726894" lon="26.550467">
<ele>143.420044</ele>
<time>2010-07-18T12:59:46Z</time>
<desc>lat.=55.726894, lon.=26.550467, Alt.=143.420044m. Speed=0.000000m/h.</desc>
<speed>0.000000</speed>
</trkpt>
<trkpt lat="55.726894" lon="26.550467">
<ele>143.416138</ele>
<time>2010-07-18T12:59:47Z</time>
<desc>lat.=55.726894, lon.=26.550467, Alt.=143.416138m. Speed=0.036000m/h.</desc>
<speed>0.010000</speed>
</trkpt>
<trkpt lat="55.726894" lon="26.550467">
<ele>143.412231</ele>
<time>2010-07-18T12:59:48Z</time>
<desc>lat.=55.726894, lon.=26.550467, Alt.=143.412231m. Speed=0.000000m/h.</desc>
<speed>0.000000</speed>
</trkpt>
<trkpt lat="55.726894" lon="26.550467">
<ele>143.408325</ele>
<time>2010-07-18T12:59:49Z</time>
<desc>lat.=55.726894, lon.=26.550467, Alt.=143.408325m. Speed=0.000000m/h.</desc>
<speed>0.000000</speed>
</trkpt>
<trkpt lat="55.726894" lon="26.550467">
<ele>143.400513</ele>
<time>2010-07-18T12:59:50Z</time>
<desc>lat.=55.726894, lon.=26.550467, Alt.=143.400513m. Speed=0.000000m/h.</desc>
<speed>0.000000</speed>
</trkpt>
<trkpt lat="55.726894" lon="26.550467">
<ele>143.396606</ele>
<time>2010-07-18T12:59:51Z</time>
<desc>lat.=55.726894, lon.=26.550467, Alt.=143.396606m. Speed=0.000000m/h.</desc>
<speed>0.000000</speed>
</trkpt>
<trkpt lat="55.726894" lon="26.550467">
<ele>143.396606</ele>
<time>2010-07-18T12:59:52Z</time>
<desc>lat.=55.726894, lon.=26.550467, Alt.=143.396606m. Speed=0.000000m/h.</desc>
<speed>0.000000</speed>
</trkpt>
<trkpt lat="55.726894" lon="26.550467">
<ele>143.388794</ele>
<time>2010-07-18T12:59:53Z</time>
<desc>lat.=55.726894, lon.=26.550467, Alt.=143.388794m. Speed=0.000000m/h.</desc>
<speed>0.000000</speed>
</trkpt>
<trkpt lat="55.726894" lon="26.550467">
<ele>143.380981</ele>
<time>2010-07-18T12:59:54Z</time>
<desc>lat.=55.726894, lon.=26.550467, Alt.=143.380981m. Speed=0.000000m/h.</desc>
<speed>0.000000</speed>
</trkpt>
<trkpt lat="55.726894" lon="26.550467">
<ele>143.377075</ele>
<time>2010-07-18T12:59:55Z</time>
<desc>lat.=55.726894, lon.=26.550467, Alt.=143.377075m. Speed=0.000000m/h.</desc>
<speed>0.000000</speed>
</trkpt>
<trkpt lat="55.726894" lon="26.550467">
<ele>143.373169</ele>
<time>2010-07-18T12:59:56Z</time>
<desc>lat.=55.726894, lon.=26.550467, Alt.=143.373169m. Speed=0.000000m/h.</desc>
<speed>0.000000</speed>
</trkpt>
<trkpt lat="55.726894" lon="26.550467">
<ele>143.365356</ele>
<time>2010-07-18T12:59:57Z</time>
<desc>lat.=55.726894, lon.=26.550467, Alt.=143.365356m. Speed=0.000000m/h.</desc>
<speed>0.000000</speed>
</trkpt>
<trkpt lat="55.726894" lon="26.550467">
<ele>143.357544</ele>
<time>2010-07-18T12:59:58Z</time>
<desc>lat.=55.726894, lon.=26.550467, Alt.=143.357544m. Speed=0.036000m/h.</desc>
<speed>0.010000</speed>
</trkpt>
<trkpt lat="55.726894" lon="26.550467">
<ele>143.353638</ele>
<time>2010-07-18T12:59:59Z</time>
<desc>lat.=55.726894, lon.=26.550467, Alt.=143.353638m. Speed=0.000000m/h.</desc>
<speed>0.000000</speed>
</trkpt>
<trkpt lat="55.726894" lon="26.550467">
<ele>143.345825</ele>
<time>2010-07-18T13:00:00Z</time>
<desc>lat.=55.726894, lon.=26.550467, Alt.=143.345825m. Speed=0.000000m/h.</desc>
<speed>0.000000</speed>
</trkpt>
<trkpt lat="55.726894" lon="26.550467">
<ele>143.338013</ele>
<time>2010-07-18T13:00:01Z</time>
<desc>lat.=55.726894, lon.=26.550467, Alt.=143.338013m. Speed=0.000000m/h.</desc>
<speed>0.000000</speed>
</trkpt>
<trkpt lat="55.726894" lon="26.550467">
<ele>143.334106</ele>
<time>2010-07-18T13:00:02Z</time>
<desc>lat.=55.726894, lon.=26.550467, Alt.=143.334106m. Speed=0.036000m/h.</desc>
<speed>0.010000</speed>
</trkpt>
<trkpt lat="55.726894" lon="26.550467">
<ele>143.330200</ele>
<time>2010-07-18T13:00:03Z</time>
<desc>lat.=55.726894, lon.=26.550467, Alt.=143.330200m. Speed=0.000000m/h.</desc>
<speed>0.000000</speed>
</trkpt>
<trkpt lat="55.726894" lon="26.550467">
<ele>143.322388</ele>
<time>2010-07-18T13:00:04Z</time>
<desc>lat.=55.726894, lon.=26.550467, Alt.=143.322388m. Speed=0.000000m/h.</desc>
<speed>0.000000</speed>
</trkpt>
<trkpt lat="55.726894" lon="26.550467">
<ele>143.318481</ele>
<time>2010-07-18T13:00:05Z</time>
<desc>lat.=55.726894, lon.=26.550467, Alt.=143.318481m. Speed=0.000000m/h.</desc>
<speed>0.000000</speed>
</trkpt>
<trkpt lat="55.726894" lon="26.550467">
<ele>143.310669</ele>
<time>2010-07-18T13:00:06Z</time>
<desc>lat.=55.726894, lon.=26.550467, Alt.=143.310669m. Speed=0.000000m/h.</desc>
<speed>0.000000</speed>
</trkpt>
<trkpt lat="55.726894" lon="26.550467">
<ele>143.306763</ele>
<time>2010-07-18T13:00:07Z</time>
<desc>lat.=55.726894, lon.=26.550467, Alt.=143.306763m. Speed=0.000000m/h.</desc>
<speed>0.000000</speed>
</trkpt>
<trkpt lat="55.726894" lon="26.550467">
<ele>143.298950</ele>
<time>2010-07-18T13:00:08Z</time>
<desc>lat.=55.726894, lon.=26.550467, Alt.=143.298950m. Speed=0.000000m/h.</desc>
<speed>0.000000</speed>
</trkpt>
<trkpt lat="55.726894" lon="26.550467">
<ele>143.295044</ele>
<time>2010-07-18T13:00:09Z</time>
<desc>lat.=55.726894, lon.=26.550467, Alt.=143.295044m. Speed=0.036000m/h.</desc>
<speed>0.010000</speed>
</trkpt>
<trkpt lat="55.726894" lon="26.550467">
<ele>143.291138</ele>
<time>2010-07-18T13:00:10Z</time>
<desc>lat.=55.726894, lon.=26.550467, Alt.=143.291138m. Speed=0.036000m/h.</desc>
<speed>0.010000</speed>
</trkpt>
<trkpt lat="55.726894" lon="26.550467">
<ele>143.283325</ele>
<time>2010-07-18T13:00:11Z</time>
<desc>lat.=55.726894, lon.=26.550467, Alt.=143.283325m. Speed=0.108000m/h.</desc>
<speed>0.030000</speed>
</trkpt>
<trkpt lat="55.726894" lon="26.550467">
<ele>143.283325</ele>
<time>2010-07-18T13:00:12Z</time>
<desc>lat.=55.726894, lon.=26.550467, Alt.=143.283325m. Speed=0.036000m/h.</desc>
<speed>0.010000</speed>
</trkpt>
<trkpt lat="55.726894" lon="26.550467">
<ele>143.279419</ele>
<time>2010-07-18T13:00:13Z</time>
<desc>lat.=55.726894, lon.=26.550467, Alt.=143.279419m. Speed=0.036000m/h.</desc>
<speed>0.010000</speed>
</trkpt>
<trkpt lat="55.726894" lon="26.550467">
<ele>143.279419</ele>
<time>2010-07-18T13:00:14Z</time>
<desc>lat.=55.726894, lon.=26.550467, Alt.=143.279419m. Speed=0.000000m/h.</desc>
<speed>0.000000</speed>
</trkpt>
<trkpt lat="55.726894" lon="26.550467">
<ele>143.275513</ele>
<time>2010-07-18T13:00:15Z</time>
<desc>lat.=55.726894, lon.=26.550467, Alt.=143.275513m. Speed=0.000000m/h.</desc>
<speed>0.000000</speed>
</trkpt>
<trkpt lat="55.726894" lon="26.550467">
<ele>143.271606</ele>
<time>2010-07-18T13:00:16Z</time>
<desc>lat.=55.726894, lon.=26.550467, Alt.=143.271606m. Speed=0.000000m/h.</desc>
<speed>0.000000</speed>
</trkpt>
<trkpt lat="55.726894" lon="26.550467">
<ele>143.267700</ele>
<time>2010-07-18T13:00:17Z</time>
<desc>lat.=55.726894, lon.=26.550467, Alt.=143.267700m. Speed=0.000000m/h.</desc>
<speed>0.000000</speed>
</trkpt>
<trkpt lat="55.726894" lon="26.550467">
<ele>143.259888</ele>
<time>2010-07-18T13:00:18Z</time>
<desc>lat.=55.726894, lon.=26.550467, Alt.=143.259888m. Speed=0.036000m/h.</desc>
<speed>0.010000</speed>
</trkpt>
<trkpt lat="55.726894" lon="26.550467">
<ele>143.255981</ele>
<time>2010-07-18T13:00:19Z</time>
<desc>lat.=55.726894, lon.=26.550467, Alt.=143.255981m. Speed=0.036000m/h.</desc>
<speed>0.010000</speed>
</trkpt>
<trkpt lat="55.726894" lon="26.550467">
<ele>143.248169</ele>
<time>2010-07-18T13:00:20Z</time>
<desc>lat.=55.726894, lon.=26.550467, Alt.=143.248169m. Speed=0.036000m/h.</desc>
<speed>0.010000</speed>
</trkpt>
<trkpt lat="55.726894" lon="26.550467">
<ele>143.240356</ele>
<time>2010-07-18T13:00:21Z</time>
<desc>lat.=55.726894, lon.=26.550467, Alt.=143.240356m. Speed=0.000000m/h.</desc>
<speed>0.000000</speed>
</trkpt>
<trkpt lat="55.726894" lon="26.550467">
<ele>143.236450</ele>
<time>2010-07-18T13:00:22Z</time>
<desc>lat.=55.726894, lon.=26.550467, Alt.=143.236450m. Speed=0.000000m/h.</desc>
<speed>0.000000</speed>
</trkpt>
<trkpt lat="55.726894" lon="26.550467">
<ele>143.228638</ele>
<time>2010-07-18T13:00:23Z</time>
<desc>lat.=55.726894, lon.=26.550467, Alt.=143.228638m. Speed=0.000000m/h.</desc>
<speed>0.000000</speed>
</trkpt>
<trkpt lat="55.726894" lon="26.550467">
<ele>143.224731</ele>
<time>2010-07-18T13:00:24Z</time>
<desc>lat.=55.726894, lon.=26.550467, Alt.=143.224731m. Speed=0.000000m/h.</desc>
<speed>0.000000</speed>
</trkpt>
<trkpt lat="55.726894" lon="26.550467">
<ele>143.220825</ele>
<time>2010-07-18T13:00:25Z</time>
<desc>lat.=55.726894, lon.=26.550467, Alt.=143.220825m. Speed=0.036000m/h.</desc>
<speed>0.010000</speed>
</trkpt>
<trkpt lat="55.726894" lon="26.550467">
<ele>143.216919</ele>
<time>2010-07-18T13:00:26Z</time>
<desc>lat.=55.726894, lon.=26.550467, Alt.=143.216919m. Speed=0.000000m/h.</desc>
<speed>0.000000</speed>
</trkpt>
<trkpt lat="55.726894" lon="26.550467">
<ele>143.213013</ele>
<time>2010-07-18T13:00:27Z</time>
<desc>lat.=55.726894, lon.=26.550467, Alt.=143.213013m. Speed=0.000000m/h.</desc>
<speed>0.000000</speed>
</trkpt>
<trkpt lat="55.726894" lon="26.550467">
<ele>143.213013</ele>
<time>2010-07-18T13:00:28Z</time>
<desc>lat.=55.726894, lon.=26.550467, Alt.=143.213013m. Speed=0.000000m/h.</desc>
<speed>0.000000</speed>
</trkpt>
<trkpt lat="55.726894" lon="26.550467">
<ele>143.213013</ele>
<time>2010-07-18T13:00:29Z</time>
<desc>lat.=55.726894, lon.=26.550467, Alt.=143.213013m. Speed=0.000000m/h.</desc>
<speed>0.000000</speed>
</trkpt>
<trkpt lat="55.726894" lon="26.550467">
<ele>143.209106</ele>
<time>2010-07-18T13:00:30Z</time>
<desc>lat.=55.726894, lon.=26.550467, Alt.=143.209106m. Speed=0.000000m/h.</desc>
<speed>0.000000</speed>
</trkpt>
<trkpt lat="55.726894" lon="26.550467">
<ele>143.205200</ele>
<time>2010-07-18T13:00:31Z</time>
<desc>lat.=55.726894, lon.=26.550467, Alt.=143.205200m. Speed=0.000000m/h.</desc>
<speed>0.000000</speed>
</trkpt>
<trkpt lat="55.726894" lon="26.550467">
<ele>143.201294</ele>
<time>2010-07-18T13:00:32Z</time>
<desc>lat.=55.726894, lon.=26.550467, Alt.=143.201294m. Speed=0.036000m/h.</desc>
<speed>0.010000</speed>
</trkpt>
<trkpt lat="55.726894" lon="26.550467">
<ele>143.197388</ele>
<time>2010-07-18T13:00:33Z</time>
<desc>lat.=55.726894, lon.=26.550467, Alt.=143.197388m. Speed=0.000000m/h.</desc>
<speed>0.000000</speed>
</trkpt>
<trkpt lat="55.726894" lon="26.550467">
<ele>143.197388</ele>
<time>2010-07-18T13:00:34Z</time>
<desc>lat.=55.726894, lon.=26.550467, Alt.=143.197388m. Speed=0.036000m/h.</desc>
<speed>0.010000</speed>
</trkpt>
<trkpt lat="55.726894" lon="26.550467">
<ele>143.193481</ele>
<time>2010-07-18T13:00:35Z</time>
<desc>lat.=55.726894, lon.=26.550467, Alt.=143.193481m. Speed=0.000000m/h.</desc>
<speed>0.000000</speed>
</trkpt>
<trkpt lat="55.726894" lon="26.550467">
<ele>143.189575</ele>
<time>2010-07-18T13:00:36Z</time>
<desc>lat.=55.726894, lon.=26.550467, Alt.=143.189575m. Speed=0.036000m/h.</desc>
<speed>0.010000</speed>
</trkpt>
<trkpt lat="55.726894" lon="26.550467">
<ele>143.185669</ele>
<time>2010-07-18T13:00:37Z</time>
<desc>lat.=55.726894, lon.=26.550467, Alt.=143.185669m. Speed=0.000000m/h.</desc>
<speed>0.000000</speed>
</trkpt>
<trkpt lat="55.726894" lon="26.550467">
<ele>143.189575</ele>
<time>2010-07-18T13:00:38Z</time>
<desc>lat.=55.726894, lon.=26.550467, Alt.=143.189575m. Speed=0.000000m/h.</desc>
<speed>0.000000</speed>
</trkpt>
<trkpt lat="55.726894" lon="26.550467">
<ele>143.189575</ele>
<time>2010-07-18T13:00:39Z</time>
<desc>lat.=55.726894, lon.=26.550467, Alt.=143.189575m. Speed=0.000000m/h.</desc>
<speed>0.000000</speed>
</trkpt>
<trkpt lat="55.726894" lon="26.550467">
<ele>143.185669</ele>
<time>2010-07-18T13:00:40Z</time>
<desc>lat.=55.726894, lon.=26.550467, Alt.=143.185669m. Speed=0.000000m/h.</desc>
<speed>0.000000</speed>
</trkpt>
<trkpt lat="55.726894" lon="26.550467">
<ele>143.181763</ele>
<time>2010-07-18T13:00:41Z</time>
<desc>lat.=55.726894, lon.=26.550467, Alt.=143.181763m. Speed=0.036000m/h.</desc>
<speed>0.010000</speed>
</trkpt>
<trkpt lat="55.726894" lon="26.550467">
<ele>143.177856</ele>
<time>2010-07-18T13:00:42Z</time>
<desc>lat.=55.726894, lon.=26.550467, Alt.=143.177856m. Speed=0.036000m/h.</desc>
<speed>0.010000</speed>
</trkpt>
<trkpt lat="55.726894" lon="26.550467">
<ele>143.177856</ele>
<time>2010-07-18T13:00:43Z</time>
<desc>lat.=55.726894, lon.=26.550467, Alt.=143.177856m. Speed=0.000000m/h.</desc>
<speed>0.000000</speed>
</trkpt>
<trkpt lat="55.726894" lon="26.550467">
<ele>143.173950</ele>
<time>2010-07-18T13:00:44Z</time>
<desc>lat.=55.726894, lon.=26.550467, Alt.=143.173950m. Speed=0.000000m/h.</desc>
<speed>0.000000</speed>
</trkpt>
<trkpt lat="55.726894" lon="26.550467">
<ele>143.170044</ele>
<time>2010-07-18T13:00:45Z</time>
<desc>lat.=55.726894, lon.=26.550467, Alt.=143.170044m. Speed=0.036000m/h.</desc>
<speed>0.010000</speed>
</trkpt>
<trkpt lat="55.726894" lon="26.550467">
<ele>143.166138</ele>
<time>2010-07-18T13:00:46Z</time>
<desc>lat.=55.726894, lon.=26.550467, Alt.=143.166138m. Speed=0.036000m/h.</desc>
<speed>0.010000</speed>
</trkpt>
<trkpt lat="55.726894" lon="26.550467">
<ele>143.166138</ele>
<time>2010-07-18T13:00:47Z</time>
<desc>lat.=55.726894, lon.=26.550467, Alt.=143.166138m. Speed=0.036000m/h.</desc>
<speed>0.010000</speed>
</trkpt>
<trkpt lat="55.726894" lon="26.550467">
<ele>143.162231</ele>
<time>2010-07-18T13:00:48Z</time>
<desc>lat.=55.726894, lon.=26.550467, Alt.=143.162231m. Speed=0.000000m/h.</desc>
<speed>0.000000</speed>
</trkpt>
<trkpt lat="55.726894" lon="26.550467">
<ele>143.162231</ele>
<time>2010-07-18T13:00:49Z</time>
<desc>lat.=55.726894, lon.=26.550467, Alt.=143.162231m. Speed=0.000000m/h.</desc>
<speed>0.000000</speed>
</trkpt>
<trkpt lat="55.726894" lon="26.550467">
<ele>143.158325</ele>
<time>2010-07-18T13:00:50Z</time>
<desc>lat.=55.726894, lon.=26.550467, Alt.=143.158325m. Speed=0.000000m/h.</desc>
<speed>0.000000</speed>
</trkpt>
<trkpt lat="55.726894" lon="26.550467">
<ele>143.154419</ele>
<time>2010-07-18T13:00:51Z</time>
<desc>lat.=55.726894, lon.=26.550467, Alt.=143.154419m. Speed=0.000000m/h.</desc>
<speed>0.000000</speed>
</trkpt>
<trkpt lat="55.726898" lon="26.550467">
<ele>143.150513</ele>
<time>2010-07-18T13:00:52Z</time>
<desc>lat.=55.726898, lon.=26.550467, Alt.=143.150513m. Speed=0.000000m/h.</desc>
<speed>0.000000</speed>
</trkpt>
<trkpt lat="55.726898" lon="26.550467">
<ele>143.150513</ele>
<time>2010-07-18T13:00:53Z</time>
<desc>lat.=55.726898, lon.=26.550467, Alt.=143.150513m. Speed=0.000000m/h.</desc>
<speed>0.000000</speed>
</trkpt>
<trkpt lat="55.726898" lon="26.550467">
<ele>143.146606</ele>
<time>2010-07-18T13:00:54Z</time>
<desc>lat.=55.726898, lon.=26.550467, Alt.=143.146606m. Speed=0.000000m/h.</desc>
<speed>0.000000</speed>
</trkpt>
<trkpt lat="55.726898" lon="26.550467">
<ele>143.146606</ele>
<time>2010-07-18T13:00:55Z</time>
<desc>lat.=55.726898, lon.=26.550467, Alt.=143.146606m. Speed=0.000000m/h.</desc>
<speed>0.000000</speed>
</trkpt>
<trkpt lat="55.726898" lon="26.550468">
<ele>143.146606</ele>
<time>2010-07-18T13:00:56Z</time>
<desc>lat.=55.726898, lon.=26.550468, Alt.=143.146606m. Speed=0.000000m/h.</desc>
<speed>0.000000</speed>
</trkpt>
<trkpt lat="55.726898" lon="26.550468">
<ele>143.146606</ele>
<time>2010-07-18T13:00:57Z</time>
<desc>lat.=55.726898, lon.=26.550468, Alt.=143.146606m. Speed=0.000000m/h.</desc>
<speed>0.000000</speed>
</trkpt>
<trkpt lat="55.726898" lon="26.550468">
<ele>143.146606</ele>
<time>2010-07-18T13:00:58Z</time>
<desc>lat.=55.726898, lon.=26.550468, Alt.=143.146606m. Speed=0.000000m/h.</desc>
<speed>0.000000</speed>
</trkpt>
<trkpt lat="55.726898" lon="26.550468">
<ele>143.146606</ele>
<time>2010-07-18T13:00:59Z</time>
<desc>lat.=55.726898, lon.=26.550468, Alt.=143.146606m. Speed=0.000000m/h.</desc>
<speed>0.000000</speed>
</trkpt>
<trkpt lat="55.726898" lon="26.550468">
<ele>143.146606</ele>
<time>2010-07-18T13:01:00Z</time>
<desc>lat.=55.726898, lon.=26.550468, Alt.=143.146606m. Speed=0.000000m/h.</desc>
<speed>0.000000</speed>
</trkpt>
<trkpt lat="55.726898" lon="26.550468">
<ele>143.146606</ele>
<time>2010-07-18T13:01:01Z</time>
<desc>lat.=55.726898, lon.=26.550468, Alt.=143.146606m. Speed=0.036000m/h.</desc>
<speed>0.010000</speed>
</trkpt>
<trkpt lat="55.726898" lon="26.550468">
<ele>143.146606</ele>
<time>2010-07-18T13:01:02Z</time>
<desc>lat.=55.726898, lon.=26.550468, Alt.=143.146606m. Speed=0.000000m/h.</desc>
<speed>0.000000</speed>
</trkpt>
<trkpt lat="55.726898" lon="26.550468">
<ele>143.142700</ele>
<time>2010-07-18T13:01:03Z</time>
<desc>lat.=55.726898, lon.=26.550468, Alt.=143.142700m. Speed=0.036000m/h.</desc>
<speed>0.010000</speed>
</trkpt>
<trkpt lat="55.726898" lon="26.550468">
<ele>143.138794</ele>
<time>2010-07-18T13:01:04Z</time>
<desc>lat.=55.726898, lon.=26.550468, Alt.=143.138794m. Speed=0.000000m/h.</desc>
<speed>0.000000</speed>
</trkpt>
<trkpt lat="55.726898" lon="26.550468">
<ele>143.138794</ele>
<time>2010-07-18T13:01:05Z</time>
<desc>lat.=55.726898, lon.=26.550468, Alt.=143.138794m. Speed=0.000000m/h.</desc>
<speed>0.000000</speed>
</trkpt>
<trkpt lat="55.726898" lon="26.550468">
<ele>143.138794</ele>
<time>2010-07-18T13:01:06Z</time>
<desc>lat.=55.726898, lon.=26.550468, Alt.=143.138794m. Speed=0.000000m/h.</desc>
<speed>0.000000</speed>
</trkpt>
<trkpt lat="55.726898" lon="26.550468">
<ele>143.134888</ele>
<time>2010-07-18T13:01:07Z</time>
<desc>lat.=55.726898, lon.=26.550468, Alt.=143.134888m. Speed=0.000000m/h.</desc>
<speed>0.000000</speed>
</trkpt>
<trkpt lat="55.726898" lon="26.550468">
<ele>143.130981</ele>
<time>2010-07-18T13:01:08Z</time>
<desc>lat.=55.726898, lon.=26.550468, Alt.=143.130981m. Speed=0.000000m/h.</desc>
<speed>0.000000</speed>
</trkpt>
<trkpt lat="55.726898" lon="26.550468">
<ele>143.130981</ele>
<time>2010-07-18T13:01:09Z</time>
<desc>lat.=55.726898, lon.=26.550468, Alt.=143.130981m. Speed=0.000000m/h.</desc>
<speed>0.000000</speed>
</trkpt>
<trkpt lat="55.726898" lon="26.550468">
<ele>143.130981</ele>
<time>2010-07-18T13:01:10Z</time>
<desc>lat.=55.726898, lon.=26.550468, Alt.=143.130981m. Speed=0.000000m/h.</desc>
<speed>0.000000</speed>
</trkpt>
<trkpt lat="55.726898" lon="26.550468">
<ele>143.130981</ele>
<time>2010-07-18T13:01:11Z</time>
<desc>lat.=55.726898, lon.=26.550468, Alt.=143.130981m. Speed=0.000000m/h.</desc>
<speed>0.000000</speed>
</trkpt>
<trkpt lat="55.726898" lon="26.550468">
<ele>143.130981</ele>
<time>2010-07-18T13:01:12Z</time>
<desc>lat.=55.726898, lon.=26.550468, Alt.=143.130981m. Speed=0.000000m/h.</desc>
<speed>0.000000</speed>
</trkpt>
<trkpt lat="55.726898" lon="26.550468">
<ele>143.127075</ele>
<time>2010-07-18T13:01:13Z</time>
<desc>lat.=55.726898, lon.=26.550468, Alt.=143.127075m. Speed=0.000000m/h.</desc>
<speed>0.000000</speed>
</trkpt>
<trkpt lat="55.726898" lon="26.550468">
<ele>143.127075</ele>
<time>2010-07-18T13:01:14Z</time>
<desc>lat.=55.726898, lon.=26.550468, Alt.=143.127075m. Speed=0.000000m/h.</desc>
<speed>0.000000</speed>
</trkpt>
<trkpt lat="55.726898" lon="26.550468">
<ele>143.127075</ele>
<time>2010-07-18T13:01:15Z</time>
<desc>lat.=55.726898, lon.=26.550468, Alt.=143.127075m. Speed=0.000000m/h.</desc>
<speed>0.000000</speed>
</trkpt>
<trkpt lat="55.726898" lon="26.550468">
<ele>143.130981</ele>
<time>2010-07-18T13:01:16Z</time>
<desc>lat.=55.726898, lon.=26.550468, Alt.=143.130981m. Speed=0.000000m/h.</desc>
<speed>0.000000</speed>
</trkpt>
<trkpt lat="55.726898" lon="26.550468">
<ele>143.127075</ele>
<time>2010-07-18T13:01:17Z</time>
<desc>lat.=55.726898, lon.=26.550468, Alt.=143.127075m. Speed=0.000000m/h.</desc>
<speed>0.000000</speed>
</trkpt>
<trkpt lat="55.726898" lon="26.550468">
<ele>143.127075</ele>
<time>2010-07-18T13:01:18Z</time>
<desc>lat.=55.726898, lon.=26.550468, Alt.=143.127075m. Speed=0.000000m/h.</desc>
<speed>0.000000</speed>
</trkpt>
<trkpt lat="55.726898" lon="26.550468">
<ele>143.127075</ele>
<time>2010-07-18T13:01:19Z</time>
<desc>lat.=55.726898, lon.=26.550468, Alt.=143.127075m. Speed=0.000000m/h.</desc>
<speed>0.000000</speed>
</trkpt>
<trkpt lat="55.726898" lon="26.550468">
<ele>143.127075</ele>
<time>2010-07-18T13:01:20Z</time>
<desc>lat.=55.726898, lon.=26.550468, Alt.=143.127075m. Speed=0.000000m/h.</desc>
<speed>0.000000</speed>
</trkpt>
<trkpt lat="55.726898" lon="26.550468">
<ele>143.123169</ele>
<time>2010-07-18T13:01:21Z</time>
<desc>lat.=55.726898, lon.=26.550468, Alt.=143.123169m. Speed=0.036000m/h.</desc>
<speed>0.010000</speed>
</trkpt>
<trkpt lat="55.726898" lon="26.550468">
<ele>143.123169</ele>
<time>2010-07-18T13:01:22Z</time>
<desc>lat.=55.726898, lon.=26.550468, Alt.=143.123169m. Speed=0.000000m/h.</desc>
<speed>0.000000</speed>
</trkpt>
<trkpt lat="55.726898" lon="26.550468">
<ele>143.119263</ele>
<time>2010-07-18T13:01:23Z</time>
<desc>lat.=55.726898, lon.=26.550468, Alt.=143.119263m. Speed=0.000000m/h.</desc>
<speed>0.000000</speed>
</trkpt>
<trkpt lat="55.726898" lon="26.550468">
<ele>143.115356</ele>
<time>2010-07-18T13:01:24Z</time>
<desc>lat.=55.726898, lon.=26.550468, Alt.=143.115356m. Speed=0.036000m/h.</desc>
<speed>0.010000</speed>
</trkpt>
<trkpt lat="55.726898" lon="26.550468">
<ele>143.115356</ele>
<time>2010-07-18T13:01:25Z</time>
<desc>lat.=55.726898, lon.=26.550468, Alt.=143.115356m. Speed=0.000000m/h.</desc>
<speed>0.000000</speed>
</trkpt>
<trkpt lat="55.726898" lon="26.550468">
<ele>143.115356</ele>
<time>2010-07-18T13:01:26Z</time>
<desc>lat.=55.726898, lon.=26.550468, Alt.=143.115356m. Speed=0.000000m/h.</desc>
<speed>0.000000</speed>
</trkpt>
<trkpt lat="55.726898" lon="26.550468">
<ele>143.111450</ele>
<time>2010-07-18T13:01:27Z</time>
<desc>lat.=55.726898, lon.=26.550468, Alt.=143.111450m. Speed=0.000000m/h.</desc>
<speed>0.000000</speed>
</trkpt>
<trkpt lat="55.726898" lon="26.550468">
<ele>143.103638</ele>
<time>2010-07-18T13:01:28Z</time>
<desc>lat.=55.726898, lon.=26.550468, Alt.=143.103638m. Speed=0.000000m/h.</desc>
<speed>0.000000</speed>
</trkpt>
<trkpt lat="55.726898" lon="26.550468">
<ele>143.099731</ele>
<time>2010-07-18T13:01:29Z</time>
<desc>lat.=55.726898, lon.=26.550468, Alt.=143.099731m. Speed=0.036000m/h.</desc>
<speed>0.010000</speed>
</trkpt>
<trkpt lat="55.726898" lon="26.550468">
<ele>143.095825</ele>
<time>2010-07-18T13:01:30Z</time>
<desc>lat.=55.726898, lon.=26.550468, Alt.=143.095825m. Speed=0.000000m/h.</desc>
<speed>0.000000</speed>
</trkpt>
<trkpt lat="55.726898" lon="26.550468">
<ele>143.091919</ele>
<time>2010-07-18T13:01:31Z</time>
<desc>lat.=55.726898, lon.=26.550468, Alt.=143.091919m. Speed=0.072000m/h.</desc>
<speed>0.020000</speed>
</trkpt>
<trkpt lat="55.726898" lon="26.550468">
<ele>143.095825</ele>
<time>2010-07-18T13:01:32Z</time>
<desc>lat.=55.726898, lon.=26.550468, Alt.=143.095825m. Speed=0.000000m/h.</desc>
<speed>0.000000</speed>
</trkpt>
<trkpt lat="55.726898" lon="26.550468">
<ele>143.099731</ele>
<time>2010-07-18T13:01:33Z</time>
<desc>lat.=55.726898, lon.=26.550468, Alt.=143.099731m. Speed=0.000000m/h.</desc>
<speed>0.000000</speed>
</trkpt>
<trkpt lat="55.726898" lon="26.550468">
<ele>143.103638</ele>
<time>2010-07-18T13:01:34Z</time>
<desc>lat.=55.726898, lon.=26.550468, Alt.=143.103638m. Speed=0.000000m/h.</desc>
<speed>0.000000</speed>
</trkpt>
<trkpt lat="55.726898" lon="26.550468">
<ele>143.103638</ele>
<time>2010-07-18T13:01:35Z</time>
<desc>lat.=55.726898, lon.=26.550468, Alt.=143.103638m. Speed=0.036000m/h.</desc>
<speed>0.010000</speed>
</trkpt>
<trkpt lat="55.726898" lon="26.550468">
<ele>143.103638</ele>
<time>2010-07-18T13:01:36Z</time>
<desc>lat.=55.726898, lon.=26.550468, Alt.=143.103638m. Speed=0.000000m/h.</desc>
<speed>0.000000</speed>
</trkpt>
<trkpt lat="55.726898" lon="26.550468">
<ele>143.103638</ele>
<time>2010-07-18T13:01:37Z</time>
<desc>lat.=55.726898, lon.=26.550468, Alt.=143.103638m. Speed=0.036000m/h.</desc>
<speed>0.010000</speed>
</trkpt>
<trkpt lat="55.726898" lon="26.550468">
<ele>143.107544</ele>
<time>2010-07-18T13:01:38Z</time>
<desc>lat.=55.726898, lon.=26.550468, Alt.=143.107544m. Speed=0.036000m/h.</desc>
<speed>0.010000</speed>
</trkpt>
<trkpt lat="55.726898" lon="26.550468">
<ele>143.107544</ele>
<time>2010-07-18T13:01:39Z</time>
<desc>lat.=55.726898, lon.=26.550468, Alt.=143.107544m. Speed=0.000000m/h.</desc>
<speed>0.000000</speed>
</trkpt>
<trkpt lat="55.726898" lon="26.550468">
<ele>143.111450</ele>
<time>2010-07-18T13:01:40Z</time>
<desc>lat.=55.726898, lon.=26.550468, Alt.=143.111450m. Speed=0.000000m/h.</desc>
<speed>0.000000</speed>
</trkpt>
<trkpt lat="55.726898" lon="26.550468">
<ele>143.115356</ele>
<time>2010-07-18T13:01:41Z</time>
<desc>lat.=55.726898, lon.=26.550468, Alt.=143.115356m. Speed=0.000000m/h.</desc>
<speed>0.000000</speed>
</trkpt>
<trkpt lat="55.726898" lon="26.550468">
<ele>143.123169</ele>
<time>2010-07-18T13:01:42Z</time>
<desc>lat.=55.726898, lon.=26.550468, Alt.=143.123169m. Speed=0.000000m/h.</desc>
<speed>0.000000</speed>
</trkpt>
<trkpt lat="55.726898" lon="26.550468">
<ele>143.127075</ele>
<time>2010-07-18T13:01:43Z</time>
<desc>lat.=55.726898, lon.=26.550468, Alt.=143.127075m. Speed=0.000000m/h.</desc>
<speed>0.000000</speed>
</trkpt>
<trkpt lat="55.726898" lon="26.550468">
<ele>143.127075</ele>
<time>2010-07-18T13:01:44Z</time>
<desc>lat.=55.726898, lon.=26.550468, Alt.=143.127075m. Speed=0.036000m/h.</desc>
<speed>0.010000</speed>
</trkpt>
<trkpt lat="55.726898" lon="26.550468">
<ele>143.127075</ele>
<time>2010-07-18T13:01:45Z</time>
<desc>lat.=55.726898, lon.=26.550468, Alt.=143.127075m. Speed=0.036000m/h.</desc>
<speed>0.010000</speed>
</trkpt>
<trkpt lat="55.726898" lon="26.550468">
<ele>143.123169</ele>
<time>2010-07-18T13:01:46Z</time>
<desc>lat.=55.726898, lon.=26.550468, Alt.=143.123169m. Speed=0.036000m/h.</desc>
<speed>0.010000</speed>
</trkpt>
<trkpt lat="55.726898" lon="26.550468">
<ele>143.127075</ele>
<time>2010-07-18T13:01:47Z</time>
<desc>lat.=55.726898, lon.=26.550468, Alt.=143.127075m. Speed=0.000000m/h.</desc>
<speed>0.000000</speed>
</trkpt>
<trkpt lat="55.726898" lon="26.550468">
<ele>143.127075</ele>
<time>2010-07-18T13:01:48Z</time>
<desc>lat.=55.726898, lon.=26.550468, Alt.=143.127075m. Speed=0.036000m/h.</desc>
<speed>0.010000</speed>
</trkpt>
<trkpt lat="55.726898" lon="26.550468">
<ele>143.130981</ele>
<time>2010-07-18T13:01:49Z</time>
<desc>lat.=55.726898, lon.=26.550468, Alt.=143.130981m. Speed=0.000000m/h.</desc>
<speed>0.000000</speed>
</trkpt>
<trkpt lat="55.726898" lon="26.550468">
<ele>143.142700</ele>
<time>2010-07-18T13:01:50Z</time>
<desc>lat.=55.726898, lon.=26.550468, Alt.=143.142700m. Speed=0.000000m/h.</desc>
<speed>0.000000</speed>
</trkpt>
<trkpt lat="55.726898" lon="26.550468">
<ele>143.150513</ele>
<time>2010-07-18T13:01:51Z</time>
<desc>lat.=55.726898, lon.=26.550468, Alt.=143.150513m. Speed=0.036000m/h.</desc>
<speed>0.010000</speed>
</trkpt>
<trkpt lat="55.726898" lon="26.550468">
<ele>143.158325</ele>
<time>2010-07-18T13:01:52Z</time>
<desc>lat.=55.726898, lon.=26.550468, Alt.=143.158325m. Speed=0.036000m/h.</desc>
<speed>0.010000</speed>
</trkpt>
<trkpt lat="55.726898" lon="26.550468">
<ele>143.166138</ele>
<time>2010-07-18T13:01:53Z</time>
<desc>lat.=55.726898, lon.=26.550468, Alt.=143.166138m. Speed=0.036000m/h.</desc>
<speed>0.010000</speed>
</trkpt>
<trkpt lat="55.726898" lon="26.550468">
<ele>143.170044</ele>
<time>2010-07-18T13:01:54Z</time>
<desc>lat.=55.726898, lon.=26.550468, Alt.=143.170044m. Speed=0.000000m/h.</desc>
<speed>0.000000</speed>
</trkpt>
<trkpt lat="55.726898" lon="26.550468">
<ele>143.173950</ele>
<time>2010-07-18T13:01:55Z</time>
<desc>lat.=55.726898, lon.=26.550468, Alt.=143.173950m. Speed=0.036000m/h.</desc>
<speed>0.010000</speed>
</trkpt>
<trkpt lat="55.726898" lon="26.550468">
<ele>143.173950</ele>
<time>2010-07-18T13:01:56Z</time>
<desc>lat.=55.726898, lon.=26.550468, Alt.=143.173950m. Speed=0.000000m/h.</desc>
<speed>0.000000</speed>
</trkpt>
<trkpt lat="55.726898" lon="26.550468">
<ele>143.173950</ele>
<time>2010-07-18T13:01:57Z</time>
<desc>lat.=55.726898, lon.=26.550468, Alt.=143.173950m. Speed=0.036000m/h.</desc>
<speed>0.010000</speed>
</trkpt>
<trkpt lat="55.726898" lon="26.550468">
<ele>143.173950</ele>
<time>2010-07-18T13:01:58Z</time>
<desc>lat.=55.726898, lon.=26.550468, Alt.=143.173950m. Speed=0.036000m/h.</desc>
<speed>0.010000</speed>
</trkpt>
<trkpt lat="55.726898" lon="26.550468">
<ele>143.173950</ele>
<time>2010-07-18T13:01:59Z</time>
<desc>lat.=55.726898, lon.=26.550468, Alt.=143.173950m. Speed=0.036000m/h.</desc>
<speed>0.010000</speed>
</trkpt>
<trkpt lat="55.726898" lon="26.550468">
<ele>143.177856</ele>
<time>2010-07-18T13:02:00Z</time>
<desc>lat.=55.726898, lon.=26.550468, Alt.=143.177856m. Speed=0.036000m/h.</desc>
<speed>0.010000</speed>
</trkpt>
<trkpt lat="55.726898" lon="26.550468">
<ele>143.181763</ele>
<time>2010-07-18T13:02:01Z</time>
<desc>lat.=55.726898, lon.=26.550468, Alt.=143.181763m. Speed=0.000000m/h.</desc>
<speed>0.000000</speed>
</trkpt>
<trkpt lat="55.726898" lon="26.550470">
<ele>143.189575</ele>
<time>2010-07-18T13:02:02Z</time>
<desc>lat.=55.726898, lon.=26.550470, Alt.=143.189575m. Speed=0.036000m/h.</desc>
<speed>0.010000</speed>
</trkpt>
<trkpt lat="55.726898" lon="26.550470">
<ele>143.197388</ele>
<time>2010-07-18T13:02:03Z</time>
<desc>lat.=55.726898, lon.=26.550470, Alt.=143.197388m. Speed=0.000000m/h.</desc>
<speed>0.000000</speed>
</trkpt>
<trkpt lat="55.726898" lon="26.550470">
<ele>143.201294</ele>
<time>2010-07-18T13:02:04Z</time>
<desc>lat.=55.726898, lon.=26.550470, Alt.=143.201294m. Speed=0.036000m/h.</desc>
<speed>0.010000</speed>
</trkpt>
<trkpt lat="55.726898" lon="26.550470">
<ele>143.205200</ele>
<time>2010-07-18T13:02:05Z</time>
<desc>lat.=55.726898, lon.=26.550470, Alt.=143.205200m. Speed=0.036000m/h.</desc>
<speed>0.010000</speed>
</trkpt>
<trkpt lat="55.726898" lon="26.550470">
<ele>143.205200</ele>
<time>2010-07-18T13:02:06Z</time>
<desc>lat.=55.726898, lon.=26.550470, Alt.=143.205200m. Speed=0.000000m/h.</desc>
<speed>0.000000</speed>
</trkpt>
<trkpt lat="55.726894" lon="26.550470">
<ele>143.209106</ele>
<time>2010-07-18T13:02:07Z</time>
<desc>lat.=55.726894, lon.=26.550470, Alt.=143.209106m. Speed=0.036000m/h.</desc>
<speed>0.010000</speed>
</trkpt>
<trkpt lat="55.726894" lon="26.550470">
<ele>143.216919</ele>
<time>2010-07-18T13:02:08Z</time>
<desc>lat.=55.726894, lon.=26.550470, Alt.=143.216919m. Speed=0.036000m/h.</desc>
<speed>0.010000</speed>
</trkpt>
<trkpt lat="55.726894" lon="26.550470">
<ele>143.220825</ele>
<time>2010-07-18T13:02:09Z</time>
<desc>lat.=55.726894, lon.=26.550470, Alt.=143.220825m. Speed=0.036000m/h.</desc>
<speed>0.010000</speed>
</trkpt>
<trkpt lat="55.726894" lon="26.550470">
<ele>143.228638</ele>
<time>2010-07-18T13:02:10Z</time>
<desc>lat.=55.726894, lon.=26.550470, Alt.=143.228638m. Speed=0.000000m/h.</desc>
<speed>0.000000</speed>
</trkpt>
<trkpt lat="55.726894" lon="26.550470">
<ele>143.236450</ele>
<time>2010-07-18T13:02:11Z</time>
<desc>lat.=55.726894, lon.=26.550470, Alt.=143.236450m. Speed=0.036000m/h.</desc>
<speed>0.010000</speed>
</trkpt>
<trkpt lat="55.726894" lon="26.550470">
<ele>143.240356</ele>
<time>2010-07-18T13:02:12Z</time>
<desc>lat.=55.726894, lon.=26.550470, Alt.=143.240356m. Speed=0.000000m/h.</desc>
<speed>0.000000</speed>
</trkpt>
<trkpt lat="55.726894" lon="26.550470">
<ele>143.248169</ele>
<time>2010-07-18T13:02:13Z</time>
<desc>lat.=55.726894, lon.=26.550470, Alt.=143.248169m. Speed=0.000000m/h.</desc>
<speed>0.000000</speed>
</trkpt>
<trkpt lat="55.726894" lon="26.550470">
<ele>143.255981</ele>
<time>2010-07-18T13:02:14Z</time>
<desc>lat.=55.726894, lon.=26.550470, Alt.=143.255981m. Speed=0.036000m/h.</desc>
<speed>0.010000</speed>
</trkpt>
<trkpt lat="55.726894" lon="26.550470">
<ele>143.255981</ele>
<time>2010-07-18T13:02:15Z</time>
<desc>lat.=55.726894, lon.=26.550470, Alt.=143.255981m. Speed=0.000000m/h.</desc>
<speed>0.000000</speed>
</trkpt>
<trkpt lat="55.726894" lon="26.550470">
<ele>143.259888</ele>
<time>2010-07-18T13:02:16Z</time>
<desc>lat.=55.726894, lon.=26.550470, Alt.=143.259888m. Speed=0.000000m/h.</desc>
<speed>0.000000</speed>
</trkpt>
<trkpt lat="55.726894" lon="26.550470">
<ele>143.263794</ele>
<time>2010-07-18T13:02:17Z</time>
<desc>lat.=55.726894, lon.=26.550470, Alt.=143.263794m. Speed=0.036000m/h.</desc>
<speed>0.010000</speed>
</trkpt>
<trkpt lat="55.726894" lon="26.550470">
<ele>143.263794</ele>
<time>2010-07-18T13:02:18Z</time>
<desc>lat.=55.726894, lon.=26.550470, Alt.=143.263794m. Speed=0.000000m/h.</desc>
<speed>0.000000</speed>
</trkpt>
<trkpt lat="55.726894" lon="26.550470">
<ele>143.267700</ele>
<time>2010-07-18T13:02:19Z</time>
<desc>lat.=55.726894, lon.=26.550470, Alt.=143.267700m. Speed=0.036000m/h.</desc>
<speed>0.010000</speed>
</trkpt>
<trkpt lat="55.726894" lon="26.550470">
<ele>143.263794</ele>
<time>2010-07-18T13:02:20Z</time>
<desc>lat.=55.726894, lon.=26.550470, Alt.=143.263794m. Speed=0.000000m/h.</desc>
<speed>0.000000</speed>
</trkpt>
<trkpt lat="55.726894" lon="26.550470">
<ele>143.267700</ele>
<time>2010-07-18T13:02:21Z</time>
<desc>lat.=55.726894, lon.=26.550470, Alt.=143.267700m. Speed=0.000000m/h.</desc>
<speed>0.000000</speed>
</trkpt>
<trkpt lat="55.726894" lon="26.550470">
<ele>143.271606</ele>
<time>2010-07-18T13:02:22Z</time>
<desc>lat.=55.726894, lon.=26.550470, Alt.=143.271606m. Speed=0.000000m/h.</desc>
<speed>0.000000</speed>
</trkpt>
<trkpt lat="55.726894" lon="26.550470">
<ele>143.271606</ele>
<time>2010-07-18T13:02:23Z</time>
<desc>lat.=55.726894, lon.=26.550470, Alt.=143.271606m. Speed=0.036000m/h.</desc>
<speed>0.010000</speed>
</trkpt>
<trkpt lat="55.726894" lon="26.550470">
<ele>143.275513</ele>
<time>2010-07-18T13:02:24Z</time>
<desc>lat.=55.726894, lon.=26.550470, Alt.=143.275513m. Speed=0.036000m/h.</desc>
<speed>0.010000</speed>
</trkpt>
<trkpt lat="55.726894" lon="26.550470">
<ele>143.283325</ele>
<time>2010-07-18T13:02:25Z</time>
<desc>lat.=55.726894, lon.=26.550470, Alt.=143.283325m. Speed=0.036000m/h.</desc>
<speed>0.010000</speed>
</trkpt>
<trkpt lat="55.726894" lon="26.550470">
<ele>143.283325</ele>
<time>2010-07-18T13:02:26Z</time>
<desc>lat.=55.726894, lon.=26.550470, Alt.=143.283325m. Speed=0.036000m/h.</desc>
<speed>0.010000</speed>
</trkpt>
<trkpt lat="55.726898" lon="26.550470">
<ele>143.283325</ele>
<time>2010-07-18T13:02:27Z</time>
<desc>lat.=55.726898, lon.=26.550470, Alt.=143.283325m. Speed=0.072000m/h.</desc>
<speed>0.020000</speed>
</trkpt>
<trkpt lat="55.726898" lon="26.550470">
<ele>143.287231</ele>
<time>2010-07-18T13:02:28Z</time>
<desc>lat.=55.726898, lon.=26.550470, Alt.=143.287231m. Speed=0.000000m/h.</desc>
<speed>0.000000</speed>
</trkpt>
<trkpt lat="55.726898" lon="26.550470">
<ele>143.291138</ele>
<time>2010-07-18T13:02:29Z</time>
<desc>lat.=55.726898, lon.=26.550470, Alt.=143.291138m. Speed=0.036000m/h.</desc>
<speed>0.010000</speed>
</trkpt>
<trkpt lat="55.726898" lon="26.550470">
<ele>143.291138</ele>
<time>2010-07-18T13:02:30Z</time>
<desc>lat.=55.726898, lon.=26.550470, Alt.=143.291138m. Speed=0.036000m/h.</desc>
<speed>0.010000</speed>
</trkpt>
<trkpt lat="55.726898" lon="26.550470">
<ele>143.291138</ele>
<time>2010-07-18T13:02:31Z</time>
<desc>lat.=55.726898, lon.=26.550470, Alt.=143.291138m. Speed=0.000000m/h.</desc>
<speed>0.000000</speed>
</trkpt>
<trkpt lat="55.726898" lon="26.550470">
<ele>143.287231</ele>
<time>2010-07-18T13:02:32Z</time>
<desc>lat.=55.726898, lon.=26.550470, Alt.=143.287231m. Speed=0.036000m/h.</desc>
<speed>0.010000</speed>
</trkpt>
<trkpt lat="55.726898" lon="26.550470">
<ele>143.287231</ele>
<time>2010-07-18T13:02:33Z</time>
<desc>lat.=55.726898, lon.=26.550470, Alt.=143.287231m. Speed=0.000000m/h.</desc>
<speed>0.000000</speed>
</trkpt>
<trkpt lat="55.726898" lon="26.550470">
<ele>143.287231</ele>
<time>2010-07-18T13:02:34Z</time>
<desc>lat.=55.726898, lon.=26.550470, Alt.=143.287231m. Speed=0.000000m/h.</desc>
<speed>0.000000</speed>
</trkpt>
<trkpt lat="55.726898" lon="26.550470">
<ele>143.279419</ele>
<time>2010-07-18T13:02:35Z</time>
<desc>lat.=55.726898, lon.=26.550470, Alt.=143.279419m. Speed=0.036000m/h.</desc>
<speed>0.010000</speed>
</trkpt>
<trkpt lat="55.726898" lon="26.550470">
<ele>143.275513</ele>
<time>2010-07-18T13:02:36Z</time>
<desc>lat.=55.726898, lon.=26.550470, Alt.=143.275513m. Speed=0.036000m/h.</desc>
<speed>0.010000</speed>
</trkpt>
<trkpt lat="55.726898" lon="26.550470">
<ele>143.271606</ele>
<time>2010-07-18T13:02:37Z</time>
<desc>lat.=55.726898, lon.=26.550470, Alt.=143.271606m. Speed=0.036000m/h.</desc>
<speed>0.010000</speed>
</trkpt>
<trkpt lat="55.726898" lon="26.550470">
<ele>143.271606</ele>
<time>2010-07-18T13:02:38Z</time>
<desc>lat.=55.726898, lon.=26.550470, Alt.=143.271606m. Speed=0.036000m/h.</desc>
<speed>0.010000</speed>
</trkpt>
<trkpt lat="55.726898" lon="26.550470">
<ele>143.267700</ele>
<time>2010-07-18T13:02:39Z</time>
<desc>lat.=55.726898, lon.=26.550470, Alt.=143.267700m. Speed=0.000000m/h.</desc>
<speed>0.000000</speed>
</trkpt>
<trkpt lat="55.726898" lon="26.550470">
<ele>143.267700</ele>
<time>2010-07-18T13:02:40Z</time>
<desc>lat.=55.726898, lon.=26.550470, Alt.=143.267700m. Speed=0.000000m/h.</desc>
<speed>0.000000</speed>
</trkpt>
<trkpt lat="55.726898" lon="26.550470">
<ele>143.267700</ele>
<time>2010-07-18T13:02:41Z</time>
<desc>lat.=55.726898, lon.=26.550470, Alt.=143.267700m. Speed=0.036000m/h.</desc>
<speed>0.010000</speed>
</trkpt>
<trkpt lat="55.726898" lon="26.550470">
<ele>143.267700</ele>
<time>2010-07-18T13:02:42Z</time>
<desc>lat.=55.726898, lon.=26.550470, Alt.=143.267700m. Speed=0.036000m/h.</desc>
<speed>0.010000</speed>
</trkpt>
<trkpt lat="55.726898" lon="26.550470">
<ele>143.267700</ele>
<time>2010-07-18T13:02:43Z</time>
<desc>lat.=55.726898, lon.=26.550470, Alt.=143.267700m. Speed=0.000000m/h.</desc>
<speed>0.000000</speed>
</trkpt>
<trkpt lat="55.726898" lon="26.550470">
<ele>143.267700</ele>
<time>2010-07-18T13:02:44Z</time>
<desc>lat.=55.726898, lon.=26.550470, Alt.=143.267700m. Speed=0.000000m/h.</desc>
<speed>0.000000</speed>
</trkpt>
<trkpt lat="55.726898" lon="26.550470">
<ele>143.267700</ele>
<time>2010-07-18T13:02:45Z</time>
<desc>lat.=55.726898, lon.=26.550470, Alt.=143.267700m. Speed=0.000000m/h.</desc>
<speed>0.000000</speed>
</trkpt>
<trkpt lat="55.726898" lon="26.550470">
<ele>143.267700</ele>
<time>2010-07-18T13:02:46Z</time>
<desc>lat.=55.726898, lon.=26.550470, Alt.=143.267700m. Speed=0.000000m/h.</desc>
<speed>0.000000</speed>
</trkpt>
<trkpt lat="55.726898" lon="26.550470">
<ele>143.267700</ele>
<time>2010-07-18T13:02:47Z</time>
<desc>lat.=55.726898, lon.=26.550470, Alt.=143.267700m. Speed=0.000000m/h.</desc>
<speed>0.000000</speed>
</trkpt>
<trkpt lat="55.726898" lon="26.550470">
<ele>143.267700</ele>
<time>2010-07-18T13:02:48Z</time>
<desc>lat.=55.726898, lon.=26.550470, Alt.=143.267700m. Speed=0.000000m/h.</desc>
<speed>0.000000</speed>
</trkpt>
<trkpt lat="55.726898" lon="26.550470">
<ele>143.267700</ele>
<time>2010-07-18T13:02:49Z</time>
<desc>lat.=55.726898, lon.=26.550470, Alt.=143.267700m. Speed=0.036000m/h.</desc>
<speed>0.010000</speed>
</trkpt>
<trkpt lat="55.726898" lon="26.550470">
<ele>143.263794</ele>
<time>2010-07-18T13:02:50Z</time>
<desc>lat.=55.726898, lon.=26.550470, Alt.=143.263794m. Speed=0.000000m/h.</desc>
<speed>0.000000</speed>
</trkpt>
<trkpt lat="55.726898" lon="26.550470">
<ele>143.259888</ele>
<time>2010-07-18T13:02:51Z</time>
<desc>lat.=55.726898, lon.=26.550470, Alt.=143.259888m. Speed=0.036000m/h.</desc>
<speed>0.010000</speed>
</trkpt>
<trkpt lat="55.726898" lon="26.550470">
<ele>143.255981</ele>
<time>2010-07-18T13:02:52Z</time>
<desc>lat.=55.726898, lon.=26.550470, Alt.=143.255981m. Speed=0.036000m/h.</desc>
<speed>0.010000</speed>
</trkpt>
<trkpt lat="55.726898" lon="26.550470">
<ele>143.248169</ele>
<time>2010-07-18T13:02:53Z</time>
<desc>lat.=55.726898, lon.=26.550470, Alt.=143.248169m. Speed=0.000000m/h.</desc>
<speed>0.000000</speed>
</trkpt>
<trkpt lat="55.726898" lon="26.550470">
<ele>143.240356</ele>
<time>2010-07-18T13:02:54Z</time>
<desc>lat.=55.726898, lon.=26.550470, Alt.=143.240356m. Speed=0.288000m/h.</desc>
<speed>0.080000</speed>
</trkpt>
<trkpt lat="55.726898" lon="26.550470">
<ele>143.240356</ele>
<time>2010-07-18T13:02:55Z</time>
<desc>lat.=55.726898, lon.=26.550470, Alt.=143.240356m. Speed=0.000000m/h.</desc>
<speed>0.000000</speed>
</trkpt>
<trkpt lat="55.726898" lon="26.550470">
<ele>143.236450</ele>
<time>2010-07-18T13:02:56Z</time>
<desc>lat.=55.726898, lon.=26.550470, Alt.=143.236450m. Speed=0.036000m/h.</desc>
<speed>0.010000</speed>
</trkpt>
<trkpt lat="55.726898" lon="26.550470">
<ele>143.232544</ele>
<time>2010-07-18T13:02:57Z</time>
<desc>lat.=55.726898, lon.=26.550470, Alt.=143.232544m. Speed=0.036000m/h.</desc>
<speed>0.010000</speed>
</trkpt>
<trkpt lat="55.726898" lon="26.550470">
<ele>143.216919</ele>
<time>2010-07-18T13:02:58Z</time>
<desc>lat.=55.726898, lon.=26.550470, Alt.=143.216919m. Speed=0.000000m/h.</desc>
<speed>0.000000</speed>
</trkpt>
<trkpt lat="55.726898" lon="26.550470">
<ele>143.209106</ele>
<time>2010-07-18T13:02:59Z</time>
<desc>lat.=55.726898, lon.=26.550470, Alt.=143.209106m. Speed=0.036000m/h.</desc>
<speed>0.010000</speed>
</trkpt>
<trkpt lat="55.726898" lon="26.550470">
<ele>143.201294</ele>
<time>2010-07-18T13:03:00Z</time>
<desc>lat.=55.726898, lon.=26.550470, Alt.=143.201294m. Speed=0.000000m/h.</desc>
<speed>0.000000</speed>
</trkpt>
<trkpt lat="55.726898" lon="26.550470">
<ele>143.201294</ele>
<time>2010-07-18T13:03:01Z</time>
<desc>lat.=55.726898, lon.=26.550470, Alt.=143.201294m. Speed=0.072000m/h.</desc>
<speed>0.020000</speed>
</trkpt>
<trkpt lat="55.726898" lon="26.550470">
<ele>143.205200</ele>
<time>2010-07-18T13:03:02Z</time>
<desc>lat.=55.726898, lon.=26.550470, Alt.=143.205200m. Speed=0.036000m/h.</desc>
<speed>0.010000</speed>
</trkpt>
<trkpt lat="55.726898" lon="26.550470">
<ele>143.209106</ele>
<time>2010-07-18T13:03:03Z</time>
<desc>lat.=55.726898, lon.=26.550470, Alt.=143.209106m. Speed=0.036000m/h.</desc>
<speed>0.010000</speed>
</trkpt>
<trkpt lat="55.726898" lon="26.550470">
<ele>143.209106</ele>
<time>2010-07-18T13:03:04Z</time>
<desc>lat.=55.726898, lon.=26.550470, Alt.=143.209106m. Speed=0.000000m/h.</desc>
<speed>0.000000</speed>
</trkpt>
<trkpt lat="55.726898" lon="26.550470">
<ele>143.213013</ele>
<time>2010-07-18T13:03:05Z</time>
<desc>lat.=55.726898, lon.=26.550470, Alt.=143.213013m. Speed=0.108000m/h.</desc>
<speed>0.030000</speed>
</trkpt>
<trkpt lat="55.726898" lon="26.550470">
<ele>143.213013</ele>
<time>2010-07-18T13:03:06Z</time>
<desc>lat.=55.726898, lon.=26.550470, Alt.=143.213013m. Speed=0.036000m/h.</desc>
<speed>0.010000</speed>
</trkpt>
<trkpt lat="55.726898" lon="26.550470">
<ele>143.213013</ele>
<time>2010-07-18T13:03:07Z</time>
<desc>lat.=55.726898, lon.=26.550470, Alt.=143.213013m. Speed=0.036000m/h.</desc>
<speed>0.010000</speed>
</trkpt>
<trkpt lat="55.726898" lon="26.550470">
<ele>143.216919</ele>
<time>2010-07-18T13:03:08Z</time>
<desc>lat.=55.726898, lon.=26.550470, Alt.=143.216919m. Speed=0.000000m/h.</desc>
<speed>0.000000</speed>
</trkpt>
<trkpt lat="55.726898" lon="26.550470">
<ele>143.216919</ele>
<time>2010-07-18T13:03:09Z</time>
<desc>lat.=55.726898, lon.=26.550470, Alt.=143.216919m. Speed=0.072000m/h.</desc>
<speed>0.020000</speed>
</trkpt>
<trkpt lat="55.726898" lon="26.550470">
<ele>143.216919</ele>
<time>2010-07-18T13:03:10Z</time>
<desc>lat.=55.726898, lon.=26.550470, Alt.=143.216919m. Speed=0.036000m/h.</desc>
<speed>0.010000</speed>
</trkpt>
<trkpt lat="55.726898" lon="26.550470">
<ele>143.220825</ele>
<time>2010-07-18T13:03:11Z</time>
<desc>lat.=55.726898, lon.=26.550470, Alt.=143.220825m. Speed=0.000000m/h.</desc>
<speed>0.000000</speed>
</trkpt>
<trkpt lat="55.726898" lon="26.550470">
<ele>143.216919</ele>
<time>2010-07-18T13:03:12Z</time>
<desc>lat.=55.726898, lon.=26.550470, Alt.=143.216919m. Speed=0.000000m/h.</desc>
<speed>0.000000</speed>
</trkpt>
<trkpt lat="55.726894" lon="26.550470">
<ele>143.224731</ele>
<time>2010-07-18T13:03:13Z</time>
<desc>lat.=55.726894, lon.=26.550470, Alt.=143.224731m. Speed=0.000000m/h.</desc>
<speed>0.000000</speed>
</trkpt>
<trkpt lat="55.726894" lon="26.550470">
<ele>143.224731</ele>
<time>2010-07-18T13:03:14Z</time>
<desc>lat.=55.726894, lon.=26.550470, Alt.=143.224731m. Speed=0.036000m/h.</desc>
<speed>0.010000</speed>
</trkpt>
<trkpt lat="55.726894" lon="26.550470">
<ele>143.224731</ele>
<time>2010-07-18T13:03:15Z</time>
<desc>lat.=55.726894, lon.=26.550470, Alt.=143.224731m. Speed=0.000000m/h.</desc>
<speed>0.000000</speed>
</trkpt>
<trkpt lat="55.726894" lon="26.550470">
<ele>143.224731</ele>
<time>2010-07-18T13:03:16Z</time>
<desc>lat.=55.726894, lon.=26.550470, Alt.=143.224731m. Speed=0.000000m/h.</desc>
<speed>0.000000</speed>
</trkpt>
<trkpt lat="55.726894" lon="26.550470">
<ele>143.228638</ele>
<time>2010-07-18T13:03:17Z</time>
<desc>lat.=55.726894, lon.=26.550470, Alt.=143.228638m. Speed=0.072000m/h.</desc>
<speed>0.020000</speed>
</trkpt>
<trkpt lat="55.726894" lon="26.550470">
<ele>143.228638</ele>
<time>2010-07-18T13:03:18Z</time>
<desc>lat.=55.726894, lon.=26.550470, Alt.=143.228638m. Speed=0.072000m/h.</desc>
<speed>0.020000</speed>
</trkpt>
<trkpt lat="55.726894" lon="26.550470">
<ele>143.224731</ele>
<time>2010-07-18T13:03:19Z</time>
<desc>lat.=55.726894, lon.=26.550470, Alt.=143.224731m. Speed=0.000000m/h.</desc>
<speed>0.000000</speed>
</trkpt>
<trkpt lat="55.726894" lon="26.550470">
<ele>143.224731</ele>
<time>2010-07-18T13:03:20Z</time>
<desc>lat.=55.726894, lon.=26.550470, Alt.=143.224731m. Speed=0.000000m/h.</desc>
<speed>0.000000</speed>
</trkpt>
<trkpt lat="55.726894" lon="26.550470">
<ele>143.220825</ele>
<time>2010-07-18T13:03:21Z</time>
<desc>lat.=55.726894, lon.=26.550470, Alt.=143.220825m. Speed=0.036000m/h.</desc>
<speed>0.010000</speed>
</trkpt>
<trkpt lat="55.726894" lon="26.550470">
<ele>143.216919</ele>
<time>2010-07-18T13:03:22Z</time>
<desc>lat.=55.726894, lon.=26.550470, Alt.=143.216919m. Speed=0.036000m/h.</desc>
<speed>0.010000</speed>
</trkpt>
<trkpt lat="55.726894" lon="26.550470">
<ele>143.213013</ele>
<time>2010-07-18T13:03:23Z</time>
<desc>lat.=55.726894, lon.=26.550470, Alt.=143.213013m. Speed=0.036000m/h.</desc>
<speed>0.010000</speed>
</trkpt>
<trkpt lat="55.726894" lon="26.550470">
<ele>143.209106</ele>
<time>2010-07-18T13:03:24Z</time>
<desc>lat.=55.726894, lon.=26.550470, Alt.=143.209106m. Speed=0.000000m/h.</desc>
<speed>0.000000</speed>
</trkpt>
<trkpt lat="55.726894" lon="26.550470">
<ele>143.209106</ele>
<time>2010-07-18T13:03:25Z</time>
<desc>lat.=55.726894, lon.=26.550470, Alt.=143.209106m. Speed=0.036000m/h.</desc>
<speed>0.010000</speed>
</trkpt>
<trkpt lat="55.726894" lon="26.550470">
<ele>143.201294</ele>
<time>2010-07-18T13:03:26Z</time>
<desc>lat.=55.726894, lon.=26.550470, Alt.=143.201294m. Speed=0.072000m/h.</desc>
<speed>0.020000</speed>
</trkpt>
<trkpt lat="55.726894" lon="26.550470">
<ele>143.201294</ele>
<time>2010-07-18T13:03:27Z</time>
<desc>lat.=55.726894, lon.=26.550470, Alt.=143.201294m. Speed=0.072000m/h.</desc>
<speed>0.020000</speed>
</trkpt>
<trkpt lat="55.726894" lon="26.550470">
<ele>143.201294</ele>
<time>2010-07-18T13:03:28Z</time>
<desc>lat.=55.726894, lon.=26.550470, Alt.=143.201294m. Speed=0.036000m/h.</desc>
<speed>0.010000</speed>
</trkpt>
<trkpt lat="55.726894" lon="26.550470">
<ele>143.197388</ele>
<time>2010-07-18T13:03:29Z</time>
<desc>lat.=55.726894, lon.=26.550470, Alt.=143.197388m. Speed=0.072000m/h.</desc>
<speed>0.020000</speed>
</trkpt>
<trkpt lat="55.726894" lon="26.550470">
<ele>143.193481</ele>
<time>2010-07-18T13:03:30Z</time>
<desc>lat.=55.726894, lon.=26.550470, Alt.=143.193481m. Speed=0.072000m/h.</desc>
<speed>0.020000</speed>
</trkpt>
<trkpt lat="55.726894" lon="26.550470">
<ele>143.185669</ele>
<time>2010-07-18T13:03:31Z</time>
<desc>lat.=55.726894, lon.=26.550470, Alt.=143.185669m. Speed=0.108000m/h.</desc>
<speed>0.030000</speed>
</trkpt>
<trkpt lat="55.726894" lon="26.550470">
<ele>143.181763</ele>
<time>2010-07-18T13:03:32Z</time>
<desc>lat.=55.726894, lon.=26.550470, Alt.=143.181763m. Speed=0.108000m/h.</desc>
<speed>0.030000</speed>
</trkpt>
<trkpt lat="55.726894" lon="26.550470">
<ele>143.173950</ele>
<time>2010-07-18T13:03:33Z</time>
<desc>lat.=55.726894, lon.=26.550470, Alt.=143.173950m. Speed=0.108000m/h.</desc>
<speed>0.030000</speed>
</trkpt>
<trkpt lat="55.726894" lon="26.550470">
<ele>143.170044</ele>
<time>2010-07-18T13:03:34Z</time>
<desc>lat.=55.726894, lon.=26.550470, Alt.=143.170044m. Speed=0.036000m/h.</desc>
<speed>0.010000</speed>
</trkpt>
<trkpt lat="55.726894" lon="26.550470">
<ele>143.170044</ele>
<time>2010-07-18T13:03:35Z</time>
<desc>lat.=55.726894, lon.=26.550470, Alt.=143.170044m. Speed=0.000000m/h.</desc>
<speed>0.000000</speed>
</trkpt>
<trkpt lat="55.726894" lon="26.550470">
<ele>143.166138</ele>
<time>2010-07-18T13:03:36Z</time>
<desc>lat.=55.726894, lon.=26.550470, Alt.=143.166138m. Speed=0.000000m/h.</desc>
<speed>0.000000</speed>
</trkpt>
<trkpt lat="55.726894" lon="26.550470">
<ele>143.162231</ele>
<time>2010-07-18T13:03:37Z</time>
<desc>lat.=55.726894, lon.=26.550470, Alt.=143.162231m. Speed=0.072000m/h.</desc>
<speed>0.020000</speed>
</trkpt>
<trkpt lat="55.726894" lon="26.550470">
<ele>143.162231</ele>
<time>2010-07-18T13:03:38Z</time>
<desc>lat.=55.726894, lon.=26.550470, Alt.=143.162231m. Speed=0.036000m/h.</desc>
<speed>0.010000</speed>
</trkpt>
<trkpt lat="55.726894" lon="26.550470">
<ele>143.162231</ele>
<time>2010-07-18T13:03:39Z</time>
<desc>lat.=55.726894, lon.=26.550470, Alt.=143.162231m. Speed=0.072000m/h.</desc>
<speed>0.020000</speed>
</trkpt>
<trkpt lat="55.726894" lon="26.550470">
<ele>143.158325</ele>
<time>2010-07-18T13:03:40Z</time>
<desc>lat.=55.726894, lon.=26.550470, Alt.=143.158325m. Speed=0.036000m/h.</desc>
<speed>0.010000</speed>
</trkpt>
<trkpt lat="55.726894" lon="26.550472">
<ele>143.154419</ele>
<time>2010-07-18T13:03:41Z</time>
<desc>lat.=55.726894, lon.=26.550472, Alt.=143.154419m. Speed=0.072000m/h.</desc>
<speed>0.020000</speed>
</trkpt>
<trkpt lat="55.726894" lon="26.550472">
<ele>143.150513</ele>
<time>2010-07-18T13:03:42Z</time>
<desc>lat.=55.726894, lon.=26.550472, Alt.=143.150513m. Speed=0.072000m/h.</desc>
<speed>0.020000</speed>
</trkpt>
<trkpt lat="55.726894" lon="26.550472">
<ele>143.158325</ele>
<time>2010-07-18T13:03:43Z</time>
<desc>lat.=55.726894, lon.=26.550472, Alt.=143.158325m. Speed=0.000000m/h.</desc>
<speed>0.000000</speed>
</trkpt>
<trkpt lat="55.726894" lon="26.550472">
<ele>143.162231</ele>
<time>2010-07-18T13:03:44Z</time>
<desc>lat.=55.726894, lon.=26.550472, Alt.=143.162231m. Speed=0.072000m/h.</desc>
<speed>0.020000</speed>
</trkpt>
<trkpt lat="55.726894" lon="26.550470">
<ele>143.166138</ele>
<time>2010-07-18T13:03:45Z</time>
<desc>lat.=55.726894, lon.=26.550470, Alt.=143.166138m. Speed=0.144000m/h.</desc>
<speed>0.040000</speed>
</trkpt>
<trkpt lat="55.726894" lon="26.550472">
<ele>143.166138</ele>
<time>2010-07-18T13:03:46Z</time>
<desc>lat.=55.726894, lon.=26.550472, Alt.=143.166138m. Speed=0.072000m/h.</desc>
<speed>0.020000</speed>
</trkpt>
<trkpt lat="55.726894" lon="26.550472">
<ele>143.162231</ele>
<time>2010-07-18T13:03:47Z</time>
<desc>lat.=55.726894, lon.=26.550472, Alt.=143.162231m. Speed=0.000000m/h.</desc>
<speed>0.000000</speed>
</trkpt>
<trkpt lat="55.726894" lon="26.550470">
<ele>143.154419</ele>
<time>2010-07-18T13:03:48Z</time>
<desc>lat.=55.726894, lon.=26.550470, Alt.=143.154419m. Speed=0.144000m/h.</desc>
<speed>0.040000</speed>
</trkpt>
<trkpt lat="55.726894" lon="26.550470">
<ele>143.142700</ele>
<time>2010-07-18T13:03:49Z</time>
<desc>lat.=55.726894, lon.=26.550470, Alt.=143.142700m. Speed=0.036000m/h.</desc>
<speed>0.010000</speed>
</trkpt>
<trkpt lat="55.726894" lon="26.550472">
<ele>143.138794</ele>
<time>2010-07-18T13:03:50Z</time>
<desc>lat.=55.726894, lon.=26.550472, Alt.=143.138794m. Speed=0.072000m/h.</desc>
<speed>0.020000</speed>
</trkpt>
<trkpt lat="55.726894" lon="26.550472">
<ele>143.134888</ele>
<time>2010-07-18T13:03:51Z</time>
<desc>lat.=55.726894, lon.=26.550472, Alt.=143.134888m. Speed=0.108000m/h.</desc>
<speed>0.030000</speed>
</trkpt>
<trkpt lat="55.726894" lon="26.550472">
<ele>143.134888</ele>
<time>2010-07-18T13:03:52Z</time>
<desc>lat.=55.726894, lon.=26.550472, Alt.=143.134888m. Speed=0.108000m/h.</desc>
<speed>0.030000</speed>
</trkpt>
<trkpt lat="55.726894" lon="26.550472">
<ele>143.134888</ele>
<time>2010-07-18T13:03:53Z</time>
<desc>lat.=55.726894, lon.=26.550472, Alt.=143.134888m. Speed=0.036000m/h.</desc>
<speed>0.010000</speed>
</trkpt>
<trkpt lat="55.726894" lon="26.550472">
<ele>143.130981</ele>
<time>2010-07-18T13:03:54Z</time>
<desc>lat.=55.726894, lon.=26.550472, Alt.=143.130981m. Speed=0.036000m/h.</desc>
<speed>0.010000</speed>
</trkpt>
<trkpt lat="55.726894" lon="26.550472">
<ele>143.130981</ele>
<time>2010-07-18T13:03:55Z</time>
<desc>lat.=55.726894, lon.=26.550472, Alt.=143.130981m. Speed=0.000000m/h.</desc>
<speed>0.000000</speed>
</trkpt>
<trkpt lat="55.726894" lon="26.550472">
<ele>143.130981</ele>
<time>2010-07-18T13:03:56Z</time>
<desc>lat.=55.726894, lon.=26.550472, Alt.=143.130981m. Speed=0.000000m/h.</desc>
<speed>0.000000</speed>
</trkpt>
<trkpt lat="55.726894" lon="26.550472">
<ele>143.127075</ele>
<time>2010-07-18T13:03:57Z</time>
<desc>lat.=55.726894, lon.=26.550472, Alt.=143.127075m. Speed=0.072000m/h.</desc>
<speed>0.020000</speed>
</trkpt>
<trkpt lat="55.726894" lon="26.550470">
<ele>143.127075</ele>
<time>2010-07-18T13:03:58Z</time>
<desc>lat.=55.726894, lon.=26.550470, Alt.=143.127075m. Speed=0.036000m/h.</desc>
<speed>0.010000</speed>
</trkpt>
<trkpt lat="55.726894" lon="26.550470">
<ele>143.127075</ele>
<time>2010-07-18T13:03:59Z</time>
<desc>lat.=55.726894, lon.=26.550470, Alt.=143.127075m. Speed=0.000000m/h.</desc>
<speed>0.000000</speed>
</trkpt>
<trkpt lat="55.726894" lon="26.550470">
<ele>143.130981</ele>
<time>2010-07-18T13:04:00Z</time>
<desc>lat.=55.726894, lon.=26.550470, Alt.=143.130981m. Speed=0.036000m/h.</desc>
<speed>0.010000</speed>
</trkpt>
<trkpt lat="55.726894" lon="26.550470">
<ele>143.130981</ele>
<time>2010-07-18T13:04:01Z</time>
<desc>lat.=55.726894, lon.=26.550470, Alt.=143.130981m. Speed=0.000000m/h.</desc>
<speed>0.000000</speed>
</trkpt>
<trkpt lat="55.726894" lon="26.550470">
<ele>143.127075</ele>
<time>2010-07-18T13:04:02Z</time>
<desc>lat.=55.726894, lon.=26.550470, Alt.=143.127075m. Speed=0.036000m/h.</desc>
<speed>0.010000</speed>
</trkpt>
<trkpt lat="55.726894" lon="26.550470">
<ele>143.119263</ele>
<time>2010-07-18T13:04:03Z</time>
<desc>lat.=55.726894, lon.=26.550470, Alt.=143.119263m. Speed=0.036000m/h.</desc>
<speed>0.010000</speed>
</trkpt>
<trkpt lat="55.726894" lon="26.550470">
<ele>143.107544</ele>
<time>2010-07-18T13:04:04Z</time>
<desc>lat.=55.726894, lon.=26.550470, Alt.=143.107544m. Speed=0.000000m/h.</desc>
<speed>0.000000</speed>
</trkpt>
<trkpt lat="55.726894" lon="26.550470">
<ele>143.103638</ele>
<time>2010-07-18T13:04:05Z</time>
<desc>lat.=55.726894, lon.=26.550470, Alt.=143.103638m. Speed=0.000000m/h.</desc>
<speed>0.000000</speed>
</trkpt>
<trkpt lat="55.726894" lon="26.550470">
<ele>143.107544</ele>
<time>2010-07-18T13:04:06Z</time>
<desc>lat.=55.726894, lon.=26.550470, Alt.=143.107544m. Speed=0.000000m/h.</desc>
<speed>0.000000</speed>
</trkpt>
<trkpt lat="55.726894" lon="26.550470">
<ele>143.107544</ele>
<time>2010-07-18T13:04:07Z</time>
<desc>lat.=55.726894, lon.=26.550470, Alt.=143.107544m. Speed=0.000000m/h.</desc>
<speed>0.000000</speed>
</trkpt>
<trkpt lat="55.726894" lon="26.550470">
<ele>143.107544</ele>
<time>2010-07-18T13:04:08Z</time>
<desc>lat.=55.726894, lon.=26.550470, Alt.=143.107544m. Speed=0.000000m/h.</desc>
<speed>0.000000</speed>
</trkpt>
<trkpt lat="55.726894" lon="26.550470">
<ele>143.107544</ele>
<time>2010-07-18T13:04:09Z</time>
<desc>lat.=55.726894, lon.=26.550470, Alt.=143.107544m. Speed=0.036000m/h.</desc>
<speed>0.010000</speed>
</trkpt>
<trkpt lat="55.726894" lon="26.550470">
<ele>143.099731</ele>
<time>2010-07-18T13:04:10Z</time>
<desc>lat.=55.726894, lon.=26.550470, Alt.=143.099731m. Speed=0.036000m/h.</desc>
<speed>0.010000</speed>
</trkpt>
<trkpt lat="55.726894" lon="26.550470">
<ele>143.095825</ele>
<time>2010-07-18T13:04:11Z</time>
<desc>lat.=55.726894, lon.=26.550470, Alt.=143.095825m. Speed=0.072000m/h.</desc>
<speed>0.020000</speed>
</trkpt>
<trkpt lat="55.726894" lon="26.550470">
<ele>143.103638</ele>
<time>2010-07-18T13:04:12Z</time>
<desc>lat.=55.726894, lon.=26.550470, Alt.=143.103638m. Speed=0.036000m/h.</desc>
<speed>0.010000</speed>
</trkpt>
<trkpt lat="55.726894" lon="26.550470">
<ele>143.107544</ele>
<time>2010-07-18T13:04:13Z</time>
<desc>lat.=55.726894, lon.=26.550470, Alt.=143.107544m. Speed=0.036000m/h.</desc>
<speed>0.010000</speed>
</trkpt>
<trkpt lat="55.726894" lon="26.550470">
<ele>143.111450</ele>
<time>2010-07-18T13:04:14Z</time>
<desc>lat.=55.726894, lon.=26.550470, Alt.=143.111450m. Speed=0.036000m/h.</desc>
<speed>0.010000</speed>
</trkpt>
<trkpt lat="55.726894" lon="26.550472">
<ele>143.119263</ele>
<time>2010-07-18T13:04:15Z</time>
<desc>lat.=55.726894, lon.=26.550472, Alt.=143.119263m. Speed=0.108000m/h.</desc>
<speed>0.030000</speed>
</trkpt>
<trkpt lat="55.726894" lon="26.550472">
<ele>143.119263</ele>
<time>2010-07-18T13:04:16Z</time>
<desc>lat.=55.726894, lon.=26.550472, Alt.=143.119263m. Speed=0.000000m/h.</desc>
<speed>0.000000</speed>
</trkpt>
<trkpt lat="55.726894" lon="26.550472">
<ele>143.119263</ele>
<time>2010-07-18T13:04:17Z</time>
<desc>lat.=55.726894, lon.=26.550472, Alt.=143.119263m. Speed=0.000000m/h.</desc>
<speed>0.000000</speed>
</trkpt>
<trkpt lat="55.726894" lon="26.550472">
<ele>143.127075</ele>
<time>2010-07-18T13:04:18Z</time>
<desc>lat.=55.726894, lon.=26.550472, Alt.=143.127075m. Speed=0.036000m/h.</desc>
<speed>0.010000</speed>
</trkpt>
<trkpt lat="55.726894" lon="26.550472">
<ele>143.130981</ele>
<time>2010-07-18T13:04:19Z</time>
<desc>lat.=55.726894, lon.=26.550472, Alt.=143.130981m. Speed=0.000000m/h.</desc>
<speed>0.000000</speed>
</trkpt>
<trkpt lat="55.726894" lon="26.550472">
<ele>143.130981</ele>
<time>2010-07-18T13:04:20Z</time>
<desc>lat.=55.726894, lon.=26.550472, Alt.=143.130981m. Speed=0.000000m/h.</desc>
<speed>0.000000</speed>
</trkpt>
<trkpt lat="55.726894" lon="26.550472">
<ele>143.127075</ele>
<time>2010-07-18T13:04:21Z</time>
<desc>lat.=55.726894, lon.=26.550472, Alt.=143.127075m. Speed=0.036000m/h.</desc>
<speed>0.010000</speed>
</trkpt>
<trkpt lat="55.726894" lon="26.550472">
<ele>143.123169</ele>
<time>2010-07-18T13:04:22Z</time>
<desc>lat.=55.726894, lon.=26.550472, Alt.=143.123169m. Speed=0.000000m/h.</desc>
<speed>0.000000</speed>
</trkpt>
<trkpt lat="55.726894" lon="26.550472">
<ele>143.123169</ele>
<time>2010-07-18T13:04:23Z</time>
<desc>lat.=55.726894, lon.=26.550472, Alt.=143.123169m. Speed=0.000000m/h.</desc>
<speed>0.000000</speed>
</trkpt>
<trkpt lat="55.726894" lon="26.550472">
<ele>143.127075</ele>
<time>2010-07-18T13:04:24Z</time>
<desc>lat.=55.726894, lon.=26.550472, Alt.=143.127075m. Speed=0.000000m/h.</desc>
<speed>0.000000</speed>
</trkpt>
<trkpt lat="55.726894" lon="26.550472">
<ele>143.130981</ele>
<time>2010-07-18T13:04:25Z</time>
<desc>lat.=55.726894, lon.=26.550472, Alt.=143.130981m. Speed=0.000000m/h.</desc>
<speed>0.000000</speed>
</trkpt>
<trkpt lat="55.726894" lon="26.550472">
<ele>143.134888</ele>
<time>2010-07-18T13:04:26Z</time>
<desc>lat.=55.726894, lon.=26.550472, Alt.=143.134888m. Speed=0.036000m/h.</desc>
<speed>0.010000</speed>
</trkpt>
<trkpt lat="55.726894" lon="26.550472">
<ele>143.134888</ele>
<time>2010-07-18T13:04:27Z</time>
<desc>lat.=55.726894, lon.=26.550472, Alt.=143.134888m. Speed=0.036000m/h.</desc>
<speed>0.010000</speed>
</trkpt>
<trkpt lat="55.726894" lon="26.550472">
<ele>143.134888</ele>
<time>2010-07-18T13:04:28Z</time>
<desc>lat.=55.726894, lon.=26.550472, Alt.=143.134888m. Speed=0.072000m/h.</desc>
<speed>0.020000</speed>
</trkpt>
<trkpt lat="55.726894" lon="26.550472">
<ele>143.138794</ele>
<time>2010-07-18T13:04:29Z</time>
<desc>lat.=55.726894, lon.=26.550472, Alt.=143.138794m. Speed=0.000000m/h.</desc>
<speed>0.000000</speed>
</trkpt>
<trkpt lat="55.726894" lon="26.550472">
<ele>143.146606</ele>
<time>2010-07-18T13:04:30Z</time>
<desc>lat.=55.726894, lon.=26.550472, Alt.=143.146606m. Speed=0.072000m/h.</desc>
<speed>0.020000</speed>
</trkpt>
<trkpt lat="55.726894" lon="26.550470">
<ele>143.146606</ele>
<time>2010-07-18T13:04:31Z</time>
<desc>lat.=55.726894, lon.=26.550470, Alt.=143.146606m. Speed=0.036000m/h.</desc>
<speed>0.010000</speed>
</trkpt>
<trkpt lat="55.726894" lon="26.550470">
<ele>143.150513</ele>
<time>2010-07-18T13:04:32Z</time>
<desc>lat.=55.726894, lon.=26.550470, Alt.=143.150513m. Speed=0.036000m/h.</desc>
<speed>0.010000</speed>
</trkpt>
<trkpt lat="55.726894" lon="26.550470">
<ele>143.154419</ele>
<time>2010-07-18T13:04:33Z</time>
<desc>lat.=55.726894, lon.=26.550470, Alt.=143.154419m. Speed=0.072000m/h.</desc>
<speed>0.020000</speed>
</trkpt>
<trkpt lat="55.726894" lon="26.550470">
<ele>143.158325</ele>
<time>2010-07-18T13:04:34Z</time>
<desc>lat.=55.726894, lon.=26.550470, Alt.=143.158325m. Speed=0.000000m/h.</desc>
<speed>0.000000</speed>
</trkpt>
<trkpt lat="55.726894" lon="26.550470">
<ele>143.162231</ele>
<time>2010-07-18T13:04:35Z</time>
<desc>lat.=55.726894, lon.=26.550470, Alt.=143.162231m. Speed=0.000000m/h.</desc>
<speed>0.000000</speed>
</trkpt>
<trkpt lat="55.726894" lon="26.550470">
<ele>143.158325</ele>
<time>2010-07-18T13:04:36Z</time>
<desc>lat.=55.726894, lon.=26.550470, Alt.=143.158325m. Speed=0.072000m/h.</desc>
<speed>0.020000</speed>
</trkpt>
<trkpt lat="55.726894" lon="26.550472">
<ele>143.158325</ele>
<time>2010-07-18T13:04:37Z</time>
<desc>lat.=55.726894, lon.=26.550472, Alt.=143.158325m. Speed=0.036000m/h.</desc>
<speed>0.010000</speed>
</trkpt>
<trkpt lat="55.726894" lon="26.550472">
<ele>143.162231</ele>
<time>2010-07-18T13:04:38Z</time>
<desc>lat.=55.726894, lon.=26.550472, Alt.=143.162231m. Speed=0.036000m/h.</desc>
<speed>0.010000</speed>
</trkpt>
<trkpt lat="55.726894" lon="26.550472">
<ele>143.170044</ele>
<time>2010-07-18T13:04:39Z</time>
<desc>lat.=55.726894, lon.=26.550472, Alt.=143.170044m. Speed=0.072000m/h.</desc>
<speed>0.020000</speed>
</trkpt>
<trkpt lat="55.726894" lon="26.550472">
<ele>143.173950</ele>
<time>2010-07-18T13:04:40Z</time>
<desc>lat.=55.726894, lon.=26.550472, Alt.=143.173950m. Speed=0.072000m/h.</desc>
<speed>0.020000</speed>
</trkpt>
<trkpt lat="55.726894" lon="26.550472">
<ele>143.173950</ele>
<time>2010-07-18T13:04:41Z</time>
<desc>lat.=55.726894, lon.=26.550472, Alt.=143.173950m. Speed=0.000000m/h.</desc>
<speed>0.000000</speed>
</trkpt>
<trkpt lat="55.726894" lon="26.550472">
<ele>143.173950</ele>
<time>2010-07-18T13:04:42Z</time>
<desc>lat.=55.726894, lon.=26.550472, Alt.=143.173950m. Speed=0.000000m/h.</desc>
<speed>0.000000</speed>
</trkpt>
<trkpt lat="55.726894" lon="26.550472">
<ele>143.177856</ele>
<time>2010-07-18T13:04:43Z</time>
<desc>lat.=55.726894, lon.=26.550472, Alt.=143.177856m. Speed=0.000000m/h.</desc>
<speed>0.000000</speed>
</trkpt>
<trkpt lat="55.726894" lon="26.550472">
<ele>143.173950</ele>
<time>2010-07-18T13:04:44Z</time>
<desc>lat.=55.726894, lon.=26.550472, Alt.=143.173950m. Speed=0.036000m/h.</desc>
<speed>0.010000</speed>
</trkpt>
<trkpt lat="55.726894" lon="26.550472">
<ele>143.170044</ele>
<time>2010-07-18T13:04:45Z</time>
<desc>lat.=55.726894, lon.=26.550472, Alt.=143.170044m. Speed=0.036000m/h.</desc>
<speed>0.010000</speed>
</trkpt>
<trkpt lat="55.726894" lon="26.550472">
<ele>143.170044</ele>
<time>2010-07-18T13:04:46Z</time>
<desc>lat.=55.726894, lon.=26.550472, Alt.=143.170044m. Speed=0.036000m/h.</desc>
<speed>0.010000</speed>
</trkpt>
<trkpt lat="55.726894" lon="26.550472">
<ele>143.170044</ele>
<time>2010-07-18T13:04:47Z</time>
<desc>lat.=55.726894, lon.=26.550472, Alt.=143.170044m. Speed=0.000000m/h.</desc>
<speed>0.000000</speed>
</trkpt>
<trkpt lat="55.726894" lon="26.550472">
<ele>143.170044</ele>
<time>2010-07-18T13:04:48Z</time>
<desc>lat.=55.726894, lon.=26.550472, Alt.=143.170044m. Speed=0.000000m/h.</desc>
<speed>0.000000</speed>
</trkpt>
<trkpt lat="55.726894" lon="26.550472">
<ele>143.173950</ele>
<time>2010-07-18T13:04:49Z</time>
<desc>lat.=55.726894, lon.=26.550472, Alt.=143.173950m. Speed=0.036000m/h.</desc>
<speed>0.010000</speed>
</trkpt>
<trkpt lat="55.726894" lon="26.550472">
<ele>143.173950</ele>
<time>2010-07-18T13:04:50Z</time>
<desc>lat.=55.726894, lon.=26.550472, Alt.=143.173950m. Speed=0.000000m/h.</desc>
<speed>0.000000</speed>
</trkpt>
<trkpt lat="55.726894" lon="26.550472">
<ele>143.177856</ele>
<time>2010-07-18T13:04:51Z</time>
<desc>lat.=55.726894, lon.=26.550472, Alt.=143.177856m. Speed=0.072000m/h.</desc>
<speed>0.020000</speed>
</trkpt>
<trkpt lat="55.726894" lon="26.550472">
<ele>143.177856</ele>
<time>2010-07-18T13:04:52Z</time>
<desc>lat.=55.726894, lon.=26.550472, Alt.=143.177856m. Speed=0.072000m/h.</desc>
<speed>0.020000</speed>
</trkpt>
<trkpt lat="55.726894" lon="26.550472">
<ele>143.177856</ele>
<time>2010-07-18T13:04:53Z</time>
<desc>lat.=55.726894, lon.=26.550472, Alt.=143.177856m. Speed=0.000000m/h.</desc>
<speed>0.000000</speed>
</trkpt>
<trkpt lat="55.726894" lon="26.550472">
<ele>143.177856</ele>
<time>2010-07-18T13:04:54Z</time>
<desc>lat.=55.726894, lon.=26.550472, Alt.=143.177856m. Speed=0.000000m/h.</desc>
<speed>0.000000</speed>
</trkpt>
<trkpt lat="55.726894" lon="26.550472">
<ele>143.173950</ele>
<time>2010-07-18T13:04:55Z</time>
<desc>lat.=55.726894, lon.=26.550472, Alt.=143.173950m. Speed=0.000000m/h.</desc>
<speed>0.000000</speed>
</trkpt>
<trkpt lat="55.726894" lon="26.550472">
<ele>143.177856</ele>
<time>2010-07-18T13:04:56Z</time>
<desc>lat.=55.726894, lon.=26.550472, Alt.=143.177856m. Speed=0.000000m/h.</desc>
<speed>0.000000</speed>
</trkpt>
<trkpt lat="55.726894" lon="26.550472">
<ele>143.177856</ele>
<time>2010-07-18T13:04:57Z</time>
<desc>lat.=55.726894, lon.=26.550472, Alt.=143.177856m. Speed=0.000000m/h.</desc>
<speed>0.000000</speed>
</trkpt>
<trkpt lat="55.726894" lon="26.550472">
<ele>143.181763</ele>
<time>2010-07-18T13:04:58Z</time>
<desc>lat.=55.726894, lon.=26.550472, Alt.=143.181763m. Speed=0.000000m/h.</desc>
<speed>0.000000</speed>
</trkpt>
<trkpt lat="55.726894" lon="26.550472">
<ele>143.181763</ele>
<time>2010-07-18T13:04:59Z</time>
<desc>lat.=55.726894, lon.=26.550472, Alt.=143.181763m. Speed=0.000000m/h.</desc>
<speed>0.000000</speed>
</trkpt>
<trkpt lat="55.726894" lon="26.550472">
<ele>143.189575</ele>
<time>2010-07-18T13:05:00Z</time>
<desc>lat.=55.726894, lon.=26.550472, Alt.=143.189575m. Speed=0.072000m/h.</desc>
<speed>0.020000</speed>
</trkpt>
<trkpt lat="55.726894" lon="26.550472">
<ele>143.193481</ele>
<time>2010-07-18T13:05:01Z</time>
<desc>lat.=55.726894, lon.=26.550472, Alt.=143.193481m. Speed=0.000000m/h.</desc>
<speed>0.000000</speed>
</trkpt>
<trkpt lat="55.726894" lon="26.550472">
<ele>143.201294</ele>
<time>2010-07-18T13:05:02Z</time>
<desc>lat.=55.726894, lon.=26.550472, Alt.=143.201294m. Speed=0.036000m/h.</desc>
<speed>0.010000</speed>
</trkpt>
<trkpt lat="55.726894" lon="26.550472">
<ele>143.197388</ele>
<time>2010-07-18T13:05:03Z</time>
<desc>lat.=55.726894, lon.=26.550472, Alt.=143.197388m. Speed=0.000000m/h.</desc>
<speed>0.000000</speed>
</trkpt>
<trkpt lat="55.726894" lon="26.550472">
<ele>143.201294</ele>
<time>2010-07-18T13:05:04Z</time>
<desc>lat.=55.726894, lon.=26.550472, Alt.=143.201294m. Speed=0.036000m/h.</desc>
<speed>0.010000</speed>
</trkpt>
<trkpt lat="55.726894" lon="26.550472">
<ele>143.201294</ele>
<time>2010-07-18T13:05:05Z</time>
<desc>lat.=55.726894, lon.=26.550472, Alt.=143.201294m. Speed=0.036000m/h.</desc>
<speed>0.010000</speed>
</trkpt>
<trkpt lat="55.726894" lon="26.550472">
<ele>143.201294</ele>
<time>2010-07-18T13:05:06Z</time>
<desc>lat.=55.726894, lon.=26.550472, Alt.=143.201294m. Speed=0.036000m/h.</desc>
<speed>0.010000</speed>
</trkpt>
<trkpt lat="55.726894" lon="26.550472">
<ele>143.205200</ele>
<time>2010-07-18T13:05:07Z</time>
<desc>lat.=55.726894, lon.=26.550472, Alt.=143.205200m. Speed=0.000000m/h.</desc>
<speed>0.000000</speed>
</trkpt>
<trkpt lat="55.726894" lon="26.550470">
<ele>143.209106</ele>
<time>2010-07-18T13:05:08Z</time>
<desc>lat.=55.726894, lon.=26.550470, Alt.=143.209106m. Speed=0.000000m/h.</desc>
<speed>0.000000</speed>
</trkpt>
<trkpt lat="55.726894" lon="26.550470">
<ele>143.213013</ele>
<time>2010-07-18T13:05:09Z</time>
<desc>lat.=55.726894, lon.=26.550470, Alt.=143.213013m. Speed=0.000000m/h.</desc>
<speed>0.000000</speed>
</trkpt>
<trkpt lat="55.726894" lon="26.550470">
<ele>143.209106</ele>
<time>2010-07-18T13:05:10Z</time>
<desc>lat.=55.726894, lon.=26.550470, Alt.=143.209106m. Speed=0.036000m/h.</desc>
<speed>0.010000</speed>
</trkpt>
<trkpt lat="55.726894" lon="26.550470">
<ele>143.205200</ele>
<time>2010-07-18T13:05:11Z</time>
<desc>lat.=55.726894, lon.=26.550470, Alt.=143.205200m. Speed=0.036000m/h.</desc>
<speed>0.010000</speed>
</trkpt>
<trkpt lat="55.726894" lon="26.550470">
<ele>143.213013</ele>
<time>2010-07-18T13:05:12Z</time>
<desc>lat.=55.726894, lon.=26.550470, Alt.=143.213013m. Speed=0.000000m/h.</desc>
<speed>0.000000</speed>
</trkpt>
<trkpt lat="55.726894" lon="26.550470">
<ele>143.216919</ele>
<time>2010-07-18T13:05:13Z</time>
<desc>lat.=55.726894, lon.=26.550470, Alt.=143.216919m. Speed=0.000000m/h.</desc>
<speed>0.000000</speed>
</trkpt>
<trkpt lat="55.726894" lon="26.550470">
<ele>143.216919</ele>
<time>2010-07-18T13:05:14Z</time>
<desc>lat.=55.726894, lon.=26.550470, Alt.=143.216919m. Speed=0.000000m/h.</desc>
<speed>0.000000</speed>
</trkpt>
<trkpt lat="55.726894" lon="26.550470">
<ele>143.220825</ele>
<time>2010-07-18T13:05:15Z</time>
<desc>lat.=55.726894, lon.=26.550470, Alt.=143.220825m. Speed=0.000000m/h.</desc>
<speed>0.000000</speed>
</trkpt>
<trkpt lat="55.726894" lon="26.550470">
<ele>143.224731</ele>
<time>2010-07-18T13:05:16Z</time>
<desc>lat.=55.726894, lon.=26.550470, Alt.=143.224731m. Speed=0.000000m/h.</desc>
<speed>0.000000</speed>
</trkpt>
<trkpt lat="55.726894" lon="26.550470">
<ele>143.224731</ele>
<time>2010-07-18T13:05:17Z</time>
<desc>lat.=55.726894, lon.=26.550470, Alt.=143.224731m. Speed=0.000000m/h.</desc>
<speed>0.000000</speed>
</trkpt>
<trkpt lat="55.726894" lon="26.550470">
<ele>143.224731</ele>
<time>2010-07-18T13:05:18Z</time>
<desc>lat.=55.726894, lon.=26.550470, Alt.=143.224731m. Speed=0.000000m/h.</desc>
<speed>0.000000</speed>
</trkpt>
<trkpt lat="55.726894" lon="26.550470">
<ele>143.228638</ele>
<time>2010-07-18T13:05:19Z</time>
<desc>lat.=55.726894, lon.=26.550470, Alt.=143.228638m. Speed=0.036000m/h.</desc>
<speed>0.010000</speed>
</trkpt>
<trkpt lat="55.726894" lon="26.550470">
<ele>143.232544</ele>
<time>2010-07-18T13:05:20Z</time>
<desc>lat.=55.726894, lon.=26.550470, Alt.=143.232544m. Speed=0.072000m/h.</desc>
<speed>0.020000</speed>
</trkpt>
<trkpt lat="55.726894" lon="26.550472">
<ele>143.232544</ele>
<time>2010-07-18T13:05:21Z</time>
<desc>lat.=55.726894, lon.=26.550472, Alt.=143.232544m. Speed=0.144000m/h.</desc>
<speed>0.040000</speed>
</trkpt>
<trkpt lat="55.726894" lon="26.550470">
<ele>143.232544</ele>
<time>2010-07-18T13:05:22Z</time>
<desc>lat.=55.726894, lon.=26.550470, Alt.=143.232544m. Speed=0.000000m/h.</desc>
<speed>0.000000</speed>
</trkpt>
<trkpt lat="55.726894" lon="26.550472">
<ele>143.240356</ele>
<time>2010-07-18T13:05:23Z</time>
<desc>lat.=55.726894, lon.=26.550472, Alt.=143.240356m. Speed=0.000000m/h.</desc>
<speed>0.000000</speed>
</trkpt>
<trkpt lat="55.726894" lon="26.550470">
<ele>143.244263</ele>
<time>2010-07-18T13:05:24Z</time>
<desc>lat.=55.726894, lon.=26.550470, Alt.=143.244263m. Speed=0.000000m/h.</desc>
<speed>0.000000</speed>
</trkpt>
<trkpt lat="55.726894" lon="26.550470">
<ele>143.244263</ele>
<time>2010-07-18T13:05:25Z</time>
<desc>lat.=55.726894, lon.=26.550470, Alt.=143.244263m. Speed=0.036000m/h.</desc>
<speed>0.010000</speed>
</trkpt>
<trkpt lat="55.726894" lon="26.550472">
<ele>143.248169</ele>
<time>2010-07-18T13:05:26Z</time>
<desc>lat.=55.726894, lon.=26.550472, Alt.=143.248169m. Speed=0.000000m/h.</desc>
<speed>0.000000</speed>
</trkpt>
<trkpt lat="55.726894" lon="26.550472">
<ele>143.255981</ele>
<time>2010-07-18T13:05:27Z</time>
<desc>lat.=55.726894, lon.=26.550472, Alt.=143.255981m. Speed=0.036000m/h.</desc>
<speed>0.010000</speed>
</trkpt>
<trkpt lat="55.726894" lon="26.550472">
<ele>143.259888</ele>
<time>2010-07-18T13:05:28Z</time>
<desc>lat.=55.726894, lon.=26.550472, Alt.=143.259888m. Speed=0.072000m/h.</desc>
<speed>0.020000</speed>
</trkpt>
<trkpt lat="55.726894" lon="26.550472">
<ele>143.267700</ele>
<time>2010-07-18T13:05:29Z</time>
<desc>lat.=55.726894, lon.=26.550472, Alt.=143.267700m. Speed=0.000000m/h.</desc>
<speed>0.000000</speed>
</trkpt>
<trkpt lat="55.726894" lon="26.550472">
<ele>143.279419</ele>
<time>2010-07-18T13:05:30Z</time>
<desc>lat.=55.726894, lon.=26.550472, Alt.=143.279419m. Speed=0.072000m/h.</desc>
<speed>0.020000</speed>
</trkpt>
<trkpt lat="55.726894" lon="26.550472">
<ele>143.287231</ele>
<time>2010-07-18T13:05:31Z</time>
<desc>lat.=55.726894, lon.=26.550472, Alt.=143.287231m. Speed=0.072000m/h.</desc>
<speed>0.020000</speed>
</trkpt>
<trkpt lat="55.726894" lon="26.550472">
<ele>143.295044</ele>
<time>2010-07-18T13:05:32Z</time>
<desc>lat.=55.726894, lon.=26.550472, Alt.=143.295044m. Speed=0.108000m/h.</desc>
<speed>0.030000</speed>
</trkpt>
<trkpt lat="55.726894" lon="26.550472">
<ele>143.298950</ele>
<time>2010-07-18T13:05:33Z</time>
<desc>lat.=55.726894, lon.=26.550472, Alt.=143.298950m. Speed=0.072000m/h.</desc>
<speed>0.020000</speed>
</trkpt>
<trkpt lat="55.726894" lon="26.550472">
<ele>143.306763</ele>
<time>2010-07-18T13:05:34Z</time>
<desc>lat.=55.726894, lon.=26.550472, Alt.=143.306763m. Speed=0.072000m/h.</desc>
<speed>0.020000</speed>
</trkpt>
<trkpt lat="55.726894" lon="26.550472">
<ele>143.310669</ele>
<time>2010-07-18T13:05:35Z</time>
<desc>lat.=55.726894, lon.=26.550472, Alt.=143.310669m. Speed=0.036000m/h.</desc>
<speed>0.010000</speed>
</trkpt>
<trkpt lat="55.726894" lon="26.550472">
<ele>143.322388</ele>
<time>2010-07-18T13:05:36Z</time>
<desc>lat.=55.726894, lon.=26.550472, Alt.=143.322388m. Speed=0.036000m/h.</desc>
<speed>0.010000</speed>
</trkpt>
<trkpt lat="55.726894" lon="26.550472">
<ele>143.330200</ele>
<time>2010-07-18T13:05:37Z</time>
<desc>lat.=55.726894, lon.=26.550472, Alt.=143.330200m. Speed=0.036000m/h.</desc>
<speed>0.010000</speed>
</trkpt>
<trkpt lat="55.726894" lon="26.550472">
<ele>143.330200</ele>
<time>2010-07-18T13:05:38Z</time>
<desc>lat.=55.726894, lon.=26.550472, Alt.=143.330200m. Speed=0.072000m/h.</desc>
<speed>0.020000</speed>
</trkpt>
<trkpt lat="55.726894" lon="26.550472">
<ele>143.338013</ele>
<time>2010-07-18T13:05:39Z</time>
<desc>lat.=55.726894, lon.=26.550472, Alt.=143.338013m. Speed=0.000000m/h.</desc>
<speed>0.000000</speed>
</trkpt>
<trkpt lat="55.726894" lon="26.550472">
<ele>143.345825</ele>
<time>2010-07-18T13:05:40Z</time>
<desc>lat.=55.726894, lon.=26.550472, Alt.=143.345825m. Speed=0.000000m/h.</desc>
<speed>0.000000</speed>
</trkpt>
<trkpt lat="55.726894" lon="26.550472">
<ele>143.349731</ele>
<time>2010-07-18T13:05:41Z</time>
<desc>lat.=55.726894, lon.=26.550472, Alt.=143.349731m. Speed=0.000000m/h.</desc>
<speed>0.000000</speed>
</trkpt>
<trkpt lat="55.726894" lon="26.550472">
<ele>143.357544</ele>
<time>2010-07-18T13:05:42Z</time>
<desc>lat.=55.726894, lon.=26.550472, Alt.=143.357544m. Speed=0.000000m/h.</desc>
<speed>0.000000</speed>
</trkpt>
<trkpt lat="55.726894" lon="26.550472">
<ele>143.361450</ele>
<time>2010-07-18T13:05:43Z</time>
<desc>lat.=55.726894, lon.=26.550472, Alt.=143.361450m. Speed=0.036000m/h.</desc>
<speed>0.010000</speed>
</trkpt>
<trkpt lat="55.726894" lon="26.550472">
<ele>143.365356</ele>
<time>2010-07-18T13:05:44Z</time>
<desc>lat.=55.726894, lon.=26.550472, Alt.=143.365356m. Speed=0.000000m/h.</desc>
<speed>0.000000</speed>
</trkpt>
<trkpt lat="55.726894" lon="26.550472">
<ele>143.369263</ele>
<time>2010-07-18T13:05:45Z</time>
<desc>lat.=55.726894, lon.=26.550472, Alt.=143.369263m. Speed=0.000000m/h.</desc>
<speed>0.000000</speed>
</trkpt>
<trkpt lat="55.726894" lon="26.550472">
<ele>143.369263</ele>
<time>2010-07-18T13:05:46Z</time>
<desc>lat.=55.726894, lon.=26.550472, Alt.=143.369263m. Speed=0.000000m/h.</desc>
<speed>0.000000</speed>
</trkpt>
<trkpt lat="55.726894" lon="26.550472">
<ele>143.369263</ele>
<time>2010-07-18T13:05:47Z</time>
<desc>lat.=55.726894, lon.=26.550472, Alt.=143.369263m. Speed=0.036000m/h.</desc>
<speed>0.010000</speed>
</trkpt>
<trkpt lat="55.726894" lon="26.550472">
<ele>143.369263</ele>
<time>2010-07-18T13:05:48Z</time>
<desc>lat.=55.726894, lon.=26.550472, Alt.=143.369263m. Speed=0.000000m/h.</desc>
<speed>0.000000</speed>
</trkpt>
<trkpt lat="55.726894" lon="26.550472">
<ele>143.373169</ele>
<time>2010-07-18T13:05:49Z</time>
<desc>lat.=55.726894, lon.=26.550472, Alt.=143.373169m. Speed=0.036000m/h.</desc>
<speed>0.010000</speed>
</trkpt>
<trkpt lat="55.726894" lon="26.550472">
<ele>143.377075</ele>
<time>2010-07-18T13:05:50Z</time>
<desc>lat.=55.726894, lon.=26.550472, Alt.=143.377075m. Speed=0.180000m/h.</desc>
<speed>0.050000</speed>
</trkpt>
<trkpt lat="55.726894" lon="26.550472">
<ele>143.388794</ele>
<time>2010-07-18T13:05:51Z</time>
<desc>lat.=55.726894, lon.=26.550472, Alt.=143.388794m. Speed=0.072000m/h.</desc>
<speed>0.020000</speed>
</trkpt>
<trkpt lat="55.726894" lon="26.550474">
<ele>143.392700</ele>
<time>2010-07-18T13:05:52Z</time>
<desc>lat.=55.726894, lon.=26.550474, Alt.=143.392700m. Speed=0.000000m/h.</desc>
<speed>0.000000</speed>
</trkpt>
<trkpt lat="55.726894" lon="26.550474">
<ele>143.396606</ele>
<time>2010-07-18T13:05:53Z</time>
<desc>lat.=55.726894, lon.=26.550474, Alt.=143.396606m. Speed=0.000000m/h.</desc>
<speed>0.000000</speed>
</trkpt>
<trkpt lat="55.726894" lon="26.550474">
<ele>143.400513</ele>
<time>2010-07-18T13:05:54Z</time>
<desc>lat.=55.726894, lon.=26.550474, Alt.=143.400513m. Speed=0.000000m/h.</desc>
<speed>0.000000</speed>
</trkpt>
<trkpt lat="55.726894" lon="26.550474">
<ele>143.400513</ele>
<time>2010-07-18T13:05:55Z</time>
<desc>lat.=55.726894, lon.=26.550474, Alt.=143.400513m. Speed=0.000000m/h.</desc>
<speed>0.000000</speed>
</trkpt>
<trkpt lat="55.726894" lon="26.550474">
<ele>143.400513</ele>
<time>2010-07-18T13:05:56Z</time>
<desc>lat.=55.726894, lon.=26.550474, Alt.=143.400513m. Speed=0.036000m/h.</desc>
<speed>0.010000</speed>
</trkpt>
<trkpt lat="55.726894" lon="26.550474">
<ele>143.408325</ele>
<time>2010-07-18T13:05:57Z</time>
<desc>lat.=55.726894, lon.=26.550474, Alt.=143.408325m. Speed=0.000000m/h.</desc>
<speed>0.000000</speed>
</trkpt>
<trkpt lat="55.726894" lon="26.550474">
<ele>143.408325</ele>
<time>2010-07-18T13:05:58Z</time>
<desc>lat.=55.726894, lon.=26.550474, Alt.=143.408325m. Speed=0.000000m/h.</desc>
<speed>0.000000</speed>
</trkpt>
<trkpt lat="55.726894" lon="26.550474">
<ele>143.408325</ele>
<time>2010-07-18T13:05:59Z</time>
<desc>lat.=55.726894, lon.=26.550474, Alt.=143.408325m. Speed=0.000000m/h.</desc>
<speed>0.000000</speed>
</trkpt>
<trkpt lat="55.726894" lon="26.550474">
<ele>143.408325</ele>
<time>2010-07-18T13:06:00Z</time>
<desc>lat.=55.726894, lon.=26.550474, Alt.=143.408325m. Speed=0.036000m/h.</desc>
<speed>0.010000</speed>
</trkpt>
<trkpt lat="55.726894" lon="26.550474">
<ele>143.408325</ele>
<time>2010-07-18T13:06:01Z</time>
<desc>lat.=55.726894, lon.=26.550474, Alt.=143.408325m. Speed=0.000000m/h.</desc>
<speed>0.000000</speed>
</trkpt>
<trkpt lat="55.726894" lon="26.550474">
<ele>143.408325</ele>
<time>2010-07-18T13:06:02Z</time>
<desc>lat.=55.726894, lon.=26.550474, Alt.=143.408325m. Speed=0.036000m/h.</desc>
<speed>0.010000</speed>
</trkpt>
<trkpt lat="55.726894" lon="26.550474">
<ele>143.412231</ele>
<time>2010-07-18T13:06:03Z</time>
<desc>lat.=55.726894, lon.=26.550474, Alt.=143.412231m. Speed=0.000000m/h.</desc>
<speed>0.000000</speed>
</trkpt>
<trkpt lat="55.726894" lon="26.550474">
<ele>143.408325</ele>
<time>2010-07-18T13:06:04Z</time>
<desc>lat.=55.726894, lon.=26.550474, Alt.=143.408325m. Speed=0.036000m/h.</desc>
<speed>0.010000</speed>
</trkpt>
<trkpt lat="55.726894" lon="26.550474">
<ele>143.412231</ele>
<time>2010-07-18T13:06:05Z</time>
<desc>lat.=55.726894, lon.=26.550474, Alt.=143.412231m. Speed=0.036000m/h.</desc>
<speed>0.010000</speed>
</trkpt>
<trkpt lat="55.726894" lon="26.550474">
<ele>143.416138</ele>
<time>2010-07-18T13:06:06Z</time>
<desc>lat.=55.726894, lon.=26.550474, Alt.=143.416138m. Speed=0.072000m/h.</desc>
<speed>0.020000</speed>
</trkpt>
<trkpt lat="55.726894" lon="26.550474">
<ele>143.416138</ele>
<time>2010-07-18T13:06:07Z</time>
<desc>lat.=55.726894, lon.=26.550474, Alt.=143.416138m. Speed=0.072000m/h.</desc>
<speed>0.020000</speed>
</trkpt>
<trkpt lat="55.726894" lon="26.550474">
<ele>143.423950</ele>
<time>2010-07-18T13:06:08Z</time>
<desc>lat.=55.726894, lon.=26.550474, Alt.=143.423950m. Speed=0.036000m/h.</desc>
<speed>0.010000</speed>
</trkpt>
<trkpt lat="55.726894" lon="26.550474">
<ele>143.420044</ele>
<time>2010-07-18T13:06:09Z</time>
<desc>lat.=55.726894, lon.=26.550474, Alt.=143.420044m. Speed=0.036000m/h.</desc>
<speed>0.010000</speed>
</trkpt>
<trkpt lat="55.726894" lon="26.550474">
<ele>143.427856</ele>
<time>2010-07-18T13:06:10Z</time>
<desc>lat.=55.726894, lon.=26.550474, Alt.=143.427856m. Speed=0.000000m/h.</desc>
<speed>0.000000</speed>
</trkpt>
<trkpt lat="55.726894" lon="26.550474">
<ele>143.439575</ele>
<time>2010-07-18T13:06:11Z</time>
<desc>lat.=55.726894, lon.=26.550474, Alt.=143.439575m. Speed=0.144000m/h.</desc>
<speed>0.040000</speed>
</trkpt>
<trkpt lat="55.726894" lon="26.550474">
<ele>143.447388</ele>
<time>2010-07-18T13:06:12Z</time>
<desc>lat.=55.726894, lon.=26.550474, Alt.=143.447388m. Speed=0.000000m/h.</desc>
<speed>0.000000</speed>
</trkpt>
<trkpt lat="55.726894" lon="26.550474">
<ele>143.455200</ele>
<time>2010-07-18T13:06:13Z</time>
<desc>lat.=55.726894, lon.=26.550474, Alt.=143.455200m. Speed=0.108000m/h.</desc>
<speed>0.030000</speed>
</trkpt>
<trkpt lat="55.726894" lon="26.550474">
<ele>143.463013</ele>
<time>2010-07-18T13:06:14Z</time>
<desc>lat.=55.726894, lon.=26.550474, Alt.=143.463013m. Speed=0.072000m/h.</desc>
<speed>0.020000</speed>
</trkpt>
<trkpt lat="55.726894" lon="26.550474">
<ele>143.463013</ele>
<time>2010-07-18T13:06:15Z</time>
<desc>lat.=55.726894, lon.=26.550474, Alt.=143.463013m. Speed=0.000000m/h.</desc>
<speed>0.000000</speed>
</trkpt>
<trkpt lat="55.726894" lon="26.550474">
<ele>143.466919</ele>
<time>2010-07-18T13:06:16Z</time>
<desc>lat.=55.726894, lon.=26.550474, Alt.=143.466919m. Speed=0.000000m/h.</desc>
<speed>0.000000</speed>
</trkpt>
<trkpt lat="55.726894" lon="26.550474">
<ele>143.470825</ele>
<time>2010-07-18T13:06:17Z</time>
<desc>lat.=55.726894, lon.=26.550474, Alt.=143.470825m. Speed=0.036000m/h.</desc>
<speed>0.010000</speed>
</trkpt>
<trkpt lat="55.726894" lon="26.550474">
<ele>143.474731</ele>
<time>2010-07-18T13:06:18Z</time>
<desc>lat.=55.726894, lon.=26.550474, Alt.=143.474731m. Speed=0.000000m/h.</desc>
<speed>0.000000</speed>
</trkpt>
<trkpt lat="55.726894" lon="26.550474">
<ele>143.474731</ele>
<time>2010-07-18T13:06:19Z</time>
<desc>lat.=55.726894, lon.=26.550474, Alt.=143.474731m. Speed=0.036000m/h.</desc>
<speed>0.010000</speed>
</trkpt>
<trkpt lat="55.726894" lon="26.550474">
<ele>143.474731</ele>
<time>2010-07-18T13:06:20Z</time>
<desc>lat.=55.726894, lon.=26.550474, Alt.=143.474731m. Speed=0.000000m/h.</desc>
<speed>0.000000</speed>
</trkpt>
<trkpt lat="55.726894" lon="26.550474">
<ele>143.482544</ele>
<time>2010-07-18T13:06:21Z</time>
<desc>lat.=55.726894, lon.=26.550474, Alt.=143.482544m. Speed=0.000000m/h.</desc>
<speed>0.000000</speed>
</trkpt>
<trkpt lat="55.726894" lon="26.550474">
<ele>143.486450</ele>
<time>2010-07-18T13:06:22Z</time>
<desc>lat.=55.726894, lon.=26.550474, Alt.=143.486450m. Speed=0.000000m/h.</desc>
<speed>0.000000</speed>
</trkpt>
<trkpt lat="55.726894" lon="26.550474">
<ele>143.490356</ele>
<time>2010-07-18T13:06:23Z</time>
<desc>lat.=55.726894, lon.=26.550474, Alt.=143.490356m. Speed=0.144000m/h.</desc>
<speed>0.040000</speed>
</trkpt>
<trkpt lat="55.726894" lon="26.550474">
<ele>143.502075</ele>
<time>2010-07-18T13:06:24Z</time>
<desc>lat.=55.726894, lon.=26.550474, Alt.=143.502075m. Speed=0.108000m/h.</desc>
<speed>0.030000</speed>
</trkpt>
<trkpt lat="55.726894" lon="26.550474">
<ele>143.505981</ele>
<time>2010-07-18T13:06:25Z</time>
<desc>lat.=55.726894, lon.=26.550474, Alt.=143.505981m. Speed=0.036000m/h.</desc>
<speed>0.010000</speed>
</trkpt>
<trkpt lat="55.726894" lon="26.550474">
<ele>143.513794</ele>
<time>2010-07-18T13:06:26Z</time>
<desc>lat.=55.726894, lon.=26.550474, Alt.=143.513794m. Speed=0.000000m/h.</desc>
<speed>0.000000</speed>
</trkpt>
<trkpt lat="55.726894" lon="26.550474">
<ele>143.517700</ele>
<time>2010-07-18T13:06:27Z</time>
<desc>lat.=55.726894, lon.=26.550474, Alt.=143.517700m. Speed=0.000000m/h.</desc>
<speed>0.000000</speed>
</trkpt>
<trkpt lat="55.726894" lon="26.550474">
<ele>143.521606</ele>
<time>2010-07-18T13:06:28Z</time>
<desc>lat.=55.726894, lon.=26.550474, Alt.=143.521606m. Speed=0.036000m/h.</desc>
<speed>0.010000</speed>
</trkpt>
<trkpt lat="55.726894" lon="26.550474">
<ele>143.525513</ele>
<time>2010-07-18T13:06:29Z</time>
<desc>lat.=55.726894, lon.=26.550474, Alt.=143.525513m. Speed=0.036000m/h.</desc>
<speed>0.010000</speed>
</trkpt>
<trkpt lat="55.726894" lon="26.550474">
<ele>143.525513</ele>
<time>2010-07-18T13:06:30Z</time>
<desc>lat.=55.726894, lon.=26.550474, Alt.=143.525513m. Speed=0.000000m/h.</desc>
<speed>0.000000</speed>
</trkpt>
<trkpt lat="55.726894" lon="26.550474">
<ele>143.529419</ele>
<time>2010-07-18T13:06:31Z</time>
<desc>lat.=55.726894, lon.=26.550474, Alt.=143.529419m. Speed=0.036000m/h.</desc>
<speed>0.010000</speed>
</trkpt>
<trkpt lat="55.726894" lon="26.550474">
<ele>143.525513</ele>
<time>2010-07-18T13:06:32Z</time>
<desc>lat.=55.726894, lon.=26.550474, Alt.=143.525513m. Speed=0.072000m/h.</desc>
<speed>0.020000</speed>
</trkpt>
<trkpt lat="55.726894" lon="26.550474">
<ele>143.529419</ele>
<time>2010-07-18T13:06:33Z</time>
<desc>lat.=55.726894, lon.=26.550474, Alt.=143.529419m. Speed=0.036000m/h.</desc>
<speed>0.010000</speed>
</trkpt>
<trkpt lat="55.726894" lon="26.550474">
<ele>143.533325</ele>
<time>2010-07-18T13:06:34Z</time>
<desc>lat.=55.726894, lon.=26.550474, Alt.=143.533325m. Speed=0.036000m/h.</desc>
<speed>0.010000</speed>
</trkpt>
<trkpt lat="55.726894" lon="26.550474">
<ele>143.533325</ele>
<time>2010-07-18T13:06:35Z</time>
<desc>lat.=55.726894, lon.=26.550474, Alt.=143.533325m. Speed=0.036000m/h.</desc>
<speed>0.010000</speed>
</trkpt>
<trkpt lat="55.726894" lon="26.550474">
<ele>143.529419</ele>
<time>2010-07-18T13:06:36Z</time>
<desc>lat.=55.726894, lon.=26.550474, Alt.=143.529419m. Speed=0.036000m/h.</desc>
<speed>0.010000</speed>
</trkpt>
<trkpt lat="55.726894" lon="26.550474">
<ele>143.525513</ele>
<time>2010-07-18T13:06:37Z</time>
<desc>lat.=55.726894, lon.=26.550474, Alt.=143.525513m. Speed=0.036000m/h.</desc>
<speed>0.010000</speed>
</trkpt>
<trkpt lat="55.726894" lon="26.550474">
<ele>143.529419</ele>
<time>2010-07-18T13:06:38Z</time>
<desc>lat.=55.726894, lon.=26.550474, Alt.=143.529419m. Speed=0.036000m/h.</desc>
<speed>0.010000</speed>
</trkpt>
<trkpt lat="55.726894" lon="26.550474">
<ele>143.529419</ele>
<time>2010-07-18T13:06:39Z</time>
<desc>lat.=55.726894, lon.=26.550474, Alt.=143.529419m. Speed=0.108000m/h.</desc>
<speed>0.030000</speed>
</trkpt>
<trkpt lat="55.726894" lon="26.550474">
<ele>143.533325</ele>
<time>2010-07-18T13:06:40Z</time>
<desc>lat.=55.726894, lon.=26.550474, Alt.=143.533325m. Speed=0.000000m/h.</desc>
<speed>0.000000</speed>
</trkpt>
<trkpt lat="55.726894" lon="26.550474">
<ele>143.537231</ele>
<time>2010-07-18T13:06:41Z</time>
<desc>lat.=55.726894, lon.=26.550474, Alt.=143.537231m. Speed=0.036000m/h.</desc>
<speed>0.010000</speed>
</trkpt>
<trkpt lat="55.726894" lon="26.550474">
<ele>143.537231</ele>
<time>2010-07-18T13:06:42Z</time>
<desc>lat.=55.726894, lon.=26.550474, Alt.=143.537231m. Speed=0.000000m/h.</desc>
<speed>0.000000</speed>
</trkpt>
<trkpt lat="55.726894" lon="26.550474">
<ele>143.541138</ele>
<time>2010-07-18T13:06:43Z</time>
<desc>lat.=55.726894, lon.=26.550474, Alt.=143.541138m. Speed=0.036000m/h.</desc>
<speed>0.010000</speed>
</trkpt>
<trkpt lat="55.726894" lon="26.550474">
<ele>143.537231</ele>
<time>2010-07-18T13:06:44Z</time>
<desc>lat.=55.726894, lon.=26.550474, Alt.=143.537231m. Speed=0.000000m/h.</desc>
<speed>0.000000</speed>
</trkpt>
<trkpt lat="55.726894" lon="26.550474">
<ele>143.541138</ele>
<time>2010-07-18T13:06:45Z</time>
<desc>lat.=55.726894, lon.=26.550474, Alt.=143.541138m. Speed=0.036000m/h.</desc>
<speed>0.010000</speed>
</trkpt>
<trkpt lat="55.726894" lon="26.550474">
<ele>143.545044</ele>
<time>2010-07-18T13:06:46Z</time>
<desc>lat.=55.726894, lon.=26.550474, Alt.=143.545044m. Speed=0.000000m/h.</desc>
<speed>0.000000</speed>
</trkpt>
<trkpt lat="55.726894" lon="26.550474">
<ele>143.548950</ele>
<time>2010-07-18T13:06:47Z</time>
<desc>lat.=55.726894, lon.=26.550474, Alt.=143.548950m. Speed=0.036000m/h.</desc>
<speed>0.010000</speed>
</trkpt>
<trkpt lat="55.726894" lon="26.550474">
<ele>143.548950</ele>
<time>2010-07-18T13:06:48Z</time>
<desc>lat.=55.726894, lon.=26.550474, Alt.=143.548950m. Speed=0.000000m/h.</desc>
<speed>0.000000</speed>
</trkpt>
<trkpt lat="55.726894" lon="26.550474">
<ele>143.548950</ele>
<time>2010-07-18T13:06:49Z</time>
<desc>lat.=55.726894, lon.=26.550474, Alt.=143.548950m. Speed=0.000000m/h.</desc>
<speed>0.000000</speed>
</trkpt>
<trkpt lat="55.726894" lon="26.550474">
<ele>143.548950</ele>
<time>2010-07-18T13:06:50Z</time>
<desc>lat.=55.726894, lon.=26.550474, Alt.=143.548950m. Speed=0.000000m/h.</desc>
<speed>0.000000</speed>
</trkpt>
<trkpt lat="55.726894" lon="26.550474">
<ele>143.548950</ele>
<time>2010-07-18T13:06:51Z</time>
<desc>lat.=55.726894, lon.=26.550474, Alt.=143.548950m. Speed=0.000000m/h.</desc>
<speed>0.000000</speed>
</trkpt>
<trkpt lat="55.726894" lon="26.550474">
<ele>143.548950</ele>
<time>2010-07-18T13:06:52Z</time>
<desc>lat.=55.726894, lon.=26.550474, Alt.=143.548950m. Speed=0.036000m/h.</desc>
<speed>0.010000</speed>
</trkpt>
<trkpt lat="55.726894" lon="26.550474">
<ele>143.548950</ele>
<time>2010-07-18T13:06:53Z</time>
<desc>lat.=55.726894, lon.=26.550474, Alt.=143.548950m. Speed=0.036000m/h.</desc>
<speed>0.010000</speed>
</trkpt>
<trkpt lat="55.726894" lon="26.550474">
<ele>143.556763</ele>
<time>2010-07-18T13:06:54Z</time>
<desc>lat.=55.726894, lon.=26.550474, Alt.=143.556763m. Speed=0.036000m/h.</desc>
<speed>0.010000</speed>
</trkpt>
<trkpt lat="55.726894" lon="26.550474">
<ele>143.556763</ele>
<time>2010-07-18T13:06:55Z</time>
<desc>lat.=55.726894, lon.=26.550474, Alt.=143.556763m. Speed=0.000000m/h.</desc>
<speed>0.000000</speed>
</trkpt>
<trkpt lat="55.726894" lon="26.550474">
<ele>143.556763</ele>
<time>2010-07-18T13:06:56Z</time>
<desc>lat.=55.726894, lon.=26.550474, Alt.=143.556763m. Speed=0.036000m/h.</desc>
<speed>0.010000</speed>
</trkpt>
<trkpt lat="55.726894" lon="26.550474">
<ele>143.556763</ele>
<time>2010-07-18T13:06:57Z</time>
<desc>lat.=55.726894, lon.=26.550474, Alt.=143.556763m. Speed=0.000000m/h.</desc>
<speed>0.000000</speed>
</trkpt>
<trkpt lat="55.726894" lon="26.550474">
<ele>143.560669</ele>
<time>2010-07-18T13:06:58Z</time>
<desc>lat.=55.726894, lon.=26.550474, Alt.=143.560669m. Speed=0.036000m/h.</desc>
<speed>0.010000</speed>
</trkpt>
<trkpt lat="55.726894" lon="26.550474">
<ele>143.564575</ele>
<time>2010-07-18T13:06:59Z</time>
<desc>lat.=55.726894, lon.=26.550474, Alt.=143.564575m. Speed=0.036000m/h.</desc>
<speed>0.010000</speed>
</trkpt>
<trkpt lat="55.726894" lon="26.550474">
<ele>143.564575</ele>
<time>2010-07-18T13:07:00Z</time>
<desc>lat.=55.726894, lon.=26.550474, Alt.=143.564575m. Speed=0.000000m/h.</desc>
<speed>0.000000</speed>
</trkpt>
<trkpt lat="55.726894" lon="26.550474">
<ele>143.568481</ele>
<time>2010-07-18T13:07:01Z</time>
<desc>lat.=55.726894, lon.=26.550474, Alt.=143.568481m. Speed=0.000000m/h.</desc>
<speed>0.000000</speed>
</trkpt>
<trkpt lat="55.726894" lon="26.550474">
<ele>143.572388</ele>
<time>2010-07-18T13:07:02Z</time>
<desc>lat.=55.726894, lon.=26.550474, Alt.=143.572388m. Speed=0.000000m/h.</desc>
<speed>0.000000</speed>
</trkpt>
<trkpt lat="55.726894" lon="26.550474">
<ele>143.576294</ele>
<time>2010-07-18T13:07:03Z</time>
<desc>lat.=55.726894, lon.=26.550474, Alt.=143.576294m. Speed=0.000000m/h.</desc>
<speed>0.000000</speed>
</trkpt>
<trkpt lat="55.726894" lon="26.550474">
<ele>143.576294</ele>
<time>2010-07-18T13:07:04Z</time>
<desc>lat.=55.726894, lon.=26.550474, Alt.=143.576294m. Speed=0.036000m/h.</desc>
<speed>0.010000</speed>
</trkpt>
<trkpt lat="55.726894" lon="26.550474">
<ele>143.576294</ele>
<time>2010-07-18T13:07:05Z</time>
<desc>lat.=55.726894, lon.=26.550474, Alt.=143.576294m. Speed=0.000000m/h.</desc>
<speed>0.000000</speed>
</trkpt>
<trkpt lat="55.726894" lon="26.550474">
<ele>143.576294</ele>
<time>2010-07-18T13:07:06Z</time>
<desc>lat.=55.726894, lon.=26.550474, Alt.=143.576294m. Speed=0.072000m/h.</desc>
<speed>0.020000</speed>
</trkpt>
<trkpt lat="55.726894" lon="26.550474">
<ele>143.580200</ele>
<time>2010-07-18T13:07:07Z</time>
<desc>lat.=55.726894, lon.=26.550474, Alt.=143.580200m. Speed=0.000000m/h.</desc>
<speed>0.000000</speed>
</trkpt>
<trkpt lat="55.726894" lon="26.550474">
<ele>143.576294</ele>
<time>2010-07-18T13:07:08Z</time>
<desc>lat.=55.726894, lon.=26.550474, Alt.=143.576294m. Speed=0.000000m/h.</desc>
<speed>0.000000</speed>
</trkpt>
<trkpt lat="55.726894" lon="26.550474">
<ele>143.576294</ele>
<time>2010-07-18T13:07:09Z</time>
<desc>lat.=55.726894, lon.=26.550474, Alt.=143.576294m. Speed=0.000000m/h.</desc>
<speed>0.000000</speed>
</trkpt>
<trkpt lat="55.726894" lon="26.550474">
<ele>143.572388</ele>
<time>2010-07-18T13:07:10Z</time>
<desc>lat.=55.726894, lon.=26.550474, Alt.=143.572388m. Speed=0.000000m/h.</desc>
<speed>0.000000</speed>
</trkpt>
<trkpt lat="55.726894" lon="26.550474">
<ele>143.572388</ele>
<time>2010-07-18T13:07:11Z</time>
<desc>lat.=55.726894, lon.=26.550474, Alt.=143.572388m. Speed=0.000000m/h.</desc>
<speed>0.000000</speed>
</trkpt>
<trkpt lat="55.726894" lon="26.550474">
<ele>143.572388</ele>
<time>2010-07-18T13:07:12Z</time>
<desc>lat.=55.726894, lon.=26.550474, Alt.=143.572388m. Speed=0.000000m/h.</desc>
<speed>0.000000</speed>
</trkpt>
<trkpt lat="55.726894" lon="26.550474">
<ele>143.572388</ele>
<time>2010-07-18T13:07:13Z</time>
<desc>lat.=55.726894, lon.=26.550474, Alt.=143.572388m. Speed=0.000000m/h.</desc>
<speed>0.000000</speed>
</trkpt>
<trkpt lat="55.726894" lon="26.550474">
<ele>143.572388</ele>
<time>2010-07-18T13:07:14Z</time>
<desc>lat.=55.726894, lon.=26.550474, Alt.=143.572388m. Speed=0.000000m/h.</desc>
<speed>0.000000</speed>
</trkpt>
<trkpt lat="55.726894" lon="26.550474">
<ele>143.572388</ele>
<time>2010-07-18T13:07:15Z</time>
<desc>lat.=55.726894, lon.=26.550474, Alt.=143.572388m. Speed=0.000000m/h.</desc>
<speed>0.000000</speed>
</trkpt>
<trkpt lat="55.726894" lon="26.550474">
<ele>143.572388</ele>
<time>2010-07-18T13:07:16Z</time>
<desc>lat.=55.726894, lon.=26.550474, Alt.=143.572388m. Speed=0.036000m/h.</desc>
<speed>0.010000</speed>
</trkpt>
<trkpt lat="55.726894" lon="26.550474">
<ele>143.572388</ele>
<time>2010-07-18T13:07:17Z</time>
<desc>lat.=55.726894, lon.=26.550474, Alt.=143.572388m. Speed=0.144000m/h.</desc>
<speed>0.040000</speed>
</trkpt>
<trkpt lat="55.726894" lon="26.550474">
<ele>143.568481</ele>
<time>2010-07-18T13:07:18Z</time>
<desc>lat.=55.726894, lon.=26.550474, Alt.=143.568481m. Speed=0.108000m/h.</desc>
<speed>0.030000</speed>
</trkpt>
<trkpt lat="55.726894" lon="26.550476">
<ele>143.572388</ele>
<time>2010-07-18T13:07:19Z</time>
<desc>lat.=55.726894, lon.=26.550476, Alt.=143.572388m. Speed=0.036000m/h.</desc>
<speed>0.010000</speed>
</trkpt>
<trkpt lat="55.726894" lon="26.550474">
<ele>143.572388</ele>
<time>2010-07-18T13:07:20Z</time>
<desc>lat.=55.726894, lon.=26.550474, Alt.=143.572388m. Speed=0.000000m/h.</desc>
<speed>0.000000</speed>
</trkpt>
<trkpt lat="55.726894" lon="26.550474">
<ele>143.568481</ele>
<time>2010-07-18T13:07:21Z</time>
<desc>lat.=55.726894, lon.=26.550474, Alt.=143.568481m. Speed=0.000000m/h.</desc>
<speed>0.000000</speed>
</trkpt>
<trkpt lat="55.726894" lon="26.550474">
<ele>143.568481</ele>
<time>2010-07-18T13:07:22Z</time>
<desc>lat.=55.726894, lon.=26.550474, Alt.=143.568481m. Speed=0.000000m/h.</desc>
<speed>0.000000</speed>
</trkpt>
<trkpt lat="55.726894" lon="26.550474">
<ele>143.568481</ele>
<time>2010-07-18T13:07:23Z</time>
<desc>lat.=55.726894, lon.=26.550474, Alt.=143.568481m. Speed=0.036000m/h.</desc>
<speed>0.010000</speed>
</trkpt>
<trkpt lat="55.726894" lon="26.550474">
<ele>143.568481</ele>
<time>2010-07-18T13:07:24Z</time>
<desc>lat.=55.726894, lon.=26.550474, Alt.=143.568481m. Speed=0.000000m/h.</desc>
<speed>0.000000</speed>
</trkpt>
<trkpt lat="55.726894" lon="26.550474">
<ele>143.568481</ele>
<time>2010-07-18T13:07:25Z</time>
<desc>lat.=55.726894, lon.=26.550474, Alt.=143.568481m. Speed=0.000000m/h.</desc>
<speed>0.000000</speed>
</trkpt>
<trkpt lat="55.726894" lon="26.550474">
<ele>143.568481</ele>
<time>2010-07-18T13:07:26Z</time>
<desc>lat.=55.726894, lon.=26.550474, Alt.=143.568481m. Speed=0.000000m/h.</desc>
<speed>0.000000</speed>
</trkpt>
<trkpt lat="55.726894" lon="26.550474">
<ele>143.564575</ele>
<time>2010-07-18T13:07:27Z</time>
<desc>lat.=55.726894, lon.=26.550474, Alt.=143.564575m. Speed=0.000000m/h.</desc>
<speed>0.000000</speed>
</trkpt>
<trkpt lat="55.726894" lon="26.550474">
<ele>143.564575</ele>
<time>2010-07-18T13:07:28Z</time>
<desc>lat.=55.726894, lon.=26.550474, Alt.=143.564575m. Speed=0.000000m/h.</desc>
<speed>0.000000</speed>
</trkpt>
<trkpt lat="55.726894" lon="26.550474">
<ele>143.564575</ele>
<time>2010-07-18T13:07:29Z</time>
<desc>lat.=55.726894, lon.=26.550474, Alt.=143.564575m. Speed=0.000000m/h.</desc>
<speed>0.000000</speed>
</trkpt>
<trkpt lat="55.726894" lon="26.550474">
<ele>143.564575</ele>
<time>2010-07-18T13:07:30Z</time>
<desc>lat.=55.726894, lon.=26.550474, Alt.=143.564575m. Speed=0.036000m/h.</desc>
<speed>0.010000</speed>
</trkpt>
<trkpt lat="55.726894" lon="26.550474">
<ele>143.564575</ele>
<time>2010-07-18T13:07:31Z</time>
<desc>lat.=55.726894, lon.=26.550474, Alt.=143.564575m. Speed=0.036000m/h.</desc>
<speed>0.010000</speed>
</trkpt>
<trkpt lat="55.726894" lon="26.550474">
<ele>143.564575</ele>
<time>2010-07-18T13:07:32Z</time>
<desc>lat.=55.726894, lon.=26.550474, Alt.=143.564575m. Speed=0.072000m/h.</desc>
<speed>0.020000</speed>
</trkpt>
<trkpt lat="55.726894" lon="26.550474">
<ele>143.568481</ele>
<time>2010-07-18T13:07:33Z</time>
<desc>lat.=55.726894, lon.=26.550474, Alt.=143.568481m. Speed=0.000000m/h.</desc>
<speed>0.000000</speed>
</trkpt>
<trkpt lat="55.726894" lon="26.550474">
<ele>143.568481</ele>
<time>2010-07-18T13:07:34Z</time>
<desc>lat.=55.726894, lon.=26.550474, Alt.=143.568481m. Speed=0.000000m/h.</desc>
<speed>0.000000</speed>
</trkpt>
<trkpt lat="55.726894" lon="26.550474">
<ele>143.568481</ele>
<time>2010-07-18T13:07:35Z</time>
<desc>lat.=55.726894, lon.=26.550474, Alt.=143.568481m. Speed=0.000000m/h.</desc>
<speed>0.000000</speed>
</trkpt>
<trkpt lat="55.726894" lon="26.550474">
<ele>143.572388</ele>
<time>2010-07-18T13:07:36Z</time>
<desc>lat.=55.726894, lon.=26.550474, Alt.=143.572388m. Speed=0.144000m/h.</desc>
<speed>0.040000</speed>
</trkpt>
<trkpt lat="55.726894" lon="26.550474">
<ele>143.572388</ele>
<time>2010-07-18T13:07:37Z</time>
<desc>lat.=55.726894, lon.=26.550474, Alt.=143.572388m. Speed=0.468000m/h.</desc>
<speed>0.130000</speed>
</trkpt>
<trkpt lat="55.726894" lon="26.550474">
<ele>143.572388</ele>
<time>2010-07-18T13:07:38Z</time>
<desc>lat.=55.726894, lon.=26.550474, Alt.=143.572388m. Speed=0.000000m/h.</desc>
<speed>0.000000</speed>
</trkpt>
<trkpt lat="55.726894" lon="26.550474">
<ele>143.572388</ele>
<time>2010-07-18T13:07:39Z</time>
<desc>lat.=55.726894, lon.=26.550474, Alt.=143.572388m. Speed=0.108000m/h.</desc>
<speed>0.030000</speed>
</trkpt>
<trkpt lat="55.726894" lon="26.550474">
<ele>143.572388</ele>
<time>2010-07-18T13:07:40Z</time>
<desc>lat.=55.726894, lon.=26.550474, Alt.=143.572388m. Speed=0.000000m/h.</desc>
<speed>0.000000</speed>
</trkpt>
<trkpt lat="55.726894" lon="26.550474">
<ele>143.572388</ele>
<time>2010-07-18T13:07:41Z</time>
<desc>lat.=55.726894, lon.=26.550474, Alt.=143.572388m. Speed=0.144000m/h.</desc>
<speed>0.040000</speed>
</trkpt>
<trkpt lat="55.726894" lon="26.550474">
<ele>143.572388</ele>
<time>2010-07-18T13:07:42Z</time>
<desc>lat.=55.726894, lon.=26.550474, Alt.=143.572388m. Speed=0.036000m/h.</desc>
<speed>0.010000</speed>
</trkpt>
<trkpt lat="55.726894" lon="26.550474">
<ele>143.568481</ele>
<time>2010-07-18T13:07:43Z</time>
<desc>lat.=55.726894, lon.=26.550474, Alt.=143.568481m. Speed=0.036000m/h.</desc>
<speed>0.010000</speed>
</trkpt>
<trkpt lat="55.726894" lon="26.550474">
<ele>143.568481</ele>
<time>2010-07-18T13:07:44Z</time>
<desc>lat.=55.726894, lon.=26.550474, Alt.=143.568481m. Speed=0.036000m/h.</desc>
<speed>0.010000</speed>
</trkpt>
<trkpt lat="55.726894" lon="26.550474">
<ele>143.568481</ele>
<time>2010-07-18T13:07:45Z</time>
<desc>lat.=55.726894, lon.=26.550474, Alt.=143.568481m. Speed=0.036000m/h.</desc>
<speed>0.010000</speed>
</trkpt>
<trkpt lat="55.726894" lon="26.550474">
<ele>143.572388</ele>
<time>2010-07-18T13:07:46Z</time>
<desc>lat.=55.726894, lon.=26.550474, Alt.=143.572388m. Speed=0.000000m/h.</desc>
<speed>0.000000</speed>
</trkpt>
<trkpt lat="55.726894" lon="26.550474">
<ele>143.568481</ele>
<time>2010-07-18T13:07:47Z</time>
<desc>lat.=55.726894, lon.=26.550474, Alt.=143.568481m. Speed=0.072000m/h.</desc>
<speed>0.020000</speed>
</trkpt>
<trkpt lat="55.726894" lon="26.550474">
<ele>143.568481</ele>
<time>2010-07-18T13:07:48Z</time>
<desc>lat.=55.726894, lon.=26.550474, Alt.=143.568481m. Speed=0.000000m/h.</desc>
<speed>0.000000</speed>
</trkpt>
<trkpt lat="55.726894" lon="26.550474">
<ele>143.568481</ele>
<time>2010-07-18T13:07:49Z</time>
<desc>lat.=55.726894, lon.=26.550474, Alt.=143.568481m. Speed=0.000000m/h.</desc>
<speed>0.000000</speed>
</trkpt>
<trkpt lat="55.726894" lon="26.550474">
<ele>143.568481</ele>
<time>2010-07-18T13:07:50Z</time>
<desc>lat.=55.726894, lon.=26.550474, Alt.=143.568481m. Speed=0.000000m/h.</desc>
<speed>0.000000</speed>
</trkpt>
<trkpt lat="55.726894" lon="26.550474">
<ele>143.568481</ele>
<time>2010-07-18T13:07:51Z</time>
<desc>lat.=55.726894, lon.=26.550474, Alt.=143.568481m. Speed=0.072000m/h.</desc>
<speed>0.020000</speed>
</trkpt>
<trkpt lat="55.726894" lon="26.550474">
<ele>143.568481</ele>
<time>2010-07-18T13:07:52Z</time>
<desc>lat.=55.726894, lon.=26.550474, Alt.=143.568481m. Speed=0.000000m/h.</desc>
<speed>0.000000</speed>
</trkpt>
<trkpt lat="55.726894" lon="26.550474">
<ele>143.568481</ele>
<time>2010-07-18T13:07:53Z</time>
<desc>lat.=55.726894, lon.=26.550474, Alt.=143.568481m. Speed=0.108000m/h.</desc>
<speed>0.030000</speed>
</trkpt>
<trkpt lat="55.726894" lon="26.550474">
<ele>143.572388</ele>
<time>2010-07-18T13:07:54Z</time>
<desc>lat.=55.726894, lon.=26.550474, Alt.=143.572388m. Speed=0.108000m/h.</desc>
<speed>0.030000</speed>
</trkpt>
<trkpt lat="55.726894" lon="26.550474">
<ele>143.572388</ele>
<time>2010-07-18T13:07:55Z</time>
<desc>lat.=55.726894, lon.=26.550474, Alt.=143.572388m. Speed=0.108000m/h.</desc>
<speed>0.030000</speed>
</trkpt>
<trkpt lat="55.726894" lon="26.550474">
<ele>143.576294</ele>
<time>2010-07-18T13:07:56Z</time>
<desc>lat.=55.726894, lon.=26.550474, Alt.=143.576294m. Speed=0.180000m/h.</desc>
<speed>0.050000</speed>
</trkpt>
<trkpt lat="55.726894" lon="26.550474">
<ele>143.572388</ele>
<time>2010-07-18T13:07:57Z</time>
<desc>lat.=55.726894, lon.=26.550474, Alt.=143.572388m. Speed=0.072000m/h.</desc>
<speed>0.020000</speed>
</trkpt>
<trkpt lat="55.726894" lon="26.550474">
<ele>143.572388</ele>
<time>2010-07-18T13:07:58Z</time>
<desc>lat.=55.726894, lon.=26.550474, Alt.=143.572388m. Speed=0.000000m/h.</desc>
<speed>0.000000</speed>
</trkpt>
<trkpt lat="55.726894" lon="26.550474">
<ele>143.576294</ele>
<time>2010-07-18T13:07:59Z</time>
<desc>lat.=55.726894, lon.=26.550474, Alt.=143.576294m. Speed=0.000000m/h.</desc>
<speed>0.000000</speed>
</trkpt>
<trkpt lat="55.726894" lon="26.550474">
<ele>143.576294</ele>
<time>2010-07-18T13:08:00Z</time>
<desc>lat.=55.726894, lon.=26.550474, Alt.=143.576294m. Speed=0.000000m/h.</desc>
<speed>0.000000</speed>
</trkpt>
<trkpt lat="55.726894" lon="26.550474">
<ele>143.580200</ele>
<time>2010-07-18T13:08:01Z</time>
<desc>lat.=55.726894, lon.=26.550474, Alt.=143.580200m. Speed=0.036000m/h.</desc>
<speed>0.010000</speed>
</trkpt>
<trkpt lat="55.726894" lon="26.550474">
<ele>143.584106</ele>
<time>2010-07-18T13:08:02Z</time>
<desc>lat.=55.726894, lon.=26.550474, Alt.=143.584106m. Speed=0.000000m/h.</desc>
<speed>0.000000</speed>
</trkpt>
<trkpt lat="55.726894" lon="26.550474">
<ele>143.576294</ele>
<time>2010-07-18T13:08:03Z</time>
<desc>lat.=55.726894, lon.=26.550474, Alt.=143.576294m. Speed=0.144000m/h.</desc>
<speed>0.040000</speed>
</trkpt>
<trkpt lat="55.726894" lon="26.550474">
<ele>143.576294</ele>
<time>2010-07-18T13:08:04Z</time>
<desc>lat.=55.726894, lon.=26.550474, Alt.=143.576294m. Speed=0.036000m/h.</desc>
<speed>0.010000</speed>
</trkpt>
<trkpt lat="55.726894" lon="26.550474">
<ele>143.576294</ele>
<time>2010-07-18T13:08:05Z</time>
<desc>lat.=55.726894, lon.=26.550474, Alt.=143.576294m. Speed=0.144000m/h.</desc>
<speed>0.040000</speed>
</trkpt>
<trkpt lat="55.726894" lon="26.550474">
<ele>143.576294</ele>
<time>2010-07-18T13:08:06Z</time>
<desc>lat.=55.726894, lon.=26.550474, Alt.=143.576294m. Speed=0.144000m/h.</desc>
<speed>0.040000</speed>
</trkpt>
<trkpt lat="55.726894" lon="26.550474">
<ele>143.576294</ele>
<time>2010-07-18T13:08:07Z</time>
<desc>lat.=55.726894, lon.=26.550474, Alt.=143.576294m. Speed=0.108000m/h.</desc>
<speed>0.030000</speed>
</trkpt>
<trkpt lat="55.726894" lon="26.550474">
<ele>143.576294</ele>
<time>2010-07-18T13:08:08Z</time>
<desc>lat.=55.726894, lon.=26.550474, Alt.=143.576294m. Speed=0.000000m/h.</desc>
<speed>0.000000</speed>
</trkpt>
<trkpt lat="55.726894" lon="26.550474">
<ele>143.576294</ele>
<time>2010-07-18T13:08:09Z</time>
<desc>lat.=55.726894, lon.=26.550474, Alt.=143.576294m. Speed=0.792000m/h.</desc>
<speed>0.220000</speed>
</trkpt>
<trkpt lat="55.726894" lon="26.550474">
<ele>143.576294</ele>
<time>2010-07-18T13:08:10Z</time>
<desc>lat.=55.726894, lon.=26.550474, Alt.=143.576294m. Speed=0.108000m/h.</desc>
<speed>0.030000</speed>
</trkpt>
<trkpt lat="55.726894" lon="26.550474">
<ele>143.576294</ele>
<time>2010-07-18T13:08:11Z</time>
<desc>lat.=55.726894, lon.=26.550474, Alt.=143.576294m. Speed=0.252000m/h.</desc>
<speed>0.070000</speed>
</trkpt>
<trkpt lat="55.726894" lon="26.550474">
<ele>143.580200</ele>
<time>2010-07-18T13:08:12Z</time>
<desc>lat.=55.726894, lon.=26.550474, Alt.=143.580200m. Speed=0.036000m/h.</desc>
<speed>0.010000</speed>
</trkpt>
<trkpt lat="55.726894" lon="26.550474">
<ele>143.580200</ele>
<time>2010-07-18T13:08:13Z</time>
<desc>lat.=55.726894, lon.=26.550474, Alt.=143.580200m. Speed=0.144000m/h.</desc>
<speed>0.040000</speed>
</trkpt>
<trkpt lat="55.726894" lon="26.550474">
<ele>143.580200</ele>
<time>2010-07-18T13:08:14Z</time>
<desc>lat.=55.726894, lon.=26.550474, Alt.=143.580200m. Speed=0.252000m/h.</desc>
<speed>0.070000</speed>
</trkpt>
<trkpt lat="55.726894" lon="26.550474">
<ele>143.584106</ele>
<time>2010-07-18T13:08:15Z</time>
<desc>lat.=55.726894, lon.=26.550474, Alt.=143.584106m. Speed=0.036000m/h.</desc>
<speed>0.010000</speed>
</trkpt>
<trkpt lat="55.726894" lon="26.550474">
<ele>143.588013</ele>
<time>2010-07-18T13:08:16Z</time>
<desc>lat.=55.726894, lon.=26.550474, Alt.=143.588013m. Speed=0.144000m/h.</desc>
<speed>0.040000</speed>
</trkpt>
<trkpt lat="55.726894" lon="26.550474">
<ele>143.595825</ele>
<time>2010-07-18T13:08:17Z</time>
<desc>lat.=55.726894, lon.=26.550474, Alt.=143.595825m. Speed=0.288000m/h.</desc>
<speed>0.080000</speed>
</trkpt>
<trkpt lat="55.726894" lon="26.550476">
<ele>143.607544</ele>
<time>2010-07-18T13:08:18Z</time>
<desc>lat.=55.726894, lon.=26.550476, Alt.=143.607544m. Speed=0.972000m/h.</desc>
<speed>0.270000</speed>
</trkpt>
<trkpt lat="55.726898" lon="26.550482">
<ele>143.615356</ele>
<time>2010-07-18T13:08:19Z</time>
<desc>lat.=55.726898, lon.=26.550482, Alt.=143.615356m. Speed=1.764000m/h.</desc>
<speed>0.490000</speed>
</trkpt>
<trkpt lat="55.726902" lon="26.550507">
<ele>144.130981</ele>
<time>2010-07-18T13:08:20Z</time>
<desc>lat.=55.726902, lon.=26.550507, Alt.=144.130981m. Speed=3.060000m/h.</desc>
<speed>0.850000</speed>
</trkpt>
<trkpt lat="55.726906" lon="26.550520">
<ele>144.353638</ele>
<time>2010-07-18T13:08:21Z</time>
<desc>lat.=55.726906, lon.=26.550520, Alt.=144.353638m. Speed=1.332000m/h.</desc>
<speed>0.370000</speed>
</trkpt>
<trkpt lat="55.726910" lon="26.550529">
<ele>144.615356</ele>
<time>2010-07-18T13:08:22Z</time>
<desc>lat.=55.726910, lon.=26.550529, Alt.=144.615356m. Speed=2.124000m/h.</desc>
<speed>0.590000</speed>
</trkpt>
<trkpt lat="55.726917" lon="26.550545">
<ele>144.763794</ele>
<time>2010-07-18T13:08:23Z</time>
<desc>lat.=55.726917, lon.=26.550545, Alt.=144.763794m. Speed=2.088000m/h.</desc>
<speed>0.580000</speed>
</trkpt>
<trkpt lat="55.726921" lon="26.550550">
<ele>145.064575</ele>
<time>2010-07-18T13:08:24Z</time>
<desc>lat.=55.726921, lon.=26.550550, Alt.=145.064575m. Speed=1.404000m/h.</desc>
<speed>0.390000</speed>
</trkpt>
<trkpt lat="55.726925" lon="26.550556">
<ele>145.298950</ele>
<time>2010-07-18T13:08:25Z</time>
<desc>lat.=55.726925, lon.=26.550556, Alt.=145.298950m. Speed=1.836000m/h.</desc>
<speed>0.510000</speed>
</trkpt>
<trkpt lat="55.726929" lon="26.550562">
<ele>145.498169</ele>
<time>2010-07-18T13:08:26Z</time>
<desc>lat.=55.726929, lon.=26.550562, Alt.=145.498169m. Speed=2.088000m/h.</desc>
<speed>0.580000</speed>
</trkpt>
<trkpt lat="55.726936" lon="26.550571">
<ele>145.662231</ele>
<time>2010-07-18T13:08:27Z</time>
<desc>lat.=55.726936, lon.=26.550571, Alt.=145.662231m. Speed=2.556000m/h.</desc>
<speed>0.710000</speed>
</trkpt>
<trkpt lat="55.726944" lon="26.550585">
<ele>145.861450</ele>
<time>2010-07-18T13:08:28Z</time>
<desc>lat.=55.726944, lon.=26.550585, Alt.=145.861450m. Speed=2.592000m/h.</desc>
<speed>0.720000</speed>
</trkpt>
<trkpt lat="55.726952" lon="26.550594">
<ele>146.029419</ele>
<time>2010-07-18T13:08:29Z</time>
<desc>lat.=55.726952, lon.=26.550594, Alt.=146.029419m. Speed=2.556000m/h.</desc>
<speed>0.710000</speed>
</trkpt>
<trkpt lat="55.726959" lon="26.550611">
<ele>146.275513</ele>
<time>2010-07-18T13:08:30Z</time>
<desc>lat.=55.726959, lon.=26.550611, Alt.=146.275513m. Speed=2.448000m/h.</desc>
<speed>0.680000</speed>
</trkpt>
<trkpt lat="55.726963" lon="26.550617">
<ele>146.400513</ele>
<time>2010-07-18T13:08:31Z</time>
<desc>lat.=55.726963, lon.=26.550617, Alt.=146.400513m. Speed=1.908000m/h.</desc>
<speed>0.530000</speed>
</trkpt>
<trkpt lat="55.726959" lon="26.550619">
<ele>146.634888</ele>
<time>2010-07-18T13:08:32Z</time>
<desc>lat.=55.726959, lon.=26.550619, Alt.=146.634888m. Speed=0.072000m/h.</desc>
<speed>0.020000</speed>
</trkpt>
<trkpt lat="55.726959" lon="26.550629">
<ele>146.728638</ele>
<time>2010-07-18T13:08:33Z</time>
<desc>lat.=55.726959, lon.=26.550629, Alt.=146.728638m. Speed=0.324000m/h.</desc>
<speed>0.090000</speed>
</trkpt>
<trkpt lat="55.726959" lon="26.550629">
<ele>146.740356</ele>
<time>2010-07-18T13:08:34Z</time>
<desc>lat.=55.726959, lon.=26.550629, Alt.=146.740356m. Speed=0.216000m/h.</desc>
<speed>0.060000</speed>
</trkpt>
<trkpt lat="55.726963" lon="26.550629">
<ele>146.822388</ele>
<time>2010-07-18T13:08:35Z</time>
<desc>lat.=55.726963, lon.=26.550629, Alt.=146.822388m. Speed=0.180000m/h.</desc>
<speed>0.050000</speed>
</trkpt>
<trkpt lat="55.726963" lon="26.550629">
<ele>146.904419</ele>
<time>2010-07-18T13:08:36Z</time>
<desc>lat.=55.726963, lon.=26.550629, Alt.=146.904419m. Speed=0.432000m/h.</desc>
<speed>0.120000</speed>
</trkpt>
<trkpt lat="55.726959" lon="26.550629">
<ele>146.978638</ele>
<time>2010-07-18T13:08:37Z</time>
<desc>lat.=55.726959, lon.=26.550629, Alt.=146.978638m. Speed=0.360000m/h.</desc>
<speed>0.100000</speed>
</trkpt>
<trkpt lat="55.726959" lon="26.550629">
<ele>147.041138</ele>
<time>2010-07-18T13:08:38Z</time>
<desc>lat.=55.726959, lon.=26.550629, Alt.=147.041138m. Speed=0.432000m/h.</desc>
<speed>0.120000</speed>
</trkpt>
<trkpt lat="55.726959" lon="26.550629">
<ele>147.107544</ele>
<time>2010-07-18T13:08:39Z</time>
<desc>lat.=55.726959, lon.=26.550629, Alt.=147.107544m. Speed=0.216000m/h.</desc>
<speed>0.060000</speed>
</trkpt>
<trkpt lat="55.726959" lon="26.550627">
<ele>147.158325</ele>
<time>2010-07-18T13:08:40Z</time>
<desc>lat.=55.726959, lon.=26.550627, Alt.=147.158325m. Speed=0.072000m/h.</desc>
<speed>0.020000</speed>
</trkpt>
<trkpt lat="55.726959" lon="26.550627">
<ele>147.193481</ele>
<time>2010-07-18T13:08:41Z</time>
<desc>lat.=55.726959, lon.=26.550627, Alt.=147.193481m. Speed=0.144000m/h.</desc>
<speed>0.040000</speed>
</trkpt>
<trkpt lat="55.726959" lon="26.550627">
<ele>147.209106</ele>
<time>2010-07-18T13:08:42Z</time>
<desc>lat.=55.726959, lon.=26.550627, Alt.=147.209106m. Speed=0.108000m/h.</desc>
<speed>0.030000</speed>
</trkpt>
<trkpt lat="55.726959" lon="26.550629">
<ele>147.213013</ele>
<time>2010-07-18T13:08:43Z</time>
<desc>lat.=55.726959, lon.=26.550629, Alt.=147.213013m. Speed=0.036000m/h.</desc>
<speed>0.010000</speed>
</trkpt>
<trkpt lat="55.726959" lon="26.550627">
<ele>147.213013</ele>
<time>2010-07-18T13:08:44Z</time>
<desc>lat.=55.726959, lon.=26.550627, Alt.=147.213013m. Speed=0.036000m/h.</desc>
<speed>0.010000</speed>
</trkpt>
<trkpt lat="55.726959" lon="26.550629">
<ele>147.213013</ele>
<time>2010-07-18T13:08:45Z</time>
<desc>lat.=55.726959, lon.=26.550629, Alt.=147.213013m. Speed=0.072000m/h.</desc>
<speed>0.020000</speed>
</trkpt>
<trkpt lat="55.726959" lon="26.550629">
<ele>147.216919</ele>
<time>2010-07-18T13:08:46Z</time>
<desc>lat.=55.726959, lon.=26.550629, Alt.=147.216919m. Speed=0.144000m/h.</desc>
<speed>0.040000</speed>
</trkpt>
<trkpt lat="55.726959" lon="26.550629">
<ele>147.216919</ele>
<time>2010-07-18T13:08:47Z</time>
<desc>lat.=55.726959, lon.=26.550629, Alt.=147.216919m. Speed=0.324000m/h.</desc>
<speed>0.090000</speed>
</trkpt>
<trkpt lat="55.726959" lon="26.550631">
<ele>147.216919</ele>
<time>2010-07-18T13:08:48Z</time>
<desc>lat.=55.726959, lon.=26.550631, Alt.=147.216919m. Speed=0.324000m/h.</desc>
<speed>0.090000</speed>
</trkpt>
<trkpt lat="55.726959" lon="26.550631">
<ele>147.216919</ele>
<time>2010-07-18T13:08:49Z</time>
<desc>lat.=55.726959, lon.=26.550631, Alt.=147.216919m. Speed=0.180000m/h.</desc>
<speed>0.050000</speed>
</trkpt>
<trkpt lat="55.726959" lon="26.550631">
<ele>147.213013</ele>
<time>2010-07-18T13:08:50Z</time>
<desc>lat.=55.726959, lon.=26.550631, Alt.=147.213013m. Speed=1.404000m/h.</desc>
<speed>0.390000</speed>
</trkpt>
<trkpt lat="55.726971" lon="26.550655">
<ele>147.103638</ele>
<time>2010-07-18T13:08:51Z</time>
<desc>lat.=55.726971, lon.=26.550655, Alt.=147.103638m. Speed=1.512000m/h.</desc>
<speed>0.420000</speed>
</trkpt>
<trkpt lat="55.726978" lon="26.550661">
<ele>146.959106</ele>
<time>2010-07-18T13:08:52Z</time>
<desc>lat.=55.726978, lon.=26.550661, Alt.=146.959106m. Speed=1.908000m/h.</desc>
<speed>0.530000</speed>
</trkpt>
<trkpt lat="55.726982" lon="26.550663">
<ele>146.994263</ele>
<time>2010-07-18T13:08:53Z</time>
<desc>lat.=55.726982, lon.=26.550663, Alt.=146.994263m. Speed=1.728000m/h.</desc>
<speed>0.480000</speed>
</trkpt>
<trkpt lat="55.726986" lon="26.550674">
<ele>147.021606</ele>
<time>2010-07-18T13:08:54Z</time>
<desc>lat.=55.726986, lon.=26.550674, Alt.=147.021606m. Speed=1.836000m/h.</desc>
<speed>0.510000</speed>
</trkpt>
<trkpt lat="55.726990" lon="26.550676">
<ele>147.013794</ele>
<time>2010-07-18T13:08:55Z</time>
<desc>lat.=55.726990, lon.=26.550676, Alt.=147.013794m. Speed=1.908000m/h.</desc>
<speed>0.530000</speed>
</trkpt>
<trkpt lat="55.726994" lon="26.550684">
<ele>147.009888</ele>
<time>2010-07-18T13:08:56Z</time>
<desc>lat.=55.726994, lon.=26.550684, Alt.=147.009888m. Speed=1.800000m/h.</desc>
<speed>0.500000</speed>
</trkpt>
<trkpt lat="55.726997" lon="26.550686">
<ele>147.209106</ele>
<time>2010-07-18T13:08:57Z</time>
<desc>lat.=55.726997, lon.=26.550686, Alt.=147.209106m. Speed=1.692000m/h.</desc>
<speed>0.470000</speed>
</trkpt>
<trkpt lat="55.727001" lon="26.550688">
<ele>147.224731</ele>
<time>2010-07-18T13:08:58Z</time>
<desc>lat.=55.727001, lon.=26.550688, Alt.=147.224731m. Speed=1.692000m/h.</desc>
<speed>0.470000</speed>
</trkpt>
<trkpt lat="55.727001" lon="26.550694">
<ele>147.216919</ele>
<time>2010-07-18T13:08:59Z</time>
<desc>lat.=55.727001, lon.=26.550694, Alt.=147.216919m. Speed=1.620000m/h.</desc>
<speed>0.450000</speed>
</trkpt>
<trkpt lat="55.727009" lon="26.550699">
<ele>147.252075</ele>
<time>2010-07-18T13:09:00Z</time>
<desc>lat.=55.727009, lon.=26.550699, Alt.=147.252075m. Speed=1.800000m/h.</desc>
<speed>0.500000</speed>
</trkpt>
<trkpt lat="55.727020" lon="26.550707">
<ele>147.088013</ele>
<time>2010-07-18T13:09:01Z</time>
<desc>lat.=55.727020, lon.=26.550707, Alt.=147.088013m. Speed=2.052000m/h.</desc>
<speed>0.570000</speed>
</trkpt>
<trkpt lat="55.727024" lon="26.550716">
<ele>147.052856</ele>
<time>2010-07-18T13:09:02Z</time>
<desc>lat.=55.727024, lon.=26.550716, Alt.=147.052856m. Speed=2.304000m/h.</desc>
<speed>0.640000</speed>
</trkpt>
<trkpt lat="55.727032" lon="26.550724">
<ele>147.115356</ele>
<time>2010-07-18T13:09:03Z</time>
<desc>lat.=55.727032, lon.=26.550724, Alt.=147.115356m. Speed=2.448000m/h.</desc>
<speed>0.680000</speed>
</trkpt>
<trkpt lat="55.727039" lon="26.550734">
<ele>147.150513</ele>
<time>2010-07-18T13:09:04Z</time>
<desc>lat.=55.727039, lon.=26.550734, Alt.=147.150513m. Speed=2.556000m/h.</desc>
<speed>0.710000</speed>
</trkpt>
<trkpt lat="55.727043" lon="26.550737">
<ele>147.115356</ele>
<time>2010-07-18T13:09:05Z</time>
<desc>lat.=55.727043, lon.=26.550737, Alt.=147.115356m. Speed=2.412000m/h.</desc>
<speed>0.670000</speed>
</trkpt>
<trkpt lat="55.727062" lon="26.550768">
<ele>147.076294</ele>
<time>2010-07-18T13:09:06Z</time>
<desc>lat.=55.727062, lon.=26.550768, Alt.=147.076294m. Speed=3.924000m/h.</desc>
<speed>1.090000</speed>
</trkpt>
<trkpt lat="55.727066" lon="26.550779">
<ele>147.158325</ele>
<time>2010-07-18T13:09:07Z</time>
<desc>lat.=55.727066, lon.=26.550779, Alt.=147.158325m. Speed=3.564000m/h.</desc>
<speed>0.990000</speed>
</trkpt>
<trkpt lat="55.727070" lon="26.550787">
<ele>147.177856</ele>
<time>2010-07-18T13:09:08Z</time>
<desc>lat.=55.727070, lon.=26.550787, Alt.=147.177856m. Speed=3.024000m/h.</desc>
<speed>0.840000</speed>
</trkpt>
<trkpt lat="55.727074" lon="26.550798">
<ele>147.232544</ele>
<time>2010-07-18T13:09:09Z</time>
<desc>lat.=55.727074, lon.=26.550798, Alt.=147.232544m. Speed=2.376000m/h.</desc>
<speed>0.660000</speed>
</trkpt>
<trkpt lat="55.727066" lon="26.550804">
<ele>147.447388</ele>
<time>2010-07-18T13:09:10Z</time>
<desc>lat.=55.727066, lon.=26.550804, Alt.=147.447388m. Speed=0.108000m/h.</desc>
<speed>0.030000</speed>
</trkpt>
<trkpt lat="55.727070" lon="26.550810">
<ele>147.662231</ele>
<time>2010-07-18T13:09:11Z</time>
<desc>lat.=55.727070, lon.=26.550810, Alt.=147.662231m. Speed=0.360000m/h.</desc>
<speed>0.100000</speed>
</trkpt>
<trkpt lat="55.727070" lon="26.550810">
<ele>147.681763</ele>
<time>2010-07-18T13:09:12Z</time>
<desc>lat.=55.727070, lon.=26.550810, Alt.=147.681763m. Speed=0.324000m/h.</desc>
<speed>0.090000</speed>
</trkpt>
<trkpt lat="55.727077" lon="26.550814">
<ele>147.709106</ele>
<time>2010-07-18T13:09:13Z</time>
<desc>lat.=55.727077, lon.=26.550814, Alt.=147.709106m. Speed=0.072000m/h.</desc>
<speed>0.020000</speed>
</trkpt>
<trkpt lat="55.727077" lon="26.550814">
<ele>147.685669</ele>
<time>2010-07-18T13:09:14Z</time>
<desc>lat.=55.727077, lon.=26.550814, Alt.=147.685669m. Speed=0.324000m/h.</desc>
<speed>0.090000</speed>
</trkpt>
<trkpt lat="55.727074" lon="26.550816">
<ele>147.662231</ele>
<time>2010-07-18T13:09:15Z</time>
<desc>lat.=55.727074, lon.=26.550816, Alt.=147.662231m. Speed=0.576000m/h.</desc>
<speed>0.160000</speed>
</trkpt>
<trkpt lat="55.727077" lon="26.550817">
<ele>147.638794</ele>
<time>2010-07-18T13:09:16Z</time>
<desc>lat.=55.727077, lon.=26.550817, Alt.=147.638794m. Speed=3.312000m/h.</desc>
<speed>0.920000</speed>
</trkpt>
<trkpt lat="55.727081" lon="26.550835">
<ele>147.728638</ele>
<time>2010-07-18T13:09:17Z</time>
<desc>lat.=55.727081, lon.=26.550835, Alt.=147.728638m. Speed=3.240000m/h.</desc>
<speed>0.900000</speed>
</trkpt>
<trkpt lat="55.727085" lon="26.550856">
<ele>147.748169</ele>
<time>2010-07-18T13:09:18Z</time>
<desc>lat.=55.727085, lon.=26.550856, Alt.=147.748169m. Speed=4.032000m/h.</desc>
<speed>1.120000</speed>
</trkpt>
<trkpt lat="55.727093" lon="26.550873">
<ele>147.673950</ele>
<time>2010-07-18T13:09:19Z</time>
<desc>lat.=55.727093, lon.=26.550873, Alt.=147.673950m. Speed=4.392000m/h.</desc>
<speed>1.220000</speed>
</trkpt>
<trkpt lat="55.727097" lon="26.550894">
<ele>147.603638</ele>
<time>2010-07-18T13:09:20Z</time>
<desc>lat.=55.727097, lon.=26.550894, Alt.=147.603638m. Speed=3.744000m/h.</desc>
<speed>1.040000</speed>
</trkpt>
<trkpt lat="55.727097" lon="26.550911">
<ele>147.548950</ele>
<time>2010-07-18T13:09:21Z</time>
<desc>lat.=55.727097, lon.=26.550911, Alt.=147.548950m. Speed=3.240000m/h.</desc>
<speed>0.900000</speed>
</trkpt>
<trkpt lat="55.727097" lon="26.550932">
<ele>147.564575</ele>
<time>2010-07-18T13:09:22Z</time>
<desc>lat.=55.727097, lon.=26.550932, Alt.=147.564575m. Speed=2.592000m/h.</desc>
<speed>0.720000</speed>
</trkpt>
<trkpt lat="55.727104" lon="26.550951">
<ele>147.267700</ele>
<time>2010-07-18T13:09:23Z</time>
<desc>lat.=55.727104, lon.=26.550951, Alt.=147.267700m. Speed=1.476000m/h.</desc>
<speed>0.410000</speed>
</trkpt>
<trkpt lat="55.727108" lon="26.550962">
<ele>147.564575</ele>
<time>2010-07-18T13:09:24Z</time>
<desc>lat.=55.727108, lon.=26.550962, Alt.=147.564575m. Speed=1.296000m/h.</desc>
<speed>0.360000</speed>
</trkpt>
<trkpt lat="55.727112" lon="26.550974">
<ele>147.701294</ele>
<time>2010-07-18T13:09:25Z</time>
<desc>lat.=55.727112, lon.=26.550974, Alt.=147.701294m. Speed=1.368000m/h.</desc>
<speed>0.380000</speed>
</trkpt>
<trkpt lat="55.727112" lon="26.550980">
<ele>147.642700</ele>
<time>2010-07-18T13:09:26Z</time>
<desc>lat.=55.727112, lon.=26.550980, Alt.=147.642700m. Speed=1.260000m/h.</desc>
<speed>0.350000</speed>
</trkpt>
<trkpt lat="55.727112" lon="26.550987">
<ele>147.572388</ele>
<time>2010-07-18T13:09:27Z</time>
<desc>lat.=55.727112, lon.=26.550987, Alt.=147.572388m. Speed=1.296000m/h.</desc>
<speed>0.360000</speed>
</trkpt>
<trkpt lat="55.727127" lon="26.551023">
<ele>147.654419</ele>
<time>2010-07-18T13:09:28Z</time>
<desc>lat.=55.727127, lon.=26.551023, Alt.=147.654419m. Speed=2.376000m/h.</desc>
<speed>0.660000</speed>
</trkpt>
<trkpt lat="55.727123" lon="26.551044">
<ele>147.666138</ele>
<time>2010-07-18T13:09:29Z</time>
<desc>lat.=55.727123, lon.=26.551044, Alt.=147.666138m. Speed=3.456000m/h.</desc>
<speed>0.960000</speed>
</trkpt>
<trkpt lat="55.727119" lon="26.551071">
<ele>147.732544</ele>
<time>2010-07-18T13:09:30Z</time>
<desc>lat.=55.727119, lon.=26.551071, Alt.=147.732544m. Speed=4.716000m/h.</desc>
<speed>1.310000</speed>
</trkpt>
<trkpt lat="55.727123" lon="26.551105">
<ele>147.802856</ele>
<time>2010-07-18T13:09:31Z</time>
<desc>lat.=55.727123, lon.=26.551105, Alt.=147.802856m. Speed=6.624000m/h.</desc>
<speed>1.840000</speed>
</trkpt>
<trkpt lat="55.727123" lon="26.551142">
<ele>147.923950</ele>
<time>2010-07-18T13:09:32Z</time>
<desc>lat.=55.727123, lon.=26.551142, Alt.=147.923950m. Speed=8.100000m/h.</desc>
<speed>2.250000</speed>
</trkpt>
<trkpt lat="55.727127" lon="26.551178">
<ele>148.088013</ele>
<time>2010-07-18T13:09:33Z</time>
<desc>lat.=55.727127, lon.=26.551178, Alt.=148.088013m. Speed=9.504000m/h.</desc>
<speed>2.640000</speed>
</trkpt>
<trkpt lat="55.727127" lon="26.551212">
<ele>148.099731</ele>
<time>2010-07-18T13:09:34Z</time>
<desc>lat.=55.727127, lon.=26.551212, Alt.=148.099731m. Speed=5.292000m/h.</desc>
<speed>1.470000</speed>
</trkpt>
<trkpt lat="55.727131" lon="26.551239">
<ele>148.205200</ele>
<time>2010-07-18T13:09:35Z</time>
<desc>lat.=55.727131, lon.=26.551239, Alt.=148.205200m. Speed=6.696000m/h.</desc>
<speed>1.860000</speed>
</trkpt>
<trkpt lat="55.727131" lon="26.551270">
<ele>148.142700</ele>
<time>2010-07-18T13:09:36Z</time>
<desc>lat.=55.727131, lon.=26.551270, Alt.=148.142700m. Speed=6.120000m/h.</desc>
<speed>1.700000</speed>
</trkpt>
<trkpt lat="55.727139" lon="26.551308">
<ele>148.177856</ele>
<time>2010-07-18T13:09:37Z</time>
<desc>lat.=55.727139, lon.=26.551308, Alt.=148.177856m. Speed=6.228000m/h.</desc>
<speed>1.730000</speed>
</trkpt>
<trkpt lat="55.727142" lon="26.551340">
<ele>148.123169</ele>
<time>2010-07-18T13:09:38Z</time>
<desc>lat.=55.727142, lon.=26.551340, Alt.=148.123169m. Speed=5.796000m/h.</desc>
<speed>1.610000</speed>
</trkpt>
<trkpt lat="55.727142" lon="26.551386">
<ele>148.377075</ele>
<time>2010-07-18T13:09:39Z</time>
<desc>lat.=55.727142, lon.=26.551386, Alt.=148.377075m. Speed=5.400000m/h.</desc>
<speed>1.500000</speed>
</trkpt>
<trkpt lat="55.727142" lon="26.551420">
<ele>148.349731</ele>
<time>2010-07-18T13:09:40Z</time>
<desc>lat.=55.727142, lon.=26.551420, Alt.=148.349731m. Speed=6.696000m/h.</desc>
<speed>1.860000</speed>
</trkpt>
<trkpt lat="55.727146" lon="26.551456">
<ele>148.615356</ele>
<time>2010-07-18T13:09:41Z</time>
<desc>lat.=55.727146, lon.=26.551456, Alt.=148.615356m. Speed=6.192000m/h.</desc>
<speed>1.720000</speed>
</trkpt>
<trkpt lat="55.727150" lon="26.551500">
<ele>149.045044</ele>
<time>2010-07-18T13:09:42Z</time>
<desc>lat.=55.727150, lon.=26.551500, Alt.=149.045044m. Speed=8.568000m/h.</desc>
<speed>2.380000</speed>
</trkpt>
<trkpt lat="55.727158" lon="26.551537">
<ele>149.189575</ele>
<time>2010-07-18T13:09:43Z</time>
<desc>lat.=55.727158, lon.=26.551537, Alt.=149.189575m. Speed=6.768000m/h.</desc>
<speed>1.880000</speed>
</trkpt>
<trkpt lat="55.727161" lon="26.551573">
<ele>149.275513</ele>
<time>2010-07-18T13:09:44Z</time>
<desc>lat.=55.727161, lon.=26.551573, Alt.=149.275513m. Speed=6.912000m/h.</desc>
<speed>1.920000</speed>
</trkpt>
<trkpt lat="55.727165" lon="26.551615">
<ele>149.822388</ele>
<time>2010-07-18T13:09:45Z</time>
<desc>lat.=55.727165, lon.=26.551615, Alt.=149.822388m. Speed=5.904000m/h.</desc>
<speed>1.640000</speed>
</trkpt>
<trkpt lat="55.727169" lon="26.551640">
<ele>149.892700</ele>
<time>2010-07-18T13:09:46Z</time>
<desc>lat.=55.727169, lon.=26.551640, Alt.=149.892700m. Speed=5.940000m/h.</desc>
<speed>1.650000</speed>
</trkpt>
<trkpt lat="55.727177" lon="26.551655">
<ele>150.142700</ele>
<time>2010-07-18T13:09:47Z</time>
<desc>lat.=55.727177, lon.=26.551655, Alt.=150.142700m. Speed=5.184000m/h.</desc>
<speed>1.440000</speed>
</trkpt>
<trkpt lat="55.727192" lon="26.551670">
<ele>150.130981</ele>
<time>2010-07-18T13:09:48Z</time>
<desc>lat.=55.727192, lon.=26.551670, Alt.=150.130981m. Speed=5.940000m/h.</desc>
<speed>1.650000</speed>
</trkpt>
<trkpt lat="55.727203" lon="26.551689">
<ele>150.162231</ele>
<time>2010-07-18T13:09:49Z</time>
<desc>lat.=55.727203, lon.=26.551689, Alt.=150.162231m. Speed=7.488000m/h.</desc>
<speed>2.080000</speed>
</trkpt>
<trkpt lat="55.727222" lon="26.551712">
<ele>150.076294</ele>
<time>2010-07-18T13:09:50Z</time>
<desc>lat.=55.727222, lon.=26.551712, Alt.=150.076294m. Speed=8.604000m/h.</desc>
<speed>2.390000</speed>
</trkpt>
<trkpt lat="55.727245" lon="26.551725">
<ele>149.736450</ele>
<time>2010-07-18T13:09:51Z</time>
<desc>lat.=55.727245, lon.=26.551725, Alt.=149.736450m. Speed=10.044000m/h.</desc>
<speed>2.790000</speed>
</trkpt>
<trkpt lat="55.727261" lon="26.551741">
<ele>149.627075</ele>
<time>2010-07-18T13:09:52Z</time>
<desc>lat.=55.727261, lon.=26.551741, Alt.=149.627075m. Speed=7.740000m/h.</desc>
<speed>2.150000</speed>
</trkpt>
<trkpt lat="55.727283" lon="26.551752">
<ele>149.447388</ele>
<time>2010-07-18T13:09:53Z</time>
<desc>lat.=55.727283, lon.=26.551752, Alt.=149.447388m. Speed=8.712000m/h.</desc>
<speed>2.420000</speed>
</trkpt>
<trkpt lat="55.727306" lon="26.551756">
<ele>149.287231</ele>
<time>2010-07-18T13:09:54Z</time>
<desc>lat.=55.727306, lon.=26.551756, Alt.=149.287231m. Speed=7.812000m/h.</desc>
<speed>2.170000</speed>
</trkpt>
<trkpt lat="55.727329" lon="26.551754">
<ele>149.466919</ele>
<time>2010-07-18T13:09:55Z</time>
<desc>lat.=55.727329, lon.=26.551754, Alt.=149.466919m. Speed=8.460000m/h.</desc>
<speed>2.350000</speed>
</trkpt>
<trkpt lat="55.727348" lon="26.551748">
<ele>149.408325</ele>
<time>2010-07-18T13:09:56Z</time>
<desc>lat.=55.727348, lon.=26.551748, Alt.=149.408325m. Speed=8.568000m/h.</desc>
<speed>2.380000</speed>
</trkpt>
<trkpt lat="55.727364" lon="26.551752">
<ele>149.427856</ele>
<time>2010-07-18T13:09:57Z</time>
<desc>lat.=55.727364, lon.=26.551752, Alt.=149.427856m. Speed=8.892000m/h.</desc>
<speed>2.470000</speed>
</trkpt>
<trkpt lat="55.727386" lon="26.551758">
<ele>149.498169</ele>
<time>2010-07-18T13:09:58Z</time>
<desc>lat.=55.727386, lon.=26.551758, Alt.=149.498169m. Speed=9.900000m/h.</desc>
<speed>2.750000</speed>
</trkpt>
<trkpt lat="55.727409" lon="26.551767">
<ele>149.521606</ele>
<time>2010-07-18T13:09:59Z</time>
<desc>lat.=55.727409, lon.=26.551767, Alt.=149.521606m. Speed=10.728000m/h.</desc>
<speed>2.980000</speed>
</trkpt>
<trkpt lat="55.727440" lon="26.551785">
<ele>150.091919</ele>
<time>2010-07-18T13:10:00Z</time>
<desc>lat.=55.727440, lon.=26.551785, Alt.=150.091919m. Speed=11.880000m/h.</desc>
<speed>3.300000</speed>
</trkpt>
<trkpt lat="55.727470" lon="26.551794">
<ele>150.615356</ele>
<time>2010-07-18T13:10:01Z</time>
<desc>lat.=55.727470, lon.=26.551794, Alt.=150.615356m. Speed=12.096000m/h.</desc>
<speed>3.360000</speed>
</trkpt>
<trkpt lat="55.727505" lon="26.551792">
<ele>150.931763</ele>
<time>2010-07-18T13:10:02Z</time>
<desc>lat.=55.727505, lon.=26.551792, Alt.=150.931763m. Speed=11.052000m/h.</desc>
<speed>3.070000</speed>
</trkpt>
<trkpt lat="55.727531" lon="26.551788">
<ele>151.478638</ele>
<time>2010-07-18T13:10:03Z</time>
<desc>lat.=55.727531, lon.=26.551788, Alt.=151.478638m. Speed=12.312000m/h.</desc>
<speed>3.420000</speed>
</trkpt>
<trkpt lat="55.727562" lon="26.551785">
<ele>151.431763</ele>
<time>2010-07-18T13:10:04Z</time>
<desc>lat.=55.727562, lon.=26.551785, Alt.=151.431763m. Speed=13.248000m/h.</desc>
<speed>3.680000</speed>
</trkpt>
<trkpt lat="55.727596" lon="26.551781">
<ele>150.548950</ele>
<time>2010-07-18T13:10:05Z</time>
<desc>lat.=55.727596, lon.=26.551781, Alt.=150.548950m. Speed=12.456000m/h.</desc>
<speed>3.460000</speed>
</trkpt>
<trkpt lat="55.727631" lon="26.551785">
<ele>150.615356</ele>
<time>2010-07-18T13:10:06Z</time>
<desc>lat.=55.727631, lon.=26.551785, Alt.=150.615356m. Speed=13.608000m/h.</desc>
<speed>3.780000</speed>
</trkpt>
<trkpt lat="55.727669" lon="26.551794">
<ele>151.162231</ele>
<time>2010-07-18T13:10:07Z</time>
<desc>lat.=55.727669, lon.=26.551794, Alt.=151.162231m. Speed=15.084000m/h.</desc>
<speed>4.190000</speed>
</trkpt>
<trkpt lat="55.727711" lon="26.551804">
<ele>151.865356</ele>
<time>2010-07-18T13:10:08Z</time>
<desc>lat.=55.727711, lon.=26.551804, Alt.=151.865356m. Speed=16.920000m/h.</desc>
<speed>4.700000</speed>
</trkpt>
<trkpt lat="55.727760" lon="26.551802">
<ele>151.642700</ele>
<time>2010-07-18T13:10:09Z</time>
<desc>lat.=55.727760, lon.=26.551802, Alt.=151.642700m. Speed=17.316000m/h.</desc>
<speed>4.810000</speed>
</trkpt>
<trkpt lat="55.727802" lon="26.551798">
<ele>151.709106</ele>
<time>2010-07-18T13:10:10Z</time>
<desc>lat.=55.727802, lon.=26.551798, Alt.=151.709106m. Speed=16.848000m/h.</desc>
<speed>4.680000</speed>
</trkpt>
<trkpt lat="55.727848" lon="26.551796">
<ele>151.076294</ele>
<time>2010-07-18T13:10:11Z</time>
<desc>lat.=55.727848, lon.=26.551796, Alt.=151.076294m. Speed=16.488001m/h.</desc>
<speed>4.580000</speed>
</trkpt>
<trkpt lat="55.727894" lon="26.551802">
<ele>151.095825</ele>
<time>2010-07-18T13:10:12Z</time>
<desc>lat.=55.727894, lon.=26.551802, Alt.=151.095825m. Speed=16.524000m/h.</desc>
<speed>4.590000</speed>
</trkpt>
<trkpt lat="55.727936" lon="26.551811">
<ele>151.076294</ele>
<time>2010-07-18T13:10:13Z</time>
<desc>lat.=55.727936, lon.=26.551811, Alt.=151.076294m. Speed=16.667999m/h.</desc>
<speed>4.630000</speed>
</trkpt>
<trkpt lat="55.727982" lon="26.551823">
<ele>151.443481</ele>
<time>2010-07-18T13:10:14Z</time>
<desc>lat.=55.727982, lon.=26.551823, Alt.=151.443481m. Speed=18.612000m/h.</desc>
<speed>5.170000</speed>
</trkpt>
<trkpt lat="55.728031" lon="26.551832">
<ele>151.435669</ele>
<time>2010-07-18T13:10:15Z</time>
<desc>lat.=55.728031, lon.=26.551832, Alt.=151.435669m. Speed=17.964001m/h.</desc>
<speed>4.990000</speed>
</trkpt>
<trkpt lat="55.728077" lon="26.551836">
<ele>151.584106</ele>
<time>2010-07-18T13:10:16Z</time>
<desc>lat.=55.728077, lon.=26.551836, Alt.=151.584106m. Speed=18.288000m/h.</desc>
<speed>5.080000</speed>
</trkpt>
<trkpt lat="55.728123" lon="26.551832">
<ele>151.904419</ele>
<time>2010-07-18T13:10:17Z</time>
<desc>lat.=55.728123, lon.=26.551832, Alt.=151.904419m. Speed=18.288000m/h.</desc>
<speed>5.080000</speed>
</trkpt>
<trkpt lat="55.728165" lon="26.551832">
<ele>152.248169</ele>
<time>2010-07-18T13:10:18Z</time>
<desc>lat.=55.728165, lon.=26.551832, Alt.=152.248169m. Speed=17.388000m/h.</desc>
<speed>4.830000</speed>
</trkpt>
<trkpt lat="55.728210" lon="26.551836">
<ele>152.310669</ele>
<time>2010-07-18T13:10:19Z</time>
<desc>lat.=55.728210, lon.=26.551836, Alt.=152.310669m. Speed=17.496000m/h.</desc>
<speed>4.860000</speed>
</trkpt>
<trkpt lat="55.728256" lon="26.551840">
<ele>152.017700</ele>
<time>2010-07-18T13:10:20Z</time>
<desc>lat.=55.728256, lon.=26.551840, Alt.=152.017700m. Speed=16.559999m/h.</desc>
<speed>4.600000</speed>
</trkpt>
<trkpt lat="55.728298" lon="26.551844">
<ele>151.966919</ele>
<time>2010-07-18T13:10:21Z</time>
<desc>lat.=55.728298, lon.=26.551844, Alt.=151.966919m. Speed=15.912000m/h.</desc>
<speed>4.420000</speed>
</trkpt>
<trkpt lat="55.728336" lon="26.551846">
<ele>152.123169</ele>
<time>2010-07-18T13:10:22Z</time>
<desc>lat.=55.728336, lon.=26.551846, Alt.=152.123169m. Speed=15.264000m/h.</desc>
<speed>4.240000</speed>
</trkpt>
<trkpt lat="55.728371" lon="26.551849">
<ele>152.084106</ele>
<time>2010-07-18T13:10:23Z</time>
<desc>lat.=55.728371, lon.=26.551849, Alt.=152.084106m. Speed=14.580000m/h.</desc>
<speed>4.050000</speed>
</trkpt>
<trkpt lat="55.728409" lon="26.551857">
<ele>152.255981</ele>
<time>2010-07-18T13:10:24Z</time>
<desc>lat.=55.728409, lon.=26.551857, Alt.=152.255981m. Speed=14.292000m/h.</desc>
<speed>3.970000</speed>
</trkpt>
<trkpt lat="55.728447" lon="26.551865">
<ele>152.420044</ele>
<time>2010-07-18T13:10:25Z</time>
<desc>lat.=55.728447, lon.=26.551865, Alt.=152.420044m. Speed=15.768000m/h.</desc>
<speed>4.380000</speed>
</trkpt>
<trkpt lat="55.728493" lon="26.551870">
<ele>153.013794</ele>
<time>2010-07-18T13:10:26Z</time>
<desc>lat.=55.728493, lon.=26.551870, Alt.=153.013794m. Speed=16.632000m/h.</desc>
<speed>4.620000</speed>
</trkpt>
<trkpt lat="55.728531" lon="26.551874">
<ele>153.068481</ele>
<time>2010-07-18T13:10:27Z</time>
<desc>lat.=55.728531, lon.=26.551874, Alt.=153.068481m. Speed=16.524000m/h.</desc>
<speed>4.590000</speed>
</trkpt>
<trkpt lat="55.728573" lon="26.551876">
<ele>152.939575</ele>
<time>2010-07-18T13:10:28Z</time>
<desc>lat.=55.728573, lon.=26.551876, Alt.=152.939575m. Speed=16.955999m/h.</desc>
<speed>4.710000</speed>
</trkpt>
<trkpt lat="55.728615" lon="26.551878">
<ele>152.619263</ele>
<time>2010-07-18T13:10:29Z</time>
<desc>lat.=55.728615, lon.=26.551878, Alt.=152.619263m. Speed=16.200001m/h.</desc>
<speed>4.500000</speed>
</trkpt>
<trkpt lat="55.728653" lon="26.551880">
<ele>152.638794</ele>
<time>2010-07-18T13:10:30Z</time>
<desc>lat.=55.728653, lon.=26.551880, Alt.=152.638794m. Speed=15.984000m/h.</desc>
<speed>4.440000</speed>
</trkpt>
<trkpt lat="55.728691" lon="26.551886">
<ele>152.455200</ele>
<time>2010-07-18T13:10:31Z</time>
<desc>lat.=55.728691, lon.=26.551886, Alt.=152.455200m. Speed=15.012000m/h.</desc>
<speed>4.170000</speed>
</trkpt>
<trkpt lat="55.728729" lon="26.551891">
<ele>151.841919</ele>
<time>2010-07-18T13:10:32Z</time>
<desc>lat.=55.728729, lon.=26.551891, Alt.=151.841919m. Speed=15.624000m/h.</desc>
<speed>4.340000</speed>
</trkpt>
<trkpt lat="55.728771" lon="26.551897">
<ele>151.666138</ele>
<time>2010-07-18T13:10:33Z</time>
<desc>lat.=55.728771, lon.=26.551897, Alt.=151.666138m. Speed=15.768000m/h.</desc>
<speed>4.380000</speed>
</trkpt>
<trkpt lat="55.728817" lon="26.551895">
<ele>151.634888</ele>
<time>2010-07-18T13:10:34Z</time>
<desc>lat.=55.728817, lon.=26.551895, Alt.=151.634888m. Speed=15.552000m/h.</desc>
<speed>4.320000</speed>
</trkpt>
<trkpt lat="55.728855" lon="26.551893">
<ele>151.423950</ele>
<time>2010-07-18T13:10:35Z</time>
<desc>lat.=55.728855, lon.=26.551893, Alt.=151.423950m. Speed=15.948000m/h.</desc>
<speed>4.430000</speed>
</trkpt>
<trkpt lat="55.728893" lon="26.551895">
<ele>151.810669</ele>
<time>2010-07-18T13:10:36Z</time>
<desc>lat.=55.728893, lon.=26.551895, Alt.=151.810669m. Speed=16.164000m/h.</desc>
<speed>4.490000</speed>
</trkpt>
<trkpt lat="55.728935" lon="26.551903">
<ele>151.724731</ele>
<time>2010-07-18T13:10:37Z</time>
<desc>lat.=55.728935, lon.=26.551903, Alt.=151.724731m. Speed=16.452000m/h.</desc>
<speed>4.570000</speed>
</trkpt>
<trkpt lat="55.728981" lon="26.551905">
<ele>151.740356</ele>
<time>2010-07-18T13:10:38Z</time>
<desc>lat.=55.728981, lon.=26.551905, Alt.=151.740356m. Speed=16.271999m/h.</desc>
<speed>4.520000</speed>
</trkpt>
<trkpt lat="55.729027" lon="26.551912">
<ele>152.060669</ele>
<time>2010-07-18T13:10:39Z</time>
<desc>lat.=55.729027, lon.=26.551912, Alt.=152.060669m. Speed=17.459999m/h.</desc>
<speed>4.850000</speed>
</trkpt>
<trkpt lat="55.729073" lon="26.551918">
<ele>152.474731</ele>
<time>2010-07-18T13:10:40Z</time>
<desc>lat.=55.729073, lon.=26.551918, Alt.=152.474731m. Speed=16.667999m/h.</desc>
<speed>4.630000</speed>
</trkpt>
<trkpt lat="55.729111" lon="26.551920">
<ele>152.400513</ele>
<time>2010-07-18T13:10:41Z</time>
<desc>lat.=55.729111, lon.=26.551920, Alt.=152.400513m. Speed=15.840000m/h.</desc>
<speed>4.400000</speed>
</trkpt>
<trkpt lat="55.729149" lon="26.551922">
<ele>152.142700</ele>
<time>2010-07-18T13:10:42Z</time>
<desc>lat.=55.729149, lon.=26.551922, Alt.=152.142700m. Speed=14.904000m/h.</desc>
<speed>4.140000</speed>
</trkpt>
<trkpt lat="55.729187" lon="26.551924">
<ele>151.861450</ele>
<time>2010-07-18T13:10:43Z</time>
<desc>lat.=55.729187, lon.=26.551924, Alt.=151.861450m. Speed=14.220000m/h.</desc>
<speed>3.950000</speed>
</trkpt>
<trkpt lat="55.729221" lon="26.551924">
<ele>151.818481</ele>
<time>2010-07-18T13:10:44Z</time>
<desc>lat.=55.729221, lon.=26.551924, Alt.=151.818481m. Speed=13.500000m/h.</desc>
<speed>3.750000</speed>
</trkpt>
<trkpt lat="55.729256" lon="26.551929">
<ele>151.478638</ele>
<time>2010-07-18T13:10:45Z</time>
<desc>lat.=55.729256, lon.=26.551929, Alt.=151.478638m. Speed=13.896000m/h.</desc>
<speed>3.860000</speed>
</trkpt>
<trkpt lat="55.729294" lon="26.551931">
<ele>151.353638</ele>
<time>2010-07-18T13:10:46Z</time>
<desc>lat.=55.729294, lon.=26.551931, Alt.=151.353638m. Speed=14.148000m/h.</desc>
<speed>3.930000</speed>
</trkpt>
<trkpt lat="55.729332" lon="26.551931">
<ele>151.166138</ele>
<time>2010-07-18T13:10:47Z</time>
<desc>lat.=55.729332, lon.=26.551931, Alt.=151.166138m. Speed=14.508000m/h.</desc>
<speed>4.030000</speed>
</trkpt>
<trkpt lat="55.729370" lon="26.551933">
<ele>151.146606</ele>
<time>2010-07-18T13:10:48Z</time>
<desc>lat.=55.729370, lon.=26.551933, Alt.=151.146606m. Speed=14.328000m/h.</desc>
<speed>3.980000</speed>
</trkpt>
<trkpt lat="55.729408" lon="26.551935">
<ele>151.201294</ele>
<time>2010-07-18T13:10:49Z</time>
<desc>lat.=55.729408, lon.=26.551935, Alt.=151.201294m. Speed=14.868000m/h.</desc>
<speed>4.130000</speed>
</trkpt>
<trkpt lat="55.729446" lon="26.551937">
<ele>151.271606</ele>
<time>2010-07-18T13:10:50Z</time>
<desc>lat.=55.729446, lon.=26.551937, Alt.=151.271606m. Speed=14.724000m/h.</desc>
<speed>4.090000</speed>
</trkpt>
<trkpt lat="55.729485" lon="26.551939">
<ele>151.459106</ele>
<time>2010-07-18T13:10:51Z</time>
<desc>lat.=55.729485, lon.=26.551939, Alt.=151.459106m. Speed=14.904000m/h.</desc>
<speed>4.140000</speed>
</trkpt>
<trkpt lat="55.729523" lon="26.551945">
<ele>151.447388</ele>
<time>2010-07-18T13:10:52Z</time>
<desc>lat.=55.729523, lon.=26.551945, Alt.=151.447388m. Speed=14.868000m/h.</desc>
<speed>4.130000</speed>
</trkpt>
<trkpt lat="55.729561" lon="26.551947">
<ele>151.494263</ele>
<time>2010-07-18T13:10:53Z</time>
<desc>lat.=55.729561, lon.=26.551947, Alt.=151.494263m. Speed=15.048000m/h.</desc>
<speed>4.180000</speed>
</trkpt>
<trkpt lat="55.729599" lon="26.551947">
<ele>151.685669</ele>
<time>2010-07-18T13:10:54Z</time>
<desc>lat.=55.729599, lon.=26.551947, Alt.=151.685669m. Speed=15.264000m/h.</desc>
<speed>4.240000</speed>
</trkpt>
<trkpt lat="55.729641" lon="26.551949">
<ele>151.810669</ele>
<time>2010-07-18T13:10:55Z</time>
<desc>lat.=55.729641, lon.=26.551949, Alt.=151.810669m. Speed=15.588000m/h.</desc>
<speed>4.330000</speed>
</trkpt>
<trkpt lat="55.729679" lon="26.551952">
<ele>151.927856</ele>
<time>2010-07-18T13:10:56Z</time>
<desc>lat.=55.729679, lon.=26.551952, Alt.=151.927856m. Speed=14.112000m/h.</desc>
<speed>3.920000</speed>
</trkpt>
<trkpt lat="55.729717" lon="26.551958">
<ele>151.939575</ele>
<time>2010-07-18T13:10:57Z</time>
<desc>lat.=55.729717, lon.=26.551958, Alt.=151.939575m. Speed=15.192000m/h.</desc>
<speed>4.220000</speed>
</trkpt>
<trkpt lat="55.729755" lon="26.551962">
<ele>152.045044</ele>
<time>2010-07-18T13:10:58Z</time>
<desc>lat.=55.729755, lon.=26.551962, Alt.=152.045044m. Speed=15.228000m/h.</desc>
<speed>4.230000</speed>
</trkpt>
<trkpt lat="55.729794" lon="26.551964">
<ele>152.166138</ele>
<time>2010-07-18T13:10:59Z</time>
<desc>lat.=55.729794, lon.=26.551964, Alt.=152.166138m. Speed=15.624000m/h.</desc>
<speed>4.340000</speed>
</trkpt>
<trkpt lat="55.729832" lon="26.551964">
<ele>152.127075</ele>
<time>2010-07-18T13:11:00Z</time>
<desc>lat.=55.729832, lon.=26.551964, Alt.=152.127075m. Speed=14.544000m/h.</desc>
<speed>4.040000</speed>
</trkpt>
<trkpt lat="55.729870" lon="26.551970">
<ele>152.076294</ele>
<time>2010-07-18T13:11:01Z</time>
<desc>lat.=55.729870, lon.=26.551970, Alt.=152.076294m. Speed=16.200001m/h.</desc>
<speed>4.500000</speed>
</trkpt>
<trkpt lat="55.729908" lon="26.551971">
<ele>152.127075</ele>
<time>2010-07-18T13:11:02Z</time>
<desc>lat.=55.729908, lon.=26.551971, Alt.=152.127075m. Speed=15.624000m/h.</desc>
<speed>4.340000</speed>
</trkpt>
<trkpt lat="55.729950" lon="26.551973">
<ele>152.224731</ele>
<time>2010-07-18T13:11:03Z</time>
<desc>lat.=55.729950, lon.=26.551973, Alt.=152.224731m. Speed=16.236000m/h.</desc>
<speed>4.510000</speed>
</trkpt>
<trkpt lat="55.729992" lon="26.551979">
<ele>152.252075</ele>
<time>2010-07-18T13:11:04Z</time>
<desc>lat.=55.729992, lon.=26.551979, Alt.=152.252075m. Speed=15.804000m/h.</desc>
<speed>4.390000</speed>
</trkpt>
<trkpt lat="55.730034" lon="26.551981">
<ele>152.463013</ele>
<time>2010-07-18T13:11:05Z</time>
<desc>lat.=55.730034, lon.=26.551981, Alt.=152.463013m. Speed=15.624000m/h.</desc>
<speed>4.340000</speed>
</trkpt>
<trkpt lat="55.730068" lon="26.551979">
<ele>152.509888</ele>
<time>2010-07-18T13:11:06Z</time>
<desc>lat.=55.730068, lon.=26.551979, Alt.=152.509888m. Speed=15.912000m/h.</desc>
<speed>4.420000</speed>
</trkpt>
<trkpt lat="55.730110" lon="26.551979">
<ele>152.498169</ele>
<time>2010-07-18T13:11:07Z</time>
<desc>lat.=55.730110, lon.=26.551979, Alt.=152.498169m. Speed=15.768000m/h.</desc>
<speed>4.380000</speed>
</trkpt>
<trkpt lat="55.730152" lon="26.551983">
<ele>152.681763</ele>
<time>2010-07-18T13:11:08Z</time>
<desc>lat.=55.730152, lon.=26.551983, Alt.=152.681763m. Speed=15.624000m/h.</desc>
<speed>4.340000</speed>
</trkpt>
<trkpt lat="55.730190" lon="26.551983">
<ele>152.716919</ele>
<time>2010-07-18T13:11:09Z</time>
<desc>lat.=55.730190, lon.=26.551983, Alt.=152.716919m. Speed=15.264000m/h.</desc>
<speed>4.240000</speed>
</trkpt>
<trkpt lat="55.730228" lon="26.551983">
<ele>152.798950</ele>
<time>2010-07-18T13:11:10Z</time>
<desc>lat.=55.730228, lon.=26.551983, Alt.=152.798950m. Speed=13.212000m/h.</desc>
<speed>3.670000</speed>
</trkpt>
<trkpt lat="55.730263" lon="26.551985">
<ele>152.963013</ele>
<time>2010-07-18T13:11:11Z</time>
<desc>lat.=55.730263, lon.=26.551985, Alt.=152.963013m. Speed=13.464000m/h.</desc>
<speed>3.740000</speed>
</trkpt>
<trkpt lat="55.730297" lon="26.551991">
<ele>153.111450</ele>
<time>2010-07-18T13:11:12Z</time>
<desc>lat.=55.730297, lon.=26.551991, Alt.=153.111450m. Speed=12.636000m/h.</desc>
<speed>3.510000</speed>
</trkpt>
<trkpt lat="55.730331" lon="26.551987">
<ele>153.017700</ele>
<time>2010-07-18T13:11:13Z</time>
<desc>lat.=55.730331, lon.=26.551987, Alt.=153.017700m. Speed=11.952000m/h.</desc>
<speed>3.320000</speed>
</trkpt>
<trkpt lat="55.730362" lon="26.551987">
<ele>153.201294</ele>
<time>2010-07-18T13:11:14Z</time>
<desc>lat.=55.730362, lon.=26.551987, Alt.=153.201294m. Speed=12.060000m/h.</desc>
<speed>3.350000</speed>
</trkpt>
<trkpt lat="55.730396" lon="26.551985">
<ele>153.177856</ele>
<time>2010-07-18T13:11:15Z</time>
<desc>lat.=55.730396, lon.=26.551985, Alt.=153.177856m. Speed=12.924000m/h.</desc>
<speed>3.590000</speed>
</trkpt>
<trkpt lat="55.730431" lon="26.551991">
<ele>153.283325</ele>
<time>2010-07-18T13:11:16Z</time>
<desc>lat.=55.730431, lon.=26.551991, Alt.=153.283325m. Speed=11.592000m/h.</desc>
<speed>3.220000</speed>
</trkpt>
<trkpt lat="55.730469" lon="26.551994">
<ele>153.220825</ele>
<time>2010-07-18T13:11:17Z</time>
<desc>lat.=55.730469, lon.=26.551994, Alt.=153.220825m. Speed=12.924000m/h.</desc>
<speed>3.590000</speed>
</trkpt>
<trkpt lat="55.730507" lon="26.552000">
<ele>153.306763</ele>
<time>2010-07-18T13:11:18Z</time>
<desc>lat.=55.730507, lon.=26.552000, Alt.=153.306763m. Speed=16.056000m/h.</desc>
<speed>4.460000</speed>
</trkpt>
<trkpt lat="55.730549" lon="26.552002">
<ele>153.220825</ele>
<time>2010-07-18T13:11:19Z</time>
<desc>lat.=55.730549, lon.=26.552002, Alt.=153.220825m. Speed=16.236000m/h.</desc>
<speed>4.510000</speed>
</trkpt>
<trkpt lat="55.730595" lon="26.552010">
<ele>152.986450</ele>
<time>2010-07-18T13:11:20Z</time>
<desc>lat.=55.730595, lon.=26.552010, Alt.=152.986450m. Speed=17.892000m/h.</desc>
<speed>4.970000</speed>
</trkpt>
<trkpt lat="55.730640" lon="26.552002">
<ele>152.416138</ele>
<time>2010-07-18T13:11:21Z</time>
<desc>lat.=55.730640, lon.=26.552002, Alt.=152.416138m. Speed=18.648001m/h.</desc>
<speed>5.180000</speed>
</trkpt>
<trkpt lat="55.730686" lon="26.551992">
<ele>152.806763</ele>
<time>2010-07-18T13:11:22Z</time>
<desc>lat.=55.730686, lon.=26.551992, Alt.=152.806763m. Speed=19.188000m/h.</desc>
<speed>5.330000</speed>
</trkpt>
<trkpt lat="55.730736" lon="26.551994">
<ele>152.998169</ele>
<time>2010-07-18T13:11:23Z</time>
<desc>lat.=55.730736, lon.=26.551994, Alt.=152.998169m. Speed=19.656000m/h.</desc>
<speed>5.460000</speed>
</trkpt>
<trkpt lat="55.730785" lon="26.551991">
<ele>152.970825</ele>
<time>2010-07-18T13:11:24Z</time>
<desc>lat.=55.730785, lon.=26.551991, Alt.=152.970825m. Speed=19.080000m/h.</desc>
<speed>5.300000</speed>
</trkpt>
<trkpt lat="55.730827" lon="26.551991">
<ele>152.841919</ele>
<time>2010-07-18T13:11:25Z</time>
<desc>lat.=55.730827, lon.=26.551991, Alt.=152.841919m. Speed=18.252001m/h.</desc>
<speed>5.070000</speed>
</trkpt>
<trkpt lat="55.730869" lon="26.551991">
<ele>153.127075</ele>
<time>2010-07-18T13:11:26Z</time>
<desc>lat.=55.730869, lon.=26.551991, Alt.=153.127075m. Speed=17.964001m/h.</desc>
<speed>4.990000</speed>
</trkpt>
<trkpt lat="55.730919" lon="26.551996">
<ele>153.873169</ele>
<time>2010-07-18T13:11:27Z</time>
<desc>lat.=55.730919, lon.=26.551996, Alt.=153.873169m. Speed=18.396000m/h.</desc>
<speed>5.110000</speed>
</trkpt>
<trkpt lat="55.730965" lon="26.551996">
<ele>153.689575</ele>
<time>2010-07-18T13:11:28Z</time>
<desc>lat.=55.730965, lon.=26.551996, Alt.=153.689575m. Speed=17.532000m/h.</desc>
<speed>4.870000</speed>
</trkpt>
<trkpt lat="55.731007" lon="26.552002">
<ele>154.099731</ele>
<time>2010-07-18T13:11:29Z</time>
<desc>lat.=55.731007, lon.=26.552002, Alt.=154.099731m. Speed=17.028000m/h.</desc>
<speed>4.730000</speed>
</trkpt>
<trkpt lat="55.731049" lon="26.551998">
<ele>153.939575</ele>
<time>2010-07-18T13:11:30Z</time>
<desc>lat.=55.731049, lon.=26.551998, Alt.=153.939575m. Speed=16.812000m/h.</desc>
<speed>4.670000</speed>
</trkpt>
<trkpt lat="55.731094" lon="26.552000">
<ele>154.259888</ele>
<time>2010-07-18T13:11:31Z</time>
<desc>lat.=55.731094, lon.=26.552000, Alt.=154.259888m. Speed=17.351999m/h.</desc>
<speed>4.820000</speed>
</trkpt>
<trkpt lat="55.731136" lon="26.552004">
<ele>154.505981</ele>
<time>2010-07-18T13:11:32Z</time>
<desc>lat.=55.731136, lon.=26.552004, Alt.=154.505981m. Speed=15.984000m/h.</desc>
<speed>4.440000</speed>
</trkpt>
<trkpt lat="55.731171" lon="26.552006">
<ele>154.541138</ele>
<time>2010-07-18T13:11:33Z</time>
<desc>lat.=55.731171, lon.=26.552006, Alt.=154.541138m. Speed=16.020000m/h.</desc>
<speed>4.450000</speed>
</trkpt>
<trkpt lat="55.731205" lon="26.552006">
<ele>154.564575</ele>
<time>2010-07-18T13:11:34Z</time>
<desc>lat.=55.731205, lon.=26.552006, Alt.=154.564575m. Speed=16.164000m/h.</desc>
<speed>4.490000</speed>
</trkpt>
<trkpt lat="55.731251" lon="26.552008">
<ele>154.662231</ele>
<time>2010-07-18T13:11:35Z</time>
<desc>lat.=55.731251, lon.=26.552008, Alt.=154.662231m. Speed=15.948000m/h.</desc>
<speed>4.430000</speed>
</trkpt>
<trkpt lat="55.731293" lon="26.552008">
<ele>154.802856</ele>
<time>2010-07-18T13:11:36Z</time>
<desc>lat.=55.731293, lon.=26.552008, Alt.=154.802856m. Speed=16.200001m/h.</desc>
<speed>4.500000</speed>
</trkpt>
<trkpt lat="55.731335" lon="26.552013">
<ele>154.912231</ele>
<time>2010-07-18T13:11:37Z</time>
<desc>lat.=55.731335, lon.=26.552013, Alt.=154.912231m. Speed=16.955999m/h.</desc>
<speed>4.710000</speed>
</trkpt>
<trkpt lat="55.731377" lon="26.552015">
<ele>154.814575</ele>
<time>2010-07-18T13:11:38Z</time>
<desc>lat.=55.731377, lon.=26.552015, Alt.=154.814575m. Speed=17.604000m/h.</desc>
<speed>4.890000</speed>
</trkpt>
<trkpt lat="55.731422" lon="26.552017">
<ele>154.880981</ele>
<time>2010-07-18T13:11:39Z</time>
<desc>lat.=55.731422, lon.=26.552017, Alt.=154.880981m. Speed=18.827999m/h.</desc>
<speed>5.230000</speed>
</trkpt>
<trkpt lat="55.731464" lon="26.552017">
<ele>155.009888</ele>
<time>2010-07-18T13:11:40Z</time>
<desc>lat.=55.731464, lon.=26.552017, Alt.=155.009888m. Speed=16.667999m/h.</desc>
<speed>4.630000</speed>
</trkpt>
<trkpt lat="55.731506" lon="26.552015">
<ele>154.974731</ele>
<time>2010-07-18T13:11:41Z</time>
<desc>lat.=55.731506, lon.=26.552015, Alt.=154.974731m. Speed=17.532000m/h.</desc>
<speed>4.870000</speed>
</trkpt>
<trkpt lat="55.731548" lon="26.552013">
<ele>155.045044</ele>
<time>2010-07-18T13:11:42Z</time>
<desc>lat.=55.731548, lon.=26.552013, Alt.=155.045044m. Speed=17.243999m/h.</desc>
<speed>4.790000</speed>
</trkpt>
<trkpt lat="55.731594" lon="26.552008">
<ele>155.150513</ele>
<time>2010-07-18T13:11:43Z</time>
<desc>lat.=55.731594, lon.=26.552008, Alt.=155.150513m. Speed=17.856001m/h.</desc>
<speed>4.960000</speed>
</trkpt>
<trkpt lat="55.731636" lon="26.552006">
<ele>155.287231</ele>
<time>2010-07-18T13:11:44Z</time>
<desc>lat.=55.731636, lon.=26.552006, Alt.=155.287231m. Speed=18.360001m/h.</desc>
<speed>5.100000</speed>
</trkpt>
<trkpt lat="55.731686" lon="26.552002">
<ele>155.330200</ele>
<time>2010-07-18T13:11:45Z</time>
<desc>lat.=55.731686, lon.=26.552002, Alt.=155.330200m. Speed=18.827999m/h.</desc>
<speed>5.230000</speed>
</trkpt>
<trkpt lat="55.731731" lon="26.551998">
<ele>155.232544</ele>
<time>2010-07-18T13:11:46Z</time>
<desc>lat.=55.731731, lon.=26.551998, Alt.=155.232544m. Speed=19.188000m/h.</desc>
<speed>5.330000</speed>
</trkpt>
<trkpt lat="55.731781" lon="26.551996">
<ele>155.423950</ele>
<time>2010-07-18T13:11:47Z</time>
<desc>lat.=55.731781, lon.=26.551996, Alt.=155.423950m. Speed=18.000000m/h.</desc>
<speed>5.000000</speed>
</trkpt>
<trkpt lat="55.731827" lon="26.551996">
<ele>155.533325</ele>
<time>2010-07-18T13:11:48Z</time>
<desc>lat.=55.731827, lon.=26.551996, Alt.=155.533325m. Speed=18.792000m/h.</desc>
<speed>5.220000</speed>
</trkpt>
<trkpt lat="55.731869" lon="26.551996">
<ele>155.509888</ele>
<time>2010-07-18T13:11:49Z</time>
<desc>lat.=55.731869, lon.=26.551996, Alt.=155.509888m. Speed=18.684000m/h.</desc>
<speed>5.190000</speed>
</trkpt>
<trkpt lat="55.731918" lon="26.551996">
<ele>155.521606</ele>
<time>2010-07-18T13:11:50Z</time>
<desc>lat.=55.731918, lon.=26.551996, Alt.=155.521606m. Speed=18.396000m/h.</desc>
<speed>5.110000</speed>
</trkpt>
<trkpt lat="55.731964" lon="26.551994">
<ele>155.447388</ele>
<time>2010-07-18T13:11:51Z</time>
<desc>lat.=55.731964, lon.=26.551994, Alt.=155.447388m. Speed=18.576000m/h.</desc>
<speed>5.160000</speed>
</trkpt>
<trkpt lat="55.732014" lon="26.551989">
<ele>155.490356</ele>
<time>2010-07-18T13:11:52Z</time>
<desc>lat.=55.732014, lon.=26.551989, Alt.=155.490356m. Speed=19.548000m/h.</desc>
<speed>5.430000</speed>
</trkpt>
<trkpt lat="55.732063" lon="26.551987">
<ele>155.318481</ele>
<time>2010-07-18T13:11:53Z</time>
<desc>lat.=55.732063, lon.=26.551987, Alt.=155.318481m. Speed=20.195999m/h.</desc>
<speed>5.610000</speed>
</trkpt>
<trkpt lat="55.732117" lon="26.551985">
<ele>155.115356</ele>
<time>2010-07-18T13:11:54Z</time>
<desc>lat.=55.732117, lon.=26.551985, Alt.=155.115356m. Speed=20.340000m/h.</desc>
<speed>5.650000</speed>
</trkpt>
<trkpt lat="55.732162" lon="26.551981">
<ele>154.955200</ele>
<time>2010-07-18T13:11:55Z</time>
<desc>lat.=55.732162, lon.=26.551981, Alt.=154.955200m. Speed=20.340000m/h.</desc>
<speed>5.650000</speed>
</trkpt>
<trkpt lat="55.732216" lon="26.551975">
<ele>154.869263</ele>
<time>2010-07-18T13:11:56Z</time>
<desc>lat.=55.732216, lon.=26.551975, Alt.=154.869263m. Speed=20.232000m/h.</desc>
<speed>5.620000</speed>
</trkpt>
<trkpt lat="55.732265" lon="26.551975">
<ele>154.810669</ele>
<time>2010-07-18T13:11:57Z</time>
<desc>lat.=55.732265, lon.=26.551975, Alt.=154.810669m. Speed=20.304001m/h.</desc>
<speed>5.640000</speed>
</trkpt>
<trkpt lat="55.732315" lon="26.551975">
<ele>154.720825</ele>
<time>2010-07-18T13:11:58Z</time>
<desc>lat.=55.732315, lon.=26.551975, Alt.=154.720825m. Speed=21.024000m/h.</desc>
<speed>5.840000</speed>
</trkpt>
<trkpt lat="55.732372" lon="26.551968">
<ele>154.576294</ele>
<time>2010-07-18T13:11:59Z</time>
<desc>lat.=55.732372, lon.=26.551968, Alt.=154.576294m. Speed=21.636000m/h.</desc>
<speed>6.010000</speed>
</trkpt>
<trkpt lat="55.732422" lon="26.551962">
<ele>154.451294</ele>
<time>2010-07-18T13:12:00Z</time>
<desc>lat.=55.732422, lon.=26.551962, Alt.=154.451294m. Speed=21.492001m/h.</desc>
<speed>5.970000</speed>
</trkpt>
<trkpt lat="55.732475" lon="26.551956">
<ele>154.451294</ele>
<time>2010-07-18T13:12:01Z</time>
<desc>lat.=55.732475, lon.=26.551956, Alt.=154.451294m. Speed=21.275999m/h.</desc>
<speed>5.910000</speed>
</trkpt>
<trkpt lat="55.732533" lon="26.551956">
<ele>154.447388</ele>
<time>2010-07-18T13:12:02Z</time>
<desc>lat.=55.732533, lon.=26.551956, Alt.=154.447388m. Speed=21.059999m/h.</desc>
<speed>5.850000</speed>
</trkpt>
<trkpt lat="55.732582" lon="26.551952">
<ele>154.361450</ele>
<time>2010-07-18T13:12:03Z</time>
<desc>lat.=55.732582, lon.=26.551952, Alt.=154.361450m. Speed=20.952000m/h.</desc>
<speed>5.820000</speed>
</trkpt>
<trkpt lat="55.732635" lon="26.551952">
<ele>154.443481</ele>
<time>2010-07-18T13:12:04Z</time>
<desc>lat.=55.732635, lon.=26.551952, Alt.=154.443481m. Speed=20.808001m/h.</desc>
<speed>5.780000</speed>
</trkpt>
<trkpt lat="55.732689" lon="26.551950">
<ele>154.463013</ele>
<time>2010-07-18T13:12:05Z</time>
<desc>lat.=55.732689, lon.=26.551950, Alt.=154.463013m. Speed=20.448000m/h.</desc>
<speed>5.680000</speed>
</trkpt>
<trkpt lat="55.732742" lon="26.551949">
<ele>154.435669</ele>
<time>2010-07-18T13:12:06Z</time>
<desc>lat.=55.732742, lon.=26.551949, Alt.=154.435669m. Speed=20.160000m/h.</desc>
<speed>5.600000</speed>
</trkpt>
<trkpt lat="55.732788" lon="26.551943">
<ele>154.232544</ele>
<time>2010-07-18T13:12:07Z</time>
<desc>lat.=55.732788, lon.=26.551943, Alt.=154.232544m. Speed=20.052000m/h.</desc>
<speed>5.570000</speed>
</trkpt>
<trkpt lat="55.732838" lon="26.551937">
<ele>154.283325</ele>
<time>2010-07-18T13:12:08Z</time>
<desc>lat.=55.732838, lon.=26.551937, Alt.=154.283325m. Speed=19.728001m/h.</desc>
<speed>5.480000</speed>
</trkpt>
<trkpt lat="55.732887" lon="26.551935">
<ele>154.127075</ele>
<time>2010-07-18T13:12:09Z</time>
<desc>lat.=55.732887, lon.=26.551935, Alt.=154.127075m. Speed=19.620001m/h.</desc>
<speed>5.450000</speed>
</trkpt>
<trkpt lat="55.732937" lon="26.551939">
<ele>154.021606</ele>
<time>2010-07-18T13:12:10Z</time>
<desc>lat.=55.732937, lon.=26.551939, Alt.=154.021606m. Speed=19.476000m/h.</desc>
<speed>5.410000</speed>
</trkpt>
<trkpt lat="55.732986" lon="26.551949">
<ele>154.029419</ele>
<time>2010-07-18T13:12:11Z</time>
<desc>lat.=55.732986, lon.=26.551949, Alt.=154.029419m. Speed=19.620001m/h.</desc>
<speed>5.450000</speed>
</trkpt>
<trkpt lat="55.733036" lon="26.551950">
<ele>154.115356</ele>
<time>2010-07-18T13:12:12Z</time>
<desc>lat.=55.733036, lon.=26.551950, Alt.=154.115356m. Speed=20.232000m/h.</desc>
<speed>5.620000</speed>
</trkpt>
<trkpt lat="55.733089" lon="26.551947">
<ele>153.951294</ele>
<time>2010-07-18T13:12:13Z</time>
<desc>lat.=55.733089, lon.=26.551947, Alt.=153.951294m. Speed=20.916000m/h.</desc>
<speed>5.810000</speed>
</trkpt>
<trkpt lat="55.733143" lon="26.551941">
<ele>153.927856</ele>
<time>2010-07-18T13:12:14Z</time>
<desc>lat.=55.733143, lon.=26.551941, Alt.=153.927856m. Speed=21.636000m/h.</desc>
<speed>6.010000</speed>
</trkpt>
<trkpt lat="55.733196" lon="26.551937">
<ele>153.736450</ele>
<time>2010-07-18T13:12:15Z</time>
<desc>lat.=55.733196, lon.=26.551937, Alt.=153.736450m. Speed=21.708000m/h.</desc>
<speed>6.030000</speed>
</trkpt>
<trkpt lat="55.733250" lon="26.551933">
<ele>153.666138</ele>
<time>2010-07-18T13:12:16Z</time>
<desc>lat.=55.733250, lon.=26.551933, Alt.=153.666138m. Speed=21.600000m/h.</desc>
<speed>6.000000</speed>
</trkpt>
<trkpt lat="55.733299" lon="26.551928">
<ele>153.388794</ele>
<time>2010-07-18T13:12:17Z</time>
<desc>lat.=55.733299, lon.=26.551928, Alt.=153.388794m. Speed=21.563999m/h.</desc>
<speed>5.990000</speed>
</trkpt>
<trkpt lat="55.733353" lon="26.551926">
<ele>153.209106</ele>
<time>2010-07-18T13:12:18Z</time>
<desc>lat.=55.733353, lon.=26.551926, Alt.=153.209106m. Speed=21.167999m/h.</desc>
<speed>5.880000</speed>
</trkpt>
<trkpt lat="55.733406" lon="26.551928">
<ele>153.056763</ele>
<time>2010-07-18T13:12:19Z</time>
<desc>lat.=55.733406, lon.=26.551928, Alt.=153.056763m. Speed=21.167999m/h.</desc>
<speed>5.880000</speed>
</trkpt>
<trkpt lat="55.733456" lon="26.551928">
<ele>152.966919</ele>
<time>2010-07-18T13:12:20Z</time>
<desc>lat.=55.733456, lon.=26.551928, Alt.=152.966919m. Speed=21.312000m/h.</desc>
<speed>5.920000</speed>
</trkpt>
<trkpt lat="55.733509" lon="26.551920">
<ele>152.795044</ele>
<time>2010-07-18T13:12:21Z</time>
<desc>lat.=55.733509, lon.=26.551920, Alt.=152.795044m. Speed=20.375999m/h.</desc>
<speed>5.660000</speed>
</trkpt>
<trkpt lat="55.733559" lon="26.551914">
<ele>152.693481</ele>
<time>2010-07-18T13:12:22Z</time>
<desc>lat.=55.733559, lon.=26.551914, Alt.=152.693481m. Speed=19.944000m/h.</desc>
<speed>5.540000</speed>
</trkpt>
<trkpt lat="55.733608" lon="26.551907">
<ele>152.713013</ele>
<time>2010-07-18T13:12:23Z</time>
<desc>lat.=55.733608, lon.=26.551907, Alt.=152.713013m. Speed=19.764000m/h.</desc>
<speed>5.490000</speed>
</trkpt>
<trkpt lat="55.733658" lon="26.551899">
<ele>152.771606</ele>
<time>2010-07-18T13:12:24Z</time>
<desc>lat.=55.733658, lon.=26.551899, Alt.=152.771606m. Speed=19.368000m/h.</desc>
<speed>5.380000</speed>
</trkpt>
<trkpt lat="55.733711" lon="26.551891">
<ele>152.966919</ele>
<time>2010-07-18T13:12:25Z</time>
<desc>lat.=55.733711, lon.=26.551891, Alt.=152.966919m. Speed=20.879999m/h.</desc>
<speed>5.800000</speed>
</trkpt>
<trkpt lat="55.733768" lon="26.551884">
<ele>152.970825</ele>
<time>2010-07-18T13:12:26Z</time>
<desc>lat.=55.733768, lon.=26.551884, Alt.=152.970825m. Speed=22.643999m/h.</desc>
<speed>6.290000</speed>
</trkpt>
<trkpt lat="55.733822" lon="26.551874">
<ele>152.923950</ele>
<time>2010-07-18T13:12:27Z</time>
<desc>lat.=55.733822, lon.=26.551874, Alt.=152.923950m. Speed=21.708000m/h.</desc>
<speed>6.030000</speed>
</trkpt>
<trkpt lat="55.733879" lon="26.551865">
<ele>153.068481</ele>
<time>2010-07-18T13:12:28Z</time>
<desc>lat.=55.733879, lon.=26.551865, Alt.=153.068481m. Speed=23.688000m/h.</desc>
<speed>6.580000</speed>
</trkpt>
<trkpt lat="55.733940" lon="26.551857">
<ele>153.099731</ele>
<time>2010-07-18T13:12:29Z</time>
<desc>lat.=55.733940, lon.=26.551857, Alt.=153.099731m. Speed=24.552000m/h.</desc>
<speed>6.820000</speed>
</trkpt>
<trkpt lat="55.734001" lon="26.551851">
<ele>152.974731</ele>
<time>2010-07-18T13:12:30Z</time>
<desc>lat.=55.734001, lon.=26.551851, Alt.=152.974731m. Speed=24.444000m/h.</desc>
<speed>6.790000</speed>
</trkpt>
<trkpt lat="55.734062" lon="26.551844">
<ele>153.548950</ele>
<time>2010-07-18T13:12:31Z</time>
<desc>lat.=55.734062, lon.=26.551844, Alt.=153.548950m. Speed=24.912001m/h.</desc>
<speed>6.920000</speed>
</trkpt>
<trkpt lat="55.734123" lon="26.551832">
<ele>153.658325</ele>
<time>2010-07-18T13:12:32Z</time>
<desc>lat.=55.734123, lon.=26.551832, Alt.=153.658325m. Speed=25.056000m/h.</desc>
<speed>6.960000</speed>
</trkpt>
<trkpt lat="55.734184" lon="26.551823">
<ele>153.213013</ele>
<time>2010-07-18T13:12:33Z</time>
<desc>lat.=55.734184, lon.=26.551823, Alt.=153.213013m. Speed=24.552000m/h.</desc>
<speed>6.820000</speed>
</trkpt>
<trkpt lat="55.734245" lon="26.551819">
<ele>153.173950</ele>
<time>2010-07-18T13:12:34Z</time>
<desc>lat.=55.734245, lon.=26.551819, Alt.=153.173950m. Speed=25.416000m/h.</desc>
<speed>7.060000</speed>
</trkpt>
<trkpt lat="55.734314" lon="26.551815">
<ele>152.963013</ele>
<time>2010-07-18T13:12:35Z</time>
<desc>lat.=55.734314, lon.=26.551815, Alt.=152.963013m. Speed=25.020000m/h.</desc>
<speed>6.950000</speed>
</trkpt>
<trkpt lat="55.734379" lon="26.551807">
<ele>152.748169</ele>
<time>2010-07-18T13:12:36Z</time>
<desc>lat.=55.734379, lon.=26.551807, Alt.=152.748169m. Speed=25.775999m/h.</desc>
<speed>7.160000</speed>
</trkpt>
<trkpt lat="55.734440" lon="26.551802">
<ele>152.963013</ele>
<time>2010-07-18T13:12:37Z</time>
<desc>lat.=55.734440, lon.=26.551802, Alt.=152.963013m. Speed=26.208000m/h.</desc>
<speed>7.280000</speed>
</trkpt>
<trkpt lat="55.734509" lon="26.551792">
<ele>152.982544</ele>
<time>2010-07-18T13:12:38Z</time>
<desc>lat.=55.734509, lon.=26.551792, Alt.=152.982544m. Speed=26.856001m/h.</desc>
<speed>7.460000</speed>
</trkpt>
<trkpt lat="55.734570" lon="26.551779">
<ele>153.064575</ele>
<time>2010-07-18T13:12:39Z</time>
<desc>lat.=55.734570, lon.=26.551779, Alt.=153.064575m. Speed=24.875999m/h.</desc>
<speed>6.910000</speed>
</trkpt>
<trkpt lat="55.734631" lon="26.551775">
<ele>152.982544</ele>
<time>2010-07-18T13:12:40Z</time>
<desc>lat.=55.734631, lon.=26.551775, Alt.=152.982544m. Speed=25.667999m/h.</desc>
<speed>7.130000</speed>
</trkpt>
<trkpt lat="55.734695" lon="26.551771">
<ele>152.896606</ele>
<time>2010-07-18T13:12:41Z</time>
<desc>lat.=55.734695, lon.=26.551771, Alt.=152.896606m. Speed=26.100000m/h.</desc>
<speed>7.250000</speed>
</trkpt>
<trkpt lat="55.734764" lon="26.551762">
<ele>152.658325</ele>
<time>2010-07-18T13:12:42Z</time>
<desc>lat.=55.734764, lon.=26.551762, Alt.=152.658325m. Speed=26.639999m/h.</desc>
<speed>7.400000</speed>
</trkpt>
<trkpt lat="55.734833" lon="26.551752">
<ele>152.529419</ele>
<time>2010-07-18T13:12:43Z</time>
<desc>lat.=55.734833, lon.=26.551752, Alt.=152.529419m. Speed=26.351999m/h.</desc>
<speed>7.320000</speed>
</trkpt>
<trkpt lat="55.734901" lon="26.551743">
<ele>152.283325</ele>
<time>2010-07-18T13:12:44Z</time>
<desc>lat.=55.734901, lon.=26.551743, Alt.=152.283325m. Speed=26.676001m/h.</desc>
<speed>7.410000</speed>
</trkpt>
<trkpt lat="55.734966" lon="26.551733">
<ele>152.193481</ele>
<time>2010-07-18T13:12:45Z</time>
<desc>lat.=55.734966, lon.=26.551733, Alt.=152.193481m. Speed=26.424000m/h.</desc>
<speed>7.340000</speed>
</trkpt>
<trkpt lat="55.735031" lon="26.551723">
<ele>152.220825</ele>
<time>2010-07-18T13:12:46Z</time>
<desc>lat.=55.735031, lon.=26.551723, Alt.=152.220825m. Speed=26.100000m/h.</desc>
<speed>7.250000</speed>
</trkpt>
<trkpt lat="55.735096" lon="26.551708">
<ele>152.552856</ele>
<time>2010-07-18T13:12:47Z</time>
<desc>lat.=55.735096, lon.=26.551708, Alt.=152.552856m. Speed=25.559999m/h.</desc>
<speed>7.100000</speed>
</trkpt>
<trkpt lat="55.735161" lon="26.551697">
<ele>152.607544</ele>
<time>2010-07-18T13:12:48Z</time>
<desc>lat.=55.735161, lon.=26.551697, Alt.=152.607544m. Speed=25.128000m/h.</desc>
<speed>6.980000</speed>
</trkpt>
<trkpt lat="55.735222" lon="26.551682">
<ele>152.654419</ele>
<time>2010-07-18T13:12:49Z</time>
<desc>lat.=55.735222, lon.=26.551682, Alt.=152.654419m. Speed=24.875999m/h.</desc>
<speed>6.910000</speed>
</trkpt>
<trkpt lat="55.735283" lon="26.551670">
<ele>152.654419</ele>
<time>2010-07-18T13:12:50Z</time>
<desc>lat.=55.735283, lon.=26.551670, Alt.=152.654419m. Speed=25.236000m/h.</desc>
<speed>7.010000</speed>
</trkpt>
<trkpt lat="55.735348" lon="26.551661">
<ele>152.638794</ele>
<time>2010-07-18T13:12:51Z</time>
<desc>lat.=55.735348, lon.=26.551661, Alt.=152.638794m. Speed=24.372000m/h.</desc>
<speed>6.770000</speed>
</trkpt>
<trkpt lat="55.735409" lon="26.551651">
<ele>152.591919</ele>
<time>2010-07-18T13:12:52Z</time>
<desc>lat.=55.735409, lon.=26.551651, Alt.=152.591919m. Speed=24.372000m/h.</desc>
<speed>6.770000</speed>
</trkpt>
<trkpt lat="55.735470" lon="26.551641">
<ele>152.670044</ele>
<time>2010-07-18T13:12:53Z</time>
<desc>lat.=55.735470, lon.=26.551641, Alt.=152.670044m. Speed=24.516001m/h.</desc>
<speed>6.810000</speed>
</trkpt>
<trkpt lat="55.735531" lon="26.551630">
<ele>152.611450</ele>
<time>2010-07-18T13:12:54Z</time>
<desc>lat.=55.735531, lon.=26.551630, Alt.=152.611450m. Speed=25.164000m/h.</desc>
<speed>6.990000</speed>
</trkpt>
<trkpt lat="55.735596" lon="26.551622">
<ele>152.580200</ele>
<time>2010-07-18T13:12:55Z</time>
<desc>lat.=55.735596, lon.=26.551622, Alt.=152.580200m. Speed=24.660000m/h.</desc>
<speed>6.850000</speed>
</trkpt>
<trkpt lat="55.735657" lon="26.551609">
<ele>152.603638</ele>
<time>2010-07-18T13:12:56Z</time>
<desc>lat.=55.735657, lon.=26.551609, Alt.=152.603638m. Speed=23.400000m/h.</desc>
<speed>6.500000</speed>
</trkpt>
<trkpt lat="55.735714" lon="26.551596">
<ele>152.568481</ele>
<time>2010-07-18T13:12:57Z</time>
<desc>lat.=55.735714, lon.=26.551596, Alt.=152.568481m. Speed=24.983999m/h.</desc>
<speed>6.940000</speed>
</trkpt>
<trkpt lat="55.735775" lon="26.551586">
<ele>152.677856</ele>
<time>2010-07-18T13:12:58Z</time>
<desc>lat.=55.735775, lon.=26.551586, Alt.=152.677856m. Speed=24.264000m/h.</desc>
<speed>6.740000</speed>
</trkpt>
<trkpt lat="55.735836" lon="26.551575">
<ele>152.521606</ele>
<time>2010-07-18T13:12:59Z</time>
<desc>lat.=55.735836, lon.=26.551575, Alt.=152.521606m. Speed=24.695999m/h.</desc>
<speed>6.860000</speed>
</trkpt>
<trkpt lat="55.735897" lon="26.551565">
<ele>152.431763</ele>
<time>2010-07-18T13:13:00Z</time>
<desc>lat.=55.735897, lon.=26.551565, Alt.=152.431763m. Speed=24.840000m/h.</desc>
<speed>6.900000</speed>
</trkpt>
<trkpt lat="55.735962" lon="26.551552">
<ele>152.427856</ele>
<time>2010-07-18T13:13:01Z</time>
<desc>lat.=55.735962, lon.=26.551552, Alt.=152.427856m. Speed=24.840000m/h.</desc>
<speed>6.900000</speed>
</trkpt>
<trkpt lat="55.736027" lon="26.551531">
<ele>152.392700</ele>
<time>2010-07-18T13:13:02Z</time>
<desc>lat.=55.736027, lon.=26.551531, Alt.=152.392700m. Speed=25.271999m/h.</desc>
<speed>7.020000</speed>
</trkpt>
<trkpt lat="55.736088" lon="26.551514">
<ele>151.982544</ele>
<time>2010-07-18T13:13:03Z</time>
<desc>lat.=55.736088, lon.=26.551514, Alt.=151.982544m. Speed=24.444000m/h.</desc>
<speed>6.790000</speed>
</trkpt>
<trkpt lat="55.736145" lon="26.551500">
<ele>151.611450</ele>
<time>2010-07-18T13:13:04Z</time>
<desc>lat.=55.736145, lon.=26.551500, Alt.=151.611450m. Speed=24.156000m/h.</desc>
<speed>6.710000</speed>
</trkpt>
<trkpt lat="55.736206" lon="26.551489">
<ele>151.560669</ele>
<time>2010-07-18T13:13:05Z</time>
<desc>lat.=55.736206, lon.=26.551489, Alt.=151.560669m. Speed=24.011999m/h.</desc>
<speed>6.670000</speed>
</trkpt>
<trkpt lat="55.736267" lon="26.551477">
<ele>151.521606</ele>
<time>2010-07-18T13:13:06Z</time>
<desc>lat.=55.736267, lon.=26.551477, Alt.=151.521606m. Speed=23.832001m/h.</desc>
<speed>6.620000</speed>
</trkpt>
<trkpt lat="55.736324" lon="26.551472">
<ele>151.283325</ele>
<time>2010-07-18T13:13:07Z</time>
<desc>lat.=55.736324, lon.=26.551472, Alt.=151.283325m. Speed=24.084000m/h.</desc>
<speed>6.690000</speed>
</trkpt>
<trkpt lat="55.736385" lon="26.551462">
<ele>151.045044</ele>
<time>2010-07-18T13:13:08Z</time>
<desc>lat.=55.736385, lon.=26.551462, Alt.=151.045044m. Speed=25.667999m/h.</desc>
<speed>7.130000</speed>
</trkpt>
<trkpt lat="55.736450" lon="26.551449">
<ele>150.896606</ele>
<time>2010-07-18T13:13:09Z</time>
<desc>lat.=55.736450, lon.=26.551449, Alt.=150.896606m. Speed=24.875999m/h.</desc>
<speed>6.910000</speed>
</trkpt>
<trkpt lat="55.736511" lon="26.551432">
<ele>151.357544</ele>
<time>2010-07-18T13:13:10Z</time>
<desc>lat.=55.736511, lon.=26.551432, Alt.=151.357544m. Speed=25.020000m/h.</desc>
<speed>6.950000</speed>
</trkpt>
<trkpt lat="55.736572" lon="26.551418">
<ele>151.373169</ele>
<time>2010-07-18T13:13:11Z</time>
<desc>lat.=55.736572, lon.=26.551418, Alt.=151.373169m. Speed=24.048000m/h.</desc>
<speed>6.680000</speed>
</trkpt>
<trkpt lat="55.736633" lon="26.551407">
<ele>151.154419</ele>
<time>2010-07-18T13:13:12Z</time>
<desc>lat.=55.736633, lon.=26.551407, Alt.=151.154419m. Speed=23.796000m/h.</desc>
<speed>6.610000</speed>
</trkpt>
<trkpt lat="55.736694" lon="26.551395">
<ele>151.005981</ele>
<time>2010-07-18T13:13:13Z</time>
<desc>lat.=55.736694, lon.=26.551395, Alt.=151.005981m. Speed=23.832001m/h.</desc>
<speed>6.620000</speed>
</trkpt>
<trkpt lat="55.736755" lon="26.551384">
<ele>150.814575</ele>
<time>2010-07-18T13:13:14Z</time>
<desc>lat.=55.736755, lon.=26.551384, Alt.=150.814575m. Speed=23.724001m/h.</desc>
<speed>6.590000</speed>
</trkpt>
<trkpt lat="55.736809" lon="26.551373">
<ele>150.740356</ele>
<time>2010-07-18T13:13:15Z</time>
<desc>lat.=55.736809, lon.=26.551373, Alt.=150.740356m. Speed=23.292000m/h.</desc>
<speed>6.470000</speed>
</trkpt>
<trkpt lat="55.736866" lon="26.551361">
<ele>150.580200</ele>
<time>2010-07-18T13:13:16Z</time>
<desc>lat.=55.736866, lon.=26.551361, Alt.=150.580200m. Speed=23.724001m/h.</desc>
<speed>6.590000</speed>
</trkpt>
<trkpt lat="55.736927" lon="26.551352">
<ele>150.353638</ele>
<time>2010-07-18T13:13:17Z</time>
<desc>lat.=55.736927, lon.=26.551352, Alt.=150.353638m. Speed=24.048000m/h.</desc>
<speed>6.680000</speed>
</trkpt>
<trkpt lat="55.736984" lon="26.551340">
<ele>150.228638</ele>
<time>2010-07-18T13:13:18Z</time>
<desc>lat.=55.736984, lon.=26.551340, Alt.=150.228638m. Speed=24.264000m/h.</desc>
<speed>6.740000</speed>
</trkpt>
<trkpt lat="55.737045" lon="26.551329">
<ele>150.119263</ele>
<time>2010-07-18T13:13:19Z</time>
<desc>lat.=55.737045, lon.=26.551329, Alt.=150.119263m. Speed=25.308001m/h.</desc>
<speed>7.030000</speed>
</trkpt>
<trkpt lat="55.737110" lon="26.551313">
<ele>150.052856</ele>
<time>2010-07-18T13:13:20Z</time>
<desc>lat.=55.737110, lon.=26.551313, Alt.=150.052856m. Speed=25.920000m/h.</desc>
<speed>7.200000</speed>
</trkpt>
<trkpt lat="55.737175" lon="26.551296">
<ele>150.037231</ele>
<time>2010-07-18T13:13:21Z</time>
<desc>lat.=55.737175, lon.=26.551296, Alt.=150.037231m. Speed=26.568001m/h.</desc>
<speed>7.380000</speed>
</trkpt>
<trkpt lat="55.737244" lon="26.551281">
<ele>149.963013</ele>
<time>2010-07-18T13:13:22Z</time>
<desc>lat.=55.737244, lon.=26.551281, Alt.=149.963013m. Speed=26.496000m/h.</desc>
<speed>7.360000</speed>
</trkpt>
<trkpt lat="55.737305" lon="26.551264">
<ele>149.916138</ele>
<time>2010-07-18T13:13:23Z</time>
<desc>lat.=55.737305, lon.=26.551264, Alt.=149.916138m. Speed=25.596001m/h.</desc>
<speed>7.110000</speed>
</trkpt>
<trkpt lat="55.737370" lon="26.551250">
<ele>149.994263</ele>
<time>2010-07-18T13:13:24Z</time>
<desc>lat.=55.737370, lon.=26.551250, Alt.=149.994263m. Speed=25.632000m/h.</desc>
<speed>7.120000</speed>
</trkpt>
<trkpt lat="55.737431" lon="26.551237">
<ele>149.959106</ele>
<time>2010-07-18T13:13:25Z</time>
<desc>lat.=55.737431, lon.=26.551237, Alt.=149.959106m. Speed=25.128000m/h.</desc>
<speed>6.980000</speed>
</trkpt>
<trkpt lat="55.737492" lon="26.551224">
<ele>150.029419</ele>
<time>2010-07-18T13:13:26Z</time>
<desc>lat.=55.737492, lon.=26.551224, Alt.=150.029419m. Speed=24.983999m/h.</desc>
<speed>6.940000</speed>
</trkpt>
<trkpt lat="55.737553" lon="26.551205">
<ele>150.002075</ele>
<time>2010-07-18T13:13:27Z</time>
<desc>lat.=55.737553, lon.=26.551205, Alt.=150.002075m. Speed=24.624001m/h.</desc>
<speed>6.840000</speed>
</trkpt>
<trkpt lat="55.737614" lon="26.551189">
<ele>150.209106</ele>
<time>2010-07-18T13:13:28Z</time>
<desc>lat.=55.737614, lon.=26.551189, Alt.=150.209106m. Speed=23.976000m/h.</desc>
<speed>6.660000</speed>
</trkpt>
<trkpt lat="55.737675" lon="26.551180">
<ele>150.193481</ele>
<time>2010-07-18T13:13:29Z</time>
<desc>lat.=55.737675, lon.=26.551180, Alt.=150.193481m. Speed=24.444000m/h.</desc>
<speed>6.790000</speed>
</trkpt>
<trkpt lat="55.737732" lon="26.551172">
<ele>150.084106</ele>
<time>2010-07-18T13:13:30Z</time>
<desc>lat.=55.737732, lon.=26.551172, Alt.=150.084106m. Speed=23.903999m/h.</desc>
<speed>6.640000</speed>
</trkpt>
<trkpt lat="55.737793" lon="26.551167">
<ele>149.947388</ele>
<time>2010-07-18T13:13:31Z</time>
<desc>lat.=55.737793, lon.=26.551167, Alt.=149.947388m. Speed=25.128000m/h.</desc>
<speed>6.980000</speed>
</trkpt>
<trkpt lat="55.737854" lon="26.551151">
<ele>150.048950</ele>
<time>2010-07-18T13:13:32Z</time>
<desc>lat.=55.737854, lon.=26.551151, Alt.=150.048950m. Speed=24.695999m/h.</desc>
<speed>6.860000</speed>
</trkpt>
<trkpt lat="55.737919" lon="26.551138">
<ele>149.787231</ele>
<time>2010-07-18T13:13:33Z</time>
<desc>lat.=55.737919, lon.=26.551138, Alt.=149.787231m. Speed=25.236000m/h.</desc>
<speed>7.010000</speed>
</trkpt>
<trkpt lat="55.737980" lon="26.551130">
<ele>149.849731</ele>
<time>2010-07-18T13:13:34Z</time>
<desc>lat.=55.737980, lon.=26.551130, Alt.=149.849731m. Speed=25.344000m/h.</desc>
<speed>7.040000</speed>
</trkpt>
<trkpt lat="55.738041" lon="26.551123">
<ele>149.783325</ele>
<time>2010-07-18T13:13:35Z</time>
<desc>lat.=55.738041, lon.=26.551123, Alt.=149.783325m. Speed=25.524000m/h.</desc>
<speed>7.090000</speed>
</trkpt>
<trkpt lat="55.738106" lon="26.551107">
<ele>149.787231</ele>
<time>2010-07-18T13:13:36Z</time>
<desc>lat.=55.738106, lon.=26.551107, Alt.=149.787231m. Speed=25.308001m/h.</desc>
<speed>7.030000</speed>
</trkpt>
<trkpt lat="55.738167" lon="26.551098">
<ele>149.677856</ele>
<time>2010-07-18T13:13:37Z</time>
<desc>lat.=55.738167, lon.=26.551098, Alt.=149.677856m. Speed=25.091999m/h.</desc>
<speed>6.970000</speed>
</trkpt>
<trkpt lat="55.738224" lon="26.551090">
<ele>149.603638</ele>
<time>2010-07-18T13:13:38Z</time>
<desc>lat.=55.738224, lon.=26.551090, Alt.=149.603638m. Speed=23.652000m/h.</desc>
<speed>6.570000</speed>
</trkpt>
<trkpt lat="55.738281" lon="26.551075">
<ele>149.627075</ele>
<time>2010-07-18T13:13:39Z</time>
<desc>lat.=55.738281, lon.=26.551075, Alt.=149.627075m. Speed=25.488001m/h.</desc>
<speed>7.080000</speed>
</trkpt>
<trkpt lat="55.738342" lon="26.551064">
<ele>149.689575</ele>
<time>2010-07-18T13:13:40Z</time>
<desc>lat.=55.738342, lon.=26.551064, Alt.=149.689575m. Speed=24.840000m/h.</desc>
<speed>6.900000</speed>
</trkpt>
<trkpt lat="55.738407" lon="26.551054">
<ele>149.791138</ele>
<time>2010-07-18T13:13:41Z</time>
<desc>lat.=55.738407, lon.=26.551054, Alt.=149.791138m. Speed=24.444000m/h.</desc>
<speed>6.790000</speed>
</trkpt>
<trkpt lat="55.738464" lon="26.551041">
<ele>149.861450</ele>
<time>2010-07-18T13:13:42Z</time>
<desc>lat.=55.738464, lon.=26.551041, Alt.=149.861450m. Speed=24.048000m/h.</desc>
<speed>6.680000</speed>
</trkpt>
<trkpt lat="55.738525" lon="26.551027">
<ele>149.853638</ele>
<time>2010-07-18T13:13:43Z</time>
<desc>lat.=55.738525, lon.=26.551027, Alt.=149.853638m. Speed=23.507999m/h.</desc>
<speed>6.530000</speed>
</trkpt>
<trkpt lat="55.738579" lon="26.551014">
<ele>149.728638</ele>
<time>2010-07-18T13:13:44Z</time>
<desc>lat.=55.738579, lon.=26.551014, Alt.=149.728638m. Speed=22.643999m/h.</desc>
<speed>6.290000</speed>
</trkpt>
<trkpt lat="55.738632" lon="26.551006">
<ele>149.709106</ele>
<time>2010-07-18T13:13:45Z</time>
<desc>lat.=55.738632, lon.=26.551006, Alt.=149.709106m. Speed=21.816000m/h.</desc>
<speed>6.060000</speed>
</trkpt>
<trkpt lat="55.738689" lon="26.550997">
<ele>149.701294</ele>
<time>2010-07-18T13:13:46Z</time>
<desc>lat.=55.738689, lon.=26.550997, Alt.=149.701294m. Speed=22.464001m/h.</desc>
<speed>6.240000</speed>
</trkpt>
<trkpt lat="55.738743" lon="26.550987">
<ele>149.783325</ele>
<time>2010-07-18T13:13:47Z</time>
<desc>lat.=55.738743, lon.=26.550987, Alt.=149.783325m. Speed=22.356001m/h.</desc>
<speed>6.210000</speed>
</trkpt>
<trkpt lat="55.738800" lon="26.550972">
<ele>149.810669</ele>
<time>2010-07-18T13:13:48Z</time>
<desc>lat.=55.738800, lon.=26.550972, Alt.=149.810669m. Speed=21.492001m/h.</desc>
<speed>5.970000</speed>
</trkpt>
<trkpt lat="55.738853" lon="26.550961">
<ele>149.728638</ele>
<time>2010-07-18T13:13:49Z</time>
<desc>lat.=55.738853, lon.=26.550961, Alt.=149.728638m. Speed=21.528000m/h.</desc>
<speed>5.980000</speed>
</trkpt>
<trkpt lat="55.738907" lon="26.550953">
<ele>149.693481</ele>
<time>2010-07-18T13:13:50Z</time>
<desc>lat.=55.738907, lon.=26.550953, Alt.=149.693481m. Speed=20.952000m/h.</desc>
<speed>5.820000</speed>
</trkpt>
<trkpt lat="55.738960" lon="26.550943">
<ele>149.623169</ele>
<time>2010-07-18T13:13:51Z</time>
<desc>lat.=55.738960, lon.=26.550943, Alt.=149.623169m. Speed=20.232000m/h.</desc>
<speed>5.620000</speed>
</trkpt>
<trkpt lat="55.739010" lon="26.550936">
<ele>149.662231</ele>
<time>2010-07-18T13:13:52Z</time>
<desc>lat.=55.739010, lon.=26.550936, Alt.=149.662231m. Speed=20.483999m/h.</desc>
<speed>5.690000</speed>
</trkpt>
<trkpt lat="55.739059" lon="26.550920">
<ele>149.830200</ele>
<time>2010-07-18T13:13:53Z</time>
<desc>lat.=55.739059, lon.=26.550920, Alt.=149.830200m. Speed=20.304001m/h.</desc>
<speed>5.640000</speed>
</trkpt>
<trkpt lat="55.739109" lon="26.550909">
<ele>149.857544</ele>
<time>2010-07-18T13:13:54Z</time>
<desc>lat.=55.739109, lon.=26.550909, Alt.=149.857544m. Speed=19.908001m/h.</desc>
<speed>5.530000</speed>
</trkpt>
<trkpt lat="55.739159" lon="26.550900">
<ele>149.830200</ele>
<time>2010-07-18T13:13:55Z</time>
<desc>lat.=55.739159, lon.=26.550900, Alt.=149.830200m. Speed=19.620001m/h.</desc>
<speed>5.450000</speed>
</trkpt>
<trkpt lat="55.739208" lon="26.550886">
<ele>149.818481</ele>
<time>2010-07-18T13:13:56Z</time>
<desc>lat.=55.739208, lon.=26.550886, Alt.=149.818481m. Speed=18.936001m/h.</desc>
<speed>5.260000</speed>
</trkpt>
<trkpt lat="55.739258" lon="26.550873">
<ele>149.763794</ele>
<time>2010-07-18T13:13:57Z</time>
<desc>lat.=55.739258, lon.=26.550873, Alt.=149.763794m. Speed=20.016001m/h.</desc>
<speed>5.560000</speed>
</trkpt>
<trkpt lat="55.739315" lon="26.550869">
<ele>150.306763</ele>
<time>2010-07-18T13:13:58Z</time>
<desc>lat.=55.739315, lon.=26.550869, Alt.=150.306763m. Speed=20.916000m/h.</desc>
<speed>5.810000</speed>
</trkpt>
<trkpt lat="55.739365" lon="26.550865">
<ele>150.255981</ele>
<time>2010-07-18T13:13:59Z</time>
<desc>lat.=55.739365, lon.=26.550865, Alt.=150.255981m. Speed=21.132000m/h.</desc>
<speed>5.870000</speed>
</trkpt>
<trkpt lat="55.739418" lon="26.550856">
<ele>150.213013</ele>
<time>2010-07-18T13:14:00Z</time>
<desc>lat.=55.739418, lon.=26.550856, Alt.=150.213013m. Speed=22.284000m/h.</desc>
<speed>6.190000</speed>
</trkpt>
<trkpt lat="55.739475" lon="26.550852">
<ele>150.349731</ele>
<time>2010-07-18T13:14:01Z</time>
<desc>lat.=55.739475, lon.=26.550852, Alt.=150.349731m. Speed=22.247999m/h.</desc>
<speed>6.180000</speed>
</trkpt>
<trkpt lat="55.739529" lon="26.550844">
<ele>150.545044</ele>
<time>2010-07-18T13:14:02Z</time>
<desc>lat.=55.739529, lon.=26.550844, Alt.=150.545044m. Speed=21.888000m/h.</desc>
<speed>6.080000</speed>
</trkpt>
<trkpt lat="55.739586" lon="26.550835">
<ele>150.548950</ele>
<time>2010-07-18T13:14:03Z</time>
<desc>lat.=55.739586, lon.=26.550835, Alt.=150.548950m. Speed=21.888000m/h.</desc>
<speed>6.080000</speed>
</trkpt>
<trkpt lat="55.739639" lon="26.550835">
<ele>150.810669</ele>
<time>2010-07-18T13:14:04Z</time>
<desc>lat.=55.739639, lon.=26.550835, Alt.=150.810669m. Speed=20.375999m/h.</desc>
<speed>5.660000</speed>
</trkpt>
<trkpt lat="55.739685" lon="26.550831">
<ele>151.170044</ele>
<time>2010-07-18T13:14:05Z</time>
<desc>lat.=55.739685, lon.=26.550831, Alt.=151.170044m. Speed=16.955999m/h.</desc>
<speed>4.710000</speed>
</trkpt>
<trkpt lat="55.739738" lon="26.550829">
<ele>151.259888</ele>
<time>2010-07-18T13:14:06Z</time>
<desc>lat.=55.739738, lon.=26.550829, Alt.=151.259888m. Speed=19.872000m/h.</desc>
<speed>5.520000</speed>
</trkpt>
<trkpt lat="55.739792" lon="26.550823">
<ele>151.338013</ele>
<time>2010-07-18T13:14:07Z</time>
<desc>lat.=55.739792, lon.=26.550823, Alt.=151.338013m. Speed=19.908001m/h.</desc>
<speed>5.530000</speed>
</trkpt>
<trkpt lat="55.739838" lon="26.550819">
<ele>151.310669</ele>
<time>2010-07-18T13:14:08Z</time>
<desc>lat.=55.739838, lon.=26.550819, Alt.=151.310669m. Speed=18.072001m/h.</desc>
<speed>5.020000</speed>
</trkpt>
<trkpt lat="55.739876" lon="26.550821">
<ele>151.295044</ele>
<time>2010-07-18T13:14:09Z</time>
<desc>lat.=55.739876, lon.=26.550821, Alt.=151.295044m. Speed=17.316000m/h.</desc>
<speed>4.810000</speed>
</trkpt>
<trkpt lat="55.739922" lon="26.550812">
<ele>150.908325</ele>
<time>2010-07-18T13:14:10Z</time>
<desc>lat.=55.739922, lon.=26.550812, Alt.=150.908325m. Speed=17.172001m/h.</desc>
<speed>4.770000</speed>
</trkpt>
<trkpt lat="55.739967" lon="26.550800">
<ele>150.170044</ele>
<time>2010-07-18T13:14:11Z</time>
<desc>lat.=55.739967, lon.=26.550800, Alt.=150.170044m. Speed=16.884001m/h.</desc>
<speed>4.690000</speed>
</trkpt>
<trkpt lat="55.740005" lon="26.550764">
<ele>148.713013</ele>
<time>2010-07-18T13:14:12Z</time>
<desc>lat.=55.740005, lon.=26.550764, Alt.=148.713013m. Speed=16.596001m/h.</desc>
<speed>4.610000</speed>
</trkpt>
<trkpt lat="55.740055" lon="26.550732">
<ele>148.193481</ele>
<time>2010-07-18T13:14:13Z</time>
<desc>lat.=55.740055, lon.=26.550732, Alt.=148.193481m. Speed=17.927999m/h.</desc>
<speed>4.980000</speed>
</trkpt>
<trkpt lat="55.740101" lon="26.550714">
<ele>147.650513</ele>
<time>2010-07-18T13:14:14Z</time>
<desc>lat.=55.740101, lon.=26.550714, Alt.=147.650513m. Speed=19.188000m/h.</desc>
<speed>5.330000</speed>
</trkpt>
<trkpt lat="55.740150" lon="26.550697">
<ele>146.912231</ele>
<time>2010-07-18T13:14:15Z</time>
<desc>lat.=55.740150, lon.=26.550697, Alt.=146.912231m. Speed=17.388000m/h.</desc>
<speed>4.830000</speed>
</trkpt>
<trkpt lat="55.740200" lon="26.550690">
<ele>147.630981</ele>
<time>2010-07-18T13:14:16Z</time>
<desc>lat.=55.740200, lon.=26.550690, Alt.=147.630981m. Speed=18.936001m/h.</desc>
<speed>5.260000</speed>
</trkpt>
<trkpt lat="55.740250" lon="26.550680">
<ele>148.982544</ele>
<time>2010-07-18T13:14:17Z</time>
<desc>lat.=55.740250, lon.=26.550680, Alt.=148.982544m. Speed=19.511999m/h.</desc>
<speed>5.420000</speed>
</trkpt>
<trkpt lat="55.740307" lon="26.550659">
<ele>149.752075</ele>
<time>2010-07-18T13:14:18Z</time>
<desc>lat.=55.740307, lon.=26.550659, Alt.=149.752075m. Speed=21.708000m/h.</desc>
<speed>6.030000</speed>
</trkpt>
<trkpt lat="55.740364" lon="26.550646">
<ele>150.431763</ele>
<time>2010-07-18T13:14:19Z</time>
<desc>lat.=55.740364, lon.=26.550646, Alt.=150.431763m. Speed=21.096001m/h.</desc>
<speed>5.860000</speed>
</trkpt>
<trkpt lat="55.740414" lon="26.550634">
<ele>150.556763</ele>
<time>2010-07-18T13:14:20Z</time>
<desc>lat.=55.740414, lon.=26.550634, Alt.=150.556763m. Speed=20.808001m/h.</desc>
<speed>5.780000</speed>
</trkpt>
<trkpt lat="55.740467" lon="26.550623">
<ele>150.482544</ele>
<time>2010-07-18T13:14:21Z</time>
<desc>lat.=55.740467, lon.=26.550623, Alt.=150.482544m. Speed=21.455999m/h.</desc>
<speed>5.960000</speed>
</trkpt>
<trkpt lat="55.740520" lon="26.550606">
<ele>151.252075</ele>
<time>2010-07-18T13:14:22Z</time>
<desc>lat.=55.740520, lon.=26.550606, Alt.=151.252075m. Speed=22.032000m/h.</desc>
<speed>6.120000</speed>
</trkpt>
<trkpt lat="55.740574" lon="26.550591">
<ele>151.529419</ele>
<time>2010-07-18T13:14:23Z</time>
<desc>lat.=55.740574, lon.=26.550591, Alt.=151.529419m. Speed=22.535999m/h.</desc>
<speed>6.260000</speed>
</trkpt>
<trkpt lat="55.740623" lon="26.550575">
<ele>151.681763</ele>
<time>2010-07-18T13:14:24Z</time>
<desc>lat.=55.740623, lon.=26.550575, Alt.=151.681763m. Speed=20.664000m/h.</desc>
<speed>5.740000</speed>
</trkpt>
<trkpt lat="55.740677" lon="26.550566">
<ele>151.806763</ele>
<time>2010-07-18T13:14:25Z</time>
<desc>lat.=55.740677, lon.=26.550566, Alt.=151.806763m. Speed=20.952000m/h.</desc>
<speed>5.820000</speed>
</trkpt>
<trkpt lat="55.740734" lon="26.550558">
<ele>151.642700</ele>
<time>2010-07-18T13:14:26Z</time>
<desc>lat.=55.740734, lon.=26.550558, Alt.=151.642700m. Speed=21.888000m/h.</desc>
<speed>6.080000</speed>
</trkpt>
<trkpt lat="55.740791" lon="26.550550">
<ele>151.705200</ele>
<time>2010-07-18T13:14:27Z</time>
<desc>lat.=55.740791, lon.=26.550550, Alt.=151.705200m. Speed=21.600000m/h.</desc>
<speed>6.000000</speed>
</trkpt>
<trkpt lat="55.740849" lon="26.550539">
<ele>151.814575</ele>
<time>2010-07-18T13:14:28Z</time>
<desc>lat.=55.740849, lon.=26.550539, Alt.=151.814575m. Speed=20.628000m/h.</desc>
<speed>5.730000</speed>
</trkpt>
<trkpt lat="55.740902" lon="26.550533">
<ele>152.005981</ele>
<time>2010-07-18T13:14:29Z</time>
<desc>lat.=55.740902, lon.=26.550533, Alt.=152.005981m. Speed=19.403999m/h.</desc>
<speed>5.390000</speed>
</trkpt>
<trkpt lat="55.740948" lon="26.550524">
<ele>152.052856</ele>
<time>2010-07-18T13:14:30Z</time>
<desc>lat.=55.740948, lon.=26.550524, Alt.=152.052856m. Speed=19.764000m/h.</desc>
<speed>5.490000</speed>
</trkpt>
<trkpt lat="55.740997" lon="26.550518">
<ele>151.955200</ele>
<time>2010-07-18T13:14:31Z</time>
<desc>lat.=55.740997, lon.=26.550518, Alt.=151.955200m. Speed=20.520000m/h.</desc>
<speed>5.700000</speed>
</trkpt>
<trkpt lat="55.741051" lon="26.550508">
<ele>151.888794</ele>
<time>2010-07-18T13:14:32Z</time>
<desc>lat.=55.741051, lon.=26.550508, Alt.=151.888794m. Speed=20.664000m/h.</desc>
<speed>5.740000</speed>
</trkpt>
<trkpt lat="55.741108" lon="26.550501">
<ele>151.904419</ele>
<time>2010-07-18T13:14:33Z</time>
<desc>lat.=55.741108, lon.=26.550501, Alt.=151.904419m. Speed=20.124001m/h.</desc>
<speed>5.590000</speed>
</trkpt>
<trkpt lat="55.741154" lon="26.550491">
<ele>151.826294</ele>
<time>2010-07-18T13:14:34Z</time>
<desc>lat.=55.741154, lon.=26.550491, Alt.=151.826294m. Speed=21.312000m/h.</desc>
<speed>5.920000</speed>
</trkpt>
<trkpt lat="55.741207" lon="26.550478">
<ele>151.951294</ele>
<time>2010-07-18T13:14:35Z</time>
<desc>lat.=55.741207, lon.=26.550478, Alt.=151.951294m. Speed=21.600000m/h.</desc>
<speed>6.000000</speed>
</trkpt>
<trkpt lat="55.741264" lon="26.550467">
<ele>152.048950</ele>
<time>2010-07-18T13:14:36Z</time>
<desc>lat.=55.741264, lon.=26.550467, Alt.=152.048950m. Speed=21.600000m/h.</desc>
<speed>6.000000</speed>
</trkpt>
<trkpt lat="55.741318" lon="26.550455">
<ele>152.263794</ele>
<time>2010-07-18T13:14:37Z</time>
<desc>lat.=55.741318, lon.=26.550455, Alt.=152.263794m. Speed=21.420000m/h.</desc>
<speed>5.950000</speed>
</trkpt>
<trkpt lat="55.741375" lon="26.550453">
<ele>152.498169</ele>
<time>2010-07-18T13:14:38Z</time>
<desc>lat.=55.741375, lon.=26.550453, Alt.=152.498169m. Speed=21.455999m/h.</desc>
<speed>5.960000</speed>
</trkpt>
<trkpt lat="55.741425" lon="26.550442">
<ele>152.662231</ele>
<time>2010-07-18T13:14:39Z</time>
<desc>lat.=55.741425, lon.=26.550442, Alt.=152.662231m. Speed=20.124001m/h.</desc>
<speed>5.590000</speed>
</trkpt>
<trkpt lat="55.741478" lon="26.550432">
<ele>152.482544</ele>
<time>2010-07-18T13:14:40Z</time>
<desc>lat.=55.741478, lon.=26.550432, Alt.=152.482544m. Speed=19.728001m/h.</desc>
<speed>5.480000</speed>
</trkpt>
<trkpt lat="55.741524" lon="26.550423">
<ele>152.252075</ele>
<time>2010-07-18T13:14:41Z</time>
<desc>lat.=55.741524, lon.=26.550423, Alt.=152.252075m. Speed=19.260000m/h.</desc>
<speed>5.350000</speed>
</trkpt>
<trkpt lat="55.741573" lon="26.550411">
<ele>152.420044</ele>
<time>2010-07-18T13:14:42Z</time>
<desc>lat.=55.741573, lon.=26.550411, Alt.=152.420044m. Speed=19.836000m/h.</desc>
<speed>5.510000</speed>
</trkpt>
<trkpt lat="55.741619" lon="26.550402">
<ele>152.509888</ele>
<time>2010-07-18T13:14:43Z</time>
<desc>lat.=55.741619, lon.=26.550402, Alt.=152.509888m. Speed=19.944000m/h.</desc>
<speed>5.540000</speed>
</trkpt>
<trkpt lat="55.741669" lon="26.550386">
<ele>152.724731</ele>
<time>2010-07-18T13:14:44Z</time>
<desc>lat.=55.741669, lon.=26.550386, Alt.=152.724731m. Speed=20.771999m/h.</desc>
<speed>5.770000</speed>
</trkpt>
<trkpt lat="55.741714" lon="26.550375">
<ele>152.732544</ele>
<time>2010-07-18T13:14:45Z</time>
<desc>lat.=55.741714, lon.=26.550375, Alt.=152.732544m. Speed=19.403999m/h.</desc>
<speed>5.390000</speed>
</trkpt>
<trkpt lat="55.741768" lon="26.550371">
<ele>152.826294</ele>
<time>2010-07-18T13:14:46Z</time>
<desc>lat.=55.741768, lon.=26.550371, Alt.=152.826294m. Speed=20.483999m/h.</desc>
<speed>5.690000</speed>
</trkpt>
<trkpt lat="55.741817" lon="26.550364">
<ele>152.755981</ele>
<time>2010-07-18T13:14:47Z</time>
<desc>lat.=55.741817, lon.=26.550364, Alt.=152.755981m. Speed=20.664000m/h.</desc>
<speed>5.740000</speed>
</trkpt>
<trkpt lat="55.741871" lon="26.550350">
<ele>152.713013</ele>
<time>2010-07-18T13:14:48Z</time>
<desc>lat.=55.741871, lon.=26.550350, Alt.=152.713013m. Speed=21.851999m/h.</desc>
<speed>6.070000</speed>
</trkpt>
<trkpt lat="55.741928" lon="26.550341">
<ele>152.623169</ele>
<time>2010-07-18T13:14:49Z</time>
<desc>lat.=55.741928, lon.=26.550341, Alt.=152.623169m. Speed=20.808001m/h.</desc>
<speed>5.780000</speed>
</trkpt>
<trkpt lat="55.741982" lon="26.550335">
<ele>152.580200</ele>
<time>2010-07-18T13:14:50Z</time>
<desc>lat.=55.741982, lon.=26.550335, Alt.=152.580200m. Speed=20.988001m/h.</desc>
<speed>5.830000</speed>
</trkpt>
<trkpt lat="55.742031" lon="26.550325">
<ele>152.920044</ele>
<time>2010-07-18T13:14:51Z</time>
<desc>lat.=55.742031, lon.=26.550325, Alt.=152.920044m. Speed=19.296000m/h.</desc>
<speed>5.360000</speed>
</trkpt>
<trkpt lat="55.742081" lon="26.550323">
<ele>153.080200</ele>
<time>2010-07-18T13:14:52Z</time>
<desc>lat.=55.742081, lon.=26.550323, Alt.=153.080200m. Speed=19.260000m/h.</desc>
<speed>5.350000</speed>
</trkpt>
<trkpt lat="55.742130" lon="26.550312">
<ele>153.255981</ele>
<time>2010-07-18T13:14:53Z</time>
<desc>lat.=55.742130, lon.=26.550312, Alt.=153.255981m. Speed=18.288000m/h.</desc>
<speed>5.080000</speed>
</trkpt>
<trkpt lat="55.742176" lon="26.550299">
<ele>153.463013</ele>
<time>2010-07-18T13:14:54Z</time>
<desc>lat.=55.742176, lon.=26.550299, Alt.=153.463013m. Speed=17.964001m/h.</desc>
<speed>4.990000</speed>
</trkpt>
<trkpt lat="55.742214" lon="26.550285">
<ele>153.646606</ele>
<time>2010-07-18T13:14:55Z</time>
<desc>lat.=55.742214, lon.=26.550285, Alt.=153.646606m. Speed=18.504000m/h.</desc>
<speed>5.140000</speed>
</trkpt>
<trkpt lat="55.742256" lon="26.550274">
<ele>153.931763</ele>
<time>2010-07-18T13:14:56Z</time>
<desc>lat.=55.742256, lon.=26.550274, Alt.=153.931763m. Speed=18.972000m/h.</desc>
<speed>5.270000</speed>
</trkpt>
<trkpt lat="55.742306" lon="26.550270">
<ele>154.080200</ele>
<time>2010-07-18T13:14:57Z</time>
<desc>lat.=55.742306, lon.=26.550270, Alt.=154.080200m. Speed=19.296000m/h.</desc>
<speed>5.360000</speed>
</trkpt>
<trkpt lat="55.742355" lon="26.550272">
<ele>153.959106</ele>
<time>2010-07-18T13:14:58Z</time>
<desc>lat.=55.742355, lon.=26.550272, Alt.=153.959106m. Speed=18.323999m/h.</desc>
<speed>5.090000</speed>
</trkpt>
<trkpt lat="55.742401" lon="26.550259">
<ele>154.154419</ele>
<time>2010-07-18T13:14:59Z</time>
<desc>lat.=55.742401, lon.=26.550259, Alt.=154.154419m. Speed=19.115999m/h.</desc>
<speed>5.310000</speed>
</trkpt>
<trkpt lat="55.742447" lon="26.550241">
<ele>154.380981</ele>
<time>2010-07-18T13:15:00Z</time>
<desc>lat.=55.742447, lon.=26.550241, Alt.=154.380981m. Speed=16.596001m/h.</desc>
<speed>4.610000</speed>
</trkpt>
<trkpt lat="55.742500" lon="26.550238">
<ele>154.431763</ele>
<time>2010-07-18T13:15:01Z</time>
<desc>lat.=55.742500, lon.=26.550238, Alt.=154.431763m. Speed=19.836000m/h.</desc>
<speed>5.510000</speed>
</trkpt>
<trkpt lat="55.742550" lon="26.550226">
<ele>154.314575</ele>
<time>2010-07-18T13:15:02Z</time>
<desc>lat.=55.742550, lon.=26.550226, Alt.=154.314575m. Speed=19.511999m/h.</desc>
<speed>5.420000</speed>
</trkpt>
<trkpt lat="55.742599" lon="26.550215">
<ele>154.271606</ele>
<time>2010-07-18T13:15:03Z</time>
<desc>lat.=55.742599, lon.=26.550215, Alt.=154.271606m. Speed=19.691999m/h.</desc>
<speed>5.470000</speed>
</trkpt>
<trkpt lat="55.742653" lon="26.550205">
<ele>154.255981</ele>
<time>2010-07-18T13:15:04Z</time>
<desc>lat.=55.742653, lon.=26.550205, Alt.=154.255981m. Speed=21.275999m/h.</desc>
<speed>5.910000</speed>
</trkpt>
<trkpt lat="55.742710" lon="26.550196">
<ele>154.533325</ele>
<time>2010-07-18T13:15:05Z</time>
<desc>lat.=55.742710, lon.=26.550196, Alt.=154.533325m. Speed=21.384001m/h.</desc>
<speed>5.940000</speed>
</trkpt>
<trkpt lat="55.742764" lon="26.550186">
<ele>154.779419</ele>
<time>2010-07-18T13:15:06Z</time>
<desc>lat.=55.742764, lon.=26.550186, Alt.=154.779419m. Speed=19.944000m/h.</desc>
<speed>5.540000</speed>
</trkpt>
<trkpt lat="55.742813" lon="26.550177">
<ele>154.771606</ele>
<time>2010-07-18T13:15:07Z</time>
<desc>lat.=55.742813, lon.=26.550177, Alt.=154.771606m. Speed=19.908001m/h.</desc>
<speed>5.530000</speed>
</trkpt>
<trkpt lat="55.742867" lon="26.550169">
<ele>155.084106</ele>
<time>2010-07-18T13:15:08Z</time>
<desc>lat.=55.742867, lon.=26.550169, Alt.=155.084106m. Speed=20.160000m/h.</desc>
<speed>5.600000</speed>
</trkpt>
<trkpt lat="55.742916" lon="26.550161">
<ele>155.451294</ele>
<time>2010-07-18T13:15:09Z</time>
<desc>lat.=55.742916, lon.=26.550161, Alt.=155.451294m. Speed=20.448000m/h.</desc>
<speed>5.680000</speed>
</trkpt>
<trkpt lat="55.742966" lon="26.550152">
<ele>155.627075</ele>
<time>2010-07-18T13:15:10Z</time>
<desc>lat.=55.742966, lon.=26.550152, Alt.=155.627075m. Speed=20.879999m/h.</desc>
<speed>5.800000</speed>
</trkpt>
<trkpt lat="55.743019" lon="26.550140">
<ele>156.427856</ele>
<time>2010-07-18T13:15:11Z</time>
<desc>lat.=55.743019, lon.=26.550140, Alt.=156.427856m. Speed=19.260000m/h.</desc>
<speed>5.350000</speed>
</trkpt>
<trkpt lat="55.743073" lon="26.550129">
<ele>156.388794</ele>
<time>2010-07-18T13:15:12Z</time>
<desc>lat.=55.743073, lon.=26.550129, Alt.=156.388794m. Speed=19.260000m/h.</desc>
<speed>5.350000</speed>
</trkpt>
<trkpt lat="55.743122" lon="26.550119">
<ele>156.552856</ele>
<time>2010-07-18T13:15:13Z</time>
<desc>lat.=55.743122, lon.=26.550119, Alt.=156.552856m. Speed=19.007999m/h.</desc>
<speed>5.280000</speed>
</trkpt>
<trkpt lat="55.743164" lon="26.550116">
<ele>156.611450</ele>
<time>2010-07-18T13:15:14Z</time>
<desc>lat.=55.743164, lon.=26.550116, Alt.=156.611450m. Speed=17.172001m/h.</desc>
<speed>4.770000</speed>
</trkpt>
<trkpt lat="55.743206" lon="26.550110">
<ele>157.025513</ele>
<time>2010-07-18T13:15:15Z</time>
<desc>lat.=55.743206, lon.=26.550110, Alt.=157.025513m. Speed=17.063999m/h.</desc>
<speed>4.740000</speed>
</trkpt>
<trkpt lat="55.743248" lon="26.550102">
<ele>157.091919</ele>
<time>2010-07-18T13:15:16Z</time>
<desc>lat.=55.743248, lon.=26.550102, Alt.=157.091919m. Speed=17.639999m/h.</desc>
<speed>4.900000</speed>
</trkpt>
<trkpt lat="55.743286" lon="26.550091">
<ele>157.013794</ele>
<time>2010-07-18T13:15:17Z</time>
<desc>lat.=55.743286, lon.=26.550091, Alt.=157.013794m. Speed=17.784000m/h.</desc>
<speed>4.940000</speed>
</trkpt>
<trkpt lat="55.743336" lon="26.550085">
<ele>157.213013</ele>
<time>2010-07-18T13:15:18Z</time>
<desc>lat.=55.743336, lon.=26.550085, Alt.=157.213013m. Speed=18.360001m/h.</desc>
<speed>5.100000</speed>
</trkpt>
<trkpt lat="55.743382" lon="26.550074">
<ele>157.166138</ele>
<time>2010-07-18T13:15:19Z</time>
<desc>lat.=55.743382, lon.=26.550074, Alt.=157.166138m. Speed=18.756001m/h.</desc>
<speed>5.210000</speed>
</trkpt>
<trkpt lat="55.743431" lon="26.550058">
<ele>156.908325</ele>
<time>2010-07-18T13:15:20Z</time>
<desc>lat.=55.743431, lon.=26.550058, Alt.=156.908325m. Speed=18.792000m/h.</desc>
<speed>5.220000</speed>
</trkpt>
<trkpt lat="55.743484" lon="26.550049">
<ele>156.693481</ele>
<time>2010-07-18T13:15:21Z</time>
<desc>lat.=55.743484, lon.=26.550049, Alt.=156.693481m. Speed=18.108000m/h.</desc>
<speed>5.030000</speed>
</trkpt>
<trkpt lat="55.743530" lon="26.550041">
<ele>156.998169</ele>
<time>2010-07-18T13:15:22Z</time>
<desc>lat.=55.743530, lon.=26.550041, Alt.=156.998169m. Speed=17.459999m/h.</desc>
<speed>4.850000</speed>
</trkpt>
<trkpt lat="55.743572" lon="26.550034">
<ele>157.107544</ele>
<time>2010-07-18T13:15:23Z</time>
<desc>lat.=55.743572, lon.=26.550034, Alt.=157.107544m. Speed=16.848000m/h.</desc>
<speed>4.680000</speed>
</trkpt>
<trkpt lat="55.743614" lon="26.550026">
<ele>157.228638</ele>
<time>2010-07-18T13:15:24Z</time>
<desc>lat.=55.743614, lon.=26.550026, Alt.=157.228638m. Speed=15.228000m/h.</desc>
<speed>4.230000</speed>
</trkpt>
<trkpt lat="55.743652" lon="26.550020">
<ele>157.494263</ele>
<time>2010-07-18T13:15:25Z</time>
<desc>lat.=55.743652, lon.=26.550020, Alt.=157.494263m. Speed=14.616000m/h.</desc>
<speed>4.060000</speed>
</trkpt>
<trkpt lat="55.743690" lon="26.550014">
<ele>157.705200</ele>
<time>2010-07-18T13:15:26Z</time>
<desc>lat.=55.743690, lon.=26.550014, Alt.=157.705200m. Speed=14.832000m/h.</desc>
<speed>4.120000</speed>
</trkpt>
<trkpt lat="55.743729" lon="26.550005">
<ele>157.623169</ele>
<time>2010-07-18T13:15:27Z</time>
<desc>lat.=55.743729, lon.=26.550005, Alt.=157.623169m. Speed=14.076000m/h.</desc>
<speed>3.910000</speed>
</trkpt>
<trkpt lat="55.743763" lon="26.549997">
<ele>157.463013</ele>
<time>2010-07-18T13:15:28Z</time>
<desc>lat.=55.743763, lon.=26.549997, Alt.=157.463013m. Speed=13.572000m/h.</desc>
<speed>3.770000</speed>
</trkpt>
<trkpt lat="55.743797" lon="26.549995">
<ele>157.705200</ele>
<time>2010-07-18T13:15:29Z</time>
<desc>lat.=55.743797, lon.=26.549995, Alt.=157.705200m. Speed=13.644000m/h.</desc>
<speed>3.790000</speed>
</trkpt>
<trkpt lat="55.743828" lon="26.549995">
<ele>158.072388</ele>
<time>2010-07-18T13:15:30Z</time>
<desc>lat.=55.743828, lon.=26.549995, Alt.=158.072388m. Speed=13.068000m/h.</desc>
<speed>3.630000</speed>
</trkpt>
<trkpt lat="55.743866" lon="26.549986">
<ele>158.095825</ele>
<time>2010-07-18T13:15:31Z</time>
<desc>lat.=55.743866, lon.=26.549986, Alt.=158.095825m. Speed=14.868000m/h.</desc>
<speed>4.130000</speed>
</trkpt>
<trkpt lat="55.743900" lon="26.549971">
<ele>158.787231</ele>
<time>2010-07-18T13:15:32Z</time>
<desc>lat.=55.743900, lon.=26.549971, Alt.=158.787231m. Speed=13.932000m/h.</desc>
<speed>3.870000</speed>
</trkpt>
<trkpt lat="55.743935" lon="26.549944">
<ele>158.654419</ele>
<time>2010-07-18T13:15:33Z</time>
<desc>lat.=55.743935, lon.=26.549944, Alt.=158.654419m. Speed=14.292000m/h.</desc>
<speed>3.970000</speed>
</trkpt>
<trkpt lat="55.743969" lon="26.549929">
<ele>159.095825</ele>
<time>2010-07-18T13:15:34Z</time>
<desc>lat.=55.743969, lon.=26.549929, Alt.=159.095825m. Speed=13.968000m/h.</desc>
<speed>3.880000</speed>
</trkpt>
<trkpt lat="55.744007" lon="26.549921">
<ele>158.447388</ele>
<time>2010-07-18T13:15:35Z</time>
<desc>lat.=55.744007, lon.=26.549921, Alt.=158.447388m. Speed=16.091999m/h.</desc>
<speed>4.470000</speed>
</trkpt>
<trkpt lat="55.744049" lon="26.549913">
<ele>157.779419</ele>
<time>2010-07-18T13:15:36Z</time>
<desc>lat.=55.744049, lon.=26.549913, Alt.=157.779419m. Speed=16.632000m/h.</desc>
<speed>4.620000</speed>
</trkpt>
<trkpt lat="55.744095" lon="26.549906">
<ele>157.283325</ele>
<time>2010-07-18T13:15:37Z</time>
<desc>lat.=55.744095, lon.=26.549906, Alt.=157.283325m. Speed=17.676001m/h.</desc>
<speed>4.910000</speed>
</trkpt>
<trkpt lat="55.744137" lon="26.549894">
<ele>156.494263</ele>
<time>2010-07-18T13:15:38Z</time>
<desc>lat.=55.744137, lon.=26.549894, Alt.=156.494263m. Speed=19.044001m/h.</desc>
<speed>5.290000</speed>
</trkpt>
<trkpt lat="55.744186" lon="26.549892">
<ele>156.209106</ele>
<time>2010-07-18T13:15:39Z</time>
<desc>lat.=55.744186, lon.=26.549892, Alt.=156.209106m. Speed=19.872000m/h.</desc>
<speed>5.520000</speed>
</trkpt>
<trkpt lat="55.744236" lon="26.549896">
<ele>157.072388</ele>
<time>2010-07-18T13:15:40Z</time>
<desc>lat.=55.744236, lon.=26.549896, Alt.=157.072388m. Speed=20.448000m/h.</desc>
<speed>5.680000</speed>
</trkpt>
<trkpt lat="55.744289" lon="26.549889">
<ele>156.904419</ele>
<time>2010-07-18T13:15:41Z</time>
<desc>lat.=55.744289, lon.=26.549889, Alt.=156.904419m. Speed=21.275999m/h.</desc>
<speed>5.910000</speed>
</trkpt>
<trkpt lat="55.744343" lon="26.549883">
<ele>156.838013</ele>
<time>2010-07-18T13:15:42Z</time>
<desc>lat.=55.744343, lon.=26.549883, Alt.=156.838013m. Speed=21.348000m/h.</desc>
<speed>5.930000</speed>
</trkpt>
<trkpt lat="55.744392" lon="26.549870">
<ele>155.826294</ele>
<time>2010-07-18T13:15:43Z</time>
<desc>lat.=55.744392, lon.=26.549870, Alt.=155.826294m. Speed=20.340000m/h.</desc>
<speed>5.650000</speed>
</trkpt>
<trkpt lat="55.744442" lon="26.549862">
<ele>155.580200</ele>
<time>2010-07-18T13:15:44Z</time>
<desc>lat.=55.744442, lon.=26.549862, Alt.=155.580200m. Speed=19.836000m/h.</desc>
<speed>5.510000</speed>
</trkpt>
<trkpt lat="55.744492" lon="26.549854">
<ele>155.779419</ele>
<time>2010-07-18T13:15:45Z</time>
<desc>lat.=55.744492, lon.=26.549854, Alt.=155.779419m. Speed=20.771999m/h.</desc>
<speed>5.770000</speed>
</trkpt>
<trkpt lat="55.744545" lon="26.549847">
<ele>155.853638</ele>
<time>2010-07-18T13:15:46Z</time>
<desc>lat.=55.744545, lon.=26.549847, Alt.=155.853638m. Speed=20.879999m/h.</desc>
<speed>5.800000</speed>
</trkpt>
<trkpt lat="55.744598" lon="26.549835">
<ele>155.490356</ele>
<time>2010-07-18T13:15:47Z</time>
<desc>lat.=55.744598, lon.=26.549835, Alt.=155.490356m. Speed=21.743999m/h.</desc>
<speed>6.040000</speed>
</trkpt>
<trkpt lat="55.744648" lon="26.549818">
<ele>155.334106</ele>
<time>2010-07-18T13:15:48Z</time>
<desc>lat.=55.744648, lon.=26.549818, Alt.=155.334106m. Speed=20.304001m/h.</desc>
<speed>5.640000</speed>
</trkpt>
<trkpt lat="55.744705" lon="26.549816">
<ele>155.701294</ele>
<time>2010-07-18T13:15:49Z</time>
<desc>lat.=55.744705, lon.=26.549816, Alt.=155.701294m. Speed=20.556000m/h.</desc>
<speed>5.710000</speed>
</trkpt>
<trkpt lat="55.744759" lon="26.549814">
<ele>155.662231</ele>
<time>2010-07-18T13:15:50Z</time>
<desc>lat.=55.744759, lon.=26.549814, Alt.=155.662231m. Speed=19.511999m/h.</desc>
<speed>5.420000</speed>
</trkpt>
<trkpt lat="55.744808" lon="26.549810">
<ele>155.338013</ele>
<time>2010-07-18T13:15:51Z</time>
<desc>lat.=55.744808, lon.=26.549810, Alt.=155.338013m. Speed=20.664000m/h.</desc>
<speed>5.740000</speed>
</trkpt>
<trkpt lat="55.744862" lon="26.549807">
<ele>155.310669</ele>
<time>2010-07-18T13:15:52Z</time>
<desc>lat.=55.744862, lon.=26.549807, Alt.=155.310669m. Speed=19.511999m/h.</desc>
<speed>5.420000</speed>
</trkpt>
<trkpt lat="55.744907" lon="26.549795">
<ele>155.170044</ele>
<time>2010-07-18T13:15:53Z</time>
<desc>lat.=55.744907, lon.=26.549795, Alt.=155.170044m. Speed=18.072001m/h.</desc>
<speed>5.020000</speed>
</trkpt>
<trkpt lat="55.744949" lon="26.549778">
<ele>155.720825</ele>
<time>2010-07-18T13:15:54Z</time>
<desc>lat.=55.744949, lon.=26.549778, Alt.=155.720825m. Speed=17.820000m/h.</desc>
<speed>4.950000</speed>
</trkpt>
<trkpt lat="55.744995" lon="26.549763">
<ele>155.564575</ele>
<time>2010-07-18T13:15:55Z</time>
<desc>lat.=55.744995, lon.=26.549763, Alt.=155.564575m. Speed=18.216000m/h.</desc>
<speed>5.060000</speed>
</trkpt>
<trkpt lat="55.745041" lon="26.549757">
<ele>154.970825</ele>
<time>2010-07-18T13:15:56Z</time>
<desc>lat.=55.745041, lon.=26.549757, Alt.=154.970825m. Speed=17.063999m/h.</desc>
<speed>4.740000</speed>
</trkpt>
<trkpt lat="55.745083" lon="26.549740">
<ele>155.107544</ele>
<time>2010-07-18T13:15:57Z</time>
<desc>lat.=55.745083, lon.=26.549740, Alt.=155.107544m. Speed=15.336000m/h.</desc>
<speed>4.260000</speed>
</trkpt>
<trkpt lat="55.745129" lon="26.549723">
<ele>154.478638</ele>
<time>2010-07-18T13:15:58Z</time>
<desc>lat.=55.745129, lon.=26.549723, Alt.=154.478638m. Speed=16.200001m/h.</desc>
<speed>4.500000</speed>
</trkpt>
<trkpt lat="55.745171" lon="26.549704">
<ele>154.482544</ele>
<time>2010-07-18T13:15:59Z</time>
<desc>lat.=55.745171, lon.=26.549704, Alt.=154.482544m. Speed=16.812000m/h.</desc>
<speed>4.670000</speed>
</trkpt>
<trkpt lat="55.745220" lon="26.549704">
<ele>153.498169</ele>
<time>2010-07-18T13:16:00Z</time>
<desc>lat.=55.745220, lon.=26.549704, Alt.=153.498169m. Speed=17.208000m/h.</desc>
<speed>4.780000</speed>
</trkpt>
<trkpt lat="55.745266" lon="26.549696">
<ele>153.025513</ele>
<time>2010-07-18T13:16:01Z</time>
<desc>lat.=55.745266, lon.=26.549696, Alt.=153.025513m. Speed=17.243999m/h.</desc>
<speed>4.790000</speed>
</trkpt>
<trkpt lat="55.745308" lon="26.549685">
<ele>152.709106</ele>
<time>2010-07-18T13:16:02Z</time>
<desc>lat.=55.745308, lon.=26.549685, Alt.=152.709106m. Speed=16.524000m/h.</desc>
<speed>4.590000</speed>
</trkpt>
<trkpt lat="55.745346" lon="26.549673">
<ele>152.810669</ele>
<time>2010-07-18T13:16:03Z</time>
<desc>lat.=55.745346, lon.=26.549673, Alt.=152.810669m. Speed=16.164000m/h.</desc>
<speed>4.490000</speed>
</trkpt>
<trkpt lat="55.745388" lon="26.549665">
<ele>152.666138</ele>
<time>2010-07-18T13:16:04Z</time>
<desc>lat.=55.745388, lon.=26.549665, Alt.=152.666138m. Speed=15.984000m/h.</desc>
<speed>4.440000</speed>
</trkpt>
<trkpt lat="55.745430" lon="26.549660">
<ele>152.259888</ele>
<time>2010-07-18T13:16:05Z</time>
<desc>lat.=55.745430, lon.=26.549660, Alt.=152.259888m. Speed=16.812000m/h.</desc>
<speed>4.670000</speed>
</trkpt>
<trkpt lat="55.745480" lon="26.549658">
<ele>153.232544</ele>
<time>2010-07-18T13:16:06Z</time>
<desc>lat.=55.745480, lon.=26.549658, Alt.=153.232544m. Speed=17.892000m/h.</desc>
<speed>4.970000</speed>
</trkpt>
<trkpt lat="55.745529" lon="26.549650">
<ele>153.822388</ele>
<time>2010-07-18T13:16:07Z</time>
<desc>lat.=55.745529, lon.=26.549650, Alt.=153.822388m. Speed=18.756001m/h.</desc>
<speed>5.210000</speed>
</trkpt>
<trkpt lat="55.745579" lon="26.549644">
<ele>154.529419</ele>
<time>2010-07-18T13:16:08Z</time>
<desc>lat.=55.745579, lon.=26.549644, Alt.=154.529419m. Speed=19.799999m/h.</desc>
<speed>5.500000</speed>
</trkpt>
<trkpt lat="55.745628" lon="26.549633">
<ele>154.474731</ele>
<time>2010-07-18T13:16:09Z</time>
<desc>lat.=55.745628, lon.=26.549633, Alt.=154.474731m. Speed=20.736000m/h.</desc>
<speed>5.760000</speed>
</trkpt>
<trkpt lat="55.745686" lon="26.549627">
<ele>155.177856</ele>
<time>2010-07-18T13:16:10Z</time>
<desc>lat.=55.745686, lon.=26.549627, Alt.=155.177856m. Speed=21.492001m/h.</desc>
<speed>5.970000</speed>
</trkpt>
<trkpt lat="55.745743" lon="26.549620">
<ele>155.998169</ele>
<time>2010-07-18T13:16:11Z</time>
<desc>lat.=55.745743, lon.=26.549620, Alt.=155.998169m. Speed=22.104000m/h.</desc>
<speed>6.140000</speed>
</trkpt>
<trkpt lat="55.745800" lon="26.549614">
<ele>156.322388</ele>
<time>2010-07-18T13:16:12Z</time>
<desc>lat.=55.745800, lon.=26.549614, Alt.=156.322388m. Speed=22.392000m/h.</desc>
<speed>6.220000</speed>
</trkpt>
<trkpt lat="55.745853" lon="26.549597">
<ele>156.482544</ele>
<time>2010-07-18T13:16:13Z</time>
<desc>lat.=55.745853, lon.=26.549597, Alt.=156.482544m. Speed=22.716000m/h.</desc>
<speed>6.310000</speed>
</trkpt>
<trkpt lat="55.745911" lon="26.549583">
<ele>157.170044</ele>
<time>2010-07-18T13:16:14Z</time>
<desc>lat.=55.745911, lon.=26.549583, Alt.=157.170044m. Speed=22.139999m/h.</desc>
<speed>6.150000</speed>
</trkpt>
<trkpt lat="55.745964" lon="26.549568">
<ele>156.900513</ele>
<time>2010-07-18T13:16:15Z</time>
<desc>lat.=55.745964, lon.=26.549568, Alt.=156.900513m. Speed=21.455999m/h.</desc>
<speed>5.960000</speed>
</trkpt>
<trkpt lat="55.746017" lon="26.549562">
<ele>157.088013</ele>
<time>2010-07-18T13:16:16Z</time>
<desc>lat.=55.746017, lon.=26.549562, Alt.=157.088013m. Speed=20.844000m/h.</desc>
<speed>5.790000</speed>
</trkpt>
<trkpt lat="55.746067" lon="26.549551">
<ele>157.123169</ele>
<time>2010-07-18T13:16:17Z</time>
<desc>lat.=55.746067, lon.=26.549551, Alt.=157.123169m. Speed=20.375999m/h.</desc>
<speed>5.660000</speed>
</trkpt>
<trkpt lat="55.746117" lon="26.549541">
<ele>157.502075</ele>
<time>2010-07-18T13:16:18Z</time>
<desc>lat.=55.746117, lon.=26.549541, Alt.=157.502075m. Speed=20.736000m/h.</desc>
<speed>5.760000</speed>
</trkpt>
<trkpt lat="55.746166" lon="26.549526">
<ele>157.439575</ele>
<time>2010-07-18T13:16:19Z</time>
<desc>lat.=55.746166, lon.=26.549526, Alt.=157.439575m. Speed=21.528000m/h.</desc>
<speed>5.980000</speed>
</trkpt>
<trkpt lat="55.746220" lon="26.549515">
<ele>157.634888</ele>
<time>2010-07-18T13:16:20Z</time>
<desc>lat.=55.746220, lon.=26.549515, Alt.=157.634888m. Speed=21.743999m/h.</desc>
<speed>6.040000</speed>
</trkpt>
<trkpt lat="55.746273" lon="26.549505">
<ele>157.392700</ele>
<time>2010-07-18T13:16:21Z</time>
<desc>lat.=55.746273, lon.=26.549505, Alt.=157.392700m. Speed=21.600000m/h.</desc>
<speed>6.000000</speed>
</trkpt>
<trkpt lat="55.746330" lon="26.549494">
<ele>158.068481</ele>
<time>2010-07-18T13:16:22Z</time>
<desc>lat.=55.746330, lon.=26.549494, Alt.=158.068481m. Speed=21.132000m/h.</desc>
<speed>5.870000</speed>
</trkpt>
<trkpt lat="55.746384" lon="26.549484">
<ele>158.408325</ele>
<time>2010-07-18T13:16:23Z</time>
<desc>lat.=55.746384, lon.=26.549484, Alt.=158.408325m. Speed=20.664000m/h.</desc>
<speed>5.740000</speed>
</trkpt>
<trkpt lat="55.746437" lon="26.549477">
<ele>158.525513</ele>
<time>2010-07-18T13:16:24Z</time>
<desc>lat.=55.746437, lon.=26.549477, Alt.=158.525513m. Speed=20.160000m/h.</desc>
<speed>5.600000</speed>
</trkpt>
<trkpt lat="55.746487" lon="26.549465">
<ele>158.529419</ele>
<time>2010-07-18T13:16:25Z</time>
<desc>lat.=55.746487, lon.=26.549465, Alt.=158.529419m. Speed=19.511999m/h.</desc>
<speed>5.420000</speed>
</trkpt>
<trkpt lat="55.746532" lon="26.549458">
<ele>158.744263</ele>
<time>2010-07-18T13:16:26Z</time>
<desc>lat.=55.746532, lon.=26.549458, Alt.=158.744263m. Speed=19.511999m/h.</desc>
<speed>5.420000</speed>
</trkpt>
<trkpt lat="55.746582" lon="26.549444">
<ele>158.877075</ele>
<time>2010-07-18T13:16:27Z</time>
<desc>lat.=55.746582, lon.=26.549444, Alt.=158.877075m. Speed=19.152000m/h.</desc>
<speed>5.320000</speed>
</trkpt>
<trkpt lat="55.746632" lon="26.549431">
<ele>159.048950</ele>
<time>2010-07-18T13:16:28Z</time>
<desc>lat.=55.746632, lon.=26.549431, Alt.=159.048950m. Speed=19.799999m/h.</desc>
<speed>5.500000</speed>
</trkpt>
<trkpt lat="55.746677" lon="26.549416">
<ele>159.353638</ele>
<time>2010-07-18T13:16:29Z</time>
<desc>lat.=55.746677, lon.=26.549416, Alt.=159.353638m. Speed=19.728001m/h.</desc>
<speed>5.480000</speed>
</trkpt>
<trkpt lat="55.746727" lon="26.549402">
<ele>159.673950</ele>
<time>2010-07-18T13:16:30Z</time>
<desc>lat.=55.746727, lon.=26.549402, Alt.=159.673950m. Speed=19.980000m/h.</desc>
<speed>5.550000</speed>
</trkpt>
<trkpt lat="55.746773" lon="26.549391">
<ele>159.861450</ele>
<time>2010-07-18T13:16:31Z</time>
<desc>lat.=55.746773, lon.=26.549391, Alt.=159.861450m. Speed=18.684000m/h.</desc>
<speed>5.190000</speed>
</trkpt>
<trkpt lat="55.746819" lon="26.549381">
<ele>159.591919</ele>
<time>2010-07-18T13:16:32Z</time>
<desc>lat.=55.746819, lon.=26.549381, Alt.=159.591919m. Speed=18.431999m/h.</desc>
<speed>5.120000</speed>
</trkpt>
<trkpt lat="55.746868" lon="26.549368">
<ele>159.201294</ele>
<time>2010-07-18T13:16:33Z</time>
<desc>lat.=55.746868, lon.=26.549368, Alt.=159.201294m. Speed=18.900000m/h.</desc>
<speed>5.250000</speed>
</trkpt>
<trkpt lat="55.746914" lon="26.549353">
<ele>158.966919</ele>
<time>2010-07-18T13:16:34Z</time>
<desc>lat.=55.746914, lon.=26.549353, Alt.=158.966919m. Speed=19.332001m/h.</desc>
<speed>5.370000</speed>
</trkpt>
<trkpt lat="55.746964" lon="26.549337">
<ele>158.802856</ele>
<time>2010-07-18T13:16:35Z</time>
<desc>lat.=55.746964, lon.=26.549337, Alt.=158.802856m. Speed=19.799999m/h.</desc>
<speed>5.500000</speed>
</trkpt>
<trkpt lat="55.747009" lon="26.549314">
<ele>157.783325</ele>
<time>2010-07-18T13:16:36Z</time>
<desc>lat.=55.747009, lon.=26.549314, Alt.=157.783325m. Speed=19.224001m/h.</desc>
<speed>5.340000</speed>
</trkpt>
<trkpt lat="55.747055" lon="26.549303">
<ele>157.099731</ele>
<time>2010-07-18T13:16:37Z</time>
<desc>lat.=55.747055, lon.=26.549303, Alt.=157.099731m. Speed=19.007999m/h.</desc>
<speed>5.280000</speed>
</trkpt>
<trkpt lat="55.747101" lon="26.549292">
<ele>156.701294</ele>
<time>2010-07-18T13:16:38Z</time>
<desc>lat.=55.747101, lon.=26.549292, Alt.=156.701294m. Speed=19.476000m/h.</desc>
<speed>5.410000</speed>
</trkpt>
<trkpt lat="55.747150" lon="26.549290">
<ele>156.681763</ele>
<time>2010-07-18T13:16:39Z</time>
<desc>lat.=55.747150, lon.=26.549290, Alt.=156.681763m. Speed=20.520000m/h.</desc>
<speed>5.700000</speed>
</trkpt>
<trkpt lat="55.747196" lon="26.549278">
<ele>156.599731</ele>
<time>2010-07-18T13:16:40Z</time>
<desc>lat.=55.747196, lon.=26.549278, Alt.=156.599731m. Speed=20.844000m/h.</desc>
<speed>5.790000</speed>
</trkpt>
<trkpt lat="55.747250" lon="26.549263">
<ele>156.517700</ele>
<time>2010-07-18T13:16:41Z</time>
<desc>lat.=55.747250, lon.=26.549263, Alt.=156.517700m. Speed=21.059999m/h.</desc>
<speed>5.850000</speed>
</trkpt>
<trkpt lat="55.747299" lon="26.549250">
<ele>156.517700</ele>
<time>2010-07-18T13:16:42Z</time>
<desc>lat.=55.747299, lon.=26.549250, Alt.=156.517700m. Speed=18.972000m/h.</desc>
<speed>5.270000</speed>
</trkpt>
<trkpt lat="55.747349" lon="26.549236">
<ele>156.240356</ele>
<time>2010-07-18T13:16:43Z</time>
<desc>lat.=55.747349, lon.=26.549236, Alt.=156.240356m. Speed=19.728001m/h.</desc>
<speed>5.480000</speed>
</trkpt>
<trkpt lat="55.747395" lon="26.549229">
<ele>154.959106</ele>
<time>2010-07-18T13:16:44Z</time>
<desc>lat.=55.747395, lon.=26.549229, Alt.=154.959106m. Speed=19.476000m/h.</desc>
<speed>5.410000</speed>
</trkpt>
<trkpt lat="55.747444" lon="26.549232">
<ele>153.822388</ele>
<time>2010-07-18T13:16:45Z</time>
<desc>lat.=55.747444, lon.=26.549232, Alt.=153.822388m. Speed=19.007999m/h.</desc>
<speed>5.280000</speed>
</trkpt>
<trkpt lat="55.747494" lon="26.549229">
<ele>152.920044</ele>
<time>2010-07-18T13:16:46Z</time>
<desc>lat.=55.747494, lon.=26.549229, Alt.=152.920044m. Speed=20.268000m/h.</desc>
<speed>5.630000</speed>
</trkpt>
<trkpt lat="55.747559" lon="26.549217">
<ele>153.455200</ele>
<time>2010-07-18T13:16:47Z</time>
<desc>lat.=55.747559, lon.=26.549217, Alt.=153.455200m. Speed=20.700001m/h.</desc>
<speed>5.750000</speed>
</trkpt>
<trkpt lat="55.747620" lon="26.549204">
<ele>154.009888</ele>
<time>2010-07-18T13:16:48Z</time>
<desc>lat.=55.747620, lon.=26.549204, Alt.=154.009888m. Speed=20.340000m/h.</desc>
<speed>5.650000</speed>
</trkpt>
<trkpt lat="55.747673" lon="26.549191">
<ele>153.439575</ele>
<time>2010-07-18T13:16:49Z</time>
<desc>lat.=55.747673, lon.=26.549191, Alt.=153.439575m. Speed=19.799999m/h.</desc>
<speed>5.500000</speed>
</trkpt>
<trkpt lat="55.747719" lon="26.549179">
<ele>153.357544</ele>
<time>2010-07-18T13:16:50Z</time>
<desc>lat.=55.747719, lon.=26.549179, Alt.=153.357544m. Speed=19.403999m/h.</desc>
<speed>5.390000</speed>
</trkpt>
<trkpt lat="55.747768" lon="26.549158">
<ele>153.509888</ele>
<time>2010-07-18T13:16:51Z</time>
<desc>lat.=55.747768, lon.=26.549158, Alt.=153.509888m. Speed=18.972000m/h.</desc>
<speed>5.270000</speed>
</trkpt>
<trkpt lat="55.747818" lon="26.549147">
<ele>153.709106</ele>
<time>2010-07-18T13:16:52Z</time>
<desc>lat.=55.747818, lon.=26.549147, Alt.=153.709106m. Speed=18.900000m/h.</desc>
<speed>5.250000</speed>
</trkpt>
<trkpt lat="55.747868" lon="26.549137">
<ele>154.334106</ele>
<time>2010-07-18T13:16:53Z</time>
<desc>lat.=55.747868, lon.=26.549137, Alt.=154.334106m. Speed=19.080000m/h.</desc>
<speed>5.300000</speed>
</trkpt>
<trkpt lat="55.747913" lon="26.549129">
<ele>154.541138</ele>
<time>2010-07-18T13:16:54Z</time>
<desc>lat.=55.747913, lon.=26.549129, Alt.=154.541138m. Speed=18.792000m/h.</desc>
<speed>5.220000</speed>
</trkpt>
<trkpt lat="55.747959" lon="26.549122">
<ele>154.451294</ele>
<time>2010-07-18T13:16:55Z</time>
<desc>lat.=55.747959, lon.=26.549122, Alt.=154.451294m. Speed=19.188000m/h.</desc>
<speed>5.330000</speed>
</trkpt>
<trkpt lat="55.748009" lon="26.549112">
<ele>154.556763</ele>
<time>2010-07-18T13:16:56Z</time>
<desc>lat.=55.748009, lon.=26.549112, Alt.=154.556763m. Speed=19.656000m/h.</desc>
<speed>5.460000</speed>
</trkpt>
<trkpt lat="55.748058" lon="26.549107">
<ele>154.521606</ele>
<time>2010-07-18T13:16:57Z</time>
<desc>lat.=55.748058, lon.=26.549107, Alt.=154.521606m. Speed=20.664000m/h.</desc>
<speed>5.740000</speed>
</trkpt>
<trkpt lat="55.748112" lon="26.549099">
<ele>154.548950</ele>
<time>2010-07-18T13:16:58Z</time>
<desc>lat.=55.748112, lon.=26.549099, Alt.=154.548950m. Speed=21.384001m/h.</desc>
<speed>5.940000</speed>
</trkpt>
<trkpt lat="55.748169" lon="26.549084">
<ele>154.689575</ele>
<time>2010-07-18T13:16:59Z</time>
<desc>lat.=55.748169, lon.=26.549084, Alt.=154.689575m. Speed=22.032000m/h.</desc>
<speed>6.120000</speed>
</trkpt>
<trkpt lat="55.748226" lon="26.549072">
<ele>155.306763</ele>
<time>2010-07-18T13:17:00Z</time>
<desc>lat.=55.748226, lon.=26.549072, Alt.=155.306763m. Speed=21.888000m/h.</desc>
<speed>6.080000</speed>
</trkpt>
<trkpt lat="55.748283" lon="26.549067">
<ele>155.584106</ele>
<time>2010-07-18T13:17:01Z</time>
<desc>lat.=55.748283, lon.=26.549067, Alt.=155.584106m. Speed=21.455999m/h.</desc>
<speed>5.960000</speed>
</trkpt>
<trkpt lat="55.748341" lon="26.549065">
<ele>155.935669</ele>
<time>2010-07-18T13:17:02Z</time>
<desc>lat.=55.748341, lon.=26.549065, Alt.=155.935669m. Speed=21.240000m/h.</desc>
<speed>5.900000</speed>
</trkpt>
<trkpt lat="55.748390" lon="26.549059">
<ele>156.064575</ele>
<time>2010-07-18T13:17:03Z</time>
<desc>lat.=55.748390, lon.=26.549059, Alt.=156.064575m. Speed=20.952000m/h.</desc>
<speed>5.820000</speed>
</trkpt>
<trkpt lat="55.748444" lon="26.549057">
<ele>156.361450</ele>
<time>2010-07-18T13:17:04Z</time>
<desc>lat.=55.748444, lon.=26.549057, Alt.=156.361450m. Speed=20.664000m/h.</desc>
<speed>5.740000</speed>
</trkpt>
<trkpt lat="55.748497" lon="26.549051">
<ele>156.420044</ele>
<time>2010-07-18T13:17:05Z</time>
<desc>lat.=55.748497, lon.=26.549051, Alt.=156.420044m. Speed=20.268000m/h.</desc>
<speed>5.630000</speed>
</trkpt>
<trkpt lat="55.748547" lon="26.549040">
<ele>156.326294</ele>
<time>2010-07-18T13:17:06Z</time>
<desc>lat.=55.748547, lon.=26.549040, Alt.=156.326294m. Speed=19.764000m/h.</desc>
<speed>5.490000</speed>
</trkpt>
<trkpt lat="55.748592" lon="26.549030">
<ele>156.353638</ele>
<time>2010-07-18T13:17:07Z</time>
<desc>lat.=55.748592, lon.=26.549030, Alt.=156.353638m. Speed=19.296000m/h.</desc>
<speed>5.360000</speed>
</trkpt>
<trkpt lat="55.748642" lon="26.549026">
<ele>156.134888</ele>
<time>2010-07-18T13:17:08Z</time>
<desc>lat.=55.748642, lon.=26.549026, Alt.=156.134888m. Speed=19.403999m/h.</desc>
<speed>5.390000</speed>
</trkpt>
<trkpt lat="55.748692" lon="26.549019">
<ele>156.177856</ele>
<time>2010-07-18T13:17:09Z</time>
<desc>lat.=55.748692, lon.=26.549019, Alt.=156.177856m. Speed=19.656000m/h.</desc>
<speed>5.460000</speed>
</trkpt>
<trkpt lat="55.748741" lon="26.549007">
<ele>156.248169</ele>
<time>2010-07-18T13:17:10Z</time>
<desc>lat.=55.748741, lon.=26.549007, Alt.=156.248169m. Speed=20.375999m/h.</desc>
<speed>5.660000</speed>
</trkpt>
<trkpt lat="55.748791" lon="26.549002">
<ele>156.275513</ele>
<time>2010-07-18T13:17:11Z</time>
<desc>lat.=55.748791, lon.=26.549002, Alt.=156.275513m. Speed=20.664000m/h.</desc>
<speed>5.740000</speed>
</trkpt>
<trkpt lat="55.748844" lon="26.548996">
<ele>156.474731</ele>
<time>2010-07-18T13:17:12Z</time>
<desc>lat.=55.748844, lon.=26.548996, Alt.=156.474731m. Speed=20.664000m/h.</desc>
<speed>5.740000</speed>
</trkpt>
<trkpt lat="55.748898" lon="26.548994">
<ele>156.607544</ele>
<time>2010-07-18T13:17:13Z</time>
<desc>lat.=55.748898, lon.=26.548994, Alt.=156.607544m. Speed=20.340000m/h.</desc>
<speed>5.650000</speed>
</trkpt>
<trkpt lat="55.748947" lon="26.548986">
<ele>156.783325</ele>
<time>2010-07-18T13:17:14Z</time>
<desc>lat.=55.748947, lon.=26.548986, Alt.=156.783325m. Speed=19.872000m/h.</desc>
<speed>5.520000</speed>
</trkpt>
<trkpt lat="55.748997" lon="26.548979">
<ele>156.822388</ele>
<time>2010-07-18T13:17:15Z</time>
<desc>lat.=55.748997, lon.=26.548979, Alt.=156.822388m. Speed=19.476000m/h.</desc>
<speed>5.410000</speed>
</trkpt>
<trkpt lat="55.749046" lon="26.548969">
<ele>157.138794</ele>
<time>2010-07-18T13:17:16Z</time>
<desc>lat.=55.749046, lon.=26.548969, Alt.=157.138794m. Speed=18.936001m/h.</desc>
<speed>5.260000</speed>
</trkpt>
<trkpt lat="55.749092" lon="26.548962">
<ele>157.314575</ele>
<time>2010-07-18T13:17:17Z</time>
<desc>lat.=55.749092, lon.=26.548962, Alt.=157.314575m. Speed=18.612000m/h.</desc>
<speed>5.170000</speed>
</trkpt>
<trkpt lat="55.749138" lon="26.548948">
<ele>157.494263</ele>
<time>2010-07-18T13:17:18Z</time>
<desc>lat.=55.749138, lon.=26.548948, Alt.=157.494263m. Speed=18.900000m/h.</desc>
<speed>5.250000</speed>
</trkpt>
<trkpt lat="55.749187" lon="26.548933">
<ele>158.095825</ele>
<time>2010-07-18T13:17:19Z</time>
<desc>lat.=55.749187, lon.=26.548933, Alt.=158.095825m. Speed=18.792000m/h.</desc>
<speed>5.220000</speed>
</trkpt>
<trkpt lat="55.749226" lon="26.548922">
<ele>157.517700</ele>
<time>2010-07-18T13:17:20Z</time>
<desc>lat.=55.749226, lon.=26.548922, Alt.=157.517700m. Speed=18.756001m/h.</desc>
<speed>5.210000</speed>
</trkpt>
<trkpt lat="55.749275" lon="26.548920">
<ele>157.408325</ele>
<time>2010-07-18T13:17:21Z</time>
<desc>lat.=55.749275, lon.=26.548920, Alt.=157.408325m. Speed=19.368000m/h.</desc>
<speed>5.380000</speed>
</trkpt>
<trkpt lat="55.749325" lon="26.548922">
<ele>157.642700</ele>
<time>2010-07-18T13:17:22Z</time>
<desc>lat.=55.749325, lon.=26.548922, Alt.=157.642700m. Speed=20.016001m/h.</desc>
<speed>5.560000</speed>
</trkpt>
<trkpt lat="55.749374" lon="26.548916">
<ele>157.759888</ele>
<time>2010-07-18T13:17:23Z</time>
<desc>lat.=55.749374, lon.=26.548916, Alt.=157.759888m. Speed=20.736000m/h.</desc>
<speed>5.760000</speed>
</trkpt>
<trkpt lat="55.749424" lon="26.548908">
<ele>157.548950</ele>
<time>2010-07-18T13:17:24Z</time>
<desc>lat.=55.749424, lon.=26.548908, Alt.=157.548950m. Speed=21.096001m/h.</desc>
<speed>5.860000</speed>
</trkpt>
<trkpt lat="55.749477" lon="26.548901">
<ele>157.728638</ele>
<time>2010-07-18T13:17:25Z</time>
<desc>lat.=55.749477, lon.=26.548901, Alt.=157.728638m. Speed=21.816000m/h.</desc>
<speed>6.060000</speed>
</trkpt>
<trkpt lat="55.749531" lon="26.548889">
<ele>157.795044</ele>
<time>2010-07-18T13:17:26Z</time>
<desc>lat.=55.749531, lon.=26.548889, Alt.=157.795044m. Speed=22.247999m/h.</desc>
<speed>6.180000</speed>
</trkpt>
<trkpt lat="55.749584" lon="26.548874">
<ele>157.603638</ele>
<time>2010-07-18T13:17:27Z</time>
<desc>lat.=55.749584, lon.=26.548874, Alt.=157.603638m. Speed=21.708000m/h.</desc>
<speed>6.030000</speed>
</trkpt>
<trkpt lat="55.749638" lon="26.548859">
<ele>157.521606</ele>
<time>2010-07-18T13:17:28Z</time>
<desc>lat.=55.749638, lon.=26.548859, Alt.=157.521606m. Speed=21.455999m/h.</desc>
<speed>5.960000</speed>
</trkpt>
<trkpt lat="55.749691" lon="26.548847">
<ele>157.603638</ele>
<time>2010-07-18T13:17:29Z</time>
<desc>lat.=55.749691, lon.=26.548847, Alt.=157.603638m. Speed=21.132000m/h.</desc>
<speed>5.870000</speed>
</trkpt>
<trkpt lat="55.749741" lon="26.548838">
<ele>157.822388</ele>
<time>2010-07-18T13:17:30Z</time>
<desc>lat.=55.749741, lon.=26.548838, Alt.=157.822388m. Speed=20.520000m/h.</desc>
<speed>5.700000</speed>
</trkpt>
<trkpt lat="55.749794" lon="26.548826">
<ele>157.982544</ele>
<time>2010-07-18T13:17:31Z</time>
<desc>lat.=55.749794, lon.=26.548826, Alt.=157.982544m. Speed=20.160000m/h.</desc>
<speed>5.600000</speed>
</trkpt>
<trkpt lat="55.749844" lon="26.548822">
<ele>158.095825</ele>
<time>2010-07-18T13:17:32Z</time>
<desc>lat.=55.749844, lon.=26.548822, Alt.=158.095825m. Speed=20.700001m/h.</desc>
<speed>5.750000</speed>
</trkpt>
<trkpt lat="55.749897" lon="26.548822">
<ele>157.927856</ele>
<time>2010-07-18T13:17:33Z</time>
<desc>lat.=55.749897, lon.=26.548822, Alt.=157.927856m. Speed=21.096001m/h.</desc>
<speed>5.860000</speed>
</trkpt>
<trkpt lat="55.749947" lon="26.548815">
<ele>157.767700</ele>
<time>2010-07-18T13:17:34Z</time>
<desc>lat.=55.749947, lon.=26.548815, Alt.=157.767700m. Speed=21.204000m/h.</desc>
<speed>5.890000</speed>
</trkpt>
<trkpt lat="55.750000" lon="26.548803">
<ele>157.560669</ele>
<time>2010-07-18T13:17:35Z</time>
<desc>lat.=55.750000, lon.=26.548803, Alt.=157.560669m. Speed=20.448000m/h.</desc>
<speed>5.680000</speed>
</trkpt>
<trkpt lat="55.750050" lon="26.548794">
<ele>157.513794</ele>
<time>2010-07-18T13:17:36Z</time>
<desc>lat.=55.750050, lon.=26.548794, Alt.=157.513794m. Speed=19.872000m/h.</desc>
<speed>5.520000</speed>
</trkpt>
<trkpt lat="55.750099" lon="26.548788">
<ele>157.802856</ele>
<time>2010-07-18T13:17:37Z</time>
<desc>lat.=55.750099, lon.=26.548788, Alt.=157.802856m. Speed=19.296000m/h.</desc>
<speed>5.360000</speed>
</trkpt>
<trkpt lat="55.750149" lon="26.548780">
<ele>157.978638</ele>
<time>2010-07-18T13:17:38Z</time>
<desc>lat.=55.750149, lon.=26.548780, Alt.=157.978638m. Speed=18.504000m/h.</desc>
<speed>5.140000</speed>
</trkpt>
<trkpt lat="55.750191" lon="26.548775">
<ele>158.240356</ele>
<time>2010-07-18T13:17:39Z</time>
<desc>lat.=55.750191, lon.=26.548775, Alt.=158.240356m. Speed=18.323999m/h.</desc>
<speed>5.090000</speed>
</trkpt>
<trkpt lat="55.750237" lon="26.548765">
<ele>158.517700</ele>
<time>2010-07-18T13:17:40Z</time>
<desc>lat.=55.750237, lon.=26.548765, Alt.=158.517700m. Speed=17.712000m/h.</desc>
<speed>4.920000</speed>
</trkpt>
<trkpt lat="55.750282" lon="26.548756">
<ele>158.740356</ele>
<time>2010-07-18T13:17:41Z</time>
<desc>lat.=55.750282, lon.=26.548756, Alt.=158.740356m. Speed=16.955999m/h.</desc>
<speed>4.710000</speed>
</trkpt>
<trkpt lat="55.750320" lon="26.548746">
<ele>159.056763</ele>
<time>2010-07-18T13:17:42Z</time>
<desc>lat.=55.750320, lon.=26.548746, Alt.=159.056763m. Speed=16.164000m/h.</desc>
<speed>4.490000</speed>
</trkpt>
<trkpt lat="55.750362" lon="26.548740">
<ele>159.384888</ele>
<time>2010-07-18T13:17:43Z</time>
<desc>lat.=55.750362, lon.=26.548740, Alt.=159.384888m. Speed=15.264000m/h.</desc>
<speed>4.240000</speed>
</trkpt>
<trkpt lat="55.750397" lon="26.548733">
<ele>159.322388</ele>
<time>2010-07-18T13:17:44Z</time>
<desc>lat.=55.750397, lon.=26.548733, Alt.=159.322388m. Speed=14.328000m/h.</desc>
<speed>3.980000</speed>
</trkpt>
<trkpt lat="55.750435" lon="26.548725">
<ele>159.357544</ele>
<time>2010-07-18T13:17:45Z</time>
<desc>lat.=55.750435, lon.=26.548725, Alt.=159.357544m. Speed=13.608000m/h.</desc>
<speed>3.780000</speed>
</trkpt>
<trkpt lat="55.750465" lon="26.548719">
<ele>159.357544</ele>
<time>2010-07-18T13:17:46Z</time>
<desc>lat.=55.750465, lon.=26.548719, Alt.=159.357544m. Speed=12.960000m/h.</desc>
<speed>3.600000</speed>
</trkpt>
<trkpt lat="55.750496" lon="26.548710">
<ele>159.259888</ele>
<time>2010-07-18T13:17:47Z</time>
<desc>lat.=55.750496, lon.=26.548710, Alt.=159.259888m. Speed=12.852000m/h.</desc>
<speed>3.570000</speed>
</trkpt>
<trkpt lat="55.750526" lon="26.548698">
<ele>159.353638</ele>
<time>2010-07-18T13:17:48Z</time>
<desc>lat.=55.750526, lon.=26.548698, Alt.=159.353638m. Speed=13.248000m/h.</desc>
<speed>3.680000</speed>
</trkpt>
<trkpt lat="55.750557" lon="26.548687">
<ele>159.498169</ele>
<time>2010-07-18T13:17:49Z</time>
<desc>lat.=55.750557, lon.=26.548687, Alt.=159.498169m. Speed=13.752000m/h.</desc>
<speed>3.820000</speed>
</trkpt>
<trkpt lat="55.750591" lon="26.548679">
<ele>159.525513</ele>
<time>2010-07-18T13:17:50Z</time>
<desc>lat.=55.750591, lon.=26.548679, Alt.=159.525513m. Speed=14.256000m/h.</desc>
<speed>3.960000</speed>
</trkpt>
<trkpt lat="55.750629" lon="26.548677">
<ele>159.369263</ele>
<time>2010-07-18T13:17:51Z</time>
<desc>lat.=55.750629, lon.=26.548677, Alt.=159.369263m. Speed=15.264000m/h.</desc>
<speed>4.240000</speed>
</trkpt>
<trkpt lat="55.750668" lon="26.548670">
<ele>159.306763</ele>
<time>2010-07-18T13:17:52Z</time>
<desc>lat.=55.750668, lon.=26.548670, Alt.=159.306763m. Speed=15.552000m/h.</desc>
<speed>4.320000</speed>
</trkpt>
<trkpt lat="55.750706" lon="26.548664">
<ele>159.345825</ele>
<time>2010-07-18T13:17:53Z</time>
<desc>lat.=55.750706, lon.=26.548664, Alt.=159.345825m. Speed=15.948000m/h.</desc>
<speed>4.430000</speed>
</trkpt>
<trkpt lat="55.750748" lon="26.548655">
<ele>159.486450</ele>
<time>2010-07-18T13:17:54Z</time>
<desc>lat.=55.750748, lon.=26.548655, Alt.=159.486450m. Speed=16.488001m/h.</desc>
<speed>4.580000</speed>
</trkpt>
<trkpt lat="55.750786" lon="26.548643">
<ele>159.654419</ele>
<time>2010-07-18T13:17:55Z</time>
<desc>lat.=55.750786, lon.=26.548643, Alt.=159.654419m. Speed=16.632000m/h.</desc>
<speed>4.620000</speed>
</trkpt>
<trkpt lat="55.750828" lon="26.548637">
<ele>159.763794</ele>
<time>2010-07-18T13:17:56Z</time>
<desc>lat.=55.750828, lon.=26.548637, Alt.=159.763794m. Speed=17.100000m/h.</desc>
<speed>4.750000</speed>
</trkpt>
<trkpt lat="55.750870" lon="26.548628">
<ele>159.810669</ele>
<time>2010-07-18T13:17:57Z</time>
<desc>lat.=55.750870, lon.=26.548628, Alt.=159.810669m. Speed=17.388000m/h.</desc>
<speed>4.830000</speed>
</trkpt>
<trkpt lat="55.750912" lon="26.548616">
<ele>159.826294</ele>
<time>2010-07-18T13:17:58Z</time>
<desc>lat.=55.750912, lon.=26.548616, Alt.=159.826294m. Speed=17.747999m/h.</desc>
<speed>4.930000</speed>
</trkpt>
<trkpt lat="55.750957" lon="26.548611">
<ele>159.920044</ele>
<time>2010-07-18T13:17:59Z</time>
<desc>lat.=55.750957, lon.=26.548611, Alt.=159.920044m. Speed=18.288000m/h.</desc>
<speed>5.080000</speed>
</trkpt>
<trkpt lat="55.751003" lon="26.548601">
<ele>159.939575</ele>
<time>2010-07-18T13:18:00Z</time>
<desc>lat.=55.751003, lon.=26.548601, Alt.=159.939575m. Speed=18.900000m/h.</desc>
<speed>5.250000</speed>
</trkpt>
<trkpt lat="55.751049" lon="26.548595">
<ele>160.021606</ele>
<time>2010-07-18T13:18:01Z</time>
<desc>lat.=55.751049, lon.=26.548595, Alt.=160.021606m. Speed=19.115999m/h.</desc>
<speed>5.310000</speed>
</trkpt>
<trkpt lat="55.751099" lon="26.548584">
<ele>160.076294</ele>
<time>2010-07-18T13:18:02Z</time>
<desc>lat.=55.751099, lon.=26.548584, Alt.=160.076294m. Speed=19.584000m/h.</desc>
<speed>5.440000</speed>
</trkpt>
<trkpt lat="55.751148" lon="26.548576">
<ele>159.951294</ele>
<time>2010-07-18T13:18:03Z</time>
<desc>lat.=55.751148, lon.=26.548576, Alt.=159.951294m. Speed=20.124001m/h.</desc>
<speed>5.590000</speed>
</trkpt>
<trkpt lat="55.751198" lon="26.548567">
<ele>159.880981</ele>
<time>2010-07-18T13:18:04Z</time>
<desc>lat.=55.751198, lon.=26.548567, Alt.=159.880981m. Speed=20.628000m/h.</desc>
<speed>5.730000</speed>
</trkpt>
<trkpt lat="55.751247" lon="26.548557">
<ele>159.834106</ele>
<time>2010-07-18T13:18:05Z</time>
<desc>lat.=55.751247, lon.=26.548557, Alt.=159.834106m. Speed=21.132000m/h.</desc>
<speed>5.870000</speed>
</trkpt>
<trkpt lat="55.751301" lon="26.548542">
<ele>159.611450</ele>
<time>2010-07-18T13:18:06Z</time>
<desc>lat.=55.751301, lon.=26.548542, Alt.=159.611450m. Speed=20.879999m/h.</desc>
<speed>5.800000</speed>
</trkpt>
<trkpt lat="55.751350" lon="26.548525">
<ele>159.591919</ele>
<time>2010-07-18T13:18:07Z</time>
<desc>lat.=55.751350, lon.=26.548525, Alt.=159.591919m. Speed=20.412001m/h.</desc>
<speed>5.670000</speed>
</trkpt>
<trkpt lat="55.751400" lon="26.548512">
<ele>159.584106</ele>
<time>2010-07-18T13:18:08Z</time>
<desc>lat.=55.751400, lon.=26.548512, Alt.=159.584106m. Speed=19.944000m/h.</desc>
<speed>5.540000</speed>
</trkpt>
<trkpt lat="55.751450" lon="26.548502">
<ele>159.525513</ele>
<time>2010-07-18T13:18:09Z</time>
<desc>lat.=55.751450, lon.=26.548502, Alt.=159.525513m. Speed=19.656000m/h.</desc>
<speed>5.460000</speed>
</trkpt>
<trkpt lat="55.751499" lon="26.548491">
<ele>159.451294</ele>
<time>2010-07-18T13:18:10Z</time>
<desc>lat.=55.751499, lon.=26.548491, Alt.=159.451294m. Speed=19.188000m/h.</desc>
<speed>5.330000</speed>
</trkpt>
<trkpt lat="55.751545" lon="26.548481">
<ele>159.451294</ele>
<time>2010-07-18T13:18:11Z</time>
<desc>lat.=55.751545, lon.=26.548481, Alt.=159.451294m. Speed=18.756001m/h.</desc>
<speed>5.210000</speed>
</trkpt>
<trkpt lat="55.751591" lon="26.548466">
<ele>159.474731</ele>
<time>2010-07-18T13:18:12Z</time>
<desc>lat.=55.751591, lon.=26.548466, Alt.=159.474731m. Speed=18.468000m/h.</desc>
<speed>5.130000</speed>
</trkpt>
<trkpt lat="55.751640" lon="26.548454">
<ele>159.611450</ele>
<time>2010-07-18T13:18:13Z</time>
<desc>lat.=55.751640, lon.=26.548454, Alt.=159.611450m. Speed=19.044001m/h.</desc>
<speed>5.290000</speed>
</trkpt>
<trkpt lat="55.751690" lon="26.548439">
<ele>159.705200</ele>
<time>2010-07-18T13:18:14Z</time>
<desc>lat.=55.751690, lon.=26.548439, Alt.=159.705200m. Speed=19.836000m/h.</desc>
<speed>5.510000</speed>
</trkpt>
<trkpt lat="55.751740" lon="26.548420">
<ele>159.775513</ele>
<time>2010-07-18T13:18:15Z</time>
<desc>lat.=55.751740, lon.=26.548420, Alt.=159.775513m. Speed=20.195999m/h.</desc>
<speed>5.610000</speed>
</trkpt>
<trkpt lat="55.751789" lon="26.548405">
<ele>159.849731</ele>
<time>2010-07-18T13:18:16Z</time>
<desc>lat.=55.751789, lon.=26.548405, Alt.=159.849731m. Speed=20.591999m/h.</desc>
<speed>5.720000</speed>
</trkpt>
<trkpt lat="55.751842" lon="26.548389">
<ele>160.021606</ele>
<time>2010-07-18T13:18:17Z</time>
<desc>lat.=55.751842, lon.=26.548389, Alt.=160.021606m. Speed=20.988001m/h.</desc>
<speed>5.830000</speed>
</trkpt>
<trkpt lat="55.751896" lon="26.548370">
<ele>160.080200</ele>
<time>2010-07-18T13:18:18Z</time>
<desc>lat.=55.751896, lon.=26.548370, Alt.=160.080200m. Speed=21.275999m/h.</desc>
<speed>5.910000</speed>
</trkpt>
<trkpt lat="55.751945" lon="26.548353">
<ele>160.056763</ele>
<time>2010-07-18T13:18:19Z</time>
<desc>lat.=55.751945, lon.=26.548353, Alt.=160.056763m. Speed=20.448000m/h.</desc>
<speed>5.680000</speed>
</trkpt>
<trkpt lat="55.751995" lon="26.548334">
<ele>160.080200</ele>
<time>2010-07-18T13:18:20Z</time>
<desc>lat.=55.751995, lon.=26.548334, Alt.=160.080200m. Speed=19.656000m/h.</desc>
<speed>5.460000</speed>
</trkpt>
<trkpt lat="55.752041" lon="26.548317">
<ele>160.130981</ele>
<time>2010-07-18T13:18:21Z</time>
<desc>lat.=55.752041, lon.=26.548317, Alt.=160.130981m. Speed=18.756001m/h.</desc>
<speed>5.210000</speed>
</trkpt>
<trkpt lat="55.752087" lon="26.548290">
<ele>160.529419</ele>
<time>2010-07-18T13:18:22Z</time>
<desc>lat.=55.752087, lon.=26.548290, Alt.=160.529419m. Speed=18.864000m/h.</desc>
<speed>5.240000</speed>
</trkpt>
<trkpt lat="55.752132" lon="26.548264">
<ele>160.642700</ele>
<time>2010-07-18T13:18:23Z</time>
<desc>lat.=55.752132, lon.=26.548264, Alt.=160.642700m. Speed=18.000000m/h.</desc>
<speed>5.000000</speed>
</trkpt>
<trkpt lat="55.752174" lon="26.548237">
<ele>160.654419</ele>
<time>2010-07-18T13:18:24Z</time>
<desc>lat.=55.752174, lon.=26.548237, Alt.=160.654419m. Speed=17.316000m/h.</desc>
<speed>4.810000</speed>
</trkpt>
<trkpt lat="55.752216" lon="26.548220">
<ele>160.736450</ele>
<time>2010-07-18T13:18:25Z</time>
<desc>lat.=55.752216, lon.=26.548220, Alt.=160.736450m. Speed=17.459999m/h.</desc>
<speed>4.850000</speed>
</trkpt>
<trkpt lat="55.752258" lon="26.548204">
<ele>160.709106</ele>
<time>2010-07-18T13:18:26Z</time>
<desc>lat.=55.752258, lon.=26.548204, Alt.=160.709106m. Speed=16.848000m/h.</desc>
<speed>4.680000</speed>
</trkpt>
<trkpt lat="55.752300" lon="26.548185">
<ele>160.728638</ele>
<time>2010-07-18T13:18:27Z</time>
<desc>lat.=55.752300, lon.=26.548185, Alt.=160.728638m. Speed=17.639999m/h.</desc>
<speed>4.900000</speed>
</trkpt>
<trkpt lat="55.752342" lon="26.548168">
<ele>160.697388</ele>
<time>2010-07-18T13:18:28Z</time>
<desc>lat.=55.752342, lon.=26.548168, Alt.=160.697388m. Speed=18.468000m/h.</desc>
<speed>5.130000</speed>
</trkpt>
<trkpt lat="55.752388" lon="26.548151">
<ele>160.740356</ele>
<time>2010-07-18T13:18:29Z</time>
<desc>lat.=55.752388, lon.=26.548151, Alt.=160.740356m. Speed=19.332001m/h.</desc>
<speed>5.370000</speed>
</trkpt>
<trkpt lat="55.752438" lon="26.548126">
<ele>160.986450</ele>
<time>2010-07-18T13:18:30Z</time>
<desc>lat.=55.752438, lon.=26.548126, Alt.=160.986450m. Speed=20.268000m/h.</desc>
<speed>5.630000</speed>
</trkpt>
<trkpt lat="55.752487" lon="26.548100">
<ele>161.181763</ele>
<time>2010-07-18T13:18:31Z</time>
<desc>lat.=55.752487, lon.=26.548100, Alt.=161.181763m. Speed=20.916000m/h.</desc>
<speed>5.810000</speed>
</trkpt>
<trkpt lat="55.752541" lon="26.548071">
<ele>161.435669</ele>
<time>2010-07-18T13:18:32Z</time>
<desc>lat.=55.752541, lon.=26.548071, Alt.=161.435669m. Speed=21.528000m/h.</desc>
<speed>5.980000</speed>
</trkpt>
<trkpt lat="55.752594" lon="26.548042">
<ele>161.435669</ele>
<time>2010-07-18T13:18:33Z</time>
<desc>lat.=55.752594, lon.=26.548042, Alt.=161.435669m. Speed=21.528000m/h.</desc>
<speed>5.980000</speed>
</trkpt>
<trkpt lat="55.752644" lon="26.548018">
<ele>161.349731</ele>
<time>2010-07-18T13:18:34Z</time>
<desc>lat.=55.752644, lon.=26.548018, Alt.=161.349731m. Speed=21.096001m/h.</desc>
<speed>5.860000</speed>
</trkpt>
<trkpt lat="55.752697" lon="26.547993">
<ele>161.302856</ele>
<time>2010-07-18T13:18:35Z</time>
<desc>lat.=55.752697, lon.=26.547993, Alt.=161.302856m. Speed=20.736000m/h.</desc>
<speed>5.760000</speed>
</trkpt>
<trkpt lat="55.752747" lon="26.547966">
<ele>161.318481</ele>
<time>2010-07-18T13:18:36Z</time>
<desc>lat.=55.752747, lon.=26.547966, Alt.=161.318481m. Speed=20.375999m/h.</desc>
<speed>5.660000</speed>
</trkpt>
<trkpt lat="55.752792" lon="26.547935">
<ele>161.244263</ele>
<time>2010-07-18T13:18:37Z</time>
<desc>lat.=55.752792, lon.=26.547935, Alt.=161.244263m. Speed=20.016001m/h.</desc>
<speed>5.560000</speed>
</trkpt>
<trkpt lat="55.752838" lon="26.547907">
<ele>161.041138</ele>
<time>2010-07-18T13:18:38Z</time>
<desc>lat.=55.752838, lon.=26.547907, Alt.=161.041138m. Speed=19.656000m/h.</desc>
<speed>5.460000</speed>
</trkpt>
<trkpt lat="55.752884" lon="26.547878">
<ele>160.923950</ele>
<time>2010-07-18T13:18:39Z</time>
<desc>lat.=55.752884, lon.=26.547878, Alt.=160.923950m. Speed=20.087999m/h.</desc>
<speed>5.580000</speed>
</trkpt>
<trkpt lat="55.752934" lon="26.547852">
<ele>160.771606</ele>
<time>2010-07-18T13:18:40Z</time>
<desc>lat.=55.752934, lon.=26.547852, Alt.=160.771606m. Speed=20.340000m/h.</desc>
<speed>5.650000</speed>
</trkpt>
<trkpt lat="55.752983" lon="26.547825">
<ele>160.826294</ele>
<time>2010-07-18T13:18:41Z</time>
<desc>lat.=55.752983, lon.=26.547825, Alt.=160.826294m. Speed=20.808001m/h.</desc>
<speed>5.780000</speed>
</trkpt>
<trkpt lat="55.753029" lon="26.547792">
<ele>160.923950</ele>
<time>2010-07-18T13:18:42Z</time>
<desc>lat.=55.753029, lon.=26.547792, Alt.=160.923950m. Speed=21.167999m/h.</desc>
<speed>5.880000</speed>
</trkpt>
<trkpt lat="55.753078" lon="26.547760">
<ele>160.857544</ele>
<time>2010-07-18T13:18:43Z</time>
<desc>lat.=55.753078, lon.=26.547760, Alt.=160.857544m. Speed=20.736000m/h.</desc>
<speed>5.760000</speed>
</trkpt>
<trkpt lat="55.753128" lon="26.547724">
<ele>160.963013</ele>
<time>2010-07-18T13:18:44Z</time>
<desc>lat.=55.753128, lon.=26.547724, Alt.=160.963013m. Speed=20.195999m/h.</desc>
<speed>5.610000</speed>
</trkpt>
<trkpt lat="55.753174" lon="26.547693">
<ele>161.017700</ele>
<time>2010-07-18T13:18:45Z</time>
<desc>lat.=55.753174, lon.=26.547693, Alt.=161.017700m. Speed=19.728001m/h.</desc>
<speed>5.480000</speed>
</trkpt>
<trkpt lat="55.753220" lon="26.547667">
<ele>161.193481</ele>
<time>2010-07-18T13:18:46Z</time>
<desc>lat.=55.753220, lon.=26.547667, Alt.=161.193481m. Speed=19.511999m/h.</desc>
<speed>5.420000</speed>
</trkpt>
<trkpt lat="55.753265" lon="26.547634">
<ele>161.220825</ele>
<time>2010-07-18T13:18:47Z</time>
<desc>lat.=55.753265, lon.=26.547634, Alt.=161.220825m. Speed=19.908001m/h.</desc>
<speed>5.530000</speed>
</trkpt>
<trkpt lat="55.753311" lon="26.547600">
<ele>161.318481</ele>
<time>2010-07-18T13:18:48Z</time>
<desc>lat.=55.753311, lon.=26.547600, Alt.=161.318481m. Speed=20.736000m/h.</desc>
<speed>5.760000</speed>
</trkpt>
<trkpt lat="55.753361" lon="26.547564">
<ele>161.349731</ele>
<time>2010-07-18T13:18:49Z</time>
<desc>lat.=55.753361, lon.=26.547564, Alt.=161.349731m. Speed=21.167999m/h.</desc>
<speed>5.880000</speed>
</trkpt>
<trkpt lat="55.753410" lon="26.547531">
<ele>161.603638</ele>
<time>2010-07-18T13:18:50Z</time>
<desc>lat.=55.753410, lon.=26.547531, Alt.=161.603638m. Speed=21.455999m/h.</desc>
<speed>5.960000</speed>
</trkpt>
<trkpt lat="55.753460" lon="26.547495">
<ele>161.677856</ele>
<time>2010-07-18T13:18:51Z</time>
<desc>lat.=55.753460, lon.=26.547495, Alt.=161.677856m. Speed=21.743999m/h.</desc>
<speed>6.040000</speed>
</trkpt>
<trkpt lat="55.753510" lon="26.547459">
<ele>161.552856</ele>
<time>2010-07-18T13:18:52Z</time>
<desc>lat.=55.753510, lon.=26.547459, Alt.=161.552856m. Speed=21.672001m/h.</desc>
<speed>6.020000</speed>
</trkpt>
<trkpt lat="55.753559" lon="26.547426">
<ele>161.576294</ele>
<time>2010-07-18T13:18:53Z</time>
<desc>lat.=55.753559, lon.=26.547426, Alt.=161.576294m. Speed=21.959999m/h.</desc>
<speed>6.100000</speed>
</trkpt>
<trkpt lat="55.753609" lon="26.547398">
<ele>161.513794</ele>
<time>2010-07-18T13:18:54Z</time>
<desc>lat.=55.753609, lon.=26.547398, Alt.=161.513794m. Speed=21.528000m/h.</desc>
<speed>5.980000</speed>
</trkpt>
<trkpt lat="55.753658" lon="26.547365">
<ele>161.509888</ele>
<time>2010-07-18T13:18:55Z</time>
<desc>lat.=55.753658, lon.=26.547365, Alt.=161.509888m. Speed=20.988001m/h.</desc>
<speed>5.830000</speed>
</trkpt>
<trkpt lat="55.753708" lon="26.547331">
<ele>161.427856</ele>
<time>2010-07-18T13:18:56Z</time>
<desc>lat.=55.753708, lon.=26.547331, Alt.=161.427856m. Speed=20.304001m/h.</desc>
<speed>5.640000</speed>
</trkpt>
<trkpt lat="55.753757" lon="26.547295">
<ele>161.423950</ele>
<time>2010-07-18T13:18:57Z</time>
<desc>lat.=55.753757, lon.=26.547295, Alt.=161.423950m. Speed=19.799999m/h.</desc>
<speed>5.500000</speed>
</trkpt>
<trkpt lat="55.753799" lon="26.547266">
<ele>161.427856</ele>
<time>2010-07-18T13:18:58Z</time>
<desc>lat.=55.753799, lon.=26.547266, Alt.=161.427856m. Speed=19.368000m/h.</desc>
<speed>5.380000</speed>
</trkpt>
<trkpt lat="55.753845" lon="26.547230">
<ele>161.619263</ele>
<time>2010-07-18T13:18:59Z</time>
<desc>lat.=55.753845, lon.=26.547230, Alt.=161.619263m. Speed=18.468000m/h.</desc>
<speed>5.130000</speed>
</trkpt>
<trkpt lat="55.753887" lon="26.547197">
<ele>161.502075</ele>
<time>2010-07-18T13:19:00Z</time>
<desc>lat.=55.753887, lon.=26.547197, Alt.=161.502075m. Speed=18.792000m/h.</desc>
<speed>5.220000</speed>
</trkpt>
<trkpt lat="55.753929" lon="26.547173">
<ele>161.326294</ele>
<time>2010-07-18T13:19:01Z</time>
<desc>lat.=55.753929, lon.=26.547173, Alt.=161.326294m. Speed=19.260000m/h.</desc>
<speed>5.350000</speed>
</trkpt>
<trkpt lat="55.753975" lon="26.547144">
<ele>161.341919</ele>
<time>2010-07-18T13:19:02Z</time>
<desc>lat.=55.753975, lon.=26.547144, Alt.=161.341919m. Speed=19.440001m/h.</desc>
<speed>5.400000</speed>
</trkpt>
<trkpt lat="55.754021" lon="26.547121">
<ele>161.107544</ele>
<time>2010-07-18T13:19:03Z</time>
<desc>lat.=55.754021, lon.=26.547121, Alt.=161.107544m. Speed=19.908001m/h.</desc>
<speed>5.530000</speed>
</trkpt>
<trkpt lat="55.754066" lon="26.547091">
<ele>160.990356</ele>
<time>2010-07-18T13:19:04Z</time>
<desc>lat.=55.754066, lon.=26.547091, Alt.=160.990356m. Speed=20.375999m/h.</desc>
<speed>5.660000</speed>
</trkpt>
<trkpt lat="55.754116" lon="26.547062">
<ele>161.013794</ele>
<time>2010-07-18T13:19:05Z</time>
<desc>lat.=55.754116, lon.=26.547062, Alt.=161.013794m. Speed=20.879999m/h.</desc>
<speed>5.800000</speed>
</trkpt>
<trkpt lat="55.754166" lon="26.547028">
<ele>161.130981</ele>
<time>2010-07-18T13:19:06Z</time>
<desc>lat.=55.754166, lon.=26.547028, Alt.=161.130981m. Speed=21.059999m/h.</desc>
<speed>5.850000</speed>
</trkpt>
<trkpt lat="55.754215" lon="26.546991">
<ele>161.353638</ele>
<time>2010-07-18T13:19:07Z</time>
<desc>lat.=55.754215, lon.=26.546991, Alt.=161.353638m. Speed=20.988001m/h.</desc>
<speed>5.830000</speed>
</trkpt>
<trkpt lat="55.754265" lon="26.546940">
<ele>161.845825</ele>
<time>2010-07-18T13:19:08Z</time>
<desc>lat.=55.754265, lon.=26.546940, Alt.=161.845825m. Speed=21.636000m/h.</desc>
<speed>6.010000</speed>
</trkpt>
<trkpt lat="55.754314" lon="26.546898">
<ele>161.716919</ele>
<time>2010-07-18T13:19:09Z</time>
<desc>lat.=55.754314, lon.=26.546898, Alt.=161.716919m. Speed=20.879999m/h.</desc>
<speed>5.800000</speed>
</trkpt>
<trkpt lat="55.754360" lon="26.546862">
<ele>161.689575</ele>
<time>2010-07-18T13:19:10Z</time>
<desc>lat.=55.754360, lon.=26.546862, Alt.=161.689575m. Speed=20.448000m/h.</desc>
<speed>5.680000</speed>
</trkpt>
<trkpt lat="55.754406" lon="26.546825">
<ele>161.654419</ele>
<time>2010-07-18T13:19:11Z</time>
<desc>lat.=55.754406, lon.=26.546825, Alt.=161.654419m. Speed=19.872000m/h.</desc>
<speed>5.520000</speed>
</trkpt>
<trkpt lat="55.754456" lon="26.546789">
<ele>161.740356</ele>
<time>2010-07-18T13:19:12Z</time>
<desc>lat.=55.754456, lon.=26.546789, Alt.=161.740356m. Speed=19.476000m/h.</desc>
<speed>5.410000</speed>
</trkpt>
<trkpt lat="55.754498" lon="26.546753">
<ele>161.822388</ele>
<time>2010-07-18T13:19:13Z</time>
<desc>lat.=55.754498, lon.=26.546753, Alt.=161.822388m. Speed=19.620001m/h.</desc>
<speed>5.450000</speed>
</trkpt>
<trkpt lat="55.754539" lon="26.546715">
<ele>161.916138</ele>
<time>2010-07-18T13:19:14Z</time>
<desc>lat.=55.754539, lon.=26.546715, Alt.=161.916138m. Speed=19.403999m/h.</desc>
<speed>5.390000</speed>
</trkpt>
<trkpt lat="55.754585" lon="26.546680">
<ele>162.037231</ele>
<time>2010-07-18T13:19:15Z</time>
<desc>lat.=55.754585, lon.=26.546680, Alt.=162.037231m. Speed=19.584000m/h.</desc>
<speed>5.440000</speed>
</trkpt>
<trkpt lat="55.754631" lon="26.546646">
<ele>161.931763</ele>
<time>2010-07-18T13:19:16Z</time>
<desc>lat.=55.754631, lon.=26.546646, Alt.=161.931763m. Speed=19.511999m/h.</desc>
<speed>5.420000</speed>
</trkpt>
<trkpt lat="55.754677" lon="26.546608">
<ele>162.017700</ele>
<time>2010-07-18T13:19:17Z</time>
<desc>lat.=55.754677, lon.=26.546608, Alt.=162.017700m. Speed=19.476000m/h.</desc>
<speed>5.410000</speed>
</trkpt>
<trkpt lat="55.754719" lon="26.546574">
<ele>162.084106</ele>
<time>2010-07-18T13:19:18Z</time>
<desc>lat.=55.754719, lon.=26.546574, Alt.=162.084106m. Speed=19.296000m/h.</desc>
<speed>5.360000</speed>
</trkpt>
<trkpt lat="55.754761" lon="26.546534">
<ele>161.978638</ele>
<time>2010-07-18T13:19:19Z</time>
<desc>lat.=55.754761, lon.=26.546534, Alt.=161.978638m. Speed=18.900000m/h.</desc>
<speed>5.250000</speed>
</trkpt>
<trkpt lat="55.754803" lon="26.546509">
<ele>161.939575</ele>
<time>2010-07-18T13:19:20Z</time>
<desc>lat.=55.754803, lon.=26.546509, Alt.=161.939575m. Speed=18.612000m/h.</desc>
<speed>5.170000</speed>
</trkpt>
<trkpt lat="55.754848" lon="26.546480">
<ele>161.791138</ele>
<time>2010-07-18T13:19:21Z</time>
<desc>lat.=55.754848, lon.=26.546480, Alt.=161.791138m. Speed=17.892000m/h.</desc>
<speed>4.970000</speed>
</trkpt>
<trkpt lat="55.754890" lon="26.546452">
<ele>161.474731</ele>
<time>2010-07-18T13:19:22Z</time>
<desc>lat.=55.754890, lon.=26.546452, Alt.=161.474731m. Speed=17.243999m/h.</desc>
<speed>4.790000</speed>
</trkpt>
<trkpt lat="55.754929" lon="26.546423">
<ele>161.310669</ele>
<time>2010-07-18T13:19:23Z</time>
<desc>lat.=55.754929, lon.=26.546423, Alt.=161.310669m. Speed=16.452000m/h.</desc>
<speed>4.570000</speed>
</trkpt>
<trkpt lat="55.754967" lon="26.546394">
<ele>161.177856</ele>
<time>2010-07-18T13:19:24Z</time>
<desc>lat.=55.754967, lon.=26.546394, Alt.=161.177856m. Speed=16.200001m/h.</desc>
<speed>4.500000</speed>
</trkpt>
<trkpt lat="55.755005" lon="26.546364">
<ele>160.963013</ele>
<time>2010-07-18T13:19:25Z</time>
<desc>lat.=55.755005, lon.=26.546364, Alt.=160.963013m. Speed=16.379999m/h.</desc>
<speed>4.550000</speed>
</trkpt>
<trkpt lat="55.755047" lon="26.546335">
<ele>160.982544</ele>
<time>2010-07-18T13:19:26Z</time>
<desc>lat.=55.755047, lon.=26.546335, Alt.=160.982544m. Speed=16.416000m/h.</desc>
<speed>4.560000</speed>
</trkpt>
<trkpt lat="55.755085" lon="26.546305">
<ele>160.904419</ele>
<time>2010-07-18T13:19:27Z</time>
<desc>lat.=55.755085, lon.=26.546305, Alt.=160.904419m. Speed=16.344000m/h.</desc>
<speed>4.540000</speed>
</trkpt>
<trkpt lat="55.755123" lon="26.546274">
<ele>161.025513</ele>
<time>2010-07-18T13:19:28Z</time>
<desc>lat.=55.755123, lon.=26.546274, Alt.=161.025513m. Speed=16.236000m/h.</desc>
<speed>4.510000</speed>
</trkpt>
<trkpt lat="55.755165" lon="26.546249">
<ele>161.173950</ele>
<time>2010-07-18T13:19:29Z</time>
<desc>lat.=55.755165, lon.=26.546249, Alt.=161.173950m. Speed=16.020000m/h.</desc>
<speed>4.450000</speed>
</trkpt>
<trkpt lat="55.755199" lon="26.546223">
<ele>160.818481</ele>
<time>2010-07-18T13:19:30Z</time>
<desc>lat.=55.755199, lon.=26.546223, Alt.=160.818481m. Speed=15.516000m/h.</desc>
<speed>4.310000</speed>
</trkpt>
<trkpt lat="55.755238" lon="26.546190">
<ele>160.689575</ele>
<time>2010-07-18T13:19:31Z</time>
<desc>lat.=55.755238, lon.=26.546190, Alt.=160.689575m. Speed=15.516000m/h.</desc>
<speed>4.310000</speed>
</trkpt>
<trkpt lat="55.755272" lon="26.546162">
<ele>160.576294</ele>
<time>2010-07-18T13:19:32Z</time>
<desc>lat.=55.755272, lon.=26.546162, Alt.=160.576294m. Speed=15.300000m/h.</desc>
<speed>4.250000</speed>
</trkpt>
<trkpt lat="55.755310" lon="26.546129">
<ele>160.498169</ele>
<time>2010-07-18T13:19:33Z</time>
<desc>lat.=55.755310, lon.=26.546129, Alt.=160.498169m. Speed=15.048000m/h.</desc>
<speed>4.180000</speed>
</trkpt>
<trkpt lat="55.755344" lon="26.546103">
<ele>160.318481</ele>
<time>2010-07-18T13:19:34Z</time>
<desc>lat.=55.755344, lon.=26.546103, Alt.=160.318481m. Speed=14.616000m/h.</desc>
<speed>4.060000</speed>
</trkpt>
<trkpt lat="55.755379" lon="26.546080">
<ele>159.838013</ele>
<time>2010-07-18T13:19:35Z</time>
<desc>lat.=55.755379, lon.=26.546080, Alt.=159.838013m. Speed=14.112000m/h.</desc>
<speed>3.920000</speed>
</trkpt>
<trkpt lat="55.755409" lon="26.546061">
<ele>159.502075</ele>
<time>2010-07-18T13:19:36Z</time>
<desc>lat.=55.755409, lon.=26.546061, Alt.=159.502075m. Speed=13.428000m/h.</desc>
<speed>3.730000</speed>
</trkpt>
<trkpt lat="55.755444" lon="26.546038">
<ele>160.306763</ele>
<time>2010-07-18T13:19:37Z</time>
<desc>lat.=55.755444, lon.=26.546038, Alt.=160.306763m. Speed=13.104000m/h.</desc>
<speed>3.640000</speed>
</trkpt>
<trkpt lat="55.755470" lon="26.546013">
<ele>160.408325</ele>
<time>2010-07-18T13:19:38Z</time>
<desc>lat.=55.755470, lon.=26.546013, Alt.=160.408325m. Speed=12.456000m/h.</desc>
<speed>3.460000</speed>
</trkpt>
<trkpt lat="55.755497" lon="26.545992">
<ele>160.517700</ele>
<time>2010-07-18T13:19:39Z</time>
<desc>lat.=55.755497, lon.=26.545992, Alt.=160.517700m. Speed=11.772000m/h.</desc>
<speed>3.270000</speed>
</trkpt>
<trkpt lat="55.755524" lon="26.545963">
<ele>160.463013</ele>
<time>2010-07-18T13:19:40Z</time>
<desc>lat.=55.755524, lon.=26.545963, Alt.=160.463013m. Speed=11.664000m/h.</desc>
<speed>3.240000</speed>
</trkpt>
<trkpt lat="55.755550" lon="26.545940">
<ele>160.455200</ele>
<time>2010-07-18T13:19:41Z</time>
<desc>lat.=55.755550, lon.=26.545940, Alt.=160.455200m. Speed=11.844000m/h.</desc>
<speed>3.290000</speed>
</trkpt>
<trkpt lat="55.755573" lon="26.545919">
<ele>160.158325</ele>
<time>2010-07-18T13:19:42Z</time>
<desc>lat.=55.755573, lon.=26.545919, Alt.=160.158325m. Speed=11.880000m/h.</desc>
<speed>3.300000</speed>
</trkpt>
<trkpt lat="55.755600" lon="26.545897">
<ele>160.037231</ele>
<time>2010-07-18T13:19:43Z</time>
<desc>lat.=55.755600, lon.=26.545897, Alt.=160.037231m. Speed=12.096000m/h.</desc>
<speed>3.360000</speed>
</trkpt>
<trkpt lat="55.755627" lon="26.545872">
<ele>160.045044</ele>
<time>2010-07-18T13:19:44Z</time>
<desc>lat.=55.755627, lon.=26.545872, Alt.=160.045044m. Speed=11.988000m/h.</desc>
<speed>3.330000</speed>
</trkpt>
<trkpt lat="55.755653" lon="26.545847">
<ele>160.088013</ele>
<time>2010-07-18T13:19:45Z</time>
<desc>lat.=55.755653, lon.=26.545847, Alt.=160.088013m. Speed=11.736000m/h.</desc>
<speed>3.260000</speed>
</trkpt>
<trkpt lat="55.755676" lon="26.545826">
<ele>159.830200</ele>
<time>2010-07-18T13:19:46Z</time>
<desc>lat.=55.755676, lon.=26.545826, Alt.=159.830200m. Speed=11.520000m/h.</desc>
<speed>3.200000</speed>
</trkpt>
<trkpt lat="55.755703" lon="26.545809">
<ele>159.877075</ele>
<time>2010-07-18T13:19:47Z</time>
<desc>lat.=55.755703, lon.=26.545809, Alt.=159.877075m. Speed=11.376000m/h.</desc>
<speed>3.160000</speed>
</trkpt>
<trkpt lat="55.755733" lon="26.545795">
<ele>159.916138</ele>
<time>2010-07-18T13:19:48Z</time>
<desc>lat.=55.755733, lon.=26.545795, Alt.=159.916138m. Speed=11.592000m/h.</desc>
<speed>3.220000</speed>
</trkpt>
<trkpt lat="55.755760" lon="26.545786">
<ele>160.084106</ele>
<time>2010-07-18T13:19:49Z</time>
<desc>lat.=55.755760, lon.=26.545786, Alt.=160.084106m. Speed=11.412000m/h.</desc>
<speed>3.170000</speed>
</trkpt>
<trkpt lat="55.755787" lon="26.545773">
<ele>160.166138</ele>
<time>2010-07-18T13:19:50Z</time>
<desc>lat.=55.755787, lon.=26.545773, Alt.=160.166138m. Speed=11.304000m/h.</desc>
<speed>3.140000</speed>
</trkpt>
<trkpt lat="55.755814" lon="26.545753">
<ele>160.166138</ele>
<time>2010-07-18T13:19:51Z</time>
<desc>lat.=55.755814, lon.=26.545753, Alt.=160.166138m. Speed=11.664000m/h.</desc>
<speed>3.240000</speed>
</trkpt>
<trkpt lat="55.755836" lon="26.545731">
<ele>160.052856</ele>
<time>2010-07-18T13:19:52Z</time>
<desc>lat.=55.755836, lon.=26.545731, Alt.=160.052856m. Speed=11.484000m/h.</desc>
<speed>3.190000</speed>
</trkpt>
<trkpt lat="55.755863" lon="26.545710">
<ele>159.939575</ele>
<time>2010-07-18T13:19:53Z</time>
<desc>lat.=55.755863, lon.=26.545710, Alt.=159.939575m. Speed=11.556000m/h.</desc>
<speed>3.210000</speed>
</trkpt>
<trkpt lat="55.755890" lon="26.545689">
<ele>159.904419</ele>
<time>2010-07-18T13:19:54Z</time>
<desc>lat.=55.755890, lon.=26.545689, Alt.=159.904419m. Speed=11.448000m/h.</desc>
<speed>3.180000</speed>
</trkpt>
<trkpt lat="55.755917" lon="26.545671">
<ele>159.888794</ele>
<time>2010-07-18T13:19:55Z</time>
<desc>lat.=55.755917, lon.=26.545671, Alt.=159.888794m. Speed=11.988000m/h.</desc>
<speed>3.330000</speed>
</trkpt>
<trkpt lat="55.755943" lon="26.545654">
<ele>159.935669</ele>
<time>2010-07-18T13:19:56Z</time>
<desc>lat.=55.755943, lon.=26.545654, Alt.=159.935669m. Speed=12.204000m/h.</desc>
<speed>3.390000</speed>
</trkpt>
<trkpt lat="55.755970" lon="26.545635">
<ele>159.920044</ele>
<time>2010-07-18T13:19:57Z</time>
<desc>lat.=55.755970, lon.=26.545635, Alt.=159.920044m. Speed=11.916000m/h.</desc>
<speed>3.310000</speed>
</trkpt>
<trkpt lat="55.756001" lon="26.545610">
<ele>159.861450</ele>
<time>2010-07-18T13:19:58Z</time>
<desc>lat.=55.756001, lon.=26.545610, Alt.=159.861450m. Speed=13.428000m/h.</desc>
<speed>3.730000</speed>
</trkpt>
<trkpt lat="55.756031" lon="26.545588">
<ele>159.814575</ele>
<time>2010-07-18T13:19:59Z</time>
<desc>lat.=55.756031, lon.=26.545588, Alt.=159.814575m. Speed=13.248000m/h.</desc>
<speed>3.680000</speed>
</trkpt>
<trkpt lat="55.756065" lon="26.545563">
<ele>159.830200</ele>
<time>2010-07-18T13:20:00Z</time>
<desc>lat.=55.756065, lon.=26.545563, Alt.=159.830200m. Speed=14.940000m/h.</desc>
<speed>4.150000</speed>
</trkpt>
<trkpt lat="55.756100" lon="26.545544">
<ele>159.904419</ele>
<time>2010-07-18T13:20:01Z</time>
<desc>lat.=55.756100, lon.=26.545544, Alt.=159.904419m. Speed=14.256000m/h.</desc>
<speed>3.960000</speed>
</trkpt>
<trkpt lat="55.756138" lon="26.545519">
<ele>160.138794</ele>
<time>2010-07-18T13:20:02Z</time>
<desc>lat.=55.756138, lon.=26.545519, Alt.=160.138794m. Speed=15.768000m/h.</desc>
<speed>4.380000</speed>
</trkpt>
<trkpt lat="55.756176" lon="26.545485">
<ele>159.470825</ele>
<time>2010-07-18T13:20:03Z</time>
<desc>lat.=55.756176, lon.=26.545485, Alt.=159.470825m. Speed=15.264000m/h.</desc>
<speed>4.240000</speed>
</trkpt>
<trkpt lat="55.756210" lon="26.545452">
<ele>159.365356</ele>
<time>2010-07-18T13:20:04Z</time>
<desc>lat.=55.756210, lon.=26.545452, Alt.=159.365356m. Speed=14.148000m/h.</desc>
<speed>3.930000</speed>
</trkpt>
<trkpt lat="55.756245" lon="26.545431">
<ele>159.295044</ele>
<time>2010-07-18T13:20:05Z</time>
<desc>lat.=55.756245, lon.=26.545431, Alt.=159.295044m. Speed=15.156000m/h.</desc>
<speed>4.210000</speed>
</trkpt>
<trkpt lat="55.756283" lon="26.545412">
<ele>159.150513</ele>
<time>2010-07-18T13:20:06Z</time>
<desc>lat.=55.756283, lon.=26.545412, Alt.=159.150513m. Speed=16.704000m/h.</desc>
<speed>4.640000</speed>
</trkpt>
<trkpt lat="55.756317" lon="26.545385">
<ele>159.111450</ele>
<time>2010-07-18T13:20:07Z</time>
<desc>lat.=55.756317, lon.=26.545385, Alt.=159.111450m. Speed=15.696000m/h.</desc>
<speed>4.360000</speed>
</trkpt>
<trkpt lat="55.756355" lon="26.545357">
<ele>159.060669</ele>
<time>2010-07-18T13:20:08Z</time>
<desc>lat.=55.756355, lon.=26.545357, Alt.=159.060669m. Speed=16.200001m/h.</desc>
<speed>4.500000</speed>
</trkpt>
<trkpt lat="55.756397" lon="26.545330">
<ele>159.127075</ele>
<time>2010-07-18T13:20:09Z</time>
<desc>lat.=55.756397, lon.=26.545330, Alt.=159.127075m. Speed=17.604000m/h.</desc>
<speed>4.890000</speed>
</trkpt>
<trkpt lat="55.756435" lon="26.545298">
<ele>157.767700</ele>
<time>2010-07-18T13:20:10Z</time>
<desc>lat.=55.756435, lon.=26.545298, Alt.=157.767700m. Speed=16.559999m/h.</desc>
<speed>4.600000</speed>
</trkpt>
<trkpt lat="55.756470" lon="26.545263">
<ele>157.548950</ele>
<time>2010-07-18T13:20:11Z</time>
<desc>lat.=55.756470, lon.=26.545263, Alt.=157.548950m. Speed=17.496000m/h.</desc>
<speed>4.860000</speed>
</trkpt>
<trkpt lat="55.756508" lon="26.545229">
<ele>157.283325</ele>
<time>2010-07-18T13:20:12Z</time>
<desc>lat.=55.756508, lon.=26.545229, Alt.=157.283325m. Speed=17.892000m/h.</desc>
<speed>4.970000</speed>
</trkpt>
<trkpt lat="55.756550" lon="26.545195">
<ele>156.955200</ele>
<time>2010-07-18T13:20:13Z</time>
<desc>lat.=55.756550, lon.=26.545195, Alt.=156.955200m. Speed=18.072001m/h.</desc>
<speed>5.020000</speed>
</trkpt>
<trkpt lat="55.756588" lon="26.545160">
<ele>156.716919</ele>
<time>2010-07-18T13:20:14Z</time>
<desc>lat.=55.756588, lon.=26.545160, Alt.=156.716919m. Speed=18.216000m/h.</desc>
<speed>5.060000</speed>
</trkpt>
<trkpt lat="55.756630" lon="26.545137">
<ele>156.548950</ele>
<time>2010-07-18T13:20:15Z</time>
<desc>lat.=55.756630, lon.=26.545137, Alt.=156.548950m. Speed=18.360001m/h.</desc>
<speed>5.100000</speed>
</trkpt>
<trkpt lat="55.756672" lon="26.545084">
<ele>156.603638</ele>
<time>2010-07-18T13:20:16Z</time>
<desc>lat.=55.756672, lon.=26.545084, Alt.=156.603638m. Speed=18.792000m/h.</desc>
<speed>5.220000</speed>
</trkpt>
<trkpt lat="55.756714" lon="26.545048">
<ele>156.775513</ele>
<time>2010-07-18T13:20:17Z</time>
<desc>lat.=55.756714, lon.=26.545048, Alt.=156.775513m. Speed=18.216000m/h.</desc>
<speed>5.060000</speed>
</trkpt>
<trkpt lat="55.756752" lon="26.545017">
<ele>157.080200</ele>
<time>2010-07-18T13:20:18Z</time>
<desc>lat.=55.756752, lon.=26.545017, Alt.=157.080200m. Speed=18.468000m/h.</desc>
<speed>5.130000</speed>
</trkpt>
<trkpt lat="55.756798" lon="26.544992">
<ele>156.912231</ele>
<time>2010-07-18T13:20:19Z</time>
<desc>lat.=55.756798, lon.=26.544992, Alt.=156.912231m. Speed=19.368000m/h.</desc>
<speed>5.380000</speed>
</trkpt>
<trkpt lat="55.756840" lon="26.544962">
<ele>156.982544</ele>
<time>2010-07-18T13:20:20Z</time>
<desc>lat.=55.756840, lon.=26.544962, Alt.=156.982544m. Speed=20.052000m/h.</desc>
<speed>5.570000</speed>
</trkpt>
<trkpt lat="55.756886" lon="26.544926">
<ele>157.205200</ele>
<time>2010-07-18T13:20:21Z</time>
<desc>lat.=55.756886, lon.=26.544926, Alt.=157.205200m. Speed=19.764000m/h.</desc>
<speed>5.490000</speed>
</trkpt>
<trkpt lat="55.756931" lon="26.544889">
<ele>157.709106</ele>
<time>2010-07-18T13:20:22Z</time>
<desc>lat.=55.756931, lon.=26.544889, Alt.=157.709106m. Speed=19.296000m/h.</desc>
<speed>5.360000</speed>
</trkpt>
<trkpt lat="55.756973" lon="26.544857">
<ele>158.162231</ele>
<time>2010-07-18T13:20:23Z</time>
<desc>lat.=55.756973, lon.=26.544857, Alt.=158.162231m. Speed=18.540001m/h.</desc>
<speed>5.150000</speed>
</trkpt>
<trkpt lat="55.757019" lon="26.544827">
<ele>158.779419</ele>
<time>2010-07-18T13:20:24Z</time>
<desc>lat.=55.757019, lon.=26.544827, Alt.=158.779419m. Speed=18.252001m/h.</desc>
<speed>5.070000</speed>
</trkpt>
<trkpt lat="55.757065" lon="26.544796">
<ele>159.541138</ele>
<time>2010-07-18T13:20:25Z</time>
<desc>lat.=55.757065, lon.=26.544796, Alt.=159.541138m. Speed=18.468000m/h.</desc>
<speed>5.130000</speed>
</trkpt>
<trkpt lat="55.757111" lon="26.544765">
<ele>159.560669</ele>
<time>2010-07-18T13:20:26Z</time>
<desc>lat.=55.757111, lon.=26.544765, Alt.=159.560669m. Speed=18.756001m/h.</desc>
<speed>5.210000</speed>
</trkpt>
<trkpt lat="55.757153" lon="26.544735">
<ele>159.588013</ele>
<time>2010-07-18T13:20:27Z</time>
<desc>lat.=55.757153, lon.=26.544735, Alt.=159.588013m. Speed=19.152000m/h.</desc>
<speed>5.320000</speed>
</trkpt>
<trkpt lat="55.757195" lon="26.544699">
<ele>159.779419</ele>
<time>2010-07-18T13:20:28Z</time>
<desc>lat.=55.757195, lon.=26.544699, Alt.=159.779419m. Speed=19.296000m/h.</desc>
<speed>5.360000</speed>
</trkpt>
<trkpt lat="55.757240" lon="26.544668">
<ele>159.916138</ele>
<time>2010-07-18T13:20:29Z</time>
<desc>lat.=55.757240, lon.=26.544668, Alt.=159.916138m. Speed=18.431999m/h.</desc>
<speed>5.120000</speed>
</trkpt>
<trkpt lat="55.757282" lon="26.544640">
<ele>160.267700</ele>
<time>2010-07-18T13:20:30Z</time>
<desc>lat.=55.757282, lon.=26.544640, Alt.=160.267700m. Speed=17.820000m/h.</desc>
<speed>4.950000</speed>
</trkpt>
<trkpt lat="55.757324" lon="26.544611">
<ele>160.318481</ele>
<time>2010-07-18T13:20:31Z</time>
<desc>lat.=55.757324, lon.=26.544611, Alt.=160.318481m. Speed=17.388000m/h.</desc>
<speed>4.830000</speed>
</trkpt>
<trkpt lat="55.757362" lon="26.544584">
<ele>160.505981</ele>
<time>2010-07-18T13:20:32Z</time>
<desc>lat.=55.757362, lon.=26.544584, Alt.=160.505981m. Speed=17.639999m/h.</desc>
<speed>4.900000</speed>
</trkpt>
<trkpt lat="55.757401" lon="26.544556">
<ele>160.693481</ele>
<time>2010-07-18T13:20:33Z</time>
<desc>lat.=55.757401, lon.=26.544556, Alt.=160.693481m. Speed=18.180000m/h.</desc>
<speed>5.050000</speed>
</trkpt>
<trkpt lat="55.757442" lon="26.544523">
<ele>160.822388</ele>
<time>2010-07-18T13:20:34Z</time>
<desc>lat.=55.757442, lon.=26.544523, Alt.=160.822388m. Speed=17.496000m/h.</desc>
<speed>4.860000</speed>
</trkpt>
<trkpt lat="55.757477" lon="26.544491">
<ele>161.170044</ele>
<time>2010-07-18T13:20:35Z</time>
<desc>lat.=55.757477, lon.=26.544491, Alt.=161.170044m. Speed=16.955999m/h.</desc>
<speed>4.710000</speed>
</trkpt>
<trkpt lat="55.757515" lon="26.544464">
<ele>161.213013</ele>
<time>2010-07-18T13:20:36Z</time>
<desc>lat.=55.757515, lon.=26.544464, Alt.=161.213013m. Speed=16.524000m/h.</desc>
<speed>4.590000</speed>
</trkpt>
<trkpt lat="55.757553" lon="26.544439">
<ele>161.076294</ele>
<time>2010-07-18T13:20:37Z</time>
<desc>lat.=55.757553, lon.=26.544439, Alt.=161.076294m. Speed=17.028000m/h.</desc>
<speed>4.730000</speed>
</trkpt>
<trkpt lat="55.757595" lon="26.544413">
<ele>160.935669</ele>
<time>2010-07-18T13:20:38Z</time>
<desc>lat.=55.757595, lon.=26.544413, Alt.=160.935669m. Speed=17.496000m/h.</desc>
<speed>4.860000</speed>
</trkpt>
<trkpt lat="55.757633" lon="26.544378">
<ele>161.002075</ele>
<time>2010-07-18T13:20:39Z</time>
<desc>lat.=55.757633, lon.=26.544378, Alt.=161.002075m. Speed=18.072001m/h.</desc>
<speed>5.020000</speed>
</trkpt>
<trkpt lat="55.757675" lon="26.544344">
<ele>161.201294</ele>
<time>2010-07-18T13:20:40Z</time>
<desc>lat.=55.757675, lon.=26.544344, Alt.=161.201294m. Speed=18.540001m/h.</desc>
<speed>5.150000</speed>
</trkpt>
<trkpt lat="55.757717" lon="26.544315">
<ele>161.041138</ele>
<time>2010-07-18T13:20:41Z</time>
<desc>lat.=55.757717, lon.=26.544315, Alt.=161.041138m. Speed=18.648001m/h.</desc>
<speed>5.180000</speed>
</trkpt>
<trkpt lat="55.757759" lon="26.544287">
<ele>160.935669</ele>
<time>2010-07-18T13:20:42Z</time>
<desc>lat.=55.757759, lon.=26.544287, Alt.=160.935669m. Speed=19.548000m/h.</desc>
<speed>5.430000</speed>
</trkpt>
<trkpt lat="55.757805" lon="26.544254">
<ele>160.830200</ele>
<time>2010-07-18T13:20:43Z</time>
<desc>lat.=55.757805, lon.=26.544254, Alt.=160.830200m. Speed=19.944000m/h.</desc>
<speed>5.540000</speed>
</trkpt>
<trkpt lat="55.757851" lon="26.544218">
<ele>160.966919</ele>
<time>2010-07-18T13:20:44Z</time>
<desc>lat.=55.757851, lon.=26.544218, Alt.=160.966919m. Speed=20.052000m/h.</desc>
<speed>5.570000</speed>
</trkpt>
<trkpt lat="55.757900" lon="26.544178">
<ele>161.021606</ele>
<time>2010-07-18T13:20:45Z</time>
<desc>lat.=55.757900, lon.=26.544178, Alt.=161.021606m. Speed=20.591999m/h.</desc>
<speed>5.720000</speed>
</trkpt>
<trkpt lat="55.757946" lon="26.544146">
<ele>161.236450</ele>
<time>2010-07-18T13:20:46Z</time>
<desc>lat.=55.757946, lon.=26.544146, Alt.=161.236450m. Speed=19.764000m/h.</desc>
<speed>5.490000</speed>
</trkpt>
<trkpt lat="55.757988" lon="26.544115">
<ele>161.138794</ele>
<time>2010-07-18T13:20:47Z</time>
<desc>lat.=55.757988, lon.=26.544115, Alt.=161.138794m. Speed=20.160000m/h.</desc>
<speed>5.600000</speed>
</trkpt>
<trkpt lat="55.758038" lon="26.544079">
<ele>161.017700</ele>
<time>2010-07-18T13:20:48Z</time>
<desc>lat.=55.758038, lon.=26.544079, Alt.=161.017700m. Speed=20.952000m/h.</desc>
<speed>5.820000</speed>
</trkpt>
<trkpt lat="55.758087" lon="26.544044">
<ele>160.884888</ele>
<time>2010-07-18T13:20:49Z</time>
<desc>lat.=55.758087, lon.=26.544044, Alt.=160.884888m. Speed=21.384001m/h.</desc>
<speed>5.940000</speed>
</trkpt>
<trkpt lat="55.758141" lon="26.544003">
<ele>161.103638</ele>
<time>2010-07-18T13:20:50Z</time>
<desc>lat.=55.758141, lon.=26.544003, Alt.=161.103638m. Speed=21.959999m/h.</desc>
<speed>6.100000</speed>
</trkpt>
<trkpt lat="55.758190" lon="26.543961">
<ele>161.435669</ele>
<time>2010-07-18T13:20:51Z</time>
<desc>lat.=55.758190, lon.=26.543961, Alt.=161.435669m. Speed=21.888000m/h.</desc>
<speed>6.080000</speed>
</trkpt>
<trkpt lat="55.758244" lon="26.543924">
<ele>161.517700</ele>
<time>2010-07-18T13:20:52Z</time>
<desc>lat.=55.758244, lon.=26.543924, Alt.=161.517700m. Speed=21.455999m/h.</desc>
<speed>5.960000</speed>
</trkpt>
<trkpt lat="55.758293" lon="26.543886">
<ele>161.646606</ele>
<time>2010-07-18T13:20:53Z</time>
<desc>lat.=55.758293, lon.=26.543886, Alt.=161.646606m. Speed=21.167999m/h.</desc>
<speed>5.880000</speed>
</trkpt>
<trkpt lat="55.758343" lon="26.543850">
<ele>161.775513</ele>
<time>2010-07-18T13:20:54Z</time>
<desc>lat.=55.758343, lon.=26.543850, Alt.=161.775513m. Speed=20.916000m/h.</desc>
<speed>5.810000</speed>
</trkpt>
<trkpt lat="55.758392" lon="26.543812">
<ele>161.912231</ele>
<time>2010-07-18T13:20:55Z</time>
<desc>lat.=55.758392, lon.=26.543812, Alt.=161.912231m. Speed=21.024000m/h.</desc>
<speed>5.840000</speed>
</trkpt>
<trkpt lat="55.758442" lon="26.543776">
<ele>162.029419</ele>
<time>2010-07-18T13:20:56Z</time>
<desc>lat.=55.758442, lon.=26.543776, Alt.=162.029419m. Speed=21.672001m/h.</desc>
<speed>6.020000</speed>
</trkpt>
<trkpt lat="55.758492" lon="26.543745">
<ele>161.923950</ele>
<time>2010-07-18T13:20:57Z</time>
<desc>lat.=55.758492, lon.=26.543745, Alt.=161.923950m. Speed=22.572001m/h.</desc>
<speed>6.270000</speed>
</trkpt>
<trkpt lat="55.758545" lon="26.543709">
<ele>161.959106</ele>
<time>2010-07-18T13:20:58Z</time>
<desc>lat.=55.758545, lon.=26.543709, Alt.=161.959106m. Speed=23.148001m/h.</desc>
<speed>6.430000</speed>
</trkpt>
<trkpt lat="55.758595" lon="26.543669">
<ele>161.978638</ele>
<time>2010-07-18T13:20:59Z</time>
<desc>lat.=55.758595, lon.=26.543669, Alt.=161.978638m. Speed=22.716000m/h.</desc>
<speed>6.310000</speed>
</trkpt>
<trkpt lat="55.758648" lon="26.543634">
<ele>162.013794</ele>
<time>2010-07-18T13:21:00Z</time>
<desc>lat.=55.758648, lon.=26.543634, Alt.=162.013794m. Speed=22.392000m/h.</desc>
<speed>6.220000</speed>
</trkpt>
<trkpt lat="55.758701" lon="26.543594">
<ele>162.189575</ele>
<time>2010-07-18T13:21:01Z</time>
<desc>lat.=55.758701, lon.=26.543594, Alt.=162.189575m. Speed=22.139999m/h.</desc>
<speed>6.150000</speed>
</trkpt>
<trkpt lat="55.758751" lon="26.543556">
<ele>162.255981</ele>
<time>2010-07-18T13:21:02Z</time>
<desc>lat.=55.758751, lon.=26.543556, Alt.=162.255981m. Speed=22.139999m/h.</desc>
<speed>6.150000</speed>
</trkpt>
<trkpt lat="55.758804" lon="26.543520">
<ele>162.123169</ele>
<time>2010-07-18T13:21:03Z</time>
<desc>lat.=55.758804, lon.=26.543520, Alt.=162.123169m. Speed=22.247999m/h.</desc>
<speed>6.180000</speed>
</trkpt>
<trkpt lat="55.758854" lon="26.543482">
<ele>162.380981</ele>
<time>2010-07-18T13:21:04Z</time>
<desc>lat.=55.758854, lon.=26.543482, Alt.=162.380981m. Speed=22.931999m/h.</desc>
<speed>6.370000</speed>
</trkpt>
<trkpt lat="55.758907" lon="26.543449">
<ele>162.138794</ele>
<time>2010-07-18T13:21:05Z</time>
<desc>lat.=55.758907, lon.=26.543449, Alt.=162.138794m. Speed=23.004000m/h.</desc>
<speed>6.390000</speed>
</trkpt>
<trkpt lat="55.758965" lon="26.543407">
<ele>162.205200</ele>
<time>2010-07-18T13:21:06Z</time>
<desc>lat.=55.758965, lon.=26.543407, Alt.=162.205200m. Speed=23.615999m/h.</desc>
<speed>6.560000</speed>
</trkpt>
<trkpt lat="55.759018" lon="26.543364">
<ele>162.295044</ele>
<time>2010-07-18T13:21:07Z</time>
<desc>lat.=55.759018, lon.=26.543364, Alt.=162.295044m. Speed=24.120001m/h.</desc>
<speed>6.700000</speed>
</trkpt>
<trkpt lat="55.759075" lon="26.543324">
<ele>162.353638</ele>
<time>2010-07-18T13:21:08Z</time>
<desc>lat.=55.759075, lon.=26.543324, Alt.=162.353638m. Speed=24.120001m/h.</desc>
<speed>6.700000</speed>
</trkpt>
<trkpt lat="55.759132" lon="26.543285">
<ele>162.435669</ele>
<time>2010-07-18T13:21:09Z</time>
<desc>lat.=55.759132, lon.=26.543285, Alt.=162.435669m. Speed=23.796000m/h.</desc>
<speed>6.610000</speed>
</trkpt>
<trkpt lat="55.759186" lon="26.543249">
<ele>162.466919</ele>
<time>2010-07-18T13:21:10Z</time>
<desc>lat.=55.759186, lon.=26.543249, Alt.=162.466919m. Speed=23.436001m/h.</desc>
<speed>6.510000</speed>
</trkpt>
<trkpt lat="55.759239" lon="26.543213">
<ele>162.478638</ele>
<time>2010-07-18T13:21:11Z</time>
<desc>lat.=55.759239, lon.=26.543213, Alt.=162.478638m. Speed=22.968000m/h.</desc>
<speed>6.380000</speed>
</trkpt>
<trkpt lat="55.759293" lon="26.543177">
<ele>162.498169</ele>
<time>2010-07-18T13:21:12Z</time>
<desc>lat.=55.759293, lon.=26.543177, Alt.=162.498169m. Speed=22.823999m/h.</desc>
<speed>6.340000</speed>
</trkpt>
<trkpt lat="55.759346" lon="26.543144">
<ele>162.556763</ele>
<time>2010-07-18T13:21:13Z</time>
<desc>lat.=55.759346, lon.=26.543144, Alt.=162.556763m. Speed=22.896000m/h.</desc>
<speed>6.360000</speed>
</trkpt>
<trkpt lat="55.759399" lon="26.543110">
<ele>162.548950</ele>
<time>2010-07-18T13:21:14Z</time>
<desc>lat.=55.759399, lon.=26.543110, Alt.=162.548950m. Speed=23.615999m/h.</desc>
<speed>6.560000</speed>
</trkpt>
<trkpt lat="55.759457" lon="26.543070">
<ele>162.556763</ele>
<time>2010-07-18T13:21:15Z</time>
<desc>lat.=55.759457, lon.=26.543070, Alt.=162.556763m. Speed=24.191999m/h.</desc>
<speed>6.720000</speed>
</trkpt>
<trkpt lat="55.759510" lon="26.543034">
<ele>162.478638</ele>
<time>2010-07-18T13:21:16Z</time>
<desc>lat.=55.759510, lon.=26.543034, Alt.=162.478638m. Speed=24.983999m/h.</desc>
<speed>6.940000</speed>
</trkpt>
<trkpt lat="55.759571" lon="26.542995">
<ele>162.466919</ele>
<time>2010-07-18T13:21:17Z</time>
<desc>lat.=55.759571, lon.=26.542995, Alt.=162.466919m. Speed=25.596001m/h.</desc>
<speed>7.110000</speed>
</trkpt>
<trkpt lat="55.759628" lon="26.542955">
<ele>162.478638</ele>
<time>2010-07-18T13:21:18Z</time>
<desc>lat.=55.759628, lon.=26.542955, Alt.=162.478638m. Speed=25.488001m/h.</desc>
<speed>7.080000</speed>
</trkpt>
<trkpt lat="55.759689" lon="26.542915">
<ele>162.486450</ele>
<time>2010-07-18T13:21:19Z</time>
<desc>lat.=55.759689, lon.=26.542915, Alt.=162.486450m. Speed=25.344000m/h.</desc>
<speed>7.040000</speed>
</trkpt>
<trkpt lat="55.759750" lon="26.542875">
<ele>162.517700</ele>
<time>2010-07-18T13:21:20Z</time>
<desc>lat.=55.759750, lon.=26.542875, Alt.=162.517700m. Speed=25.091999m/h.</desc>
<speed>6.970000</speed>
</trkpt>
<trkpt lat="55.759808" lon="26.542831">
<ele>162.591919</ele>
<time>2010-07-18T13:21:21Z</time>
<desc>lat.=55.759808, lon.=26.542831, Alt.=162.591919m. Speed=24.840000m/h.</desc>
<speed>6.900000</speed>
</trkpt>
<trkpt lat="55.759865" lon="26.542791">
<ele>162.615356</ele>
<time>2010-07-18T13:21:22Z</time>
<desc>lat.=55.759865, lon.=26.542791, Alt.=162.615356m. Speed=24.768000m/h.</desc>
<speed>6.880000</speed>
</trkpt>
<trkpt lat="55.759922" lon="26.542753">
<ele>162.709106</ele>
<time>2010-07-18T13:21:23Z</time>
<desc>lat.=55.759922, lon.=26.542753, Alt.=162.709106m. Speed=24.552000m/h.</desc>
<speed>6.820000</speed>
</trkpt>
<trkpt lat="55.759983" lon="26.542713">
<ele>162.720825</ele>
<time>2010-07-18T13:21:24Z</time>
<desc>lat.=55.759983, lon.=26.542713, Alt.=162.720825m. Speed=24.552000m/h.</desc>
<speed>6.820000</speed>
</trkpt>
<trkpt lat="55.760040" lon="26.542677">
<ele>162.650513</ele>
<time>2010-07-18T13:21:25Z</time>
<desc>lat.=55.760040, lon.=26.542677, Alt.=162.650513m. Speed=25.344000m/h.</desc>
<speed>7.040000</speed>
</trkpt>
<trkpt lat="55.760098" lon="26.542639">
<ele>162.509888</ele>
<time>2010-07-18T13:21:26Z</time>
<desc>lat.=55.760098, lon.=26.542639, Alt.=162.509888m. Speed=25.271999m/h.</desc>
<speed>7.020000</speed>
</trkpt>
<trkpt lat="55.760159" lon="26.542601">
<ele>162.478638</ele>
<time>2010-07-18T13:21:27Z</time>
<desc>lat.=55.760159, lon.=26.542601, Alt.=162.478638m. Speed=25.056000m/h.</desc>
<speed>6.960000</speed>
</trkpt>
<trkpt lat="55.760216" lon="26.542564">
<ele>162.443481</ele>
<time>2010-07-18T13:21:28Z</time>
<desc>lat.=55.760216, lon.=26.542564, Alt.=162.443481m. Speed=24.552000m/h.</desc>
<speed>6.820000</speed>
</trkpt>
<trkpt lat="55.760273" lon="26.542524">
<ele>162.494263</ele>
<time>2010-07-18T13:21:29Z</time>
<desc>lat.=55.760273, lon.=26.542524, Alt.=162.494263m. Speed=24.372000m/h.</desc>
<speed>6.770000</speed>
</trkpt>
<trkpt lat="55.760334" lon="26.542486">
<ele>162.420044</ele>
<time>2010-07-18T13:21:30Z</time>
<desc>lat.=55.760334, lon.=26.542486, Alt.=162.420044m. Speed=24.480000m/h.</desc>
<speed>6.800000</speed>
</trkpt>
<trkpt lat="55.760387" lon="26.542448">
<ele>162.420044</ele>
<time>2010-07-18T13:21:31Z</time>
<desc>lat.=55.760387, lon.=26.542448, Alt.=162.420044m. Speed=24.804001m/h.</desc>
<speed>6.890000</speed>
</trkpt>
<trkpt lat="55.760445" lon="26.542410">
<ele>162.369263</ele>
<time>2010-07-18T13:21:32Z</time>
<desc>lat.=55.760445, lon.=26.542410, Alt.=162.369263m. Speed=25.128000m/h.</desc>
<speed>6.980000</speed>
</trkpt>
<trkpt lat="55.760506" lon="26.542368">
<ele>162.470825</ele>
<time>2010-07-18T13:21:33Z</time>
<desc>lat.=55.760506, lon.=26.542368, Alt.=162.470825m. Speed=25.344000m/h.</desc>
<speed>7.040000</speed>
</trkpt>
<trkpt lat="55.760563" lon="26.542332">
<ele>162.345825</ele>
<time>2010-07-18T13:21:34Z</time>
<desc>lat.=55.760563, lon.=26.542332, Alt.=162.345825m. Speed=25.920000m/h.</desc>
<speed>7.200000</speed>
</trkpt>
<trkpt lat="55.760628" lon="26.542292">
<ele>162.298950</ele>
<time>2010-07-18T13:21:35Z</time>
<desc>lat.=55.760628, lon.=26.542292, Alt.=162.298950m. Speed=26.639999m/h.</desc>
<speed>7.400000</speed>
</trkpt>
<trkpt lat="55.760689" lon="26.542248">
<ele>162.400513</ele>
<time>2010-07-18T13:21:36Z</time>
<desc>lat.=55.760689, lon.=26.542248, Alt.=162.400513m. Speed=26.208000m/h.</desc>
<speed>7.280000</speed>
</trkpt>
<trkpt lat="55.760750" lon="26.542208">
<ele>162.408325</ele>
<time>2010-07-18T13:21:37Z</time>
<desc>lat.=55.760750, lon.=26.542208, Alt.=162.408325m. Speed=26.100000m/h.</desc>
<speed>7.250000</speed>
</trkpt>
<trkpt lat="55.760811" lon="26.542179">
<ele>162.170044</ele>
<time>2010-07-18T13:21:38Z</time>
<desc>lat.=55.760811, lon.=26.542179, Alt.=162.170044m. Speed=25.812000m/h.</desc>
<speed>7.170000</speed>
</trkpt>
<trkpt lat="55.760872" lon="26.542141">
<ele>162.154419</ele>
<time>2010-07-18T13:21:39Z</time>
<desc>lat.=55.760872, lon.=26.542141, Alt.=162.154419m. Speed=25.740000m/h.</desc>
<speed>7.150000</speed>
</trkpt>
<trkpt lat="55.760933" lon="26.542101">
<ele>162.111450</ele>
<time>2010-07-18T13:21:40Z</time>
<desc>lat.=55.760933, lon.=26.542101, Alt.=162.111450m. Speed=25.488001m/h.</desc>
<speed>7.080000</speed>
</trkpt>
<trkpt lat="55.760990" lon="26.542065">
<ele>162.009888</ele>
<time>2010-07-18T13:21:41Z</time>
<desc>lat.=55.760990, lon.=26.542065, Alt.=162.009888m. Speed=25.740000m/h.</desc>
<speed>7.150000</speed>
</trkpt>
<trkpt lat="55.761051" lon="26.542027">
<ele>161.904419</ele>
<time>2010-07-18T13:21:42Z</time>
<desc>lat.=55.761051, lon.=26.542027, Alt.=161.904419m. Speed=26.459999m/h.</desc>
<speed>7.350000</speed>
</trkpt>
<trkpt lat="55.761116" lon="26.541983">
<ele>161.947388</ele>
<time>2010-07-18T13:21:43Z</time>
<desc>lat.=55.761116, lon.=26.541983, Alt.=161.947388m. Speed=27.576000m/h.</desc>
<speed>7.660000</speed>
</trkpt>
<trkpt lat="55.761181" lon="26.541945">
<ele>161.818481</ele>
<time>2010-07-18T13:21:44Z</time>
<desc>lat.=55.761181, lon.=26.541945, Alt.=161.818481m. Speed=28.188000m/h.</desc>
<speed>7.830000</speed>
</trkpt>
<trkpt lat="55.761246" lon="26.541903">
<ele>161.779419</ele>
<time>2010-07-18T13:21:45Z</time>
<desc>lat.=55.761246, lon.=26.541903, Alt.=161.779419m. Speed=27.827999m/h.</desc>
<speed>7.730000</speed>
</trkpt>
<trkpt lat="55.761311" lon="26.541859">
<ele>161.752075</ele>
<time>2010-07-18T13:21:46Z</time>
<desc>lat.=55.761311, lon.=26.541859, Alt.=161.752075m. Speed=27.612000m/h.</desc>
<speed>7.670000</speed>
</trkpt>
<trkpt lat="55.761375" lon="26.541821">
<ele>161.716919</ele>
<time>2010-07-18T13:21:47Z</time>
<desc>lat.=55.761375, lon.=26.541821, Alt.=161.716919m. Speed=27.540001m/h.</desc>
<speed>7.650000</speed>
</trkpt>
<trkpt lat="55.761440" lon="26.541784">
<ele>161.693481</ele>
<time>2010-07-18T13:21:48Z</time>
<desc>lat.=55.761440, lon.=26.541784, Alt.=161.693481m. Speed=27.540001m/h.</desc>
<speed>7.650000</speed>
</trkpt>
<trkpt lat="55.761509" lon="26.541746">
<ele>161.732544</ele>
<time>2010-07-18T13:21:49Z</time>
<desc>lat.=55.761509, lon.=26.541746, Alt.=161.732544m. Speed=27.360001m/h.</desc>
<speed>7.600000</speed>
</trkpt>
<trkpt lat="55.761574" lon="26.541706">
<ele>161.779419</ele>
<time>2010-07-18T13:21:50Z</time>
<desc>lat.=55.761574, lon.=26.541706, Alt.=161.779419m. Speed=27.288000m/h.</desc>
<speed>7.580000</speed>
</trkpt>
<trkpt lat="55.761635" lon="26.541666">
<ele>161.693481</ele>
<time>2010-07-18T13:21:51Z</time>
<desc>lat.=55.761635, lon.=26.541666, Alt.=161.693481m. Speed=26.964001m/h.</desc>
<speed>7.490000</speed>
</trkpt>
<trkpt lat="55.761700" lon="26.541622">
<ele>161.650513</ele>
<time>2010-07-18T13:21:52Z</time>
<desc>lat.=55.761700, lon.=26.541622, Alt.=161.650513m. Speed=26.927999m/h.</desc>
<speed>7.480000</speed>
</trkpt>
<trkpt lat="55.761761" lon="26.541580">
<ele>161.591919</ele>
<time>2010-07-18T13:21:53Z</time>
<desc>lat.=55.761761, lon.=26.541580, Alt.=161.591919m. Speed=26.784000m/h.</desc>
<speed>7.440000</speed>
</trkpt>
<trkpt lat="55.761826" lon="26.541540">
<ele>161.513794</ele>
<time>2010-07-18T13:21:54Z</time>
<desc>lat.=55.761826, lon.=26.541540, Alt.=161.513794m. Speed=26.604000m/h.</desc>
<speed>7.390000</speed>
</trkpt>
<trkpt lat="55.761887" lon="26.541498">
<ele>161.521606</ele>
<time>2010-07-18T13:21:55Z</time>
<desc>lat.=55.761887, lon.=26.541498, Alt.=161.521606m. Speed=26.639999m/h.</desc>
<speed>7.400000</speed>
</trkpt>
<trkpt lat="55.761951" lon="26.541458">
<ele>161.494263</ele>
<time>2010-07-18T13:21:56Z</time>
<desc>lat.=55.761951, lon.=26.541458, Alt.=161.494263m. Speed=26.532000m/h.</desc>
<speed>7.370000</speed>
</trkpt>
<trkpt lat="55.762012" lon="26.541418">
<ele>161.513794</ele>
<time>2010-07-18T13:21:57Z</time>
<desc>lat.=55.762012, lon.=26.541418, Alt.=161.513794m. Speed=26.063999m/h.</desc>
<speed>7.240000</speed>
</trkpt>
<trkpt lat="55.762074" lon="26.541378">
<ele>161.505981</ele>
<time>2010-07-18T13:21:58Z</time>
<desc>lat.=55.762074, lon.=26.541378, Alt.=161.505981m. Speed=25.775999m/h.</desc>
<speed>7.160000</speed>
</trkpt>
<trkpt lat="55.762135" lon="26.541336">
<ele>161.509888</ele>
<time>2010-07-18T13:21:59Z</time>
<desc>lat.=55.762135, lon.=26.541336, Alt.=161.509888m. Speed=25.667999m/h.</desc>
<speed>7.130000</speed>
</trkpt>
<trkpt lat="55.762196" lon="26.541294">
<ele>161.568481</ele>
<time>2010-07-18T13:22:00Z</time>
<desc>lat.=55.762196, lon.=26.541294, Alt.=161.568481m. Speed=25.704000m/h.</desc>
<speed>7.140000</speed>
</trkpt>
<trkpt lat="55.762253" lon="26.541248">
<ele>161.736450</ele>
<time>2010-07-18T13:22:01Z</time>
<desc>lat.=55.762253, lon.=26.541248, Alt.=161.736450m. Speed=25.559999m/h.</desc>
<speed>7.100000</speed>
</trkpt>
<trkpt lat="55.762314" lon="26.541206">
<ele>161.720825</ele>
<time>2010-07-18T13:22:02Z</time>
<desc>lat.=55.762314, lon.=26.541206, Alt.=161.720825m. Speed=26.496000m/h.</desc>
<speed>7.360000</speed>
</trkpt>
<trkpt lat="55.762375" lon="26.541164">
<ele>161.681763</ele>
<time>2010-07-18T13:22:03Z</time>
<desc>lat.=55.762375, lon.=26.541164, Alt.=161.681763m. Speed=26.892000m/h.</desc>
<speed>7.470000</speed>
</trkpt>
<trkpt lat="55.762436" lon="26.541119">
<ele>161.494263</ele>
<time>2010-07-18T13:22:04Z</time>
<desc>lat.=55.762436, lon.=26.541119, Alt.=161.494263m. Speed=26.604000m/h.</desc>
<speed>7.390000</speed>
</trkpt>
<trkpt lat="55.762497" lon="26.541073">
<ele>161.193481</ele>
<time>2010-07-18T13:22:05Z</time>
<desc>lat.=55.762497, lon.=26.541073, Alt.=161.193481m. Speed=27.504000m/h.</desc>
<speed>7.640000</speed>
</trkpt>
<trkpt lat="55.762558" lon="26.541023">
<ele>161.060669</ele>
<time>2010-07-18T13:22:06Z</time>
<desc>lat.=55.762558, lon.=26.541023, Alt.=161.060669m. Speed=27.216000m/h.</desc>
<speed>7.560000</speed>
</trkpt>
<trkpt lat="55.762623" lon="26.540976">
<ele>160.877075</ele>
<time>2010-07-18T13:22:07Z</time>
<desc>lat.=55.762623, lon.=26.540976, Alt.=160.877075m. Speed=27.396000m/h.</desc>
<speed>7.610000</speed>
</trkpt>
<trkpt lat="55.762684" lon="26.540930">
<ele>160.908325</ele>
<time>2010-07-18T13:22:08Z</time>
<desc>lat.=55.762684, lon.=26.540930, Alt.=160.908325m. Speed=26.856001m/h.</desc>
<speed>7.460000</speed>
</trkpt>
<trkpt lat="55.762745" lon="26.540880">
<ele>160.900513</ele>
<time>2010-07-18T13:22:09Z</time>
<desc>lat.=55.762745, lon.=26.540880, Alt.=160.900513m. Speed=26.280001m/h.</desc>
<speed>7.300000</speed>
</trkpt>
<trkpt lat="55.762806" lon="26.540833">
<ele>160.892700</ele>
<time>2010-07-18T13:22:10Z</time>
<desc>lat.=55.762806, lon.=26.540833, Alt.=160.892700m. Speed=27.396000m/h.</desc>
<speed>7.610000</speed>
</trkpt>
<trkpt lat="55.762871" lon="26.540781">
<ele>161.017700</ele>
<time>2010-07-18T13:22:11Z</time>
<desc>lat.=55.762871, lon.=26.540781, Alt.=161.017700m. Speed=27.900000m/h.</desc>
<speed>7.750000</speed>
</trkpt>
<trkpt lat="55.762932" lon="26.540731">
<ele>161.041138</ele>
<time>2010-07-18T13:22:12Z</time>
<desc>lat.=55.762932, lon.=26.540731, Alt.=161.041138m. Speed=27.972000m/h.</desc>
<speed>7.770000</speed>
</trkpt>
<trkpt lat="55.762993" lon="26.540684">
<ele>160.955200</ele>
<time>2010-07-18T13:22:13Z</time>
<desc>lat.=55.762993, lon.=26.540684, Alt.=160.955200m. Speed=26.496000m/h.</desc>
<speed>7.360000</speed>
</trkpt>
<trkpt lat="55.763054" lon="26.540636">
<ele>160.947388</ele>
<time>2010-07-18T13:22:14Z</time>
<desc>lat.=55.763054, lon.=26.540636, Alt.=160.947388m. Speed=26.639999m/h.</desc>
<speed>7.400000</speed>
</trkpt>
<trkpt lat="55.763115" lon="26.540588">
<ele>160.912231</ele>
<time>2010-07-18T13:22:15Z</time>
<desc>lat.=55.763115, lon.=26.540588, Alt.=160.912231m. Speed=26.028000m/h.</desc>
<speed>7.230000</speed>
</trkpt>
<trkpt lat="55.763180" lon="26.540541">
<ele>160.615356</ele>
<time>2010-07-18T13:22:16Z</time>
<desc>lat.=55.763180, lon.=26.540541, Alt.=160.615356m. Speed=27.719999m/h.</desc>
<speed>7.700000</speed>
</trkpt>
<trkpt lat="55.763245" lon="26.540489">
<ele>160.556763</ele>
<time>2010-07-18T13:22:17Z</time>
<desc>lat.=55.763245, lon.=26.540489, Alt.=160.556763m. Speed=28.296000m/h.</desc>
<speed>7.860000</speed>
</trkpt>
<trkpt lat="55.763313" lon="26.540442">
<ele>160.412231</ele>
<time>2010-07-18T13:22:18Z</time>
<desc>lat.=55.763313, lon.=26.540442, Alt.=160.412231m. Speed=28.188000m/h.</desc>
<speed>7.830000</speed>
</trkpt>
<trkpt lat="55.763378" lon="26.540390">
<ele>160.439575</ele>
<time>2010-07-18T13:22:19Z</time>
<desc>lat.=55.763378, lon.=26.540390, Alt.=160.439575m. Speed=27.972000m/h.</desc>
<speed>7.770000</speed>
</trkpt>
<trkpt lat="55.763443" lon="26.540340">
<ele>160.435669</ele>
<time>2010-07-18T13:22:20Z</time>
<desc>lat.=55.763443, lon.=26.540340, Alt.=160.435669m. Speed=27.756001m/h.</desc>
<speed>7.710000</speed>
</trkpt>
<trkpt lat="55.763508" lon="26.540289">
<ele>160.388794</ele>
<time>2010-07-18T13:22:21Z</time>
<desc>lat.=55.763508, lon.=26.540289, Alt.=160.388794m. Speed=27.504000m/h.</desc>
<speed>7.640000</speed>
</trkpt>
<trkpt lat="55.763569" lon="26.540237">
<ele>160.349731</ele>
<time>2010-07-18T13:22:22Z</time>
<desc>lat.=55.763569, lon.=26.540237, Alt.=160.349731m. Speed=27.360001m/h.</desc>
<speed>7.600000</speed>
</trkpt>
<trkpt lat="55.763634" lon="26.540186">
<ele>160.291138</ele>
<time>2010-07-18T13:22:23Z</time>
<desc>lat.=55.763634, lon.=26.540186, Alt.=160.291138m. Speed=27.504000m/h.</desc>
<speed>7.640000</speed>
</trkpt>
<trkpt lat="55.763695" lon="26.540134">
<ele>160.216919</ele>
<time>2010-07-18T13:22:24Z</time>
<desc>lat.=55.763695, lon.=26.540134, Alt.=160.216919m. Speed=27.756001m/h.</desc>
<speed>7.710000</speed>
</trkpt>
<trkpt lat="55.763760" lon="26.540083">
<ele>160.150513</ele>
<time>2010-07-18T13:22:25Z</time>
<desc>lat.=55.763760, lon.=26.540083, Alt.=160.150513m. Speed=27.648001m/h.</desc>
<speed>7.680000</speed>
</trkpt>
<trkpt lat="55.763821" lon="26.540031">
<ele>160.048950</ele>
<time>2010-07-18T13:22:26Z</time>
<desc>lat.=55.763821, lon.=26.540031, Alt.=160.048950m. Speed=27.719999m/h.</desc>
<speed>7.700000</speed>
</trkpt>
<trkpt lat="55.763885" lon="26.539980">
<ele>159.814575</ele>
<time>2010-07-18T13:22:27Z</time>
<desc>lat.=55.763885, lon.=26.539980, Alt.=159.814575m. Speed=27.900000m/h.</desc>
<speed>7.750000</speed>
</trkpt>
<trkpt lat="55.763947" lon="26.539925">
<ele>159.892700</ele>
<time>2010-07-18T13:22:28Z</time>
<desc>lat.=55.763947, lon.=26.539925, Alt.=159.892700m. Speed=27.936001m/h.</desc>
<speed>7.760000</speed>
</trkpt>
<trkpt lat="55.764011" lon="26.539869">
<ele>159.880981</ele>
<time>2010-07-18T13:22:29Z</time>
<desc>lat.=55.764011, lon.=26.539869, Alt.=159.880981m. Speed=28.007999m/h.</desc>
<speed>7.780000</speed>
</trkpt>
<trkpt lat="55.764076" lon="26.539814">
<ele>159.771606</ele>
<time>2010-07-18T13:22:30Z</time>
<desc>lat.=55.764076, lon.=26.539814, Alt.=159.771606m. Speed=28.115999m/h.</desc>
<speed>7.810000</speed>
</trkpt>
<trkpt lat="55.764137" lon="26.539759">
<ele>159.802856</ele>
<time>2010-07-18T13:22:31Z</time>
<desc>lat.=55.764137, lon.=26.539759, Alt.=159.802856m. Speed=27.972000m/h.</desc>
<speed>7.770000</speed>
</trkpt>
<trkpt lat="55.764198" lon="26.539701">
<ele>159.892700</ele>
<time>2010-07-18T13:22:32Z</time>
<desc>lat.=55.764198, lon.=26.539701, Alt.=159.892700m. Speed=27.827999m/h.</desc>
<speed>7.730000</speed>
</trkpt>
<trkpt lat="55.764259" lon="26.539642">
<ele>159.798950</ele>
<time>2010-07-18T13:22:33Z</time>
<desc>lat.=55.764259, lon.=26.539642, Alt.=159.798950m. Speed=27.827999m/h.</desc>
<speed>7.730000</speed>
</trkpt>
<trkpt lat="55.764324" lon="26.539587">
<ele>159.732544</ele>
<time>2010-07-18T13:22:34Z</time>
<desc>lat.=55.764324, lon.=26.539587, Alt.=159.732544m. Speed=27.648001m/h.</desc>
<speed>7.680000</speed>
</trkpt>
<trkpt lat="55.764385" lon="26.539530">
<ele>159.697388</ele>
<time>2010-07-18T13:22:35Z</time>
<desc>lat.=55.764385, lon.=26.539530, Alt.=159.697388m. Speed=27.504000m/h.</desc>
<speed>7.640000</speed>
</trkpt>
<trkpt lat="55.764446" lon="26.539474">
<ele>159.607544</ele>
<time>2010-07-18T13:22:36Z</time>
<desc>lat.=55.764446, lon.=26.539474, Alt.=159.607544m. Speed=27.468000m/h.</desc>
<speed>7.630000</speed>
</trkpt>
<trkpt lat="55.764507" lon="26.539413">
<ele>159.552856</ele>
<time>2010-07-18T13:22:37Z</time>
<desc>lat.=55.764507, lon.=26.539413, Alt.=159.552856m. Speed=27.431999m/h.</desc>
<speed>7.620000</speed>
</trkpt>
<trkpt lat="55.764568" lon="26.539356">
<ele>159.502075</ele>
<time>2010-07-18T13:22:38Z</time>
<desc>lat.=55.764568, lon.=26.539356, Alt.=159.502075m. Speed=27.468000m/h.</desc>
<speed>7.630000</speed>
</trkpt>
<trkpt lat="55.764629" lon="26.539305">
<ele>159.295044</ele>
<time>2010-07-18T13:22:39Z</time>
<desc>lat.=55.764629, lon.=26.539305, Alt.=159.295044m. Speed=27.612000m/h.</desc>
<speed>7.670000</speed>
</trkpt>
<trkpt lat="55.764690" lon="26.539249">
<ele>159.189575</ele>
<time>2010-07-18T13:22:40Z</time>
<desc>lat.=55.764690, lon.=26.539249, Alt.=159.189575m. Speed=27.612000m/h.</desc>
<speed>7.670000</speed>
</trkpt>
<trkpt lat="55.764751" lon="26.539194">
<ele>159.091919</ele>
<time>2010-07-18T13:22:41Z</time>
<desc>lat.=55.764751, lon.=26.539194, Alt.=159.091919m. Speed=27.719999m/h.</desc>
<speed>7.700000</speed>
</trkpt>
<trkpt lat="55.764812" lon="26.539139">
<ele>159.084106</ele>
<time>2010-07-18T13:22:42Z</time>
<desc>lat.=55.764812, lon.=26.539139, Alt.=159.084106m. Speed=27.792000m/h.</desc>
<speed>7.720000</speed>
</trkpt>
<trkpt lat="55.764874" lon="26.539078">
<ele>158.951294</ele>
<time>2010-07-18T13:22:43Z</time>
<desc>lat.=55.764874, lon.=26.539078, Alt.=158.951294m. Speed=27.719999m/h.</desc>
<speed>7.700000</speed>
</trkpt>
<trkpt lat="55.764935" lon="26.539019">
<ele>158.943481</ele>
<time>2010-07-18T13:22:44Z</time>
<desc>lat.=55.764935, lon.=26.539019, Alt.=158.943481m. Speed=27.792000m/h.</desc>
<speed>7.720000</speed>
</trkpt>
<trkpt lat="55.764999" lon="26.538960">
<ele>158.752075</ele>
<time>2010-07-18T13:22:45Z</time>
<desc>lat.=55.764999, lon.=26.538960, Alt.=158.752075m. Speed=27.792000m/h.</desc>
<speed>7.720000</speed>
</trkpt>
<trkpt lat="55.765057" lon="26.538904">
<ele>158.736450</ele>
<time>2010-07-18T13:22:46Z</time>
<desc>lat.=55.765057, lon.=26.538904, Alt.=158.736450m. Speed=27.972000m/h.</desc>
<speed>7.770000</speed>
</trkpt>
<trkpt lat="55.765118" lon="26.538845">
<ele>158.623169</ele>
<time>2010-07-18T13:22:47Z</time>
<desc>lat.=55.765118, lon.=26.538845, Alt.=158.623169m. Speed=27.792000m/h.</desc>
<speed>7.720000</speed>
</trkpt>
<trkpt lat="55.765179" lon="26.538784">
<ele>158.517700</ele>
<time>2010-07-18T13:22:48Z</time>
<desc>lat.=55.765179, lon.=26.538784, Alt.=158.517700m. Speed=27.504000m/h.</desc>
<speed>7.640000</speed>
</trkpt>
<trkpt lat="55.765236" lon="26.538719">
<ele>158.537231</ele>
<time>2010-07-18T13:22:49Z</time>
<desc>lat.=55.765236, lon.=26.538719, Alt.=158.537231m. Speed=27.468000m/h.</desc>
<speed>7.630000</speed>
</trkpt>
<trkpt lat="55.765297" lon="26.538658">
<ele>158.525513</ele>
<time>2010-07-18T13:22:50Z</time>
<desc>lat.=55.765297, lon.=26.538658, Alt.=158.525513m. Speed=27.252001m/h.</desc>
<speed>7.570000</speed>
</trkpt>
<trkpt lat="55.765350" lon="26.538599">
<ele>158.459106</ele>
<time>2010-07-18T13:22:51Z</time>
<desc>lat.=55.765350, lon.=26.538599, Alt.=158.459106m. Speed=26.892000m/h.</desc>
<speed>7.470000</speed>
</trkpt>
<trkpt lat="55.765408" lon="26.538540">
<ele>158.259888</ele>
<time>2010-07-18T13:22:52Z</time>
<desc>lat.=55.765408, lon.=26.538540, Alt.=158.259888m. Speed=25.596001m/h.</desc>
<speed>7.110000</speed>
</trkpt>
<trkpt lat="55.765461" lon="26.538479">
<ele>158.091919</ele>
<time>2010-07-18T13:22:53Z</time>
<desc>lat.=55.765461, lon.=26.538479, Alt.=158.091919m. Speed=27.216000m/h.</desc>
<speed>7.560000</speed>
</trkpt>
<trkpt lat="55.765518" lon="26.538424">
<ele>157.853638</ele>
<time>2010-07-18T13:22:54Z</time>
<desc>lat.=55.765518, lon.=26.538424, Alt.=157.853638m. Speed=27.864000m/h.</desc>
<speed>7.740000</speed>
</trkpt>
<trkpt lat="55.765575" lon="26.538363">
<ele>157.755981</ele>
<time>2010-07-18T13:22:55Z</time>
<desc>lat.=55.765575, lon.=26.538363, Alt.=157.755981m. Speed=27.864000m/h.</desc>
<speed>7.740000</speed>
</trkpt>
<trkpt lat="55.765633" lon="26.538300">
<ele>157.670044</ele>
<time>2010-07-18T13:22:56Z</time>
<desc>lat.=55.765633, lon.=26.538300, Alt.=157.670044m. Speed=27.792000m/h.</desc>
<speed>7.720000</speed>
</trkpt>
<trkpt lat="55.765686" lon="26.538235">
<ele>157.720825</ele>
<time>2010-07-18T13:22:57Z</time>
<desc>lat.=55.765686, lon.=26.538235, Alt.=157.720825m. Speed=24.480000m/h.</desc>
<speed>6.800000</speed>
</trkpt>
<trkpt lat="55.765739" lon="26.538172">
<ele>157.666138</ele>
<time>2010-07-18T13:22:58Z</time>
<desc>lat.=55.765739, lon.=26.538172, Alt.=157.666138m. Speed=26.063999m/h.</desc>
<speed>7.240000</speed>
</trkpt>
<trkpt lat="55.765800" lon="26.538105">
<ele>157.693481</ele>
<time>2010-07-18T13:22:59Z</time>
<desc>lat.=55.765800, lon.=26.538105, Alt.=157.693481m. Speed=28.511999m/h.</desc>
<speed>7.920000</speed>
</trkpt>
<trkpt lat="55.765862" lon="26.538048">
<ele>157.502075</ele>
<time>2010-07-18T13:23:00Z</time>
<desc>lat.=55.765862, lon.=26.538048, Alt.=157.502075m. Speed=28.908001m/h.</desc>
<speed>8.030000</speed>
</trkpt>
<trkpt lat="55.765930" lon="26.537992">
<ele>157.252075</ele>
<time>2010-07-18T13:23:01Z</time>
<desc>lat.=55.765930, lon.=26.537992, Alt.=157.252075m. Speed=29.556000m/h.</desc>
<speed>8.210000</speed>
</trkpt>
<trkpt lat="55.765999" lon="26.537937">
<ele>157.216919</ele>
<time>2010-07-18T13:23:02Z</time>
<desc>lat.=55.765999, lon.=26.537937, Alt.=157.216919m. Speed=28.728001m/h.</desc>
<speed>7.980000</speed>
</trkpt>
<trkpt lat="55.766068" lon="26.537884">
<ele>157.091919</ele>
<time>2010-07-18T13:23:03Z</time>
<desc>lat.=55.766068, lon.=26.537884, Alt.=157.091919m. Speed=28.620001m/h.</desc>
<speed>7.950000</speed>
</trkpt>
<trkpt lat="55.766144" lon="26.537838">
<ele>156.877075</ele>
<time>2010-07-18T13:23:04Z</time>
<desc>lat.=55.766144, lon.=26.537838, Alt.=156.877075m. Speed=30.528000m/h.</desc>
<speed>8.480000</speed>
</trkpt>
<trkpt lat="55.766220" lon="26.537794">
<ele>156.388794</ele>
<time>2010-07-18T13:23:05Z</time>
<desc>lat.=55.766220, lon.=26.537794, Alt.=156.388794m. Speed=30.996000m/h.</desc>
<speed>8.610000</speed>
</trkpt>
<trkpt lat="55.766296" lon="26.537746">
<ele>156.060669</ele>
<time>2010-07-18T13:23:06Z</time>
<desc>lat.=55.766296, lon.=26.537746, Alt.=156.060669m. Speed=31.320000m/h.</desc>
<speed>8.700000</speed>
</trkpt>
<trkpt lat="55.766376" lon="26.537703">
<ele>155.775513</ele>
<time>2010-07-18T13:23:07Z</time>
<desc>lat.=55.766376, lon.=26.537703, Alt.=155.775513m. Speed=31.500000m/h.</desc>
<speed>8.750000</speed>
</trkpt>
<trkpt lat="55.766457" lon="26.537666">
<ele>155.517700</ele>
<time>2010-07-18T13:23:08Z</time>
<desc>lat.=55.766457, lon.=26.537666, Alt.=155.517700m. Speed=31.788000m/h.</desc>
<speed>8.830000</speed>
</trkpt>
<trkpt lat="55.766537" lon="26.537632">
<ele>155.244263</ele>
<time>2010-07-18T13:23:09Z</time>
<desc>lat.=55.766537, lon.=26.537632, Alt.=155.244263m. Speed=32.112000m/h.</desc>
<speed>8.920000</speed>
</trkpt>
<trkpt lat="55.766613" lon="26.537601">
<ele>154.943481</ele>
<time>2010-07-18T13:23:10Z</time>
<desc>lat.=55.766613, lon.=26.537601, Alt.=154.943481m. Speed=32.220001m/h.</desc>
<speed>8.950000</speed>
</trkpt>
<trkpt lat="55.766697" lon="26.537573">
<ele>154.744263</ele>
<time>2010-07-18T13:23:11Z</time>
<desc>lat.=55.766697, lon.=26.537573, Alt.=154.744263m. Speed=32.688000m/h.</desc>
<speed>9.080000</speed>
</trkpt>
<trkpt lat="55.766777" lon="26.537548">
<ele>154.545044</ele>
<time>2010-07-18T13:23:12Z</time>
<desc>lat.=55.766777, lon.=26.537548, Alt.=154.545044m. Speed=34.236000m/h.</desc>
<speed>9.510000</speed>
</trkpt>
<trkpt lat="55.766865" lon="26.537529">
<ele>154.240356</ele>
<time>2010-07-18T13:23:13Z</time>
<desc>lat.=55.766865, lon.=26.537529, Alt.=154.240356m. Speed=34.703999m/h.</desc>
<speed>9.640000</speed>
</trkpt>
<trkpt lat="55.766953" lon="26.537508">
<ele>153.939575</ele>
<time>2010-07-18T13:23:14Z</time>
<desc>lat.=55.766953, lon.=26.537508, Alt.=153.939575m. Speed=35.099998m/h.</desc>
<speed>9.750000</speed>
</trkpt>
<trkpt lat="55.767040" lon="26.537487">
<ele>153.588013</ele>
<time>2010-07-18T13:23:15Z</time>
<desc>lat.=55.767040, lon.=26.537487, Alt.=153.588013m. Speed=35.316002m/h.</desc>
<speed>9.810001</speed>
</trkpt>
<trkpt lat="55.767132" lon="26.537468">
<ele>153.310669</ele>
<time>2010-07-18T13:23:16Z</time>
<desc>lat.=55.767132, lon.=26.537468, Alt.=153.310669m. Speed=35.712002m/h.</desc>
<speed>9.920001</speed>
</trkpt>
<trkpt lat="55.767220" lon="26.537447">
<ele>153.056763</ele>
<time>2010-07-18T13:23:17Z</time>
<desc>lat.=55.767220, lon.=26.537447, Alt.=153.056763m. Speed=36.180000m/h.</desc>
<speed>10.050000</speed>
</trkpt>
<trkpt lat="55.767311" lon="26.537426">
<ele>152.744263</ele>
<time>2010-07-18T13:23:18Z</time>
<desc>lat.=55.767311, lon.=26.537426, Alt.=152.744263m. Speed=36.720001m/h.</desc>
<speed>10.200000</speed>
</trkpt>
<trkpt lat="55.767406" lon="26.537405">
<ele>152.377075</ele>
<time>2010-07-18T13:23:19Z</time>
<desc>lat.=55.767406, lon.=26.537405, Alt.=152.377075m. Speed=37.080002m/h.</desc>
<speed>10.300001</speed>
</trkpt>
<trkpt lat="55.767498" lon="26.537388">
<ele>151.955200</ele>
<time>2010-07-18T13:23:20Z</time>
<desc>lat.=55.767498, lon.=26.537388, Alt.=151.955200m. Speed=37.584000m/h.</desc>
<speed>10.440000</speed>
</trkpt>
<trkpt lat="55.767593" lon="26.537361">
<ele>151.720825</ele>
<time>2010-07-18T13:23:21Z</time>
<desc>lat.=55.767593, lon.=26.537361, Alt.=151.720825m. Speed=37.908001m/h.</desc>
<speed>10.530000</speed>
</trkpt>
<trkpt lat="55.767689" lon="26.537333">
<ele>151.439575</ele>
<time>2010-07-18T13:23:22Z</time>
<desc>lat.=55.767689, lon.=26.537333, Alt.=151.439575m. Speed=38.807999m/h.</desc>
<speed>10.780000</speed>
</trkpt>
<trkpt lat="55.767788" lon="26.537304">
<ele>151.103638</ele>
<time>2010-07-18T13:23:23Z</time>
<desc>lat.=55.767788, lon.=26.537304, Alt.=151.103638m. Speed=38.916000m/h.</desc>
<speed>10.810000</speed>
</trkpt>
<trkpt lat="55.767891" lon="26.537273">
<ele>150.791138</ele>
<time>2010-07-18T13:23:24Z</time>
<desc>lat.=55.767891, lon.=26.537273, Alt.=150.791138m. Speed=39.167999m/h.</desc>
<speed>10.880000</speed>
</trkpt>
<trkpt lat="55.767986" lon="26.537239">
<ele>150.638794</ele>
<time>2010-07-18T13:23:25Z</time>
<desc>lat.=55.767986, lon.=26.537239, Alt.=150.638794m. Speed=38.807999m/h.</desc>
<speed>10.780000</speed>
</trkpt>
<trkpt lat="55.768085" lon="26.537210">
<ele>150.353638</ele>
<time>2010-07-18T13:23:26Z</time>
<desc>lat.=55.768085, lon.=26.537210, Alt.=150.353638m. Speed=38.736000m/h.</desc>
<speed>10.760000</speed>
</trkpt>
<trkpt lat="55.768185" lon="26.537188">
<ele>150.459106</ele>
<time>2010-07-18T13:23:27Z</time>
<desc>lat.=55.768185, lon.=26.537188, Alt.=150.459106m. Speed=39.240002m/h.</desc>
<speed>10.900000</speed>
</trkpt>
<trkpt lat="55.768284" lon="26.537165">
<ele>150.396606</ele>
<time>2010-07-18T13:23:28Z</time>
<desc>lat.=55.768284, lon.=26.537165, Alt.=150.396606m. Speed=39.023998m/h.</desc>
<speed>10.840000</speed>
</trkpt>
<trkpt lat="55.768391" lon="26.537146">
<ele>149.763794</ele>
<time>2010-07-18T13:23:29Z</time>
<desc>lat.=55.768391, lon.=26.537146, Alt.=149.763794m. Speed=41.040001m/h.</desc>
<speed>11.400000</speed>
</trkpt>
<trkpt lat="55.768505" lon="26.537123">
<ele>148.970825</ele>
<time>2010-07-18T13:23:30Z</time>
<desc>lat.=55.768505, lon.=26.537123, Alt.=148.970825m. Speed=40.787998m/h.</desc>
<speed>11.329999</speed>
</trkpt>
<trkpt lat="55.768608" lon="26.537094">
<ele>148.685669</ele>
<time>2010-07-18T13:23:31Z</time>
<desc>lat.=55.768608, lon.=26.537094, Alt.=148.685669m. Speed=42.299999m/h.</desc>
<speed>11.750000</speed>
</trkpt>
<trkpt lat="55.768711" lon="26.537066">
<ele>148.291138</ele>
<time>2010-07-18T13:23:32Z</time>
<desc>lat.=55.768711, lon.=26.537066, Alt.=148.291138m. Speed=42.372002m/h.</desc>
<speed>11.770000</speed>
</trkpt>
<trkpt lat="55.768818" lon="26.537037">
<ele>147.814575</ele>
<time>2010-07-18T13:23:33Z</time>
<desc>lat.=55.768818, lon.=26.537037, Alt.=147.814575m. Speed=43.380001m/h.</desc>
<speed>12.050000</speed>
</trkpt>
<trkpt lat="55.768925" lon="26.537006">
<ele>147.384888</ele>
<time>2010-07-18T13:23:34Z</time>
<desc>lat.=55.768925, lon.=26.537006, Alt.=147.384888m. Speed=43.452000m/h.</desc>
<speed>12.070000</speed>
</trkpt>
<trkpt lat="55.769035" lon="26.536978">
<ele>146.888794</ele>
<time>2010-07-18T13:23:35Z</time>
<desc>lat.=55.769035, lon.=26.536978, Alt.=146.888794m. Speed=45.504002m/h.</desc>
<speed>12.640000</speed>
</trkpt>
<trkpt lat="55.769146" lon="26.536945">
<ele>146.423950</ele>
<time>2010-07-18T13:23:36Z</time>
<desc>lat.=55.769146, lon.=26.536945, Alt.=146.423950m. Speed=46.296001m/h.</desc>
<speed>12.860000</speed>
</trkpt>
<trkpt lat="55.769268" lon="26.536917">
<ele>145.966919</ele>
<time>2010-07-18T13:23:37Z</time>
<desc>lat.=55.769268, lon.=26.536917, Alt.=145.966919m. Speed=47.051998m/h.</desc>
<speed>13.069999</speed>
</trkpt>
<trkpt lat="55.769379" lon="26.536886">
<ele>145.611450</ele>
<time>2010-07-18T13:23:38Z</time>
<desc>lat.=55.769379, lon.=26.536886, Alt.=145.611450m. Speed=46.512001m/h.</desc>
<speed>12.920000</speed>
</trkpt>
<trkpt lat="55.769489" lon="26.536854">
<ele>145.525513</ele>
<time>2010-07-18T13:23:39Z</time>
<desc>lat.=55.769489, lon.=26.536854, Alt.=145.525513m. Speed=46.439999m/h.</desc>
<speed>12.900000</speed>
</trkpt>
<trkpt lat="55.769604" lon="26.536827">
<ele>145.275513</ele>
<time>2010-07-18T13:23:40Z</time>
<desc>lat.=55.769604, lon.=26.536827, Alt.=145.275513m. Speed=45.035999m/h.</desc>
<speed>12.510000</speed>
</trkpt>
<trkpt lat="55.769714" lon="26.536797">
<ele>145.263794</ele>
<time>2010-07-18T13:23:41Z</time>
<desc>lat.=55.769714, lon.=26.536797, Alt.=145.263794m. Speed=45.900002m/h.</desc>
<speed>12.750000</speed>
</trkpt>
<trkpt lat="55.769829" lon="26.536766">
<ele>145.318481</ele>
<time>2010-07-18T13:23:42Z</time>
<desc>lat.=55.769829, lon.=26.536766, Alt.=145.318481m. Speed=45.540001m/h.</desc>
<speed>12.650000</speed>
</trkpt>
<trkpt lat="55.769939" lon="26.536734">
<ele>145.341919</ele>
<time>2010-07-18T13:23:43Z</time>
<desc>lat.=55.769939, lon.=26.536734, Alt.=145.341919m. Speed=44.748001m/h.</desc>
<speed>12.430000</speed>
</trkpt>
<trkpt lat="55.770046" lon="26.536705">
<ele>145.502075</ele>
<time>2010-07-18T13:23:44Z</time>
<desc>lat.=55.770046, lon.=26.536705, Alt.=145.502075m. Speed=43.812000m/h.</desc>
<speed>12.170000</speed>
</trkpt>
<trkpt lat="55.770153" lon="26.536676">
<ele>145.670044</ele>
<time>2010-07-18T13:23:45Z</time>
<desc>lat.=55.770153, lon.=26.536676, Alt.=145.670044m. Speed=43.020000m/h.</desc>
<speed>11.950000</speed>
</trkpt>
<trkpt lat="55.770260" lon="26.536646">
<ele>145.935669</ele>
<time>2010-07-18T13:23:46Z</time>
<desc>lat.=55.770260, lon.=26.536646, Alt.=145.935669m. Speed=41.688000m/h.</desc>
<speed>11.580000</speed>
</trkpt>
<trkpt lat="55.770363" lon="26.536621">
<ele>146.232544</ele>
<time>2010-07-18T13:23:47Z</time>
<desc>lat.=55.770363, lon.=26.536621, Alt.=146.232544m. Speed=40.391998m/h.</desc>
<speed>11.220000</speed>
</trkpt>
<trkpt lat="55.770466" lon="26.536596">
<ele>146.677856</ele>
<time>2010-07-18T13:23:48Z</time>
<desc>lat.=55.770466, lon.=26.536596, Alt.=146.677856m. Speed=39.132000m/h.</desc>
<speed>10.870000</speed>
</trkpt>
<trkpt lat="55.770565" lon="26.536560">
<ele>147.330200</ele>
<time>2010-07-18T13:23:49Z</time>
<desc>lat.=55.770565, lon.=26.536560, Alt.=147.330200m. Speed=37.728001m/h.</desc>
<speed>10.480000</speed>
</trkpt>
<trkpt lat="55.770657" lon="26.536533">
<ele>147.693481</ele>
<time>2010-07-18T13:23:50Z</time>
<desc>lat.=55.770657, lon.=26.536533, Alt.=147.693481m. Speed=36.396000m/h.</desc>
<speed>10.110000</speed>
</trkpt>
<trkpt lat="55.770744" lon="26.536510">
<ele>148.029419</ele>
<time>2010-07-18T13:23:51Z</time>
<desc>lat.=55.770744, lon.=26.536510, Alt.=148.029419m. Speed=34.919998m/h.</desc>
<speed>9.699999</speed>
</trkpt>
<trkpt lat="55.770828" lon="26.536493">
<ele>148.252075</ele>
<time>2010-07-18T13:23:52Z</time>
<desc>lat.=55.770828, lon.=26.536493, Alt.=148.252075m. Speed=33.408001m/h.</desc>
<speed>9.280000</speed>
</trkpt>
<trkpt lat="55.770912" lon="26.536470">
<ele>148.767700</ele>
<time>2010-07-18T13:23:53Z</time>
<desc>lat.=55.770912, lon.=26.536470, Alt.=148.767700m. Speed=32.147999m/h.</desc>
<speed>8.930000</speed>
</trkpt>
<trkpt lat="55.770988" lon="26.536449">
<ele>149.025513</ele>
<time>2010-07-18T13:23:54Z</time>
<desc>lat.=55.770988, lon.=26.536449, Alt.=149.025513m. Speed=30.312000m/h.</desc>
<speed>8.420000</speed>
</trkpt>
<trkpt lat="55.771061" lon="26.536434">
<ele>149.275513</ele>
<time>2010-07-18T13:23:55Z</time>
<desc>lat.=55.771061, lon.=26.536434, Alt.=149.275513m. Speed=28.944000m/h.</desc>
<speed>8.040000</speed>
</trkpt>
<trkpt lat="55.771130" lon="26.536417">
<ele>149.681763</ele>
<time>2010-07-18T13:23:56Z</time>
<desc>lat.=55.771130, lon.=26.536417, Alt.=149.681763m. Speed=28.115999m/h.</desc>
<speed>7.810000</speed>
</trkpt>
<trkpt lat="55.771198" lon="26.536400">
<ele>149.923950</ele>
<time>2010-07-18T13:23:57Z</time>
<desc>lat.=55.771198, lon.=26.536400, Alt.=149.923950m. Speed=26.820000m/h.</desc>
<speed>7.450000</speed>
</trkpt>
<trkpt lat="55.771263" lon="26.536383">
<ele>150.134888</ele>
<time>2010-07-18T13:23:58Z</time>
<desc>lat.=55.771263, lon.=26.536383, Alt.=150.134888m. Speed=25.667999m/h.</desc>
<speed>7.130000</speed>
</trkpt>
<trkpt lat="55.771324" lon="26.536369">
<ele>150.408325</ele>
<time>2010-07-18T13:23:59Z</time>
<desc>lat.=55.771324, lon.=26.536369, Alt.=150.408325m. Speed=24.336000m/h.</desc>
<speed>6.760000</speed>
</trkpt>
<trkpt lat="55.771381" lon="26.536356">
<ele>150.709106</ele>
<time>2010-07-18T13:24:00Z</time>
<desc>lat.=55.771381, lon.=26.536356, Alt.=150.709106m. Speed=22.572001m/h.</desc>
<speed>6.270000</speed>
</trkpt>
<trkpt lat="55.771435" lon="26.536343">
<ele>151.045044</ele>
<time>2010-07-18T13:24:01Z</time>
<desc>lat.=55.771435, lon.=26.536343, Alt.=151.045044m. Speed=21.240000m/h.</desc>
<speed>5.900000</speed>
</trkpt>
<trkpt lat="55.771484" lon="26.536329">
<ele>151.279419</ele>
<time>2010-07-18T13:24:02Z</time>
<desc>lat.=55.771484, lon.=26.536329, Alt.=151.279419m. Speed=19.908001m/h.</desc>
<speed>5.530000</speed>
</trkpt>
<trkpt lat="55.771534" lon="26.536318">
<ele>151.255981</ele>
<time>2010-07-18T13:24:03Z</time>
<desc>lat.=55.771534, lon.=26.536318, Alt.=151.255981m. Speed=18.504000m/h.</desc>
<speed>5.140000</speed>
</trkpt>
<trkpt lat="55.771576" lon="26.536303">
<ele>151.423950</ele>
<time>2010-07-18T13:24:04Z</time>
<desc>lat.=55.771576, lon.=26.536303, Alt.=151.423950m. Speed=17.280001m/h.</desc>
<speed>4.800000</speed>
</trkpt>
<trkpt lat="55.771618" lon="26.536293">
<ele>151.662231</ele>
<time>2010-07-18T13:24:05Z</time>
<desc>lat.=55.771618, lon.=26.536293, Alt.=151.662231m. Speed=15.912000m/h.</desc>
<speed>4.420000</speed>
</trkpt>
<trkpt lat="55.771656" lon="26.536283">
<ele>151.869263</ele>
<time>2010-07-18T13:24:06Z</time>
<desc>lat.=55.771656, lon.=26.536283, Alt.=151.869263m. Speed=13.680000m/h.</desc>
<speed>3.800000</speed>
</trkpt>
<trkpt lat="55.771687" lon="26.536274">
<ele>152.072388</ele>
<time>2010-07-18T13:24:07Z</time>
<desc>lat.=55.771687, lon.=26.536274, Alt.=152.072388m. Speed=12.888000m/h.</desc>
<speed>3.580000</speed>
</trkpt>
<trkpt lat="55.771717" lon="26.536261">
<ele>152.170044</ele>
<time>2010-07-18T13:24:08Z</time>
<desc>lat.=55.771717, lon.=26.536261, Alt.=152.170044m. Speed=12.168000m/h.</desc>
<speed>3.380000</speed>
</trkpt>
<trkpt lat="55.771748" lon="26.536253">
<ele>152.404419</ele>
<time>2010-07-18T13:24:09Z</time>
<desc>lat.=55.771748, lon.=26.536253, Alt.=152.404419m. Speed=11.412000m/h.</desc>
<speed>3.170000</speed>
</trkpt>
<trkpt lat="55.771774" lon="26.536245">
<ele>152.529419</ele>
<time>2010-07-18T13:24:10Z</time>
<desc>lat.=55.771774, lon.=26.536245, Alt.=152.529419m. Speed=10.404000m/h.</desc>
<speed>2.890000</speed>
</trkpt>
<trkpt lat="55.771797" lon="26.536238">
<ele>152.638794</ele>
<time>2010-07-18T13:24:11Z</time>
<desc>lat.=55.771797, lon.=26.536238, Alt.=152.638794m. Speed=9.432000m/h.</desc>
<speed>2.620000</speed>
</trkpt>
<trkpt lat="55.771820" lon="26.536232">
<ele>152.755981</ele>
<time>2010-07-18T13:24:12Z</time>
<desc>lat.=55.771820, lon.=26.536232, Alt.=152.755981m. Speed=9.000000m/h.</desc>
<speed>2.500000</speed>
</trkpt>
<trkpt lat="55.771843" lon="26.536230">
<ele>152.834106</ele>
<time>2010-07-18T13:24:13Z</time>
<desc>lat.=55.771843, lon.=26.536230, Alt.=152.834106m. Speed=8.136000m/h.</desc>
<speed>2.260000</speed>
</trkpt>
<trkpt lat="55.771858" lon="26.536226">
<ele>152.955200</ele>
<time>2010-07-18T13:24:14Z</time>
<desc>lat.=55.771858, lon.=26.536226, Alt.=152.955200m. Speed=7.884000m/h.</desc>
<speed>2.190000</speed>
</trkpt>
<trkpt lat="55.771877" lon="26.536222">
<ele>153.045044</ele>
<time>2010-07-18T13:24:15Z</time>
<desc>lat.=55.771877, lon.=26.536222, Alt.=153.045044m. Speed=6.804000m/h.</desc>
<speed>1.890000</speed>
</trkpt>
<trkpt lat="55.771893" lon="26.536217">
<ele>153.127075</ele>
<time>2010-07-18T13:24:16Z</time>
<desc>lat.=55.771893, lon.=26.536217, Alt.=153.127075m. Speed=9.468000m/h.</desc>
<speed>2.630000</speed>
</trkpt>
<trkpt lat="55.771915" lon="26.536211">
<ele>153.380981</ele>
<time>2010-07-18T13:24:17Z</time>
<desc>lat.=55.771915, lon.=26.536211, Alt.=153.380981m. Speed=9.756000m/h.</desc>
<speed>2.710000</speed>
</trkpt>
<trkpt lat="55.771942" lon="26.536205">
<ele>153.724731</ele>
<time>2010-07-18T13:24:18Z</time>
<desc>lat.=55.771942, lon.=26.536205, Alt.=153.724731m. Speed=11.448000m/h.</desc>
<speed>3.180000</speed>
</trkpt>
<trkpt lat="55.771969" lon="26.536198">
<ele>153.736450</ele>
<time>2010-07-18T13:24:19Z</time>
<desc>lat.=55.771969, lon.=26.536198, Alt.=153.736450m. Speed=11.880000m/h.</desc>
<speed>3.300000</speed>
</trkpt>
<trkpt lat="55.771999" lon="26.536188">
<ele>153.865356</ele>
<time>2010-07-18T13:24:20Z</time>
<desc>lat.=55.771999, lon.=26.536188, Alt.=153.865356m. Speed=11.844000m/h.</desc>
<speed>3.290000</speed>
</trkpt>
<trkpt lat="55.772030" lon="26.536179">
<ele>153.912231</ele>
<time>2010-07-18T13:24:21Z</time>
<desc>lat.=55.772030, lon.=26.536179, Alt.=153.912231m. Speed=12.204000m/h.</desc>
<speed>3.390000</speed>
</trkpt>
<trkpt lat="55.772060" lon="26.536173">
<ele>153.955200</ele>
<time>2010-07-18T13:24:22Z</time>
<desc>lat.=55.772060, lon.=26.536173, Alt.=153.955200m. Speed=12.168000m/h.</desc>
<speed>3.380000</speed>
</trkpt>
<trkpt lat="55.772091" lon="26.536163">
<ele>154.084106</ele>
<time>2010-07-18T13:24:23Z</time>
<desc>lat.=55.772091, lon.=26.536163, Alt.=154.084106m. Speed=12.420000m/h.</desc>
<speed>3.450000</speed>
</trkpt>
<trkpt lat="55.772121" lon="26.536152">
<ele>154.084106</ele>
<time>2010-07-18T13:24:24Z</time>
<desc>lat.=55.772121, lon.=26.536152, Alt.=154.084106m. Speed=12.420000m/h.</desc>
<speed>3.450000</speed>
</trkpt>
<trkpt lat="55.772152" lon="26.536146">
<ele>154.185669</ele>
<time>2010-07-18T13:24:25Z</time>
<desc>lat.=55.772152, lon.=26.536146, Alt.=154.185669m. Speed=12.600000m/h.</desc>
<speed>3.500000</speed>
</trkpt>
<trkpt lat="55.772182" lon="26.536142">
<ele>154.263794</ele>
<time>2010-07-18T13:24:26Z</time>
<desc>lat.=55.772182, lon.=26.536142, Alt.=154.263794m. Speed=12.384000m/h.</desc>
<speed>3.440000</speed>
</trkpt>
<trkpt lat="55.772213" lon="26.536139">
<ele>154.373169</ele>
<time>2010-07-18T13:24:27Z</time>
<desc>lat.=55.772213, lon.=26.536139, Alt.=154.373169m. Speed=11.592000m/h.</desc>
<speed>3.220000</speed>
</trkpt>
<trkpt lat="55.772240" lon="26.536135">
<ele>154.537231</ele>
<time>2010-07-18T13:24:28Z</time>
<desc>lat.=55.772240, lon.=26.536135, Alt.=154.537231m. Speed=11.160000m/h.</desc>
<speed>3.100000</speed>
</trkpt>
<trkpt lat="55.772266" lon="26.536127">
<ele>154.623169</ele>
<time>2010-07-18T13:24:29Z</time>
<desc>lat.=55.772266, lon.=26.536127, Alt.=154.623169m. Speed=9.828000m/h.</desc>
<speed>2.730000</speed>
</trkpt>
<trkpt lat="55.772285" lon="26.536119">
<ele>154.662231</ele>
<time>2010-07-18T13:24:30Z</time>
<desc>lat.=55.772285, lon.=26.536119, Alt.=154.662231m. Speed=7.920000m/h.</desc>
<speed>2.200000</speed>
</trkpt>
<trkpt lat="55.772305" lon="26.536112">
<ele>154.681763</ele>
<time>2010-07-18T13:24:31Z</time>
<desc>lat.=55.772305, lon.=26.536112, Alt.=154.681763m. Speed=7.308000m/h.</desc>
<speed>2.030000</speed>
</trkpt>
<trkpt lat="55.772320" lon="26.536108">
<ele>154.787231</ele>
<time>2010-07-18T13:24:32Z</time>
<desc>lat.=55.772320, lon.=26.536108, Alt.=154.787231m. Speed=6.768000m/h.</desc>
<speed>1.880000</speed>
</trkpt>
<trkpt lat="55.772339" lon="26.536102">
<ele>155.052856</ele>
<time>2010-07-18T13:24:33Z</time>
<desc>lat.=55.772339, lon.=26.536102, Alt.=155.052856m. Speed=8.820000m/h.</desc>
<speed>2.450000</speed>
</trkpt>
<trkpt lat="55.772362" lon="26.536095">
<ele>155.181763</ele>
<time>2010-07-18T13:24:34Z</time>
<desc>lat.=55.772362, lon.=26.536095, Alt.=155.181763m. Speed=9.432000m/h.</desc>
<speed>2.620000</speed>
</trkpt>
<trkpt lat="55.772381" lon="26.536098">
<ele>155.205200</ele>
<time>2010-07-18T13:24:35Z</time>
<desc>lat.=55.772381, lon.=26.536098, Alt.=155.205200m. Speed=9.396000m/h.</desc>
<speed>2.610000</speed>
</trkpt>
<trkpt lat="55.772400" lon="26.536108">
<ele>155.170044</ele>
<time>2010-07-18T13:24:36Z</time>
<desc>lat.=55.772400, lon.=26.536108, Alt.=155.170044m. Speed=7.848000m/h.</desc>
<speed>2.180000</speed>
</trkpt>
<trkpt lat="55.772419" lon="26.536108">
<ele>155.259888</ele>
<time>2010-07-18T13:24:37Z</time>
<desc>lat.=55.772419, lon.=26.536108, Alt.=155.259888m. Speed=7.956000m/h.</desc>
<speed>2.210000</speed>
</trkpt>
<trkpt lat="55.772446" lon="26.536118">
<ele>155.369263</ele>
<time>2010-07-18T13:24:38Z</time>
<desc>lat.=55.772446, lon.=26.536118, Alt.=155.369263m. Speed=10.296000m/h.</desc>
<speed>2.860000</speed>
</trkpt>
<trkpt lat="55.772472" lon="26.536116">
<ele>155.451294</ele>
<time>2010-07-18T13:24:39Z</time>
<desc>lat.=55.772472, lon.=26.536116, Alt.=155.451294m. Speed=11.268000m/h.</desc>
<speed>3.130000</speed>
</trkpt>
<trkpt lat="55.772499" lon="26.536108">
<ele>155.490356</ele>
<time>2010-07-18T13:24:40Z</time>
<desc>lat.=55.772499, lon.=26.536108, Alt.=155.490356m. Speed=11.916000m/h.</desc>
<speed>3.310000</speed>
</trkpt>
<trkpt lat="55.772530" lon="26.536093">
<ele>155.623169</ele>
<time>2010-07-18T13:24:41Z</time>
<desc>lat.=55.772530, lon.=26.536093, Alt.=155.623169m. Speed=14.076000m/h.</desc>
<speed>3.910000</speed>
</trkpt>
<trkpt lat="55.772564" lon="26.536077">
<ele>155.865356</ele>
<time>2010-07-18T13:24:42Z</time>
<desc>lat.=55.772564, lon.=26.536077, Alt.=155.865356m. Speed=14.040000m/h.</desc>
<speed>3.900000</speed>
</trkpt>
<trkpt lat="55.772598" lon="26.536066">
<ele>155.834106</ele>
<time>2010-07-18T13:24:43Z</time>
<desc>lat.=55.772598, lon.=26.536066, Alt.=155.834106m. Speed=14.652000m/h.</desc>
<speed>4.070000</speed>
</trkpt>
<trkpt lat="55.772633" lon="26.536047">
<ele>155.912231</ele>
<time>2010-07-18T13:24:44Z</time>
<desc>lat.=55.772633, lon.=26.536047, Alt.=155.912231m. Speed=15.372000m/h.</desc>
<speed>4.270000</speed>
</trkpt>
<trkpt lat="55.772675" lon="26.536030">
<ele>155.759888</ele>
<time>2010-07-18T13:24:45Z</time>
<desc>lat.=55.772675, lon.=26.536030, Alt.=155.759888m. Speed=16.308001m/h.</desc>
<speed>4.530000</speed>
</trkpt>
<trkpt lat="55.772709" lon="26.535999">
<ele>155.322388</ele>
<time>2010-07-18T13:24:46Z</time>
<desc>lat.=55.772709, lon.=26.535999, Alt.=155.322388m. Speed=14.940000m/h.</desc>
<speed>4.150000</speed>
</trkpt>
<trkpt lat="55.772743" lon="26.535975">
<ele>155.103638</ele>
<time>2010-07-18T13:24:47Z</time>
<desc>lat.=55.772743, lon.=26.535975, Alt.=155.103638m. Speed=15.408000m/h.</desc>
<speed>4.280000</speed>
</trkpt>
<trkpt lat="55.772781" lon="26.535954">
<ele>154.982544</ele>
<time>2010-07-18T13:24:48Z</time>
<desc>lat.=55.772781, lon.=26.535954, Alt.=154.982544m. Speed=15.696000m/h.</desc>
<speed>4.360000</speed>
</trkpt>
<trkpt lat="55.772820" lon="26.535933">
<ele>155.103638</ele>
<time>2010-07-18T13:24:49Z</time>
<desc>lat.=55.772820, lon.=26.535933, Alt.=155.103638m. Speed=15.840000m/h.</desc>
<speed>4.400000</speed>
</trkpt>
<trkpt lat="55.772861" lon="26.535913">
<ele>155.146606</ele>
<time>2010-07-18T13:24:50Z</time>
<desc>lat.=55.772861, lon.=26.535913, Alt.=155.146606m. Speed=16.236000m/h.</desc>
<speed>4.510000</speed>
</trkpt>
<trkpt lat="55.772903" lon="26.535896">
<ele>155.240356</ele>
<time>2010-07-18T13:24:51Z</time>
<desc>lat.=55.772903, lon.=26.535896, Alt.=155.240356m. Speed=16.884001m/h.</desc>
<speed>4.690000</speed>
</trkpt>
<trkpt lat="55.772945" lon="26.535872">
<ele>155.384888</ele>
<time>2010-07-18T13:24:52Z</time>
<desc>lat.=55.772945, lon.=26.535872, Alt.=155.384888m. Speed=18.360001m/h.</desc>
<speed>5.100000</speed>
</trkpt>
<trkpt lat="55.772991" lon="26.535847">
<ele>155.560669</ele>
<time>2010-07-18T13:24:53Z</time>
<desc>lat.=55.772991, lon.=26.535847, Alt.=155.560669m. Speed=19.691999m/h.</desc>
<speed>5.470000</speed>
</trkpt>
<trkpt lat="55.773037" lon="26.535822">
<ele>155.619263</ele>
<time>2010-07-18T13:24:54Z</time>
<desc>lat.=55.773037, lon.=26.535822, Alt.=155.619263m. Speed=19.044001m/h.</desc>
<speed>5.290000</speed>
</trkpt>
<trkpt lat="55.773083" lon="26.535795">
<ele>155.705200</ele>
<time>2010-07-18T13:24:55Z</time>
<desc>lat.=55.773083, lon.=26.535795, Alt.=155.705200m. Speed=18.035999m/h.</desc>
<speed>5.010000</speed>
</trkpt>
<trkpt lat="55.773129" lon="26.535772">
<ele>155.787231</ele>
<time>2010-07-18T13:24:56Z</time>
<desc>lat.=55.773129, lon.=26.535772, Alt.=155.787231m. Speed=17.100000m/h.</desc>
<speed>4.750000</speed>
</trkpt>
<trkpt lat="55.773167" lon="26.535746">
<ele>155.716919</ele>
<time>2010-07-18T13:24:57Z</time>
<desc>lat.=55.773167, lon.=26.535746, Alt.=155.716919m. Speed=16.344000m/h.</desc>
<speed>4.540000</speed>
</trkpt>
<trkpt lat="55.773209" lon="26.535723">
<ele>155.634888</ele>
<time>2010-07-18T13:24:58Z</time>
<desc>lat.=55.773209, lon.=26.535723, Alt.=155.634888m. Speed=16.596001m/h.</desc>
<speed>4.610000</speed>
</trkpt>
<trkpt lat="55.773247" lon="26.535698">
<ele>155.787231</ele>
<time>2010-07-18T13:24:59Z</time>
<desc>lat.=55.773247, lon.=26.535698, Alt.=155.787231m. Speed=16.308001m/h.</desc>
<speed>4.530000</speed>
</trkpt>
<trkpt lat="55.773285" lon="26.535671">
<ele>155.630981</ele>
<time>2010-07-18T13:25:00Z</time>
<desc>lat.=55.773285, lon.=26.535671, Alt.=155.630981m. Speed=16.740000m/h.</desc>
<speed>4.650000</speed>
</trkpt>
<trkpt lat="55.773323" lon="26.535645">
<ele>155.552856</ele>
<time>2010-07-18T13:25:01Z</time>
<desc>lat.=55.773323, lon.=26.535645, Alt.=155.552856m. Speed=16.812000m/h.</desc>
<speed>4.670000</speed>
</trkpt>
<trkpt lat="55.773369" lon="26.535616">
<ele>155.548950</ele>
<time>2010-07-18T13:25:02Z</time>
<desc>lat.=55.773369, lon.=26.535616, Alt.=155.548950m. Speed=17.172001m/h.</desc>
<speed>4.770000</speed>
</trkpt>
<trkpt lat="55.773407" lon="26.535589">
<ele>155.525513</ele>
<time>2010-07-18T13:25:03Z</time>
<desc>lat.=55.773407, lon.=26.535589, Alt.=155.525513m. Speed=17.100000m/h.</desc>
<speed>4.750000</speed>
</trkpt>
<trkpt lat="55.773453" lon="26.535572">
<ele>154.744263</ele>
<time>2010-07-18T13:25:04Z</time>
<desc>lat.=55.773453, lon.=26.535572, Alt.=154.744263m. Speed=18.323999m/h.</desc>
<speed>5.090000</speed>
</trkpt>
<trkpt lat="55.773495" lon="26.535543">
<ele>154.681763</ele>
<time>2010-07-18T13:25:05Z</time>
<desc>lat.=55.773495, lon.=26.535543, Alt.=154.681763m. Speed=17.028000m/h.</desc>
<speed>4.730000</speed>
</trkpt>
<trkpt lat="55.773540" lon="26.535515">
<ele>154.705200</ele>
<time>2010-07-18T13:25:06Z</time>
<desc>lat.=55.773540, lon.=26.535515, Alt.=154.705200m. Speed=18.252001m/h.</desc>
<speed>5.070000</speed>
</trkpt>
<trkpt lat="55.773579" lon="26.535486">
<ele>154.681763</ele>
<time>2010-07-18T13:25:07Z</time>
<desc>lat.=55.773579, lon.=26.535486, Alt.=154.681763m. Speed=16.632000m/h.</desc>
<speed>4.620000</speed>
</trkpt>
<trkpt lat="55.773617" lon="26.535461">
<ele>154.588013</ele>
<time>2010-07-18T13:25:08Z</time>
<desc>lat.=55.773617, lon.=26.535461, Alt.=154.588013m. Speed=15.984000m/h.</desc>
<speed>4.440000</speed>
</trkpt>
<trkpt lat="55.773651" lon="26.535435">
<ele>154.478638</ele>
<time>2010-07-18T13:25:09Z</time>
<desc>lat.=55.773651, lon.=26.535435, Alt.=154.478638m. Speed=15.336000m/h.</desc>
<speed>4.260000</speed>
</trkpt>
<trkpt lat="55.773682" lon="26.535416">
<ele>154.482544</ele>
<time>2010-07-18T13:25:10Z</time>
<desc>lat.=55.773682, lon.=26.535416, Alt.=154.482544m. Speed=14.868000m/h.</desc>
<speed>4.130000</speed>
</trkpt>
<trkpt lat="55.773708" lon="26.535393">
<ele>154.259888</ele>
<time>2010-07-18T13:25:11Z</time>
<desc>lat.=55.773708, lon.=26.535393, Alt.=154.259888m. Speed=14.400000m/h.</desc>
<speed>4.000000</speed>
</trkpt>
<trkpt lat="55.773743" lon="26.535374">
<ele>154.037231</ele>
<time>2010-07-18T13:25:12Z</time>
<desc>lat.=55.773743, lon.=26.535374, Alt.=154.037231m. Speed=14.076000m/h.</desc>
<speed>3.910000</speed>
</trkpt>
<trkpt lat="55.773777" lon="26.535347">
<ele>153.771606</ele>
<time>2010-07-18T13:25:13Z</time>
<desc>lat.=55.773777, lon.=26.535347, Alt.=153.771606m. Speed=13.860000m/h.</desc>
<speed>3.850000</speed>
</trkpt>
<trkpt lat="55.773804" lon="26.535324">
<ele>153.545044</ele>
<time>2010-07-18T13:25:14Z</time>
<desc>lat.=55.773804, lon.=26.535324, Alt.=153.545044m. Speed=13.176000m/h.</desc>
<speed>3.660000</speed>
</trkpt>
<trkpt lat="55.773830" lon="26.535295">
<ele>153.369263</ele>
<time>2010-07-18T13:25:15Z</time>
<desc>lat.=55.773830, lon.=26.535295, Alt.=153.369263m. Speed=13.176000m/h.</desc>
<speed>3.660000</speed>
</trkpt>
<trkpt lat="55.773857" lon="26.535267">
<ele>153.236450</ele>
<time>2010-07-18T13:25:16Z</time>
<desc>lat.=55.773857, lon.=26.535267, Alt.=153.236450m. Speed=11.880000m/h.</desc>
<speed>3.300000</speed>
</trkpt>
<trkpt lat="55.773884" lon="26.535242">
<ele>153.166138</ele>
<time>2010-07-18T13:25:17Z</time>
<desc>lat.=55.773884, lon.=26.535242, Alt.=153.166138m. Speed=11.628000m/h.</desc>
<speed>3.230000</speed>
</trkpt>
<trkpt lat="55.773914" lon="26.535219">
<ele>153.130981</ele>
<time>2010-07-18T13:25:18Z</time>
<desc>lat.=55.773914, lon.=26.535219, Alt.=153.130981m. Speed=11.664000m/h.</desc>
<speed>3.240000</speed>
</trkpt>
<trkpt lat="55.773941" lon="26.535206">
<ele>152.259888</ele>
<time>2010-07-18T13:25:19Z</time>
<desc>lat.=55.773941, lon.=26.535206, Alt.=152.259888m. Speed=12.060000m/h.</desc>
<speed>3.350000</speed>
</trkpt>
<trkpt lat="55.773968" lon="26.535183">
<ele>152.084106</ele>
<time>2010-07-18T13:25:20Z</time>
<desc>lat.=55.773968, lon.=26.535183, Alt.=152.084106m. Speed=11.088000m/h.</desc>
<speed>3.080000</speed>
</trkpt>
<trkpt lat="55.773994" lon="26.535170">
<ele>151.560669</ele>
<time>2010-07-18T13:25:21Z</time>
<desc>lat.=55.773994, lon.=26.535170, Alt.=151.560669m. Speed=10.584000m/h.</desc>
<speed>2.940000</speed>
</trkpt>
<trkpt lat="55.774021" lon="26.535152">
<ele>151.009888</ele>
<time>2010-07-18T13:25:22Z</time>
<desc>lat.=55.774021, lon.=26.535152, Alt.=151.009888m. Speed=10.548000m/h.</desc>
<speed>2.930000</speed>
</trkpt>
<trkpt lat="55.774036" lon="26.535122">
<ele>150.791138</ele>
<time>2010-07-18T13:25:23Z</time>
<desc>lat.=55.774036, lon.=26.535122, Alt.=150.791138m. Speed=10.188000m/h.</desc>
<speed>2.830000</speed>
</trkpt>
<trkpt lat="55.774059" lon="26.535101">
<ele>150.611450</ele>
<time>2010-07-18T13:25:24Z</time>
<desc>lat.=55.774059, lon.=26.535101, Alt.=150.611450m. Speed=10.188000m/h.</desc>
<speed>2.830000</speed>
</trkpt>
<trkpt lat="55.774086" lon="26.535082">
<ele>150.502075</ele>
<time>2010-07-18T13:25:25Z</time>
<desc>lat.=55.774086, lon.=26.535082, Alt.=150.502075m. Speed=11.844000m/h.</desc>
<speed>3.290000</speed>
</trkpt>
<trkpt lat="55.774113" lon="26.535057">
<ele>150.154419</ele>
<time>2010-07-18T13:25:26Z</time>
<desc>lat.=55.774113, lon.=26.535057, Alt.=150.154419m. Speed=11.880000m/h.</desc>
<speed>3.300000</speed>
</trkpt>
<trkpt lat="55.774139" lon="26.535034">
<ele>150.115356</ele>
<time>2010-07-18T13:25:27Z</time>
<desc>lat.=55.774139, lon.=26.535034, Alt.=150.115356m. Speed=11.736000m/h.</desc>
<speed>3.260000</speed>
</trkpt>
<trkpt lat="55.774162" lon="26.535013">
<ele>150.127075</ele>
<time>2010-07-18T13:25:28Z</time>
<desc>lat.=55.774162, lon.=26.535013, Alt.=150.127075m. Speed=11.916000m/h.</desc>
<speed>3.310000</speed>
</trkpt>
<trkpt lat="55.774185" lon="26.534985">
<ele>150.154419</ele>
<time>2010-07-18T13:25:29Z</time>
<desc>lat.=55.774185, lon.=26.534985, Alt.=150.154419m. Speed=11.808000m/h.</desc>
<speed>3.280000</speed>
</trkpt>
<trkpt lat="55.774208" lon="26.534960">
<ele>150.236450</ele>
<time>2010-07-18T13:25:30Z</time>
<desc>lat.=55.774208, lon.=26.534960, Alt.=150.236450m. Speed=11.664000m/h.</desc>
<speed>3.240000</speed>
</trkpt>
<trkpt lat="55.774231" lon="26.534937">
<ele>150.392700</ele>
<time>2010-07-18T13:25:31Z</time>
<desc>lat.=55.774231, lon.=26.534937, Alt.=150.392700m. Speed=11.628000m/h.</desc>
<speed>3.230000</speed>
</trkpt>
<trkpt lat="55.774254" lon="26.534916">
<ele>150.552856</ele>
<time>2010-07-18T13:25:32Z</time>
<desc>lat.=55.774254, lon.=26.534916, Alt.=150.552856m. Speed=11.448000m/h.</desc>
<speed>3.180000</speed>
</trkpt>
<trkpt lat="55.774277" lon="26.534899">
<ele>150.591919</ele>
<time>2010-07-18T13:25:33Z</time>
<desc>lat.=55.774277, lon.=26.534899, Alt.=150.591919m. Speed=11.592000m/h.</desc>
<speed>3.220000</speed>
</trkpt>
<trkpt lat="55.774303" lon="26.534878">
<ele>150.814575</ele>
<time>2010-07-18T13:25:34Z</time>
<desc>lat.=55.774303, lon.=26.534878, Alt.=150.814575m. Speed=11.700000m/h.</desc>
<speed>3.250000</speed>
</trkpt>
<trkpt lat="55.774326" lon="26.534853">
<ele>150.986450</ele>
<time>2010-07-18T13:25:35Z</time>
<desc>lat.=55.774326, lon.=26.534853, Alt.=150.986450m. Speed=12.096000m/h.</desc>
<speed>3.360000</speed>
</trkpt>
<trkpt lat="55.774349" lon="26.534824">
<ele>151.205200</ele>
<time>2010-07-18T13:25:36Z</time>
<desc>lat.=55.774349, lon.=26.534824, Alt.=151.205200m. Speed=12.348000m/h.</desc>
<speed>3.430000</speed>
</trkpt>
<trkpt lat="55.774376" lon="26.534796">
<ele>151.189575</ele>
<time>2010-07-18T13:25:37Z</time>
<desc>lat.=55.774376, lon.=26.534796, Alt.=151.189575m. Speed=12.420000m/h.</desc>
<speed>3.450000</speed>
</trkpt>
<trkpt lat="55.774399" lon="26.534765">
<ele>151.228638</ele>
<time>2010-07-18T13:25:38Z</time>
<desc>lat.=55.774399, lon.=26.534765, Alt.=151.228638m. Speed=12.492000m/h.</desc>
<speed>3.470000</speed>
</trkpt>
<trkpt lat="55.774422" lon="26.534735">
<ele>151.345825</ele>
<time>2010-07-18T13:25:39Z</time>
<desc>lat.=55.774422, lon.=26.534735, Alt.=151.345825m. Speed=12.420000m/h.</desc>
<speed>3.450000</speed>
</trkpt>
<trkpt lat="55.774448" lon="26.534702">
<ele>151.767700</ele>
<time>2010-07-18T13:25:40Z</time>
<desc>lat.=55.774448, lon.=26.534702, Alt.=151.767700m. Speed=13.176000m/h.</desc>
<speed>3.660000</speed>
</trkpt>
<trkpt lat="55.774479" lon="26.534674">
<ele>151.845825</ele>
<time>2010-07-18T13:25:41Z</time>
<desc>lat.=55.774479, lon.=26.534674, Alt.=151.845825m. Speed=14.760000m/h.</desc>
<speed>4.100000</speed>
</trkpt>
<trkpt lat="55.774509" lon="26.534643">
<ele>152.002075</ele>
<time>2010-07-18T13:25:42Z</time>
<desc>lat.=55.774509, lon.=26.534643, Alt.=152.002075m. Speed=15.156000m/h.</desc>
<speed>4.210000</speed>
</trkpt>
<trkpt lat="55.774540" lon="26.534607">
<ele>152.123169</ele>
<time>2010-07-18T13:25:43Z</time>
<desc>lat.=55.774540, lon.=26.534607, Alt.=152.123169m. Speed=14.868000m/h.</desc>
<speed>4.130000</speed>
</trkpt>
<trkpt lat="55.774574" lon="26.534569">
<ele>152.056763</ele>
<time>2010-07-18T13:25:44Z</time>
<desc>lat.=55.774574, lon.=26.534569, Alt.=152.056763m. Speed=15.192000m/h.</desc>
<speed>4.220000</speed>
</trkpt>
<trkpt lat="55.774609" lon="26.534527">
<ele>152.498169</ele>
<time>2010-07-18T13:25:45Z</time>
<desc>lat.=55.774609, lon.=26.534527, Alt.=152.498169m. Speed=15.588000m/h.</desc>
<speed>4.330000</speed>
</trkpt>
<trkpt lat="55.774639" lon="26.534489">
<ele>152.873169</ele>
<time>2010-07-18T13:25:46Z</time>
<desc>lat.=55.774639, lon.=26.534489, Alt.=152.873169m. Speed=15.948000m/h.</desc>
<speed>4.430000</speed>
</trkpt>
<trkpt lat="55.774673" lon="26.534452">
<ele>152.888794</ele>
<time>2010-07-18T13:25:47Z</time>
<desc>lat.=55.774673, lon.=26.534452, Alt.=152.888794m. Speed=16.596001m/h.</desc>
<speed>4.610000</speed>
</trkpt>
<trkpt lat="55.774712" lon="26.534410">
<ele>152.798950</ele>
<time>2010-07-18T13:25:48Z</time>
<desc>lat.=55.774712, lon.=26.534410, Alt.=152.798950m. Speed=16.955999m/h.</desc>
<speed>4.710000</speed>
</trkpt>
<trkpt lat="55.774750" lon="26.534374">
<ele>152.642700</ele>
<time>2010-07-18T13:25:49Z</time>
<desc>lat.=55.774750, lon.=26.534374, Alt.=152.642700m. Speed=17.388000m/h.</desc>
<speed>4.830000</speed>
</trkpt>
<trkpt lat="55.774784" lon="26.534330">
<ele>152.599731</ele>
<time>2010-07-18T13:25:50Z</time>
<desc>lat.=55.774784, lon.=26.534330, Alt.=152.599731m. Speed=17.784000m/h.</desc>
<speed>4.940000</speed>
</trkpt>
<trkpt lat="55.774822" lon="26.534285">
<ele>152.384888</ele>
<time>2010-07-18T13:25:51Z</time>
<desc>lat.=55.774822, lon.=26.534285, Alt.=152.384888m. Speed=18.180000m/h.</desc>
<speed>5.050000</speed>
</trkpt>
<trkpt lat="55.774864" lon="26.534237">
<ele>152.127075</ele>
<time>2010-07-18T13:25:52Z</time>
<desc>lat.=55.774864, lon.=26.534237, Alt.=152.127075m. Speed=18.648001m/h.</desc>
<speed>5.180000</speed>
</trkpt>
<trkpt lat="55.774899" lon="26.534187">
<ele>151.798950</ele>
<time>2010-07-18T13:25:53Z</time>
<desc>lat.=55.774899, lon.=26.534187, Alt.=151.798950m. Speed=19.224001m/h.</desc>
<speed>5.340000</speed>
</trkpt>
<trkpt lat="55.774940" lon="26.534138">
<ele>151.568481</ele>
<time>2010-07-18T13:25:54Z</time>
<desc>lat.=55.774940, lon.=26.534138, Alt.=151.568481m. Speed=19.368000m/h.</desc>
<speed>5.380000</speed>
</trkpt>
<trkpt lat="55.774986" lon="26.534086">
<ele>150.908325</ele>
<time>2010-07-18T13:25:55Z</time>
<desc>lat.=55.774986, lon.=26.534086, Alt.=150.908325m. Speed=19.980000m/h.</desc>
<speed>5.550000</speed>
</trkpt>
<trkpt lat="55.775028" lon="26.534039">
<ele>150.470825</ele>
<time>2010-07-18T13:25:56Z</time>
<desc>lat.=55.775028, lon.=26.534039, Alt.=150.470825m. Speed=20.628000m/h.</desc>
<speed>5.730000</speed>
</trkpt>
<trkpt lat="55.775070" lon="26.533987">
<ele>150.396606</ele>
<time>2010-07-18T13:25:57Z</time>
<desc>lat.=55.775070, lon.=26.533987, Alt.=150.396606m. Speed=20.988001m/h.</desc>
<speed>5.830000</speed>
</trkpt>
<trkpt lat="55.775112" lon="26.533924">
<ele>150.357544</ele>
<time>2010-07-18T13:25:58Z</time>
<desc>lat.=55.775112, lon.=26.533924, Alt.=150.357544m. Speed=20.916000m/h.</desc>
<speed>5.810000</speed>
</trkpt>
<trkpt lat="55.775158" lon="26.533863">
<ele>150.142700</ele>
<time>2010-07-18T13:25:59Z</time>
<desc>lat.=55.775158, lon.=26.533863, Alt.=150.142700m. Speed=23.256001m/h.</desc>
<speed>6.460000</speed>
</trkpt>
<trkpt lat="55.775204" lon="26.533798">
<ele>149.951294</ele>
<time>2010-07-18T13:26:00Z</time>
<desc>lat.=55.775204, lon.=26.533798, Alt.=149.951294m. Speed=22.896000m/h.</desc>
<speed>6.360000</speed>
</trkpt>
<trkpt lat="55.775253" lon="26.533724">
<ele>149.826294</ele>
<time>2010-07-18T13:26:01Z</time>
<desc>lat.=55.775253, lon.=26.533724, Alt.=149.826294m. Speed=24.372000m/h.</desc>
<speed>6.770000</speed>
</trkpt>
<trkpt lat="55.775311" lon="26.533653">
<ele>149.384888</ele>
<time>2010-07-18T13:26:02Z</time>
<desc>lat.=55.775311, lon.=26.533653, Alt.=149.384888m. Speed=27.540001m/h.</desc>
<speed>7.650000</speed>
</trkpt>
<trkpt lat="55.775372" lon="26.533583">
<ele>149.029419</ele>
<time>2010-07-18T13:26:03Z</time>
<desc>lat.=55.775372, lon.=26.533583, Alt.=149.029419m. Speed=28.764000m/h.</desc>
<speed>7.990000</speed>
</trkpt>
<trkpt lat="55.775433" lon="26.533508">
<ele>148.595825</ele>
<time>2010-07-18T13:26:04Z</time>
<desc>lat.=55.775433, lon.=26.533508, Alt.=148.595825m. Speed=30.959999m/h.</desc>
<speed>8.600000</speed>
</trkpt>
<trkpt lat="55.775501" lon="26.533436">
<ele>148.295044</ele>
<time>2010-07-18T13:26:05Z</time>
<desc>lat.=55.775501, lon.=26.533436, Alt.=148.295044m. Speed=31.104000m/h.</desc>
<speed>8.640000</speed>
</trkpt>
<trkpt lat="55.775566" lon="26.533354">
<ele>148.166138</ele>
<time>2010-07-18T13:26:06Z</time>
<desc>lat.=55.775566, lon.=26.533354, Alt.=148.166138m. Speed=32.472000m/h.</desc>
<speed>9.020000</speed>
</trkpt>
<trkpt lat="55.775631" lon="26.533272">
<ele>148.072388</ele>
<time>2010-07-18T13:26:07Z</time>
<desc>lat.=55.775631, lon.=26.533272, Alt.=148.072388m. Speed=32.832001m/h.</desc>
<speed>9.120000</speed>
</trkpt>
<trkpt lat="55.775700" lon="26.533186">
<ele>147.916138</ele>
<time>2010-07-18T13:26:08Z</time>
<desc>lat.=55.775700, lon.=26.533186, Alt.=147.916138m. Speed=33.480000m/h.</desc>
<speed>9.300000</speed>
</trkpt>
<trkpt lat="55.775768" lon="26.533098">
<ele>148.013794</ele>
<time>2010-07-18T13:26:09Z</time>
<desc>lat.=55.775768, lon.=26.533098, Alt.=148.013794m. Speed=34.020000m/h.</desc>
<speed>9.450000</speed>
</trkpt>
<trkpt lat="55.775841" lon="26.533009">
<ele>147.744263</ele>
<time>2010-07-18T13:26:10Z</time>
<desc>lat.=55.775841, lon.=26.533009, Alt.=147.744263m. Speed=34.596001m/h.</desc>
<speed>9.610000</speed>
</trkpt>
<trkpt lat="55.775909" lon="26.532917">
<ele>147.408325</ele>
<time>2010-07-18T13:26:11Z</time>
<desc>lat.=55.775909, lon.=26.532917, Alt.=147.408325m. Speed=35.459999m/h.</desc>
<speed>9.850000</speed>
</trkpt>
<trkpt lat="55.775982" lon="26.532827">
<ele>147.240356</ele>
<time>2010-07-18T13:26:12Z</time>
<desc>lat.=55.775982, lon.=26.532827, Alt.=147.240356m. Speed=36.180000m/h.</desc>
<speed>10.050000</speed>
</trkpt>
<trkpt lat="55.776058" lon="26.532732">
<ele>146.849731</ele>
<time>2010-07-18T13:26:13Z</time>
<desc>lat.=55.776058, lon.=26.532732, Alt.=146.849731m. Speed=37.043999m/h.</desc>
<speed>10.290000</speed>
</trkpt>
<trkpt lat="55.776134" lon="26.532635">
<ele>146.478638</ele>
<time>2010-07-18T13:26:14Z</time>
<desc>lat.=55.776134, lon.=26.532635, Alt.=146.478638m. Speed=38.484001m/h.</desc>
<speed>10.690000</speed>
</trkpt>
<trkpt lat="55.776211" lon="26.532537">
<ele>146.115356</ele>
<time>2010-07-18T13:26:15Z</time>
<desc>lat.=55.776211, lon.=26.532537, Alt.=146.115356m. Speed=38.771999m/h.</desc>
<speed>10.770000</speed>
</trkpt>
<trkpt lat="55.776287" lon="26.532442">
<ele>145.775513</ele>
<time>2010-07-18T13:26:16Z</time>
<desc>lat.=55.776287, lon.=26.532442, Alt.=145.775513m. Speed=39.060001m/h.</desc>
<speed>10.850000</speed>
</trkpt>
<trkpt lat="55.776367" lon="26.532345">
<ele>145.439575</ele>
<time>2010-07-18T13:26:17Z</time>
<desc>lat.=55.776367, lon.=26.532345, Alt.=145.439575m. Speed=39.419998m/h.</desc>
<speed>10.949999</speed>
</trkpt>
<trkpt lat="55.776447" lon="26.532248">
<ele>145.275513</ele>
<time>2010-07-18T13:26:18Z</time>
<desc>lat.=55.776447, lon.=26.532248, Alt.=145.275513m. Speed=39.456001m/h.</desc>
<speed>10.960000</speed>
</trkpt>
<trkpt lat="55.776531" lon="26.532156">
<ele>144.974731</ele>
<time>2010-07-18T13:26:19Z</time>
<desc>lat.=55.776531, lon.=26.532156, Alt.=144.974731m. Speed=39.743999m/h.</desc>
<speed>11.040000</speed>
</trkpt>
<trkpt lat="55.776615" lon="26.532059">
<ele>144.888794</ele>
<time>2010-07-18T13:26:20Z</time>
<desc>lat.=55.776615, lon.=26.532059, Alt.=144.888794m. Speed=39.852001m/h.</desc>
<speed>11.070000</speed>
</trkpt>
<trkpt lat="55.776699" lon="26.531965">
<ele>144.752075</ele>
<time>2010-07-18T13:26:21Z</time>
<desc>lat.=55.776699, lon.=26.531965, Alt.=144.752075m. Speed=39.672001m/h.</desc>
<speed>11.020000</speed>
</trkpt>
<trkpt lat="55.776783" lon="26.531878">
<ele>144.556763</ele>
<time>2010-07-18T13:26:22Z</time>
<desc>lat.=55.776783, lon.=26.531878, Alt.=144.556763m. Speed=39.672001m/h.</desc>
<speed>11.020000</speed>
</trkpt>
<trkpt lat="55.776871" lon="26.531797">
<ele>144.416138</ele>
<time>2010-07-18T13:26:23Z</time>
<desc>lat.=55.776871, lon.=26.531797, Alt.=144.416138m. Speed=39.492001m/h.</desc>
<speed>10.970000</speed>
</trkpt>
<trkpt lat="55.776958" lon="26.531721">
<ele>144.287231</ele>
<time>2010-07-18T13:26:24Z</time>
<desc>lat.=55.776958, lon.=26.531721, Alt.=144.287231m. Speed=39.096001m/h.</desc>
<speed>10.860000</speed>
</trkpt>
<trkpt lat="55.777050" lon="26.531639">
<ele>144.052856</ele>
<time>2010-07-18T13:26:25Z</time>
<desc>lat.=55.777050, lon.=26.531639, Alt.=144.052856m. Speed=38.736000m/h.</desc>
<speed>10.760000</speed>
</trkpt>
<trkpt lat="55.777134" lon="26.531557">
<ele>144.295044</ele>
<time>2010-07-18T13:26:26Z</time>
<desc>lat.=55.777134, lon.=26.531557, Alt.=144.295044m. Speed=38.340000m/h.</desc>
<speed>10.650000</speed>
</trkpt>
<trkpt lat="55.777218" lon="26.531481">
<ele>144.545044</ele>
<time>2010-07-18T13:26:27Z</time>
<desc>lat.=55.777218, lon.=26.531481, Alt.=144.545044m. Speed=37.835999m/h.</desc>
<speed>10.510000</speed>
</trkpt>
<trkpt lat="55.777302" lon="26.531406">
<ele>144.720825</ele>
<time>2010-07-18T13:26:28Z</time>
<desc>lat.=55.777302, lon.=26.531406, Alt.=144.720825m. Speed=37.332001m/h.</desc>
<speed>10.370000</speed>
</trkpt>
<trkpt lat="55.777386" lon="26.531336">
<ele>145.041138</ele>
<time>2010-07-18T13:26:29Z</time>
<desc>lat.=55.777386, lon.=26.531336, Alt.=145.041138m. Speed=36.576000m/h.</desc>
<speed>10.160000</speed>
</trkpt>
<trkpt lat="55.777473" lon="26.531269">
<ele>145.134888</ele>
<time>2010-07-18T13:26:30Z</time>
<desc>lat.=55.777473, lon.=26.531269, Alt.=145.134888m. Speed=35.820000m/h.</desc>
<speed>9.950000</speed>
</trkpt>
<trkpt lat="55.777550" lon="26.531202">
<ele>145.396606</ele>
<time>2010-07-18T13:26:31Z</time>
<desc>lat.=55.777550, lon.=26.531202, Alt.=145.396606m. Speed=34.812000m/h.</desc>
<speed>9.670000</speed>
</trkpt>
<trkpt lat="55.777626" lon="26.531141">
<ele>145.400513</ele>
<time>2010-07-18T13:26:32Z</time>
<desc>lat.=55.777626, lon.=26.531141, Alt.=145.400513m. Speed=33.911999m/h.</desc>
<speed>9.420000</speed>
</trkpt>
<trkpt lat="55.777702" lon="26.531082">
<ele>145.353638</ele>
<time>2010-07-18T13:26:33Z</time>
<desc>lat.=55.777702, lon.=26.531082, Alt.=145.353638m. Speed=33.551998m/h.</desc>
<speed>9.319999</speed>
</trkpt>
<trkpt lat="55.777782" lon="26.531031">
<ele>145.775513</ele>
<time>2010-07-18T13:26:34Z</time>
<desc>lat.=55.777782, lon.=26.531031, Alt.=145.775513m. Speed=33.192001m/h.</desc>
<speed>9.220000</speed>
</trkpt>
<trkpt lat="55.777859" lon="26.530975">
<ele>146.045044</ele>
<time>2010-07-18T13:26:35Z</time>
<desc>lat.=55.777859, lon.=26.530975, Alt.=146.045044m. Speed=32.832001m/h.</desc>
<speed>9.120000</speed>
</trkpt>
<trkpt lat="55.777935" lon="26.530920">
<ele>146.228638</ele>
<time>2010-07-18T13:26:36Z</time>
<desc>lat.=55.777935, lon.=26.530920, Alt.=146.228638m. Speed=32.976002m/h.</desc>
<speed>9.160000</speed>
</trkpt>
<trkpt lat="55.778011" lon="26.530863">
<ele>146.642700</ele>
<time>2010-07-18T13:26:37Z</time>
<desc>lat.=55.778011, lon.=26.530863, Alt.=146.642700m. Speed=32.040001m/h.</desc>
<speed>8.900000</speed>
</trkpt>
<trkpt lat="55.778084" lon="26.530813">
<ele>146.873169</ele>
<time>2010-07-18T13:26:38Z</time>
<desc>lat.=55.778084, lon.=26.530813, Alt.=146.873169m. Speed=32.436001m/h.</desc>
<speed>9.010000</speed>
</trkpt>
<trkpt lat="55.778156" lon="26.530760">
<ele>147.095825</ele>
<time>2010-07-18T13:26:39Z</time>
<desc>lat.=55.778156, lon.=26.530760, Alt.=147.095825m. Speed=31.896000m/h.</desc>
<speed>8.860000</speed>
</trkpt>
<trkpt lat="55.778233" lon="26.530706">
<ele>147.338013</ele>
<time>2010-07-18T13:26:40Z</time>
<desc>lat.=55.778233, lon.=26.530706, Alt.=147.338013m. Speed=31.788000m/h.</desc>
<speed>8.830000</speed>
</trkpt>
<trkpt lat="55.778301" lon="26.530647">
<ele>147.505981</ele>
<time>2010-07-18T13:26:41Z</time>
<desc>lat.=55.778301, lon.=26.530647, Alt.=147.505981m. Speed=31.104000m/h.</desc>
<speed>8.640000</speed>
</trkpt>
<trkpt lat="55.778374" lon="26.530598">
<ele>147.990356</ele>
<time>2010-07-18T13:26:42Z</time>
<desc>lat.=55.778374, lon.=26.530598, Alt.=147.990356m. Speed=30.312000m/h.</desc>
<speed>8.420000</speed>
</trkpt>
<trkpt lat="55.778442" lon="26.530550">
<ele>148.271606</ele>
<time>2010-07-18T13:26:43Z</time>
<desc>lat.=55.778442, lon.=26.530550, Alt.=148.271606m. Speed=29.520000m/h.</desc>
<speed>8.200000</speed>
</trkpt>
<trkpt lat="55.778503" lon="26.530504">
<ele>148.552856</ele>
<time>2010-07-18T13:26:44Z</time>
<desc>lat.=55.778503, lon.=26.530504, Alt.=148.552856m. Speed=28.584000m/h.</desc>
<speed>7.940000</speed>
</trkpt>
<trkpt lat="55.778568" lon="26.530453">
<ele>148.822388</ele>
<time>2010-07-18T13:26:45Z</time>
<desc>lat.=55.778568, lon.=26.530453, Alt.=148.822388m. Speed=27.936001m/h.</desc>
<speed>7.760000</speed>
</trkpt>
<trkpt lat="55.778629" lon="26.530407">
<ele>148.963013</ele>
<time>2010-07-18T13:26:46Z</time>
<desc>lat.=55.778629, lon.=26.530407, Alt.=148.963013m. Speed=27.072001m/h.</desc>
<speed>7.520000</speed>
</trkpt>
<trkpt lat="55.778690" lon="26.530365">
<ele>148.900513</ele>
<time>2010-07-18T13:26:47Z</time>
<desc>lat.=55.778690, lon.=26.530365, Alt.=148.900513m. Speed=26.172001m/h.</desc>
<speed>7.270000</speed>
</trkpt>
<trkpt lat="55.778751" lon="26.530321">
<ele>149.056763</ele>
<time>2010-07-18T13:26:48Z</time>
<desc>lat.=55.778751, lon.=26.530321, Alt.=149.056763m. Speed=25.632000m/h.</desc>
<speed>7.120000</speed>
</trkpt>
<trkpt lat="55.778812" lon="26.530285">
<ele>149.170044</ele>
<time>2010-07-18T13:26:49Z</time>
<desc>lat.=55.778812, lon.=26.530285, Alt.=149.170044m. Speed=25.308001m/h.</desc>
<speed>7.030000</speed>
</trkpt>
<trkpt lat="55.778870" lon="26.530245">
<ele>149.463013</ele>
<time>2010-07-18T13:26:50Z</time>
<desc>lat.=55.778870, lon.=26.530245, Alt.=149.463013m. Speed=24.983999m/h.</desc>
<speed>6.940000</speed>
</trkpt>
<trkpt lat="55.778931" lon="26.530207">
<ele>149.693481</ele>
<time>2010-07-18T13:26:51Z</time>
<desc>lat.=55.778931, lon.=26.530207, Alt.=149.693481m. Speed=24.840000m/h.</desc>
<speed>6.900000</speed>
</trkpt>
<trkpt lat="55.778988" lon="26.530169">
<ele>149.857544</ele>
<time>2010-07-18T13:26:52Z</time>
<desc>lat.=55.778988, lon.=26.530169, Alt.=149.857544m. Speed=24.552000m/h.</desc>
<speed>6.820000</speed>
</trkpt>
<trkpt lat="55.779045" lon="26.530130">
<ele>149.662231</ele>
<time>2010-07-18T13:26:53Z</time>
<desc>lat.=55.779045, lon.=26.530130, Alt.=149.662231m. Speed=24.191999m/h.</desc>
<speed>6.720000</speed>
</trkpt>
<trkpt lat="55.779102" lon="26.530088">
<ele>149.888794</ele>
<time>2010-07-18T13:26:54Z</time>
<desc>lat.=55.779102, lon.=26.530088, Alt.=149.888794m. Speed=24.120001m/h.</desc>
<speed>6.700000</speed>
</trkpt>
<trkpt lat="55.779163" lon="26.530048">
<ele>150.099731</ele>
<time>2010-07-18T13:26:55Z</time>
<desc>lat.=55.779163, lon.=26.530048, Alt.=150.099731m. Speed=23.940001m/h.</desc>
<speed>6.650000</speed>
</trkpt>
<trkpt lat="55.779217" lon="26.530005">
<ele>150.443481</ele>
<time>2010-07-18T13:26:56Z</time>
<desc>lat.=55.779217, lon.=26.530005, Alt.=150.443481m. Speed=23.112000m/h.</desc>
<speed>6.420000</speed>
</trkpt>
<trkpt lat="55.779266" lon="26.529963">
<ele>150.673950</ele>
<time>2010-07-18T13:26:57Z</time>
<desc>lat.=55.779266, lon.=26.529963, Alt.=150.673950m. Speed=21.780001m/h.</desc>
<speed>6.050000</speed>
</trkpt>
<trkpt lat="55.779316" lon="26.529926">
<ele>150.947388</ele>
<time>2010-07-18T13:26:58Z</time>
<desc>lat.=55.779316, lon.=26.529926, Alt.=150.947388m. Speed=21.348000m/h.</desc>
<speed>5.930000</speed>
</trkpt>
<trkpt lat="55.779366" lon="26.529896">
<ele>151.115356</ele>
<time>2010-07-18T13:26:59Z</time>
<desc>lat.=55.779366, lon.=26.529896, Alt.=151.115356m. Speed=21.204000m/h.</desc>
<speed>5.890000</speed>
</trkpt>
<trkpt lat="55.779415" lon="26.529861">
<ele>151.072388</ele>
<time>2010-07-18T13:27:00Z</time>
<desc>lat.=55.779415, lon.=26.529861, Alt.=151.072388m. Speed=21.096001m/h.</desc>
<speed>5.860000</speed>
</trkpt>
<trkpt lat="55.779465" lon="26.529829">
<ele>151.123169</ele>
<time>2010-07-18T13:27:01Z</time>
<desc>lat.=55.779465, lon.=26.529829, Alt.=151.123169m. Speed=21.275999m/h.</desc>
<speed>5.910000</speed>
</trkpt>
<trkpt lat="55.779514" lon="26.529793">
<ele>151.525513</ele>
<time>2010-07-18T13:27:02Z</time>
<desc>lat.=55.779514, lon.=26.529793, Alt.=151.525513m. Speed=20.808001m/h.</desc>
<speed>5.780000</speed>
</trkpt>
<trkpt lat="55.779560" lon="26.529758">
<ele>151.642700</ele>
<time>2010-07-18T13:27:03Z</time>
<desc>lat.=55.779560, lon.=26.529758, Alt.=151.642700m. Speed=20.160000m/h.</desc>
<speed>5.600000</speed>
</trkpt>
<trkpt lat="55.779606" lon="26.529724">
<ele>151.685669</ele>
<time>2010-07-18T13:27:04Z</time>
<desc>lat.=55.779606, lon.=26.529724, Alt.=151.685669m. Speed=19.440001m/h.</desc>
<speed>5.400000</speed>
</trkpt>
<trkpt lat="55.779652" lon="26.529694">
<ele>151.810669</ele>
<time>2010-07-18T13:27:05Z</time>
<desc>lat.=55.779652, lon.=26.529694, Alt.=151.810669m. Speed=19.620001m/h.</desc>
<speed>5.450000</speed>
</trkpt>
<trkpt lat="55.779697" lon="26.529655">
<ele>152.064575</ele>
<time>2010-07-18T13:27:06Z</time>
<desc>lat.=55.779697, lon.=26.529655, Alt.=152.064575m. Speed=19.691999m/h.</desc>
<speed>5.470000</speed>
</trkpt>
<trkpt lat="55.779743" lon="26.529621">
<ele>152.091919</ele>
<time>2010-07-18T13:27:07Z</time>
<desc>lat.=55.779743, lon.=26.529621, Alt.=152.091919m. Speed=19.332001m/h.</desc>
<speed>5.370000</speed>
</trkpt>
<trkpt lat="55.779785" lon="26.529587">
<ele>152.154419</ele>
<time>2010-07-18T13:27:08Z</time>
<desc>lat.=55.779785, lon.=26.529587, Alt.=152.154419m. Speed=18.684000m/h.</desc>
<speed>5.190000</speed>
</trkpt>
<trkpt lat="55.779827" lon="26.529556">
<ele>152.080200</ele>
<time>2010-07-18T13:27:09Z</time>
<desc>lat.=55.779827, lon.=26.529556, Alt.=152.080200m. Speed=18.252001m/h.</desc>
<speed>5.070000</speed>
</trkpt>
<trkpt lat="55.779865" lon="26.529528">
<ele>151.990356</ele>
<time>2010-07-18T13:27:10Z</time>
<desc>lat.=55.779865, lon.=26.529528, Alt.=151.990356m. Speed=18.108000m/h.</desc>
<speed>5.030000</speed>
</trkpt>
<trkpt lat="55.779903" lon="26.529499">
<ele>151.884888</ele>
<time>2010-07-18T13:27:11Z</time>
<desc>lat.=55.779903, lon.=26.529499, Alt.=151.884888m. Speed=17.927999m/h.</desc>
<speed>4.980000</speed>
</trkpt>
<trkpt lat="55.779938" lon="26.529472">
<ele>151.841919</ele>
<time>2010-07-18T13:27:12Z</time>
<desc>lat.=55.779938, lon.=26.529472, Alt.=151.841919m. Speed=15.156000m/h.</desc>
<speed>4.210000</speed>
</trkpt>
<trkpt lat="55.779968" lon="26.529453">
<ele>151.697388</ele>
<time>2010-07-18T13:27:13Z</time>
<desc>lat.=55.779968, lon.=26.529453, Alt.=151.697388m. Speed=13.752000m/h.</desc>
<speed>3.820000</speed>
</trkpt>
<trkpt lat="55.779999" lon="26.529436">
<ele>151.662231</ele>
<time>2010-07-18T13:27:14Z</time>
<desc>lat.=55.779999, lon.=26.529436, Alt.=151.662231m. Speed=12.492000m/h.</desc>
<speed>3.470000</speed>
</trkpt>
<trkpt lat="55.780025" lon="26.529411">
<ele>151.841919</ele>
<time>2010-07-18T13:27:15Z</time>
<desc>lat.=55.780025, lon.=26.529411, Alt.=151.841919m. Speed=11.232000m/h.</desc>
<speed>3.120000</speed>
</trkpt>
<trkpt lat="55.780048" lon="26.529400">
<ele>151.869263</ele>
<time>2010-07-18T13:27:16Z</time>
<desc>lat.=55.780048, lon.=26.529400, Alt.=151.869263m. Speed=9.072000m/h.</desc>
<speed>2.520000</speed>
</trkpt>
<trkpt lat="55.780071" lon="26.529392">
<ele>152.002075</ele>
<time>2010-07-18T13:27:17Z</time>
<desc>lat.=55.780071, lon.=26.529392, Alt.=152.002075m. Speed=7.704000m/h.</desc>
<speed>2.140000</speed>
</trkpt>
<trkpt lat="55.780083" lon="26.529394">
<ele>151.834106</ele>
<time>2010-07-18T13:27:18Z</time>
<desc>lat.=55.780083, lon.=26.529394, Alt.=151.834106m. Speed=5.292000m/h.</desc>
<speed>1.470000</speed>
</trkpt>
<trkpt lat="55.780094" lon="26.529385">
<ele>151.830200</ele>
<time>2010-07-18T13:27:19Z</time>
<desc>lat.=55.780094, lon.=26.529385, Alt.=151.830200m. Speed=3.852000m/h.</desc>
<speed>1.070000</speed>
</trkpt>
<trkpt lat="55.780102" lon="26.529381">
<ele>151.806763</ele>
<time>2010-07-18T13:27:20Z</time>
<desc>lat.=55.780102, lon.=26.529381, Alt.=151.806763m. Speed=2.448000m/h.</desc>
<speed>0.680000</speed>
</trkpt>
<trkpt lat="55.780106" lon="26.529381">
<ele>151.701294</ele>
<time>2010-07-18T13:27:21Z</time>
<desc>lat.=55.780106, lon.=26.529381, Alt.=151.701294m. Speed=0.504000m/h.</desc>
<speed>0.140000</speed>
</trkpt>
<trkpt lat="55.780106" lon="26.529381">
<ele>151.771606</ele>
<time>2010-07-18T13:27:22Z</time>
<desc>lat.=55.780106, lon.=26.529381, Alt.=151.771606m. Speed=0.540000m/h.</desc>
<speed>0.150000</speed>
</trkpt>
<trkpt lat="55.780106" lon="26.529385">
<ele>151.779419</ele>
<time>2010-07-18T13:27:23Z</time>
<desc>lat.=55.780106, lon.=26.529385, Alt.=151.779419m. Speed=0.072000m/h.</desc>
<speed>0.020000</speed>
</trkpt>
<trkpt lat="55.780106" lon="26.529385">
<ele>151.767700</ele>
<time>2010-07-18T13:27:24Z</time>
<desc>lat.=55.780106, lon.=26.529385, Alt.=151.767700m. Speed=0.144000m/h.</desc>
<speed>0.040000</speed>
</trkpt>
<trkpt lat="55.780106" lon="26.529385">
<ele>151.759888</ele>
<time>2010-07-18T13:27:25Z</time>
<desc>lat.=55.780106, lon.=26.529385, Alt.=151.759888m. Speed=0.144000m/h.</desc>
<speed>0.040000</speed>
</trkpt>
<trkpt lat="55.780106" lon="26.529385">
<ele>151.771606</ele>
<time>2010-07-18T13:27:26Z</time>
<desc>lat.=55.780106, lon.=26.529385, Alt.=151.771606m. Speed=0.072000m/h.</desc>
<speed>0.020000</speed>
</trkpt>
<trkpt lat="55.780106" lon="26.529385">
<ele>151.779419</ele>
<time>2010-07-18T13:27:27Z</time>
<desc>lat.=55.780106, lon.=26.529385, Alt.=151.779419m. Speed=0.036000m/h.</desc>
<speed>0.010000</speed>
</trkpt>
<trkpt lat="55.780106" lon="26.529385">
<ele>151.775513</ele>
<time>2010-07-18T13:27:28Z</time>
<desc>lat.=55.780106, lon.=26.529385, Alt.=151.775513m. Speed=0.036000m/h.</desc>
<speed>0.010000</speed>
</trkpt>
<trkpt lat="55.780106" lon="26.529385">
<ele>151.775513</ele>
<time>2010-07-18T13:27:29Z</time>
<desc>lat.=55.780106, lon.=26.529385, Alt.=151.775513m. Speed=0.144000m/h.</desc>
<speed>0.040000</speed>
</trkpt>
<trkpt lat="55.780106" lon="26.529385">
<ele>151.787231</ele>
<time>2010-07-18T13:27:30Z</time>
<desc>lat.=55.780106, lon.=26.529385, Alt.=151.787231m. Speed=0.000000m/h.</desc>
<speed>0.000000</speed>
</trkpt>
<trkpt lat="55.780106" lon="26.529385">
<ele>151.798950</ele>
<time>2010-07-18T13:27:31Z</time>
<desc>lat.=55.780106, lon.=26.529385, Alt.=151.798950m. Speed=0.000000m/h.</desc>
<speed>0.000000</speed>
</trkpt>
<trkpt lat="55.780106" lon="26.529385">
<ele>151.798950</ele>
<time>2010-07-18T13:27:32Z</time>
<desc>lat.=55.780106, lon.=26.529385, Alt.=151.798950m. Speed=0.036000m/h.</desc>
<speed>0.010000</speed>
</trkpt>
<trkpt lat="55.780106" lon="26.529385">
<ele>151.795044</ele>
<time>2010-07-18T13:27:33Z</time>
<desc>lat.=55.780106, lon.=26.529385, Alt.=151.795044m. Speed=0.072000m/h.</desc>
<speed>0.020000</speed>
</trkpt>
<trkpt lat="55.780106" lon="26.529385">
<ele>151.795044</ele>
<time>2010-07-18T13:27:34Z</time>
<desc>lat.=55.780106, lon.=26.529385, Alt.=151.795044m. Speed=0.000000m/h.</desc>
<speed>0.000000</speed>
</trkpt>
<trkpt lat="55.780106" lon="26.529385">
<ele>151.795044</ele>
<time>2010-07-18T13:27:35Z</time>
<desc>lat.=55.780106, lon.=26.529385, Alt.=151.795044m. Speed=0.216000m/h.</desc>
<speed>0.060000</speed>
</trkpt>
<trkpt lat="55.780106" lon="26.529385">
<ele>151.775513</ele>
<time>2010-07-18T13:27:36Z</time>
<desc>lat.=55.780106, lon.=26.529385, Alt.=151.775513m. Speed=0.036000m/h.</desc>
<speed>0.010000</speed>
</trkpt>
<trkpt lat="55.780106" lon="26.529385">
<ele>151.771606</ele>
<time>2010-07-18T13:27:37Z</time>
<desc>lat.=55.780106, lon.=26.529385, Alt.=151.771606m. Speed=0.036000m/h.</desc>
<speed>0.010000</speed>
</trkpt>
<trkpt lat="55.780106" lon="26.529385">
<ele>151.779419</ele>
<time>2010-07-18T13:27:38Z</time>
<desc>lat.=55.780106, lon.=26.529385, Alt.=151.779419m. Speed=0.072000m/h.</desc>
<speed>0.020000</speed>
</trkpt>
<trkpt lat="55.780106" lon="26.529385">
<ele>151.775513</ele>
<time>2010-07-18T13:27:39Z</time>
<desc>lat.=55.780106, lon.=26.529385, Alt.=151.775513m. Speed=0.144000m/h.</desc>
<speed>0.040000</speed>
</trkpt>
<trkpt lat="55.780106" lon="26.529385">
<ele>151.783325</ele>
<time>2010-07-18T13:27:40Z</time>
<desc>lat.=55.780106, lon.=26.529385, Alt.=151.783325m. Speed=0.108000m/h.</desc>
<speed>0.030000</speed>
</trkpt>
<trkpt lat="55.780106" lon="26.529385">
<ele>151.810669</ele>
<time>2010-07-18T13:27:41Z</time>
<desc>lat.=55.780106, lon.=26.529385, Alt.=151.810669m. Speed=0.144000m/h.</desc>
<speed>0.040000</speed>
</trkpt>
<trkpt lat="55.780106" lon="26.529385">
<ele>151.818481</ele>
<time>2010-07-18T13:27:42Z</time>
<desc>lat.=55.780106, lon.=26.529385, Alt.=151.818481m. Speed=0.036000m/h.</desc>
<speed>0.010000</speed>
</trkpt>
<trkpt lat="55.780106" lon="26.529385">
<ele>151.834106</ele>
<time>2010-07-18T13:27:43Z</time>
<desc>lat.=55.780106, lon.=26.529385, Alt.=151.834106m. Speed=0.072000m/h.</desc>
<speed>0.020000</speed>
</trkpt>
<trkpt lat="55.780106" lon="26.529385">
<ele>151.845825</ele>
<time>2010-07-18T13:27:44Z</time>
<desc>lat.=55.780106, lon.=26.529385, Alt.=151.845825m. Speed=0.108000m/h.</desc>
<speed>0.030000</speed>
</trkpt>
<trkpt lat="55.780106" lon="26.529385">
<ele>151.861450</ele>
<time>2010-07-18T13:27:45Z</time>
<desc>lat.=55.780106, lon.=26.529385, Alt.=151.861450m. Speed=0.324000m/h.</desc>
<speed>0.090000</speed>
</trkpt>
<trkpt lat="55.780102" lon="26.529383">
<ele>151.877075</ele>
<time>2010-07-18T13:27:46Z</time>
<desc>lat.=55.780102, lon.=26.529383, Alt.=151.877075m. Speed=0.108000m/h.</desc>
<speed>0.030000</speed>
</trkpt>
<trkpt lat="55.780102" lon="26.529383">
<ele>151.884888</ele>
<time>2010-07-18T13:27:47Z</time>
<desc>lat.=55.780102, lon.=26.529383, Alt.=151.884888m. Speed=0.108000m/h.</desc>
<speed>0.030000</speed>
</trkpt>
<trkpt lat="55.780106" lon="26.529383">
<ele>151.880981</ele>
<time>2010-07-18T13:27:48Z</time>
<desc>lat.=55.780106, lon.=26.529383, Alt.=151.880981m. Speed=0.216000m/h.</desc>
<speed>0.060000</speed>
</trkpt>
<trkpt lat="55.780106" lon="26.529385">
<ele>151.865356</ele>
<time>2010-07-18T13:27:49Z</time>
<desc>lat.=55.780106, lon.=26.529385, Alt.=151.865356m. Speed=0.144000m/h.</desc>
<speed>0.040000</speed>
</trkpt>
<trkpt lat="55.780106" lon="26.529385">
<ele>151.834106</ele>
<time>2010-07-18T13:27:50Z</time>
<desc>lat.=55.780106, lon.=26.529385, Alt.=151.834106m. Speed=0.072000m/h.</desc>
<speed>0.020000</speed>
</trkpt>
<trkpt lat="55.780106" lon="26.529385">
<ele>151.814575</ele>
<time>2010-07-18T13:27:51Z</time>
<desc>lat.=55.780106, lon.=26.529385, Alt.=151.814575m. Speed=0.072000m/h.</desc>
<speed>0.020000</speed>
</trkpt>
<trkpt lat="55.780106" lon="26.529385">
<ele>151.802856</ele>
<time>2010-07-18T13:27:52Z</time>
<desc>lat.=55.780106, lon.=26.529385, Alt.=151.802856m. Speed=0.072000m/h.</desc>
<speed>0.020000</speed>
</trkpt>
<trkpt lat="55.780106" lon="26.529385">
<ele>151.787231</ele>
<time>2010-07-18T13:27:53Z</time>
<desc>lat.=55.780106, lon.=26.529385, Alt.=151.787231m. Speed=0.108000m/h.</desc>
<speed>0.030000</speed>
</trkpt>
<trkpt lat="55.780106" lon="26.529387">
<ele>151.783325</ele>
<time>2010-07-18T13:27:54Z</time>
<desc>lat.=55.780106, lon.=26.529387, Alt.=151.783325m. Speed=0.072000m/h.</desc>
<speed>0.020000</speed>
</trkpt>
<trkpt lat="55.780106" lon="26.529387">
<ele>151.787231</ele>
<time>2010-07-18T13:27:55Z</time>
<desc>lat.=55.780106, lon.=26.529387, Alt.=151.787231m. Speed=0.072000m/h.</desc>
<speed>0.020000</speed>
</trkpt>
<trkpt lat="55.780106" lon="26.529385">
<ele>151.802856</ele>
<time>2010-07-18T13:27:56Z</time>
<desc>lat.=55.780106, lon.=26.529385, Alt.=151.802856m. Speed=0.036000m/h.</desc>
<speed>0.010000</speed>
</trkpt>
<trkpt lat="55.780106" lon="26.529385">
<ele>151.810669</ele>
<time>2010-07-18T13:27:57Z</time>
<desc>lat.=55.780106, lon.=26.529385, Alt.=151.810669m. Speed=0.036000m/h.</desc>
<speed>0.010000</speed>
</trkpt>
<trkpt lat="55.780106" lon="26.529385">
<ele>151.814575</ele>
<time>2010-07-18T13:27:58Z</time>
<desc>lat.=55.780106, lon.=26.529385, Alt.=151.814575m. Speed=0.000000m/h.</desc>
<speed>0.000000</speed>
</trkpt>
<trkpt lat="55.780106" lon="26.529385">
<ele>151.814575</ele>
<time>2010-07-18T13:27:59Z</time>
<desc>lat.=55.780106, lon.=26.529385, Alt.=151.814575m. Speed=0.000000m/h.</desc>
<speed>0.000000</speed>
</trkpt>
<trkpt lat="55.780106" lon="26.529385">
<ele>151.814575</ele>
<time>2010-07-18T13:28:00Z</time>
<desc>lat.=55.780106, lon.=26.529385, Alt.=151.814575m. Speed=0.000000m/h.</desc>
<speed>0.000000</speed>
</trkpt>
<trkpt lat="55.780106" lon="26.529385">
<ele>151.814575</ele>
<time>2010-07-18T13:28:01Z</time>
<desc>lat.=55.780106, lon.=26.529385, Alt.=151.814575m. Speed=0.036000m/h.</desc>
<speed>0.010000</speed>
</trkpt>
<trkpt lat="55.780106" lon="26.529387">
<ele>151.814575</ele>
<time>2010-07-18T13:28:02Z</time>
<desc>lat.=55.780106, lon.=26.529387, Alt.=151.814575m. Speed=0.000000m/h.</desc>
<speed>0.000000</speed>
</trkpt>
<trkpt lat="55.780106" lon="26.529387">
<ele>151.814575</ele>
<time>2010-07-18T13:28:03Z</time>
<desc>lat.=55.780106, lon.=26.529387, Alt.=151.814575m. Speed=0.036000m/h.</desc>
<speed>0.010000</speed>
</trkpt>
<trkpt lat="55.780106" lon="26.529387">
<ele>151.814575</ele>
<time>2010-07-18T13:28:04Z</time>
<desc>lat.=55.780106, lon.=26.529387, Alt.=151.814575m. Speed=0.000000m/h.</desc>
<speed>0.000000</speed>
</trkpt>
<trkpt lat="55.780106" lon="26.529387">
<ele>151.814575</ele>
<time>2010-07-18T13:28:05Z</time>
<desc>lat.=55.780106, lon.=26.529387, Alt.=151.814575m. Speed=0.000000m/h.</desc>
<speed>0.000000</speed>
</trkpt>
<trkpt lat="55.780106" lon="26.529387">
<ele>151.810669</ele>
<time>2010-07-18T13:28:06Z</time>
<desc>lat.=55.780106, lon.=26.529387, Alt.=151.810669m. Speed=0.036000m/h.</desc>
<speed>0.010000</speed>
</trkpt>
<trkpt lat="55.780106" lon="26.529387">
<ele>151.814575</ele>
<time>2010-07-18T13:28:07Z</time>
<desc>lat.=55.780106, lon.=26.529387, Alt.=151.814575m. Speed=0.000000m/h.</desc>
<speed>0.000000</speed>
</trkpt>
<trkpt lat="55.780106" lon="26.529387">
<ele>151.810669</ele>
<time>2010-07-18T13:28:08Z</time>
<desc>lat.=55.780106, lon.=26.529387, Alt.=151.810669m. Speed=0.036000m/h.</desc>
<speed>0.010000</speed>
</trkpt>
<trkpt lat="55.780106" lon="26.529387">
<ele>151.810669</ele>
<time>2010-07-18T13:28:09Z</time>
<desc>lat.=55.780106, lon.=26.529387, Alt.=151.810669m. Speed=0.036000m/h.</desc>
<speed>0.010000</speed>
</trkpt>
<trkpt lat="55.780106" lon="26.529387">
<ele>151.810669</ele>
<time>2010-07-18T13:28:10Z</time>
<desc>lat.=55.780106, lon.=26.529387, Alt.=151.810669m. Speed=0.036000m/h.</desc>
<speed>0.010000</speed>
</trkpt>
<trkpt lat="55.780106" lon="26.529387">
<ele>151.810669</ele>
<time>2010-07-18T13:28:11Z</time>
<desc>lat.=55.780106, lon.=26.529387, Alt.=151.810669m. Speed=0.036000m/h.</desc>
<speed>0.010000</speed>
</trkpt>
<trkpt lat="55.780106" lon="26.529387">
<ele>151.802856</ele>
<time>2010-07-18T13:28:12Z</time>
<desc>lat.=55.780106, lon.=26.529387, Alt.=151.802856m. Speed=0.108000m/h.</desc>
<speed>0.030000</speed>
</trkpt>
<trkpt lat="55.780106" lon="26.529387">
<ele>151.802856</ele>
<time>2010-07-18T13:28:13Z</time>
<desc>lat.=55.780106, lon.=26.529387, Alt.=151.802856m. Speed=0.072000m/h.</desc>
<speed>0.020000</speed>
</trkpt>
<trkpt lat="55.780106" lon="26.529387">
<ele>151.798950</ele>
<time>2010-07-18T13:28:14Z</time>
<desc>lat.=55.780106, lon.=26.529387, Alt.=151.798950m. Speed=0.072000m/h.</desc>
<speed>0.020000</speed>
</trkpt>
<trkpt lat="55.780106" lon="26.529387">
<ele>151.798950</ele>
<time>2010-07-18T13:28:15Z</time>
<desc>lat.=55.780106, lon.=26.529387, Alt.=151.798950m. Speed=0.036000m/h.</desc>
<speed>0.010000</speed>
</trkpt>
<trkpt lat="55.780106" lon="26.529387">
<ele>151.802856</ele>
<time>2010-07-18T13:28:16Z</time>
<desc>lat.=55.780106, lon.=26.529387, Alt.=151.802856m. Speed=0.036000m/h.</desc>
<speed>0.010000</speed>
</trkpt>
<trkpt lat="55.780106" lon="26.529387">
<ele>151.798950</ele>
<time>2010-07-18T13:28:17Z</time>
<desc>lat.=55.780106, lon.=26.529387, Alt.=151.798950m. Speed=0.072000m/h.</desc>
<speed>0.020000</speed>
</trkpt>
<trkpt lat="55.780106" lon="26.529387">
<ele>151.798950</ele>
<time>2010-07-18T13:28:18Z</time>
<desc>lat.=55.780106, lon.=26.529387, Alt.=151.798950m. Speed=0.036000m/h.</desc>
<speed>0.010000</speed>
</trkpt>
<trkpt lat="55.780106" lon="26.529387">
<ele>151.798950</ele>
<time>2010-07-18T13:28:19Z</time>
<desc>lat.=55.780106, lon.=26.529387, Alt.=151.798950m. Speed=0.000000m/h.</desc>
<speed>0.000000</speed>
</trkpt>
<trkpt lat="55.780106" lon="26.529387">
<ele>151.798950</ele>
<time>2010-07-18T13:28:20Z</time>
<desc>lat.=55.780106, lon.=26.529387, Alt.=151.798950m. Speed=0.000000m/h.</desc>
<speed>0.000000</speed>
</trkpt>
<trkpt lat="55.780106" lon="26.529387">
<ele>151.798950</ele>
<time>2010-07-18T13:28:21Z</time>
<desc>lat.=55.780106, lon.=26.529387, Alt.=151.798950m. Speed=0.000000m/h.</desc>
<speed>0.000000</speed>
</trkpt>
<trkpt lat="55.780106" lon="26.529387">
<ele>151.802856</ele>
<time>2010-07-18T13:28:22Z</time>
<desc>lat.=55.780106, lon.=26.529387, Alt.=151.802856m. Speed=0.036000m/h.</desc>
<speed>0.010000</speed>
</trkpt>
<trkpt lat="55.780106" lon="26.529387">
<ele>151.806763</ele>
<time>2010-07-18T13:28:23Z</time>
<desc>lat.=55.780106, lon.=26.529387, Alt.=151.806763m. Speed=0.000000m/h.</desc>
<speed>0.000000</speed>
</trkpt>
<trkpt lat="55.780106" lon="26.529387">
<ele>151.806763</ele>
<time>2010-07-18T13:28:24Z</time>
<desc>lat.=55.780106, lon.=26.529387, Alt.=151.806763m. Speed=0.000000m/h.</desc>
<speed>0.000000</speed>
</trkpt>
<trkpt lat="55.780106" lon="26.529387">
<ele>151.810669</ele>
<time>2010-07-18T13:28:25Z</time>
<desc>lat.=55.780106, lon.=26.529387, Alt.=151.810669m. Speed=0.000000m/h.</desc>
<speed>0.000000</speed>
</trkpt>
<trkpt lat="55.780106" lon="26.529387">
<ele>151.810669</ele>
<time>2010-07-18T13:28:26Z</time>
<desc>lat.=55.780106, lon.=26.529387, Alt.=151.810669m. Speed=0.000000m/h.</desc>
<speed>0.000000</speed>
</trkpt>
<trkpt lat="55.780106" lon="26.529387">
<ele>151.810669</ele>
<time>2010-07-18T13:28:27Z</time>
<desc>lat.=55.780106, lon.=26.529387, Alt.=151.810669m. Speed=0.036000m/h.</desc>
<speed>0.010000</speed>
</trkpt>
<trkpt lat="55.780106" lon="26.529387">
<ele>151.814575</ele>
<time>2010-07-18T13:28:28Z</time>
<desc>lat.=55.780106, lon.=26.529387, Alt.=151.814575m. Speed=0.036000m/h.</desc>
<speed>0.010000</speed>
</trkpt>
<trkpt lat="55.780106" lon="26.529387">
<ele>151.814575</ele>
<time>2010-07-18T13:28:29Z</time>
<desc>lat.=55.780106, lon.=26.529387, Alt.=151.814575m. Speed=0.000000m/h.</desc>
<speed>0.000000</speed>
</trkpt>
<trkpt lat="55.780106" lon="26.529387">
<ele>151.814575</ele>
<time>2010-07-18T13:28:30Z</time>
<desc>lat.=55.780106, lon.=26.529387, Alt.=151.814575m. Speed=0.036000m/h.</desc>
<speed>0.010000</speed>
</trkpt>
<trkpt lat="55.780106" lon="26.529387">
<ele>151.818481</ele>
<time>2010-07-18T13:28:31Z</time>
<desc>lat.=55.780106, lon.=26.529387, Alt.=151.818481m. Speed=0.108000m/h.</desc>
<speed>0.030000</speed>
</trkpt>
<trkpt lat="55.780106" lon="26.529387">
<ele>151.822388</ele>
<time>2010-07-18T13:28:32Z</time>
<desc>lat.=55.780106, lon.=26.529387, Alt.=151.822388m. Speed=0.036000m/h.</desc>
<speed>0.010000</speed>
</trkpt>
<trkpt lat="55.780106" lon="26.529387">
<ele>151.826294</ele>
<time>2010-07-18T13:28:33Z</time>
<desc>lat.=55.780106, lon.=26.529387, Alt.=151.826294m. Speed=0.036000m/h.</desc>
<speed>0.010000</speed>
</trkpt>
<trkpt lat="55.780106" lon="26.529387">
<ele>151.830200</ele>
<time>2010-07-18T13:28:34Z</time>
<desc>lat.=55.780106, lon.=26.529387, Alt.=151.830200m. Speed=0.036000m/h.</desc>
<speed>0.010000</speed>
</trkpt>
<trkpt lat="55.780106" lon="26.529387">
<ele>151.834106</ele>
<time>2010-07-18T13:28:35Z</time>
<desc>lat.=55.780106, lon.=26.529387, Alt.=151.834106m. Speed=0.072000m/h.</desc>
<speed>0.020000</speed>
</trkpt>
<trkpt lat="55.780106" lon="26.529387">
<ele>151.838013</ele>
<time>2010-07-18T13:28:36Z</time>
<desc>lat.=55.780106, lon.=26.529387, Alt.=151.838013m. Speed=0.072000m/h.</desc>
<speed>0.020000</speed>
</trkpt>
<trkpt lat="55.780106" lon="26.529387">
<ele>151.841919</ele>
<time>2010-07-18T13:28:37Z</time>
<desc>lat.=55.780106, lon.=26.529387, Alt.=151.841919m. Speed=0.036000m/h.</desc>
<speed>0.010000</speed>
</trkpt>
<trkpt lat="55.780106" lon="26.529387">
<ele>151.841919</ele>
<time>2010-07-18T13:28:38Z</time>
<desc>lat.=55.780106, lon.=26.529387, Alt.=151.841919m. Speed=0.036000m/h.</desc>
<speed>0.010000</speed>
</trkpt>
<trkpt lat="55.780106" lon="26.529387">
<ele>151.841919</ele>
<time>2010-07-18T13:28:39Z</time>
<desc>lat.=55.780106, lon.=26.529387, Alt.=151.841919m. Speed=0.036000m/h.</desc>
<speed>0.010000</speed>
</trkpt>
<trkpt lat="55.780106" lon="26.529387">
<ele>151.841919</ele>
<time>2010-07-18T13:28:40Z</time>
<desc>lat.=55.780106, lon.=26.529387, Alt.=151.841919m. Speed=0.000000m/h.</desc>
<speed>0.000000</speed>
</trkpt>
<trkpt lat="55.780106" lon="26.529387">
<ele>151.838013</ele>
<time>2010-07-18T13:28:41Z</time>
<desc>lat.=55.780106, lon.=26.529387, Alt.=151.838013m. Speed=0.072000m/h.</desc>
<speed>0.020000</speed>
</trkpt>
<trkpt lat="55.780106" lon="26.529387">
<ele>151.838013</ele>
<time>2010-07-18T13:28:42Z</time>
<desc>lat.=55.780106, lon.=26.529387, Alt.=151.838013m. Speed=0.036000m/h.</desc>
<speed>0.010000</speed>
</trkpt>
<trkpt lat="55.780106" lon="26.529387">
<ele>151.834106</ele>
<time>2010-07-18T13:28:43Z</time>
<desc>lat.=55.780106, lon.=26.529387, Alt.=151.834106m. Speed=0.036000m/h.</desc>
<speed>0.010000</speed>
</trkpt>
<trkpt lat="55.780106" lon="26.529387">
<ele>151.834106</ele>
<time>2010-07-18T13:28:44Z</time>
<desc>lat.=55.780106, lon.=26.529387, Alt.=151.834106m. Speed=0.000000m/h.</desc>
<speed>0.000000</speed>
</trkpt>
<trkpt lat="55.780106" lon="26.529387">
<ele>151.838013</ele>
<time>2010-07-18T13:28:45Z</time>
<desc>lat.=55.780106, lon.=26.529387, Alt.=151.838013m. Speed=0.036000m/h.</desc>
<speed>0.010000</speed>
</trkpt>
<trkpt lat="55.780106" lon="26.529387">
<ele>151.834106</ele>
<time>2010-07-18T13:28:46Z</time>
<desc>lat.=55.780106, lon.=26.529387, Alt.=151.834106m. Speed=0.000000m/h.</desc>
<speed>0.000000</speed>
</trkpt>
<trkpt lat="55.780106" lon="26.529387">
<ele>151.834106</ele>
<time>2010-07-18T13:28:47Z</time>
<desc>lat.=55.780106, lon.=26.529387, Alt.=151.834106m. Speed=0.072000m/h.</desc>
<speed>0.020000</speed>
</trkpt>
<trkpt lat="55.780106" lon="26.529387">
<ele>151.834106</ele>
<time>2010-07-18T13:28:48Z</time>
<desc>lat.=55.780106, lon.=26.529387, Alt.=151.834106m. Speed=0.036000m/h.</desc>
<speed>0.010000</speed>
</trkpt>
<trkpt lat="55.780106" lon="26.529387">
<ele>151.838013</ele>
<time>2010-07-18T13:28:49Z</time>
<desc>lat.=55.780106, lon.=26.529387, Alt.=151.838013m. Speed=0.000000m/h.</desc>
<speed>0.000000</speed>
</trkpt>
<trkpt lat="55.780106" lon="26.529387">
<ele>151.838013</ele>
<time>2010-07-18T13:28:50Z</time>
<desc>lat.=55.780106, lon.=26.529387, Alt.=151.838013m. Speed=0.000000m/h.</desc>
<speed>0.000000</speed>
</trkpt>
<trkpt lat="55.780106" lon="26.529387">
<ele>151.834106</ele>
<time>2010-07-18T13:28:51Z</time>
<desc>lat.=55.780106, lon.=26.529387, Alt.=151.834106m. Speed=0.000000m/h.</desc>
<speed>0.000000</speed>
</trkpt>
<trkpt lat="55.780106" lon="26.529388">
<ele>151.834106</ele>
<time>2010-07-18T13:28:52Z</time>
<desc>lat.=55.780106, lon.=26.529388, Alt.=151.834106m. Speed=0.108000m/h.</desc>
<speed>0.030000</speed>
</trkpt>
<trkpt lat="55.780106" lon="26.529388">
<ele>151.834106</ele>
<time>2010-07-18T13:28:53Z</time>
<desc>lat.=55.780106, lon.=26.529388, Alt.=151.834106m. Speed=0.324000m/h.</desc>
<speed>0.090000</speed>
</trkpt>
<trkpt lat="55.780106" lon="26.529388">
<ele>151.834106</ele>
<time>2010-07-18T13:28:54Z</time>
<desc>lat.=55.780106, lon.=26.529388, Alt.=151.834106m. Speed=0.072000m/h.</desc>
<speed>0.020000</speed>
</trkpt>
<trkpt lat="55.780106" lon="26.529388">
<ele>151.834106</ele>
<time>2010-07-18T13:28:55Z</time>
<desc>lat.=55.780106, lon.=26.529388, Alt.=151.834106m. Speed=0.144000m/h.</desc>
<speed>0.040000</speed>
</trkpt>
<trkpt lat="55.780106" lon="26.529388">
<ele>151.834106</ele>
<time>2010-07-18T13:28:56Z</time>
<desc>lat.=55.780106, lon.=26.529388, Alt.=151.834106m. Speed=0.468000m/h.</desc>
<speed>0.130000</speed>
</trkpt>
<trkpt lat="55.780106" lon="26.529387">
<ele>151.841919</ele>
<time>2010-07-18T13:28:57Z</time>
<desc>lat.=55.780106, lon.=26.529387, Alt.=151.841919m. Speed=1.548000m/h.</desc>
<speed>0.430000</speed>
</trkpt>
<trkpt lat="55.780109" lon="26.529381">
<ele>151.845825</ele>
<time>2010-07-18T13:28:58Z</time>
<desc>lat.=55.780109, lon.=26.529381, Alt.=151.845825m. Speed=4.284000m/h.</desc>
<speed>1.190000</speed>
</trkpt>
<trkpt lat="55.780128" lon="26.529366">
<ele>152.045044</ele>
<time>2010-07-18T13:28:59Z</time>
<desc>lat.=55.780128, lon.=26.529366, Alt.=152.045044m. Speed=7.200000m/h.</desc>
<speed>2.000000</speed>
</trkpt>
<trkpt lat="55.780151" lon="26.529348">
<ele>152.201294</ele>
<time>2010-07-18T13:29:00Z</time>
<desc>lat.=55.780151, lon.=26.529348, Alt.=152.201294m. Speed=9.648000m/h.</desc>
<speed>2.680000</speed>
</trkpt>
<trkpt lat="55.780178" lon="26.529331">
<ele>152.310669</ele>
<time>2010-07-18T13:29:01Z</time>
<desc>lat.=55.780178, lon.=26.529331, Alt.=152.310669m. Speed=10.224000m/h.</desc>
<speed>2.840000</speed>
</trkpt>
<trkpt lat="55.780193" lon="26.529303">
<ele>152.603638</ele>
<time>2010-07-18T13:29:02Z</time>
<desc>lat.=55.780193, lon.=26.529303, Alt.=152.603638m. Speed=9.576000m/h.</desc>
<speed>2.660000</speed>
</trkpt>
<trkpt lat="55.780228" lon="26.529278">
<ele>152.291138</ele>
<time>2010-07-18T13:29:03Z</time>
<desc>lat.=55.780228, lon.=26.529278, Alt.=152.291138m. Speed=15.408000m/h.</desc>
<speed>4.280000</speed>
</trkpt>
<trkpt lat="55.780270" lon="26.529247">
<ele>152.216919</ele>
<time>2010-07-18T13:29:04Z</time>
<desc>lat.=55.780270, lon.=26.529247, Alt.=152.216919m. Speed=16.091999m/h.</desc>
<speed>4.470000</speed>
</trkpt>
<trkpt lat="55.780312" lon="26.529215">
<ele>152.127075</ele>
<time>2010-07-18T13:29:05Z</time>
<desc>lat.=55.780312, lon.=26.529215, Alt.=152.127075m. Speed=16.632000m/h.</desc>
<speed>4.620000</speed>
</trkpt>
<trkpt lat="55.780354" lon="26.529186">
<ele>152.127075</ele>
<time>2010-07-18T13:29:06Z</time>
<desc>lat.=55.780354, lon.=26.529186, Alt.=152.127075m. Speed=15.624000m/h.</desc>
<speed>4.340000</speed>
</trkpt>
<trkpt lat="55.780411" lon="26.529154">
<ele>151.806763</ele>
<time>2010-07-18T13:29:07Z</time>
<desc>lat.=55.780411, lon.=26.529154, Alt.=151.806763m. Speed=19.440001m/h.</desc>
<speed>5.400000</speed>
</trkpt>
<trkpt lat="55.780464" lon="26.529118">
<ele>151.541138</ele>
<time>2010-07-18T13:29:08Z</time>
<desc>lat.=55.780464, lon.=26.529118, Alt.=151.541138m. Speed=20.195999m/h.</desc>
<speed>5.610000</speed>
</trkpt>
<trkpt lat="55.780518" lon="26.529079">
<ele>151.341919</ele>
<time>2010-07-18T13:29:09Z</time>
<desc>lat.=55.780518, lon.=26.529079, Alt.=151.341919m. Speed=21.096001m/h.</desc>
<speed>5.860000</speed>
</trkpt>
<trkpt lat="55.780563" lon="26.529036">
<ele>151.060669</ele>
<time>2010-07-18T13:29:10Z</time>
<desc>lat.=55.780563, lon.=26.529036, Alt.=151.060669m. Speed=20.483999m/h.</desc>
<speed>5.690000</speed>
</trkpt>
<trkpt lat="55.780621" lon="26.528988">
<ele>150.654419</ele>
<time>2010-07-18T13:29:11Z</time>
<desc>lat.=55.780621, lon.=26.528988, Alt.=150.654419m. Speed=21.708000m/h.</desc>
<speed>6.030000</speed>
</trkpt>
<trkpt lat="55.780674" lon="26.528946">
<ele>150.404419</ele>
<time>2010-07-18T13:29:12Z</time>
<desc>lat.=55.780674, lon.=26.528946, Alt.=150.404419m. Speed=22.139999m/h.</desc>
<speed>6.150000</speed>
</trkpt>
<trkpt lat="55.780727" lon="26.528902">
<ele>150.193481</ele>
<time>2010-07-18T13:29:13Z</time>
<desc>lat.=55.780727, lon.=26.528902, Alt.=150.193481m. Speed=22.572001m/h.</desc>
<speed>6.270000</speed>
</trkpt>
<trkpt lat="55.780777" lon="26.528864">
<ele>149.900513</ele>
<time>2010-07-18T13:29:14Z</time>
<desc>lat.=55.780777, lon.=26.528864, Alt.=149.900513m. Speed=22.392000m/h.</desc>
<speed>6.220000</speed>
</trkpt>
<trkpt lat="55.780830" lon="26.528826">
<ele>149.748169</ele>
<time>2010-07-18T13:29:15Z</time>
<desc>lat.=55.780830, lon.=26.528826, Alt.=149.748169m. Speed=23.652000m/h.</desc>
<speed>6.570000</speed>
</trkpt>
<trkpt lat="55.780888" lon="26.528791">
<ele>149.482544</ele>
<time>2010-07-18T13:29:16Z</time>
<desc>lat.=55.780888, lon.=26.528791, Alt.=149.482544m. Speed=23.832001m/h.</desc>
<speed>6.620000</speed>
</trkpt>
<trkpt lat="55.780941" lon="26.528748">
<ele>149.197388</ele>
<time>2010-07-18T13:29:17Z</time>
<desc>lat.=55.780941, lon.=26.528748, Alt.=149.197388m. Speed=23.832001m/h.</desc>
<speed>6.620000</speed>
</trkpt>
<trkpt lat="55.780998" lon="26.528706">
<ele>149.048950</ele>
<time>2010-07-18T13:29:18Z</time>
<desc>lat.=55.780998, lon.=26.528706, Alt.=149.048950m. Speed=24.228001m/h.</desc>
<speed>6.730000</speed>
</trkpt>
<trkpt lat="55.781055" lon="26.528662">
<ele>148.806763</ele>
<time>2010-07-18T13:29:19Z</time>
<desc>lat.=55.781055, lon.=26.528662, Alt.=148.806763m. Speed=24.875999m/h.</desc>
<speed>6.910000</speed>
</trkpt>
<trkpt lat="55.781109" lon="26.528618">
<ele>148.720825</ele>
<time>2010-07-18T13:29:20Z</time>
<desc>lat.=55.781109, lon.=26.528618, Alt.=148.720825m. Speed=25.271999m/h.</desc>
<speed>7.020000</speed>
</trkpt>
<trkpt lat="55.781162" lon="26.528578">
<ele>148.021606</ele>
<time>2010-07-18T13:29:21Z</time>
<desc>lat.=55.781162, lon.=26.528578, Alt.=148.021606m. Speed=24.011999m/h.</desc>
<speed>6.670000</speed>
</trkpt>
<trkpt lat="55.781223" lon="26.528530">
<ele>147.709106</ele>
<time>2010-07-18T13:29:22Z</time>
<desc>lat.=55.781223, lon.=26.528530, Alt.=147.709106m. Speed=27.431999m/h.</desc>
<speed>7.620000</speed>
</trkpt>
<trkpt lat="55.781292" lon="26.528481">
<ele>147.392700</ele>
<time>2010-07-18T13:29:23Z</time>
<desc>lat.=55.781292, lon.=26.528481, Alt.=147.392700m. Speed=28.980000m/h.</desc>
<speed>8.050000</speed>
</trkpt>
<trkpt lat="55.781357" lon="26.528433">
<ele>146.998169</ele>
<time>2010-07-18T13:29:24Z</time>
<desc>lat.=55.781357, lon.=26.528433, Alt.=146.998169m. Speed=29.700001m/h.</desc>
<speed>8.250000</speed>
</trkpt>
<trkpt lat="55.781425" lon="26.528379">
<ele>146.365356</ele>
<time>2010-07-18T13:29:25Z</time>
<desc>lat.=55.781425, lon.=26.528379, Alt.=146.365356m. Speed=31.104000m/h.</desc>
<speed>8.640000</speed>
</trkpt>
<trkpt lat="55.781498" lon="26.528324">
<ele>145.787231</ele>
<time>2010-07-18T13:29:26Z</time>
<desc>lat.=55.781498, lon.=26.528324, Alt.=145.787231m. Speed=31.284000m/h.</desc>
<speed>8.690000</speed>
</trkpt>
<trkpt lat="55.781570" lon="26.528273">
<ele>145.408325</ele>
<time>2010-07-18T13:29:27Z</time>
<desc>lat.=55.781570, lon.=26.528273, Alt.=145.408325m. Speed=31.788000m/h.</desc>
<speed>8.830000</speed>
</trkpt>
<trkpt lat="55.781647" lon="26.528221">
<ele>144.802856</ele>
<time>2010-07-18T13:29:28Z</time>
<desc>lat.=55.781647, lon.=26.528221, Alt.=144.802856m. Speed=32.220001m/h.</desc>
<speed>8.950000</speed>
</trkpt>
<trkpt lat="55.781723" lon="26.528162">
<ele>144.240356</ele>
<time>2010-07-18T13:29:29Z</time>
<desc>lat.=55.781723, lon.=26.528162, Alt.=144.240356m. Speed=32.903999m/h.</desc>
<speed>9.140000</speed>
</trkpt>
<trkpt lat="55.781799" lon="26.528103">
<ele>143.748169</ele>
<time>2010-07-18T13:29:30Z</time>
<desc>lat.=55.781799, lon.=26.528103, Alt.=143.748169m. Speed=33.515999m/h.</desc>
<speed>9.310000</speed>
</trkpt>
<trkpt lat="55.781879" lon="26.528040">
<ele>143.404419</ele>
<time>2010-07-18T13:29:31Z</time>
<desc>lat.=55.781879, lon.=26.528040, Alt.=143.404419m. Speed=34.307999m/h.</desc>
<speed>9.530000</speed>
</trkpt>
<trkpt lat="55.781960" lon="26.527977">
<ele>142.959106</ele>
<time>2010-07-18T13:29:32Z</time>
<desc>lat.=55.781960, lon.=26.527977, Alt.=142.959106m. Speed=34.703999m/h.</desc>
<speed>9.640000</speed>
</trkpt>
<trkpt lat="55.782040" lon="26.527916">
<ele>142.517700</ele>
<time>2010-07-18T13:29:33Z</time>
<desc>lat.=55.782040, lon.=26.527916, Alt.=142.517700m. Speed=35.172001m/h.</desc>
<speed>9.770000</speed>
</trkpt>
<trkpt lat="55.782124" lon="26.527851">
<ele>142.099731</ele>
<time>2010-07-18T13:29:34Z</time>
<desc>lat.=55.782124, lon.=26.527851, Alt.=142.099731m. Speed=36.396000m/h.</desc>
<speed>10.110000</speed>
</trkpt>
<trkpt lat="55.782211" lon="26.527790">
<ele>141.783325</ele>
<time>2010-07-18T13:29:35Z</time>
<desc>lat.=55.782211, lon.=26.527790, Alt.=141.783325m. Speed=37.655998m/h.</desc>
<speed>10.460000</speed>
</trkpt>
<trkpt lat="55.782303" lon="26.527725">
<ele>141.470825</ele>
<time>2010-07-18T13:29:36Z</time>
<desc>lat.=55.782303, lon.=26.527725, Alt.=141.470825m. Speed=38.411999m/h.</desc>
<speed>10.670000</speed>
</trkpt>
<trkpt lat="55.782391" lon="26.527655">
<ele>140.947388</ele>
<time>2010-07-18T13:29:37Z</time>
<desc>lat.=55.782391, lon.=26.527655, Alt.=140.947388m. Speed=38.160000m/h.</desc>
<speed>10.600000</speed>
</trkpt>
<trkpt lat="55.782486" lon="26.527580">
<ele>140.548950</ele>
<time>2010-07-18T13:29:38Z</time>
<desc>lat.=55.782486, lon.=26.527580, Alt.=140.548950m. Speed=39.060001m/h.</desc>
<speed>10.850000</speed>
</trkpt>
<trkpt lat="55.782574" lon="26.527510">
<ele>140.271606</ele>
<time>2010-07-18T13:29:39Z</time>
<desc>lat.=55.782574, lon.=26.527510, Alt.=140.271606m. Speed=38.916000m/h.</desc>
<speed>10.810000</speed>
</trkpt>
<trkpt lat="55.782665" lon="26.527439">
<ele>139.763794</ele>
<time>2010-07-18T13:29:40Z</time>
<desc>lat.=55.782665, lon.=26.527439, Alt.=139.763794m. Speed=38.340000m/h.</desc>
<speed>10.650000</speed>
</trkpt>
<trkpt lat="55.782753" lon="26.527370">
<ele>139.619263</ele>
<time>2010-07-18T13:29:41Z</time>
<desc>lat.=55.782753, lon.=26.527370, Alt.=139.619263m. Speed=39.779999m/h.</desc>
<speed>11.050000</speed>
</trkpt>
<trkpt lat="55.782841" lon="26.527309">
<ele>139.353638</ele>
<time>2010-07-18T13:29:42Z</time>
<desc>lat.=55.782841, lon.=26.527309, Alt.=139.353638m. Speed=38.340000m/h.</desc>
<speed>10.650000</speed>
</trkpt>
<trkpt lat="55.782932" lon="26.527241">
<ele>139.228638</ele>
<time>2010-07-18T13:29:43Z</time>
<desc>lat.=55.782932, lon.=26.527241, Alt.=139.228638m. Speed=37.799999m/h.</desc>
<speed>10.500000</speed>
</trkpt>
<trkpt lat="55.783020" lon="26.527174">
<ele>139.107544</ele>
<time>2010-07-18T13:29:44Z</time>
<desc>lat.=55.783020, lon.=26.527174, Alt.=139.107544m. Speed=38.015999m/h.</desc>
<speed>10.560000</speed>
</trkpt>
<trkpt lat="55.783104" lon="26.527115">
<ele>138.892700</ele>
<time>2010-07-18T13:29:45Z</time>
<desc>lat.=55.783104, lon.=26.527115, Alt.=138.892700m. Speed=36.071999m/h.</desc>
<speed>10.020000</speed>
</trkpt>
<trkpt lat="55.783188" lon="26.527061">
<ele>138.857544</ele>
<time>2010-07-18T13:29:46Z</time>
<desc>lat.=55.783188, lon.=26.527061, Alt.=138.857544m. Speed=35.604000m/h.</desc>
<speed>9.890000</speed>
</trkpt>
<trkpt lat="55.783268" lon="26.527008">
<ele>138.841919</ele>
<time>2010-07-18T13:29:47Z</time>
<desc>lat.=55.783268, lon.=26.527008, Alt.=138.841919m. Speed=35.028000m/h.</desc>
<speed>9.730000</speed>
</trkpt>
<trkpt lat="55.783344" lon="26.526962">
<ele>138.802856</ele>
<time>2010-07-18T13:29:48Z</time>
<desc>lat.=55.783344, lon.=26.526962, Alt.=138.802856m. Speed=33.768002m/h.</desc>
<speed>9.380000</speed>
</trkpt>
<trkpt lat="55.783421" lon="26.526911">
<ele>138.920044</ele>
<time>2010-07-18T13:29:49Z</time>
<desc>lat.=55.783421, lon.=26.526911, Alt.=138.920044m. Speed=33.012001m/h.</desc>
<speed>9.170000</speed>
</trkpt>
<trkpt lat="55.783493" lon="26.526863">
<ele>138.888794</ele>
<time>2010-07-18T13:29:50Z</time>
<desc>lat.=55.783493, lon.=26.526863, Alt.=138.888794m. Speed=31.823999m/h.</desc>
<speed>8.840000</speed>
</trkpt>
<trkpt lat="55.783566" lon="26.526814">
<ele>139.072388</ele>
<time>2010-07-18T13:29:51Z</time>
<desc>lat.=55.783566, lon.=26.526814, Alt.=139.072388m. Speed=31.464001m/h.</desc>
<speed>8.740000</speed>
</trkpt>
<trkpt lat="55.783634" lon="26.526772">
<ele>139.197388</ele>
<time>2010-07-18T13:29:52Z</time>
<desc>lat.=55.783634, lon.=26.526772, Alt.=139.197388m. Speed=29.952000m/h.</desc>
<speed>8.320000</speed>
</trkpt>
<trkpt lat="55.783707" lon="26.526722">
<ele>139.572388</ele>
<time>2010-07-18T13:29:53Z</time>
<desc>lat.=55.783707, lon.=26.526722, Alt.=139.572388m. Speed=28.799999m/h.</desc>
<speed>8.000000</speed>
</trkpt>
<trkpt lat="55.783772" lon="26.526676">
<ele>139.795044</ele>
<time>2010-07-18T13:29:54Z</time>
<desc>lat.=55.783772, lon.=26.526676, Alt.=139.795044m. Speed=28.440001m/h.</desc>
<speed>7.900000</speed>
</trkpt>
<trkpt lat="55.783836" lon="26.526632">
<ele>140.205200</ele>
<time>2010-07-18T13:29:55Z</time>
<desc>lat.=55.783836, lon.=26.526632, Alt.=140.205200m. Speed=28.224001m/h.</desc>
<speed>7.840000</speed>
</trkpt>
<trkpt lat="55.783901" lon="26.526594">
<ele>140.423950</ele>
<time>2010-07-18T13:29:56Z</time>
<desc>lat.=55.783901, lon.=26.526594, Alt.=140.423950m. Speed=27.827999m/h.</desc>
<speed>7.730000</speed>
</trkpt>
<trkpt lat="55.783966" lon="26.526558">
<ele>140.689575</ele>
<time>2010-07-18T13:29:57Z</time>
<desc>lat.=55.783966, lon.=26.526558, Alt.=140.689575m. Speed=27.216000m/h.</desc>
<speed>7.560000</speed>
</trkpt>
<trkpt lat="55.784027" lon="26.526520">
<ele>140.834106</ele>
<time>2010-07-18T13:29:58Z</time>
<desc>lat.=55.784027, lon.=26.526520, Alt.=140.834106m. Speed=26.496000m/h.</desc>
<speed>7.360000</speed>
</trkpt>
<trkpt lat="55.784088" lon="26.526485">
<ele>141.005981</ele>
<time>2010-07-18T13:29:59Z</time>
<desc>lat.=55.784088, lon.=26.526485, Alt.=141.005981m. Speed=25.596001m/h.</desc>
<speed>7.110000</speed>
</trkpt>
<trkpt lat="55.784145" lon="26.526449">
<ele>141.213013</ele>
<time>2010-07-18T13:30:00Z</time>
<desc>lat.=55.784145, lon.=26.526449, Alt.=141.213013m. Speed=25.056000m/h.</desc>
<speed>6.960000</speed>
</trkpt>
<trkpt lat="55.784203" lon="26.526417">
<ele>141.416138</ele>
<time>2010-07-18T13:30:01Z</time>
<desc>lat.=55.784203, lon.=26.526417, Alt.=141.416138m. Speed=24.228001m/h.</desc>
<speed>6.730000</speed>
</trkpt>
<trkpt lat="55.784260" lon="26.526386">
<ele>141.662231</ele>
<time>2010-07-18T13:30:02Z</time>
<desc>lat.=55.784260, lon.=26.526386, Alt.=141.662231m. Speed=23.436001m/h.</desc>
<speed>6.510000</speed>
</trkpt>
<trkpt lat="55.784317" lon="26.526358">
<ele>141.861450</ele>
<time>2010-07-18T13:30:03Z</time>
<desc>lat.=55.784317, lon.=26.526358, Alt.=141.861450m. Speed=22.931999m/h.</desc>
<speed>6.370000</speed>
</trkpt>
<trkpt lat="55.784367" lon="26.526337">
<ele>141.892700</ele>
<time>2010-07-18T13:30:04Z</time>
<desc>lat.=55.784367, lon.=26.526337, Alt.=141.892700m. Speed=22.356001m/h.</desc>
<speed>6.210000</speed>
</trkpt>
<trkpt lat="55.784420" lon="26.526310">
<ele>141.927856</ele>
<time>2010-07-18T13:30:05Z</time>
<desc>lat.=55.784420, lon.=26.526310, Alt.=141.927856m. Speed=21.743999m/h.</desc>
<speed>6.040000</speed>
</trkpt>
<trkpt lat="55.784470" lon="26.526279">
<ele>142.373169</ele>
<time>2010-07-18T13:30:06Z</time>
<desc>lat.=55.784470, lon.=26.526279, Alt.=142.373169m. Speed=21.672001m/h.</desc>
<speed>6.020000</speed>
</trkpt>
<trkpt lat="55.784523" lon="26.526253">
<ele>142.521606</ele>
<time>2010-07-18T13:30:07Z</time>
<desc>lat.=55.784523, lon.=26.526253, Alt.=142.521606m. Speed=21.528000m/h.</desc>
<speed>5.980000</speed>
</trkpt>
<trkpt lat="55.784573" lon="26.526224">
<ele>142.849731</ele>
<time>2010-07-18T13:30:08Z</time>
<desc>lat.=55.784573, lon.=26.526224, Alt.=142.849731m. Speed=21.348000m/h.</desc>
<speed>5.930000</speed>
</trkpt>
<trkpt lat="55.784618" lon="26.526197">
<ele>142.896606</ele>
<time>2010-07-18T13:30:09Z</time>
<desc>lat.=55.784618, lon.=26.526197, Alt.=142.896606m. Speed=21.275999m/h.</desc>
<speed>5.910000</speed>
</trkpt>
<trkpt lat="55.784668" lon="26.526171">
<ele>142.814575</ele>
<time>2010-07-18T13:30:10Z</time>
<desc>lat.=55.784668, lon.=26.526171, Alt.=142.814575m. Speed=21.167999m/h.</desc>
<speed>5.880000</speed>
</trkpt>
<trkpt lat="55.784718" lon="26.526140">
<ele>142.873169</ele>
<time>2010-07-18T13:30:11Z</time>
<desc>lat.=55.784718, lon.=26.526140, Alt.=142.873169m. Speed=20.304001m/h.</desc>
<speed>5.640000</speed>
</trkpt>
<trkpt lat="55.784763" lon="26.526121">
<ele>142.873169</ele>
<time>2010-07-18T13:30:12Z</time>
<desc>lat.=55.784763, lon.=26.526121, Alt.=142.873169m. Speed=19.511999m/h.</desc>
<speed>5.420000</speed>
</trkpt>
<trkpt lat="55.784813" lon="26.526100">
<ele>142.826294</ele>
<time>2010-07-18T13:30:13Z</time>
<desc>lat.=55.784813, lon.=26.526100, Alt.=142.826294m. Speed=18.648001m/h.</desc>
<speed>5.180000</speed>
</trkpt>
<trkpt lat="55.784859" lon="26.526075">
<ele>142.900513</ele>
<time>2010-07-18T13:30:14Z</time>
<desc>lat.=55.784859, lon.=26.526075, Alt.=142.900513m. Speed=18.180000m/h.</desc>
<speed>5.050000</speed>
</trkpt>
<trkpt lat="55.784897" lon="26.526054">
<ele>142.947388</ele>
<time>2010-07-18T13:30:15Z</time>
<desc>lat.=55.784897, lon.=26.526054, Alt.=142.947388m. Speed=17.639999m/h.</desc>
<speed>4.900000</speed>
</trkpt>
<trkpt lat="55.784939" lon="26.526026">
<ele>142.802856</ele>
<time>2010-07-18T13:30:16Z</time>
<desc>lat.=55.784939, lon.=26.526026, Alt.=142.802856m. Speed=17.639999m/h.</desc>
<speed>4.900000</speed>
</trkpt>
<trkpt lat="55.784981" lon="26.526003">
<ele>142.693481</ele>
<time>2010-07-18T13:30:17Z</time>
<desc>lat.=55.784981, lon.=26.526003, Alt.=142.693481m. Speed=17.856001m/h.</desc>
<speed>4.960000</speed>
</trkpt>
<trkpt lat="55.785027" lon="26.525976">
<ele>142.845825</ele>
<time>2010-07-18T13:30:18Z</time>
<desc>lat.=55.785027, lon.=26.525976, Alt.=142.845825m. Speed=18.288000m/h.</desc>
<speed>5.080000</speed>
</trkpt>
<trkpt lat="55.785076" lon="26.525951">
<ele>143.560669</ele>
<time>2010-07-18T13:30:19Z</time>
<desc>lat.=55.785076, lon.=26.525951, Alt.=143.560669m. Speed=18.323999m/h.</desc>
<speed>5.090000</speed>
</trkpt>
<trkpt lat="55.785126" lon="26.525927">
<ele>143.802856</ele>
<time>2010-07-18T13:30:20Z</time>
<desc>lat.=55.785126, lon.=26.525927, Alt.=143.802856m. Speed=18.323999m/h.</desc>
<speed>5.090000</speed>
</trkpt>
<trkpt lat="55.785168" lon="26.525902">
<ele>143.771606</ele>
<time>2010-07-18T13:30:21Z</time>
<desc>lat.=55.785168, lon.=26.525902, Alt.=143.771606m. Speed=18.180000m/h.</desc>
<speed>5.050000</speed>
</trkpt>
<trkpt lat="55.785217" lon="26.525881">
<ele>143.865356</ele>
<time>2010-07-18T13:30:22Z</time>
<desc>lat.=55.785217, lon.=26.525881, Alt.=143.865356m. Speed=19.799999m/h.</desc>
<speed>5.500000</speed>
</trkpt>
<trkpt lat="55.785263" lon="26.525860">
<ele>143.935669</ele>
<time>2010-07-18T13:30:23Z</time>
<desc>lat.=55.785263, lon.=26.525860, Alt.=143.935669m. Speed=19.260000m/h.</desc>
<speed>5.350000</speed>
</trkpt>
<trkpt lat="55.785313" lon="26.525839">
<ele>143.994263</ele>
<time>2010-07-18T13:30:24Z</time>
<desc>lat.=55.785313, lon.=26.525839, Alt.=143.994263m. Speed=19.584000m/h.</desc>
<speed>5.440000</speed>
</trkpt>
<trkpt lat="55.785362" lon="26.525814">
<ele>143.978638</ele>
<time>2010-07-18T13:30:25Z</time>
<desc>lat.=55.785362, lon.=26.525814, Alt.=143.978638m. Speed=18.864000m/h.</desc>
<speed>5.240000</speed>
</trkpt>
<trkpt lat="55.785408" lon="26.525795">
<ele>144.017700</ele>
<time>2010-07-18T13:30:26Z</time>
<desc>lat.=55.785408, lon.=26.525795, Alt.=144.017700m. Speed=18.936001m/h.</desc>
<speed>5.260000</speed>
</trkpt>
<trkpt lat="55.785454" lon="26.525776">
<ele>143.798950</ele>
<time>2010-07-18T13:30:27Z</time>
<desc>lat.=55.785454, lon.=26.525776, Alt.=143.798950m. Speed=19.691999m/h.</desc>
<speed>5.470000</speed>
</trkpt>
<trkpt lat="55.785500" lon="26.525761">
<ele>143.560669</ele>
<time>2010-07-18T13:30:28Z</time>
<desc>lat.=55.785500, lon.=26.525761, Alt.=143.560669m. Speed=19.872000m/h.</desc>
<speed>5.520000</speed>
</trkpt>
<trkpt lat="55.785545" lon="26.525742">
<ele>143.439575</ele>
<time>2010-07-18T13:30:29Z</time>
<desc>lat.=55.785545, lon.=26.525742, Alt.=143.439575m. Speed=19.908001m/h.</desc>
<speed>5.530000</speed>
</trkpt>
<trkpt lat="55.785599" lon="26.525717">
<ele>143.330200</ele>
<time>2010-07-18T13:30:30Z</time>
<desc>lat.=55.785599, lon.=26.525717, Alt.=143.330200m. Speed=19.548000m/h.</desc>
<speed>5.430000</speed>
</trkpt>
<trkpt lat="55.785652" lon="26.525698">
<ele>143.232544</ele>
<time>2010-07-18T13:30:31Z</time>
<desc>lat.=55.785652, lon.=26.525698, Alt.=143.232544m. Speed=20.556000m/h.</desc>
<speed>5.710000</speed>
</trkpt>
<trkpt lat="55.785702" lon="26.525682">
<ele>143.177856</ele>
<time>2010-07-18T13:30:32Z</time>
<desc>lat.=55.785702, lon.=26.525682, Alt.=143.177856m. Speed=21.348000m/h.</desc>
<speed>5.930000</speed>
</trkpt>
<trkpt lat="55.785755" lon="26.525663">
<ele>143.185669</ele>
<time>2010-07-18T13:30:33Z</time>
<desc>lat.=55.785755, lon.=26.525663, Alt.=143.185669m. Speed=21.024000m/h.</desc>
<speed>5.840000</speed>
</trkpt>
<trkpt lat="55.785805" lon="26.525639">
<ele>143.021606</ele>
<time>2010-07-18T13:30:34Z</time>
<desc>lat.=55.785805, lon.=26.525639, Alt.=143.021606m. Speed=21.240000m/h.</desc>
<speed>5.900000</speed>
</trkpt>
<trkpt lat="55.785862" lon="26.525620">
<ele>142.775513</ele>
<time>2010-07-18T13:30:35Z</time>
<desc>lat.=55.785862, lon.=26.525620, Alt.=142.775513m. Speed=21.348000m/h.</desc>
<speed>5.930000</speed>
</trkpt>
<trkpt lat="55.785915" lon="26.525602">
<ele>142.451294</ele>
<time>2010-07-18T13:30:36Z</time>
<desc>lat.=55.785915, lon.=26.525602, Alt.=142.451294m. Speed=21.600000m/h.</desc>
<speed>6.000000</speed>
</trkpt>
<trkpt lat="55.785969" lon="26.525581">
<ele>142.330200</ele>
<time>2010-07-18T13:30:37Z</time>
<desc>lat.=55.785969, lon.=26.525581, Alt.=142.330200m. Speed=21.851999m/h.</desc>
<speed>6.070000</speed>
</trkpt>
<trkpt lat="55.786037" lon="26.525570">
<ele>141.853638</ele>
<time>2010-07-18T13:30:38Z</time>
<desc>lat.=55.786037, lon.=26.525570, Alt.=141.853638m. Speed=20.808001m/h.</desc>
<speed>5.780000</speed>
</trkpt>
<trkpt lat="55.786083" lon="26.525551">
<ele>141.970825</ele>
<time>2010-07-18T13:30:39Z</time>
<desc>lat.=55.786083, lon.=26.525551, Alt.=141.970825m. Speed=21.636000m/h.</desc>
<speed>6.010000</speed>
</trkpt>
<trkpt lat="55.786140" lon="26.525537">
<ele>141.877075</ele>
<time>2010-07-18T13:30:40Z</time>
<desc>lat.=55.786140, lon.=26.525537, Alt.=141.877075m. Speed=22.392000m/h.</desc>
<speed>6.220000</speed>
</trkpt>
<trkpt lat="55.786198" lon="26.525520">
<ele>141.713013</ele>
<time>2010-07-18T13:30:41Z</time>
<desc>lat.=55.786198, lon.=26.525520, Alt.=141.713013m. Speed=22.464001m/h.</desc>
<speed>6.240000</speed>
</trkpt>
<trkpt lat="55.786255" lon="26.525505">
<ele>141.423950</ele>
<time>2010-07-18T13:30:42Z</time>
<desc>lat.=55.786255, lon.=26.525505, Alt.=141.423950m. Speed=22.788000m/h.</desc>
<speed>6.330000</speed>
</trkpt>
<trkpt lat="55.786312" lon="26.525492">
<ele>141.181763</ele>
<time>2010-07-18T13:30:43Z</time>
<desc>lat.=55.786312, lon.=26.525492, Alt.=141.181763m. Speed=22.931999m/h.</desc>
<speed>6.370000</speed>
</trkpt>
<trkpt lat="55.786373" lon="26.525478">
<ele>141.080200</ele>
<time>2010-07-18T13:30:44Z</time>
<desc>lat.=55.786373, lon.=26.525478, Alt.=141.080200m. Speed=23.256001m/h.</desc>
<speed>6.460000</speed>
</trkpt>
<trkpt lat="55.786430" lon="26.525463">
<ele>140.802856</ele>
<time>2010-07-18T13:30:45Z</time>
<desc>lat.=55.786430, lon.=26.525463, Alt.=140.802856m. Speed=23.507999m/h.</desc>
<speed>6.530000</speed>
</trkpt>
<trkpt lat="55.786491" lon="26.525446">
<ele>140.545044</ele>
<time>2010-07-18T13:30:46Z</time>
<desc>lat.=55.786491, lon.=26.525446, Alt.=140.545044m. Speed=23.940001m/h.</desc>
<speed>6.650000</speed>
</trkpt>
<trkpt lat="55.786552" lon="26.525429">
<ele>140.298950</ele>
<time>2010-07-18T13:30:47Z</time>
<desc>lat.=55.786552, lon.=26.525429, Alt.=140.298950m. Speed=24.480000m/h.</desc>
<speed>6.800000</speed>
</trkpt>
<trkpt lat="55.786613" lon="26.525408">
<ele>140.130981</ele>
<time>2010-07-18T13:30:48Z</time>
<desc>lat.=55.786613, lon.=26.525408, Alt.=140.130981m. Speed=24.840000m/h.</desc>
<speed>6.900000</speed>
</trkpt>
<trkpt lat="55.786674" lon="26.525391">
<ele>139.900513</ele>
<time>2010-07-18T13:30:49Z</time>
<desc>lat.=55.786674, lon.=26.525391, Alt.=139.900513m. Speed=25.200001m/h.</desc>
<speed>7.000000</speed>
</trkpt>
<trkpt lat="55.786736" lon="26.525372">
<ele>139.798950</ele>
<time>2010-07-18T13:30:50Z</time>
<desc>lat.=55.786736, lon.=26.525372, Alt.=139.798950m. Speed=25.884001m/h.</desc>
<speed>7.190000</speed>
</trkpt>
<trkpt lat="55.786800" lon="26.525352">
<ele>139.537231</ele>
<time>2010-07-18T13:30:51Z</time>
<desc>lat.=55.786800, lon.=26.525352, Alt.=139.537231m. Speed=26.639999m/h.</desc>
<speed>7.400000</speed>
</trkpt>
<trkpt lat="55.786869" lon="26.525335">
<ele>139.326294</ele>
<time>2010-07-18T13:30:52Z</time>
<desc>lat.=55.786869, lon.=26.525335, Alt.=139.326294m. Speed=27.648001m/h.</desc>
<speed>7.680000</speed>
</trkpt>
<trkpt lat="55.786938" lon="26.525318">
<ele>139.076294</ele>
<time>2010-07-18T13:30:53Z</time>
<desc>lat.=55.786938, lon.=26.525318, Alt.=139.076294m. Speed=28.152000m/h.</desc>
<speed>7.820000</speed>
</trkpt>
<trkpt lat="55.787006" lon="26.525297">
<ele>138.912231</ele>
<time>2010-07-18T13:30:54Z</time>
<desc>lat.=55.787006, lon.=26.525297, Alt.=138.912231m. Speed=28.584000m/h.</desc>
<speed>7.940000</speed>
</trkpt>
<trkpt lat="55.787079" lon="26.525276">
<ele>138.502075</ele>
<time>2010-07-18T13:30:55Z</time>
<desc>lat.=55.787079, lon.=26.525276, Alt.=138.502075m. Speed=29.195999m/h.</desc>
<speed>8.110000</speed>
</trkpt>
<trkpt lat="55.787151" lon="26.525255">
<ele>138.009888</ele>
<time>2010-07-18T13:30:56Z</time>
<desc>lat.=55.787151, lon.=26.525255, Alt.=138.009888m. Speed=29.556000m/h.</desc>
<speed>8.210000</speed>
</trkpt>
<trkpt lat="55.787224" lon="26.525236">
<ele>137.701294</ele>
<time>2010-07-18T13:30:57Z</time>
<desc>lat.=55.787224, lon.=26.525236, Alt.=137.701294m. Speed=29.952000m/h.</desc>
<speed>8.320000</speed>
</trkpt>
<trkpt lat="55.787300" lon="26.525219">
<ele>137.291138</ele>
<time>2010-07-18T13:30:58Z</time>
<desc>lat.=55.787300, lon.=26.525219, Alt.=137.291138m. Speed=30.240000m/h.</desc>
<speed>8.400000</speed>
</trkpt>
<trkpt lat="55.787373" lon="26.525198">
<ele>137.002075</ele>
<time>2010-07-18T13:30:59Z</time>
<desc>lat.=55.787373, lon.=26.525198, Alt.=137.002075m. Speed=30.636000m/h.</desc>
<speed>8.510000</speed>
</trkpt>
<trkpt lat="55.787449" lon="26.525181">
<ele>136.658325</ele>
<time>2010-07-18T13:31:00Z</time>
<desc>lat.=55.787449, lon.=26.525181, Alt.=136.658325m. Speed=31.068001m/h.</desc>
<speed>8.630000</speed>
</trkpt>
<trkpt lat="55.787525" lon="26.525164">
<ele>136.470825</ele>
<time>2010-07-18T13:31:01Z</time>
<desc>lat.=55.787525, lon.=26.525164, Alt.=136.470825m. Speed=31.427999m/h.</desc>
<speed>8.730000</speed>
</trkpt>
<trkpt lat="55.787605" lon="26.525146">
<ele>136.130981</ele>
<time>2010-07-18T13:31:02Z</time>
<desc>lat.=55.787605, lon.=26.525146, Alt.=136.130981m. Speed=31.896000m/h.</desc>
<speed>8.860000</speed>
</trkpt>
<trkpt lat="55.787685" lon="26.525124">
<ele>135.966919</ele>
<time>2010-07-18T13:31:03Z</time>
<desc>lat.=55.787685, lon.=26.525124, Alt.=135.966919m. Speed=32.183998m/h.</desc>
<speed>8.939999</speed>
</trkpt>
<trkpt lat="55.787766" lon="26.525099">
<ele>135.509888</ele>
<time>2010-07-18T13:31:04Z</time>
<desc>lat.=55.787766, lon.=26.525099, Alt.=135.509888m. Speed=33.192001m/h.</desc>
<speed>9.220000</speed>
</trkpt>
<trkpt lat="55.787846" lon="26.525085">
<ele>135.025513</ele>
<time>2010-07-18T13:31:05Z</time>
<desc>lat.=55.787846, lon.=26.525085, Alt.=135.025513m. Speed=35.172001m/h.</desc>
<speed>9.770000</speed>
</trkpt>
<trkpt lat="55.787937" lon="26.525072">
<ele>134.545044</ele>
<time>2010-07-18T13:31:06Z</time>
<desc>lat.=55.787937, lon.=26.525072, Alt.=134.545044m. Speed=36.000000m/h.</desc>
<speed>10.000000</speed>
</trkpt>
<trkpt lat="55.788025" lon="26.525061">
<ele>134.177856</ele>
<time>2010-07-18T13:31:07Z</time>
<desc>lat.=55.788025, lon.=26.525061, Alt.=134.177856m. Speed=36.936001m/h.</desc>
<speed>10.260000</speed>
</trkpt>
<trkpt lat="55.788120" lon="26.525047">
<ele>134.041138</ele>
<time>2010-07-18T13:31:08Z</time>
<desc>lat.=55.788120, lon.=26.525047, Alt.=134.041138m. Speed=38.231998m/h.</desc>
<speed>10.620000</speed>
</trkpt>
<trkpt lat="55.788219" lon="26.525038">
<ele>133.830200</ele>
<time>2010-07-18T13:31:09Z</time>
<desc>lat.=55.788219, lon.=26.525038, Alt.=133.830200m. Speed=38.807999m/h.</desc>
<speed>10.780000</speed>
</trkpt>
<trkpt lat="55.788315" lon="26.525026">
<ele>133.541138</ele>
<time>2010-07-18T13:31:10Z</time>
<desc>lat.=55.788315, lon.=26.525026, Alt.=133.541138m. Speed=38.484001m/h.</desc>
<speed>10.690000</speed>
</trkpt>
<trkpt lat="55.788410" lon="26.525015">
<ele>133.224731</ele>
<time>2010-07-18T13:31:11Z</time>
<desc>lat.=55.788410, lon.=26.525015, Alt.=133.224731m. Speed=38.448002m/h.</desc>
<speed>10.680001</speed>
</trkpt>
<trkpt lat="55.788509" lon="26.525003">
<ele>132.912231</ele>
<time>2010-07-18T13:31:12Z</time>
<desc>lat.=55.788509, lon.=26.525003, Alt.=132.912231m. Speed=38.448002m/h.</desc>
<speed>10.680001</speed>
</trkpt>
<trkpt lat="55.788601" lon="26.524994">
<ele>132.529419</ele>
<time>2010-07-18T13:31:13Z</time>
<desc>lat.=55.788601, lon.=26.524994, Alt.=132.529419m. Speed=38.411999m/h.</desc>
<speed>10.670000</speed>
</trkpt>
<trkpt lat="55.788696" lon="26.524986">
<ele>132.130981</ele>
<time>2010-07-18T13:31:14Z</time>
<desc>lat.=55.788696, lon.=26.524986, Alt.=132.130981m. Speed=38.520000m/h.</desc>
<speed>10.700000</speed>
</trkpt>
<trkpt lat="55.788795" lon="26.524981">
<ele>131.791138</ele>
<time>2010-07-18T13:31:15Z</time>
<desc>lat.=55.788795, lon.=26.524981, Alt.=131.791138m. Speed=38.556000m/h.</desc>
<speed>10.710000</speed>
</trkpt>
<trkpt lat="55.788891" lon="26.524977">
<ele>131.443481</ele>
<time>2010-07-18T13:31:16Z</time>
<desc>lat.=55.788891, lon.=26.524977, Alt.=131.443481m. Speed=38.375999m/h.</desc>
<speed>10.660000</speed>
</trkpt>
<trkpt lat="55.788986" lon="26.524975">
<ele>131.127075</ele>
<time>2010-07-18T13:31:17Z</time>
<desc>lat.=55.788986, lon.=26.524975, Alt.=131.127075m. Speed=38.411999m/h.</desc>
<speed>10.670000</speed>
</trkpt>
<trkpt lat="55.789085" lon="26.524975">
<ele>130.900513</ele>
<time>2010-07-18T13:31:18Z</time>
<desc>lat.=55.789085, lon.=26.524975, Alt.=130.900513m. Speed=38.411999m/h.</desc>
<speed>10.670000</speed>
</trkpt>
<trkpt lat="55.789185" lon="26.524977">
<ele>130.740356</ele>
<time>2010-07-18T13:31:19Z</time>
<desc>lat.=55.789185, lon.=26.524977, Alt.=130.740356m. Speed=38.340000m/h.</desc>
<speed>10.650000</speed>
</trkpt>
<trkpt lat="55.789280" lon="26.524975">
<ele>130.502075</ele>
<time>2010-07-18T13:31:20Z</time>
<desc>lat.=55.789280, lon.=26.524975, Alt.=130.502075m. Speed=38.231998m/h.</desc>
<speed>10.620000</speed>
</trkpt>
<trkpt lat="55.789375" lon="26.524975">
<ele>130.275513</ele>
<time>2010-07-18T13:31:21Z</time>
<desc>lat.=55.789375, lon.=26.524975, Alt.=130.275513m. Speed=38.160000m/h.</desc>
<speed>10.600000</speed>
</trkpt>
<trkpt lat="55.789474" lon="26.524975">
<ele>130.173950</ele>
<time>2010-07-18T13:31:22Z</time>
<desc>lat.=55.789474, lon.=26.524975, Alt.=130.173950m. Speed=38.015999m/h.</desc>
<speed>10.560000</speed>
</trkpt>
<trkpt lat="55.789570" lon="26.524975">
<ele>129.853638</ele>
<time>2010-07-18T13:31:23Z</time>
<desc>lat.=55.789570, lon.=26.524975, Alt.=129.853638m. Speed=37.835999m/h.</desc>
<speed>10.510000</speed>
</trkpt>
<trkpt lat="55.789661" lon="26.524973">
<ele>129.576294</ele>
<time>2010-07-18T13:31:24Z</time>
<desc>lat.=55.789661, lon.=26.524973, Alt.=129.576294m. Speed=37.655998m/h.</desc>
<speed>10.460000</speed>
</trkpt>
<trkpt lat="55.789757" lon="26.524973">
<ele>129.357544</ele>
<time>2010-07-18T13:31:25Z</time>
<desc>lat.=55.789757, lon.=26.524973, Alt.=129.357544m. Speed=37.332001m/h.</desc>
<speed>10.370000</speed>
</trkpt>
<trkpt lat="55.789852" lon="26.524973">
<ele>129.177856</ele>
<time>2010-07-18T13:31:26Z</time>
<desc>lat.=55.789852, lon.=26.524973, Alt.=129.177856m. Speed=37.152000m/h.</desc>
<speed>10.320000</speed>
</trkpt>
<trkpt lat="55.789944" lon="26.524975">
<ele>128.998169</ele>
<time>2010-07-18T13:31:27Z</time>
<desc>lat.=55.789944, lon.=26.524975, Alt.=128.998169m. Speed=36.936001m/h.</desc>
<speed>10.260000</speed>
</trkpt>
<trkpt lat="55.790035" lon="26.524973">
<ele>128.873169</ele>
<time>2010-07-18T13:31:28Z</time>
<desc>lat.=55.790035, lon.=26.524973, Alt.=128.873169m. Speed=36.431999m/h.</desc>
<speed>10.120000</speed>
</trkpt>
<trkpt lat="55.790127" lon="26.524975">
<ele>128.845825</ele>
<time>2010-07-18T13:31:29Z</time>
<desc>lat.=55.790127, lon.=26.524975, Alt.=128.845825m. Speed=36.431999m/h.</desc>
<speed>10.120000</speed>
</trkpt>
<trkpt lat="55.790218" lon="26.524979">
<ele>128.666138</ele>
<time>2010-07-18T13:31:30Z</time>
<desc>lat.=55.790218, lon.=26.524979, Alt.=128.666138m. Speed=36.071999m/h.</desc>
<speed>10.020000</speed>
</trkpt>
<trkpt lat="55.790310" lon="26.524981">
<ele>128.486450</ele>
<time>2010-07-18T13:31:31Z</time>
<desc>lat.=55.790310, lon.=26.524981, Alt.=128.486450m. Speed=35.855999m/h.</desc>
<speed>9.960000</speed>
</trkpt>
<trkpt lat="55.790401" lon="26.524986">
<ele>128.295044</ele>
<time>2010-07-18T13:31:32Z</time>
<desc>lat.=55.790401, lon.=26.524986, Alt.=128.295044m. Speed=35.604000m/h.</desc>
<speed>9.890000</speed>
</trkpt>
<trkpt lat="55.790485" lon="26.524994">
<ele>128.048950</ele>
<time>2010-07-18T13:31:33Z</time>
<desc>lat.=55.790485, lon.=26.524994, Alt.=128.048950m. Speed=34.056000m/h.</desc>
<speed>9.460000</speed>
</trkpt>
<trkpt lat="55.790573" lon="26.525005">
<ele>127.975647</ele>
<time>2010-07-18T13:31:34Z</time>
<desc>lat.=55.790573, lon.=26.525005, Alt.=127.975647m. Speed=35.136002m/h.</desc>
<speed>9.760000</speed>
</trkpt>
<trkpt lat="55.790661" lon="26.525021">
<ele>128.029419</ele>
<time>2010-07-18T13:31:35Z</time>
<desc>lat.=55.790661, lon.=26.525021, Alt.=128.029419m. Speed=34.919998m/h.</desc>
<speed>9.699999</speed>
</trkpt>
<trkpt lat="55.790749" lon="26.525036">
<ele>127.856506</ele>
<time>2010-07-18T13:31:36Z</time>
<desc>lat.=55.790749, lon.=26.525036, Alt.=127.856506m. Speed=34.596001m/h.</desc>
<speed>9.610000</speed>
</trkpt>
<trkpt lat="55.790833" lon="26.525047">
<ele>127.745178</ele>
<time>2010-07-18T13:31:37Z</time>
<desc>lat.=55.790833, lon.=26.525047, Alt.=127.745178m. Speed=33.731998m/h.</desc>
<speed>9.370000</speed>
</trkpt>
<trkpt lat="55.790920" lon="26.525055">
<ele>127.702209</ele>
<time>2010-07-18T13:31:38Z</time>
<desc>lat.=55.790920, lon.=26.525055, Alt.=127.702209m. Speed=34.523998m/h.</desc>
<speed>9.590000</speed>
</trkpt>
<trkpt lat="55.791000" lon="26.525059">
<ele>127.532288</ele>
<time>2010-07-18T13:31:39Z</time>
<desc>lat.=55.791000, lon.=26.525059, Alt.=127.532288m. Speed=32.436001m/h.</desc>
<speed>9.010000</speed>
</trkpt>
<trkpt lat="55.791077" lon="26.525063">
<ele>126.987366</ele>
<time>2010-07-18T13:31:40Z</time>
<desc>lat.=55.791077, lon.=26.525063, Alt.=126.987366m. Speed=31.896000m/h.</desc>
<speed>8.860000</speed>
</trkpt>
<trkpt lat="55.791157" lon="26.525061">
<ele>126.258850</ele>
<time>2010-07-18T13:31:41Z</time>
<desc>lat.=55.791157, lon.=26.525061, Alt.=126.258850m. Speed=35.784000m/h.</desc>
<speed>9.940000</speed>
</trkpt>
<trkpt lat="55.791252" lon="26.525066">
<ele>125.928772</ele>
<time>2010-07-18T13:31:42Z</time>
<desc>lat.=55.791252, lon.=26.525066, Alt.=125.928772m. Speed=35.784000m/h.</desc>
<speed>9.940000</speed>
</trkpt>
<trkpt lat="55.791340" lon="26.525066">
<ele>125.608459</ele>
<time>2010-07-18T13:31:43Z</time>
<desc>lat.=55.791340, lon.=26.525066, Alt.=125.608459m. Speed=34.164001m/h.</desc>
<speed>9.490000</speed>
</trkpt>
<trkpt lat="55.791428" lon="26.525076">
<ele>125.215881</ele>
<time>2010-07-18T13:31:44Z</time>
<desc>lat.=55.791428, lon.=26.525076, Alt.=125.215881m. Speed=34.523998m/h.</desc>
<speed>9.590000</speed>
</trkpt>
<trkpt lat="55.791515" lon="26.525091">
<ele>125.278381</ele>
<time>2010-07-18T13:31:45Z</time>
<desc>lat.=55.791515, lon.=26.525091, Alt.=125.278381m. Speed=35.568001m/h.</desc>
<speed>9.880000</speed>
</trkpt>
<trkpt lat="55.791603" lon="26.525103">
<ele>125.030334</ele>
<time>2010-07-18T13:31:46Z</time>
<desc>lat.=55.791603, lon.=26.525103, Alt.=125.030334m. Speed=34.740002m/h.</desc>
<speed>9.650000</speed>
</trkpt>
<trkpt lat="55.791691" lon="26.525116">
<ele>125.061584</ele>
<time>2010-07-18T13:31:47Z</time>
<desc>lat.=55.791691, lon.=26.525116, Alt.=125.061584m. Speed=34.812000m/h.</desc>
<speed>9.670000</speed>
</trkpt>
<trkpt lat="55.791782" lon="26.525126">
<ele>125.120178</ele>
<time>2010-07-18T13:31:48Z</time>
<desc>lat.=55.791782, lon.=26.525126, Alt.=125.120178m. Speed=33.804001m/h.</desc>
<speed>9.390000</speed>
</trkpt>
<trkpt lat="55.791870" lon="26.525131">
<ele>124.807678</ele>
<time>2010-07-18T13:31:49Z</time>
<desc>lat.=55.791870, lon.=26.525131, Alt.=124.807678m. Speed=33.372002m/h.</desc>
<speed>9.270000</speed>
</trkpt>
<trkpt lat="55.791954" lon="26.525137">
<ele>124.612366</ele>
<time>2010-07-18T13:31:50Z</time>
<desc>lat.=55.791954, lon.=26.525137, Alt.=124.612366m. Speed=32.939999m/h.</desc>
<speed>9.150000</speed>
</trkpt>
<trkpt lat="55.792034" lon="26.525137">
<ele>124.264709</ele>
<time>2010-07-18T13:31:51Z</time>
<desc>lat.=55.792034, lon.=26.525137, Alt.=124.264709m. Speed=32.436001m/h.</desc>
<speed>9.010000</speed>
</trkpt>
<trkpt lat="55.792118" lon="26.525137">
<ele>124.180725</ele>
<time>2010-07-18T13:31:52Z</time>
<desc>lat.=55.792118, lon.=26.525137, Alt.=124.180725m. Speed=31.968000m/h.</desc>
<speed>8.880000</speed>
</trkpt>
<trkpt lat="55.792194" lon="26.525135">
<ele>124.313538</ele>
<time>2010-07-18T13:31:53Z</time>
<desc>lat.=55.792194, lon.=26.525135, Alt.=124.313538m. Speed=31.680000m/h.</desc>
<speed>8.800000</speed>
</trkpt>
<trkpt lat="55.792274" lon="26.525141">
<ele>124.461975</ele>
<time>2010-07-18T13:31:54Z</time>
<desc>lat.=55.792274, lon.=26.525141, Alt.=124.461975m. Speed=31.068001m/h.</desc>
<speed>8.630000</speed>
</trkpt>
<trkpt lat="55.792351" lon="26.525145">
<ele>124.172913</ele>
<time>2010-07-18T13:31:55Z</time>
<desc>lat.=55.792351, lon.=26.525145, Alt.=124.172913m. Speed=30.672001m/h.</desc>
<speed>8.520000</speed>
</trkpt>
<trkpt lat="55.792427" lon="26.525146">
<ele>123.881897</ele>
<time>2010-07-18T13:31:56Z</time>
<desc>lat.=55.792427, lon.=26.525146, Alt.=123.881897m. Speed=30.059999m/h.</desc>
<speed>8.350000</speed>
</trkpt>
<trkpt lat="55.792500" lon="26.525150">
<ele>123.557678</ele>
<time>2010-07-18T13:31:57Z</time>
<desc>lat.=55.792500, lon.=26.525150, Alt.=123.557678m. Speed=29.375999m/h.</desc>
<speed>8.160000</speed>
</trkpt>
<trkpt lat="55.792572" lon="26.525154">
<ele>123.579163</ele>
<time>2010-07-18T13:31:58Z</time>
<desc>lat.=55.792572, lon.=26.525154, Alt.=123.579163m. Speed=29.124001m/h.</desc>
<speed>8.090000</speed>
</trkpt>
<trkpt lat="55.792645" lon="26.525162">
<ele>122.803772</ele>
<time>2010-07-18T13:31:59Z</time>
<desc>lat.=55.792645, lon.=26.525162, Alt.=122.803772m. Speed=27.504000m/h.</desc>
<speed>7.640000</speed>
</trkpt>
<trkpt lat="55.792713" lon="26.525156">
<ele>122.627991</ele>
<time>2010-07-18T13:32:00Z</time>
<desc>lat.=55.792713, lon.=26.525156, Alt.=122.627991m. Speed=28.007999m/h.</desc>
<speed>7.780000</speed>
</trkpt>
<trkpt lat="55.792786" lon="26.525158">
<ele>122.581116</ele>
<time>2010-07-18T13:32:01Z</time>
<desc>lat.=55.792786, lon.=26.525158, Alt.=122.581116m. Speed=28.007999m/h.</desc>
<speed>7.780000</speed>
</trkpt>
<trkpt lat="55.792850" lon="26.525160">
<ele>122.538147</ele>
<time>2010-07-18T13:32:02Z</time>
<desc>lat.=55.792850, lon.=26.525160, Alt.=122.538147m. Speed=28.080000m/h.</desc>
<speed>7.800000</speed>
</trkpt>
<trkpt lat="55.792927" lon="26.525162">
<ele>122.420959</ele>
<time>2010-07-18T13:32:03Z</time>
<desc>lat.=55.792927, lon.=26.525162, Alt.=122.420959m. Speed=29.160000m/h.</desc>
<speed>8.100000</speed>
</trkpt>
<trkpt lat="55.792999" lon="26.525160">
<ele>122.469788</ele>
<time>2010-07-18T13:32:04Z</time>
<desc>lat.=55.792999, lon.=26.525160, Alt.=122.469788m. Speed=29.160000m/h.</desc>
<speed>8.100000</speed>
</trkpt>
<trkpt lat="55.793072" lon="26.525154">
<ele>122.899475</ele>
<time>2010-07-18T13:32:05Z</time>
<desc>lat.=55.793072, lon.=26.525154, Alt.=122.899475m. Speed=29.520000m/h.</desc>
<speed>8.200000</speed>
</trkpt>
<trkpt lat="55.793144" lon="26.525152">
<ele>122.725647</ele>
<time>2010-07-18T13:32:06Z</time>
<desc>lat.=55.793144, lon.=26.525152, Alt.=122.725647m. Speed=29.952000m/h.</desc>
<speed>8.320000</speed>
</trkpt>
<trkpt lat="55.793221" lon="26.525150">
<ele>122.596741</ele>
<time>2010-07-18T13:32:07Z</time>
<desc>lat.=55.793221, lon.=26.525150, Alt.=122.596741m. Speed=30.240000m/h.</desc>
<speed>8.400000</speed>
</trkpt>
<trkpt lat="55.793293" lon="26.525148">
<ele>122.278381</ele>
<time>2010-07-18T13:32:08Z</time>
<desc>lat.=55.793293, lon.=26.525148, Alt.=122.278381m. Speed=30.275999m/h.</desc>
<speed>8.410000</speed>
</trkpt>
<trkpt lat="55.793369" lon="26.525146">
<ele>122.252991</ele>
<time>2010-07-18T13:32:09Z</time>
<desc>lat.=55.793369, lon.=26.525146, Alt.=122.252991m. Speed=29.628000m/h.</desc>
<speed>8.230000</speed>
</trkpt>
<trkpt lat="55.793446" lon="26.525141">
<ele>122.045959</ele>
<time>2010-07-18T13:32:10Z</time>
<desc>lat.=55.793446, lon.=26.525141, Alt.=122.045959m. Speed=29.232000m/h.</desc>
<speed>8.120000</speed>
</trkpt>
<trkpt lat="55.793522" lon="26.525145">
<ele>121.844788</ele>
<time>2010-07-18T13:32:11Z</time>
<desc>lat.=55.793522, lon.=26.525145, Alt.=121.844788m. Speed=28.872000m/h.</desc>
<speed>8.020000</speed>
</trkpt>
<trkpt lat="55.793594" lon="26.525141">
<ele>121.684631</ele>
<time>2010-07-18T13:32:12Z</time>
<desc>lat.=55.793594, lon.=26.525141, Alt.=121.684631m. Speed=28.511999m/h.</desc>
<speed>7.920000</speed>
</trkpt>
<trkpt lat="55.793667" lon="26.525141">
<ele>121.403381</ele>
<time>2010-07-18T13:32:13Z</time>
<desc>lat.=55.793667, lon.=26.525141, Alt.=121.403381m. Speed=28.296000m/h.</desc>
<speed>7.860000</speed>
</trkpt>
<trkpt lat="55.793739" lon="26.525133">
<ele>121.389709</ele>
<time>2010-07-18T13:32:14Z</time>
<desc>lat.=55.793739, lon.=26.525133, Alt.=121.389709m. Speed=28.152000m/h.</desc>
<speed>7.820000</speed>
</trkpt>
<trkpt lat="55.793808" lon="26.525126">
<ele>121.428772</ele>
<time>2010-07-18T13:32:15Z</time>
<desc>lat.=55.793808, lon.=26.525126, Alt.=121.428772m. Speed=28.656000m/h.</desc>
<speed>7.960000</speed>
</trkpt>
<trkpt lat="55.793877" lon="26.525116">
<ele>121.206116</ele>
<time>2010-07-18T13:32:16Z</time>
<desc>lat.=55.793877, lon.=26.525116, Alt.=121.206116m. Speed=29.052000m/h.</desc>
<speed>8.070000</speed>
</trkpt>
<trkpt lat="55.793949" lon="26.525110">
<ele>121.223694</ele>
<time>2010-07-18T13:32:17Z</time>
<desc>lat.=55.793949, lon.=26.525110, Alt.=121.223694m. Speed=28.872000m/h.</desc>
<speed>8.020000</speed>
</trkpt>
<trkpt lat="55.794022" lon="26.525106">
<ele>120.975647</ele>
<time>2010-07-18T13:32:18Z</time>
<desc>lat.=55.794022, lon.=26.525106, Alt.=120.975647m. Speed=29.304001m/h.</desc>
<speed>8.140000</speed>
</trkpt>
<trkpt lat="55.794094" lon="26.525099">
<ele>120.993225</ele>
<time>2010-07-18T13:32:19Z</time>
<desc>lat.=55.794094, lon.=26.525099, Alt.=120.993225m. Speed=28.980000m/h.</desc>
<speed>8.050000</speed>
</trkpt>
<trkpt lat="55.794167" lon="26.525089">
<ele>120.848694</ele>
<time>2010-07-18T13:32:20Z</time>
<desc>lat.=55.794167, lon.=26.525089, Alt.=120.848694m. Speed=28.944000m/h.</desc>
<speed>8.040000</speed>
</trkpt>
<trkpt lat="55.794235" lon="26.525084">
<ele>120.815491</ele>
<time>2010-07-18T13:32:21Z</time>
<desc>lat.=55.794235, lon.=26.525084, Alt.=120.815491m. Speed=28.440001m/h.</desc>
<speed>7.900000</speed>
</trkpt>
<trkpt lat="55.794308" lon="26.525078">
<ele>120.670959</ele>
<time>2010-07-18T13:32:22Z</time>
<desc>lat.=55.794308, lon.=26.525078, Alt.=120.670959m. Speed=27.468000m/h.</desc>
<speed>7.630000</speed>
</trkpt>
<trkpt lat="55.794376" lon="26.525070">
<ele>120.667053</ele>
<time>2010-07-18T13:32:23Z</time>
<desc>lat.=55.794376, lon.=26.525070, Alt.=120.667053m. Speed=27.323999m/h.</desc>
<speed>7.590000</speed>
</trkpt>
<trkpt lat="55.794441" lon="26.525061">
<ele>120.743225</ele>
<time>2010-07-18T13:32:24Z</time>
<desc>lat.=55.794441, lon.=26.525061, Alt.=120.743225m. Speed=26.243999m/h.</desc>
<speed>7.290000</speed>
</trkpt>
<trkpt lat="55.794514" lon="26.525049">
<ele>120.991272</ele>
<time>2010-07-18T13:32:25Z</time>
<desc>lat.=55.794514, lon.=26.525049, Alt.=120.991272m. Speed=27.143999m/h.</desc>
<speed>7.540000</speed>
</trkpt>
<trkpt lat="55.794579" lon="26.525042">
<ele>121.182678</ele>
<time>2010-07-18T13:32:26Z</time>
<desc>lat.=55.794579, lon.=26.525042, Alt.=121.182678m. Speed=25.559999m/h.</desc>
<speed>7.100000</speed>
</trkpt>
<trkpt lat="55.794640" lon="26.525026">
<ele>121.264709</ele>
<time>2010-07-18T13:32:27Z</time>
<desc>lat.=55.794640, lon.=26.525026, Alt.=121.264709m. Speed=24.480000m/h.</desc>
<speed>6.800000</speed>
</trkpt>
<trkpt lat="55.794704" lon="26.525019">
<ele>121.141663</ele>
<time>2010-07-18T13:32:28Z</time>
<desc>lat.=55.794704, lon.=26.525019, Alt.=121.141663m. Speed=26.496000m/h.</desc>
<speed>7.360000</speed>
</trkpt>
<trkpt lat="55.794773" lon="26.525011">
<ele>121.065491</ele>
<time>2010-07-18T13:32:29Z</time>
<desc>lat.=55.794773, lon.=26.525011, Alt.=121.065491m. Speed=25.740000m/h.</desc>
<speed>7.150000</speed>
</trkpt>
<trkpt lat="55.794838" lon="26.524998">
<ele>120.930725</ele>
<time>2010-07-18T13:32:30Z</time>
<desc>lat.=55.794838, lon.=26.524998, Alt.=120.930725m. Speed=25.488001m/h.</desc>
<speed>7.080000</speed>
</trkpt>
<trkpt lat="55.794899" lon="26.524982">
<ele>120.919006</ele>
<time>2010-07-18T13:32:31Z</time>
<desc>lat.=55.794899, lon.=26.524982, Alt.=120.919006m. Speed=24.264000m/h.</desc>
<speed>6.740000</speed>
</trkpt>
<trkpt lat="55.794956" lon="26.524973">
<ele>120.954163</ele>
<time>2010-07-18T13:32:32Z</time>
<desc>lat.=55.794956, lon.=26.524973, Alt.=120.954163m. Speed=25.200001m/h.</desc>
<speed>7.000000</speed>
</trkpt>
<trkpt lat="55.795021" lon="26.524963">
<ele>121.065491</ele>
<time>2010-07-18T13:32:33Z</time>
<desc>lat.=55.795021, lon.=26.524963, Alt.=121.065491m. Speed=24.552000m/h.</desc>
<speed>6.820000</speed>
</trkpt>
<trkpt lat="55.795086" lon="26.524958">
<ele>121.260803</ele>
<time>2010-07-18T13:32:34Z</time>
<desc>lat.=55.795086, lon.=26.524958, Alt.=121.260803m. Speed=24.912001m/h.</desc>
<speed>6.920000</speed>
</trkpt>
<trkpt lat="55.795143" lon="26.524946">
<ele>121.502991</ele>
<time>2010-07-18T13:32:35Z</time>
<desc>lat.=55.795143, lon.=26.524946, Alt.=121.502991m. Speed=24.048000m/h.</desc>
<speed>6.680000</speed>
</trkpt>
<trkpt lat="55.795208" lon="26.524937">
<ele>121.446350</ele>
<time>2010-07-18T13:32:36Z</time>
<desc>lat.=55.795208, lon.=26.524937, Alt.=121.446350m. Speed=24.624001m/h.</desc>
<speed>6.840000</speed>
</trkpt>
<trkpt lat="55.795269" lon="26.524929">
<ele>121.510803</ele>
<time>2010-07-18T13:32:37Z</time>
<desc>lat.=55.795269, lon.=26.524929, Alt.=121.510803m. Speed=24.732000m/h.</desc>
<speed>6.870000</speed>
</trkpt>
<trkpt lat="55.795334" lon="26.524925">
<ele>121.399475</ele>
<time>2010-07-18T13:32:38Z</time>
<desc>lat.=55.795334, lon.=26.524925, Alt.=121.399475m. Speed=23.652000m/h.</desc>
<speed>6.570000</speed>
</trkpt>
<trkpt lat="55.795399" lon="26.524918">
<ele>121.506897</ele>
<time>2010-07-18T13:32:39Z</time>
<desc>lat.=55.795399, lon.=26.524918, Alt.=121.506897m. Speed=24.552000m/h.</desc>
<speed>6.820000</speed>
</trkpt>
<trkpt lat="55.795460" lon="26.524910">
<ele>121.528381</ele>
<time>2010-07-18T13:32:40Z</time>
<desc>lat.=55.795460, lon.=26.524910, Alt.=121.528381m. Speed=25.344000m/h.</desc>
<speed>7.040000</speed>
</trkpt>
<trkpt lat="55.795521" lon="26.524900">
<ele>121.684631</ele>
<time>2010-07-18T13:32:41Z</time>
<desc>lat.=55.795521, lon.=26.524900, Alt.=121.684631m. Speed=23.868000m/h.</desc>
<speed>6.630000</speed>
</trkpt>
<trkpt lat="55.795582" lon="26.524893">
<ele>121.678772</ele>
<time>2010-07-18T13:32:42Z</time>
<desc>lat.=55.795582, lon.=26.524893, Alt.=121.678772m. Speed=25.056000m/h.</desc>
<speed>6.960000</speed>
</trkpt>
<trkpt lat="55.795643" lon="26.524883">
<ele>121.749084</ele>
<time>2010-07-18T13:32:43Z</time>
<desc>lat.=55.795643, lon.=26.524883, Alt.=121.749084m. Speed=24.336000m/h.</desc>
<speed>6.760000</speed>
</trkpt>
<trkpt lat="55.795700" lon="26.524874">
<ele>121.815491</ele>
<time>2010-07-18T13:32:44Z</time>
<desc>lat.=55.795700, lon.=26.524874, Alt.=121.815491m. Speed=23.796000m/h.</desc>
<speed>6.610000</speed>
</trkpt>
<trkpt lat="55.795757" lon="26.524864">
<ele>121.940491</ele>
<time>2010-07-18T13:32:45Z</time>
<desc>lat.=55.795757, lon.=26.524864, Alt.=121.940491m. Speed=24.336000m/h.</desc>
<speed>6.760000</speed>
</trkpt>
<trkpt lat="55.795818" lon="26.524860">
<ele>122.073303</ele>
<time>2010-07-18T13:32:46Z</time>
<desc>lat.=55.795818, lon.=26.524860, Alt.=122.073303m. Speed=24.732000m/h.</desc>
<speed>6.870000</speed>
</trkpt>
<trkpt lat="55.795879" lon="26.524853">
<ele>122.135803</ele>
<time>2010-07-18T13:32:47Z</time>
<desc>lat.=55.795879, lon.=26.524853, Alt.=122.135803m. Speed=24.732000m/h.</desc>
<speed>6.870000</speed>
</trkpt>
<trkpt lat="55.795940" lon="26.524849">
<ele>121.995178</ele>
<time>2010-07-18T13:32:48Z</time>
<desc>lat.=55.795940, lon.=26.524849, Alt.=121.995178m. Speed=24.552000m/h.</desc>
<speed>6.820000</speed>
</trkpt>
<trkpt lat="55.796005" lon="26.524845">
<ele>121.903381</ele>
<time>2010-07-18T13:32:49Z</time>
<desc>lat.=55.796005, lon.=26.524845, Alt.=121.903381m. Speed=25.884001m/h.</desc>
<speed>7.190000</speed>
</trkpt>
<trkpt lat="55.796066" lon="26.524843">
<ele>121.715881</ele>
<time>2010-07-18T13:32:50Z</time>
<desc>lat.=55.796066, lon.=26.524843, Alt.=121.715881m. Speed=24.372000m/h.</desc>
<speed>6.770000</speed>
</trkpt>
<trkpt lat="55.796127" lon="26.524836">
<ele>121.563538</ele>
<time>2010-07-18T13:32:51Z</time>
<desc>lat.=55.796127, lon.=26.524836, Alt.=121.563538m. Speed=24.587999m/h.</desc>
<speed>6.830000</speed>
</trkpt>
<trkpt lat="55.796192" lon="26.524828">
<ele>121.403381</ele>
<time>2010-07-18T13:32:52Z</time>
<desc>lat.=55.796192, lon.=26.524828, Alt.=121.403381m. Speed=24.084000m/h.</desc>
<speed>6.690000</speed>
</trkpt>
<trkpt lat="55.796249" lon="26.524817">
<ele>121.354553</ele>
<time>2010-07-18T13:32:53Z</time>
<desc>lat.=55.796249, lon.=26.524817, Alt.=121.354553m. Speed=20.808001m/h.</desc>
<speed>5.780000</speed>
</trkpt>
<trkpt lat="55.796303" lon="26.524811">
<ele>121.264709</ele>
<time>2010-07-18T13:32:54Z</time>
<desc>lat.=55.796303, lon.=26.524811, Alt.=121.264709m. Speed=21.312000m/h.</desc>
<speed>5.920000</speed>
</trkpt>
<trkpt lat="55.796352" lon="26.524803">
<ele>120.950256</ele>
<time>2010-07-18T13:32:55Z</time>
<desc>lat.=55.796352, lon.=26.524803, Alt.=120.950256m. Speed=20.483999m/h.</desc>
<speed>5.690000</speed>
</trkpt>
<trkpt lat="55.796406" lon="26.524792">
<ele>121.272522</ele>
<time>2010-07-18T13:32:56Z</time>
<desc>lat.=55.796406, lon.=26.524792, Alt.=121.272522m. Speed=18.360001m/h.</desc>
<speed>5.100000</speed>
</trkpt>
<trkpt lat="55.796455" lon="26.524790">
<ele>121.678772</ele>
<time>2010-07-18T13:32:57Z</time>
<desc>lat.=55.796455, lon.=26.524790, Alt.=121.678772m. Speed=22.139999m/h.</desc>
<speed>6.150000</speed>
</trkpt>
<trkpt lat="55.796509" lon="26.524786">
<ele>121.870178</ele>
<time>2010-07-18T13:32:58Z</time>
<desc>lat.=55.796509, lon.=26.524786, Alt.=121.870178m. Speed=20.556000m/h.</desc>
<speed>5.710000</speed>
</trkpt>
<trkpt lat="55.796562" lon="26.524773">
<ele>122.165100</ele>
<time>2010-07-18T13:32:59Z</time>
<desc>lat.=55.796562, lon.=26.524773, Alt.=122.165100m. Speed=21.132000m/h.</desc>
<speed>5.870000</speed>
</trkpt>
<trkpt lat="55.796616" lon="26.524765">
<ele>122.292053</ele>
<time>2010-07-18T13:33:00Z</time>
<desc>lat.=55.796616, lon.=26.524765, Alt.=122.292053m. Speed=21.348000m/h.</desc>
<speed>5.930000</speed>
</trkpt>
<trkpt lat="55.796665" lon="26.524757">
<ele>122.809631</ele>
<time>2010-07-18T13:33:01Z</time>
<desc>lat.=55.796665, lon.=26.524757, Alt.=122.809631m. Speed=19.764000m/h.</desc>
<speed>5.490000</speed>
</trkpt>
<trkpt lat="55.796719" lon="26.524757">
<ele>123.022522</ele>
<time>2010-07-18T13:33:02Z</time>
<desc>lat.=55.796719, lon.=26.524757, Alt.=123.022522m. Speed=22.427999m/h.</desc>
<speed>6.230000</speed>
</trkpt>
<trkpt lat="55.796772" lon="26.524750">
<ele>123.143616</ele>
<time>2010-07-18T13:33:03Z</time>
<desc>lat.=55.796772, lon.=26.524750, Alt.=123.143616m. Speed=21.275999m/h.</desc>
<speed>5.910000</speed>
</trkpt>
<trkpt lat="55.796825" lon="26.524746">
<ele>122.794006</ele>
<time>2010-07-18T13:33:04Z</time>
<desc>lat.=55.796825, lon.=26.524746, Alt.=122.794006m. Speed=21.132000m/h.</desc>
<speed>5.870000</speed>
</trkpt>
<trkpt lat="55.796875" lon="26.524740">
<ele>122.846741</ele>
<time>2010-07-18T13:33:05Z</time>
<desc>lat.=55.796875, lon.=26.524740, Alt.=122.846741m. Speed=22.139999m/h.</desc>
<speed>6.150000</speed>
</trkpt>
<trkpt lat="55.796921" lon="26.524715">
<ele>123.491272</ele>
<time>2010-07-18T13:33:06Z</time>
<desc>lat.=55.796921, lon.=26.524715, Alt.=123.491272m. Speed=22.896000m/h.</desc>
<speed>6.360000</speed>
</trkpt>
<trkpt lat="55.796978" lon="26.524693">
<ele>124.022522</ele>
<time>2010-07-18T13:33:07Z</time>
<desc>lat.=55.796978, lon.=26.524693, Alt.=124.022522m. Speed=23.327999m/h.</desc>
<speed>6.480000</speed>
</trkpt>
<trkpt lat="55.797024" lon="26.524672">
<ele>124.155334</ele>
<time>2010-07-18T13:33:08Z</time>
<desc>lat.=55.797024, lon.=26.524672, Alt.=124.155334m. Speed=20.483999m/h.</desc>
<speed>5.690000</speed>
</trkpt>
<trkpt lat="55.797077" lon="26.524660">
<ele>124.251038</ele>
<time>2010-07-18T13:33:09Z</time>
<desc>lat.=55.797077, lon.=26.524660, Alt.=124.251038m. Speed=20.304001m/h.</desc>
<speed>5.640000</speed>
</trkpt>
<trkpt lat="55.797123" lon="26.524651">
<ele>124.346741</ele>
<time>2010-07-18T13:33:10Z</time>
<desc>lat.=55.797123, lon.=26.524651, Alt.=124.346741m. Speed=18.540001m/h.</desc>
<speed>5.150000</speed>
</trkpt>
<trkpt lat="55.797176" lon="26.524643">
<ele>124.463928</ele>
<time>2010-07-18T13:33:11Z</time>
<desc>lat.=55.797176, lon.=26.524643, Alt.=124.463928m. Speed=17.136000m/h.</desc>
<speed>4.760000</speed>
</trkpt>
<trkpt lat="55.797226" lon="26.524649">
<ele>124.829163</ele>
<time>2010-07-18T13:33:12Z</time>
<desc>lat.=55.797226, lon.=26.524649, Alt.=124.829163m. Speed=18.252001m/h.</desc>
<speed>5.070000</speed>
</trkpt>
<trkpt lat="55.797268" lon="26.524656">
<ele>125.124084</ele>
<time>2010-07-18T13:33:13Z</time>
<desc>lat.=55.797268, lon.=26.524656, Alt.=125.124084m. Speed=17.820000m/h.</desc>
<speed>4.950000</speed>
</trkpt>
<trkpt lat="55.797310" lon="26.524662">
<ele>125.585022</ele>
<time>2010-07-18T13:33:14Z</time>
<desc>lat.=55.797310, lon.=26.524662, Alt.=125.585022m. Speed=17.280001m/h.</desc>
<speed>4.800000</speed>
</trkpt>
<trkpt lat="55.797352" lon="26.524662">
<ele>126.067444</ele>
<time>2010-07-18T13:33:15Z</time>
<desc>lat.=55.797352, lon.=26.524662, Alt.=126.067444m. Speed=17.243999m/h.</desc>
<speed>4.790000</speed>
</trkpt>
<trkpt lat="55.797398" lon="26.524658">
<ele>125.856506</ele>
<time>2010-07-18T13:33:16Z</time>
<desc>lat.=55.797398, lon.=26.524658, Alt.=125.856506m. Speed=16.884001m/h.</desc>
<speed>4.690000</speed>
</trkpt>
<trkpt lat="55.797443" lon="26.524651">
<ele>125.926819</ele>
<time>2010-07-18T13:33:17Z</time>
<desc>lat.=55.797443, lon.=26.524651, Alt.=125.926819m. Speed=17.532000m/h.</desc>
<speed>4.870000</speed>
</trkpt>
<trkpt lat="55.797485" lon="26.524645">
<ele>125.711975</ele>
<time>2010-07-18T13:33:18Z</time>
<desc>lat.=55.797485, lon.=26.524645, Alt.=125.711975m. Speed=16.524000m/h.</desc>
<speed>4.590000</speed>
</trkpt>
<trkpt lat="55.797527" lon="26.524632">
<ele>125.975647</ele>
<time>2010-07-18T13:33:19Z</time>
<desc>lat.=55.797527, lon.=26.524632, Alt.=125.975647m. Speed=17.172001m/h.</desc>
<speed>4.770000</speed>
</trkpt>
<trkpt lat="55.797577" lon="26.524632">
<ele>126.163147</ele>
<time>2010-07-18T13:33:20Z</time>
<desc>lat.=55.797577, lon.=26.524632, Alt.=126.163147m. Speed=17.424000m/h.</desc>
<speed>4.840000</speed>
</trkpt>
<trkpt lat="55.797623" lon="26.524628">
<ele>126.057678</ele>
<time>2010-07-18T13:33:21Z</time>
<desc>lat.=55.797623, lon.=26.524628, Alt.=126.057678m. Speed=18.035999m/h.</desc>
<speed>5.010000</speed>
</trkpt>
<trkpt lat="55.797668" lon="26.524624">
<ele>126.065491</ele>
<time>2010-07-18T13:33:22Z</time>
<desc>lat.=55.797668, lon.=26.524624, Alt.=126.065491m. Speed=18.180000m/h.</desc>
<speed>5.050000</speed>
</trkpt>
<trkpt lat="55.797718" lon="26.524614">
<ele>126.170959</ele>
<time>2010-07-18T13:33:23Z</time>
<desc>lat.=55.797718, lon.=26.524614, Alt.=126.170959m. Speed=18.431999m/h.</desc>
<speed>5.120000</speed>
</trkpt>
<trkpt lat="55.797768" lon="26.524612">
<ele>126.051819</ele>
<time>2010-07-18T13:33:24Z</time>
<desc>lat.=55.797768, lon.=26.524612, Alt.=126.051819m. Speed=18.216000m/h.</desc>
<speed>5.060000</speed>
</trkpt>
<trkpt lat="55.797813" lon="26.524614">
<ele>125.838928</ele>
<time>2010-07-18T13:33:25Z</time>
<desc>lat.=55.797813, lon.=26.524614, Alt.=125.838928m. Speed=17.712000m/h.</desc>
<speed>4.920000</speed>
</trkpt>
<trkpt lat="55.797859" lon="26.524614">
<ele>125.792053</ele>
<time>2010-07-18T13:33:26Z</time>
<desc>lat.=55.797859, lon.=26.524614, Alt.=125.792053m. Speed=19.080000m/h.</desc>
<speed>5.300000</speed>
</trkpt>
<trkpt lat="55.797909" lon="26.524611">
<ele>125.764709</ele>
<time>2010-07-18T13:33:27Z</time>
<desc>lat.=55.797909, lon.=26.524611, Alt.=125.764709m. Speed=18.648001m/h.</desc>
<speed>5.180000</speed>
</trkpt>
<trkpt lat="55.797955" lon="26.524611">
<ele>125.506897</ele>
<time>2010-07-18T13:33:28Z</time>
<desc>lat.=55.797955, lon.=26.524611, Alt.=125.506897m. Speed=18.576000m/h.</desc>
<speed>5.160000</speed>
</trkpt>
<trkpt lat="55.798000" lon="26.524607">
<ele>125.661194</ele>
<time>2010-07-18T13:33:29Z</time>
<desc>lat.=55.798000, lon.=26.524607, Alt.=125.661194m. Speed=17.063999m/h.</desc>
<speed>4.740000</speed>
</trkpt>
<trkpt lat="55.798046" lon="26.524605">
<ele>125.698303</ele>
<time>2010-07-18T13:33:30Z</time>
<desc>lat.=55.798046, lon.=26.524605, Alt.=125.698303m. Speed=17.568001m/h.</desc>
<speed>4.880000</speed>
</trkpt>
<trkpt lat="55.798088" lon="26.524597">
<ele>125.743225</ele>
<time>2010-07-18T13:33:31Z</time>
<desc>lat.=55.798088, lon.=26.524597, Alt.=125.743225m. Speed=14.508000m/h.</desc>
<speed>4.030000</speed>
</trkpt>
<trkpt lat="55.798138" lon="26.524591">
<ele>125.823303</ele>
<time>2010-07-18T13:33:32Z</time>
<desc>lat.=55.798138, lon.=26.524591, Alt.=125.823303m. Speed=18.576000m/h.</desc>
<speed>5.160000</speed>
</trkpt>
<trkpt lat="55.798183" lon="26.524588">
<ele>125.932678</ele>
<time>2010-07-18T13:33:33Z</time>
<desc>lat.=55.798183, lon.=26.524588, Alt.=125.932678m. Speed=18.108000m/h.</desc>
<speed>5.030000</speed>
</trkpt>
<trkpt lat="55.798233" lon="26.524586">
<ele>126.127991</ele>
<time>2010-07-18T13:33:34Z</time>
<desc>lat.=55.798233, lon.=26.524586, Alt.=126.127991m. Speed=19.296000m/h.</desc>
<speed>5.360000</speed>
</trkpt>
<trkpt lat="55.798286" lon="26.524588">
<ele>126.284241</ele>
<time>2010-07-18T13:33:35Z</time>
<desc>lat.=55.798286, lon.=26.524588, Alt.=126.284241m. Speed=20.340000m/h.</desc>
<speed>5.650000</speed>
</trkpt>
<trkpt lat="55.798332" lon="26.524591">
<ele>126.198303</ele>
<time>2010-07-18T13:33:36Z</time>
<desc>lat.=55.798332, lon.=26.524591, Alt.=126.198303m. Speed=20.016001m/h.</desc>
<speed>5.560000</speed>
</trkpt>
<trkpt lat="55.798382" lon="26.524591">
<ele>126.284241</ele>
<time>2010-07-18T13:33:37Z</time>
<desc>lat.=55.798382, lon.=26.524591, Alt.=126.284241m. Speed=19.440001m/h.</desc>
<speed>5.400000</speed>
</trkpt>
<trkpt lat="55.798428" lon="26.524595">
<ele>126.047913</ele>
<time>2010-07-18T13:33:38Z</time>
<desc>lat.=55.798428, lon.=26.524595, Alt.=126.047913m. Speed=19.296000m/h.</desc>
<speed>5.360000</speed>
</trkpt>
<trkpt lat="55.798481" lon="26.524593">
<ele>126.104553</ele>
<time>2010-07-18T13:33:39Z</time>
<desc>lat.=55.798481, lon.=26.524593, Alt.=126.104553m. Speed=20.952000m/h.</desc>
<speed>5.820000</speed>
</trkpt>
<trkpt lat="55.798534" lon="26.524593">
<ele>126.217834</ele>
<time>2010-07-18T13:33:40Z</time>
<desc>lat.=55.798534, lon.=26.524593, Alt.=126.217834m. Speed=20.412001m/h.</desc>
<speed>5.670000</speed>
</trkpt>
<trkpt lat="55.798592" lon="26.524595">
<ele>126.286194</ele>
<time>2010-07-18T13:33:41Z</time>
<desc>lat.=55.798592, lon.=26.524595, Alt.=126.286194m. Speed=21.420000m/h.</desc>
<speed>5.950000</speed>
</trkpt>
<trkpt lat="55.798649" lon="26.524601">
<ele>126.247131</ele>
<time>2010-07-18T13:33:42Z</time>
<desc>lat.=55.798649, lon.=26.524601, Alt.=126.247131m. Speed=20.916000m/h.</desc>
<speed>5.810000</speed>
</trkpt>
<trkpt lat="55.798702" lon="26.524605">
<ele>126.260803</ele>
<time>2010-07-18T13:33:43Z</time>
<desc>lat.=55.798702, lon.=26.524605, Alt.=126.260803m. Speed=20.268000m/h.</desc>
<speed>5.630000</speed>
</trkpt>
<trkpt lat="55.798752" lon="26.524607">
<ele>126.276428</ele>
<time>2010-07-18T13:33:44Z</time>
<desc>lat.=55.798752, lon.=26.524607, Alt.=126.276428m. Speed=19.799999m/h.</desc>
<speed>5.500000</speed>
</trkpt>
<trkpt lat="55.798801" lon="26.524612">
<ele>126.409241</ele>
<time>2010-07-18T13:33:45Z</time>
<desc>lat.=55.798801, lon.=26.524612, Alt.=126.409241m. Speed=19.511999m/h.</desc>
<speed>5.420000</speed>
</trkpt>
<trkpt lat="55.798855" lon="26.524614">
<ele>126.362366</ele>
<time>2010-07-18T13:33:46Z</time>
<desc>lat.=55.798855, lon.=26.524614, Alt.=126.362366m. Speed=19.332001m/h.</desc>
<speed>5.370000</speed>
</trkpt>
<trkpt lat="55.798901" lon="26.524612">
<ele>126.327209</ele>
<time>2010-07-18T13:33:47Z</time>
<desc>lat.=55.798901, lon.=26.524612, Alt.=126.327209m. Speed=19.007999m/h.</desc>
<speed>5.280000</speed>
</trkpt>
<trkpt lat="55.798950" lon="26.524611">
<ele>126.344788</ele>
<time>2010-07-18T13:33:48Z</time>
<desc>lat.=55.798950, lon.=26.524611, Alt.=126.344788m. Speed=17.676001m/h.</desc>
<speed>4.910000</speed>
</trkpt>
<trkpt lat="55.798988" lon="26.524612">
<ele>126.377991</ele>
<time>2010-07-18T13:33:49Z</time>
<desc>lat.=55.798988, lon.=26.524612, Alt.=126.377991m. Speed=17.063999m/h.</desc>
<speed>4.740000</speed>
</trkpt>
<trkpt lat="55.799034" lon="26.524609">
<ele>126.493225</ele>
<time>2010-07-18T13:33:50Z</time>
<desc>lat.=55.799034, lon.=26.524609, Alt.=126.493225m. Speed=17.676001m/h.</desc>
<speed>4.910000</speed>
</trkpt>
<trkpt lat="55.799076" lon="26.524612">
<ele>126.473694</ele>
<time>2010-07-18T13:33:51Z</time>
<desc>lat.=55.799076, lon.=26.524612, Alt.=126.473694m. Speed=17.136000m/h.</desc>
<speed>4.760000</speed>
</trkpt>
<trkpt lat="55.799118" lon="26.524614">
<ele>126.493225</ele>
<time>2010-07-18T13:33:52Z</time>
<desc>lat.=55.799118, lon.=26.524614, Alt.=126.493225m. Speed=16.740000m/h.</desc>
<speed>4.650000</speed>
</trkpt>
<trkpt lat="55.799164" lon="26.524616">
<ele>126.620178</ele>
<time>2010-07-18T13:33:53Z</time>
<desc>lat.=55.799164, lon.=26.524616, Alt.=126.620178m. Speed=16.704000m/h.</desc>
<speed>4.640000</speed>
</trkpt>
<trkpt lat="55.799202" lon="26.524611">
<ele>126.756897</ele>
<time>2010-07-18T13:33:54Z</time>
<desc>lat.=55.799202, lon.=26.524611, Alt.=126.756897m. Speed=16.236000m/h.</desc>
<speed>4.510000</speed>
</trkpt>
<trkpt lat="55.799244" lon="26.524614">
<ele>126.715881</ele>
<time>2010-07-18T13:33:55Z</time>
<desc>lat.=55.799244, lon.=26.524614, Alt.=126.715881m. Speed=16.488001m/h.</desc>
<speed>4.580000</speed>
</trkpt>
<trkpt lat="55.799282" lon="26.524616">
<ele>126.764709</ele>
<time>2010-07-18T13:33:56Z</time>
<desc>lat.=55.799282, lon.=26.524616, Alt.=126.764709m. Speed=16.740000m/h.</desc>
<speed>4.650000</speed>
</trkpt>
<trkpt lat="55.799324" lon="26.524618">
<ele>126.747131</ele>
<time>2010-07-18T13:33:57Z</time>
<desc>lat.=55.799324, lon.=26.524618, Alt.=126.747131m. Speed=16.271999m/h.</desc>
<speed>4.520000</speed>
</trkpt>
<trkpt lat="55.799366" lon="26.524618">
<ele>126.842834</ele>
<time>2010-07-18T13:33:58Z</time>
<desc>lat.=55.799366, lon.=26.524618, Alt.=126.842834m. Speed=16.056000m/h.</desc>
<speed>4.460000</speed>
</trkpt>
<trkpt lat="55.799408" lon="26.524618">
<ele>126.895569</ele>
<time>2010-07-18T13:33:59Z</time>
<desc>lat.=55.799408, lon.=26.524618, Alt.=126.895569m. Speed=16.020000m/h.</desc>
<speed>4.450000</speed>
</trkpt>
<trkpt lat="55.799446" lon="26.524616">
<ele>126.930725</ele>
<time>2010-07-18T13:34:00Z</time>
<desc>lat.=55.799446, lon.=26.524616, Alt.=126.930725m. Speed=15.876000m/h.</desc>
<speed>4.410000</speed>
</trkpt>
<trkpt lat="55.799492" lon="26.524620">
<ele>126.836975</ele>
<time>2010-07-18T13:34:01Z</time>
<desc>lat.=55.799492, lon.=26.524620, Alt.=126.836975m. Speed=15.912000m/h.</desc>
<speed>4.420000</speed>
</trkpt>
<trkpt lat="55.799530" lon="26.524620">
<ele>126.975647</ele>
<time>2010-07-18T13:34:02Z</time>
<desc>lat.=55.799530, lon.=26.524620, Alt.=126.975647m. Speed=15.948000m/h.</desc>
<speed>4.430000</speed>
</trkpt>
<trkpt lat="55.799568" lon="26.524616">
<ele>127.266663</ele>
<time>2010-07-18T13:34:03Z</time>
<desc>lat.=55.799568, lon.=26.524616, Alt.=127.266663m. Speed=16.344000m/h.</desc>
<speed>4.540000</speed>
</trkpt>
<trkpt lat="55.799606" lon="26.524611">
<ele>127.563538</ele>
<time>2010-07-18T13:34:04Z</time>
<desc>lat.=55.799606, lon.=26.524611, Alt.=127.563538m. Speed=16.596001m/h.</desc>
<speed>4.610000</speed>
</trkpt>
<trkpt lat="55.799652" lon="26.524622">
<ele>127.395569</ele>
<time>2010-07-18T13:34:05Z</time>
<desc>lat.=55.799652, lon.=26.524622, Alt.=127.395569m. Speed=17.028000m/h.</desc>
<speed>4.730000</speed>
</trkpt>
<trkpt lat="55.799698" lon="26.524639">
<ele>127.399475</ele>
<time>2010-07-18T13:34:06Z</time>
<desc>lat.=55.799698, lon.=26.524639, Alt.=127.399475m. Speed=17.388000m/h.</desc>
<speed>4.830000</speed>
</trkpt>
<trkpt lat="55.799747" lon="26.524649">
<ele>127.583069</ele>
<time>2010-07-18T13:34:07Z</time>
<desc>lat.=55.799747, lon.=26.524649, Alt.=127.583069m. Speed=17.784000m/h.</desc>
<speed>4.940000</speed>
</trkpt>
<trkpt lat="55.799793" lon="26.524652">
<ele>127.534241</ele>
<time>2010-07-18T13:34:08Z</time>
<desc>lat.=55.799793, lon.=26.524652, Alt.=127.534241m. Speed=18.684000m/h.</desc>
<speed>5.190000</speed>
</trkpt>
<trkpt lat="55.799843" lon="26.524654">
<ele>127.577209</ele>
<time>2010-07-18T13:34:09Z</time>
<desc>lat.=55.799843, lon.=26.524654, Alt.=127.577209m. Speed=20.124001m/h.</desc>
<speed>5.590000</speed>
</trkpt>
<trkpt lat="55.799896" lon="26.524658">
<ele>127.831116</ele>
<time>2010-07-18T13:34:10Z</time>
<desc>lat.=55.799896, lon.=26.524658, Alt.=127.831116m. Speed=20.556000m/h.</desc>
<speed>5.710000</speed>
</trkpt>
<trkpt lat="55.799946" lon="26.524668">
<ele>127.497131</ele>
<time>2010-07-18T13:34:11Z</time>
<desc>lat.=55.799946, lon.=26.524668, Alt.=127.497131m. Speed=21.672001m/h.</desc>
<speed>6.020000</speed>
</trkpt>
<trkpt lat="55.800003" lon="26.524685">
<ele>127.163147</ele>
<time>2010-07-18T13:34:12Z</time>
<desc>lat.=55.800003, lon.=26.524685, Alt.=127.163147m. Speed=22.643999m/h.</desc>
<speed>6.290000</speed>
</trkpt>
<trkpt lat="55.800064" lon="26.524693">
<ele>126.965881</ele>
<time>2010-07-18T13:34:13Z</time>
<desc>lat.=55.800064, lon.=26.524693, Alt.=126.965881m. Speed=23.400000m/h.</desc>
<speed>6.500000</speed>
</trkpt>
<trkpt lat="55.800121" lon="26.524698">
<ele>126.682678</ele>
<time>2010-07-18T13:34:14Z</time>
<desc>lat.=55.800121, lon.=26.524698, Alt.=126.682678m. Speed=23.724001m/h.</desc>
<speed>6.590000</speed>
</trkpt>
<trkpt lat="55.800179" lon="26.524708">
<ele>126.518616</ele>
<time>2010-07-18T13:34:15Z</time>
<desc>lat.=55.800179, lon.=26.524708, Alt.=126.518616m. Speed=24.120001m/h.</desc>
<speed>6.700000</speed>
</trkpt>
<trkpt lat="55.800243" lon="26.524723">
<ele>126.264709</ele>
<time>2010-07-18T13:34:16Z</time>
<desc>lat.=55.800243, lon.=26.524723, Alt.=126.264709m. Speed=24.624001m/h.</desc>
<speed>6.840000</speed>
</trkpt>
<trkpt lat="55.800308" lon="26.524740">
<ele>126.229553</ele>
<time>2010-07-18T13:34:17Z</time>
<desc>lat.=55.800308, lon.=26.524740, Alt.=126.229553m. Speed=24.840000m/h.</desc>
<speed>6.900000</speed>
</trkpt>
<trkpt lat="55.800369" lon="26.524757">
<ele>125.919006</ele>
<time>2010-07-18T13:34:18Z</time>
<desc>lat.=55.800369, lon.=26.524757, Alt.=125.919006m. Speed=25.128000m/h.</desc>
<speed>6.980000</speed>
</trkpt>
<trkpt lat="55.800434" lon="26.524769">
<ele>125.846741</ele>
<time>2010-07-18T13:34:19Z</time>
<desc>lat.=55.800434, lon.=26.524769, Alt.=125.846741m. Speed=25.416000m/h.</desc>
<speed>7.060000</speed>
</trkpt>
<trkpt lat="55.800495" lon="26.524788">
<ele>125.569397</ele>
<time>2010-07-18T13:34:20Z</time>
<desc>lat.=55.800495, lon.=26.524788, Alt.=125.569397m. Speed=25.667999m/h.</desc>
<speed>7.130000</speed>
</trkpt>
<trkpt lat="55.800560" lon="26.524803">
<ele>125.270569</ele>
<time>2010-07-18T13:34:21Z</time>
<desc>lat.=55.800560, lon.=26.524803, Alt.=125.270569m. Speed=25.955999m/h.</desc>
<speed>7.210000</speed>
</trkpt>
<trkpt lat="55.800625" lon="26.524818">
<ele>124.971741</ele>
<time>2010-07-18T13:34:22Z</time>
<desc>lat.=55.800625, lon.=26.524818, Alt.=124.971741m. Speed=26.316000m/h.</desc>
<speed>7.310000</speed>
</trkpt>
<trkpt lat="55.800690" lon="26.524834">
<ele>124.778381</ele>
<time>2010-07-18T13:34:23Z</time>
<desc>lat.=55.800690, lon.=26.524834, Alt.=124.778381m. Speed=26.316000m/h.</desc>
<speed>7.310000</speed>
</trkpt>
<trkpt lat="55.800755" lon="26.524853">
<ele>124.516663</ele>
<time>2010-07-18T13:34:24Z</time>
<desc>lat.=55.800755, lon.=26.524853, Alt.=124.516663m. Speed=27.252001m/h.</desc>
<speed>7.570000</speed>
</trkpt>
<trkpt lat="55.800823" lon="26.524868">
<ele>124.327209</ele>
<time>2010-07-18T13:34:25Z</time>
<desc>lat.=55.800823, lon.=26.524868, Alt.=124.327209m. Speed=27.972000m/h.</desc>
<speed>7.770000</speed>
</trkpt>
<trkpt lat="55.800896" lon="26.524881">
<ele>124.083069</ele>
<time>2010-07-18T13:34:26Z</time>
<desc>lat.=55.800896, lon.=26.524881, Alt.=124.083069m. Speed=28.403999m/h.</desc>
<speed>7.890000</speed>
</trkpt>
<trkpt lat="55.800968" lon="26.524891">
<ele>123.780334</ele>
<time>2010-07-18T13:34:27Z</time>
<desc>lat.=55.800968, lon.=26.524891, Alt.=123.780334m. Speed=30.455999m/h.</desc>
<speed>8.460000</speed>
</trkpt>
<trkpt lat="55.801041" lon="26.524910">
<ele>123.569397</ele>
<time>2010-07-18T13:34:28Z</time>
<desc>lat.=55.801041, lon.=26.524910, Alt.=123.569397m. Speed=31.247999m/h.</desc>
<speed>8.680000</speed>
</trkpt>
<trkpt lat="55.801121" lon="26.524931">
<ele>123.258850</ele>
<time>2010-07-18T13:34:29Z</time>
<desc>lat.=55.801121, lon.=26.524931, Alt.=123.258850m. Speed=32.543999m/h.</desc>
<speed>9.040000</speed>
</trkpt>
<trkpt lat="55.801197" lon="26.524956">
<ele>122.985413</ele>
<time>2010-07-18T13:34:30Z</time>
<desc>lat.=55.801197, lon.=26.524956, Alt.=122.985413m. Speed=31.931999m/h.</desc>
<speed>8.870000</speed>
</trkpt>
<trkpt lat="55.801277" lon="26.524975">
<ele>122.770569</ele>
<time>2010-07-18T13:34:31Z</time>
<desc>lat.=55.801277, lon.=26.524975, Alt.=122.770569m. Speed=32.723999m/h.</desc>
<speed>9.090000</speed>
</trkpt>
<trkpt lat="55.801361" lon="26.525002">
<ele>122.467834</ele>
<time>2010-07-18T13:34:32Z</time>
<desc>lat.=55.801361, lon.=26.525002, Alt.=122.467834m. Speed=33.372002m/h.</desc>
<speed>9.270000</speed>
</trkpt>
<trkpt lat="55.801445" lon="26.525023">
<ele>122.237366</ele>
<time>2010-07-18T13:34:33Z</time>
<desc>lat.=55.801445, lon.=26.525023, Alt.=122.237366m. Speed=34.344002m/h.</desc>
<speed>9.540000</speed>
</trkpt>
<trkpt lat="55.801529" lon="26.525036">
<ele>122.116272</ele>
<time>2010-07-18T13:34:34Z</time>
<desc>lat.=55.801529, lon.=26.525036, Alt.=122.116272m. Speed=34.703999m/h.</desc>
<speed>9.640000</speed>
</trkpt>
<trkpt lat="55.801617" lon="26.525055">
<ele>122.042053</ele>
<time>2010-07-18T13:34:35Z</time>
<desc>lat.=55.801617, lon.=26.525055, Alt.=122.042053m. Speed=34.740002m/h.</desc>
<speed>9.650000</speed>
</trkpt>
<trkpt lat="55.801704" lon="26.525078">
<ele>122.010803</ele>
<time>2010-07-18T13:34:36Z</time>
<desc>lat.=55.801704, lon.=26.525078, Alt.=122.010803m. Speed=35.388000m/h.</desc>
<speed>9.830000</speed>
</trkpt>
<trkpt lat="55.801792" lon="26.525105">
<ele>122.008850</ele>
<time>2010-07-18T13:34:37Z</time>
<desc>lat.=55.801792, lon.=26.525105, Alt.=122.008850m. Speed=35.855999m/h.</desc>
<speed>9.960000</speed>
</trkpt>
<trkpt lat="55.801884" lon="26.525131">
<ele>122.071350</ele>
<time>2010-07-18T13:34:38Z</time>
<desc>lat.=55.801884, lon.=26.525131, Alt.=122.071350m. Speed=35.208000m/h.</desc>
<speed>9.780000</speed>
</trkpt>
<trkpt lat="55.801971" lon="26.525156">
<ele>122.169006</ele>
<time>2010-07-18T13:34:39Z</time>
<desc>lat.=55.801971, lon.=26.525156, Alt.=122.169006m. Speed=35.928001m/h.</desc>
<speed>9.980000</speed>
</trkpt>
<trkpt lat="55.802059" lon="26.525179">
<ele>122.010803</ele>
<time>2010-07-18T13:34:40Z</time>
<desc>lat.=55.802059, lon.=26.525179, Alt.=122.010803m. Speed=35.784000m/h.</desc>
<speed>9.940000</speed>
</trkpt>
<trkpt lat="55.802147" lon="26.525196">
<ele>121.987366</ele>
<time>2010-07-18T13:34:41Z</time>
<desc>lat.=55.802147, lon.=26.525196, Alt.=121.987366m. Speed=35.891998m/h.</desc>
<speed>9.970000</speed>
</trkpt>
<trkpt lat="55.802235" lon="26.525219">
<ele>121.723694</ele>
<time>2010-07-18T13:34:42Z</time>
<desc>lat.=55.802235, lon.=26.525219, Alt.=121.723694m. Speed=36.108002m/h.</desc>
<speed>10.030000</speed>
</trkpt>
<trkpt lat="55.802326" lon="26.525246">
<ele>121.852600</ele>
<time>2010-07-18T13:34:43Z</time>
<desc>lat.=55.802326, lon.=26.525246, Alt.=121.852600m. Speed=35.459999m/h.</desc>
<speed>9.850000</speed>
</trkpt>
<trkpt lat="55.802410" lon="26.525265">
<ele>121.659241</ele>
<time>2010-07-18T13:34:44Z</time>
<desc>lat.=55.802410, lon.=26.525265, Alt.=121.659241m. Speed=35.028000m/h.</desc>
<speed>9.730000</speed>
</trkpt>
<trkpt lat="55.802494" lon="26.525291">
<ele>121.663147</ele>
<time>2010-07-18T13:34:45Z</time>
<desc>lat.=55.802494, lon.=26.525291, Alt.=121.663147m. Speed=36.287998m/h.</desc>
<speed>10.079999</speed>
</trkpt>
<trkpt lat="55.802586" lon="26.525320">
<ele>120.647522</ele>
<time>2010-07-18T13:34:46Z</time>
<desc>lat.=55.802586, lon.=26.525320, Alt.=120.647522m. Speed=35.388000m/h.</desc>
<speed>9.830000</speed>
</trkpt>
<trkpt lat="55.802673" lon="26.525343">
<ele>120.294006</ele>
<time>2010-07-18T13:34:47Z</time>
<desc>lat.=55.802673, lon.=26.525343, Alt.=120.294006m. Speed=35.424000m/h.</desc>
<speed>9.840000</speed>
</trkpt>
<trkpt lat="55.802757" lon="26.525364">
<ele>119.221741</ele>
<time>2010-07-18T13:34:48Z</time>
<desc>lat.=55.802757, lon.=26.525364, Alt.=119.221741m. Speed=34.667999m/h.</desc>
<speed>9.630000</speed>
</trkpt>
<trkpt lat="55.802845" lon="26.525387">
<ele>119.096741</ele>
<time>2010-07-18T13:34:49Z</time>
<desc>lat.=55.802845, lon.=26.525387, Alt.=119.096741m. Speed=34.667999m/h.</desc>
<speed>9.630000</speed>
</trkpt>
<trkpt lat="55.802933" lon="26.525408">
<ele>118.835022</ele>
<time>2010-07-18T13:34:50Z</time>
<desc>lat.=55.802933, lon.=26.525408, Alt.=118.835022m. Speed=35.172001m/h.</desc>
<speed>9.770000</speed>
</trkpt>
<trkpt lat="55.803020" lon="26.525427">
<ele>118.754944</ele>
<time>2010-07-18T13:34:51Z</time>
<desc>lat.=55.803020, lon.=26.525427, Alt.=118.754944m. Speed=34.020000m/h.</desc>
<speed>9.450000</speed>
</trkpt>
<trkpt lat="55.803101" lon="26.525442">
<ele>118.817444</ele>
<time>2010-07-18T13:34:52Z</time>
<desc>lat.=55.803101, lon.=26.525442, Alt.=118.817444m. Speed=31.643999m/h.</desc>
<speed>8.790000</speed>
</trkpt>
<trkpt lat="55.803177" lon="26.525459">
<ele>118.674866</ele>
<time>2010-07-18T13:34:53Z</time>
<desc>lat.=55.803177, lon.=26.525459, Alt.=118.674866m. Speed=30.959999m/h.</desc>
<speed>8.600000</speed>
</trkpt>
<trkpt lat="55.803261" lon="26.525480">
<ele>118.368225</ele>
<time>2010-07-18T13:34:54Z</time>
<desc>lat.=55.803261, lon.=26.525480, Alt.=118.368225m. Speed=32.616001m/h.</desc>
<speed>9.060000</speed>
</trkpt>
<trkpt lat="55.803337" lon="26.525503">
<ele>118.188538</ele>
<time>2010-07-18T13:34:55Z</time>
<desc>lat.=55.803337, lon.=26.525503, Alt.=118.188538m. Speed=31.896000m/h.</desc>
<speed>8.860000</speed>
</trkpt>
<trkpt lat="55.803417" lon="26.525520">
<ele>118.389709</ele>
<time>2010-07-18T13:34:56Z</time>
<desc>lat.=55.803417, lon.=26.525520, Alt.=118.389709m. Speed=31.104000m/h.</desc>
<speed>8.640000</speed>
</trkpt>
<trkpt lat="55.803497" lon="26.525536">
<ele>118.444397</ele>
<time>2010-07-18T13:34:57Z</time>
<desc>lat.=55.803497, lon.=26.525536, Alt.=118.444397m. Speed=31.104000m/h.</desc>
<speed>8.640000</speed>
</trkpt>
<trkpt lat="55.803577" lon="26.525547">
<ele>118.002991</ele>
<time>2010-07-18T13:34:58Z</time>
<desc>lat.=55.803577, lon.=26.525547, Alt.=118.002991m. Speed=30.563999m/h.</desc>
<speed>8.490000</speed>
</trkpt>
<trkpt lat="55.803650" lon="26.525558">
<ele>117.667053</ele>
<time>2010-07-18T13:34:59Z</time>
<desc>lat.=55.803650, lon.=26.525558, Alt.=117.667053m. Speed=29.952000m/h.</desc>
<speed>8.320000</speed>
</trkpt>
<trkpt lat="55.803726" lon="26.525581">
<ele>118.413147</ele>
<time>2010-07-18T13:35:00Z</time>
<desc>lat.=55.803726, lon.=26.525581, Alt.=118.413147m. Speed=29.952000m/h.</desc>
<speed>8.320000</speed>
</trkpt>
<trkpt lat="55.803810" lon="26.525606">
<ele>116.721741</ele>
<time>2010-07-18T13:35:01Z</time>
<desc>lat.=55.803810, lon.=26.525606, Alt.=116.721741m. Speed=30.816000m/h.</desc>
<speed>8.560000</speed>
</trkpt>
<trkpt lat="55.803894" lon="26.525627">
<ele>117.540100</ele>
<time>2010-07-18T13:35:02Z</time>
<desc>lat.=55.803894, lon.=26.525627, Alt.=117.540100m. Speed=31.356001m/h.</desc>
<speed>8.710000</speed>
</trkpt>
<trkpt lat="55.803974" lon="26.525646">
<ele>117.247131</ele>
<time>2010-07-18T13:35:03Z</time>
<desc>lat.=55.803974, lon.=26.525646, Alt.=117.247131m. Speed=31.680000m/h.</desc>
<speed>8.800000</speed>
</trkpt>
<trkpt lat="55.804054" lon="26.525661">
<ele>116.610413</ele>
<time>2010-07-18T13:35:04Z</time>
<desc>lat.=55.804054, lon.=26.525661, Alt.=116.610413m. Speed=31.427999m/h.</desc>
<speed>8.730000</speed>
</trkpt>
<trkpt lat="55.804134" lon="26.525677">
<ele>117.376038</ele>
<time>2010-07-18T13:35:05Z</time>
<desc>lat.=55.804134, lon.=26.525677, Alt.=117.376038m. Speed=31.572001m/h.</desc>
<speed>8.770000</speed>
</trkpt>
<trkpt lat="55.804214" lon="26.525690">
<ele>117.163147</ele>
<time>2010-07-18T13:35:06Z</time>
<desc>lat.=55.804214, lon.=26.525690, Alt.=117.163147m. Speed=30.851999m/h.</desc>
<speed>8.570000</speed>
</trkpt>
<trkpt lat="55.804295" lon="26.525702">
<ele>117.147522</ele>
<time>2010-07-18T13:35:07Z</time>
<desc>lat.=55.804295, lon.=26.525702, Alt.=117.147522m. Speed=29.879999m/h.</desc>
<speed>8.300000</speed>
</trkpt>
<trkpt lat="55.804367" lon="26.525713">
<ele>116.917053</ele>
<time>2010-07-18T13:35:08Z</time>
<desc>lat.=55.804367, lon.=26.525713, Alt.=116.917053m. Speed=28.764000m/h.</desc>
<speed>7.990000</speed>
</trkpt>
<trkpt lat="55.804436" lon="26.525723">
<ele>116.407288</ele>
<time>2010-07-18T13:35:09Z</time>
<desc>lat.=55.804436, lon.=26.525723, Alt.=116.407288m. Speed=27.972000m/h.</desc>
<speed>7.770000</speed>
</trkpt>
<trkpt lat="55.804504" lon="26.525730">
<ele>116.502991</ele>
<time>2010-07-18T13:35:10Z</time>
<desc>lat.=55.804504, lon.=26.525730, Alt.=116.502991m. Speed=27.143999m/h.</desc>
<speed>7.540000</speed>
</trkpt>
<trkpt lat="55.804573" lon="26.525732">
<ele>116.780334</ele>
<time>2010-07-18T13:35:11Z</time>
<desc>lat.=55.804573, lon.=26.525732, Alt.=116.780334m. Speed=26.532000m/h.</desc>
<speed>7.370000</speed>
</trkpt>
<trkpt lat="55.804638" lon="26.525740">
<ele>116.926819</ele>
<time>2010-07-18T13:35:12Z</time>
<desc>lat.=55.804638, lon.=26.525740, Alt.=116.926819m. Speed=25.920000m/h.</desc>
<speed>7.200000</speed>
</trkpt>
<trkpt lat="55.804703" lon="26.525743">
<ele>117.127991</ele>
<time>2010-07-18T13:35:13Z</time>
<desc>lat.=55.804703, lon.=26.525743, Alt.=117.127991m. Speed=24.732000m/h.</desc>
<speed>6.870000</speed>
</trkpt>
<trkpt lat="55.804760" lon="26.525745">
<ele>117.180725</ele>
<time>2010-07-18T13:35:14Z</time>
<desc>lat.=55.804760, lon.=26.525745, Alt.=117.180725m. Speed=23.400000m/h.</desc>
<speed>6.500000</speed>
</trkpt>
<trkpt lat="55.804821" lon="26.525749">
<ele>116.592834</ele>
<time>2010-07-18T13:35:15Z</time>
<desc>lat.=55.804821, lon.=26.525749, Alt.=116.592834m. Speed=24.299999m/h.</desc>
<speed>6.750000</speed>
</trkpt>
<trkpt lat="55.804878" lon="26.525751">
<ele>116.383850</ele>
<time>2010-07-18T13:35:16Z</time>
<desc>lat.=55.804878, lon.=26.525751, Alt.=116.383850m. Speed=24.048000m/h.</desc>
<speed>6.680000</speed>
</trkpt>
<trkpt lat="55.804939" lon="26.525755">
<ele>116.588928</ele>
<time>2010-07-18T13:35:17Z</time>
<desc>lat.=55.804939, lon.=26.525755, Alt.=116.588928m. Speed=24.156000m/h.</desc>
<speed>6.710000</speed>
</trkpt>
<trkpt lat="55.805000" lon="26.525759">
<ele>116.704163</ele>
<time>2010-07-18T13:35:18Z</time>
<desc>lat.=55.805000, lon.=26.525759, Alt.=116.704163m. Speed=24.048000m/h.</desc>
<speed>6.680000</speed>
</trkpt>
<trkpt lat="55.805065" lon="26.525764">
<ele>116.987366</ele>
<time>2010-07-18T13:35:19Z</time>
<desc>lat.=55.805065, lon.=26.525764, Alt.=116.987366m. Speed=24.048000m/h.</desc>
<speed>6.680000</speed>
</trkpt>
<trkpt lat="55.805122" lon="26.525766">
<ele>116.844788</ele>
<time>2010-07-18T13:35:20Z</time>
<desc>lat.=55.805122, lon.=26.525766, Alt.=116.844788m. Speed=23.256001m/h.</desc>
<speed>6.460000</speed>
</trkpt>
<trkpt lat="55.805180" lon="26.525763">
<ele>116.538147</ele>
<time>2010-07-18T13:35:21Z</time>
<desc>lat.=55.805180, lon.=26.525763, Alt.=116.538147m. Speed=24.228001m/h.</desc>
<speed>6.730000</speed>
</trkpt>
<trkpt lat="55.805241" lon="26.525759">
<ele>116.086975</ele>
<time>2010-07-18T13:35:22Z</time>
<desc>lat.=55.805241, lon.=26.525759, Alt.=116.086975m. Speed=24.480000m/h.</desc>
<speed>6.800000</speed>
</trkpt>
<trkpt lat="55.805302" lon="26.525757">
<ele>115.774475</ele>
<time>2010-07-18T13:35:23Z</time>
<desc>lat.=55.805302, lon.=26.525757, Alt.=115.774475m. Speed=24.624001m/h.</desc>
<speed>6.840000</speed>
</trkpt>
<trkpt lat="55.805363" lon="26.525757">
<ele>115.829163</ele>
<time>2010-07-18T13:35:24Z</time>
<desc>lat.=55.805363, lon.=26.525757, Alt.=115.829163m. Speed=24.587999m/h.</desc>
<speed>6.830000</speed>
</trkpt>
<trkpt lat="55.805424" lon="26.525759">
<ele>115.936584</ele>
<time>2010-07-18T13:35:25Z</time>
<desc>lat.=55.805424, lon.=26.525759, Alt.=115.936584m. Speed=24.336000m/h.</desc>
<speed>6.760000</speed>
</trkpt>
<trkpt lat="55.805485" lon="26.525763">
<ele>115.881897</ele>
<time>2010-07-18T13:35:26Z</time>
<desc>lat.=55.805485, lon.=26.525763, Alt.=115.881897m. Speed=24.444000m/h.</desc>
<speed>6.790000</speed>
</trkpt>
<trkpt lat="55.805546" lon="26.525763">
<ele>115.752991</ele>
<time>2010-07-18T13:35:27Z</time>
<desc>lat.=55.805546, lon.=26.525763, Alt.=115.752991m. Speed=24.624001m/h.</desc>
<speed>6.840000</speed>
</trkpt>
<trkpt lat="55.805607" lon="26.525763">
<ele>115.594788</ele>
<time>2010-07-18T13:35:28Z</time>
<desc>lat.=55.805607, lon.=26.525763, Alt.=115.594788m. Speed=23.760000m/h.</desc>
<speed>6.600000</speed>
</trkpt>
<trkpt lat="55.805664" lon="26.525766">
<ele>115.497131</ele>
<time>2010-07-18T13:35:29Z</time>
<desc>lat.=55.805664, lon.=26.525766, Alt.=115.497131m. Speed=23.040001m/h.</desc>
<speed>6.400000</speed>
</trkpt>
<trkpt lat="55.805721" lon="26.525772">
<ele>115.627991</ele>
<time>2010-07-18T13:35:30Z</time>
<desc>lat.=55.805721, lon.=26.525772, Alt.=115.627991m. Speed=22.104000m/h.</desc>
<speed>6.140000</speed>
</trkpt>
<trkpt lat="55.805775" lon="26.525778">
<ele>115.495178</ele>
<time>2010-07-18T13:35:31Z</time>
<desc>lat.=55.805775, lon.=26.525778, Alt.=115.495178m. Speed=21.348000m/h.</desc>
<speed>5.930000</speed>
</trkpt>
<trkpt lat="55.805828" lon="26.525780">
<ele>115.344788</ele>
<time>2010-07-18T13:35:32Z</time>
<desc>lat.=55.805828, lon.=26.525780, Alt.=115.344788m. Speed=20.483999m/h.</desc>
<speed>5.690000</speed>
</trkpt>
<trkpt lat="55.805878" lon="26.525772">
<ele>115.260803</ele>
<time>2010-07-18T13:35:33Z</time>
<desc>lat.=55.805878, lon.=26.525772, Alt.=115.260803m. Speed=19.691999m/h.</desc>
<speed>5.470000</speed>
</trkpt>
<trkpt lat="55.805927" lon="26.525768">
<ele>115.329163</ele>
<time>2010-07-18T13:35:34Z</time>
<desc>lat.=55.805927, lon.=26.525768, Alt.=115.329163m. Speed=18.719999m/h.</desc>
<speed>5.200000</speed>
</trkpt>
<trkpt lat="55.805973" lon="26.525763">
<ele>115.131897</ele>
<time>2010-07-18T13:35:35Z</time>
<desc>lat.=55.805973, lon.=26.525763, Alt.=115.131897m. Speed=18.143999m/h.</desc>
<speed>5.040000</speed>
</trkpt>
<trkpt lat="55.806019" lon="26.525763">
<ele>115.020569</ele>
<time>2010-07-18T13:35:36Z</time>
<desc>lat.=55.806019, lon.=26.525763, Alt.=115.020569m. Speed=18.252001m/h.</desc>
<speed>5.070000</speed>
</trkpt>
<trkpt lat="55.806065" lon="26.525759">
<ele>114.852600</ele>
<time>2010-07-18T13:35:37Z</time>
<desc>lat.=55.806065, lon.=26.525759, Alt.=114.852600m. Speed=18.648001m/h.</desc>
<speed>5.180000</speed>
</trkpt>
<trkpt lat="55.806110" lon="26.525755">
<ele>114.772522</ele>
<time>2010-07-18T13:35:38Z</time>
<desc>lat.=55.806110, lon.=26.525755, Alt.=114.772522m. Speed=18.756001m/h.</desc>
<speed>5.210000</speed>
</trkpt>
<trkpt lat="55.806156" lon="26.525751">
<ele>114.790100</ele>
<time>2010-07-18T13:35:39Z</time>
<desc>lat.=55.806156, lon.=26.525751, Alt.=114.790100m. Speed=19.188000m/h.</desc>
<speed>5.330000</speed>
</trkpt>
<trkpt lat="55.806202" lon="26.525747">
<ele>114.741272</ele>
<time>2010-07-18T13:35:40Z</time>
<desc>lat.=55.806202, lon.=26.525747, Alt.=114.741272m. Speed=19.728001m/h.</desc>
<speed>5.480000</speed>
</trkpt>
<trkpt lat="55.806252" lon="26.525742">
<ele>114.678772</ele>
<time>2010-07-18T13:35:41Z</time>
<desc>lat.=55.806252, lon.=26.525742, Alt.=114.678772m. Speed=19.511999m/h.</desc>
<speed>5.420000</speed>
</trkpt>
<trkpt lat="55.806297" lon="26.525738">
<ele>114.713928</ele>
<time>2010-07-18T13:35:42Z</time>
<desc>lat.=55.806297, lon.=26.525738, Alt.=114.713928m. Speed=19.620001m/h.</desc>
<speed>5.450000</speed>
</trkpt>
<trkpt lat="55.806347" lon="26.525738">
<ele>114.885803</ele>
<time>2010-07-18T13:35:43Z</time>
<desc>lat.=55.806347, lon.=26.525738, Alt.=114.885803m. Speed=20.052000m/h.</desc>
<speed>5.570000</speed>
</trkpt>
<trkpt lat="55.806396" lon="26.525736">
<ele>114.934631</ele>
<time>2010-07-18T13:35:44Z</time>
<desc>lat.=55.806396, lon.=26.525736, Alt.=114.934631m. Speed=19.224001m/h.</desc>
<speed>5.340000</speed>
</trkpt>
<trkpt lat="55.806442" lon="26.525736">
<ele>114.780334</ele>
<time>2010-07-18T13:35:45Z</time>
<desc>lat.=55.806442, lon.=26.525736, Alt.=114.780334m. Speed=19.115999m/h.</desc>
<speed>5.310000</speed>
</trkpt>
<trkpt lat="55.806492" lon="26.525724">
<ele>114.827209</ele>
<time>2010-07-18T13:35:46Z</time>
<desc>lat.=55.806492, lon.=26.525724, Alt.=114.827209m. Speed=18.143999m/h.</desc>
<speed>5.040000</speed>
</trkpt>
<trkpt lat="55.806534" lon="26.525717">
<ele>114.895569</ele>
<time>2010-07-18T13:35:47Z</time>
<desc>lat.=55.806534, lon.=26.525717, Alt.=114.895569m. Speed=17.028000m/h.</desc>
<speed>4.730000</speed>
</trkpt>
<trkpt lat="55.806576" lon="26.525709">
<ele>115.067444</ele>
<time>2010-07-18T13:35:48Z</time>
<desc>lat.=55.806576, lon.=26.525709, Alt.=115.067444m. Speed=16.740000m/h.</desc>
<speed>4.650000</speed>
</trkpt>
<trkpt lat="55.806618" lon="26.525709">
<ele>115.098694</ele>
<time>2010-07-18T13:35:49Z</time>
<desc>lat.=55.806618, lon.=26.525709, Alt.=115.098694m. Speed=16.812000m/h.</desc>
<speed>4.670000</speed>
</trkpt>
<trkpt lat="55.806660" lon="26.525707">
<ele>115.018616</ele>
<time>2010-07-18T13:35:50Z</time>
<desc>lat.=55.806660, lon.=26.525707, Alt.=115.018616m. Speed=16.992001m/h.</desc>
<speed>4.720000</speed>
</trkpt>
<trkpt lat="55.806702" lon="26.525707">
<ele>114.940491</ele>
<time>2010-07-18T13:35:51Z</time>
<desc>lat.=55.806702, lon.=26.525707, Alt.=114.940491m. Speed=17.604000m/h.</desc>
<speed>4.890000</speed>
</trkpt>
<trkpt lat="55.806747" lon="26.525711">
<ele>115.122131</ele>
<time>2010-07-18T13:35:52Z</time>
<desc>lat.=55.806747, lon.=26.525711, Alt.=115.122131m. Speed=17.316000m/h.</desc>
<speed>4.810000</speed>
</trkpt>
<trkpt lat="55.806789" lon="26.525707">
<ele>115.254944</ele>
<time>2010-07-18T13:35:53Z</time>
<desc>lat.=55.806789, lon.=26.525707, Alt.=115.254944m. Speed=17.459999m/h.</desc>
<speed>4.850000</speed>
</trkpt>
<trkpt lat="55.806831" lon="26.525707">
<ele>115.297913</ele>
<time>2010-07-18T13:35:54Z</time>
<desc>lat.=55.806831, lon.=26.525707, Alt.=115.297913m. Speed=18.468000m/h.</desc>
<speed>5.130000</speed>
</trkpt>
<trkpt lat="55.806877" lon="26.525698">
<ele>115.223694</ele>
<time>2010-07-18T13:35:55Z</time>
<desc>lat.=55.806877, lon.=26.525698, Alt.=115.223694m. Speed=18.648001m/h.</desc>
<speed>5.180000</speed>
</trkpt>
<trkpt lat="55.806923" lon="26.525690">
<ele>115.379944</ele>
<time>2010-07-18T13:35:56Z</time>
<desc>lat.=55.806923, lon.=26.525690, Alt.=115.379944m. Speed=18.143999m/h.</desc>
<speed>5.040000</speed>
</trkpt>
<trkpt lat="55.806965" lon="26.525679">
<ele>115.463928</ele>
<time>2010-07-18T13:35:57Z</time>
<desc>lat.=55.806965, lon.=26.525679, Alt.=115.463928m. Speed=17.459999m/h.</desc>
<speed>4.850000</speed>
</trkpt>
<trkpt lat="55.807007" lon="26.525671">
<ele>115.284241</ele>
<time>2010-07-18T13:35:58Z</time>
<desc>lat.=55.807007, lon.=26.525671, Alt.=115.284241m. Speed=17.063999m/h.</desc>
<speed>4.740000</speed>
</trkpt>
<trkpt lat="55.807049" lon="26.525663">
<ele>115.190491</ele>
<time>2010-07-18T13:35:59Z</time>
<desc>lat.=55.807049, lon.=26.525663, Alt.=115.190491m. Speed=17.172001m/h.</desc>
<speed>4.770000</speed>
</trkpt>
<trkpt lat="55.807091" lon="26.525660">
<ele>114.885803</ele>
<time>2010-07-18T13:36:00Z</time>
<desc>lat.=55.807091, lon.=26.525660, Alt.=114.885803m. Speed=17.351999m/h.</desc>
<speed>4.820000</speed>
</trkpt>
<trkpt lat="55.807133" lon="26.525652">
<ele>114.788147</ele>
<time>2010-07-18T13:36:01Z</time>
<desc>lat.=55.807133, lon.=26.525652, Alt.=114.788147m. Speed=17.820000m/h.</desc>
<speed>4.950000</speed>
</trkpt>
<trkpt lat="55.807175" lon="26.525644">
<ele>114.817444</ele>
<time>2010-07-18T13:36:02Z</time>
<desc>lat.=55.807175, lon.=26.525644, Alt.=114.817444m. Speed=17.747999m/h.</desc>
<speed>4.930000</speed>
</trkpt>
<trkpt lat="55.807220" lon="26.525637">
<ele>115.104553</ele>
<time>2010-07-18T13:36:03Z</time>
<desc>lat.=55.807220, lon.=26.525637, Alt.=115.104553m. Speed=18.108000m/h.</desc>
<speed>5.030000</speed>
</trkpt>
<trkpt lat="55.807266" lon="26.525625">
<ele>115.297913</ele>
<time>2010-07-18T13:36:04Z</time>
<desc>lat.=55.807266, lon.=26.525625, Alt.=115.297913m. Speed=18.035999m/h.</desc>
<speed>5.010000</speed>
</trkpt>
<trkpt lat="55.807308" lon="26.525616">
<ele>115.471741</ele>
<time>2010-07-18T13:36:05Z</time>
<desc>lat.=55.807308, lon.=26.525616, Alt.=115.471741m. Speed=18.360001m/h.</desc>
<speed>5.100000</speed>
</trkpt>
<trkpt lat="55.807354" lon="26.525608">
<ele>115.526428</ele>
<time>2010-07-18T13:36:06Z</time>
<desc>lat.=55.807354, lon.=26.525608, Alt.=115.526428m. Speed=18.288000m/h.</desc>
<speed>5.080000</speed>
</trkpt>
<trkpt lat="55.807400" lon="26.525602">
<ele>115.485413</ele>
<time>2010-07-18T13:36:07Z</time>
<desc>lat.=55.807400, lon.=26.525602, Alt.=115.485413m. Speed=18.540001m/h.</desc>
<speed>5.150000</speed>
</trkpt>
<trkpt lat="55.807446" lon="26.525595">
<ele>115.036194</ele>
<time>2010-07-18T13:36:08Z</time>
<desc>lat.=55.807446, lon.=26.525595, Alt.=115.036194m. Speed=18.143999m/h.</desc>
<speed>5.040000</speed>
</trkpt>
<trkpt lat="55.807491" lon="26.525585">
<ele>115.198303</ele>
<time>2010-07-18T13:36:09Z</time>
<desc>lat.=55.807491, lon.=26.525585, Alt.=115.198303m. Speed=18.072001m/h.</desc>
<speed>5.020000</speed>
</trkpt>
<trkpt lat="55.807533" lon="26.525576">
<ele>115.012756</ele>
<time>2010-07-18T13:36:10Z</time>
<desc>lat.=55.807533, lon.=26.525576, Alt.=115.012756m. Speed=17.820000m/h.</desc>
<speed>4.950000</speed>
</trkpt>
<trkpt lat="55.807575" lon="26.525562">
<ele>115.735413</ele>
<time>2010-07-18T13:36:11Z</time>
<desc>lat.=55.807575, lon.=26.525562, Alt.=115.735413m. Speed=18.143999m/h.</desc>
<speed>5.040000</speed>
</trkpt>
<trkpt lat="55.807621" lon="26.525549">
<ele>115.813538</ele>
<time>2010-07-18T13:36:12Z</time>
<desc>lat.=55.807621, lon.=26.525549, Alt.=115.813538m. Speed=18.540001m/h.</desc>
<speed>5.150000</speed>
</trkpt>
<trkpt lat="55.807667" lon="26.525539">
<ele>115.719788</ele>
<time>2010-07-18T13:36:13Z</time>
<desc>lat.=55.807667, lon.=26.525539, Alt.=115.719788m. Speed=18.719999m/h.</desc>
<speed>5.200000</speed>
</trkpt>
<trkpt lat="55.807713" lon="26.525524">
<ele>115.618225</ele>
<time>2010-07-18T13:36:14Z</time>
<desc>lat.=55.807713, lon.=26.525524, Alt.=115.618225m. Speed=18.936001m/h.</desc>
<speed>5.260000</speed>
</trkpt>
<trkpt lat="55.807758" lon="26.525509">
<ele>115.667053</ele>
<time>2010-07-18T13:36:15Z</time>
<desc>lat.=55.807758, lon.=26.525509, Alt.=115.667053m. Speed=19.152000m/h.</desc>
<speed>5.320000</speed>
</trkpt>
<trkpt lat="55.807808" lon="26.525496">
<ele>115.706116</ele>
<time>2010-07-18T13:36:16Z</time>
<desc>lat.=55.807808, lon.=26.525496, Alt.=115.706116m. Speed=19.584000m/h.</desc>
<speed>5.440000</speed>
</trkpt>
<trkpt lat="55.807858" lon="26.525488">
<ele>115.672913</ele>
<time>2010-07-18T13:36:17Z</time>
<desc>lat.=55.807858, lon.=26.525488, Alt.=115.672913m. Speed=19.620001m/h.</desc>
<speed>5.450000</speed>
</trkpt>
<trkpt lat="55.807907" lon="26.525478">
<ele>115.608459</ele>
<time>2010-07-18T13:36:18Z</time>
<desc>lat.=55.807907, lon.=26.525478, Alt.=115.608459m. Speed=20.016001m/h.</desc>
<speed>5.560000</speed>
</trkpt>
<trkpt lat="55.807957" lon="26.525465">
<ele>115.590881</ele>
<time>2010-07-18T13:36:19Z</time>
<desc>lat.=55.807957, lon.=26.525465, Alt.=115.590881m. Speed=20.412001m/h.</desc>
<speed>5.670000</speed>
</trkpt>
<trkpt lat="55.808006" lon="26.525450">
<ele>115.544006</ele>
<time>2010-07-18T13:36:20Z</time>
<desc>lat.=55.808006, lon.=26.525450, Alt.=115.544006m. Speed=19.872000m/h.</desc>
<speed>5.520000</speed>
</trkpt>
<trkpt lat="55.808056" lon="26.525436">
<ele>115.655334</ele>
<time>2010-07-18T13:36:21Z</time>
<desc>lat.=55.808056, lon.=26.525436, Alt.=115.655334m. Speed=19.080000m/h.</desc>
<speed>5.300000</speed>
</trkpt>
<trkpt lat="55.808102" lon="26.525427">
<ele>115.573303</ele>
<time>2010-07-18T13:36:22Z</time>
<desc>lat.=55.808102, lon.=26.525427, Alt.=115.573303m. Speed=18.288000m/h.</desc>
<speed>5.080000</speed>
</trkpt>
<trkpt lat="55.808147" lon="26.525419">
<ele>115.432678</ele>
<time>2010-07-18T13:36:23Z</time>
<desc>lat.=55.808147, lon.=26.525419, Alt.=115.432678m. Speed=18.468000m/h.</desc>
<speed>5.130000</speed>
</trkpt>
<trkpt lat="55.808193" lon="26.525410">
<ele>115.118225</ele>
<time>2010-07-18T13:36:24Z</time>
<desc>lat.=55.808193, lon.=26.525410, Alt.=115.118225m. Speed=17.747999m/h.</desc>
<speed>4.930000</speed>
</trkpt>
<trkpt lat="55.808235" lon="26.525396">
<ele>115.165100</ele>
<time>2010-07-18T13:36:25Z</time>
<desc>lat.=55.808235, lon.=26.525396, Alt.=115.165100m. Speed=18.396000m/h.</desc>
<speed>5.110000</speed>
</trkpt>
<trkpt lat="55.808281" lon="26.525385">
<ele>115.288147</ele>
<time>2010-07-18T13:36:26Z</time>
<desc>lat.=55.808281, lon.=26.525385, Alt.=115.288147m. Speed=18.180000m/h.</desc>
<speed>5.050000</speed>
</trkpt>
<trkpt lat="55.808327" lon="26.525377">
<ele>115.422913</ele>
<time>2010-07-18T13:36:27Z</time>
<desc>lat.=55.808327, lon.=26.525377, Alt.=115.422913m. Speed=17.712000m/h.</desc>
<speed>4.920000</speed>
</trkpt>
<trkpt lat="55.808369" lon="26.525370">
<ele>115.669006</ele>
<time>2010-07-18T13:36:28Z</time>
<desc>lat.=55.808369, lon.=26.525370, Alt.=115.669006m. Speed=17.459999m/h.</desc>
<speed>4.850000</speed>
</trkpt>
<trkpt lat="55.808411" lon="26.525364">
<ele>115.733459</ele>
<time>2010-07-18T13:36:29Z</time>
<desc>lat.=55.808411, lon.=26.525364, Alt.=115.733459m. Speed=16.812000m/h.</desc>
<speed>4.670000</speed>
</trkpt>
<trkpt lat="55.808449" lon="26.525358">
<ele>115.694397</ele>
<time>2010-07-18T13:36:30Z</time>
<desc>lat.=55.808449, lon.=26.525358, Alt.=115.694397m. Speed=16.308001m/h.</desc>
<speed>4.530000</speed>
</trkpt>
<trkpt lat="55.808487" lon="26.525345">
<ele>115.583069</ele>
<time>2010-07-18T13:36:31Z</time>
<desc>lat.=55.808487, lon.=26.525345, Alt.=115.583069m. Speed=15.732000m/h.</desc>
<speed>4.370000</speed>
</trkpt>
<trkpt lat="55.808529" lon="26.525333">
<ele>115.536194</ele>
<time>2010-07-18T13:36:32Z</time>
<desc>lat.=55.808529, lon.=26.525333, Alt.=115.536194m. Speed=15.336000m/h.</desc>
<speed>4.260000</speed>
</trkpt>
<trkpt lat="55.808567" lon="26.525320">
<ele>115.516663</ele>
<time>2010-07-18T13:36:33Z</time>
<desc>lat.=55.808567, lon.=26.525320, Alt.=115.516663m. Speed=14.148000m/h.</desc>
<speed>3.930000</speed>
</trkpt>
<trkpt lat="55.808601" lon="26.525305">
<ele>115.518616</ele>
<time>2010-07-18T13:36:34Z</time>
<desc>lat.=55.808601, lon.=26.525305, Alt.=115.518616m. Speed=14.616000m/h.</desc>
<speed>4.060000</speed>
</trkpt>
<trkpt lat="55.808640" lon="26.525295">
<ele>115.532288</ele>
<time>2010-07-18T13:36:35Z</time>
<desc>lat.=55.808640, lon.=26.525295, Alt.=115.532288m. Speed=13.212000m/h.</desc>
<speed>3.670000</speed>
</trkpt>
<trkpt lat="55.808670" lon="26.525286">
<ele>115.471741</ele>
<time>2010-07-18T13:36:36Z</time>
<desc>lat.=55.808670, lon.=26.525286, Alt.=115.471741m. Speed=12.744000m/h.</desc>
<speed>3.540000</speed>
</trkpt>
<trkpt lat="55.808708" lon="26.525278">
<ele>115.508850</ele>
<time>2010-07-18T13:36:37Z</time>
<desc>lat.=55.808708, lon.=26.525278, Alt.=115.508850m. Speed=15.012000m/h.</desc>
<speed>4.170000</speed>
</trkpt>
<trkpt lat="55.808739" lon="26.525261">
<ele>115.633850</ele>
<time>2010-07-18T13:36:38Z</time>
<desc>lat.=55.808739, lon.=26.525261, Alt.=115.633850m. Speed=14.832000m/h.</desc>
<speed>4.120000</speed>
</trkpt>
<trkpt lat="55.808773" lon="26.525248">
<ele>115.522522</ele>
<time>2010-07-18T13:36:39Z</time>
<desc>lat.=55.808773, lon.=26.525248, Alt.=115.522522m. Speed=15.588000m/h.</desc>
<speed>4.330000</speed>
</trkpt>
<trkpt lat="55.808807" lon="26.525240">
<ele>115.299866</ele>
<time>2010-07-18T13:36:40Z</time>
<desc>lat.=55.808807, lon.=26.525240, Alt.=115.299866m. Speed=15.768000m/h.</desc>
<speed>4.380000</speed>
</trkpt>
<trkpt lat="55.808849" lon="26.525238">
<ele>115.278381</ele>
<time>2010-07-18T13:36:41Z</time>
<desc>lat.=55.808849, lon.=26.525238, Alt.=115.278381m. Speed=16.128000m/h.</desc>
<speed>4.480000</speed>
</trkpt>
<trkpt lat="55.808887" lon="26.525229">
<ele>115.303772</ele>
<time>2010-07-18T13:36:42Z</time>
<desc>lat.=55.808887, lon.=26.525229, Alt.=115.303772m. Speed=16.379999m/h.</desc>
<speed>4.550000</speed>
</trkpt>
<trkpt lat="55.808933" lon="26.525215">
<ele>115.252991</ele>
<time>2010-07-18T13:36:43Z</time>
<desc>lat.=55.808933, lon.=26.525215, Alt.=115.252991m. Speed=17.280001m/h.</desc>
<speed>4.800000</speed>
</trkpt>
<trkpt lat="55.808979" lon="26.525204">
<ele>115.096741</ele>
<time>2010-07-18T13:36:44Z</time>
<desc>lat.=55.808979, lon.=26.525204, Alt.=115.096741m. Speed=18.396000m/h.</desc>
<speed>5.110000</speed>
</trkpt>
<trkpt lat="55.809025" lon="26.525188">
<ele>115.159241</ele>
<time>2010-07-18T13:36:45Z</time>
<desc>lat.=55.809025, lon.=26.525188, Alt.=115.159241m. Speed=19.044001m/h.</desc>
<speed>5.290000</speed>
</trkpt>
<trkpt lat="55.809074" lon="26.525175">
<ele>114.987366</ele>
<time>2010-07-18T13:36:46Z</time>
<desc>lat.=55.809074, lon.=26.525175, Alt.=114.987366m. Speed=19.332001m/h.</desc>
<speed>5.370000</speed>
</trkpt>
<trkpt lat="55.809116" lon="26.525158">
<ele>114.809631</ele>
<time>2010-07-18T13:36:47Z</time>
<desc>lat.=55.809116, lon.=26.525158, Alt.=114.809631m. Speed=19.440001m/h.</desc>
<speed>5.400000</speed>
</trkpt>
<trkpt lat="55.809166" lon="26.525146">
<ele>114.725647</ele>
<time>2010-07-18T13:36:48Z</time>
<desc>lat.=55.809166, lon.=26.525146, Alt.=114.725647m. Speed=19.656000m/h.</desc>
<speed>5.460000</speed>
</trkpt>
<trkpt lat="55.809212" lon="26.525141">
<ele>114.547913</ele>
<time>2010-07-18T13:36:49Z</time>
<desc>lat.=55.809212, lon.=26.525141, Alt.=114.547913m. Speed=20.016001m/h.</desc>
<speed>5.560000</speed>
</trkpt>
<trkpt lat="55.809261" lon="26.525137">
<ele>114.309631</ele>
<time>2010-07-18T13:36:50Z</time>
<desc>lat.=55.809261, lon.=26.525137, Alt.=114.309631m. Speed=20.556000m/h.</desc>
<speed>5.710000</speed>
</trkpt>
<trkpt lat="55.809311" lon="26.525129">
<ele>114.264709</ele>
<time>2010-07-18T13:36:51Z</time>
<desc>lat.=55.809311, lon.=26.525129, Alt.=114.264709m. Speed=20.808001m/h.</desc>
<speed>5.780000</speed>
</trkpt>
<trkpt lat="55.809364" lon="26.525122">
<ele>114.317444</ele>
<time>2010-07-18T13:36:52Z</time>
<desc>lat.=55.809364, lon.=26.525122, Alt.=114.317444m. Speed=20.988001m/h.</desc>
<speed>5.830000</speed>
</trkpt>
<trkpt lat="55.809418" lon="26.525114">
<ele>114.272522</ele>
<time>2010-07-18T13:36:53Z</time>
<desc>lat.=55.809418, lon.=26.525114, Alt.=114.272522m. Speed=21.204000m/h.</desc>
<speed>5.890000</speed>
</trkpt>
<trkpt lat="55.809467" lon="26.525103">
<ele>114.194397</ele>
<time>2010-07-18T13:36:54Z</time>
<desc>lat.=55.809467, lon.=26.525103, Alt.=114.194397m. Speed=21.455999m/h.</desc>
<speed>5.960000</speed>
</trkpt>
<trkpt lat="55.809525" lon="26.525093">
<ele>114.254944</ele>
<time>2010-07-18T13:36:55Z</time>
<desc>lat.=55.809525, lon.=26.525093, Alt.=114.254944m. Speed=21.780001m/h.</desc>
<speed>6.050000</speed>
</trkpt>
<trkpt lat="55.809574" lon="26.525074">
<ele>115.086975</ele>
<time>2010-07-18T13:36:56Z</time>
<desc>lat.=55.809574, lon.=26.525074, Alt.=115.086975m. Speed=21.888000m/h.</desc>
<speed>6.080000</speed>
</trkpt>
<trkpt lat="55.809628" lon="26.525061">
<ele>115.102600</ele>
<time>2010-07-18T13:36:57Z</time>
<desc>lat.=55.809628, lon.=26.525061, Alt.=115.102600m. Speed=22.176001m/h.</desc>
<speed>6.160000</speed>
</trkpt>
<trkpt lat="55.809685" lon="26.525049">
<ele>115.020569</ele>
<time>2010-07-18T13:36:58Z</time>
<desc>lat.=55.809685, lon.=26.525049, Alt.=115.020569m. Speed=22.680000m/h.</desc>
<speed>6.300000</speed>
</trkpt>
<trkpt lat="55.809742" lon="26.525032">
<ele>114.852600</ele>
<time>2010-07-18T13:36:59Z</time>
<desc>lat.=55.809742, lon.=26.525032, Alt.=114.852600m. Speed=22.931999m/h.</desc>
<speed>6.370000</speed>
</trkpt>
<trkpt lat="55.809799" lon="26.525017">
<ele>114.838928</ele>
<time>2010-07-18T13:37:00Z</time>
<desc>lat.=55.809799, lon.=26.525017, Alt.=114.838928m. Speed=23.580000m/h.</desc>
<speed>6.550000</speed>
</trkpt>
<trkpt lat="55.809856" lon="26.525005">
<ele>114.635803</ele>
<time>2010-07-18T13:37:01Z</time>
<desc>lat.=55.809856, lon.=26.525005, Alt.=114.635803m. Speed=24.084000m/h.</desc>
<speed>6.690000</speed>
</trkpt>
<trkpt lat="55.809917" lon="26.524994">
<ele>114.372131</ele>
<time>2010-07-18T13:37:02Z</time>
<desc>lat.=55.809917, lon.=26.524994, Alt.=114.372131m. Speed=24.624001m/h.</desc>
<speed>6.840000</speed>
</trkpt>
<trkpt lat="55.809978" lon="26.524981">
<ele>114.194397</ele>
<time>2010-07-18T13:37:03Z</time>
<desc>lat.=55.809978, lon.=26.524981, Alt.=114.194397m. Speed=25.271999m/h.</desc>
<speed>7.020000</speed>
</trkpt>
<trkpt lat="55.810040" lon="26.524973">
<ele>114.042053</ele>
<time>2010-07-18T13:37:04Z</time>
<desc>lat.=55.810040, lon.=26.524973, Alt.=114.042053m. Speed=26.100000m/h.</desc>
<speed>7.250000</speed>
</trkpt>
<trkpt lat="55.810104" lon="26.524960">
<ele>114.038147</ele>
<time>2010-07-18T13:37:05Z</time>
<desc>lat.=55.810104, lon.=26.524960, Alt.=114.038147m. Speed=26.712000m/h.</desc>
<speed>7.420000</speed>
</trkpt>
<trkpt lat="55.810173" lon="26.524944">
<ele>113.924866</ele>
<time>2010-07-18T13:37:06Z</time>
<desc>lat.=55.810173, lon.=26.524944, Alt.=113.924866m. Speed=27.576000m/h.</desc>
<speed>7.660000</speed>
</trkpt>
<trkpt lat="55.810242" lon="26.524929">
<ele>113.696350</ele>
<time>2010-07-18T13:37:07Z</time>
<desc>lat.=55.810242, lon.=26.524929, Alt.=113.696350m. Speed=28.440001m/h.</desc>
<speed>7.900000</speed>
</trkpt>
<trkpt lat="55.810318" lon="26.524910">
<ele>113.676819</ele>
<time>2010-07-18T13:37:08Z</time>
<desc>lat.=55.810318, lon.=26.524910, Alt.=113.676819m. Speed=28.944000m/h.</desc>
<speed>8.040000</speed>
</trkpt>
<trkpt lat="55.810390" lon="26.524891">
<ele>113.563538</ele>
<time>2010-07-18T13:37:09Z</time>
<desc>lat.=55.810390, lon.=26.524891, Alt.=113.563538m. Speed=29.268000m/h.</desc>
<speed>8.130000</speed>
</trkpt>
<trkpt lat="55.810467" lon="26.524872">
<ele>113.323303</ele>
<time>2010-07-18T13:37:10Z</time>
<desc>lat.=55.810467, lon.=26.524872, Alt.=113.323303m. Speed=30.096001m/h.</desc>
<speed>8.360000</speed>
</trkpt>
<trkpt lat="55.810539" lon="26.524847">
<ele>113.126038</ele>
<time>2010-07-18T13:37:11Z</time>
<desc>lat.=55.810539, lon.=26.524847, Alt.=113.126038m. Speed=30.636000m/h.</desc>
<speed>8.510000</speed>
</trkpt>
<trkpt lat="55.810619" lon="26.524830">
<ele>112.833069</ele>
<time>2010-07-18T13:37:12Z</time>
<desc>lat.=55.810619, lon.=26.524830, Alt.=112.833069m. Speed=31.931999m/h.</desc>
<speed>8.870000</speed>
</trkpt>
<trkpt lat="55.810699" lon="26.524815">
<ele>112.512756</ele>
<time>2010-07-18T13:37:13Z</time>
<desc>lat.=55.810699, lon.=26.524815, Alt.=112.512756m. Speed=33.084000m/h.</desc>
<speed>9.190000</speed>
</trkpt>
<trkpt lat="55.810780" lon="26.524799">
<ele>112.155334</ele>
<time>2010-07-18T13:37:14Z</time>
<desc>lat.=55.810780, lon.=26.524799, Alt.=112.155334m. Speed=32.507999m/h.</desc>
<speed>9.030000</speed>
</trkpt>
<trkpt lat="55.810860" lon="26.524776">
<ele>111.637756</ele>
<time>2010-07-18T13:37:15Z</time>
<desc>lat.=55.810860, lon.=26.524776, Alt.=111.637756m. Speed=32.436001m/h.</desc>
<speed>9.010000</speed>
</trkpt>
<trkpt lat="55.810940" lon="26.524755">
<ele>110.844788</ele>
<time>2010-07-18T13:37:16Z</time>
<desc>lat.=55.810940, lon.=26.524755, Alt.=110.844788m. Speed=32.112000m/h.</desc>
<speed>8.920000</speed>
</trkpt>
<trkpt lat="55.811024" lon="26.524742">
<ele>110.838928</ele>
<time>2010-07-18T13:37:17Z</time>
<desc>lat.=55.811024, lon.=26.524742, Alt.=110.838928m. Speed=32.939999m/h.</desc>
<speed>9.150000</speed>
</trkpt>
<trkpt lat="55.811108" lon="26.524727">
<ele>110.874084</ele>
<time>2010-07-18T13:37:18Z</time>
<desc>lat.=55.811108, lon.=26.524727, Alt.=110.874084m. Speed=33.048000m/h.</desc>
<speed>9.180000</speed>
</trkpt>
<trkpt lat="55.811192" lon="26.524708">
<ele>110.801819</ele>
<time>2010-07-18T13:37:19Z</time>
<desc>lat.=55.811192, lon.=26.524708, Alt.=110.801819m. Speed=32.688000m/h.</desc>
<speed>9.080000</speed>
</trkpt>
<trkpt lat="55.811272" lon="26.524687">
<ele>110.594788</ele>
<time>2010-07-18T13:37:20Z</time>
<desc>lat.=55.811272, lon.=26.524687, Alt.=110.594788m. Speed=32.507999m/h.</desc>
<speed>9.030000</speed>
</trkpt>
<trkpt lat="55.811356" lon="26.524668">
<ele>111.235413</ele>
<time>2010-07-18T13:37:21Z</time>
<desc>lat.=55.811356, lon.=26.524668, Alt.=111.235413m. Speed=32.580002m/h.</desc>
<speed>9.050001</speed>
</trkpt>
<trkpt lat="55.811440" lon="26.524651">
<ele>111.192444</ele>
<time>2010-07-18T13:37:22Z</time>
<desc>lat.=55.811440, lon.=26.524651, Alt.=111.192444m. Speed=32.147999m/h.</desc>
<speed>8.930000</speed>
</trkpt>
<trkpt lat="55.811520" lon="26.524632">
<ele>111.200256</ele>
<time>2010-07-18T13:37:23Z</time>
<desc>lat.=55.811520, lon.=26.524632, Alt.=111.200256m. Speed=31.716000m/h.</desc>
<speed>8.810000</speed>
</trkpt>
<trkpt lat="55.811596" lon="26.524607">
<ele>111.157288</ele>
<time>2010-07-18T13:37:24Z</time>
<desc>lat.=55.811596, lon.=26.524607, Alt.=111.157288m. Speed=31.392000m/h.</desc>
<speed>8.720000</speed>
</trkpt>
<trkpt lat="55.811672" lon="26.524584">
<ele>111.176819</ele>
<time>2010-07-18T13:37:25Z</time>
<desc>lat.=55.811672, lon.=26.524584, Alt.=111.176819m. Speed=30.816000m/h.</desc>
<speed>8.560000</speed>
</trkpt>
<trkpt lat="55.811749" lon="26.524565">
<ele>111.069397</ele>
<time>2010-07-18T13:37:26Z</time>
<desc>lat.=55.811749, lon.=26.524565, Alt.=111.069397m. Speed=30.888000m/h.</desc>
<speed>8.580000</speed>
</trkpt>
<trkpt lat="55.811821" lon="26.524544">
<ele>110.862366</ele>
<time>2010-07-18T13:37:27Z</time>
<desc>lat.=55.811821, lon.=26.524544, Alt.=110.862366m. Speed=30.420000m/h.</desc>
<speed>8.450000</speed>
</trkpt>
<trkpt lat="55.811897" lon="26.524525">
<ele>110.782288</ele>
<time>2010-07-18T13:37:28Z</time>
<desc>lat.=55.811897, lon.=26.524525, Alt.=110.782288m. Speed=30.275999m/h.</desc>
<speed>8.410000</speed>
</trkpt>
<trkpt lat="55.811977" lon="26.524508">
<ele>110.489319</ele>
<time>2010-07-18T13:37:29Z</time>
<desc>lat.=55.811977, lon.=26.524508, Alt.=110.489319m. Speed=31.535999m/h.</desc>
<speed>8.760000</speed>
</trkpt>
<trkpt lat="55.812050" lon="26.524485">
<ele>110.172913</ele>
<time>2010-07-18T13:37:30Z</time>
<desc>lat.=55.812050, lon.=26.524485, Alt.=110.172913m. Speed=31.896000m/h.</desc>
<speed>8.860000</speed>
</trkpt>
<trkpt lat="55.812130" lon="26.524464">
<ele>110.051819</ele>
<time>2010-07-18T13:37:31Z</time>
<desc>lat.=55.812130, lon.=26.524464, Alt.=110.051819m. Speed=30.959999m/h.</desc>
<speed>8.600000</speed>
</trkpt>
<trkpt lat="55.812206" lon="26.524445">
<ele>109.774475</ele>
<time>2010-07-18T13:37:32Z</time>
<desc>lat.=55.812206, lon.=26.524445, Alt.=109.774475m. Speed=30.528000m/h.</desc>
<speed>8.480000</speed>
</trkpt>
<trkpt lat="55.812279" lon="26.524426">
<ele>109.629944</ele>
<time>2010-07-18T13:37:33Z</time>
<desc>lat.=55.812279, lon.=26.524426, Alt.=109.629944m. Speed=30.528000m/h.</desc>
<speed>8.480000</speed>
</trkpt>
<trkpt lat="55.812355" lon="26.524403">
<ele>109.651428</ele>
<time>2010-07-18T13:37:34Z</time>
<desc>lat.=55.812355, lon.=26.524403, Alt.=109.651428m. Speed=30.059999m/h.</desc>
<speed>8.350000</speed>
</trkpt>
<trkpt lat="55.812428" lon="26.524385">
<ele>109.428772</ele>
<time>2010-07-18T13:37:35Z</time>
<desc>lat.=55.812428, lon.=26.524385, Alt.=109.428772m. Speed=29.556000m/h.</desc>
<speed>8.210000</speed>
</trkpt>
<trkpt lat="55.812500" lon="26.524366">
<ele>109.405334</ele>
<time>2010-07-18T13:37:36Z</time>
<desc>lat.=55.812500, lon.=26.524366, Alt.=109.405334m. Speed=29.016001m/h.</desc>
<speed>8.060000</speed>
</trkpt>
<trkpt lat="55.812572" lon="26.524343">
<ele>109.424866</ele>
<time>2010-07-18T13:37:37Z</time>
<desc>lat.=55.812572, lon.=26.524343, Alt.=109.424866m. Speed=28.584000m/h.</desc>
<speed>7.940000</speed>
</trkpt>
<trkpt lat="55.812645" lon="26.524324">
<ele>109.333069</ele>
<time>2010-07-18T13:37:38Z</time>
<desc>lat.=55.812645, lon.=26.524324, Alt.=109.333069m. Speed=28.044001m/h.</desc>
<speed>7.790000</speed>
</trkpt>
<trkpt lat="55.812717" lon="26.524305">
<ele>109.249084</ele>
<time>2010-07-18T13:37:39Z</time>
<desc>lat.=55.812717, lon.=26.524305, Alt.=109.249084m. Speed=27.827999m/h.</desc>
<speed>7.730000</speed>
</trkpt>
<trkpt lat="55.812786" lon="26.524286">
<ele>109.241272</ele>
<time>2010-07-18T13:37:40Z</time>
<desc>lat.=55.812786, lon.=26.524286, Alt.=109.241272m. Speed=27.576000m/h.</desc>
<speed>7.660000</speed>
</trkpt>
<trkpt lat="55.812855" lon="26.524265">
<ele>109.368225</ele>
<time>2010-07-18T13:37:41Z</time>
<desc>lat.=55.812855, lon.=26.524265, Alt.=109.368225m. Speed=27.827999m/h.</desc>
<speed>7.730000</speed>
</trkpt>
<trkpt lat="55.812923" lon="26.524248">
<ele>109.217834</ele>
<time>2010-07-18T13:37:42Z</time>
<desc>lat.=55.812923, lon.=26.524248, Alt.=109.217834m. Speed=28.260000m/h.</desc>
<speed>7.850000</speed>
</trkpt>
<trkpt lat="55.812992" lon="26.524231">
<ele>109.131897</ele>
<time>2010-07-18T13:37:43Z</time>
<desc>lat.=55.812992, lon.=26.524231, Alt.=109.131897m. Speed=28.476000m/h.</desc>
<speed>7.910000</speed>
</trkpt>
<trkpt lat="55.813057" lon="26.524218">
<ele>108.741272</ele>
<time>2010-07-18T13:37:44Z</time>
<desc>lat.=55.813057, lon.=26.524218, Alt.=108.741272m. Speed=28.872000m/h.</desc>
<speed>8.020000</speed>
</trkpt>
<trkpt lat="55.813126" lon="26.524202">
<ele>108.309631</ele>
<time>2010-07-18T13:37:45Z</time>
<desc>lat.=55.813126, lon.=26.524202, Alt.=108.309631m. Speed=28.944000m/h.</desc>
<speed>8.040000</speed>
</trkpt>
<trkpt lat="55.813198" lon="26.524179">
<ele>108.196350</ele>
<time>2010-07-18T13:37:46Z</time>
<desc>lat.=55.813198, lon.=26.524179, Alt.=108.196350m. Speed=29.160000m/h.</desc>
<speed>8.100000</speed>
</trkpt>
<trkpt lat="55.813271" lon="26.524157">
<ele>108.151428</ele>
<time>2010-07-18T13:37:47Z</time>
<desc>lat.=55.813271, lon.=26.524157, Alt.=108.151428m. Speed=29.556000m/h.</desc>
<speed>8.210000</speed>
</trkpt>
<trkpt lat="55.813347" lon="26.524136">
<ele>108.045959</ele>
<time>2010-07-18T13:37:48Z</time>
<desc>lat.=55.813347, lon.=26.524136, Alt.=108.045959m. Speed=30.167999m/h.</desc>
<speed>8.380000</speed>
</trkpt>
<trkpt lat="55.813419" lon="26.524118">
<ele>107.891663</ele>
<time>2010-07-18T13:37:49Z</time>
<desc>lat.=55.813419, lon.=26.524118, Alt.=107.891663m. Speed=30.024000m/h.</desc>
<speed>8.340000</speed>
</trkpt>
<trkpt lat="55.813496" lon="26.524097">
<ele>107.860413</ele>
<time>2010-07-18T13:37:50Z</time>
<desc>lat.=55.813496, lon.=26.524097, Alt.=107.860413m. Speed=30.312000m/h.</desc>
<speed>8.420000</speed>
</trkpt>
<trkpt lat="55.813572" lon="26.524078">
<ele>107.883850</ele>
<time>2010-07-18T13:37:51Z</time>
<desc>lat.=55.813572, lon.=26.524078, Alt.=107.883850m. Speed=29.664000m/h.</desc>
<speed>8.240000</speed>
</trkpt>
<trkpt lat="55.813644" lon="26.524061">
<ele>107.805725</ele>
<time>2010-07-18T13:37:52Z</time>
<desc>lat.=55.813644, lon.=26.524061, Alt.=107.805725m. Speed=29.375999m/h.</desc>
<speed>8.160000</speed>
</trkpt>
<trkpt lat="55.813717" lon="26.524040">
<ele>107.899475</ele>
<time>2010-07-18T13:37:53Z</time>
<desc>lat.=55.813717, lon.=26.524040, Alt.=107.899475m. Speed=28.584000m/h.</desc>
<speed>7.940000</speed>
</trkpt>
<trkpt lat="55.813789" lon="26.524025">
<ele>107.836975</ele>
<time>2010-07-18T13:37:54Z</time>
<desc>lat.=55.813789, lon.=26.524025, Alt.=107.836975m. Speed=28.224001m/h.</desc>
<speed>7.840000</speed>
</trkpt>
<trkpt lat="55.813854" lon="26.524008">
<ele>107.778381</ele>
<time>2010-07-18T13:37:55Z</time>
<desc>lat.=55.813854, lon.=26.524008, Alt.=107.778381m. Speed=28.152000m/h.</desc>
<speed>7.820000</speed>
</trkpt>
<trkpt lat="55.813923" lon="26.523993">
<ele>107.704163</ele>
<time>2010-07-18T13:37:56Z</time>
<desc>lat.=55.813923, lon.=26.523993, Alt.=107.704163m. Speed=27.827999m/h.</desc>
<speed>7.730000</speed>
</trkpt>
<trkpt lat="55.813992" lon="26.523975">
<ele>107.639709</ele>
<time>2010-07-18T13:37:57Z</time>
<desc>lat.=55.813992, lon.=26.523975, Alt.=107.639709m. Speed=27.143999m/h.</desc>
<speed>7.540000</speed>
</trkpt>
<trkpt lat="55.814056" lon="26.523960">
<ele>107.735413</ele>
<time>2010-07-18T13:37:58Z</time>
<desc>lat.=55.814056, lon.=26.523960, Alt.=107.735413m. Speed=26.568001m/h.</desc>
<speed>7.380000</speed>
</trkpt>
<trkpt lat="55.814125" lon="26.523943">
<ele>107.854553</ele>
<time>2010-07-18T13:37:59Z</time>
<desc>lat.=55.814125, lon.=26.523943, Alt.=107.854553m. Speed=26.316000m/h.</desc>
<speed>7.310000</speed>
</trkpt>
<trkpt lat="55.814190" lon="26.523926">
<ele>108.049866</ele>
<time>2010-07-18T13:38:00Z</time>
<desc>lat.=55.814190, lon.=26.523926, Alt.=108.049866m. Speed=25.955999m/h.</desc>
<speed>7.210000</speed>
</trkpt>
<trkpt lat="55.814255" lon="26.523909">
<ele>108.297913</ele>
<time>2010-07-18T13:38:01Z</time>
<desc>lat.=55.814255, lon.=26.523909, Alt.=108.297913m. Speed=26.172001m/h.</desc>
<speed>7.270000</speed>
</trkpt>
<trkpt lat="55.814316" lon="26.523891">
<ele>108.352600</ele>
<time>2010-07-18T13:38:02Z</time>
<desc>lat.=55.814316, lon.=26.523891, Alt.=108.352600m. Speed=25.559999m/h.</desc>
<speed>7.100000</speed>
</trkpt>
<trkpt lat="55.814377" lon="26.523876">
<ele>108.356506</ele>
<time>2010-07-18T13:38:03Z</time>
<desc>lat.=55.814377, lon.=26.523876, Alt.=108.356506m. Speed=24.912001m/h.</desc>
<speed>6.920000</speed>
</trkpt>
<trkpt lat="55.814438" lon="26.523865">
<ele>108.321350</ele>
<time>2010-07-18T13:38:04Z</time>
<desc>lat.=55.814438, lon.=26.523865, Alt.=108.321350m. Speed=24.444000m/h.</desc>
<speed>6.790000</speed>
</trkpt>
<trkpt lat="55.814495" lon="26.523851">
<ele>108.241272</ele>
<time>2010-07-18T13:38:05Z</time>
<desc>lat.=55.814495, lon.=26.523851, Alt.=108.241272m. Speed=23.976000m/h.</desc>
<speed>6.660000</speed>
</trkpt>
<trkpt lat="55.814556" lon="26.523836">
<ele>108.278381</ele>
<time>2010-07-18T13:38:06Z</time>
<desc>lat.=55.814556, lon.=26.523836, Alt.=108.278381m. Speed=23.652000m/h.</desc>
<speed>6.570000</speed>
</trkpt>
<trkpt lat="55.814613" lon="26.523821">
<ele>108.292053</ele>
<time>2010-07-18T13:38:07Z</time>
<desc>lat.=55.814613, lon.=26.523821, Alt.=108.292053m. Speed=23.364000m/h.</desc>
<speed>6.490000</speed>
</trkpt>
<trkpt lat="55.814671" lon="26.523806">
<ele>108.372131</ele>
<time>2010-07-18T13:38:08Z</time>
<desc>lat.=55.814671, lon.=26.523806, Alt.=108.372131m. Speed=23.292000m/h.</desc>
<speed>6.470000</speed>
</trkpt>
<trkpt lat="55.814728" lon="26.523798">
<ele>108.336975</ele>
<time>2010-07-18T13:38:09Z</time>
<desc>lat.=55.814728, lon.=26.523798, Alt.=108.336975m. Speed=22.643999m/h.</desc>
<speed>6.290000</speed>
</trkpt>
<trkpt lat="55.814785" lon="26.523788">
<ele>108.274475</ele>
<time>2010-07-18T13:38:10Z</time>
<desc>lat.=55.814785, lon.=26.523788, Alt.=108.274475m. Speed=22.643999m/h.</desc>
<speed>6.290000</speed>
</trkpt>
<trkpt lat="55.814842" lon="26.523781">
<ele>108.251038</ele>
<time>2010-07-18T13:38:11Z</time>
<desc>lat.=55.814842, lon.=26.523781, Alt.=108.251038m. Speed=22.212000m/h.</desc>
<speed>6.170000</speed>
</trkpt>
<trkpt lat="55.814899" lon="26.523767">
<ele>108.294006</ele>
<time>2010-07-18T13:38:12Z</time>
<desc>lat.=55.814899, lon.=26.523767, Alt.=108.294006m. Speed=21.851999m/h.</desc>
<speed>6.070000</speed>
</trkpt>
<trkpt lat="55.814953" lon="26.523760">
<ele>108.266663</ele>
<time>2010-07-18T13:38:13Z</time>
<desc>lat.=55.814953, lon.=26.523760, Alt.=108.266663m. Speed=21.312000m/h.</desc>
<speed>5.920000</speed>
</trkpt>
<trkpt lat="55.815006" lon="26.523754">
<ele>108.182678</ele>
<time>2010-07-18T13:38:14Z</time>
<desc>lat.=55.815006, lon.=26.523754, Alt.=108.182678m. Speed=21.132000m/h.</desc>
<speed>5.870000</speed>
</trkpt>
<trkpt lat="55.815056" lon="26.523746">
<ele>108.116272</ele>
<time>2010-07-18T13:38:15Z</time>
<desc>lat.=55.815056, lon.=26.523746, Alt.=108.116272m. Speed=20.556000m/h.</desc>
<speed>5.710000</speed>
</trkpt>
<trkpt lat="55.815105" lon="26.523737">
<ele>107.987366</ele>
<time>2010-07-18T13:38:16Z</time>
<desc>lat.=55.815105, lon.=26.523737, Alt.=107.987366m. Speed=20.556000m/h.</desc>
<speed>5.710000</speed>
</trkpt>
<trkpt lat="55.815159" lon="26.523718">
<ele>107.946350</ele>
<time>2010-07-18T13:38:17Z</time>
<desc>lat.=55.815159, lon.=26.523718, Alt.=107.946350m. Speed=21.059999m/h.</desc>
<speed>5.850000</speed>
</trkpt>
<trkpt lat="55.815208" lon="26.523701">
<ele>107.977600</ele>
<time>2010-07-18T13:38:18Z</time>
<desc>lat.=55.815208, lon.=26.523701, Alt.=107.977600m. Speed=21.636000m/h.</desc>
<speed>6.010000</speed>
</trkpt>
<trkpt lat="55.815262" lon="26.523682">
<ele>108.040100</ele>
<time>2010-07-18T13:38:19Z</time>
<desc>lat.=55.815262, lon.=26.523682, Alt.=108.040100m. Speed=22.068001m/h.</desc>
<speed>6.130000</speed>
</trkpt>
<trkpt lat="55.815319" lon="26.523664">
<ele>108.178772</ele>
<time>2010-07-18T13:38:20Z</time>
<desc>lat.=55.815319, lon.=26.523664, Alt.=108.178772m. Speed=22.535999m/h.</desc>
<speed>6.260000</speed>
</trkpt>
<trkpt lat="55.815376" lon="26.523651">
<ele>108.194397</ele>
<time>2010-07-18T13:38:21Z</time>
<desc>lat.=55.815376, lon.=26.523651, Alt.=108.194397m. Speed=23.076000m/h.</desc>
<speed>6.410000</speed>
</trkpt>
<trkpt lat="55.815434" lon="26.523640">
<ele>108.182678</ele>
<time>2010-07-18T13:38:22Z</time>
<desc>lat.=55.815434, lon.=26.523640, Alt.=108.182678m. Speed=22.823999m/h.</desc>
<speed>6.340000</speed>
</trkpt>
<trkpt lat="55.815491" lon="26.523623">
<ele>108.247131</ele>
<time>2010-07-18T13:38:23Z</time>
<desc>lat.=55.815491, lon.=26.523623, Alt.=108.247131m. Speed=22.500000m/h.</desc>
<speed>6.250000</speed>
</trkpt>
<trkpt lat="55.815544" lon="26.523607">
<ele>108.245178</ele>
<time>2010-07-18T13:38:24Z</time>
<desc>lat.=55.815544, lon.=26.523607, Alt.=108.245178m. Speed=22.139999m/h.</desc>
<speed>6.150000</speed>
</trkpt>
<trkpt lat="55.815601" lon="26.523592">
<ele>108.254944</ele>
<time>2010-07-18T13:38:25Z</time>
<desc>lat.=55.815601, lon.=26.523592, Alt.=108.254944m. Speed=22.068001m/h.</desc>
<speed>6.130000</speed>
</trkpt>
<trkpt lat="55.815655" lon="26.523581">
<ele>108.294006</ele>
<time>2010-07-18T13:38:26Z</time>
<desc>lat.=55.815655, lon.=26.523581, Alt.=108.294006m. Speed=21.888000m/h.</desc>
<speed>6.080000</speed>
</trkpt>
<trkpt lat="55.815712" lon="26.523567">
<ele>108.311584</ele>
<time>2010-07-18T13:38:27Z</time>
<desc>lat.=55.815712, lon.=26.523567, Alt.=108.311584m. Speed=22.247999m/h.</desc>
<speed>6.180000</speed>
</trkpt>
<trkpt lat="55.815765" lon="26.523560">
<ele>108.266663</ele>
<time>2010-07-18T13:38:28Z</time>
<desc>lat.=55.815765, lon.=26.523560, Alt.=108.266663m. Speed=21.959999m/h.</desc>
<speed>6.100000</speed>
</trkpt>
<trkpt lat="55.815819" lon="26.523552">
<ele>108.247131</ele>
<time>2010-07-18T13:38:29Z</time>
<desc>lat.=55.815819, lon.=26.523552, Alt.=108.247131m. Speed=21.492001m/h.</desc>
<speed>5.970000</speed>
</trkpt>
<trkpt lat="55.815872" lon="26.523539">
<ele>108.190491</ele>
<time>2010-07-18T13:38:30Z</time>
<desc>lat.=55.815872, lon.=26.523539, Alt.=108.190491m. Speed=21.167999m/h.</desc>
<speed>5.880000</speed>
</trkpt>
<trkpt lat="55.815926" lon="26.523521">
<ele>108.333069</ele>
<time>2010-07-18T13:38:31Z</time>
<desc>lat.=55.815926, lon.=26.523521, Alt.=108.333069m. Speed=20.916000m/h.</desc>
<speed>5.810000</speed>
</trkpt>
<trkpt lat="55.815979" lon="26.523506">
<ele>108.352600</ele>
<time>2010-07-18T13:38:32Z</time>
<desc>lat.=55.815979, lon.=26.523506, Alt.=108.352600m. Speed=20.628000m/h.</desc>
<speed>5.730000</speed>
</trkpt>
<trkpt lat="55.816029" lon="26.523489">
<ele>108.379944</ele>
<time>2010-07-18T13:38:33Z</time>
<desc>lat.=55.816029, lon.=26.523489, Alt.=108.379944m. Speed=20.340000m/h.</desc>
<speed>5.650000</speed>
</trkpt>
<trkpt lat="55.816074" lon="26.523481">
<ele>108.264709</ele>
<time>2010-07-18T13:38:34Z</time>
<desc>lat.=55.816074, lon.=26.523481, Alt.=108.264709m. Speed=19.908001m/h.</desc>
<speed>5.530000</speed>
</trkpt>
<trkpt lat="55.816124" lon="26.523474">
<ele>108.258850</ele>
<time>2010-07-18T13:38:35Z</time>
<desc>lat.=55.816124, lon.=26.523474, Alt.=108.258850m. Speed=19.728001m/h.</desc>
<speed>5.480000</speed>
</trkpt>
<trkpt lat="55.816174" lon="26.523460">
<ele>108.231506</ele>
<time>2010-07-18T13:38:36Z</time>
<desc>lat.=55.816174, lon.=26.523460, Alt.=108.231506m. Speed=19.296000m/h.</desc>
<speed>5.360000</speed>
</trkpt>
<trkpt lat="55.816219" lon="26.523451">
<ele>108.247131</ele>
<time>2010-07-18T13:38:37Z</time>
<desc>lat.=55.816219, lon.=26.523451, Alt.=108.247131m. Speed=19.728001m/h.</desc>
<speed>5.480000</speed>
</trkpt>
<trkpt lat="55.816273" lon="26.523439">
<ele>108.186584</ele>
<time>2010-07-18T13:38:38Z</time>
<desc>lat.=55.816273, lon.=26.523439, Alt.=108.186584m. Speed=20.195999m/h.</desc>
<speed>5.610000</speed>
</trkpt>
<trkpt lat="55.816322" lon="26.523426">
<ele>108.126038</ele>
<time>2010-07-18T13:38:39Z</time>
<desc>lat.=55.816322, lon.=26.523426, Alt.=108.126038m. Speed=20.268000m/h.</desc>
<speed>5.630000</speed>
</trkpt>
<trkpt lat="55.816372" lon="26.523417">
<ele>108.065491</ele>
<time>2010-07-18T13:38:40Z</time>
<desc>lat.=55.816372, lon.=26.523417, Alt.=108.065491m. Speed=19.836000m/h.</desc>
<speed>5.510000</speed>
</trkpt>
<trkpt lat="55.816422" lon="26.523405">
<ele>108.122131</ele>
<time>2010-07-18T13:38:41Z</time>
<desc>lat.=55.816422, lon.=26.523405, Alt.=108.122131m. Speed=19.691999m/h.</desc>
<speed>5.470000</speed>
</trkpt>
<trkpt lat="55.816467" lon="26.523386">
<ele>108.120178</ele>
<time>2010-07-18T13:38:42Z</time>
<desc>lat.=55.816467, lon.=26.523386, Alt.=108.120178m. Speed=19.511999m/h.</desc>
<speed>5.420000</speed>
</trkpt>
<trkpt lat="55.816517" lon="26.523371">
<ele>108.190491</ele>
<time>2010-07-18T13:38:43Z</time>
<desc>lat.=55.816517, lon.=26.523371, Alt.=108.190491m. Speed=19.224001m/h.</desc>
<speed>5.340000</speed>
</trkpt>
<trkpt lat="55.816563" lon="26.523354">
<ele>108.294006</ele>
<time>2010-07-18T13:38:44Z</time>
<desc>lat.=55.816563, lon.=26.523354, Alt.=108.294006m. Speed=18.323999m/h.</desc>
<speed>5.090000</speed>
</trkpt>
<trkpt lat="55.816612" lon="26.523346">
<ele>108.352600</ele>
<time>2010-07-18T13:38:45Z</time>
<desc>lat.=55.816612, lon.=26.523346, Alt.=108.352600m. Speed=18.792000m/h.</desc>
<speed>5.220000</speed>
</trkpt>
<trkpt lat="55.816658" lon="26.523350">
<ele>108.294006</ele>
<time>2010-07-18T13:38:46Z</time>
<desc>lat.=55.816658, lon.=26.523350, Alt.=108.294006m. Speed=18.468000m/h.</desc>
<speed>5.130000</speed>
</trkpt>
<trkpt lat="55.816704" lon="26.523346">
<ele>108.340881</ele>
<time>2010-07-18T13:38:47Z</time>
<desc>lat.=55.816704, lon.=26.523346, Alt.=108.340881m. Speed=17.568001m/h.</desc>
<speed>4.880000</speed>
</trkpt>
<trkpt lat="55.816750" lon="26.523342">
<ele>108.374084</ele>
<time>2010-07-18T13:38:48Z</time>
<desc>lat.=55.816750, lon.=26.523342, Alt.=108.374084m. Speed=18.216000m/h.</desc>
<speed>5.060000</speed>
</trkpt>
<trkpt lat="55.816799" lon="26.523333">
<ele>107.377991</ele>
<time>2010-07-18T13:38:49Z</time>
<desc>lat.=55.816799, lon.=26.523333, Alt.=107.377991m. Speed=19.403999m/h.</desc>
<speed>5.390000</speed>
</trkpt>
<trkpt lat="55.816849" lon="26.523327">
<ele>107.122131</ele>
<time>2010-07-18T13:38:50Z</time>
<desc>lat.=55.816849, lon.=26.523327, Alt.=107.122131m. Speed=19.691999m/h.</desc>
<speed>5.470000</speed>
</trkpt>
<trkpt lat="55.816895" lon="26.523317">
<ele>106.985413</ele>
<time>2010-07-18T13:38:51Z</time>
<desc>lat.=55.816895, lon.=26.523317, Alt.=106.985413m. Speed=19.584000m/h.</desc>
<speed>5.440000</speed>
</trkpt>
<trkpt lat="55.816944" lon="26.523306">
<ele>106.733459</ele>
<time>2010-07-18T13:38:52Z</time>
<desc>lat.=55.816944, lon.=26.523306, Alt.=106.733459m. Speed=19.296000m/h.</desc>
<speed>5.360000</speed>
</trkpt>
<trkpt lat="55.816990" lon="26.523300">
<ele>106.381897</ele>
<time>2010-07-18T13:38:53Z</time>
<desc>lat.=55.816990, lon.=26.523300, Alt.=106.381897m. Speed=18.864000m/h.</desc>
<speed>5.240000</speed>
</trkpt>
<trkpt lat="55.817036" lon="26.523294">
<ele>106.001038</ele>
<time>2010-07-18T13:38:54Z</time>
<desc>lat.=55.817036, lon.=26.523294, Alt.=106.001038m. Speed=18.468000m/h.</desc>
<speed>5.130000</speed>
</trkpt>
<trkpt lat="55.817085" lon="26.523281">
<ele>106.001038</ele>
<time>2010-07-18T13:38:55Z</time>
<desc>lat.=55.817085, lon.=26.523281, Alt.=106.001038m. Speed=18.360001m/h.</desc>
<speed>5.100000</speed>
</trkpt>
<trkpt lat="55.817131" lon="26.523268">
<ele>106.163147</ele>
<time>2010-07-18T13:38:56Z</time>
<desc>lat.=55.817131, lon.=26.523268, Alt.=106.163147m. Speed=18.972000m/h.</desc>
<speed>5.270000</speed>
</trkpt>
<trkpt lat="55.817181" lon="26.523256">
<ele>106.053772</ele>
<time>2010-07-18T13:38:57Z</time>
<desc>lat.=55.817181, lon.=26.523256, Alt.=106.053772m. Speed=19.511999m/h.</desc>
<speed>5.420000</speed>
</trkpt>
<trkpt lat="55.817230" lon="26.523247">
<ele>105.694397</ele>
<time>2010-07-18T13:38:58Z</time>
<desc>lat.=55.817230, lon.=26.523247, Alt.=105.694397m. Speed=19.764000m/h.</desc>
<speed>5.490000</speed>
</trkpt>
<trkpt lat="55.817280" lon="26.523224">
<ele>105.946350</ele>
<time>2010-07-18T13:38:59Z</time>
<desc>lat.=55.817280, lon.=26.523224, Alt.=105.946350m. Speed=20.087999m/h.</desc>
<speed>5.580000</speed>
</trkpt>
<trkpt lat="55.817329" lon="26.523186">
<ele>106.881897</ele>
<time>2010-07-18T13:39:00Z</time>
<desc>lat.=55.817329, lon.=26.523186, Alt.=106.881897m. Speed=20.771999m/h.</desc>
<speed>5.770000</speed>
</trkpt>
<trkpt lat="55.817383" lon="26.523167">
<ele>107.379944</ele>
<time>2010-07-18T13:39:01Z</time>
<desc>lat.=55.817383, lon.=26.523167, Alt.=107.379944m. Speed=20.556000m/h.</desc>
<speed>5.710000</speed>
</trkpt>
<trkpt lat="55.817432" lon="26.523157">
<ele>107.182678</ele>
<time>2010-07-18T13:39:02Z</time>
<desc>lat.=55.817432, lon.=26.523157, Alt.=107.182678m. Speed=20.304001m/h.</desc>
<speed>5.640000</speed>
</trkpt>
<trkpt lat="55.817482" lon="26.523149">
<ele>107.307678</ele>
<time>2010-07-18T13:39:03Z</time>
<desc>lat.=55.817482, lon.=26.523149, Alt.=107.307678m. Speed=19.872000m/h.</desc>
<speed>5.520000</speed>
</trkpt>
<trkpt lat="55.817532" lon="26.523140">
<ele>107.346741</ele>
<time>2010-07-18T13:39:04Z</time>
<desc>lat.=55.817532, lon.=26.523140, Alt.=107.346741m. Speed=19.511999m/h.</desc>
<speed>5.420000</speed>
</trkpt>
<trkpt lat="55.817581" lon="26.523130">
<ele>107.176819</ele>
<time>2010-07-18T13:39:05Z</time>
<desc>lat.=55.817581, lon.=26.523130, Alt.=107.176819m. Speed=19.080000m/h.</desc>
<speed>5.300000</speed>
</trkpt>
<trkpt lat="55.817627" lon="26.523123">
<ele>107.379944</ele>
<time>2010-07-18T13:39:06Z</time>
<desc>lat.=55.817627, lon.=26.523123, Alt.=107.379944m. Speed=18.936001m/h.</desc>
<speed>5.260000</speed>
</trkpt>
<trkpt lat="55.817669" lon="26.523117">
<ele>107.288147</ele>
<time>2010-07-18T13:39:07Z</time>
<desc>lat.=55.817669, lon.=26.523117, Alt.=107.288147m. Speed=18.143999m/h.</desc>
<speed>5.040000</speed>
</trkpt>
<trkpt lat="55.817715" lon="26.523108">
<ele>107.288147</ele>
<time>2010-07-18T13:39:08Z</time>
<desc>lat.=55.817715, lon.=26.523108, Alt.=107.288147m. Speed=17.927999m/h.</desc>
<speed>4.980000</speed>
</trkpt>
<trkpt lat="55.817760" lon="26.523100">
<ele>107.436584</ele>
<time>2010-07-18T13:39:09Z</time>
<desc>lat.=55.817760, lon.=26.523100, Alt.=107.436584m. Speed=17.459999m/h.</desc>
<speed>4.850000</speed>
</trkpt>
<trkpt lat="55.817806" lon="26.523087">
<ele>107.530334</ele>
<time>2010-07-18T13:39:10Z</time>
<desc>lat.=55.817806, lon.=26.523087, Alt.=107.530334m. Speed=17.172001m/h.</desc>
<speed>4.770000</speed>
</trkpt>
<trkpt lat="55.817844" lon="26.523071">
<ele>107.469788</ele>
<time>2010-07-18T13:39:11Z</time>
<desc>lat.=55.817844, lon.=26.523071, Alt.=107.469788m. Speed=16.559999m/h.</desc>
<speed>4.600000</speed>
</trkpt>
<trkpt lat="55.817890" lon="26.523058">
<ele>107.544006</ele>
<time>2010-07-18T13:39:12Z</time>
<desc>lat.=55.817890, lon.=26.523058, Alt.=107.544006m. Speed=17.856001m/h.</desc>
<speed>4.960000</speed>
</trkpt>
<trkpt lat="55.817932" lon="26.523048">
<ele>107.514709</ele>
<time>2010-07-18T13:39:13Z</time>
<desc>lat.=55.817932, lon.=26.523048, Alt.=107.514709m. Speed=16.416000m/h.</desc>
<speed>4.560000</speed>
</trkpt>
<trkpt lat="55.817970" lon="26.523043">
<ele>107.073303</ele>
<time>2010-07-18T13:39:14Z</time>
<desc>lat.=55.817970, lon.=26.523043, Alt.=107.073303m. Speed=16.884001m/h.</desc>
<speed>4.690000</speed>
</trkpt>
<trkpt lat="55.818012" lon="26.523035">
<ele>107.063538</ele>
<time>2010-07-18T13:39:15Z</time>
<desc>lat.=55.818012, lon.=26.523035, Alt.=107.063538m. Speed=16.920000m/h.</desc>
<speed>4.700000</speed>
</trkpt>
<trkpt lat="55.818054" lon="26.523024">
<ele>107.012756</ele>
<time>2010-07-18T13:39:16Z</time>
<desc>lat.=55.818054, lon.=26.523024, Alt.=107.012756m. Speed=16.812000m/h.</desc>
<speed>4.670000</speed>
</trkpt>
<trkpt lat="55.818092" lon="26.523018">
<ele>107.108459</ele>
<time>2010-07-18T13:39:17Z</time>
<desc>lat.=55.818092, lon.=26.523018, Alt.=107.108459m. Speed=15.336000m/h.</desc>
<speed>4.260000</speed>
</trkpt>
<trkpt lat="55.818134" lon="26.523010">
<ele>106.967834</ele>
<time>2010-07-18T13:39:18Z</time>
<desc>lat.=55.818134, lon.=26.523010, Alt.=106.967834m. Speed=15.408000m/h.</desc>
<speed>4.280000</speed>
</trkpt>
<trkpt lat="55.818172" lon="26.523001">
<ele>107.055725</ele>
<time>2010-07-18T13:39:19Z</time>
<desc>lat.=55.818172, lon.=26.523001, Alt.=107.055725m. Speed=16.308001m/h.</desc>
<speed>4.530000</speed>
</trkpt>
<trkpt lat="55.818211" lon="26.522989">
<ele>107.022522</ele>
<time>2010-07-18T13:39:20Z</time>
<desc>lat.=55.818211, lon.=26.522989, Alt.=107.022522m. Speed=16.667999m/h.</desc>
<speed>4.630000</speed>
</trkpt>
<trkpt lat="55.818253" lon="26.522976">
<ele>107.286194</ele>
<time>2010-07-18T13:39:21Z</time>
<desc>lat.=55.818253, lon.=26.522976, Alt.=107.286194m. Speed=17.100000m/h.</desc>
<speed>4.750000</speed>
</trkpt>
<trkpt lat="55.818291" lon="26.522966">
<ele>107.217834</ele>
<time>2010-07-18T13:39:22Z</time>
<desc>lat.=55.818291, lon.=26.522966, Alt.=107.217834m. Speed=17.459999m/h.</desc>
<speed>4.850000</speed>
</trkpt>
<trkpt lat="55.818333" lon="26.522955">
<ele>107.077209</ele>
<time>2010-07-18T13:39:23Z</time>
<desc>lat.=55.818333, lon.=26.522955, Alt.=107.077209m. Speed=17.568001m/h.</desc>
<speed>4.880000</speed>
</trkpt>
<trkpt lat="55.818375" lon="26.522942">
<ele>107.002991</ele>
<time>2010-07-18T13:39:24Z</time>
<desc>lat.=55.818375, lon.=26.522942, Alt.=107.002991m. Speed=18.035999m/h.</desc>
<speed>5.010000</speed>
</trkpt>
<trkpt lat="55.818420" lon="26.522926">
<ele>107.270569</ele>
<time>2010-07-18T13:39:25Z</time>
<desc>lat.=55.818420, lon.=26.522926, Alt.=107.270569m. Speed=18.323999m/h.</desc>
<speed>5.090000</speed>
</trkpt>
<trkpt lat="55.818462" lon="26.522915">
<ele>107.235413</ele>
<time>2010-07-18T13:39:26Z</time>
<desc>lat.=55.818462, lon.=26.522915, Alt.=107.235413m. Speed=18.504000m/h.</desc>
<speed>5.140000</speed>
</trkpt>
<trkpt lat="55.818508" lon="26.522905">
<ele>107.241272</ele>
<time>2010-07-18T13:39:27Z</time>
<desc>lat.=55.818508, lon.=26.522905, Alt.=107.241272m. Speed=19.332001m/h.</desc>
<speed>5.370000</speed>
</trkpt>
<trkpt lat="55.818554" lon="26.522892">
<ele>107.225647</ele>
<time>2010-07-18T13:39:28Z</time>
<desc>lat.=55.818554, lon.=26.522892, Alt.=107.225647m. Speed=19.584000m/h.</desc>
<speed>5.440000</speed>
</trkpt>
<trkpt lat="55.818604" lon="26.522881">
<ele>107.219788</ele>
<time>2010-07-18T13:39:29Z</time>
<desc>lat.=55.818604, lon.=26.522881, Alt.=107.219788m. Speed=20.087999m/h.</desc>
<speed>5.580000</speed>
</trkpt>
<trkpt lat="55.818657" lon="26.522875">
<ele>107.104553</ele>
<time>2010-07-18T13:39:30Z</time>
<desc>lat.=55.818657, lon.=26.522875, Alt.=107.104553m. Speed=20.916000m/h.</desc>
<speed>5.810000</speed>
</trkpt>
<trkpt lat="55.818710" lon="26.522871">
<ele>107.040100</ele>
<time>2010-07-18T13:39:31Z</time>
<desc>lat.=55.818710, lon.=26.522871, Alt.=107.040100m. Speed=21.204000m/h.</desc>
<speed>5.890000</speed>
</trkpt>
<trkpt lat="55.818764" lon="26.522867">
<ele>106.977600</ele>
<time>2010-07-18T13:39:32Z</time>
<desc>lat.=55.818764, lon.=26.522867, Alt.=106.977600m. Speed=21.096001m/h.</desc>
<speed>5.860000</speed>
</trkpt>
<trkpt lat="55.818817" lon="26.522865">
<ele>106.877991</ele>
<time>2010-07-18T13:39:33Z</time>
<desc>lat.=55.818817, lon.=26.522865, Alt.=106.877991m. Speed=21.024000m/h.</desc>
<speed>5.840000</speed>
</trkpt>
<trkpt lat="55.818871" lon="26.522861">
<ele>106.811584</ele>
<time>2010-07-18T13:39:34Z</time>
<desc>lat.=55.818871, lon.=26.522861, Alt.=106.811584m. Speed=21.024000m/h.</desc>
<speed>5.840000</speed>
</trkpt>
<trkpt lat="55.818920" lon="26.522856">
<ele>106.756897</ele>
<time>2010-07-18T13:39:35Z</time>
<desc>lat.=55.818920, lon.=26.522856, Alt.=106.756897m. Speed=20.879999m/h.</desc>
<speed>5.800000</speed>
</trkpt>
<trkpt lat="55.818974" lon="26.522848">
<ele>106.690491</ele>
<time>2010-07-18T13:39:36Z</time>
<desc>lat.=55.818974, lon.=26.522848, Alt.=106.690491m. Speed=20.952000m/h.</desc>
<speed>5.820000</speed>
</trkpt>
<trkpt lat="55.819023" lon="26.522844">
<ele>106.669006</ele>
<time>2010-07-18T13:39:37Z</time>
<desc>lat.=55.819023, lon.=26.522844, Alt.=106.669006m. Speed=20.736000m/h.</desc>
<speed>5.760000</speed>
</trkpt>
<trkpt lat="55.819077" lon="26.522842">
<ele>106.680725</ele>
<time>2010-07-18T13:39:38Z</time>
<desc>lat.=55.819077, lon.=26.522842, Alt.=106.680725m. Speed=20.844000m/h.</desc>
<speed>5.790000</speed>
</trkpt>
<trkpt lat="55.819130" lon="26.522831">
<ele>106.672913</ele>
<time>2010-07-18T13:39:39Z</time>
<desc>lat.=55.819130, lon.=26.522831, Alt.=106.672913m. Speed=21.059999m/h.</desc>
<speed>5.850000</speed>
</trkpt>
<trkpt lat="55.819183" lon="26.522818">
<ele>106.553772</ele>
<time>2010-07-18T13:39:40Z</time>
<desc>lat.=55.819183, lon.=26.522818, Alt.=106.553772m. Speed=21.348000m/h.</desc>
<speed>5.930000</speed>
</trkpt>
<trkpt lat="55.819237" lon="26.522810">
<ele>106.483459</ele>
<time>2010-07-18T13:39:41Z</time>
<desc>lat.=55.819237, lon.=26.522810, Alt.=106.483459m. Speed=21.851999m/h.</desc>
<speed>6.070000</speed>
</trkpt>
<trkpt lat="55.819290" lon="26.522800">
<ele>106.278381</ele>
<time>2010-07-18T13:39:42Z</time>
<desc>lat.=55.819290, lon.=26.522800, Alt.=106.278381m. Speed=21.348000m/h.</desc>
<speed>5.930000</speed>
</trkpt>
<trkpt lat="55.819344" lon="26.522793">
<ele>106.077209</ele>
<time>2010-07-18T13:39:43Z</time>
<desc>lat.=55.819344, lon.=26.522793, Alt.=106.077209m. Speed=21.780001m/h.</desc>
<speed>6.050000</speed>
</trkpt>
<trkpt lat="55.819401" lon="26.522783">
<ele>105.963928</ele>
<time>2010-07-18T13:39:44Z</time>
<desc>lat.=55.819401, lon.=26.522783, Alt.=105.963928m. Speed=21.959999m/h.</desc>
<speed>6.100000</speed>
</trkpt>
<trkpt lat="55.819458" lon="26.522778">
<ele>106.092834</ele>
<time>2010-07-18T13:39:45Z</time>
<desc>lat.=55.819458, lon.=26.522778, Alt.=106.092834m. Speed=22.139999m/h.</desc>
<speed>6.150000</speed>
</trkpt>
<trkpt lat="55.819515" lon="26.522778">
<ele>105.952209</ele>
<time>2010-07-18T13:39:46Z</time>
<desc>lat.=55.819515, lon.=26.522778, Alt.=105.952209m. Speed=22.176001m/h.</desc>
<speed>6.160000</speed>
</trkpt>
<trkpt lat="55.819569" lon="26.522776">
<ele>105.850647</ele>
<time>2010-07-18T13:39:47Z</time>
<desc>lat.=55.819569, lon.=26.522776, Alt.=105.850647m. Speed=22.176001m/h.</desc>
<speed>6.160000</speed>
</trkpt>
<trkpt lat="55.819626" lon="26.522774">
<ele>105.762756</ele>
<time>2010-07-18T13:39:48Z</time>
<desc>lat.=55.819626, lon.=26.522774, Alt.=105.762756m. Speed=22.464001m/h.</desc>
<speed>6.240000</speed>
</trkpt>
<trkpt lat="55.819683" lon="26.522772">
<ele>105.737366</ele>
<time>2010-07-18T13:39:49Z</time>
<desc>lat.=55.819683, lon.=26.522772, Alt.=105.737366m. Speed=22.247999m/h.</desc>
<speed>6.180000</speed>
</trkpt>
<trkpt lat="55.819740" lon="26.522774">
<ele>105.692444</ele>
<time>2010-07-18T13:39:50Z</time>
<desc>lat.=55.819740, lon.=26.522774, Alt.=105.692444m. Speed=22.968000m/h.</desc>
<speed>6.380000</speed>
</trkpt>
<trkpt lat="55.819798" lon="26.522776">
<ele>105.618225</ele>
<time>2010-07-18T13:39:51Z</time>
<desc>lat.=55.819798, lon.=26.522776, Alt.=105.618225m. Speed=22.860001m/h.</desc>
<speed>6.350000</speed>
</trkpt>
<trkpt lat="55.819855" lon="26.522770">
<ele>105.479553</ele>
<time>2010-07-18T13:39:52Z</time>
<desc>lat.=55.819855, lon.=26.522770, Alt.=105.479553m. Speed=23.507999m/h.</desc>
<speed>6.530000</speed>
</trkpt>
<trkpt lat="55.819912" lon="26.522766">
<ele>105.358459</ele>
<time>2010-07-18T13:39:53Z</time>
<desc>lat.=55.819912, lon.=26.522766, Alt.=105.358459m. Speed=21.167999m/h.</desc>
<speed>5.880000</speed>
</trkpt>
<trkpt lat="55.819973" lon="26.522764">
<ele>105.346741</ele>
<time>2010-07-18T13:39:54Z</time>
<desc>lat.=55.819973, lon.=26.522764, Alt.=105.346741m. Speed=23.076000m/h.</desc>
<speed>6.410000</speed>
</trkpt>
<trkpt lat="55.820030" lon="26.522770">
<ele>104.840881</ele>
<time>2010-07-18T13:39:55Z</time>
<desc>lat.=55.820030, lon.=26.522770, Alt.=104.840881m. Speed=25.271999m/h.</desc>
<speed>7.020000</speed>
</trkpt>
<trkpt lat="55.820099" lon="26.522774">
<ele>104.690491</ele>
<time>2010-07-18T13:39:56Z</time>
<desc>lat.=55.820099, lon.=26.522774, Alt.=104.690491m. Speed=24.840000m/h.</desc>
<speed>6.900000</speed>
</trkpt>
<trkpt lat="55.820160" lon="26.522776">
<ele>104.362366</ele>
<time>2010-07-18T13:39:57Z</time>
<desc>lat.=55.820160, lon.=26.522776, Alt.=104.362366m. Speed=25.271999m/h.</desc>
<speed>7.020000</speed>
</trkpt>
<trkpt lat="55.820221" lon="26.522774">
<ele>104.251038</ele>
<time>2010-07-18T13:39:58Z</time>
<desc>lat.=55.820221, lon.=26.522774, Alt.=104.251038m. Speed=25.308001m/h.</desc>
<speed>7.030000</speed>
</trkpt>
<trkpt lat="55.820286" lon="26.522779">
<ele>104.067444</ele>
<time>2010-07-18T13:39:59Z</time>
<desc>lat.=55.820286, lon.=26.522779, Alt.=104.067444m. Speed=26.532000m/h.</desc>
<speed>7.370000</speed>
</trkpt>
<trkpt lat="55.820354" lon="26.522785">
<ele>103.950256</ele>
<time>2010-07-18T13:40:00Z</time>
<desc>lat.=55.820354, lon.=26.522785, Alt.=103.950256m. Speed=26.459999m/h.</desc>
<speed>7.350000</speed>
</trkpt>
<trkpt lat="55.820427" lon="26.522789">
<ele>104.047913</ele>
<time>2010-07-18T13:40:01Z</time>
<desc>lat.=55.820427, lon.=26.522789, Alt.=104.047913m. Speed=26.820000m/h.</desc>
<speed>7.450000</speed>
</trkpt>
<trkpt lat="55.820496" lon="26.522795">
<ele>104.057678</ele>
<time>2010-07-18T13:40:02Z</time>
<desc>lat.=55.820496, lon.=26.522795, Alt.=104.057678m. Speed=27.323999m/h.</desc>
<speed>7.590000</speed>
</trkpt>
<trkpt lat="55.820568" lon="26.522799">
<ele>103.938538</ele>
<time>2010-07-18T13:40:03Z</time>
<desc>lat.=55.820568, lon.=26.522799, Alt.=103.938538m. Speed=27.468000m/h.</desc>
<speed>7.630000</speed>
</trkpt>
<trkpt lat="55.820641" lon="26.522802">
<ele>103.868225</ele>
<time>2010-07-18T13:40:04Z</time>
<desc>lat.=55.820641, lon.=26.522802, Alt.=103.868225m. Speed=28.368000m/h.</desc>
<speed>7.880000</speed>
</trkpt>
<trkpt lat="55.820713" lon="26.522806">
<ele>103.860413</ele>
<time>2010-07-18T13:40:05Z</time>
<desc>lat.=55.820713, lon.=26.522806, Alt.=103.860413m. Speed=28.548000m/h.</desc>
<speed>7.930000</speed>
</trkpt>
<trkpt lat="55.820789" lon="26.522814">
<ele>103.747131</ele>
<time>2010-07-18T13:40:06Z</time>
<desc>lat.=55.820789, lon.=26.522814, Alt.=103.747131m. Speed=29.124001m/h.</desc>
<speed>8.090000</speed>
</trkpt>
<trkpt lat="55.820862" lon="26.522816">
<ele>103.354553</ele>
<time>2010-07-18T13:40:07Z</time>
<desc>lat.=55.820862, lon.=26.522816, Alt.=103.354553m. Speed=30.455999m/h.</desc>
<speed>8.460000</speed>
</trkpt>
<trkpt lat="55.820942" lon="26.522820">
<ele>102.999084</ele>
<time>2010-07-18T13:40:08Z</time>
<desc>lat.=55.820942, lon.=26.522820, Alt.=102.999084m. Speed=31.356001m/h.</desc>
<speed>8.710000</speed>
</trkpt>
<trkpt lat="55.821022" lon="26.522831">
<ele>102.672913</ele>
<time>2010-07-18T13:40:09Z</time>
<desc>lat.=55.821022, lon.=26.522831, Alt.=102.672913m. Speed=32.580002m/h.</desc>
<speed>9.050001</speed>
</trkpt>
<trkpt lat="55.821098" lon="26.522846">
<ele>102.147522</ele>
<time>2010-07-18T13:40:10Z</time>
<desc>lat.=55.821098, lon.=26.522846, Alt.=102.147522m. Speed=32.616001m/h.</desc>
<speed>9.060000</speed>
</trkpt>
<trkpt lat="55.821182" lon="26.522856">
<ele>101.874084</ele>
<time>2010-07-18T13:40:11Z</time>
<desc>lat.=55.821182, lon.=26.522856, Alt.=101.874084m. Speed=33.264000m/h.</desc>
<speed>9.240000</speed>
</trkpt>
<trkpt lat="55.821270" lon="26.522867">
<ele>101.706116</ele>
<time>2010-07-18T13:40:12Z</time>
<desc>lat.=55.821270, lon.=26.522867, Alt.=101.706116m. Speed=33.768002m/h.</desc>
<speed>9.380000</speed>
</trkpt>
<trkpt lat="55.821354" lon="26.522882">
<ele>101.694397</ele>
<time>2010-07-18T13:40:13Z</time>
<desc>lat.=55.821354, lon.=26.522882, Alt.=101.694397m. Speed=34.056000m/h.</desc>
<speed>9.460000</speed>
</trkpt>
<trkpt lat="55.821442" lon="26.522896">
<ele>101.504944</ele>
<time>2010-07-18T13:40:14Z</time>
<desc>lat.=55.821442, lon.=26.522896, Alt.=101.504944m. Speed=34.776001m/h.</desc>
<speed>9.660000</speed>
</trkpt>
<trkpt lat="55.821529" lon="26.522911">
<ele>101.379944</ele>
<time>2010-07-18T13:40:15Z</time>
<desc>lat.=55.821529, lon.=26.522911, Alt.=101.379944m. Speed=35.568001m/h.</desc>
<speed>9.880000</speed>
</trkpt>
<trkpt lat="55.821621" lon="26.522930">
<ele>101.364319</ele>
<time>2010-07-18T13:40:16Z</time>
<desc>lat.=55.821621, lon.=26.522930, Alt.=101.364319m. Speed=35.568001m/h.</desc>
<speed>9.880000</speed>
</trkpt>
<trkpt lat="55.821709" lon="26.522947">
<ele>101.377991</ele>
<time>2010-07-18T13:40:17Z</time>
<desc>lat.=55.821709, lon.=26.522947, Alt.=101.377991m. Speed=36.071999m/h.</desc>
<speed>10.020000</speed>
</trkpt>
<trkpt lat="55.821800" lon="26.522964">
<ele>101.268616</ele>
<time>2010-07-18T13:40:18Z</time>
<desc>lat.=55.821800, lon.=26.522964, Alt.=101.268616m. Speed=36.287998m/h.</desc>
<speed>10.079999</speed>
</trkpt>
<trkpt lat="55.821892" lon="26.522984">
<ele>101.090881</ele>
<time>2010-07-18T13:40:19Z</time>
<desc>lat.=55.821892, lon.=26.522984, Alt.=101.090881m. Speed=36.360001m/h.</desc>
<speed>10.100000</speed>
</trkpt>
<trkpt lat="55.821983" lon="26.523005">
<ele>101.067444</ele>
<time>2010-07-18T13:40:20Z</time>
<desc>lat.=55.821983, lon.=26.523005, Alt.=101.067444m. Speed=36.216000m/h.</desc>
<speed>10.060000</speed>
</trkpt>
<trkpt lat="55.822071" lon="26.523027">
<ele>100.997131</ele>
<time>2010-07-18T13:40:21Z</time>
<desc>lat.=55.822071, lon.=26.523027, Alt.=100.997131m. Speed=36.324001m/h.</desc>
<speed>10.090000</speed>
</trkpt>
<trkpt lat="55.822163" lon="26.523048">
<ele>101.030334</ele>
<time>2010-07-18T13:40:22Z</time>
<desc>lat.=55.822163, lon.=26.523048, Alt.=101.030334m. Speed=36.396000m/h.</desc>
<speed>10.110000</speed>
</trkpt>
<trkpt lat="55.822254" lon="26.523069">
<ele>101.012756</ele>
<time>2010-07-18T13:40:23Z</time>
<desc>lat.=55.822254, lon.=26.523069, Alt.=101.012756m. Speed=36.431999m/h.</desc>
<speed>10.120000</speed>
</trkpt>
<trkpt lat="55.822346" lon="26.523094">
<ele>100.960022</ele>
<time>2010-07-18T13:40:24Z</time>
<desc>lat.=55.822346, lon.=26.523094, Alt.=100.960022m. Speed=36.936001m/h.</desc>
<speed>10.260000</speed>
</trkpt>
<trkpt lat="55.822433" lon="26.523115">
<ele>101.006897</ele>
<time>2010-07-18T13:40:25Z</time>
<desc>lat.=55.822433, lon.=26.523115, Alt.=101.006897m. Speed=36.216000m/h.</desc>
<speed>10.060000</speed>
</trkpt>
<trkpt lat="55.822525" lon="26.523136">
<ele>101.057678</ele>
<time>2010-07-18T13:40:26Z</time>
<desc>lat.=55.822525, lon.=26.523136, Alt.=101.057678m. Speed=36.467999m/h.</desc>
<speed>10.130000</speed>
</trkpt>
<trkpt lat="55.822613" lon="26.523161">
<ele>100.911194</ele>
<time>2010-07-18T13:40:27Z</time>
<desc>lat.=55.822613, lon.=26.523161, Alt.=100.911194m. Speed=36.035999m/h.</desc>
<speed>10.010000</speed>
</trkpt>
<trkpt lat="55.822704" lon="26.523184">
<ele>100.983459</ele>
<time>2010-07-18T13:40:28Z</time>
<desc>lat.=55.822704, lon.=26.523184, Alt.=100.983459m. Speed=35.243999m/h.</desc>
<speed>9.790000</speed>
</trkpt>
<trkpt lat="55.822788" lon="26.523209">
<ele>101.102600</ele>
<time>2010-07-18T13:40:29Z</time>
<desc>lat.=55.822788, lon.=26.523209, Alt.=101.102600m. Speed=35.063999m/h.</desc>
<speed>9.740000</speed>
</trkpt>
<trkpt lat="55.822876" lon="26.523239">
<ele>101.174866</ele>
<time>2010-07-18T13:40:30Z</time>
<desc>lat.=55.822876, lon.=26.523239, Alt.=101.174866m. Speed=34.596001m/h.</desc>
<speed>9.610000</speed>
</trkpt>
<trkpt lat="55.822964" lon="26.523266">
<ele>101.247131</ele>
<time>2010-07-18T13:40:31Z</time>
<desc>lat.=55.822964, lon.=26.523266, Alt.=101.247131m. Speed=33.624001m/h.</desc>
<speed>9.340000</speed>
</trkpt>
<trkpt lat="55.823048" lon="26.523293">
<ele>101.434631</ele>
<time>2010-07-18T13:40:32Z</time>
<desc>lat.=55.823048, lon.=26.523293, Alt.=101.434631m. Speed=33.012001m/h.</desc>
<speed>9.170000</speed>
</trkpt>
<trkpt lat="55.823124" lon="26.523321">
<ele>101.522522</ele>
<time>2010-07-18T13:40:33Z</time>
<desc>lat.=55.823124, lon.=26.523321, Alt.=101.522522m. Speed=32.112000m/h.</desc>
<speed>8.920000</speed>
</trkpt>
<trkpt lat="55.823204" lon="26.523350">
<ele>101.602600</ele>
<time>2010-07-18T13:40:34Z</time>
<desc>lat.=55.823204, lon.=26.523350, Alt.=101.602600m. Speed=31.212000m/h.</desc>
<speed>8.670000</speed>
</trkpt>
<trkpt lat="55.823277" lon="26.523376">
<ele>101.655334</ele>
<time>2010-07-18T13:40:35Z</time>
<desc>lat.=55.823277, lon.=26.523376, Alt.=101.655334m. Speed=30.384001m/h.</desc>
<speed>8.440000</speed>
</trkpt>
<trkpt lat="55.823349" lon="26.523401">
<ele>101.725647</ele>
<time>2010-07-18T13:40:36Z</time>
<desc>lat.=55.823349, lon.=26.523401, Alt.=101.725647m. Speed=29.483999m/h.</desc>
<speed>8.190000</speed>
</trkpt>
<trkpt lat="55.823421" lon="26.523428">
<ele>101.733459</ele>
<time>2010-07-18T13:40:37Z</time>
<desc>lat.=55.823421, lon.=26.523428, Alt.=101.733459m. Speed=28.548000m/h.</desc>
<speed>7.930000</speed>
</trkpt>
<trkpt lat="55.823490" lon="26.523457">
<ele>101.811584</ele>
<time>2010-07-18T13:40:38Z</time>
<desc>lat.=55.823490, lon.=26.523457, Alt.=101.811584m. Speed=27.864000m/h.</desc>
<speed>7.740000</speed>
</trkpt>
<trkpt lat="55.823555" lon="26.523485">
<ele>101.868225</ele>
<time>2010-07-18T13:40:39Z</time>
<desc>lat.=55.823555, lon.=26.523485, Alt.=101.868225m. Speed=27.143999m/h.</desc>
<speed>7.540000</speed>
</trkpt>
<trkpt lat="55.823620" lon="26.523518">
<ele>101.838928</ele>
<time>2010-07-18T13:40:40Z</time>
<desc>lat.=55.823620, lon.=26.523518, Alt.=101.838928m. Speed=26.712000m/h.</desc>
<speed>7.420000</speed>
</trkpt>
<trkpt lat="55.823685" lon="26.523546">
<ele>101.963928</ele>
<time>2010-07-18T13:40:41Z</time>
<desc>lat.=55.823685, lon.=26.523546, Alt.=101.963928m. Speed=26.100000m/h.</desc>
<speed>7.250000</speed>
</trkpt>
<trkpt lat="55.823746" lon="26.523579">
<ele>101.885803</ele>
<time>2010-07-18T13:40:42Z</time>
<desc>lat.=55.823746, lon.=26.523579, Alt.=101.885803m. Speed=25.164000m/h.</desc>
<speed>6.990000</speed>
</trkpt>
<trkpt lat="55.823807" lon="26.523605">
<ele>102.057678</ele>
<time>2010-07-18T13:40:43Z</time>
<desc>lat.=55.823807, lon.=26.523605, Alt.=102.057678m. Speed=24.983999m/h.</desc>
<speed>6.940000</speed>
</trkpt>
<trkpt lat="55.823868" lon="26.523636">
<ele>102.120178</ele>
<time>2010-07-18T13:40:44Z</time>
<desc>lat.=55.823868, lon.=26.523636, Alt.=102.120178m. Speed=24.983999m/h.</desc>
<speed>6.940000</speed>
</trkpt>
<trkpt lat="55.823925" lon="26.523672">
<ele>102.096741</ele>
<time>2010-07-18T13:40:45Z</time>
<desc>lat.=55.823925, lon.=26.523672, Alt.=102.096741m. Speed=24.840000m/h.</desc>
<speed>6.900000</speed>
</trkpt>
<trkpt lat="55.823986" lon="26.523699">
<ele>102.450256</ele>
<time>2010-07-18T13:40:46Z</time>
<desc>lat.=55.823986, lon.=26.523699, Alt.=102.450256m. Speed=24.912001m/h.</desc>
<speed>6.920000</speed>
</trkpt>
<trkpt lat="55.824047" lon="26.523731">
<ele>102.465881</ele>
<time>2010-07-18T13:40:47Z</time>
<desc>lat.=55.824047, lon.=26.523731, Alt.=102.465881m. Speed=24.768000m/h.</desc>
<speed>6.880000</speed>
</trkpt>
<trkpt lat="55.824104" lon="26.523764">
<ele>102.417053</ele>
<time>2010-07-18T13:40:48Z</time>
<desc>lat.=55.824104, lon.=26.523764, Alt.=102.417053m. Speed=24.804001m/h.</desc>
<speed>6.890000</speed>
</trkpt>
<trkpt lat="55.824165" lon="26.523792">
<ele>102.506897</ele>
<time>2010-07-18T13:40:49Z</time>
<desc>lat.=55.824165, lon.=26.523792, Alt.=102.506897m. Speed=24.804001m/h.</desc>
<speed>6.890000</speed>
</trkpt>
<trkpt lat="55.824223" lon="26.523821">
<ele>102.608459</ele>
<time>2010-07-18T13:40:50Z</time>
<desc>lat.=55.824223, lon.=26.523821, Alt.=102.608459m. Speed=24.732000m/h.</desc>
<speed>6.870000</speed>
</trkpt>
<trkpt lat="55.824284" lon="26.523849">
<ele>102.649475</ele>
<time>2010-07-18T13:40:51Z</time>
<desc>lat.=55.824284, lon.=26.523849, Alt.=102.649475m. Speed=24.516001m/h.</desc>
<speed>6.810000</speed>
</trkpt>
<trkpt lat="55.824341" lon="26.523880">
<ele>102.643616</ele>
<time>2010-07-18T13:40:52Z</time>
<desc>lat.=55.824341, lon.=26.523880, Alt.=102.643616m. Speed=24.624001m/h.</desc>
<speed>6.840000</speed>
</trkpt>
<trkpt lat="55.824402" lon="26.523909">
<ele>102.717834</ele>
<time>2010-07-18T13:40:53Z</time>
<desc>lat.=55.824402, lon.=26.523909, Alt.=102.717834m. Speed=24.624001m/h.</desc>
<speed>6.840000</speed>
</trkpt>
<trkpt lat="55.824459" lon="26.523937">
<ele>102.764709</ele>
<time>2010-07-18T13:40:54Z</time>
<desc>lat.=55.824459, lon.=26.523937, Alt.=102.764709m. Speed=24.695999m/h.</desc>
<speed>6.860000</speed>
</trkpt>
<trkpt lat="55.824516" lon="26.523972">
<ele>102.797913</ele>
<time>2010-07-18T13:40:55Z</time>
<desc>lat.=55.824516, lon.=26.523972, Alt.=102.797913m. Speed=24.156000m/h.</desc>
<speed>6.710000</speed>
</trkpt>
<trkpt lat="55.824574" lon="26.524002">
<ele>102.680725</ele>
<time>2010-07-18T13:40:56Z</time>
<desc>lat.=55.824574, lon.=26.524002, Alt.=102.680725m. Speed=24.372000m/h.</desc>
<speed>6.770000</speed>
</trkpt>
<trkpt lat="55.824631" lon="26.524031">
<ele>102.706116</ele>
<time>2010-07-18T13:40:57Z</time>
<desc>lat.=55.824631, lon.=26.524031, Alt.=102.706116m. Speed=24.156000m/h.</desc>
<speed>6.710000</speed>
</trkpt>
<trkpt lat="55.824692" lon="26.524059">
<ele>102.717834</ele>
<time>2010-07-18T13:40:58Z</time>
<desc>lat.=55.824692, lon.=26.524059, Alt.=102.717834m. Speed=24.156000m/h.</desc>
<speed>6.710000</speed>
</trkpt>
<trkpt lat="55.824749" lon="26.524086">
<ele>102.807678</ele>
<time>2010-07-18T13:40:59Z</time>
<desc>lat.=55.824749, lon.=26.524086, Alt.=102.807678m. Speed=24.299999m/h.</desc>
<speed>6.750000</speed>
</trkpt>
<trkpt lat="55.824810" lon="26.524115">
<ele>102.950256</ele>
<time>2010-07-18T13:41:00Z</time>
<desc>lat.=55.824810, lon.=26.524115, Alt.=102.950256m. Speed=24.011999m/h.</desc>
<speed>6.670000</speed>
</trkpt>
<trkpt lat="55.824867" lon="26.524141">
<ele>103.065491</ele>
<time>2010-07-18T13:41:01Z</time>
<desc>lat.=55.824867, lon.=26.524141, Alt.=103.065491m. Speed=23.832001m/h.</desc>
<speed>6.620000</speed>
</trkpt>
<trkpt lat="55.824921" lon="26.524168">
<ele>103.194397</ele>
<time>2010-07-18T13:41:02Z</time>
<desc>lat.=55.824921, lon.=26.524168, Alt.=103.194397m. Speed=23.940001m/h.</desc>
<speed>6.650000</speed>
</trkpt>
<trkpt lat="55.824978" lon="26.524195">
<ele>103.442444</ele>
<time>2010-07-18T13:41:03Z</time>
<desc>lat.=55.824978, lon.=26.524195, Alt.=103.442444m. Speed=23.688000m/h.</desc>
<speed>6.580000</speed>
</trkpt>
<trkpt lat="55.825035" lon="26.524221">
<ele>103.635803</ele>
<time>2010-07-18T13:41:04Z</time>
<desc>lat.=55.825035, lon.=26.524221, Alt.=103.635803m. Speed=24.156000m/h.</desc>
<speed>6.710000</speed>
</trkpt>
<trkpt lat="55.825096" lon="26.524248">
<ele>103.731506</ele>
<time>2010-07-18T13:41:05Z</time>
<desc>lat.=55.825096, lon.=26.524248, Alt.=103.731506m. Speed=24.084000m/h.</desc>
<speed>6.690000</speed>
</trkpt>
<trkpt lat="55.825153" lon="26.524277">
<ele>103.803772</ele>
<time>2010-07-18T13:41:06Z</time>
<desc>lat.=55.825153, lon.=26.524277, Alt.=103.803772m. Speed=24.048000m/h.</desc>
<speed>6.680000</speed>
</trkpt>
<trkpt lat="55.825211" lon="26.524305">
<ele>103.827209</ele>
<time>2010-07-18T13:41:07Z</time>
<desc>lat.=55.825211, lon.=26.524305, Alt.=103.827209m. Speed=24.011999m/h.</desc>
<speed>6.670000</speed>
</trkpt>
<trkpt lat="55.825268" lon="26.524336">
<ele>103.836975</ele>
<time>2010-07-18T13:41:08Z</time>
<desc>lat.=55.825268, lon.=26.524336, Alt.=103.836975m. Speed=23.940001m/h.</desc>
<speed>6.650000</speed>
</trkpt>
<trkpt lat="55.825325" lon="26.524370">
<ele>103.749084</ele>
<time>2010-07-18T13:41:09Z</time>
<desc>lat.=55.825325, lon.=26.524370, Alt.=103.749084m. Speed=23.940001m/h.</desc>
<speed>6.650000</speed>
</trkpt>
<trkpt lat="55.825382" lon="26.524408">
<ele>103.604553</ele>
<time>2010-07-18T13:41:10Z</time>
<desc>lat.=55.825382, lon.=26.524408, Alt.=103.604553m. Speed=23.832001m/h.</desc>
<speed>6.620000</speed>
</trkpt>
<trkpt lat="55.825436" lon="26.524443">
<ele>103.626038</ele>
<time>2010-07-18T13:41:11Z</time>
<desc>lat.=55.825436, lon.=26.524443, Alt.=103.626038m. Speed=23.615999m/h.</desc>
<speed>6.560000</speed>
</trkpt>
<trkpt lat="55.825493" lon="26.524473">
<ele>103.627991</ele>
<time>2010-07-18T13:41:12Z</time>
<desc>lat.=55.825493, lon.=26.524473, Alt.=103.627991m. Speed=22.896000m/h.</desc>
<speed>6.360000</speed>
</trkpt>
<trkpt lat="55.825546" lon="26.524498">
<ele>103.586975</ele>
<time>2010-07-18T13:41:13Z</time>
<desc>lat.=55.825546, lon.=26.524498, Alt.=103.586975m. Speed=22.284000m/h.</desc>
<speed>6.190000</speed>
</trkpt>
<trkpt lat="55.825600" lon="26.524517">
<ele>103.545959</ele>
<time>2010-07-18T13:41:14Z</time>
<desc>lat.=55.825600, lon.=26.524517, Alt.=103.545959m. Speed=21.275999m/h.</desc>
<speed>5.910000</speed>
</trkpt>
<trkpt lat="55.825653" lon="26.524534">
<ele>103.512756</ele>
<time>2010-07-18T13:41:15Z</time>
<desc>lat.=55.825653, lon.=26.524534, Alt.=103.512756m. Speed=21.420000m/h.</desc>
<speed>5.950000</speed>
</trkpt>
<trkpt lat="55.825703" lon="26.524559">
<ele>103.461975</ele>
<time>2010-07-18T13:41:16Z</time>
<desc>lat.=55.825703, lon.=26.524559, Alt.=103.461975m. Speed=21.312000m/h.</desc>
<speed>5.920000</speed>
</trkpt>
<trkpt lat="55.825756" lon="26.524588">
<ele>103.465881</ele>
<time>2010-07-18T13:41:17Z</time>
<desc>lat.=55.825756, lon.=26.524588, Alt.=103.465881m. Speed=20.591999m/h.</desc>
<speed>5.720000</speed>
</trkpt>
<trkpt lat="55.825809" lon="26.524614">
<ele>103.444397</ele>
<time>2010-07-18T13:41:18Z</time>
<desc>lat.=55.825809, lon.=26.524614, Alt.=103.444397m. Speed=23.364000m/h.</desc>
<speed>6.490000</speed>
</trkpt>
<trkpt lat="55.825863" lon="26.524643">
<ele>103.313538</ele>
<time>2010-07-18T13:41:19Z</time>
<desc>lat.=55.825863, lon.=26.524643, Alt.=103.313538m. Speed=23.652000m/h.</desc>
<speed>6.570000</speed>
</trkpt>
<trkpt lat="55.825920" lon="26.524675">
<ele>103.327209</ele>
<time>2010-07-18T13:41:20Z</time>
<desc>lat.=55.825920, lon.=26.524675, Alt.=103.327209m. Speed=21.600000m/h.</desc>
<speed>6.000000</speed>
</trkpt>
<trkpt lat="55.825970" lon="26.524700">
<ele>103.501038</ele>
<time>2010-07-18T13:41:21Z</time>
<desc>lat.=55.825970, lon.=26.524700, Alt.=103.501038m. Speed=20.124001m/h.</desc>
<speed>5.590000</speed>
</trkpt>
<trkpt lat="55.826012" lon="26.524723">
<ele>103.604553</ele>
<time>2010-07-18T13:41:22Z</time>
<desc>lat.=55.826012, lon.=26.524723, Alt.=103.604553m. Speed=18.936001m/h.</desc>
<speed>5.260000</speed>
</trkpt>
<trkpt lat="55.826054" lon="26.524744">
<ele>103.661194</ele>
<time>2010-07-18T13:41:23Z</time>
<desc>lat.=55.826054, lon.=26.524744, Alt.=103.661194m. Speed=17.316000m/h.</desc>
<speed>4.810000</speed>
</trkpt>
<trkpt lat="55.826099" lon="26.524757">
<ele>103.702209</ele>
<time>2010-07-18T13:41:24Z</time>
<desc>lat.=55.826099, lon.=26.524757, Alt.=103.702209m. Speed=18.072001m/h.</desc>
<speed>5.020000</speed>
</trkpt>
<trkpt lat="55.826145" lon="26.524763">
<ele>103.772522</ele>
<time>2010-07-18T13:41:25Z</time>
<desc>lat.=55.826145, lon.=26.524763, Alt.=103.772522m. Speed=18.252001m/h.</desc>
<speed>5.070000</speed>
</trkpt>
<trkpt lat="55.826183" lon="26.524782">
<ele>103.762756</ele>
<time>2010-07-18T13:41:26Z</time>
<desc>lat.=55.826183, lon.=26.524782, Alt.=103.762756m. Speed=17.568001m/h.</desc>
<speed>4.880000</speed>
</trkpt>
<trkpt lat="55.826218" lon="26.524807">
<ele>103.704163</ele>
<time>2010-07-18T13:41:27Z</time>
<desc>lat.=55.826218, lon.=26.524807, Alt.=103.704163m. Speed=17.351999m/h.</desc>
<speed>4.820000</speed>
</trkpt>
<trkpt lat="55.826260" lon="26.524845">
<ele>102.919006</ele>
<time>2010-07-18T13:41:28Z</time>
<desc>lat.=55.826260, lon.=26.524845, Alt.=102.919006m. Speed=18.431999m/h.</desc>
<speed>5.120000</speed>
</trkpt>
<trkpt lat="55.826302" lon="26.524874">
<ele>103.192444</ele>
<time>2010-07-18T13:41:29Z</time>
<desc>lat.=55.826302, lon.=26.524874, Alt.=103.192444m. Speed=18.288000m/h.</desc>
<speed>5.080000</speed>
</trkpt>
<trkpt lat="55.826344" lon="26.524897">
<ele>103.204163</ele>
<time>2010-07-18T13:41:30Z</time>
<desc>lat.=55.826344, lon.=26.524897, Alt.=103.204163m. Speed=17.964001m/h.</desc>
<speed>4.990000</speed>
</trkpt>
<trkpt lat="55.826385" lon="26.524910">
<ele>103.333069</ele>
<time>2010-07-18T13:41:31Z</time>
<desc>lat.=55.826385, lon.=26.524910, Alt.=103.333069m. Speed=18.323999m/h.</desc>
<speed>5.090000</speed>
</trkpt>
<trkpt lat="55.826431" lon="26.524927">
<ele>103.352600</ele>
<time>2010-07-18T13:41:32Z</time>
<desc>lat.=55.826431, lon.=26.524927, Alt.=103.352600m. Speed=18.576000m/h.</desc>
<speed>5.160000</speed>
</trkpt>
<trkpt lat="55.826477" lon="26.524948">
<ele>103.249084</ele>
<time>2010-07-18T13:41:33Z</time>
<desc>lat.=55.826477, lon.=26.524948, Alt.=103.249084m. Speed=19.044001m/h.</desc>
<speed>5.290000</speed>
</trkpt>
<trkpt lat="55.826519" lon="26.524965">
<ele>103.631897</ele>
<time>2010-07-18T13:41:34Z</time>
<desc>lat.=55.826519, lon.=26.524965, Alt.=103.631897m. Speed=19.080000m/h.</desc>
<speed>5.300000</speed>
</trkpt>
<trkpt lat="55.826565" lon="26.524992">
<ele>103.635803</ele>
<time>2010-07-18T13:41:35Z</time>
<desc>lat.=55.826565, lon.=26.524992, Alt.=103.635803m. Speed=18.972000m/h.</desc>
<speed>5.270000</speed>
</trkpt>
<trkpt lat="55.826611" lon="26.525011">
<ele>103.618225</ele>
<time>2010-07-18T13:41:36Z</time>
<desc>lat.=55.826611, lon.=26.525011, Alt.=103.618225m. Speed=18.612000m/h.</desc>
<speed>5.170000</speed>
</trkpt>
<trkpt lat="55.826656" lon="26.525032">
<ele>103.643616</ele>
<time>2010-07-18T13:41:37Z</time>
<desc>lat.=55.826656, lon.=26.525032, Alt.=103.643616m. Speed=18.143999m/h.</desc>
<speed>5.040000</speed>
</trkpt>
<trkpt lat="55.826698" lon="26.525053">
<ele>104.309631</ele>
<time>2010-07-18T13:41:38Z</time>
<desc>lat.=55.826698, lon.=26.525053, Alt.=104.309631m. Speed=17.892000m/h.</desc>
<speed>4.970000</speed>
</trkpt>
<trkpt lat="55.826744" lon="26.525076">
<ele>104.413147</ele>
<time>2010-07-18T13:41:39Z</time>
<desc>lat.=55.826744, lon.=26.525076, Alt.=104.413147m. Speed=18.108000m/h.</desc>
<speed>5.030000</speed>
</trkpt>
<trkpt lat="55.826786" lon="26.525099">
<ele>104.348694</ele>
<time>2010-07-18T13:41:40Z</time>
<desc>lat.=55.826786, lon.=26.525099, Alt.=104.348694m. Speed=19.152000m/h.</desc>
<speed>5.320000</speed>
</trkpt>
<trkpt lat="55.826843" lon="26.525124">
<ele>104.219788</ele>
<time>2010-07-18T13:41:41Z</time>
<desc>lat.=55.826843, lon.=26.525124, Alt.=104.219788m. Speed=26.568001m/h.</desc>
<speed>7.380000</speed>
</trkpt>
<trkpt lat="55.826900" lon="26.525150">
<ele>104.092834</ele>
<time>2010-07-18T13:41:42Z</time>
<desc>lat.=55.826900, lon.=26.525150, Alt.=104.092834m. Speed=21.455999m/h.</desc>
<speed>5.960000</speed>
</trkpt>
<trkpt lat="55.826950" lon="26.525173">
<ele>103.944397</ele>
<time>2010-07-18T13:41:43Z</time>
<desc>lat.=55.826950, lon.=26.525173, Alt.=103.944397m. Speed=21.024000m/h.</desc>
<speed>5.840000</speed>
</trkpt>
<trkpt lat="55.826996" lon="26.525194">
<ele>103.827209</ele>
<time>2010-07-18T13:41:44Z</time>
<desc>lat.=55.826996, lon.=26.525194, Alt.=103.827209m. Speed=19.260000m/h.</desc>
<speed>5.350000</speed>
</trkpt>
<trkpt lat="55.827045" lon="26.525213">
<ele>103.700256</ele>
<time>2010-07-18T13:41:45Z</time>
<desc>lat.=55.827045, lon.=26.525213, Alt.=103.700256m. Speed=19.584000m/h.</desc>
<speed>5.440000</speed>
</trkpt>
<trkpt lat="55.827091" lon="26.525236">
<ele>103.614319</ele>
<time>2010-07-18T13:41:46Z</time>
<desc>lat.=55.827091, lon.=26.525236, Alt.=103.614319m. Speed=19.728001m/h.</desc>
<speed>5.480000</speed>
</trkpt>
<trkpt lat="55.827137" lon="26.525261">
<ele>103.516663</ele>
<time>2010-07-18T13:41:47Z</time>
<desc>lat.=55.827137, lon.=26.525261, Alt.=103.516663m. Speed=19.656000m/h.</desc>
<speed>5.460000</speed>
</trkpt>
<trkpt lat="55.827187" lon="26.525284">
<ele>103.426819</ele>
<time>2010-07-18T13:41:48Z</time>
<desc>lat.=55.827187, lon.=26.525284, Alt.=103.426819m. Speed=20.016001m/h.</desc>
<speed>5.560000</speed>
</trkpt>
<trkpt lat="55.827232" lon="26.525307">
<ele>103.262756</ele>
<time>2010-07-18T13:41:49Z</time>
<desc>lat.=55.827232, lon.=26.525307, Alt.=103.262756m. Speed=20.591999m/h.</desc>
<speed>5.720000</speed>
</trkpt>
<trkpt lat="55.827282" lon="26.525331">
<ele>103.118225</ele>
<time>2010-07-18T13:41:50Z</time>
<desc>lat.=55.827282, lon.=26.525331, Alt.=103.118225m. Speed=20.700001m/h.</desc>
<speed>5.750000</speed>
</trkpt>
<trkpt lat="55.827332" lon="26.525354">
<ele>103.049866</ele>
<time>2010-07-18T13:41:51Z</time>
<desc>lat.=55.827332, lon.=26.525354, Alt.=103.049866m. Speed=21.240000m/h.</desc>
<speed>5.900000</speed>
</trkpt>
<trkpt lat="55.827381" lon="26.525377">
<ele>102.956116</ele>
<time>2010-07-18T13:41:52Z</time>
<desc>lat.=55.827381, lon.=26.525377, Alt.=102.956116m. Speed=21.312000m/h.</desc>
<speed>5.920000</speed>
</trkpt>
<trkpt lat="55.827435" lon="26.525400">
<ele>102.778381</ele>
<time>2010-07-18T13:41:53Z</time>
<desc>lat.=55.827435, lon.=26.525400, Alt.=102.778381m. Speed=21.888000m/h.</desc>
<speed>6.080000</speed>
</trkpt>
<trkpt lat="55.827484" lon="26.525423">
<ele>102.731506</ele>
<time>2010-07-18T13:41:54Z</time>
<desc>lat.=55.827484, lon.=26.525423, Alt.=102.731506m. Speed=21.851999m/h.</desc>
<speed>6.070000</speed>
</trkpt>
<trkpt lat="55.827538" lon="26.525448">
<ele>102.684631</ele>
<time>2010-07-18T13:41:55Z</time>
<desc>lat.=55.827538, lon.=26.525448, Alt.=102.684631m. Speed=21.816000m/h.</desc>
<speed>6.060000</speed>
</trkpt>
<trkpt lat="55.827587" lon="26.525473">
<ele>102.647522</ele>
<time>2010-07-18T13:41:56Z</time>
<desc>lat.=55.827587, lon.=26.525473, Alt.=102.647522m. Speed=21.851999m/h.</desc>
<speed>6.070000</speed>
</trkpt>
<trkpt lat="55.827641" lon="26.525494">
<ele>102.575256</ele>
<time>2010-07-18T13:41:57Z</time>
<desc>lat.=55.827641, lon.=26.525494, Alt.=102.575256m. Speed=21.780001m/h.</desc>
<speed>6.050000</speed>
</trkpt>
<trkpt lat="55.827694" lon="26.525515">
<ele>102.530334</ele>
<time>2010-07-18T13:41:58Z</time>
<desc>lat.=55.827694, lon.=26.525515, Alt.=102.530334m. Speed=21.851999m/h.</desc>
<speed>6.070000</speed>
</trkpt>
<trkpt lat="55.827747" lon="26.525537">
<ele>102.481506</ele>
<time>2010-07-18T13:41:59Z</time>
<desc>lat.=55.827747, lon.=26.525537, Alt.=102.481506m. Speed=21.743999m/h.</desc>
<speed>6.040000</speed>
</trkpt>
<trkpt lat="55.827801" lon="26.525558">
<ele>102.614319</ele>
<time>2010-07-18T13:42:00Z</time>
<desc>lat.=55.827801, lon.=26.525558, Alt.=102.614319m. Speed=21.672001m/h.</desc>
<speed>6.020000</speed>
</trkpt>
<trkpt lat="55.827850" lon="26.525581">
<ele>102.544006</ele>
<time>2010-07-18T13:42:01Z</time>
<desc>lat.=55.827850, lon.=26.525581, Alt.=102.544006m. Speed=21.492001m/h.</desc>
<speed>5.970000</speed>
</trkpt>
<trkpt lat="55.827900" lon="26.525602">
<ele>102.614319</ele>
<time>2010-07-18T13:42:02Z</time>
<desc>lat.=55.827900, lon.=26.525602, Alt.=102.614319m. Speed=21.275999m/h.</desc>
<speed>5.910000</speed>
</trkpt>
<trkpt lat="55.827950" lon="26.525627">
<ele>102.680725</ele>
<time>2010-07-18T13:42:03Z</time>
<desc>lat.=55.827950, lon.=26.525627, Alt.=102.680725m. Speed=21.600000m/h.</desc>
<speed>6.000000</speed>
</trkpt>
<trkpt lat="55.827999" lon="26.525652">
<ele>102.637756</ele>
<time>2010-07-18T13:42:04Z</time>
<desc>lat.=55.827999, lon.=26.525652, Alt.=102.637756m. Speed=22.356001m/h.</desc>
<speed>6.210000</speed>
</trkpt>
<trkpt lat="55.828049" lon="26.525673">
<ele>102.581116</ele>
<time>2010-07-18T13:42:05Z</time>
<desc>lat.=55.828049, lon.=26.525673, Alt.=102.581116m. Speed=22.139999m/h.</desc>
<speed>6.150000</speed>
</trkpt>
<trkpt lat="55.828102" lon="26.525694">
<ele>102.483459</ele>
<time>2010-07-18T13:42:06Z</time>
<desc>lat.=55.828102, lon.=26.525694, Alt.=102.483459m. Speed=21.996000m/h.</desc>
<speed>6.110000</speed>
</trkpt>
<trkpt lat="55.828156" lon="26.525711">
<ele>103.006897</ele>
<time>2010-07-18T13:42:07Z</time>
<desc>lat.=55.828156, lon.=26.525711, Alt.=103.006897m. Speed=22.247999m/h.</desc>
<speed>6.180000</speed>
</trkpt>
<trkpt lat="55.828209" lon="26.525728">
<ele>103.010803</ele>
<time>2010-07-18T13:42:08Z</time>
<desc>lat.=55.828209, lon.=26.525728, Alt.=103.010803m. Speed=21.924000m/h.</desc>
<speed>6.090000</speed>
</trkpt>
<trkpt lat="55.828259" lon="26.525749">
<ele>102.975647</ele>
<time>2010-07-18T13:42:09Z</time>
<desc>lat.=55.828259, lon.=26.525749, Alt.=102.975647m. Speed=21.888000m/h.</desc>
<speed>6.080000</speed>
</trkpt>
<trkpt lat="55.828312" lon="26.525766">
<ele>102.899475</ele>
<time>2010-07-18T13:42:10Z</time>
<desc>lat.=55.828312, lon.=26.525766, Alt.=102.899475m. Speed=21.996000m/h.</desc>
<speed>6.110000</speed>
</trkpt>
<trkpt lat="55.828362" lon="26.525785">
<ele>102.807678</ele>
<time>2010-07-18T13:42:11Z</time>
<desc>lat.=55.828362, lon.=26.525785, Alt.=102.807678m. Speed=21.816000m/h.</desc>
<speed>6.060000</speed>
</trkpt>
<trkpt lat="55.828415" lon="26.525806">
<ele>102.745178</ele>
<time>2010-07-18T13:42:12Z</time>
<desc>lat.=55.828415, lon.=26.525806, Alt.=102.745178m. Speed=22.176001m/h.</desc>
<speed>6.160000</speed>
</trkpt>
<trkpt lat="55.828468" lon="26.525829">
<ele>102.745178</ele>
<time>2010-07-18T13:42:13Z</time>
<desc>lat.=55.828468, lon.=26.525829, Alt.=102.745178m. Speed=22.427999m/h.</desc>
<speed>6.230000</speed>
</trkpt>
<trkpt lat="55.828518" lon="26.525846">
<ele>102.366272</ele>
<time>2010-07-18T13:42:14Z</time>
<desc>lat.=55.828518, lon.=26.525846, Alt.=102.366272m. Speed=22.176001m/h.</desc>
<speed>6.160000</speed>
</trkpt>
<trkpt lat="55.828571" lon="26.525864">
<ele>102.307678</ele>
<time>2010-07-18T13:42:15Z</time>
<desc>lat.=55.828571, lon.=26.525864, Alt.=102.307678m. Speed=22.212000m/h.</desc>
<speed>6.170000</speed>
</trkpt>
<trkpt lat="55.828629" lon="26.525875">
<ele>102.696350</ele>
<time>2010-07-18T13:42:16Z</time>
<desc>lat.=55.828629, lon.=26.525875, Alt.=102.696350m. Speed=22.752001m/h.</desc>
<speed>6.320000</speed>
</trkpt>
<trkpt lat="55.828686" lon="26.525888">
<ele>102.557678</ele>
<time>2010-07-18T13:42:17Z</time>
<desc>lat.=55.828686, lon.=26.525888, Alt.=102.557678m. Speed=23.868000m/h.</desc>
<speed>6.630000</speed>
</trkpt>
<trkpt lat="55.828743" lon="26.525911">
<ele>102.247131</ele>
<time>2010-07-18T13:42:18Z</time>
<desc>lat.=55.828743, lon.=26.525911, Alt.=102.247131m. Speed=24.587999m/h.</desc>
<speed>6.830000</speed>
</trkpt>
<trkpt lat="55.828800" lon="26.525928">
<ele>102.178772</ele>
<time>2010-07-18T13:42:19Z</time>
<desc>lat.=55.828800, lon.=26.525928, Alt.=102.178772m. Speed=24.695999m/h.</desc>
<speed>6.860000</speed>
</trkpt>
<trkpt lat="55.828857" lon="26.525946">
<ele>102.034241</ele>
<time>2010-07-18T13:42:20Z</time>
<desc>lat.=55.828857, lon.=26.525946, Alt.=102.034241m. Speed=24.516001m/h.</desc>
<speed>6.810000</speed>
</trkpt>
<trkpt lat="55.828915" lon="26.525963">
<ele>101.903381</ele>
<time>2010-07-18T13:42:21Z</time>
<desc>lat.=55.828915, lon.=26.525963, Alt.=101.903381m. Speed=24.191999m/h.</desc>
<speed>6.720000</speed>
</trkpt>
<trkpt lat="55.828976" lon="26.525982">
<ele>101.864319</ele>
<time>2010-07-18T13:42:22Z</time>
<desc>lat.=55.828976, lon.=26.525982, Alt.=101.864319m. Speed=23.724001m/h.</desc>
<speed>6.590000</speed>
</trkpt>
<trkpt lat="55.829033" lon="26.525995">
<ele>101.905334</ele>
<time>2010-07-18T13:42:23Z</time>
<desc>lat.=55.829033, lon.=26.525995, Alt.=101.905334m. Speed=23.148001m/h.</desc>
<speed>6.430000</speed>
</trkpt>
<trkpt lat="55.829086" lon="26.526003">
<ele>102.534241</ele>
<time>2010-07-18T13:42:24Z</time>
<desc>lat.=55.829086, lon.=26.526003, Alt.=102.534241m. Speed=22.427999m/h.</desc>
<speed>6.230000</speed>
</trkpt>
<trkpt lat="55.829140" lon="26.526009">
<ele>102.542053</ele>
<time>2010-07-18T13:42:25Z</time>
<desc>lat.=55.829140, lon.=26.526009, Alt.=102.542053m. Speed=21.312000m/h.</desc>
<speed>5.920000</speed>
</trkpt>
<trkpt lat="55.829193" lon="26.526016">
<ele>102.604553</ele>
<time>2010-07-18T13:42:26Z</time>
<desc>lat.=55.829193, lon.=26.526016, Alt.=102.604553m. Speed=21.816000m/h.</desc>
<speed>6.060000</speed>
</trkpt>
<trkpt lat="55.829247" lon="26.526022">
<ele>102.864319</ele>
<time>2010-07-18T13:42:27Z</time>
<desc>lat.=55.829247, lon.=26.526022, Alt.=102.864319m. Speed=21.384001m/h.</desc>
<speed>5.940000</speed>
</trkpt>
<trkpt lat="55.829304" lon="26.526026">
<ele>103.346741</ele>
<time>2010-07-18T13:42:28Z</time>
<desc>lat.=55.829304, lon.=26.526026, Alt.=103.346741m. Speed=21.600000m/h.</desc>
<speed>6.000000</speed>
</trkpt>
<trkpt lat="55.829357" lon="26.526024">
<ele>104.018616</ele>
<time>2010-07-18T13:42:29Z</time>
<desc>lat.=55.829357, lon.=26.526024, Alt.=104.018616m. Speed=22.032000m/h.</desc>
<speed>6.120000</speed>
</trkpt>
<trkpt lat="55.829411" lon="26.526028">
<ele>104.288147</ele>
<time>2010-07-18T13:42:30Z</time>
<desc>lat.=55.829411, lon.=26.526028, Alt.=104.288147m. Speed=22.320000m/h.</desc>
<speed>6.200000</speed>
</trkpt>
<trkpt lat="55.829468" lon="26.526035">
<ele>104.590881</ele>
<time>2010-07-18T13:42:31Z</time>
<desc>lat.=55.829468, lon.=26.526035, Alt.=104.590881m. Speed=22.572001m/h.</desc>
<speed>6.270000</speed>
</trkpt>
<trkpt lat="55.829521" lon="26.526047">
<ele>104.975647</ele>
<time>2010-07-18T13:42:32Z</time>
<desc>lat.=55.829521, lon.=26.526047, Alt.=104.975647m. Speed=22.860001m/h.</desc>
<speed>6.350000</speed>
</trkpt>
<trkpt lat="55.829575" lon="26.526058">
<ele>104.983459</ele>
<time>2010-07-18T13:42:33Z</time>
<desc>lat.=55.829575, lon.=26.526058, Alt.=104.983459m. Speed=23.004000m/h.</desc>
<speed>6.390000</speed>
</trkpt>
<trkpt lat="55.829632" lon="26.526062">
<ele>105.120178</ele>
<time>2010-07-18T13:42:34Z</time>
<desc>lat.=55.829632, lon.=26.526062, Alt.=105.120178m. Speed=22.608000m/h.</desc>
<speed>6.280000</speed>
</trkpt>
<trkpt lat="55.829689" lon="26.526068">
<ele>105.219788</ele>
<time>2010-07-18T13:42:35Z</time>
<desc>lat.=55.829689, lon.=26.526068, Alt.=105.219788m. Speed=22.284000m/h.</desc>
<speed>6.190000</speed>
</trkpt>
<trkpt lat="55.829742" lon="26.526077">
<ele>105.323303</ele>
<time>2010-07-18T13:42:36Z</time>
<desc>lat.=55.829742, lon.=26.526077, Alt.=105.323303m. Speed=22.572001m/h.</desc>
<speed>6.270000</speed>
</trkpt>
<trkpt lat="55.829800" lon="26.526087">
<ele>105.364319</ele>
<time>2010-07-18T13:42:37Z</time>
<desc>lat.=55.829800, lon.=26.526087, Alt.=105.364319m. Speed=21.708000m/h.</desc>
<speed>6.030000</speed>
</trkpt>
<trkpt lat="55.829853" lon="26.526093">
<ele>105.596741</ele>
<time>2010-07-18T13:42:38Z</time>
<desc>lat.=55.829853, lon.=26.526093, Alt.=105.596741m. Speed=21.600000m/h.</desc>
<speed>6.000000</speed>
</trkpt>
<trkpt lat="55.829906" lon="26.526093">
<ele>105.876038</ele>
<time>2010-07-18T13:42:39Z</time>
<desc>lat.=55.829906, lon.=26.526093, Alt.=105.876038m. Speed=21.312000m/h.</desc>
<speed>5.920000</speed>
</trkpt>
<trkpt lat="55.829960" lon="26.526096">
<ele>105.956116</ele>
<time>2010-07-18T13:42:40Z</time>
<desc>lat.=55.829960, lon.=26.526096, Alt.=105.956116m. Speed=20.591999m/h.</desc>
<speed>5.720000</speed>
</trkpt>
<trkpt lat="55.830009" lon="26.526100">
<ele>105.833069</ele>
<time>2010-07-18T13:42:41Z</time>
<desc>lat.=55.830009, lon.=26.526100, Alt.=105.833069m. Speed=20.664000m/h.</desc>
<speed>5.740000</speed>
</trkpt>
<trkpt lat="55.830059" lon="26.526104">
<ele>105.836975</ele>
<time>2010-07-18T13:42:42Z</time>
<desc>lat.=55.830059, lon.=26.526104, Alt.=105.836975m. Speed=20.879999m/h.</desc>
<speed>5.800000</speed>
</trkpt>
<trkpt lat="55.830112" lon="26.526108">
<ele>105.872131</ele>
<time>2010-07-18T13:42:43Z</time>
<desc>lat.=55.830112, lon.=26.526108, Alt.=105.872131m. Speed=20.916000m/h.</desc>
<speed>5.810000</speed>
</trkpt>
<trkpt lat="55.830166" lon="26.526110">
<ele>106.012756</ele>
<time>2010-07-18T13:42:44Z</time>
<desc>lat.=55.830166, lon.=26.526110, Alt.=106.012756m. Speed=21.024000m/h.</desc>
<speed>5.840000</speed>
</trkpt>
<trkpt lat="55.830219" lon="26.526115">
<ele>106.190491</ele>
<time>2010-07-18T13:42:45Z</time>
<desc>lat.=55.830219, lon.=26.526115, Alt.=106.190491m. Speed=21.096001m/h.</desc>
<speed>5.860000</speed>
</trkpt>
<trkpt lat="55.830273" lon="26.526119">
<ele>106.215881</ele>
<time>2010-07-18T13:42:46Z</time>
<desc>lat.=55.830273, lon.=26.526119, Alt.=106.215881m. Speed=21.204000m/h.</desc>
<speed>5.890000</speed>
</trkpt>
<trkpt lat="55.830326" lon="26.526121">
<ele>106.329163</ele>
<time>2010-07-18T13:42:47Z</time>
<desc>lat.=55.830326, lon.=26.526121, Alt.=106.329163m. Speed=21.024000m/h.</desc>
<speed>5.840000</speed>
</trkpt>
<trkpt lat="55.830383" lon="26.526121">
<ele>106.514709</ele>
<time>2010-07-18T13:42:48Z</time>
<desc>lat.=55.830383, lon.=26.526121, Alt.=106.514709m. Speed=20.844000m/h.</desc>
<speed>5.790000</speed>
</trkpt>
<trkpt lat="55.830433" lon="26.526125">
<ele>106.633850</ele>
<time>2010-07-18T13:42:49Z</time>
<desc>lat.=55.830433, lon.=26.526125, Alt.=106.633850m. Speed=20.736000m/h.</desc>
<speed>5.760000</speed>
</trkpt>
<trkpt lat="55.830486" lon="26.526131">
<ele>106.711975</ele>
<time>2010-07-18T13:42:50Z</time>
<desc>lat.=55.830486, lon.=26.526131, Alt.=106.711975m. Speed=20.628000m/h.</desc>
<speed>5.730000</speed>
</trkpt>
<trkpt lat="55.830540" lon="26.526140">
<ele>106.229553</ele>
<time>2010-07-18T13:42:51Z</time>
<desc>lat.=55.830540, lon.=26.526140, Alt.=106.229553m. Speed=20.375999m/h.</desc>
<speed>5.660000</speed>
</trkpt>
<trkpt lat="55.830593" lon="26.526144">
<ele>106.311584</ele>
<time>2010-07-18T13:42:52Z</time>
<desc>lat.=55.830593, lon.=26.526144, Alt.=106.311584m. Speed=20.412001m/h.</desc>
<speed>5.670000</speed>
</trkpt>
<trkpt lat="55.830643" lon="26.526148">
<ele>106.338928</ele>
<time>2010-07-18T13:42:53Z</time>
<desc>lat.=55.830643, lon.=26.526148, Alt.=106.338928m. Speed=20.412001m/h.</desc>
<speed>5.670000</speed>
</trkpt>
<trkpt lat="55.830696" lon="26.526150">
<ele>106.483459</ele>
<time>2010-07-18T13:42:54Z</time>
<desc>lat.=55.830696, lon.=26.526150, Alt.=106.483459m. Speed=20.412001m/h.</desc>
<speed>5.670000</speed>
</trkpt>
<trkpt lat="55.830753" lon="26.526146">
<ele>107.126038</ele>
<time>2010-07-18T13:42:55Z</time>
<desc>lat.=55.830753, lon.=26.526146, Alt.=107.126038m. Speed=20.483999m/h.</desc>
<speed>5.690000</speed>
</trkpt>
<trkpt lat="55.830807" lon="26.526152">
<ele>107.282288</ele>
<time>2010-07-18T13:42:56Z</time>
<desc>lat.=55.830807, lon.=26.526152, Alt.=107.282288m. Speed=20.556000m/h.</desc>
<speed>5.710000</speed>
</trkpt>
<trkpt lat="55.830860" lon="26.526152">
<ele>107.520569</ele>
<time>2010-07-18T13:42:57Z</time>
<desc>lat.=55.830860, lon.=26.526152, Alt.=107.520569m. Speed=20.556000m/h.</desc>
<speed>5.710000</speed>
</trkpt>
<trkpt lat="55.830910" lon="26.526161">
<ele>107.485413</ele>
<time>2010-07-18T13:42:58Z</time>
<desc>lat.=55.830910, lon.=26.526161, Alt.=107.485413m. Speed=20.916000m/h.</desc>
<speed>5.810000</speed>
</trkpt>
<trkpt lat="55.830963" lon="26.526165">
<ele>107.600647</ele>
<time>2010-07-18T13:42:59Z</time>
<desc>lat.=55.830963, lon.=26.526165, Alt.=107.600647m. Speed=21.384001m/h.</desc>
<speed>5.940000</speed>
</trkpt>
<trkpt lat="55.831017" lon="26.526175">
<ele>107.661194</ele>
<time>2010-07-18T13:43:00Z</time>
<desc>lat.=55.831017, lon.=26.526175, Alt.=107.661194m. Speed=20.736000m/h.</desc>
<speed>5.760000</speed>
</trkpt>
<trkpt lat="55.831070" lon="26.526175">
<ele>107.752991</ele>
<time>2010-07-18T13:43:01Z</time>
<desc>lat.=55.831070, lon.=26.526175, Alt.=107.752991m. Speed=19.908001m/h.</desc>
<speed>5.530000</speed>
</trkpt>
<trkpt lat="55.831120" lon="26.526176">
<ele>107.790100</ele>
<time>2010-07-18T13:43:02Z</time>
<desc>lat.=55.831120, lon.=26.526176, Alt.=107.790100m. Speed=19.224001m/h.</desc>
<speed>5.340000</speed>
</trkpt>
<trkpt lat="55.831169" lon="26.526180">
<ele>107.891663</ele>
<time>2010-07-18T13:43:03Z</time>
<desc>lat.=55.831169, lon.=26.526180, Alt.=107.891663m. Speed=18.360001m/h.</desc>
<speed>5.100000</speed>
</trkpt>
<trkpt lat="55.831215" lon="26.526190">
<ele>107.940491</ele>
<time>2010-07-18T13:43:04Z</time>
<desc>lat.=55.831215, lon.=26.526190, Alt.=107.940491m. Speed=17.892000m/h.</desc>
<speed>4.970000</speed>
</trkpt>
<trkpt lat="55.831261" lon="26.526197">
<ele>108.053772</ele>
<time>2010-07-18T13:43:05Z</time>
<desc>lat.=55.831261, lon.=26.526197, Alt.=108.053772m. Speed=16.992001m/h.</desc>
<speed>4.720000</speed>
</trkpt>
<trkpt lat="55.831303" lon="26.526201">
<ele>108.133850</ele>
<time>2010-07-18T13:43:06Z</time>
<desc>lat.=55.831303, lon.=26.526201, Alt.=108.133850m. Speed=16.740000m/h.</desc>
<speed>4.650000</speed>
</trkpt>
<trkpt lat="55.831348" lon="26.526205">
<ele>108.124084</ele>
<time>2010-07-18T13:43:07Z</time>
<desc>lat.=55.831348, lon.=26.526205, Alt.=108.124084m. Speed=17.063999m/h.</desc>
<speed>4.740000</speed>
</trkpt>
<trkpt lat="55.831390" lon="26.526207">
<ele>108.227600</ele>
<time>2010-07-18T13:43:08Z</time>
<desc>lat.=55.831390, lon.=26.526207, Alt.=108.227600m. Speed=17.676001m/h.</desc>
<speed>4.910000</speed>
</trkpt>
<trkpt lat="55.831436" lon="26.526213">
<ele>108.262756</ele>
<time>2010-07-18T13:43:09Z</time>
<desc>lat.=55.831436, lon.=26.526213, Alt.=108.262756m. Speed=17.820000m/h.</desc>
<speed>4.950000</speed>
</trkpt>
<trkpt lat="55.831478" lon="26.526217">
<ele>108.370178</ele>
<time>2010-07-18T13:43:10Z</time>
<desc>lat.=55.831478, lon.=26.526217, Alt.=108.370178m. Speed=17.388000m/h.</desc>
<speed>4.830000</speed>
</trkpt>
<trkpt lat="55.831524" lon="26.526224">
<ele>108.424866</ele>
<time>2010-07-18T13:43:11Z</time>
<desc>lat.=55.831524, lon.=26.526224, Alt.=108.424866m. Speed=16.884001m/h.</desc>
<speed>4.690000</speed>
</trkpt>
<trkpt lat="55.831566" lon="26.526228">
<ele>108.522522</ele>
<time>2010-07-18T13:43:12Z</time>
<desc>lat.=55.831566, lon.=26.526228, Alt.=108.522522m. Speed=16.488001m/h.</desc>
<speed>4.580000</speed>
</trkpt>
<trkpt lat="55.831604" lon="26.526230">
<ele>108.538147</ele>
<time>2010-07-18T13:43:13Z</time>
<desc>lat.=55.831604, lon.=26.526230, Alt.=108.538147m. Speed=15.768000m/h.</desc>
<speed>4.380000</speed>
</trkpt>
<trkpt lat="55.831638" lon="26.526230">
<ele>108.463928</ele>
<time>2010-07-18T13:43:14Z</time>
<desc>lat.=55.831638, lon.=26.526230, Alt.=108.463928m. Speed=14.688000m/h.</desc>
<speed>4.080000</speed>
</trkpt>
<trkpt lat="55.831673" lon="26.526236">
<ele>108.477600</ele>
<time>2010-07-18T13:43:15Z</time>
<desc>lat.=55.831673, lon.=26.526236, Alt.=108.477600m. Speed=13.536000m/h.</desc>
<speed>3.760000</speed>
</trkpt>
<trkpt lat="55.831707" lon="26.526239">
<ele>108.538147</ele>
<time>2010-07-18T13:43:16Z</time>
<desc>lat.=55.831707, lon.=26.526239, Alt.=108.538147m. Speed=12.852000m/h.</desc>
<speed>3.570000</speed>
</trkpt>
<trkpt lat="55.831738" lon="26.526241">
<ele>108.616272</ele>
<time>2010-07-18T13:43:17Z</time>
<desc>lat.=55.831738, lon.=26.526241, Alt.=108.616272m. Speed=12.132000m/h.</desc>
<speed>3.370000</speed>
</trkpt>
<trkpt lat="55.831768" lon="26.526245">
<ele>108.672913</ele>
<time>2010-07-18T13:43:18Z</time>
<desc>lat.=55.831768, lon.=26.526245, Alt.=108.672913m. Speed=11.700000m/h.</desc>
<speed>3.250000</speed>
</trkpt>
<trkpt lat="55.831799" lon="26.526245">
<ele>108.715881</ele>
<time>2010-07-18T13:43:19Z</time>
<desc>lat.=55.831799, lon.=26.526245, Alt.=108.715881m. Speed=11.736000m/h.</desc>
<speed>3.260000</speed>
</trkpt>
<trkpt lat="55.831829" lon="26.526245">
<ele>108.711975</ele>
<time>2010-07-18T13:43:20Z</time>
<desc>lat.=55.831829, lon.=26.526245, Alt.=108.711975m. Speed=11.700000m/h.</desc>
<speed>3.250000</speed>
</trkpt>
<trkpt lat="55.831852" lon="26.526247">
<ele>108.711975</ele>
<time>2010-07-18T13:43:21Z</time>
<desc>lat.=55.831852, lon.=26.526247, Alt.=108.711975m. Speed=9.828000m/h.</desc>
<speed>2.730000</speed>
</trkpt>
<trkpt lat="55.831875" lon="26.526253">
<ele>108.690491</ele>
<time>2010-07-18T13:43:22Z</time>
<desc>lat.=55.831875, lon.=26.526253, Alt.=108.690491m. Speed=7.992000m/h.</desc>
<speed>2.220000</speed>
</trkpt>
<trkpt lat="55.831894" lon="26.526253">
<ele>108.729553</ele>
<time>2010-07-18T13:43:23Z</time>
<desc>lat.=55.831894, lon.=26.526253, Alt.=108.729553m. Speed=7.056000m/h.</desc>
<speed>1.960000</speed>
</trkpt>
<trkpt lat="55.831909" lon="26.526253">
<ele>108.690491</ele>
<time>2010-07-18T13:43:24Z</time>
<desc>lat.=55.831909, lon.=26.526253, Alt.=108.690491m. Speed=6.696000m/h.</desc>
<speed>1.860000</speed>
</trkpt>
<trkpt lat="55.831928" lon="26.526253">
<ele>108.684631</ele>
<time>2010-07-18T13:43:25Z</time>
<desc>lat.=55.831928, lon.=26.526253, Alt.=108.684631m. Speed=6.876000m/h.</desc>
<speed>1.910000</speed>
</trkpt>
<trkpt lat="55.831944" lon="26.526257">
<ele>108.618225</ele>
<time>2010-07-18T13:43:26Z</time>
<desc>lat.=55.831944, lon.=26.526257, Alt.=108.618225m. Speed=6.984000m/h.</desc>
<speed>1.940000</speed>
</trkpt>
<trkpt lat="55.831963" lon="26.526253">
<ele>108.401428</ele>
<time>2010-07-18T13:43:27Z</time>
<desc>lat.=55.831963, lon.=26.526253, Alt.=108.401428m. Speed=7.632000m/h.</desc>
<speed>2.120000</speed>
</trkpt>
<trkpt lat="55.831982" lon="26.526258">
<ele>108.557678</ele>
<time>2010-07-18T13:43:28Z</time>
<desc>lat.=55.831982, lon.=26.526258, Alt.=108.557678m. Speed=8.352000m/h.</desc>
<speed>2.320000</speed>
</trkpt>
<trkpt lat="55.832001" lon="26.526260">
<ele>108.637756</ele>
<time>2010-07-18T13:43:29Z</time>
<desc>lat.=55.832001, lon.=26.526260, Alt.=108.637756m. Speed=8.352000m/h.</desc>
<speed>2.320000</speed>
</trkpt>
<trkpt lat="55.832024" lon="26.526266">
<ele>108.114319</ele>
<time>2010-07-18T13:43:30Z</time>
<desc>lat.=55.832024, lon.=26.526266, Alt.=108.114319m. Speed=8.460000m/h.</desc>
<speed>2.350000</speed>
</trkpt>
<trkpt lat="55.832043" lon="26.526266">
<ele>108.065491</ele>
<time>2010-07-18T13:43:31Z</time>
<desc>lat.=55.832043, lon.=26.526266, Alt.=108.065491m. Speed=8.388000m/h.</desc>
<speed>2.330000</speed>
</trkpt>
<trkpt lat="55.832066" lon="26.526272">
<ele>108.055725</ele>
<time>2010-07-18T13:43:32Z</time>
<desc>lat.=55.832066, lon.=26.526272, Alt.=108.055725m. Speed=8.352000m/h.</desc>
<speed>2.320000</speed>
</trkpt>
<trkpt lat="55.832085" lon="26.526272">
<ele>108.221741</ele>
<time>2010-07-18T13:43:33Z</time>
<desc>lat.=55.832085, lon.=26.526272, Alt.=108.221741m. Speed=8.280000m/h.</desc>
<speed>2.300000</speed>
</trkpt>
<trkpt lat="55.832104" lon="26.526272">
<ele>108.262756</ele>
<time>2010-07-18T13:43:34Z</time>
<desc>lat.=55.832104, lon.=26.526272, Alt.=108.262756m. Speed=8.172000m/h.</desc>
<speed>2.270000</speed>
</trkpt>
<trkpt lat="55.832123" lon="26.526279">
<ele>108.274475</ele>
<time>2010-07-18T13:43:35Z</time>
<desc>lat.=55.832123, lon.=26.526279, Alt.=108.274475m. Speed=8.172000m/h.</desc>
<speed>2.270000</speed>
</trkpt>
<trkpt lat="55.832142" lon="26.526285">
<ele>108.252991</ele>
<time>2010-07-18T13:43:36Z</time>
<desc>lat.=55.832142, lon.=26.526285, Alt.=108.252991m. Speed=8.352000m/h.</desc>
<speed>2.320000</speed>
</trkpt>
<trkpt lat="55.832165" lon="26.526293">
<ele>108.336975</ele>
<time>2010-07-18T13:43:37Z</time>
<desc>lat.=55.832165, lon.=26.526293, Alt.=108.336975m. Speed=8.568000m/h.</desc>
<speed>2.380000</speed>
</trkpt>
<trkpt lat="55.832184" lon="26.526293">
<ele>108.403381</ele>
<time>2010-07-18T13:43:38Z</time>
<desc>lat.=55.832184, lon.=26.526293, Alt.=108.403381m. Speed=8.964000m/h.</desc>
<speed>2.490000</speed>
</trkpt>
<trkpt lat="55.832207" lon="26.526293">
<ele>108.426819</ele>
<time>2010-07-18T13:43:39Z</time>
<desc>lat.=55.832207, lon.=26.526293, Alt.=108.426819m. Speed=9.000000m/h.</desc>
<speed>2.500000</speed>
</trkpt>
<trkpt lat="55.832230" lon="26.526293">
<ele>108.366272</ele>
<time>2010-07-18T13:43:40Z</time>
<desc>lat.=55.832230, lon.=26.526293, Alt.=108.366272m. Speed=9.324000m/h.</desc>
<speed>2.590000</speed>
</trkpt>
<trkpt lat="55.832253" lon="26.526291">
<ele>108.260803</ele>
<time>2010-07-18T13:43:41Z</time>
<desc>lat.=55.832253, lon.=26.526291, Alt.=108.260803m. Speed=10.080000m/h.</desc>
<speed>2.800000</speed>
</trkpt>
<trkpt lat="55.832279" lon="26.526289">
<ele>108.274475</ele>
<time>2010-07-18T13:43:42Z</time>
<desc>lat.=55.832279, lon.=26.526289, Alt.=108.274475m. Speed=11.196000m/h.</desc>
<speed>3.110000</speed>
</trkpt>
<trkpt lat="55.832310" lon="26.526285">
<ele>108.157288</ele>
<time>2010-07-18T13:43:43Z</time>
<desc>lat.=55.832310, lon.=26.526285, Alt.=108.157288m. Speed=12.348000m/h.</desc>
<speed>3.430000</speed>
</trkpt>
<trkpt lat="55.832344" lon="26.526283">
<ele>108.049866</ele>
<time>2010-07-18T13:43:44Z</time>
<desc>lat.=55.832344, lon.=26.526283, Alt.=108.049866m. Speed=13.464000m/h.</desc>
<speed>3.740000</speed>
</trkpt>
<trkpt lat="55.832378" lon="26.526283">
<ele>108.186584</ele>
<time>2010-07-18T13:43:45Z</time>
<desc>lat.=55.832378, lon.=26.526283, Alt.=108.186584m. Speed=14.328000m/h.</desc>
<speed>3.980000</speed>
</trkpt>
<trkpt lat="55.832413" lon="26.526287">
<ele>108.145569</ele>
<time>2010-07-18T13:43:46Z</time>
<desc>lat.=55.832413, lon.=26.526287, Alt.=108.145569m. Speed=14.580000m/h.</desc>
<speed>4.050000</speed>
</trkpt>
<trkpt lat="55.832451" lon="26.526293">
<ele>108.118225</ele>
<time>2010-07-18T13:43:47Z</time>
<desc>lat.=55.832451, lon.=26.526293, Alt.=108.118225m. Speed=14.796000m/h.</desc>
<speed>4.110000</speed>
</trkpt>
<trkpt lat="55.832485" lon="26.526299">
<ele>108.088928</ele>
<time>2010-07-18T13:43:48Z</time>
<desc>lat.=55.832485, lon.=26.526299, Alt.=108.088928m. Speed=14.940000m/h.</desc>
<speed>4.150000</speed>
</trkpt>
<trkpt lat="55.832523" lon="26.526302">
<ele>108.133850</ele>
<time>2010-07-18T13:43:49Z</time>
<desc>lat.=55.832523, lon.=26.526302, Alt.=108.133850m. Speed=15.264000m/h.</desc>
<speed>4.240000</speed>
</trkpt>
<trkpt lat="55.832565" lon="26.526304">
<ele>108.184631</ele>
<time>2010-07-18T13:43:50Z</time>
<desc>lat.=55.832565, lon.=26.526304, Alt.=108.184631m. Speed=15.660000m/h.</desc>
<speed>4.350000</speed>
</trkpt>
<trkpt lat="55.832603" lon="26.526306">
<ele>107.993225</ele>
<time>2010-07-18T13:43:51Z</time>
<desc>lat.=55.832603, lon.=26.526306, Alt.=107.993225m. Speed=15.984000m/h.</desc>
<speed>4.440000</speed>
</trkpt>
<trkpt lat="55.832642" lon="26.526306">
<ele>107.801819</ele>
<time>2010-07-18T13:43:52Z</time>
<desc>lat.=55.832642, lon.=26.526306, Alt.=107.801819m. Speed=16.379999m/h.</desc>
<speed>4.550000</speed>
</trkpt>
<trkpt lat="55.832684" lon="26.526308">
<ele>107.710022</ele>
<time>2010-07-18T13:43:53Z</time>
<desc>lat.=55.832684, lon.=26.526308, Alt.=107.710022m. Speed=16.559999m/h.</desc>
<speed>4.600000</speed>
</trkpt>
<trkpt lat="55.832729" lon="26.526310">
<ele>107.583069</ele>
<time>2010-07-18T13:43:54Z</time>
<desc>lat.=55.832729, lon.=26.526310, Alt.=107.583069m. Speed=17.459999m/h.</desc>
<speed>4.850000</speed>
</trkpt>
<trkpt lat="55.832775" lon="26.526310">
<ele>107.233459</ele>
<time>2010-07-18T13:43:55Z</time>
<desc>lat.=55.832775, lon.=26.526310, Alt.=107.233459m. Speed=18.072001m/h.</desc>
<speed>5.020000</speed>
</trkpt>
<trkpt lat="55.832821" lon="26.526308">
<ele>107.001038</ele>
<time>2010-07-18T13:43:56Z</time>
<desc>lat.=55.832821, lon.=26.526308, Alt.=107.001038m. Speed=19.115999m/h.</desc>
<speed>5.310000</speed>
</trkpt>
<trkpt lat="55.832870" lon="26.526312">
<ele>106.754944</ele>
<time>2010-07-18T13:43:57Z</time>
<desc>lat.=55.832870, lon.=26.526312, Alt.=106.754944m. Speed=20.520000m/h.</desc>
<speed>5.700000</speed>
</trkpt>
<trkpt lat="55.832924" lon="26.526318">
<ele>106.563538</ele>
<time>2010-07-18T13:43:58Z</time>
<desc>lat.=55.832924, lon.=26.526318, Alt.=106.563538m. Speed=21.132000m/h.</desc>
<speed>5.870000</speed>
</trkpt>
<trkpt lat="55.832977" lon="26.526323">
<ele>106.331116</ele>
<time>2010-07-18T13:43:59Z</time>
<desc>lat.=55.832977, lon.=26.526323, Alt.=106.331116m. Speed=21.996000m/h.</desc>
<speed>6.110000</speed>
</trkpt>
<trkpt lat="55.833031" lon="26.526321">
<ele>106.278381</ele>
<time>2010-07-18T13:44:00Z</time>
<desc>lat.=55.833031, lon.=26.526321, Alt.=106.278381m. Speed=23.040001m/h.</desc>
<speed>6.400000</speed>
</trkpt>
<trkpt lat="55.833088" lon="26.526321">
<ele>106.040100</ele>
<time>2010-07-18T13:44:01Z</time>
<desc>lat.=55.833088, lon.=26.526321, Alt.=106.040100m. Speed=23.760000m/h.</desc>
<speed>6.600000</speed>
</trkpt>
<trkpt lat="55.833149" lon="26.526327">
<ele>105.835022</ele>
<time>2010-07-18T13:44:02Z</time>
<desc>lat.=55.833149, lon.=26.526327, Alt.=105.835022m. Speed=24.983999m/h.</desc>
<speed>6.940000</speed>
</trkpt>
<trkpt lat="55.833210" lon="26.526335">
<ele>105.686584</ele>
<time>2010-07-18T13:44:03Z</time>
<desc>lat.=55.833210, lon.=26.526335, Alt.=105.686584m. Speed=25.596001m/h.</desc>
<speed>7.110000</speed>
</trkpt>
<trkpt lat="55.833275" lon="26.526340">
<ele>105.489319</ele>
<time>2010-07-18T13:44:04Z</time>
<desc>lat.=55.833275, lon.=26.526340, Alt.=105.489319m. Speed=26.172001m/h.</desc>
<speed>7.270000</speed>
</trkpt>
<trkpt lat="55.833344" lon="26.526346">
<ele>105.237366</ele>
<time>2010-07-18T13:44:05Z</time>
<desc>lat.=55.833344, lon.=26.526346, Alt.=105.237366m. Speed=26.820000m/h.</desc>
<speed>7.450000</speed>
</trkpt>
<trkpt lat="55.833412" lon="26.526352">
<ele>104.879944</ele>
<time>2010-07-18T13:44:06Z</time>
<desc>lat.=55.833412, lon.=26.526352, Alt.=104.879944m. Speed=27.431999m/h.</desc>
<speed>7.620000</speed>
</trkpt>
<trkpt lat="55.833481" lon="26.526358">
<ele>104.573303</ele>
<time>2010-07-18T13:44:07Z</time>
<desc>lat.=55.833481, lon.=26.526358, Alt.=104.573303m. Speed=28.044001m/h.</desc>
<speed>7.790000</speed>
</trkpt>
<trkpt lat="55.833553" lon="26.526360">
<ele>104.294006</ele>
<time>2010-07-18T13:44:08Z</time>
<desc>lat.=55.833553, lon.=26.526360, Alt.=104.294006m. Speed=29.340000m/h.</desc>
<speed>8.150000</speed>
</trkpt>
<trkpt lat="55.833626" lon="26.526360">
<ele>104.053772</ele>
<time>2010-07-18T13:44:09Z</time>
<desc>lat.=55.833626, lon.=26.526360, Alt.=104.053772m. Speed=29.771999m/h.</desc>
<speed>8.270000</speed>
</trkpt>
<trkpt lat="55.833702" lon="26.526360">
<ele>103.846741</ele>
<time>2010-07-18T13:44:10Z</time>
<desc>lat.=55.833702, lon.=26.526360, Alt.=103.846741m. Speed=30.384001m/h.</desc>
<speed>8.440000</speed>
</trkpt>
<trkpt lat="55.833778" lon="26.526361">
<ele>103.610413</ele>
<time>2010-07-18T13:44:11Z</time>
<desc>lat.=55.833778, lon.=26.526361, Alt.=103.610413m. Speed=30.924000m/h.</desc>
<speed>8.590000</speed>
</trkpt>
<trkpt lat="55.833858" lon="26.526365">
<ele>103.397522</ele>
<time>2010-07-18T13:44:12Z</time>
<desc>lat.=55.833858, lon.=26.526365, Alt.=103.397522m. Speed=31.608000m/h.</desc>
<speed>8.780000</speed>
</trkpt>
<trkpt lat="55.833939" lon="26.526369">
<ele>103.186584</ele>
<time>2010-07-18T13:44:13Z</time>
<desc>lat.=55.833939, lon.=26.526369, Alt.=103.186584m. Speed=32.112000m/h.</desc>
<speed>8.920000</speed>
</trkpt>
<trkpt lat="55.834019" lon="26.526375">
<ele>102.876038</ele>
<time>2010-07-18T13:44:14Z</time>
<desc>lat.=55.834019, lon.=26.526375, Alt.=102.876038m. Speed=32.580002m/h.</desc>
<speed>9.050001</speed>
</trkpt>
<trkpt lat="55.834103" lon="26.526379">
<ele>102.739319</ele>
<time>2010-07-18T13:44:15Z</time>
<desc>lat.=55.834103, lon.=26.526379, Alt.=102.739319m. Speed=33.155998m/h.</desc>
<speed>9.210000</speed>
</trkpt>
<trkpt lat="55.834187" lon="26.526379">
<ele>102.508850</ele>
<time>2010-07-18T13:44:16Z</time>
<desc>lat.=55.834187, lon.=26.526379, Alt.=102.508850m. Speed=33.660000m/h.</desc>
<speed>9.350000</speed>
</trkpt>
<trkpt lat="55.834270" lon="26.526381">
<ele>102.213928</ele>
<time>2010-07-18T13:44:17Z</time>
<desc>lat.=55.834270, lon.=26.526381, Alt.=102.213928m. Speed=34.164001m/h.</desc>
<speed>9.490000</speed>
</trkpt>
<trkpt lat="55.834358" lon="26.526384">
<ele>101.969788</ele>
<time>2010-07-18T13:44:18Z</time>
<desc>lat.=55.834358, lon.=26.526384, Alt.=101.969788m. Speed=34.487999m/h.</desc>
<speed>9.580000</speed>
</trkpt>
<trkpt lat="55.834442" lon="26.526382">
<ele>101.540100</ele>
<time>2010-07-18T13:44:19Z</time>
<desc>lat.=55.834442, lon.=26.526382, Alt.=101.540100m. Speed=34.091999m/h.</desc>
<speed>9.470000</speed>
</trkpt>
<trkpt lat="55.834530" lon="26.526382">
<ele>101.090881</ele>
<time>2010-07-18T13:44:20Z</time>
<desc>lat.=55.834530, lon.=26.526382, Alt.=101.090881m. Speed=35.208000m/h.</desc>
<speed>9.780000</speed>
</trkpt>
<trkpt lat="55.834618" lon="26.526384">
<ele>100.631897</ele>
<time>2010-07-18T13:44:21Z</time>
<desc>lat.=55.834618, lon.=26.526384, Alt.=100.631897m. Speed=34.776001m/h.</desc>
<speed>9.660000</speed>
</trkpt>
<trkpt lat="55.834705" lon="26.526388">
<ele>100.321350</ele>
<time>2010-07-18T13:44:22Z</time>
<desc>lat.=55.834705, lon.=26.526388, Alt.=100.321350m. Speed=36.035999m/h.</desc>
<speed>10.010000</speed>
</trkpt>
<trkpt lat="55.834797" lon="26.526394">
<ele>100.002991</ele>
<time>2010-07-18T13:44:23Z</time>
<desc>lat.=55.834797, lon.=26.526394, Alt.=100.002991m. Speed=36.360001m/h.</desc>
<speed>10.100000</speed>
</trkpt>
<trkpt lat="55.834888" lon="26.526402">
<ele>99.639709</ele>
<time>2010-07-18T13:44:24Z</time>
<desc>lat.=55.834888, lon.=26.526402, Alt.=99.639709m. Speed=37.043999m/h.</desc>
<speed>10.290000</speed>
</trkpt>
<trkpt lat="55.834980" lon="26.526405">
<ele>99.321350</ele>
<time>2010-07-18T13:44:25Z</time>
<desc>lat.=55.834980, lon.=26.526405, Alt.=99.321350m. Speed=37.116001m/h.</desc>
<speed>10.310000</speed>
</trkpt>
<trkpt lat="55.835075" lon="26.526413">
<ele>99.057678</ele>
<time>2010-07-18T13:44:26Z</time>
<desc>lat.=55.835075, lon.=26.526413, Alt.=99.057678m. Speed=38.627998m/h.</desc>
<speed>10.730000</speed>
</trkpt>
<trkpt lat="55.835171" lon="26.526419">
<ele>98.764709</ele>
<time>2010-07-18T13:44:27Z</time>
<desc>lat.=55.835171, lon.=26.526419, Alt.=98.764709m. Speed=38.015999m/h.</desc>
<speed>10.560000</speed>
</trkpt>
<trkpt lat="55.835262" lon="26.526426">
<ele>98.385803</ele>
<time>2010-07-18T13:44:28Z</time>
<desc>lat.=55.835262, lon.=26.526426, Alt.=98.385803m. Speed=37.332001m/h.</desc>
<speed>10.370000</speed>
</trkpt>
<trkpt lat="55.835346" lon="26.526421">
<ele>97.409241</ele>
<time>2010-07-18T13:44:29Z</time>
<desc>lat.=55.835346, lon.=26.526421, Alt.=97.409241m. Speed=38.015999m/h.</desc>
<speed>10.560000</speed>
</trkpt>
<trkpt lat="55.835442" lon="26.526424">
<ele>96.797913</ele>
<time>2010-07-18T13:44:30Z</time>
<desc>lat.=55.835442, lon.=26.526424, Alt.=96.797913m. Speed=38.124001m/h.</desc>
<speed>10.590000</speed>
</trkpt>
<trkpt lat="55.835537" lon="26.526426">
<ele>96.252991</ele>
<time>2010-07-18T13:44:31Z</time>
<desc>lat.=55.835537, lon.=26.526426, Alt.=96.252991m. Speed=38.520000m/h.</desc>
<speed>10.700000</speed>
</trkpt>
<trkpt lat="55.835636" lon="26.526428">
<ele>95.741272</ele>
<time>2010-07-18T13:44:32Z</time>
<desc>lat.=55.835636, lon.=26.526428, Alt.=95.741272m. Speed=38.700001m/h.</desc>
<speed>10.750000</speed>
</trkpt>
<trkpt lat="55.835735" lon="26.526436">
<ele>95.575256</ele>
<time>2010-07-18T13:44:33Z</time>
<desc>lat.=55.835735, lon.=26.526436, Alt.=95.575256m. Speed=39.348000m/h.</desc>
<speed>10.930000</speed>
</trkpt>
<trkpt lat="55.835838" lon="26.526449">
<ele>95.165100</ele>
<time>2010-07-18T13:44:34Z</time>
<desc>lat.=55.835838, lon.=26.526449, Alt.=95.165100m. Speed=39.419998m/h.</desc>
<speed>10.949999</speed>
</trkpt>
<trkpt lat="55.835941" lon="26.526463">
<ele>94.752991</ele>
<time>2010-07-18T13:44:35Z</time>
<desc>lat.=55.835941, lon.=26.526463, Alt.=94.752991m. Speed=39.383999m/h.</desc>
<speed>10.940000</speed>
</trkpt>
<trkpt lat="55.836044" lon="26.526463">
<ele>94.881897</ele>
<time>2010-07-18T13:44:36Z</time>
<desc>lat.=55.836044, lon.=26.526463, Alt.=94.881897m. Speed=39.240002m/h.</desc>
<speed>10.900000</speed>
</trkpt>
<trkpt lat="55.836143" lon="26.526470">
<ele>94.624084</ele>
<time>2010-07-18T13:44:37Z</time>
<desc>lat.=55.836143, lon.=26.526470, Alt.=94.624084m. Speed=39.167999m/h.</desc>
<speed>10.880000</speed>
</trkpt>
<trkpt lat="55.836243" lon="26.526478">
<ele>94.485413</ele>
<time>2010-07-18T13:44:38Z</time>
<desc>lat.=55.836243, lon.=26.526478, Alt.=94.485413m. Speed=38.807999m/h.</desc>
<speed>10.780000</speed>
</trkpt>
<trkpt lat="55.836338" lon="26.526489">
<ele>94.204163</ele>
<time>2010-07-18T13:44:39Z</time>
<desc>lat.=55.836338, lon.=26.526489, Alt.=94.204163m. Speed=38.411999m/h.</desc>
<speed>10.670000</speed>
</trkpt>
<trkpt lat="55.836433" lon="26.526497">
<ele>93.928772</ele>
<time>2010-07-18T13:44:40Z</time>
<desc>lat.=55.836433, lon.=26.526497, Alt.=93.928772m. Speed=38.051998m/h.</desc>
<speed>10.569999</speed>
</trkpt>
<trkpt lat="55.836536" lon="26.526505">
<ele>94.358459</ele>
<time>2010-07-18T13:44:41Z</time>
<desc>lat.=55.836536, lon.=26.526505, Alt.=94.358459m. Speed=37.908001m/h.</desc>
<speed>10.530000</speed>
</trkpt>
<trkpt lat="55.836628" lon="26.526508">
<ele>94.184631</ele>
<time>2010-07-18T13:44:42Z</time>
<desc>lat.=55.836628, lon.=26.526508, Alt.=94.184631m. Speed=37.584000m/h.</desc>
<speed>10.440000</speed>
</trkpt>
<trkpt lat="55.836723" lon="26.526514">
<ele>94.014709</ele>
<time>2010-07-18T13:44:43Z</time>
<desc>lat.=55.836723, lon.=26.526514, Alt.=94.014709m. Speed=37.152000m/h.</desc>
<speed>10.320000</speed>
</trkpt>
<trkpt lat="55.836815" lon="26.526518">
<ele>93.991272</ele>
<time>2010-07-18T13:44:44Z</time>
<desc>lat.=55.836815, lon.=26.526518, Alt.=93.991272m. Speed=36.612000m/h.</desc>
<speed>10.170000</speed>
</trkpt>
<trkpt lat="55.836906" lon="26.526524">
<ele>93.885803</ele>
<time>2010-07-18T13:44:45Z</time>
<desc>lat.=55.836906, lon.=26.526524, Alt.=93.885803m. Speed=36.108002m/h.</desc>
<speed>10.030000</speed>
</trkpt>
<trkpt lat="55.836994" lon="26.526525">
<ele>93.905334</ele>
<time>2010-07-18T13:44:46Z</time>
<desc>lat.=55.836994, lon.=26.526525, Alt.=93.905334m. Speed=35.675999m/h.</desc>
<speed>9.910000</speed>
</trkpt>
<trkpt lat="55.837082" lon="26.526529">
<ele>93.809631</ele>
<time>2010-07-18T13:44:47Z</time>
<desc>lat.=55.837082, lon.=26.526529, Alt.=93.809631m. Speed=35.279999m/h.</desc>
<speed>9.800000</speed>
</trkpt>
<trkpt lat="55.837173" lon="26.526533">
<ele>93.745178</ele>
<time>2010-07-18T13:44:48Z</time>
<desc>lat.=55.837173, lon.=26.526533, Alt.=93.745178m. Speed=34.919998m/h.</desc>
<speed>9.699999</speed>
</trkpt>
<trkpt lat="55.837261" lon="26.526535">
<ele>93.795959</ele>
<time>2010-07-18T13:44:49Z</time>
<desc>lat.=55.837261, lon.=26.526535, Alt.=93.795959m. Speed=34.703999m/h.</desc>
<speed>9.640000</speed>
</trkpt>
<trkpt lat="55.837349" lon="26.526539">
<ele>93.889709</ele>
<time>2010-07-18T13:44:50Z</time>
<desc>lat.=55.837349, lon.=26.526539, Alt.=93.889709m. Speed=34.380001m/h.</desc>
<speed>9.550000</speed>
</trkpt>
<trkpt lat="55.837437" lon="26.526545">
<ele>93.876038</ele>
<time>2010-07-18T13:44:51Z</time>
<desc>lat.=55.837437, lon.=26.526545, Alt.=93.876038m. Speed=34.164001m/h.</desc>
<speed>9.490000</speed>
</trkpt>
<trkpt lat="55.837521" lon="26.526543">
<ele>94.567444</ele>
<time>2010-07-18T13:44:52Z</time>
<desc>lat.=55.837521, lon.=26.526543, Alt.=94.567444m. Speed=33.804001m/h.</desc>
<speed>9.390000</speed>
</trkpt>
<trkpt lat="55.837605" lon="26.526541">
<ele>94.497131</ele>
<time>2010-07-18T13:44:53Z</time>
<desc>lat.=55.837605, lon.=26.526541, Alt.=94.497131m. Speed=33.335999m/h.</desc>
<speed>9.260000</speed>
</trkpt>
<trkpt lat="55.837685" lon="26.526545">
<ele>94.458069</ele>
<time>2010-07-18T13:44:54Z</time>
<desc>lat.=55.837685, lon.=26.526545, Alt.=94.458069m. Speed=32.616001m/h.</desc>
<speed>9.060000</speed>
</trkpt>
<trkpt lat="55.837769" lon="26.526552">
<ele>94.711975</ele>
<time>2010-07-18T13:44:55Z</time>
<desc>lat.=55.837769, lon.=26.526552, Alt.=94.711975m. Speed=32.256001m/h.</desc>
<speed>8.960000</speed>
</trkpt>
<trkpt lat="55.837849" lon="26.526554">
<ele>95.577209</ele>
<time>2010-07-18T13:44:56Z</time>
<desc>lat.=55.837849, lon.=26.526554, Alt.=95.577209m. Speed=31.752001m/h.</desc>
<speed>8.820000</speed>
</trkpt>
<trkpt lat="55.837929" lon="26.526554">
<ele>95.741272</ele>
<time>2010-07-18T13:44:57Z</time>
<desc>lat.=55.837929, lon.=26.526554, Alt.=95.741272m. Speed=31.212000m/h.</desc>
<speed>8.670000</speed>
</trkpt>
<trkpt lat="55.838005" lon="26.526560">
<ele>95.672913</ele>
<time>2010-07-18T13:44:58Z</time>
<desc>lat.=55.838005, lon.=26.526560, Alt.=95.672913m. Speed=30.708000m/h.</desc>
<speed>8.530000</speed>
</trkpt>
<trkpt lat="55.838081" lon="26.526564">
<ele>95.624084</ele>
<time>2010-07-18T13:44:59Z</time>
<desc>lat.=55.838081, lon.=26.526564, Alt.=95.624084m. Speed=30.204000m/h.</desc>
<speed>8.390000</speed>
</trkpt>
<trkpt lat="55.838158" lon="26.526564">
<ele>95.571350</ele>
<time>2010-07-18T13:45:00Z</time>
<desc>lat.=55.838158, lon.=26.526564, Alt.=95.571350m. Speed=30.348000m/h.</desc>
<speed>8.430000</speed>
</trkpt>
<trkpt lat="55.838234" lon="26.526566">
<ele>95.432678</ele>
<time>2010-07-18T13:45:01Z</time>
<desc>lat.=55.838234, lon.=26.526566, Alt.=95.432678m. Speed=30.420000m/h.</desc>
<speed>8.450000</speed>
</trkpt>
<trkpt lat="55.838310" lon="26.526564">
<ele>95.309631</ele>
<time>2010-07-18T13:45:02Z</time>
<desc>lat.=55.838310, lon.=26.526564, Alt.=95.309631m. Speed=30.240000m/h.</desc>
<speed>8.400000</speed>
</trkpt>
<trkpt lat="55.838383" lon="26.526562">
<ele>95.346741</ele>
<time>2010-07-18T13:45:03Z</time>
<desc>lat.=55.838383, lon.=26.526562, Alt.=95.346741m. Speed=29.844000m/h.</desc>
<speed>8.290000</speed>
</trkpt>
<trkpt lat="55.838459" lon="26.526562">
<ele>95.252991</ele>
<time>2010-07-18T13:45:04Z</time>
<desc>lat.=55.838459, lon.=26.526562, Alt.=95.252991m. Speed=29.664000m/h.</desc>
<speed>8.240000</speed>
</trkpt>
<trkpt lat="55.838531" lon="26.526569">
<ele>95.108459</ele>
<time>2010-07-18T13:45:05Z</time>
<desc>lat.=55.838531, lon.=26.526569, Alt.=95.108459m. Speed=29.988001m/h.</desc>
<speed>8.330000</speed>
</trkpt>
<trkpt lat="55.838612" lon="26.526573">
<ele>95.071350</ele>
<time>2010-07-18T13:45:06Z</time>
<desc>lat.=55.838612, lon.=26.526573, Alt.=95.071350m. Speed=30.455999m/h.</desc>
<speed>8.460000</speed>
</trkpt>
<trkpt lat="55.838688" lon="26.526571">
<ele>95.057678</ele>
<time>2010-07-18T13:45:07Z</time>
<desc>lat.=55.838688, lon.=26.526571, Alt.=95.057678m. Speed=30.420000m/h.</desc>
<speed>8.450000</speed>
</trkpt>
<trkpt lat="55.838760" lon="26.526569">
<ele>94.995178</ele>
<time>2010-07-18T13:45:08Z</time>
<desc>lat.=55.838760, lon.=26.526569, Alt.=94.995178m. Speed=29.952000m/h.</desc>
<speed>8.320000</speed>
</trkpt>
<trkpt lat="55.838837" lon="26.526569">
<ele>94.936584</ele>
<time>2010-07-18T13:45:09Z</time>
<desc>lat.=55.838837, lon.=26.526569, Alt.=94.936584m. Speed=29.448000m/h.</desc>
<speed>8.180000</speed>
</trkpt>
<trkpt lat="55.838909" lon="26.526567">
<ele>94.907288</ele>
<time>2010-07-18T13:45:10Z</time>
<desc>lat.=55.838909, lon.=26.526567, Alt.=94.907288m. Speed=29.016001m/h.</desc>
<speed>8.060000</speed>
</trkpt>
<trkpt lat="55.838982" lon="26.526564">
<ele>94.926819</ele>
<time>2010-07-18T13:45:11Z</time>
<desc>lat.=55.838982, lon.=26.526564, Alt.=94.926819m. Speed=28.691999m/h.</desc>
<speed>7.970000</speed>
</trkpt>
<trkpt lat="55.839050" lon="26.526554">
<ele>94.899475</ele>
<time>2010-07-18T13:45:12Z</time>
<desc>lat.=55.839050, lon.=26.526554, Alt.=94.899475m. Speed=28.403999m/h.</desc>
<speed>7.890000</speed>
</trkpt>
<trkpt lat="55.839123" lon="26.526545">
<ele>94.756897</ele>
<time>2010-07-18T13:45:13Z</time>
<desc>lat.=55.839123, lon.=26.526545, Alt.=94.756897m. Speed=28.403999m/h.</desc>
<speed>7.890000</speed>
</trkpt>
<trkpt lat="55.839191" lon="26.526527">
<ele>95.030334</ele>
<time>2010-07-18T13:45:14Z</time>
<desc>lat.=55.839191, lon.=26.526527, Alt.=95.030334m. Speed=28.548000m/h.</desc>
<speed>7.930000</speed>
</trkpt>
<trkpt lat="55.839264" lon="26.526514">
<ele>95.045959</ele>
<time>2010-07-18T13:45:15Z</time>
<desc>lat.=55.839264, lon.=26.526514, Alt.=95.045959m. Speed=29.052000m/h.</desc>
<speed>8.070000</speed>
</trkpt>
<trkpt lat="55.839336" lon="26.526506">
<ele>94.686584</ele>
<time>2010-07-18T13:45:16Z</time>
<desc>lat.=55.839336, lon.=26.526506, Alt.=94.686584m. Speed=29.087999m/h.</desc>
<speed>8.080000</speed>
</trkpt>
<trkpt lat="55.839409" lon="26.526499">
<ele>94.432678</ele>
<time>2010-07-18T13:45:17Z</time>
<desc>lat.=55.839409, lon.=26.526499, Alt.=94.432678m. Speed=29.448000m/h.</desc>
<speed>8.180000</speed>
</trkpt>
<trkpt lat="55.839481" lon="26.526491">
<ele>94.327209</ele>
<time>2010-07-18T13:45:18Z</time>
<desc>lat.=55.839481, lon.=26.526491, Alt.=94.327209m. Speed=29.736000m/h.</desc>
<speed>8.260000</speed>
</trkpt>
<trkpt lat="55.839558" lon="26.526480">
<ele>94.256897</ele>
<time>2010-07-18T13:45:19Z</time>
<desc>lat.=55.839558, lon.=26.526480, Alt.=94.256897m. Speed=29.916000m/h.</desc>
<speed>8.310000</speed>
</trkpt>
<trkpt lat="55.839630" lon="26.526470">
<ele>94.098694</ele>
<time>2010-07-18T13:45:20Z</time>
<desc>lat.=55.839630, lon.=26.526470, Alt.=94.098694m. Speed=30.132000m/h.</desc>
<speed>8.370000</speed>
</trkpt>
<trkpt lat="55.839706" lon="26.526459">
<ele>93.876038</ele>
<time>2010-07-18T13:45:21Z</time>
<desc>lat.=55.839706, lon.=26.526459, Alt.=93.876038m. Speed=30.348000m/h.</desc>
<speed>8.430000</speed>
</trkpt>
<trkpt lat="55.839779" lon="26.526453">
<ele>93.684631</ele>
<time>2010-07-18T13:45:22Z</time>
<desc>lat.=55.839779, lon.=26.526453, Alt.=93.684631m. Speed=30.528000m/h.</desc>
<speed>8.480000</speed>
</trkpt>
<trkpt lat="55.839855" lon="26.526440">
<ele>93.561584</ele>
<time>2010-07-18T13:45:23Z</time>
<desc>lat.=55.839855, lon.=26.526440, Alt.=93.561584m. Speed=30.167999m/h.</desc>
<speed>8.380000</speed>
</trkpt>
<trkpt lat="55.839931" lon="26.526424">
<ele>93.585022</ele>
<time>2010-07-18T13:45:24Z</time>
<desc>lat.=55.839931, lon.=26.526424, Alt.=93.585022m. Speed=30.024000m/h.</desc>
<speed>8.340000</speed>
</trkpt>
<trkpt lat="55.840004" lon="26.526409">
<ele>93.354553</ele>
<time>2010-07-18T13:45:25Z</time>
<desc>lat.=55.840004, lon.=26.526409, Alt.=93.354553m. Speed=29.628000m/h.</desc>
<speed>8.230000</speed>
</trkpt>
<trkpt lat="55.840076" lon="26.526394">
<ele>93.274475</ele>
<time>2010-07-18T13:45:26Z</time>
<desc>lat.=55.840076, lon.=26.526394, Alt.=93.274475m. Speed=29.268000m/h.</desc>
<speed>8.130000</speed>
</trkpt>
<trkpt lat="55.840149" lon="26.526381">
<ele>93.204163</ele>
<time>2010-07-18T13:45:27Z</time>
<desc>lat.=55.840149, lon.=26.526381, Alt.=93.204163m. Speed=28.799999m/h.</desc>
<speed>8.000000</speed>
</trkpt>
<trkpt lat="55.840221" lon="26.526369">
<ele>93.135803</ele>
<time>2010-07-18T13:45:28Z</time>
<desc>lat.=55.840221, lon.=26.526369, Alt.=93.135803m. Speed=28.332001m/h.</desc>
<speed>7.870000</speed>
</trkpt>
<trkpt lat="55.840290" lon="26.526356">
<ele>93.020569</ele>
<time>2010-07-18T13:45:29Z</time>
<desc>lat.=55.840290, lon.=26.526356, Alt.=93.020569m. Speed=27.684000m/h.</desc>
<speed>7.690000</speed>
</trkpt>
<trkpt lat="55.840355" lon="26.526342">
<ele>93.012756</ele>
<time>2010-07-18T13:45:30Z</time>
<desc>lat.=55.840355, lon.=26.526342, Alt.=93.012756m. Speed=27.252001m/h.</desc>
<speed>7.570000</speed>
</trkpt>
<trkpt lat="55.840424" lon="26.526327">
<ele>93.012756</ele>
<time>2010-07-18T13:45:31Z</time>
<desc>lat.=55.840424, lon.=26.526327, Alt.=93.012756m. Speed=26.820000m/h.</desc>
<speed>7.450000</speed>
</trkpt>
<trkpt lat="55.840488" lon="26.526310">
<ele>93.030334</ele>
<time>2010-07-18T13:45:32Z</time>
<desc>lat.=55.840488, lon.=26.526310, Alt.=93.030334m. Speed=26.496000m/h.</desc>
<speed>7.360000</speed>
</trkpt>
<trkpt lat="55.840553" lon="26.526293">
<ele>92.983459</ele>
<time>2010-07-18T13:45:33Z</time>
<desc>lat.=55.840553, lon.=26.526293, Alt.=92.983459m. Speed=26.172001m/h.</desc>
<speed>7.270000</speed>
</trkpt>
<trkpt lat="55.840614" lon="26.526278">
<ele>92.823303</ele>
<time>2010-07-18T13:45:34Z</time>
<desc>lat.=55.840614, lon.=26.526278, Alt.=92.823303m. Speed=25.704000m/h.</desc>
<speed>7.140000</speed>
</trkpt>
<trkpt lat="55.840675" lon="26.526258">
<ele>92.950256</ele>
<time>2010-07-18T13:45:35Z</time>
<desc>lat.=55.840675, lon.=26.526258, Alt.=92.950256m. Speed=25.091999m/h.</desc>
<speed>6.970000</speed>
</trkpt>
<trkpt lat="55.840733" lon="26.526241">
<ele>92.692444</ele>
<time>2010-07-18T13:45:36Z</time>
<desc>lat.=55.840733, lon.=26.526241, Alt.=92.692444m. Speed=25.344000m/h.</desc>
<speed>7.040000</speed>
</trkpt>
<trkpt lat="55.840794" lon="26.526224">
<ele>92.524475</ele>
<time>2010-07-18T13:45:37Z</time>
<desc>lat.=55.840794, lon.=26.526224, Alt.=92.524475m. Speed=25.632000m/h.</desc>
<speed>7.120000</speed>
</trkpt>
<trkpt lat="55.840858" lon="26.526207">
<ele>92.348694</ele>
<time>2010-07-18T13:45:38Z</time>
<desc>lat.=55.840858, lon.=26.526207, Alt.=92.348694m. Speed=25.884001m/h.</desc>
<speed>7.190000</speed>
</trkpt>
<trkpt lat="55.840923" lon="26.526188">
<ele>92.340881</ele>
<time>2010-07-18T13:45:39Z</time>
<desc>lat.=55.840923, lon.=26.526188, Alt.=92.340881m. Speed=26.136000m/h.</desc>
<speed>7.260000</speed>
</trkpt>
<trkpt lat="55.840988" lon="26.526173">
<ele>92.483459</ele>
<time>2010-07-18T13:45:40Z</time>
<desc>lat.=55.840988, lon.=26.526173, Alt.=92.483459m. Speed=26.280001m/h.</desc>
<speed>7.300000</speed>
</trkpt>
<trkpt lat="55.841053" lon="26.526154">
<ele>92.741272</ele>
<time>2010-07-18T13:45:41Z</time>
<desc>lat.=55.841053, lon.=26.526154, Alt.=92.741272m. Speed=26.712000m/h.</desc>
<speed>7.420000</speed>
</trkpt>
<trkpt lat="55.841122" lon="26.526134">
<ele>92.737366</ele>
<time>2010-07-18T13:45:42Z</time>
<desc>lat.=55.841122, lon.=26.526134, Alt.=92.737366m. Speed=26.496000m/h.</desc>
<speed>7.360000</speed>
</trkpt>
<trkpt lat="55.841183" lon="26.526117">
<ele>92.565491</ele>
<time>2010-07-18T13:45:43Z</time>
<desc>lat.=55.841183, lon.=26.526117, Alt.=92.565491m. Speed=26.136000m/h.</desc>
<speed>7.260000</speed>
</trkpt>
<trkpt lat="55.841248" lon="26.526100">
<ele>92.444397</ele>
<time>2010-07-18T13:45:44Z</time>
<desc>lat.=55.841248, lon.=26.526100, Alt.=92.444397m. Speed=25.667999m/h.</desc>
<speed>7.130000</speed>
</trkpt>
<trkpt lat="55.841309" lon="26.526081">
<ele>92.274475</ele>
<time>2010-07-18T13:45:45Z</time>
<desc>lat.=55.841309, lon.=26.526081, Alt.=92.274475m. Speed=25.452000m/h.</desc>
<speed>7.070000</speed>
</trkpt>
<trkpt lat="55.841370" lon="26.526060">
<ele>92.397522</ele>
<time>2010-07-18T13:45:46Z</time>
<desc>lat.=55.841370, lon.=26.526060, Alt.=92.397522m. Speed=24.912001m/h.</desc>
<speed>6.920000</speed>
</trkpt>
<trkpt lat="55.841431" lon="26.526031">
<ele>92.545959</ele>
<time>2010-07-18T13:45:47Z</time>
<desc>lat.=55.841431, lon.=26.526031, Alt.=92.545959m. Speed=25.200001m/h.</desc>
<speed>7.000000</speed>
</trkpt>
<trkpt lat="55.841492" lon="26.526009">
<ele>92.665100</ele>
<time>2010-07-18T13:45:48Z</time>
<desc>lat.=55.841492, lon.=26.526009, Alt.=92.665100m. Speed=25.308001m/h.</desc>
<speed>7.030000</speed>
</trkpt>
<trkpt lat="55.841553" lon="26.525988">
<ele>92.735413</ele>
<time>2010-07-18T13:45:49Z</time>
<desc>lat.=55.841553, lon.=26.525988, Alt.=92.735413m. Speed=25.488001m/h.</desc>
<speed>7.080000</speed>
</trkpt>
<trkpt lat="55.841618" lon="26.525963">
<ele>92.821350</ele>
<time>2010-07-18T13:45:50Z</time>
<desc>lat.=55.841618, lon.=26.525963, Alt.=92.821350m. Speed=26.100000m/h.</desc>
<speed>7.250000</speed>
</trkpt>
<trkpt lat="55.841679" lon="26.525938">
<ele>92.932678</ele>
<time>2010-07-18T13:45:51Z</time>
<desc>lat.=55.841679, lon.=26.525938, Alt.=92.932678m. Speed=25.344000m/h.</desc>
<speed>7.040000</speed>
</trkpt>
<trkpt lat="55.841740" lon="26.525915">
<ele>92.924866</ele>
<time>2010-07-18T13:45:52Z</time>
<desc>lat.=55.841740, lon.=26.525915, Alt.=92.924866m. Speed=25.452000m/h.</desc>
<speed>7.070000</speed>
</trkpt>
<trkpt lat="55.841805" lon="26.525896">
<ele>92.928772</ele>
<time>2010-07-18T13:45:53Z</time>
<desc>lat.=55.841805, lon.=26.525896, Alt.=92.928772m. Speed=25.775999m/h.</desc>
<speed>7.160000</speed>
</trkpt>
<trkpt lat="55.841869" lon="26.525873">
<ele>92.833069</ele>
<time>2010-07-18T13:45:54Z</time>
<desc>lat.=55.841869, lon.=26.525873, Alt.=92.833069m. Speed=26.063999m/h.</desc>
<speed>7.240000</speed>
</trkpt>
<trkpt lat="55.841934" lon="26.525854">
<ele>92.848694</ele>
<time>2010-07-18T13:45:55Z</time>
<desc>lat.=55.841934, lon.=26.525854, Alt.=92.848694m. Speed=26.532000m/h.</desc>
<speed>7.370000</speed>
</trkpt>
<trkpt lat="55.841999" lon="26.525829">
<ele>92.919006</ele>
<time>2010-07-18T13:45:56Z</time>
<desc>lat.=55.841999, lon.=26.525829, Alt.=92.919006m. Speed=26.568001m/h.</desc>
<speed>7.380000</speed>
</trkpt>
<trkpt lat="55.842064" lon="26.525805">
<ele>93.110413</ele>
<time>2010-07-18T13:45:57Z</time>
<desc>lat.=55.842064, lon.=26.525805, Alt.=93.110413m. Speed=26.351999m/h.</desc>
<speed>7.320000</speed>
</trkpt>
<trkpt lat="55.842125" lon="26.525784">
<ele>93.198303</ele>
<time>2010-07-18T13:45:58Z</time>
<desc>lat.=55.842125, lon.=26.525784, Alt.=93.198303m. Speed=26.280001m/h.</desc>
<speed>7.300000</speed>
</trkpt>
<trkpt lat="55.842186" lon="26.525763">
<ele>93.180725</ele>
<time>2010-07-18T13:45:59Z</time>
<desc>lat.=55.842186, lon.=26.525763, Alt.=93.180725m. Speed=26.712000m/h.</desc>
<speed>7.420000</speed>
</trkpt>
<trkpt lat="55.842251" lon="26.525740">
<ele>93.129944</ele>
<time>2010-07-18T13:46:00Z</time>
<desc>lat.=55.842251, lon.=26.525740, Alt.=93.129944m. Speed=26.856001m/h.</desc>
<speed>7.460000</speed>
</trkpt>
<trkpt lat="55.842316" lon="26.525711">
<ele>93.397522</ele>
<time>2010-07-18T13:46:01Z</time>
<desc>lat.=55.842316, lon.=26.525711, Alt.=93.397522m. Speed=26.568001m/h.</desc>
<speed>7.380000</speed>
</trkpt>
<trkpt lat="55.842377" lon="26.525681">
<ele>93.491272</ele>
<time>2010-07-18T13:46:02Z</time>
<desc>lat.=55.842377, lon.=26.525681, Alt.=93.491272m. Speed=26.280001m/h.</desc>
<speed>7.300000</speed>
</trkpt>
<trkpt lat="55.842442" lon="26.525658">
<ele>93.461975</ele>
<time>2010-07-18T13:46:03Z</time>
<desc>lat.=55.842442, lon.=26.525658, Alt.=93.461975m. Speed=25.920000m/h.</desc>
<speed>7.200000</speed>
</trkpt>
<trkpt lat="55.842506" lon="26.525627">
<ele>93.487366</ele>
<time>2010-07-18T13:46:04Z</time>
<desc>lat.=55.842506, lon.=26.525627, Alt.=93.487366m. Speed=25.596001m/h.</desc>
<speed>7.110000</speed>
</trkpt>
<trkpt lat="55.842567" lon="26.525599">
<ele>93.661194</ele>
<time>2010-07-18T13:46:05Z</time>
<desc>lat.=55.842567, lon.=26.525599, Alt.=93.661194m. Speed=26.028000m/h.</desc>
<speed>7.230000</speed>
</trkpt>
<trkpt lat="55.842632" lon="26.525572">
<ele>93.741272</ele>
<time>2010-07-18T13:46:06Z</time>
<desc>lat.=55.842632, lon.=26.525572, Alt.=93.741272m. Speed=26.604000m/h.</desc>
<speed>7.390000</speed>
</trkpt>
<trkpt lat="55.842697" lon="26.525543">
<ele>93.811584</ele>
<time>2010-07-18T13:46:07Z</time>
<desc>lat.=55.842697, lon.=26.525543, Alt.=93.811584m. Speed=27.180000m/h.</desc>
<speed>7.550000</speed>
</trkpt>
<trkpt lat="55.842766" lon="26.525515">
<ele>93.698303</ele>
<time>2010-07-18T13:46:08Z</time>
<desc>lat.=55.842766, lon.=26.525515, Alt.=93.698303m. Speed=27.540001m/h.</desc>
<speed>7.650000</speed>
</trkpt>
<trkpt lat="55.842831" lon="26.525478">
<ele>93.866272</ele>
<time>2010-07-18T13:46:09Z</time>
<desc>lat.=55.842831, lon.=26.525478, Alt.=93.866272m. Speed=28.224001m/h.</desc>
<speed>7.840000</speed>
</trkpt>
<trkpt lat="55.842899" lon="26.525446">
<ele>93.889709</ele>
<time>2010-07-18T13:46:10Z</time>
<desc>lat.=55.842899, lon.=26.525446, Alt.=93.889709m. Speed=27.756001m/h.</desc>
<speed>7.710000</speed>
</trkpt>
<trkpt lat="55.842968" lon="26.525415">
<ele>93.979553</ele>
<time>2010-07-18T13:46:11Z</time>
<desc>lat.=55.842968, lon.=26.525415, Alt.=93.979553m. Speed=27.396000m/h.</desc>
<speed>7.610000</speed>
</trkpt>
<trkpt lat="55.843037" lon="26.525383">
<ele>94.202209</ele>
<time>2010-07-18T13:46:12Z</time>
<desc>lat.=55.843037, lon.=26.525383, Alt.=94.202209m. Speed=26.856001m/h.</desc>
<speed>7.460000</speed>
</trkpt>
<trkpt lat="55.843098" lon="26.525351">
<ele>94.286194</ele>
<time>2010-07-18T13:46:13Z</time>
<desc>lat.=55.843098, lon.=26.525351, Alt.=94.286194m. Speed=26.532000m/h.</desc>
<speed>7.370000</speed>
</trkpt>
<trkpt lat="55.843166" lon="26.525318">
<ele>94.321350</ele>
<time>2010-07-18T13:46:14Z</time>
<desc>lat.=55.843166, lon.=26.525318, Alt.=94.321350m. Speed=26.208000m/h.</desc>
<speed>7.280000</speed>
</trkpt>
<trkpt lat="55.843231" lon="26.525288">
<ele>94.397522</ele>
<time>2010-07-18T13:46:15Z</time>
<desc>lat.=55.843231, lon.=26.525288, Alt.=94.397522m. Speed=25.704000m/h.</desc>
<speed>7.140000</speed>
</trkpt>
<trkpt lat="55.843292" lon="26.525255">
<ele>94.424866</ele>
<time>2010-07-18T13:46:16Z</time>
<desc>lat.=55.843292, lon.=26.525255, Alt.=94.424866m. Speed=25.379999m/h.</desc>
<speed>7.050000</speed>
</trkpt>
<trkpt lat="55.843353" lon="26.525221">
<ele>94.497131</ele>
<time>2010-07-18T13:46:17Z</time>
<desc>lat.=55.843353, lon.=26.525221, Alt.=94.497131m. Speed=25.271999m/h.</desc>
<speed>7.020000</speed>
</trkpt>
<trkpt lat="55.843410" lon="26.525187">
<ele>94.624084</ele>
<time>2010-07-18T13:46:18Z</time>
<desc>lat.=55.843410, lon.=26.525187, Alt.=94.624084m. Speed=24.695999m/h.</desc>
<speed>6.860000</speed>
</trkpt>
<trkpt lat="55.843468" lon="26.525150">
<ele>94.596741</ele>
<time>2010-07-18T13:46:19Z</time>
<desc>lat.=55.843468, lon.=26.525150, Alt.=94.596741m. Speed=24.191999m/h.</desc>
<speed>6.720000</speed>
</trkpt>
<trkpt lat="55.843529" lon="26.525118">
<ele>94.877991</ele>
<time>2010-07-18T13:46:20Z</time>
<desc>lat.=55.843529, lon.=26.525118, Alt.=94.877991m. Speed=23.652000m/h.</desc>
<speed>6.570000</speed>
</trkpt>
<trkpt lat="55.843586" lon="26.525085">
<ele>94.928772</ele>
<time>2010-07-18T13:46:21Z</time>
<desc>lat.=55.843586, lon.=26.525085, Alt.=94.928772m. Speed=23.436001m/h.</desc>
<speed>6.510000</speed>
</trkpt>
<trkpt lat="55.843639" lon="26.525057">
<ele>95.024475</ele>
<time>2010-07-18T13:46:22Z</time>
<desc>lat.=55.843639, lon.=26.525057, Alt.=95.024475m. Speed=23.184000m/h.</desc>
<speed>6.440000</speed>
</trkpt>
<trkpt lat="55.843693" lon="26.525023">
<ele>94.971741</ele>
<time>2010-07-18T13:46:23Z</time>
<desc>lat.=55.843693, lon.=26.525023, Alt.=94.971741m. Speed=23.256001m/h.</desc>
<speed>6.460000</speed>
</trkpt>
<trkpt lat="55.843750" lon="26.524984">
<ele>94.909241</ele>
<time>2010-07-18T13:46:24Z</time>
<desc>lat.=55.843750, lon.=26.524984, Alt.=94.909241m. Speed=24.011999m/h.</desc>
<speed>6.670000</speed>
</trkpt>
<trkpt lat="55.843807" lon="26.524948">
<ele>95.202209</ele>
<time>2010-07-18T13:46:25Z</time>
<desc>lat.=55.843807, lon.=26.524948, Alt.=95.202209m. Speed=24.264000m/h.</desc>
<speed>6.740000</speed>
</trkpt>
<trkpt lat="55.843864" lon="26.524914">
<ele>95.506897</ele>
<time>2010-07-18T13:46:26Z</time>
<desc>lat.=55.843864, lon.=26.524914, Alt.=95.506897m. Speed=25.020000m/h.</desc>
<speed>6.950000</speed>
</trkpt>
<trkpt lat="55.843925" lon="26.524879">
<ele>95.751038</ele>
<time>2010-07-18T13:46:27Z</time>
<desc>lat.=55.843925, lon.=26.524879, Alt.=95.751038m. Speed=25.236000m/h.</desc>
<speed>7.010000</speed>
</trkpt>
<trkpt lat="55.843983" lon="26.524836">
<ele>95.815491</ele>
<time>2010-07-18T13:46:28Z</time>
<desc>lat.=55.843983, lon.=26.524836, Alt.=95.815491m. Speed=25.271999m/h.</desc>
<speed>7.020000</speed>
</trkpt>
<trkpt lat="55.844036" lon="26.524797">
<ele>95.036194</ele>
<time>2010-07-18T13:46:29Z</time>
<desc>lat.=55.844036, lon.=26.524797, Alt.=95.036194m. Speed=23.688000m/h.</desc>
<speed>6.580000</speed>
</trkpt>
<trkpt lat="55.844090" lon="26.524759">
<ele>94.305725</ele>
<time>2010-07-18T13:46:30Z</time>
<desc>lat.=55.844090, lon.=26.524759, Alt.=94.305725m. Speed=23.903999m/h.</desc>
<speed>6.640000</speed>
</trkpt>
<trkpt lat="55.844143" lon="26.524725">
<ele>94.243225</ele>
<time>2010-07-18T13:46:31Z</time>
<desc>lat.=55.844143, lon.=26.524725, Alt.=94.243225m. Speed=23.544001m/h.</desc>
<speed>6.540000</speed>
</trkpt>
<trkpt lat="55.844196" lon="26.524687">
<ele>94.518616</ele>
<time>2010-07-18T13:46:32Z</time>
<desc>lat.=55.844196, lon.=26.524687, Alt.=94.518616m. Speed=23.472000m/h.</desc>
<speed>6.520000</speed>
</trkpt>
<trkpt lat="55.844254" lon="26.524651">
<ele>94.434631</ele>
<time>2010-07-18T13:46:33Z</time>
<desc>lat.=55.844254, lon.=26.524651, Alt.=94.434631m. Speed=23.148001m/h.</desc>
<speed>6.430000</speed>
</trkpt>
<trkpt lat="55.844311" lon="26.524614">
<ele>95.356506</ele>
<time>2010-07-18T13:46:34Z</time>
<desc>lat.=55.844311, lon.=26.524614, Alt.=95.356506m. Speed=23.472000m/h.</desc>
<speed>6.520000</speed>
</trkpt>
<trkpt lat="55.844364" lon="26.524578">
<ele>95.272522</ele>
<time>2010-07-18T13:46:35Z</time>
<desc>lat.=55.844364, lon.=26.524578, Alt.=95.272522m. Speed=22.643999m/h.</desc>
<speed>6.290000</speed>
</trkpt>
<trkpt lat="55.844418" lon="26.524540">
<ele>95.217834</ele>
<time>2010-07-18T13:46:36Z</time>
<desc>lat.=55.844418, lon.=26.524540, Alt.=95.217834m. Speed=23.004000m/h.</desc>
<speed>6.390000</speed>
</trkpt>
<trkpt lat="55.844471" lon="26.524506">
<ele>95.114319</ele>
<time>2010-07-18T13:46:37Z</time>
<desc>lat.=55.844471, lon.=26.524506, Alt.=95.114319m. Speed=23.184000m/h.</desc>
<speed>6.440000</speed>
</trkpt>
<trkpt lat="55.844524" lon="26.524469">
<ele>95.104553</ele>
<time>2010-07-18T13:46:38Z</time>
<desc>lat.=55.844524, lon.=26.524469, Alt.=95.104553m. Speed=23.580000m/h.</desc>
<speed>6.550000</speed>
</trkpt>
<trkpt lat="55.844578" lon="26.524431">
<ele>95.260803</ele>
<time>2010-07-18T13:46:39Z</time>
<desc>lat.=55.844578, lon.=26.524431, Alt.=95.260803m. Speed=23.652000m/h.</desc>
<speed>6.570000</speed>
</trkpt>
<trkpt lat="55.844631" lon="26.524391">
<ele>95.305725</ele>
<time>2010-07-18T13:46:40Z</time>
<desc>lat.=55.844631, lon.=26.524391, Alt.=95.305725m. Speed=23.544001m/h.</desc>
<speed>6.540000</speed>
</trkpt>
<trkpt lat="55.844688" lon="26.524353">
<ele>95.231506</ele>
<time>2010-07-18T13:46:41Z</time>
<desc>lat.=55.844688, lon.=26.524353, Alt.=95.231506m. Speed=23.256001m/h.</desc>
<speed>6.460000</speed>
</trkpt>
<trkpt lat="55.844742" lon="26.524319">
<ele>95.008850</ele>
<time>2010-07-18T13:46:42Z</time>
<desc>lat.=55.844742, lon.=26.524319, Alt.=95.008850m. Speed=22.680000m/h.</desc>
<speed>6.300000</speed>
</trkpt>
<trkpt lat="55.844795" lon="26.524286">
<ele>95.114319</ele>
<time>2010-07-18T13:46:43Z</time>
<desc>lat.=55.844795, lon.=26.524286, Alt.=95.114319m. Speed=22.427999m/h.</desc>
<speed>6.230000</speed>
</trkpt>
<trkpt lat="55.844849" lon="26.524254">
<ele>95.006897</ele>
<time>2010-07-18T13:46:44Z</time>
<desc>lat.=55.844849, lon.=26.524254, Alt.=95.006897m. Speed=22.104000m/h.</desc>
<speed>6.140000</speed>
</trkpt>
<trkpt lat="55.844906" lon="26.524220">
<ele>95.198303</ele>
<time>2010-07-18T13:46:45Z</time>
<desc>lat.=55.844906, lon.=26.524220, Alt.=95.198303m. Speed=21.780001m/h.</desc>
<speed>6.050000</speed>
</trkpt>
<trkpt lat="55.844955" lon="26.524181">
<ele>95.665100</ele>
<time>2010-07-18T13:46:46Z</time>
<desc>lat.=55.844955, lon.=26.524181, Alt.=95.665100m. Speed=21.780001m/h.</desc>
<speed>6.050000</speed>
</trkpt>
<trkpt lat="55.845009" lon="26.524149">
<ele>95.821350</ele>
<time>2010-07-18T13:46:47Z</time>
<desc>lat.=55.845009, lon.=26.524149, Alt.=95.821350m. Speed=21.132000m/h.</desc>
<speed>5.870000</speed>
</trkpt>
<trkpt lat="55.845058" lon="26.524111">
<ele>96.032288</ele>
<time>2010-07-18T13:46:48Z</time>
<desc>lat.=55.845058, lon.=26.524111, Alt.=96.032288m. Speed=20.483999m/h.</desc>
<speed>5.690000</speed>
</trkpt>
<trkpt lat="55.845108" lon="26.524076">
<ele>96.504944</ele>
<time>2010-07-18T13:46:49Z</time>
<desc>lat.=55.845108, lon.=26.524076, Alt.=96.504944m. Speed=19.944000m/h.</desc>
<speed>5.540000</speed>
</trkpt>
<trkpt lat="55.845150" lon="26.524040">
<ele>96.504944</ele>
<time>2010-07-18T13:46:50Z</time>
<desc>lat.=55.845150, lon.=26.524040, Alt.=96.504944m. Speed=19.260000m/h.</desc>
<speed>5.350000</speed>
</trkpt>
<trkpt lat="55.845196" lon="26.524004">
<ele>96.655334</ele>
<time>2010-07-18T13:46:51Z</time>
<desc>lat.=55.845196, lon.=26.524004, Alt.=96.655334m. Speed=19.152000m/h.</desc>
<speed>5.320000</speed>
</trkpt>
<trkpt lat="55.845242" lon="26.523977">
<ele>96.590881</ele>
<time>2010-07-18T13:46:52Z</time>
<desc>lat.=55.845242, lon.=26.523977, Alt.=96.590881m. Speed=19.044001m/h.</desc>
<speed>5.290000</speed>
</trkpt>
<trkpt lat="55.845284" lon="26.523945">
<ele>96.768616</ele>
<time>2010-07-18T13:46:53Z</time>
<desc>lat.=55.845284, lon.=26.523945, Alt.=96.768616m. Speed=18.864000m/h.</desc>
<speed>5.240000</speed>
</trkpt>
<trkpt lat="55.845325" lon="26.523911">
<ele>96.752991</ele>
<time>2010-07-18T13:46:54Z</time>
<desc>lat.=55.845325, lon.=26.523911, Alt.=96.752991m. Speed=19.044001m/h.</desc>
<speed>5.290000</speed>
</trkpt>
<trkpt lat="55.845371" lon="26.523878">
<ele>96.499084</ele>
<time>2010-07-18T13:46:55Z</time>
<desc>lat.=55.845371, lon.=26.523878, Alt.=96.499084m. Speed=19.691999m/h.</desc>
<speed>5.470000</speed>
</trkpt>
<trkpt lat="55.845417" lon="26.523846">
<ele>96.397522</ele>
<time>2010-07-18T13:46:56Z</time>
<desc>lat.=55.845417, lon.=26.523846, Alt.=96.397522m. Speed=19.188000m/h.</desc>
<speed>5.330000</speed>
</trkpt>
<trkpt lat="55.845459" lon="26.523813">
<ele>96.196350</ele>
<time>2010-07-18T13:46:57Z</time>
<desc>lat.=55.845459, lon.=26.523813, Alt.=96.196350m. Speed=18.936001m/h.</desc>
<speed>5.260000</speed>
</trkpt>
<trkpt lat="55.845505" lon="26.523769">
<ele>96.967834</ele>
<time>2010-07-18T13:46:58Z</time>
<desc>lat.=55.845505, lon.=26.523769, Alt.=96.967834m. Speed=18.792000m/h.</desc>
<speed>5.220000</speed>
</trkpt>
<trkpt lat="55.845547" lon="26.523735">
<ele>97.169006</ele>
<time>2010-07-18T13:46:59Z</time>
<desc>lat.=55.845547, lon.=26.523735, Alt.=97.169006m. Speed=18.180000m/h.</desc>
<speed>5.050000</speed>
</trkpt>
<trkpt lat="55.845589" lon="26.523706">
<ele>96.903381</ele>
<time>2010-07-18T13:47:00Z</time>
<desc>lat.=55.845589, lon.=26.523706, Alt.=96.903381m. Speed=17.784000m/h.</desc>
<speed>4.940000</speed>
</trkpt>
<trkpt lat="55.845627" lon="26.523678">
<ele>96.491272</ele>
<time>2010-07-18T13:47:01Z</time>
<desc>lat.=55.845627, lon.=26.523678, Alt.=96.491272m. Speed=19.080000m/h.</desc>
<speed>5.300000</speed>
</trkpt>
<trkpt lat="55.845669" lon="26.523645">
<ele>96.274475</ele>
<time>2010-07-18T13:47:02Z</time>
<desc>lat.=55.845669, lon.=26.523645, Alt.=96.274475m. Speed=18.719999m/h.</desc>
<speed>5.200000</speed>
</trkpt>
<trkpt lat="55.845711" lon="26.523613">
<ele>96.100647</ele>
<time>2010-07-18T13:47:03Z</time>
<desc>lat.=55.845711, lon.=26.523613, Alt.=96.100647m. Speed=17.459999m/h.</desc>
<speed>4.850000</speed>
</trkpt>
<trkpt lat="55.845749" lon="26.523581">
<ele>96.034241</ele>
<time>2010-07-18T13:47:04Z</time>
<desc>lat.=55.845749, lon.=26.523581, Alt.=96.034241m. Speed=16.379999m/h.</desc>
<speed>4.550000</speed>
</trkpt>
<trkpt lat="55.845787" lon="26.523550">
<ele>95.864319</ele>
<time>2010-07-18T13:47:05Z</time>
<desc>lat.=55.845787, lon.=26.523550, Alt.=95.864319m. Speed=17.172001m/h.</desc>
<speed>4.770000</speed>
</trkpt>
<trkpt lat="55.845825" lon="26.523514">
<ele>95.985413</ele>
<time>2010-07-18T13:47:06Z</time>
<desc>lat.=55.845825, lon.=26.523514, Alt.=95.985413m. Speed=16.740000m/h.</desc>
<speed>4.650000</speed>
</trkpt>
<trkpt lat="55.845863" lon="26.523481">
<ele>95.846741</ele>
<time>2010-07-18T13:47:07Z</time>
<desc>lat.=55.845863, lon.=26.523481, Alt.=95.846741m. Speed=16.488001m/h.</desc>
<speed>4.580000</speed>
</trkpt>
<trkpt lat="55.845898" lon="26.523457">
<ele>95.592834</ele>
<time>2010-07-18T13:47:08Z</time>
<desc>lat.=55.845898, lon.=26.523457, Alt.=95.592834m. Speed=15.912000m/h.</desc>
<speed>4.420000</speed>
</trkpt>
<trkpt lat="55.845932" lon="26.523432">
<ele>95.606506</ele>
<time>2010-07-18T13:47:09Z</time>
<desc>lat.=55.845932, lon.=26.523432, Alt.=95.606506m. Speed=15.768000m/h.</desc>
<speed>4.380000</speed>
</trkpt>
<trkpt lat="55.845970" lon="26.523401">
<ele>95.598694</ele>
<time>2010-07-18T13:47:10Z</time>
<desc>lat.=55.845970, lon.=26.523401, Alt.=95.598694m. Speed=15.516000m/h.</desc>
<speed>4.310000</speed>
</trkpt>
<trkpt lat="55.846004" lon="26.523375">
<ele>95.583069</ele>
<time>2010-07-18T13:47:11Z</time>
<desc>lat.=55.846004, lon.=26.523375, Alt.=95.583069m. Speed=15.912000m/h.</desc>
<speed>4.420000</speed>
</trkpt>
<trkpt lat="55.846039" lon="26.523350">
<ele>95.381897</ele>
<time>2010-07-18T13:47:12Z</time>
<desc>lat.=55.846039, lon.=26.523350, Alt.=95.381897m. Speed=15.912000m/h.</desc>
<speed>4.420000</speed>
</trkpt>
<trkpt lat="55.846073" lon="26.523329">
<ele>95.362366</ele>
<time>2010-07-18T13:47:13Z</time>
<desc>lat.=55.846073, lon.=26.523329, Alt.=95.362366m. Speed=17.316000m/h.</desc>
<speed>4.810000</speed>
</trkpt>
<trkpt lat="55.846111" lon="26.523302">
<ele>95.561584</ele>
<time>2010-07-18T13:47:14Z</time>
<desc>lat.=55.846111, lon.=26.523302, Alt.=95.561584m. Speed=16.884001m/h.</desc>
<speed>4.690000</speed>
</trkpt>
<trkpt lat="55.846149" lon="26.523266">
<ele>95.741272</ele>
<time>2010-07-18T13:47:15Z</time>
<desc>lat.=55.846149, lon.=26.523266, Alt.=95.741272m. Speed=17.856001m/h.</desc>
<speed>4.960000</speed>
</trkpt>
<trkpt lat="55.846188" lon="26.523230">
<ele>95.790100</ele>
<time>2010-07-18T13:47:16Z</time>
<desc>lat.=55.846188, lon.=26.523230, Alt.=95.790100m. Speed=18.431999m/h.</desc>
<speed>5.120000</speed>
</trkpt>
<trkpt lat="55.846230" lon="26.523188">
<ele>96.135803</ele>
<time>2010-07-18T13:47:17Z</time>
<desc>lat.=55.846230, lon.=26.523188, Alt.=96.135803m. Speed=19.296000m/h.</desc>
<speed>5.360000</speed>
</trkpt>
<trkpt lat="55.846272" lon="26.523153">
<ele>96.352600</ele>
<time>2010-07-18T13:47:18Z</time>
<desc>lat.=55.846272, lon.=26.523153, Alt.=96.352600m. Speed=19.403999m/h.</desc>
<speed>5.390000</speed>
</trkpt>
<trkpt lat="55.846317" lon="26.523117">
<ele>96.346741</ele>
<time>2010-07-18T13:47:19Z</time>
<desc>lat.=55.846317, lon.=26.523117, Alt.=96.346741m. Speed=19.944000m/h.</desc>
<speed>5.540000</speed>
</trkpt>
<trkpt lat="55.846363" lon="26.523083">
<ele>96.514709</ele>
<time>2010-07-18T13:47:20Z</time>
<desc>lat.=55.846363, lon.=26.523083, Alt.=96.514709m. Speed=20.087999m/h.</desc>
<speed>5.580000</speed>
</trkpt>
<trkpt lat="55.846409" lon="26.523045">
<ele>96.766663</ele>
<time>2010-07-18T13:47:21Z</time>
<desc>lat.=55.846409, lon.=26.523045, Alt.=96.766663m. Speed=19.944000m/h.</desc>
<speed>5.540000</speed>
</trkpt>
<trkpt lat="55.846455" lon="26.523008">
<ele>96.919006</ele>
<time>2010-07-18T13:47:22Z</time>
<desc>lat.=55.846455, lon.=26.523008, Alt.=96.919006m. Speed=19.620001m/h.</desc>
<speed>5.450000</speed>
</trkpt>
<trkpt lat="55.846504" lon="26.522978">
<ele>96.872131</ele>
<time>2010-07-18T13:47:23Z</time>
<desc>lat.=55.846504, lon.=26.522978, Alt.=96.872131m. Speed=19.368000m/h.</desc>
<speed>5.380000</speed>
</trkpt>
<trkpt lat="55.846546" lon="26.522943">
<ele>97.167053</ele>
<time>2010-07-18T13:47:24Z</time>
<desc>lat.=55.846546, lon.=26.522943, Alt.=97.167053m. Speed=19.007999m/h.</desc>
<speed>5.280000</speed>
</trkpt>
<trkpt lat="55.846592" lon="26.522907">
<ele>97.252991</ele>
<time>2010-07-18T13:47:25Z</time>
<desc>lat.=55.846592, lon.=26.522907, Alt.=97.252991m. Speed=18.756001m/h.</desc>
<speed>5.210000</speed>
</trkpt>
<trkpt lat="55.846638" lon="26.522869">
<ele>97.495178</ele>
<time>2010-07-18T13:47:26Z</time>
<desc>lat.=55.846638, lon.=26.522869, Alt.=97.495178m. Speed=19.260000m/h.</desc>
<speed>5.350000</speed>
</trkpt>
<trkpt lat="55.846680" lon="26.522829">
<ele>97.452209</ele>
<time>2010-07-18T13:47:27Z</time>
<desc>lat.=55.846680, lon.=26.522829, Alt.=97.452209m. Speed=19.332001m/h.</desc>
<speed>5.370000</speed>
</trkpt>
<trkpt lat="55.846725" lon="26.522789">
<ele>97.555725</ele>
<time>2010-07-18T13:47:28Z</time>
<desc>lat.=55.846725, lon.=26.522789, Alt.=97.555725m. Speed=20.771999m/h.</desc>
<speed>5.770000</speed>
</trkpt>
<trkpt lat="55.846775" lon="26.522751">
<ele>97.922913</ele>
<time>2010-07-18T13:47:29Z</time>
<desc>lat.=55.846775, lon.=26.522751, Alt.=97.922913m. Speed=21.455999m/h.</desc>
<speed>5.960000</speed>
</trkpt>
<trkpt lat="55.846828" lon="26.522713">
<ele>98.188538</ele>
<time>2010-07-18T13:47:30Z</time>
<desc>lat.=55.846828, lon.=26.522713, Alt.=98.188538m. Speed=22.176001m/h.</desc>
<speed>6.160000</speed>
</trkpt>
<trkpt lat="55.846878" lon="26.522678">
<ele>98.411194</ele>
<time>2010-07-18T13:47:31Z</time>
<desc>lat.=55.846878, lon.=26.522678, Alt.=98.411194m. Speed=22.320000m/h.</desc>
<speed>6.200000</speed>
</trkpt>
<trkpt lat="55.846928" lon="26.522644">
<ele>98.682678</ele>
<time>2010-07-18T13:47:32Z</time>
<desc>lat.=55.846928, lon.=26.522644, Alt.=98.682678m. Speed=21.636000m/h.</desc>
<speed>6.010000</speed>
</trkpt>
<trkpt lat="55.846973" lon="26.522587">
<ele>99.338928</ele>
<time>2010-07-18T13:47:33Z</time>
<desc>lat.=55.846973, lon.=26.522587, Alt.=99.338928m. Speed=19.799999m/h.</desc>
<speed>5.500000</speed>
</trkpt>
<trkpt lat="55.847012" lon="26.522537">
<ele>99.585022</ele>
<time>2010-07-18T13:47:34Z</time>
<desc>lat.=55.847012, lon.=26.522537, Alt.=99.585022m. Speed=19.080000m/h.</desc>
<speed>5.300000</speed>
</trkpt>
<trkpt lat="55.847054" lon="26.522491">
<ele>100.174866</ele>
<time>2010-07-18T13:47:35Z</time>
<desc>lat.=55.847054, lon.=26.522491, Alt.=100.174866m. Speed=19.799999m/h.</desc>
<speed>5.500000</speed>
</trkpt>
<trkpt lat="55.847095" lon="26.522448">
<ele>100.274475</ele>
<time>2010-07-18T13:47:36Z</time>
<desc>lat.=55.847095, lon.=26.522448, Alt.=100.274475m. Speed=18.792000m/h.</desc>
<speed>5.220000</speed>
</trkpt>
<trkpt lat="55.847134" lon="26.522404">
<ele>100.376038</ele>
<time>2010-07-18T13:47:37Z</time>
<desc>lat.=55.847134, lon.=26.522404, Alt.=100.376038m. Speed=19.152000m/h.</desc>
<speed>5.320000</speed>
</trkpt>
<trkpt lat="55.847176" lon="26.522364">
<ele>100.626038</ele>
<time>2010-07-18T13:47:38Z</time>
<desc>lat.=55.847176, lon.=26.522364, Alt.=100.626038m. Speed=20.016001m/h.</desc>
<speed>5.560000</speed>
</trkpt>
<trkpt lat="55.847221" lon="26.522314">
<ele>100.731506</ele>
<time>2010-07-18T13:47:39Z</time>
<desc>lat.=55.847221, lon.=26.522314, Alt.=100.731506m. Speed=21.600000m/h.</desc>
<speed>6.000000</speed>
</trkpt>
<trkpt lat="55.847267" lon="26.522282">
<ele>101.106506</ele>
<time>2010-07-18T13:47:40Z</time>
<desc>lat.=55.847267, lon.=26.522282, Alt.=101.106506m. Speed=21.204000m/h.</desc>
<speed>5.890000</speed>
</trkpt>
<trkpt lat="55.847313" lon="26.522243">
<ele>101.719788</ele>
<time>2010-07-18T13:47:41Z</time>
<desc>lat.=55.847313, lon.=26.522243, Alt.=101.719788m. Speed=21.563999m/h.</desc>
<speed>5.990000</speed>
</trkpt>
<trkpt lat="55.847363" lon="26.522205">
<ele>102.042053</ele>
<time>2010-07-18T13:47:42Z</time>
<desc>lat.=55.847363, lon.=26.522205, Alt.=102.042053m. Speed=20.844000m/h.</desc>
<speed>5.790000</speed>
</trkpt>
<trkpt lat="55.847416" lon="26.522165">
<ele>102.442444</ele>
<time>2010-07-18T13:47:43Z</time>
<desc>lat.=55.847416, lon.=26.522165, Alt.=102.442444m. Speed=21.275999m/h.</desc>
<speed>5.910000</speed>
</trkpt>
<trkpt lat="55.847473" lon="26.522116">
<ele>102.762756</ele>
<time>2010-07-18T13:47:44Z</time>
<desc>lat.=55.847473, lon.=26.522116, Alt.=102.762756m. Speed=23.184000m/h.</desc>
<speed>6.440000</speed>
</trkpt>
<trkpt lat="55.847523" lon="26.522062">
<ele>101.981506</ele>
<time>2010-07-18T13:47:45Z</time>
<desc>lat.=55.847523, lon.=26.522062, Alt.=101.981506m. Speed=21.275999m/h.</desc>
<speed>5.910000</speed>
</trkpt>
<trkpt lat="55.847580" lon="26.522038">
<ele>101.799866</ele>
<time>2010-07-18T13:47:46Z</time>
<desc>lat.=55.847580, lon.=26.522038, Alt.=101.799866m. Speed=22.464001m/h.</desc>
<speed>6.240000</speed>
</trkpt>
<trkpt lat="55.847637" lon="26.522005">
<ele>101.825256</ele>
<time>2010-07-18T13:47:47Z</time>
<desc>lat.=55.847637, lon.=26.522005, Alt.=101.825256m. Speed=22.716000m/h.</desc>
<speed>6.310000</speed>
</trkpt>
<trkpt lat="55.847691" lon="26.521965">
<ele>101.674866</ele>
<time>2010-07-18T13:47:48Z</time>
<desc>lat.=55.847691, lon.=26.521965, Alt.=101.674866m. Speed=22.500000m/h.</desc>
<speed>6.250000</speed>
</trkpt>
<trkpt lat="55.847752" lon="26.521942">
<ele>101.594788</ele>
<time>2010-07-18T13:47:49Z</time>
<desc>lat.=55.847752, lon.=26.521942, Alt.=101.594788m. Speed=22.212000m/h.</desc>
<speed>6.170000</speed>
</trkpt>
<trkpt lat="55.847809" lon="26.521915">
<ele>101.555725</ele>
<time>2010-07-18T13:47:50Z</time>
<desc>lat.=55.847809, lon.=26.521915, Alt.=101.555725m. Speed=22.139999m/h.</desc>
<speed>6.150000</speed>
</trkpt>
<trkpt lat="55.847862" lon="26.521894">
<ele>101.592834</ele>
<time>2010-07-18T13:47:51Z</time>
<desc>lat.=55.847862, lon.=26.521894, Alt.=101.592834m. Speed=22.356001m/h.</desc>
<speed>6.210000</speed>
</trkpt>
<trkpt lat="55.847912" lon="26.521879">
<ele>101.325256</ele>
<time>2010-07-18T13:47:52Z</time>
<desc>lat.=55.847912, lon.=26.521879, Alt.=101.325256m. Speed=22.284000m/h.</desc>
<speed>6.190000</speed>
</trkpt>
<trkpt lat="55.847965" lon="26.521862">
<ele>101.032288</ele>
<time>2010-07-18T13:47:53Z</time>
<desc>lat.=55.847965, lon.=26.521862, Alt.=101.032288m. Speed=22.572001m/h.</desc>
<speed>6.270000</speed>
</trkpt>
<trkpt lat="55.848011" lon="26.521841">
<ele>100.501038</ele>
<time>2010-07-18T13:47:54Z</time>
<desc>lat.=55.848011, lon.=26.521841, Alt.=100.501038m. Speed=22.643999m/h.</desc>
<speed>6.290000</speed>
</trkpt>
<trkpt lat="55.848068" lon="26.521824">
<ele>100.116272</ele>
<time>2010-07-18T13:47:55Z</time>
<desc>lat.=55.848068, lon.=26.521824, Alt.=100.116272m. Speed=22.896000m/h.</desc>
<speed>6.360000</speed>
</trkpt>
<trkpt lat="55.848118" lon="26.521805">
<ele>99.840881</ele>
<time>2010-07-18T13:47:56Z</time>
<desc>lat.=55.848118, lon.=26.521805, Alt.=99.840881m. Speed=22.896000m/h.</desc>
<speed>6.360000</speed>
</trkpt>
<trkpt lat="55.848171" lon="26.521788">
<ele>99.553772</ele>
<time>2010-07-18T13:47:57Z</time>
<desc>lat.=55.848171, lon.=26.521788, Alt.=99.553772m. Speed=22.608000m/h.</desc>
<speed>6.280000</speed>
</trkpt>
<trkpt lat="55.848228" lon="26.521772">
<ele>99.411194</ele>
<time>2010-07-18T13:47:58Z</time>
<desc>lat.=55.848228, lon.=26.521772, Alt.=99.411194m. Speed=22.104000m/h.</desc>
<speed>6.140000</speed>
</trkpt>
<trkpt lat="55.848282" lon="26.521755">
<ele>99.366272</ele>
<time>2010-07-18T13:47:59Z</time>
<desc>lat.=55.848282, lon.=26.521755, Alt.=99.366272m. Speed=22.464001m/h.</desc>
<speed>6.240000</speed>
</trkpt>
<trkpt lat="55.848328" lon="26.521736">
<ele>98.376038</ele>
<time>2010-07-18T13:48:00Z</time>
<desc>lat.=55.848328, lon.=26.521736, Alt.=98.376038m. Speed=18.936001m/h.</desc>
<speed>5.260000</speed>
</trkpt>
<trkpt lat="55.848381" lon="26.521717">
<ele>97.493225</ele>
<time>2010-07-18T13:48:01Z</time>
<desc>lat.=55.848381, lon.=26.521717, Alt.=97.493225m. Speed=21.420000m/h.</desc>
<speed>5.950000</speed>
</trkpt>
<trkpt lat="55.848434" lon="26.521704">
<ele>96.919006</ele>
<time>2010-07-18T13:48:02Z</time>
<desc>lat.=55.848434, lon.=26.521704, Alt.=96.919006m. Speed=20.195999m/h.</desc>
<speed>5.610000</speed>
</trkpt>
<trkpt lat="55.848484" lon="26.521688">
<ele>96.704163</ele>
<time>2010-07-18T13:48:03Z</time>
<desc>lat.=55.848484, lon.=26.521688, Alt.=96.704163m. Speed=18.900000m/h.</desc>
<speed>5.250000</speed>
</trkpt>
<trkpt lat="55.848534" lon="26.521681">
<ele>96.631897</ele>
<time>2010-07-18T13:48:04Z</time>
<desc>lat.=55.848534, lon.=26.521681, Alt.=96.631897m. Speed=19.007999m/h.</desc>
<speed>5.280000</speed>
</trkpt>
<trkpt lat="55.848583" lon="26.521671">
<ele>96.309631</ele>
<time>2010-07-18T13:48:05Z</time>
<desc>lat.=55.848583, lon.=26.521671, Alt.=96.309631m. Speed=18.216000m/h.</desc>
<speed>5.060000</speed>
</trkpt>
<trkpt lat="55.848633" lon="26.521664">
<ele>96.311584</ele>
<time>2010-07-18T13:48:06Z</time>
<desc>lat.=55.848633, lon.=26.521664, Alt.=96.311584m. Speed=20.195999m/h.</desc>
<speed>5.610000</speed>
</trkpt>
<trkpt lat="55.848682" lon="26.521646">
<ele>95.600647</ele>
<time>2010-07-18T13:48:07Z</time>
<desc>lat.=55.848682, lon.=26.521646, Alt.=95.600647m. Speed=19.403999m/h.</desc>
<speed>5.390000</speed>
</trkpt>
<trkpt lat="55.848728" lon="26.521633">
<ele>94.936584</ele>
<time>2010-07-18T13:48:08Z</time>
<desc>lat.=55.848728, lon.=26.521633, Alt.=94.936584m. Speed=18.108000m/h.</desc>
<speed>5.030000</speed>
</trkpt>
<trkpt lat="55.848782" lon="26.521624">
<ele>95.999084</ele>
<time>2010-07-18T13:48:09Z</time>
<desc>lat.=55.848782, lon.=26.521624, Alt.=95.999084m. Speed=19.799999m/h.</desc>
<speed>5.500000</speed>
</trkpt>
<trkpt lat="55.848827" lon="26.521614">
<ele>95.086975</ele>
<time>2010-07-18T13:48:10Z</time>
<desc>lat.=55.848827, lon.=26.521614, Alt.=95.086975m. Speed=20.448000m/h.</desc>
<speed>5.680000</speed>
</trkpt>
<trkpt lat="55.848877" lon="26.521608">
<ele>94.346741</ele>
<time>2010-07-18T13:48:11Z</time>
<desc>lat.=55.848877, lon.=26.521608, Alt.=94.346741m. Speed=21.636000m/h.</desc>
<speed>6.010000</speed>
</trkpt>
<trkpt lat="55.848919" lon="26.521593">
<ele>93.504944</ele>
<time>2010-07-18T13:48:12Z</time>
<desc>lat.=55.848919, lon.=26.521593, Alt.=93.504944m. Speed=19.080000m/h.</desc>
<speed>5.300000</speed>
</trkpt>
<trkpt lat="55.848969" lon="26.521584">
<ele>93.092834</ele>
<time>2010-07-18T13:48:13Z</time>
<desc>lat.=55.848969, lon.=26.521584, Alt.=93.092834m. Speed=19.332001m/h.</desc>
<speed>5.370000</speed>
</trkpt>
<trkpt lat="55.849014" lon="26.521566">
<ele>92.549866</ele>
<time>2010-07-18T13:48:14Z</time>
<desc>lat.=55.849014, lon.=26.521566, Alt.=92.549866m. Speed=18.684000m/h.</desc>
<speed>5.190000</speed>
</trkpt>
<trkpt lat="55.849060" lon="26.521553">
<ele>91.909241</ele>
<time>2010-07-18T13:48:15Z</time>
<desc>lat.=55.849060, lon.=26.521553, Alt.=91.909241m. Speed=18.864000m/h.</desc>
<speed>5.240000</speed>
</trkpt>
<trkpt lat="55.849106" lon="26.521540">
<ele>91.469788</ele>
<time>2010-07-18T13:48:16Z</time>
<desc>lat.=55.849106, lon.=26.521540, Alt.=91.469788m. Speed=18.468000m/h.</desc>
<speed>5.130000</speed>
</trkpt>
<trkpt lat="55.849140" lon="26.521507">
<ele>90.645569</ele>
<time>2010-07-18T13:48:17Z</time>
<desc>lat.=55.849140, lon.=26.521507, Alt.=90.645569m. Speed=15.084000m/h.</desc>
<speed>4.190000</speed>
</trkpt>
<trkpt lat="55.849190" lon="26.521500">
<ele>90.879944</ele>
<time>2010-07-18T13:48:18Z</time>
<desc>lat.=55.849190, lon.=26.521500, Alt.=90.879944m. Speed=16.091999m/h.</desc>
<speed>4.470000</speed>
</trkpt>
<trkpt lat="55.849232" lon="26.521486">
<ele>90.774475</ele>
<time>2010-07-18T13:48:19Z</time>
<desc>lat.=55.849232, lon.=26.521486, Alt.=90.774475m. Speed=14.940000m/h.</desc>
<speed>4.150000</speed>
</trkpt>
<trkpt lat="55.849281" lon="26.521469">
<ele>90.135803</ele>
<time>2010-07-18T13:48:20Z</time>
<desc>lat.=55.849281, lon.=26.521469, Alt.=90.135803m. Speed=19.691999m/h.</desc>
<speed>5.470000</speed>
</trkpt>
<trkpt lat="55.849350" lon="26.521471">
<ele>90.145569</ele>
<time>2010-07-18T13:48:21Z</time>
<desc>lat.=55.849350, lon.=26.521471, Alt.=90.145569m. Speed=19.188000m/h.</desc>
<speed>5.330000</speed>
</trkpt>
<trkpt lat="55.849411" lon="26.521463">
<ele>90.913147</ele>
<time>2010-07-18T13:48:22Z</time>
<desc>lat.=55.849411, lon.=26.521463, Alt.=90.913147m. Speed=20.160000m/h.</desc>
<speed>5.600000</speed>
</trkpt>
<trkpt lat="55.849468" lon="26.521450">
<ele>91.174866</ele>
<time>2010-07-18T13:48:23Z</time>
<desc>lat.=55.849468, lon.=26.521450, Alt.=91.174866m. Speed=20.448000m/h.</desc>
<speed>5.680000</speed>
</trkpt>
<trkpt lat="55.849522" lon="26.521433">
<ele>90.065491</ele>
<time>2010-07-18T13:48:24Z</time>
<desc>lat.=55.849522, lon.=26.521433, Alt.=90.065491m. Speed=20.879999m/h.</desc>
<speed>5.800000</speed>
</trkpt>
<trkpt lat="55.849575" lon="26.521408">
<ele>89.766663</ele>
<time>2010-07-18T13:48:25Z</time>
<desc>lat.=55.849575, lon.=26.521408, Alt.=89.766663m. Speed=19.403999m/h.</desc>
<speed>5.390000</speed>
</trkpt>
<trkpt lat="55.849628" lon="26.521397">
<ele>89.657288</ele>
<time>2010-07-18T13:48:26Z</time>
<desc>lat.=55.849628, lon.=26.521397, Alt.=89.657288m. Speed=18.468000m/h.</desc>
<speed>5.130000</speed>
</trkpt>
<trkpt lat="55.849682" lon="26.521383">
<ele>90.163147</ele>
<time>2010-07-18T13:48:27Z</time>
<desc>lat.=55.849682, lon.=26.521383, Alt.=90.163147m. Speed=19.403999m/h.</desc>
<speed>5.390000</speed>
</trkpt>
<trkpt lat="55.849739" lon="26.521378">
<ele>92.022522</ele>
<time>2010-07-18T13:48:28Z</time>
<desc>lat.=55.849739, lon.=26.521378, Alt.=92.022522m. Speed=18.900000m/h.</desc>
<speed>5.250000</speed>
</trkpt>
<trkpt lat="55.849785" lon="26.521376">
<ele>92.442444</ele>
<time>2010-07-18T13:48:29Z</time>
<desc>lat.=55.849785, lon.=26.521376, Alt.=92.442444m. Speed=18.719999m/h.</desc>
<speed>5.200000</speed>
</trkpt>
<trkpt lat="55.849831" lon="26.521370">
<ele>92.252991</ele>
<time>2010-07-18T13:48:30Z</time>
<desc>lat.=55.849831, lon.=26.521370, Alt.=92.252991m. Speed=18.216000m/h.</desc>
<speed>5.060000</speed>
</trkpt>
<trkpt lat="55.849876" lon="26.521376">
<ele>92.463928</ele>
<time>2010-07-18T13:48:31Z</time>
<desc>lat.=55.849876, lon.=26.521376, Alt.=92.463928m. Speed=17.604000m/h.</desc>
<speed>4.890000</speed>
</trkpt>
<trkpt lat="55.849918" lon="26.521416">
<ele>91.936584</ele>
<time>2010-07-18T13:48:32Z</time>
<desc>lat.=55.849918, lon.=26.521416, Alt.=91.936584m. Speed=24.552000m/h.</desc>
<speed>6.820000</speed>
</trkpt>
<trkpt lat="55.849968" lon="26.521492">
<ele>91.620178</ele>
<time>2010-07-18T13:48:33Z</time>
<desc>lat.=55.849968, lon.=26.521492, Alt.=91.620178m. Speed=23.256001m/h.</desc>
<speed>6.460000</speed>
</trkpt>
<trkpt lat="55.849991" lon="26.521587">
<ele>90.944397</ele>
<time>2010-07-18T13:48:34Z</time>
<desc>lat.=55.849991, lon.=26.521587, Alt.=90.944397m. Speed=23.327999m/h.</desc>
<speed>6.480000</speed>
</trkpt>
<trkpt lat="55.849998" lon="26.521692">
<ele>90.596741</ele>
<time>2010-07-18T13:48:35Z</time>
<desc>lat.=55.849998, lon.=26.521692, Alt.=90.596741m. Speed=23.832001m/h.</desc>
<speed>6.620000</speed>
</trkpt>
<trkpt lat="55.849995" lon="26.521795">
<ele>90.516663</ele>
<time>2010-07-18T13:48:36Z</time>
<desc>lat.=55.849995, lon.=26.521795, Alt.=90.516663m. Speed=23.256001m/h.</desc>
<speed>6.460000</speed>
</trkpt>
<trkpt lat="55.849995" lon="26.521896">
<ele>90.727600</ele>
<time>2010-07-18T13:48:37Z</time>
<desc>lat.=55.849995, lon.=26.521896, Alt.=90.727600m. Speed=22.823999m/h.</desc>
<speed>6.340000</speed>
</trkpt>
<trkpt lat="55.849995" lon="26.521994">
<ele>90.911194</ele>
<time>2010-07-18T13:48:38Z</time>
<desc>lat.=55.849995, lon.=26.521994, Alt.=90.911194m. Speed=22.247999m/h.</desc>
<speed>6.180000</speed>
</trkpt>
<trkpt lat="55.849991" lon="26.522085">
<ele>90.883850</ele>
<time>2010-07-18T13:48:39Z</time>
<desc>lat.=55.849991, lon.=26.522085, Alt.=90.883850m. Speed=21.959999m/h.</desc>
<speed>6.100000</speed>
</trkpt>
<trkpt lat="55.849987" lon="26.522177">
<ele>90.524475</ele>
<time>2010-07-18T13:48:40Z</time>
<desc>lat.=55.849987, lon.=26.522177, Alt.=90.524475m. Speed=21.312000m/h.</desc>
<speed>5.920000</speed>
</trkpt>
<trkpt lat="55.849991" lon="26.522263">
<ele>91.153381</ele>
<time>2010-07-18T13:48:41Z</time>
<desc>lat.=55.849991, lon.=26.522263, Alt.=91.153381m. Speed=21.348000m/h.</desc>
<speed>5.930000</speed>
</trkpt>
<trkpt lat="55.849991" lon="26.522352">
<ele>91.180725</ele>
<time>2010-07-18T13:48:42Z</time>
<desc>lat.=55.849991, lon.=26.522352, Alt.=91.180725m. Speed=21.132000m/h.</desc>
<speed>5.870000</speed>
</trkpt>
<trkpt lat="55.849987" lon="26.522446">
<ele>91.231506</ele>
<time>2010-07-18T13:48:43Z</time>
<desc>lat.=55.849987, lon.=26.522446, Alt.=91.231506m. Speed=20.844000m/h.</desc>
<speed>5.790000</speed>
</trkpt>
<trkpt lat="55.849983" lon="26.522535">
<ele>91.426819</ele>
<time>2010-07-18T13:48:44Z</time>
<desc>lat.=55.849983, lon.=26.522535, Alt.=91.426819m. Speed=20.664000m/h.</desc>
<speed>5.740000</speed>
</trkpt>
<trkpt lat="55.849979" lon="26.522631">
<ele>91.610413</ele>
<time>2010-07-18T13:48:45Z</time>
<desc>lat.=55.849979, lon.=26.522631, Alt.=91.610413m. Speed=20.375999m/h.</desc>
<speed>5.660000</speed>
</trkpt>
<trkpt lat="55.849976" lon="26.522720">
<ele>91.860413</ele>
<time>2010-07-18T13:48:46Z</time>
<desc>lat.=55.849976, lon.=26.522720, Alt.=91.860413m. Speed=20.340000m/h.</desc>
<speed>5.650000</speed>
</trkpt>
<trkpt lat="55.849976" lon="26.522812">
<ele>92.170959</ele>
<time>2010-07-18T13:48:47Z</time>
<desc>lat.=55.849976, lon.=26.522812, Alt.=92.170959m. Speed=20.195999m/h.</desc>
<speed>5.610000</speed>
</trkpt>
<trkpt lat="55.849972" lon="26.522900">
<ele>92.264709</ele>
<time>2010-07-18T13:48:48Z</time>
<desc>lat.=55.849972, lon.=26.522900, Alt.=92.264709m. Speed=20.016001m/h.</desc>
<speed>5.560000</speed>
</trkpt>
<trkpt lat="55.849972" lon="26.522993">
<ele>92.161194</ele>
<time>2010-07-18T13:48:49Z</time>
<desc>lat.=55.849972, lon.=26.522993, Alt.=92.161194m. Speed=19.944000m/h.</desc>
<speed>5.540000</speed>
</trkpt>
<trkpt lat="55.849968" lon="26.523079">
<ele>92.139709</ele>
<time>2010-07-18T13:48:50Z</time>
<desc>lat.=55.849968, lon.=26.523079, Alt.=92.139709m. Speed=19.620001m/h.</desc>
<speed>5.450000</speed>
</trkpt>
<trkpt lat="55.849964" lon="26.523169">
<ele>91.411194</ele>
<time>2010-07-18T13:48:51Z</time>
<desc>lat.=55.849964, lon.=26.523169, Alt.=91.411194m. Speed=19.511999m/h.</desc>
<speed>5.420000</speed>
</trkpt>
<trkpt lat="55.849957" lon="26.523254">
<ele>91.294006</ele>
<time>2010-07-18T13:48:52Z</time>
<desc>lat.=55.849957, lon.=26.523254, Alt.=91.294006m. Speed=18.792000m/h.</desc>
<speed>5.220000</speed>
</trkpt>
<trkpt lat="55.849957" lon="26.523333">
<ele>91.200256</ele>
<time>2010-07-18T13:48:53Z</time>
<desc>lat.=55.849957, lon.=26.523333, Alt.=91.200256m. Speed=18.143999m/h.</desc>
<speed>5.040000</speed>
</trkpt>
<trkpt lat="55.849953" lon="26.523413">
<ele>91.188538</ele>
<time>2010-07-18T13:48:54Z</time>
<desc>lat.=55.849953, lon.=26.523413, Alt.=91.188538m. Speed=18.000000m/h.</desc>
<speed>5.000000</speed>
</trkpt>
<trkpt lat="55.849949" lon="26.523493">
<ele>91.170959</ele>
<time>2010-07-18T13:48:55Z</time>
<desc>lat.=55.849949, lon.=26.523493, Alt.=91.170959m. Speed=18.360001m/h.</desc>
<speed>5.100000</speed>
</trkpt>
<trkpt lat="55.849949" lon="26.523577">
<ele>91.397522</ele>
<time>2010-07-18T13:48:56Z</time>
<desc>lat.=55.849949, lon.=26.523577, Alt.=91.397522m. Speed=18.035999m/h.</desc>
<speed>5.010000</speed>
</trkpt>
<trkpt lat="55.849945" lon="26.523657">
<ele>91.616272</ele>
<time>2010-07-18T13:48:57Z</time>
<desc>lat.=55.849945, lon.=26.523657, Alt.=91.616272m. Speed=18.035999m/h.</desc>
<speed>5.010000</speed>
</trkpt>
<trkpt lat="55.849941" lon="26.523739">
<ele>91.790100</ele>
<time>2010-07-18T13:48:58Z</time>
<desc>lat.=55.849941, lon.=26.523739, Alt.=91.790100m. Speed=18.431999m/h.</desc>
<speed>5.120000</speed>
</trkpt>
<trkpt lat="55.849941" lon="26.523817">
<ele>92.188538</ele>
<time>2010-07-18T13:48:59Z</time>
<desc>lat.=55.849941, lon.=26.523817, Alt.=92.188538m. Speed=18.719999m/h.</desc>
<speed>5.200000</speed>
</trkpt>
<trkpt lat="55.849937" lon="26.523901">
<ele>92.557678</ele>
<time>2010-07-18T13:49:00Z</time>
<desc>lat.=55.849937, lon.=26.523901, Alt.=92.557678m. Speed=18.612000m/h.</desc>
<speed>5.170000</speed>
</trkpt>
<trkpt lat="55.849934" lon="26.523994">
<ele>93.077209</ele>
<time>2010-07-18T13:49:01Z</time>
<desc>lat.=55.849934, lon.=26.523994, Alt.=93.077209m. Speed=18.900000m/h.</desc>
<speed>5.250000</speed>
</trkpt>
<trkpt lat="55.849926" lon="26.524080">
<ele>92.840881</ele>
<time>2010-07-18T13:49:02Z</time>
<desc>lat.=55.849926, lon.=26.524080, Alt.=92.840881m. Speed=19.440001m/h.</desc>
<speed>5.400000</speed>
</trkpt>
<trkpt lat="55.849922" lon="26.524164">
<ele>92.233459</ele>
<time>2010-07-18T13:49:03Z</time>
<desc>lat.=55.849922, lon.=26.524164, Alt.=92.233459m. Speed=18.396000m/h.</desc>
<speed>5.110000</speed>
</trkpt>
<trkpt lat="55.849915" lon="26.524242">
<ele>91.917053</ele>
<time>2010-07-18T13:49:04Z</time>
<desc>lat.=55.849915, lon.=26.524242, Alt.=91.917053m. Speed=17.604000m/h.</desc>
<speed>4.890000</speed>
</trkpt>
<trkpt lat="55.849907" lon="26.524321">
<ele>91.508850</ele>
<time>2010-07-18T13:49:05Z</time>
<desc>lat.=55.849907, lon.=26.524321, Alt.=91.508850m. Speed=16.955999m/h.</desc>
<speed>4.710000</speed>
</trkpt>
<trkpt lat="55.849907" lon="26.524393">
<ele>91.954163</ele>
<time>2010-07-18T13:49:06Z</time>
<desc>lat.=55.849907, lon.=26.524393, Alt.=91.954163m. Speed=16.379999m/h.</desc>
<speed>4.550000</speed>
</trkpt>
<trkpt lat="55.849907" lon="26.524466">
<ele>91.202209</ele>
<time>2010-07-18T13:49:07Z</time>
<desc>lat.=55.849907, lon.=26.524466, Alt.=91.202209m. Speed=16.955999m/h.</desc>
<speed>4.710000</speed>
</trkpt>
<trkpt lat="55.849911" lon="26.524536">
<ele>91.280334</ele>
<time>2010-07-18T13:49:08Z</time>
<desc>lat.=55.849911, lon.=26.524536, Alt.=91.280334m. Speed=17.351999m/h.</desc>
<speed>4.820000</speed>
</trkpt>
<trkpt lat="55.849907" lon="26.524614">
<ele>91.145569</ele>
<time>2010-07-18T13:49:09Z</time>
<desc>lat.=55.849907, lon.=26.524614, Alt.=91.145569m. Speed=17.639999m/h.</desc>
<speed>4.900000</speed>
</trkpt>
<trkpt lat="55.849907" lon="26.524693">
<ele>91.157288</ele>
<time>2010-07-18T13:49:10Z</time>
<desc>lat.=55.849907, lon.=26.524693, Alt.=91.157288m. Speed=17.964001m/h.</desc>
<speed>4.990000</speed>
</trkpt>
<trkpt lat="55.849903" lon="26.524769">
<ele>91.040100</ele>
<time>2010-07-18T13:49:11Z</time>
<desc>lat.=55.849903, lon.=26.524769, Alt.=91.040100m. Speed=17.892000m/h.</desc>
<speed>4.970000</speed>
</trkpt>
<trkpt lat="55.849899" lon="26.524851">
<ele>90.610413</ele>
<time>2010-07-18T13:49:12Z</time>
<desc>lat.=55.849899, lon.=26.524851, Alt.=90.610413m. Speed=18.108000m/h.</desc>
<speed>5.030000</speed>
</trkpt>
<trkpt lat="55.849895" lon="26.524931">
<ele>90.561584</ele>
<time>2010-07-18T13:49:13Z</time>
<desc>lat.=55.849895, lon.=26.524931, Alt.=90.561584m. Speed=18.468000m/h.</desc>
<speed>5.130000</speed>
</trkpt>
<trkpt lat="55.849892" lon="26.525017">
<ele>90.381897</ele>
<time>2010-07-18T13:49:14Z</time>
<desc>lat.=55.849892, lon.=26.525017, Alt.=90.381897m. Speed=18.576000m/h.</desc>
<speed>5.160000</speed>
</trkpt>
<trkpt lat="55.849888" lon="26.525101">
<ele>90.233459</ele>
<time>2010-07-18T13:49:15Z</time>
<desc>lat.=55.849888, lon.=26.525101, Alt.=90.233459m. Speed=18.719999m/h.</desc>
<speed>5.200000</speed>
</trkpt>
<trkpt lat="55.849888" lon="26.525187">
<ele>89.975647</ele>
<time>2010-07-18T13:49:16Z</time>
<desc>lat.=55.849888, lon.=26.525187, Alt.=89.975647m. Speed=19.007999m/h.</desc>
<speed>5.280000</speed>
</trkpt>
<trkpt lat="55.849888" lon="26.525269">
<ele>89.631897</ele>
<time>2010-07-18T13:49:17Z</time>
<desc>lat.=55.849888, lon.=26.525269, Alt.=89.631897m. Speed=19.188000m/h.</desc>
<speed>5.330000</speed>
</trkpt>
<trkpt lat="55.849884" lon="26.525354">
<ele>88.967834</ele>
<time>2010-07-18T13:49:18Z</time>
<desc>lat.=55.849884, lon.=26.525354, Alt.=88.967834m. Speed=19.764000m/h.</desc>
<speed>5.490000</speed>
</trkpt>
<trkpt lat="55.849880" lon="26.525444">
<ele>88.643616</ele>
<time>2010-07-18T13:49:19Z</time>
<desc>lat.=55.849880, lon.=26.525444, Alt.=88.643616m. Speed=19.799999m/h.</desc>
<speed>5.500000</speed>
</trkpt>
<trkpt lat="55.849876" lon="26.525530">
<ele>88.528381</ele>
<time>2010-07-18T13:49:20Z</time>
<desc>lat.=55.849876, lon.=26.525530, Alt.=88.528381m. Speed=19.691999m/h.</desc>
<speed>5.470000</speed>
</trkpt>
<trkpt lat="55.849873" lon="26.525620">
<ele>88.540100</ele>
<time>2010-07-18T13:49:21Z</time>
<desc>lat.=55.849873, lon.=26.525620, Alt.=88.540100m. Speed=19.296000m/h.</desc>
<speed>5.360000</speed>
</trkpt>
<trkpt lat="55.849869" lon="26.525703">
<ele>88.215881</ele>
<time>2010-07-18T13:49:22Z</time>
<desc>lat.=55.849869, lon.=26.525703, Alt.=88.215881m. Speed=19.656000m/h.</desc>
<speed>5.460000</speed>
</trkpt>
<trkpt lat="55.849865" lon="26.525793">
<ele>87.670959</ele>
<time>2010-07-18T13:49:23Z</time>
<desc>lat.=55.849865, lon.=26.525793, Alt.=87.670959m. Speed=20.195999m/h.</desc>
<speed>5.610000</speed>
</trkpt>
<trkpt lat="55.849861" lon="26.525881">
<ele>87.118225</ele>
<time>2010-07-18T13:49:24Z</time>
<desc>lat.=55.849861, lon.=26.525881, Alt.=87.118225m. Speed=19.908001m/h.</desc>
<speed>5.530000</speed>
</trkpt>
<trkpt lat="55.849854" lon="26.525969">
<ele>86.588928</ele>
<time>2010-07-18T13:49:25Z</time>
<desc>lat.=55.849854, lon.=26.525969, Alt.=86.588928m. Speed=19.296000m/h.</desc>
<speed>5.360000</speed>
</trkpt>
<trkpt lat="55.849850" lon="26.526056">
<ele>86.106506</ele>
<time>2010-07-18T13:49:26Z</time>
<desc>lat.=55.849850, lon.=26.526056, Alt.=86.106506m. Speed=19.332001m/h.</desc>
<speed>5.370000</speed>
</trkpt>
<trkpt lat="55.849838" lon="26.526144">
<ele>85.669006</ele>
<time>2010-07-18T13:49:27Z</time>
<desc>lat.=55.849838, lon.=26.526144, Alt.=85.669006m. Speed=19.403999m/h.</desc>
<speed>5.390000</speed>
</trkpt>
<trkpt lat="55.849827" lon="26.526230">
<ele>85.045959</ele>
<time>2010-07-18T13:49:28Z</time>
<desc>lat.=55.849827, lon.=26.526230, Alt.=85.045959m. Speed=18.900000m/h.</desc>
<speed>5.250000</speed>
</trkpt>
<trkpt lat="55.849819" lon="26.526302">
<ele>84.573303</ele>
<time>2010-07-18T13:49:29Z</time>
<desc>lat.=55.849819, lon.=26.526302, Alt.=84.573303m. Speed=17.496000m/h.</desc>
<speed>4.860000</speed>
</trkpt>
<trkpt lat="55.849808" lon="26.526388">
<ele>84.321350</ele>
<time>2010-07-18T13:49:30Z</time>
<desc>lat.=55.849808, lon.=26.526388, Alt.=84.321350m. Speed=18.756001m/h.</desc>
<speed>5.210000</speed>
</trkpt>
<trkpt lat="55.849804" lon="26.526466">
<ele>84.624084</ele>
<time>2010-07-18T13:49:31Z</time>
<desc>lat.=55.849804, lon.=26.526466, Alt.=84.624084m. Speed=17.712000m/h.</desc>
<speed>4.920000</speed>
</trkpt>
<trkpt lat="55.849804" lon="26.526545">
<ele>84.346741</ele>
<time>2010-07-18T13:49:32Z</time>
<desc>lat.=55.849804, lon.=26.526545, Alt.=84.346741m. Speed=17.856001m/h.</desc>
<speed>4.960000</speed>
</trkpt>
<trkpt lat="55.849804" lon="26.526621">
<ele>84.178772</ele>
<time>2010-07-18T13:49:33Z</time>
<desc>lat.=55.849804, lon.=26.526621, Alt.=84.178772m. Speed=17.136000m/h.</desc>
<speed>4.760000</speed>
</trkpt>
<trkpt lat="55.849796" lon="26.526693">
<ele>83.858459</ele>
<time>2010-07-18T13:49:34Z</time>
<desc>lat.=55.849796, lon.=26.526693, Alt.=83.858459m. Speed=16.128000m/h.</desc>
<speed>4.480000</speed>
</trkpt>
<trkpt lat="55.849789" lon="26.526772">
<ele>83.842834</ele>
<time>2010-07-18T13:49:35Z</time>
<desc>lat.=55.849789, lon.=26.526772, Alt.=83.842834m. Speed=16.452000m/h.</desc>
<speed>4.570000</speed>
</trkpt>
<trkpt lat="55.849792" lon="26.526848">
<ele>84.905334</ele>
<time>2010-07-18T13:49:36Z</time>
<desc>lat.=55.849792, lon.=26.526848, Alt.=84.905334m. Speed=16.236000m/h.</desc>
<speed>4.510000</speed>
</trkpt>
<trkpt lat="55.849789" lon="26.526922">
<ele>84.997131</ele>
<time>2010-07-18T13:49:37Z</time>
<desc>lat.=55.849789, lon.=26.526922, Alt.=84.997131m. Speed=16.884001m/h.</desc>
<speed>4.690000</speed>
</trkpt>
<trkpt lat="55.849789" lon="26.526995">
<ele>84.795959</ele>
<time>2010-07-18T13:49:38Z</time>
<desc>lat.=55.849789, lon.=26.526995, Alt.=84.795959m. Speed=17.063999m/h.</desc>
<speed>4.740000</speed>
</trkpt>
<trkpt lat="55.849785" lon="26.527075">
<ele>84.528381</ele>
<time>2010-07-18T13:49:39Z</time>
<desc>lat.=55.849785, lon.=26.527075, Alt.=84.528381m. Speed=17.568001m/h.</desc>
<speed>4.880000</speed>
</trkpt>
<trkpt lat="55.849777" lon="26.527151">
<ele>84.618225</ele>
<time>2010-07-18T13:49:40Z</time>
<desc>lat.=55.849777, lon.=26.527151, Alt.=84.618225m. Speed=17.892000m/h.</desc>
<speed>4.970000</speed>
</trkpt>
<trkpt lat="55.849770" lon="26.527233">
<ele>83.809631</ele>
<time>2010-07-18T13:49:41Z</time>
<desc>lat.=55.849770, lon.=26.527233, Alt.=83.809631m. Speed=18.576000m/h.</desc>
<speed>5.160000</speed>
</trkpt>
<trkpt lat="55.849766" lon="26.527311">
<ele>83.272522</ele>
<time>2010-07-18T13:49:42Z</time>
<desc>lat.=55.849766, lon.=26.527311, Alt.=83.272522m. Speed=18.756001m/h.</desc>
<speed>5.210000</speed>
</trkpt>
<trkpt lat="55.849758" lon="26.527397">
<ele>82.641663</ele>
<time>2010-07-18T13:49:43Z</time>
<desc>lat.=55.849758, lon.=26.527397, Alt.=82.641663m. Speed=18.864000m/h.</desc>
<speed>5.240000</speed>
</trkpt>
<trkpt lat="55.849758" lon="26.527483">
<ele>82.825256</ele>
<time>2010-07-18T13:49:44Z</time>
<desc>lat.=55.849758, lon.=26.527483, Alt.=82.825256m. Speed=19.260000m/h.</desc>
<speed>5.350000</speed>
</trkpt>
<trkpt lat="55.849758" lon="26.527575">
<ele>83.051819</ele>
<time>2010-07-18T13:49:45Z</time>
<desc>lat.=55.849758, lon.=26.527575, Alt.=83.051819m. Speed=19.152000m/h.</desc>
<speed>5.320000</speed>
</trkpt>
<trkpt lat="55.849770" lon="26.527657">
<ele>83.245178</ele>
<time>2010-07-18T13:49:46Z</time>
<desc>lat.=55.849770, lon.=26.527657, Alt.=83.245178m. Speed=19.115999m/h.</desc>
<speed>5.310000</speed>
</trkpt>
<trkpt lat="55.849785" lon="26.527748">
<ele>83.481506</ele>
<time>2010-07-18T13:49:47Z</time>
<desc>lat.=55.849785, lon.=26.527748, Alt.=83.481506m. Speed=19.476000m/h.</desc>
<speed>5.410000</speed>
</trkpt>
<trkpt lat="55.849804" lon="26.527832">
<ele>83.137756</ele>
<time>2010-07-18T13:49:48Z</time>
<desc>lat.=55.849804, lon.=26.527832, Alt.=83.137756m. Speed=19.656000m/h.</desc>
<speed>5.460000</speed>
</trkpt>
<trkpt lat="55.849831" lon="26.527920">
<ele>82.583069</ele>
<time>2010-07-18T13:49:49Z</time>
<desc>lat.=55.849831, lon.=26.527920, Alt.=82.583069m. Speed=20.016001m/h.</desc>
<speed>5.560000</speed>
</trkpt>
<trkpt lat="55.849854" lon="26.528002">
<ele>81.985413</ele>
<time>2010-07-18T13:49:50Z</time>
<desc>lat.=55.849854, lon.=26.528002, Alt.=81.985413m. Speed=20.268000m/h.</desc>
<speed>5.630000</speed>
</trkpt>
<trkpt lat="55.849888" lon="26.528078">
<ele>81.883850</ele>
<time>2010-07-18T13:49:51Z</time>
<desc>lat.=55.849888, lon.=26.528078, Alt.=81.883850m. Speed=21.384001m/h.</desc>
<speed>5.940000</speed>
</trkpt>
<trkpt lat="55.849922" lon="26.528151">
<ele>81.883850</ele>
<time>2010-07-18T13:49:52Z</time>
<desc>lat.=55.849922, lon.=26.528151, Alt.=81.883850m. Speed=21.204000m/h.</desc>
<speed>5.890000</speed>
</trkpt>
<trkpt lat="55.849960" lon="26.528221">
<ele>82.588928</ele>
<time>2010-07-18T13:49:53Z</time>
<desc>lat.=55.849960, lon.=26.528221, Alt.=82.588928m. Speed=21.059999m/h.</desc>
<speed>5.850000</speed>
</trkpt>
<trkpt lat="55.850002" lon="26.528284">
<ele>82.930725</ele>
<time>2010-07-18T13:49:54Z</time>
<desc>lat.=55.850002, lon.=26.528284, Alt.=82.930725m. Speed=20.340000m/h.</desc>
<speed>5.650000</speed>
</trkpt>
<trkpt lat="55.850044" lon="26.528337">
<ele>83.499084</ele>
<time>2010-07-18T13:49:55Z</time>
<desc>lat.=55.850044, lon.=26.528337, Alt.=83.499084m. Speed=19.728001m/h.</desc>
<speed>5.480000</speed>
</trkpt>
<trkpt lat="55.850086" lon="26.528381">
<ele>85.104553</ele>
<time>2010-07-18T13:49:56Z</time>
<desc>lat.=55.850086, lon.=26.528381, Alt.=85.104553m. Speed=19.115999m/h.</desc>
<speed>5.310000</speed>
</trkpt>
<trkpt lat="55.850124" lon="26.528431">
<ele>86.252991</ele>
<time>2010-07-18T13:49:57Z</time>
<desc>lat.=55.850124, lon.=26.528431, Alt.=86.252991m. Speed=18.396000m/h.</desc>
<speed>5.110000</speed>
</trkpt>
<trkpt lat="55.850159" lon="26.528484">
<ele>86.626038</ele>
<time>2010-07-18T13:49:58Z</time>
<desc>lat.=55.850159, lon.=26.528484, Alt.=86.626038m. Speed=18.252001m/h.</desc>
<speed>5.070000</speed>
</trkpt>
<trkpt lat="55.850197" lon="26.528545">
<ele>86.358459</ele>
<time>2010-07-18T13:49:59Z</time>
<desc>lat.=55.850197, lon.=26.528545, Alt.=86.358459m. Speed=17.676001m/h.</desc>
<speed>4.910000</speed>
</trkpt>
<trkpt lat="55.850231" lon="26.528605">
<ele>87.340881</ele>
<time>2010-07-18T13:50:00Z</time>
<desc>lat.=55.850231, lon.=26.528605, Alt.=87.340881m. Speed=17.028000m/h.</desc>
<speed>4.730000</speed>
</trkpt>
<trkpt lat="55.850266" lon="26.528654">
<ele>87.237366</ele>
<time>2010-07-18T13:50:01Z</time>
<desc>lat.=55.850266, lon.=26.528654, Alt.=87.237366m. Speed=17.856001m/h.</desc>
<speed>4.960000</speed>
</trkpt>
<trkpt lat="55.850296" lon="26.528708">
<ele>87.049866</ele>
<time>2010-07-18T13:50:02Z</time>
<desc>lat.=55.850296, lon.=26.528708, Alt.=87.049866m. Speed=17.712000m/h.</desc>
<speed>4.920000</speed>
</trkpt>
<trkpt lat="55.850327" lon="26.528763">
<ele>86.856506</ele>
<time>2010-07-18T13:50:03Z</time>
<desc>lat.=55.850327, lon.=26.528763, Alt.=86.856506m. Speed=18.143999m/h.</desc>
<speed>5.040000</speed>
</trkpt>
<trkpt lat="55.850357" lon="26.528822">
<ele>87.042053</ele>
<time>2010-07-18T13:50:04Z</time>
<desc>lat.=55.850357, lon.=26.528822, Alt.=87.042053m. Speed=16.740000m/h.</desc>
<speed>4.650000</speed>
</trkpt>
<trkpt lat="55.850388" lon="26.528889">
<ele>87.069397</ele>
<time>2010-07-18T13:50:05Z</time>
<desc>lat.=55.850388, lon.=26.528889, Alt.=87.069397m. Speed=17.459999m/h.</desc>
<speed>4.850000</speed>
</trkpt>
<trkpt lat="55.850410" lon="26.528955">
<ele>86.549866</ele>
<time>2010-07-18T13:50:06Z</time>
<desc>lat.=55.850410, lon.=26.528955, Alt.=86.549866m. Speed=16.740000m/h.</desc>
<speed>4.650000</speed>
</trkpt>
<trkpt lat="55.850445" lon="26.529011">
<ele>86.366272</ele>
<time>2010-07-18T13:50:07Z</time>
<desc>lat.=55.850445, lon.=26.529011, Alt.=86.366272m. Speed=16.992001m/h.</desc>
<speed>4.720000</speed>
</trkpt>
<trkpt lat="55.850483" lon="26.529060">
<ele>87.159241</ele>
<time>2010-07-18T13:50:08Z</time>
<desc>lat.=55.850483, lon.=26.529060, Alt.=87.159241m. Speed=17.316000m/h.</desc>
<speed>4.810000</speed>
</trkpt>
<trkpt lat="55.850517" lon="26.529112">
<ele>87.194397</ele>
<time>2010-07-18T13:50:09Z</time>
<desc>lat.=55.850517, lon.=26.529112, Alt.=87.194397m. Speed=17.747999m/h.</desc>
<speed>4.930000</speed>
</trkpt>
<trkpt lat="55.850552" lon="26.529161">
<ele>87.294006</ele>
<time>2010-07-18T13:50:10Z</time>
<desc>lat.=55.850552, lon.=26.529161, Alt.=87.294006m. Speed=16.955999m/h.</desc>
<speed>4.710000</speed>
</trkpt>
<trkpt lat="55.850582" lon="26.529205">
<ele>87.854553</ele>
<time>2010-07-18T13:50:11Z</time>
<desc>lat.=55.850582, lon.=26.529205, Alt.=87.854553m. Speed=16.632000m/h.</desc>
<speed>4.620000</speed>
</trkpt>
<trkpt lat="55.850620" lon="26.529240">
<ele>88.104553</ele>
<time>2010-07-18T13:50:12Z</time>
<desc>lat.=55.850620, lon.=26.529240, Alt.=88.104553m. Speed=16.524000m/h.</desc>
<speed>4.590000</speed>
</trkpt>
<trkpt lat="55.850658" lon="26.529261">
<ele>87.960022</ele>
<time>2010-07-18T13:50:13Z</time>
<desc>lat.=55.850658, lon.=26.529261, Alt.=87.960022m. Speed=16.164000m/h.</desc>
<speed>4.490000</speed>
</trkpt>
<trkpt lat="55.850700" lon="26.529272">
<ele>88.053772</ele>
<time>2010-07-18T13:50:14Z</time>
<desc>lat.=55.850700, lon.=26.529272, Alt.=88.053772m. Speed=16.920000m/h.</desc>
<speed>4.700000</speed>
</trkpt>
<trkpt lat="55.850739" lon="26.529289">
<ele>87.919006</ele>
<time>2010-07-18T13:50:15Z</time>
<desc>lat.=55.850739, lon.=26.529289, Alt.=87.919006m. Speed=16.667999m/h.</desc>
<speed>4.630000</speed>
</trkpt>
<trkpt lat="55.850780" lon="26.529316">
<ele>87.786194</ele>
<time>2010-07-18T13:50:16Z</time>
<desc>lat.=55.850780, lon.=26.529316, Alt.=87.786194m. Speed=16.632000m/h.</desc>
<speed>4.620000</speed>
</trkpt>
<trkpt lat="55.850819" lon="26.529341">
<ele>87.641663</ele>
<time>2010-07-18T13:50:17Z</time>
<desc>lat.=55.850819, lon.=26.529341, Alt.=87.641663m. Speed=17.243999m/h.</desc>
<speed>4.790000</speed>
</trkpt>
<trkpt lat="55.850861" lon="26.529358">
<ele>87.463928</ele>
<time>2010-07-18T13:50:18Z</time>
<desc>lat.=55.850861, lon.=26.529358, Alt.=87.463928m. Speed=17.784000m/h.</desc>
<speed>4.940000</speed>
</trkpt>
<trkpt lat="55.850906" lon="26.529371">
<ele>87.672913</ele>
<time>2010-07-18T13:50:19Z</time>
<desc>lat.=55.850906, lon.=26.529371, Alt.=87.672913m. Speed=17.820000m/h.</desc>
<speed>4.950000</speed>
</trkpt>
<trkpt lat="55.850948" lon="26.529381">
<ele>87.842834</ele>
<time>2010-07-18T13:50:20Z</time>
<desc>lat.=55.850948, lon.=26.529381, Alt.=87.842834m. Speed=18.576000m/h.</desc>
<speed>5.160000</speed>
</trkpt>
<trkpt lat="55.850994" lon="26.529383">
<ele>87.944397</ele>
<time>2010-07-18T13:50:21Z</time>
<desc>lat.=55.850994, lon.=26.529383, Alt.=87.944397m. Speed=18.972000m/h.</desc>
<speed>5.270000</speed>
</trkpt>
<trkpt lat="55.851044" lon="26.529385">
<ele>88.028381</ele>
<time>2010-07-18T13:50:22Z</time>
<desc>lat.=55.851044, lon.=26.529385, Alt.=88.028381m. Speed=18.684000m/h.</desc>
<speed>5.190000</speed>
</trkpt>
<trkpt lat="55.851093" lon="26.529388">
<ele>88.278381</ele>
<time>2010-07-18T13:50:23Z</time>
<desc>lat.=55.851093, lon.=26.529388, Alt.=88.278381m. Speed=18.972000m/h.</desc>
<speed>5.270000</speed>
</trkpt>
<trkpt lat="55.851139" lon="26.529402">
<ele>88.661194</ele>
<time>2010-07-18T13:50:24Z</time>
<desc>lat.=55.851139, lon.=26.529402, Alt.=88.661194m. Speed=18.864000m/h.</desc>
<speed>5.240000</speed>
</trkpt>
<trkpt lat="55.851189" lon="26.529413">
<ele>88.965881</ele>
<time>2010-07-18T13:50:25Z</time>
<desc>lat.=55.851189, lon.=26.529413, Alt.=88.965881m. Speed=18.216000m/h.</desc>
<speed>5.060000</speed>
</trkpt>
<trkpt lat="55.851231" lon="26.529419">
<ele>89.241272</ele>
<time>2010-07-18T13:50:26Z</time>
<desc>lat.=55.851231, lon.=26.529419, Alt.=89.241272m. Speed=17.712000m/h.</desc>
<speed>4.920000</speed>
</trkpt>
<trkpt lat="55.851273" lon="26.529425">
<ele>89.594788</ele>
<time>2010-07-18T13:50:27Z</time>
<desc>lat.=55.851273, lon.=26.529425, Alt.=89.594788m. Speed=17.063999m/h.</desc>
<speed>4.740000</speed>
</trkpt>
<trkpt lat="55.851315" lon="26.529430">
<ele>89.811584</ele>
<time>2010-07-18T13:50:28Z</time>
<desc>lat.=55.851315, lon.=26.529430, Alt.=89.811584m. Speed=16.236000m/h.</desc>
<speed>4.510000</speed>
</trkpt>
<trkpt lat="55.851357" lon="26.529434">
<ele>89.872131</ele>
<time>2010-07-18T13:50:29Z</time>
<desc>lat.=55.851357, lon.=26.529434, Alt.=89.872131m. Speed=16.524000m/h.</desc>
<speed>4.590000</speed>
</trkpt>
<trkpt lat="55.851398" lon="26.529430">
<ele>90.073303</ele>
<time>2010-07-18T13:50:30Z</time>
<desc>lat.=55.851398, lon.=26.529430, Alt.=90.073303m. Speed=16.667999m/h.</desc>
<speed>4.630000</speed>
</trkpt>
<trkpt lat="55.851440" lon="26.529425">
<ele>90.417053</ele>
<time>2010-07-18T13:50:31Z</time>
<desc>lat.=55.851440, lon.=26.529425, Alt.=90.417053m. Speed=16.667999m/h.</desc>
<speed>4.630000</speed>
</trkpt>
<trkpt lat="55.851482" lon="26.529427">
<ele>90.688538</ele>
<time>2010-07-18T13:50:32Z</time>
<desc>lat.=55.851482, lon.=26.529427, Alt.=90.688538m. Speed=16.596001m/h.</desc>
<speed>4.610000</speed>
</trkpt>
<trkpt lat="55.851524" lon="26.529430">
<ele>90.944397</ele>
<time>2010-07-18T13:50:33Z</time>
<desc>lat.=55.851524, lon.=26.529430, Alt.=90.944397m. Speed=17.100000m/h.</desc>
<speed>4.750000</speed>
</trkpt>
<trkpt lat="55.851570" lon="26.529430">
<ele>91.131897</ele>
<time>2010-07-18T13:50:34Z</time>
<desc>lat.=55.851570, lon.=26.529430, Alt.=91.131897m. Speed=17.388000m/h.</desc>
<speed>4.830000</speed>
</trkpt>
<trkpt lat="55.851612" lon="26.529428">
<ele>91.249084</ele>
<time>2010-07-18T13:50:35Z</time>
<desc>lat.=55.851612, lon.=26.529428, Alt.=91.249084m. Speed=17.784000m/h.</desc>
<speed>4.940000</speed>
</trkpt>
<trkpt lat="55.851658" lon="26.529425">
<ele>91.204163</ele>
<time>2010-07-18T13:50:36Z</time>
<desc>lat.=55.851658, lon.=26.529425, Alt.=91.204163m. Speed=18.360001m/h.</desc>
<speed>5.100000</speed>
</trkpt>
<trkpt lat="55.851707" lon="26.529425">
<ele>91.258850</ele>
<time>2010-07-18T13:50:37Z</time>
<desc>lat.=55.851707, lon.=26.529425, Alt.=91.258850m. Speed=19.007999m/h.</desc>
<speed>5.280000</speed>
</trkpt>
<trkpt lat="55.851757" lon="26.529423">
<ele>91.288147</ele>
<time>2010-07-18T13:50:38Z</time>
<desc>lat.=55.851757, lon.=26.529423, Alt.=91.288147m. Speed=19.728001m/h.</desc>
<speed>5.480000</speed>
</trkpt>
<trkpt lat="55.851807" lon="26.529425">
<ele>91.221741</ele>
<time>2010-07-18T13:50:39Z</time>
<desc>lat.=55.851807, lon.=26.529425, Alt.=91.221741m. Speed=20.124001m/h.</desc>
<speed>5.590000</speed>
</trkpt>
<trkpt lat="55.851856" lon="26.529432">
<ele>91.116272</ele>
<time>2010-07-18T13:50:40Z</time>
<desc>lat.=55.851856, lon.=26.529432, Alt.=91.116272m. Speed=20.448000m/h.</desc>
<speed>5.680000</speed>
</trkpt>
<trkpt lat="55.851906" lon="26.529438">
<ele>91.139709</ele>
<time>2010-07-18T13:50:41Z</time>
<desc>lat.=55.851906, lon.=26.529438, Alt.=91.139709m. Speed=20.628000m/h.</desc>
<speed>5.730000</speed>
</trkpt>
<trkpt lat="55.851959" lon="26.529446">
<ele>91.122131</ele>
<time>2010-07-18T13:50:42Z</time>
<desc>lat.=55.851959, lon.=26.529446, Alt.=91.122131m. Speed=20.844000m/h.</desc>
<speed>5.790000</speed>
</trkpt>
<trkpt lat="55.852009" lon="26.529453">
<ele>91.001038</ele>
<time>2010-07-18T13:50:43Z</time>
<desc>lat.=55.852009, lon.=26.529453, Alt.=91.001038m. Speed=20.988001m/h.</desc>
<speed>5.830000</speed>
</trkpt>
<trkpt lat="55.852062" lon="26.529463">
<ele>90.979553</ele>
<time>2010-07-18T13:50:44Z</time>
<desc>lat.=55.852062, lon.=26.529463, Alt.=90.979553m. Speed=20.736000m/h.</desc>
<speed>5.760000</speed>
</trkpt>
<trkpt lat="55.852116" lon="26.529476">
<ele>90.942444</ele>
<time>2010-07-18T13:50:45Z</time>
<desc>lat.=55.852116, lon.=26.529476, Alt.=90.942444m. Speed=20.628000m/h.</desc>
<speed>5.730000</speed>
</trkpt>
<trkpt lat="55.852165" lon="26.529488">
<ele>90.973694</ele>
<time>2010-07-18T13:50:46Z</time>
<desc>lat.=55.852165, lon.=26.529488, Alt.=90.973694m. Speed=20.124001m/h.</desc>
<speed>5.590000</speed>
</trkpt>
<trkpt lat="55.852215" lon="26.529503">
<ele>90.891663</ele>
<time>2010-07-18T13:50:47Z</time>
<desc>lat.=55.852215, lon.=26.529503, Alt.=90.891663m. Speed=19.691999m/h.</desc>
<speed>5.470000</speed>
</trkpt>
<trkpt lat="55.852264" lon="26.529516">
<ele>90.811584</ele>
<time>2010-07-18T13:50:48Z</time>
<desc>lat.=55.852264, lon.=26.529516, Alt.=90.811584m. Speed=18.540001m/h.</desc>
<speed>5.150000</speed>
</trkpt>
<trkpt lat="55.852310" lon="26.529524">
<ele>90.631897</ele>
<time>2010-07-18T13:50:49Z</time>
<desc>lat.=55.852310, lon.=26.529524, Alt.=90.631897m. Speed=17.496000m/h.</desc>
<speed>4.860000</speed>
</trkpt>
<trkpt lat="55.852352" lon="26.529528">
<ele>90.504944</ele>
<time>2010-07-18T13:50:50Z</time>
<desc>lat.=55.852352, lon.=26.529528, Alt.=90.504944m. Speed=17.459999m/h.</desc>
<speed>4.850000</speed>
</trkpt>
<trkpt lat="55.852398" lon="26.529533">
<ele>90.389709</ele>
<time>2010-07-18T13:50:51Z</time>
<desc>lat.=55.852398, lon.=26.529533, Alt.=90.389709m. Speed=18.072001m/h.</desc>
<speed>5.020000</speed>
</trkpt>
<trkpt lat="55.852444" lon="26.529547">
<ele>90.286194</ele>
<time>2010-07-18T13:50:52Z</time>
<desc>lat.=55.852444, lon.=26.529547, Alt.=90.286194m. Speed=18.576000m/h.</desc>
<speed>5.160000</speed>
</trkpt>
<trkpt lat="55.852489" lon="26.529556">
<ele>90.149475</ele>
<time>2010-07-18T13:50:53Z</time>
<desc>lat.=55.852489, lon.=26.529556, Alt.=90.149475m. Speed=19.224001m/h.</desc>
<speed>5.340000</speed>
</trkpt>
<trkpt lat="55.852539" lon="26.529572">
<ele>90.143616</ele>
<time>2010-07-18T13:50:54Z</time>
<desc>lat.=55.852539, lon.=26.529572, Alt.=90.143616m. Speed=19.403999m/h.</desc>
<speed>5.390000</speed>
</trkpt>
<trkpt lat="55.852585" lon="26.529587">
<ele>90.141663</ele>
<time>2010-07-18T13:50:55Z</time>
<desc>lat.=55.852585, lon.=26.529587, Alt.=90.141663m. Speed=19.511999m/h.</desc>
<speed>5.420000</speed>
</trkpt>
<trkpt lat="55.852634" lon="26.529602">
<ele>90.053772</ele>
<time>2010-07-18T13:50:56Z</time>
<desc>lat.=55.852634, lon.=26.529602, Alt.=90.053772m. Speed=19.691999m/h.</desc>
<speed>5.470000</speed>
</trkpt>
<trkpt lat="55.852680" lon="26.529617">
<ele>90.165100</ele>
<time>2010-07-18T13:50:57Z</time>
<desc>lat.=55.852680, lon.=26.529617, Alt.=90.165100m. Speed=19.620001m/h.</desc>
<speed>5.450000</speed>
</trkpt>
<trkpt lat="55.852730" lon="26.529633">
<ele>90.260803</ele>
<time>2010-07-18T13:50:58Z</time>
<desc>lat.=55.852730, lon.=26.529633, Alt.=90.260803m. Speed=19.691999m/h.</desc>
<speed>5.470000</speed>
</trkpt>
<trkpt lat="55.852779" lon="26.529648">
<ele>90.377991</ele>
<time>2010-07-18T13:50:59Z</time>
<desc>lat.=55.852779, lon.=26.529648, Alt.=90.377991m. Speed=19.440001m/h.</desc>
<speed>5.400000</speed>
</trkpt>
<trkpt lat="55.852825" lon="26.529659">
<ele>90.667053</ele>
<time>2010-07-18T13:51:00Z</time>
<desc>lat.=55.852825, lon.=26.529659, Alt.=90.667053m. Speed=19.152000m/h.</desc>
<speed>5.320000</speed>
</trkpt>
<trkpt lat="55.852875" lon="26.529676">
<ele>90.661194</ele>
<time>2010-07-18T13:51:01Z</time>
<desc>lat.=55.852875, lon.=26.529676, Alt.=90.661194m. Speed=20.052000m/h.</desc>
<speed>5.570000</speed>
</trkpt>
<trkpt lat="55.852924" lon="26.529694">
<ele>90.532288</ele>
<time>2010-07-18T13:51:02Z</time>
<desc>lat.=55.852924, lon.=26.529694, Alt.=90.532288m. Speed=19.980000m/h.</desc>
<speed>5.550000</speed>
</trkpt>
<trkpt lat="55.852974" lon="26.529709">
<ele>90.489319</ele>
<time>2010-07-18T13:51:03Z</time>
<desc>lat.=55.852974, lon.=26.529709, Alt.=90.489319m. Speed=20.591999m/h.</desc>
<speed>5.720000</speed>
</trkpt>
<trkpt lat="55.853020" lon="26.529726">
<ele>90.424866</ele>
<time>2010-07-18T13:51:04Z</time>
<desc>lat.=55.853020, lon.=26.529726, Alt.=90.424866m. Speed=20.016001m/h.</desc>
<speed>5.560000</speed>
</trkpt>
<trkpt lat="55.853069" lon="26.529736">
<ele>90.413147</ele>
<time>2010-07-18T13:51:05Z</time>
<desc>lat.=55.853069, lon.=26.529736, Alt.=90.413147m. Speed=19.440001m/h.</desc>
<speed>5.400000</speed>
</trkpt>
<trkpt lat="55.853119" lon="26.529751">
<ele>90.460022</ele>
<time>2010-07-18T13:51:06Z</time>
<desc>lat.=55.853119, lon.=26.529751, Alt.=90.460022m. Speed=20.808001m/h.</desc>
<speed>5.780000</speed>
</trkpt>
<trkpt lat="55.853168" lon="26.529766">
<ele>90.424866</ele>
<time>2010-07-18T13:51:07Z</time>
<desc>lat.=55.853168, lon.=26.529766, Alt.=90.424866m. Speed=19.764000m/h.</desc>
<speed>5.490000</speed>
</trkpt>
<trkpt lat="55.853214" lon="26.529772">
<ele>90.174866</ele>
<time>2010-07-18T13:51:08Z</time>
<desc>lat.=55.853214, lon.=26.529772, Alt.=90.174866m. Speed=19.440001m/h.</desc>
<speed>5.400000</speed>
</trkpt>
<trkpt lat="55.853264" lon="26.529776">
<ele>89.954163</ele>
<time>2010-07-18T13:51:09Z</time>
<desc>lat.=55.853264, lon.=26.529776, Alt.=89.954163m. Speed=19.799999m/h.</desc>
<speed>5.500000</speed>
</trkpt>
<trkpt lat="55.853313" lon="26.529793">
<ele>89.565491</ele>
<time>2010-07-18T13:51:10Z</time>
<desc>lat.=55.853313, lon.=26.529793, Alt.=89.565491m. Speed=20.160000m/h.</desc>
<speed>5.600000</speed>
</trkpt>
<trkpt lat="55.853371" lon="26.529814">
<ele>89.653381</ele>
<time>2010-07-18T13:51:11Z</time>
<desc>lat.=55.853371, lon.=26.529814, Alt.=89.653381m. Speed=20.340000m/h.</desc>
<speed>5.650000</speed>
</trkpt>
<trkpt lat="55.853420" lon="26.529825">
<ele>89.729553</ele>
<time>2010-07-18T13:51:12Z</time>
<desc>lat.=55.853420, lon.=26.529825, Alt.=89.729553m. Speed=20.268000m/h.</desc>
<speed>5.630000</speed>
</trkpt>
<trkpt lat="55.853466" lon="26.529837">
<ele>89.713928</ele>
<time>2010-07-18T13:51:13Z</time>
<desc>lat.=55.853466, lon.=26.529837, Alt.=89.713928m. Speed=19.980000m/h.</desc>
<speed>5.550000</speed>
</trkpt>
<trkpt lat="55.853516" lon="26.529848">
<ele>89.838928</ele>
<time>2010-07-18T13:51:14Z</time>
<desc>lat.=55.853516, lon.=26.529848, Alt.=89.838928m. Speed=20.375999m/h.</desc>
<speed>5.660000</speed>
</trkpt>
<trkpt lat="55.853565" lon="26.529861">
<ele>89.907288</ele>
<time>2010-07-18T13:51:15Z</time>
<desc>lat.=55.853565, lon.=26.529861, Alt.=89.907288m. Speed=20.448000m/h.</desc>
<speed>5.680000</speed>
</trkpt>
<trkpt lat="55.853619" lon="26.529873">
<ele>90.282288</ele>
<time>2010-07-18T13:51:16Z</time>
<desc>lat.=55.853619, lon.=26.529873, Alt.=90.282288m. Speed=20.591999m/h.</desc>
<speed>5.720000</speed>
</trkpt>
<trkpt lat="55.853668" lon="26.529882">
<ele>90.518616</ele>
<time>2010-07-18T13:51:17Z</time>
<desc>lat.=55.853668, lon.=26.529882, Alt.=90.518616m. Speed=20.628000m/h.</desc>
<speed>5.730000</speed>
</trkpt>
<trkpt lat="55.853722" lon="26.529886">
<ele>90.934631</ele>
<time>2010-07-18T13:51:18Z</time>
<desc>lat.=55.853722, lon.=26.529886, Alt.=90.934631m. Speed=20.952000m/h.</desc>
<speed>5.820000</speed>
</trkpt>
<trkpt lat="55.853771" lon="26.529892">
<ele>91.278381</ele>
<time>2010-07-18T13:51:19Z</time>
<desc>lat.=55.853771, lon.=26.529892, Alt.=91.278381m. Speed=21.384001m/h.</desc>
<speed>5.940000</speed>
</trkpt>
<trkpt lat="55.853825" lon="26.529898">
<ele>91.274475</ele>
<time>2010-07-18T13:51:20Z</time>
<desc>lat.=55.853825, lon.=26.529898, Alt.=91.274475m. Speed=21.816000m/h.</desc>
<speed>6.060000</speed>
</trkpt>
<trkpt lat="55.853878" lon="26.529909">
<ele>91.145569</ele>
<time>2010-07-18T13:51:21Z</time>
<desc>lat.=55.853878, lon.=26.529909, Alt.=91.145569m. Speed=22.139999m/h.</desc>
<speed>6.150000</speed>
</trkpt>
<trkpt lat="55.853935" lon="26.529919">
<ele>90.979553</ele>
<time>2010-07-18T13:51:22Z</time>
<desc>lat.=55.853935, lon.=26.529919, Alt.=90.979553m. Speed=22.500000m/h.</desc>
<speed>6.250000</speed>
</trkpt>
<trkpt lat="55.853989" lon="26.529924">
<ele>90.905334</ele>
<time>2010-07-18T13:51:23Z</time>
<desc>lat.=55.853989, lon.=26.529924, Alt.=90.905334m. Speed=23.040001m/h.</desc>
<speed>6.400000</speed>
</trkpt>
<trkpt lat="55.854046" lon="26.529932">
<ele>91.073303</ele>
<time>2010-07-18T13:51:24Z</time>
<desc>lat.=55.854046, lon.=26.529932, Alt.=91.073303m. Speed=22.320000m/h.</desc>
<speed>6.200000</speed>
</trkpt>
<trkpt lat="55.854103" lon="26.529938">
<ele>91.551819</ele>
<time>2010-07-18T13:51:25Z</time>
<desc>lat.=55.854103, lon.=26.529938, Alt.=91.551819m. Speed=22.392000m/h.</desc>
<speed>6.220000</speed>
</trkpt>
<trkpt lat="55.854160" lon="26.529955">
<ele>91.487366</ele>
<time>2010-07-18T13:51:26Z</time>
<desc>lat.=55.854160, lon.=26.529955, Alt.=91.487366m. Speed=23.327999m/h.</desc>
<speed>6.480000</speed>
</trkpt>
<trkpt lat="55.854218" lon="26.529963">
<ele>92.024475</ele>
<time>2010-07-18T13:51:27Z</time>
<desc>lat.=55.854218, lon.=26.529963, Alt.=92.024475m. Speed=22.104000m/h.</desc>
<speed>6.140000</speed>
</trkpt>
<trkpt lat="55.854271" lon="26.529972">
<ele>92.264709</ele>
<time>2010-07-18T13:51:28Z</time>
<desc>lat.=55.854271, lon.=26.529972, Alt.=92.264709m. Speed=20.771999m/h.</desc>
<speed>5.770000</speed>
</trkpt>
<trkpt lat="55.854321" lon="26.529984">
<ele>92.211975</ele>
<time>2010-07-18T13:51:29Z</time>
<desc>lat.=55.854321, lon.=26.529984, Alt.=92.211975m. Speed=19.908001m/h.</desc>
<speed>5.530000</speed>
</trkpt>
<trkpt lat="55.854366" lon="26.529987">
<ele>92.229553</ele>
<time>2010-07-18T13:51:30Z</time>
<desc>lat.=55.854366, lon.=26.529987, Alt.=92.229553m. Speed=19.908001m/h.</desc>
<speed>5.530000</speed>
</trkpt>
<trkpt lat="55.854416" lon="26.529991">
<ele>92.487366</ele>
<time>2010-07-18T13:51:31Z</time>
<desc>lat.=55.854416, lon.=26.529991, Alt.=92.487366m. Speed=19.691999m/h.</desc>
<speed>5.470000</speed>
</trkpt>
<trkpt lat="55.854465" lon="26.530001">
<ele>92.661194</ele>
<time>2010-07-18T13:51:32Z</time>
<desc>lat.=55.854465, lon.=26.530001, Alt.=92.661194m. Speed=18.972000m/h.</desc>
<speed>5.270000</speed>
</trkpt>
<trkpt lat="55.854511" lon="26.530012">
<ele>92.963928</ele>
<time>2010-07-18T13:51:33Z</time>
<desc>lat.=55.854511, lon.=26.530012, Alt.=92.963928m. Speed=18.648001m/h.</desc>
<speed>5.180000</speed>
</trkpt>
<trkpt lat="55.854557" lon="26.530022">
<ele>93.174866</ele>
<time>2010-07-18T13:51:34Z</time>
<desc>lat.=55.854557, lon.=26.530022, Alt.=93.174866m. Speed=17.604000m/h.</desc>
<speed>4.890000</speed>
</trkpt>
<trkpt lat="55.854595" lon="26.530025">
<ele>93.420959</ele>
<time>2010-07-18T13:51:35Z</time>
<desc>lat.=55.854595, lon.=26.530025, Alt.=93.420959m. Speed=16.632000m/h.</desc>
<speed>4.620000</speed>
</trkpt>
<trkpt lat="55.854637" lon="26.530033">
<ele>93.467834</ele>
<time>2010-07-18T13:51:36Z</time>
<desc>lat.=55.854637, lon.=26.530033, Alt.=93.467834m. Speed=16.308001m/h.</desc>
<speed>4.530000</speed>
</trkpt>
<trkpt lat="55.854679" lon="26.530039">
<ele>94.063538</ele>
<time>2010-07-18T13:51:37Z</time>
<desc>lat.=55.854679, lon.=26.530039, Alt.=94.063538m. Speed=15.732000m/h.</desc>
<speed>4.370000</speed>
</trkpt>
<trkpt lat="55.854717" lon="26.530050">
<ele>94.211975</ele>
<time>2010-07-18T13:51:38Z</time>
<desc>lat.=55.854717, lon.=26.530050, Alt.=94.211975m. Speed=15.264000m/h.</desc>
<speed>4.240000</speed>
</trkpt>
<trkpt lat="55.854755" lon="26.530064">
<ele>94.499084</ele>
<time>2010-07-18T13:51:39Z</time>
<desc>lat.=55.854755, lon.=26.530064, Alt.=94.499084m. Speed=16.164000m/h.</desc>
<speed>4.490000</speed>
</trkpt>
<trkpt lat="55.854794" lon="26.530073">
<ele>94.805725</ele>
<time>2010-07-18T13:51:40Z</time>
<desc>lat.=55.854794, lon.=26.530073, Alt.=94.805725m. Speed=16.091999m/h.</desc>
<speed>4.470000</speed>
</trkpt>
<trkpt lat="55.854836" lon="26.530081">
<ele>94.729553</ele>
<time>2010-07-18T13:51:41Z</time>
<desc>lat.=55.854836, lon.=26.530081, Alt.=94.729553m. Speed=16.596001m/h.</desc>
<speed>4.610000</speed>
</trkpt>
<trkpt lat="55.854874" lon="26.530092">
<ele>94.657288</ele>
<time>2010-07-18T13:51:42Z</time>
<desc>lat.=55.854874, lon.=26.530092, Alt.=94.657288m. Speed=16.740000m/h.</desc>
<speed>4.650000</speed>
</trkpt>
<trkpt lat="55.854912" lon="26.530106">
<ele>94.700256</ele>
<time>2010-07-18T13:51:43Z</time>
<desc>lat.=55.854912, lon.=26.530106, Alt.=94.700256m. Speed=16.704000m/h.</desc>
<speed>4.640000</speed>
</trkpt>
<trkpt lat="55.854954" lon="26.530117">
<ele>94.782288</ele>
<time>2010-07-18T13:51:44Z</time>
<desc>lat.=55.854954, lon.=26.530117, Alt.=94.782288m. Speed=17.496000m/h.</desc>
<speed>4.860000</speed>
</trkpt>
<trkpt lat="55.854996" lon="26.530130">
<ele>94.838928</ele>
<time>2010-07-18T13:51:45Z</time>
<desc>lat.=55.854996, lon.=26.530130, Alt.=94.838928m. Speed=17.604000m/h.</desc>
<speed>4.890000</speed>
</trkpt>
<trkpt lat="55.855042" lon="26.530140">
<ele>94.903381</ele>
<time>2010-07-18T13:51:46Z</time>
<desc>lat.=55.855042, lon.=26.530140, Alt.=94.903381m. Speed=18.288000m/h.</desc>
<speed>5.080000</speed>
</trkpt>
<trkpt lat="55.855087" lon="26.530151">
<ele>94.995178</ele>
<time>2010-07-18T13:51:47Z</time>
<desc>lat.=55.855087, lon.=26.530151, Alt.=94.995178m. Speed=18.719999m/h.</desc>
<speed>5.200000</speed>
</trkpt>
<trkpt lat="55.855133" lon="26.530165">
<ele>95.038147</ele>
<time>2010-07-18T13:51:48Z</time>
<desc>lat.=55.855133, lon.=26.530165, Alt.=95.038147m. Speed=18.431999m/h.</desc>
<speed>5.120000</speed>
</trkpt>
<trkpt lat="55.855179" lon="26.530176">
<ele>95.040100</ele>
<time>2010-07-18T13:51:49Z</time>
<desc>lat.=55.855179, lon.=26.530176, Alt.=95.040100m. Speed=18.431999m/h.</desc>
<speed>5.120000</speed>
</trkpt>
<trkpt lat="55.855228" lon="26.530186">
<ele>95.083069</ele>
<time>2010-07-18T13:51:50Z</time>
<desc>lat.=55.855228, lon.=26.530186, Alt.=95.083069m. Speed=18.900000m/h.</desc>
<speed>5.250000</speed>
</trkpt>
<trkpt lat="55.855274" lon="26.530193">
<ele>95.069397</ele>
<time>2010-07-18T13:51:51Z</time>
<desc>lat.=55.855274, lon.=26.530193, Alt.=95.069397m. Speed=18.612000m/h.</desc>
<speed>5.170000</speed>
</trkpt>
<trkpt lat="55.855320" lon="26.530205">
<ele>95.081116</ele>
<time>2010-07-18T13:51:52Z</time>
<desc>lat.=55.855320, lon.=26.530205, Alt.=95.081116m. Speed=19.296000m/h.</desc>
<speed>5.360000</speed>
</trkpt>
<trkpt lat="55.855366" lon="26.530224">
<ele>94.706116</ele>
<time>2010-07-18T13:51:53Z</time>
<desc>lat.=55.855366, lon.=26.530224, Alt.=94.706116m. Speed=19.836000m/h.</desc>
<speed>5.510000</speed>
</trkpt>
<trkpt lat="55.855415" lon="26.530239">
<ele>94.417053</ele>
<time>2010-07-18T13:51:54Z</time>
<desc>lat.=55.855415, lon.=26.530239, Alt.=94.417053m. Speed=20.232000m/h.</desc>
<speed>5.620000</speed>
</trkpt>
<trkpt lat="55.855465" lon="26.530247">
<ele>94.364319</ele>
<time>2010-07-18T13:51:55Z</time>
<desc>lat.=55.855465, lon.=26.530247, Alt.=94.364319m. Speed=20.628000m/h.</desc>
<speed>5.730000</speed>
</trkpt>
<trkpt lat="55.855518" lon="26.530254">
<ele>94.536194</ele>
<time>2010-07-18T13:51:56Z</time>
<desc>lat.=55.855518, lon.=26.530254, Alt.=94.536194m. Speed=21.312000m/h.</desc>
<speed>5.920000</speed>
</trkpt>
<trkpt lat="55.855576" lon="26.530272">
<ele>94.444397</ele>
<time>2010-07-18T13:51:57Z</time>
<desc>lat.=55.855576, lon.=26.530272, Alt.=94.444397m. Speed=20.952000m/h.</desc>
<speed>5.820000</speed>
</trkpt>
<trkpt lat="55.855625" lon="26.530289">
<ele>94.022522</ele>
<time>2010-07-18T13:51:58Z</time>
<desc>lat.=55.855625, lon.=26.530289, Alt.=94.022522m. Speed=20.520000m/h.</desc>
<speed>5.700000</speed>
</trkpt>
<trkpt lat="55.855675" lon="26.530300">
<ele>93.862366</ele>
<time>2010-07-18T13:51:59Z</time>
<desc>lat.=55.855675, lon.=26.530300, Alt.=93.862366m. Speed=20.664000m/h.</desc>
<speed>5.740000</speed>
</trkpt>
<trkpt lat="55.855724" lon="26.530315">
<ele>93.760803</ele>
<time>2010-07-18T13:52:00Z</time>
<desc>lat.=55.855724, lon.=26.530315, Alt.=93.760803m. Speed=20.448000m/h.</desc>
<speed>5.680000</speed>
</trkpt>
<trkpt lat="55.855774" lon="26.530327">
<ele>93.678772</ele>
<time>2010-07-18T13:52:01Z</time>
<desc>lat.=55.855774, lon.=26.530327, Alt.=93.678772m. Speed=19.260000m/h.</desc>
<speed>5.350000</speed>
</trkpt>
<trkpt lat="55.855816" lon="26.530340">
<ele>93.213928</ele>
<time>2010-07-18T13:52:02Z</time>
<desc>lat.=55.855816, lon.=26.530340, Alt.=93.213928m. Speed=18.648001m/h.</desc>
<speed>5.180000</speed>
</trkpt>
<trkpt lat="55.855862" lon="26.530354">
<ele>92.936584</ele>
<time>2010-07-18T13:52:03Z</time>
<desc>lat.=55.855862, lon.=26.530354, Alt.=92.936584m. Speed=17.784000m/h.</desc>
<speed>4.940000</speed>
</trkpt>
<trkpt lat="55.855904" lon="26.530369">
<ele>93.139709</ele>
<time>2010-07-18T13:52:04Z</time>
<desc>lat.=55.855904, lon.=26.530369, Alt.=93.139709m. Speed=18.288000m/h.</desc>
<speed>5.080000</speed>
</trkpt>
<trkpt lat="55.855946" lon="26.530382">
<ele>93.092834</ele>
<time>2010-07-18T13:52:05Z</time>
<desc>lat.=55.855946, lon.=26.530382, Alt.=93.092834m. Speed=17.316000m/h.</desc>
<speed>4.810000</speed>
</trkpt>
<trkpt lat="55.855988" lon="26.530396">
<ele>92.981506</ele>
<time>2010-07-18T13:52:06Z</time>
<desc>lat.=55.855988, lon.=26.530396, Alt.=92.981506m. Speed=16.955999m/h.</desc>
<speed>4.710000</speed>
</trkpt>
<trkpt lat="55.856030" lon="26.530407">
<ele>92.852600</ele>
<time>2010-07-18T13:52:07Z</time>
<desc>lat.=55.856030, lon.=26.530407, Alt.=92.852600m. Speed=17.316000m/h.</desc>
<speed>4.810000</speed>
</trkpt>
<trkpt lat="55.856075" lon="26.530418">
<ele>92.836975</ele>
<time>2010-07-18T13:52:08Z</time>
<desc>lat.=55.856075, lon.=26.530418, Alt.=92.836975m. Speed=17.280001m/h.</desc>
<speed>4.800000</speed>
</trkpt>
<trkpt lat="55.856117" lon="26.530428">
<ele>92.950256</ele>
<time>2010-07-18T13:52:09Z</time>
<desc>lat.=55.856117, lon.=26.530428, Alt.=92.950256m. Speed=17.532000m/h.</desc>
<speed>4.870000</speed>
</trkpt>
<trkpt lat="55.856163" lon="26.530434">
<ele>93.112366</ele>
<time>2010-07-18T13:52:10Z</time>
<desc>lat.=55.856163, lon.=26.530434, Alt.=93.112366m. Speed=17.100000m/h.</desc>
<speed>4.750000</speed>
</trkpt>
<trkpt lat="55.856205" lon="26.530443">
<ele>92.872131</ele>
<time>2010-07-18T13:52:11Z</time>
<desc>lat.=55.856205, lon.=26.530443, Alt.=92.872131m. Speed=16.740000m/h.</desc>
<speed>4.650000</speed>
</trkpt>
<trkpt lat="55.856247" lon="26.530457">
<ele>92.686584</ele>
<time>2010-07-18T13:52:12Z</time>
<desc>lat.=55.856247, lon.=26.530457, Alt.=92.686584m. Speed=17.243999m/h.</desc>
<speed>4.790000</speed>
</trkpt>
<trkpt lat="55.856289" lon="26.530464">
<ele>92.825256</ele>
<time>2010-07-18T13:52:13Z</time>
<desc>lat.=55.856289, lon.=26.530464, Alt.=92.825256m. Speed=16.632000m/h.</desc>
<speed>4.620000</speed>
</trkpt>
<trkpt lat="55.856335" lon="26.530470">
<ele>93.274475</ele>
<time>2010-07-18T13:52:14Z</time>
<desc>lat.=55.856335, lon.=26.530470, Alt.=93.274475m. Speed=16.740000m/h.</desc>
<speed>4.650000</speed>
</trkpt>
<trkpt lat="55.856377" lon="26.530474">
<ele>93.430725</ele>
<time>2010-07-18T13:52:15Z</time>
<desc>lat.=55.856377, lon.=26.530474, Alt.=93.430725m. Speed=16.596001m/h.</desc>
<speed>4.610000</speed>
</trkpt>
<trkpt lat="55.856419" lon="26.530479">
<ele>94.042053</ele>
<time>2010-07-18T13:52:16Z</time>
<desc>lat.=55.856419, lon.=26.530479, Alt.=94.042053m. Speed=15.840000m/h.</desc>
<speed>4.400000</speed>
</trkpt>
<trkpt lat="55.856461" lon="26.530489">
<ele>94.338928</ele>
<time>2010-07-18T13:52:17Z</time>
<desc>lat.=55.856461, lon.=26.530489, Alt.=94.338928m. Speed=16.488001m/h.</desc>
<speed>4.580000</speed>
</trkpt>
<trkpt lat="55.856499" lon="26.530500">
<ele>94.350647</ele>
<time>2010-07-18T13:52:18Z</time>
<desc>lat.=55.856499, lon.=26.530500, Alt.=94.350647m. Speed=15.372000m/h.</desc>
<speed>4.270000</speed>
</trkpt>
<trkpt lat="55.856541" lon="26.530510">
<ele>94.620178</ele>
<time>2010-07-18T13:52:19Z</time>
<desc>lat.=55.856541, lon.=26.530510, Alt.=94.620178m. Speed=16.056000m/h.</desc>
<speed>4.460000</speed>
</trkpt>
<trkpt lat="55.856583" lon="26.530519">
<ele>94.877991</ele>
<time>2010-07-18T13:52:20Z</time>
<desc>lat.=55.856583, lon.=26.530519, Alt.=94.877991m. Speed=16.091999m/h.</desc>
<speed>4.470000</speed>
</trkpt>
<trkpt lat="55.856625" lon="26.530529">
<ele>94.919006</ele>
<time>2010-07-18T13:52:21Z</time>
<desc>lat.=55.856625, lon.=26.530529, Alt.=94.919006m. Speed=16.596001m/h.</desc>
<speed>4.610000</speed>
</trkpt>
<trkpt lat="55.856667" lon="26.530539">
<ele>94.614319</ele>
<time>2010-07-18T13:52:22Z</time>
<desc>lat.=55.856667, lon.=26.530539, Alt.=94.614319m. Speed=16.236000m/h.</desc>
<speed>4.510000</speed>
</trkpt>
<trkpt lat="55.856709" lon="26.530550">
<ele>94.311584</ele>
<time>2010-07-18T13:52:23Z</time>
<desc>lat.=55.856709, lon.=26.530550, Alt.=94.311584m. Speed=16.236000m/h.</desc>
<speed>4.510000</speed>
</trkpt>
<trkpt lat="55.856750" lon="26.530560">
<ele>94.170959</ele>
<time>2010-07-18T13:52:24Z</time>
<desc>lat.=55.856750, lon.=26.530560, Alt.=94.170959m. Speed=16.596001m/h.</desc>
<speed>4.610000</speed>
</trkpt>
<trkpt lat="55.856796" lon="26.530581">
<ele>93.776428</ele>
<time>2010-07-18T13:52:25Z</time>
<desc>lat.=55.856796, lon.=26.530581, Alt.=93.776428m. Speed=16.955999m/h.</desc>
<speed>4.710000</speed>
</trkpt>
<trkpt lat="55.856838" lon="26.530600">
<ele>93.499084</ele>
<time>2010-07-18T13:52:26Z</time>
<desc>lat.=55.856838, lon.=26.530600, Alt.=93.499084m. Speed=17.459999m/h.</desc>
<speed>4.850000</speed>
</trkpt>
<trkpt lat="55.856884" lon="26.530607">
<ele>93.495178</ele>
<time>2010-07-18T13:52:27Z</time>
<desc>lat.=55.856884, lon.=26.530607, Alt.=93.495178m. Speed=17.820000m/h.</desc>
<speed>4.950000</speed>
</trkpt>
<trkpt lat="55.856926" lon="26.530615">
<ele>93.295959</ele>
<time>2010-07-18T13:52:28Z</time>
<desc>lat.=55.856926, lon.=26.530615, Alt.=93.295959m. Speed=18.108000m/h.</desc>
<speed>5.030000</speed>
</trkpt>
<trkpt lat="55.856972" lon="26.530622">
<ele>93.067444</ele>
<time>2010-07-18T13:52:29Z</time>
<desc>lat.=55.856972, lon.=26.530622, Alt.=93.067444m. Speed=18.756001m/h.</desc>
<speed>5.210000</speed>
</trkpt>
<trkpt lat="55.857018" lon="26.530626">
<ele>92.940491</ele>
<time>2010-07-18T13:52:30Z</time>
<desc>lat.=55.857018, lon.=26.530626, Alt.=92.940491m. Speed=19.620001m/h.</desc>
<speed>5.450000</speed>
</trkpt>
<trkpt lat="55.857067" lon="26.530636">
<ele>92.807678</ele>
<time>2010-07-18T13:52:31Z</time>
<desc>lat.=55.857067, lon.=26.530636, Alt.=92.807678m. Speed=20.520000m/h.</desc>
<speed>5.700000</speed>
</trkpt>
<trkpt lat="55.857117" lon="26.530643">
<ele>92.932678</ele>
<time>2010-07-18T13:52:32Z</time>
<desc>lat.=55.857117, lon.=26.530643, Alt.=92.932678m. Speed=21.240000m/h.</desc>
<speed>5.900000</speed>
</trkpt>
<trkpt lat="55.857170" lon="26.530647">
<ele>93.077209</ele>
<time>2010-07-18T13:52:33Z</time>
<desc>lat.=55.857170, lon.=26.530647, Alt.=93.077209m. Speed=22.212000m/h.</desc>
<speed>6.170000</speed>
</trkpt>
<trkpt lat="55.857227" lon="26.530659">
<ele>93.104553</ele>
<time>2010-07-18T13:52:34Z</time>
<desc>lat.=55.857227, lon.=26.530659, Alt.=93.104553m. Speed=22.464001m/h.</desc>
<speed>6.240000</speed>
</trkpt>
<trkpt lat="55.857281" lon="26.530670">
<ele>92.983459</ele>
<time>2010-07-18T13:52:35Z</time>
<desc>lat.=55.857281, lon.=26.530670, Alt.=92.983459m. Speed=22.788000m/h.</desc>
<speed>6.330000</speed>
</trkpt>
<trkpt lat="55.857338" lon="26.530684">
<ele>92.911194</ele>
<time>2010-07-18T13:52:36Z</time>
<desc>lat.=55.857338, lon.=26.530684, Alt.=92.911194m. Speed=24.480000m/h.</desc>
<speed>6.800000</speed>
</trkpt>
<trkpt lat="55.857399" lon="26.530697">
<ele>92.958069</ele>
<time>2010-07-18T13:52:37Z</time>
<desc>lat.=55.857399, lon.=26.530697, Alt.=92.958069m. Speed=22.608000m/h.</desc>
<speed>6.280000</speed>
</trkpt>
<trkpt lat="55.857456" lon="26.530710">
<ele>92.827209</ele>
<time>2010-07-18T13:52:38Z</time>
<desc>lat.=55.857456, lon.=26.530710, Alt.=92.827209m. Speed=23.796000m/h.</desc>
<speed>6.610000</speed>
</trkpt>
<trkpt lat="55.857513" lon="26.530720">
<ele>92.764709</ele>
<time>2010-07-18T13:52:39Z</time>
<desc>lat.=55.857513, lon.=26.530720, Alt.=92.764709m. Speed=23.040001m/h.</desc>
<speed>6.400000</speed>
</trkpt>
<trkpt lat="55.857571" lon="26.530731">
<ele>92.711975</ele>
<time>2010-07-18T13:52:40Z</time>
<desc>lat.=55.857571, lon.=26.530731, Alt.=92.711975m. Speed=22.535999m/h.</desc>
<speed>6.260000</speed>
</trkpt>
<trkpt lat="55.857616" lon="26.530746">
<ele>92.340881</ele>
<time>2010-07-18T13:52:41Z</time>
<desc>lat.=55.857616, lon.=26.530746, Alt.=92.340881m. Speed=21.384001m/h.</desc>
<speed>5.940000</speed>
</trkpt>
<trkpt lat="55.857670" lon="26.530756">
<ele>92.358459</ele>
<time>2010-07-18T13:52:42Z</time>
<desc>lat.=55.857670, lon.=26.530756, Alt.=92.358459m. Speed=20.628000m/h.</desc>
<speed>5.730000</speed>
</trkpt>
<trkpt lat="55.857719" lon="26.530766">
<ele>92.338928</ele>
<time>2010-07-18T13:52:43Z</time>
<desc>lat.=55.857719, lon.=26.530766, Alt.=92.338928m. Speed=19.872000m/h.</desc>
<speed>5.520000</speed>
</trkpt>
<trkpt lat="55.857769" lon="26.530777">
<ele>92.354553</ele>
<time>2010-07-18T13:52:44Z</time>
<desc>lat.=55.857769, lon.=26.530777, Alt.=92.354553m. Speed=18.827999m/h.</desc>
<speed>5.230000</speed>
</trkpt>
<trkpt lat="55.857815" lon="26.530790">
<ele>92.352600</ele>
<time>2010-07-18T13:52:45Z</time>
<desc>lat.=55.857815, lon.=26.530790, Alt.=92.352600m. Speed=18.468000m/h.</desc>
<speed>5.130000</speed>
</trkpt>
<trkpt lat="55.857857" lon="26.530800">
<ele>92.297913</ele>
<time>2010-07-18T13:52:46Z</time>
<desc>lat.=55.857857, lon.=26.530800, Alt.=92.297913m. Speed=17.568001m/h.</desc>
<speed>4.880000</speed>
</trkpt>
<trkpt lat="55.857899" lon="26.530807">
<ele>92.254944</ele>
<time>2010-07-18T13:52:47Z</time>
<desc>lat.=55.857899, lon.=26.530807, Alt.=92.254944m. Speed=16.848000m/h.</desc>
<speed>4.680000</speed>
</trkpt>
<trkpt lat="55.857937" lon="26.530813">
<ele>92.272522</ele>
<time>2010-07-18T13:52:48Z</time>
<desc>lat.=55.857937, lon.=26.530813, Alt.=92.272522m. Speed=16.379999m/h.</desc>
<speed>4.550000</speed>
</trkpt>
<trkpt lat="55.857979" lon="26.530819">
<ele>92.397522</ele>
<time>2010-07-18T13:52:49Z</time>
<desc>lat.=55.857979, lon.=26.530819, Alt.=92.397522m. Speed=16.308001m/h.</desc>
<speed>4.530000</speed>
</trkpt>
<trkpt lat="55.858025" lon="26.530832">
<ele>92.424866</ele>
<time>2010-07-18T13:52:50Z</time>
<desc>lat.=55.858025, lon.=26.530832, Alt.=92.424866m. Speed=16.920000m/h.</desc>
<speed>4.700000</speed>
</trkpt>
<trkpt lat="55.858067" lon="26.530846">
<ele>92.602600</ele>
<time>2010-07-18T13:52:51Z</time>
<desc>lat.=55.858067, lon.=26.530846, Alt.=92.602600m. Speed=16.596001m/h.</desc>
<speed>4.610000</speed>
</trkpt>
<trkpt lat="55.858105" lon="26.530855">
<ele>92.555725</ele>
<time>2010-07-18T13:52:52Z</time>
<desc>lat.=55.858105, lon.=26.530855, Alt.=92.555725m. Speed=16.091999m/h.</desc>
<speed>4.470000</speed>
</trkpt>
<trkpt lat="55.858143" lon="26.530861">
<ele>92.487366</ele>
<time>2010-07-18T13:52:53Z</time>
<desc>lat.=55.858143, lon.=26.530861, Alt.=92.487366m. Speed=15.696000m/h.</desc>
<speed>4.360000</speed>
</trkpt>
<trkpt lat="55.858181" lon="26.530872">
<ele>92.331116</ele>
<time>2010-07-18T13:52:54Z</time>
<desc>lat.=55.858181, lon.=26.530872, Alt.=92.331116m. Speed=13.104000m/h.</desc>
<speed>3.640000</speed>
</trkpt>
<trkpt lat="55.858208" lon="26.530882">
<ele>92.268616</ele>
<time>2010-07-18T13:52:55Z</time>
<desc>lat.=55.858208, lon.=26.530882, Alt.=92.268616m. Speed=11.916000m/h.</desc>
<speed>3.310000</speed>
</trkpt>
<trkpt lat="55.858238" lon="26.530903">
<ele>91.958069</ele>
<time>2010-07-18T13:52:56Z</time>
<desc>lat.=55.858238, lon.=26.530903, Alt.=91.958069m. Speed=8.964000m/h.</desc>
<speed>2.490000</speed>
</trkpt>
<trkpt lat="55.858250" lon="26.530914">
<ele>91.792053</ele>
<time>2010-07-18T13:52:57Z</time>
<desc>lat.=55.858250, lon.=26.530914, Alt.=91.792053m. Speed=4.644000m/h.</desc>
<speed>1.290000</speed>
</trkpt>
<trkpt lat="55.858253" lon="26.530912">
<ele>91.663147</ele>
<time>2010-07-18T13:52:58Z</time>
<desc>lat.=55.858253, lon.=26.530912, Alt.=91.663147m. Speed=0.828000m/h.</desc>
<speed>0.230000</speed>
</trkpt>
<trkpt lat="55.858261" lon="26.530909">
<ele>91.768616</ele>
<time>2010-07-18T13:52:59Z</time>
<desc>lat.=55.858261, lon.=26.530909, Alt.=91.768616m. Speed=0.252000m/h.</desc>
<speed>0.070000</speed>
</trkpt>
<trkpt lat="55.858261" lon="26.530907">
<ele>91.836975</ele>
<time>2010-07-18T13:53:00Z</time>
<desc>lat.=55.858261, lon.=26.530907, Alt.=91.836975m. Speed=0.504000m/h.</desc>
<speed>0.140000</speed>
</trkpt>
<trkpt lat="55.858261" lon="26.530909">
<ele>91.749084</ele>
<time>2010-07-18T13:53:01Z</time>
<desc>lat.=55.858261, lon.=26.530909, Alt.=91.749084m. Speed=0.324000m/h.</desc>
<speed>0.090000</speed>
</trkpt>
<trkpt lat="55.858261" lon="26.530909">
<ele>91.710022</ele>
<time>2010-07-18T13:53:02Z</time>
<desc>lat.=55.858261, lon.=26.530909, Alt.=91.710022m. Speed=0.468000m/h.</desc>
<speed>0.130000</speed>
</trkpt>
<trkpt lat="55.858261" lon="26.530910">
<ele>91.680725</ele>
<time>2010-07-18T13:53:03Z</time>
<desc>lat.=55.858261, lon.=26.530910, Alt.=91.680725m. Speed=0.180000m/h.</desc>
<speed>0.050000</speed>
</trkpt>
<trkpt lat="55.858261" lon="26.530910">
<ele>91.649475</ele>
<time>2010-07-18T13:53:04Z</time>
<desc>lat.=55.858261, lon.=26.530910, Alt.=91.649475m. Speed=0.072000m/h.</desc>
<speed>0.020000</speed>
</trkpt>
<trkpt lat="55.858261" lon="26.530910">
<ele>91.672913</ele>
<time>2010-07-18T13:53:05Z</time>
<desc>lat.=55.858261, lon.=26.530910, Alt.=91.672913m. Speed=0.072000m/h.</desc>
<speed>0.020000</speed>
</trkpt>
<trkpt lat="55.858261" lon="26.530910">
<ele>91.665100</ele>
<time>2010-07-18T13:53:06Z</time>
<desc>lat.=55.858261, lon.=26.530910, Alt.=91.665100m. Speed=0.144000m/h.</desc>
<speed>0.040000</speed>
</trkpt>
<trkpt lat="55.858261" lon="26.530912">
<ele>91.667053</ele>
<time>2010-07-18T13:53:07Z</time>
<desc>lat.=55.858261, lon.=26.530912, Alt.=91.667053m. Speed=0.072000m/h.</desc>
<speed>0.020000</speed>
</trkpt>
<trkpt lat="55.858261" lon="26.530912">
<ele>91.670959</ele>
<time>2010-07-18T13:53:08Z</time>
<desc>lat.=55.858261, lon.=26.530912, Alt.=91.670959m. Speed=0.108000m/h.</desc>
<speed>0.030000</speed>
</trkpt>
<trkpt lat="55.858261" lon="26.530910">
<ele>91.672913</ele>
<time>2010-07-18T13:53:09Z</time>
<desc>lat.=55.858261, lon.=26.530910, Alt.=91.672913m. Speed=0.000000m/h.</desc>
<speed>0.000000</speed>
</trkpt>
<trkpt lat="55.858261" lon="26.530910">
<ele>91.682678</ele>
<time>2010-07-18T13:53:10Z</time>
<desc>lat.=55.858261, lon.=26.530910, Alt.=91.682678m. Speed=0.432000m/h.</desc>
<speed>0.120000</speed>
</trkpt>
<trkpt lat="55.858261" lon="26.530912">
<ele>91.688538</ele>
<time>2010-07-18T13:53:11Z</time>
<desc>lat.=55.858261, lon.=26.530912, Alt.=91.688538m. Speed=0.288000m/h.</desc>
<speed>0.080000</speed>
</trkpt>
<trkpt lat="55.858261" lon="26.530914">
<ele>91.700256</ele>
<time>2010-07-18T13:53:12Z</time>
<desc>lat.=55.858261, lon.=26.530914, Alt.=91.700256m. Speed=0.540000m/h.</desc>
<speed>0.150000</speed>
</trkpt>
<trkpt lat="55.858261" lon="26.530912">
<ele>91.727600</ele>
<time>2010-07-18T13:53:13Z</time>
<desc>lat.=55.858261, lon.=26.530912, Alt.=91.727600m. Speed=0.324000m/h.</desc>
<speed>0.090000</speed>
</trkpt>
<trkpt lat="55.858261" lon="26.530910">
<ele>91.749084</ele>
<time>2010-07-18T13:53:14Z</time>
<desc>lat.=55.858261, lon.=26.530910, Alt.=91.749084m. Speed=0.648000m/h.</desc>
<speed>0.180000</speed>
</trkpt>
<trkpt lat="55.858261" lon="26.530912">
<ele>91.766663</ele>
<time>2010-07-18T13:53:15Z</time>
<desc>lat.=55.858261, lon.=26.530912, Alt.=91.766663m. Speed=0.684000m/h.</desc>
<speed>0.190000</speed>
</trkpt>
<trkpt lat="55.858261" lon="26.530910">
<ele>91.786194</ele>
<time>2010-07-18T13:53:16Z</time>
<desc>lat.=55.858261, lon.=26.530910, Alt.=91.786194m. Speed=0.180000m/h.</desc>
<speed>0.050000</speed>
</trkpt>
<trkpt lat="55.858261" lon="26.530909">
<ele>91.801819</ele>
<time>2010-07-18T13:53:17Z</time>
<desc>lat.=55.858261, lon.=26.530909, Alt.=91.801819m. Speed=0.468000m/h.</desc>
<speed>0.130000</speed>
</trkpt>
<trkpt lat="55.858261" lon="26.530910">
<ele>91.813538</ele>
<time>2010-07-18T13:53:18Z</time>
<desc>lat.=55.858261, lon.=26.530910, Alt.=91.813538m. Speed=0.504000m/h.</desc>
<speed>0.140000</speed>
</trkpt>
<trkpt lat="55.858261" lon="26.530909">
<ele>91.825256</ele>
<time>2010-07-18T13:53:19Z</time>
<desc>lat.=55.858261, lon.=26.530909, Alt.=91.825256m. Speed=0.180000m/h.</desc>
<speed>0.050000</speed>
</trkpt>
<trkpt lat="55.858261" lon="26.530910">
<ele>91.850647</ele>
<time>2010-07-18T13:53:20Z</time>
<desc>lat.=55.858261, lon.=26.530910, Alt.=91.850647m. Speed=0.108000m/h.</desc>
<speed>0.030000</speed>
</trkpt>
<trkpt lat="55.858261" lon="26.530910">
<ele>91.864319</ele>
<time>2010-07-18T13:53:21Z</time>
<desc>lat.=55.858261, lon.=26.530910, Alt.=91.864319m. Speed=0.648000m/h.</desc>
<speed>0.180000</speed>
</trkpt>
<trkpt lat="55.858261" lon="26.530907">
<ele>91.885803</ele>
<time>2010-07-18T13:53:22Z</time>
<desc>lat.=55.858261, lon.=26.530907, Alt.=91.885803m. Speed=0.252000m/h.</desc>
<speed>0.070000</speed>
</trkpt>
<trkpt lat="55.858261" lon="26.530907">
<ele>91.901428</ele>
<time>2010-07-18T13:53:23Z</time>
<desc>lat.=55.858261, lon.=26.530907, Alt.=91.901428m. Speed=0.540000m/h.</desc>
<speed>0.150000</speed>
</trkpt>
<trkpt lat="55.858261" lon="26.530909">
<ele>91.919006</ele>
<time>2010-07-18T13:53:24Z</time>
<desc>lat.=55.858261, lon.=26.530909, Alt.=91.919006m. Speed=0.612000m/h.</desc>
<speed>0.170000</speed>
</trkpt>
<trkpt lat="55.858257" lon="26.530909">
<ele>91.934631</ele>
<time>2010-07-18T13:53:25Z</time>
<desc>lat.=55.858257, lon.=26.530909, Alt.=91.934631m. Speed=0.576000m/h.</desc>
<speed>0.160000</speed>
</trkpt>
<trkpt lat="55.858257" lon="26.530909">
<ele>91.948303</ele>
<time>2010-07-18T13:53:26Z</time>
<desc>lat.=55.858257, lon.=26.530909, Alt.=91.948303m. Speed=0.396000m/h.</desc>
<speed>0.110000</speed>
</trkpt>
<trkpt lat="55.858257" lon="26.530907">
<ele>91.958069</ele>
<time>2010-07-18T13:53:27Z</time>
<desc>lat.=55.858257, lon.=26.530907, Alt.=91.958069m. Speed=0.216000m/h.</desc>
<speed>0.060000</speed>
</trkpt>
<trkpt lat="55.858257" lon="26.530907">
<ele>91.967834</ele>
<time>2010-07-18T13:53:28Z</time>
<desc>lat.=55.858257, lon.=26.530907, Alt.=91.967834m. Speed=0.180000m/h.</desc>
<speed>0.050000</speed>
</trkpt>
<trkpt lat="55.858257" lon="26.530905">
<ele>91.971741</ele>
<time>2010-07-18T13:53:29Z</time>
<desc>lat.=55.858257, lon.=26.530905, Alt.=91.971741m. Speed=0.000000m/h.</desc>
<speed>0.000000</speed>
</trkpt>
<trkpt lat="55.858257" lon="26.530905">
<ele>91.989319</ele>
<time>2010-07-18T13:53:30Z</time>
<desc>lat.=55.858257, lon.=26.530905, Alt.=91.989319m. Speed=0.072000m/h.</desc>
<speed>0.020000</speed>
</trkpt>
<trkpt lat="55.858257" lon="26.530905">
<ele>92.002991</ele>
<time>2010-07-18T13:53:31Z</time>
<desc>lat.=55.858257, lon.=26.530905, Alt.=92.002991m. Speed=0.072000m/h.</desc>
<speed>0.020000</speed>
</trkpt>
<trkpt lat="55.858257" lon="26.530905">
<ele>91.997131</ele>
<time>2010-07-18T13:53:32Z</time>
<desc>lat.=55.858257, lon.=26.530905, Alt.=91.997131m. Speed=0.072000m/h.</desc>
<speed>0.020000</speed>
</trkpt>
<trkpt lat="55.858257" lon="26.530905">
<ele>92.006897</ele>
<time>2010-07-18T13:53:33Z</time>
<desc>lat.=55.858257, lon.=26.530905, Alt.=92.006897m. Speed=0.036000m/h.</desc>
<speed>0.010000</speed>
</trkpt>
<trkpt lat="55.858257" lon="26.530905">
<ele>92.020569</ele>
<time>2010-07-18T13:53:34Z</time>
<desc>lat.=55.858257, lon.=26.530905, Alt.=92.020569m. Speed=0.000000m/h.</desc>
<speed>0.000000</speed>
</trkpt>
<trkpt lat="55.858257" lon="26.530905">
<ele>92.034241</ele>
<time>2010-07-18T13:53:35Z</time>
<desc>lat.=55.858257, lon.=26.530905, Alt.=92.034241m. Speed=0.072000m/h.</desc>
<speed>0.020000</speed>
</trkpt>
<trkpt lat="55.858257" lon="26.530903">
<ele>92.042053</ele>
<time>2010-07-18T13:53:36Z</time>
<desc>lat.=55.858257, lon.=26.530903, Alt.=92.042053m. Speed=0.072000m/h.</desc>
<speed>0.020000</speed>
</trkpt>
<trkpt lat="55.858257" lon="26.530905">
<ele>92.047913</ele>
<time>2010-07-18T13:53:37Z</time>
<desc>lat.=55.858257, lon.=26.530905, Alt.=92.047913m. Speed=0.000000m/h.</desc>
<speed>0.000000</speed>
</trkpt>
<trkpt lat="55.858257" lon="26.530905">
<ele>92.045959</ele>
<time>2010-07-18T13:53:38Z</time>
<desc>lat.=55.858257, lon.=26.530905, Alt.=92.045959m. Speed=0.072000m/h.</desc>
<speed>0.020000</speed>
</trkpt>
<trkpt lat="55.858257" lon="26.530905">
<ele>92.053772</ele>
<time>2010-07-18T13:53:39Z</time>
<desc>lat.=55.858257, lon.=26.530905, Alt.=92.053772m. Speed=0.108000m/h.</desc>
<speed>0.030000</speed>
</trkpt>
<trkpt lat="55.858257" lon="26.530905">
<ele>92.055725</ele>
<time>2010-07-18T13:53:40Z</time>
<desc>lat.=55.858257, lon.=26.530905, Alt.=92.055725m. Speed=0.072000m/h.</desc>
<speed>0.020000</speed>
</trkpt>
<trkpt lat="55.858257" lon="26.530903">
<ele>92.059631</ele>
<time>2010-07-18T13:53:41Z</time>
<desc>lat.=55.858257, lon.=26.530903, Alt.=92.059631m. Speed=0.072000m/h.</desc>
<speed>0.020000</speed>
</trkpt>
<trkpt lat="55.858257" lon="26.530903">
<ele>92.065491</ele>
<time>2010-07-18T13:53:42Z</time>
<desc>lat.=55.858257, lon.=26.530903, Alt.=92.065491m. Speed=0.000000m/h.</desc>
<speed>0.000000</speed>
</trkpt>
<trkpt lat="55.858257" lon="26.530903">
<ele>92.069397</ele>
<time>2010-07-18T13:53:43Z</time>
<desc>lat.=55.858257, lon.=26.530903, Alt.=92.069397m. Speed=0.000000m/h.</desc>
<speed>0.000000</speed>
</trkpt>
<trkpt lat="55.858257" lon="26.530903">
<ele>92.071350</ele>
<time>2010-07-18T13:53:44Z</time>
<desc>lat.=55.858257, lon.=26.530903, Alt.=92.071350m. Speed=0.072000m/h.</desc>
<speed>0.020000</speed>
</trkpt>
<trkpt lat="55.858257" lon="26.530903">
<ele>92.077209</ele>
<time>2010-07-18T13:53:45Z</time>
<desc>lat.=55.858257, lon.=26.530903, Alt.=92.077209m. Speed=0.000000m/h.</desc>
<speed>0.000000</speed>
</trkpt>
<trkpt lat="55.858257" lon="26.530903">
<ele>92.085022</ele>
<time>2010-07-18T13:53:46Z</time>
<desc>lat.=55.858257, lon.=26.530903, Alt.=92.085022m. Speed=0.000000m/h.</desc>
<speed>0.000000</speed>
</trkpt>
<trkpt lat="55.858257" lon="26.530903">
<ele>92.088928</ele>
<time>2010-07-18T13:53:47Z</time>
<desc>lat.=55.858257, lon.=26.530903, Alt.=92.088928m. Speed=0.000000m/h.</desc>
<speed>0.000000</speed>
</trkpt>
<trkpt lat="55.858257" lon="26.530903">
<ele>92.090881</ele>
<time>2010-07-18T13:53:48Z</time>
<desc>lat.=55.858257, lon.=26.530903, Alt.=92.090881m. Speed=0.000000m/h.</desc>
<speed>0.000000</speed>
</trkpt>
<trkpt lat="55.858257" lon="26.530903">
<ele>92.096741</ele>
<time>2010-07-18T13:53:49Z</time>
<desc>lat.=55.858257, lon.=26.530903, Alt.=92.096741m. Speed=0.000000m/h.</desc>
<speed>0.000000</speed>
</trkpt>
<trkpt lat="55.858257" lon="26.530903">
<ele>92.100647</ele>
<time>2010-07-18T13:53:50Z</time>
<desc>lat.=55.858257, lon.=26.530903, Alt.=92.100647m. Speed=0.000000m/h.</desc>
<speed>0.000000</speed>
</trkpt>
<trkpt lat="55.858257" lon="26.530903">
<ele>92.106506</ele>
<time>2010-07-18T13:53:51Z</time>
<desc>lat.=55.858257, lon.=26.530903, Alt.=92.106506m. Speed=0.000000m/h.</desc>
<speed>0.000000</speed>
</trkpt>
<trkpt lat="55.858257" lon="26.530903">
<ele>92.114319</ele>
<time>2010-07-18T13:53:52Z</time>
<desc>lat.=55.858257, lon.=26.530903, Alt.=92.114319m. Speed=0.180000m/h.</desc>
<speed>0.050000</speed>
</trkpt>
<trkpt lat="55.858257" lon="26.530903">
<ele>92.118225</ele>
<time>2010-07-18T13:53:53Z</time>
<desc>lat.=55.858257, lon.=26.530903, Alt.=92.118225m. Speed=0.180000m/h.</desc>
<speed>0.050000</speed>
</trkpt>
<trkpt lat="55.858257" lon="26.530903">
<ele>92.108459</ele>
<time>2010-07-18T13:53:54Z</time>
<desc>lat.=55.858257, lon.=26.530903, Alt.=92.108459m. Speed=0.540000m/h.</desc>
<speed>0.150000</speed>
</trkpt>
<trkpt lat="55.858257" lon="26.530903">
<ele>92.108459</ele>
<time>2010-07-18T13:53:55Z</time>
<desc>lat.=55.858257, lon.=26.530903, Alt.=92.108459m. Speed=0.324000m/h.</desc>
<speed>0.090000</speed>
</trkpt>
<trkpt lat="55.858257" lon="26.530905">
<ele>92.077209</ele>
<time>2010-07-18T13:53:56Z</time>
<desc>lat.=55.858257, lon.=26.530905, Alt.=92.077209m. Speed=0.144000m/h.</desc>
<speed>0.040000</speed>
</trkpt>
<trkpt lat="55.858257" lon="26.530905">
<ele>92.081116</ele>
<time>2010-07-18T13:53:57Z</time>
<desc>lat.=55.858257, lon.=26.530905, Alt.=92.081116m. Speed=0.432000m/h.</desc>
<speed>0.120000</speed>
</trkpt>
<trkpt lat="55.858257" lon="26.530903">
<ele>92.090881</ele>
<time>2010-07-18T13:53:58Z</time>
<desc>lat.=55.858257, lon.=26.530903, Alt.=92.090881m. Speed=0.072000m/h.</desc>
<speed>0.020000</speed>
</trkpt>
<trkpt lat="55.858257" lon="26.530903">
<ele>92.098694</ele>
<time>2010-07-18T13:53:59Z</time>
<desc>lat.=55.858257, lon.=26.530903, Alt.=92.098694m. Speed=0.216000m/h.</desc>
<speed>0.060000</speed>
</trkpt>
<trkpt lat="55.858257" lon="26.530903">
<ele>92.108459</ele>
<time>2010-07-18T13:54:00Z</time>
<desc>lat.=55.858257, lon.=26.530903, Alt.=92.108459m. Speed=0.072000m/h.</desc>
<speed>0.020000</speed>
</trkpt>
<trkpt lat="55.858257" lon="26.530903">
<ele>92.112366</ele>
<time>2010-07-18T13:54:01Z</time>
<desc>lat.=55.858257, lon.=26.530903, Alt.=92.112366m. Speed=0.072000m/h.</desc>
<speed>0.020000</speed>
</trkpt>
<trkpt lat="55.858257" lon="26.530903">
<ele>92.118225</ele>
<time>2010-07-18T13:54:02Z</time>
<desc>lat.=55.858257, lon.=26.530903, Alt.=92.118225m. Speed=0.000000m/h.</desc>
<speed>0.000000</speed>
</trkpt>
<trkpt lat="55.858257" lon="26.530903">
<ele>92.120178</ele>
<time>2010-07-18T13:54:03Z</time>
<desc>lat.=55.858257, lon.=26.530903, Alt.=92.120178m. Speed=0.108000m/h.</desc>
<speed>0.030000</speed>
</trkpt>
<trkpt lat="55.858257" lon="26.530903">
<ele>92.131897</ele>
<time>2010-07-18T13:54:04Z</time>
<desc>lat.=55.858257, lon.=26.530903, Alt.=92.131897m. Speed=0.072000m/h.</desc>
<speed>0.020000</speed>
</trkpt>
<trkpt lat="55.858257" lon="26.530903">
<ele>92.145569</ele>
<time>2010-07-18T13:54:05Z</time>
<desc>lat.=55.858257, lon.=26.530903, Alt.=92.145569m. Speed=0.036000m/h.</desc>
<speed>0.010000</speed>
</trkpt>
<trkpt lat="55.858257" lon="26.530903">
<ele>92.157288</ele>
<time>2010-07-18T13:54:06Z</time>
<desc>lat.=55.858257, lon.=26.530903, Alt.=92.157288m. Speed=0.036000m/h.</desc>
<speed>0.010000</speed>
</trkpt>
<trkpt lat="55.858257" lon="26.530903">
<ele>92.165100</ele>
<time>2010-07-18T13:54:07Z</time>
<desc>lat.=55.858257, lon.=26.530903, Alt.=92.165100m. Speed=0.000000m/h.</desc>
<speed>0.000000</speed>
</trkpt>
<trkpt lat="55.858257" lon="26.530903">
<ele>92.170959</ele>
<time>2010-07-18T13:54:08Z</time>
<desc>lat.=55.858257, lon.=26.530903, Alt.=92.170959m. Speed=0.000000m/h.</desc>
<speed>0.000000</speed>
</trkpt>
<trkpt lat="55.858257" lon="26.530903">
<ele>92.174866</ele>
<time>2010-07-18T13:54:09Z</time>
<desc>lat.=55.858257, lon.=26.530903, Alt.=92.174866m. Speed=0.000000m/h.</desc>
<speed>0.000000</speed>
</trkpt>
<trkpt lat="55.858257" lon="26.530903">
<ele>92.182678</ele>
<time>2010-07-18T13:54:10Z</time>
<desc>lat.=55.858257, lon.=26.530903, Alt.=92.182678m. Speed=0.000000m/h.</desc>
<speed>0.000000</speed>
</trkpt>
<trkpt lat="55.858257" lon="26.530903">
<ele>92.188538</ele>
<time>2010-07-18T13:54:11Z</time>
<desc>lat.=55.858257, lon.=26.530903, Alt.=92.188538m. Speed=0.000000m/h.</desc>
<speed>0.000000</speed>
</trkpt>
<trkpt lat="55.858257" lon="26.530903">
<ele>92.194397</ele>
<time>2010-07-18T13:54:12Z</time>
<desc>lat.=55.858257, lon.=26.530903, Alt.=92.194397m. Speed=0.000000m/h.</desc>
<speed>0.000000</speed>
</trkpt>
<trkpt lat="55.858257" lon="26.530903">
<ele>92.200256</ele>
<time>2010-07-18T13:54:13Z</time>
<desc>lat.=55.858257, lon.=26.530903, Alt.=92.200256m. Speed=0.036000m/h.</desc>
<speed>0.010000</speed>
</trkpt>
<trkpt lat="55.858257" lon="26.530903">
<ele>92.206116</ele>
<time>2010-07-18T13:54:14Z</time>
<desc>lat.=55.858257, lon.=26.530903, Alt.=92.206116m. Speed=0.000000m/h.</desc>
<speed>0.000000</speed>
</trkpt>
<trkpt lat="55.858257" lon="26.530903">
<ele>92.206116</ele>
<time>2010-07-18T13:54:15Z</time>
<desc>lat.=55.858257, lon.=26.530903, Alt.=92.206116m. Speed=0.000000m/h.</desc>
<speed>0.000000</speed>
</trkpt>
<trkpt lat="55.858257" lon="26.530903">
<ele>92.211975</ele>
<time>2010-07-18T13:54:16Z</time>
<desc>lat.=55.858257, lon.=26.530903, Alt.=92.211975m. Speed=0.000000m/h.</desc>
<speed>0.000000</speed>
</trkpt>
<trkpt lat="55.858257" lon="26.530903">
<ele>92.215881</ele>
<time>2010-07-18T13:54:17Z</time>
<desc>lat.=55.858257, lon.=26.530903, Alt.=92.215881m. Speed=0.000000m/h.</desc>
<speed>0.000000</speed>
</trkpt>
<trkpt lat="55.858257" lon="26.530903">
<ele>92.219788</ele>
<time>2010-07-18T13:54:18Z</time>
<desc>lat.=55.858257, lon.=26.530903, Alt.=92.219788m. Speed=0.036000m/h.</desc>
<speed>0.010000</speed>
</trkpt>
<trkpt lat="55.858257" lon="26.530903">
<ele>92.227600</ele>
<time>2010-07-18T13:54:19Z</time>
<desc>lat.=55.858257, lon.=26.530903, Alt.=92.227600m. Speed=0.036000m/h.</desc>
<speed>0.010000</speed>
</trkpt>
<trkpt lat="55.858257" lon="26.530903">
<ele>92.231506</ele>
<time>2010-07-18T13:54:20Z</time>
<desc>lat.=55.858257, lon.=26.530903, Alt.=92.231506m. Speed=0.000000m/h.</desc>
<speed>0.000000</speed>
</trkpt>
<trkpt lat="55.858257" lon="26.530903">
<ele>92.233459</ele>
<time>2010-07-18T13:54:21Z</time>
<desc>lat.=55.858257, lon.=26.530903, Alt.=92.233459m. Speed=0.036000m/h.</desc>
<speed>0.010000</speed>
</trkpt>
<trkpt lat="55.858257" lon="26.530901">
<ele>92.241272</ele>
<time>2010-07-18T13:54:22Z</time>
<desc>lat.=55.858257, lon.=26.530901, Alt.=92.241272m. Speed=0.036000m/h.</desc>
<speed>0.010000</speed>
</trkpt>
<trkpt lat="55.858257" lon="26.530901">
<ele>92.251038</ele>
<time>2010-07-18T13:54:23Z</time>
<desc>lat.=55.858257, lon.=26.530901, Alt.=92.251038m. Speed=0.000000m/h.</desc>
<speed>0.000000</speed>
</trkpt>
<trkpt lat="55.858257" lon="26.530901">
<ele>92.258850</ele>
<time>2010-07-18T13:54:24Z</time>
<desc>lat.=55.858257, lon.=26.530901, Alt.=92.258850m. Speed=0.000000m/h.</desc>
<speed>0.000000</speed>
</trkpt>
<trkpt lat="55.858257" lon="26.530901">
<ele>92.268616</ele>
<time>2010-07-18T13:54:25Z</time>
<desc>lat.=55.858257, lon.=26.530901, Alt.=92.268616m. Speed=0.000000m/h.</desc>
<speed>0.000000</speed>
</trkpt>
<trkpt lat="55.858257" lon="26.530901">
<ele>92.276428</ele>
<time>2010-07-18T13:54:26Z</time>
<desc>lat.=55.858257, lon.=26.530901, Alt.=92.276428m. Speed=0.000000m/h.</desc>
<speed>0.000000</speed>
</trkpt>
<trkpt lat="55.858257" lon="26.530901">
<ele>92.284241</ele>
<time>2010-07-18T13:54:27Z</time>
<desc>lat.=55.858257, lon.=26.530901, Alt.=92.284241m. Speed=0.000000m/h.</desc>
<speed>0.000000</speed>
</trkpt>
<trkpt lat="55.858257" lon="26.530901">
<ele>92.292053</ele>
<time>2010-07-18T13:54:28Z</time>
<desc>lat.=55.858257, lon.=26.530901, Alt.=92.292053m. Speed=0.036000m/h.</desc>
<speed>0.010000</speed>
</trkpt>
<trkpt lat="55.858257" lon="26.530901">
<ele>92.297913</ele>
<time>2010-07-18T13:54:29Z</time>
<desc>lat.=55.858257, lon.=26.530901, Alt.=92.297913m. Speed=0.036000m/h.</desc>
<speed>0.010000</speed>
</trkpt>
<trkpt lat="55.858257" lon="26.530901">
<ele>92.299866</ele>
<time>2010-07-18T13:54:30Z</time>
<desc>lat.=55.858257, lon.=26.530901, Alt.=92.299866m. Speed=0.036000m/h.</desc>
<speed>0.010000</speed>
</trkpt>
<trkpt lat="55.858257" lon="26.530901">
<ele>92.301819</ele>
<time>2010-07-18T13:54:31Z</time>
<desc>lat.=55.858257, lon.=26.530901, Alt.=92.301819m. Speed=0.000000m/h.</desc>
<speed>0.000000</speed>
</trkpt>
<trkpt lat="55.858257" lon="26.530901">
<ele>92.305725</ele>
<time>2010-07-18T13:54:32Z</time>
<desc>lat.=55.858257, lon.=26.530901, Alt.=92.305725m. Speed=0.000000m/h.</desc>
<speed>0.000000</speed>
</trkpt>
<trkpt lat="55.858257" lon="26.530901">
<ele>92.307678</ele>
<time>2010-07-18T13:54:33Z</time>
<desc>lat.=55.858257, lon.=26.530901, Alt.=92.307678m. Speed=0.000000m/h.</desc>
<speed>0.000000</speed>
</trkpt>
<trkpt lat="55.858257" lon="26.530901">
<ele>92.315491</ele>
<time>2010-07-18T13:54:34Z</time>
<desc>lat.=55.858257, lon.=26.530901, Alt.=92.315491m. Speed=0.000000m/h.</desc>
<speed>0.000000</speed>
</trkpt>
<trkpt lat="55.858257" lon="26.530901">
<ele>92.321350</ele>
<time>2010-07-18T13:54:35Z</time>
<desc>lat.=55.858257, lon.=26.530901, Alt.=92.321350m. Speed=0.036000m/h.</desc>
<speed>0.010000</speed>
</trkpt>
<trkpt lat="55.858257" lon="26.530901">
<ele>92.327209</ele>
<time>2010-07-18T13:54:36Z</time>
<desc>lat.=55.858257, lon.=26.530901, Alt.=92.327209m. Speed=0.000000m/h.</desc>
<speed>0.000000</speed>
</trkpt>
<trkpt lat="55.858257" lon="26.530901">
<ele>92.333069</ele>
<time>2010-07-18T13:54:37Z</time>
<desc>lat.=55.858257, lon.=26.530901, Alt.=92.333069m. Speed=0.252000m/h.</desc>
<speed>0.070000</speed>
</trkpt>
<trkpt lat="55.858257" lon="26.530901">
<ele>92.331116</ele>
<time>2010-07-18T13:54:38Z</time>
<desc>lat.=55.858257, lon.=26.530901, Alt.=92.331116m. Speed=0.072000m/h.</desc>
<speed>0.020000</speed>
</trkpt>
<trkpt lat="55.858257" lon="26.530901">
<ele>92.323303</ele>
<time>2010-07-18T13:54:39Z</time>
<desc>lat.=55.858257, lon.=26.530901, Alt.=92.323303m. Speed=0.036000m/h.</desc>
<speed>0.010000</speed>
</trkpt>
<trkpt lat="55.858257" lon="26.530903">
<ele>92.317444</ele>
<time>2010-07-18T13:54:40Z</time>
<desc>lat.=55.858257, lon.=26.530903, Alt.=92.317444m. Speed=0.108000m/h.</desc>
<speed>0.030000</speed>
</trkpt>
<trkpt lat="55.858257" lon="26.530903">
<ele>92.317444</ele>
<time>2010-07-18T13:54:41Z</time>
<desc>lat.=55.858257, lon.=26.530903, Alt.=92.317444m. Speed=0.036000m/h.</desc>
<speed>0.010000</speed>
</trkpt>
<trkpt lat="55.858257" lon="26.530903">
<ele>92.317444</ele>
<time>2010-07-18T13:54:42Z</time>
<desc>lat.=55.858257, lon.=26.530903, Alt.=92.317444m. Speed=0.072000m/h.</desc>
<speed>0.020000</speed>
</trkpt>
<trkpt lat="55.858261" lon="26.530903">
<ele>92.313538</ele>
<time>2010-07-18T13:54:43Z</time>
<desc>lat.=55.858261, lon.=26.530903, Alt.=92.313538m. Speed=0.360000m/h.</desc>
<speed>0.100000</speed>
</trkpt>
<trkpt lat="55.858261" lon="26.530903">
<ele>92.311584</ele>
<time>2010-07-18T13:54:44Z</time>
<desc>lat.=55.858261, lon.=26.530903, Alt.=92.311584m. Speed=0.288000m/h.</desc>
<speed>0.080000</speed>
</trkpt>
<trkpt lat="55.858261" lon="26.530903">
<ele>92.280334</ele>
<time>2010-07-18T13:54:45Z</time>
<desc>lat.=55.858261, lon.=26.530903, Alt.=92.280334m. Speed=0.180000m/h.</desc>
<speed>0.050000</speed>
</trkpt>
<trkpt lat="55.858261" lon="26.530903">
<ele>92.211975</ele>
<time>2010-07-18T13:54:46Z</time>
<desc>lat.=55.858261, lon.=26.530903, Alt.=92.211975m. Speed=0.108000m/h.</desc>
<speed>0.030000</speed>
</trkpt>
<trkpt lat="55.858261" lon="26.530903">
<ele>92.210022</ele>
<time>2010-07-18T13:54:47Z</time>
<desc>lat.=55.858261, lon.=26.530903, Alt.=92.210022m. Speed=0.000000m/h.</desc>
<speed>0.000000</speed>
</trkpt>
<trkpt lat="55.858261" lon="26.530903">
<ele>92.215881</ele>
<time>2010-07-18T13:54:48Z</time>
<desc>lat.=55.858261, lon.=26.530903, Alt.=92.215881m. Speed=0.000000m/h.</desc>
<speed>0.000000</speed>
</trkpt>
<trkpt lat="55.858261" lon="26.530903">
<ele>92.221741</ele>
<time>2010-07-18T13:54:49Z</time>
<desc>lat.=55.858261, lon.=26.530903, Alt.=92.221741m. Speed=0.000000m/h.</desc>
<speed>0.000000</speed>
</trkpt>
<trkpt lat="55.858261" lon="26.530903">
<ele>92.225647</ele>
<time>2010-07-18T13:54:50Z</time>
<desc>lat.=55.858261, lon.=26.530903, Alt.=92.225647m. Speed=0.000000m/h.</desc>
<speed>0.000000</speed>
</trkpt>
<trkpt lat="55.858261" lon="26.530903">
<ele>92.229553</ele>
<time>2010-07-18T13:54:51Z</time>
<desc>lat.=55.858261, lon.=26.530903, Alt.=92.229553m. Speed=0.000000m/h.</desc>
<speed>0.000000</speed>
</trkpt>
<trkpt lat="55.858261" lon="26.530903">
<ele>92.231506</ele>
<time>2010-07-18T13:54:52Z</time>
<desc>lat.=55.858261, lon.=26.530903, Alt.=92.231506m. Speed=0.000000m/h.</desc>
<speed>0.000000</speed>
</trkpt>
<trkpt lat="55.858261" lon="26.530903">
<ele>92.233459</ele>
<time>2010-07-18T13:54:53Z</time>
<desc>lat.=55.858261, lon.=26.530903, Alt.=92.233459m. Speed=0.000000m/h.</desc>
<speed>0.000000</speed>
</trkpt>
<trkpt lat="55.858261" lon="26.530903">
<ele>92.235413</ele>
<time>2010-07-18T13:54:54Z</time>
<desc>lat.=55.858261, lon.=26.530903, Alt.=92.235413m. Speed=0.000000m/h.</desc>
<speed>0.000000</speed>
</trkpt>
<trkpt lat="55.858261" lon="26.530903">
<ele>92.237366</ele>
<time>2010-07-18T13:54:55Z</time>
<desc>lat.=55.858261, lon.=26.530903, Alt.=92.237366m. Speed=0.000000m/h.</desc>
<speed>0.000000</speed>
</trkpt>
<trkpt lat="55.858261" lon="26.530903">
<ele>92.237366</ele>
<time>2010-07-18T13:54:56Z</time>
<desc>lat.=55.858261, lon.=26.530903, Alt.=92.237366m. Speed=0.000000m/h.</desc>
<speed>0.000000</speed>
</trkpt>
<trkpt lat="55.858261" lon="26.530903">
<ele>92.241272</ele>
<time>2010-07-18T13:54:57Z</time>
<desc>lat.=55.858261, lon.=26.530903, Alt.=92.241272m. Speed=0.000000m/h.</desc>
<speed>0.000000</speed>
</trkpt>
<trkpt lat="55.858261" lon="26.530903">
<ele>92.249084</ele>
<time>2010-07-18T13:54:58Z</time>
<desc>lat.=55.858261, lon.=26.530903, Alt.=92.249084m. Speed=0.036000m/h.</desc>
<speed>0.010000</speed>
</trkpt>
<trkpt lat="55.858261" lon="26.530903">
<ele>92.252991</ele>
<time>2010-07-18T13:54:59Z</time>
<desc>lat.=55.858261, lon.=26.530903, Alt.=92.252991m. Speed=0.000000m/h.</desc>
<speed>0.000000</speed>
</trkpt>
<trkpt lat="55.858261" lon="26.530903">
<ele>92.258850</ele>
<time>2010-07-18T13:55:00Z</time>
<desc>lat.=55.858261, lon.=26.530903, Alt.=92.258850m. Speed=0.000000m/h.</desc>
<speed>0.000000</speed>
</trkpt>
<trkpt lat="55.858261" lon="26.530903">
<ele>92.260803</ele>
<time>2010-07-18T13:55:01Z</time>
<desc>lat.=55.858261, lon.=26.530903, Alt.=92.260803m. Speed=0.000000m/h.</desc>
<speed>0.000000</speed>
</trkpt>
<trkpt lat="55.858261" lon="26.530903">
<ele>92.266663</ele>
<time>2010-07-18T13:55:02Z</time>
<desc>lat.=55.858261, lon.=26.530903, Alt.=92.266663m. Speed=0.036000m/h.</desc>
<speed>0.010000</speed>
</trkpt>
<trkpt lat="55.858261" lon="26.530903">
<ele>92.270569</ele>
<time>2010-07-18T13:55:03Z</time>
<desc>lat.=55.858261, lon.=26.530903, Alt.=92.270569m. Speed=0.108000m/h.</desc>
<speed>0.030000</speed>
</trkpt>
<trkpt lat="55.858261" lon="26.530903">
<ele>92.274475</ele>
<time>2010-07-18T13:55:04Z</time>
<desc>lat.=55.858261, lon.=26.530903, Alt.=92.274475m. Speed=0.036000m/h.</desc>
<speed>0.010000</speed>
</trkpt>
<trkpt lat="55.858261" lon="26.530903">
<ele>92.278381</ele>
<time>2010-07-18T13:55:05Z</time>
<desc>lat.=55.858261, lon.=26.530903, Alt.=92.278381m. Speed=0.108000m/h.</desc>
<speed>0.030000</speed>
</trkpt>
<trkpt lat="55.858261" lon="26.530903">
<ele>92.278381</ele>
<time>2010-07-18T13:55:06Z</time>
<desc>lat.=55.858261, lon.=26.530903, Alt.=92.278381m. Speed=0.288000m/h.</desc>
<speed>0.080000</speed>
</trkpt>
<trkpt lat="55.858261" lon="26.530903">
<ele>92.278381</ele>
<time>2010-07-18T13:55:07Z</time>
<desc>lat.=55.858261, lon.=26.530903, Alt.=92.278381m. Speed=0.036000m/h.</desc>
<speed>0.010000</speed>
</trkpt>
<trkpt lat="55.858261" lon="26.530903">
<ele>92.280334</ele>
<time>2010-07-18T13:55:08Z</time>
<desc>lat.=55.858261, lon.=26.530903, Alt.=92.280334m. Speed=0.036000m/h.</desc>
<speed>0.010000</speed>
</trkpt>
<trkpt lat="55.858261" lon="26.530903">
<ele>92.282288</ele>
<time>2010-07-18T13:55:09Z</time>
<desc>lat.=55.858261, lon.=26.530903, Alt.=92.282288m. Speed=0.108000m/h.</desc>
<speed>0.030000</speed>
</trkpt>
<trkpt lat="55.858261" lon="26.530903">
<ele>92.284241</ele>
<time>2010-07-18T13:55:10Z</time>
<desc>lat.=55.858261, lon.=26.530903, Alt.=92.284241m. Speed=0.216000m/h.</desc>
<speed>0.060000</speed>
</trkpt>
<trkpt lat="55.858261" lon="26.530903">
<ele>92.286194</ele>
<time>2010-07-18T13:55:11Z</time>
<desc>lat.=55.858261, lon.=26.530903, Alt.=92.286194m. Speed=0.036000m/h.</desc>
<speed>0.010000</speed>
</trkpt>
<trkpt lat="55.858261" lon="26.530903">
<ele>92.288147</ele>
<time>2010-07-18T13:55:12Z</time>
<desc>lat.=55.858261, lon.=26.530903, Alt.=92.288147m. Speed=0.000000m/h.</desc>
<speed>0.000000</speed>
</trkpt>
<trkpt lat="55.858261" lon="26.530903">
<ele>92.292053</ele>
<time>2010-07-18T13:55:13Z</time>
<desc>lat.=55.858261, lon.=26.530903, Alt.=92.292053m. Speed=0.072000m/h.</desc>
<speed>0.020000</speed>
</trkpt>
<trkpt lat="55.858261" lon="26.530903">
<ele>92.292053</ele>
<time>2010-07-18T13:55:14Z</time>
<desc>lat.=55.858261, lon.=26.530903, Alt.=92.292053m. Speed=0.108000m/h.</desc>
<speed>0.030000</speed>
</trkpt>
<trkpt lat="55.858261" lon="26.530903">
<ele>92.294006</ele>
<time>2010-07-18T13:55:15Z</time>
<desc>lat.=55.858261, lon.=26.530903, Alt.=92.294006m. Speed=0.144000m/h.</desc>
<speed>0.040000</speed>
</trkpt>
<trkpt lat="55.858261" lon="26.530903">
<ele>92.294006</ele>
<time>2010-07-18T13:55:16Z</time>
<desc>lat.=55.858261, lon.=26.530903, Alt.=92.294006m. Speed=0.072000m/h.</desc>
<speed>0.020000</speed>
</trkpt>
<trkpt lat="55.858261" lon="26.530901">
<ele>92.294006</ele>
<time>2010-07-18T13:55:17Z</time>
<desc>lat.=55.858261, lon.=26.530901, Alt.=92.294006m. Speed=0.072000m/h.</desc>
<speed>0.020000</speed>
</trkpt>
<trkpt lat="55.858261" lon="26.530901">
<ele>92.294006</ele>
<time>2010-07-18T13:55:18Z</time>
<desc>lat.=55.858261, lon.=26.530901, Alt.=92.294006m. Speed=0.144000m/h.</desc>
<speed>0.040000</speed>
</trkpt>
<trkpt lat="55.858261" lon="26.530903">
<ele>92.294006</ele>
<time>2010-07-18T13:55:19Z</time>
<desc>lat.=55.858261, lon.=26.530903, Alt.=92.294006m. Speed=0.324000m/h.</desc>
<speed>0.090000</speed>
</trkpt>
<trkpt lat="55.858261" lon="26.530903">
<ele>92.294006</ele>
<time>2010-07-18T13:55:20Z</time>
<desc>lat.=55.858261, lon.=26.530903, Alt.=92.294006m. Speed=0.252000m/h.</desc>
<speed>0.070000</speed>
</trkpt>
<trkpt lat="55.858261" lon="26.530901">
<ele>92.340881</ele>
<time>2010-07-18T13:55:21Z</time>
<desc>lat.=55.858261, lon.=26.530901, Alt.=92.340881m. Speed=0.360000m/h.</desc>
<speed>0.100000</speed>
</trkpt>
<trkpt lat="55.858261" lon="26.530901">
<ele>92.340881</ele>
<time>2010-07-18T13:55:22Z</time>
<desc>lat.=55.858261, lon.=26.530901, Alt.=92.340881m. Speed=0.360000m/h.</desc>
<speed>0.100000</speed>
</trkpt>
<trkpt lat="55.858261" lon="26.530901">
<ele>92.340881</ele>
<time>2010-07-18T13:55:23Z</time>
<desc>lat.=55.858261, lon.=26.530901, Alt.=92.340881m. Speed=0.288000m/h.</desc>
<speed>0.080000</speed>
</trkpt>
<trkpt lat="55.858261" lon="26.530901">
<ele>92.313538</ele>
<time>2010-07-18T13:55:24Z</time>
<desc>lat.=55.858261, lon.=26.530901, Alt.=92.313538m. Speed=0.144000m/h.</desc>
<speed>0.040000</speed>
</trkpt>
<trkpt lat="55.858261" lon="26.530901">
<ele>92.311584</ele>
<time>2010-07-18T13:55:25Z</time>
<desc>lat.=55.858261, lon.=26.530901, Alt.=92.311584m. Speed=0.180000m/h.</desc>
<speed>0.050000</speed>
</trkpt>
<trkpt lat="55.858261" lon="26.530901">
<ele>92.311584</ele>
<time>2010-07-18T13:55:26Z</time>
<desc>lat.=55.858261, lon.=26.530901, Alt.=92.311584m. Speed=0.180000m/h.</desc>
<speed>0.050000</speed>
</trkpt>
<trkpt lat="55.858261" lon="26.530901">
<ele>92.313538</ele>
<time>2010-07-18T13:55:27Z</time>
<desc>lat.=55.858261, lon.=26.530901, Alt.=92.313538m. Speed=0.468000m/h.</desc>
<speed>0.130000</speed>
</trkpt>
<trkpt lat="55.858261" lon="26.530901">
<ele>92.313538</ele>
<time>2010-07-18T13:55:28Z</time>
<desc>lat.=55.858261, lon.=26.530901, Alt.=92.313538m. Speed=0.108000m/h.</desc>
<speed>0.030000</speed>
</trkpt>
<trkpt lat="55.858261" lon="26.530901">
<ele>92.321350</ele>
<time>2010-07-18T13:55:29Z</time>
<desc>lat.=55.858261, lon.=26.530901, Alt.=92.321350m. Speed=0.288000m/h.</desc>
<speed>0.080000</speed>
</trkpt>
<trkpt lat="55.858261" lon="26.530901">
<ele>92.327209</ele>
<time>2010-07-18T13:55:30Z</time>
<desc>lat.=55.858261, lon.=26.530901, Alt.=92.327209m. Speed=0.036000m/h.</desc>
<speed>0.010000</speed>
</trkpt>
<trkpt lat="55.858261" lon="26.530901">
<ele>92.327209</ele>
<time>2010-07-18T13:55:31Z</time>
<desc>lat.=55.858261, lon.=26.530901, Alt.=92.327209m. Speed=0.000000m/h.</desc>
<speed>0.000000</speed>
</trkpt>
<trkpt lat="55.858261" lon="26.530901">
<ele>92.327209</ele>
<time>2010-07-18T13:55:32Z</time>
<desc>lat.=55.858261, lon.=26.530901, Alt.=92.327209m. Speed=0.000000m/h.</desc>
<speed>0.000000</speed>
</trkpt>
<trkpt lat="55.858261" lon="26.530901">
<ele>92.329163</ele>
<time>2010-07-18T13:55:33Z</time>
<desc>lat.=55.858261, lon.=26.530901, Alt.=92.329163m. Speed=0.000000m/h.</desc>
<speed>0.000000</speed>
</trkpt>
<trkpt lat="55.858261" lon="26.530901">
<ele>92.327209</ele>
<time>2010-07-18T13:55:34Z</time>
<desc>lat.=55.858261, lon.=26.530901, Alt.=92.327209m. Speed=0.252000m/h.</desc>
<speed>0.070000</speed>
</trkpt>
<trkpt lat="55.858261" lon="26.530899">
<ele>92.325256</ele>
<time>2010-07-18T13:55:35Z</time>
<desc>lat.=55.858261, lon.=26.530899, Alt.=92.325256m. Speed=0.252000m/h.</desc>
<speed>0.070000</speed>
</trkpt>
<trkpt lat="55.858261" lon="26.530899">
<ele>92.323303</ele>
<time>2010-07-18T13:55:36Z</time>
<desc>lat.=55.858261, lon.=26.530899, Alt.=92.323303m. Speed=0.468000m/h.</desc>
<speed>0.130000</speed>
</trkpt>
<trkpt lat="55.858261" lon="26.530901">
<ele>92.321350</ele>
<time>2010-07-18T13:55:37Z</time>
<desc>lat.=55.858261, lon.=26.530901, Alt.=92.321350m. Speed=0.108000m/h.</desc>
<speed>0.030000</speed>
</trkpt>
<trkpt lat="55.858261" lon="26.530901">
<ele>92.327209</ele>
<time>2010-07-18T13:55:38Z</time>
<desc>lat.=55.858261, lon.=26.530901, Alt.=92.327209m. Speed=0.036000m/h.</desc>
<speed>0.010000</speed>
</trkpt>
<trkpt lat="55.858261" lon="26.530901">
<ele>92.329163</ele>
<time>2010-07-18T13:55:39Z</time>
<desc>lat.=55.858261, lon.=26.530901, Alt.=92.329163m. Speed=0.072000m/h.</desc>
<speed>0.020000</speed>
</trkpt>
<trkpt lat="55.858261" lon="26.530899">
<ele>92.329163</ele>
<time>2010-07-18T13:55:40Z</time>
<desc>lat.=55.858261, lon.=26.530899, Alt.=92.329163m. Speed=0.180000m/h.</desc>
<speed>0.050000</speed>
</trkpt>
<trkpt lat="55.858261" lon="26.530899">
<ele>92.331116</ele>
<time>2010-07-18T13:55:41Z</time>
<desc>lat.=55.858261, lon.=26.530899, Alt.=92.331116m. Speed=0.216000m/h.</desc>
<speed>0.060000</speed>
</trkpt>
<trkpt lat="55.858261" lon="26.530899">
<ele>92.340881</ele>
<time>2010-07-18T13:55:42Z</time>
<desc>lat.=55.858261, lon.=26.530899, Alt.=92.340881m. Speed=0.072000m/h.</desc>
<speed>0.020000</speed>
</trkpt>
<trkpt lat="55.858261" lon="26.530899">
<ele>92.346741</ele>
<time>2010-07-18T13:55:43Z</time>
<desc>lat.=55.858261, lon.=26.530899, Alt.=92.346741m. Speed=0.144000m/h.</desc>
<speed>0.040000</speed>
</trkpt>
<trkpt lat="55.858261" lon="26.530899">
<ele>92.346741</ele>
<time>2010-07-18T13:55:44Z</time>
<desc>lat.=55.858261, lon.=26.530899, Alt.=92.346741m. Speed=0.144000m/h.</desc>
<speed>0.040000</speed>
</trkpt>
<trkpt lat="55.858261" lon="26.530899">
<ele>92.338928</ele>
<time>2010-07-18T13:55:45Z</time>
<desc>lat.=55.858261, lon.=26.530899, Alt.=92.338928m. Speed=0.000000m/h.</desc>
<speed>0.000000</speed>
</trkpt>
<trkpt lat="55.858261" lon="26.530899">
<ele>92.333069</ele>
<time>2010-07-18T13:55:46Z</time>
<desc>lat.=55.858261, lon.=26.530899, Alt.=92.333069m. Speed=0.000000m/h.</desc>
<speed>0.000000</speed>
</trkpt>
<trkpt lat="55.858261" lon="26.530899">
<ele>92.336975</ele>
<time>2010-07-18T13:55:47Z</time>
<desc>lat.=55.858261, lon.=26.530899, Alt.=92.336975m. Speed=0.000000m/h.</desc>
<speed>0.000000</speed>
</trkpt>
<trkpt lat="55.858261" lon="26.530899">
<ele>92.336975</ele>
<time>2010-07-18T13:55:48Z</time>
<desc>lat.=55.858261, lon.=26.530899, Alt.=92.336975m. Speed=0.108000m/h.</desc>
<speed>0.030000</speed>
</trkpt>
<trkpt lat="55.858261" lon="26.530899">
<ele>92.338928</ele>
<time>2010-07-18T13:55:49Z</time>
<desc>lat.=55.858261, lon.=26.530899, Alt.=92.338928m. Speed=0.072000m/h.</desc>
<speed>0.020000</speed>
</trkpt>
<trkpt lat="55.858261" lon="26.530899">
<ele>92.338928</ele>
<time>2010-07-18T13:55:50Z</time>
<desc>lat.=55.858261, lon.=26.530899, Alt.=92.338928m. Speed=0.108000m/h.</desc>
<speed>0.030000</speed>
</trkpt>
<trkpt lat="55.858261" lon="26.530899">
<ele>92.336975</ele>
<time>2010-07-18T13:55:51Z</time>
<desc>lat.=55.858261, lon.=26.530899, Alt.=92.336975m. Speed=0.108000m/h.</desc>
<speed>0.030000</speed>
</trkpt>
<trkpt lat="55.858261" lon="26.530899">
<ele>92.336975</ele>
<time>2010-07-18T13:55:52Z</time>
<desc>lat.=55.858261, lon.=26.530899, Alt.=92.336975m. Speed=0.108000m/h.</desc>
<speed>0.030000</speed>
</trkpt>
<trkpt lat="55.858261" lon="26.530897">
<ele>92.336975</ele>
<time>2010-07-18T13:55:53Z</time>
<desc>lat.=55.858261, lon.=26.530897, Alt.=92.336975m. Speed=0.144000m/h.</desc>
<speed>0.040000</speed>
</trkpt>
<trkpt lat="55.858261" lon="26.530899">
<ele>92.336975</ele>
<time>2010-07-18T13:55:54Z</time>
<desc>lat.=55.858261, lon.=26.530899, Alt.=92.336975m. Speed=0.144000m/h.</desc>
<speed>0.040000</speed>
</trkpt>
<trkpt lat="55.858261" lon="26.530899">
<ele>92.335022</ele>
<time>2010-07-18T13:55:55Z</time>
<desc>lat.=55.858261, lon.=26.530899, Alt.=92.335022m. Speed=0.036000m/h.</desc>
<speed>0.010000</speed>
</trkpt>
<trkpt lat="55.858261" lon="26.530899">
<ele>92.335022</ele>
<time>2010-07-18T13:55:56Z</time>
<desc>lat.=55.858261, lon.=26.530899, Alt.=92.335022m. Speed=0.036000m/h.</desc>
<speed>0.010000</speed>
</trkpt>
<trkpt lat="55.858257" lon="26.530899">
<ele>92.333069</ele>
<time>2010-07-18T13:55:57Z</time>
<desc>lat.=55.858257, lon.=26.530899, Alt.=92.333069m. Speed=0.108000m/h.</desc>
<speed>0.030000</speed>
</trkpt>
<trkpt lat="55.858257" lon="26.530899">
<ele>92.333069</ele>
<time>2010-07-18T13:55:58Z</time>
<desc>lat.=55.858257, lon.=26.530899, Alt.=92.333069m. Speed=0.108000m/h.</desc>
<speed>0.030000</speed>
</trkpt>
<trkpt lat="55.858261" lon="26.530899">
<ele>92.331116</ele>
<time>2010-07-18T13:55:59Z</time>
<desc>lat.=55.858261, lon.=26.530899, Alt.=92.331116m. Speed=0.252000m/h.</desc>
<speed>0.070000</speed>
</trkpt>
<trkpt lat="55.858261" lon="26.530901">
<ele>92.329163</ele>
<time>2010-07-18T13:56:00Z</time>
<desc>lat.=55.858261, lon.=26.530901, Alt.=92.329163m. Speed=0.036000m/h.</desc>
<speed>0.010000</speed>
</trkpt>
<trkpt lat="55.858261" lon="26.530901">
<ele>92.327209</ele>
<time>2010-07-18T13:56:01Z</time>
<desc>lat.=55.858261, lon.=26.530901, Alt.=92.327209m. Speed=0.216000m/h.</desc>
<speed>0.060000</speed>
</trkpt>
<trkpt lat="55.858261" lon="26.530901">
<ele>92.325256</ele>
<time>2010-07-18T13:56:02Z</time>
<desc>lat.=55.858261, lon.=26.530901, Alt.=92.325256m. Speed=0.108000m/h.</desc>
<speed>0.030000</speed>
</trkpt>
<trkpt lat="55.858261" lon="26.530901">
<ele>92.325256</ele>
<time>2010-07-18T13:56:03Z</time>
<desc>lat.=55.858261, lon.=26.530901, Alt.=92.325256m. Speed=0.000000m/h.</desc>
<speed>0.000000</speed>
</trkpt>
<trkpt lat="55.858261" lon="26.530901">
<ele>92.323303</ele>
<time>2010-07-18T13:56:04Z</time>
<desc>lat.=55.858261, lon.=26.530901, Alt.=92.323303m. Speed=0.288000m/h.</desc>
<speed>0.080000</speed>
</trkpt>
<trkpt lat="55.858261" lon="26.530899">
<ele>92.321350</ele>
<time>2010-07-18T13:56:05Z</time>
<desc>lat.=55.858261, lon.=26.530899, Alt.=92.321350m. Speed=0.252000m/h.</desc>
<speed>0.070000</speed>
</trkpt>
<trkpt lat="55.858261" lon="26.530899">
<ele>92.319397</ele>
<time>2010-07-18T13:56:06Z</time>
<desc>lat.=55.858261, lon.=26.530899, Alt.=92.319397m. Speed=0.288000m/h.</desc>
<speed>0.080000</speed>
</trkpt>
<trkpt lat="55.858257" lon="26.530901">
<ele>92.317444</ele>
<time>2010-07-18T13:56:07Z</time>
<desc>lat.=55.858257, lon.=26.530901, Alt.=92.317444m. Speed=0.216000m/h.</desc>
<speed>0.060000</speed>
</trkpt>
<trkpt lat="55.858257" lon="26.530899">
<ele>92.317444</ele>
<time>2010-07-18T13:56:08Z</time>
<desc>lat.=55.858257, lon.=26.530899, Alt.=92.317444m. Speed=1.332000m/h.</desc>
<speed>0.370000</speed>
</trkpt>
<trkpt lat="55.858261" lon="26.530901">
<ele>92.319397</ele>
<time>2010-07-18T13:56:09Z</time>
<desc>lat.=55.858261, lon.=26.530901, Alt.=92.319397m. Speed=2.124000m/h.</desc>
<speed>0.590000</speed>
</trkpt>
<trkpt lat="55.858269" lon="26.530903">
<ele>92.319397</ele>
<time>2010-07-18T13:56:10Z</time>
<desc>lat.=55.858269, lon.=26.530903, Alt.=92.319397m. Speed=3.204000m/h.</desc>
<speed>0.890000</speed>
</trkpt>
<trkpt lat="55.858276" lon="26.530901">
<ele>92.335022</ele>
<time>2010-07-18T13:56:11Z</time>
<desc>lat.=55.858276, lon.=26.530901, Alt.=92.335022m. Speed=9.900000m/h.</desc>
<speed>2.750000</speed>
</trkpt>
<trkpt lat="55.858280" lon="26.530897">
<ele>92.772522</ele>
<time>2010-07-18T13:56:12Z</time>
<desc>lat.=55.858280, lon.=26.530897, Alt.=92.772522m. Speed=4.716000m/h.</desc>
<speed>1.310000</speed>
</trkpt>
<trkpt lat="55.858307" lon="26.530895">
<ele>93.092834</ele>
<time>2010-07-18T13:56:13Z</time>
<desc>lat.=55.858307, lon.=26.530895, Alt.=93.092834m. Speed=7.200000m/h.</desc>
<speed>2.000000</speed>
</trkpt>
<trkpt lat="55.858326" lon="26.530895">
<ele>93.325256</ele>
<time>2010-07-18T13:56:14Z</time>
<desc>lat.=55.858326, lon.=26.530895, Alt.=93.325256m. Speed=8.460000m/h.</desc>
<speed>2.350000</speed>
</trkpt>
<trkpt lat="55.858364" lon="26.530893">
<ele>93.680725</ele>
<time>2010-07-18T13:56:15Z</time>
<desc>lat.=55.858364, lon.=26.530893, Alt.=93.680725m. Speed=11.196000m/h.</desc>
<speed>3.110000</speed>
</trkpt>
<trkpt lat="55.858395" lon="26.530901">
<ele>93.835022</ele>
<time>2010-07-18T13:56:16Z</time>
<desc>lat.=55.858395, lon.=26.530901, Alt.=93.835022m. Speed=13.212000m/h.</desc>
<speed>3.670000</speed>
</trkpt>
<trkpt lat="55.858425" lon="26.530907">
<ele>94.042053</ele>
<time>2010-07-18T13:56:17Z</time>
<desc>lat.=55.858425, lon.=26.530907, Alt.=94.042053m. Speed=11.160000m/h.</desc>
<speed>3.100000</speed>
</trkpt>
<trkpt lat="55.858463" lon="26.530912">
<ele>93.797913</ele>
<time>2010-07-18T13:56:18Z</time>
<desc>lat.=55.858463, lon.=26.530912, Alt.=93.797913m. Speed=15.912000m/h.</desc>
<speed>4.420000</speed>
</trkpt>
<trkpt lat="55.858517" lon="26.530924">
<ele>92.680725</ele>
<time>2010-07-18T13:56:19Z</time>
<desc>lat.=55.858517, lon.=26.530924, Alt.=92.680725m. Speed=17.604000m/h.</desc>
<speed>4.890000</speed>
</trkpt>
<trkpt lat="55.858562" lon="26.530931">
<ele>92.942444</ele>
<time>2010-07-18T13:56:20Z</time>
<desc>lat.=55.858562, lon.=26.530931, Alt.=92.942444m. Speed=15.768000m/h.</desc>
<speed>4.380000</speed>
</trkpt>
<trkpt lat="55.858608" lon="26.530941">
<ele>92.973694</ele>
<time>2010-07-18T13:56:21Z</time>
<desc>lat.=55.858608, lon.=26.530941, Alt.=92.973694m. Speed=14.148000m/h.</desc>
<speed>3.930000</speed>
</trkpt>
<trkpt lat="55.858650" lon="26.530947">
<ele>93.249084</ele>
<time>2010-07-18T13:56:22Z</time>
<desc>lat.=55.858650, lon.=26.530947, Alt.=93.249084m. Speed=16.200001m/h.</desc>
<speed>4.500000</speed>
</trkpt>
<trkpt lat="55.858696" lon="26.530964">
<ele>93.030334</ele>
<time>2010-07-18T13:56:23Z</time>
<desc>lat.=55.858696, lon.=26.530964, Alt.=93.030334m. Speed=14.688000m/h.</desc>
<speed>4.080000</speed>
</trkpt>
<trkpt lat="55.858734" lon="26.530977">
<ele>92.631897</ele>
<time>2010-07-18T13:56:24Z</time>
<desc>lat.=55.858734, lon.=26.530977, Alt.=92.631897m. Speed=12.888000m/h.</desc>
<speed>3.580000</speed>
</trkpt>
<trkpt lat="55.858768" lon="26.530985">
<ele>92.694397</ele>
<time>2010-07-18T13:56:25Z</time>
<desc>lat.=55.858768, lon.=26.530985, Alt.=92.694397m. Speed=10.908000m/h.</desc>
<speed>3.030000</speed>
</trkpt>
<trkpt lat="55.858799" lon="26.530993">
<ele>93.116272</ele>
<time>2010-07-18T13:56:26Z</time>
<desc>lat.=55.858799, lon.=26.530993, Alt.=93.116272m. Speed=8.208000m/h.</desc>
<speed>2.280000</speed>
</trkpt>
<trkpt lat="55.858810" lon="26.530993">
<ele>93.647522</ele>
<time>2010-07-18T13:56:27Z</time>
<desc>lat.=55.858810, lon.=26.530993, Alt.=93.647522m. Speed=2.988000m/h.</desc>
<speed>0.830000</speed>
</trkpt>
<trkpt lat="55.858818" lon="26.531008">
<ele>93.780334</ele>
<time>2010-07-18T13:56:28Z</time>
<desc>lat.=55.858818, lon.=26.531008, Alt.=93.780334m. Speed=0.936000m/h.</desc>
<speed>0.260000</speed>
</trkpt>
<trkpt lat="55.858818" lon="26.531012">
<ele>93.713928</ele>
<time>2010-07-18T13:56:29Z</time>
<desc>lat.=55.858818, lon.=26.531012, Alt.=93.713928m. Speed=0.720000m/h.</desc>
<speed>0.200000</speed>
</trkpt>
<trkpt lat="55.858826" lon="26.531023">
<ele>93.690491</ele>
<time>2010-07-18T13:56:30Z</time>
<desc>lat.=55.858826, lon.=26.531023, Alt.=93.690491m. Speed=1.476000m/h.</desc>
<speed>0.410000</speed>
</trkpt>
<trkpt lat="55.858829" lon="26.531027">
<ele>93.733459</ele>
<time>2010-07-18T13:56:31Z</time>
<desc>lat.=55.858829, lon.=26.531027, Alt.=93.733459m. Speed=1.656000m/h.</desc>
<speed>0.460000</speed>
</trkpt>
<trkpt lat="55.858833" lon="26.531033">
<ele>93.776428</ele>
<time>2010-07-18T13:56:32Z</time>
<desc>lat.=55.858833, lon.=26.531033, Alt.=93.776428m. Speed=2.520000m/h.</desc>
<speed>0.700000</speed>
</trkpt>
<trkpt lat="55.858837" lon="26.531038">
<ele>93.827209</ele>
<time>2010-07-18T13:56:33Z</time>
<desc>lat.=55.858837, lon.=26.531038, Alt.=93.827209m. Speed=2.592000m/h.</desc>
<speed>0.720000</speed>
</trkpt>
<trkpt lat="55.858841" lon="26.531044">
<ele>93.866272</ele>
<time>2010-07-18T13:56:34Z</time>
<desc>lat.=55.858841, lon.=26.531044, Alt.=93.866272m. Speed=3.204000m/h.</desc>
<speed>0.890000</speed>
</trkpt>
<trkpt lat="55.858849" lon="26.531050">
<ele>93.905334</ele>
<time>2010-07-18T13:56:35Z</time>
<desc>lat.=55.858849, lon.=26.531050, Alt.=93.905334m. Speed=3.672000m/h.</desc>
<speed>1.020000</speed>
</trkpt>
<trkpt lat="55.858860" lon="26.531061">
<ele>93.833069</ele>
<time>2010-07-18T13:56:36Z</time>
<desc>lat.=55.858860, lon.=26.531061, Alt.=93.833069m. Speed=3.456000m/h.</desc>
<speed>0.960000</speed>
</trkpt>
<trkpt lat="55.858871" lon="26.531067">
<ele>93.899475</ele>
<time>2010-07-18T13:56:37Z</time>
<desc>lat.=55.858871, lon.=26.531067, Alt.=93.899475m. Speed=4.644000m/h.</desc>
<speed>1.290000</speed>
</trkpt>
<trkpt lat="55.858883" lon="26.531059">
<ele>93.711975</ele>
<time>2010-07-18T13:56:38Z</time>
<desc>lat.=55.858883, lon.=26.531059, Alt.=93.711975m. Speed=5.724000m/h.</desc>
<speed>1.590000</speed>
</trkpt>
<trkpt lat="55.858894" lon="26.531042">
<ele>93.305725</ele>
<time>2010-07-18T13:56:39Z</time>
<desc>lat.=55.858894, lon.=26.531042, Alt.=93.305725m. Speed=6.516000m/h.</desc>
<speed>1.810000</speed>
</trkpt>
<trkpt lat="55.858902" lon="26.531010">
<ele>92.963928</ele>
<time>2010-07-18T13:56:40Z</time>
<desc>lat.=55.858902, lon.=26.531010, Alt.=92.963928m. Speed=6.588000m/h.</desc>
<speed>1.830000</speed>
</trkpt>
<trkpt lat="55.858906" lon="26.530985">
<ele>92.579163</ele>
<time>2010-07-18T13:56:41Z</time>
<desc>lat.=55.858906, lon.=26.530985, Alt.=92.579163m. Speed=6.228000m/h.</desc>
<speed>1.730000</speed>
</trkpt>
<trkpt lat="55.858917" lon="26.530958">
<ele>92.467834</ele>
<time>2010-07-18T13:56:42Z</time>
<desc>lat.=55.858917, lon.=26.530958, Alt.=92.467834m. Speed=6.804000m/h.</desc>
<speed>1.890000</speed>
</trkpt>
<trkpt lat="55.858921" lon="26.530931">
<ele>92.588928</ele>
<time>2010-07-18T13:56:43Z</time>
<desc>lat.=55.858921, lon.=26.530931, Alt.=92.588928m. Speed=7.452000m/h.</desc>
<speed>2.070000</speed>
</trkpt>
<trkpt lat="55.858921" lon="26.530897">
<ele>92.333069</ele>
<time>2010-07-18T13:56:44Z</time>
<desc>lat.=55.858921, lon.=26.530897, Alt.=92.333069m. Speed=9.288000m/h.</desc>
<speed>2.580000</speed>
</trkpt>
<trkpt lat="55.858932" lon="26.530853">
<ele>92.290100</ele>
<time>2010-07-18T13:56:45Z</time>
<desc>lat.=55.858932, lon.=26.530853, Alt.=92.290100m. Speed=10.620000m/h.</desc>
<speed>2.950000</speed>
</trkpt>
<trkpt lat="55.858944" lon="26.530804">
<ele>91.813538</ele>
<time>2010-07-18T13:56:46Z</time>
<desc>lat.=55.858944, lon.=26.530804, Alt.=91.813538m. Speed=12.312000m/h.</desc>
<speed>3.420000</speed>
</trkpt>
<trkpt lat="55.858952" lon="26.530750">
<ele>91.825256</ele>
<time>2010-07-18T13:56:47Z</time>
<desc>lat.=55.858952, lon.=26.530750, Alt.=91.825256m. Speed=12.744000m/h.</desc>
<speed>3.540000</speed>
</trkpt>
<trkpt lat="55.858967" lon="26.530697">
<ele>92.450256</ele>
<time>2010-07-18T13:56:48Z</time>
<desc>lat.=55.858967, lon.=26.530697, Alt.=92.450256m. Speed=14.148000m/h.</desc>
<speed>3.930000</speed>
</trkpt>
<trkpt lat="55.858986" lon="26.530632">
<ele>92.483459</ele>
<time>2010-07-18T13:56:49Z</time>
<desc>lat.=55.858986, lon.=26.530632, Alt.=92.483459m. Speed=16.164000m/h.</desc>
<speed>4.490000</speed>
</trkpt>
<trkpt lat="55.859001" lon="26.530565">
<ele>92.561584</ele>
<time>2010-07-18T13:56:50Z</time>
<desc>lat.=55.859001, lon.=26.530565, Alt.=92.561584m. Speed=17.639999m/h.</desc>
<speed>4.900000</speed>
</trkpt>
<trkpt lat="55.859016" lon="26.530491">
<ele>92.516663</ele>
<time>2010-07-18T13:56:51Z</time>
<desc>lat.=55.859016, lon.=26.530491, Alt.=92.516663m. Speed=16.236000m/h.</desc>
<speed>4.510000</speed>
</trkpt>
<trkpt lat="55.859028" lon="26.530418">
<ele>92.567444</ele>
<time>2010-07-18T13:56:52Z</time>
<desc>lat.=55.859028, lon.=26.530418, Alt.=92.567444m. Speed=17.243999m/h.</desc>
<speed>4.790000</speed>
</trkpt>
<trkpt lat="55.859043" lon="26.530342">
<ele>92.622131</ele>
<time>2010-07-18T13:56:53Z</time>
<desc>lat.=55.859043, lon.=26.530342, Alt.=92.622131m. Speed=19.224001m/h.</desc>
<speed>5.340000</speed>
</trkpt>
<trkpt lat="55.859058" lon="26.530262">
<ele>92.854553</ele>
<time>2010-07-18T13:56:54Z</time>
<desc>lat.=55.859058, lon.=26.530262, Alt.=92.854553m. Speed=19.764000m/h.</desc>
<speed>5.490000</speed>
</trkpt>
<trkpt lat="55.859074" lon="26.530169">
<ele>91.747131</ele>
<time>2010-07-18T13:56:55Z</time>
<desc>lat.=55.859074, lon.=26.530169, Alt.=91.747131m. Speed=20.988001m/h.</desc>
<speed>5.830000</speed>
</trkpt>
<trkpt lat="55.859089" lon="26.530077">
<ele>91.473694</ele>
<time>2010-07-18T13:56:56Z</time>
<desc>lat.=55.859089, lon.=26.530077, Alt.=91.473694m. Speed=21.888000m/h.</desc>
<speed>6.080000</speed>
</trkpt>
<trkpt lat="55.859108" lon="26.529999">
<ele>93.708069</ele>
<time>2010-07-18T13:56:57Z</time>
<desc>lat.=55.859108, lon.=26.529999, Alt.=93.708069m. Speed=20.952000m/h.</desc>
<speed>5.820000</speed>
</trkpt>
<trkpt lat="55.859123" lon="26.529903">
<ele>93.774475</ele>
<time>2010-07-18T13:56:58Z</time>
<desc>lat.=55.859123, lon.=26.529903, Alt.=93.774475m. Speed=20.916000m/h.</desc>
<speed>5.810000</speed>
</trkpt>
<trkpt lat="55.859142" lon="26.529814">
<ele>93.471741</ele>
<time>2010-07-18T13:56:59Z</time>
<desc>lat.=55.859142, lon.=26.529814, Alt.=93.471741m. Speed=20.844000m/h.</desc>
<speed>5.790000</speed>
</trkpt>
<trkpt lat="55.859158" lon="26.529718">
<ele>93.297913</ele>
<time>2010-07-18T13:57:00Z</time>
<desc>lat.=55.859158, lon.=26.529718, Alt.=93.297913m. Speed=21.348000m/h.</desc>
<speed>5.930000</speed>
</trkpt>
<trkpt lat="55.859177" lon="26.529631">
<ele>93.051819</ele>
<time>2010-07-18T13:57:01Z</time>
<desc>lat.=55.859177, lon.=26.529631, Alt.=93.051819m. Speed=20.700001m/h.</desc>
<speed>5.750000</speed>
</trkpt>
<trkpt lat="55.859188" lon="26.529528">
<ele>93.120178</ele>
<time>2010-07-18T13:57:02Z</time>
<desc>lat.=55.859188, lon.=26.529528, Alt.=93.120178m. Speed=22.643999m/h.</desc>
<speed>6.290000</speed>
</trkpt>
<trkpt lat="55.859207" lon="26.529436">
<ele>93.028381</ele>
<time>2010-07-18T13:57:03Z</time>
<desc>lat.=55.859207, lon.=26.529436, Alt.=93.028381m. Speed=21.275999m/h.</desc>
<speed>5.910000</speed>
</trkpt>
<trkpt lat="55.859222" lon="26.529346">
<ele>92.860413</ele>
<time>2010-07-18T13:57:04Z</time>
<desc>lat.=55.859222, lon.=26.529346, Alt.=92.860413m. Speed=21.348000m/h.</desc>
<speed>5.930000</speed>
</trkpt>
<trkpt lat="55.859245" lon="26.529259">
<ele>93.274475</ele>
<time>2010-07-18T13:57:05Z</time>
<desc>lat.=55.859245, lon.=26.529259, Alt.=93.274475m. Speed=20.988001m/h.</desc>
<speed>5.830000</speed>
</trkpt>
<trkpt lat="55.859264" lon="26.529165">
<ele>93.311584</ele>
<time>2010-07-18T13:57:06Z</time>
<desc>lat.=55.859264, lon.=26.529165, Alt.=93.311584m. Speed=23.364000m/h.</desc>
<speed>6.490000</speed>
</trkpt>
<trkpt lat="55.859280" lon="26.529066">
<ele>93.251038</ele>
<time>2010-07-18T13:57:07Z</time>
<desc>lat.=55.859280, lon.=26.529066, Alt.=93.251038m. Speed=23.436001m/h.</desc>
<speed>6.510000</speed>
</trkpt>
<trkpt lat="55.859303" lon="26.528967">
<ele>93.006897</ele>
<time>2010-07-18T13:57:08Z</time>
<desc>lat.=55.859303, lon.=26.528967, Alt.=93.006897m. Speed=23.580000m/h.</desc>
<speed>6.550000</speed>
</trkpt>
<trkpt lat="55.859322" lon="26.528872">
<ele>93.155334</ele>
<time>2010-07-18T13:57:09Z</time>
<desc>lat.=55.859322, lon.=26.528872, Alt.=93.155334m. Speed=23.112000m/h.</desc>
<speed>6.420000</speed>
</trkpt>
<trkpt lat="55.859344" lon="26.528772">
<ele>93.569397</ele>
<time>2010-07-18T13:57:10Z</time>
<desc>lat.=55.859344, lon.=26.528772, Alt.=93.569397m. Speed=23.112000m/h.</desc>
<speed>6.420000</speed>
</trkpt>
<trkpt lat="55.859364" lon="26.528669">
<ele>93.858459</ele>
<time>2010-07-18T13:57:11Z</time>
<desc>lat.=55.859364, lon.=26.528669, Alt.=93.858459m. Speed=22.860001m/h.</desc>
<speed>6.350000</speed>
</trkpt>
<trkpt lat="55.859386" lon="26.528576">
<ele>93.991272</ele>
<time>2010-07-18T13:57:12Z</time>
<desc>lat.=55.859386, lon.=26.528576, Alt.=93.991272m. Speed=22.464001m/h.</desc>
<speed>6.240000</speed>
</trkpt>
<trkpt lat="55.859402" lon="26.528479">
<ele>93.694397</ele>
<time>2010-07-18T13:57:13Z</time>
<desc>lat.=55.859402, lon.=26.528479, Alt.=93.694397m. Speed=22.535999m/h.</desc>
<speed>6.260000</speed>
</trkpt>
<trkpt lat="55.859421" lon="26.528387">
<ele>93.682678</ele>
<time>2010-07-18T13:57:14Z</time>
<desc>lat.=55.859421, lon.=26.528387, Alt.=93.682678m. Speed=21.996000m/h.</desc>
<speed>6.110000</speed>
</trkpt>
<trkpt lat="55.859440" lon="26.528294">
<ele>93.434631</ele>
<time>2010-07-18T13:57:15Z</time>
<desc>lat.=55.859440, lon.=26.528294, Alt.=93.434631m. Speed=21.924000m/h.</desc>
<speed>6.090000</speed>
</trkpt>
<trkpt lat="55.859459" lon="26.528200">
<ele>93.721741</ele>
<time>2010-07-18T13:57:16Z</time>
<desc>lat.=55.859459, lon.=26.528200, Alt.=93.721741m. Speed=22.104000m/h.</desc>
<speed>6.140000</speed>
</trkpt>
<trkpt lat="55.859478" lon="26.528105">
<ele>93.686584</ele>
<time>2010-07-18T13:57:17Z</time>
<desc>lat.=55.859478, lon.=26.528105, Alt.=93.686584m. Speed=22.716000m/h.</desc>
<speed>6.310000</speed>
</trkpt>
<trkpt lat="55.859497" lon="26.528017">
<ele>93.911194</ele>
<time>2010-07-18T13:57:18Z</time>
<desc>lat.=55.859497, lon.=26.528017, Alt.=93.911194m. Speed=22.139999m/h.</desc>
<speed>6.150000</speed>
</trkpt>
<trkpt lat="55.859516" lon="26.527916">
<ele>93.698303</ele>
<time>2010-07-18T13:57:19Z</time>
<desc>lat.=55.859516, lon.=26.527916, Alt.=93.698303m. Speed=22.680000m/h.</desc>
<speed>6.300000</speed>
</trkpt>
<trkpt lat="55.859535" lon="26.527817">
<ele>93.491272</ele>
<time>2010-07-18T13:57:20Z</time>
<desc>lat.=55.859535, lon.=26.527817, Alt.=93.491272m. Speed=22.392000m/h.</desc>
<speed>6.220000</speed>
</trkpt>
<trkpt lat="55.859554" lon="26.527716">
<ele>92.922913</ele>
<time>2010-07-18T13:57:21Z</time>
<desc>lat.=55.859554, lon.=26.527716, Alt.=92.922913m. Speed=21.924000m/h.</desc>
<speed>6.090000</speed>
</trkpt>
<trkpt lat="55.859570" lon="26.527622">
<ele>92.754944</ele>
<time>2010-07-18T13:57:22Z</time>
<desc>lat.=55.859570, lon.=26.527622, Alt.=92.754944m. Speed=21.636000m/h.</desc>
<speed>6.010000</speed>
</trkpt>
<trkpt lat="55.859589" lon="26.527529">
<ele>92.655334</ele>
<time>2010-07-18T13:57:23Z</time>
<desc>lat.=55.859589, lon.=26.527529, Alt.=92.655334m. Speed=21.312000m/h.</desc>
<speed>5.920000</speed>
</trkpt>
<trkpt lat="55.859608" lon="26.527443">
<ele>92.795959</ele>
<time>2010-07-18T13:57:24Z</time>
<desc>lat.=55.859608, lon.=26.527443, Alt.=92.795959m. Speed=21.743999m/h.</desc>
<speed>6.040000</speed>
</trkpt>
<trkpt lat="55.859623" lon="26.527349">
<ele>92.706116</ele>
<time>2010-07-18T13:57:25Z</time>
<desc>lat.=55.859623, lon.=26.527349, Alt.=92.706116m. Speed=21.384001m/h.</desc>
<speed>5.940000</speed>
</trkpt>
<trkpt lat="55.859642" lon="26.527256">
<ele>92.737366</ele>
<time>2010-07-18T13:57:26Z</time>
<desc>lat.=55.859642, lon.=26.527256, Alt.=92.737366m. Speed=22.572001m/h.</desc>
<speed>6.270000</speed>
</trkpt>
<trkpt lat="55.859657" lon="26.527164">
<ele>92.807678</ele>
<time>2010-07-18T13:57:27Z</time>
<desc>lat.=55.859657, lon.=26.527164, Alt.=92.807678m. Speed=22.284000m/h.</desc>
<speed>6.190000</speed>
</trkpt>
<trkpt lat="55.859673" lon="26.527077">
<ele>92.856506</ele>
<time>2010-07-18T13:57:28Z</time>
<desc>lat.=55.859673, lon.=26.527077, Alt.=92.856506m. Speed=20.664000m/h.</desc>
<speed>5.740000</speed>
</trkpt>
<trkpt lat="55.859688" lon="26.526991">
<ele>92.995178</ele>
<time>2010-07-18T13:57:29Z</time>
<desc>lat.=55.859688, lon.=26.526991, Alt.=92.995178m. Speed=20.304001m/h.</desc>
<speed>5.640000</speed>
</trkpt>
<trkpt lat="55.859703" lon="26.526909">
<ele>93.225647</ele>
<time>2010-07-18T13:57:30Z</time>
<desc>lat.=55.859703, lon.=26.526909, Alt.=93.225647m. Speed=20.052000m/h.</desc>
<speed>5.570000</speed>
</trkpt>
<trkpt lat="55.859707" lon="26.526815">
<ele>93.516663</ele>
<time>2010-07-18T13:57:31Z</time>
<desc>lat.=55.859707, lon.=26.526815, Alt.=93.516663m. Speed=21.924000m/h.</desc>
<speed>6.090000</speed>
</trkpt>
<trkpt lat="55.859715" lon="26.526722">
<ele>92.909241</ele>
<time>2010-07-18T13:57:32Z</time>
<desc>lat.=55.859715, lon.=26.526722, Alt.=92.909241m. Speed=22.032000m/h.</desc>
<speed>6.120000</speed>
</trkpt>
<trkpt lat="55.859730" lon="26.526640">
<ele>92.852600</ele>
<time>2010-07-18T13:57:33Z</time>
<desc>lat.=55.859730, lon.=26.526640, Alt.=92.852600m. Speed=20.052000m/h.</desc>
<speed>5.570000</speed>
</trkpt>
<trkpt lat="55.859749" lon="26.526548">
<ele>92.624084</ele>
<time>2010-07-18T13:57:34Z</time>
<desc>lat.=55.859749, lon.=26.526548, Alt.=92.624084m. Speed=21.492001m/h.</desc>
<speed>5.970000</speed>
</trkpt>
<trkpt lat="55.859772" lon="26.526464">
<ele>92.583069</ele>
<time>2010-07-18T13:57:35Z</time>
<desc>lat.=55.859772, lon.=26.526464, Alt.=92.583069m. Speed=20.375999m/h.</desc>
<speed>5.660000</speed>
</trkpt>
<trkpt lat="55.859791" lon="26.526381">
<ele>92.512756</ele>
<time>2010-07-18T13:57:36Z</time>
<desc>lat.=55.859791, lon.=26.526381, Alt.=92.512756m. Speed=20.087999m/h.</desc>
<speed>5.580000</speed>
</trkpt>
<trkpt lat="55.859810" lon="26.526293">
<ele>92.559631</ele>
<time>2010-07-18T13:57:37Z</time>
<desc>lat.=55.859810, lon.=26.526293, Alt.=92.559631m. Speed=20.016001m/h.</desc>
<speed>5.560000</speed>
</trkpt>
<trkpt lat="55.859833" lon="26.526209">
<ele>92.870178</ele>
<time>2010-07-18T13:57:38Z</time>
<desc>lat.=55.859833, lon.=26.526209, Alt.=92.870178m. Speed=19.188000m/h.</desc>
<speed>5.330000</speed>
</trkpt>
<trkpt lat="55.859844" lon="26.526129">
<ele>92.926819</ele>
<time>2010-07-18T13:57:39Z</time>
<desc>lat.=55.859844, lon.=26.526129, Alt.=92.926819m. Speed=19.511999m/h.</desc>
<speed>5.420000</speed>
</trkpt>
<trkpt lat="55.859859" lon="26.526043">
<ele>93.196350</ele>
<time>2010-07-18T13:57:40Z</time>
<desc>lat.=55.859859, lon.=26.526043, Alt.=93.196350m. Speed=19.980000m/h.</desc>
<speed>5.550000</speed>
</trkpt>
<trkpt lat="55.859879" lon="26.525955">
<ele>93.391663</ele>
<time>2010-07-18T13:57:41Z</time>
<desc>lat.=55.859879, lon.=26.525955, Alt.=93.391663m. Speed=22.032000m/h.</desc>
<speed>6.120000</speed>
</trkpt>
<trkpt lat="55.859909" lon="26.525860">
<ele>93.879944</ele>
<time>2010-07-18T13:57:42Z</time>
<desc>lat.=55.859909, lon.=26.525860, Alt.=93.879944m. Speed=22.320000m/h.</desc>
<speed>6.200000</speed>
</trkpt>
<trkpt lat="55.859932" lon="26.525766">
<ele>93.788147</ele>
<time>2010-07-18T13:57:43Z</time>
<desc>lat.=55.859932, lon.=26.525766, Alt.=93.788147m. Speed=21.636000m/h.</desc>
<speed>6.010000</speed>
</trkpt>
<trkpt lat="55.859951" lon="26.525667">
<ele>93.835022</ele>
<time>2010-07-18T13:57:44Z</time>
<desc>lat.=55.859951, lon.=26.525667, Alt.=93.835022m. Speed=23.148001m/h.</desc>
<speed>6.430000</speed>
</trkpt>
<trkpt lat="55.859970" lon="26.525576">
<ele>94.153381</ele>
<time>2010-07-18T13:57:45Z</time>
<desc>lat.=55.859970, lon.=26.525576, Alt.=94.153381m. Speed=21.672001m/h.</desc>
<speed>6.020000</speed>
</trkpt>
<trkpt lat="55.859993" lon="26.525478">
<ele>94.204163</ele>
<time>2010-07-18T13:57:46Z</time>
<desc>lat.=55.859993, lon.=26.525478, Alt.=94.204163m. Speed=22.464001m/h.</desc>
<speed>6.240000</speed>
</trkpt>
<trkpt lat="55.860012" lon="26.525381">
<ele>94.202209</ele>
<time>2010-07-18T13:57:47Z</time>
<desc>lat.=55.860012, lon.=26.525381, Alt.=94.202209m. Speed=22.392000m/h.</desc>
<speed>6.220000</speed>
</trkpt>
<trkpt lat="55.860031" lon="26.525286">
<ele>93.833069</ele>
<time>2010-07-18T13:57:48Z</time>
<desc>lat.=55.860031, lon.=26.525286, Alt.=93.833069m. Speed=22.464001m/h.</desc>
<speed>6.240000</speed>
</trkpt>
<trkpt lat="55.860050" lon="26.525196">
<ele>93.729553</ele>
<time>2010-07-18T13:57:49Z</time>
<desc>lat.=55.860050, lon.=26.525196, Alt.=93.729553m. Speed=22.392000m/h.</desc>
<speed>6.220000</speed>
</trkpt>
<trkpt lat="55.860065" lon="26.525101">
<ele>93.335022</ele>
<time>2010-07-18T13:57:50Z</time>
<desc>lat.=55.860065, lon.=26.525101, Alt.=93.335022m. Speed=22.068001m/h.</desc>
<speed>6.130000</speed>
</trkpt>
<trkpt lat="55.860088" lon="26.525007">
<ele>93.112366</ele>
<time>2010-07-18T13:57:51Z</time>
<desc>lat.=55.860088, lon.=26.525007, Alt.=93.112366m. Speed=22.464001m/h.</desc>
<speed>6.240000</speed>
</trkpt>
<trkpt lat="55.860107" lon="26.524908">
<ele>92.262756</ele>
<time>2010-07-18T13:57:52Z</time>
<desc>lat.=55.860107, lon.=26.524908, Alt.=92.262756m. Speed=21.780001m/h.</desc>
<speed>6.050000</speed>
</trkpt>
<trkpt lat="55.860130" lon="26.524815">
<ele>91.944397</ele>
<time>2010-07-18T13:57:53Z</time>
<desc>lat.=55.860130, lon.=26.524815, Alt.=91.944397m. Speed=21.708000m/h.</desc>
<speed>6.030000</speed>
</trkpt>
<trkpt lat="55.860149" lon="26.524727">
<ele>91.963928</ele>
<time>2010-07-18T13:57:54Z</time>
<desc>lat.=55.860149, lon.=26.524727, Alt.=91.963928m. Speed=21.636000m/h.</desc>
<speed>6.010000</speed>
</trkpt>
<trkpt lat="55.860165" lon="26.524639">
<ele>91.702209</ele>
<time>2010-07-18T13:57:55Z</time>
<desc>lat.=55.860165, lon.=26.524639, Alt.=91.702209m. Speed=21.348000m/h.</desc>
<speed>5.930000</speed>
</trkpt>
<trkpt lat="55.860180" lon="26.524546">
<ele>90.979553</ele>
<time>2010-07-18T13:57:56Z</time>
<desc>lat.=55.860180, lon.=26.524546, Alt.=90.979553m. Speed=21.636000m/h.</desc>
<speed>6.010000</speed>
</trkpt>
<trkpt lat="55.860199" lon="26.524460">
<ele>91.030334</ele>
<time>2010-07-18T13:57:57Z</time>
<desc>lat.=55.860199, lon.=26.524460, Alt.=91.030334m. Speed=21.420000m/h.</desc>
<speed>5.950000</speed>
</trkpt>
<trkpt lat="55.860226" lon="26.524366">
<ele>91.057678</ele>
<time>2010-07-18T13:57:58Z</time>
<desc>lat.=55.860226, lon.=26.524366, Alt.=91.057678m. Speed=23.400000m/h.</desc>
<speed>6.500000</speed>
</trkpt>
<trkpt lat="55.860256" lon="26.524269">
<ele>91.645569</ele>
<time>2010-07-18T13:57:59Z</time>
<desc>lat.=55.860256, lon.=26.524269, Alt.=91.645569m. Speed=25.596001m/h.</desc>
<speed>7.110000</speed>
</trkpt>
<trkpt lat="55.860287" lon="26.524164">
<ele>91.432678</ele>
<time>2010-07-18T13:58:00Z</time>
<desc>lat.=55.860287, lon.=26.524164, Alt.=91.432678m. Speed=24.840000m/h.</desc>
<speed>6.900000</speed>
</trkpt>
<trkpt lat="55.860310" lon="26.524059">
<ele>91.372131</ele>
<time>2010-07-18T13:58:01Z</time>
<desc>lat.=55.860310, lon.=26.524059, Alt.=91.372131m. Speed=25.848000m/h.</desc>
<speed>7.180000</speed>
</trkpt>
<trkpt lat="55.860336" lon="26.523958">
<ele>92.340881</ele>
<time>2010-07-18T13:58:02Z</time>
<desc>lat.=55.860336, lon.=26.523958, Alt.=92.340881m. Speed=25.596001m/h.</desc>
<speed>7.110000</speed>
</trkpt>
<trkpt lat="55.860359" lon="26.523849">
<ele>92.258850</ele>
<time>2010-07-18T13:58:03Z</time>
<desc>lat.=55.860359, lon.=26.523849, Alt.=92.258850m. Speed=25.596001m/h.</desc>
<speed>7.110000</speed>
</trkpt>
<trkpt lat="55.860386" lon="26.523739">
<ele>92.504944</ele>
<time>2010-07-18T13:58:04Z</time>
<desc>lat.=55.860386, lon.=26.523739, Alt.=92.504944m. Speed=26.243999m/h.</desc>
<speed>7.290000</speed>
</trkpt>
<trkpt lat="55.860416" lon="26.523630">
<ele>92.553772</ele>
<time>2010-07-18T13:58:05Z</time>
<desc>lat.=55.860416, lon.=26.523630, Alt.=92.553772m. Speed=26.100000m/h.</desc>
<speed>7.250000</speed>
</trkpt>
<trkpt lat="55.860447" lon="26.523521">
<ele>92.383850</ele>
<time>2010-07-18T13:58:06Z</time>
<desc>lat.=55.860447, lon.=26.523521, Alt.=92.383850m. Speed=25.812000m/h.</desc>
<speed>7.170000</speed>
</trkpt>
<trkpt lat="55.860474" lon="26.523418">
<ele>92.717834</ele>
<time>2010-07-18T13:58:07Z</time>
<desc>lat.=55.860474, lon.=26.523418, Alt.=92.717834m. Speed=25.056000m/h.</desc>
<speed>6.960000</speed>
</trkpt>
<trkpt lat="55.860500" lon="26.523310">
<ele>92.536194</ele>
<time>2010-07-18T13:58:08Z</time>
<desc>lat.=55.860500, lon.=26.523310, Alt.=92.536194m. Speed=25.379999m/h.</desc>
<speed>7.050000</speed>
</trkpt>
<trkpt lat="55.860523" lon="26.523207">
<ele>92.504944</ele>
<time>2010-07-18T13:58:09Z</time>
<desc>lat.=55.860523, lon.=26.523207, Alt.=92.504944m. Speed=24.804001m/h.</desc>
<speed>6.890000</speed>
</trkpt>
<trkpt lat="55.860550" lon="26.523106">
<ele>92.825256</ele>
<time>2010-07-18T13:58:10Z</time>
<desc>lat.=55.860550, lon.=26.523106, Alt.=92.825256m. Speed=25.344000m/h.</desc>
<speed>7.040000</speed>
</trkpt>
<trkpt lat="55.860577" lon="26.523006">
<ele>93.286194</ele>
<time>2010-07-18T13:58:11Z</time>
<desc>lat.=55.860577, lon.=26.523006, Alt.=93.286194m. Speed=26.172001m/h.</desc>
<speed>7.270000</speed>
</trkpt>
<trkpt lat="55.860603" lon="26.522902">
<ele>93.596741</ele>
<time>2010-07-18T13:58:12Z</time>
<desc>lat.=55.860603, lon.=26.522902, Alt.=93.596741m. Speed=26.028000m/h.</desc>
<speed>7.230000</speed>
</trkpt>
<trkpt lat="55.860634" lon="26.522795">
<ele>93.780334</ele>
<time>2010-07-18T13:58:13Z</time>
<desc>lat.=55.860634, lon.=26.522795, Alt.=93.780334m. Speed=26.676001m/h.</desc>
<speed>7.410000</speed>
</trkpt>
<trkpt lat="55.860661" lon="26.522688">
<ele>94.057678</ele>
<time>2010-07-18T13:58:14Z</time>
<desc>lat.=55.860661, lon.=26.522688, Alt.=94.057678m. Speed=25.091999m/h.</desc>
<speed>6.970000</speed>
</trkpt>
<trkpt lat="55.860687" lon="26.522587">
<ele>94.211975</ele>
<time>2010-07-18T13:58:15Z</time>
<desc>lat.=55.860687, lon.=26.522587, Alt.=94.211975m. Speed=24.587999m/h.</desc>
<speed>6.830000</speed>
</trkpt>
<trkpt lat="55.860714" lon="26.522486">
<ele>94.426819</ele>
<time>2010-07-18T13:58:16Z</time>
<desc>lat.=55.860714, lon.=26.522486, Alt.=94.426819m. Speed=24.048000m/h.</desc>
<speed>6.680000</speed>
</trkpt>
<trkpt lat="55.860741" lon="26.522390">
<ele>94.409241</ele>
<time>2010-07-18T13:58:17Z</time>
<desc>lat.=55.860741, lon.=26.522390, Alt.=94.409241m. Speed=24.660000m/h.</desc>
<speed>6.850000</speed>
</trkpt>
<trkpt lat="55.860764" lon="26.522287">
<ele>94.547913</ele>
<time>2010-07-18T13:58:18Z</time>
<desc>lat.=55.860764, lon.=26.522287, Alt.=94.547913m. Speed=24.156000m/h.</desc>
<speed>6.710000</speed>
</trkpt>
<trkpt lat="55.860794" lon="26.522181">
<ele>94.251038</ele>
<time>2010-07-18T13:58:19Z</time>
<desc>lat.=55.860794, lon.=26.522181, Alt.=94.251038m. Speed=25.020000m/h.</desc>
<speed>6.950000</speed>
</trkpt>
<trkpt lat="55.860825" lon="26.522083">
<ele>93.987366</ele>
<time>2010-07-18T13:58:20Z</time>
<desc>lat.=55.860825, lon.=26.522083, Alt.=93.987366m. Speed=26.172001m/h.</desc>
<speed>7.270000</speed>
</trkpt>
<trkpt lat="55.860851" lon="26.521982">
<ele>93.989319</ele>
<time>2010-07-18T13:58:21Z</time>
<desc>lat.=55.860851, lon.=26.521982, Alt.=93.989319m. Speed=25.379999m/h.</desc>
<speed>7.050000</speed>
</trkpt>
<trkpt lat="55.860874" lon="26.521883">
<ele>93.573303</ele>
<time>2010-07-18T13:58:22Z</time>
<desc>lat.=55.860874, lon.=26.521883, Alt.=93.573303m. Speed=25.740000m/h.</desc>
<speed>7.150000</speed>
</trkpt>
<trkpt lat="55.860905" lon="26.521776">
<ele>93.696350</ele>
<time>2010-07-18T13:58:23Z</time>
<desc>lat.=55.860905, lon.=26.521776, Alt.=93.696350m. Speed=26.028000m/h.</desc>
<speed>7.230000</speed>
</trkpt>
<trkpt lat="55.860943" lon="26.521671">
<ele>93.743225</ele>
<time>2010-07-18T13:58:24Z</time>
<desc>lat.=55.860943, lon.=26.521671, Alt.=93.743225m. Speed=27.072001m/h.</desc>
<speed>7.520000</speed>
</trkpt>
<trkpt lat="55.860977" lon="26.521563">
<ele>93.776428</ele>
<time>2010-07-18T13:58:25Z</time>
<desc>lat.=55.860977, lon.=26.521563, Alt.=93.776428m. Speed=27.360001m/h.</desc>
<speed>7.600000</speed>
</trkpt>
<trkpt lat="55.861012" lon="26.521446">
<ele>93.938538</ele>
<time>2010-07-18T13:58:26Z</time>
<desc>lat.=55.861012, lon.=26.521446, Alt.=93.938538m. Speed=26.639999m/h.</desc>
<speed>7.400000</speed>
</trkpt>
<trkpt lat="55.861042" lon="26.521339">
<ele>93.577209</ele>
<time>2010-07-18T13:58:27Z</time>
<desc>lat.=55.861042, lon.=26.521339, Alt.=93.577209m. Speed=25.775999m/h.</desc>
<speed>7.160000</speed>
</trkpt>
<trkpt lat="55.861069" lon="26.521236">
<ele>93.438538</ele>
<time>2010-07-18T13:58:28Z</time>
<desc>lat.=55.861069, lon.=26.521236, Alt.=93.438538m. Speed=25.091999m/h.</desc>
<speed>6.970000</speed>
</trkpt>
<trkpt lat="55.861095" lon="26.521133">
<ele>93.336975</ele>
<time>2010-07-18T13:58:29Z</time>
<desc>lat.=55.861095, lon.=26.521133, Alt.=93.336975m. Speed=24.444000m/h.</desc>
<speed>6.790000</speed>
</trkpt>
<trkpt lat="55.861118" lon="26.521034">
<ele>93.376038</ele>
<time>2010-07-18T13:58:30Z</time>
<desc>lat.=55.861118, lon.=26.521034, Alt.=93.376038m. Speed=24.156000m/h.</desc>
<speed>6.710000</speed>
</trkpt>
<trkpt lat="55.861145" lon="26.520935">
<ele>93.460022</ele>
<time>2010-07-18T13:58:31Z</time>
<desc>lat.=55.861145, lon.=26.520935, Alt.=93.460022m. Speed=24.875999m/h.</desc>
<speed>6.910000</speed>
</trkpt>
<trkpt lat="55.861176" lon="26.520838">
<ele>93.669006</ele>
<time>2010-07-18T13:58:32Z</time>
<desc>lat.=55.861176, lon.=26.520838, Alt.=93.669006m. Speed=24.516001m/h.</desc>
<speed>6.810000</speed>
</trkpt>
<trkpt lat="55.861202" lon="26.520731">
<ele>93.475647</ele>
<time>2010-07-18T13:58:33Z</time>
<desc>lat.=55.861202, lon.=26.520731, Alt.=93.475647m. Speed=25.704000m/h.</desc>
<speed>7.140000</speed>
</trkpt>
<trkpt lat="55.861233" lon="26.520626">
<ele>93.256897</ele>
<time>2010-07-18T13:58:34Z</time>
<desc>lat.=55.861233, lon.=26.520626, Alt.=93.256897m. Speed=25.955999m/h.</desc>
<speed>7.210000</speed>
</trkpt>
<trkpt lat="55.861259" lon="26.520523">
<ele>93.133850</ele>
<time>2010-07-18T13:58:35Z</time>
<desc>lat.=55.861259, lon.=26.520523, Alt.=93.133850m. Speed=24.408001m/h.</desc>
<speed>6.780000</speed>
</trkpt>
<trkpt lat="55.861279" lon="26.520418">
<ele>92.188538</ele>
<time>2010-07-18T13:58:36Z</time>
<desc>lat.=55.861279, lon.=26.520418, Alt.=92.188538m. Speed=25.992001m/h.</desc>
<speed>7.220000</speed>
</trkpt>
<trkpt lat="55.861313" lon="26.520304">
<ele>92.149475</ele>
<time>2010-07-18T13:58:37Z</time>
<desc>lat.=55.861313, lon.=26.520304, Alt.=92.149475m. Speed=26.568001m/h.</desc>
<speed>7.380000</speed>
</trkpt>
<trkpt lat="55.861347" lon="26.520203">
<ele>92.188538</ele>
<time>2010-07-18T13:58:38Z</time>
<desc>lat.=55.861347, lon.=26.520203, Alt.=92.188538m. Speed=26.784000m/h.</desc>
<speed>7.440000</speed>
</trkpt>
<trkpt lat="55.861382" lon="26.520102">
<ele>92.008850</ele>
<time>2010-07-18T13:58:39Z</time>
<desc>lat.=55.861382, lon.=26.520102, Alt.=92.008850m. Speed=25.091999m/h.</desc>
<speed>6.970000</speed>
</trkpt>
<trkpt lat="55.861416" lon="26.520008">
<ele>91.760803</ele>
<time>2010-07-18T13:58:40Z</time>
<desc>lat.=55.861416, lon.=26.520008, Alt.=91.760803m. Speed=25.848000m/h.</desc>
<speed>7.180000</speed>
</trkpt>
<trkpt lat="55.861435" lon="26.519892">
<ele>93.559631</ele>
<time>2010-07-18T13:58:41Z</time>
<desc>lat.=55.861435, lon.=26.519892, Alt.=93.559631m. Speed=26.459999m/h.</desc>
<speed>7.350000</speed>
</trkpt>
<trkpt lat="55.861469" lon="26.519787">
<ele>93.356506</ele>
<time>2010-07-18T13:58:42Z</time>
<desc>lat.=55.861469, lon.=26.519787, Alt.=93.356506m. Speed=25.200001m/h.</desc>
<speed>7.000000</speed>
</trkpt>
<trkpt lat="55.861504" lon="26.519690">
<ele>93.270569</ele>
<time>2010-07-18T13:58:43Z</time>
<desc>lat.=55.861504, lon.=26.519690, Alt.=93.270569m. Speed=27.360001m/h.</desc>
<speed>7.600000</speed>
</trkpt>
<trkpt lat="55.861542" lon="26.519592">
<ele>93.172913</ele>
<time>2010-07-18T13:58:44Z</time>
<desc>lat.=55.861542, lon.=26.519592, Alt.=93.172913m. Speed=25.200001m/h.</desc>
<speed>7.000000</speed>
</trkpt>
<trkpt lat="55.861576" lon="26.519505">
<ele>93.252991</ele>
<time>2010-07-18T13:58:45Z</time>
<desc>lat.=55.861576, lon.=26.519505, Alt.=93.252991m. Speed=25.056000m/h.</desc>
<speed>6.960000</speed>
</trkpt>
<trkpt lat="55.861610" lon="26.519405">
<ele>93.922913</ele>
<time>2010-07-18T13:58:46Z</time>
<desc>lat.=55.861610, lon.=26.519405, Alt.=93.922913m. Speed=26.136000m/h.</desc>
<speed>7.260000</speed>
</trkpt>
<trkpt lat="55.861645" lon="26.519300">
<ele>93.090881</ele>
<time>2010-07-18T13:58:47Z</time>
<desc>lat.=55.861645, lon.=26.519300, Alt.=93.090881m. Speed=26.820000m/h.</desc>
<speed>7.450000</speed>
</trkpt>
<trkpt lat="55.861679" lon="26.519197">
<ele>92.924866</ele>
<time>2010-07-18T13:58:48Z</time>
<desc>lat.=55.861679, lon.=26.519197, Alt.=92.924866m. Speed=26.496000m/h.</desc>
<speed>7.360000</speed>
</trkpt>
<trkpt lat="55.861713" lon="26.519098">
<ele>92.805725</ele>
<time>2010-07-18T13:58:49Z</time>
<desc>lat.=55.861713, lon.=26.519098, Alt.=92.805725m. Speed=25.379999m/h.</desc>
<speed>7.050000</speed>
</trkpt>
<trkpt lat="55.861740" lon="26.519003">
<ele>91.792053</ele>
<time>2010-07-18T13:58:50Z</time>
<desc>lat.=55.861740, lon.=26.519003, Alt.=91.792053m. Speed=22.643999m/h.</desc>
<speed>6.290000</speed>
</trkpt>
<trkpt lat="55.861771" lon="26.518915">
<ele>92.016663</ele>
<time>2010-07-18T13:58:51Z</time>
<desc>lat.=55.861771, lon.=26.518915, Alt.=92.016663m. Speed=24.048000m/h.</desc>
<speed>6.680000</speed>
</trkpt>
<trkpt lat="55.861797" lon="26.518822">
<ele>93.833069</ele>
<time>2010-07-18T13:58:52Z</time>
<desc>lat.=55.861797, lon.=26.518822, Alt.=93.833069m. Speed=24.408001m/h.</desc>
<speed>6.780000</speed>
</trkpt>
<trkpt lat="55.861828" lon="26.518724">
<ele>94.088928</ele>
<time>2010-07-18T13:58:53Z</time>
<desc>lat.=55.861828, lon.=26.518724, Alt.=94.088928m. Speed=25.308001m/h.</desc>
<speed>7.030000</speed>
</trkpt>
<trkpt lat="55.861862" lon="26.518627">
<ele>95.731506</ele>
<time>2010-07-18T13:58:54Z</time>
<desc>lat.=55.861862, lon.=26.518627, Alt.=95.731506m. Speed=25.955999m/h.</desc>
<speed>7.210000</speed>
</trkpt>
<trkpt lat="55.861897" lon="26.518522">
<ele>95.454163</ele>
<time>2010-07-18T13:58:55Z</time>
<desc>lat.=55.861897, lon.=26.518522, Alt.=95.454163m. Speed=26.351999m/h.</desc>
<speed>7.320000</speed>
</trkpt>
<trkpt lat="55.861923" lon="26.518415">
<ele>94.448303</ele>
<time>2010-07-18T13:58:56Z</time>
<desc>lat.=55.861923, lon.=26.518415, Alt.=94.448303m. Speed=26.496000m/h.</desc>
<speed>7.360000</speed>
</trkpt>
<trkpt lat="55.861954" lon="26.518322">
<ele>93.190491</ele>
<time>2010-07-18T13:58:57Z</time>
<desc>lat.=55.861954, lon.=26.518322, Alt.=93.190491m. Speed=24.768000m/h.</desc>
<speed>6.880000</speed>
</trkpt>
<trkpt lat="55.861988" lon="26.518229">
<ele>93.061584</ele>
<time>2010-07-18T13:58:58Z</time>
<desc>lat.=55.861988, lon.=26.518229, Alt.=93.061584m. Speed=25.200001m/h.</desc>
<speed>7.000000</speed>
</trkpt>
<trkpt lat="55.862019" lon="26.518133">
<ele>92.629944</ele>
<time>2010-07-18T13:58:59Z</time>
<desc>lat.=55.862019, lon.=26.518133, Alt.=92.629944m. Speed=23.219999m/h.</desc>
<speed>6.450000</speed>
</trkpt>
<trkpt lat="55.862049" lon="26.518045">
<ele>93.233459</ele>
<time>2010-07-18T13:59:00Z</time>
<desc>lat.=55.862049, lon.=26.518045, Alt.=93.233459m. Speed=21.600000m/h.</desc>
<speed>6.000000</speed>
</trkpt>
<trkpt lat="55.862076" lon="26.517944">
<ele>92.676819</ele>
<time>2010-07-18T13:59:01Z</time>
<desc>lat.=55.862076, lon.=26.517944, Alt.=92.676819m. Speed=24.660000m/h.</desc>
<speed>6.850000</speed>
</trkpt>
<trkpt lat="55.862103" lon="26.517849">
<ele>92.411194</ele>
<time>2010-07-18T13:59:02Z</time>
<desc>lat.=55.862103, lon.=26.517849, Alt.=92.411194m. Speed=22.427999m/h.</desc>
<speed>6.230000</speed>
</trkpt>
<trkpt lat="55.862129" lon="26.517761">
<ele>91.961975</ele>
<time>2010-07-18T13:59:03Z</time>
<desc>lat.=55.862129, lon.=26.517761, Alt.=91.961975m. Speed=22.427999m/h.</desc>
<speed>6.230000</speed>
</trkpt>
<trkpt lat="55.862156" lon="26.517675">
<ele>91.745178</ele>
<time>2010-07-18T13:59:04Z</time>
<desc>lat.=55.862156, lon.=26.517675, Alt.=91.745178m. Speed=21.959999m/h.</desc>
<speed>6.100000</speed>
</trkpt>
<trkpt lat="55.862186" lon="26.517576">
<ele>91.311584</ele>
<time>2010-07-18T13:59:05Z</time>
<desc>lat.=55.862186, lon.=26.517576, Alt.=91.311584m. Speed=23.903999m/h.</desc>
<speed>6.640000</speed>
</trkpt>
<trkpt lat="55.862213" lon="26.517479">
<ele>90.897522</ele>
<time>2010-07-18T13:59:06Z</time>
<desc>lat.=55.862213, lon.=26.517479, Alt.=90.897522m. Speed=24.732000m/h.</desc>
<speed>6.870000</speed>
</trkpt>
<trkpt lat="55.862244" lon="26.517387">
<ele>89.786194</ele>
<time>2010-07-18T13:59:07Z</time>
<desc>lat.=55.862244, lon.=26.517387, Alt.=89.786194m. Speed=24.912001m/h.</desc>
<speed>6.920000</speed>
</trkpt>
<trkpt lat="55.862278" lon="26.517282">
<ele>89.952209</ele>
<time>2010-07-18T13:59:08Z</time>
<desc>lat.=55.862278, lon.=26.517282, Alt.=89.952209m. Speed=25.164000m/h.</desc>
<speed>6.990000</speed>
</trkpt>
<trkpt lat="55.862309" lon="26.517172">
<ele>89.448303</ele>
<time>2010-07-18T13:59:09Z</time>
<desc>lat.=55.862309, lon.=26.517172, Alt.=89.448303m. Speed=26.172001m/h.</desc>
<speed>7.270000</speed>
</trkpt>
<trkpt lat="55.862335" lon="26.517067">
<ele>88.198303</ele>
<time>2010-07-18T13:59:10Z</time>
<desc>lat.=55.862335, lon.=26.517067, Alt.=88.198303m. Speed=22.247999m/h.</desc>
<speed>6.180000</speed>
</trkpt>
<trkpt lat="55.862358" lon="26.516975">
<ele>88.391663</ele>
<time>2010-07-18T13:59:11Z</time>
<desc>lat.=55.862358, lon.=26.516975, Alt.=88.391663m. Speed=21.167999m/h.</desc>
<speed>5.880000</speed>
</trkpt>
<trkpt lat="55.862385" lon="26.516886">
<ele>88.159241</ele>
<time>2010-07-18T13:59:12Z</time>
<desc>lat.=55.862385, lon.=26.516886, Alt.=88.159241m. Speed=22.823999m/h.</desc>
<speed>6.340000</speed>
</trkpt>
<trkpt lat="55.862408" lon="26.516792">
<ele>87.969788</ele>
<time>2010-07-18T13:59:13Z</time>
<desc>lat.=55.862408, lon.=26.516792, Alt.=87.969788m. Speed=23.076000m/h.</desc>
<speed>6.410000</speed>
</trkpt>
<trkpt lat="55.862442" lon="26.516695">
<ele>86.794006</ele>
<time>2010-07-18T13:59:14Z</time>
<desc>lat.=55.862442, lon.=26.516695, Alt.=86.794006m. Speed=23.760000m/h.</desc>
<speed>6.600000</speed>
</trkpt>
<trkpt lat="55.862488" lon="26.516600">
<ele>91.028381</ele>
<time>2010-07-18T13:59:15Z</time>
<desc>lat.=55.862488, lon.=26.516600, Alt.=91.028381m. Speed=23.903999m/h.</desc>
<speed>6.640000</speed>
</trkpt>
<trkpt lat="55.862541" lon="26.516510">
<ele>96.803772</ele>
<time>2010-07-18T13:59:16Z</time>
<desc>lat.=55.862541, lon.=26.516510, Alt.=96.803772m. Speed=26.604000m/h.</desc>
<speed>7.390000</speed>
</trkpt>
<trkpt lat="55.862572" lon="26.516405">
<ele>98.200256</ele>
<time>2010-07-18T13:59:17Z</time>
<desc>lat.=55.862572, lon.=26.516405, Alt.=98.200256m. Speed=25.379999m/h.</desc>
<speed>7.050000</speed>
</trkpt>
<trkpt lat="55.862602" lon="26.516312">
<ele>98.725647</ele>
<time>2010-07-18T13:59:18Z</time>
<desc>lat.=55.862602, lon.=26.516312, Alt.=98.725647m. Speed=24.084000m/h.</desc>
<speed>6.690000</speed>
</trkpt>
<trkpt lat="55.862629" lon="26.516220">
<ele>99.307678</ele>
<time>2010-07-18T13:59:19Z</time>
<desc>lat.=55.862629, lon.=26.516220, Alt.=99.307678m. Speed=24.156000m/h.</desc>
<speed>6.710000</speed>
</trkpt>
<trkpt lat="55.862659" lon="26.516129">
<ele>99.340881</ele>
<time>2010-07-18T13:59:20Z</time>
<desc>lat.=55.862659, lon.=26.516129, Alt.=99.340881m. Speed=23.327999m/h.</desc>
<speed>6.480000</speed>
</trkpt>
<trkpt lat="55.862686" lon="26.516037">
<ele>99.321350</ele>
<time>2010-07-18T13:59:21Z</time>
<desc>lat.=55.862686, lon.=26.516037, Alt.=99.321350m. Speed=22.535999m/h.</desc>
<speed>6.260000</speed>
</trkpt>
<trkpt lat="55.862717" lon="26.515947">
<ele>98.751038</ele>
<time>2010-07-18T13:59:22Z</time>
<desc>lat.=55.862717, lon.=26.515947, Alt.=98.751038m. Speed=20.916000m/h.</desc>
<speed>5.810000</speed>
</trkpt>
<trkpt lat="55.862743" lon="26.515871">
<ele>99.477600</ele>
<time>2010-07-18T13:59:23Z</time>
<desc>lat.=55.862743, lon.=26.515871, Alt.=99.477600m. Speed=17.028000m/h.</desc>
<speed>4.730000</speed>
</trkpt>
<trkpt lat="55.862762" lon="26.515799">
<ele>99.180725</ele>
<time>2010-07-18T13:59:24Z</time>
<desc>lat.=55.862762, lon.=26.515799, Alt.=99.180725m. Speed=13.392000m/h.</desc>
<speed>3.720000</speed>
</trkpt>
<trkpt lat="55.862778" lon="26.515745">
<ele>98.733459</ele>
<time>2010-07-18T13:59:25Z</time>
<desc>lat.=55.862778, lon.=26.515745, Alt.=98.733459m. Speed=10.548000m/h.</desc>
<speed>2.930000</speed>
</trkpt>
<trkpt lat="55.862789" lon="26.515696">
<ele>98.575256</ele>
<time>2010-07-18T13:59:26Z</time>
<desc>lat.=55.862789, lon.=26.515696, Alt.=98.575256m. Speed=9.972000m/h.</desc>
<speed>2.770000</speed>
</trkpt>
<trkpt lat="55.862797" lon="26.515652">
<ele>98.729553</ele>
<time>2010-07-18T13:59:27Z</time>
<desc>lat.=55.862797, lon.=26.515652, Alt.=98.729553m. Speed=10.800000m/h.</desc>
<speed>3.000000</speed>
</trkpt>
<trkpt lat="55.862808" lon="26.515610">
<ele>99.061584</ele>
<time>2010-07-18T13:59:28Z</time>
<desc>lat.=55.862808, lon.=26.515610, Alt.=99.061584m. Speed=11.844000m/h.</desc>
<speed>3.290000</speed>
</trkpt>
<trkpt lat="55.862823" lon="26.515553">
<ele>99.362366</ele>
<time>2010-07-18T13:59:29Z</time>
<desc>lat.=55.862823, lon.=26.515553, Alt.=99.362366m. Speed=15.624000m/h.</desc>
<speed>4.340000</speed>
</trkpt>
<trkpt lat="55.862843" lon="26.515484">
<ele>99.489319</ele>
<time>2010-07-18T13:59:30Z</time>
<desc>lat.=55.862843, lon.=26.515484, Alt.=99.489319m. Speed=16.992001m/h.</desc>
<speed>4.720000</speed>
</trkpt>
<trkpt lat="55.862869" lon="26.515409">
<ele>99.295959</ele>
<time>2010-07-18T13:59:31Z</time>
<desc>lat.=55.862869, lon.=26.515409, Alt.=99.295959m. Speed=16.416000m/h.</desc>
<speed>4.560000</speed>
</trkpt>
<trkpt lat="55.862900" lon="26.515335">
<ele>100.186584</ele>
<time>2010-07-18T13:59:32Z</time>
<desc>lat.=55.862900, lon.=26.515335, Alt.=100.186584m. Speed=18.576000m/h.</desc>
<speed>5.160000</speed>
</trkpt>
<trkpt lat="55.862926" lon="26.515261">
<ele>101.010803</ele>
<time>2010-07-18T13:59:33Z</time>
<desc>lat.=55.862926, lon.=26.515261, Alt.=101.010803m. Speed=18.756001m/h.</desc>
<speed>5.210000</speed>
</trkpt>
<trkpt lat="55.862949" lon="26.515186">
<ele>101.151428</ele>
<time>2010-07-18T13:59:34Z</time>
<desc>lat.=55.862949, lon.=26.515186, Alt.=101.151428m. Speed=19.691999m/h.</desc>
<speed>5.470000</speed>
</trkpt>
<trkpt lat="55.862984" lon="26.515097">
<ele>100.754944</ele>
<time>2010-07-18T13:59:35Z</time>
<desc>lat.=55.862984, lon.=26.515097, Alt.=100.754944m. Speed=23.976000m/h.</desc>
<speed>6.660000</speed>
</trkpt>
<trkpt lat="55.863014" lon="26.514990">
<ele>100.319397</ele>
<time>2010-07-18T13:59:36Z</time>
<desc>lat.=55.863014, lon.=26.514990, Alt.=100.319397m. Speed=24.768000m/h.</desc>
<speed>6.880000</speed>
</trkpt>
<trkpt lat="55.863052" lon="26.514891">
<ele>100.499084</ele>
<time>2010-07-18T13:59:37Z</time>
<desc>lat.=55.863052, lon.=26.514891, Alt.=100.499084m. Speed=25.416000m/h.</desc>
<speed>7.060000</speed>
</trkpt>
<trkpt lat="55.863083" lon="26.514793">
<ele>100.389709</ele>
<time>2010-07-18T13:59:38Z</time>
<desc>lat.=55.863083, lon.=26.514793, Alt.=100.389709m. Speed=22.860001m/h.</desc>
<speed>6.350000</speed>
</trkpt>
<trkpt lat="55.863110" lon="26.514700">
<ele>99.012756</ele>
<time>2010-07-18T13:59:39Z</time>
<desc>lat.=55.863110, lon.=26.514700, Alt.=99.012756m. Speed=23.796000m/h.</desc>
<speed>6.610000</speed>
</trkpt>
<trkpt lat="55.863132" lon="26.514606">
<ele>98.586975</ele>
<time>2010-07-18T13:59:40Z</time>
<desc>lat.=55.863132, lon.=26.514606, Alt.=98.586975m. Speed=23.256001m/h.</desc>
<speed>6.460000</speed>
</trkpt>
<trkpt lat="55.863155" lon="26.514515">
<ele>98.844788</ele>
<time>2010-07-18T13:59:41Z</time>
<desc>lat.=55.863155, lon.=26.514515, Alt.=98.844788m. Speed=22.392000m/h.</desc>
<speed>6.220000</speed>
</trkpt>
<trkpt lat="55.863174" lon="26.514435">
<ele>98.549866</ele>
<time>2010-07-18T13:59:42Z</time>
<desc>lat.=55.863174, lon.=26.514435, Alt.=98.549866m. Speed=19.511999m/h.</desc>
<speed>5.420000</speed>
</trkpt>
<trkpt lat="55.863201" lon="26.514355">
<ele>98.237366</ele>
<time>2010-07-18T13:59:43Z</time>
<desc>lat.=55.863201, lon.=26.514355, Alt.=98.237366m. Speed=20.879999m/h.</desc>
<speed>5.800000</speed>
</trkpt>
<trkpt lat="55.863228" lon="26.514275">
<ele>98.465881</ele>
<time>2010-07-18T13:59:44Z</time>
<desc>lat.=55.863228, lon.=26.514275, Alt.=98.465881m. Speed=21.312000m/h.</desc>
<speed>5.920000</speed>
</trkpt>
<trkpt lat="55.863243" lon="26.514179">
<ele>98.422913</ele>
<time>2010-07-18T13:59:45Z</time>
<desc>lat.=55.863243, lon.=26.514179, Alt.=98.422913m. Speed=22.139999m/h.</desc>
<speed>6.150000</speed>
</trkpt>
<trkpt lat="55.863266" lon="26.514097">
<ele>98.557678</ele>
<time>2010-07-18T13:59:46Z</time>
<desc>lat.=55.863266, lon.=26.514097, Alt.=98.557678m. Speed=21.672001m/h.</desc>
<speed>6.020000</speed>
</trkpt>
<trkpt lat="55.863293" lon="26.513996">
<ele>98.860413</ele>
<time>2010-07-18T13:59:47Z</time>
<desc>lat.=55.863293, lon.=26.513996, Alt.=98.860413m. Speed=24.695999m/h.</desc>
<speed>6.860000</speed>
</trkpt>
<trkpt lat="55.863323" lon="26.513899">
<ele>99.028381</ele>
<time>2010-07-18T13:59:48Z</time>
<desc>lat.=55.863323, lon.=26.513899, Alt.=99.028381m. Speed=24.804001m/h.</desc>
<speed>6.890000</speed>
</trkpt>
<trkpt lat="55.863354" lon="26.513802">
<ele>99.120178</ele>
<time>2010-07-18T13:59:49Z</time>
<desc>lat.=55.863354, lon.=26.513802, Alt.=99.120178m. Speed=24.480000m/h.</desc>
<speed>6.800000</speed>
</trkpt>
<trkpt lat="55.863384" lon="26.513697">
<ele>99.094788</ele>
<time>2010-07-18T13:59:50Z</time>
<desc>lat.=55.863384, lon.=26.513697, Alt.=99.094788m. Speed=24.156000m/h.</desc>
<speed>6.710000</speed>
</trkpt>
<trkpt lat="55.863407" lon="26.513594">
<ele>98.856506</ele>
<time>2010-07-18T13:59:51Z</time>
<desc>lat.=55.863407, lon.=26.513594, Alt.=98.856506m. Speed=22.896000m/h.</desc>
<speed>6.360000</speed>
</trkpt>
<trkpt lat="55.863434" lon="26.513496">
<ele>98.020569</ele>
<time>2010-07-18T13:59:52Z</time>
<desc>lat.=55.863434, lon.=26.513496, Alt.=98.020569m. Speed=23.040001m/h.</desc>
<speed>6.400000</speed>
</trkpt>
<trkpt lat="55.863453" lon="26.513395">
<ele>96.790100</ele>
<time>2010-07-18T13:59:53Z</time>
<desc>lat.=55.863453, lon.=26.513395, Alt.=96.790100m. Speed=23.544001m/h.</desc>
<speed>6.540000</speed>
</trkpt>
<trkpt lat="55.863476" lon="26.513294">
<ele>95.616272</ele>
<time>2010-07-18T13:59:54Z</time>
<desc>lat.=55.863476, lon.=26.513294, Alt.=95.616272m. Speed=22.608000m/h.</desc>
<speed>6.280000</speed>
</trkpt>
<trkpt lat="55.863503" lon="26.513210">
<ele>96.249084</ele>
<time>2010-07-18T13:59:55Z</time>
<desc>lat.=55.863503, lon.=26.513210, Alt.=96.249084m. Speed=21.924000m/h.</desc>
<speed>6.090000</speed>
</trkpt>
<trkpt lat="55.863529" lon="26.513128">
<ele>96.667053</ele>
<time>2010-07-18T13:59:56Z</time>
<desc>lat.=55.863529, lon.=26.513128, Alt.=96.667053m. Speed=20.556000m/h.</desc>
<speed>5.710000</speed>
</trkpt>
<trkpt lat="55.863548" lon="26.513050">
<ele>97.354553</ele>
<time>2010-07-18T13:59:57Z</time>
<desc>lat.=55.863548, lon.=26.513050, Alt.=97.354553m. Speed=20.412001m/h.</desc>
<speed>5.670000</speed>
</trkpt>
<trkpt lat="55.863567" lon="26.512978">
<ele>97.608459</ele>
<time>2010-07-18T13:59:58Z</time>
<desc>lat.=55.863567, lon.=26.512978, Alt.=97.608459m. Speed=20.412001m/h.</desc>
<speed>5.670000</speed>
</trkpt>
<trkpt lat="55.863583" lon="26.512886">
<ele>97.483459</ele>
<time>2010-07-18T13:59:59Z</time>
<desc>lat.=55.863583, lon.=26.512886, Alt.=97.483459m. Speed=21.780001m/h.</desc>
<speed>6.050000</speed>
</trkpt>
<trkpt lat="55.863598" lon="26.512796">
<ele>97.426819</ele>
<time>2010-07-18T14:00:00Z</time>
<desc>lat.=55.863598, lon.=26.512796, Alt.=97.426819m. Speed=20.448000m/h.</desc>
<speed>5.680000</speed>
</trkpt>
<trkpt lat="55.863625" lon="26.512709">
<ele>97.698303</ele>
<time>2010-07-18T14:00:01Z</time>
<desc>lat.=55.863625, lon.=26.512709, Alt.=97.698303m. Speed=22.608000m/h.</desc>
<speed>6.280000</speed>
</trkpt>
<trkpt lat="55.863651" lon="26.512615">
<ele>97.842834</ele>
<time>2010-07-18T14:00:02Z</time>
<desc>lat.=55.863651, lon.=26.512615, Alt.=97.842834m. Speed=22.896000m/h.</desc>
<speed>6.360000</speed>
</trkpt>
<trkpt lat="55.863674" lon="26.512514">
<ele>97.694397</ele>
<time>2010-07-18T14:00:03Z</time>
<desc>lat.=55.863674, lon.=26.512514, Alt.=97.694397m. Speed=22.716000m/h.</desc>
<speed>6.310000</speed>
</trkpt>
<trkpt lat="55.863697" lon="26.512417">
<ele>97.499084</ele>
<time>2010-07-18T14:00:04Z</time>
<desc>lat.=55.863697, lon.=26.512417, Alt.=97.499084m. Speed=22.643999m/h.</desc>
<speed>6.290000</speed>
</trkpt>
<trkpt lat="55.863716" lon="26.512323">
<ele>97.231506</ele>
<time>2010-07-18T14:00:05Z</time>
<desc>lat.=55.863716, lon.=26.512323, Alt.=97.231506m. Speed=22.716000m/h.</desc>
<speed>6.310000</speed>
</trkpt>
<trkpt lat="55.863743" lon="26.512228">
<ele>96.893616</ele>
<time>2010-07-18T14:00:06Z</time>
<desc>lat.=55.863743, lon.=26.512228, Alt.=96.893616m. Speed=23.507999m/h.</desc>
<speed>6.530000</speed>
</trkpt>
<trkpt lat="55.863766" lon="26.512135">
<ele>96.751038</ele>
<time>2010-07-18T14:00:07Z</time>
<desc>lat.=55.863766, lon.=26.512135, Alt.=96.751038m. Speed=23.580000m/h.</desc>
<speed>6.550000</speed>
</trkpt>
<trkpt lat="55.863792" lon="26.512043">
<ele>96.956116</ele>
<time>2010-07-18T14:00:08Z</time>
<desc>lat.=55.863792, lon.=26.512043, Alt.=96.956116m. Speed=24.804001m/h.</desc>
<speed>6.890000</speed>
</trkpt>
<trkpt lat="55.863827" lon="26.511948">
<ele>97.420959</ele>
<time>2010-07-18T14:00:09Z</time>
<desc>lat.=55.863827, lon.=26.511948, Alt.=97.420959m. Speed=25.488001m/h.</desc>
<speed>7.080000</speed>
</trkpt>
<trkpt lat="55.863850" lon="26.511854">
<ele>97.493225</ele>
<time>2010-07-18T14:00:10Z</time>
<desc>lat.=55.863850, lon.=26.511854, Alt.=97.493225m. Speed=23.076000m/h.</desc>
<speed>6.410000</speed>
</trkpt>
<trkpt lat="55.863873" lon="26.511765">
<ele>97.641663</ele>
<time>2010-07-18T14:00:11Z</time>
<desc>lat.=55.863873, lon.=26.511765, Alt.=97.641663m. Speed=23.327999m/h.</desc>
<speed>6.480000</speed>
</trkpt>
<trkpt lat="55.863899" lon="26.511677">
<ele>98.034241</ele>
<time>2010-07-18T14:00:12Z</time>
<desc>lat.=55.863899, lon.=26.511677, Alt.=98.034241m. Speed=22.320000m/h.</desc>
<speed>6.200000</speed>
</trkpt>
<trkpt lat="55.863926" lon="26.511572">
<ele>98.182678</ele>
<time>2010-07-18T14:00:13Z</time>
<desc>lat.=55.863926, lon.=26.511572, Alt.=98.182678m. Speed=22.823999m/h.</desc>
<speed>6.340000</speed>
</trkpt>
<trkpt lat="55.863949" lon="26.511467">
<ele>98.502991</ele>
<time>2010-07-18T14:00:14Z</time>
<desc>lat.=55.863949, lon.=26.511467, Alt.=98.502991m. Speed=21.816000m/h.</desc>
<speed>6.060000</speed>
</trkpt>
<trkpt lat="55.863972" lon="26.511374">
<ele>98.616272</ele>
<time>2010-07-18T14:00:15Z</time>
<desc>lat.=55.863972, lon.=26.511374, Alt.=98.616272m. Speed=22.535999m/h.</desc>
<speed>6.260000</speed>
</trkpt>
<trkpt lat="55.864006" lon="26.511278">
<ele>97.196350</ele>
<time>2010-07-18T14:00:16Z</time>
<desc>lat.=55.864006, lon.=26.511278, Alt.=97.196350m. Speed=23.400000m/h.</desc>
<speed>6.500000</speed>
</trkpt>
<trkpt lat="55.864037" lon="26.511177">
<ele>95.405334</ele>
<time>2010-07-18T14:00:17Z</time>
<desc>lat.=55.864037, lon.=26.511177, Alt.=95.405334m. Speed=22.643999m/h.</desc>
<speed>6.290000</speed>
</trkpt>
<trkpt lat="55.864071" lon="26.511108">
<ele>96.122131</ele>
<time>2010-07-18T14:00:18Z</time>
<desc>lat.=55.864071, lon.=26.511108, Alt.=96.122131m. Speed=20.016001m/h.</desc>
<speed>5.560000</speed>
</trkpt>
<trkpt lat="55.864120" lon="26.511089">
<ele>97.190491</ele>
<time>2010-07-18T14:00:19Z</time>
<desc>lat.=55.864120, lon.=26.511089, Alt.=97.190491m. Speed=18.648001m/h.</desc>
<speed>5.180000</speed>
</trkpt>
<trkpt lat="55.864166" lon="26.511095">
<ele>97.266663</ele>
<time>2010-07-18T14:00:20Z</time>
<desc>lat.=55.864166, lon.=26.511095, Alt.=97.266663m. Speed=19.188000m/h.</desc>
<speed>5.330000</speed>
</trkpt>
<trkpt lat="55.864208" lon="26.511116">
<ele>97.922913</ele>
<time>2010-07-18T14:00:21Z</time>
<desc>lat.=55.864208, lon.=26.511116, Alt.=97.922913m. Speed=20.160000m/h.</desc>
<speed>5.600000</speed>
</trkpt>
<trkpt lat="55.864254" lon="26.511147">
<ele>97.934631</ele>
<time>2010-07-18T14:00:22Z</time>
<desc>lat.=55.864254, lon.=26.511147, Alt.=97.934631m. Speed=20.195999m/h.</desc>
<speed>5.610000</speed>
</trkpt>
<trkpt lat="55.864300" lon="26.511177">
<ele>97.583069</ele>
<time>2010-07-18T14:00:23Z</time>
<desc>lat.=55.864300, lon.=26.511177, Alt.=97.583069m. Speed=19.980000m/h.</desc>
<speed>5.550000</speed>
</trkpt>
<trkpt lat="55.864349" lon="26.511208">
<ele>97.219788</ele>
<time>2010-07-18T14:00:24Z</time>
<desc>lat.=55.864349, lon.=26.511208, Alt.=97.219788m. Speed=20.087999m/h.</desc>
<speed>5.580000</speed>
</trkpt>
<trkpt lat="55.864399" lon="26.511242">
<ele>96.569397</ele>
<time>2010-07-18T14:00:25Z</time>
<desc>lat.=55.864399, lon.=26.511242, Alt.=96.569397m. Speed=19.224001m/h.</desc>
<speed>5.340000</speed>
</trkpt>
<trkpt lat="55.864445" lon="26.511276">
<ele>96.229553</ele>
<time>2010-07-18T14:00:26Z</time>
<desc>lat.=55.864445, lon.=26.511276, Alt.=96.229553m. Speed=17.892000m/h.</desc>
<speed>4.970000</speed>
</trkpt>
<trkpt lat="55.864491" lon="26.511311">
<ele>96.276428</ele>
<time>2010-07-18T14:00:27Z</time>
<desc>lat.=55.864491, lon.=26.511311, Alt.=96.276428m. Speed=17.964001m/h.</desc>
<speed>4.990000</speed>
</trkpt>
<trkpt lat="55.864529" lon="26.511353">
<ele>95.827209</ele>
<time>2010-07-18T14:00:28Z</time>
<desc>lat.=55.864529, lon.=26.511353, Alt.=95.827209m. Speed=17.747999m/h.</desc>
<speed>4.930000</speed>
</trkpt>
<trkpt lat="55.864571" lon="26.511379">
<ele>95.823303</ele>
<time>2010-07-18T14:00:29Z</time>
<desc>lat.=55.864571, lon.=26.511379, Alt.=95.823303m. Speed=16.812000m/h.</desc>
<speed>4.670000</speed>
</trkpt>
<trkpt lat="55.864613" lon="26.511410">
<ele>96.116272</ele>
<time>2010-07-18T14:00:30Z</time>
<desc>lat.=55.864613, lon.=26.511410, Alt.=96.116272m. Speed=16.992001m/h.</desc>
<speed>4.720000</speed>
</trkpt>
<trkpt lat="55.864651" lon="26.511427">
<ele>95.961975</ele>
<time>2010-07-18T14:00:31Z</time>
<desc>lat.=55.864651, lon.=26.511427, Alt.=95.961975m. Speed=16.704000m/h.</desc>
<speed>4.640000</speed>
</trkpt>
<trkpt lat="55.864693" lon="26.511461">
<ele>96.342834</ele>
<time>2010-07-18T14:00:32Z</time>
<desc>lat.=55.864693, lon.=26.511461, Alt.=96.342834m. Speed=17.280001m/h.</desc>
<speed>4.800000</speed>
</trkpt>
<trkpt lat="55.864735" lon="26.511494">
<ele>96.444397</ele>
<time>2010-07-18T14:00:33Z</time>
<desc>lat.=55.864735, lon.=26.511494, Alt.=96.444397m. Speed=18.072001m/h.</desc>
<speed>5.020000</speed>
</trkpt>
<trkpt lat="55.864780" lon="26.511524">
<ele>96.569397</ele>
<time>2010-07-18T14:00:34Z</time>
<desc>lat.=55.864780, lon.=26.511524, Alt.=96.569397m. Speed=19.224001m/h.</desc>
<speed>5.340000</speed>
</trkpt>
<trkpt lat="55.864826" lon="26.511555">
<ele>96.624084</ele>
<time>2010-07-18T14:00:35Z</time>
<desc>lat.=55.864826, lon.=26.511555, Alt.=96.624084m. Speed=19.260000m/h.</desc>
<speed>5.350000</speed>
</trkpt>
<trkpt lat="55.864876" lon="26.511580">
<ele>96.737366</ele>
<time>2010-07-18T14:00:36Z</time>
<desc>lat.=55.864876, lon.=26.511580, Alt.=96.737366m. Speed=19.656000m/h.</desc>
<speed>5.460000</speed>
</trkpt>
<trkpt lat="55.864922" lon="26.511612">
<ele>97.475647</ele>
<time>2010-07-18T14:00:37Z</time>
<desc>lat.=55.864922, lon.=26.511612, Alt.=97.475647m. Speed=18.504000m/h.</desc>
<speed>5.140000</speed>
</trkpt>
<trkpt lat="55.864960" lon="26.511637">
<ele>97.672913</ele>
<time>2010-07-18T14:00:38Z</time>
<desc>lat.=55.864960, lon.=26.511637, Alt.=97.672913m. Speed=16.848000m/h.</desc>
<speed>4.680000</speed>
</trkpt>
<trkpt lat="55.864998" lon="26.511662">
<ele>97.751038</ele>
<time>2010-07-18T14:00:39Z</time>
<desc>lat.=55.864998, lon.=26.511662, Alt.=97.751038m. Speed=16.596001m/h.</desc>
<speed>4.610000</speed>
</trkpt>
<trkpt lat="55.865036" lon="26.511692">
<ele>98.249084</ele>
<time>2010-07-18T14:00:40Z</time>
<desc>lat.=55.865036, lon.=26.511692, Alt.=98.249084m. Speed=15.696000m/h.</desc>
<speed>4.360000</speed>
</trkpt>
<trkpt lat="55.865070" lon="26.511717">
<ele>97.481506</ele>
<time>2010-07-18T14:00:41Z</time>
<desc>lat.=55.865070, lon.=26.511717, Alt.=97.481506m. Speed=15.012000m/h.</desc>
<speed>4.170000</speed>
</trkpt>
<trkpt lat="55.865108" lon="26.511744">
<ele>97.210022</ele>
<time>2010-07-18T14:00:42Z</time>
<desc>lat.=55.865108, lon.=26.511744, Alt.=97.210022m. Speed=17.136000m/h.</desc>
<speed>4.760000</speed>
</trkpt>
<trkpt lat="55.865150" lon="26.511770">
<ele>96.838928</ele>
<time>2010-07-18T14:00:43Z</time>
<desc>lat.=55.865150, lon.=26.511770, Alt.=96.838928m. Speed=17.424000m/h.</desc>
<speed>4.840000</speed>
</trkpt>
<trkpt lat="55.865192" lon="26.511799">
<ele>96.874084</ele>
<time>2010-07-18T14:00:44Z</time>
<desc>lat.=55.865192, lon.=26.511799, Alt.=96.874084m. Speed=17.496000m/h.</desc>
<speed>4.860000</speed>
</trkpt>
<trkpt lat="55.865234" lon="26.511824">
<ele>96.696350</ele>
<time>2010-07-18T14:00:45Z</time>
<desc>lat.=55.865234, lon.=26.511824, Alt.=96.696350m. Speed=18.972000m/h.</desc>
<speed>5.270000</speed>
</trkpt>
<trkpt lat="55.865280" lon="26.511856">
<ele>96.977600</ele>
<time>2010-07-18T14:00:46Z</time>
<desc>lat.=55.865280, lon.=26.511856, Alt.=96.977600m. Speed=18.468000m/h.</desc>
<speed>5.130000</speed>
</trkpt>
<trkpt lat="55.865326" lon="26.511885">
<ele>97.370178</ele>
<time>2010-07-18T14:00:47Z</time>
<desc>lat.=55.865326, lon.=26.511885, Alt.=97.370178m. Speed=19.152000m/h.</desc>
<speed>5.320000</speed>
</trkpt>
<trkpt lat="55.865372" lon="26.511913">
<ele>97.165100</ele>
<time>2010-07-18T14:00:48Z</time>
<desc>lat.=55.865372, lon.=26.511913, Alt.=97.165100m. Speed=19.115999m/h.</desc>
<speed>5.310000</speed>
</trkpt>
<trkpt lat="55.865414" lon="26.511944">
<ele>98.210022</ele>
<time>2010-07-18T14:00:49Z</time>
<desc>lat.=55.865414, lon.=26.511944, Alt.=98.210022m. Speed=20.160000m/h.</desc>
<speed>5.600000</speed>
</trkpt>
<trkpt lat="55.865463" lon="26.511976">
<ele>98.067444</ele>
<time>2010-07-18T14:00:50Z</time>
<desc>lat.=55.865463, lon.=26.511976, Alt.=98.067444m. Speed=19.188000m/h.</desc>
<speed>5.330000</speed>
</trkpt>
<trkpt lat="55.865509" lon="26.512012">
<ele>98.178772</ele>
<time>2010-07-18T14:00:51Z</time>
<desc>lat.=55.865509, lon.=26.512012, Alt.=98.178772m. Speed=19.224001m/h.</desc>
<speed>5.340000</speed>
</trkpt>
<trkpt lat="55.865559" lon="26.512039">
<ele>97.967834</ele>
<time>2010-07-18T14:00:52Z</time>
<desc>lat.=55.865559, lon.=26.512039, Alt.=97.967834m. Speed=19.799999m/h.</desc>
<speed>5.500000</speed>
</trkpt>
<trkpt lat="55.865604" lon="26.512072">
<ele>98.155334</ele>
<time>2010-07-18T14:00:53Z</time>
<desc>lat.=55.865604, lon.=26.512072, Alt.=98.155334m. Speed=19.908001m/h.</desc>
<speed>5.530000</speed>
</trkpt>
<trkpt lat="55.865646" lon="26.512110">
<ele>98.053772</ele>
<time>2010-07-18T14:00:54Z</time>
<desc>lat.=55.865646, lon.=26.512110, Alt.=98.053772m. Speed=19.440001m/h.</desc>
<speed>5.400000</speed>
</trkpt>
<trkpt lat="55.865692" lon="26.512138">
<ele>98.049866</ele>
<time>2010-07-18T14:00:55Z</time>
<desc>lat.=55.865692, lon.=26.512138, Alt.=98.049866m. Speed=19.620001m/h.</desc>
<speed>5.450000</speed>
</trkpt>
<trkpt lat="55.865738" lon="26.512163">
<ele>96.954163</ele>
<time>2010-07-18T14:00:56Z</time>
<desc>lat.=55.865738, lon.=26.512163, Alt.=96.954163m. Speed=19.584000m/h.</desc>
<speed>5.440000</speed>
</trkpt>
<trkpt lat="55.865780" lon="26.512194">
<ele>95.961975</ele>
<time>2010-07-18T14:00:57Z</time>
<desc>lat.=55.865780, lon.=26.512194, Alt.=95.961975m. Speed=18.864000m/h.</desc>
<speed>5.240000</speed>
</trkpt>
<trkpt lat="55.865822" lon="26.512222">
<ele>95.710022</ele>
<time>2010-07-18T14:00:58Z</time>
<desc>lat.=55.865822, lon.=26.512222, Alt.=95.710022m. Speed=19.548000m/h.</desc>
<speed>5.430000</speed>
</trkpt>
<trkpt lat="55.865871" lon="26.512247">
<ele>95.469788</ele>
<time>2010-07-18T14:00:59Z</time>
<desc>lat.=55.865871, lon.=26.512247, Alt.=95.469788m. Speed=20.304001m/h.</desc>
<speed>5.640000</speed>
</trkpt>
<trkpt lat="55.865917" lon="26.512276">
<ele>94.700256</ele>
<time>2010-07-18T14:01:00Z</time>
<desc>lat.=55.865917, lon.=26.512276, Alt.=94.700256m. Speed=21.059999m/h.</desc>
<speed>5.850000</speed>
</trkpt>
<trkpt lat="55.865963" lon="26.512316">
<ele>94.665100</ele>
<time>2010-07-18T14:01:01Z</time>
<desc>lat.=55.865963, lon.=26.512316, Alt.=94.665100m. Speed=20.412001m/h.</desc>
<speed>5.670000</speed>
</trkpt>
<trkpt lat="55.866013" lon="26.512352">
<ele>94.540100</ele>
<time>2010-07-18T14:01:02Z</time>
<desc>lat.=55.866013, lon.=26.512352, Alt.=94.540100m. Speed=20.052000m/h.</desc>
<speed>5.570000</speed>
</trkpt>
<trkpt lat="55.866058" lon="26.512388">
<ele>94.272522</ele>
<time>2010-07-18T14:01:03Z</time>
<desc>lat.=55.866058, lon.=26.512388, Alt.=94.272522m. Speed=19.620001m/h.</desc>
<speed>5.450000</speed>
</trkpt>
<trkpt lat="55.866104" lon="26.512423">
<ele>93.938538</ele>
<time>2010-07-18T14:01:04Z</time>
<desc>lat.=55.866104, lon.=26.512423, Alt.=93.938538m. Speed=19.799999m/h.</desc>
<speed>5.500000</speed>
</trkpt>
<trkpt lat="55.866150" lon="26.512449">
<ele>93.606506</ele>
<time>2010-07-18T14:01:05Z</time>
<desc>lat.=55.866150, lon.=26.512449, Alt.=93.606506m. Speed=20.844000m/h.</desc>
<speed>5.790000</speed>
</trkpt>
<trkpt lat="55.866199" lon="26.512478">
<ele>93.532288</ele>
<time>2010-07-18T14:01:06Z</time>
<desc>lat.=55.866199, lon.=26.512478, Alt.=93.532288m. Speed=20.304001m/h.</desc>
<speed>5.640000</speed>
</trkpt>
<trkpt lat="55.866249" lon="26.512512">
<ele>93.422913</ele>
<time>2010-07-18T14:01:07Z</time>
<desc>lat.=55.866249, lon.=26.512512, Alt.=93.422913m. Speed=21.132000m/h.</desc>
<speed>5.870000</speed>
</trkpt>
<trkpt lat="55.866299" lon="26.512547">
<ele>95.170959</ele>
<time>2010-07-18T14:01:08Z</time>
<desc>lat.=55.866299, lon.=26.512547, Alt.=95.170959m. Speed=20.664000m/h.</desc>
<speed>5.740000</speed>
</trkpt>
<trkpt lat="55.866344" lon="26.512579">
<ele>95.239319</ele>
<time>2010-07-18T14:01:09Z</time>
<desc>lat.=55.866344, lon.=26.512579, Alt.=95.239319m. Speed=20.771999m/h.</desc>
<speed>5.770000</speed>
</trkpt>
<trkpt lat="55.866394" lon="26.512617">
<ele>95.424866</ele>
<time>2010-07-18T14:01:10Z</time>
<desc>lat.=55.866394, lon.=26.512617, Alt.=95.424866m. Speed=21.024000m/h.</desc>
<speed>5.840000</speed>
</trkpt>
<trkpt lat="55.866440" lon="26.512657">
<ele>95.397522</ele>
<time>2010-07-18T14:01:11Z</time>
<desc>lat.=55.866440, lon.=26.512657, Alt.=95.397522m. Speed=19.080000m/h.</desc>
<speed>5.300000</speed>
</trkpt>
<trkpt lat="55.866482" lon="26.512695">
<ele>95.747131</ele>
<time>2010-07-18T14:01:12Z</time>
<desc>lat.=55.866482, lon.=26.512695, Alt.=95.747131m. Speed=17.388000m/h.</desc>
<speed>4.830000</speed>
</trkpt>
<trkpt lat="55.866516" lon="26.512728">
<ele>95.780334</ele>
<time>2010-07-18T14:01:13Z</time>
<desc>lat.=55.866516, lon.=26.512728, Alt.=95.780334m. Speed=15.480000m/h.</desc>
<speed>4.300000</speed>
</trkpt>
<trkpt lat="55.866554" lon="26.512754">
<ele>95.733459</ele>
<time>2010-07-18T14:01:14Z</time>
<desc>lat.=55.866554, lon.=26.512754, Alt.=95.733459m. Speed=14.652000m/h.</desc>
<speed>4.070000</speed>
</trkpt>
<trkpt lat="55.866589" lon="26.512789">
<ele>97.092834</ele>
<time>2010-07-18T14:01:15Z</time>
<desc>lat.=55.866589, lon.=26.512789, Alt.=97.092834m. Speed=14.796000m/h.</desc>
<speed>4.110000</speed>
</trkpt>
<trkpt lat="55.866623" lon="26.512812">
<ele>97.704163</ele>
<time>2010-07-18T14:01:16Z</time>
<desc>lat.=55.866623, lon.=26.512812, Alt.=97.704163m. Speed=14.472000m/h.</desc>
<speed>4.020000</speed>
</trkpt>
<trkpt lat="55.866653" lon="26.512836">
<ele>98.208069</ele>
<time>2010-07-18T14:01:17Z</time>
<desc>lat.=55.866653, lon.=26.512836, Alt.=98.208069m. Speed=15.336000m/h.</desc>
<speed>4.260000</speed>
</trkpt>
<trkpt lat="55.866692" lon="26.512861">
<ele>100.663147</ele>
<time>2010-07-18T14:01:18Z</time>
<desc>lat.=55.866692, lon.=26.512861, Alt.=100.663147m. Speed=15.732000m/h.</desc>
<speed>4.370000</speed>
</trkpt>
<trkpt lat="55.866730" lon="26.512878">
<ele>101.571350</ele>
<time>2010-07-18T14:01:19Z</time>
<desc>lat.=55.866730, lon.=26.512878, Alt.=101.571350m. Speed=16.632000m/h.</desc>
<speed>4.620000</speed>
</trkpt>
<trkpt lat="55.866772" lon="26.512892">
<ele>101.735413</ele>
<time>2010-07-18T14:01:20Z</time>
<desc>lat.=55.866772, lon.=26.512892, Alt.=101.735413m. Speed=16.955999m/h.</desc>
<speed>4.710000</speed>
</trkpt>
<trkpt lat="55.866817" lon="26.512905">
<ele>101.850647</ele>
<time>2010-07-18T14:01:21Z</time>
<desc>lat.=55.866817, lon.=26.512905, Alt.=101.850647m. Speed=17.747999m/h.</desc>
<speed>4.930000</speed>
</trkpt>
<trkpt lat="55.866863" lon="26.512926">
<ele>101.981506</ele>
<time>2010-07-18T14:01:22Z</time>
<desc>lat.=55.866863, lon.=26.512926, Alt.=101.981506m. Speed=20.304001m/h.</desc>
<speed>5.640000</speed>
</trkpt>
<trkpt lat="55.866913" lon="26.512949">
<ele>102.112366</ele>
<time>2010-07-18T14:01:23Z</time>
<desc>lat.=55.866913, lon.=26.512949, Alt.=102.112366m. Speed=21.059999m/h.</desc>
<speed>5.850000</speed>
</trkpt>
<trkpt lat="55.866966" lon="26.512978">
<ele>102.153381</ele>
<time>2010-07-18T14:01:24Z</time>
<desc>lat.=55.866966, lon.=26.512978, Alt.=102.153381m. Speed=21.743999m/h.</desc>
<speed>6.040000</speed>
</trkpt>
<trkpt lat="55.867020" lon="26.513012">
<ele>102.151428</ele>
<time>2010-07-18T14:01:25Z</time>
<desc>lat.=55.867020, lon.=26.513012, Alt.=102.151428m. Speed=21.563999m/h.</desc>
<speed>5.990000</speed>
</trkpt>
<trkpt lat="55.867069" lon="26.513041">
<ele>101.879944</ele>
<time>2010-07-18T14:01:26Z</time>
<desc>lat.=55.867069, lon.=26.513041, Alt.=101.879944m. Speed=21.996000m/h.</desc>
<speed>6.110000</speed>
</trkpt>
<trkpt lat="55.867123" lon="26.513067">
<ele>101.743225</ele>
<time>2010-07-18T14:01:27Z</time>
<desc>lat.=55.867123, lon.=26.513067, Alt.=101.743225m. Speed=20.591999m/h.</desc>
<speed>5.720000</speed>
</trkpt>
<trkpt lat="55.867172" lon="26.513103">
<ele>101.532288</ele>
<time>2010-07-18T14:01:28Z</time>
<desc>lat.=55.867172, lon.=26.513103, Alt.=101.532288m. Speed=19.368000m/h.</desc>
<speed>5.380000</speed>
</trkpt>
<trkpt lat="55.867214" lon="26.513126">
<ele>101.393616</ele>
<time>2010-07-18T14:01:29Z</time>
<desc>lat.=55.867214, lon.=26.513126, Alt.=101.393616m. Speed=18.180000m/h.</desc>
<speed>5.050000</speed>
</trkpt>
<trkpt lat="55.867260" lon="26.513147">
<ele>101.256897</ele>
<time>2010-07-18T14:01:30Z</time>
<desc>lat.=55.867260, lon.=26.513147, Alt.=101.256897m. Speed=17.639999m/h.</desc>
<speed>4.900000</speed>
</trkpt>
<trkpt lat="55.867302" lon="26.513157">
<ele>101.129944</ele>
<time>2010-07-18T14:01:31Z</time>
<desc>lat.=55.867302, lon.=26.513157, Alt.=101.129944m. Speed=17.100000m/h.</desc>
<speed>4.750000</speed>
</trkpt>
<trkpt lat="55.867340" lon="26.513144">
<ele>100.645569</ele>
<time>2010-07-18T14:01:32Z</time>
<desc>lat.=55.867340, lon.=26.513144, Alt.=100.645569m. Speed=15.876000m/h.</desc>
<speed>4.410000</speed>
</trkpt>
<trkpt lat="55.867374" lon="26.513102">
<ele>99.735413</ele>
<time>2010-07-18T14:01:33Z</time>
<desc>lat.=55.867374, lon.=26.513102, Alt.=99.735413m. Speed=17.964001m/h.</desc>
<speed>4.990000</speed>
</trkpt>
<trkpt lat="55.867405" lon="26.513039">
<ele>99.649475</ele>
<time>2010-07-18T14:01:34Z</time>
<desc>lat.=55.867405, lon.=26.513039, Alt.=99.649475m. Speed=18.612000m/h.</desc>
<speed>5.170000</speed>
</trkpt>
<trkpt lat="55.867416" lon="26.512959">
<ele>99.532288</ele>
<time>2010-07-18T14:01:35Z</time>
<desc>lat.=55.867416, lon.=26.512959, Alt.=99.532288m. Speed=19.080000m/h.</desc>
<speed>5.300000</speed>
</trkpt>
<trkpt lat="55.867428" lon="26.512861">
<ele>99.239319</ele>
<time>2010-07-18T14:01:36Z</time>
<desc>lat.=55.867428, lon.=26.512861, Alt.=99.239319m. Speed=20.556000m/h.</desc>
<speed>5.710000</speed>
</trkpt>
<trkpt lat="55.867428" lon="26.512766">
<ele>99.286194</ele>
<time>2010-07-18T14:01:37Z</time>
<desc>lat.=55.867428, lon.=26.512766, Alt.=99.286194m. Speed=19.799999m/h.</desc>
<speed>5.500000</speed>
</trkpt>
<trkpt lat="55.867428" lon="26.512674">
<ele>99.383850</ele>
<time>2010-07-18T14:01:38Z</time>
<desc>lat.=55.867428, lon.=26.512674, Alt.=99.383850m. Speed=20.340000m/h.</desc>
<speed>5.650000</speed>
</trkpt>
<trkpt lat="55.867416" lon="26.512568">
<ele>99.032288</ele>
<time>2010-07-18T14:01:39Z</time>
<desc>lat.=55.867416, lon.=26.512568, Alt.=99.032288m. Speed=20.988001m/h.</desc>
<speed>5.830000</speed>
</trkpt>
<trkpt lat="55.867416" lon="26.512474">
<ele>99.083069</ele>
<time>2010-07-18T14:01:40Z</time>
<desc>lat.=55.867416, lon.=26.512474, Alt.=99.083069m. Speed=20.844000m/h.</desc>
<speed>5.790000</speed>
</trkpt>
<trkpt lat="55.867416" lon="26.512379">
<ele>99.169006</ele>
<time>2010-07-18T14:01:41Z</time>
<desc>lat.=55.867416, lon.=26.512379, Alt.=99.169006m. Speed=21.708000m/h.</desc>
<speed>6.030000</speed>
</trkpt>
<trkpt lat="55.867420" lon="26.512276">
<ele>98.922913</ele>
<time>2010-07-18T14:01:42Z</time>
<desc>lat.=55.867420, lon.=26.512276, Alt.=98.922913m. Speed=22.968000m/h.</desc>
<speed>6.380000</speed>
</trkpt>
<trkpt lat="55.867424" lon="26.512169">
<ele>98.551819</ele>
<time>2010-07-18T14:01:43Z</time>
<desc>lat.=55.867424, lon.=26.512169, Alt.=98.551819m. Speed=24.552000m/h.</desc>
<speed>6.820000</speed>
</trkpt>
<trkpt lat="55.867424" lon="26.512047">
<ele>97.999084</ele>
<time>2010-07-18T14:01:44Z</time>
<desc>lat.=55.867424, lon.=26.512047, Alt.=97.999084m. Speed=25.559999m/h.</desc>
<speed>7.100000</speed>
</trkpt>
<trkpt lat="55.867435" lon="26.511936">
<ele>97.749084</ele>
<time>2010-07-18T14:01:45Z</time>
<desc>lat.=55.867435, lon.=26.511936, Alt.=97.749084m. Speed=26.280001m/h.</desc>
<speed>7.300000</speed>
</trkpt>
<trkpt lat="55.867451" lon="26.511820">
<ele>97.528381</ele>
<time>2010-07-18T14:01:46Z</time>
<desc>lat.=55.867451, lon.=26.511820, Alt.=97.528381m. Speed=27.108000m/h.</desc>
<speed>7.530000</speed>
</trkpt>
<trkpt lat="55.867470" lon="26.511703">
<ele>97.424866</ele>
<time>2010-07-18T14:01:47Z</time>
<desc>lat.=55.867470, lon.=26.511703, Alt.=97.424866m. Speed=27.576000m/h.</desc>
<speed>7.660000</speed>
</trkpt>
<trkpt lat="55.867493" lon="26.511581">
<ele>97.186584</ele>
<time>2010-07-18T14:01:48Z</time>
<desc>lat.=55.867493, lon.=26.511581, Alt.=97.186584m. Speed=28.115999m/h.</desc>
<speed>7.810000</speed>
</trkpt>
<trkpt lat="55.867516" lon="26.511463">
<ele>96.961975</ele>
<time>2010-07-18T14:01:49Z</time>
<desc>lat.=55.867516, lon.=26.511463, Alt.=96.961975m. Speed=28.584000m/h.</desc>
<speed>7.940000</speed>
</trkpt>
<trkpt lat="55.867542" lon="26.511345">
<ele>96.772522</ele>
<time>2010-07-18T14:01:50Z</time>
<desc>lat.=55.867542, lon.=26.511345, Alt.=96.772522m. Speed=28.908001m/h.</desc>
<speed>8.030000</speed>
</trkpt>
<trkpt lat="55.867573" lon="26.511227">
<ele>96.631897</ele>
<time>2010-07-18T14:01:51Z</time>
<desc>lat.=55.867573, lon.=26.511227, Alt.=96.631897m. Speed=29.520000m/h.</desc>
<speed>8.200000</speed>
</trkpt>
<trkpt lat="55.867607" lon="26.511105">
<ele>96.432678</ele>
<time>2010-07-18T14:01:52Z</time>
<desc>lat.=55.867607, lon.=26.511105, Alt.=96.432678m. Speed=29.808001m/h.</desc>
<speed>8.280000</speed>
</trkpt>
<trkpt lat="55.867638" lon="26.510984">
<ele>96.327209</ele>
<time>2010-07-18T14:01:53Z</time>
<desc>lat.=55.867638, lon.=26.510984, Alt.=96.327209m. Speed=30.132000m/h.</desc>
<speed>8.370000</speed>
</trkpt>
<trkpt lat="55.867668" lon="26.510859">
<ele>96.045959</ele>
<time>2010-07-18T14:01:54Z</time>
<desc>lat.=55.867668, lon.=26.510859, Alt.=96.045959m. Speed=29.988001m/h.</desc>
<speed>8.330000</speed>
</trkpt>
<trkpt lat="55.867699" lon="26.510738">
<ele>95.948303</ele>
<time>2010-07-18T14:01:55Z</time>
<desc>lat.=55.867699, lon.=26.510738, Alt.=95.948303m. Speed=29.520000m/h.</desc>
<speed>8.200000</speed>
</trkpt>
<trkpt lat="55.867729" lon="26.510616">
<ele>95.913147</ele>
<time>2010-07-18T14:01:56Z</time>
<desc>lat.=55.867729, lon.=26.510616, Alt.=95.913147m. Speed=29.232000m/h.</desc>
<speed>8.120000</speed>
</trkpt>
<trkpt lat="55.867764" lon="26.510502">
<ele>95.936584</ele>
<time>2010-07-18T14:01:57Z</time>
<desc>lat.=55.867764, lon.=26.510502, Alt.=95.936584m. Speed=29.304001m/h.</desc>
<speed>8.140000</speed>
</trkpt>
<trkpt lat="55.867798" lon="26.510391">
<ele>96.055725</ele>
<time>2010-07-18T14:01:58Z</time>
<desc>lat.=55.867798, lon.=26.510391, Alt.=96.055725m. Speed=28.944000m/h.</desc>
<speed>8.040000</speed>
</trkpt>
<trkpt lat="55.867828" lon="26.510273">
<ele>96.073303</ele>
<time>2010-07-18T14:01:59Z</time>
<desc>lat.=55.867828, lon.=26.510273, Alt.=96.073303m. Speed=29.412001m/h.</desc>
<speed>8.170000</speed>
</trkpt>
<trkpt lat="55.867859" lon="26.510157">
<ele>96.065491</ele>
<time>2010-07-18T14:02:00Z</time>
<desc>lat.=55.867859, lon.=26.510157, Alt.=96.065491m. Speed=29.375999m/h.</desc>
<speed>8.160000</speed>
</trkpt>
<trkpt lat="55.867889" lon="26.510036">
<ele>96.073303</ele>
<time>2010-07-18T14:02:01Z</time>
<desc>lat.=55.867889, lon.=26.510036, Alt.=96.073303m. Speed=29.412001m/h.</desc>
<speed>8.170000</speed>
</trkpt>
<trkpt lat="55.867924" lon="26.509914">
<ele>96.192444</ele>
<time>2010-07-18T14:02:02Z</time>
<desc>lat.=55.867924, lon.=26.509914, Alt.=96.192444m. Speed=29.591999m/h.</desc>
<speed>8.220000</speed>
</trkpt>
<trkpt lat="55.867954" lon="26.509792">
<ele>96.208069</ele>
<time>2010-07-18T14:02:03Z</time>
<desc>lat.=55.867954, lon.=26.509792, Alt.=96.208069m. Speed=29.700001m/h.</desc>
<speed>8.250000</speed>
</trkpt>
<trkpt lat="55.867989" lon="26.509668">
<ele>96.184631</ele>
<time>2010-07-18T14:02:04Z</time>
<desc>lat.=55.867989, lon.=26.509668, Alt.=96.184631m. Speed=29.952000m/h.</desc>
<speed>8.320000</speed>
</trkpt>
<trkpt lat="55.868019" lon="26.509544">
<ele>96.120178</ele>
<time>2010-07-18T14:02:05Z</time>
<desc>lat.=55.868019, lon.=26.509544, Alt.=96.120178m. Speed=30.132000m/h.</desc>
<speed>8.370000</speed>
</trkpt>
<trkpt lat="55.868057" lon="26.509428">
<ele>96.049866</ele>
<time>2010-07-18T14:02:06Z</time>
<desc>lat.=55.868057, lon.=26.509428, Alt.=96.049866m. Speed=29.195999m/h.</desc>
<speed>8.110000</speed>
</trkpt>
<trkpt lat="55.868095" lon="26.509319">
<ele>96.020569</ele>
<time>2010-07-18T14:02:07Z</time>
<desc>lat.=55.868095, lon.=26.509319, Alt.=96.020569m. Speed=28.620001m/h.</desc>
<speed>7.950000</speed>
</trkpt>
<trkpt lat="55.868134" lon="26.509214">
<ele>96.034241</ele>
<time>2010-07-18T14:02:08Z</time>
<desc>lat.=55.868134, lon.=26.509214, Alt.=96.034241m. Speed=28.260000m/h.</desc>
<speed>7.850000</speed>
</trkpt>
<trkpt lat="55.868172" lon="26.509104">
<ele>95.799866</ele>
<time>2010-07-18T14:02:09Z</time>
<desc>lat.=55.868172, lon.=26.509104, Alt.=95.799866m. Speed=29.232000m/h.</desc>
<speed>8.120000</speed>
</trkpt>
<trkpt lat="55.868206" lon="26.508986">
<ele>95.674866</ele>
<time>2010-07-18T14:02:10Z</time>
<desc>lat.=55.868206, lon.=26.508986, Alt.=95.674866m. Speed=30.132000m/h.</desc>
<speed>8.370000</speed>
</trkpt>
<trkpt lat="55.868240" lon="26.508869">
<ele>95.606506</ele>
<time>2010-07-18T14:02:11Z</time>
<desc>lat.=55.868240, lon.=26.508869, Alt.=95.606506m. Speed=29.016001m/h.</desc>
<speed>8.060000</speed>
</trkpt>
<trkpt lat="55.868279" lon="26.508757">
<ele>95.655334</ele>
<time>2010-07-18T14:02:12Z</time>
<desc>lat.=55.868279, lon.=26.508757, Alt.=95.655334m. Speed=30.240000m/h.</desc>
<speed>8.400000</speed>
</trkpt>
<trkpt lat="55.868320" lon="26.508636">
<ele>95.633850</ele>
<time>2010-07-18T14:02:13Z</time>
<desc>lat.=55.868320, lon.=26.508636, Alt.=95.633850m. Speed=29.844000m/h.</desc>
<speed>8.290000</speed>
</trkpt>
<trkpt lat="55.868351" lon="26.508524">
<ele>95.333069</ele>
<time>2010-07-18T14:02:14Z</time>
<desc>lat.=55.868351, lon.=26.508524, Alt.=95.333069m. Speed=29.160000m/h.</desc>
<speed>8.100000</speed>
</trkpt>
<trkpt lat="55.868385" lon="26.508410">
<ele>95.307678</ele>
<time>2010-07-18T14:02:15Z</time>
<desc>lat.=55.868385, lon.=26.508410, Alt.=95.307678m. Speed=29.952000m/h.</desc>
<speed>8.320000</speed>
</trkpt>
<trkpt lat="55.868423" lon="26.508286">
<ele>95.301819</ele>
<time>2010-07-18T14:02:16Z</time>
<desc>lat.=55.868423, lon.=26.508286, Alt.=95.301819m. Speed=30.851999m/h.</desc>
<speed>8.570000</speed>
</trkpt>
<trkpt lat="55.868458" lon="26.508162">
<ele>95.106506</ele>
<time>2010-07-18T14:02:17Z</time>
<desc>lat.=55.868458, lon.=26.508162, Alt.=95.106506m. Speed=31.572001m/h.</desc>
<speed>8.770000</speed>
</trkpt>
<trkpt lat="55.868492" lon="26.508032">
<ele>95.001038</ele>
<time>2010-07-18T14:02:18Z</time>
<desc>lat.=55.868492, lon.=26.508032, Alt.=95.001038m. Speed=31.464001m/h.</desc>
<speed>8.740000</speed>
</trkpt>
<trkpt lat="55.868530" lon="26.507904">
<ele>95.061584</ele>
<time>2010-07-18T14:02:19Z</time>
<desc>lat.=55.868530, lon.=26.507904, Alt.=95.061584m. Speed=33.335999m/h.</desc>
<speed>9.260000</speed>
</trkpt>
<trkpt lat="55.868568" lon="26.507774">
<ele>95.143616</ele>
<time>2010-07-18T14:02:20Z</time>
<desc>lat.=55.868568, lon.=26.507774, Alt.=95.143616m. Speed=33.660000m/h.</desc>
<speed>9.350000</speed>
</trkpt>
<trkpt lat="55.868610" lon="26.507662">
<ele>94.889709</ele>
<time>2010-07-18T14:02:21Z</time>
<desc>lat.=55.868610, lon.=26.507662, Alt.=94.889709m. Speed=33.875999m/h.</desc>
<speed>9.410000</speed>
</trkpt>
<trkpt lat="55.868649" lon="26.507524">
<ele>94.645569</ele>
<time>2010-07-18T14:02:22Z</time>
<desc>lat.=55.868649, lon.=26.507524, Alt.=94.645569m. Speed=32.868000m/h.</desc>
<speed>9.130000</speed>
</trkpt>
<trkpt lat="55.868687" lon="26.507397">
<ele>94.993225</ele>
<time>2010-07-18T14:02:23Z</time>
<desc>lat.=55.868687, lon.=26.507397, Alt.=94.993225m. Speed=32.220001m/h.</desc>
<speed>8.950000</speed>
</trkpt>
<trkpt lat="55.868729" lon="26.507278">
<ele>95.042053</ele>
<time>2010-07-18T14:02:24Z</time>
<desc>lat.=55.868729, lon.=26.507278, Alt.=95.042053m. Speed=31.032000m/h.</desc>
<speed>8.620000</speed>
</trkpt>
<trkpt lat="55.868767" lon="26.507162">
<ele>95.311584</ele>
<time>2010-07-18T14:02:25Z</time>
<desc>lat.=55.868767, lon.=26.507162, Alt.=95.311584m. Speed=29.952000m/h.</desc>
<speed>8.320000</speed>
</trkpt>
<trkpt lat="55.868809" lon="26.507048">
<ele>95.295959</ele>
<time>2010-07-18T14:02:26Z</time>
<desc>lat.=55.868809, lon.=26.507048, Alt.=95.295959m. Speed=30.455999m/h.</desc>
<speed>8.460000</speed>
</trkpt>
<trkpt lat="55.868851" lon="26.506935">
<ele>95.581116</ele>
<time>2010-07-18T14:02:27Z</time>
<desc>lat.=55.868851, lon.=26.506935, Alt.=95.581116m. Speed=31.427999m/h.</desc>
<speed>8.730000</speed>
</trkpt>
<trkpt lat="55.868900" lon="26.506815">
<ele>95.358459</ele>
<time>2010-07-18T14:02:28Z</time>
<desc>lat.=55.868900, lon.=26.506815, Alt.=95.358459m. Speed=32.616001m/h.</desc>
<speed>9.060000</speed>
</trkpt>
<trkpt lat="55.868950" lon="26.506699">
<ele>95.364319</ele>
<time>2010-07-18T14:02:29Z</time>
<desc>lat.=55.868950, lon.=26.506699, Alt.=95.364319m. Speed=33.084000m/h.</desc>
<speed>9.190000</speed>
</trkpt>
<trkpt lat="55.868996" lon="26.506578">
<ele>95.305725</ele>
<time>2010-07-18T14:02:30Z</time>
<desc>lat.=55.868996, lon.=26.506578, Alt.=95.305725m. Speed=34.380001m/h.</desc>
<speed>9.550000</speed>
</trkpt>
<trkpt lat="55.869049" lon="26.506456">
<ele>95.213928</ele>
<time>2010-07-18T14:02:31Z</time>
<desc>lat.=55.869049, lon.=26.506456, Alt.=95.213928m. Speed=35.459999m/h.</desc>
<speed>9.850000</speed>
</trkpt>
<trkpt lat="55.869102" lon="26.506334">
<ele>95.422913</ele>
<time>2010-07-18T14:02:32Z</time>
<desc>lat.=55.869102, lon.=26.506334, Alt.=95.422913m. Speed=35.639999m/h.</desc>
<speed>9.900000</speed>
</trkpt>
<trkpt lat="55.869152" lon="26.506214">
<ele>95.710022</ele>
<time>2010-07-18T14:02:33Z</time>
<desc>lat.=55.869152, lon.=26.506214, Alt.=95.710022m. Speed=34.848000m/h.</desc>
<speed>9.680000</speed>
</trkpt>
<trkpt lat="55.869213" lon="26.506104">
<ele>95.770569</ele>
<time>2010-07-18T14:02:34Z</time>
<desc>lat.=55.869213, lon.=26.506104, Alt.=95.770569m. Speed=34.956001m/h.</desc>
<speed>9.710000</speed>
</trkpt>
<trkpt lat="55.869278" lon="26.505995">
<ele>95.792053</ele>
<time>2010-07-18T14:02:35Z</time>
<desc>lat.=55.869278, lon.=26.505995, Alt.=95.792053m. Speed=35.424000m/h.</desc>
<speed>9.840000</speed>
</trkpt>
<trkpt lat="55.869347" lon="26.505890">
<ele>95.831116</ele>
<time>2010-07-18T14:02:36Z</time>
<desc>lat.=55.869347, lon.=26.505890, Alt.=95.831116m. Speed=36.035999m/h.</desc>
<speed>10.010000</speed>
</trkpt>
<trkpt lat="55.869419" lon="26.505779">
<ele>96.258850</ele>
<time>2010-07-18T14:02:37Z</time>
<desc>lat.=55.869419, lon.=26.505779, Alt.=96.258850m. Speed=36.108002m/h.</desc>
<speed>10.030000</speed>
</trkpt>
<trkpt lat="55.869499" lon="26.505680">
<ele>96.245178</ele>
<time>2010-07-18T14:02:38Z</time>
<desc>lat.=55.869499, lon.=26.505680, Alt.=96.245178m. Speed=36.827999m/h.</desc>
<speed>10.230000</speed>
</trkpt>
<trkpt lat="55.869572" lon="26.505579">
<ele>96.237366</ele>
<time>2010-07-18T14:02:39Z</time>
<desc>lat.=55.869572, lon.=26.505579, Alt.=96.237366m. Speed=37.439999m/h.</desc>
<speed>10.400000</speed>
</trkpt>
<trkpt lat="55.869648" lon="26.505484">
<ele>96.518616</ele>
<time>2010-07-18T14:02:40Z</time>
<desc>lat.=55.869648, lon.=26.505484, Alt.=96.518616m. Speed=37.152000m/h.</desc>
<speed>10.320000</speed>
</trkpt>
<trkpt lat="55.869724" lon="26.505392">
<ele>96.620178</ele>
<time>2010-07-18T14:02:41Z</time>
<desc>lat.=55.869724, lon.=26.505392, Alt.=96.620178m. Speed=37.584000m/h.</desc>
<speed>10.440000</speed>
</trkpt>
<trkpt lat="55.869804" lon="26.505299">
<ele>96.694397</ele>
<time>2010-07-18T14:02:42Z</time>
<desc>lat.=55.869804, lon.=26.505299, Alt.=96.694397m. Speed=37.835999m/h.</desc>
<speed>10.510000</speed>
</trkpt>
<trkpt lat="55.869881" lon="26.505207">
<ele>97.002991</ele>
<time>2010-07-18T14:02:43Z</time>
<desc>lat.=55.869881, lon.=26.505207, Alt.=97.002991m. Speed=37.403999m/h.</desc>
<speed>10.390000</speed>
</trkpt>
<trkpt lat="55.869965" lon="26.505119">
<ele>97.192444</ele>
<time>2010-07-18T14:02:44Z</time>
<desc>lat.=55.869965, lon.=26.505119, Alt.=97.192444m. Speed=36.108002m/h.</desc>
<speed>10.030000</speed>
</trkpt>
<trkpt lat="55.870041" lon="26.505037">
<ele>97.219788</ele>
<time>2010-07-18T14:02:45Z</time>
<desc>lat.=55.870041, lon.=26.505037, Alt.=97.219788m. Speed=35.279999m/h.</desc>
<speed>9.800000</speed>
</trkpt>
<trkpt lat="55.870121" lon="26.504961">
<ele>97.295959</ele>
<time>2010-07-18T14:02:46Z</time>
<desc>lat.=55.870121, lon.=26.504961, Alt.=97.295959m. Speed=34.271999m/h.</desc>
<speed>9.520000</speed>
</trkpt>
<trkpt lat="55.870197" lon="26.504892">
<ele>97.377991</ele>
<time>2010-07-18T14:02:47Z</time>
<desc>lat.=55.870197, lon.=26.504892, Alt.=97.377991m. Speed=33.804001m/h.</desc>
<speed>9.390000</speed>
</trkpt>
<trkpt lat="55.870274" lon="26.504827">
<ele>97.362366</ele>
<time>2010-07-18T14:02:48Z</time>
<desc>lat.=55.870274, lon.=26.504827, Alt.=97.362366m. Speed=33.624001m/h.</desc>
<speed>9.340000</speed>
</trkpt>
<trkpt lat="55.870350" lon="26.504761">
<ele>97.401428</ele>
<time>2010-07-18T14:02:49Z</time>
<desc>lat.=55.870350, lon.=26.504761, Alt.=97.401428m. Speed=33.588001m/h.</desc>
<speed>9.330000</speed>
</trkpt>
<trkpt lat="55.870426" lon="26.504698">
<ele>97.465881</ele>
<time>2010-07-18T14:02:50Z</time>
<desc>lat.=55.870426, lon.=26.504698, Alt.=97.465881m. Speed=32.688000m/h.</desc>
<speed>9.080000</speed>
</trkpt>
<trkpt lat="55.870499" lon="26.504641">
<ele>97.506897</ele>
<time>2010-07-18T14:02:51Z</time>
<desc>lat.=55.870499, lon.=26.504641, Alt.=97.506897m. Speed=32.076000m/h.</desc>
<speed>8.910000</speed>
</trkpt>
<trkpt lat="55.870575" lon="26.504587">
<ele>97.792053</ele>
<time>2010-07-18T14:02:52Z</time>
<desc>lat.=55.870575, lon.=26.504587, Alt.=97.792053m. Speed=31.608000m/h.</desc>
<speed>8.780000</speed>
</trkpt>
<trkpt lat="55.870647" lon="26.504539">
<ele>97.852600</ele>
<time>2010-07-18T14:02:53Z</time>
<desc>lat.=55.870647, lon.=26.504539, Alt.=97.852600m. Speed=30.816000m/h.</desc>
<speed>8.560000</speed>
</trkpt>
<trkpt lat="55.870720" lon="26.504490">
<ele>97.858459</ele>
<time>2010-07-18T14:02:54Z</time>
<desc>lat.=55.870720, lon.=26.504490, Alt.=97.858459m. Speed=30.492001m/h.</desc>
<speed>8.470000</speed>
</trkpt>
<trkpt lat="55.870796" lon="26.504444">
<ele>98.073303</ele>
<time>2010-07-18T14:02:55Z</time>
<desc>lat.=55.870796, lon.=26.504444, Alt.=98.073303m. Speed=29.808001m/h.</desc>
<speed>8.280000</speed>
</trkpt>
<trkpt lat="55.870865" lon="26.504404">
<ele>97.971741</ele>
<time>2010-07-18T14:02:56Z</time>
<desc>lat.=55.870865, lon.=26.504404, Alt.=97.971741m. Speed=29.304001m/h.</desc>
<speed>8.140000</speed>
</trkpt>
<trkpt lat="55.870934" lon="26.504368">
<ele>97.620178</ele>
<time>2010-07-18T14:02:57Z</time>
<desc>lat.=55.870934, lon.=26.504368, Alt.=97.620178m. Speed=30.096001m/h.</desc>
<speed>8.360000</speed>
</trkpt>
<trkpt lat="55.870998" lon="26.504332">
<ele>97.075256</ele>
<time>2010-07-18T14:02:58Z</time>
<desc>lat.=55.870998, lon.=26.504332, Alt.=97.075256m. Speed=29.664000m/h.</desc>
<speed>8.240000</speed>
</trkpt>
<trkpt lat="55.871067" lon="26.504299">
<ele>96.719788</ele>
<time>2010-07-18T14:02:59Z</time>
<desc>lat.=55.871067, lon.=26.504299, Alt.=96.719788m. Speed=29.808001m/h.</desc>
<speed>8.280000</speed>
</trkpt>
<trkpt lat="55.871140" lon="26.504263">
<ele>96.795959</ele>
<time>2010-07-18T14:03:00Z</time>
<desc>lat.=55.871140, lon.=26.504263, Alt.=96.795959m. Speed=30.024000m/h.</desc>
<speed>8.340000</speed>
</trkpt>
<trkpt lat="55.871212" lon="26.504225">
<ele>96.686584</ele>
<time>2010-07-18T14:03:01Z</time>
<desc>lat.=55.871212, lon.=26.504225, Alt.=96.686584m. Speed=30.024000m/h.</desc>
<speed>8.340000</speed>
</trkpt>
<trkpt lat="55.871284" lon="26.504189">
<ele>96.544006</ele>
<time>2010-07-18T14:03:02Z</time>
<desc>lat.=55.871284, lon.=26.504189, Alt.=96.544006m. Speed=30.563999m/h.</desc>
<speed>8.490000</speed>
</trkpt>
<trkpt lat="55.871357" lon="26.504158">
<ele>96.530334</ele>
<time>2010-07-18T14:03:03Z</time>
<desc>lat.=55.871357, lon.=26.504158, Alt.=96.530334m. Speed=30.563999m/h.</desc>
<speed>8.490000</speed>
</trkpt>
<trkpt lat="55.871433" lon="26.504126">
<ele>96.493225</ele>
<time>2010-07-18T14:03:04Z</time>
<desc>lat.=55.871433, lon.=26.504126, Alt.=96.493225m. Speed=31.212000m/h.</desc>
<speed>8.670000</speed>
</trkpt>
<trkpt lat="55.871510" lon="26.504086">
<ele>95.801819</ele>
<time>2010-07-18T14:03:05Z</time>
<desc>lat.=55.871510, lon.=26.504086, Alt.=95.801819m. Speed=31.320000m/h.</desc>
<speed>8.700000</speed>
</trkpt>
<trkpt lat="55.871586" lon="26.504049">
<ele>95.475647</ele>
<time>2010-07-18T14:03:06Z</time>
<desc>lat.=55.871586, lon.=26.504049, Alt.=95.475647m. Speed=31.572001m/h.</desc>
<speed>8.770000</speed>
</trkpt>
<trkpt lat="55.871662" lon="26.504023">
<ele>95.592834</ele>
<time>2010-07-18T14:03:07Z</time>
<desc>lat.=55.871662, lon.=26.504023, Alt.=95.592834m. Speed=31.176001m/h.</desc>
<speed>8.660000</speed>
</trkpt>
<trkpt lat="55.871738" lon="26.504002">
<ele>95.723694</ele>
<time>2010-07-18T14:03:08Z</time>
<desc>lat.=55.871738, lon.=26.504002, Alt.=95.723694m. Speed=30.132000m/h.</desc>
<speed>8.370000</speed>
</trkpt>
<trkpt lat="55.871811" lon="26.503977">
<ele>95.944397</ele>
<time>2010-07-18T14:03:09Z</time>
<desc>lat.=55.871811, lon.=26.503977, Alt.=95.944397m. Speed=29.700001m/h.</desc>
<speed>8.250000</speed>
</trkpt>
<trkpt lat="55.871883" lon="26.503956">
<ele>95.407288</ele>
<time>2010-07-18T14:03:10Z</time>
<desc>lat.=55.871883, lon.=26.503956, Alt.=95.407288m. Speed=28.872000m/h.</desc>
<speed>8.020000</speed>
</trkpt>
<trkpt lat="55.871952" lon="26.503935">
<ele>95.004944</ele>
<time>2010-07-18T14:03:11Z</time>
<desc>lat.=55.871952, lon.=26.503935, Alt.=95.004944m. Speed=28.115999m/h.</desc>
<speed>7.810000</speed>
</trkpt>
<trkpt lat="55.872021" lon="26.503912">
<ele>94.954163</ele>
<time>2010-07-18T14:03:12Z</time>
<desc>lat.=55.872021, lon.=26.503912, Alt.=94.954163m. Speed=27.540001m/h.</desc>
<speed>7.650000</speed>
</trkpt>
<trkpt lat="55.872086" lon="26.503901">
<ele>95.026428</ele>
<time>2010-07-18T14:03:13Z</time>
<desc>lat.=55.872086, lon.=26.503901, Alt.=95.026428m. Speed=26.892000m/h.</desc>
<speed>7.470000</speed>
</trkpt>
<trkpt lat="55.872150" lon="26.503889">
<ele>94.997131</ele>
<time>2010-07-18T14:03:14Z</time>
<desc>lat.=55.872150, lon.=26.503889, Alt.=94.997131m. Speed=26.243999m/h.</desc>
<speed>7.290000</speed>
</trkpt>
<trkpt lat="55.872215" lon="26.503870">
<ele>94.588928</ele>
<time>2010-07-18T14:03:15Z</time>
<desc>lat.=55.872215, lon.=26.503870, Alt.=94.588928m. Speed=25.524000m/h.</desc>
<speed>7.090000</speed>
</trkpt>
<trkpt lat="55.872276" lon="26.503845">
<ele>94.159241</ele>
<time>2010-07-18T14:03:16Z</time>
<desc>lat.=55.872276, lon.=26.503845, Alt.=94.159241m. Speed=25.236000m/h.</desc>
<speed>7.010000</speed>
</trkpt>
<trkpt lat="55.872341" lon="26.503824">
<ele>93.981506</ele>
<time>2010-07-18T14:03:17Z</time>
<desc>lat.=55.872341, lon.=26.503824, Alt.=93.981506m. Speed=25.379999m/h.</desc>
<speed>7.050000</speed>
</trkpt>
<trkpt lat="55.872402" lon="26.503803">
<ele>93.501038</ele>
<time>2010-07-18T14:03:18Z</time>
<desc>lat.=55.872402, lon.=26.503803, Alt.=93.501038m. Speed=25.596001m/h.</desc>
<speed>7.110000</speed>
</trkpt>
<trkpt lat="55.872471" lon="26.503784">
<ele>94.364319</ele>
<time>2010-07-18T14:03:19Z</time>
<desc>lat.=55.872471, lon.=26.503784, Alt.=94.364319m. Speed=25.992001m/h.</desc>
<speed>7.220000</speed>
</trkpt>
<trkpt lat="55.872536" lon="26.503759">
<ele>94.409241</ele>
<time>2010-07-18T14:03:20Z</time>
<desc>lat.=55.872536, lon.=26.503759, Alt.=94.409241m. Speed=26.388000m/h.</desc>
<speed>7.330000</speed>
</trkpt>
<trkpt lat="55.872601" lon="26.503733">
<ele>93.817444</ele>
<time>2010-07-18T14:03:21Z</time>
<desc>lat.=55.872601, lon.=26.503733, Alt.=93.817444m. Speed=26.892000m/h.</desc>
<speed>7.470000</speed>
</trkpt>
<trkpt lat="55.872665" lon="26.503704">
<ele>94.210022</ele>
<time>2010-07-18T14:03:22Z</time>
<desc>lat.=55.872665, lon.=26.503704, Alt.=94.210022m. Speed=26.892000m/h.</desc>
<speed>7.470000</speed>
</trkpt>
<trkpt lat="55.872730" lon="26.503683">
<ele>94.833069</ele>
<time>2010-07-18T14:03:23Z</time>
<desc>lat.=55.872730, lon.=26.503683, Alt.=94.833069m. Speed=27.900000m/h.</desc>
<speed>7.750000</speed>
</trkpt>
<trkpt lat="55.872803" lon="26.503670">
<ele>96.184631</ele>
<time>2010-07-18T14:03:24Z</time>
<desc>lat.=55.872803, lon.=26.503670, Alt.=96.184631m. Speed=28.764000m/h.</desc>
<speed>7.990000</speed>
</trkpt>
<trkpt lat="55.872875" lon="26.503658">
<ele>95.928772</ele>
<time>2010-07-18T14:03:25Z</time>
<desc>lat.=55.872875, lon.=26.503658, Alt.=95.928772m. Speed=29.556000m/h.</desc>
<speed>8.210000</speed>
</trkpt>
<trkpt lat="55.872948" lon="26.503647">
<ele>95.721741</ele>
<time>2010-07-18T14:03:26Z</time>
<desc>lat.=55.872948, lon.=26.503647, Alt.=95.721741m. Speed=29.591999m/h.</desc>
<speed>8.220000</speed>
</trkpt>
<trkpt lat="55.873020" lon="26.503632">
<ele>95.809631</ele>
<time>2010-07-18T14:03:27Z</time>
<desc>lat.=55.873020, lon.=26.503632, Alt.=95.809631m. Speed=30.708000m/h.</desc>
<speed>8.530000</speed>
</trkpt>
<trkpt lat="55.873093" lon="26.503614">
<ele>95.606506</ele>
<time>2010-07-18T14:03:28Z</time>
<desc>lat.=55.873093, lon.=26.503614, Alt.=95.606506m. Speed=31.176001m/h.</desc>
<speed>8.660000</speed>
</trkpt>
<trkpt lat="55.873173" lon="26.503601">
<ele>95.979553</ele>
<time>2010-07-18T14:03:29Z</time>
<desc>lat.=55.873173, lon.=26.503601, Alt.=95.979553m. Speed=32.183998m/h.</desc>
<speed>8.939999</speed>
</trkpt>
<trkpt lat="55.873257" lon="26.503578">
<ele>96.280334</ele>
<time>2010-07-18T14:03:30Z</time>
<desc>lat.=55.873257, lon.=26.503578, Alt.=96.280334m. Speed=32.220001m/h.</desc>
<speed>8.950000</speed>
</trkpt>
<trkpt lat="55.873337" lon="26.503553">
<ele>96.842834</ele>
<time>2010-07-18T14:03:31Z</time>
<desc>lat.=55.873337, lon.=26.503553, Alt.=96.842834m. Speed=31.823999m/h.</desc>
<speed>8.840000</speed>
</trkpt>
<trkpt lat="55.873413" lon="26.503532">
<ele>97.335022</ele>
<time>2010-07-18T14:03:32Z</time>
<desc>lat.=55.873413, lon.=26.503532, Alt.=97.335022m. Speed=30.888000m/h.</desc>
<speed>8.580000</speed>
</trkpt>
<trkpt lat="55.873489" lon="26.503517">
<ele>97.639709</ele>
<time>2010-07-18T14:03:33Z</time>
<desc>lat.=55.873489, lon.=26.503517, Alt.=97.639709m. Speed=31.320000m/h.</desc>
<speed>8.700000</speed>
</trkpt>
<trkpt lat="55.873566" lon="26.503504">
<ele>98.231506</ele>
<time>2010-07-18T14:03:34Z</time>
<desc>lat.=55.873566, lon.=26.503504, Alt.=98.231506m. Speed=31.572001m/h.</desc>
<speed>8.770000</speed>
</trkpt>
<trkpt lat="55.873642" lon="26.503489">
<ele>98.698303</ele>
<time>2010-07-18T14:03:35Z</time>
<desc>lat.=55.873642, lon.=26.503489, Alt.=98.698303m. Speed=31.392000m/h.</desc>
<speed>8.720000</speed>
</trkpt>
<trkpt lat="55.873722" lon="26.503473">
<ele>98.391663</ele>
<time>2010-07-18T14:03:36Z</time>
<desc>lat.=55.873722, lon.=26.503473, Alt.=98.391663m. Speed=32.292000m/h.</desc>
<speed>8.970000</speed>
</trkpt>
<trkpt lat="55.873802" lon="26.503458">
<ele>98.678772</ele>
<time>2010-07-18T14:03:37Z</time>
<desc>lat.=55.873802, lon.=26.503458, Alt.=98.678772m. Speed=31.788000m/h.</desc>
<speed>8.830000</speed>
</trkpt>
<trkpt lat="55.873878" lon="26.503448">
<ele>98.860413</ele>
<time>2010-07-18T14:03:38Z</time>
<desc>lat.=55.873878, lon.=26.503448, Alt.=98.860413m. Speed=31.464001m/h.</desc>
<speed>8.740000</speed>
</trkpt>
<trkpt lat="55.873959" lon="26.503441">
<ele>99.002991</ele>
<time>2010-07-18T14:03:39Z</time>
<desc>lat.=55.873959, lon.=26.503441, Alt.=99.002991m. Speed=30.708000m/h.</desc>
<speed>8.530000</speed>
</trkpt>
<trkpt lat="55.874031" lon="26.503437">
<ele>98.801819</ele>
<time>2010-07-18T14:03:40Z</time>
<desc>lat.=55.874031, lon.=26.503437, Alt.=98.801819m. Speed=30.384001m/h.</desc>
<speed>8.440000</speed>
</trkpt>
<trkpt lat="55.874104" lon="26.503428">
<ele>98.286194</ele>
<time>2010-07-18T14:03:41Z</time>
<desc>lat.=55.874104, lon.=26.503428, Alt.=98.286194m. Speed=29.087999m/h.</desc>
<speed>8.080000</speed>
</trkpt>
<trkpt lat="55.874176" lon="26.503420">
<ele>98.008850</ele>
<time>2010-07-18T14:03:42Z</time>
<desc>lat.=55.874176, lon.=26.503420, Alt.=98.008850m. Speed=28.511999m/h.</desc>
<speed>7.920000</speed>
</trkpt>
<trkpt lat="55.874245" lon="26.503414">
<ele>98.235413</ele>
<time>2010-07-18T14:03:43Z</time>
<desc>lat.=55.874245, lon.=26.503414, Alt.=98.235413m. Speed=27.827999m/h.</desc>
<speed>7.730000</speed>
</trkpt>
<trkpt lat="55.874310" lon="26.503395">
<ele>99.333069</ele>
<time>2010-07-18T14:03:44Z</time>
<desc>lat.=55.874310, lon.=26.503395, Alt.=99.333069m. Speed=26.892000m/h.</desc>
<speed>7.470000</speed>
</trkpt>
<trkpt lat="55.874378" lon="26.503386">
<ele>99.405334</ele>
<time>2010-07-18T14:03:45Z</time>
<desc>lat.=55.874378, lon.=26.503386, Alt.=99.405334m. Speed=27.504000m/h.</desc>
<speed>7.640000</speed>
</trkpt>
<trkpt lat="55.874447" lon="26.503384">
<ele>99.004944</ele>
<time>2010-07-18T14:03:46Z</time>
<desc>lat.=55.874447, lon.=26.503384, Alt.=99.004944m. Speed=27.540001m/h.</desc>
<speed>7.650000</speed>
</trkpt>
<trkpt lat="55.874516" lon="26.503382">
<ele>98.588928</ele>
<time>2010-07-18T14:03:47Z</time>
<desc>lat.=55.874516, lon.=26.503382, Alt.=98.588928m. Speed=27.648001m/h.</desc>
<speed>7.680000</speed>
</trkpt>
<trkpt lat="55.874588" lon="26.503376">
<ele>98.559631</ele>
<time>2010-07-18T14:03:48Z</time>
<desc>lat.=55.874588, lon.=26.503376, Alt.=98.559631m. Speed=28.260000m/h.</desc>
<speed>7.850000</speed>
</trkpt>
<trkpt lat="55.874657" lon="26.503370">
<ele>98.627991</ele>
<time>2010-07-18T14:03:49Z</time>
<desc>lat.=55.874657, lon.=26.503370, Alt.=98.627991m. Speed=28.691999m/h.</desc>
<speed>7.970000</speed>
</trkpt>
<trkpt lat="55.874729" lon="26.503372">
<ele>98.522522</ele>
<time>2010-07-18T14:03:50Z</time>
<desc>lat.=55.874729, lon.=26.503372, Alt.=98.522522m. Speed=28.691999m/h.</desc>
<speed>7.970000</speed>
</trkpt>
<trkpt lat="55.874802" lon="26.503370">
<ele>97.432678</ele>
<time>2010-07-18T14:03:51Z</time>
<desc>lat.=55.874802, lon.=26.503370, Alt.=97.432678m. Speed=29.340000m/h.</desc>
<speed>8.150000</speed>
</trkpt>
<trkpt lat="55.874874" lon="26.503365">
<ele>96.981506</ele>
<time>2010-07-18T14:03:52Z</time>
<desc>lat.=55.874874, lon.=26.503365, Alt.=96.981506m. Speed=28.799999m/h.</desc>
<speed>8.000000</speed>
</trkpt>
<trkpt lat="55.874950" lon="26.503359">
<ele>96.471741</ele>
<time>2010-07-18T14:03:53Z</time>
<desc>lat.=55.874950, lon.=26.503359, Alt.=96.471741m. Speed=28.799999m/h.</desc>
<speed>8.000000</speed>
</trkpt>
<trkpt lat="55.875027" lon="26.503359">
<ele>95.557678</ele>
<time>2010-07-18T14:03:54Z</time>
<desc>lat.=55.875027, lon.=26.503359, Alt.=95.557678m. Speed=29.232000m/h.</desc>
<speed>8.120000</speed>
</trkpt>
<trkpt lat="55.875099" lon="26.503359">
<ele>95.006897</ele>
<time>2010-07-18T14:03:55Z</time>
<desc>lat.=55.875099, lon.=26.503359, Alt.=95.006897m. Speed=29.448000m/h.</desc>
<speed>8.180000</speed>
</trkpt>
<trkpt lat="55.875172" lon="26.503359">
<ele>94.752991</ele>
<time>2010-07-18T14:03:56Z</time>
<desc>lat.=55.875172, lon.=26.503359, Alt.=94.752991m. Speed=29.304001m/h.</desc>
<speed>8.140000</speed>
</trkpt>
<trkpt lat="55.875244" lon="26.503359">
<ele>94.333069</ele>
<time>2010-07-18T14:03:57Z</time>
<desc>lat.=55.875244, lon.=26.503359, Alt.=94.333069m. Speed=28.908001m/h.</desc>
<speed>8.030000</speed>
</trkpt>
<trkpt lat="55.875313" lon="26.503361">
<ele>93.604553</ele>
<time>2010-07-18T14:03:58Z</time>
<desc>lat.=55.875313, lon.=26.503361, Alt.=93.604553m. Speed=29.160000m/h.</desc>
<speed>8.100000</speed>
</trkpt>
<trkpt lat="55.875385" lon="26.503357">
<ele>93.104553</ele>
<time>2010-07-18T14:03:59Z</time>
<desc>lat.=55.875385, lon.=26.503357, Alt.=93.104553m. Speed=29.448000m/h.</desc>
<speed>8.180000</speed>
</trkpt>
<trkpt lat="55.875458" lon="26.503353">
<ele>92.729553</ele>
<time>2010-07-18T14:04:00Z</time>
<desc>lat.=55.875458, lon.=26.503353, Alt.=92.729553m. Speed=29.483999m/h.</desc>
<speed>8.190000</speed>
</trkpt>
<trkpt lat="55.875534" lon="26.503349">
<ele>94.040100</ele>
<time>2010-07-18T14:04:01Z</time>
<desc>lat.=55.875534, lon.=26.503349, Alt.=94.040100m. Speed=30.096001m/h.</desc>
<speed>8.360000</speed>
</trkpt>
<trkpt lat="55.875614" lon="26.503340">
<ele>93.710022</ele>
<time>2010-07-18T14:04:02Z</time>
<desc>lat.=55.875614, lon.=26.503340, Alt.=93.710022m. Speed=31.032000m/h.</desc>
<speed>8.620000</speed>
</trkpt>
<trkpt lat="55.875690" lon="26.503336">
<ele>93.544006</ele>
<time>2010-07-18T14:04:03Z</time>
<desc>lat.=55.875690, lon.=26.503336, Alt.=93.544006m. Speed=31.247999m/h.</desc>
<speed>8.680000</speed>
</trkpt>
<trkpt lat="55.875774" lon="26.503332">
<ele>93.575256</ele>
<time>2010-07-18T14:04:04Z</time>
<desc>lat.=55.875774, lon.=26.503332, Alt.=93.575256m. Speed=31.931999m/h.</desc>
<speed>8.870000</speed>
</trkpt>
<trkpt lat="55.875854" lon="26.503323">
<ele>92.124084</ele>
<time>2010-07-18T14:04:05Z</time>
<desc>lat.=55.875854, lon.=26.503323, Alt.=92.124084m. Speed=31.752001m/h.</desc>
<speed>8.820000</speed>
</trkpt>
<trkpt lat="55.875931" lon="26.503319">
<ele>92.145569</ele>
<time>2010-07-18T14:04:06Z</time>
<desc>lat.=55.875931, lon.=26.503319, Alt.=92.145569m. Speed=30.959999m/h.</desc>
<speed>8.600000</speed>
</trkpt>
<trkpt lat="55.876007" lon="26.503313">
<ele>91.379944</ele>
<time>2010-07-18T14:04:07Z</time>
<desc>lat.=55.876007, lon.=26.503313, Alt.=91.379944m. Speed=30.420000m/h.</desc>
<speed>8.450000</speed>
</trkpt>
<trkpt lat="55.876083" lon="26.503307">
<ele>91.282288</ele>
<time>2010-07-18T14:04:08Z</time>
<desc>lat.=55.876083, lon.=26.503307, Alt.=91.282288m. Speed=29.628000m/h.</desc>
<speed>8.230000</speed>
</trkpt>
<trkpt lat="55.876156" lon="26.503300">
<ele>91.147522</ele>
<time>2010-07-18T14:04:09Z</time>
<desc>lat.=55.876156, lon.=26.503300, Alt.=91.147522m. Speed=28.908001m/h.</desc>
<speed>8.030000</speed>
</trkpt>
<trkpt lat="55.876228" lon="26.503290">
<ele>90.684631</ele>
<time>2010-07-18T14:04:10Z</time>
<desc>lat.=55.876228, lon.=26.503290, Alt.=90.684631m. Speed=28.188000m/h.</desc>
<speed>7.830000</speed>
</trkpt>
<trkpt lat="55.876297" lon="26.503283">
<ele>92.104553</ele>
<time>2010-07-18T14:04:11Z</time>
<desc>lat.=55.876297, lon.=26.503283, Alt.=92.104553m. Speed=27.468000m/h.</desc>
<speed>7.630000</speed>
</trkpt>
<trkpt lat="55.876366" lon="26.503267">
<ele>93.387756</ele>
<time>2010-07-18T14:04:12Z</time>
<desc>lat.=55.876366, lon.=26.503267, Alt.=93.387756m. Speed=27.468000m/h.</desc>
<speed>7.630000</speed>
</trkpt>
<trkpt lat="55.876431" lon="26.503248">
<ele>91.012756</ele>
<time>2010-07-18T14:04:13Z</time>
<desc>lat.=55.876431, lon.=26.503248, Alt.=91.012756m. Speed=28.044001m/h.</desc>
<speed>7.790000</speed>
</trkpt>
<trkpt lat="55.876499" lon="26.503229">
<ele>91.237366</ele>
<time>2010-07-18T14:04:14Z</time>
<desc>lat.=55.876499, lon.=26.503229, Alt.=91.237366m. Speed=27.792000m/h.</desc>
<speed>7.720000</speed>
</trkpt>
<trkpt lat="55.876564" lon="26.503201">
<ele>91.192444</ele>
<time>2010-07-18T14:04:15Z</time>
<desc>lat.=55.876564, lon.=26.503201, Alt.=91.192444m. Speed=28.080000m/h.</desc>
<speed>7.800000</speed>
</trkpt>
<trkpt lat="55.876633" lon="26.503164">
<ele>91.395569</ele>
<time>2010-07-18T14:04:16Z</time>
<desc>lat.=55.876633, lon.=26.503164, Alt.=91.395569m. Speed=28.728001m/h.</desc>
<speed>7.980000</speed>
</trkpt>
<trkpt lat="55.876705" lon="26.503120">
<ele>91.766663</ele>
<time>2010-07-18T14:04:17Z</time>
<desc>lat.=55.876705, lon.=26.503120, Alt.=91.766663m. Speed=29.448000m/h.</desc>
<speed>8.180000</speed>
</trkpt>
<trkpt lat="55.876774" lon="26.503071">
<ele>91.848694</ele>
<time>2010-07-18T14:04:18Z</time>
<desc>lat.=55.876774, lon.=26.503071, Alt.=91.848694m. Speed=28.476000m/h.</desc>
<speed>7.910000</speed>
</trkpt>
<trkpt lat="55.876842" lon="26.503019">
<ele>91.551819</ele>
<time>2010-07-18T14:04:19Z</time>
<desc>lat.=55.876842, lon.=26.503019, Alt.=91.551819m. Speed=28.332001m/h.</desc>
<speed>7.870000</speed>
</trkpt>
<trkpt lat="55.876907" lon="26.502968">
<ele>90.965881</ele>
<time>2010-07-18T14:04:20Z</time>
<desc>lat.=55.876907, lon.=26.502968, Alt.=90.965881m. Speed=27.108000m/h.</desc>
<speed>7.530000</speed>
</trkpt>
<trkpt lat="55.876968" lon="26.502914">
<ele>90.528381</ele>
<time>2010-07-18T14:04:21Z</time>
<desc>lat.=55.876968, lon.=26.502914, Alt.=90.528381m. Speed=26.172001m/h.</desc>
<speed>7.270000</speed>
</trkpt>
<trkpt lat="55.877029" lon="26.502865">
<ele>90.946350</ele>
<time>2010-07-18T14:04:22Z</time>
<desc>lat.=55.877029, lon.=26.502865, Alt.=90.946350m. Speed=26.927999m/h.</desc>
<speed>7.480000</speed>
</trkpt>
<trkpt lat="55.877090" lon="26.502823">
<ele>91.252991</ele>
<time>2010-07-18T14:04:23Z</time>
<desc>lat.=55.877090, lon.=26.502823, Alt.=91.252991m. Speed=26.892000m/h.</desc>
<speed>7.470000</speed>
</trkpt>
<trkpt lat="55.877151" lon="26.502775">
<ele>91.254944</ele>
<time>2010-07-18T14:04:24Z</time>
<desc>lat.=55.877151, lon.=26.502775, Alt.=91.254944m. Speed=27.072001m/h.</desc>
<speed>7.520000</speed>
</trkpt>
<trkpt lat="55.877213" lon="26.502731">
<ele>91.733459</ele>
<time>2010-07-18T14:04:25Z</time>
<desc>lat.=55.877213, lon.=26.502731, Alt.=91.733459m. Speed=27.360001m/h.</desc>
<speed>7.600000</speed>
</trkpt>
<trkpt lat="55.877277" lon="26.502684">
<ele>91.713928</ele>
<time>2010-07-18T14:04:26Z</time>
<desc>lat.=55.877277, lon.=26.502684, Alt.=91.713928m. Speed=28.115999m/h.</desc>
<speed>7.810000</speed>
</trkpt>
<trkpt lat="55.877346" lon="26.502634">
<ele>91.588928</ele>
<time>2010-07-18T14:04:27Z</time>
<desc>lat.=55.877346, lon.=26.502634, Alt.=91.588928m. Speed=28.620001m/h.</desc>
<speed>7.950000</speed>
</trkpt>
<trkpt lat="55.877411" lon="26.502588">
<ele>91.909241</ele>
<time>2010-07-18T14:04:28Z</time>
<desc>lat.=55.877411, lon.=26.502588, Alt.=91.909241m. Speed=28.007999m/h.</desc>
<speed>7.780000</speed>
</trkpt>
<trkpt lat="55.877472" lon="26.502539">
<ele>92.028381</ele>
<time>2010-07-18T14:04:29Z</time>
<desc>lat.=55.877472, lon.=26.502539, Alt.=92.028381m. Speed=27.612000m/h.</desc>
<speed>7.670000</speed>
</trkpt>
<trkpt lat="55.877537" lon="26.502491">
<ele>92.301819</ele>
<time>2010-07-18T14:04:30Z</time>
<desc>lat.=55.877537, lon.=26.502491, Alt.=92.301819m. Speed=27.216000m/h.</desc>
<speed>7.560000</speed>
</trkpt>
<trkpt lat="55.877598" lon="26.502441">
<ele>92.297913</ele>
<time>2010-07-18T14:04:31Z</time>
<desc>lat.=55.877598, lon.=26.502441, Alt.=92.297913m. Speed=26.532000m/h.</desc>
<speed>7.370000</speed>
</trkpt>
<trkpt lat="55.877659" lon="26.502396">
<ele>92.295959</ele>
<time>2010-07-18T14:04:32Z</time>
<desc>lat.=55.877659, lon.=26.502396, Alt.=92.295959m. Speed=26.459999m/h.</desc>
<speed>7.350000</speed>
</trkpt>
<trkpt lat="55.877720" lon="26.502348">
<ele>91.315491</ele>
<time>2010-07-18T14:04:33Z</time>
<desc>lat.=55.877720, lon.=26.502348, Alt.=91.315491m. Speed=25.236000m/h.</desc>
<speed>7.010000</speed>
</trkpt>
<trkpt lat="55.877777" lon="26.502310">
<ele>90.583069</ele>
<time>2010-07-18T14:04:34Z</time>
<desc>lat.=55.877777, lon.=26.502310, Alt.=90.583069m. Speed=25.056000m/h.</desc>
<speed>6.960000</speed>
</trkpt>
<trkpt lat="55.877834" lon="26.502268">
<ele>90.633850</ele>
<time>2010-07-18T14:04:35Z</time>
<desc>lat.=55.877834, lon.=26.502268, Alt.=90.633850m. Speed=24.372000m/h.</desc>
<speed>6.770000</speed>
</trkpt>
<trkpt lat="55.877892" lon="26.502222">
<ele>91.772522</ele>
<time>2010-07-18T14:04:36Z</time>
<desc>lat.=55.877892, lon.=26.502222, Alt.=91.772522m. Speed=25.379999m/h.</desc>
<speed>7.050000</speed>
</trkpt>
<trkpt lat="55.877949" lon="26.502178">
<ele>91.885803</ele>
<time>2010-07-18T14:04:37Z</time>
<desc>lat.=55.877949, lon.=26.502178, Alt.=91.885803m. Speed=24.912001m/h.</desc>
<speed>6.920000</speed>
</trkpt>
<trkpt lat="55.878010" lon="26.502131">
<ele>92.110413</ele>
<time>2010-07-18T14:04:38Z</time>
<desc>lat.=55.878010, lon.=26.502131, Alt.=92.110413m. Speed=24.912001m/h.</desc>
<speed>6.920000</speed>
</trkpt>
<trkpt lat="55.878067" lon="26.502083">
<ele>91.932678</ele>
<time>2010-07-18T14:04:39Z</time>
<desc>lat.=55.878067, lon.=26.502083, Alt.=91.932678m. Speed=25.524000m/h.</desc>
<speed>7.090000</speed>
</trkpt>
<trkpt lat="55.878124" lon="26.502035">
<ele>90.698303</ele>
<time>2010-07-18T14:04:40Z</time>
<desc>lat.=55.878124, lon.=26.502035, Alt.=90.698303m. Speed=24.948000m/h.</desc>
<speed>6.930000</speed>
</trkpt>
<trkpt lat="55.878178" lon="26.501989">
<ele>90.506897</ele>
<time>2010-07-18T14:04:41Z</time>
<desc>lat.=55.878178, lon.=26.501989, Alt.=90.506897m. Speed=25.667999m/h.</desc>
<speed>7.130000</speed>
</trkpt>
<trkpt lat="55.878231" lon="26.501944">
<ele>90.737366</ele>
<time>2010-07-18T14:04:42Z</time>
<desc>lat.=55.878231, lon.=26.501944, Alt.=90.737366m. Speed=25.704000m/h.</desc>
<speed>7.140000</speed>
</trkpt>
<trkpt lat="55.878284" lon="26.501896">
<ele>89.819397</ele>
<time>2010-07-18T14:04:43Z</time>
<desc>lat.=55.878284, lon.=26.501896, Alt.=89.819397m. Speed=25.200001m/h.</desc>
<speed>7.000000</speed>
</trkpt>
<trkpt lat="55.878342" lon="26.501846">
<ele>90.229553</ele>
<time>2010-07-18T14:04:44Z</time>
<desc>lat.=55.878342, lon.=26.501846, Alt.=90.229553m. Speed=24.660000m/h.</desc>
<speed>6.850000</speed>
</trkpt>
<trkpt lat="55.878395" lon="26.501812">
<ele>90.008850</ele>
<time>2010-07-18T14:04:45Z</time>
<desc>lat.=55.878395, lon.=26.501812, Alt.=90.008850m. Speed=23.652000m/h.</desc>
<speed>6.570000</speed>
</trkpt>
<trkpt lat="55.878448" lon="26.501774">
<ele>89.811584</ele>
<time>2010-07-18T14:04:46Z</time>
<desc>lat.=55.878448, lon.=26.501774, Alt.=89.811584m. Speed=23.364000m/h.</desc>
<speed>6.490000</speed>
</trkpt>
<trkpt lat="55.878506" lon="26.501745">
<ele>89.844788</ele>
<time>2010-07-18T14:04:47Z</time>
<desc>lat.=55.878506, lon.=26.501745, Alt.=89.844788m. Speed=23.040001m/h.</desc>
<speed>6.400000</speed>
</trkpt>
<trkpt lat="55.878559" lon="26.501722">
<ele>89.239319</ele>
<time>2010-07-18T14:04:48Z</time>
<desc>lat.=55.878559, lon.=26.501722, Alt.=89.239319m. Speed=22.931999m/h.</desc>
<speed>6.370000</speed>
</trkpt>
<trkpt lat="55.878616" lon="26.501698">
<ele>88.973694</ele>
<time>2010-07-18T14:04:49Z</time>
<desc>lat.=55.878616, lon.=26.501698, Alt.=88.973694m. Speed=22.931999m/h.</desc>
<speed>6.370000</speed>
</trkpt>
<trkpt lat="55.878670" lon="26.501677">
<ele>89.131897</ele>
<time>2010-07-18T14:04:50Z</time>
<desc>lat.=55.878670, lon.=26.501677, Alt.=89.131897m. Speed=22.212000m/h.</desc>
<speed>6.170000</speed>
</trkpt>
<trkpt lat="55.878723" lon="26.501665">
<ele>89.042053</ele>
<time>2010-07-18T14:04:51Z</time>
<desc>lat.=55.878723, lon.=26.501665, Alt.=89.042053m. Speed=22.464001m/h.</desc>
<speed>6.240000</speed>
</trkpt>
<trkpt lat="55.878777" lon="26.501659">
<ele>88.702209</ele>
<time>2010-07-18T14:04:52Z</time>
<desc>lat.=55.878777, lon.=26.501659, Alt.=88.702209m. Speed=22.392000m/h.</desc>
<speed>6.220000</speed>
</trkpt>
<trkpt lat="55.878830" lon="26.501661">
<ele>88.260803</ele>
<time>2010-07-18T14:04:53Z</time>
<desc>lat.=55.878830, lon.=26.501661, Alt.=88.260803m. Speed=22.823999m/h.</desc>
<speed>6.340000</speed>
</trkpt>
<trkpt lat="55.878887" lon="26.501657">
<ele>87.969788</ele>
<time>2010-07-18T14:04:54Z</time>
<desc>lat.=55.878887, lon.=26.501657, Alt.=87.969788m. Speed=22.643999m/h.</desc>
<speed>6.290000</speed>
</trkpt>
<trkpt lat="55.878944" lon="26.501648">
<ele>87.616272</ele>
<time>2010-07-18T14:04:55Z</time>
<desc>lat.=55.878944, lon.=26.501648, Alt.=87.616272m. Speed=22.464001m/h.</desc>
<speed>6.240000</speed>
</trkpt>
<trkpt lat="55.879002" lon="26.501640">
<ele>87.415100</ele>
<time>2010-07-18T14:04:56Z</time>
<desc>lat.=55.879002, lon.=26.501640, Alt.=87.415100m. Speed=21.743999m/h.</desc>
<speed>6.040000</speed>
</trkpt>
<trkpt lat="55.879059" lon="26.501631">
<ele>87.633850</ele>
<time>2010-07-18T14:04:57Z</time>
<desc>lat.=55.879059, lon.=26.501631, Alt.=87.633850m. Speed=22.176001m/h.</desc>
<speed>6.160000</speed>
</trkpt>
<trkpt lat="55.879120" lon="26.501621">
<ele>87.717834</ele>
<time>2010-07-18T14:04:58Z</time>
<desc>lat.=55.879120, lon.=26.501621, Alt.=87.717834m. Speed=22.212000m/h.</desc>
<speed>6.170000</speed>
</trkpt>
<trkpt lat="55.879185" lon="26.501606">
<ele>88.098694</ele>
<time>2010-07-18T14:04:59Z</time>
<desc>lat.=55.879185, lon.=26.501606, Alt.=88.098694m. Speed=22.608000m/h.</desc>
<speed>6.280000</speed>
</trkpt>
<trkpt lat="55.879242" lon="26.501591">
<ele>88.292053</ele>
<time>2010-07-18T14:05:00Z</time>
<desc>lat.=55.879242, lon.=26.501591, Alt.=88.292053m. Speed=22.535999m/h.</desc>
<speed>6.260000</speed>
</trkpt>
<trkpt lat="55.879299" lon="26.501585">
<ele>88.219788</ele>
<time>2010-07-18T14:05:01Z</time>
<desc>lat.=55.879299, lon.=26.501585, Alt.=88.219788m. Speed=23.148001m/h.</desc>
<speed>6.430000</speed>
</trkpt>
<trkpt lat="55.879356" lon="26.501575">
<ele>88.094788</ele>
<time>2010-07-18T14:05:02Z</time>
<desc>lat.=55.879356, lon.=26.501575, Alt.=88.094788m. Speed=23.076000m/h.</desc>
<speed>6.410000</speed>
</trkpt>
<trkpt lat="55.879414" lon="26.501562">
<ele>88.038147</ele>
<time>2010-07-18T14:05:03Z</time>
<desc>lat.=55.879414, lon.=26.501562, Alt.=88.038147m. Speed=23.507999m/h.</desc>
<speed>6.530000</speed>
</trkpt>
<trkpt lat="55.879471" lon="26.501553">
<ele>88.012756</ele>
<time>2010-07-18T14:05:04Z</time>
<desc>lat.=55.879471, lon.=26.501553, Alt.=88.012756m. Speed=23.544001m/h.</desc>
<speed>6.540000</speed>
</trkpt>
<trkpt lat="55.879528" lon="26.501541">
<ele>87.995178</ele>
<time>2010-07-18T14:05:05Z</time>
<desc>lat.=55.879528, lon.=26.501541, Alt.=87.995178m. Speed=23.940001m/h.</desc>
<speed>6.650000</speed>
</trkpt>
<trkpt lat="55.879585" lon="26.501537">
<ele>87.606506</ele>
<time>2010-07-18T14:05:06Z</time>
<desc>lat.=55.879585, lon.=26.501537, Alt.=87.606506m. Speed=23.724001m/h.</desc>
<speed>6.590000</speed>
</trkpt>
<trkpt lat="55.879642" lon="26.501528">
<ele>87.598694</ele>
<time>2010-07-18T14:05:07Z</time>
<desc>lat.=55.879642, lon.=26.501528, Alt.=87.598694m. Speed=24.552000m/h.</desc>
<speed>6.820000</speed>
</trkpt>
<trkpt lat="55.879704" lon="26.501526">
<ele>86.770569</ele>
<time>2010-07-18T14:05:08Z</time>
<desc>lat.=55.879704, lon.=26.501526, Alt.=86.770569m. Speed=24.228001m/h.</desc>
<speed>6.730000</speed>
</trkpt>
<trkpt lat="55.879768" lon="26.501520">
<ele>86.395569</ele>
<time>2010-07-18T14:05:09Z</time>
<desc>lat.=55.879768, lon.=26.501520, Alt.=86.395569m. Speed=23.976000m/h.</desc>
<speed>6.660000</speed>
</trkpt>
<trkpt lat="55.879829" lon="26.501501">
<ele>86.370178</ele>
<time>2010-07-18T14:05:10Z</time>
<desc>lat.=55.879829, lon.=26.501501, Alt.=86.370178m. Speed=24.660000m/h.</desc>
<speed>6.850000</speed>
</trkpt>
<trkpt lat="55.879887" lon="26.501471">
<ele>86.590881</ele>
<time>2010-07-18T14:05:11Z</time>
<desc>lat.=55.879887, lon.=26.501471, Alt.=86.590881m. Speed=24.732000m/h.</desc>
<speed>6.870000</speed>
</trkpt>
<trkpt lat="55.879948" lon="26.501436">
<ele>86.571350</ele>
<time>2010-07-18T14:05:12Z</time>
<desc>lat.=55.879948, lon.=26.501436, Alt.=86.571350m. Speed=24.516001m/h.</desc>
<speed>6.810000</speed>
</trkpt>
<trkpt lat="55.880009" lon="26.501396">
<ele>86.559631</ele>
<time>2010-07-18T14:05:13Z</time>
<desc>lat.=55.880009, lon.=26.501396, Alt.=86.559631m. Speed=25.091999m/h.</desc>
<speed>6.970000</speed>
</trkpt>
<trkpt lat="55.880066" lon="26.501348">
<ele>86.434631</ele>
<time>2010-07-18T14:05:14Z</time>
<desc>lat.=55.880066, lon.=26.501348, Alt.=86.434631m. Speed=24.011999m/h.</desc>
<speed>6.670000</speed>
</trkpt>
<trkpt lat="55.880119" lon="26.501297">
<ele>86.426819</ele>
<time>2010-07-18T14:05:15Z</time>
<desc>lat.=55.880119, lon.=26.501297, Alt.=86.426819m. Speed=25.416000m/h.</desc>
<speed>7.060000</speed>
</trkpt>
<trkpt lat="55.880173" lon="26.501238">
<ele>86.286194</ele>
<time>2010-07-18T14:05:16Z</time>
<desc>lat.=55.880173, lon.=26.501238, Alt.=86.286194m. Speed=25.559999m/h.</desc>
<speed>7.100000</speed>
</trkpt>
<trkpt lat="55.880230" lon="26.501175">
<ele>86.110413</ele>
<time>2010-07-18T14:05:17Z</time>
<desc>lat.=55.880230, lon.=26.501175, Alt.=86.110413m. Speed=26.676001m/h.</desc>
<speed>7.410000</speed>
</trkpt>
<trkpt lat="55.880283" lon="26.501108">
<ele>85.936584</ele>
<time>2010-07-18T14:05:18Z</time>
<desc>lat.=55.880283, lon.=26.501108, Alt.=85.936584m. Speed=27.108000m/h.</desc>
<speed>7.530000</speed>
</trkpt>
<trkpt lat="55.880337" lon="26.501036">
<ele>85.729553</ele>
<time>2010-07-18T14:05:19Z</time>
<desc>lat.=55.880337, lon.=26.501036, Alt.=85.729553m. Speed=26.892000m/h.</desc>
<speed>7.470000</speed>
</trkpt>
<trkpt lat="55.880386" lon="26.500956">
<ele>85.563538</ele>
<time>2010-07-18T14:05:20Z</time>
<desc>lat.=55.880386, lon.=26.500956, Alt.=85.563538m. Speed=27.072001m/h.</desc>
<speed>7.520000</speed>
</trkpt>
<trkpt lat="55.880440" lon="26.500870">
<ele>85.690491</ele>
<time>2010-07-18T14:05:21Z</time>
<desc>lat.=55.880440, lon.=26.500870, Alt.=85.690491m. Speed=25.775999m/h.</desc>
<speed>7.160000</speed>
</trkpt>
<trkpt lat="55.880493" lon="26.500797">
<ele>85.377991</ele>
<time>2010-07-18T14:05:22Z</time>
<desc>lat.=55.880493, lon.=26.500797, Alt.=85.377991m. Speed=26.964001m/h.</desc>
<speed>7.490000</speed>
</trkpt>
<trkpt lat="55.880543" lon="26.500717">
<ele>85.225647</ele>
<time>2010-07-18T14:05:23Z</time>
<desc>lat.=55.880543, lon.=26.500717, Alt.=85.225647m. Speed=26.459999m/h.</desc>
<speed>7.350000</speed>
</trkpt>
<trkpt lat="55.880596" lon="26.500652">
<ele>85.723694</ele>
<time>2010-07-18T14:05:24Z</time>
<desc>lat.=55.880596, lon.=26.500652, Alt.=85.723694m. Speed=25.992001m/h.</desc>
<speed>7.220000</speed>
</trkpt>
<trkpt lat="55.880646" lon="26.500589">
<ele>85.846741</ele>
<time>2010-07-18T14:05:25Z</time>
<desc>lat.=55.880646, lon.=26.500589, Alt.=85.846741m. Speed=23.940001m/h.</desc>
<speed>6.650000</speed>
</trkpt>
<trkpt lat="55.880699" lon="26.500559">
<ele>85.846741</ele>
<time>2010-07-18T14:05:26Z</time>
<desc>lat.=55.880699, lon.=26.500559, Alt.=85.846741m. Speed=22.716000m/h.</desc>
<speed>6.310000</speed>
</trkpt>
<trkpt lat="55.880749" lon="26.500570">
<ele>86.106506</ele>
<time>2010-07-18T14:05:27Z</time>
<desc>lat.=55.880749, lon.=26.500570, Alt.=86.106506m. Speed=21.348000m/h.</desc>
<speed>5.930000</speed>
</trkpt>
<trkpt lat="55.880798" lon="26.500618">
<ele>86.489319</ele>
<time>2010-07-18T14:05:28Z</time>
<desc>lat.=55.880798, lon.=26.500618, Alt.=86.489319m. Speed=20.124001m/h.</desc>
<speed>5.590000</speed>
</trkpt>
<trkpt lat="55.880829" lon="26.500689">
<ele>86.557678</ele>
<time>2010-07-18T14:05:29Z</time>
<desc>lat.=55.880829, lon.=26.500689, Alt.=86.557678m. Speed=19.440001m/h.</desc>
<speed>5.400000</speed>
</trkpt>
<trkpt lat="55.880856" lon="26.500772">
<ele>86.797913</ele>
<time>2010-07-18T14:05:30Z</time>
<desc>lat.=55.880856, lon.=26.500772, Alt.=86.797913m. Speed=21.528000m/h.</desc>
<speed>5.980000</speed>
</trkpt>
<trkpt lat="55.880875" lon="26.500862">
<ele>86.530334</ele>
<time>2010-07-18T14:05:31Z</time>
<desc>lat.=55.880875, lon.=26.500862, Alt.=86.530334m. Speed=21.996000m/h.</desc>
<speed>6.110000</speed>
</trkpt>
<trkpt lat="55.880909" lon="26.500944">
<ele>86.573303</ele>
<time>2010-07-18T14:05:32Z</time>
<desc>lat.=55.880909, lon.=26.500944, Alt.=86.573303m. Speed=22.176001m/h.</desc>
<speed>6.160000</speed>
</trkpt>
<trkpt lat="55.880951" lon="26.501034">
<ele>86.690491</ele>
<time>2010-07-18T14:05:33Z</time>
<desc>lat.=55.880951, lon.=26.501034, Alt.=86.690491m. Speed=22.716000m/h.</desc>
<speed>6.310000</speed>
</trkpt>
<trkpt lat="55.880989" lon="26.501110">
<ele>87.215881</ele>
<time>2010-07-18T14:05:34Z</time>
<desc>lat.=55.880989, lon.=26.501110, Alt.=87.215881m. Speed=23.219999m/h.</desc>
<speed>6.450000</speed>
</trkpt>
<trkpt lat="55.881035" lon="26.501192">
<ele>87.450256</ele>
<time>2010-07-18T14:05:35Z</time>
<desc>lat.=55.881035, lon.=26.501192, Alt.=87.450256m. Speed=23.580000m/h.</desc>
<speed>6.550000</speed>
</trkpt>
<trkpt lat="55.881077" lon="26.501272">
<ele>87.733459</ele>
<time>2010-07-18T14:05:36Z</time>
<desc>lat.=55.881077, lon.=26.501272, Alt.=87.733459m. Speed=24.084000m/h.</desc>
<speed>6.690000</speed>
</trkpt>
<trkpt lat="55.881115" lon="26.501352">
<ele>87.534241</ele>
<time>2010-07-18T14:05:37Z</time>
<desc>lat.=55.881115, lon.=26.501352, Alt.=87.534241m. Speed=23.148001m/h.</desc>
<speed>6.430000</speed>
</trkpt>
<trkpt lat="55.881157" lon="26.501419">
<ele>87.169006</ele>
<time>2010-07-18T14:05:38Z</time>
<desc>lat.=55.881157, lon.=26.501419, Alt.=87.169006m. Speed=20.736000m/h.</desc>
<speed>5.760000</speed>
</trkpt>
<trkpt lat="55.881191" lon="26.501503">
<ele>87.383850</ele>
<time>2010-07-18T14:05:39Z</time>
<desc>lat.=55.881191, lon.=26.501503, Alt.=87.383850m. Speed=21.672001m/h.</desc>
<speed>6.020000</speed>
</trkpt>
<trkpt lat="55.881222" lon="26.501572">
<ele>87.415100</ele>
<time>2010-07-18T14:05:40Z</time>
<desc>lat.=55.881222, lon.=26.501572, Alt.=87.415100m. Speed=19.403999m/h.</desc>
<speed>5.390000</speed>
</trkpt>
<trkpt lat="55.881252" lon="26.501631">
<ele>87.870178</ele>
<time>2010-07-18T14:05:41Z</time>
<desc>lat.=55.881252, lon.=26.501631, Alt.=87.870178m. Speed=19.584000m/h.</desc>
<speed>5.440000</speed>
</trkpt>
<trkpt lat="55.881287" lon="26.501690">
<ele>88.266663</ele>
<time>2010-07-18T14:05:42Z</time>
<desc>lat.=55.881287, lon.=26.501690, Alt.=88.266663m. Speed=19.403999m/h.</desc>
<speed>5.390000</speed>
</trkpt>
<trkpt lat="55.881317" lon="26.501757">
<ele>89.090881</ele>
<time>2010-07-18T14:05:43Z</time>
<desc>lat.=55.881317, lon.=26.501757, Alt.=89.090881m. Speed=19.836000m/h.</desc>
<speed>5.510000</speed>
</trkpt>
<trkpt lat="55.881344" lon="26.501816">
<ele>89.053772</ele>
<time>2010-07-18T14:05:44Z</time>
<desc>lat.=55.881344, lon.=26.501816, Alt.=89.053772m. Speed=20.304001m/h.</desc>
<speed>5.640000</speed>
</trkpt>
<trkpt lat="55.881374" lon="26.501883">
<ele>89.194397</ele>
<time>2010-07-18T14:05:45Z</time>
<desc>lat.=55.881374, lon.=26.501883, Alt.=89.194397m. Speed=20.879999m/h.</desc>
<speed>5.800000</speed>
</trkpt>
<trkpt lat="55.881405" lon="26.501953">
<ele>89.172913</ele>
<time>2010-07-18T14:05:46Z</time>
<desc>lat.=55.881405, lon.=26.501953, Alt.=89.172913m. Speed=20.520000m/h.</desc>
<speed>5.700000</speed>
</trkpt>
<trkpt lat="55.881443" lon="26.502020">
<ele>89.340881</ele>
<time>2010-07-18T14:05:47Z</time>
<desc>lat.=55.881443, lon.=26.502020, Alt.=89.340881m. Speed=21.096001m/h.</desc>
<speed>5.860000</speed>
</trkpt>
<trkpt lat="55.881500" lon="26.502085">
<ele>91.126038</ele>
<time>2010-07-18T14:05:48Z</time>
<desc>lat.=55.881500, lon.=26.502085, Alt.=91.126038m. Speed=22.356001m/h.</desc>
<speed>6.210000</speed>
</trkpt>
<trkpt lat="55.881538" lon="26.502161">
<ele>91.006897</ele>
<time>2010-07-18T14:05:49Z</time>
<desc>lat.=55.881538, lon.=26.502161, Alt.=91.006897m. Speed=22.680000m/h.</desc>
<speed>6.300000</speed>
</trkpt>
<trkpt lat="55.881577" lon="26.502239">
<ele>90.924866</ele>
<time>2010-07-18T14:05:50Z</time>
<desc>lat.=55.881577, lon.=26.502239, Alt.=90.924866m. Speed=24.048000m/h.</desc>
<speed>6.680000</speed>
</trkpt>
<trkpt lat="55.881618" lon="26.502312">
<ele>90.399475</ele>
<time>2010-07-18T14:05:51Z</time>
<desc>lat.=55.881618, lon.=26.502312, Alt.=90.399475m. Speed=24.480000m/h.</desc>
<speed>6.800000</speed>
</trkpt>
<trkpt lat="55.881660" lon="26.502380">
<ele>89.727600</ele>
<time>2010-07-18T14:05:52Z</time>
<desc>lat.=55.881660, lon.=26.502380, Alt.=89.727600m. Speed=24.191999m/h.</desc>
<speed>6.720000</speed>
</trkpt>
<trkpt lat="55.881702" lon="26.502453">
<ele>89.411194</ele>
<time>2010-07-18T14:05:53Z</time>
<desc>lat.=55.881702, lon.=26.502453, Alt.=89.411194m. Speed=24.084000m/h.</desc>
<speed>6.690000</speed>
</trkpt>
<trkpt lat="55.881744" lon="26.502520">
<ele>89.010803</ele>
<time>2010-07-18T14:05:54Z</time>
<desc>lat.=55.881744, lon.=26.502520, Alt.=89.010803m. Speed=23.760000m/h.</desc>
<speed>6.600000</speed>
</trkpt>
<trkpt lat="55.881786" lon="26.502584">
<ele>88.721741</ele>
<time>2010-07-18T14:05:55Z</time>
<desc>lat.=55.881786, lon.=26.502584, Alt.=88.721741m. Speed=23.472000m/h.</desc>
<speed>6.520000</speed>
</trkpt>
<trkpt lat="55.881828" lon="26.502647">
<ele>88.620178</ele>
<time>2010-07-18T14:05:56Z</time>
<desc>lat.=55.881828, lon.=26.502647, Alt.=88.620178m. Speed=23.184000m/h.</desc>
<speed>6.440000</speed>
</trkpt>
<trkpt lat="55.881870" lon="26.502710">
<ele>88.659241</ele>
<time>2010-07-18T14:05:57Z</time>
<desc>lat.=55.881870, lon.=26.502710, Alt.=88.659241m. Speed=22.931999m/h.</desc>
<speed>6.370000</speed>
</trkpt>
<trkpt lat="55.881912" lon="26.502777">
<ele>88.444397</ele>
<time>2010-07-18T14:05:58Z</time>
<desc>lat.=55.881912, lon.=26.502777, Alt.=88.444397m. Speed=23.004000m/h.</desc>
<speed>6.390000</speed>
</trkpt>
<trkpt lat="55.881954" lon="26.502842">
<ele>88.129944</ele>
<time>2010-07-18T14:05:59Z</time>
<desc>lat.=55.881954, lon.=26.502842, Alt.=88.129944m. Speed=23.219999m/h.</desc>
<speed>6.450000</speed>
</trkpt>
<trkpt lat="55.882000" lon="26.502909">
<ele>87.983459</ele>
<time>2010-07-18T14:06:00Z</time>
<desc>lat.=55.882000, lon.=26.502909, Alt.=87.983459m. Speed=24.624001m/h.</desc>
<speed>6.840000</speed>
</trkpt>
<trkpt lat="55.882046" lon="26.502979">
<ele>87.776428</ele>
<time>2010-07-18T14:06:01Z</time>
<desc>lat.=55.882046, lon.=26.502979, Alt.=87.776428m. Speed=24.264000m/h.</desc>
<speed>6.740000</speed>
</trkpt>
<trkpt lat="55.882095" lon="26.503054">
<ele>87.811584</ele>
<time>2010-07-18T14:06:02Z</time>
<desc>lat.=55.882095, lon.=26.503054, Alt.=87.811584m. Speed=23.976000m/h.</desc>
<speed>6.660000</speed>
</trkpt>
<trkpt lat="55.882141" lon="26.503122">
<ele>86.329163</ele>
<time>2010-07-18T14:06:03Z</time>
<desc>lat.=55.882141, lon.=26.503122, Alt.=86.329163m. Speed=23.507999m/h.</desc>
<speed>6.530000</speed>
</trkpt>
<trkpt lat="55.882187" lon="26.503193">
<ele>85.608459</ele>
<time>2010-07-18T14:06:04Z</time>
<desc>lat.=55.882187, lon.=26.503193, Alt.=85.608459m. Speed=23.292000m/h.</desc>
<speed>6.470000</speed>
</trkpt>
<trkpt lat="55.882229" lon="26.503263">
<ele>85.786194</ele>
<time>2010-07-18T14:06:05Z</time>
<desc>lat.=55.882229, lon.=26.503263, Alt.=85.786194m. Speed=22.896000m/h.</desc>
<speed>6.360000</speed>
</trkpt>
<trkpt lat="55.882271" lon="26.503334">
<ele>85.485413</ele>
<time>2010-07-18T14:06:06Z</time>
<desc>lat.=55.882271, lon.=26.503334, Alt.=85.485413m. Speed=22.104000m/h.</desc>
<speed>6.140000</speed>
</trkpt>
<trkpt lat="55.882313" lon="26.503399">
<ele>85.303772</ele>
<time>2010-07-18T14:06:07Z</time>
<desc>lat.=55.882313, lon.=26.503399, Alt.=85.303772m. Speed=21.384001m/h.</desc>
<speed>5.940000</speed>
</trkpt>
<trkpt lat="55.882359" lon="26.503458">
<ele>84.913147</ele>
<time>2010-07-18T14:06:08Z</time>
<desc>lat.=55.882359, lon.=26.503458, Alt.=84.913147m. Speed=20.844000m/h.</desc>
<speed>5.790000</speed>
</trkpt>
<trkpt lat="55.882401" lon="26.503511">
<ele>84.973694</ele>
<time>2010-07-18T14:06:09Z</time>
<desc>lat.=55.882401, lon.=26.503511, Alt.=84.973694m. Speed=20.340000m/h.</desc>
<speed>5.650000</speed>
</trkpt>
<trkpt lat="55.882442" lon="26.503569">
<ele>85.081116</ele>
<time>2010-07-18T14:06:10Z</time>
<desc>lat.=55.882442, lon.=26.503569, Alt.=85.081116m. Speed=19.944000m/h.</desc>
<speed>5.540000</speed>
</trkpt>
<trkpt lat="55.882481" lon="26.503622">
<ele>85.165100</ele>
<time>2010-07-18T14:06:11Z</time>
<desc>lat.=55.882481, lon.=26.503622, Alt.=85.165100m. Speed=20.160000m/h.</desc>
<speed>5.600000</speed>
</trkpt>
<trkpt lat="55.882519" lon="26.503687">
<ele>85.528381</ele>
<time>2010-07-18T14:06:12Z</time>
<desc>lat.=55.882519, lon.=26.503687, Alt.=85.528381m. Speed=20.952000m/h.</desc>
<speed>5.820000</speed>
</trkpt>
<trkpt lat="55.882557" lon="26.503750">
<ele>84.784241</ele>
<time>2010-07-18T14:06:13Z</time>
<desc>lat.=55.882557, lon.=26.503750, Alt.=84.784241m. Speed=21.959999m/h.</desc>
<speed>6.100000</speed>
</trkpt>
<trkpt lat="55.882599" lon="26.503811">
<ele>84.844788</ele>
<time>2010-07-18T14:06:14Z</time>
<desc>lat.=55.882599, lon.=26.503811, Alt.=84.844788m. Speed=22.427999m/h.</desc>
<speed>6.230000</speed>
</trkpt>
<trkpt lat="55.882641" lon="26.503876">
<ele>85.336975</ele>
<time>2010-07-18T14:06:15Z</time>
<desc>lat.=55.882641, lon.=26.503876, Alt.=85.336975m. Speed=22.896000m/h.</desc>
<speed>6.360000</speed>
</trkpt>
<trkpt lat="55.882679" lon="26.503942">
<ele>85.469788</ele>
<time>2010-07-18T14:06:16Z</time>
<desc>lat.=55.882679, lon.=26.503942, Alt.=85.469788m. Speed=22.572001m/h.</desc>
<speed>6.270000</speed>
</trkpt>
<trkpt lat="55.882725" lon="26.504005">
<ele>85.805725</ele>
<time>2010-07-18T14:06:17Z</time>
<desc>lat.=55.882725, lon.=26.504005, Alt.=85.805725m. Speed=23.940001m/h.</desc>
<speed>6.650000</speed>
</trkpt>
<trkpt lat="55.882771" lon="26.504074">
<ele>86.325256</ele>
<time>2010-07-18T14:06:18Z</time>
<desc>lat.=55.882771, lon.=26.504074, Alt.=86.325256m. Speed=24.228001m/h.</desc>
<speed>6.730000</speed>
</trkpt>
<trkpt lat="55.882816" lon="26.504145">
<ele>86.788147</ele>
<time>2010-07-18T14:06:19Z</time>
<desc>lat.=55.882816, lon.=26.504145, Alt.=86.788147m. Speed=25.308001m/h.</desc>
<speed>7.030000</speed>
</trkpt>
<trkpt lat="55.882866" lon="26.504215">
<ele>86.924866</ele>
<time>2010-07-18T14:06:20Z</time>
<desc>lat.=55.882866, lon.=26.504215, Alt.=86.924866m. Speed=25.740000m/h.</desc>
<speed>7.150000</speed>
</trkpt>
<trkpt lat="55.882919" lon="26.504280">
<ele>87.055725</ele>
<time>2010-07-18T14:06:21Z</time>
<desc>lat.=55.882919, lon.=26.504280, Alt.=87.055725m. Speed=26.100000m/h.</desc>
<speed>7.250000</speed>
</trkpt>
<trkpt lat="55.882973" lon="26.504341">
<ele>87.044006</ele>
<time>2010-07-18T14:06:22Z</time>
<desc>lat.=55.882973, lon.=26.504341, Alt.=87.044006m. Speed=25.992001m/h.</desc>
<speed>7.220000</speed>
</trkpt>
<trkpt lat="55.883026" lon="26.504395">
<ele>87.661194</ele>
<time>2010-07-18T14:06:23Z</time>
<desc>lat.=55.883026, lon.=26.504395, Alt.=87.661194m. Speed=25.740000m/h.</desc>
<speed>7.150000</speed>
</trkpt>
<trkpt lat="55.883083" lon="26.504442">
<ele>87.999084</ele>
<time>2010-07-18T14:06:24Z</time>
<desc>lat.=55.883083, lon.=26.504442, Alt.=87.999084m. Speed=25.812000m/h.</desc>
<speed>7.170000</speed>
</trkpt>
<trkpt lat="55.883141" lon="26.504488">
<ele>88.008850</ele>
<time>2010-07-18T14:06:25Z</time>
<desc>lat.=55.883141, lon.=26.504488, Alt.=88.008850m. Speed=25.812000m/h.</desc>
<speed>7.170000</speed>
</trkpt>
<trkpt lat="55.883202" lon="26.504534">
<ele>88.260803</ele>
<time>2010-07-18T14:06:26Z</time>
<desc>lat.=55.883202, lon.=26.504534, Alt.=88.260803m. Speed=25.884001m/h.</desc>
<speed>7.190000</speed>
</trkpt>
<trkpt lat="55.883259" lon="26.504572">
<ele>88.354553</ele>
<time>2010-07-18T14:06:27Z</time>
<desc>lat.=55.883259, lon.=26.504572, Alt.=88.354553m. Speed=25.667999m/h.</desc>
<speed>7.130000</speed>
</trkpt>
<trkpt lat="55.883320" lon="26.504606">
<ele>88.442444</ele>
<time>2010-07-18T14:06:28Z</time>
<desc>lat.=55.883320, lon.=26.504606, Alt.=88.442444m. Speed=25.452000m/h.</desc>
<speed>7.070000</speed>
</trkpt>
<trkpt lat="55.883377" lon="26.504642">
<ele>88.424866</ele>
<time>2010-07-18T14:06:29Z</time>
<desc>lat.=55.883377, lon.=26.504642, Alt.=88.424866m. Speed=25.596001m/h.</desc>
<speed>7.110000</speed>
</trkpt>
<trkpt lat="55.883442" lon="26.504684">
<ele>88.206116</ele>
<time>2010-07-18T14:06:30Z</time>
<desc>lat.=55.883442, lon.=26.504684, Alt.=88.206116m. Speed=24.948000m/h.</desc>
<speed>6.930000</speed>
</trkpt>
<trkpt lat="55.883503" lon="26.504728">
<ele>88.393616</ele>
<time>2010-07-18T14:06:31Z</time>
<desc>lat.=55.883503, lon.=26.504728, Alt.=88.393616m. Speed=25.955999m/h.</desc>
<speed>7.210000</speed>
</trkpt>
<trkpt lat="55.883568" lon="26.504772">
<ele>88.680725</ele>
<time>2010-07-18T14:06:32Z</time>
<desc>lat.=55.883568, lon.=26.504772, Alt.=88.680725m. Speed=23.364000m/h.</desc>
<speed>6.490000</speed>
</trkpt>
<trkpt lat="55.883625" lon="26.504807">
<ele>88.700256</ele>
<time>2010-07-18T14:06:33Z</time>
<desc>lat.=55.883625, lon.=26.504807, Alt.=88.700256m. Speed=25.091999m/h.</desc>
<speed>6.970000</speed>
</trkpt>
<trkpt lat="55.883686" lon="26.504848">
<ele>88.919006</ele>
<time>2010-07-18T14:06:34Z</time>
<desc>lat.=55.883686, lon.=26.504848, Alt.=88.919006m. Speed=26.676001m/h.</desc>
<speed>7.410000</speed>
</trkpt>
<trkpt lat="55.883747" lon="26.504887">
<ele>88.860413</ele>
<time>2010-07-18T14:06:35Z</time>
<desc>lat.=55.883747, lon.=26.504887, Alt.=88.860413m. Speed=25.920000m/h.</desc>
<speed>7.200000</speed>
</trkpt>
<trkpt lat="55.883804" lon="26.504929">
<ele>86.794006</ele>
<time>2010-07-18T14:06:36Z</time>
<desc>lat.=55.883804, lon.=26.504929, Alt.=86.794006m. Speed=25.632000m/h.</desc>
<speed>7.120000</speed>
</trkpt>
<trkpt lat="55.883869" lon="26.504974">
<ele>86.790100</ele>
<time>2010-07-18T14:06:37Z</time>
<desc>lat.=55.883869, lon.=26.504974, Alt.=86.790100m. Speed=25.236000m/h.</desc>
<speed>7.010000</speed>
</trkpt>
<trkpt lat="55.883926" lon="26.505016">
<ele>86.807678</ele>
<time>2010-07-18T14:06:38Z</time>
<desc>lat.=55.883926, lon.=26.505016, Alt.=86.807678m. Speed=25.020000m/h.</desc>
<speed>6.950000</speed>
</trkpt>
<trkpt lat="55.883984" lon="26.505062">
<ele>87.262756</ele>
<time>2010-07-18T14:06:39Z</time>
<desc>lat.=55.883984, lon.=26.505062, Alt.=87.262756m. Speed=25.308001m/h.</desc>
<speed>7.030000</speed>
</trkpt>
<trkpt lat="55.884045" lon="26.505104">
<ele>87.071350</ele>
<time>2010-07-18T14:06:40Z</time>
<desc>lat.=55.884045, lon.=26.505104, Alt.=87.071350m. Speed=25.632000m/h.</desc>
<speed>7.120000</speed>
</trkpt>
<trkpt lat="55.884102" lon="26.505148">
<ele>86.844788</ele>
<time>2010-07-18T14:06:41Z</time>
<desc>lat.=55.884102, lon.=26.505148, Alt.=86.844788m. Speed=25.920000m/h.</desc>
<speed>7.200000</speed>
</trkpt>
<trkpt lat="55.884163" lon="26.505182">
<ele>86.620178</ele>
<time>2010-07-18T14:06:42Z</time>
<desc>lat.=55.884163, lon.=26.505182, Alt.=86.620178m. Speed=25.992001m/h.</desc>
<speed>7.220000</speed>
</trkpt>
<trkpt lat="55.884228" lon="26.505226">
<ele>86.407288</ele>
<time>2010-07-18T14:06:43Z</time>
<desc>lat.=55.884228, lon.=26.505226, Alt.=86.407288m. Speed=28.872000m/h.</desc>
<speed>8.020000</speed>
</trkpt>
<trkpt lat="55.884289" lon="26.505270">
<ele>86.047913</ele>
<time>2010-07-18T14:06:44Z</time>
<desc>lat.=55.884289, lon.=26.505270, Alt.=86.047913m. Speed=27.900000m/h.</desc>
<speed>7.750000</speed>
</trkpt>
<trkpt lat="55.884354" lon="26.505316">
<ele>85.581116</ele>
<time>2010-07-18T14:06:45Z</time>
<desc>lat.=55.884354, lon.=26.505316, Alt.=85.581116m. Speed=28.548000m/h.</desc>
<speed>7.930000</speed>
</trkpt>
<trkpt lat="55.884422" lon="26.505365">
<ele>85.534241</ele>
<time>2010-07-18T14:06:46Z</time>
<desc>lat.=55.884422, lon.=26.505365, Alt.=85.534241m. Speed=29.628000m/h.</desc>
<speed>8.230000</speed>
</trkpt>
<trkpt lat="55.884495" lon="26.505419">
<ele>85.889709</ele>
<time>2010-07-18T14:06:47Z</time>
<desc>lat.=55.884495, lon.=26.505419, Alt.=85.889709m. Speed=30.492001m/h.</desc>
<speed>8.470000</speed>
</trkpt>
<trkpt lat="55.884575" lon="26.505474">
<ele>86.342834</ele>
<time>2010-07-18T14:06:48Z</time>
<desc>lat.=55.884575, lon.=26.505474, Alt.=86.342834m. Speed=30.455999m/h.</desc>
<speed>8.460000</speed>
</trkpt>
<trkpt lat="55.884644" lon="26.505526">
<ele>86.262756</ele>
<time>2010-07-18T14:06:49Z</time>
<desc>lat.=55.884644, lon.=26.505526, Alt.=86.262756m. Speed=30.563999m/h.</desc>
<speed>8.490000</speed>
</trkpt>
<trkpt lat="55.884712" lon="26.505575">
<ele>86.360413</ele>
<time>2010-07-18T14:06:50Z</time>
<desc>lat.=55.884712, lon.=26.505575, Alt.=86.360413m. Speed=30.132000m/h.</desc>
<speed>8.370000</speed>
</trkpt>
<trkpt lat="55.884785" lon="26.505623">
<ele>86.516663</ele>
<time>2010-07-18T14:06:51Z</time>
<desc>lat.=55.884785, lon.=26.505623, Alt.=86.516663m. Speed=30.924000m/h.</desc>
<speed>8.590000</speed>
</trkpt>
<trkpt lat="55.884853" lon="26.505665">
<ele>86.454163</ele>
<time>2010-07-18T14:06:52Z</time>
<desc>lat.=55.884853, lon.=26.505665, Alt.=86.454163m. Speed=29.160000m/h.</desc>
<speed>8.100000</speed>
</trkpt>
<trkpt lat="55.884918" lon="26.505707">
<ele>86.377991</ele>
<time>2010-07-18T14:06:53Z</time>
<desc>lat.=55.884918, lon.=26.505707, Alt.=86.377991m. Speed=28.332001m/h.</desc>
<speed>7.870000</speed>
</trkpt>
<trkpt lat="55.884983" lon="26.505749">
<ele>86.336975</ele>
<time>2010-07-18T14:06:54Z</time>
<desc>lat.=55.884983, lon.=26.505749, Alt.=86.336975m. Speed=28.511999m/h.</desc>
<speed>7.920000</speed>
</trkpt>
<trkpt lat="55.885048" lon="26.505789">
<ele>86.223694</ele>
<time>2010-07-18T14:06:55Z</time>
<desc>lat.=55.885048, lon.=26.505789, Alt.=86.223694m. Speed=28.368000m/h.</desc>
<speed>7.880000</speed>
</trkpt>
<trkpt lat="55.885113" lon="26.505833">
<ele>86.010803</ele>
<time>2010-07-18T14:06:56Z</time>
<desc>lat.=55.885113, lon.=26.505833, Alt.=86.010803m. Speed=27.468000m/h.</desc>
<speed>7.630000</speed>
</trkpt>
<trkpt lat="55.885181" lon="26.505884">
<ele>85.821350</ele>
<time>2010-07-18T14:06:57Z</time>
<desc>lat.=55.885181, lon.=26.505884, Alt.=85.821350m. Speed=31.068001m/h.</desc>
<speed>8.630000</speed>
</trkpt>
<trkpt lat="55.885258" lon="26.505934">
<ele>85.721741</ele>
<time>2010-07-18T14:06:58Z</time>
<desc>lat.=55.885258, lon.=26.505934, Alt.=85.721741m. Speed=33.624001m/h.</desc>
<speed>9.340000</speed>
</trkpt>
<trkpt lat="55.885334" lon="26.505985">
<ele>85.239319</ele>
<time>2010-07-18T14:06:59Z</time>
<desc>lat.=55.885334, lon.=26.505985, Alt.=85.239319m. Speed=30.672001m/h.</desc>
<speed>8.520000</speed>
</trkpt>
<trkpt lat="55.885403" lon="26.506037">
<ele>84.952209</ele>
<time>2010-07-18T14:07:00Z</time>
<desc>lat.=55.885403, lon.=26.506037, Alt.=84.952209m. Speed=30.528000m/h.</desc>
<speed>8.480000</speed>
</trkpt>
<trkpt lat="55.885471" lon="26.506086">
<ele>84.465881</ele>
<time>2010-07-18T14:07:01Z</time>
<desc>lat.=55.885471, lon.=26.506086, Alt.=84.465881m. Speed=30.167999m/h.</desc>
<speed>8.380000</speed>
</trkpt>
<trkpt lat="55.885536" lon="26.506134">
<ele>84.022522</ele>
<time>2010-07-18T14:07:02Z</time>
<desc>lat.=55.885536, lon.=26.506134, Alt.=84.022522m. Speed=29.556000m/h.</desc>
<speed>8.210000</speed>
</trkpt>
<trkpt lat="55.885605" lon="26.506184">
<ele>83.501038</ele>
<time>2010-07-18T14:07:03Z</time>
<desc>lat.=55.885605, lon.=26.506184, Alt.=83.501038m. Speed=29.375999m/h.</desc>
<speed>8.160000</speed>
</trkpt>
<trkpt lat="55.885674" lon="26.506237">
<ele>83.071350</ele>
<time>2010-07-18T14:07:04Z</time>
<desc>lat.=55.885674, lon.=26.506237, Alt.=83.071350m. Speed=29.268000m/h.</desc>
<speed>8.130000</speed>
</trkpt>
<trkpt lat="55.885742" lon="26.506300">
<ele>82.747131</ele>
<time>2010-07-18T14:07:05Z</time>
<desc>lat.=55.885742, lon.=26.506300, Alt.=82.747131m. Speed=29.160000m/h.</desc>
<speed>8.100000</speed>
</trkpt>
<trkpt lat="55.885811" lon="26.506372">
<ele>82.450256</ele>
<time>2010-07-18T14:07:06Z</time>
<desc>lat.=55.885811, lon.=26.506372, Alt.=82.450256m. Speed=30.563999m/h.</desc>
<speed>8.490000</speed>
</trkpt>
<trkpt lat="55.885876" lon="26.506449">
<ele>83.180725</ele>
<time>2010-07-18T14:07:07Z</time>
<desc>lat.=55.885876, lon.=26.506449, Alt.=83.180725m. Speed=30.924000m/h.</desc>
<speed>8.590000</speed>
</trkpt>
<trkpt lat="55.885944" lon="26.506519">
<ele>83.319397</ele>
<time>2010-07-18T14:07:08Z</time>
<desc>lat.=55.885944, lon.=26.506519, Alt.=83.319397m. Speed=31.356001m/h.</desc>
<speed>8.710000</speed>
</trkpt>
<trkpt lat="55.886009" lon="26.506588">
<ele>82.473694</ele>
<time>2010-07-18T14:07:09Z</time>
<desc>lat.=55.886009, lon.=26.506588, Alt.=82.473694m. Speed=30.275999m/h.</desc>
<speed>8.410000</speed>
</trkpt>
<trkpt lat="55.886070" lon="26.506657">
<ele>82.145569</ele>
<time>2010-07-18T14:07:10Z</time>
<desc>lat.=55.886070, lon.=26.506657, Alt.=82.145569m. Speed=29.952000m/h.</desc>
<speed>8.320000</speed>
</trkpt>
<trkpt lat="55.886131" lon="26.506727">
<ele>82.473694</ele>
<time>2010-07-18T14:07:11Z</time>
<desc>lat.=55.886131, lon.=26.506727, Alt.=82.473694m. Speed=29.844000m/h.</desc>
<speed>8.290000</speed>
</trkpt>
<trkpt lat="55.886196" lon="26.506790">
<ele>82.487366</ele>
<time>2010-07-18T14:07:12Z</time>
<desc>lat.=55.886196, lon.=26.506790, Alt.=82.487366m. Speed=29.556000m/h.</desc>
<speed>8.210000</speed>
</trkpt>
<trkpt lat="55.886265" lon="26.506855">
<ele>83.010803</ele>
<time>2010-07-18T14:07:13Z</time>
<desc>lat.=55.886265, lon.=26.506855, Alt.=83.010803m. Speed=28.799999m/h.</desc>
<speed>8.000000</speed>
</trkpt>
<trkpt lat="55.886326" lon="26.506922">
<ele>83.270569</ele>
<time>2010-07-18T14:07:14Z</time>
<desc>lat.=55.886326, lon.=26.506922, Alt.=83.270569m. Speed=27.072001m/h.</desc>
<speed>7.520000</speed>
</trkpt>
<trkpt lat="55.886387" lon="26.506987">
<ele>83.254944</ele>
<time>2010-07-18T14:07:15Z</time>
<desc>lat.=55.886387, lon.=26.506987, Alt.=83.254944m. Speed=26.424000m/h.</desc>
<speed>7.340000</speed>
</trkpt>
<trkpt lat="55.886444" lon="26.507042">
<ele>82.919006</ele>
<time>2010-07-18T14:07:16Z</time>
<desc>lat.=55.886444, lon.=26.507042, Alt.=82.919006m. Speed=26.280001m/h.</desc>
<speed>7.300000</speed>
</trkpt>
<trkpt lat="55.886505" lon="26.507090">
<ele>82.836975</ele>
<time>2010-07-18T14:07:17Z</time>
<desc>lat.=55.886505, lon.=26.507090, Alt.=82.836975m. Speed=25.884001m/h.</desc>
<speed>7.190000</speed>
</trkpt>
<trkpt lat="55.886562" lon="26.507141">
<ele>82.669006</ele>
<time>2010-07-18T14:07:18Z</time>
<desc>lat.=55.886562, lon.=26.507141, Alt.=82.669006m. Speed=26.243999m/h.</desc>
<speed>7.290000</speed>
</trkpt>
<trkpt lat="55.886620" lon="26.507196">
<ele>82.469788</ele>
<time>2010-07-18T14:07:19Z</time>
<desc>lat.=55.886620, lon.=26.507196, Alt.=82.469788m. Speed=27.323999m/h.</desc>
<speed>7.590000</speed>
</trkpt>
<trkpt lat="55.886677" lon="26.507254">
<ele>82.176819</ele>
<time>2010-07-18T14:07:20Z</time>
<desc>lat.=55.886677, lon.=26.507254, Alt.=82.176819m. Speed=26.964001m/h.</desc>
<speed>7.490000</speed>
</trkpt>
<trkpt lat="55.886730" lon="26.507301">
<ele>81.823303</ele>
<time>2010-07-18T14:07:21Z</time>
<desc>lat.=55.886730, lon.=26.507301, Alt.=81.823303m. Speed=25.128000m/h.</desc>
<speed>6.980000</speed>
</trkpt>
<trkpt lat="55.886795" lon="26.507351">
<ele>81.672913</ele>
<time>2010-07-18T14:07:22Z</time>
<desc>lat.=55.886795, lon.=26.507351, Alt.=81.672913m. Speed=25.955999m/h.</desc>
<speed>7.210000</speed>
</trkpt>
<trkpt lat="55.886848" lon="26.507401">
<ele>81.475647</ele>
<time>2010-07-18T14:07:23Z</time>
<desc>lat.=55.886848, lon.=26.507401, Alt.=81.475647m. Speed=25.271999m/h.</desc>
<speed>7.020000</speed>
</trkpt>
<trkpt lat="55.886906" lon="26.507441">
<ele>81.186584</ele>
<time>2010-07-18T14:07:24Z</time>
<desc>lat.=55.886906, lon.=26.507441, Alt.=81.186584m. Speed=24.912001m/h.</desc>
<speed>6.920000</speed>
</trkpt>
<trkpt lat="55.886959" lon="26.507486">
<ele>80.948303</ele>
<time>2010-07-18T14:07:25Z</time>
<desc>lat.=55.886959, lon.=26.507486, Alt.=80.948303m. Speed=24.372000m/h.</desc>
<speed>6.770000</speed>
</trkpt>
<trkpt lat="55.887016" lon="26.507547">
<ele>81.024475</ele>
<time>2010-07-18T14:07:26Z</time>
<desc>lat.=55.887016, lon.=26.507547, Alt.=81.024475m. Speed=24.552000m/h.</desc>
<speed>6.820000</speed>
</trkpt>
<trkpt lat="55.887074" lon="26.507624">
<ele>81.579163</ele>
<time>2010-07-18T14:07:27Z</time>
<desc>lat.=55.887074, lon.=26.507624, Alt.=81.579163m. Speed=24.912001m/h.</desc>
<speed>6.920000</speed>
</trkpt>
<trkpt lat="55.887135" lon="26.507696">
<ele>81.850647</ele>
<time>2010-07-18T14:07:28Z</time>
<desc>lat.=55.887135, lon.=26.507696, Alt.=81.850647m. Speed=27.936001m/h.</desc>
<speed>7.760000</speed>
</trkpt>
<trkpt lat="55.887196" lon="26.507761">
<ele>82.184631</ele>
<time>2010-07-18T14:07:29Z</time>
<desc>lat.=55.887196, lon.=26.507761, Alt.=82.184631m. Speed=26.136000m/h.</desc>
<speed>7.260000</speed>
</trkpt>
<trkpt lat="55.887260" lon="26.507835">
<ele>84.079163</ele>
<time>2010-07-18T14:07:30Z</time>
<desc>lat.=55.887260, lon.=26.507835, Alt.=84.079163m. Speed=25.596001m/h.</desc>
<speed>7.110000</speed>
</trkpt>
<trkpt lat="55.887314" lon="26.507904">
<ele>84.792053</ele>
<time>2010-07-18T14:07:31Z</time>
<desc>lat.=55.887314, lon.=26.507904, Alt.=84.792053m. Speed=26.351999m/h.</desc>
<speed>7.320000</speed>
</trkpt>
<trkpt lat="55.887367" lon="26.507963">
<ele>83.145569</ele>
<time>2010-07-18T14:07:32Z</time>
<desc>lat.=55.887367, lon.=26.507963, Alt.=83.145569m. Speed=26.243999m/h.</desc>
<speed>7.290000</speed>
</trkpt>
<trkpt lat="55.887428" lon="26.508036">
<ele>84.653381</ele>
<time>2010-07-18T14:07:33Z</time>
<desc>lat.=55.887428, lon.=26.508036, Alt.=84.653381m. Speed=27.072001m/h.</desc>
<speed>7.520000</speed>
</trkpt>
<trkpt lat="55.887489" lon="26.508099">
<ele>84.926819</ele>
<time>2010-07-18T14:07:34Z</time>
<desc>lat.=55.887489, lon.=26.508099, Alt.=84.926819m. Speed=26.172001m/h.</desc>
<speed>7.270000</speed>
</trkpt>
<trkpt lat="55.887543" lon="26.508152">
<ele>84.977600</ele>
<time>2010-07-18T14:07:35Z</time>
<desc>lat.=55.887543, lon.=26.508152, Alt.=84.977600m. Speed=25.344000m/h.</desc>
<speed>7.040000</speed>
</trkpt>
<trkpt lat="55.887600" lon="26.508194">
<ele>85.350647</ele>
<time>2010-07-18T14:07:36Z</time>
<desc>lat.=55.887600, lon.=26.508194, Alt.=85.350647m. Speed=25.056000m/h.</desc>
<speed>6.960000</speed>
</trkpt>
<trkpt lat="55.887657" lon="26.508234">
<ele>86.094788</ele>
<time>2010-07-18T14:07:37Z</time>
<desc>lat.=55.887657, lon.=26.508234, Alt.=86.094788m. Speed=23.544001m/h.</desc>
<speed>6.540000</speed>
</trkpt>
<trkpt lat="55.887714" lon="26.508259">
<ele>83.116272</ele>
<time>2010-07-18T14:07:38Z</time>
<desc>lat.=55.887714, lon.=26.508259, Alt.=83.116272m. Speed=19.691999m/h.</desc>
<speed>5.470000</speed>
</trkpt>
<trkpt lat="55.887764" lon="26.508284">
<ele>82.204163</ele>
<time>2010-07-18T14:07:39Z</time>
<desc>lat.=55.887764, lon.=26.508284, Alt.=82.204163m. Speed=21.455999m/h.</desc>
<speed>5.960000</speed>
</trkpt>
<trkpt lat="55.887817" lon="26.508303">
<ele>81.610413</ele>
<time>2010-07-18T14:07:40Z</time>
<desc>lat.=55.887817, lon.=26.508303, Alt.=81.610413m. Speed=20.988001m/h.</desc>
<speed>5.830000</speed>
</trkpt>
<trkpt lat="55.887878" lon="26.508312">
<ele>81.317444</ele>
<time>2010-07-18T14:07:41Z</time>
<desc>lat.=55.887878, lon.=26.508312, Alt.=81.317444m. Speed=25.236000m/h.</desc>
<speed>7.010000</speed>
</trkpt>
<trkpt lat="55.887932" lon="26.508307">
<ele>80.665100</ele>
<time>2010-07-18T14:07:42Z</time>
<desc>lat.=55.887932, lon.=26.508307, Alt.=80.665100m. Speed=23.760000m/h.</desc>
<speed>6.600000</speed>
</trkpt>
<trkpt lat="55.887993" lon="26.508287">
<ele>80.876038</ele>
<time>2010-07-18T14:07:43Z</time>
<desc>lat.=55.887993, lon.=26.508287, Alt.=80.876038m. Speed=25.236000m/h.</desc>
<speed>7.010000</speed>
</trkpt>
<trkpt lat="55.888050" lon="26.508270">
<ele>80.967834</ele>
<time>2010-07-18T14:07:44Z</time>
<desc>lat.=55.888050, lon.=26.508270, Alt.=80.967834m. Speed=24.587999m/h.</desc>
<speed>6.830000</speed>
</trkpt>
<trkpt lat="55.888103" lon="26.508236">
<ele>80.852600</ele>
<time>2010-07-18T14:07:45Z</time>
<desc>lat.=55.888103, lon.=26.508236, Alt.=80.852600m. Speed=21.959999m/h.</desc>
<speed>6.100000</speed>
</trkpt>
<trkpt lat="55.888153" lon="26.508196">
<ele>80.585022</ele>
<time>2010-07-18T14:07:46Z</time>
<desc>lat.=55.888153, lon.=26.508196, Alt.=80.585022m. Speed=21.636000m/h.</desc>
<speed>6.010000</speed>
</trkpt>
<trkpt lat="55.888180" lon="26.508150">
<ele>80.721741</ele>
<time>2010-07-18T14:07:47Z</time>
<desc>lat.=55.888180, lon.=26.508150, Alt.=80.721741m. Speed=12.492000m/h.</desc>
<speed>3.470000</speed>
</trkpt>
<trkpt lat="55.888195" lon="26.508102">
<ele>80.829163</ele>
<time>2010-07-18T14:07:48Z</time>
<desc>lat.=55.888195, lon.=26.508102, Alt.=80.829163m. Speed=13.248000m/h.</desc>
<speed>3.680000</speed>
</trkpt>
<trkpt lat="55.888226" lon="26.508047">
<ele>81.161194</ele>
<time>2010-07-18T14:07:49Z</time>
<desc>lat.=55.888226, lon.=26.508047, Alt.=81.161194m. Speed=15.444000m/h.</desc>
<speed>4.290000</speed>
</trkpt>
<trkpt lat="55.888256" lon="26.507988">
<ele>80.864319</ele>
<time>2010-07-18T14:07:50Z</time>
<desc>lat.=55.888256, lon.=26.507988, Alt.=80.864319m. Speed=17.136000m/h.</desc>
<speed>4.760000</speed>
</trkpt>
<trkpt lat="55.888287" lon="26.507931">
<ele>81.547913</ele>
<time>2010-07-18T14:07:51Z</time>
<desc>lat.=55.888287, lon.=26.507931, Alt.=81.547913m. Speed=14.328000m/h.</desc>
<speed>3.980000</speed>
</trkpt>
<trkpt lat="55.888298" lon="26.507862">
<ele>82.592834</ele>
<time>2010-07-18T14:07:52Z</time>
<desc>lat.=55.888298, lon.=26.507862, Alt.=82.592834m. Speed=16.308001m/h.</desc>
<speed>4.530000</speed>
</trkpt>
<trkpt lat="55.888329" lon="26.507795">
<ele>83.327209</ele>
<time>2010-07-18T14:07:53Z</time>
<desc>lat.=55.888329, lon.=26.507795, Alt.=83.327209m. Speed=18.468000m/h.</desc>
<speed>5.130000</speed>
</trkpt>
<trkpt lat="55.888359" lon="26.507732">
<ele>84.157288</ele>
<time>2010-07-18T14:07:54Z</time>
<desc>lat.=55.888359, lon.=26.507732, Alt.=84.157288m. Speed=16.920000m/h.</desc>
<speed>4.700000</speed>
</trkpt>
<trkpt lat="55.888405" lon="26.507679">
<ele>84.583069</ele>
<time>2010-07-18T14:07:55Z</time>
<desc>lat.=55.888405, lon.=26.507679, Alt.=84.583069m. Speed=22.608000m/h.</desc>
<speed>6.280000</speed>
</trkpt>
<trkpt lat="55.888458" lon="26.507608">
<ele>84.768616</ele>
<time>2010-07-18T14:07:56Z</time>
<desc>lat.=55.888458, lon.=26.507608, Alt.=84.768616m. Speed=25.379999m/h.</desc>
<speed>7.050000</speed>
</trkpt>
<trkpt lat="55.888519" lon="26.507523">
<ele>85.848694</ele>
<time>2010-07-18T14:07:57Z</time>
<desc>lat.=55.888519, lon.=26.507523, Alt.=85.848694m. Speed=24.587999m/h.</desc>
<speed>6.830000</speed>
</trkpt>
<trkpt lat="55.888580" lon="26.507429">
<ele>87.251038</ele>
<time>2010-07-18T14:07:58Z</time>
<desc>lat.=55.888580, lon.=26.507429, Alt.=87.251038m. Speed=24.228001m/h.</desc>
<speed>6.730000</speed>
</trkpt>
<trkpt lat="55.888622" lon="26.507334">
<ele>88.208069</ele>
<time>2010-07-18T14:07:59Z</time>
<desc>lat.=55.888622, lon.=26.507334, Alt.=88.208069m. Speed=23.400000m/h.</desc>
<speed>6.500000</speed>
</trkpt>
<trkpt lat="55.888664" lon="26.507238">
<ele>89.501038</ele>
<time>2010-07-18T14:08:00Z</time>
<desc>lat.=55.888664, lon.=26.507238, Alt.=89.501038m. Speed=23.219999m/h.</desc>
<speed>6.450000</speed>
</trkpt>
<trkpt lat="55.888702" lon="26.507149">
<ele>89.903381</ele>
<time>2010-07-18T14:08:01Z</time>
<desc>lat.=55.888702, lon.=26.507149, Alt.=89.903381m. Speed=22.464001m/h.</desc>
<speed>6.240000</speed>
</trkpt>
<trkpt lat="55.888741" lon="26.507063">
<ele>90.360413</ele>
<time>2010-07-18T14:08:02Z</time>
<desc>lat.=55.888741, lon.=26.507063, Alt.=90.360413m. Speed=22.104000m/h.</desc>
<speed>6.140000</speed>
</trkpt>
<trkpt lat="55.888783" lon="26.506981">
<ele>90.745178</ele>
<time>2010-07-18T14:08:03Z</time>
<desc>lat.=55.888783, lon.=26.506981, Alt.=90.745178m. Speed=21.600000m/h.</desc>
<speed>6.000000</speed>
</trkpt>
<trkpt lat="55.888813" lon="26.506901">
<ele>90.983459</ele>
<time>2010-07-18T14:08:04Z</time>
<desc>lat.=55.888813, lon.=26.506901, Alt.=90.983459m. Speed=20.375999m/h.</desc>
<speed>5.660000</speed>
</trkpt>
<trkpt lat="55.888847" lon="26.506823">
<ele>91.184631</ele>
<time>2010-07-18T14:08:05Z</time>
<desc>lat.=55.888847, lon.=26.506823, Alt.=91.184631m. Speed=20.556000m/h.</desc>
<speed>5.710000</speed>
</trkpt>
<trkpt lat="55.888870" lon="26.506754">
<ele>91.170959</ele>
<time>2010-07-18T14:08:06Z</time>
<desc>lat.=55.888870, lon.=26.506754, Alt.=91.170959m. Speed=16.775999m/h.</desc>
<speed>4.660000</speed>
</trkpt>
<trkpt lat="55.888889" lon="26.506678">
<ele>91.809631</ele>
<time>2010-07-18T14:08:07Z</time>
<desc>lat.=55.888889, lon.=26.506678, Alt.=91.809631m. Speed=18.756001m/h.</desc>
<speed>5.210000</speed>
</trkpt>
<trkpt lat="55.888916" lon="26.506601">
<ele>92.077209</ele>
<time>2010-07-18T14:08:08Z</time>
<desc>lat.=55.888916, lon.=26.506601, Alt.=92.077209m. Speed=19.152000m/h.</desc>
<speed>5.320000</speed>
</trkpt>
<trkpt lat="55.888947" lon="26.506533">
<ele>92.502991</ele>
<time>2010-07-18T14:08:09Z</time>
<desc>lat.=55.888947, lon.=26.506533, Alt.=92.502991m. Speed=18.936001m/h.</desc>
<speed>5.260000</speed>
</trkpt>
<trkpt lat="55.888992" lon="26.506472">
<ele>92.276428</ele>
<time>2010-07-18T14:08:10Z</time>
<desc>lat.=55.888992, lon.=26.506472, Alt.=92.276428m. Speed=18.864000m/h.</desc>
<speed>5.240000</speed>
</trkpt>
<trkpt lat="55.889030" lon="26.506390">
<ele>92.264709</ele>
<time>2010-07-18T14:08:11Z</time>
<desc>lat.=55.889030, lon.=26.506390, Alt.=92.264709m. Speed=18.936001m/h.</desc>
<speed>5.260000</speed>
</trkpt>
<trkpt lat="55.889057" lon="26.506319">
<ele>92.139709</ele>
<time>2010-07-18T14:08:12Z</time>
<desc>lat.=55.889057, lon.=26.506319, Alt.=92.139709m. Speed=18.143999m/h.</desc>
<speed>5.040000</speed>
</trkpt>
<trkpt lat="55.889088" lon="26.506260">
<ele>92.268616</ele>
<time>2010-07-18T14:08:13Z</time>
<desc>lat.=55.889088, lon.=26.506260, Alt.=92.268616m. Speed=17.243999m/h.</desc>
<speed>4.790000</speed>
</trkpt>
<trkpt lat="55.889126" lon="26.506218">
<ele>92.307678</ele>
<time>2010-07-18T14:08:14Z</time>
<desc>lat.=55.889126, lon.=26.506218, Alt.=92.307678m. Speed=16.452000m/h.</desc>
<speed>4.570000</speed>
</trkpt>
<trkpt lat="55.889160" lon="26.506184">
<ele>92.405334</ele>
<time>2010-07-18T14:08:15Z</time>
<desc>lat.=55.889160, lon.=26.506184, Alt.=92.405334m. Speed=15.480000m/h.</desc>
<speed>4.300000</speed>
</trkpt>
<trkpt lat="55.889202" lon="26.506168">
<ele>92.141663</ele>
<time>2010-07-18T14:08:16Z</time>
<desc>lat.=55.889202, lon.=26.506168, Alt.=92.141663m. Speed=14.796000m/h.</desc>
<speed>4.110000</speed>
</trkpt>
<trkpt lat="55.889240" lon="26.506151">
<ele>92.165100</ele>
<time>2010-07-18T14:08:17Z</time>
<desc>lat.=55.889240, lon.=26.506151, Alt.=92.165100m. Speed=14.868000m/h.</desc>
<speed>4.130000</speed>
</trkpt>
<trkpt lat="55.889275" lon="26.506147">
<ele>92.079163</ele>
<time>2010-07-18T14:08:18Z</time>
<desc>lat.=55.889275, lon.=26.506147, Alt.=92.079163m. Speed=13.680000m/h.</desc>
<speed>3.800000</speed>
</trkpt>
<trkpt lat="55.889324" lon="26.506153">
<ele>91.989319</ele>
<time>2010-07-18T14:08:19Z</time>
<desc>lat.=55.889324, lon.=26.506153, Alt.=91.989319m. Speed=17.747999m/h.</desc>
<speed>4.930000</speed>
</trkpt>
<trkpt lat="55.889366" lon="26.506189">
<ele>91.981506</ele>
<time>2010-07-18T14:08:20Z</time>
<desc>lat.=55.889366, lon.=26.506189, Alt.=91.981506m. Speed=13.428000m/h.</desc>
<speed>3.730000</speed>
</trkpt>
<trkpt lat="55.889400" lon="26.506239">
<ele>92.018616</ele>
<time>2010-07-18T14:08:21Z</time>
<desc>lat.=55.889400, lon.=26.506239, Alt.=92.018616m. Speed=17.063999m/h.</desc>
<speed>4.740000</speed>
</trkpt>
<trkpt lat="55.889442" lon="26.506289">
<ele>92.170959</ele>
<time>2010-07-18T14:08:22Z</time>
<desc>lat.=55.889442, lon.=26.506289, Alt.=92.170959m. Speed=17.388000m/h.</desc>
<speed>4.830000</speed>
</trkpt>
<trkpt lat="55.889481" lon="26.506338">
<ele>92.239319</ele>
<time>2010-07-18T14:08:23Z</time>
<desc>lat.=55.889481, lon.=26.506338, Alt.=92.239319m. Speed=17.676001m/h.</desc>
<speed>4.910000</speed>
</trkpt>
<trkpt lat="55.889526" lon="26.506382">
<ele>92.651428</ele>
<time>2010-07-18T14:08:24Z</time>
<desc>lat.=55.889526, lon.=26.506382, Alt.=92.651428m. Speed=18.323999m/h.</desc>
<speed>5.090000</speed>
</trkpt>
<trkpt lat="55.889565" lon="26.506428">
<ele>92.930725</ele>
<time>2010-07-18T14:08:25Z</time>
<desc>lat.=55.889565, lon.=26.506428, Alt.=92.930725m. Speed=15.948000m/h.</desc>
<speed>4.430000</speed>
</trkpt>
<trkpt lat="55.889603" lon="26.506474">
<ele>93.157288</ele>
<time>2010-07-18T14:08:26Z</time>
<desc>lat.=55.889603, lon.=26.506474, Alt.=93.157288m. Speed=14.220000m/h.</desc>
<speed>3.950000</speed>
</trkpt>
<trkpt lat="55.889641" lon="26.506508">
<ele>94.417053</ele>
<time>2010-07-18T14:08:27Z</time>
<desc>lat.=55.889641, lon.=26.506508, Alt.=94.417053m. Speed=13.716000m/h.</desc>
<speed>3.810000</speed>
</trkpt>
<trkpt lat="55.889679" lon="26.506533">
<ele>94.387756</ele>
<time>2010-07-18T14:08:28Z</time>
<desc>lat.=55.889679, lon.=26.506533, Alt.=94.387756m. Speed=13.320000m/h.</desc>
<speed>3.700000</speed>
</trkpt>
<trkpt lat="55.889721" lon="26.506548">
<ele>94.049866</ele>
<time>2010-07-18T14:08:29Z</time>
<desc>lat.=55.889721, lon.=26.506548, Alt.=94.049866m. Speed=13.140000m/h.</desc>
<speed>3.650000</speed>
</trkpt>
<trkpt lat="55.889755" lon="26.506548">
<ele>93.833069</ele>
<time>2010-07-18T14:08:30Z</time>
<desc>lat.=55.889755, lon.=26.506548, Alt.=93.833069m. Speed=12.096000m/h.</desc>
<speed>3.360000</speed>
</trkpt>
<trkpt lat="55.889801" lon="26.506554">
<ele>93.292053</ele>
<time>2010-07-18T14:08:31Z</time>
<desc>lat.=55.889801, lon.=26.506554, Alt.=93.292053m. Speed=13.536000m/h.</desc>
<speed>3.760000</speed>
</trkpt>
<trkpt lat="55.889835" lon="26.506542">
<ele>93.450256</ele>
<time>2010-07-18T14:08:32Z</time>
<desc>lat.=55.889835, lon.=26.506542, Alt.=93.450256m. Speed=14.760000m/h.</desc>
<speed>4.100000</speed>
</trkpt>
<trkpt lat="55.889866" lon="26.506531">
<ele>93.684631</ele>
<time>2010-07-18T14:08:33Z</time>
<desc>lat.=55.889866, lon.=26.506531, Alt.=93.684631m. Speed=11.556000m/h.</desc>
<speed>3.210000</speed>
</trkpt>
<trkpt lat="55.889900" lon="26.506512">
<ele>93.932678</ele>
<time>2010-07-18T14:08:34Z</time>
<desc>lat.=55.889900, lon.=26.506512, Alt.=93.932678m. Speed=13.284000m/h.</desc>
<speed>3.690000</speed>
</trkpt>
<trkpt lat="55.889935" lon="26.506483">
<ele>94.034241</ele>
<time>2010-07-18T14:08:35Z</time>
<desc>lat.=55.889935, lon.=26.506483, Alt.=94.034241m. Speed=15.336000m/h.</desc>
<speed>4.260000</speed>
</trkpt>
<trkpt lat="55.889973" lon="26.506451">
<ele>93.772522</ele>
<time>2010-07-18T14:08:36Z</time>
<desc>lat.=55.889973, lon.=26.506451, Alt.=93.772522m. Speed=18.108000m/h.</desc>
<speed>5.030000</speed>
</trkpt>
<trkpt lat="55.890015" lon="26.506411">
<ele>93.743225</ele>
<time>2010-07-18T14:08:37Z</time>
<desc>lat.=55.890015, lon.=26.506411, Alt.=93.743225m. Speed=18.323999m/h.</desc>
<speed>5.090000</speed>
</trkpt>
<trkpt lat="55.890057" lon="26.506371">
<ele>93.747131</ele>
<time>2010-07-18T14:08:38Z</time>
<desc>lat.=55.890057, lon.=26.506371, Alt.=93.747131m. Speed=19.511999m/h.</desc>
<speed>5.420000</speed>
</trkpt>
<trkpt lat="55.890095" lon="26.506329">
<ele>93.692444</ele>
<time>2010-07-18T14:08:39Z</time>
<desc>lat.=55.890095, lon.=26.506329, Alt.=93.692444m. Speed=19.260000m/h.</desc>
<speed>5.350000</speed>
</trkpt>
<trkpt lat="55.890144" lon="26.506283">
<ele>94.288147</ele>
<time>2010-07-18T14:08:40Z</time>
<desc>lat.=55.890144, lon.=26.506283, Alt.=94.288147m. Speed=20.520000m/h.</desc>
<speed>5.700000</speed>
</trkpt>
<trkpt lat="55.890194" lon="26.506243">
<ele>94.389709</ele>
<time>2010-07-18T14:08:41Z</time>
<desc>lat.=55.890194, lon.=26.506243, Alt.=94.389709m. Speed=21.096001m/h.</desc>
<speed>5.860000</speed>
</trkpt>
<trkpt lat="55.890240" lon="26.506201">
<ele>94.561584</ele>
<time>2010-07-18T14:08:42Z</time>
<desc>lat.=55.890240, lon.=26.506201, Alt.=94.561584m. Speed=21.851999m/h.</desc>
<speed>6.070000</speed>
</trkpt>
<trkpt lat="55.890289" lon="26.506161">
<ele>94.655334</ele>
<time>2010-07-18T14:08:43Z</time>
<desc>lat.=55.890289, lon.=26.506161, Alt.=94.655334m. Speed=21.455999m/h.</desc>
<speed>5.960000</speed>
</trkpt>
<trkpt lat="55.890335" lon="26.506113">
<ele>94.797913</ele>
<time>2010-07-18T14:08:44Z</time>
<desc>lat.=55.890335, lon.=26.506113, Alt.=94.797913m. Speed=21.528000m/h.</desc>
<speed>5.980000</speed>
</trkpt>
<trkpt lat="55.890381" lon="26.506067">
<ele>94.831116</ele>
<time>2010-07-18T14:08:45Z</time>
<desc>lat.=55.890381, lon.=26.506067, Alt.=94.831116m. Speed=22.427999m/h.</desc>
<speed>6.230000</speed>
</trkpt>
<trkpt lat="55.890427" lon="26.506018">
<ele>95.044006</ele>
<time>2010-07-18T14:08:46Z</time>
<desc>lat.=55.890427, lon.=26.506018, Alt.=95.044006m. Speed=22.535999m/h.</desc>
<speed>6.260000</speed>
</trkpt>
<trkpt lat="55.890476" lon="26.505976">
<ele>95.229553</ele>
<time>2010-07-18T14:08:47Z</time>
<desc>lat.=55.890476, lon.=26.505976, Alt.=95.229553m. Speed=23.148001m/h.</desc>
<speed>6.430000</speed>
</trkpt>
<trkpt lat="55.890522" lon="26.505938">
<ele>94.883850</ele>
<time>2010-07-18T14:08:48Z</time>
<desc>lat.=55.890522, lon.=26.505938, Alt.=94.883850m. Speed=21.996000m/h.</desc>
<speed>6.110000</speed>
</trkpt>
<trkpt lat="55.890572" lon="26.505898">
<ele>94.649475</ele>
<time>2010-07-18T14:08:49Z</time>
<desc>lat.=55.890572, lon.=26.505898, Alt.=94.649475m. Speed=22.032000m/h.</desc>
<speed>6.120000</speed>
</trkpt>
<trkpt lat="55.890621" lon="26.505854">
<ele>94.659241</ele>
<time>2010-07-18T14:08:50Z</time>
<desc>lat.=55.890621, lon.=26.505854, Alt.=94.659241m. Speed=23.076000m/h.</desc>
<speed>6.410000</speed>
</trkpt>
<trkpt lat="55.890675" lon="26.505804">
<ele>94.364319</ele>
<time>2010-07-18T14:08:51Z</time>
<desc>lat.=55.890675, lon.=26.505804, Alt.=94.364319m. Speed=24.011999m/h.</desc>
<speed>6.670000</speed>
</trkpt>
<trkpt lat="55.890732" lon="26.505749">
<ele>93.926819</ele>
<time>2010-07-18T14:08:52Z</time>
<desc>lat.=55.890732, lon.=26.505749, Alt.=93.926819m. Speed=24.768000m/h.</desc>
<speed>6.880000</speed>
</trkpt>
<trkpt lat="55.890785" lon="26.505686">
<ele>93.542053</ele>
<time>2010-07-18T14:08:53Z</time>
<desc>lat.=55.890785, lon.=26.505686, Alt.=93.542053m. Speed=25.271999m/h.</desc>
<speed>7.020000</speed>
</trkpt>
<trkpt lat="55.890839" lon="26.505615">
<ele>93.450256</ele>
<time>2010-07-18T14:08:54Z</time>
<desc>lat.=55.890839, lon.=26.505615, Alt.=93.450256m. Speed=25.452000m/h.</desc>
<speed>7.070000</speed>
</trkpt>
<trkpt lat="55.890888" lon="26.505543">
<ele>93.409241</ele>
<time>2010-07-18T14:08:55Z</time>
<desc>lat.=55.890888, lon.=26.505543, Alt.=93.409241m. Speed=25.596001m/h.</desc>
<speed>7.110000</speed>
</trkpt>
<trkpt lat="55.890945" lon="26.505468">
<ele>93.286194</ele>
<time>2010-07-18T14:08:56Z</time>
<desc>lat.=55.890945, lon.=26.505468, Alt.=93.286194m. Speed=26.964001m/h.</desc>
<speed>7.490000</speed>
</trkpt>
<trkpt lat="55.891003" lon="26.505392">
<ele>93.348694</ele>
<time>2010-07-18T14:08:57Z</time>
<desc>lat.=55.891003, lon.=26.505392, Alt.=93.348694m. Speed=27.540001m/h.</desc>
<speed>7.650000</speed>
</trkpt>
<trkpt lat="55.891060" lon="26.505316">
<ele>93.288147</ele>
<time>2010-07-18T14:08:58Z</time>
<desc>lat.=55.891060, lon.=26.505316, Alt.=93.288147m. Speed=27.468000m/h.</desc>
<speed>7.630000</speed>
</trkpt>
<trkpt lat="55.891113" lon="26.505238">
<ele>93.126038</ele>
<time>2010-07-18T14:08:59Z</time>
<desc>lat.=55.891113, lon.=26.505238, Alt.=93.126038m. Speed=27.900000m/h.</desc>
<speed>7.750000</speed>
</trkpt>
<trkpt lat="55.891171" lon="26.505165">
<ele>92.924866</ele>
<time>2010-07-18T14:09:00Z</time>
<desc>lat.=55.891171, lon.=26.505165, Alt.=92.924866m. Speed=26.568001m/h.</desc>
<speed>7.380000</speed>
</trkpt>
<trkpt lat="55.891232" lon="26.505096">
<ele>92.618225</ele>
<time>2010-07-18T14:09:01Z</time>
<desc>lat.=55.891232, lon.=26.505096, Alt.=92.618225m. Speed=26.568001m/h.</desc>
<speed>7.380000</speed>
</trkpt>
<trkpt lat="55.891289" lon="26.505030">
<ele>92.356506</ele>
<time>2010-07-18T14:09:02Z</time>
<desc>lat.=55.891289, lon.=26.505030, Alt.=92.356506m. Speed=26.063999m/h.</desc>
<speed>7.240000</speed>
</trkpt>
<trkpt lat="55.891346" lon="26.504961">
<ele>92.122131</ele>
<time>2010-07-18T14:09:03Z</time>
<desc>lat.=55.891346, lon.=26.504961, Alt.=92.122131m. Speed=25.667999m/h.</desc>
<speed>7.130000</speed>
</trkpt>
<trkpt lat="55.891403" lon="26.504892">
<ele>91.749084</ele>
<time>2010-07-18T14:09:04Z</time>
<desc>lat.=55.891403, lon.=26.504892, Alt.=91.749084m. Speed=25.488001m/h.</desc>
<speed>7.080000</speed>
</trkpt>
<trkpt lat="55.891453" lon="26.504824">
<ele>91.487366</ele>
<time>2010-07-18T14:09:05Z</time>
<desc>lat.=55.891453, lon.=26.504824, Alt.=91.487366m. Speed=25.091999m/h.</desc>
<speed>6.970000</speed>
</trkpt>
<trkpt lat="55.891510" lon="26.504757">
<ele>91.360413</ele>
<time>2010-07-18T14:09:06Z</time>
<desc>lat.=55.891510, lon.=26.504757, Alt.=91.360413m. Speed=25.812000m/h.</desc>
<speed>7.170000</speed>
</trkpt>
<trkpt lat="55.891560" lon="26.504686">
<ele>91.301819</ele>
<time>2010-07-18T14:09:07Z</time>
<desc>lat.=55.891560, lon.=26.504686, Alt.=91.301819m. Speed=26.747999m/h.</desc>
<speed>7.430000</speed>
</trkpt>
<trkpt lat="55.891613" lon="26.504612">
<ele>91.221741</ele>
<time>2010-07-18T14:09:08Z</time>
<desc>lat.=55.891613, lon.=26.504612, Alt.=91.221741m. Speed=26.100000m/h.</desc>
<speed>7.250000</speed>
</trkpt>
<trkpt lat="55.891666" lon="26.504543">
<ele>91.319397</ele>
<time>2010-07-18T14:09:09Z</time>
<desc>lat.=55.891666, lon.=26.504543, Alt.=91.319397m. Speed=28.332001m/h.</desc>
<speed>7.870000</speed>
</trkpt>
<trkpt lat="55.891720" lon="26.504473">
<ele>91.323303</ele>
<time>2010-07-18T14:09:10Z</time>
<desc>lat.=55.891720, lon.=26.504473, Alt.=91.323303m. Speed=27.143999m/h.</desc>
<speed>7.540000</speed>
</trkpt>
<trkpt lat="55.891773" lon="26.504395">
<ele>91.403381</ele>
<time>2010-07-18T14:09:11Z</time>
<desc>lat.=55.891773, lon.=26.504395, Alt.=91.403381m. Speed=27.143999m/h.</desc>
<speed>7.540000</speed>
</trkpt>
<trkpt lat="55.891823" lon="26.504320">
<ele>91.155334</ele>
<time>2010-07-18T14:09:12Z</time>
<desc>lat.=55.891823, lon.=26.504320, Alt.=91.155334m. Speed=25.884001m/h.</desc>
<speed>7.190000</speed>
</trkpt>
<trkpt lat="55.891876" lon="26.504244">
<ele>91.030334</ele>
<time>2010-07-18T14:09:13Z</time>
<desc>lat.=55.891876, lon.=26.504244, Alt.=91.030334m. Speed=25.667999m/h.</desc>
<speed>7.130000</speed>
</trkpt>
<trkpt lat="55.891922" lon="26.504171">
<ele>90.950256</ele>
<time>2010-07-18T14:09:14Z</time>
<desc>lat.=55.891922, lon.=26.504171, Alt.=90.950256m. Speed=24.408001m/h.</desc>
<speed>6.780000</speed>
</trkpt>
<trkpt lat="55.891972" lon="26.504103">
<ele>90.866272</ele>
<time>2010-07-18T14:09:15Z</time>
<desc>lat.=55.891972, lon.=26.504103, Alt.=90.866272m. Speed=25.128000m/h.</desc>
<speed>6.980000</speed>
</trkpt>
<trkpt lat="55.892017" lon="26.504034">
<ele>90.842834</ele>
<time>2010-07-18T14:09:16Z</time>
<desc>lat.=55.892017, lon.=26.504034, Alt.=90.842834m. Speed=24.264000m/h.</desc>
<speed>6.740000</speed>
</trkpt>
<trkpt lat="55.892063" lon="26.503962">
<ele>90.807678</ele>
<time>2010-07-18T14:09:17Z</time>
<desc>lat.=55.892063, lon.=26.503962, Alt.=90.807678m. Speed=24.912001m/h.</desc>
<speed>6.920000</speed>
</trkpt>
<trkpt lat="55.892109" lon="26.503889">
<ele>90.776428</ele>
<time>2010-07-18T14:09:18Z</time>
<desc>lat.=55.892109, lon.=26.503889, Alt.=90.776428m. Speed=24.660000m/h.</desc>
<speed>6.850000</speed>
</trkpt>
<trkpt lat="55.892159" lon="26.503815">
<ele>90.788147</ele>
<time>2010-07-18T14:09:19Z</time>
<desc>lat.=55.892159, lon.=26.503815, Alt.=90.788147m. Speed=25.775999m/h.</desc>
<speed>7.160000</speed>
</trkpt>
<trkpt lat="55.892200" lon="26.503735">
<ele>90.899475</ele>
<time>2010-07-18T14:09:20Z</time>
<desc>lat.=55.892200, lon.=26.503735, Alt.=90.899475m. Speed=28.476000m/h.</desc>
<speed>7.910000</speed>
</trkpt>
<trkpt lat="55.892254" lon="26.503649">
<ele>90.952209</ele>
<time>2010-07-18T14:09:21Z</time>
<desc>lat.=55.892254, lon.=26.503649, Alt.=90.952209m. Speed=28.332001m/h.</desc>
<speed>7.870000</speed>
</trkpt>
<trkpt lat="55.892311" lon="26.503569">
<ele>91.110413</ele>
<time>2010-07-18T14:09:22Z</time>
<desc>lat.=55.892311, lon.=26.503569, Alt.=91.110413m. Speed=28.115999m/h.</desc>
<speed>7.810000</speed>
</trkpt>
<trkpt lat="55.892368" lon="26.503489">
<ele>91.098694</ele>
<time>2010-07-18T14:09:23Z</time>
<desc>lat.=55.892368, lon.=26.503489, Alt.=91.098694m. Speed=28.403999m/h.</desc>
<speed>7.890000</speed>
</trkpt>
<trkpt lat="55.892422" lon="26.503414">
<ele>91.034241</ele>
<time>2010-07-18T14:09:24Z</time>
<desc>lat.=55.892422, lon.=26.503414, Alt.=91.034241m. Speed=27.288000m/h.</desc>
<speed>7.580000</speed>
</trkpt>
<trkpt lat="55.892483" lon="26.503342">
<ele>91.061584</ele>
<time>2010-07-18T14:09:25Z</time>
<desc>lat.=55.892483, lon.=26.503342, Alt.=91.061584m. Speed=26.243999m/h.</desc>
<speed>7.290000</speed>
</trkpt>
<trkpt lat="55.892540" lon="26.503273">
<ele>91.061584</ele>
<time>2010-07-18T14:09:26Z</time>
<desc>lat.=55.892540, lon.=26.503273, Alt.=91.061584m. Speed=25.452000m/h.</desc>
<speed>7.070000</speed>
</trkpt>
<trkpt lat="55.892593" lon="26.503210">
<ele>91.088928</ele>
<time>2010-07-18T14:09:27Z</time>
<desc>lat.=55.892593, lon.=26.503210, Alt.=91.088928m. Speed=24.732000m/h.</desc>
<speed>6.870000</speed>
</trkpt>
<trkpt lat="55.892643" lon="26.503138">
<ele>91.186584</ele>
<time>2010-07-18T14:09:28Z</time>
<desc>lat.=55.892643, lon.=26.503138, Alt.=91.186584m. Speed=23.148001m/h.</desc>
<speed>6.430000</speed>
</trkpt>
<trkpt lat="55.892696" lon="26.503069">
<ele>91.294006</ele>
<time>2010-07-18T14:09:29Z</time>
<desc>lat.=55.892696, lon.=26.503069, Alt.=91.294006m. Speed=24.264000m/h.</desc>
<speed>6.740000</speed>
</trkpt>
<trkpt lat="55.892754" lon="26.502995">
<ele>91.551819</ele>
<time>2010-07-18T14:09:30Z</time>
<desc>lat.=55.892754, lon.=26.502995, Alt.=91.551819m. Speed=23.148001m/h.</desc>
<speed>6.430000</speed>
</trkpt>
<trkpt lat="55.892822" lon="26.502918">
<ele>91.995178</ele>
<time>2010-07-18T14:09:31Z</time>
<desc>lat.=55.892822, lon.=26.502918, Alt.=91.995178m. Speed=25.379999m/h.</desc>
<speed>7.050000</speed>
</trkpt>
<trkpt lat="55.892876" lon="26.502851">
<ele>91.876038</ele>
<time>2010-07-18T14:09:32Z</time>
<desc>lat.=55.892876, lon.=26.502851, Alt.=91.876038m. Speed=25.667999m/h.</desc>
<speed>7.130000</speed>
</trkpt>
<trkpt lat="55.892929" lon="26.502783">
<ele>91.866272</ele>
<time>2010-07-18T14:09:33Z</time>
<desc>lat.=55.892929, lon.=26.502783, Alt.=91.866272m. Speed=24.516001m/h.</desc>
<speed>6.810000</speed>
</trkpt>
<trkpt lat="55.892979" lon="26.502716">
<ele>91.881897</ele>
<time>2010-07-18T14:09:34Z</time>
<desc>lat.=55.892979, lon.=26.502716, Alt.=91.881897m. Speed=24.299999m/h.</desc>
<speed>6.750000</speed>
</trkpt>
<trkpt lat="55.893024" lon="26.502647">
<ele>91.893616</ele>
<time>2010-07-18T14:09:35Z</time>
<desc>lat.=55.893024, lon.=26.502647, Alt.=91.893616m. Speed=23.615999m/h.</desc>
<speed>6.560000</speed>
</trkpt>
<trkpt lat="55.893070" lon="26.502581">
<ele>91.924866</ele>
<time>2010-07-18T14:09:36Z</time>
<desc>lat.=55.893070, lon.=26.502581, Alt.=91.924866m. Speed=21.096001m/h.</desc>
<speed>5.860000</speed>
</trkpt>
<trkpt lat="55.893116" lon="26.502514">
<ele>91.932678</ele>
<time>2010-07-18T14:09:37Z</time>
<desc>lat.=55.893116, lon.=26.502514, Alt.=91.932678m. Speed=24.264000m/h.</desc>
<speed>6.740000</speed>
</trkpt>
<trkpt lat="55.893166" lon="26.502451">
<ele>92.071350</ele>
<time>2010-07-18T14:09:38Z</time>
<desc>lat.=55.893166, lon.=26.502451, Alt.=92.071350m. Speed=23.472000m/h.</desc>
<speed>6.520000</speed>
</trkpt>
<trkpt lat="55.893215" lon="26.502384">
<ele>92.254944</ele>
<time>2010-07-18T14:09:39Z</time>
<desc>lat.=55.893215, lon.=26.502384, Alt.=92.254944m. Speed=23.688000m/h.</desc>
<speed>6.580000</speed>
</trkpt>
<trkpt lat="55.893276" lon="26.502302">
<ele>92.282288</ele>
<time>2010-07-18T14:09:40Z</time>
<desc>lat.=55.893276, lon.=26.502302, Alt.=92.282288m. Speed=25.091999m/h.</desc>
<speed>6.970000</speed>
</trkpt>
<trkpt lat="55.893326" lon="26.502234">
<ele>92.301819</ele>
<time>2010-07-18T14:09:41Z</time>
<desc>lat.=55.893326, lon.=26.502234, Alt.=92.301819m. Speed=25.559999m/h.</desc>
<speed>7.100000</speed>
</trkpt>
<trkpt lat="55.893379" lon="26.502159">
<ele>92.397522</ele>
<time>2010-07-18T14:09:42Z</time>
<desc>lat.=55.893379, lon.=26.502159, Alt.=92.397522m. Speed=25.812000m/h.</desc>
<speed>7.170000</speed>
</trkpt>
<trkpt lat="55.893440" lon="26.502069">
<ele>92.028381</ele>
<time>2010-07-18T14:09:43Z</time>
<desc>lat.=55.893440, lon.=26.502069, Alt.=92.028381m. Speed=28.296000m/h.</desc>
<speed>7.860000</speed>
</trkpt>
<trkpt lat="55.893497" lon="26.501991">
<ele>91.991272</ele>
<time>2010-07-18T14:09:44Z</time>
<desc>lat.=55.893497, lon.=26.501991, Alt.=91.991272m. Speed=27.360001m/h.</desc>
<speed>7.600000</speed>
</trkpt>
<trkpt lat="55.893551" lon="26.501913">
<ele>92.057678</ele>
<time>2010-07-18T14:09:45Z</time>
<desc>lat.=55.893551, lon.=26.501913, Alt.=92.057678m. Speed=27.288000m/h.</desc>
<speed>7.580000</speed>
</trkpt>
<trkpt lat="55.893604" lon="26.501833">
<ele>92.133850</ele>
<time>2010-07-18T14:09:46Z</time>
<desc>lat.=55.893604, lon.=26.501833, Alt.=92.133850m. Speed=28.440001m/h.</desc>
<speed>7.900000</speed>
</trkpt>
<trkpt lat="55.893654" lon="26.501755">
<ele>92.065491</ele>
<time>2010-07-18T14:09:47Z</time>
<desc>lat.=55.893654, lon.=26.501755, Alt.=92.065491m. Speed=27.035999m/h.</desc>
<speed>7.510000</speed>
</trkpt>
<trkpt lat="55.893700" lon="26.501682">
<ele>92.127991</ele>
<time>2010-07-18T14:09:48Z</time>
<desc>lat.=55.893700, lon.=26.501682, Alt.=92.127991m. Speed=26.100000m/h.</desc>
<speed>7.250000</speed>
</trkpt>
<trkpt lat="55.893749" lon="26.501608">
<ele>92.432678</ele>
<time>2010-07-18T14:09:49Z</time>
<desc>lat.=55.893749, lon.=26.501608, Alt.=92.432678m. Speed=24.264000m/h.</desc>
<speed>6.740000</speed>
</trkpt>
<trkpt lat="55.893799" lon="26.501541">
<ele>92.590881</ele>
<time>2010-07-18T14:09:50Z</time>
<desc>lat.=55.893799, lon.=26.501541, Alt.=92.590881m. Speed=24.048000m/h.</desc>
<speed>6.680000</speed>
</trkpt>
<trkpt lat="55.893860" lon="26.501472">
<ele>92.905334</ele>
<time>2010-07-18T14:09:51Z</time>
<desc>lat.=55.893860, lon.=26.501472, Alt.=92.905334m. Speed=26.820000m/h.</desc>
<speed>7.450000</speed>
</trkpt>
<trkpt lat="55.893913" lon="26.501408">
<ele>92.963928</ele>
<time>2010-07-18T14:09:52Z</time>
<desc>lat.=55.893913, lon.=26.501408, Alt.=92.963928m. Speed=23.832001m/h.</desc>
<speed>6.620000</speed>
</trkpt>
<trkpt lat="55.893963" lon="26.501347">
<ele>92.995178</ele>
<time>2010-07-18T14:09:53Z</time>
<desc>lat.=55.893963, lon.=26.501347, Alt.=92.995178m. Speed=23.832001m/h.</desc>
<speed>6.620000</speed>
</trkpt>
<trkpt lat="55.894016" lon="26.501274">
<ele>93.086975</ele>
<time>2010-07-18T14:09:54Z</time>
<desc>lat.=55.894016, lon.=26.501274, Alt.=93.086975m. Speed=25.848000m/h.</desc>
<speed>7.180000</speed>
</trkpt>
<trkpt lat="55.894077" lon="26.501207">
<ele>93.085022</ele>
<time>2010-07-18T14:09:55Z</time>
<desc>lat.=55.894077, lon.=26.501207, Alt.=93.085022m. Speed=25.379999m/h.</desc>
<speed>7.050000</speed>
</trkpt>
<trkpt lat="55.894131" lon="26.501150">
<ele>93.178772</ele>
<time>2010-07-18T14:09:56Z</time>
<desc>lat.=55.894131, lon.=26.501150, Alt.=93.178772m. Speed=26.712000m/h.</desc>
<speed>7.420000</speed>
</trkpt>
<trkpt lat="55.894188" lon="26.501087">
<ele>93.303772</ele>
<time>2010-07-18T14:09:57Z</time>
<desc>lat.=55.894188, lon.=26.501087, Alt.=93.303772m. Speed=24.840000m/h.</desc>
<speed>6.900000</speed>
</trkpt>
<trkpt lat="55.894241" lon="26.501020">
<ele>93.366272</ele>
<time>2010-07-18T14:09:58Z</time>
<desc>lat.=55.894241, lon.=26.501020, Alt.=93.366272m. Speed=24.120001m/h.</desc>
<speed>6.700000</speed>
</trkpt>
<trkpt lat="55.894291" lon="26.500950">
<ele>93.491272</ele>
<time>2010-07-18T14:09:59Z</time>
<desc>lat.=55.894291, lon.=26.500950, Alt.=93.491272m. Speed=25.344000m/h.</desc>
<speed>7.040000</speed>
</trkpt>
<trkpt lat="55.894341" lon="26.500874">
<ele>93.577209</ele>
<time>2010-07-18T14:10:00Z</time>
<desc>lat.=55.894341, lon.=26.500874, Alt.=93.577209m. Speed=25.775999m/h.</desc>
<speed>7.160000</speed>
</trkpt>
<trkpt lat="55.894382" lon="26.500795">
<ele>93.786194</ele>
<time>2010-07-18T14:10:01Z</time>
<desc>lat.=55.894382, lon.=26.500795, Alt.=93.786194m. Speed=27.000000m/h.</desc>
<speed>7.500000</speed>
</trkpt>
<trkpt lat="55.894424" lon="26.500710">
<ele>93.270569</ele>
<time>2010-07-18T14:10:02Z</time>
<desc>lat.=55.894424, lon.=26.500710, Alt.=93.270569m. Speed=28.368000m/h.</desc>
<speed>7.880000</speed>
</trkpt>
<trkpt lat="55.894482" lon="26.500633">
<ele>92.835022</ele>
<time>2010-07-18T14:10:03Z</time>
<desc>lat.=55.894482, lon.=26.500633, Alt.=92.835022m. Speed=27.612000m/h.</desc>
<speed>7.670000</speed>
</trkpt>
<trkpt lat="55.894535" lon="26.500553">
<ele>92.842834</ele>
<time>2010-07-18T14:10:04Z</time>
<desc>lat.=55.894535, lon.=26.500553, Alt.=92.842834m. Speed=27.431999m/h.</desc>
<speed>7.620000</speed>
</trkpt>
<trkpt lat="55.894585" lon="26.500484">
<ele>93.294006</ele>
<time>2010-07-18T14:10:05Z</time>
<desc>lat.=55.894585, lon.=26.500484, Alt.=93.294006m. Speed=27.684000m/h.</desc>
<speed>7.690000</speed>
</trkpt>
<trkpt lat="55.894638" lon="26.500406">
<ele>93.958069</ele>
<time>2010-07-18T14:10:06Z</time>
<desc>lat.=55.894638, lon.=26.500406, Alt.=93.958069m. Speed=28.080000m/h.</desc>
<speed>7.800000</speed>
</trkpt>
<trkpt lat="55.894691" lon="26.500330">
<ele>94.200256</ele>
<time>2010-07-18T14:10:07Z</time>
<desc>lat.=55.894691, lon.=26.500330, Alt.=94.200256m. Speed=26.424000m/h.</desc>
<speed>7.340000</speed>
</trkpt>
<trkpt lat="55.894733" lon="26.500242">
<ele>95.104553</ele>
<time>2010-07-18T14:10:08Z</time>
<desc>lat.=55.894733, lon.=26.500242, Alt.=95.104553m. Speed=27.180000m/h.</desc>
<speed>7.550000</speed>
</trkpt>
<trkpt lat="55.894787" lon="26.500164">
<ele>95.780334</ele>
<time>2010-07-18T14:10:09Z</time>
<desc>lat.=55.894787, lon.=26.500164, Alt.=95.780334m. Speed=27.864000m/h.</desc>
<speed>7.740000</speed>
</trkpt>
<trkpt lat="55.894836" lon="26.500082">
<ele>96.639709</ele>
<time>2010-07-18T14:10:10Z</time>
<desc>lat.=55.894836, lon.=26.500082, Alt.=96.639709m. Speed=27.323999m/h.</desc>
<speed>7.590000</speed>
</trkpt>
<trkpt lat="55.894886" lon="26.500004">
<ele>96.674866</ele>
<time>2010-07-18T14:10:11Z</time>
<desc>lat.=55.894886, lon.=26.500004, Alt.=96.674866m. Speed=25.992001m/h.</desc>
<speed>7.220000</speed>
</trkpt>
<trkpt lat="55.894939" lon="26.499937">
<ele>96.647522</ele>
<time>2010-07-18T14:10:12Z</time>
<desc>lat.=55.894939, lon.=26.499937, Alt.=96.647522m. Speed=24.768000m/h.</desc>
<speed>6.880000</speed>
</trkpt>
<trkpt lat="55.894989" lon="26.499868">
<ele>96.272522</ele>
<time>2010-07-18T14:10:13Z</time>
<desc>lat.=55.894989, lon.=26.499868, Alt.=96.272522m. Speed=23.580000m/h.</desc>
<speed>6.550000</speed>
</trkpt>
<trkpt lat="55.895035" lon="26.499805">
<ele>96.403381</ele>
<time>2010-07-18T14:10:14Z</time>
<desc>lat.=55.895035, lon.=26.499805, Alt.=96.403381m. Speed=22.104000m/h.</desc>
<speed>6.140000</speed>
</trkpt>
<trkpt lat="55.895084" lon="26.499763">
<ele>96.903381</ele>
<time>2010-07-18T14:10:15Z</time>
<desc>lat.=55.895084, lon.=26.499763, Alt.=96.903381m. Speed=21.492001m/h.</desc>
<speed>5.970000</speed>
</trkpt>
<trkpt lat="55.895130" lon="26.499763">
<ele>96.792053</ele>
<time>2010-07-18T14:10:16Z</time>
<desc>lat.=55.895130, lon.=26.499763, Alt.=96.792053m. Speed=20.052000m/h.</desc>
<speed>5.570000</speed>
</trkpt>
<trkpt lat="55.895172" lon="26.499809">
<ele>96.655334</ele>
<time>2010-07-18T14:10:17Z</time>
<desc>lat.=55.895172, lon.=26.499809, Alt.=96.655334m. Speed=18.252001m/h.</desc>
<speed>5.070000</speed>
</trkpt>
<trkpt lat="55.895206" lon="26.499870">
<ele>96.463928</ele>
<time>2010-07-18T14:10:18Z</time>
<desc>lat.=55.895206, lon.=26.499870, Alt.=96.463928m. Speed=17.351999m/h.</desc>
<speed>4.820000</speed>
</trkpt>
<trkpt lat="55.895237" lon="26.499933">
<ele>96.524475</ele>
<time>2010-07-18T14:10:19Z</time>
<desc>lat.=55.895237, lon.=26.499933, Alt.=96.524475m. Speed=17.747999m/h.</desc>
<speed>4.930000</speed>
</trkpt>
<trkpt lat="55.895267" lon="26.499994">
<ele>96.516663</ele>
<time>2010-07-18T14:10:20Z</time>
<desc>lat.=55.895267, lon.=26.499994, Alt.=96.516663m. Speed=17.172001m/h.</desc>
<speed>4.770000</speed>
</trkpt>
<trkpt lat="55.895298" lon="26.500059">
<ele>96.413147</ele>
<time>2010-07-18T14:10:21Z</time>
<desc>lat.=55.895298, lon.=26.500059, Alt.=96.413147m. Speed=17.892000m/h.</desc>
<speed>4.970000</speed>
</trkpt>
<trkpt lat="55.895329" lon="26.500122">
<ele>96.485413</ele>
<time>2010-07-18T14:10:22Z</time>
<desc>lat.=55.895329, lon.=26.500122, Alt.=96.485413m. Speed=17.856001m/h.</desc>
<speed>4.960000</speed>
</trkpt>
<trkpt lat="55.895351" lon="26.500183">
<ele>96.231506</ele>
<time>2010-07-18T14:10:23Z</time>
<desc>lat.=55.895351, lon.=26.500183, Alt.=96.231506m. Speed=17.532000m/h.</desc>
<speed>4.870000</speed>
</trkpt>
<trkpt lat="55.895374" lon="26.500246">
<ele>95.813538</ele>
<time>2010-07-18T14:10:24Z</time>
<desc>lat.=55.895374, lon.=26.500246, Alt.=95.813538m. Speed=16.632000m/h.</desc>
<speed>4.620000</speed>
</trkpt>
<trkpt lat="55.895393" lon="26.500313">
<ele>96.163147</ele>
<time>2010-07-18T14:10:25Z</time>
<desc>lat.=55.895393, lon.=26.500313, Alt.=96.163147m. Speed=15.768000m/h.</desc>
<speed>4.380000</speed>
</trkpt>
<trkpt lat="55.895401" lon="26.500381">
<ele>96.786194</ele>
<time>2010-07-18T14:10:26Z</time>
<desc>lat.=55.895401, lon.=26.500381, Alt.=96.786194m. Speed=15.588000m/h.</desc>
<speed>4.330000</speed>
</trkpt>
<trkpt lat="55.895401" lon="26.500454">
<ele>96.807678</ele>
<time>2010-07-18T14:10:27Z</time>
<desc>lat.=55.895401, lon.=26.500454, Alt.=96.807678m. Speed=17.208000m/h.</desc>
<speed>4.780000</speed>
</trkpt>
<trkpt lat="55.895397" lon="26.500530">
<ele>96.176819</ele>
<time>2010-07-18T14:10:28Z</time>
<desc>lat.=55.895397, lon.=26.500530, Alt.=96.176819m. Speed=17.892000m/h.</desc>
<speed>4.970000</speed>
</trkpt>
<trkpt lat="55.895390" lon="26.500612">
<ele>96.877991</ele>
<time>2010-07-18T14:10:29Z</time>
<desc>lat.=55.895390, lon.=26.500612, Alt.=96.877991m. Speed=19.152000m/h.</desc>
<speed>5.320000</speed>
</trkpt>
<trkpt lat="55.895378" lon="26.500694">
<ele>96.975647</ele>
<time>2010-07-18T14:10:30Z</time>
<desc>lat.=55.895378, lon.=26.500694, Alt.=96.975647m. Speed=18.756001m/h.</desc>
<speed>5.210000</speed>
</trkpt>
<trkpt lat="55.895359" lon="26.500771">
<ele>96.965881</ele>
<time>2010-07-18T14:10:31Z</time>
<desc>lat.=55.895359, lon.=26.500771, Alt.=96.965881m. Speed=18.576000m/h.</desc>
<speed>5.160000</speed>
</trkpt>
<trkpt lat="55.895332" lon="26.500839">
<ele>96.831116</ele>
<time>2010-07-18T14:10:32Z</time>
<desc>lat.=55.895332, lon.=26.500839, Alt.=96.831116m. Speed=18.684000m/h.</desc>
<speed>5.190000</speed>
</trkpt>
<trkpt lat="55.895302" lon="26.500896">
<ele>96.495178</ele>
<time>2010-07-18T14:10:33Z</time>
<desc>lat.=55.895302, lon.=26.500896, Alt.=96.495178m. Speed=18.900000m/h.</desc>
<speed>5.250000</speed>
</trkpt>
<trkpt lat="55.895264" lon="26.500952">
<ele>96.319397</ele>
<time>2010-07-18T14:10:34Z</time>
<desc>lat.=55.895264, lon.=26.500952, Alt.=96.319397m. Speed=19.224001m/h.</desc>
<speed>5.340000</speed>
</trkpt>
<trkpt lat="55.895218" lon="26.501005">
<ele>95.126038</ele>
<time>2010-07-18T14:10:35Z</time>
<desc>lat.=55.895218, lon.=26.501005, Alt.=95.126038m. Speed=21.059999m/h.</desc>
<speed>5.850000</speed>
</trkpt>
<trkpt lat="55.895184" lon="26.501060">
<ele>95.280334</ele>
<time>2010-07-18T14:10:36Z</time>
<desc>lat.=55.895184, lon.=26.501060, Alt.=95.280334m. Speed=21.492001m/h.</desc>
<speed>5.970000</speed>
</trkpt>
<trkpt lat="55.895142" lon="26.501123">
<ele>95.135803</ele>
<time>2010-07-18T14:10:37Z</time>
<desc>lat.=55.895142, lon.=26.501123, Alt.=95.135803m. Speed=22.535999m/h.</desc>
<speed>6.260000</speed>
</trkpt>
<trkpt lat="55.895100" lon="26.501186">
<ele>94.850647</ele>
<time>2010-07-18T14:10:38Z</time>
<desc>lat.=55.895100, lon.=26.501186, Alt.=94.850647m. Speed=22.500000m/h.</desc>
<speed>6.250000</speed>
</trkpt>
<trkpt lat="55.895054" lon="26.501238">
<ele>94.596741</ele>
<time>2010-07-18T14:10:39Z</time>
<desc>lat.=55.895054, lon.=26.501238, Alt.=94.596741m. Speed=22.752001m/h.</desc>
<speed>6.320000</speed>
</trkpt>
<trkpt lat="55.895008" lon="26.501295">
<ele>94.807678</ele>
<time>2010-07-18T14:10:40Z</time>
<desc>lat.=55.895008, lon.=26.501295, Alt.=94.807678m. Speed=22.788000m/h.</desc>
<speed>6.330000</speed>
</trkpt>
<trkpt lat="55.894962" lon="26.501352">
<ele>94.518616</ele>
<time>2010-07-18T14:10:41Z</time>
<desc>lat.=55.894962, lon.=26.501352, Alt.=94.518616m. Speed=23.004000m/h.</desc>
<speed>6.390000</speed>
</trkpt>
<trkpt lat="55.894920" lon="26.501417">
<ele>94.422913</ele>
<time>2010-07-18T14:10:42Z</time>
<desc>lat.=55.894920, lon.=26.501417, Alt.=94.422913m. Speed=22.896000m/h.</desc>
<speed>6.360000</speed>
</trkpt>
<trkpt lat="55.894882" lon="26.501480">
<ele>94.813538</ele>
<time>2010-07-18T14:10:43Z</time>
<desc>lat.=55.894882, lon.=26.501480, Alt.=94.813538m. Speed=22.608000m/h.</desc>
<speed>6.280000</speed>
</trkpt>
<trkpt lat="55.894836" lon="26.501541">
<ele>94.567444</ele>
<time>2010-07-18T14:10:44Z</time>
<desc>lat.=55.894836, lon.=26.501541, Alt.=94.567444m. Speed=22.247999m/h.</desc>
<speed>6.180000</speed>
</trkpt>
<trkpt lat="55.894794" lon="26.501596">
<ele>94.561584</ele>
<time>2010-07-18T14:10:45Z</time>
<desc>lat.=55.894794, lon.=26.501596, Alt.=94.561584m. Speed=22.068001m/h.</desc>
<speed>6.130000</speed>
</trkpt>
<trkpt lat="55.894749" lon="26.501654">
<ele>94.133850</ele>
<time>2010-07-18T14:10:46Z</time>
<desc>lat.=55.894749, lon.=26.501654, Alt.=94.133850m. Speed=21.743999m/h.</desc>
<speed>6.040000</speed>
</trkpt>
<trkpt lat="55.894711" lon="26.501713">
<ele>94.329163</ele>
<time>2010-07-18T14:10:47Z</time>
<desc>lat.=55.894711, lon.=26.501713, Alt.=94.329163m. Speed=21.384001m/h.</desc>
<speed>5.940000</speed>
</trkpt>
<trkpt lat="55.894669" lon="26.501778">
<ele>94.256897</ele>
<time>2010-07-18T14:10:48Z</time>
<desc>lat.=55.894669, lon.=26.501778, Alt.=94.256897m. Speed=21.204000m/h.</desc>
<speed>5.890000</speed>
</trkpt>
<trkpt lat="55.894630" lon="26.501841">
<ele>94.077209</ele>
<time>2010-07-18T14:10:49Z</time>
<desc>lat.=55.894630, lon.=26.501841, Alt.=94.077209m. Speed=21.996000m/h.</desc>
<speed>6.110000</speed>
</trkpt>
<trkpt lat="55.894585" lon="26.501902">
<ele>93.735413</ele>
<time>2010-07-18T14:10:50Z</time>
<desc>lat.=55.894585, lon.=26.501902, Alt.=93.735413m. Speed=22.860001m/h.</desc>
<speed>6.350000</speed>
</trkpt>
<trkpt lat="55.894535" lon="26.501959">
<ele>93.633850</ele>
<time>2010-07-18T14:10:51Z</time>
<desc>lat.=55.894535, lon.=26.501959, Alt.=93.633850m. Speed=23.688000m/h.</desc>
<speed>6.580000</speed>
</trkpt>
<trkpt lat="55.894482" lon="26.502014">
<ele>93.399475</ele>
<time>2010-07-18T14:10:52Z</time>
<desc>lat.=55.894482, lon.=26.502014, Alt.=93.399475m. Speed=25.056000m/h.</desc>
<speed>6.960000</speed>
</trkpt>
<trkpt lat="55.894432" lon="26.502071">
<ele>93.024475</ele>
<time>2010-07-18T14:10:53Z</time>
<desc>lat.=55.894432, lon.=26.502071, Alt.=93.024475m. Speed=25.344000m/h.</desc>
<speed>7.040000</speed>
</trkpt>
<trkpt lat="55.894379" lon="26.502136">
<ele>92.846741</ele>
<time>2010-07-18T14:10:54Z</time>
<desc>lat.=55.894379, lon.=26.502136, Alt.=92.846741m. Speed=25.920000m/h.</desc>
<speed>7.200000</speed>
</trkpt>
<trkpt lat="55.894325" lon="26.502199">
<ele>92.456116</ele>
<time>2010-07-18T14:10:55Z</time>
<desc>lat.=55.894325, lon.=26.502199, Alt.=92.456116m. Speed=25.416000m/h.</desc>
<speed>7.060000</speed>
</trkpt>
<trkpt lat="55.894272" lon="26.502262">
<ele>92.202209</ele>
<time>2010-07-18T14:10:56Z</time>
<desc>lat.=55.894272, lon.=26.502262, Alt.=92.202209m. Speed=25.775999m/h.</desc>
<speed>7.160000</speed>
</trkpt>
<trkpt lat="55.894222" lon="26.502329">
<ele>91.518616</ele>
<time>2010-07-18T14:10:57Z</time>
<desc>lat.=55.894222, lon.=26.502329, Alt.=91.518616m. Speed=26.136000m/h.</desc>
<speed>7.260000</speed>
</trkpt>
<trkpt lat="55.894173" lon="26.502401">
<ele>90.881897</ele>
<time>2010-07-18T14:10:58Z</time>
<desc>lat.=55.894173, lon.=26.502401, Alt.=90.881897m. Speed=25.812000m/h.</desc>
<speed>7.170000</speed>
</trkpt>
<trkpt lat="55.894123" lon="26.502476">
<ele>90.708069</ele>
<time>2010-07-18T14:10:59Z</time>
<desc>lat.=55.894123, lon.=26.502476, Alt.=90.708069m. Speed=26.172001m/h.</desc>
<speed>7.270000</speed>
</trkpt>
<trkpt lat="55.894073" lon="26.502546">
<ele>90.590881</ele>
<time>2010-07-18T14:11:00Z</time>
<desc>lat.=55.894073, lon.=26.502546, Alt.=90.590881m. Speed=25.775999m/h.</desc>
<speed>7.160000</speed>
</trkpt>
<trkpt lat="55.894024" lon="26.502621">
<ele>90.409241</ele>
<time>2010-07-18T14:11:01Z</time>
<desc>lat.=55.894024, lon.=26.502621, Alt.=90.409241m. Speed=25.164000m/h.</desc>
<speed>6.990000</speed>
</trkpt>
<trkpt lat="55.893974" lon="26.502691">
<ele>90.319397</ele>
<time>2010-07-18T14:11:02Z</time>
<desc>lat.=55.893974, lon.=26.502691, Alt.=90.319397m. Speed=25.308001m/h.</desc>
<speed>7.030000</speed>
</trkpt>
<trkpt lat="55.893925" lon="26.502769">
<ele>89.737366</ele>
<time>2010-07-18T14:11:03Z</time>
<desc>lat.=55.893925, lon.=26.502769, Alt.=89.737366m. Speed=25.524000m/h.</desc>
<speed>7.090000</speed>
</trkpt>
<trkpt lat="55.893879" lon="26.502842">
<ele>89.563538</ele>
<time>2010-07-18T14:11:04Z</time>
<desc>lat.=55.893879, lon.=26.502842, Alt.=89.563538m. Speed=24.768000m/h.</desc>
<speed>6.880000</speed>
</trkpt>
<trkpt lat="55.893826" lon="26.502914">
<ele>89.172913</ele>
<time>2010-07-18T14:11:05Z</time>
<desc>lat.=55.893826, lon.=26.502914, Alt.=89.172913m. Speed=24.408001m/h.</desc>
<speed>6.780000</speed>
</trkpt>
<trkpt lat="55.893776" lon="26.502981">
<ele>88.829163</ele>
<time>2010-07-18T14:11:06Z</time>
<desc>lat.=55.893776, lon.=26.502981, Alt.=88.829163m. Speed=23.472000m/h.</desc>
<speed>6.520000</speed>
</trkpt>
<trkpt lat="55.893726" lon="26.503044">
<ele>88.944397</ele>
<time>2010-07-18T14:11:07Z</time>
<desc>lat.=55.893726, lon.=26.503044, Alt.=88.944397m. Speed=22.788000m/h.</desc>
<speed>6.330000</speed>
</trkpt>
<trkpt lat="55.893684" lon="26.503107">
<ele>88.657288</ele>
<time>2010-07-18T14:11:08Z</time>
<desc>lat.=55.893684, lon.=26.503107, Alt.=88.657288m. Speed=23.148001m/h.</desc>
<speed>6.430000</speed>
</trkpt>
<trkpt lat="55.893639" lon="26.503170">
<ele>88.442444</ele>
<time>2010-07-18T14:11:09Z</time>
<desc>lat.=55.893639, lon.=26.503170, Alt.=88.442444m. Speed=22.716000m/h.</desc>
<speed>6.310000</speed>
</trkpt>
<trkpt lat="55.893597" lon="26.503239">
<ele>88.377991</ele>
<time>2010-07-18T14:11:10Z</time>
<desc>lat.=55.893597, lon.=26.503239, Alt.=88.377991m. Speed=22.535999m/h.</desc>
<speed>6.260000</speed>
</trkpt>
<trkpt lat="55.893559" lon="26.503307">
<ele>88.553772</ele>
<time>2010-07-18T14:11:11Z</time>
<desc>lat.=55.893559, lon.=26.503307, Alt.=88.553772m. Speed=21.420000m/h.</desc>
<speed>5.950000</speed>
</trkpt>
<trkpt lat="55.893520" lon="26.503372">
<ele>88.756897</ele>
<time>2010-07-18T14:11:12Z</time>
<desc>lat.=55.893520, lon.=26.503372, Alt.=88.756897m. Speed=21.563999m/h.</desc>
<speed>5.990000</speed>
</trkpt>
<trkpt lat="55.893486" lon="26.503447">
<ele>88.758850</ele>
<time>2010-07-18T14:11:13Z</time>
<desc>lat.=55.893486, lon.=26.503447, Alt.=88.758850m. Speed=21.167999m/h.</desc>
<speed>5.880000</speed>
</trkpt>
<trkpt lat="55.893440" lon="26.503523">
<ele>88.567444</ele>
<time>2010-07-18T14:11:14Z</time>
<desc>lat.=55.893440, lon.=26.503523, Alt.=88.567444m. Speed=22.788000m/h.</desc>
<speed>6.330000</speed>
</trkpt>
<trkpt lat="55.893417" lon="26.503595">
<ele>88.581116</ele>
<time>2010-07-18T14:11:15Z</time>
<desc>lat.=55.893417, lon.=26.503595, Alt.=88.581116m. Speed=17.784000m/h.</desc>
<speed>4.940000</speed>
</trkpt>
<trkpt lat="55.893379" lon="26.503681">
<ele>88.264709</ele>
<time>2010-07-18T14:11:16Z</time>
<desc>lat.=55.893379, lon.=26.503681, Alt.=88.264709m. Speed=24.228001m/h.</desc>
<speed>6.730000</speed>
</trkpt>
<trkpt lat="55.893333" lon="26.503765">
<ele>88.086975</ele>
<time>2010-07-18T14:11:17Z</time>
<desc>lat.=55.893333, lon.=26.503765, Alt.=88.086975m. Speed=25.884001m/h.</desc>
<speed>7.190000</speed>
</trkpt>
<trkpt lat="55.893291" lon="26.503847">
<ele>87.917053</ele>
<time>2010-07-18T14:11:18Z</time>
<desc>lat.=55.893291, lon.=26.503847, Alt.=87.917053m. Speed=25.091999m/h.</desc>
<speed>6.970000</speed>
</trkpt>
<trkpt lat="55.893246" lon="26.503937">
<ele>87.678772</ele>
<time>2010-07-18T14:11:19Z</time>
<desc>lat.=55.893246, lon.=26.503937, Alt.=87.678772m. Speed=25.848000m/h.</desc>
<speed>7.180000</speed>
</trkpt>
<trkpt lat="55.893188" lon="26.504026">
<ele>87.424866</ele>
<time>2010-07-18T14:11:20Z</time>
<desc>lat.=55.893188, lon.=26.504026, Alt.=87.424866m. Speed=26.496000m/h.</desc>
<speed>7.360000</speed>
</trkpt>
<trkpt lat="55.893143" lon="26.504105">
<ele>87.126038</ele>
<time>2010-07-18T14:11:21Z</time>
<desc>lat.=55.893143, lon.=26.504105, Alt.=87.126038m. Speed=24.983999m/h.</desc>
<speed>6.940000</speed>
</trkpt>
<trkpt lat="55.893093" lon="26.504183">
<ele>87.176819</ele>
<time>2010-07-18T14:11:22Z</time>
<desc>lat.=55.893093, lon.=26.504183, Alt.=87.176819m. Speed=24.516001m/h.</desc>
<speed>6.810000</speed>
</trkpt>
<trkpt lat="55.893044" lon="26.504263">
<ele>87.213928</ele>
<time>2010-07-18T14:11:23Z</time>
<desc>lat.=55.893044, lon.=26.504263, Alt.=87.213928m. Speed=25.848000m/h.</desc>
<speed>7.180000</speed>
</trkpt>
<trkpt lat="55.892994" lon="26.504341">
<ele>87.067444</ele>
<time>2010-07-18T14:11:24Z</time>
<desc>lat.=55.892994, lon.=26.504341, Alt.=87.067444m. Speed=25.416000m/h.</desc>
<speed>7.060000</speed>
</trkpt>
<trkpt lat="55.892944" lon="26.504419">
<ele>87.219788</ele>
<time>2010-07-18T14:11:25Z</time>
<desc>lat.=55.892944, lon.=26.504419, Alt.=87.219788m. Speed=24.660000m/h.</desc>
<speed>6.850000</speed>
</trkpt>
<trkpt lat="55.892891" lon="26.504488">
<ele>86.860413</ele>
<time>2010-07-18T14:11:26Z</time>
<desc>lat.=55.892891, lon.=26.504488, Alt.=86.860413m. Speed=22.572001m/h.</desc>
<speed>6.270000</speed>
</trkpt>
<trkpt lat="55.892845" lon="26.504551">
<ele>86.872131</ele>
<time>2010-07-18T14:11:27Z</time>
<desc>lat.=55.892845, lon.=26.504551, Alt.=86.872131m. Speed=21.563999m/h.</desc>
<speed>5.990000</speed>
</trkpt>
<trkpt lat="55.892803" lon="26.504620">
<ele>86.860413</ele>
<time>2010-07-18T14:11:28Z</time>
<desc>lat.=55.892803, lon.=26.504620, Alt.=86.860413m. Speed=22.931999m/h.</desc>
<speed>6.370000</speed>
</trkpt>
<trkpt lat="55.892761" lon="26.504686">
<ele>86.731506</ele>
<time>2010-07-18T14:11:29Z</time>
<desc>lat.=55.892761, lon.=26.504686, Alt.=86.731506m. Speed=23.688000m/h.</desc>
<speed>6.580000</speed>
</trkpt>
<trkpt lat="55.892715" lon="26.504763">
<ele>86.848694</ele>
<time>2010-07-18T14:11:30Z</time>
<desc>lat.=55.892715, lon.=26.504763, Alt.=86.848694m. Speed=23.292000m/h.</desc>
<speed>6.470000</speed>
</trkpt>
<trkpt lat="55.892677" lon="26.504831">
<ele>87.276428</ele>
<time>2010-07-18T14:11:31Z</time>
<desc>lat.=55.892677, lon.=26.504831, Alt.=87.276428m. Speed=22.427999m/h.</desc>
<speed>6.230000</speed>
</trkpt>
<trkpt lat="55.892632" lon="26.504898">
<ele>87.325256</ele>
<time>2010-07-18T14:11:32Z</time>
<desc>lat.=55.892632, lon.=26.504898, Alt.=87.325256m. Speed=21.743999m/h.</desc>
<speed>6.040000</speed>
</trkpt>
<trkpt lat="55.892593" lon="26.504959">
<ele>87.174866</ele>
<time>2010-07-18T14:11:33Z</time>
<desc>lat.=55.892593, lon.=26.504959, Alt.=87.174866m. Speed=21.059999m/h.</desc>
<speed>5.850000</speed>
</trkpt>
<trkpt lat="55.892551" lon="26.505020">
<ele>87.120178</ele>
<time>2010-07-18T14:11:34Z</time>
<desc>lat.=55.892551, lon.=26.505020, Alt.=87.120178m. Speed=20.268000m/h.</desc>
<speed>5.630000</speed>
</trkpt>
<trkpt lat="55.892513" lon="26.505075">
<ele>87.344788</ele>
<time>2010-07-18T14:11:35Z</time>
<desc>lat.=55.892513, lon.=26.505075, Alt.=87.344788m. Speed=19.260000m/h.</desc>
<speed>5.350000</speed>
</trkpt>
<trkpt lat="55.892475" lon="26.505133">
<ele>87.446350</ele>
<time>2010-07-18T14:11:36Z</time>
<desc>lat.=55.892475, lon.=26.505133, Alt.=87.446350m. Speed=19.908001m/h.</desc>
<speed>5.530000</speed>
</trkpt>
<trkpt lat="55.892441" lon="26.505190">
<ele>87.450256</ele>
<time>2010-07-18T14:11:37Z</time>
<desc>lat.=55.892441, lon.=26.505190, Alt.=87.450256m. Speed=19.080000m/h.</desc>
<speed>5.300000</speed>
</trkpt>
<trkpt lat="55.892406" lon="26.505249">
<ele>87.376038</ele>
<time>2010-07-18T14:11:38Z</time>
<desc>lat.=55.892406, lon.=26.505249, Alt.=87.376038m. Speed=19.691999m/h.</desc>
<speed>5.470000</speed>
</trkpt>
<trkpt lat="55.892368" lon="26.505310">
<ele>87.544006</ele>
<time>2010-07-18T14:11:39Z</time>
<desc>lat.=55.892368, lon.=26.505310, Alt.=87.544006m. Speed=20.124001m/h.</desc>
<speed>5.590000</speed>
</trkpt>
<trkpt lat="55.892330" lon="26.505365">
<ele>87.210022</ele>
<time>2010-07-18T14:11:40Z</time>
<desc>lat.=55.892330, lon.=26.505365, Alt.=87.210022m. Speed=21.275999m/h.</desc>
<speed>5.910000</speed>
</trkpt>
<trkpt lat="55.892292" lon="26.505419">
<ele>86.956116</ele>
<time>2010-07-18T14:11:41Z</time>
<desc>lat.=55.892292, lon.=26.505419, Alt.=86.956116m. Speed=18.792000m/h.</desc>
<speed>5.220000</speed>
</trkpt>
<trkpt lat="55.892262" lon="26.505476">
<ele>87.016663</ele>
<time>2010-07-18T14:11:42Z</time>
<desc>lat.=55.892262, lon.=26.505476, Alt.=87.016663m. Speed=19.044001m/h.</desc>
<speed>5.290000</speed>
</trkpt>
<trkpt lat="55.892227" lon="26.505535">
<ele>87.221741</ele>
<time>2010-07-18T14:11:43Z</time>
<desc>lat.=55.892227, lon.=26.505535, Alt.=87.221741m. Speed=18.431999m/h.</desc>
<speed>5.120000</speed>
</trkpt>
<trkpt lat="55.892197" lon="26.505596">
<ele>87.813538</ele>
<time>2010-07-18T14:11:44Z</time>
<desc>lat.=55.892197, lon.=26.505596, Alt.=87.813538m. Speed=16.524000m/h.</desc>
<speed>4.590000</speed>
</trkpt>
<trkpt lat="55.892174" lon="26.505651">
<ele>88.272522</ele>
<time>2010-07-18T14:11:45Z</time>
<desc>lat.=55.892174, lon.=26.505651, Alt.=88.272522m. Speed=15.804000m/h.</desc>
<speed>4.390000</speed>
</trkpt>
<trkpt lat="55.892143" lon="26.505703">
<ele>88.600647</ele>
<time>2010-07-18T14:11:46Z</time>
<desc>lat.=55.892143, lon.=26.505703, Alt.=88.600647m. Speed=16.056000m/h.</desc>
<speed>4.460000</speed>
</trkpt>
<trkpt lat="55.892120" lon="26.505774">
<ele>89.403381</ele>
<time>2010-07-18T14:11:47Z</time>
<desc>lat.=55.892120, lon.=26.505774, Alt.=89.403381m. Speed=17.100000m/h.</desc>
<speed>4.750000</speed>
</trkpt>
<trkpt lat="55.892090" lon="26.505833">
<ele>89.667053</ele>
<time>2010-07-18T14:11:48Z</time>
<desc>lat.=55.892090, lon.=26.505833, Alt.=89.667053m. Speed=17.063999m/h.</desc>
<speed>4.740000</speed>
</trkpt>
<trkpt lat="55.892063" lon="26.505890">
<ele>89.827209</ele>
<time>2010-07-18T14:11:49Z</time>
<desc>lat.=55.892063, lon.=26.505890, Alt.=89.827209m. Speed=17.243999m/h.</desc>
<speed>4.790000</speed>
</trkpt>
<trkpt lat="55.892036" lon="26.505947">
<ele>90.063538</ele>
<time>2010-07-18T14:11:50Z</time>
<desc>lat.=55.892036, lon.=26.505947, Alt.=90.063538m. Speed=15.120000m/h.</desc>
<speed>4.200000</speed>
</trkpt>
<trkpt lat="55.892010" lon="26.506002">
<ele>90.188538</ele>
<time>2010-07-18T14:11:51Z</time>
<desc>lat.=55.892010, lon.=26.506002, Alt.=90.188538m. Speed=15.408000m/h.</desc>
<speed>4.280000</speed>
</trkpt>
<trkpt lat="55.891983" lon="26.506060">
<ele>89.950256</ele>
<time>2010-07-18T14:11:52Z</time>
<desc>lat.=55.891983, lon.=26.506060, Alt.=89.950256m. Speed=16.236000m/h.</desc>
<speed>4.510000</speed>
</trkpt>
<trkpt lat="55.891960" lon="26.506126">
<ele>90.149475</ele>
<time>2010-07-18T14:11:53Z</time>
<desc>lat.=55.891960, lon.=26.506126, Alt.=90.149475m. Speed=16.596001m/h.</desc>
<speed>4.610000</speed>
</trkpt>
<trkpt lat="55.891933" lon="26.506186">
<ele>89.303772</ele>
<time>2010-07-18T14:11:54Z</time>
<desc>lat.=55.891933, lon.=26.506186, Alt.=89.303772m. Speed=16.200001m/h.</desc>
<speed>4.500000</speed>
</trkpt>
<trkpt lat="55.891914" lon="26.506247">
<ele>89.315491</ele>
<time>2010-07-18T14:11:55Z</time>
<desc>lat.=55.891914, lon.=26.506247, Alt.=89.315491m. Speed=15.372000m/h.</desc>
<speed>4.270000</speed>
</trkpt>
<trkpt lat="55.891895" lon="26.506306">
<ele>89.266663</ele>
<time>2010-07-18T14:11:56Z</time>
<desc>lat.=55.891895, lon.=26.506306, Alt.=89.266663m. Speed=14.688000m/h.</desc>
<speed>4.080000</speed>
</trkpt>
<trkpt lat="55.891884" lon="26.506365">
<ele>89.338928</ele>
<time>2010-07-18T14:11:57Z</time>
<desc>lat.=55.891884, lon.=26.506365, Alt.=89.338928m. Speed=14.868000m/h.</desc>
<speed>4.130000</speed>
</trkpt>
<trkpt lat="55.891872" lon="26.506437">
<ele>89.801819</ele>
<time>2010-07-18T14:11:58Z</time>
<desc>lat.=55.891872, lon.=26.506437, Alt.=89.801819m. Speed=14.400000m/h.</desc>
<speed>4.000000</speed>
</trkpt>
<trkpt lat="55.891869" lon="26.506498">
<ele>89.780334</ele>
<time>2010-07-18T14:11:59Z</time>
<desc>lat.=55.891869, lon.=26.506498, Alt.=89.780334m. Speed=13.536000m/h.</desc>
<speed>3.760000</speed>
</trkpt>
<trkpt lat="55.891872" lon="26.506557">
<ele>89.788147</ele>
<time>2010-07-18T14:12:00Z</time>
<desc>lat.=55.891872, lon.=26.506557, Alt.=89.788147m. Speed=14.256000m/h.</desc>
<speed>3.960000</speed>
</trkpt>
<trkpt lat="55.891888" lon="26.506632">
<ele>89.506897</ele>
<time>2010-07-18T14:12:01Z</time>
<desc>lat.=55.891888, lon.=26.506632, Alt.=89.506897m. Speed=16.992001m/h.</desc>
<speed>4.720000</speed>
</trkpt>
<trkpt lat="55.891903" lon="26.506702">
<ele>89.555725</ele>
<time>2010-07-18T14:12:02Z</time>
<desc>lat.=55.891903, lon.=26.506702, Alt.=89.555725m. Speed=14.688000m/h.</desc>
<speed>4.080000</speed>
</trkpt>
<trkpt lat="55.891918" lon="26.506767">
<ele>89.467834</ele>
<time>2010-07-18T14:12:03Z</time>
<desc>lat.=55.891918, lon.=26.506767, Alt.=89.467834m. Speed=16.164000m/h.</desc>
<speed>4.490000</speed>
</trkpt>
<trkpt lat="55.891937" lon="26.506824">
<ele>89.463928</ele>
<time>2010-07-18T14:12:04Z</time>
<desc>lat.=55.891937, lon.=26.506824, Alt.=89.463928m. Speed=16.559999m/h.</desc>
<speed>4.600000</speed>
</trkpt>
<trkpt lat="55.891960" lon="26.506893">
<ele>89.743225</ele>
<time>2010-07-18T14:12:05Z</time>
<desc>lat.=55.891960, lon.=26.506893, Alt.=89.743225m. Speed=13.896000m/h.</desc>
<speed>3.860000</speed>
</trkpt>
<trkpt lat="55.891979" lon="26.506947">
<ele>89.819397</ele>
<time>2010-07-18T14:12:06Z</time>
<desc>lat.=55.891979, lon.=26.506947, Alt.=89.819397m. Speed=12.888000m/h.</desc>
<speed>3.580000</speed>
</trkpt>
<trkpt lat="55.891998" lon="26.507008">
<ele>90.047913</ele>
<time>2010-07-18T14:12:07Z</time>
<desc>lat.=55.891998, lon.=26.507008, Alt.=90.047913m. Speed=15.372000m/h.</desc>
<speed>4.270000</speed>
</trkpt>
<trkpt lat="55.892017" lon="26.507063">
<ele>89.719788</ele>
<time>2010-07-18T14:12:08Z</time>
<desc>lat.=55.892017, lon.=26.507063, Alt.=89.719788m. Speed=15.840000m/h.</desc>
<speed>4.400000</speed>
</trkpt>
<trkpt lat="55.892040" lon="26.507120">
<ele>90.086975</ele>
<time>2010-07-18T14:12:09Z</time>
<desc>lat.=55.892040, lon.=26.507120, Alt.=90.086975m. Speed=16.740000m/h.</desc>
<speed>4.650000</speed>
</trkpt>
<trkpt lat="55.892067" lon="26.507187">
<ele>90.165100</ele>
<time>2010-07-18T14:12:10Z</time>
<desc>lat.=55.892067, lon.=26.507187, Alt.=90.165100m. Speed=17.639999m/h.</desc>
<speed>4.900000</speed>
</trkpt>
<trkpt lat="55.892086" lon="26.507257">
<ele>90.616272</ele>
<time>2010-07-18T14:12:11Z</time>
<desc>lat.=55.892086, lon.=26.507257, Alt.=90.616272m. Speed=15.732000m/h.</desc>
<speed>4.370000</speed>
</trkpt>
<trkpt lat="55.892101" lon="26.507309">
<ele>91.272522</ele>
<time>2010-07-18T14:12:12Z</time>
<desc>lat.=55.892101, lon.=26.507309, Alt.=91.272522m. Speed=15.048000m/h.</desc>
<speed>4.180000</speed>
</trkpt>
<trkpt lat="55.892128" lon="26.507366">
<ele>91.803772</ele>
<time>2010-07-18T14:12:13Z</time>
<desc>lat.=55.892128, lon.=26.507366, Alt.=91.803772m. Speed=15.732000m/h.</desc>
<speed>4.370000</speed>
</trkpt>
<trkpt lat="55.892143" lon="26.507421">
<ele>91.954163</ele>
<time>2010-07-18T14:12:14Z</time>
<desc>lat.=55.892143, lon.=26.507421, Alt.=91.954163m. Speed=14.580000m/h.</desc>
<speed>4.050000</speed>
</trkpt>
<trkpt lat="55.892159" lon="26.507492">
<ele>92.167053</ele>
<time>2010-07-18T14:12:15Z</time>
<desc>lat.=55.892159, lon.=26.507492, Alt.=92.167053m. Speed=14.580000m/h.</desc>
<speed>4.050000</speed>
</trkpt>
<trkpt lat="55.892185" lon="26.507563">
<ele>92.108459</ele>
<time>2010-07-18T14:12:16Z</time>
<desc>lat.=55.892185, lon.=26.507563, Alt.=92.108459m. Speed=15.732000m/h.</desc>
<speed>4.370000</speed>
</trkpt>
<trkpt lat="55.892208" lon="26.507629">
<ele>92.096741</ele>
<time>2010-07-18T14:12:17Z</time>
<desc>lat.=55.892208, lon.=26.507629, Alt.=92.096741m. Speed=15.264000m/h.</desc>
<speed>4.240000</speed>
</trkpt>
<trkpt lat="55.892227" lon="26.507683">
<ele>92.167053</ele>
<time>2010-07-18T14:12:18Z</time>
<desc>lat.=55.892227, lon.=26.507683, Alt.=92.167053m. Speed=12.996000m/h.</desc>
<speed>3.610000</speed>
</trkpt>
<trkpt lat="55.892242" lon="26.507736">
<ele>92.333069</ele>
<time>2010-07-18T14:12:19Z</time>
<desc>lat.=55.892242, lon.=26.507736, Alt.=92.333069m. Speed=13.608000m/h.</desc>
<speed>3.780000</speed>
</trkpt>
<trkpt lat="55.892262" lon="26.507797">
<ele>92.389709</ele>
<time>2010-07-18T14:12:20Z</time>
<desc>lat.=55.892262, lon.=26.507797, Alt.=92.389709m. Speed=16.020000m/h.</desc>
<speed>4.450000</speed>
</trkpt>
<trkpt lat="55.892281" lon="26.507866">
<ele>92.465881</ele>
<time>2010-07-18T14:12:21Z</time>
<desc>lat.=55.892281, lon.=26.507866, Alt.=92.465881m. Speed=16.740000m/h.</desc>
<speed>4.650000</speed>
</trkpt>
<trkpt lat="55.892303" lon="26.507940">
<ele>92.536194</ele>
<time>2010-07-18T14:12:22Z</time>
<desc>lat.=55.892303, lon.=26.507940, Alt.=92.536194m. Speed=19.476000m/h.</desc>
<speed>5.410000</speed>
</trkpt>
<trkpt lat="55.892330" lon="26.508038">
<ele>93.295959</ele>
<time>2010-07-18T14:12:23Z</time>
<desc>lat.=55.892330, lon.=26.508038, Alt.=93.295959m. Speed=18.576000m/h.</desc>
<speed>5.160000</speed>
</trkpt>
<trkpt lat="55.892349" lon="26.508114">
<ele>93.247131</ele>
<time>2010-07-18T14:12:24Z</time>
<desc>lat.=55.892349, lon.=26.508114, Alt.=93.247131m. Speed=17.316000m/h.</desc>
<speed>4.810000</speed>
</trkpt>
<trkpt lat="55.892365" lon="26.508179">
<ele>93.161194</ele>
<time>2010-07-18T14:12:25Z</time>
<desc>lat.=55.892365, lon.=26.508179, Alt.=93.161194m. Speed=14.652000m/h.</desc>
<speed>4.070000</speed>
</trkpt>
<trkpt lat="55.892380" lon="26.508238">
<ele>93.161194</ele>
<time>2010-07-18T14:12:26Z</time>
<desc>lat.=55.892380, lon.=26.508238, Alt.=93.161194m. Speed=16.128000m/h.</desc>
<speed>4.480000</speed>
</trkpt>
<trkpt lat="55.892403" lon="26.508314">
<ele>93.211975</ele>
<time>2010-07-18T14:12:27Z</time>
<desc>lat.=55.892403, lon.=26.508314, Alt.=93.211975m. Speed=17.459999m/h.</desc>
<speed>4.850000</speed>
</trkpt>
<trkpt lat="55.892422" lon="26.508387">
<ele>93.126038</ele>
<time>2010-07-18T14:12:28Z</time>
<desc>lat.=55.892422, lon.=26.508387, Alt.=93.126038m. Speed=17.676001m/h.</desc>
<speed>4.910000</speed>
</trkpt>
<trkpt lat="55.892448" lon="26.508465">
<ele>92.657288</ele>
<time>2010-07-18T14:12:29Z</time>
<desc>lat.=55.892448, lon.=26.508465, Alt.=92.657288m. Speed=17.496000m/h.</desc>
<speed>4.860000</speed>
</trkpt>
<trkpt lat="55.892479" lon="26.508545">
<ele>92.260803</ele>
<time>2010-07-18T14:12:30Z</time>
<desc>lat.=55.892479, lon.=26.508545, Alt.=92.260803m. Speed=18.000000m/h.</desc>
<speed>5.000000</speed>
</trkpt>
<trkpt lat="55.892506" lon="26.508614">
<ele>92.231506</ele>
<time>2010-07-18T14:12:31Z</time>
<desc>lat.=55.892506, lon.=26.508614, Alt.=92.231506m. Speed=15.876000m/h.</desc>
<speed>4.410000</speed>
</trkpt>
<trkpt lat="55.892529" lon="26.508671">
<ele>92.485413</ele>
<time>2010-07-18T14:12:32Z</time>
<desc>lat.=55.892529, lon.=26.508671, Alt.=92.485413m. Speed=15.156000m/h.</desc>
<speed>4.210000</speed>
</trkpt>
<trkpt lat="55.892548" lon="26.508722">
<ele>93.126038</ele>
<time>2010-07-18T14:12:33Z</time>
<desc>lat.=55.892548, lon.=26.508722, Alt.=93.126038m. Speed=13.896000m/h.</desc>
<speed>3.860000</speed>
</trkpt>
<trkpt lat="55.892567" lon="26.508776">
<ele>93.440491</ele>
<time>2010-07-18T14:12:34Z</time>
<desc>lat.=55.892567, lon.=26.508776, Alt.=93.440491m. Speed=14.580000m/h.</desc>
<speed>4.050000</speed>
</trkpt>
<trkpt lat="55.892590" lon="26.508844">
<ele>93.840881</ele>
<time>2010-07-18T14:12:35Z</time>
<desc>lat.=55.892590, lon.=26.508844, Alt.=93.840881m. Speed=15.408000m/h.</desc>
<speed>4.280000</speed>
</trkpt>
<trkpt lat="55.892601" lon="26.508915">
<ele>94.243225</ele>
<time>2010-07-18T14:12:36Z</time>
<desc>lat.=55.892601, lon.=26.508915, Alt.=94.243225m. Speed=14.976000m/h.</desc>
<speed>4.160000</speed>
</trkpt>
<trkpt lat="55.892624" lon="26.509012">
<ele>96.639709</ele>
<time>2010-07-18T14:12:37Z</time>
<desc>lat.=55.892624, lon.=26.509012, Alt.=96.639709m. Speed=16.848000m/h.</desc>
<speed>4.680000</speed>
</trkpt>
<trkpt lat="55.892643" lon="26.509100">
<ele>97.239319</ele>
<time>2010-07-18T14:12:38Z</time>
<desc>lat.=55.892643, lon.=26.509100, Alt.=97.239319m. Speed=16.920000m/h.</desc>
<speed>4.700000</speed>
</trkpt>
<trkpt lat="55.892662" lon="26.509195">
<ele>98.581116</ele>
<time>2010-07-18T14:12:39Z</time>
<desc>lat.=55.892662, lon.=26.509195, Alt.=98.581116m. Speed=17.747999m/h.</desc>
<speed>4.930000</speed>
</trkpt>
<trkpt lat="55.892681" lon="26.509272">
<ele>98.383850</ele>
<time>2010-07-18T14:12:40Z</time>
<desc>lat.=55.892681, lon.=26.509272, Alt.=98.383850m. Speed=13.752000m/h.</desc>
<speed>3.820000</speed>
</trkpt>
<trkpt lat="55.892696" lon="26.509367">
<ele>98.008850</ele>
<time>2010-07-18T14:12:41Z</time>
<desc>lat.=55.892696, lon.=26.509367, Alt.=98.008850m. Speed=16.992001m/h.</desc>
<speed>4.720000</speed>
</trkpt>
<trkpt lat="55.892704" lon="26.509441">
<ele>97.395569</ele>
<time>2010-07-18T14:12:42Z</time>
<desc>lat.=55.892704, lon.=26.509441, Alt.=97.395569m. Speed=14.868000m/h.</desc>
<speed>4.130000</speed>
</trkpt>
<trkpt lat="55.892715" lon="26.509512">
<ele>97.331116</ele>
<time>2010-07-18T14:12:43Z</time>
<desc>lat.=55.892715, lon.=26.509512, Alt.=97.331116m. Speed=15.372000m/h.</desc>
<speed>4.270000</speed>
</trkpt>
<trkpt lat="55.892731" lon="26.509590">
<ele>97.477600</ele>
<time>2010-07-18T14:12:44Z</time>
<desc>lat.=55.892731, lon.=26.509590, Alt.=97.477600m. Speed=16.236000m/h.</desc>
<speed>4.510000</speed>
</trkpt>
<trkpt lat="55.892742" lon="26.509663">
<ele>97.061584</ele>
<time>2010-07-18T14:12:45Z</time>
<desc>lat.=55.892742, lon.=26.509663, Alt.=97.061584m. Speed=16.559999m/h.</desc>
<speed>4.600000</speed>
</trkpt>
<trkpt lat="55.892750" lon="26.509739">
<ele>95.967834</ele>
<time>2010-07-18T14:12:46Z</time>
<desc>lat.=55.892750, lon.=26.509739, Alt.=95.967834m. Speed=16.955999m/h.</desc>
<speed>4.710000</speed>
</trkpt>
<trkpt lat="55.892761" lon="26.509811">
<ele>96.366272</ele>
<time>2010-07-18T14:12:47Z</time>
<desc>lat.=55.892761, lon.=26.509811, Alt.=96.366272m. Speed=16.524000m/h.</desc>
<speed>4.590000</speed>
</trkpt>
<trkpt lat="55.892769" lon="26.509895">
<ele>95.856506</ele>
<time>2010-07-18T14:12:48Z</time>
<desc>lat.=55.892769, lon.=26.509895, Alt.=95.856506m. Speed=18.827999m/h.</desc>
<speed>5.230000</speed>
</trkpt>
<trkpt lat="55.892773" lon="26.509989">
<ele>94.211975</ele>
<time>2010-07-18T14:12:49Z</time>
<desc>lat.=55.892773, lon.=26.509989, Alt.=94.211975m. Speed=19.764000m/h.</desc>
<speed>5.490000</speed>
</trkpt>
<trkpt lat="55.892780" lon="26.510075">
<ele>93.518616</ele>
<time>2010-07-18T14:12:50Z</time>
<desc>lat.=55.892780, lon.=26.510075, Alt.=93.518616m. Speed=19.728001m/h.</desc>
<speed>5.480000</speed>
</trkpt>
<trkpt lat="55.892784" lon="26.510172">
<ele>92.301819</ele>
<time>2010-07-18T14:12:51Z</time>
<desc>lat.=55.892784, lon.=26.510172, Alt.=92.301819m. Speed=20.808001m/h.</desc>
<speed>5.780000</speed>
</trkpt>
<trkpt lat="55.892803" lon="26.510290">
<ele>96.137756</ele>
<time>2010-07-18T14:12:52Z</time>
<desc>lat.=55.892803, lon.=26.510290, Alt.=96.137756m. Speed=22.068001m/h.</desc>
<speed>6.130000</speed>
</trkpt>
<trkpt lat="55.892818" lon="26.510395">
<ele>96.733459</ele>
<time>2010-07-18T14:12:53Z</time>
<desc>lat.=55.892818, lon.=26.510395, Alt.=96.733459m. Speed=23.219999m/h.</desc>
<speed>6.450000</speed>
</trkpt>
<trkpt lat="55.892838" lon="26.510496">
<ele>97.126038</ele>
<time>2010-07-18T14:12:54Z</time>
<desc>lat.=55.892838, lon.=26.510496, Alt.=97.126038m. Speed=22.464001m/h.</desc>
<speed>6.240000</speed>
</trkpt>
<trkpt lat="55.892860" lon="26.510601">
<ele>97.227600</ele>
<time>2010-07-18T14:12:55Z</time>
<desc>lat.=55.892860, lon.=26.510601, Alt.=97.227600m. Speed=22.104000m/h.</desc>
<speed>6.140000</speed>
</trkpt>
<trkpt lat="55.892887" lon="26.510691">
<ele>97.366272</ele>
<time>2010-07-18T14:12:56Z</time>
<desc>lat.=55.892887, lon.=26.510691, Alt.=97.366272m. Speed=20.988001m/h.</desc>
<speed>5.830000</speed>
</trkpt>
<trkpt lat="55.892910" lon="26.510759">
<ele>97.743225</ele>
<time>2010-07-18T14:12:57Z</time>
<desc>lat.=55.892910, lon.=26.510759, Alt.=97.743225m. Speed=19.944000m/h.</desc>
<speed>5.540000</speed>
</trkpt>
<trkpt lat="55.892937" lon="26.510826">
<ele>97.518616</ele>
<time>2010-07-18T14:12:58Z</time>
<desc>lat.=55.892937, lon.=26.510826, Alt.=97.518616m. Speed=18.143999m/h.</desc>
<speed>5.040000</speed>
</trkpt>
<trkpt lat="55.892967" lon="26.510883">
<ele>97.547913</ele>
<time>2010-07-18T14:12:59Z</time>
<desc>lat.=55.892967, lon.=26.510883, Alt.=97.547913m. Speed=17.892000m/h.</desc>
<speed>4.970000</speed>
</trkpt>
<trkpt lat="55.892994" lon="26.510942">
<ele>98.016663</ele>
<time>2010-07-18T14:13:00Z</time>
<desc>lat.=55.892994, lon.=26.510942, Alt.=98.016663m. Speed=19.080000m/h.</desc>
<speed>5.300000</speed>
</trkpt>
<trkpt lat="55.893021" lon="26.511011">
<ele>98.001038</ele>
<time>2010-07-18T14:13:01Z</time>
<desc>lat.=55.893021, lon.=26.511011, Alt.=98.001038m. Speed=18.648001m/h.</desc>
<speed>5.180000</speed>
</trkpt>
<trkpt lat="55.893044" lon="26.511076">
<ele>97.022522</ele>
<time>2010-07-18T14:13:02Z</time>
<desc>lat.=55.893044, lon.=26.511076, Alt.=97.022522m. Speed=17.351999m/h.</desc>
<speed>4.820000</speed>
</trkpt>
<trkpt lat="55.893066" lon="26.511133">
<ele>96.842834</ele>
<time>2010-07-18T14:13:03Z</time>
<desc>lat.=55.893066, lon.=26.511133, Alt.=96.842834m. Speed=17.028000m/h.</desc>
<speed>4.730000</speed>
</trkpt>
<trkpt lat="55.893085" lon="26.511194">
<ele>96.848694</ele>
<time>2010-07-18T14:13:04Z</time>
<desc>lat.=55.893085, lon.=26.511194, Alt.=96.848694m. Speed=15.876000m/h.</desc>
<speed>4.410000</speed>
</trkpt>
<trkpt lat="55.893101" lon="26.511251">
<ele>96.641663</ele>
<time>2010-07-18T14:13:05Z</time>
<desc>lat.=55.893101, lon.=26.511251, Alt.=96.641663m. Speed=14.580000m/h.</desc>
<speed>4.050000</speed>
</trkpt>
<trkpt lat="55.893116" lon="26.511303">
<ele>96.159241</ele>
<time>2010-07-18T14:13:06Z</time>
<desc>lat.=55.893116, lon.=26.511303, Alt.=96.159241m. Speed=13.896000m/h.</desc>
<speed>3.860000</speed>
</trkpt>
<trkpt lat="55.893135" lon="26.511362">
<ele>96.042053</ele>
<time>2010-07-18T14:13:07Z</time>
<desc>lat.=55.893135, lon.=26.511362, Alt.=96.042053m. Speed=13.608000m/h.</desc>
<speed>3.780000</speed>
</trkpt>
<trkpt lat="55.893150" lon="26.511425">
<ele>95.917053</ele>
<time>2010-07-18T14:13:08Z</time>
<desc>lat.=55.893150, lon.=26.511425, Alt.=95.917053m. Speed=15.480000m/h.</desc>
<speed>4.300000</speed>
</trkpt>
<trkpt lat="55.893162" lon="26.511490">
<ele>96.100647</ele>
<time>2010-07-18T14:13:09Z</time>
<desc>lat.=55.893162, lon.=26.511490, Alt.=96.100647m. Speed=15.264000m/h.</desc>
<speed>4.240000</speed>
</trkpt>
<trkpt lat="55.893169" lon="26.511562">
<ele>95.854553</ele>
<time>2010-07-18T14:13:10Z</time>
<desc>lat.=55.893169, lon.=26.511562, Alt.=95.854553m. Speed=16.308001m/h.</desc>
<speed>4.530000</speed>
</trkpt>
<trkpt lat="55.893181" lon="26.511637">
<ele>95.809631</ele>
<time>2010-07-18T14:13:11Z</time>
<desc>lat.=55.893181, lon.=26.511637, Alt.=95.809631m. Speed=17.243999m/h.</desc>
<speed>4.790000</speed>
</trkpt>
<trkpt lat="55.893192" lon="26.511711">
<ele>95.612366</ele>
<time>2010-07-18T14:13:12Z</time>
<desc>lat.=55.893192, lon.=26.511711, Alt.=95.612366m. Speed=16.596001m/h.</desc>
<speed>4.610000</speed>
</trkpt>
<trkpt lat="55.893196" lon="26.511787">
<ele>95.159241</ele>
<time>2010-07-18T14:13:13Z</time>
<desc>lat.=55.893196, lon.=26.511787, Alt.=95.159241m. Speed=17.747999m/h.</desc>
<speed>4.930000</speed>
</trkpt>
<trkpt lat="55.893204" lon="26.511864">
<ele>94.901428</ele>
<time>2010-07-18T14:13:14Z</time>
<desc>lat.=55.893204, lon.=26.511864, Alt.=94.901428m. Speed=17.892000m/h.</desc>
<speed>4.970000</speed>
</trkpt>
<trkpt lat="55.893211" lon="26.511940">
<ele>95.174866</ele>
<time>2010-07-18T14:13:15Z</time>
<desc>lat.=55.893211, lon.=26.511940, Alt.=95.174866m. Speed=17.100000m/h.</desc>
<speed>4.750000</speed>
</trkpt>
<trkpt lat="55.893223" lon="26.512018">
<ele>95.514709</ele>
<time>2010-07-18T14:13:16Z</time>
<desc>lat.=55.893223, lon.=26.512018, Alt.=95.514709m. Speed=16.056000m/h.</desc>
<speed>4.460000</speed>
</trkpt>
<trkpt lat="55.893230" lon="26.512085">
<ele>95.657288</ele>
<time>2010-07-18T14:13:17Z</time>
<desc>lat.=55.893230, lon.=26.512085, Alt.=95.657288m. Speed=15.516000m/h.</desc>
<speed>4.310000</speed>
</trkpt>
<trkpt lat="55.893242" lon="26.512150">
<ele>95.502991</ele>
<time>2010-07-18T14:13:18Z</time>
<desc>lat.=55.893242, lon.=26.512150, Alt.=95.502991m. Speed=15.336000m/h.</desc>
<speed>4.260000</speed>
</trkpt>
<trkpt lat="55.893253" lon="26.512215">
<ele>95.532288</ele>
<time>2010-07-18T14:13:19Z</time>
<desc>lat.=55.893253, lon.=26.512215, Alt.=95.532288m. Speed=15.516000m/h.</desc>
<speed>4.310000</speed>
</trkpt>
<trkpt lat="55.893269" lon="26.512276">
<ele>95.165100</ele>
<time>2010-07-18T14:13:20Z</time>
<desc>lat.=55.893269, lon.=26.512276, Alt.=95.165100m. Speed=16.344000m/h.</desc>
<speed>4.540000</speed>
</trkpt>
<trkpt lat="55.893288" lon="26.512339">
<ele>94.930725</ele>
<time>2010-07-18T14:13:21Z</time>
<desc>lat.=55.893288, lon.=26.512339, Alt.=94.930725m. Speed=17.459999m/h.</desc>
<speed>4.850000</speed>
</trkpt>
<trkpt lat="55.893314" lon="26.512402">
<ele>94.467834</ele>
<time>2010-07-18T14:13:22Z</time>
<desc>lat.=55.893314, lon.=26.512402, Alt.=94.467834m. Speed=17.820000m/h.</desc>
<speed>4.950000</speed>
</trkpt>
<trkpt lat="55.893337" lon="26.512465">
<ele>94.014709</ele>
<time>2010-07-18T14:13:23Z</time>
<desc>lat.=55.893337, lon.=26.512465, Alt.=94.014709m. Speed=17.496000m/h.</desc>
<speed>4.860000</speed>
</trkpt>
<trkpt lat="55.893360" lon="26.512522">
<ele>92.975647</ele>
<time>2010-07-18T14:13:24Z</time>
<desc>lat.=55.893360, lon.=26.512522, Alt.=92.975647m. Speed=15.228000m/h.</desc>
<speed>4.230000</speed>
</trkpt>
<trkpt lat="55.893383" lon="26.512577">
<ele>92.262756</ele>
<time>2010-07-18T14:13:25Z</time>
<desc>lat.=55.893383, lon.=26.512577, Alt.=92.262756m. Speed=15.012000m/h.</desc>
<speed>4.170000</speed>
</trkpt>
<trkpt lat="55.893402" lon="26.512629">
<ele>91.829163</ele>
<time>2010-07-18T14:13:26Z</time>
<desc>lat.=55.893402, lon.=26.512629, Alt.=91.829163m. Speed=13.860000m/h.</desc>
<speed>3.850000</speed>
</trkpt>
<trkpt lat="55.893421" lon="26.512682">
<ele>91.461975</ele>
<time>2010-07-18T14:13:27Z</time>
<desc>lat.=55.893421, lon.=26.512682, Alt.=91.461975m. Speed=15.048000m/h.</desc>
<speed>4.180000</speed>
</trkpt>
<trkpt lat="55.893444" lon="26.512743">
<ele>91.110413</ele>
<time>2010-07-18T14:13:28Z</time>
<desc>lat.=55.893444, lon.=26.512743, Alt.=91.110413m. Speed=15.912000m/h.</desc>
<speed>4.420000</speed>
</trkpt>
<trkpt lat="55.893467" lon="26.512806">
<ele>91.602600</ele>
<time>2010-07-18T14:13:29Z</time>
<desc>lat.=55.893467, lon.=26.512806, Alt.=91.602600m. Speed=17.351999m/h.</desc>
<speed>4.820000</speed>
</trkpt>
<trkpt lat="55.893497" lon="26.512865">
<ele>91.452209</ele>
<time>2010-07-18T14:13:30Z</time>
<desc>lat.=55.893497, lon.=26.512865, Alt.=91.452209m. Speed=17.784000m/h.</desc>
<speed>4.940000</speed>
</trkpt>
<trkpt lat="55.893528" lon="26.512922">
<ele>91.944397</ele>
<time>2010-07-18T14:13:31Z</time>
<desc>lat.=55.893528, lon.=26.512922, Alt.=91.944397m. Speed=18.000000m/h.</desc>
<speed>5.000000</speed>
</trkpt>
<trkpt lat="55.893555" lon="26.512983">
<ele>91.831116</ele>
<time>2010-07-18T14:13:32Z</time>
<desc>lat.=55.893555, lon.=26.512983, Alt.=91.831116m. Speed=17.604000m/h.</desc>
<speed>4.890000</speed>
</trkpt>
<trkpt lat="55.893581" lon="26.513042">
<ele>92.213928</ele>
<time>2010-07-18T14:13:33Z</time>
<desc>lat.=55.893581, lon.=26.513042, Alt.=92.213928m. Speed=18.396000m/h.</desc>
<speed>5.110000</speed>
</trkpt>
<trkpt lat="55.893608" lon="26.513109">
<ele>92.344788</ele>
<time>2010-07-18T14:13:34Z</time>
<desc>lat.=55.893608, lon.=26.513109, Alt.=92.344788m. Speed=19.007999m/h.</desc>
<speed>5.280000</speed>
</trkpt>
<trkpt lat="55.893635" lon="26.513182">
<ele>92.762756</ele>
<time>2010-07-18T14:13:35Z</time>
<desc>lat.=55.893635, lon.=26.513182, Alt.=92.762756m. Speed=19.044001m/h.</desc>
<speed>5.290000</speed>
</trkpt>
<trkpt lat="55.893658" lon="26.513248">
<ele>92.958069</ele>
<time>2010-07-18T14:13:36Z</time>
<desc>lat.=55.893658, lon.=26.513248, Alt.=92.958069m. Speed=17.424000m/h.</desc>
<speed>4.840000</speed>
</trkpt>
<trkpt lat="55.893688" lon="26.513308">
<ele>93.473694</ele>
<time>2010-07-18T14:13:37Z</time>
<desc>lat.=55.893688, lon.=26.513308, Alt.=93.473694m. Speed=18.072001m/h.</desc>
<speed>5.020000</speed>
</trkpt>
<trkpt lat="55.893719" lon="26.513357">
<ele>93.737366</ele>
<time>2010-07-18T14:13:38Z</time>
<desc>lat.=55.893719, lon.=26.513357, Alt.=93.737366m. Speed=14.508000m/h.</desc>
<speed>4.030000</speed>
</trkpt>
<trkpt lat="55.893745" lon="26.513390">
<ele>93.758850</ele>
<time>2010-07-18T14:13:39Z</time>
<desc>lat.=55.893745, lon.=26.513390, Alt.=93.758850m. Speed=12.384000m/h.</desc>
<speed>3.440000</speed>
</trkpt>
<trkpt lat="55.893776" lon="26.513401">
<ele>93.727600</ele>
<time>2010-07-18T14:13:40Z</time>
<desc>lat.=55.893776, lon.=26.513401, Alt.=93.727600m. Speed=15.408000m/h.</desc>
<speed>4.280000</speed>
</trkpt>
<trkpt lat="55.893806" lon="26.513401">
<ele>93.323303</ele>
<time>2010-07-18T14:13:41Z</time>
<desc>lat.=55.893806, lon.=26.513401, Alt.=93.323303m. Speed=12.456000m/h.</desc>
<speed>3.460000</speed>
</trkpt>
<trkpt lat="55.893829" lon="26.513393">
<ele>93.186584</ele>
<time>2010-07-18T14:13:42Z</time>
<desc>lat.=55.893829, lon.=26.513393, Alt.=93.186584m. Speed=6.804000m/h.</desc>
<speed>1.890000</speed>
</trkpt>
<trkpt lat="55.893845" lon="26.513401">
<ele>92.924866</ele>
<time>2010-07-18T14:13:43Z</time>
<desc>lat.=55.893845, lon.=26.513401, Alt.=92.924866m. Speed=7.308000m/h.</desc>
<speed>2.030000</speed>
</trkpt>
<trkpt lat="55.893860" lon="26.513418">
<ele>92.922913</ele>
<time>2010-07-18T14:13:44Z</time>
<desc>lat.=55.893860, lon.=26.513418, Alt.=92.922913m. Speed=9.828000m/h.</desc>
<speed>2.730000</speed>
</trkpt>
<trkpt lat="55.893883" lon="26.513449">
<ele>93.499084</ele>
<time>2010-07-18T14:13:45Z</time>
<desc>lat.=55.893883, lon.=26.513449, Alt.=93.499084m. Speed=12.924000m/h.</desc>
<speed>3.590000</speed>
</trkpt>
<trkpt lat="55.893913" lon="26.513489">
<ele>93.774475</ele>
<time>2010-07-18T14:13:46Z</time>
<desc>lat.=55.893913, lon.=26.513489, Alt.=93.774475m. Speed=15.336000m/h.</desc>
<speed>4.260000</speed>
</trkpt>
<trkpt lat="55.893940" lon="26.513536">
<ele>93.856506</ele>
<time>2010-07-18T14:13:47Z</time>
<desc>lat.=55.893940, lon.=26.513536, Alt.=93.856506m. Speed=15.552000m/h.</desc>
<speed>4.320000</speed>
</trkpt>
<trkpt lat="55.893974" lon="26.513588">
<ele>94.059631</ele>
<time>2010-07-18T14:13:48Z</time>
<desc>lat.=55.893974, lon.=26.513588, Alt.=94.059631m. Speed=18.540001m/h.</desc>
<speed>5.150000</speed>
</trkpt>
<trkpt lat="55.894001" lon="26.513645">
<ele>94.073303</ele>
<time>2010-07-18T14:13:49Z</time>
<desc>lat.=55.894001, lon.=26.513645, Alt.=94.073303m. Speed=17.208000m/h.</desc>
<speed>4.780000</speed>
</trkpt>
<trkpt lat="55.894024" lon="26.513702">
<ele>93.844788</ele>
<time>2010-07-18T14:13:50Z</time>
<desc>lat.=55.894024, lon.=26.513702, Alt.=93.844788m. Speed=15.984000m/h.</desc>
<speed>4.440000</speed>
</trkpt>
<trkpt lat="55.894047" lon="26.513760">
<ele>93.598694</ele>
<time>2010-07-18T14:13:51Z</time>
<desc>lat.=55.894047, lon.=26.513760, Alt.=93.598694m. Speed=15.444000m/h.</desc>
<speed>4.290000</speed>
</trkpt>
<trkpt lat="55.894070" lon="26.513811">
<ele>93.364319</ele>
<time>2010-07-18T14:13:52Z</time>
<desc>lat.=55.894070, lon.=26.513811, Alt.=93.364319m. Speed=15.444000m/h.</desc>
<speed>4.290000</speed>
</trkpt>
<trkpt lat="55.894096" lon="26.513863">
<ele>93.376038</ele>
<time>2010-07-18T14:13:53Z</time>
<desc>lat.=55.894096, lon.=26.513863, Alt.=93.376038m. Speed=15.516000m/h.</desc>
<speed>4.310000</speed>
</trkpt>
<trkpt lat="55.894127" lon="26.513908">
<ele>94.073303</ele>
<time>2010-07-18T14:13:54Z</time>
<desc>lat.=55.894127, lon.=26.513908, Alt.=94.073303m. Speed=16.164000m/h.</desc>
<speed>4.490000</speed>
</trkpt>
<trkpt lat="55.894150" lon="26.513962">
<ele>94.114319</ele>
<time>2010-07-18T14:13:55Z</time>
<desc>lat.=55.894150, lon.=26.513962, Alt.=94.114319m. Speed=15.768000m/h.</desc>
<speed>4.380000</speed>
</trkpt>
<trkpt lat="55.894176" lon="26.514017">
<ele>94.540100</ele>
<time>2010-07-18T14:13:56Z</time>
<desc>lat.=55.894176, lon.=26.514017, Alt.=94.540100m. Speed=16.344000m/h.</desc>
<speed>4.540000</speed>
</trkpt>
<trkpt lat="55.894203" lon="26.514076">
<ele>94.737366</ele>
<time>2010-07-18T14:13:57Z</time>
<desc>lat.=55.894203, lon.=26.514076, Alt.=94.737366m. Speed=16.308001m/h.</desc>
<speed>4.530000</speed>
</trkpt>
<trkpt lat="55.894226" lon="26.514133">
<ele>94.795959</ele>
<time>2010-07-18T14:13:58Z</time>
<desc>lat.=55.894226, lon.=26.514133, Alt.=94.795959m. Speed=16.020000m/h.</desc>
<speed>4.450000</speed>
</trkpt>
<trkpt lat="55.894249" lon="26.514194">
<ele>95.055725</ele>
<time>2010-07-18T14:13:59Z</time>
<desc>lat.=55.894249, lon.=26.514194, Alt.=95.055725m. Speed=16.955999m/h.</desc>
<speed>4.710000</speed>
</trkpt>
<trkpt lat="55.894272" lon="26.514250">
<ele>94.917053</ele>
<time>2010-07-18T14:14:00Z</time>
<desc>lat.=55.894272, lon.=26.514250, Alt.=94.917053m. Speed=16.524000m/h.</desc>
<speed>4.590000</speed>
</trkpt>
<trkpt lat="55.894299" lon="26.514305">
<ele>94.852600</ele>
<time>2010-07-18T14:14:01Z</time>
<desc>lat.=55.894299, lon.=26.514305, Alt.=94.852600m. Speed=16.848000m/h.</desc>
<speed>4.680000</speed>
</trkpt>
<trkpt lat="55.894325" lon="26.514364">
<ele>94.948303</ele>
<time>2010-07-18T14:14:02Z</time>
<desc>lat.=55.894325, lon.=26.514364, Alt.=94.948303m. Speed=17.100000m/h.</desc>
<speed>4.750000</speed>
</trkpt>
<trkpt lat="55.894356" lon="26.514427">
<ele>95.002991</ele>
<time>2010-07-18T14:14:03Z</time>
<desc>lat.=55.894356, lon.=26.514427, Alt.=95.002991m. Speed=18.108000m/h.</desc>
<speed>5.030000</speed>
</trkpt>
<trkpt lat="55.894379" lon="26.514486">
<ele>95.116272</ele>
<time>2010-07-18T14:14:04Z</time>
<desc>lat.=55.894379, lon.=26.514486, Alt.=95.116272m. Speed=16.020000m/h.</desc>
<speed>4.450000</speed>
</trkpt>
<trkpt lat="55.894394" lon="26.514540">
<ele>95.335022</ele>
<time>2010-07-18T14:14:05Z</time>
<desc>lat.=55.894394, lon.=26.514540, Alt.=95.335022m. Speed=14.436000m/h.</desc>
<speed>4.010000</speed>
</trkpt>
<trkpt lat="55.894413" lon="26.514589">
<ele>95.657288</ele>
<time>2010-07-18T14:14:06Z</time>
<desc>lat.=55.894413, lon.=26.514589, Alt.=95.657288m. Speed=13.536000m/h.</desc>
<speed>3.760000</speed>
</trkpt>
<trkpt lat="55.894424" lon="26.514635">
<ele>95.710022</ele>
<time>2010-07-18T14:14:07Z</time>
<desc>lat.=55.894424, lon.=26.514635, Alt.=95.710022m. Speed=12.960000m/h.</desc>
<speed>3.600000</speed>
</trkpt>
<trkpt lat="55.894440" lon="26.514677">
<ele>95.866272</ele>
<time>2010-07-18T14:14:08Z</time>
<desc>lat.=55.894440, lon.=26.514677, Alt.=95.866272m. Speed=12.096000m/h.</desc>
<speed>3.360000</speed>
</trkpt>
<trkpt lat="55.894459" lon="26.514717">
<ele>95.717834</ele>
<time>2010-07-18T14:14:09Z</time>
<desc>lat.=55.894459, lon.=26.514717, Alt.=95.717834m. Speed=12.996000m/h.</desc>
<speed>3.610000</speed>
</trkpt>
<trkpt lat="55.894478" lon="26.514765">
<ele>96.006897</ele>
<time>2010-07-18T14:14:10Z</time>
<desc>lat.=55.894478, lon.=26.514765, Alt.=96.006897m. Speed=14.184000m/h.</desc>
<speed>3.940000</speed>
</trkpt>
<trkpt lat="55.894501" lon="26.514818">
<ele>95.999084</ele>
<time>2010-07-18T14:14:11Z</time>
<desc>lat.=55.894501, lon.=26.514818, Alt.=95.999084m. Speed=14.976000m/h.</desc>
<speed>4.160000</speed>
</trkpt>
<trkpt lat="55.894524" lon="26.514872">
<ele>95.932678</ele>
<time>2010-07-18T14:14:12Z</time>
<desc>lat.=55.894524, lon.=26.514872, Alt.=95.932678m. Speed=16.236000m/h.</desc>
<speed>4.510000</speed>
</trkpt>
<trkpt lat="55.894543" lon="26.514927">
<ele>96.237366</ele>
<time>2010-07-18T14:14:13Z</time>
<desc>lat.=55.894543, lon.=26.514927, Alt.=96.237366m. Speed=14.400000m/h.</desc>
<speed>4.000000</speed>
</trkpt>
<trkpt lat="55.894566" lon="26.514990">
<ele>96.780334</ele>
<time>2010-07-18T14:14:14Z</time>
<desc>lat.=55.894566, lon.=26.514990, Alt.=96.780334m. Speed=15.732000m/h.</desc>
<speed>4.370000</speed>
</trkpt>
<trkpt lat="55.894592" lon="26.515053">
<ele>97.348694</ele>
<time>2010-07-18T14:14:15Z</time>
<desc>lat.=55.894592, lon.=26.515053, Alt.=97.348694m. Speed=16.848000m/h.</desc>
<speed>4.680000</speed>
</trkpt>
<trkpt lat="55.894615" lon="26.515112">
<ele>97.116272</ele>
<time>2010-07-18T14:14:16Z</time>
<desc>lat.=55.894615, lon.=26.515112, Alt.=97.116272m. Speed=16.740000m/h.</desc>
<speed>4.650000</speed>
</trkpt>
<trkpt lat="55.894642" lon="26.515169">
<ele>97.245178</ele>
<time>2010-07-18T14:14:17Z</time>
<desc>lat.=55.894642, lon.=26.515169, Alt.=97.245178m. Speed=16.667999m/h.</desc>
<speed>4.630000</speed>
</trkpt>
<trkpt lat="55.894669" lon="26.515224">
<ele>95.958069</ele>
<time>2010-07-18T14:14:18Z</time>
<desc>lat.=55.894669, lon.=26.515224, Alt.=95.958069m. Speed=16.452000m/h.</desc>
<speed>4.570000</speed>
</trkpt>
<trkpt lat="55.894691" lon="26.515284">
<ele>95.327209</ele>
<time>2010-07-18T14:14:19Z</time>
<desc>lat.=55.894691, lon.=26.515284, Alt.=95.327209m. Speed=16.452000m/h.</desc>
<speed>4.570000</speed>
</trkpt>
<trkpt lat="55.894718" lon="26.515343">
<ele>95.559631</ele>
<time>2010-07-18T14:14:20Z</time>
<desc>lat.=55.894718, lon.=26.515343, Alt.=95.559631m. Speed=17.136000m/h.</desc>
<speed>4.760000</speed>
</trkpt>
<trkpt lat="55.894745" lon="26.515404">
<ele>95.069397</ele>
<time>2010-07-18T14:14:21Z</time>
<desc>lat.=55.894745, lon.=26.515404, Alt.=95.069397m. Speed=18.035999m/h.</desc>
<speed>5.010000</speed>
</trkpt>
<trkpt lat="55.894775" lon="26.515467">
<ele>95.059631</ele>
<time>2010-07-18T14:14:22Z</time>
<desc>lat.=55.894775, lon.=26.515467, Alt.=95.059631m. Speed=18.827999m/h.</desc>
<speed>5.230000</speed>
</trkpt>
<trkpt lat="55.894806" lon="26.515535">
<ele>95.032288</ele>
<time>2010-07-18T14:14:23Z</time>
<desc>lat.=55.894806, lon.=26.515535, Alt.=95.032288m. Speed=19.368000m/h.</desc>
<speed>5.380000</speed>
</trkpt>
<trkpt lat="55.894833" lon="26.515602">
<ele>94.891663</ele>
<time>2010-07-18T14:14:24Z</time>
<desc>lat.=55.894833, lon.=26.515602, Alt.=94.891663m. Speed=19.332001m/h.</desc>
<speed>5.370000</speed>
</trkpt>
<trkpt lat="55.894859" lon="26.515669">
<ele>95.044006</ele>
<time>2010-07-18T14:14:25Z</time>
<desc>lat.=55.894859, lon.=26.515669, Alt.=95.044006m. Speed=19.080000m/h.</desc>
<speed>5.300000</speed>
</trkpt>
<trkpt lat="55.894886" lon="26.515736">
<ele>95.204163</ele>
<time>2010-07-18T14:14:26Z</time>
<desc>lat.=55.894886, lon.=26.515736, Alt.=95.204163m. Speed=18.612000m/h.</desc>
<speed>5.170000</speed>
</trkpt>
<trkpt lat="55.894909" lon="26.515799">
<ele>95.155334</ele>
<time>2010-07-18T14:14:27Z</time>
<desc>lat.=55.894909, lon.=26.515799, Alt.=95.155334m. Speed=18.252001m/h.</desc>
<speed>5.070000</speed>
</trkpt>
<trkpt lat="55.894939" lon="26.515865">
<ele>95.456116</ele>
<time>2010-07-18T14:14:28Z</time>
<desc>lat.=55.894939, lon.=26.515865, Alt.=95.456116m. Speed=18.072001m/h.</desc>
<speed>5.020000</speed>
</trkpt>
<trkpt lat="55.894962" lon="26.515930">
<ele>95.501038</ele>
<time>2010-07-18T14:14:29Z</time>
<desc>lat.=55.894962, lon.=26.515930, Alt.=95.501038m. Speed=18.684000m/h.</desc>
<speed>5.190000</speed>
</trkpt>
<trkpt lat="55.894989" lon="26.516003">
<ele>95.430725</ele>
<time>2010-07-18T14:14:30Z</time>
<desc>lat.=55.894989, lon.=26.516003, Alt.=95.430725m. Speed=18.180000m/h.</desc>
<speed>5.050000</speed>
</trkpt>
<trkpt lat="55.895008" lon="26.516066">
<ele>94.127991</ele>
<time>2010-07-18T14:14:31Z</time>
<desc>lat.=55.895008, lon.=26.516066, Alt.=94.127991m. Speed=17.136000m/h.</desc>
<speed>4.760000</speed>
</trkpt>
<trkpt lat="55.895027" lon="26.516132">
<ele>93.657288</ele>
<time>2010-07-18T14:14:32Z</time>
<desc>lat.=55.895027, lon.=26.516132, Alt.=93.657288m. Speed=17.676001m/h.</desc>
<speed>4.910000</speed>
</trkpt>
<trkpt lat="55.895050" lon="26.516203">
<ele>93.413147</ele>
<time>2010-07-18T14:14:33Z</time>
<desc>lat.=55.895050, lon.=26.516203, Alt.=93.413147m. Speed=17.136000m/h.</desc>
<speed>4.760000</speed>
</trkpt>
<trkpt lat="55.895069" lon="26.516272">
<ele>93.116272</ele>
<time>2010-07-18T14:14:34Z</time>
<desc>lat.=55.895069, lon.=26.516272, Alt.=93.116272m. Speed=17.063999m/h.</desc>
<speed>4.740000</speed>
</trkpt>
<trkpt lat="55.895088" lon="26.516342">
<ele>92.944397</ele>
<time>2010-07-18T14:14:35Z</time>
<desc>lat.=55.895088, lon.=26.516342, Alt.=92.944397m. Speed=17.063999m/h.</desc>
<speed>4.740000</speed>
</trkpt>
<trkpt lat="55.895111" lon="26.516409">
<ele>92.823303</ele>
<time>2010-07-18T14:14:36Z</time>
<desc>lat.=55.895111, lon.=26.516409, Alt.=92.823303m. Speed=17.676001m/h.</desc>
<speed>4.910000</speed>
</trkpt>
<trkpt lat="55.895130" lon="26.516479">
<ele>92.768616</ele>
<time>2010-07-18T14:14:37Z</time>
<desc>lat.=55.895130, lon.=26.516479, Alt.=92.768616m. Speed=18.000000m/h.</desc>
<speed>5.000000</speed>
</trkpt>
<trkpt lat="55.895145" lon="26.516562">
<ele>92.893616</ele>
<time>2010-07-18T14:14:38Z</time>
<desc>lat.=55.895145, lon.=26.516562, Alt.=92.893616m. Speed=18.216000m/h.</desc>
<speed>5.060000</speed>
</trkpt>
<trkpt lat="55.895161" lon="26.516634">
<ele>93.032288</ele>
<time>2010-07-18T14:14:39Z</time>
<desc>lat.=55.895161, lon.=26.516634, Alt.=93.032288m. Speed=17.856001m/h.</desc>
<speed>4.960000</speed>
</trkpt>
<trkpt lat="55.895176" lon="26.516708">
<ele>92.708069</ele>
<time>2010-07-18T14:14:40Z</time>
<desc>lat.=55.895176, lon.=26.516708, Alt.=92.708069m. Speed=17.892000m/h.</desc>
<speed>4.970000</speed>
</trkpt>
<trkpt lat="55.895195" lon="26.516785">
<ele>92.713928</ele>
<time>2010-07-18T14:14:41Z</time>
<desc>lat.=55.895195, lon.=26.516785, Alt.=92.713928m. Speed=17.820000m/h.</desc>
<speed>4.950000</speed>
</trkpt>
<trkpt lat="55.895214" lon="26.516865">
<ele>92.526428</ele>
<time>2010-07-18T14:14:42Z</time>
<desc>lat.=55.895214, lon.=26.516865, Alt.=92.526428m. Speed=18.431999m/h.</desc>
<speed>5.120000</speed>
</trkpt>
<trkpt lat="55.895229" lon="26.516939">
<ele>92.338928</ele>
<time>2010-07-18T14:14:43Z</time>
<desc>lat.=55.895229, lon.=26.516939, Alt.=92.338928m. Speed=17.784000m/h.</desc>
<speed>4.940000</speed>
</trkpt>
<trkpt lat="55.895252" lon="26.517008">
<ele>92.733459</ele>
<time>2010-07-18T14:14:44Z</time>
<desc>lat.=55.895252, lon.=26.517008, Alt.=92.733459m. Speed=15.912000m/h.</desc>
<speed>4.420000</speed>
</trkpt>
<trkpt lat="55.895267" lon="26.517069">
<ele>92.393616</ele>
<time>2010-07-18T14:14:45Z</time>
<desc>lat.=55.895267, lon.=26.517069, Alt.=92.393616m. Speed=14.868000m/h.</desc>
<speed>4.130000</speed>
</trkpt>
<trkpt lat="55.895279" lon="26.517130">
<ele>92.231506</ele>
<time>2010-07-18T14:14:46Z</time>
<desc>lat.=55.895279, lon.=26.517130, Alt.=92.231506m. Speed=14.256000m/h.</desc>
<speed>3.960000</speed>
</trkpt>
<trkpt lat="55.895290" lon="26.517187">
<ele>91.854553</ele>
<time>2010-07-18T14:14:47Z</time>
<desc>lat.=55.895290, lon.=26.517187, Alt.=91.854553m. Speed=14.004000m/h.</desc>
<speed>3.890000</speed>
</trkpt>
<trkpt lat="55.895302" lon="26.517246">
<ele>91.756897</ele>
<time>2010-07-18T14:14:48Z</time>
<desc>lat.=55.895302, lon.=26.517246, Alt.=91.756897m. Speed=14.256000m/h.</desc>
<speed>3.960000</speed>
</trkpt>
<trkpt lat="55.895317" lon="26.517311">
<ele>91.897522</ele>
<time>2010-07-18T14:14:49Z</time>
<desc>lat.=55.895317, lon.=26.517311, Alt.=91.897522m. Speed=15.300000m/h.</desc>
<speed>4.250000</speed>
</trkpt>
<trkpt lat="55.895332" lon="26.517378">
<ele>91.797913</ele>
<time>2010-07-18T14:14:50Z</time>
<desc>lat.=55.895332, lon.=26.517378, Alt.=91.797913m. Speed=15.840000m/h.</desc>
<speed>4.400000</speed>
</trkpt>
<trkpt lat="55.895348" lon="26.517450">
<ele>91.686584</ele>
<time>2010-07-18T14:14:51Z</time>
<desc>lat.=55.895348, lon.=26.517450, Alt.=91.686584m. Speed=16.704000m/h.</desc>
<speed>4.640000</speed>
</trkpt>
<trkpt lat="55.895359" lon="26.517525">
<ele>91.501038</ele>
<time>2010-07-18T14:14:52Z</time>
<desc>lat.=55.895359, lon.=26.517525, Alt.=91.501038m. Speed=17.568001m/h.</desc>
<speed>4.880000</speed>
</trkpt>
<trkpt lat="55.895370" lon="26.517603">
<ele>91.170959</ele>
<time>2010-07-18T14:14:53Z</time>
<desc>lat.=55.895370, lon.=26.517603, Alt.=91.170959m. Speed=18.576000m/h.</desc>
<speed>5.160000</speed>
</trkpt>
<trkpt lat="55.895386" lon="26.517683">
<ele>90.844788</ele>
<time>2010-07-18T14:14:54Z</time>
<desc>lat.=55.895386, lon.=26.517683, Alt.=90.844788m. Speed=19.584000m/h.</desc>
<speed>5.440000</speed>
</trkpt>
<trkpt lat="55.895409" lon="26.517769">
<ele>90.456116</ele>
<time>2010-07-18T14:14:55Z</time>
<desc>lat.=55.895409, lon.=26.517769, Alt.=90.456116m. Speed=21.816000m/h.</desc>
<speed>6.060000</speed>
</trkpt>
<trkpt lat="55.895428" lon="26.517874">
<ele>89.989319</ele>
<time>2010-07-18T14:14:56Z</time>
<desc>lat.=55.895428, lon.=26.517874, Alt.=89.989319m. Speed=23.112000m/h.</desc>
<speed>6.420000</speed>
</trkpt>
<trkpt lat="55.895451" lon="26.517984">
<ele>89.307678</ele>
<time>2010-07-18T14:14:57Z</time>
<desc>lat.=55.895451, lon.=26.517984, Alt.=89.307678m. Speed=25.271999m/h.</desc>
<speed>7.020000</speed>
</trkpt>
<trkpt lat="55.895466" lon="26.518093">
<ele>88.627991</ele>
<time>2010-07-18T14:14:58Z</time>
<desc>lat.=55.895466, lon.=26.518093, Alt.=88.627991m. Speed=25.344000m/h.</desc>
<speed>7.040000</speed>
</trkpt>
<trkpt lat="55.895481" lon="26.518198">
<ele>88.067444</ele>
<time>2010-07-18T14:14:59Z</time>
<desc>lat.=55.895481, lon.=26.518198, Alt.=88.067444m. Speed=23.364000m/h.</desc>
<speed>6.490000</speed>
</trkpt>
<trkpt lat="55.895489" lon="26.518293">
<ele>87.649475</ele>
<time>2010-07-18T14:15:00Z</time>
<desc>lat.=55.895489, lon.=26.518293, Alt.=87.649475m. Speed=19.691999m/h.</desc>
<speed>5.470000</speed>
</trkpt>
<trkpt lat="55.895500" lon="26.518375">
<ele>87.387756</ele>
<time>2010-07-18T14:15:01Z</time>
<desc>lat.=55.895500, lon.=26.518375, Alt.=87.387756m. Speed=17.964001m/h.</desc>
<speed>4.990000</speed>
</trkpt>
<trkpt lat="55.895508" lon="26.518454">
<ele>86.948303</ele>
<time>2010-07-18T14:15:02Z</time>
<desc>lat.=55.895508, lon.=26.518454, Alt.=86.948303m. Speed=19.511999m/h.</desc>
<speed>5.420000</speed>
</trkpt>
<trkpt lat="55.895523" lon="26.518543">
<ele>86.571350</ele>
<time>2010-07-18T14:15:03Z</time>
<desc>lat.=55.895523, lon.=26.518543, Alt.=86.571350m. Speed=20.736000m/h.</desc>
<speed>5.760000</speed>
</trkpt>
<trkpt lat="55.895538" lon="26.518637">
<ele>87.790100</ele>
<time>2010-07-18T14:15:04Z</time>
<desc>lat.=55.895538, lon.=26.518637, Alt.=87.790100m. Speed=20.412001m/h.</desc>
<speed>5.670000</speed>
</trkpt>
<trkpt lat="55.895550" lon="26.518726">
<ele>87.915100</ele>
<time>2010-07-18T14:15:05Z</time>
<desc>lat.=55.895550, lon.=26.518726, Alt.=87.915100m. Speed=19.764000m/h.</desc>
<speed>5.490000</speed>
</trkpt>
<trkpt lat="55.895561" lon="26.518816">
<ele>88.336975</ele>
<time>2010-07-18T14:15:06Z</time>
<desc>lat.=55.895561, lon.=26.518816, Alt.=88.336975m. Speed=19.296000m/h.</desc>
<speed>5.360000</speed>
</trkpt>
<trkpt lat="55.895569" lon="26.518900">
<ele>88.452209</ele>
<time>2010-07-18T14:15:07Z</time>
<desc>lat.=55.895569, lon.=26.518900, Alt.=88.452209m. Speed=18.684000m/h.</desc>
<speed>5.190000</speed>
</trkpt>
<trkpt lat="55.895576" lon="26.518974">
<ele>88.510803</ele>
<time>2010-07-18T14:15:08Z</time>
<desc>lat.=55.895576, lon.=26.518974, Alt.=88.510803m. Speed=19.980000m/h.</desc>
<speed>5.550000</speed>
</trkpt>
<trkpt lat="55.895584" lon="26.519056">
<ele>88.061584</ele>
<time>2010-07-18T14:15:09Z</time>
<desc>lat.=55.895584, lon.=26.519056, Alt.=88.061584m. Speed=19.799999m/h.</desc>
<speed>5.500000</speed>
</trkpt>
<trkpt lat="55.895596" lon="26.519140">
<ele>88.020569</ele>
<time>2010-07-18T14:15:10Z</time>
<desc>lat.=55.895596, lon.=26.519140, Alt.=88.020569m. Speed=18.936001m/h.</desc>
<speed>5.260000</speed>
</trkpt>
<trkpt lat="55.895615" lon="26.519217">
<ele>88.065491</ele>
<time>2010-07-18T14:15:11Z</time>
<desc>lat.=55.895615, lon.=26.519217, Alt.=88.065491m. Speed=18.035999m/h.</desc>
<speed>5.010000</speed>
</trkpt>
<trkpt lat="55.895634" lon="26.519287">
<ele>87.917053</ele>
<time>2010-07-18T14:15:12Z</time>
<desc>lat.=55.895634, lon.=26.519287, Alt.=87.917053m. Speed=18.792000m/h.</desc>
<speed>5.220000</speed>
</trkpt>
<trkpt lat="55.895660" lon="26.519350">
<ele>87.854553</ele>
<time>2010-07-18T14:15:13Z</time>
<desc>lat.=55.895660, lon.=26.519350, Alt.=87.854553m. Speed=17.316000m/h.</desc>
<speed>4.810000</speed>
</trkpt>
<trkpt lat="55.895699" lon="26.519409">
<ele>87.967834</ele>
<time>2010-07-18T14:15:14Z</time>
<desc>lat.=55.895699, lon.=26.519409, Alt.=87.967834m. Speed=18.936001m/h.</desc>
<speed>5.260000</speed>
</trkpt>
<trkpt lat="55.895737" lon="26.519459">
<ele>87.887756</ele>
<time>2010-07-18T14:15:15Z</time>
<desc>lat.=55.895737, lon.=26.519459, Alt.=87.887756m. Speed=15.984000m/h.</desc>
<speed>4.440000</speed>
</trkpt>
<trkpt lat="55.895767" lon="26.519501">
<ele>87.749084</ele>
<time>2010-07-18T14:15:16Z</time>
<desc>lat.=55.895767, lon.=26.519501, Alt.=87.749084m. Speed=17.388000m/h.</desc>
<speed>4.830000</speed>
</trkpt>
<trkpt lat="55.895809" lon="26.519537">
<ele>88.252991</ele>
<time>2010-07-18T14:15:17Z</time>
<desc>lat.=55.895809, lon.=26.519537, Alt.=88.252991m. Speed=18.504000m/h.</desc>
<speed>5.140000</speed>
</trkpt>
<trkpt lat="55.895847" lon="26.519575">
<ele>88.448303</ele>
<time>2010-07-18T14:15:18Z</time>
<desc>lat.=55.895847, lon.=26.519575, Alt.=88.448303m. Speed=17.100000m/h.</desc>
<speed>4.750000</speed>
</trkpt>
<trkpt lat="55.895889" lon="26.519609">
<ele>88.575256</ele>
<time>2010-07-18T14:15:19Z</time>
<desc>lat.=55.895889, lon.=26.519609, Alt.=88.575256m. Speed=17.747999m/h.</desc>
<speed>4.930000</speed>
</trkpt>
<trkpt lat="55.895927" lon="26.519648">
<ele>88.508850</ele>
<time>2010-07-18T14:15:20Z</time>
<desc>lat.=55.895927, lon.=26.519648, Alt.=88.508850m. Speed=18.396000m/h.</desc>
<speed>5.110000</speed>
</trkpt>
<trkpt lat="55.895973" lon="26.519686">
<ele>88.754944</ele>
<time>2010-07-18T14:15:21Z</time>
<desc>lat.=55.895973, lon.=26.519686, Alt.=88.754944m. Speed=18.108000m/h.</desc>
<speed>5.030000</speed>
</trkpt>
<trkpt lat="55.896015" lon="26.519724">
<ele>89.022522</ele>
<time>2010-07-18T14:15:22Z</time>
<desc>lat.=55.896015, lon.=26.519724, Alt.=89.022522m. Speed=18.719999m/h.</desc>
<speed>5.200000</speed>
</trkpt>
<trkpt lat="55.896057" lon="26.519760">
<ele>89.024475</ele>
<time>2010-07-18T14:15:23Z</time>
<desc>lat.=55.896057, lon.=26.519760, Alt.=89.024475m. Speed=19.476000m/h.</desc>
<speed>5.410000</speed>
</trkpt>
<trkpt lat="55.896099" lon="26.519796">
<ele>89.006897</ele>
<time>2010-07-18T14:15:24Z</time>
<desc>lat.=55.896099, lon.=26.519796, Alt.=89.006897m. Speed=19.007999m/h.</desc>
<speed>5.280000</speed>
</trkpt>
<trkpt lat="55.896137" lon="26.519840">
<ele>88.688538</ele>
<time>2010-07-18T14:15:25Z</time>
<desc>lat.=55.896137, lon.=26.519840, Alt.=88.688538m. Speed=18.792000m/h.</desc>
<speed>5.220000</speed>
</trkpt>
<trkpt lat="55.896175" lon="26.519888">
<ele>88.395569</ele>
<time>2010-07-18T14:15:26Z</time>
<desc>lat.=55.896175, lon.=26.519888, Alt.=88.395569m. Speed=19.115999m/h.</desc>
<speed>5.310000</speed>
</trkpt>
<trkpt lat="55.896221" lon="26.519936">
<ele>88.169006</ele>
<time>2010-07-18T14:15:27Z</time>
<desc>lat.=55.896221, lon.=26.519936, Alt.=88.169006m. Speed=19.403999m/h.</desc>
<speed>5.390000</speed>
</trkpt>
<trkpt lat="55.896263" lon="26.519985">
<ele>88.475647</ele>
<time>2010-07-18T14:15:28Z</time>
<desc>lat.=55.896263, lon.=26.519985, Alt.=88.475647m. Speed=18.468000m/h.</desc>
<speed>5.130000</speed>
</trkpt>
<trkpt lat="55.896301" lon="26.520023">
<ele>88.565491</ele>
<time>2010-07-18T14:15:29Z</time>
<desc>lat.=55.896301, lon.=26.520023, Alt.=88.565491m. Speed=16.884001m/h.</desc>
<speed>4.690000</speed>
</trkpt>
<trkpt lat="55.896339" lon="26.520060">
<ele>89.014709</ele>
<time>2010-07-18T14:15:30Z</time>
<desc>lat.=55.896339, lon.=26.520060, Alt.=89.014709m. Speed=15.336000m/h.</desc>
<speed>4.260000</speed>
</trkpt>
<trkpt lat="55.896378" lon="26.520092">
<ele>89.194397</ele>
<time>2010-07-18T14:15:31Z</time>
<desc>lat.=55.896378, lon.=26.520092, Alt.=89.194397m. Speed=14.976000m/h.</desc>
<speed>4.160000</speed>
</trkpt>
<trkpt lat="55.896404" lon="26.520121">
<ele>89.274475</ele>
<time>2010-07-18T14:15:32Z</time>
<desc>lat.=55.896404, lon.=26.520121, Alt.=89.274475m. Speed=13.068000m/h.</desc>
<speed>3.630000</speed>
</trkpt>
<trkpt lat="55.896435" lon="26.520144">
<ele>89.520569</ele>
<time>2010-07-18T14:15:33Z</time>
<desc>lat.=55.896435, lon.=26.520144, Alt.=89.520569m. Speed=11.988000m/h.</desc>
<speed>3.330000</speed>
</trkpt>
<trkpt lat="55.896465" lon="26.520157">
<ele>90.008850</ele>
<time>2010-07-18T14:15:34Z</time>
<desc>lat.=55.896465, lon.=26.520157, Alt.=90.008850m. Speed=11.016000m/h.</desc>
<speed>3.060000</speed>
</trkpt>
<trkpt lat="55.896492" lon="26.520170">
<ele>90.303772</ele>
<time>2010-07-18T14:15:35Z</time>
<desc>lat.=55.896492, lon.=26.520170, Alt.=90.303772m. Speed=11.988000m/h.</desc>
<speed>3.330000</speed>
</trkpt>
<trkpt lat="55.896519" lon="26.520182">
<ele>90.563538</ele>
<time>2010-07-18T14:15:36Z</time>
<desc>lat.=55.896519, lon.=26.520182, Alt.=90.563538m. Speed=10.800000m/h.</desc>
<speed>3.000000</speed>
</trkpt>
<trkpt lat="55.896542" lon="26.520191">
<ele>90.920959</ele>
<time>2010-07-18T14:15:37Z</time>
<desc>lat.=55.896542, lon.=26.520191, Alt.=90.920959m. Speed=10.908000m/h.</desc>
<speed>3.030000</speed>
</trkpt>
<trkpt lat="55.896568" lon="26.520199">
<ele>91.174866</ele>
<time>2010-07-18T14:15:38Z</time>
<desc>lat.=55.896568, lon.=26.520199, Alt.=91.174866m. Speed=10.620000m/h.</desc>
<speed>2.950000</speed>
</trkpt>
<trkpt lat="55.896595" lon="26.520208">
<ele>91.323303</ele>
<time>2010-07-18T14:15:39Z</time>
<desc>lat.=55.896595, lon.=26.520208, Alt.=91.323303m. Speed=9.792000m/h.</desc>
<speed>2.720000</speed>
</trkpt>
<trkpt lat="55.896618" lon="26.520222">
<ele>91.438538</ele>
<time>2010-07-18T14:15:40Z</time>
<desc>lat.=55.896618, lon.=26.520222, Alt.=91.438538m. Speed=10.872000m/h.</desc>
<speed>3.020000</speed>
</trkpt>
<trkpt lat="55.896648" lon="26.520239">
<ele>91.649475</ele>
<time>2010-07-18T14:15:41Z</time>
<desc>lat.=55.896648, lon.=26.520239, Alt.=91.649475m. Speed=10.512000m/h.</desc>
<speed>2.920000</speed>
</trkpt>
<trkpt lat="55.896671" lon="26.520256">
<ele>91.797913</ele>
<time>2010-07-18T14:15:42Z</time>
<desc>lat.=55.896671, lon.=26.520256, Alt.=91.797913m. Speed=9.972000m/h.</desc>
<speed>2.770000</speed>
</trkpt>
<trkpt lat="55.896694" lon="26.520271">
<ele>92.149475</ele>
<time>2010-07-18T14:15:43Z</time>
<desc>lat.=55.896694, lon.=26.520271, Alt.=92.149475m. Speed=8.712000m/h.</desc>
<speed>2.420000</speed>
</trkpt>
<trkpt lat="55.896709" lon="26.520294">
<ele>92.401428</ele>
<time>2010-07-18T14:15:44Z</time>
<desc>lat.=55.896709, lon.=26.520294, Alt.=92.401428m. Speed=8.964000m/h.</desc>
<speed>2.490000</speed>
</trkpt>
<trkpt lat="55.896725" lon="26.520323">
<ele>92.403381</ele>
<time>2010-07-18T14:15:45Z</time>
<desc>lat.=55.896725, lon.=26.520323, Alt.=92.403381m. Speed=8.316000m/h.</desc>
<speed>2.310000</speed>
</trkpt>
<trkpt lat="55.896736" lon="26.520346">
<ele>92.374084</ele>
<time>2010-07-18T14:15:46Z</time>
<desc>lat.=55.896736, lon.=26.520346, Alt.=92.374084m. Speed=7.524000m/h.</desc>
<speed>2.090000</speed>
</trkpt>
<trkpt lat="55.896751" lon="26.520382">
<ele>92.313538</ele>
<time>2010-07-18T14:15:47Z</time>
<desc>lat.=55.896751, lon.=26.520382, Alt.=92.313538m. Speed=8.676000m/h.</desc>
<speed>2.410000</speed>
</trkpt>
<trkpt lat="55.896763" lon="26.520414">
<ele>92.544006</ele>
<time>2010-07-18T14:15:48Z</time>
<desc>lat.=55.896763, lon.=26.520414, Alt.=92.544006m. Speed=7.848000m/h.</desc>
<speed>2.180000</speed>
</trkpt>
<trkpt lat="55.896767" lon="26.520449">
<ele>92.534241</ele>
<time>2010-07-18T14:15:49Z</time>
<desc>lat.=55.896767, lon.=26.520449, Alt.=92.534241m. Speed=8.460000m/h.</desc>
<speed>2.350000</speed>
</trkpt>
<trkpt lat="55.896767" lon="26.520487">
<ele>92.376038</ele>
<time>2010-07-18T14:15:50Z</time>
<desc>lat.=55.896767, lon.=26.520487, Alt.=92.376038m. Speed=9.936000m/h.</desc>
<speed>2.760000</speed>
</trkpt>
<trkpt lat="55.896770" lon="26.520535">
<ele>92.249084</ele>
<time>2010-07-18T14:15:51Z</time>
<desc>lat.=55.896770, lon.=26.520535, Alt.=92.249084m. Speed=11.736000m/h.</desc>
<speed>3.260000</speed>
</trkpt>
<trkpt lat="55.896778" lon="26.520586">
<ele>92.323303</ele>
<time>2010-07-18T14:15:52Z</time>
<desc>lat.=55.896778, lon.=26.520586, Alt.=92.323303m. Speed=11.412000m/h.</desc>
<speed>3.170000</speed>
</trkpt>
<trkpt lat="55.896793" lon="26.520636">
<ele>92.147522</ele>
<time>2010-07-18T14:15:53Z</time>
<desc>lat.=55.896793, lon.=26.520636, Alt.=92.147522m. Speed=11.952000m/h.</desc>
<speed>3.320000</speed>
</trkpt>
<trkpt lat="55.896805" lon="26.520691">
<ele>91.889709</ele>
<time>2010-07-18T14:15:54Z</time>
<desc>lat.=55.896805, lon.=26.520691, Alt.=91.889709m. Speed=12.240000m/h.</desc>
<speed>3.400000</speed>
</trkpt>
<trkpt lat="55.896824" lon="26.520752">
<ele>91.795959</ele>
<time>2010-07-18T14:15:55Z</time>
<desc>lat.=55.896824, lon.=26.520752, Alt.=91.795959m. Speed=16.740000m/h.</desc>
<speed>4.650000</speed>
</trkpt>
<trkpt lat="55.896851" lon="26.520813">
<ele>91.919006</ele>
<time>2010-07-18T14:15:56Z</time>
<desc>lat.=55.896851, lon.=26.520813, Alt.=91.919006m. Speed=18.468000m/h.</desc>
<speed>5.130000</speed>
</trkpt>
<trkpt lat="55.896877" lon="26.520887">
<ele>91.838928</ele>
<time>2010-07-18T14:15:57Z</time>
<desc>lat.=55.896877, lon.=26.520887, Alt.=91.838928m. Speed=18.936001m/h.</desc>
<speed>5.260000</speed>
</trkpt>
<trkpt lat="55.896908" lon="26.520966">
<ele>91.754944</ele>
<time>2010-07-18T14:15:58Z</time>
<desc>lat.=55.896908, lon.=26.520966, Alt.=91.754944m. Speed=21.743999m/h.</desc>
<speed>6.040000</speed>
</trkpt>
<trkpt lat="55.896950" lon="26.521049">
<ele>91.647522</ele>
<time>2010-07-18T14:15:59Z</time>
<desc>lat.=55.896950, lon.=26.521049, Alt.=91.647522m. Speed=23.903999m/h.</desc>
<speed>6.640000</speed>
</trkpt>
<trkpt lat="55.896984" lon="26.521139">
<ele>91.577209</ele>
<time>2010-07-18T14:16:00Z</time>
<desc>lat.=55.896984, lon.=26.521139, Alt.=91.577209m. Speed=24.804001m/h.</desc>
<speed>6.890000</speed>
</trkpt>
<trkpt lat="55.897022" lon="26.521235">
<ele>91.551819</ele>
<time>2010-07-18T14:16:01Z</time>
<desc>lat.=55.897022, lon.=26.521235, Alt.=91.551819m. Speed=25.775999m/h.</desc>
<speed>7.160000</speed>
</trkpt>
<trkpt lat="55.897060" lon="26.521328">
<ele>91.612366</ele>
<time>2010-07-18T14:16:02Z</time>
<desc>lat.=55.897060, lon.=26.521328, Alt.=91.612366m. Speed=25.056000m/h.</desc>
<speed>6.960000</speed>
</trkpt>
<trkpt lat="55.897091" lon="26.521418">
<ele>91.907288</ele>
<time>2010-07-18T14:16:03Z</time>
<desc>lat.=55.897091, lon.=26.521418, Alt.=91.907288m. Speed=20.375999m/h.</desc>
<speed>5.660000</speed>
</trkpt>
<trkpt lat="55.897125" lon="26.521509">
<ele>92.444397</ele>
<time>2010-07-18T14:16:04Z</time>
<desc>lat.=55.897125, lon.=26.521509, Alt.=92.444397m. Speed=23.688000m/h.</desc>
<speed>6.580000</speed>
</trkpt>
<trkpt lat="55.897160" lon="26.521597">
<ele>92.903381</ele>
<time>2010-07-18T14:16:05Z</time>
<desc>lat.=55.897160, lon.=26.521597, Alt.=92.903381m. Speed=24.444000m/h.</desc>
<speed>6.790000</speed>
</trkpt>
<trkpt lat="55.897198" lon="26.521679">
<ele>93.262756</ele>
<time>2010-07-18T14:16:06Z</time>
<desc>lat.=55.897198, lon.=26.521679, Alt.=93.262756m. Speed=23.976000m/h.</desc>
<speed>6.660000</speed>
</trkpt>
<trkpt lat="55.897228" lon="26.521765">
<ele>93.192444</ele>
<time>2010-07-18T14:16:07Z</time>
<desc>lat.=55.897228, lon.=26.521765, Alt.=93.192444m. Speed=23.436001m/h.</desc>
<speed>6.510000</speed>
</trkpt>
<trkpt lat="55.897263" lon="26.521847">
<ele>93.538147</ele>
<time>2010-07-18T14:16:08Z</time>
<desc>lat.=55.897263, lon.=26.521847, Alt.=93.538147m. Speed=23.219999m/h.</desc>
<speed>6.450000</speed>
</trkpt>
<trkpt lat="55.897297" lon="26.521935">
<ele>93.971741</ele>
<time>2010-07-18T14:16:09Z</time>
<desc>lat.=55.897297, lon.=26.521935, Alt.=93.971741m. Speed=22.931999m/h.</desc>
<speed>6.370000</speed>
</trkpt>
<trkpt lat="55.897327" lon="26.522015">
<ele>94.836975</ele>
<time>2010-07-18T14:16:10Z</time>
<desc>lat.=55.897327, lon.=26.522015, Alt.=94.836975m. Speed=21.959999m/h.</desc>
<speed>6.100000</speed>
</trkpt>
<trkpt lat="55.897354" lon="26.522093">
<ele>95.645569</ele>
<time>2010-07-18T14:16:11Z</time>
<desc>lat.=55.897354, lon.=26.522093, Alt.=95.645569m. Speed=18.288000m/h.</desc>
<speed>5.080000</speed>
</trkpt>
<trkpt lat="55.897381" lon="26.522163">
<ele>95.977600</ele>
<time>2010-07-18T14:16:12Z</time>
<desc>lat.=55.897381, lon.=26.522163, Alt.=95.977600m. Speed=20.448000m/h.</desc>
<speed>5.680000</speed>
</trkpt>
<trkpt lat="55.897411" lon="26.522232">
<ele>96.249084</ele>
<time>2010-07-18T14:16:13Z</time>
<desc>lat.=55.897411, lon.=26.522232, Alt.=96.249084m. Speed=19.691999m/h.</desc>
<speed>5.470000</speed>
</trkpt>
<trkpt lat="55.897438" lon="26.522299">
<ele>96.452209</ele>
<time>2010-07-18T14:16:14Z</time>
<desc>lat.=55.897438, lon.=26.522299, Alt.=96.452209m. Speed=19.080000m/h.</desc>
<speed>5.300000</speed>
</trkpt>
<trkpt lat="55.897469" lon="26.522364">
<ele>97.073303</ele>
<time>2010-07-18T14:16:15Z</time>
<desc>lat.=55.897469, lon.=26.522364, Alt.=97.073303m. Speed=19.836000m/h.</desc>
<speed>5.510000</speed>
</trkpt>
<trkpt lat="55.897495" lon="26.522432">
<ele>96.995178</ele>
<time>2010-07-18T14:16:16Z</time>
<desc>lat.=55.897495, lon.=26.522432, Alt.=96.995178m. Speed=18.972000m/h.</desc>
<speed>5.270000</speed>
</trkpt>
<trkpt lat="55.897518" lon="26.522509">
<ele>97.704163</ele>
<time>2010-07-18T14:16:17Z</time>
<desc>lat.=55.897518, lon.=26.522509, Alt.=97.704163m. Speed=20.052000m/h.</desc>
<speed>5.570000</speed>
</trkpt>
<trkpt lat="55.897541" lon="26.522583">
<ele>98.434631</ele>
<time>2010-07-18T14:16:18Z</time>
<desc>lat.=55.897541, lon.=26.522583, Alt.=98.434631m. Speed=19.584000m/h.</desc>
<speed>5.440000</speed>
</trkpt>
<trkpt lat="55.897568" lon="26.522650">
<ele>98.930725</ele>
<time>2010-07-18T14:16:19Z</time>
<desc>lat.=55.897568, lon.=26.522650, Alt.=98.930725m. Speed=19.764000m/h.</desc>
<speed>5.490000</speed>
</trkpt>
<trkpt lat="55.897602" lon="26.522717">
<ele>99.055725</ele>
<time>2010-07-18T14:16:20Z</time>
<desc>lat.=55.897602, lon.=26.522717, Alt.=99.055725m. Speed=19.872000m/h.</desc>
<speed>5.520000</speed>
</trkpt>
<trkpt lat="55.897629" lon="26.522789">
<ele>99.206116</ele>
<time>2010-07-18T14:16:21Z</time>
<desc>lat.=55.897629, lon.=26.522789, Alt.=99.206116m. Speed=20.016001m/h.</desc>
<speed>5.560000</speed>
</trkpt>
<trkpt lat="55.897659" lon="26.522856">
<ele>99.303772</ele>
<time>2010-07-18T14:16:22Z</time>
<desc>lat.=55.897659, lon.=26.522856, Alt.=99.303772m. Speed=19.115999m/h.</desc>
<speed>5.310000</speed>
</trkpt>
<trkpt lat="55.897690" lon="26.522921">
<ele>99.594788</ele>
<time>2010-07-18T14:16:23Z</time>
<desc>lat.=55.897690, lon.=26.522921, Alt.=99.594788m. Speed=19.152000m/h.</desc>
<speed>5.320000</speed>
</trkpt>
<trkpt lat="55.897724" lon="26.522985">
<ele>100.001038</ele>
<time>2010-07-18T14:16:24Z</time>
<desc>lat.=55.897724, lon.=26.522985, Alt.=100.001038m. Speed=18.576000m/h.</desc>
<speed>5.160000</speed>
</trkpt>
<trkpt lat="55.897755" lon="26.523048">
<ele>100.192444</ele>
<time>2010-07-18T14:16:25Z</time>
<desc>lat.=55.897755, lon.=26.523048, Alt.=100.192444m. Speed=17.892000m/h.</desc>
<speed>4.970000</speed>
</trkpt>
<trkpt lat="55.897781" lon="26.523113">
<ele>100.827209</ele>
<time>2010-07-18T14:16:26Z</time>
<desc>lat.=55.897781, lon.=26.523113, Alt.=100.827209m. Speed=16.992001m/h.</desc>
<speed>4.720000</speed>
</trkpt>
<trkpt lat="55.897800" lon="26.523169">
<ele>101.167053</ele>
<time>2010-07-18T14:16:27Z</time>
<desc>lat.=55.897800, lon.=26.523169, Alt.=101.167053m. Speed=14.580000m/h.</desc>
<speed>4.050000</speed>
</trkpt>
<trkpt lat="55.897804" lon="26.523216">
<ele>100.254944</ele>
<time>2010-07-18T14:16:28Z</time>
<desc>lat.=55.897804, lon.=26.523216, Alt.=100.254944m. Speed=13.608000m/h.</desc>
<speed>3.780000</speed>
</trkpt>
<trkpt lat="55.897820" lon="26.523266">
<ele>100.479553</ele>
<time>2010-07-18T14:16:29Z</time>
<desc>lat.=55.897820, lon.=26.523266, Alt.=100.479553m. Speed=12.852000m/h.</desc>
<speed>3.570000</speed>
</trkpt>
<trkpt lat="55.897846" lon="26.523321">
<ele>100.919006</ele>
<time>2010-07-18T14:16:30Z</time>
<desc>lat.=55.897846, lon.=26.523321, Alt.=100.919006m. Speed=15.120000m/h.</desc>
<speed>4.200000</speed>
</trkpt>
<trkpt lat="55.897869" lon="26.523378">
<ele>101.303772</ele>
<time>2010-07-18T14:16:31Z</time>
<desc>lat.=55.897869, lon.=26.523378, Alt.=101.303772m. Speed=13.752000m/h.</desc>
<speed>3.820000</speed>
</trkpt>
<trkpt lat="55.897888" lon="26.523430">
<ele>101.735413</ele>
<time>2010-07-18T14:16:32Z</time>
<desc>lat.=55.897888, lon.=26.523430, Alt.=101.735413m. Speed=14.004000m/h.</desc>
<speed>3.890000</speed>
</trkpt>
<trkpt lat="55.897911" lon="26.523474">
<ele>101.905334</ele>
<time>2010-07-18T14:16:33Z</time>
<desc>lat.=55.897911, lon.=26.523474, Alt.=101.905334m. Speed=11.808000m/h.</desc>
<speed>3.280000</speed>
</trkpt>
<trkpt lat="55.897930" lon="26.523520">
<ele>102.188538</ele>
<time>2010-07-18T14:16:34Z</time>
<desc>lat.=55.897930, lon.=26.523520, Alt.=102.188538m. Speed=10.944000m/h.</desc>
<speed>3.040000</speed>
</trkpt>
<trkpt lat="55.897945" lon="26.523561">
<ele>102.215881</ele>
<time>2010-07-18T14:16:35Z</time>
<desc>lat.=55.897945, lon.=26.523561, Alt.=102.215881m. Speed=11.052000m/h.</desc>
<speed>3.070000</speed>
</trkpt>
<trkpt lat="55.897953" lon="26.523596">
<ele>101.794006</ele>
<time>2010-07-18T14:16:36Z</time>
<desc>lat.=55.897953, lon.=26.523596, Alt.=101.794006m. Speed=8.856000m/h.</desc>
<speed>2.460000</speed>
</trkpt>
<trkpt lat="55.897968" lon="26.523634">
<ele>101.969788</ele>
<time>2010-07-18T14:16:37Z</time>
<desc>lat.=55.897968, lon.=26.523634, Alt.=101.969788m. Speed=11.592000m/h.</desc>
<speed>3.220000</speed>
</trkpt>
<trkpt lat="55.897984" lon="26.523678">
<ele>101.639709</ele>
<time>2010-07-18T14:16:38Z</time>
<desc>lat.=55.897984, lon.=26.523678, Alt.=101.639709m. Speed=11.160000m/h.</desc>
<speed>3.100000</speed>
</trkpt>
<trkpt lat="55.898006" lon="26.523726">
<ele>101.446350</ele>
<time>2010-07-18T14:16:39Z</time>
<desc>lat.=55.898006, lon.=26.523726, Alt.=101.446350m. Speed=12.780000m/h.</desc>
<speed>3.550000</speed>
</trkpt>
<trkpt lat="55.898029" lon="26.523781">
<ele>101.502991</ele>
<time>2010-07-18T14:16:40Z</time>
<desc>lat.=55.898029, lon.=26.523781, Alt.=101.502991m. Speed=13.572000m/h.</desc>
<speed>3.770000</speed>
</trkpt>
<trkpt lat="55.898056" lon="26.523842">
<ele>102.008850</ele>
<time>2010-07-18T14:16:41Z</time>
<desc>lat.=55.898056, lon.=26.523842, Alt.=102.008850m. Speed=16.020000m/h.</desc>
<speed>4.450000</speed>
</trkpt>
<trkpt lat="55.898079" lon="26.523897">
<ele>101.840881</ele>
<time>2010-07-18T14:16:42Z</time>
<desc>lat.=55.898079, lon.=26.523897, Alt.=101.840881m. Speed=14.616000m/h.</desc>
<speed>4.060000</speed>
</trkpt>
<trkpt lat="55.898106" lon="26.523952">
<ele>101.473694</ele>
<time>2010-07-18T14:16:43Z</time>
<desc>lat.=55.898106, lon.=26.523952, Alt.=101.473694m. Speed=13.536000m/h.</desc>
<speed>3.760000</speed>
</trkpt>
<trkpt lat="55.898132" lon="26.524008">
<ele>101.510803</ele>
<time>2010-07-18T14:16:44Z</time>
<desc>lat.=55.898132, lon.=26.524008, Alt.=101.510803m. Speed=14.040000m/h.</desc>
<speed>3.900000</speed>
</trkpt>
<trkpt lat="55.898155" lon="26.524057">
<ele>101.997131</ele>
<time>2010-07-18T14:16:45Z</time>
<desc>lat.=55.898155, lon.=26.524057, Alt.=101.997131m. Speed=14.364000m/h.</desc>
<speed>3.990000</speed>
</trkpt>
<trkpt lat="55.898174" lon="26.524109">
<ele>102.151428</ele>
<time>2010-07-18T14:16:46Z</time>
<desc>lat.=55.898174, lon.=26.524109, Alt.=102.151428m. Speed=13.392000m/h.</desc>
<speed>3.720000</speed>
</trkpt>
<trkpt lat="55.898193" lon="26.524155">
<ele>102.561584</ele>
<time>2010-07-18T14:16:47Z</time>
<desc>lat.=55.898193, lon.=26.524155, Alt.=102.561584m. Speed=13.968000m/h.</desc>
<speed>3.880000</speed>
</trkpt>
<trkpt lat="55.898212" lon="26.524206">
<ele>102.772522</ele>
<time>2010-07-18T14:16:48Z</time>
<desc>lat.=55.898212, lon.=26.524206, Alt.=102.772522m. Speed=14.004000m/h.</desc>
<speed>3.890000</speed>
</trkpt>
<trkpt lat="55.898235" lon="26.524260">
<ele>103.223694</ele>
<time>2010-07-18T14:16:49Z</time>
<desc>lat.=55.898235, lon.=26.524260, Alt.=103.223694m. Speed=15.732000m/h.</desc>
<speed>4.370000</speed>
</trkpt>
<trkpt lat="55.898258" lon="26.524323">
<ele>103.372131</ele>
<time>2010-07-18T14:16:50Z</time>
<desc>lat.=55.898258, lon.=26.524323, Alt.=103.372131m. Speed=16.632000m/h.</desc>
<speed>4.620000</speed>
</trkpt>
<trkpt lat="55.898277" lon="26.524393">
<ele>103.278381</ele>
<time>2010-07-18T14:16:51Z</time>
<desc>lat.=55.898277, lon.=26.524393, Alt.=103.278381m. Speed=17.604000m/h.</desc>
<speed>4.890000</speed>
</trkpt>
<trkpt lat="55.898300" lon="26.524460">
<ele>103.360413</ele>
<time>2010-07-18T14:16:52Z</time>
<desc>lat.=55.898300, lon.=26.524460, Alt.=103.360413m. Speed=16.955999m/h.</desc>
<speed>4.710000</speed>
</trkpt>
<trkpt lat="55.898331" lon="26.524519">
<ele>103.616272</ele>
<time>2010-07-18T14:16:53Z</time>
<desc>lat.=55.898331, lon.=26.524519, Alt.=103.616272m. Speed=17.100000m/h.</desc>
<speed>4.750000</speed>
</trkpt>
<trkpt lat="55.898357" lon="26.524574">
<ele>103.563538</ele>
<time>2010-07-18T14:16:54Z</time>
<desc>lat.=55.898357, lon.=26.524574, Alt.=103.563538m. Speed=16.236000m/h.</desc>
<speed>4.510000</speed>
</trkpt>
<trkpt lat="55.898384" lon="26.524633">
<ele>103.356506</ele>
<time>2010-07-18T14:16:55Z</time>
<desc>lat.=55.898384, lon.=26.524633, Alt.=103.356506m. Speed=16.920000m/h.</desc>
<speed>4.700000</speed>
</trkpt>
<trkpt lat="55.898415" lon="26.524691">
<ele>103.245178</ele>
<time>2010-07-18T14:16:56Z</time>
<desc>lat.=55.898415, lon.=26.524691, Alt.=103.245178m. Speed=17.424000m/h.</desc>
<speed>4.840000</speed>
</trkpt>
<trkpt lat="55.898441" lon="26.524750">
<ele>103.092834</ele>
<time>2010-07-18T14:16:57Z</time>
<desc>lat.=55.898441, lon.=26.524750, Alt.=103.092834m. Speed=16.559999m/h.</desc>
<speed>4.600000</speed>
</trkpt>
<trkpt lat="55.898468" lon="26.524809">
<ele>103.227600</ele>
<time>2010-07-18T14:16:58Z</time>
<desc>lat.=55.898468, lon.=26.524809, Alt.=103.227600m. Speed=16.200001m/h.</desc>
<speed>4.500000</speed>
</trkpt>
<trkpt lat="55.898495" lon="26.524876">
<ele>103.012756</ele>
<time>2010-07-18T14:16:59Z</time>
<desc>lat.=55.898495, lon.=26.524876, Alt.=103.012756m. Speed=18.396000m/h.</desc>
<speed>5.110000</speed>
</trkpt>
<trkpt lat="55.898525" lon="26.524940">
<ele>103.086975</ele>
<time>2010-07-18T14:17:00Z</time>
<desc>lat.=55.898525, lon.=26.524940, Alt.=103.086975m. Speed=19.080000m/h.</desc>
<speed>5.300000</speed>
</trkpt>
<trkpt lat="55.898552" lon="26.525003">
<ele>103.844788</ele>
<time>2010-07-18T14:17:01Z</time>
<desc>lat.=55.898552, lon.=26.525003, Alt.=103.844788m. Speed=18.900000m/h.</desc>
<speed>5.250000</speed>
</trkpt>
<trkpt lat="55.898590" lon="26.525072">
<ele>104.446350</ele>
<time>2010-07-18T14:17:02Z</time>
<desc>lat.=55.898590, lon.=26.525072, Alt.=104.446350m. Speed=20.628000m/h.</desc>
<speed>5.730000</speed>
</trkpt>
<trkpt lat="55.898628" lon="26.525143">
<ele>104.596741</ele>
<time>2010-07-18T14:17:03Z</time>
<desc>lat.=55.898628, lon.=26.525143, Alt.=104.596741m. Speed=21.636000m/h.</desc>
<speed>6.010000</speed>
</trkpt>
<trkpt lat="55.898670" lon="26.525208">
<ele>104.622131</ele>
<time>2010-07-18T14:17:04Z</time>
<desc>lat.=55.898670, lon.=26.525208, Alt.=104.622131m. Speed=22.643999m/h.</desc>
<speed>6.290000</speed>
</trkpt>
<trkpt lat="55.898716" lon="26.525251">
<ele>104.387756</ele>
<time>2010-07-18T14:17:05Z</time>
<desc>lat.=55.898716, lon.=26.525251, Alt.=104.387756m. Speed=21.024000m/h.</desc>
<speed>5.840000</speed>
</trkpt>
<trkpt lat="55.898773" lon="26.525261">
<ele>104.276428</ele>
<time>2010-07-18T14:17:06Z</time>
<desc>lat.=55.898773, lon.=26.525261, Alt.=104.276428m. Speed=23.507999m/h.</desc>
<speed>6.530000</speed>
</trkpt>
<trkpt lat="55.898830" lon="26.525236">
<ele>104.190491</ele>
<time>2010-07-18T14:17:07Z</time>
<desc>lat.=55.898830, lon.=26.525236, Alt.=104.190491m. Speed=25.416000m/h.</desc>
<speed>7.060000</speed>
</trkpt>
<trkpt lat="55.898891" lon="26.525221">
<ele>103.354553</ele>
<time>2010-07-18T14:17:08Z</time>
<desc>lat.=55.898891, lon.=26.525221, Alt.=103.354553m. Speed=23.832001m/h.</desc>
<speed>6.620000</speed>
</trkpt>
<trkpt lat="55.898945" lon="26.525242">
<ele>102.706116</ele>
<time>2010-07-18T14:17:09Z</time>
<desc>lat.=55.898945, lon.=26.525242, Alt.=102.706116m. Speed=24.299999m/h.</desc>
<speed>6.750000</speed>
</trkpt>
<trkpt lat="55.899002" lon="26.525276">
<ele>102.778381</ele>
<time>2010-07-18T14:17:10Z</time>
<desc>lat.=55.899002, lon.=26.525276, Alt.=102.778381m. Speed=22.752001m/h.</desc>
<speed>6.320000</speed>
</trkpt>
<trkpt lat="55.899055" lon="26.525318">
<ele>102.895569</ele>
<time>2010-07-18T14:17:11Z</time>
<desc>lat.=55.899055, lon.=26.525318, Alt.=102.895569m. Speed=23.400000m/h.</desc>
<speed>6.500000</speed>
</trkpt>
<trkpt lat="55.899105" lon="26.525362">
<ele>102.932678</ele>
<time>2010-07-18T14:17:12Z</time>
<desc>lat.=55.899105, lon.=26.525362, Alt.=102.932678m. Speed=20.664000m/h.</desc>
<speed>5.740000</speed>
</trkpt>
<trkpt lat="55.899151" lon="26.525406">
<ele>102.862366</ele>
<time>2010-07-18T14:17:13Z</time>
<desc>lat.=55.899151, lon.=26.525406, Alt.=102.862366m. Speed=21.384001m/h.</desc>
<speed>5.940000</speed>
</trkpt>
<trkpt lat="55.899193" lon="26.525452">
<ele>102.983459</ele>
<time>2010-07-18T14:17:14Z</time>
<desc>lat.=55.899193, lon.=26.525452, Alt.=102.983459m. Speed=19.620001m/h.</desc>
<speed>5.450000</speed>
</trkpt>
<trkpt lat="55.899235" lon="26.525496">
<ele>103.124084</ele>
<time>2010-07-18T14:17:15Z</time>
<desc>lat.=55.899235, lon.=26.525496, Alt.=103.124084m. Speed=18.323999m/h.</desc>
<speed>5.090000</speed>
</trkpt>
<trkpt lat="55.899269" lon="26.525537">
<ele>103.114319</ele>
<time>2010-07-18T14:17:16Z</time>
<desc>lat.=55.899269, lon.=26.525537, Alt.=103.114319m. Speed=16.740000m/h.</desc>
<speed>4.650000</speed>
</trkpt>
<trkpt lat="55.899311" lon="26.525585">
<ele>102.879944</ele>
<time>2010-07-18T14:17:17Z</time>
<desc>lat.=55.899311, lon.=26.525585, Alt.=102.879944m. Speed=18.000000m/h.</desc>
<speed>5.000000</speed>
</trkpt>
<trkpt lat="55.899349" lon="26.525627">
<ele>102.919006</ele>
<time>2010-07-18T14:17:18Z</time>
<desc>lat.=55.899349, lon.=26.525627, Alt.=102.919006m. Speed=16.955999m/h.</desc>
<speed>4.710000</speed>
</trkpt>
<trkpt lat="55.899380" lon="26.525681">
<ele>103.044006</ele>
<time>2010-07-18T14:17:19Z</time>
<desc>lat.=55.899380, lon.=26.525681, Alt.=103.044006m. Speed=17.100000m/h.</desc>
<speed>4.750000</speed>
</trkpt>
<trkpt lat="55.899406" lon="26.525738">
<ele>103.297913</ele>
<time>2010-07-18T14:17:20Z</time>
<desc>lat.=55.899406, lon.=26.525738, Alt.=103.297913m. Speed=16.164000m/h.</desc>
<speed>4.490000</speed>
</trkpt>
<trkpt lat="55.899437" lon="26.525793">
<ele>103.471741</ele>
<time>2010-07-18T14:17:21Z</time>
<desc>lat.=55.899437, lon.=26.525793, Alt.=103.471741m. Speed=16.632000m/h.</desc>
<speed>4.620000</speed>
</trkpt>
<trkpt lat="55.899460" lon="26.525852">
<ele>103.622131</ele>
<time>2010-07-18T14:17:22Z</time>
<desc>lat.=55.899460, lon.=26.525852, Alt.=103.622131m. Speed=16.740000m/h.</desc>
<speed>4.650000</speed>
</trkpt>
<trkpt lat="55.899490" lon="26.525911">
<ele>103.850647</ele>
<time>2010-07-18T14:17:23Z</time>
<desc>lat.=55.899490, lon.=26.525911, Alt.=103.850647m. Speed=18.252001m/h.</desc>
<speed>5.070000</speed>
</trkpt>
<trkpt lat="55.899509" lon="26.525969">
<ele>104.110413</ele>
<time>2010-07-18T14:17:24Z</time>
<desc>lat.=55.899509, lon.=26.525969, Alt.=104.110413m. Speed=15.624000m/h.</desc>
<speed>4.340000</speed>
</trkpt>
<trkpt lat="55.899525" lon="26.526026">
<ele>104.370178</ele>
<time>2010-07-18T14:17:25Z</time>
<desc>lat.=55.899525, lon.=26.526026, Alt.=104.370178m. Speed=15.516000m/h.</desc>
<speed>4.310000</speed>
</trkpt>
<trkpt lat="55.899540" lon="26.526089">
<ele>104.469788</ele>
<time>2010-07-18T14:17:26Z</time>
<desc>lat.=55.899540, lon.=26.526089, Alt.=104.469788m. Speed=16.308001m/h.</desc>
<speed>4.530000</speed>
</trkpt>
<trkpt lat="55.899555" lon="26.526163">
<ele>104.415100</ele>
<time>2010-07-18T14:17:27Z</time>
<desc>lat.=55.899555, lon.=26.526163, Alt.=104.415100m. Speed=17.316000m/h.</desc>
<speed>4.810000</speed>
</trkpt>
<trkpt lat="55.899574" lon="26.526232">
<ele>104.456116</ele>
<time>2010-07-18T14:17:28Z</time>
<desc>lat.=55.899574, lon.=26.526232, Alt.=104.456116m. Speed=16.308001m/h.</desc>
<speed>4.530000</speed>
</trkpt>
<trkpt lat="55.899593" lon="26.526291">
<ele>104.504944</ele>
<time>2010-07-18T14:17:29Z</time>
<desc>lat.=55.899593, lon.=26.526291, Alt.=104.504944m. Speed=15.444000m/h.</desc>
<speed>4.290000</speed>
</trkpt>
<trkpt lat="55.899612" lon="26.526333">
<ele>104.745178</ele>
<time>2010-07-18T14:17:30Z</time>
<desc>lat.=55.899612, lon.=26.526333, Alt.=104.745178m. Speed=12.780000m/h.</desc>
<speed>3.550000</speed>
</trkpt>
<trkpt lat="55.899632" lon="26.526384">
<ele>104.881897</ele>
<time>2010-07-18T14:17:31Z</time>
<desc>lat.=55.899632, lon.=26.526384, Alt.=104.881897m. Speed=15.228000m/h.</desc>
<speed>4.230000</speed>
</trkpt>
<trkpt lat="55.899651" lon="26.526438">
<ele>104.913147</ele>
<time>2010-07-18T14:17:32Z</time>
<desc>lat.=55.899651, lon.=26.526438, Alt.=104.913147m. Speed=14.796000m/h.</desc>
<speed>4.110000</speed>
</trkpt>
<trkpt lat="55.899673" lon="26.526497">
<ele>104.633850</ele>
<time>2010-07-18T14:17:33Z</time>
<desc>lat.=55.899673, lon.=26.526497, Alt.=104.633850m. Speed=15.948000m/h.</desc>
<speed>4.430000</speed>
</trkpt>
<trkpt lat="55.899700" lon="26.526556">
<ele>104.301819</ele>
<time>2010-07-18T14:17:34Z</time>
<desc>lat.=55.899700, lon.=26.526556, Alt.=104.301819m. Speed=15.084000m/h.</desc>
<speed>4.190000</speed>
</trkpt>
<trkpt lat="55.899723" lon="26.526587">
<ele>104.282288</ele>
<time>2010-07-18T14:17:35Z</time>
<desc>lat.=55.899723, lon.=26.526587, Alt.=104.282288m. Speed=8.712000m/h.</desc>
<speed>2.420000</speed>
</trkpt>
<trkpt lat="55.899750" lon="26.526627">
<ele>104.198303</ele>
<time>2010-07-18T14:17:36Z</time>
<desc>lat.=55.899750, lon.=26.526627, Alt.=104.198303m. Speed=11.844000m/h.</desc>
<speed>3.290000</speed>
</trkpt>
<trkpt lat="55.899765" lon="26.526665">
<ele>104.243225</ele>
<time>2010-07-18T14:17:37Z</time>
<desc>lat.=55.899765, lon.=26.526665, Alt.=104.243225m. Speed=9.360000m/h.</desc>
<speed>2.600000</speed>
</trkpt>
<trkpt lat="55.899780" lon="26.526739">
<ele>103.331116</ele>
<time>2010-07-18T14:17:38Z</time>
<desc>lat.=55.899780, lon.=26.526739, Alt.=103.331116m. Speed=12.348000m/h.</desc>
<speed>3.430000</speed>
</trkpt>
<trkpt lat="55.899811" lon="26.526802">
<ele>102.893616</ele>
<time>2010-07-18T14:17:39Z</time>
<desc>lat.=55.899811, lon.=26.526802, Alt.=102.893616m. Speed=15.228000m/h.</desc>
<speed>4.230000</speed>
</trkpt>
<trkpt lat="55.899841" lon="26.526873">
<ele>103.104553</ele>
<time>2010-07-18T14:17:40Z</time>
<desc>lat.=55.899841, lon.=26.526873, Alt.=103.104553m. Speed=17.280001m/h.</desc>
<speed>4.800000</speed>
</trkpt>
<trkpt lat="55.899879" lon="26.526928">
<ele>103.467834</ele>
<time>2010-07-18T14:17:41Z</time>
<desc>lat.=55.899879, lon.=26.526928, Alt.=103.467834m. Speed=17.892000m/h.</desc>
<speed>4.970000</speed>
</trkpt>
<trkpt lat="55.899933" lon="26.526985">
<ele>103.936584</ele>
<time>2010-07-18T14:17:42Z</time>
<desc>lat.=55.899933, lon.=26.526985, Alt.=103.936584m. Speed=17.063999m/h.</desc>
<speed>4.740000</speed>
</trkpt>
<trkpt lat="55.899986" lon="26.527040">
<ele>104.126038</ele>
<time>2010-07-18T14:17:43Z</time>
<desc>lat.=55.899986, lon.=26.527040, Alt.=104.126038m. Speed=16.091999m/h.</desc>
<speed>4.470000</speed>
</trkpt>
<trkpt lat="55.900040" lon="26.527088">
<ele>104.272522</ele>
<time>2010-07-18T14:17:44Z</time>
<desc>lat.=55.900040, lon.=26.527088, Alt.=104.272522m. Speed=17.568001m/h.</desc>
<speed>4.880000</speed>
</trkpt>
<trkpt lat="55.900074" lon="26.527134">
<ele>104.192444</ele>
<time>2010-07-18T14:17:45Z</time>
<desc>lat.=55.900074, lon.=26.527134, Alt.=104.192444m. Speed=15.840000m/h.</desc>
<speed>4.400000</speed>
</trkpt>
<trkpt lat="55.900131" lon="26.527164">
<ele>104.440491</ele>
<time>2010-07-18T14:17:46Z</time>
<desc>lat.=55.900131, lon.=26.527164, Alt.=104.440491m. Speed=18.035999m/h.</desc>
<speed>5.010000</speed>
</trkpt>
<trkpt lat="55.900177" lon="26.527206">
<ele>104.772522</ele>
<time>2010-07-18T14:17:47Z</time>
<desc>lat.=55.900177, lon.=26.527206, Alt.=104.772522m. Speed=18.180000m/h.</desc>
<speed>5.050000</speed>
</trkpt>
<trkpt lat="55.900230" lon="26.527256">
<ele>105.538147</ele>
<time>2010-07-18T14:17:48Z</time>
<desc>lat.=55.900230, lon.=26.527256, Alt.=105.538147m. Speed=18.612000m/h.</desc>
<speed>5.170000</speed>
</trkpt>
<trkpt lat="55.900272" lon="26.527298">
<ele>106.108459</ele>
<time>2010-07-18T14:17:49Z</time>
<desc>lat.=55.900272, lon.=26.527298, Alt.=106.108459m. Speed=17.784000m/h.</desc>
<speed>4.940000</speed>
</trkpt>
<trkpt lat="55.900314" lon="26.527344">
<ele>105.174866</ele>
<time>2010-07-18T14:17:50Z</time>
<desc>lat.=55.900314, lon.=26.527344, Alt.=105.174866m. Speed=18.431999m/h.</desc>
<speed>5.120000</speed>
</trkpt>
<trkpt lat="55.900356" lon="26.527384">
<ele>104.715881</ele>
<time>2010-07-18T14:17:51Z</time>
<desc>lat.=55.900356, lon.=26.527384, Alt.=104.715881m. Speed=17.388000m/h.</desc>
<speed>4.830000</speed>
</trkpt>
<trkpt lat="55.900394" lon="26.527435">
<ele>104.602600</ele>
<time>2010-07-18T14:17:52Z</time>
<desc>lat.=55.900394, lon.=26.527435, Alt.=104.602600m. Speed=17.892000m/h.</desc>
<speed>4.970000</speed>
</trkpt>
<trkpt lat="55.900414" lon="26.527508">
<ele>104.411194</ele>
<time>2010-07-18T14:17:53Z</time>
<desc>lat.=55.900414, lon.=26.527508, Alt.=104.411194m. Speed=17.316000m/h.</desc>
<speed>4.810000</speed>
</trkpt>
<trkpt lat="55.900414" lon="26.527575">
<ele>104.452209</ele>
<time>2010-07-18T14:17:54Z</time>
<desc>lat.=55.900414, lon.=26.527575, Alt.=104.452209m. Speed=15.912000m/h.</desc>
<speed>4.420000</speed>
</trkpt>
<trkpt lat="55.900398" lon="26.527649">
<ele>103.536194</ele>
<time>2010-07-18T14:17:55Z</time>
<desc>lat.=55.900398, lon.=26.527649, Alt.=103.536194m. Speed=16.812000m/h.</desc>
<speed>4.670000</speed>
</trkpt>
<trkpt lat="55.900394" lon="26.527716">
<ele>103.497131</ele>
<time>2010-07-18T14:17:56Z</time>
<desc>lat.=55.900394, lon.=26.527716, Alt.=103.497131m. Speed=13.464000m/h.</desc>
<speed>3.740000</speed>
</trkpt>
<trkpt lat="55.900398" lon="26.527777">
<ele>103.338928</ele>
<time>2010-07-18T14:17:57Z</time>
<desc>lat.=55.900398, lon.=26.527777, Alt.=103.338928m. Speed=14.040000m/h.</desc>
<speed>3.900000</speed>
</trkpt>
<trkpt lat="55.900394" lon="26.527834">
<ele>103.211975</ele>
<time>2010-07-18T14:17:58Z</time>
<desc>lat.=55.900394, lon.=26.527834, Alt.=103.211975m. Speed=13.212000m/h.</desc>
<speed>3.670000</speed>
</trkpt>
<trkpt lat="55.900372" lon="26.527882">
<ele>102.864319</ele>
<time>2010-07-18T14:17:59Z</time>
<desc>lat.=55.900372, lon.=26.527882, Alt.=102.864319m. Speed=12.600000m/h.</desc>
<speed>3.500000</speed>
</trkpt>
<trkpt lat="55.900345" lon="26.527918">
<ele>103.217834</ele>
<time>2010-07-18T14:18:00Z</time>
<desc>lat.=55.900345, lon.=26.527918, Alt.=103.217834m. Speed=13.212000m/h.</desc>
<speed>3.670000</speed>
</trkpt>
<trkpt lat="55.900318" lon="26.527962">
<ele>103.434631</ele>
<time>2010-07-18T14:18:01Z</time>
<desc>lat.=55.900318, lon.=26.527962, Alt.=103.434631m. Speed=14.328000m/h.</desc>
<speed>3.980000</speed>
</trkpt>
<trkpt lat="55.900295" lon="26.528019">
<ele>103.063538</ele>
<time>2010-07-18T14:18:02Z</time>
<desc>lat.=55.900295, lon.=26.528019, Alt.=103.063538m. Speed=16.128000m/h.</desc>
<speed>4.480000</speed>
</trkpt>
<trkpt lat="55.900272" lon="26.528078">
<ele>102.944397</ele>
<time>2010-07-18T14:18:03Z</time>
<desc>lat.=55.900272, lon.=26.528078, Alt.=102.944397m. Speed=16.812000m/h.</desc>
<speed>4.670000</speed>
</trkpt>
<trkpt lat="55.900246" lon="26.528141">
<ele>102.407288</ele>
<time>2010-07-18T14:18:04Z</time>
<desc>lat.=55.900246, lon.=26.528141, Alt.=102.407288m. Speed=17.243999m/h.</desc>
<speed>4.790000</speed>
</trkpt>
<trkpt lat="55.900219" lon="26.528204">
<ele>102.077209</ele>
<time>2010-07-18T14:18:05Z</time>
<desc>lat.=55.900219, lon.=26.528204, Alt.=102.077209m. Speed=17.316000m/h.</desc>
<speed>4.810000</speed>
</trkpt>
<trkpt lat="55.900192" lon="26.528275">
<ele>101.430725</ele>
<time>2010-07-18T14:18:06Z</time>
<desc>lat.=55.900192, lon.=26.528275, Alt.=101.430725m. Speed=17.243999m/h.</desc>
<speed>4.790000</speed>
</trkpt>
<trkpt lat="55.900173" lon="26.528341">
<ele>101.161194</ele>
<time>2010-07-18T14:18:07Z</time>
<desc>lat.=55.900173, lon.=26.528341, Alt.=101.161194m. Speed=16.344000m/h.</desc>
<speed>4.540000</speed>
</trkpt>
<trkpt lat="55.900158" lon="26.528400">
<ele>100.989319</ele>
<time>2010-07-18T14:18:08Z</time>
<desc>lat.=55.900158, lon.=26.528400, Alt.=100.989319m. Speed=13.716000m/h.</desc>
<speed>3.810000</speed>
</trkpt>
<trkpt lat="55.900158" lon="26.528467">
<ele>100.803772</ele>
<time>2010-07-18T14:18:09Z</time>
<desc>lat.=55.900158, lon.=26.528467, Alt.=100.803772m. Speed=14.724000m/h.</desc>
<speed>4.090000</speed>
</trkpt>
<trkpt lat="55.900154" lon="26.528528">
<ele>100.530334</ele>
<time>2010-07-18T14:18:10Z</time>
<desc>lat.=55.900154, lon.=26.528528, Alt.=100.530334m. Speed=15.264000m/h.</desc>
<speed>4.240000</speed>
</trkpt>
<trkpt lat="55.900131" lon="26.528564">
<ele>100.579163</ele>
<time>2010-07-18T14:18:11Z</time>
<desc>lat.=55.900131, lon.=26.528564, Alt.=100.579163m. Speed=13.212000m/h.</desc>
<speed>3.670000</speed>
</trkpt>
<trkpt lat="55.900116" lon="26.528610">
<ele>100.419006</ele>
<time>2010-07-18T14:18:12Z</time>
<desc>lat.=55.900116, lon.=26.528610, Alt.=100.419006m. Speed=10.224000m/h.</desc>
<speed>2.840000</speed>
</trkpt>
<trkpt lat="55.900116" lon="26.528645">
<ele>100.178772</ele>
<time>2010-07-18T14:18:13Z</time>
<desc>lat.=55.900116, lon.=26.528645, Alt.=100.178772m. Speed=5.760000m/h.</desc>
<speed>1.600000</speed>
</trkpt>
<trkpt lat="55.900124" lon="26.528673">
<ele>100.153381</ele>
<time>2010-07-18T14:18:14Z</time>
<desc>lat.=55.900124, lon.=26.528673, Alt.=100.153381m. Speed=3.600000m/h.</desc>
<speed>1.000000</speed>
</trkpt>
<trkpt lat="55.900127" lon="26.528679">
<ele>100.051819</ele>
<time>2010-07-18T14:18:15Z</time>
<desc>lat.=55.900127, lon.=26.528679, Alt.=100.051819m. Speed=2.916000m/h.</desc>
<speed>0.810000</speed>
</trkpt>
<trkpt lat="55.900127" lon="26.528677">
<ele>99.924866</ele>
<time>2010-07-18T14:18:16Z</time>
<desc>lat.=55.900127, lon.=26.528677, Alt.=99.924866m. Speed=0.900000m/h.</desc>
<speed>0.250000</speed>
</trkpt>
<trkpt lat="55.900131" lon="26.528688">
<ele>100.510803</ele>
<time>2010-07-18T14:18:17Z</time>
<desc>lat.=55.900131, lon.=26.528688, Alt.=100.510803m. Speed=0.828000m/h.</desc>
<speed>0.230000</speed>
</trkpt>
<trkpt lat="55.900124" lon="26.528700">
<ele>101.321350</ele>
<time>2010-07-18T14:18:18Z</time>
<desc>lat.=55.900124, lon.=26.528700, Alt.=101.321350m. Speed=0.576000m/h.</desc>
<speed>0.160000</speed>
</trkpt>
<trkpt lat="55.900124" lon="26.528698">
<ele>101.342834</ele>
<time>2010-07-18T14:18:19Z</time>
<desc>lat.=55.900124, lon.=26.528698, Alt.=101.342834m. Speed=0.180000m/h.</desc>
<speed>0.050000</speed>
</trkpt>
<trkpt lat="55.900124" lon="26.528698">
<ele>101.362366</ele>
<time>2010-07-18T14:18:20Z</time>
<desc>lat.=55.900124, lon.=26.528698, Alt.=101.362366m. Speed=0.144000m/h.</desc>
<speed>0.040000</speed>
</trkpt>
<trkpt lat="55.900124" lon="26.528700">
<ele>101.356506</ele>
<time>2010-07-18T14:18:21Z</time>
<desc>lat.=55.900124, lon.=26.528700, Alt.=101.356506m. Speed=0.036000m/h.</desc>
<speed>0.010000</speed>
</trkpt>
<trkpt lat="55.900124" lon="26.528700">
<ele>101.329163</ele>
<time>2010-07-18T14:18:22Z</time>
<desc>lat.=55.900124, lon.=26.528700, Alt.=101.329163m. Speed=0.216000m/h.</desc>
<speed>0.060000</speed>
</trkpt>
<trkpt lat="55.900124" lon="26.528700">
<ele>101.342834</ele>
<time>2010-07-18T14:18:23Z</time>
<desc>lat.=55.900124, lon.=26.528700, Alt.=101.342834m. Speed=0.072000m/h.</desc>
<speed>0.020000</speed>
</trkpt>
<trkpt lat="55.900124" lon="26.528700">
<ele>101.342834</ele>
<time>2010-07-18T14:18:24Z</time>
<desc>lat.=55.900124, lon.=26.528700, Alt.=101.342834m. Speed=0.072000m/h.</desc>
<speed>0.020000</speed>
</trkpt>
<trkpt lat="55.900124" lon="26.528702">
<ele>101.336975</ele>
<time>2010-07-18T14:18:25Z</time>
<desc>lat.=55.900124, lon.=26.528702, Alt.=101.336975m. Speed=0.108000m/h.</desc>
<speed>0.030000</speed>
</trkpt>
<trkpt lat="55.900124" lon="26.528700">
<ele>101.335022</ele>
<time>2010-07-18T14:18:26Z</time>
<desc>lat.=55.900124, lon.=26.528700, Alt.=101.335022m. Speed=0.324000m/h.</desc>
<speed>0.090000</speed>
</trkpt>
<trkpt lat="55.900127" lon="26.528702">
<ele>101.333069</ele>
<time>2010-07-18T14:18:27Z</time>
<desc>lat.=55.900127, lon.=26.528702, Alt.=101.333069m. Speed=0.072000m/h.</desc>
<speed>0.020000</speed>
</trkpt>
<trkpt lat="55.900127" lon="26.528702">
<ele>101.346741</ele>
<time>2010-07-18T14:18:28Z</time>
<desc>lat.=55.900127, lon.=26.528702, Alt.=101.346741m. Speed=0.324000m/h.</desc>
<speed>0.090000</speed>
</trkpt>
<trkpt lat="55.900127" lon="26.528700">
<ele>101.358459</ele>
<time>2010-07-18T14:18:29Z</time>
<desc>lat.=55.900127, lon.=26.528700, Alt.=101.358459m. Speed=0.504000m/h.</desc>
<speed>0.140000</speed>
</trkpt>
<trkpt lat="55.900127" lon="26.528700">
<ele>101.354553</ele>
<time>2010-07-18T14:18:30Z</time>
<desc>lat.=55.900127, lon.=26.528700, Alt.=101.354553m. Speed=0.684000m/h.</desc>
<speed>0.190000</speed>
</trkpt>
<trkpt lat="55.900124" lon="26.528702">
<ele>101.354553</ele>
<time>2010-07-18T14:18:31Z</time>
<desc>lat.=55.900124, lon.=26.528702, Alt.=101.354553m. Speed=0.252000m/h.</desc>
<speed>0.070000</speed>
</trkpt>
<trkpt lat="55.900124" lon="26.528700">
<ele>101.358459</ele>
<time>2010-07-18T14:18:32Z</time>
<desc>lat.=55.900124, lon.=26.528700, Alt.=101.358459m. Speed=0.396000m/h.</desc>
<speed>0.110000</speed>
</trkpt>
<trkpt lat="55.900124" lon="26.528702">
<ele>101.362366</ele>
<time>2010-07-18T14:18:33Z</time>
<desc>lat.=55.900124, lon.=26.528702, Alt.=101.362366m. Speed=0.288000m/h.</desc>
<speed>0.080000</speed>
</trkpt>
<trkpt lat="55.900124" lon="26.528702">
<ele>101.372131</ele>
<time>2010-07-18T14:18:34Z</time>
<desc>lat.=55.900124, lon.=26.528702, Alt.=101.372131m. Speed=0.972000m/h.</desc>
<speed>0.270000</speed>
</trkpt>
<trkpt lat="55.900127" lon="26.528700">
<ele>101.397522</ele>
<time>2010-07-18T14:18:35Z</time>
<desc>lat.=55.900127, lon.=26.528700, Alt.=101.397522m. Speed=1.764000m/h.</desc>
<speed>0.490000</speed>
</trkpt>
<trkpt lat="55.900131" lon="26.528696">
<ele>101.422913</ele>
<time>2010-07-18T14:18:36Z</time>
<desc>lat.=55.900131, lon.=26.528696, Alt.=101.422913m. Speed=1.692000m/h.</desc>
<speed>0.470000</speed>
</trkpt>
<trkpt lat="55.900135" lon="26.528696">
<ele>101.450256</ele>
<time>2010-07-18T14:18:37Z</time>
<desc>lat.=55.900135, lon.=26.528696, Alt.=101.450256m. Speed=1.404000m/h.</desc>
<speed>0.390000</speed>
</trkpt>
<trkpt lat="55.900139" lon="26.528694">
<ele>101.475647</ele>
<time>2010-07-18T14:18:38Z</time>
<desc>lat.=55.900139, lon.=26.528694, Alt.=101.475647m. Speed=2.664000m/h.</desc>
<speed>0.740000</speed>
</trkpt>
<trkpt lat="55.900143" lon="26.528704">
<ele>101.440491</ele>
<time>2010-07-18T14:18:39Z</time>
<desc>lat.=55.900143, lon.=26.528704, Alt.=101.440491m. Speed=1.800000m/h.</desc>
<speed>0.500000</speed>
</trkpt>
<trkpt lat="55.900143" lon="26.528709">
<ele>101.407288</ele>
<time>2010-07-18T14:18:40Z</time>
<desc>lat.=55.900143, lon.=26.528709, Alt.=101.407288m. Speed=1.512000m/h.</desc>
<speed>0.420000</speed>
</trkpt>
<trkpt lat="55.900146" lon="26.528715">
<ele>101.372131</ele>
<time>2010-07-18T14:18:41Z</time>
<desc>lat.=55.900146, lon.=26.528715, Alt.=101.372131m. Speed=1.080000m/h.</desc>
<speed>0.300000</speed>
</trkpt>
<trkpt lat="55.900146" lon="26.528719">
<ele>101.336975</ele>
<time>2010-07-18T14:18:42Z</time>
<desc>lat.=55.900146, lon.=26.528719, Alt.=101.336975m. Speed=0.792000m/h.</desc>
<speed>0.220000</speed>
</trkpt>
<trkpt lat="55.900150" lon="26.528723">
<ele>101.299866</ele>
<time>2010-07-18T14:18:43Z</time>
<desc>lat.=55.900150, lon.=26.528723, Alt.=101.299866m. Speed=0.576000m/h.</desc>
<speed>0.160000</speed>
</trkpt>
<trkpt lat="55.900150" lon="26.528725">
<ele>101.268616</ele>
<time>2010-07-18T14:18:44Z</time>
<desc>lat.=55.900150, lon.=26.528725, Alt.=101.268616m. Speed=0.288000m/h.</desc>
<speed>0.080000</speed>
</trkpt>
<trkpt lat="55.900150" lon="26.528725">
<ele>101.243225</ele>
<time>2010-07-18T14:18:45Z</time>
<desc>lat.=55.900150, lon.=26.528725, Alt.=101.243225m. Speed=0.468000m/h.</desc>
<speed>0.130000</speed>
</trkpt>
<trkpt lat="55.900150" lon="26.528727">
<ele>101.219788</ele>
<time>2010-07-18T14:18:46Z</time>
<desc>lat.=55.900150, lon.=26.528727, Alt.=101.219788m. Speed=0.468000m/h.</desc>
<speed>0.130000</speed>
</trkpt>
<trkpt lat="55.900150" lon="26.528728">
<ele>101.202209</ele>
<time>2010-07-18T14:18:47Z</time>
<desc>lat.=55.900150, lon.=26.528728, Alt.=101.202209m. Speed=0.072000m/h.</desc>
<speed>0.020000</speed>
</trkpt>
<trkpt lat="55.900150" lon="26.528728">
<ele>101.186584</ele>
<time>2010-07-18T14:18:48Z</time>
<desc>lat.=55.900150, lon.=26.528728, Alt.=101.186584m. Speed=0.144000m/h.</desc>
<speed>0.040000</speed>
</trkpt>
<trkpt lat="55.900150" lon="26.528728">
<ele>101.174866</ele>
<time>2010-07-18T14:18:49Z</time>
<desc>lat.=55.900150, lon.=26.528728, Alt.=101.174866m. Speed=0.360000m/h.</desc>
<speed>0.100000</speed>
</trkpt>
<trkpt lat="55.900154" lon="26.528730">
<ele>101.165100</ele>
<time>2010-07-18T14:18:50Z</time>
<desc>lat.=55.900154, lon.=26.528730, Alt.=101.165100m. Speed=0.504000m/h.</desc>
<speed>0.140000</speed>
</trkpt>
<trkpt lat="55.900154" lon="26.528734">
<ele>101.155334</ele>
<time>2010-07-18T14:18:51Z</time>
<desc>lat.=55.900154, lon.=26.528734, Alt.=101.155334m. Speed=1.404000m/h.</desc>
<speed>0.390000</speed>
</trkpt>
<trkpt lat="55.900154" lon="26.528738">
<ele>101.147522</ele>
<time>2010-07-18T14:18:52Z</time>
<desc>lat.=55.900154, lon.=26.528738, Alt.=101.147522m. Speed=1.656000m/h.</desc>
<speed>0.460000</speed>
</trkpt>
<trkpt lat="55.900158" lon="26.528744">
<ele>101.141663</ele>
<time>2010-07-18T14:18:53Z</time>
<desc>lat.=55.900158, lon.=26.528744, Alt.=101.141663m. Speed=1.620000m/h.</desc>
<speed>0.450000</speed>
</trkpt>
<trkpt lat="55.900162" lon="26.528749">
<ele>101.133850</ele>
<time>2010-07-18T14:18:54Z</time>
<desc>lat.=55.900162, lon.=26.528749, Alt.=101.133850m. Speed=1.692000m/h.</desc>
<speed>0.470000</speed>
</trkpt>
<trkpt lat="55.900166" lon="26.528755">
<ele>101.127991</ele>
<time>2010-07-18T14:18:55Z</time>
<desc>lat.=55.900166, lon.=26.528755, Alt.=101.127991m. Speed=1.728000m/h.</desc>
<speed>0.480000</speed>
</trkpt>
<trkpt lat="55.900169" lon="26.528761">
<ele>101.120178</ele>
<time>2010-07-18T14:18:56Z</time>
<desc>lat.=55.900169, lon.=26.528761, Alt.=101.120178m. Speed=1.872000m/h.</desc>
<speed>0.520000</speed>
</trkpt>
<trkpt lat="55.900173" lon="26.528767">
<ele>101.114319</ele>
<time>2010-07-18T14:18:57Z</time>
<desc>lat.=55.900173, lon.=26.528767, Alt.=101.114319m. Speed=2.484000m/h.</desc>
<speed>0.690000</speed>
</trkpt>
<trkpt lat="55.900177" lon="26.528774">
<ele>101.106506</ele>
<time>2010-07-18T14:18:58Z</time>
<desc>lat.=55.900177, lon.=26.528774, Alt.=101.106506m. Speed=2.664000m/h.</desc>
<speed>0.740000</speed>
</trkpt>
<trkpt lat="55.900181" lon="26.528784">
<ele>101.100647</ele>
<time>2010-07-18T14:18:59Z</time>
<desc>lat.=55.900181, lon.=26.528784, Alt.=101.100647m. Speed=2.808000m/h.</desc>
<speed>0.780000</speed>
</trkpt>
<trkpt lat="55.900185" lon="26.528793">
<ele>101.094788</ele>
<time>2010-07-18T14:19:00Z</time>
<desc>lat.=55.900185, lon.=26.528793, Alt.=101.094788m. Speed=2.880000m/h.</desc>
<speed>0.800000</speed>
</trkpt>
<trkpt lat="55.900188" lon="26.528803">
<ele>101.088928</ele>
<time>2010-07-18T14:19:01Z</time>
<desc>lat.=55.900188, lon.=26.528803, Alt.=101.088928m. Speed=2.916000m/h.</desc>
<speed>0.810000</speed>
</trkpt>
<trkpt lat="55.900196" lon="26.528811">
<ele>101.083069</ele>
<time>2010-07-18T14:19:02Z</time>
<desc>lat.=55.900196, lon.=26.528811, Alt.=101.083069m. Speed=2.736000m/h.</desc>
<speed>0.760000</speed>
</trkpt>
<trkpt lat="55.900200" lon="26.528818">
<ele>101.077209</ele>
<time>2010-07-18T14:19:03Z</time>
<desc>lat.=55.900200, lon.=26.528818, Alt.=101.077209m. Speed=2.916000m/h.</desc>
<speed>0.810000</speed>
</trkpt>
<trkpt lat="55.900208" lon="26.528826">
<ele>101.071350</ele>
<time>2010-07-18T14:19:04Z</time>
<desc>lat.=55.900208, lon.=26.528826, Alt.=101.071350m. Speed=3.132000m/h.</desc>
<speed>0.870000</speed>
</trkpt>
<trkpt lat="55.900215" lon="26.528833">
<ele>101.065491</ele>
<time>2010-07-18T14:19:05Z</time>
<desc>lat.=55.900215, lon.=26.528833, Alt.=101.065491m. Speed=3.348000m/h.</desc>
<speed>0.930000</speed>
</trkpt>
<trkpt lat="55.900223" lon="26.528841">
<ele>101.057678</ele>
<time>2010-07-18T14:19:06Z</time>
<desc>lat.=55.900223, lon.=26.528841, Alt.=101.057678m. Speed=2.880000m/h.</desc>
<speed>0.800000</speed>
</trkpt>
<trkpt lat="55.900230" lon="26.528845">
<ele>101.049866</ele>
<time>2010-07-18T14:19:07Z</time>
<desc>lat.=55.900230, lon.=26.528845, Alt.=101.049866m. Speed=3.024000m/h.</desc>
<speed>0.840000</speed>
</trkpt>
<trkpt lat="55.900238" lon="26.528847">
<ele>101.044006</ele>
<time>2010-07-18T14:19:08Z</time>
<desc>lat.=55.900238, lon.=26.528847, Alt.=101.044006m. Speed=2.700000m/h.</desc>
<speed>0.750000</speed>
</trkpt>
<trkpt lat="55.900242" lon="26.528851">
<ele>101.038147</ele>
<time>2010-07-18T14:19:09Z</time>
<desc>lat.=55.900242, lon.=26.528851, Alt.=101.038147m. Speed=2.412000m/h.</desc>
<speed>0.670000</speed>
</trkpt>
<trkpt lat="55.900249" lon="26.528852">
<ele>101.032288</ele>
<time>2010-07-18T14:19:10Z</time>
<desc>lat.=55.900249, lon.=26.528852, Alt.=101.032288m. Speed=2.340000m/h.</desc>
<speed>0.650000</speed>
</trkpt>
<trkpt lat="55.900253" lon="26.528854">
<ele>101.024475</ele>
<time>2010-07-18T14:19:11Z</time>
<desc>lat.=55.900253, lon.=26.528854, Alt.=101.024475m. Speed=2.376000m/h.</desc>
<speed>0.660000</speed>
</trkpt>
<trkpt lat="55.900261" lon="26.528858">
<ele>101.016663</ele>
<time>2010-07-18T14:19:12Z</time>
<desc>lat.=55.900261, lon.=26.528858, Alt.=101.016663m. Speed=1.908000m/h.</desc>
<speed>0.530000</speed>
</trkpt>
<trkpt lat="55.900265" lon="26.528860">
<ele>101.008850</ele>
<time>2010-07-18T14:19:13Z</time>
<desc>lat.=55.900265, lon.=26.528860, Alt.=101.008850m. Speed=1.332000m/h.</desc>
<speed>0.370000</speed>
</trkpt>
<trkpt lat="55.900269" lon="26.528862">
<ele>101.001038</ele>
<time>2010-07-18T14:19:14Z</time>
<desc>lat.=55.900269, lon.=26.528862, Alt.=101.001038m. Speed=1.296000m/h.</desc>
<speed>0.360000</speed>
</trkpt>
<trkpt lat="55.900272" lon="26.528866">
<ele>100.989319</ele>
<time>2010-07-18T14:19:15Z</time>
<desc>lat.=55.900272, lon.=26.528866, Alt.=100.989319m. Speed=1.260000m/h.</desc>
<speed>0.350000</speed>
</trkpt>
<trkpt lat="55.900272" lon="26.528870">
<ele>100.979553</ele>
<time>2010-07-18T14:19:16Z</time>
<desc>lat.=55.900272, lon.=26.528870, Alt.=100.979553m. Speed=1.152000m/h.</desc>
<speed>0.320000</speed>
</trkpt>
<trkpt lat="55.900276" lon="26.528873">
<ele>100.969788</ele>
<time>2010-07-18T14:19:17Z</time>
<desc>lat.=55.900276, lon.=26.528873, Alt.=100.969788m. Speed=1.512000m/h.</desc>
<speed>0.420000</speed>
</trkpt>
<trkpt lat="55.900276" lon="26.528879">
<ele>100.960022</ele>
<time>2010-07-18T14:19:18Z</time>
<desc>lat.=55.900276, lon.=26.528879, Alt.=100.960022m. Speed=1.080000m/h.</desc>
<speed>0.300000</speed>
</trkpt>
<trkpt lat="55.900280" lon="26.528881">
<ele>100.950256</ele>
<time>2010-07-18T14:19:19Z</time>
<desc>lat.=55.900280, lon.=26.528881, Alt.=100.950256m. Speed=1.872000m/h.</desc>
<speed>0.520000</speed>
</trkpt>
<trkpt lat="55.900284" lon="26.528883">
<ele>100.940491</ele>
<time>2010-07-18T14:19:20Z</time>
<desc>lat.=55.900284, lon.=26.528883, Alt.=100.940491m. Speed=1.692000m/h.</desc>
<speed>0.470000</speed>
</trkpt>
<trkpt lat="55.900291" lon="26.528885">
<ele>100.930725</ele>
<time>2010-07-18T14:19:21Z</time>
<desc>lat.=55.900291, lon.=26.528885, Alt.=100.930725m. Speed=1.476000m/h.</desc>
<speed>0.410000</speed>
</trkpt>
<trkpt lat="55.900295" lon="26.528885">
<ele>100.919006</ele>
<time>2010-07-18T14:19:22Z</time>
<desc>lat.=55.900295, lon.=26.528885, Alt.=100.919006m. Speed=2.016000m/h.</desc>
<speed>0.560000</speed>
</trkpt>
<trkpt lat="55.900299" lon="26.528885">
<ele>100.909241</ele>
<time>2010-07-18T14:19:23Z</time>
<desc>lat.=55.900299, lon.=26.528885, Alt.=100.909241m. Speed=2.052000m/h.</desc>
<speed>0.570000</speed>
</trkpt>
<trkpt lat="55.900303" lon="26.528885">
<ele>100.901428</ele>
<time>2010-07-18T14:19:24Z</time>
<desc>lat.=55.900303, lon.=26.528885, Alt.=100.901428m. Speed=2.124000m/h.</desc>
<speed>0.590000</speed>
</trkpt>
<trkpt lat="55.900311" lon="26.528885">
<ele>100.891663</ele>
<time>2010-07-18T14:19:25Z</time>
<desc>lat.=55.900311, lon.=26.528885, Alt.=100.891663m. Speed=2.340000m/h.</desc>
<speed>0.650000</speed>
</trkpt>
<trkpt lat="55.900314" lon="26.528889">
<ele>100.883850</ele>
<time>2010-07-18T14:19:26Z</time>
<desc>lat.=55.900314, lon.=26.528889, Alt.=100.883850m. Speed=2.628000m/h.</desc>
<speed>0.730000</speed>
</trkpt>
<trkpt lat="55.900322" lon="26.528894">
<ele>100.877991</ele>
<time>2010-07-18T14:19:27Z</time>
<desc>lat.=55.900322, lon.=26.528894, Alt.=100.877991m. Speed=2.304000m/h.</desc>
<speed>0.640000</speed>
</trkpt>
<trkpt lat="55.900326" lon="26.528900">
<ele>100.874084</ele>
<time>2010-07-18T14:19:28Z</time>
<desc>lat.=55.900326, lon.=26.528900, Alt.=100.874084m. Speed=1.116000m/h.</desc>
<speed>0.310000</speed>
</trkpt>
<trkpt lat="55.900326" lon="26.528904">
<ele>100.868225</ele>
<time>2010-07-18T14:19:29Z</time>
<desc>lat.=55.900326, lon.=26.528904, Alt.=100.868225m. Speed=1.116000m/h.</desc>
<speed>0.310000</speed>
</trkpt>
<trkpt lat="55.900330" lon="26.528908">
<ele>100.864319</ele>
<time>2010-07-18T14:19:30Z</time>
<desc>lat.=55.900330, lon.=26.528908, Alt.=100.864319m. Speed=1.188000m/h.</desc>
<speed>0.330000</speed>
</trkpt>
<trkpt lat="55.900330" lon="26.528913">
<ele>100.858459</ele>
<time>2010-07-18T14:19:31Z</time>
<desc>lat.=55.900330, lon.=26.528913, Alt.=100.858459m. Speed=1.224000m/h.</desc>
<speed>0.340000</speed>
</trkpt>
<trkpt lat="55.900330" lon="26.528919">
<ele>100.850647</ele>
<time>2010-07-18T14:19:32Z</time>
<desc>lat.=55.900330, lon.=26.528919, Alt.=100.850647m. Speed=1.188000m/h.</desc>
<speed>0.330000</speed>
</trkpt>
<trkpt lat="55.900330" lon="26.528925">
<ele>100.844788</ele>
<time>2010-07-18T14:19:33Z</time>
<desc>lat.=55.900330, lon.=26.528925, Alt.=100.844788m. Speed=1.296000m/h.</desc>
<speed>0.360000</speed>
</trkpt>
<trkpt lat="55.900330" lon="26.528931">
<ele>100.836975</ele>
<time>2010-07-18T14:19:34Z</time>
<desc>lat.=55.900330, lon.=26.528931, Alt.=100.836975m. Speed=1.476000m/h.</desc>
<speed>0.410000</speed>
</trkpt>
<trkpt lat="55.900330" lon="26.528936">
<ele>100.831116</ele>
<time>2010-07-18T14:19:35Z</time>
<desc>lat.=55.900330, lon.=26.528936, Alt.=100.831116m. Speed=1.728000m/h.</desc>
<speed>0.480000</speed>
</trkpt>
<trkpt lat="55.900330" lon="26.528944">
<ele>100.825256</ele>
<time>2010-07-18T14:19:36Z</time>
<desc>lat.=55.900330, lon.=26.528944, Alt.=100.825256m. Speed=1.872000m/h.</desc>
<speed>0.520000</speed>
</trkpt>
<trkpt lat="55.900333" lon="26.528952">
<ele>100.817444</ele>
<time>2010-07-18T14:19:37Z</time>
<desc>lat.=55.900333, lon.=26.528952, Alt.=100.817444m. Speed=1.980000m/h.</desc>
<speed>0.550000</speed>
</trkpt>
<trkpt lat="55.900333" lon="26.528959">
<ele>100.811584</ele>
<time>2010-07-18T14:19:38Z</time>
<desc>lat.=55.900333, lon.=26.528959, Alt.=100.811584m. Speed=1.584000m/h.</desc>
<speed>0.440000</speed>
</trkpt>
<trkpt lat="55.900337" lon="26.528963">
<ele>100.805725</ele>
<time>2010-07-18T14:19:39Z</time>
<desc>lat.=55.900337, lon.=26.528963, Alt.=100.805725m. Speed=2.952000m/h.</desc>
<speed>0.820000</speed>
</trkpt>
<trkpt lat="55.900345" lon="26.528967">
<ele>100.797913</ele>
<time>2010-07-18T14:19:40Z</time>
<desc>lat.=55.900345, lon.=26.528967, Alt.=100.797913m. Speed=3.096000m/h.</desc>
<speed>0.860000</speed>
</trkpt>
<trkpt lat="55.900352" lon="26.528971">
<ele>100.792053</ele>
<time>2010-07-18T14:19:41Z</time>
<desc>lat.=55.900352, lon.=26.528971, Alt.=100.792053m. Speed=2.952000m/h.</desc>
<speed>0.820000</speed>
</trkpt>
<trkpt lat="55.900360" lon="26.528973">
<ele>100.786194</ele>
<time>2010-07-18T14:19:42Z</time>
<desc>lat.=55.900360, lon.=26.528973, Alt.=100.786194m. Speed=2.412000m/h.</desc>
<speed>0.670000</speed>
</trkpt>
<trkpt lat="55.900368" lon="26.528973">
<ele>100.782288</ele>
<time>2010-07-18T14:19:43Z</time>
<desc>lat.=55.900368, lon.=26.528973, Alt.=100.782288m. Speed=2.232000m/h.</desc>
<speed>0.620000</speed>
</trkpt>
<trkpt lat="55.900372" lon="26.528973">
<ele>100.778381</ele>
<time>2010-07-18T14:19:44Z</time>
<desc>lat.=55.900372, lon.=26.528973, Alt.=100.778381m. Speed=1.764000m/h.</desc>
<speed>0.490000</speed>
</trkpt>
<trkpt lat="55.900375" lon="26.528971">
<ele>100.776428</ele>
<time>2010-07-18T14:19:45Z</time>
<desc>lat.=55.900375, lon.=26.528971, Alt.=100.776428m. Speed=1.764000m/h.</desc>
<speed>0.490000</speed>
</trkpt>
<trkpt lat="55.900379" lon="26.528969">
<ele>100.774475</ele>
<time>2010-07-18T14:19:46Z</time>
<desc>lat.=55.900379, lon.=26.528969, Alt.=100.774475m. Speed=1.188000m/h.</desc>
<speed>0.330000</speed>
</trkpt>
<trkpt lat="55.900383" lon="26.528967">
<ele>100.776428</ele>
<time>2010-07-18T14:19:47Z</time>
<desc>lat.=55.900383, lon.=26.528967, Alt.=100.776428m. Speed=1.116000m/h.</desc>
<speed>0.310000</speed>
</trkpt>
<trkpt lat="55.900387" lon="26.528965">
<ele>100.776428</ele>
<time>2010-07-18T14:19:48Z</time>
<desc>lat.=55.900387, lon.=26.528965, Alt.=100.776428m. Speed=0.864000m/h.</desc>
<speed>0.240000</speed>
</trkpt>
<trkpt lat="55.900387" lon="26.528963">
<ele>100.776428</ele>
<time>2010-07-18T14:19:49Z</time>
<desc>lat.=55.900387, lon.=26.528963, Alt.=100.776428m. Speed=1.008000m/h.</desc>
<speed>0.280000</speed>
</trkpt>
<trkpt lat="55.900391" lon="26.528963">
<ele>100.778381</ele>
<time>2010-07-18T14:19:50Z</time>
<desc>lat.=55.900391, lon.=26.528963, Alt.=100.778381m. Speed=1.548000m/h.</desc>
<speed>0.430000</speed>
</trkpt>
<trkpt lat="55.900394" lon="26.528965">
<ele>100.780334</ele>
<time>2010-07-18T14:19:51Z</time>
<desc>lat.=55.900394, lon.=26.528965, Alt.=100.780334m. Speed=1.368000m/h.</desc>
<speed>0.380000</speed>
</trkpt>
<trkpt lat="55.900398" lon="26.528967">
<ele>100.780334</ele>
<time>2010-07-18T14:19:52Z</time>
<desc>lat.=55.900398, lon.=26.528967, Alt.=100.780334m. Speed=2.124000m/h.</desc>
<speed>0.590000</speed>
</trkpt>
<trkpt lat="55.900402" lon="26.528969">
<ele>100.782288</ele>
<time>2010-07-18T14:19:53Z</time>
<desc>lat.=55.900402, lon.=26.528969, Alt.=100.782288m. Speed=2.268000m/h.</desc>
<speed>0.630000</speed>
</trkpt>
<trkpt lat="55.900406" lon="26.528973">
<ele>100.784241</ele>
<time>2010-07-18T14:19:54Z</time>
<desc>lat.=55.900406, lon.=26.528973, Alt.=100.784241m. Speed=2.304000m/h.</desc>
<speed>0.640000</speed>
</trkpt>
<trkpt lat="55.900414" lon="26.528976">
<ele>100.786194</ele>
<time>2010-07-18T14:19:55Z</time>
<desc>lat.=55.900414, lon.=26.528976, Alt.=100.786194m. Speed=2.304000m/h.</desc>
<speed>0.640000</speed>
</trkpt>
<trkpt lat="55.900417" lon="26.528980">
<ele>100.790100</ele>
<time>2010-07-18T14:19:56Z</time>
<desc>lat.=55.900417, lon.=26.528980, Alt.=100.790100m. Speed=1.908000m/h.</desc>
<speed>0.530000</speed>
</trkpt>
<trkpt lat="55.900421" lon="26.528984">
<ele>100.794006</ele>
<time>2010-07-18T14:19:57Z</time>
<desc>lat.=55.900421, lon.=26.528984, Alt.=100.794006m. Speed=0.792000m/h.</desc>
<speed>0.220000</speed>
</trkpt>
<trkpt lat="55.900425" lon="26.528986">
<ele>100.795959</ele>
<time>2010-07-18T14:19:58Z</time>
<desc>lat.=55.900425, lon.=26.528986, Alt.=100.795959m. Speed=0.468000m/h.</desc>
<speed>0.130000</speed>
</trkpt>
<trkpt lat="55.900425" lon="26.528988">
<ele>100.797913</ele>
<time>2010-07-18T14:19:59Z</time>
<desc>lat.=55.900425, lon.=26.528988, Alt.=100.797913m. Speed=0.684000m/h.</desc>
<speed>0.190000</speed>
</trkpt>
<trkpt lat="55.900425" lon="26.528992">
<ele>100.799866</ele>
<time>2010-07-18T14:20:00Z</time>
<desc>lat.=55.900425, lon.=26.528992, Alt.=100.799866m. Speed=1.224000m/h.</desc>
<speed>0.340000</speed>
</trkpt>
<trkpt lat="55.900425" lon="26.528997">
<ele>100.799866</ele>
<time>2010-07-18T14:20:01Z</time>
<desc>lat.=55.900425, lon.=26.528997, Alt.=100.799866m. Speed=1.260000m/h.</desc>
<speed>0.350000</speed>
</trkpt>
<trkpt lat="55.900425" lon="26.529003">
<ele>100.801819</ele>
<time>2010-07-18T14:20:02Z</time>
<desc>lat.=55.900425, lon.=26.529003, Alt.=100.801819m. Speed=1.368000m/h.</desc>
<speed>0.380000</speed>
</trkpt>
<trkpt lat="55.900425" lon="26.529009">
<ele>100.803772</ele>
<time>2010-07-18T14:20:03Z</time>
<desc>lat.=55.900425, lon.=26.529009, Alt.=100.803772m. Speed=1.548000m/h.</desc>
<speed>0.430000</speed>
</trkpt>
<trkpt lat="55.900425" lon="26.529016">
<ele>100.805725</ele>
<time>2010-07-18T14:20:04Z</time>
<desc>lat.=55.900425, lon.=26.529016, Alt.=100.805725m. Speed=1.908000m/h.</desc>
<speed>0.530000</speed>
</trkpt>
<trkpt lat="55.900425" lon="26.529024">
<ele>100.807678</ele>
<time>2010-07-18T14:20:05Z</time>
<desc>lat.=55.900425, lon.=26.529024, Alt.=100.807678m. Speed=1.692000m/h.</desc>
<speed>0.470000</speed>
</trkpt>
<trkpt lat="55.900425" lon="26.529032">
<ele>100.809631</ele>
<time>2010-07-18T14:20:06Z</time>
<desc>lat.=55.900425, lon.=26.529032, Alt.=100.809631m. Speed=1.188000m/h.</desc>
<speed>0.330000</speed>
</trkpt>
<trkpt lat="55.900425" lon="26.529037">
<ele>100.811584</ele>
<time>2010-07-18T14:20:07Z</time>
<desc>lat.=55.900425, lon.=26.529037, Alt.=100.811584m. Speed=1.224000m/h.</desc>
<speed>0.340000</speed>
</trkpt>
<trkpt lat="55.900429" lon="26.529041">
<ele>100.813538</ele>
<time>2010-07-18T14:20:08Z</time>
<desc>lat.=55.900429, lon.=26.529041, Alt.=100.813538m. Speed=1.044000m/h.</desc>
<speed>0.290000</speed>
</trkpt>
<trkpt lat="55.900429" lon="26.529045">
<ele>100.815491</ele>
<time>2010-07-18T14:20:09Z</time>
<desc>lat.=55.900429, lon.=26.529045, Alt.=100.815491m. Speed=0.648000m/h.</desc>
<speed>0.180000</speed>
</trkpt>
<trkpt lat="55.900429" lon="26.529047">
<ele>100.815491</ele>
<time>2010-07-18T14:20:10Z</time>
<desc>lat.=55.900429, lon.=26.529047, Alt.=100.815491m. Speed=0.720000m/h.</desc>
<speed>0.200000</speed>
</trkpt>
<trkpt lat="55.900429" lon="26.529049">
<ele>100.815491</ele>
<time>2010-07-18T14:20:11Z</time>
<desc>lat.=55.900429, lon.=26.529049, Alt.=100.815491m. Speed=0.756000m/h.</desc>
<speed>0.210000</speed>
</trkpt>
<trkpt lat="55.900433" lon="26.529053">
<ele>100.817444</ele>
<time>2010-07-18T14:20:12Z</time>
<desc>lat.=55.900433, lon.=26.529053, Alt.=100.817444m. Speed=0.756000m/h.</desc>
<speed>0.210000</speed>
</trkpt>
<trkpt lat="55.900433" lon="26.529055">
<ele>100.819397</ele>
<time>2010-07-18T14:20:13Z</time>
<desc>lat.=55.900433, lon.=26.529055, Alt.=100.819397m. Speed=0.720000m/h.</desc>
<speed>0.200000</speed>
</trkpt>
<trkpt lat="55.900433" lon="26.529058">
<ele>100.821350</ele>
<time>2010-07-18T14:20:14Z</time>
<desc>lat.=55.900433, lon.=26.529058, Alt.=100.821350m. Speed=0.468000m/h.</desc>
<speed>0.130000</speed>
</trkpt>
<trkpt lat="55.900433" lon="26.529060">
<ele>100.823303</ele>
<time>2010-07-18T14:20:15Z</time>
<desc>lat.=55.900433, lon.=26.529060, Alt.=100.823303m. Speed=0.360000m/h.</desc>
<speed>0.100000</speed>
</trkpt>
<trkpt lat="55.900433" lon="26.529060">
<ele>100.825256</ele>
<time>2010-07-18T14:20:16Z</time>
<desc>lat.=55.900433, lon.=26.529060, Alt.=100.825256m. Speed=0.972000m/h.</desc>
<speed>0.270000</speed>
</trkpt>
<trkpt lat="55.900436" lon="26.529062">
<ele>100.827209</ele>
<time>2010-07-18T14:20:17Z</time>
<desc>lat.=55.900436, lon.=26.529062, Alt.=100.827209m. Speed=0.612000m/h.</desc>
<speed>0.170000</speed>
</trkpt>
<trkpt lat="55.900436" lon="26.529062">
<ele>100.829163</ele>
<time>2010-07-18T14:20:18Z</time>
<desc>lat.=55.900436, lon.=26.529062, Alt.=100.829163m. Speed=0.324000m/h.</desc>
<speed>0.090000</speed>
</trkpt>
<trkpt lat="55.900436" lon="26.529062">
<ele>100.833069</ele>
<time>2010-07-18T14:20:19Z</time>
<desc>lat.=55.900436, lon.=26.529062, Alt.=100.833069m. Speed=0.288000m/h.</desc>
<speed>0.080000</speed>
</trkpt>
<trkpt lat="55.900436" lon="26.529062">
<ele>100.835022</ele>
<time>2010-07-18T14:20:20Z</time>
<desc>lat.=55.900436, lon.=26.529062, Alt.=100.835022m. Speed=0.612000m/h.</desc>
<speed>0.170000</speed>
</trkpt>
<trkpt lat="55.900440" lon="26.529062">
<ele>100.836975</ele>
<time>2010-07-18T14:20:21Z</time>
<desc>lat.=55.900440, lon.=26.529062, Alt.=100.836975m. Speed=0.648000m/h.</desc>
<speed>0.180000</speed>
</trkpt>
<trkpt lat="55.900440" lon="26.529062">
<ele>100.840881</ele>
<time>2010-07-18T14:20:22Z</time>
<desc>lat.=55.900440, lon.=26.529062, Alt.=100.840881m. Speed=0.540000m/h.</desc>
<speed>0.150000</speed>
</trkpt>
<trkpt lat="55.900444" lon="26.529062">
<ele>100.842834</ele>
<time>2010-07-18T14:20:23Z</time>
<desc>lat.=55.900444, lon.=26.529062, Alt.=100.842834m. Speed=0.504000m/h.</desc>
<speed>0.140000</speed>
</trkpt>
<trkpt lat="55.900444" lon="26.529062">
<ele>100.844788</ele>
<time>2010-07-18T14:20:24Z</time>
<desc>lat.=55.900444, lon.=26.529062, Alt.=100.844788m. Speed=0.432000m/h.</desc>
<speed>0.120000</speed>
</trkpt>
<trkpt lat="55.900444" lon="26.529062">
<ele>100.848694</ele>
<time>2010-07-18T14:20:25Z</time>
<desc>lat.=55.900444, lon.=26.529062, Alt.=100.848694m. Speed=0.108000m/h.</desc>
<speed>0.030000</speed>
</trkpt>
<trkpt lat="55.900444" lon="26.529062">
<ele>100.852600</ele>
<time>2010-07-18T14:20:26Z</time>
<desc>lat.=55.900444, lon.=26.529062, Alt.=100.852600m. Speed=0.288000m/h.</desc>
<speed>0.080000</speed>
</trkpt>
<trkpt lat="55.900444" lon="26.529062">
<ele>100.856506</ele>
<time>2010-07-18T14:20:27Z</time>
<desc>lat.=55.900444, lon.=26.529062, Alt.=100.856506m. Speed=0.252000m/h.</desc>
<speed>0.070000</speed>
</trkpt>
<trkpt lat="55.900444" lon="26.529060">
<ele>100.858459</ele>
<time>2010-07-18T14:20:28Z</time>
<desc>lat.=55.900444, lon.=26.529060, Alt.=100.858459m. Speed=0.468000m/h.</desc>
<speed>0.130000</speed>
</trkpt>
<trkpt lat="55.900444" lon="26.529060">
<ele>100.860413</ele>
<time>2010-07-18T14:20:29Z</time>
<desc>lat.=55.900444, lon.=26.529060, Alt.=100.860413m. Speed=0.468000m/h.</desc>
<speed>0.130000</speed>
</trkpt>
<trkpt lat="55.900440" lon="26.529062">
<ele>100.862366</ele>
<time>2010-07-18T14:20:30Z</time>
<desc>lat.=55.900440, lon.=26.529062, Alt.=100.862366m. Speed=0.612000m/h.</desc>
<speed>0.170000</speed>
</trkpt>
<trkpt lat="55.900440" lon="26.529064">
<ele>100.864319</ele>
<time>2010-07-18T14:20:31Z</time>
<desc>lat.=55.900440, lon.=26.529064, Alt.=100.864319m. Speed=0.324000m/h.</desc>
<speed>0.090000</speed>
</trkpt>
<trkpt lat="55.900440" lon="26.529064">
<ele>100.866272</ele>
<time>2010-07-18T14:20:32Z</time>
<desc>lat.=55.900440, lon.=26.529064, Alt.=100.866272m. Speed=0.324000m/h.</desc>
<speed>0.090000</speed>
</trkpt>
<trkpt lat="55.900440" lon="26.529066">
<ele>100.868225</ele>
<time>2010-07-18T14:20:33Z</time>
<desc>lat.=55.900440, lon.=26.529066, Alt.=100.868225m. Speed=0.576000m/h.</desc>
<speed>0.160000</speed>
</trkpt>
<trkpt lat="55.900436" lon="26.529068">
<ele>100.870178</ele>
<time>2010-07-18T14:20:34Z</time>
<desc>lat.=55.900436, lon.=26.529068, Alt.=100.870178m. Speed=0.900000m/h.</desc>
<speed>0.250000</speed>
</trkpt>
<trkpt lat="55.900436" lon="26.529068">
<ele>100.870178</ele>
<time>2010-07-18T14:20:35Z</time>
<desc>lat.=55.900436, lon.=26.529068, Alt.=100.870178m. Speed=0.540000m/h.</desc>
<speed>0.150000</speed>
</trkpt>
<trkpt lat="55.900436" lon="26.529066">
<ele>100.870178</ele>
<time>2010-07-18T14:20:36Z</time>
<desc>lat.=55.900436, lon.=26.529066, Alt.=100.870178m. Speed=0.612000m/h.</desc>
<speed>0.170000</speed>
</trkpt>
<trkpt lat="55.900433" lon="26.529064">
<ele>100.870178</ele>
<time>2010-07-18T14:20:37Z</time>
<desc>lat.=55.900433, lon.=26.529064, Alt.=100.870178m. Speed=0.612000m/h.</desc>
<speed>0.170000</speed>
</trkpt>
<trkpt lat="55.900433" lon="26.529062">
<ele>100.870178</ele>
<time>2010-07-18T14:20:38Z</time>
<desc>lat.=55.900433, lon.=26.529062, Alt.=100.870178m. Speed=0.792000m/h.</desc>
<speed>0.220000</speed>
</trkpt>
<trkpt lat="55.900433" lon="26.529058">
<ele>100.870178</ele>
<time>2010-07-18T14:20:39Z</time>
<desc>lat.=55.900433, lon.=26.529058, Alt.=100.870178m. Speed=0.972000m/h.</desc>
<speed>0.270000</speed>
</trkpt>
<trkpt lat="55.900429" lon="26.529057">
<ele>100.870178</ele>
<time>2010-07-18T14:20:40Z</time>
<desc>lat.=55.900429, lon.=26.529057, Alt.=100.870178m. Speed=1.188000m/h.</desc>
<speed>0.330000</speed>
</trkpt>
<trkpt lat="55.900429" lon="26.529053">
<ele>100.870178</ele>
<time>2010-07-18T14:20:41Z</time>
<desc>lat.=55.900429, lon.=26.529053, Alt.=100.870178m. Speed=1.368000m/h.</desc>
<speed>0.380000</speed>
</trkpt>
<trkpt lat="55.900425" lon="26.529049">
<ele>100.870178</ele>
<time>2010-07-18T14:20:42Z</time>
<desc>lat.=55.900425, lon.=26.529049, Alt.=100.870178m. Speed=1.548000m/h.</desc>
<speed>0.430000</speed>
</trkpt>
<trkpt lat="55.900421" lon="26.529045">
<ele>100.872131</ele>
<time>2010-07-18T14:20:43Z</time>
<desc>lat.=55.900421, lon.=26.529045, Alt.=100.872131m. Speed=1.728000m/h.</desc>
<speed>0.480000</speed>
</trkpt>
<trkpt lat="55.900417" lon="26.529041">
<ele>100.872131</ele>
<time>2010-07-18T14:20:44Z</time>
<desc>lat.=55.900417, lon.=26.529041, Alt.=100.872131m. Speed=1.620000m/h.</desc>
<speed>0.450000</speed>
</trkpt>
<trkpt lat="55.900414" lon="26.529036">
<ele>100.872131</ele>
<time>2010-07-18T14:20:45Z</time>
<desc>lat.=55.900414, lon.=26.529036, Alt.=100.872131m. Speed=1.152000m/h.</desc>
<speed>0.320000</speed>
</trkpt>
<trkpt lat="55.900410" lon="26.529032">
<ele>100.874084</ele>
<time>2010-07-18T14:20:46Z</time>
<desc>lat.=55.900410, lon.=26.529032, Alt.=100.874084m. Speed=0.972000m/h.</desc>
<speed>0.270000</speed>
</trkpt>
<trkpt lat="55.900410" lon="26.529028">
<ele>100.876038</ele>
<time>2010-07-18T14:20:47Z</time>
<desc>lat.=55.900410, lon.=26.529028, Alt.=100.876038m. Speed=0.540000m/h.</desc>
<speed>0.150000</speed>
</trkpt>
<trkpt lat="55.900410" lon="26.529024">
<ele>100.879944</ele>
<time>2010-07-18T14:20:48Z</time>
<desc>lat.=55.900410, lon.=26.529024, Alt.=100.879944m. Speed=0.792000m/h.</desc>
<speed>0.220000</speed>
</trkpt>
<trkpt lat="55.900406" lon="26.529020">
<ele>100.885803</ele>
<time>2010-07-18T14:20:49Z</time>
<desc>lat.=55.900406, lon.=26.529020, Alt.=100.885803m. Speed=1.044000m/h.</desc>
<speed>0.290000</speed>
</trkpt>
<trkpt lat="55.900406" lon="26.529016">
<ele>100.889709</ele>
<time>2010-07-18T14:20:50Z</time>
<desc>lat.=55.900406, lon.=26.529016, Alt.=100.889709m. Speed=0.972000m/h.</desc>
<speed>0.270000</speed>
</trkpt>
<trkpt lat="55.900402" lon="26.529013">
<ele>100.895569</ele>
<time>2010-07-18T14:20:51Z</time>
<desc>lat.=55.900402, lon.=26.529013, Alt.=100.895569m. Speed=0.756000m/h.</desc>
<speed>0.210000</speed>
</trkpt>
<trkpt lat="55.900402" lon="26.529011">
<ele>100.903381</ele>
<time>2010-07-18T14:20:52Z</time>
<desc>lat.=55.900402, lon.=26.529011, Alt.=100.903381m. Speed=0.936000m/h.</desc>
<speed>0.260000</speed>
</trkpt>
<trkpt lat="55.900398" lon="26.529007">
<ele>100.909241</ele>
<time>2010-07-18T14:20:53Z</time>
<desc>lat.=55.900398, lon.=26.529007, Alt.=100.909241m. Speed=0.684000m/h.</desc>
<speed>0.190000</speed>
</trkpt>
<trkpt lat="55.900394" lon="26.529003">
<ele>100.913147</ele>
<time>2010-07-18T14:20:54Z</time>
<desc>lat.=55.900394, lon.=26.529003, Alt.=100.913147m. Speed=0.576000m/h.</desc>
<speed>0.160000</speed>
</trkpt>
<trkpt lat="55.900394" lon="26.529001">
<ele>100.915100</ele>
<time>2010-07-18T14:20:55Z</time>
<desc>lat.=55.900394, lon.=26.529001, Alt.=100.915100m. Speed=0.504000m/h.</desc>
<speed>0.140000</speed>
</trkpt>
<trkpt lat="55.900394" lon="26.528999">
<ele>100.919006</ele>
<time>2010-07-18T14:20:56Z</time>
<desc>lat.=55.900394, lon.=26.528999, Alt.=100.919006m. Speed=0.432000m/h.</desc>
<speed>0.120000</speed>
</trkpt>
<trkpt lat="55.900391" lon="26.528997">
<ele>100.919006</ele>
<time>2010-07-18T14:20:57Z</time>
<desc>lat.=55.900391, lon.=26.528997, Alt.=100.919006m. Speed=0.432000m/h.</desc>
<speed>0.120000</speed>
</trkpt>
<trkpt lat="55.900391" lon="26.528996">
<ele>100.920959</ele>
<time>2010-07-18T14:20:58Z</time>
<desc>lat.=55.900391, lon.=26.528996, Alt.=100.920959m. Speed=0.756000m/h.</desc>
<speed>0.210000</speed>
</trkpt>
<trkpt lat="55.900391" lon="26.528994">
<ele>100.924866</ele>
<time>2010-07-18T14:20:59Z</time>
<desc>lat.=55.900391, lon.=26.528994, Alt.=100.924866m. Speed=0.396000m/h.</desc>
<speed>0.110000</speed>
</trkpt>
<trkpt lat="55.900391" lon="26.528992">
<ele>100.926819</ele>
<time>2010-07-18T14:21:00Z</time>
<desc>lat.=55.900391, lon.=26.528992, Alt.=100.926819m. Speed=0.540000m/h.</desc>
<speed>0.150000</speed>
</trkpt>
<trkpt lat="55.900387" lon="26.528992">
<ele>100.930725</ele>
<time>2010-07-18T14:21:01Z</time>
<desc>lat.=55.900387, lon.=26.528992, Alt.=100.930725m. Speed=0.252000m/h.</desc>
<speed>0.070000</speed>
</trkpt>
<trkpt lat="55.900387" lon="26.528990">
<ele>100.932678</ele>
<time>2010-07-18T14:21:02Z</time>
<desc>lat.=55.900387, lon.=26.528990, Alt.=100.932678m. Speed=0.396000m/h.</desc>
<speed>0.110000</speed>
</trkpt>
<trkpt lat="55.900387" lon="26.528988">
<ele>100.934631</ele>
<time>2010-07-18T14:21:03Z</time>
<desc>lat.=55.900387, lon.=26.528988, Alt.=100.934631m. Speed=0.468000m/h.</desc>
<speed>0.130000</speed>
</trkpt>
<trkpt lat="55.900387" lon="26.528986">
<ele>100.936584</ele>
<time>2010-07-18T14:21:04Z</time>
<desc>lat.=55.900387, lon.=26.528986, Alt.=100.936584m. Speed=1.152000m/h.</desc>
<speed>0.320000</speed>
</trkpt>
<trkpt lat="55.900387" lon="26.528980">
<ele>100.938538</ele>
<time>2010-07-18T14:21:05Z</time>
<desc>lat.=55.900387, lon.=26.528980, Alt.=100.938538m. Speed=1.080000m/h.</desc>
<speed>0.300000</speed>
</trkpt>
<trkpt lat="55.900383" lon="26.528976">
<ele>100.940491</ele>
<time>2010-07-18T14:21:06Z</time>
<desc>lat.=55.900383, lon.=26.528976, Alt.=100.940491m. Speed=1.044000m/h.</desc>
<speed>0.290000</speed>
</trkpt>
<trkpt lat="55.900383" lon="26.528971">
<ele>100.942444</ele>
<time>2010-07-18T14:21:07Z</time>
<desc>lat.=55.900383, lon.=26.528971, Alt.=100.942444m. Speed=1.260000m/h.</desc>
<speed>0.350000</speed>
</trkpt>
<trkpt lat="55.900383" lon="26.528965">
<ele>100.944397</ele>
<time>2010-07-18T14:21:08Z</time>
<desc>lat.=55.900383, lon.=26.528965, Alt.=100.944397m. Speed=1.116000m/h.</desc>
<speed>0.310000</speed>
</trkpt>
<trkpt lat="55.900383" lon="26.528959">
<ele>100.948303</ele>
<time>2010-07-18T14:21:09Z</time>
<desc>lat.=55.900383, lon.=26.528959, Alt.=100.948303m. Speed=0.864000m/h.</desc>
<speed>0.240000</speed>
</trkpt>
<trkpt lat="55.900387" lon="26.528955">
<ele>100.954163</ele>
<time>2010-07-18T14:21:10Z</time>
<desc>lat.=55.900387, lon.=26.528955, Alt.=100.954163m. Speed=0.684000m/h.</desc>
<speed>0.190000</speed>
</trkpt>
<trkpt lat="55.900387" lon="26.528954">
<ele>100.960022</ele>
<time>2010-07-18T14:21:11Z</time>
<desc>lat.=55.900387, lon.=26.528954, Alt.=100.960022m. Speed=1.044000m/h.</desc>
<speed>0.290000</speed>
</trkpt>
<trkpt lat="55.900387" lon="26.528952">
<ele>100.963928</ele>
<time>2010-07-18T14:21:12Z</time>
<desc>lat.=55.900387, lon.=26.528952, Alt.=100.963928m. Speed=1.116000m/h.</desc>
<speed>0.310000</speed>
</trkpt>
<trkpt lat="55.900391" lon="26.528948">
<ele>100.971741</ele>
<time>2010-07-18T14:21:13Z</time>
<desc>lat.=55.900391, lon.=26.528948, Alt.=100.971741m. Speed=0.864000m/h.</desc>
<speed>0.240000</speed>
</trkpt>
<trkpt lat="55.900391" lon="26.528946">
<ele>100.977600</ele>
<time>2010-07-18T14:21:14Z</time>
<desc>lat.=55.900391, lon.=26.528946, Alt.=100.977600m. Speed=0.432000m/h.</desc>
<speed>0.120000</speed>
</trkpt>
<trkpt lat="55.900391" lon="26.528944">
<ele>100.987366</ele>
<time>2010-07-18T14:21:15Z</time>
<desc>lat.=55.900391, lon.=26.528944, Alt.=100.987366m. Speed=0.648000m/h.</desc>
<speed>0.180000</speed>
</trkpt>
<trkpt lat="55.900391" lon="26.528944">
<ele>100.997131</ele>
<time>2010-07-18T14:21:16Z</time>
<desc>lat.=55.900391, lon.=26.528944, Alt.=100.997131m. Speed=1.008000m/h.</desc>
<speed>0.280000</speed>
</trkpt>
<trkpt lat="55.900387" lon="26.528942">
<ele>101.006897</ele>
<time>2010-07-18T14:21:17Z</time>
<desc>lat.=55.900387, lon.=26.528942, Alt.=101.006897m. Speed=1.548000m/h.</desc>
<speed>0.430000</speed>
</trkpt>
<trkpt lat="55.900383" lon="26.528940">
<ele>101.014709</ele>
<time>2010-07-18T14:21:18Z</time>
<desc>lat.=55.900383, lon.=26.528940, Alt.=101.014709m. Speed=1.224000m/h.</desc>
<speed>0.340000</speed>
</trkpt>
<trkpt lat="55.900379" lon="26.528938">
<ele>101.020569</ele>
<time>2010-07-18T14:21:19Z</time>
<desc>lat.=55.900379, lon.=26.528938, Alt.=101.020569m. Speed=0.648000m/h.</desc>
<speed>0.180000</speed>
</trkpt>
<trkpt lat="55.900375" lon="26.528938">
<ele>101.030334</ele>
<time>2010-07-18T14:21:20Z</time>
<desc>lat.=55.900375, lon.=26.528938, Alt.=101.030334m. Speed=0.288000m/h.</desc>
<speed>0.080000</speed>
</trkpt>
<trkpt lat="55.900375" lon="26.528936">
<ele>101.038147</ele>
<time>2010-07-18T14:21:21Z</time>
<desc>lat.=55.900375, lon.=26.528936, Alt.=101.038147m. Speed=0.432000m/h.</desc>
<speed>0.120000</speed>
</trkpt>
<trkpt lat="55.900375" lon="26.528934">
<ele>101.044006</ele>
<time>2010-07-18T14:21:22Z</time>
<desc>lat.=55.900375, lon.=26.528934, Alt.=101.044006m. Speed=0.684000m/h.</desc>
<speed>0.190000</speed>
</trkpt>
<trkpt lat="55.900375" lon="26.528931">
<ele>101.051819</ele>
<time>2010-07-18T14:21:23Z</time>
<desc>lat.=55.900375, lon.=26.528931, Alt.=101.051819m. Speed=0.360000m/h.</desc>
<speed>0.100000</speed>
</trkpt>
<trkpt lat="55.900375" lon="26.528931">
<ele>101.059631</ele>
<time>2010-07-18T14:21:24Z</time>
<desc>lat.=55.900375, lon.=26.528931, Alt.=101.059631m. Speed=0.288000m/h.</desc>
<speed>0.080000</speed>
</trkpt>
<trkpt lat="55.900375" lon="26.528929">
<ele>101.065491</ele>
<time>2010-07-18T14:21:25Z</time>
<desc>lat.=55.900375, lon.=26.528929, Alt.=101.065491m. Speed=0.180000m/h.</desc>
<speed>0.050000</speed>
</trkpt>
<trkpt lat="55.900375" lon="26.528929">
<ele>101.073303</ele>
<time>2010-07-18T14:21:26Z</time>
<desc>lat.=55.900375, lon.=26.528929, Alt.=101.073303m. Speed=0.576000m/h.</desc>
<speed>0.160000</speed>
</trkpt>
<trkpt lat="55.900375" lon="26.528925">
<ele>101.079163</ele>
<time>2010-07-18T14:21:27Z</time>
<desc>lat.=55.900375, lon.=26.528925, Alt.=101.079163m. Speed=0.432000m/h.</desc>
<speed>0.120000</speed>
</trkpt>
<trkpt lat="55.900375" lon="26.528925">
<ele>101.083069</ele>
<time>2010-07-18T14:21:28Z</time>
<desc>lat.=55.900375, lon.=26.528925, Alt.=101.083069m. Speed=0.396000m/h.</desc>
<speed>0.110000</speed>
</trkpt>
<trkpt lat="55.900375" lon="26.528923">
<ele>101.088928</ele>
<time>2010-07-18T14:21:29Z</time>
<desc>lat.=55.900375, lon.=26.528923, Alt.=101.088928m. Speed=0.252000m/h.</desc>
<speed>0.070000</speed>
</trkpt>
<trkpt lat="55.900375" lon="26.528923">
<ele>101.092834</ele>
<time>2010-07-18T14:21:30Z</time>
<desc>lat.=55.900375, lon.=26.528923, Alt.=101.092834m. Speed=0.108000m/h.</desc>
<speed>0.030000</speed>
</trkpt>
<trkpt lat="55.900375" lon="26.528921">
<ele>101.098694</ele>
<time>2010-07-18T14:21:31Z</time>
<desc>lat.=55.900375, lon.=26.528921, Alt.=101.098694m. Speed=0.252000m/h.</desc>
<speed>0.070000</speed>
</trkpt>
<trkpt lat="55.900375" lon="26.528921">
<ele>101.104553</ele>
<time>2010-07-18T14:21:32Z</time>
<desc>lat.=55.900375, lon.=26.528921, Alt.=101.104553m. Speed=0.576000m/h.</desc>
<speed>0.160000</speed>
</trkpt>
<trkpt lat="55.900375" lon="26.528921">
<ele>101.112366</ele>
<time>2010-07-18T14:21:33Z</time>
<desc>lat.=55.900375, lon.=26.528921, Alt.=101.112366m. Speed=0.792000m/h.</desc>
<speed>0.220000</speed>
</trkpt>
<trkpt lat="55.900372" lon="26.528923">
<ele>101.120178</ele>
<time>2010-07-18T14:21:34Z</time>
<desc>lat.=55.900372, lon.=26.528923, Alt.=101.120178m. Speed=1.836000m/h.</desc>
<speed>0.510000</speed>
</trkpt>
<trkpt lat="55.900368" lon="26.528927">
<ele>101.126038</ele>
<time>2010-07-18T14:21:35Z</time>
<desc>lat.=55.900368, lon.=26.528927, Alt.=101.126038m. Speed=1.836000m/h.</desc>
<speed>0.510000</speed>
</trkpt>
<trkpt lat="55.900364" lon="26.528931">
<ele>101.133850</ele>
<time>2010-07-18T14:21:36Z</time>
<desc>lat.=55.900364, lon.=26.528931, Alt.=101.133850m. Speed=1.620000m/h.</desc>
<speed>0.450000</speed>
</trkpt>
<trkpt lat="55.900360" lon="26.528934">
<ele>101.141663</ele>
<time>2010-07-18T14:21:37Z</time>
<desc>lat.=55.900360, lon.=26.528934, Alt.=101.141663m. Speed=0.684000m/h.</desc>
<speed>0.190000</speed>
</trkpt>
<trkpt lat="55.900360" lon="26.528936">
<ele>101.151428</ele>
<time>2010-07-18T14:21:38Z</time>
<desc>lat.=55.900360, lon.=26.528936, Alt.=101.151428m. Speed=0.972000m/h.</desc>
<speed>0.270000</speed>
</trkpt>
<trkpt lat="55.900356" lon="26.528938">
<ele>101.159241</ele>
<time>2010-07-18T14:21:39Z</time>
<desc>lat.=55.900356, lon.=26.528938, Alt.=101.159241m. Speed=1.404000m/h.</desc>
<speed>0.390000</speed>
</trkpt>
<trkpt lat="55.900352" lon="26.528940">
<ele>101.165100</ele>
<time>2010-07-18T14:21:40Z</time>
<desc>lat.=55.900352, lon.=26.528940, Alt.=101.165100m. Speed=1.512000m/h.</desc>
<speed>0.420000</speed>
</trkpt>
<trkpt lat="55.900349" lon="26.528944">
<ele>101.170959</ele>
<time>2010-07-18T14:21:41Z</time>
<desc>lat.=55.900349, lon.=26.528944, Alt.=101.170959m. Speed=1.944000m/h.</desc>
<speed>0.540000</speed>
</trkpt>
<trkpt lat="55.900345" lon="26.528950">
<ele>101.178772</ele>
<time>2010-07-18T14:21:42Z</time>
<desc>lat.=55.900345, lon.=26.528950, Alt.=101.178772m. Speed=2.340000m/h.</desc>
<speed>0.650000</speed>
</trkpt>
<trkpt lat="55.900341" lon="26.528955">
<ele>101.186584</ele>
<time>2010-07-18T14:21:43Z</time>
<desc>lat.=55.900341, lon.=26.528955, Alt.=101.186584m. Speed=2.232000m/h.</desc>
<speed>0.620000</speed>
</trkpt>
<trkpt lat="55.900337" lon="26.528959">
<ele>101.196350</ele>
<time>2010-07-18T14:21:44Z</time>
<desc>lat.=55.900337, lon.=26.528959, Alt.=101.196350m. Speed=1.908000m/h.</desc>
<speed>0.530000</speed>
</trkpt>
<trkpt lat="55.900333" lon="26.528965">
<ele>101.208069</ele>
<time>2010-07-18T14:21:45Z</time>
<desc>lat.=55.900333, lon.=26.528965, Alt.=101.208069m. Speed=1.944000m/h.</desc>
<speed>0.540000</speed>
</trkpt>
<trkpt lat="55.900330" lon="26.528973">
<ele>101.221741</ele>
<time>2010-07-18T14:21:46Z</time>
<desc>lat.=55.900330, lon.=26.528973, Alt.=101.221741m. Speed=2.088000m/h.</desc>
<speed>0.580000</speed>
</trkpt>
<trkpt lat="55.900326" lon="26.528978">
<ele>101.237366</ele>
<time>2010-07-18T14:21:47Z</time>
<desc>lat.=55.900326, lon.=26.528978, Alt.=101.237366m. Speed=2.376000m/h.</desc>
<speed>0.660000</speed>
</trkpt>
<trkpt lat="55.900318" lon="26.528984">
<ele>101.251038</ele>
<time>2010-07-18T14:21:48Z</time>
<desc>lat.=55.900318, lon.=26.528984, Alt.=101.251038m. Speed=2.376000m/h.</desc>
<speed>0.660000</speed>
</trkpt>
<trkpt lat="55.900314" lon="26.528988">
<ele>101.266663</ele>
<time>2010-07-18T14:21:49Z</time>
<desc>lat.=55.900314, lon.=26.528988, Alt.=101.266663m. Speed=2.016000m/h.</desc>
<speed>0.560000</speed>
</trkpt>
<trkpt lat="55.900311" lon="26.528992">
<ele>101.282288</ele>
<time>2010-07-18T14:21:50Z</time>
<desc>lat.=55.900311, lon.=26.528992, Alt.=101.282288m. Speed=1.620000m/h.</desc>
<speed>0.450000</speed>
</trkpt>
<trkpt lat="55.900307" lon="26.528994">
<ele>101.297913</ele>
<time>2010-07-18T14:21:51Z</time>
<desc>lat.=55.900307, lon.=26.528994, Alt.=101.297913m. Speed=1.692000m/h.</desc>
<speed>0.470000</speed>
</trkpt>
<trkpt lat="55.900303" lon="26.528997">
<ele>101.313538</ele>
<time>2010-07-18T14:21:52Z</time>
<desc>lat.=55.900303, lon.=26.528997, Alt.=101.313538m. Speed=2.052000m/h.</desc>
<speed>0.570000</speed>
</trkpt>
<trkpt lat="55.900299" lon="26.529001">
<ele>101.331116</ele>
<time>2010-07-18T14:21:53Z</time>
<desc>lat.=55.900299, lon.=26.529001, Alt.=101.331116m. Speed=1.980000m/h.</desc>
<speed>0.550000</speed>
</trkpt>
<trkpt lat="55.900291" lon="26.529005">
<ele>101.348694</ele>
<time>2010-07-18T14:21:54Z</time>
<desc>lat.=55.900291, lon.=26.529005, Alt.=101.348694m. Speed=1.512000m/h.</desc>
<speed>0.420000</speed>
</trkpt>
<trkpt lat="55.900291" lon="26.529009">
<ele>101.368225</ele>
<time>2010-07-18T14:21:55Z</time>
<desc>lat.=55.900291, lon.=26.529009, Alt.=101.368225m. Speed=1.152000m/h.</desc>
<speed>0.320000</speed>
</trkpt>
<trkpt lat="55.900288" lon="26.529009">
<ele>101.389709</ele>
<time>2010-07-18T14:21:56Z</time>
<desc>lat.=55.900288, lon.=26.529009, Alt.=101.389709m. Speed=0.864000m/h.</desc>
<speed>0.240000</speed>
</trkpt>
<trkpt lat="55.900284" lon="26.529011">
<ele>101.409241</ele>
<time>2010-07-18T14:21:57Z</time>
<desc>lat.=55.900284, lon.=26.529011, Alt.=101.409241m. Speed=1.080000m/h.</desc>
<speed>0.300000</speed>
</trkpt>
<trkpt lat="55.900284" lon="26.529013">
<ele>101.428772</ele>
<time>2010-07-18T14:21:58Z</time>
<desc>lat.=55.900284, lon.=26.529013, Alt.=101.428772m. Speed=0.936000m/h.</desc>
<speed>0.260000</speed>
</trkpt>
<trkpt lat="55.900280" lon="26.529013">
<ele>101.446350</ele>
<time>2010-07-18T14:21:59Z</time>
<desc>lat.=55.900280, lon.=26.529013, Alt.=101.446350m. Speed=0.972000m/h.</desc>
<speed>0.270000</speed>
</trkpt>
<trkpt lat="55.900276" lon="26.529013">
<ele>101.461975</ele>
<time>2010-07-18T14:22:00Z</time>
<desc>lat.=55.900276, lon.=26.529013, Alt.=101.461975m. Speed=0.540000m/h.</desc>
<speed>0.150000</speed>
</trkpt>
<trkpt lat="55.900276" lon="26.529013">
<ele>101.473694</ele>
<time>2010-07-18T14:22:01Z</time>
<desc>lat.=55.900276, lon.=26.529013, Alt.=101.473694m. Speed=0.360000m/h.</desc>
<speed>0.100000</speed>
</trkpt>
<trkpt lat="55.900276" lon="26.529011">
<ele>101.483459</ele>
<time>2010-07-18T14:22:02Z</time>
<desc>lat.=55.900276, lon.=26.529011, Alt.=101.483459m. Speed=0.288000m/h.</desc>
<speed>0.080000</speed>
</trkpt>
<trkpt lat="55.900276" lon="26.529009">
<ele>101.493225</ele>
<time>2010-07-18T14:22:03Z</time>
<desc>lat.=55.900276, lon.=26.529009, Alt.=101.493225m. Speed=0.648000m/h.</desc>
<speed>0.180000</speed>
</trkpt>
<trkpt lat="55.900276" lon="26.529007">
<ele>101.501038</ele>
<time>2010-07-18T14:22:04Z</time>
<desc>lat.=55.900276, lon.=26.529007, Alt.=101.501038m. Speed=0.792000m/h.</desc>
<speed>0.220000</speed>
</trkpt>
<trkpt lat="55.900276" lon="26.529003">
<ele>101.506897</ele>
<time>2010-07-18T14:22:05Z</time>
<desc>lat.=55.900276, lon.=26.529003, Alt.=101.506897m. Speed=0.792000m/h.</desc>
<speed>0.220000</speed>
</trkpt>
<trkpt lat="55.900280" lon="26.529001">
<ele>101.510803</ele>
<time>2010-07-18T14:22:06Z</time>
<desc>lat.=55.900280, lon.=26.529001, Alt.=101.510803m. Speed=1.296000m/h.</desc>
<speed>0.360000</speed>
</trkpt>
<trkpt lat="55.900280" lon="26.528997">
<ele>101.516663</ele>
<time>2010-07-18T14:22:07Z</time>
<desc>lat.=55.900280, lon.=26.528997, Alt.=101.516663m. Speed=1.116000m/h.</desc>
<speed>0.310000</speed>
</trkpt>
<trkpt lat="55.900284" lon="26.528994">
<ele>101.520569</ele>
<time>2010-07-18T14:22:08Z</time>
<desc>lat.=55.900284, lon.=26.528994, Alt.=101.520569m. Speed=0.936000m/h.</desc>
<speed>0.260000</speed>
</trkpt>
<trkpt lat="55.900284" lon="26.528990">
<ele>101.526428</ele>
<time>2010-07-18T14:22:09Z</time>
<desc>lat.=55.900284, lon.=26.528990, Alt.=101.526428m. Speed=0.432000m/h.</desc>
<speed>0.120000</speed>
</trkpt>
<trkpt lat="55.900284" lon="26.528988">
<ele>101.530334</ele>
<time>2010-07-18T14:22:10Z</time>
<desc>lat.=55.900284, lon.=26.528988, Alt.=101.530334m. Speed=0.648000m/h.</desc>
<speed>0.180000</speed>
</trkpt>
<trkpt lat="55.900288" lon="26.528984">
<ele>101.536194</ele>
<time>2010-07-18T14:22:11Z</time>
<desc>lat.=55.900288, lon.=26.528984, Alt.=101.536194m. Speed=1.152000m/h.</desc>
<speed>0.320000</speed>
</trkpt>
<trkpt lat="55.900288" lon="26.528980">
<ele>101.542053</ele>
<time>2010-07-18T14:22:12Z</time>
<desc>lat.=55.900288, lon.=26.528980, Alt.=101.542053m. Speed=1.080000m/h.</desc>
<speed>0.300000</speed>
</trkpt>
<trkpt lat="55.900291" lon="26.528976">
<ele>101.551819</ele>
<time>2010-07-18T14:22:13Z</time>
<desc>lat.=55.900291, lon.=26.528976, Alt.=101.551819m. Speed=0.756000m/h.</desc>
<speed>0.210000</speed>
</trkpt>
<trkpt lat="55.900291" lon="26.528975">
<ele>101.561584</ele>
<time>2010-07-18T14:22:14Z</time>
<desc>lat.=55.900291, lon.=26.528975, Alt.=101.561584m. Speed=0.684000m/h.</desc>
<speed>0.190000</speed>
</trkpt>
<trkpt lat="55.900291" lon="26.528971">
<ele>101.569397</ele>
<time>2010-07-18T14:22:15Z</time>
<desc>lat.=55.900291, lon.=26.528971, Alt.=101.569397m. Speed=0.684000m/h.</desc>
<speed>0.190000</speed>
</trkpt>
<trkpt lat="55.900291" lon="26.528967">
<ele>101.577209</ele>
<time>2010-07-18T14:22:16Z</time>
<desc>lat.=55.900291, lon.=26.528967, Alt.=101.577209m. Speed=0.720000m/h.</desc>
<speed>0.200000</speed>
</trkpt>
<trkpt lat="55.900295" lon="26.528965">
<ele>101.585022</ele>
<time>2010-07-18T14:22:17Z</time>
<desc>lat.=55.900295, lon.=26.528965, Alt.=101.585022m. Speed=0.720000m/h.</desc>
<speed>0.200000</speed>
</trkpt>
<trkpt lat="55.900295" lon="26.528963">
<ele>101.590881</ele>
<time>2010-07-18T14:22:18Z</time>
<desc>lat.=55.900295, lon.=26.528963, Alt.=101.590881m. Speed=0.684000m/h.</desc>
<speed>0.190000</speed>
</trkpt>
<trkpt lat="55.900295" lon="26.528961">
<ele>101.596741</ele>
<time>2010-07-18T14:22:19Z</time>
<desc>lat.=55.900295, lon.=26.528961, Alt.=101.596741m. Speed=0.432000m/h.</desc>
<speed>0.120000</speed>
</trkpt>
<trkpt lat="55.900295" lon="26.528959">
<ele>101.600647</ele>
<time>2010-07-18T14:22:20Z</time>
<desc>lat.=55.900295, lon.=26.528959, Alt.=101.600647m. Speed=0.576000m/h.</desc>
<speed>0.160000</speed>
</trkpt>
<trkpt lat="55.900299" lon="26.528955">
<ele>101.604553</ele>
<time>2010-07-18T14:22:21Z</time>
<desc>lat.=55.900299, lon.=26.528955, Alt.=101.604553m. Speed=0.684000m/h.</desc>
<speed>0.190000</speed>
</trkpt>
<trkpt lat="55.900299" lon="26.528954">
<ele>101.608459</ele>
<time>2010-07-18T14:22:22Z</time>
<desc>lat.=55.900299, lon.=26.528954, Alt.=101.608459m. Speed=0.504000m/h.</desc>
<speed>0.140000</speed>
</trkpt>
<trkpt lat="55.900299" lon="26.528952">
<ele>101.610413</ele>
<time>2010-07-18T14:22:23Z</time>
<desc>lat.=55.900299, lon.=26.528952, Alt.=101.610413m. Speed=1.044000m/h.</desc>
<speed>0.290000</speed>
</trkpt>
<trkpt lat="55.900303" lon="26.528948">
<ele>101.610413</ele>
<time>2010-07-18T14:22:24Z</time>
<desc>lat.=55.900303, lon.=26.528948, Alt.=101.610413m. Speed=0.936000m/h.</desc>
<speed>0.260000</speed>
</trkpt>
<trkpt lat="55.900303" lon="26.528946">
<ele>101.614319</ele>
<time>2010-07-18T14:22:25Z</time>
<desc>lat.=55.900303, lon.=26.528946, Alt.=101.614319m. Speed=1.116000m/h.</desc>
<speed>0.310000</speed>
</trkpt>
<trkpt lat="55.900311" lon="26.528938">
<ele>101.661194</ele>
<time>2010-07-18T14:22:26Z</time>
<desc>lat.=55.900311, lon.=26.528938, Alt.=101.661194m. Speed=1.296000m/h.</desc>
<speed>0.360000</speed>
</trkpt>
<trkpt lat="55.900311" lon="26.528931">
<ele>101.723694</ele>
<time>2010-07-18T14:22:27Z</time>
<desc>lat.=55.900311, lon.=26.528931, Alt.=101.723694m. Speed=1.044000m/h.</desc>
<speed>0.290000</speed>
</trkpt>
<trkpt lat="55.900318" lon="26.528913">
<ele>101.836975</ele>
<time>2010-07-18T14:22:28Z</time>
<desc>lat.=55.900318, lon.=26.528913, Alt.=101.836975m. Speed=1.368000m/h.</desc>
<speed>0.380000</speed>
</trkpt>
<trkpt lat="55.900326" lon="26.528896">
<ele>101.760803</ele>
<time>2010-07-18T14:22:29Z</time>
<desc>lat.=55.900326, lon.=26.528896, Alt.=101.760803m. Speed=1.584000m/h.</desc>
<speed>0.440000</speed>
</trkpt>
<trkpt lat="55.900322" lon="26.528889">
<ele>101.803772</ele>
<time>2010-07-18T14:22:30Z</time>
<desc>lat.=55.900322, lon.=26.528889, Alt.=101.803772m. Speed=1.296000m/h.</desc>
<speed>0.360000</speed>
</trkpt>
<trkpt lat="55.900318" lon="26.528883">
<ele>101.932678</ele>
<time>2010-07-18T14:22:31Z</time>
<desc>lat.=55.900318, lon.=26.528883, Alt.=101.932678m. Speed=0.828000m/h.</desc>
<speed>0.230000</speed>
</trkpt>
<trkpt lat="55.900314" lon="26.528883">
<ele>102.028381</ele>
<time>2010-07-18T14:22:32Z</time>
<desc>lat.=55.900314, lon.=26.528883, Alt.=102.028381m. Speed=0.756000m/h.</desc>
<speed>0.210000</speed>
</trkpt>
<trkpt lat="55.900311" lon="26.528873">
<ele>102.127991</ele>
<time>2010-07-18T14:22:33Z</time>
<desc>lat.=55.900311, lon.=26.528873, Alt.=102.127991m. Speed=0.972000m/h.</desc>
<speed>0.270000</speed>
</trkpt>
<trkpt lat="55.900307" lon="26.528868">
<ele>102.245178</ele>
<time>2010-07-18T14:22:34Z</time>
<desc>lat.=55.900307, lon.=26.528868, Alt.=102.245178m. Speed=0.900000m/h.</desc>
<speed>0.250000</speed>
</trkpt>
<trkpt lat="55.900307" lon="26.528864">
<ele>102.252991</ele>
<time>2010-07-18T14:22:35Z</time>
<desc>lat.=55.900307, lon.=26.528864, Alt.=102.252991m. Speed=0.828000m/h.</desc>
<speed>0.230000</speed>
</trkpt>
<trkpt lat="55.900307" lon="26.528860">
<ele>102.258850</ele>
<time>2010-07-18T14:22:36Z</time>
<desc>lat.=55.900307, lon.=26.528860, Alt.=102.258850m. Speed=0.504000m/h.</desc>
<speed>0.140000</speed>
</trkpt>
<trkpt lat="55.900307" lon="26.528856">
<ele>102.266663</ele>
<time>2010-07-18T14:22:37Z</time>
<desc>lat.=55.900307, lon.=26.528856, Alt.=102.266663m. Speed=0.180000m/h.</desc>
<speed>0.050000</speed>
</trkpt>
<trkpt lat="55.900307" lon="26.528856">
<ele>102.276428</ele>
<time>2010-07-18T14:22:38Z</time>
<desc>lat.=55.900307, lon.=26.528856, Alt.=102.276428m. Speed=0.036000m/h.</desc>
<speed>0.010000</speed>
</trkpt>
<trkpt lat="55.900307" lon="26.528856">
<ele>102.288147</ele>
<time>2010-07-18T14:22:39Z</time>
<desc>lat.=55.900307, lon.=26.528856, Alt.=102.288147m. Speed=0.252000m/h.</desc>
<speed>0.070000</speed>
</trkpt>
<trkpt lat="55.900307" lon="26.528856">
<ele>102.301819</ele>
<time>2010-07-18T14:22:40Z</time>
<desc>lat.=55.900307, lon.=26.528856, Alt.=102.301819m. Speed=0.396000m/h.</desc>
<speed>0.110000</speed>
</trkpt>
<trkpt lat="55.900303" lon="26.528856">
<ele>102.311584</ele>
<time>2010-07-18T14:22:41Z</time>
<desc>lat.=55.900303, lon.=26.528856, Alt.=102.311584m. Speed=0.576000m/h.</desc>
<speed>0.160000</speed>
</trkpt>
<trkpt lat="55.900303" lon="26.528854">
<ele>102.321350</ele>
<time>2010-07-18T14:22:42Z</time>
<desc>lat.=55.900303, lon.=26.528854, Alt.=102.321350m. Speed=0.792000m/h.</desc>
<speed>0.220000</speed>
</trkpt>
<trkpt lat="55.900303" lon="26.528852">
<ele>102.329163</ele>
<time>2010-07-18T14:22:43Z</time>
<desc>lat.=55.900303, lon.=26.528852, Alt.=102.329163m. Speed=0.648000m/h.</desc>
<speed>0.180000</speed>
</trkpt>
<trkpt lat="55.900303" lon="26.528849">
<ele>102.335022</ele>
<time>2010-07-18T14:22:44Z</time>
<desc>lat.=55.900303, lon.=26.528849, Alt.=102.335022m. Speed=0.756000m/h.</desc>
<speed>0.210000</speed>
</trkpt>
<trkpt lat="55.900303" lon="26.528847">
<ele>102.340881</ele>
<time>2010-07-18T14:22:45Z</time>
<desc>lat.=55.900303, lon.=26.528847, Alt.=102.340881m. Speed=0.504000m/h.</desc>
<speed>0.140000</speed>
</trkpt>
<trkpt lat="55.900303" lon="26.528845">
<ele>102.346741</ele>
<time>2010-07-18T14:22:46Z</time>
<desc>lat.=55.900303, lon.=26.528845, Alt.=102.346741m. Speed=0.612000m/h.</desc>
<speed>0.170000</speed>
</trkpt>
<trkpt lat="55.900299" lon="26.528847">
<ele>102.354553</ele>
<time>2010-07-18T14:22:47Z</time>
<desc>lat.=55.900299, lon.=26.528847, Alt.=102.354553m. Speed=0.612000m/h.</desc>
<speed>0.170000</speed>
</trkpt>
<trkpt lat="55.900299" lon="26.528847">
<ele>102.360413</ele>
<time>2010-07-18T14:22:48Z</time>
<desc>lat.=55.900299, lon.=26.528847, Alt.=102.360413m. Speed=0.864000m/h.</desc>
<speed>0.240000</speed>
</trkpt>
<trkpt lat="55.900295" lon="26.528847">
<ele>102.366272</ele>
<time>2010-07-18T14:22:49Z</time>
<desc>lat.=55.900295, lon.=26.528847, Alt.=102.366272m. Speed=0.756000m/h.</desc>
<speed>0.210000</speed>
</trkpt>
<trkpt lat="55.900295" lon="26.528847">
<ele>102.372131</ele>
<time>2010-07-18T14:22:50Z</time>
<desc>lat.=55.900295, lon.=26.528847, Alt.=102.372131m. Speed=0.540000m/h.</desc>
<speed>0.150000</speed>
</trkpt>
<trkpt lat="55.900295" lon="26.528845">
<ele>102.372131</ele>
<time>2010-07-18T14:22:51Z</time>
<desc>lat.=55.900295, lon.=26.528845, Alt.=102.372131m. Speed=1.080000m/h.</desc>
<speed>0.300000</speed>
</trkpt>
<trkpt lat="55.900291" lon="26.528841">
<ele>102.522522</ele>
<time>2010-07-18T14:22:52Z</time>
<desc>lat.=55.900291, lon.=26.528841, Alt.=102.522522m. Speed=0.900000m/h.</desc>
<speed>0.250000</speed>
</trkpt>
<trkpt lat="55.900291" lon="26.528826">
<ele>102.719788</ele>
<time>2010-07-18T14:22:53Z</time>
<desc>lat.=55.900291, lon.=26.528826, Alt.=102.719788m. Speed=0.864000m/h.</desc>
<speed>0.240000</speed>
</trkpt>
<trkpt lat="55.900291" lon="26.528822">
<ele>102.991272</ele>
<time>2010-07-18T14:22:54Z</time>
<desc>lat.=55.900291, lon.=26.528822, Alt.=102.991272m. Speed=0.612000m/h.</desc>
<speed>0.170000</speed>
</trkpt>
<trkpt lat="55.900291" lon="26.528820">
<ele>103.295959</ele>
<time>2010-07-18T14:22:55Z</time>
<desc>lat.=55.900291, lon.=26.528820, Alt.=103.295959m. Speed=0.540000m/h.</desc>
<speed>0.150000</speed>
</trkpt>
<trkpt lat="55.900291" lon="26.528818">
<ele>103.309631</ele>
<time>2010-07-18T14:22:56Z</time>
<desc>lat.=55.900291, lon.=26.528818, Alt.=103.309631m. Speed=0.360000m/h.</desc>
<speed>0.100000</speed>
</trkpt>
<trkpt lat="55.900288" lon="26.528816">
<ele>103.323303</ele>
<time>2010-07-18T14:22:57Z</time>
<desc>lat.=55.900288, lon.=26.528816, Alt.=103.323303m. Speed=0.144000m/h.</desc>
<speed>0.040000</speed>
</trkpt>
<trkpt lat="55.900288" lon="26.528816">
<ele>103.335022</ele>
<time>2010-07-18T14:22:58Z</time>
<desc>lat.=55.900288, lon.=26.528816, Alt.=103.335022m. Speed=0.216000m/h.</desc>
<speed>0.060000</speed>
</trkpt>
<trkpt lat="55.900288" lon="26.528816">
<ele>103.350647</ele>
<time>2010-07-18T14:22:59Z</time>
<desc>lat.=55.900288, lon.=26.528816, Alt.=103.350647m. Speed=0.288000m/h.</desc>
<speed>0.080000</speed>
</trkpt>
<trkpt lat="55.900288" lon="26.528814">
<ele>103.366272</ele>
<time>2010-07-18T14:23:00Z</time>
<desc>lat.=55.900288, lon.=26.528814, Alt.=103.366272m. Speed=0.252000m/h.</desc>
<speed>0.070000</speed>
</trkpt>
<trkpt lat="55.900288" lon="26.528814">
<ele>103.383850</ele>
<time>2010-07-18T14:23:01Z</time>
<desc>lat.=55.900288, lon.=26.528814, Alt.=103.383850m. Speed=0.396000m/h.</desc>
<speed>0.110000</speed>
</trkpt>
<trkpt lat="55.900288" lon="26.528814">
<ele>103.403381</ele>
<time>2010-07-18T14:23:02Z</time>
<desc>lat.=55.900288, lon.=26.528814, Alt.=103.403381m. Speed=0.576000m/h.</desc>
<speed>0.160000</speed>
</trkpt>
<trkpt lat="55.900284" lon="26.528816">
<ele>103.424866</ele>
<time>2010-07-18T14:23:03Z</time>
<desc>lat.=55.900284, lon.=26.528816, Alt.=103.424866m. Speed=0.720000m/h.</desc>
<speed>0.200000</speed>
</trkpt>
<trkpt lat="55.900284" lon="26.528816">
<ele>103.444397</ele>
<time>2010-07-18T14:23:04Z</time>
<desc>lat.=55.900284, lon.=26.528816, Alt.=103.444397m. Speed=0.180000m/h.</desc>
<speed>0.050000</speed>
</trkpt>
<trkpt lat="55.900284" lon="26.528814">
<ele>103.461975</ele>
<time>2010-07-18T14:23:05Z</time>
<desc>lat.=55.900284, lon.=26.528814, Alt.=103.461975m. Speed=0.288000m/h.</desc>
<speed>0.080000</speed>
</trkpt>
<trkpt lat="55.900284" lon="26.528814">
<ele>103.481506</ele>
<time>2010-07-18T14:23:06Z</time>
<desc>lat.=55.900284, lon.=26.528814, Alt.=103.481506m. Speed=0.432000m/h.</desc>
<speed>0.120000</speed>
</trkpt>
<trkpt lat="55.900280" lon="26.528812">
<ele>103.495178</ele>
<time>2010-07-18T14:23:07Z</time>
<desc>lat.=55.900280, lon.=26.528812, Alt.=103.495178m. Speed=0.468000m/h.</desc>
<speed>0.130000</speed>
</trkpt>
<trkpt lat="55.900280" lon="26.528811">
<ele>103.504944</ele>
<time>2010-07-18T14:23:08Z</time>
<desc>lat.=55.900280, lon.=26.528811, Alt.=103.504944m. Speed=0.432000m/h.</desc>
<speed>0.120000</speed>
</trkpt>
<trkpt lat="55.900280" lon="26.528809">
<ele>103.516663</ele>
<time>2010-07-18T14:23:09Z</time>
<desc>lat.=55.900280, lon.=26.528809, Alt.=103.516663m. Speed=0.036000m/h.</desc>
<speed>0.010000</speed>
</trkpt>
<trkpt lat="55.900280" lon="26.528809">
<ele>103.532288</ele>
<time>2010-07-18T14:23:10Z</time>
<desc>lat.=55.900280, lon.=26.528809, Alt.=103.532288m. Speed=0.648000m/h.</desc>
<speed>0.180000</speed>
</trkpt>
<trkpt lat="55.900280" lon="26.528811">
<ele>103.553772</ele>
<time>2010-07-18T14:23:11Z</time>
<desc>lat.=55.900280, lon.=26.528811, Alt.=103.553772m. Speed=0.288000m/h.</desc>
<speed>0.080000</speed>
</trkpt>
<trkpt lat="55.900280" lon="26.528812">
<ele>103.573303</ele>
<time>2010-07-18T14:23:12Z</time>
<desc>lat.=55.900280, lon.=26.528812, Alt.=103.573303m. Speed=0.612000m/h.</desc>
<speed>0.170000</speed>
</trkpt>
<trkpt lat="55.900276" lon="26.528814">
<ele>103.590881</ele>
<time>2010-07-18T14:23:13Z</time>
<desc>lat.=55.900276, lon.=26.528814, Alt.=103.590881m. Speed=0.324000m/h.</desc>
<speed>0.090000</speed>
</trkpt>
<trkpt lat="55.900276" lon="26.528816">
<ele>103.610413</ele>
<time>2010-07-18T14:23:14Z</time>
<desc>lat.=55.900276, lon.=26.528816, Alt.=103.610413m. Speed=0.576000m/h.</desc>
<speed>0.160000</speed>
</trkpt>
<trkpt lat="55.900276" lon="26.528818">
<ele>103.627991</ele>
<time>2010-07-18T14:23:15Z</time>
<desc>lat.=55.900276, lon.=26.528818, Alt.=103.627991m. Speed=0.972000m/h.</desc>
<speed>0.270000</speed>
</trkpt>
<trkpt lat="55.900276" lon="26.528822">
<ele>103.647522</ele>
<time>2010-07-18T14:23:16Z</time>
<desc>lat.=55.900276, lon.=26.528822, Alt.=103.647522m. Speed=1.548000m/h.</desc>
<speed>0.430000</speed>
</trkpt>
<trkpt lat="55.900272" lon="26.528835">
<ele>104.260803</ele>
<time>2010-07-18T14:23:17Z</time>
<desc>lat.=55.900272, lon.=26.528835, Alt.=104.260803m. Speed=1.332000m/h.</desc>
<speed>0.370000</speed>
</trkpt>
<trkpt lat="55.900269" lon="26.528849">
<ele>104.745178</ele>
<time>2010-07-18T14:23:18Z</time>
<desc>lat.=55.900269, lon.=26.528849, Alt.=104.745178m. Speed=1.152000m/h.</desc>
<speed>0.320000</speed>
</trkpt>
<trkpt lat="55.900276" lon="26.528826">
<ele>104.862366</ele>
<time>2010-07-18T14:23:19Z</time>
<desc>lat.=55.900276, lon.=26.528826, Alt.=104.862366m. Speed=0.648000m/h.</desc>
<speed>0.180000</speed>
</trkpt>
<trkpt lat="55.900280" lon="26.528814">
<ele>104.954163</ele>
<time>2010-07-18T14:23:20Z</time>
<desc>lat.=55.900280, lon.=26.528814, Alt.=104.954163m. Speed=0.144000m/h.</desc>
<speed>0.040000</speed>
</trkpt>
<trkpt lat="55.900284" lon="26.528814">
<ele>105.100647</ele>
<time>2010-07-18T14:23:21Z</time>
<desc>lat.=55.900284, lon.=26.528814, Alt.=105.100647m. Speed=0.216000m/h.</desc>
<speed>0.060000</speed>
</trkpt>
<trkpt lat="55.900288" lon="26.528809">
<ele>105.211975</ele>
<time>2010-07-18T14:23:22Z</time>
<desc>lat.=55.900288, lon.=26.528809, Alt.=105.211975m. Speed=0.432000m/h.</desc>
<speed>0.120000</speed>
</trkpt>
<trkpt lat="55.900288" lon="26.528807">
<ele>105.219788</ele>
<time>2010-07-18T14:23:23Z</time>
<desc>lat.=55.900288, lon.=26.528807, Alt.=105.219788m. Speed=0.324000m/h.</desc>
<speed>0.090000</speed>
</trkpt>
<trkpt lat="55.900291" lon="26.528805">
<ele>105.223694</ele>
<time>2010-07-18T14:23:24Z</time>
<desc>lat.=55.900291, lon.=26.528805, Alt.=105.223694m. Speed=0.324000m/h.</desc>
<speed>0.090000</speed>
</trkpt>
<trkpt lat="55.900291" lon="26.528803">
<ele>105.233459</ele>
<time>2010-07-18T14:23:25Z</time>
<desc>lat.=55.900291, lon.=26.528803, Alt.=105.233459m. Speed=0.252000m/h.</desc>
<speed>0.070000</speed>
</trkpt>
<trkpt lat="55.900291" lon="26.528803">
<ele>105.241272</ele>
<time>2010-07-18T14:23:26Z</time>
<desc>lat.=55.900291, lon.=26.528803, Alt.=105.241272m. Speed=0.576000m/h.</desc>
<speed>0.160000</speed>
</trkpt>
<trkpt lat="55.900291" lon="26.528803">
<ele>105.245178</ele>
<time>2010-07-18T14:23:27Z</time>
<desc>lat.=55.900291, lon.=26.528803, Alt.=105.245178m. Speed=0.468000m/h.</desc>
<speed>0.130000</speed>
</trkpt>
<trkpt lat="55.900291" lon="26.528801">
<ele>105.249084</ele>
<time>2010-07-18T14:23:28Z</time>
<desc>lat.=55.900291, lon.=26.528801, Alt.=105.249084m. Speed=0.108000m/h.</desc>
<speed>0.030000</speed>
</trkpt>
<trkpt lat="55.900291" lon="26.528801">
<ele>105.260803</ele>
<time>2010-07-18T14:23:29Z</time>
<desc>lat.=55.900291, lon.=26.528801, Alt.=105.260803m. Speed=0.324000m/h.</desc>
<speed>0.090000</speed>
</trkpt>
<trkpt lat="55.900291" lon="26.528803">
<ele>105.268616</ele>
<time>2010-07-18T14:23:30Z</time>
<desc>lat.=55.900291, lon.=26.528803, Alt.=105.268616m. Speed=0.684000m/h.</desc>
<speed>0.190000</speed>
</trkpt>
<trkpt lat="55.900291" lon="26.528807">
<ele>105.276428</ele>
<time>2010-07-18T14:23:31Z</time>
<desc>lat.=55.900291, lon.=26.528807, Alt.=105.276428m. Speed=0.756000m/h.</desc>
<speed>0.210000</speed>
</trkpt>
<trkpt lat="55.900291" lon="26.528809">
<ele>105.282288</ele>
<time>2010-07-18T14:23:32Z</time>
<desc>lat.=55.900291, lon.=26.528809, Alt.=105.282288m. Speed=0.756000m/h.</desc>
<speed>0.210000</speed>
</trkpt>
<trkpt lat="55.900288" lon="26.528811">
<ele>105.292053</ele>
<time>2010-07-18T14:23:33Z</time>
<desc>lat.=55.900288, lon.=26.528811, Alt.=105.292053m. Speed=0.540000m/h.</desc>
<speed>0.150000</speed>
</trkpt>
<trkpt lat="55.900288" lon="26.528811">
<ele>105.299866</ele>
<time>2010-07-18T14:23:34Z</time>
<desc>lat.=55.900288, lon.=26.528811, Alt.=105.299866m. Speed=0.252000m/h.</desc>
<speed>0.070000</speed>
</trkpt>
<trkpt lat="55.900288" lon="26.528811">
<ele>105.303772</ele>
<time>2010-07-18T14:23:35Z</time>
<desc>lat.=55.900288, lon.=26.528811, Alt.=105.303772m. Speed=0.072000m/h.</desc>
<speed>0.020000</speed>
</trkpt>
<trkpt lat="55.900288" lon="26.528811">
<ele>105.311584</ele>
<time>2010-07-18T14:23:36Z</time>
<desc>lat.=55.900288, lon.=26.528811, Alt.=105.311584m. Speed=0.432000m/h.</desc>
<speed>0.120000</speed>
</trkpt>
<trkpt lat="55.900288" lon="26.528812">
<ele>105.313538</ele>
<time>2010-07-18T14:23:37Z</time>
<desc>lat.=55.900288, lon.=26.528812, Alt.=105.313538m. Speed=0.144000m/h.</desc>
<speed>0.040000</speed>
</trkpt>
<trkpt lat="55.900288" lon="26.528814">
<ele>105.315491</ele>
<time>2010-07-18T14:23:38Z</time>
<desc>lat.=55.900288, lon.=26.528814, Alt.=105.315491m. Speed=0.324000m/h.</desc>
<speed>0.090000</speed>
</trkpt>
<trkpt lat="55.900284" lon="26.528816">
<ele>105.321350</ele>
<time>2010-07-18T14:23:39Z</time>
<desc>lat.=55.900284, lon.=26.528816, Alt.=105.321350m. Speed=0.540000m/h.</desc>
<speed>0.150000</speed>
</trkpt>
<trkpt lat="55.900284" lon="26.528818">
<ele>105.329163</ele>
<time>2010-07-18T14:23:40Z</time>
<desc>lat.=55.900284, lon.=26.528818, Alt.=105.329163m. Speed=0.576000m/h.</desc>
<speed>0.160000</speed>
</trkpt>
<trkpt lat="55.900284" lon="26.528820">
<ele>105.338928</ele>
<time>2010-07-18T14:23:41Z</time>
<desc>lat.=55.900284, lon.=26.528820, Alt.=105.338928m. Speed=0.972000m/h.</desc>
<speed>0.270000</speed>
</trkpt>
<trkpt lat="55.900280" lon="26.528822">
<ele>105.352600</ele>
<time>2010-07-18T14:23:42Z</time>
<desc>lat.=55.900280, lon.=26.528822, Alt.=105.352600m. Speed=0.756000m/h.</desc>
<speed>0.210000</speed>
</trkpt>
<trkpt lat="55.900280" lon="26.528824">
<ele>105.366272</ele>
<time>2010-07-18T14:23:43Z</time>
<desc>lat.=55.900280, lon.=26.528824, Alt.=105.366272m. Speed=1.332000m/h.</desc>
<speed>0.370000</speed>
</trkpt>
<trkpt lat="55.900272" lon="26.528833">
<ele>106.075256</ele>
<time>2010-07-18T14:23:44Z</time>
<desc>lat.=55.900272, lon.=26.528833, Alt.=106.075256m. Speed=1.764000m/h.</desc>
<speed>0.490000</speed>
</trkpt>
<trkpt lat="55.900269" lon="26.528862">
<ele>106.417053</ele>
<time>2010-07-18T14:23:45Z</time>
<desc>lat.=55.900269, lon.=26.528862, Alt.=106.417053m. Speed=2.016000m/h.</desc>
<speed>0.560000</speed>
</trkpt>
<trkpt lat="55.900269" lon="26.528877">
<ele>106.688538</ele>
<time>2010-07-18T14:23:46Z</time>
<desc>lat.=55.900269, lon.=26.528877, Alt.=106.688538m. Speed=2.088000m/h.</desc>
<speed>0.580000</speed>
</trkpt>
<trkpt lat="55.900265" lon="26.528875">
<ele>107.045959</ele>
<time>2010-07-18T14:23:47Z</time>
<desc>lat.=55.900265, lon.=26.528875, Alt.=107.045959m. Speed=1.224000m/h.</desc>
<speed>0.340000</speed>
</trkpt>
<trkpt lat="55.900257" lon="26.528885">
<ele>107.379944</ele>
<time>2010-07-18T14:23:48Z</time>
<desc>lat.=55.900257, lon.=26.528885, Alt.=107.379944m. Speed=1.260000m/h.</desc>
<speed>0.350000</speed>
</trkpt>
<trkpt lat="55.900257" lon="26.528896">
<ele>107.737366</ele>
<time>2010-07-18T14:23:49Z</time>
<desc>lat.=55.900257, lon.=26.528896, Alt.=107.737366m. Speed=0.864000m/h.</desc>
<speed>0.240000</speed>
</trkpt>
<trkpt lat="55.900253" lon="26.528894">
<ele>108.231506</ele>
<time>2010-07-18T14:23:50Z</time>
<desc>lat.=55.900253, lon.=26.528894, Alt.=108.231506m. Speed=0.828000m/h.</desc>
<speed>0.230000</speed>
</trkpt>
<trkpt lat="55.900246" lon="26.528908">
<ele>108.467834</ele>
<time>2010-07-18T14:23:51Z</time>
<desc>lat.=55.900246, lon.=26.528908, Alt.=108.467834m. Speed=0.864000m/h.</desc>
<speed>0.240000</speed>
</trkpt>
<trkpt lat="55.900246" lon="26.528908">
<ele>108.881897</ele>
<time>2010-07-18T14:23:52Z</time>
<desc>lat.=55.900246, lon.=26.528908, Alt.=108.881897m. Speed=0.504000m/h.</desc>
<speed>0.140000</speed>
</trkpt>
<trkpt lat="55.900246" lon="26.528910">
<ele>108.903381</ele>
<time>2010-07-18T14:23:53Z</time>
<desc>lat.=55.900246, lon.=26.528910, Alt.=108.903381m. Speed=0.972000m/h.</desc>
<speed>0.270000</speed>
</trkpt>
<trkpt lat="55.900242" lon="26.528913">
<ele>108.922913</ele>
<time>2010-07-18T14:23:54Z</time>
<desc>lat.=55.900242, lon.=26.528913, Alt.=108.922913m. Speed=1.044000m/h.</desc>
<speed>0.290000</speed>
</trkpt>
<trkpt lat="55.900242" lon="26.528917">
<ele>108.938538</ele>
<time>2010-07-18T14:23:55Z</time>
<desc>lat.=55.900242, lon.=26.528917, Alt.=108.938538m. Speed=1.440000m/h.</desc>
<speed>0.400000</speed>
</trkpt>
<trkpt lat="55.900234" lon="26.528934">
<ele>108.979553</ele>
<time>2010-07-18T14:23:56Z</time>
<desc>lat.=55.900234, lon.=26.528934, Alt.=108.979553m. Speed=1.332000m/h.</desc>
<speed>0.370000</speed>
</trkpt>
<trkpt lat="55.900227" lon="26.528938">
<ele>109.204163</ele>
<time>2010-07-18T14:23:57Z</time>
<desc>lat.=55.900227, lon.=26.528938, Alt.=109.204163m. Speed=1.296000m/h.</desc>
<speed>0.360000</speed>
</trkpt>
<trkpt lat="55.900219" lon="26.528940">
<ele>109.481506</ele>
<time>2010-07-18T14:23:58Z</time>
<desc>lat.=55.900219, lon.=26.528940, Alt.=109.481506m. Speed=1.224000m/h.</desc>
<speed>0.340000</speed>
</trkpt>
<trkpt lat="55.900211" lon="26.528940">
<ele>109.807678</ele>
<time>2010-07-18T14:23:59Z</time>
<desc>lat.=55.900211, lon.=26.528940, Alt.=109.807678m. Speed=1.044000m/h.</desc>
<speed>0.290000</speed>
</trkpt>
<trkpt lat="55.900204" lon="26.528946">
<ele>109.997131</ele>
<time>2010-07-18T14:24:00Z</time>
<desc>lat.=55.900204, lon.=26.528946, Alt.=109.997131m. Speed=1.116000m/h.</desc>
<speed>0.310000</speed>
</trkpt>
<trkpt lat="55.900200" lon="26.528959">
<ele>110.219788</ele>
<time>2010-07-18T14:24:01Z</time>
<desc>lat.=55.900200, lon.=26.528959, Alt.=110.219788m. Speed=1.044000m/h.</desc>
<speed>0.290000</speed>
</trkpt>
<trkpt lat="55.900196" lon="26.528980">
<ele>110.270569</ele>
<time>2010-07-18T14:24:02Z</time>
<desc>lat.=55.900196, lon.=26.528980, Alt.=110.270569m. Speed=1.404000m/h.</desc>
<speed>0.390000</speed>
</trkpt>
<trkpt lat="55.900196" lon="26.528996">
<ele>110.331116</ele>
<time>2010-07-18T14:24:03Z</time>
<desc>lat.=55.900196, lon.=26.528996, Alt.=110.331116m. Speed=1.296000m/h.</desc>
<speed>0.360000</speed>
</trkpt>
<trkpt lat="55.900196" lon="26.528997">
<ele>110.493225</ele>
<time>2010-07-18T14:24:04Z</time>
<desc>lat.=55.900196, lon.=26.528997, Alt.=110.493225m. Speed=0.792000m/h.</desc>
<speed>0.220000</speed>
</trkpt>
<trkpt lat="55.900196" lon="26.528994">
<ele>110.751038</ele>
<time>2010-07-18T14:24:05Z</time>
<desc>lat.=55.900196, lon.=26.528994, Alt.=110.751038m. Speed=0.432000m/h.</desc>
<speed>0.120000</speed>
</trkpt>
<trkpt lat="55.900196" lon="26.528990">
<ele>110.973694</ele>
<time>2010-07-18T14:24:06Z</time>
<desc>lat.=55.900196, lon.=26.528990, Alt.=110.973694m. Speed=0.180000m/h.</desc>
<speed>0.050000</speed>
</trkpt>
<trkpt lat="55.900196" lon="26.528984">
<ele>111.229553</ele>
<time>2010-07-18T14:24:07Z</time>
<desc>lat.=55.900196, lon.=26.528984, Alt.=111.229553m. Speed=0.324000m/h.</desc>
<speed>0.090000</speed>
</trkpt>
<trkpt lat="55.900200" lon="26.528984">
<ele>111.243225</ele>
<time>2010-07-18T14:24:08Z</time>
<desc>lat.=55.900200, lon.=26.528984, Alt.=111.243225m. Speed=0.360000m/h.</desc>
<speed>0.100000</speed>
</trkpt>
<trkpt lat="55.900196" lon="26.528982">
<ele>111.254944</ele>
<time>2010-07-18T14:24:09Z</time>
<desc>lat.=55.900196, lon.=26.528982, Alt.=111.254944m. Speed=0.360000m/h.</desc>
<speed>0.100000</speed>
</trkpt>
<trkpt lat="55.900196" lon="26.528980">
<ele>111.266663</ele>
<time>2010-07-18T14:24:10Z</time>
<desc>lat.=55.900196, lon.=26.528980, Alt.=111.266663m. Speed=0.180000m/h.</desc>
<speed>0.050000</speed>
</trkpt>
<trkpt lat="55.900196" lon="26.528980">
<ele>111.276428</ele>
<time>2010-07-18T14:24:11Z</time>
<desc>lat.=55.900196, lon.=26.528980, Alt.=111.276428m. Speed=0.972000m/h.</desc>
<speed>0.270000</speed>
</trkpt>
<trkpt lat="55.900200" lon="26.528978">
<ele>111.286194</ele>
<time>2010-07-18T14:24:12Z</time>
<desc>lat.=55.900200, lon.=26.528978, Alt.=111.286194m. Speed=0.648000m/h.</desc>
<speed>0.180000</speed>
</trkpt>
<trkpt lat="55.900200" lon="26.528976">
<ele>111.297913</ele>
<time>2010-07-18T14:24:13Z</time>
<desc>lat.=55.900200, lon.=26.528976, Alt.=111.297913m. Speed=1.008000m/h.</desc>
<speed>0.280000</speed>
</trkpt>
<trkpt lat="55.900204" lon="26.528975">
<ele>111.307678</ele>
<time>2010-07-18T14:24:14Z</time>
<desc>lat.=55.900204, lon.=26.528975, Alt.=111.307678m. Speed=0.504000m/h.</desc>
<speed>0.140000</speed>
</trkpt>
<trkpt lat="55.900204" lon="26.528973">
<ele>111.317444</ele>
<time>2010-07-18T14:24:15Z</time>
<desc>lat.=55.900204, lon.=26.528973, Alt.=111.317444m. Speed=0.504000m/h.</desc>
<speed>0.140000</speed>
</trkpt>
<trkpt lat="55.900204" lon="26.528971">
<ele>111.325256</ele>
<time>2010-07-18T14:24:16Z</time>
<desc>lat.=55.900204, lon.=26.528971, Alt.=111.325256m. Speed=0.432000m/h.</desc>
<speed>0.120000</speed>
</trkpt>
<trkpt lat="55.900204" lon="26.528969">
<ele>111.335022</ele>
<time>2010-07-18T14:24:17Z</time>
<desc>lat.=55.900204, lon.=26.528969, Alt.=111.335022m. Speed=0.792000m/h.</desc>
<speed>0.220000</speed>
</trkpt>
<trkpt lat="55.900208" lon="26.528967">
<ele>111.344788</ele>
<time>2010-07-18T14:24:18Z</time>
<desc>lat.=55.900208, lon.=26.528967, Alt.=111.344788m. Speed=1.404000m/h.</desc>
<speed>0.390000</speed>
</trkpt>
<trkpt lat="55.900211" lon="26.528967">
<ele>111.577209</ele>
<time>2010-07-18T14:24:19Z</time>
<desc>lat.=55.900211, lon.=26.528967, Alt.=111.577209m. Speed=1.080000m/h.</desc>
<speed>0.300000</speed>
</trkpt>
<trkpt lat="55.900215" lon="26.528963">
<ele>111.795959</ele>
<time>2010-07-18T14:24:20Z</time>
<desc>lat.=55.900215, lon.=26.528963, Alt.=111.795959m. Speed=0.936000m/h.</desc>
<speed>0.260000</speed>
</trkpt>
<trkpt lat="55.900219" lon="26.528963">
<ele>111.930725</ele>
<time>2010-07-18T14:24:21Z</time>
<desc>lat.=55.900219, lon.=26.528963, Alt.=111.930725m. Speed=0.828000m/h.</desc>
<speed>0.230000</speed>
</trkpt>
<trkpt lat="55.900223" lon="26.528957">
<ele>112.202209</ele>
<time>2010-07-18T14:24:22Z</time>
<desc>lat.=55.900223, lon.=26.528957, Alt.=112.202209m. Speed=0.684000m/h.</desc>
<speed>0.190000</speed>
</trkpt>
<trkpt lat="55.900219" lon="26.528963">
<ele>112.540100</ele>
<time>2010-07-18T14:24:23Z</time>
<desc>lat.=55.900219, lon.=26.528963, Alt.=112.540100m. Speed=0.324000m/h.</desc>
<speed>0.090000</speed>
</trkpt>
<trkpt lat="55.900219" lon="26.528965">
<ele>112.557678</ele>
<time>2010-07-18T14:24:24Z</time>
<desc>lat.=55.900219, lon.=26.528965, Alt.=112.557678m. Speed=0.252000m/h.</desc>
<speed>0.070000</speed>
</trkpt>
<trkpt lat="55.900223" lon="26.528967">
<ele>112.573303</ele>
<time>2010-07-18T14:24:25Z</time>
<desc>lat.=55.900223, lon.=26.528967, Alt.=112.573303m. Speed=0.180000m/h.</desc>
<speed>0.050000</speed>
</trkpt>
<trkpt lat="55.900219" lon="26.528967">
<ele>112.590881</ele>
<time>2010-07-18T14:24:26Z</time>
<desc>lat.=55.900219, lon.=26.528967, Alt.=112.590881m. Speed=0.108000m/h.</desc>
<speed>0.030000</speed>
</trkpt>
<trkpt lat="55.900219" lon="26.528967">
<ele>112.606506</ele>
<time>2010-07-18T14:24:27Z</time>
<desc>lat.=55.900219, lon.=26.528967, Alt.=112.606506m. Speed=0.180000m/h.</desc>
<speed>0.050000</speed>
</trkpt>
<trkpt lat="55.900219" lon="26.528969">
<ele>112.622131</ele>
<time>2010-07-18T14:24:28Z</time>
<desc>lat.=55.900219, lon.=26.528969, Alt.=112.622131m. Speed=0.108000m/h.</desc>
<speed>0.030000</speed>
</trkpt>
<trkpt lat="55.900219" lon="26.528969">
<ele>112.637756</ele>
<time>2010-07-18T14:24:29Z</time>
<desc>lat.=55.900219, lon.=26.528969, Alt.=112.637756m. Speed=0.288000m/h.</desc>
<speed>0.080000</speed>
</trkpt>
<trkpt lat="55.900223" lon="26.528967">
<ele>112.651428</ele>
<time>2010-07-18T14:24:30Z</time>
<desc>lat.=55.900223, lon.=26.528967, Alt.=112.651428m. Speed=0.468000m/h.</desc>
<speed>0.130000</speed>
</trkpt>
<trkpt lat="55.900223" lon="26.528967">
<ele>112.667053</ele>
<time>2010-07-18T14:24:31Z</time>
<desc>lat.=55.900223, lon.=26.528967, Alt.=112.667053m. Speed=0.792000m/h.</desc>
<speed>0.220000</speed>
</trkpt>
<trkpt lat="55.900223" lon="26.528965">
<ele>112.680725</ele>
<time>2010-07-18T14:24:32Z</time>
<desc>lat.=55.900223, lon.=26.528965, Alt.=112.680725m. Speed=0.504000m/h.</desc>
<speed>0.140000</speed>
</trkpt>
<trkpt lat="55.900227" lon="26.528965">
<ele>112.690491</ele>
<time>2010-07-18T14:24:33Z</time>
<desc>lat.=55.900227, lon.=26.528965, Alt.=112.690491m. Speed=0.720000m/h.</desc>
<speed>0.200000</speed>
</trkpt>
<trkpt lat="55.900227" lon="26.528963">
<ele>112.702209</ele>
<time>2010-07-18T14:24:34Z</time>
<desc>lat.=55.900227, lon.=26.528963, Alt.=112.702209m. Speed=1.044000m/h.</desc>
<speed>0.290000</speed>
</trkpt>
<trkpt lat="55.900230" lon="26.528963">
<ele>112.715881</ele>
<time>2010-07-18T14:24:35Z</time>
<desc>lat.=55.900230, lon.=26.528963, Alt.=112.715881m. Speed=1.044000m/h.</desc>
<speed>0.290000</speed>
</trkpt>
<trkpt lat="55.900234" lon="26.528963">
<ele>112.731506</ele>
<time>2010-07-18T14:24:36Z</time>
<desc>lat.=55.900234, lon.=26.528963, Alt.=112.731506m. Speed=0.936000m/h.</desc>
<speed>0.260000</speed>
</trkpt>
<trkpt lat="55.900234" lon="26.528963">
<ele>112.747131</ele>
<time>2010-07-18T14:24:37Z</time>
<desc>lat.=55.900234, lon.=26.528963, Alt.=112.747131m. Speed=1.116000m/h.</desc>
<speed>0.310000</speed>
</trkpt>
<trkpt lat="55.900238" lon="26.528973">
<ele>113.010803</ele>
<time>2010-07-18T14:24:38Z</time>
<desc>lat.=55.900238, lon.=26.528973, Alt.=113.010803m. Speed=0.936000m/h.</desc>
<speed>0.260000</speed>
</trkpt>
<trkpt lat="55.900234" lon="26.528986">
<ele>113.229553</ele>
<time>2010-07-18T14:24:39Z</time>
<desc>lat.=55.900234, lon.=26.528986, Alt.=113.229553m. Speed=0.612000m/h.</desc>
<speed>0.170000</speed>
</trkpt>
<trkpt lat="55.900230" lon="26.528999">
<ele>113.352600</ele>
<time>2010-07-18T14:24:40Z</time>
<desc>lat.=55.900230, lon.=26.528999, Alt.=113.352600m. Speed=0.504000m/h.</desc>
<speed>0.140000</speed>
</trkpt>
<trkpt lat="55.900223" lon="26.529013">
<ele>113.786194</ele>
<time>2010-07-18T14:24:41Z</time>
<desc>lat.=55.900223, lon.=26.529013, Alt.=113.786194m. Speed=0.756000m/h.</desc>
<speed>0.210000</speed>
</trkpt>
<trkpt lat="55.900223" lon="26.529016">
<ele>113.813538</ele>
<time>2010-07-18T14:24:42Z</time>
<desc>lat.=55.900223, lon.=26.529016, Alt.=113.813538m. Speed=0.792000m/h.</desc>
<speed>0.220000</speed>
</trkpt>
<trkpt lat="55.900223" lon="26.529020">
<ele>113.838928</ele>
<time>2010-07-18T14:24:43Z</time>
<desc>lat.=55.900223, lon.=26.529020, Alt.=113.838928m. Speed=0.612000m/h.</desc>
<speed>0.170000</speed>
</trkpt>
<trkpt lat="55.900223" lon="26.529022">
<ele>113.862366</ele>
<time>2010-07-18T14:24:44Z</time>
<desc>lat.=55.900223, lon.=26.529022, Alt.=113.862366m. Speed=0.324000m/h.</desc>
<speed>0.090000</speed>
</trkpt>
<trkpt lat="55.900223" lon="26.529022">
<ele>113.881897</ele>
<time>2010-07-18T14:24:45Z</time>
<desc>lat.=55.900223, lon.=26.529022, Alt.=113.881897m. Speed=0.504000m/h.</desc>
<speed>0.140000</speed>
</trkpt>
<trkpt lat="55.900227" lon="26.529022">
<ele>113.897522</ele>
<time>2010-07-18T14:24:46Z</time>
<desc>lat.=55.900227, lon.=26.529022, Alt.=113.897522m. Speed=0.468000m/h.</desc>
<speed>0.130000</speed>
</trkpt>
<trkpt lat="55.900227" lon="26.529020">
<ele>113.920959</ele>
<time>2010-07-18T14:24:47Z</time>
<desc>lat.=55.900227, lon.=26.529020, Alt.=113.920959m. Speed=0.756000m/h.</desc>
<speed>0.210000</speed>
</trkpt>
<trkpt lat="55.900227" lon="26.529022">
<ele>113.944397</ele>
<time>2010-07-18T14:24:48Z</time>
<desc>lat.=55.900227, lon.=26.529022, Alt.=113.944397m. Speed=1.296000m/h.</desc>
<speed>0.360000</speed>
</trkpt>
<trkpt lat="55.900230" lon="26.529018">
<ele>114.370178</ele>
<time>2010-07-18T14:24:49Z</time>
<desc>lat.=55.900230, lon.=26.529018, Alt.=114.370178m. Speed=0.612000m/h.</desc>
<speed>0.170000</speed>
</trkpt>
<trkpt lat="55.900234" lon="26.529003">
<ele>114.776428</ele>
<time>2010-07-18T14:24:50Z</time>
<desc>lat.=55.900234, lon.=26.529003, Alt.=114.776428m. Speed=0.684000m/h.</desc>
<speed>0.190000</speed>
</trkpt>
<trkpt lat="55.900238" lon="26.528982">
<ele>115.460022</ele>
<time>2010-07-18T14:24:51Z</time>
<desc>lat.=55.900238, lon.=26.528982, Alt.=115.460022m. Speed=0.972000m/h.</desc>
<speed>0.270000</speed>
</trkpt>
<trkpt lat="55.900242" lon="26.528969">
<ele>115.717834</ele>
<time>2010-07-18T14:24:52Z</time>
<desc>lat.=55.900242, lon.=26.528969, Alt.=115.717834m. Speed=1.224000m/h.</desc>
<speed>0.340000</speed>
</trkpt>
<trkpt lat="55.900253" lon="26.528971">
<ele>115.936584</ele>
<time>2010-07-18T14:24:53Z</time>
<desc>lat.=55.900253, lon.=26.528971, Alt.=115.936584m. Speed=1.080000m/h.</desc>
<speed>0.300000</speed>
</trkpt>
<trkpt lat="55.900261" lon="26.528976">
<ele>116.165100</ele>
<time>2010-07-18T14:24:54Z</time>
<desc>lat.=55.900261, lon.=26.528976, Alt.=116.165100m. Speed=0.936000m/h.</desc>
<speed>0.260000</speed>
</trkpt>
<trkpt lat="55.900269" lon="26.528973">
<ele>116.370178</ele>
<time>2010-07-18T14:24:55Z</time>
<desc>lat.=55.900269, lon.=26.528973, Alt.=116.370178m. Speed=0.936000m/h.</desc>
<speed>0.260000</speed>
</trkpt>
<trkpt lat="55.900276" lon="26.528955">
<ele>116.792053</ele>
<time>2010-07-18T14:24:56Z</time>
<desc>lat.=55.900276, lon.=26.528955, Alt.=116.792053m. Speed=1.476000m/h.</desc>
<speed>0.410000</speed>
</trkpt>
<trkpt lat="55.900280" lon="26.528944">
<ele>117.063538</ele>
<time>2010-07-18T14:24:57Z</time>
<desc>lat.=55.900280, lon.=26.528944, Alt.=117.063538m. Speed=1.404000m/h.</desc>
<speed>0.390000</speed>
</trkpt>
<trkpt lat="55.900288" lon="26.528927">
<ele>117.383850</ele>
<time>2010-07-18T14:24:58Z</time>
<desc>lat.=55.900288, lon.=26.528927, Alt.=117.383850m. Speed=0.972000m/h.</desc>
<speed>0.270000</speed>
</trkpt>
<trkpt lat="55.900295" lon="26.528913">
<ele>117.733459</ele>
<time>2010-07-18T14:24:59Z</time>
<desc>lat.=55.900295, lon.=26.528913, Alt.=117.733459m. Speed=0.720000m/h.</desc>
<speed>0.200000</speed>
</trkpt>
<trkpt lat="55.900299" lon="26.528913">
<ele>117.877991</ele>
<time>2010-07-18T14:25:00Z</time>
<desc>lat.=55.900299, lon.=26.528913, Alt.=117.877991m. Speed=0.540000m/h.</desc>
<speed>0.150000</speed>
</trkpt>
<trkpt lat="55.900295" lon="26.528908">
<ele>118.006897</ele>
<time>2010-07-18T14:25:01Z</time>
<desc>lat.=55.900295, lon.=26.528908, Alt.=118.006897m. Speed=0.612000m/h.</desc>
<speed>0.170000</speed>
</trkpt>
<trkpt lat="55.900295" lon="26.528906">
<ele>118.026428</ele>
<time>2010-07-18T14:25:02Z</time>
<desc>lat.=55.900295, lon.=26.528906, Alt.=118.026428m. Speed=0.792000m/h.</desc>
<speed>0.220000</speed>
</trkpt>
<trkpt lat="55.900295" lon="26.528902">
<ele>118.044006</ele>
<time>2010-07-18T14:25:03Z</time>
<desc>lat.=55.900295, lon.=26.528902, Alt.=118.044006m. Speed=0.540000m/h.</desc>
<speed>0.150000</speed>
</trkpt>
<trkpt lat="55.900295" lon="26.528900">
<ele>118.053772</ele>
<time>2010-07-18T14:25:04Z</time>
<desc>lat.=55.900295, lon.=26.528900, Alt.=118.053772m. Speed=0.684000m/h.</desc>
<speed>0.190000</speed>
</trkpt>
<trkpt lat="55.900295" lon="26.528896">
<ele>118.065491</ele>
<time>2010-07-18T14:25:05Z</time>
<desc>lat.=55.900295, lon.=26.528896, Alt.=118.065491m. Speed=0.864000m/h.</desc>
<speed>0.240000</speed>
</trkpt>
<trkpt lat="55.900295" lon="26.528893">
<ele>118.075256</ele>
<time>2010-07-18T14:25:06Z</time>
<desc>lat.=55.900295, lon.=26.528893, Alt.=118.075256m. Speed=0.900000m/h.</desc>
<speed>0.250000</speed>
</trkpt>
<trkpt lat="55.900299" lon="26.528889">
<ele>118.083069</ele>
<time>2010-07-18T14:25:07Z</time>
<desc>lat.=55.900299, lon.=26.528889, Alt.=118.083069m. Speed=1.224000m/h.</desc>
<speed>0.340000</speed>
</trkpt>
<trkpt lat="55.900299" lon="26.528885">
<ele>118.256897</ele>
<time>2010-07-18T14:25:08Z</time>
<desc>lat.=55.900299, lon.=26.528885, Alt.=118.256897m. Speed=0.792000m/h.</desc>
<speed>0.220000</speed>
</trkpt>
<trkpt lat="55.900303" lon="26.528885">
<ele>118.381897</ele>
<time>2010-07-18T14:25:09Z</time>
<desc>lat.=55.900303, lon.=26.528885, Alt.=118.381897m. Speed=0.684000m/h.</desc>
<speed>0.190000</speed>
</trkpt>
<trkpt lat="55.900303" lon="26.528887">
<ele>118.544006</ele>
<time>2010-07-18T14:25:10Z</time>
<desc>lat.=55.900303, lon.=26.528887, Alt.=118.544006m. Speed=0.828000m/h.</desc>
<speed>0.230000</speed>
</trkpt>
<trkpt lat="55.900307" lon="26.528885">
<ele>118.725647</ele>
<time>2010-07-18T14:25:11Z</time>
<desc>lat.=55.900307, lon.=26.528885, Alt.=118.725647m. Speed=0.936000m/h.</desc>
<speed>0.260000</speed>
</trkpt>
<trkpt lat="55.900307" lon="26.528883">
<ele>118.735413</ele>
<time>2010-07-18T14:25:12Z</time>
<desc>lat.=55.900307, lon.=26.528883, Alt.=118.735413m. Speed=0.792000m/h.</desc>
<speed>0.220000</speed>
</trkpt>
<trkpt lat="55.900311" lon="26.528881">
<ele>118.741272</ele>
<time>2010-07-18T14:25:13Z</time>
<desc>lat.=55.900311, lon.=26.528881, Alt.=118.741272m. Speed=1.692000m/h.</desc>
<speed>0.470000</speed>
</trkpt>
<trkpt lat="55.900314" lon="26.528877">
<ele>118.836975</ele>
<time>2010-07-18T14:25:14Z</time>
<desc>lat.=55.900314, lon.=26.528877, Alt.=118.836975m. Speed=1.188000m/h.</desc>
<speed>0.330000</speed>
</trkpt>
<trkpt lat="55.900326" lon="26.528875">
<ele>118.899475</ele>
<time>2010-07-18T14:25:15Z</time>
<desc>lat.=55.900326, lon.=26.528875, Alt.=118.899475m. Speed=0.900000m/h.</desc>
<speed>0.250000</speed>
</trkpt>
<trkpt lat="55.900330" lon="26.528877">
<ele>119.002991</ele>
<time>2010-07-18T14:25:16Z</time>
<desc>lat.=55.900330, lon.=26.528877, Alt.=119.002991m. Speed=0.792000m/h.</desc>
<speed>0.220000</speed>
</trkpt>
<trkpt lat="55.900326" lon="26.528883">
<ele>119.069397</ele>
<time>2010-07-18T14:25:17Z</time>
<desc>lat.=55.900326, lon.=26.528883, Alt.=119.069397m. Speed=0.396000m/h.</desc>
<speed>0.110000</speed>
</trkpt>
<trkpt lat="55.900322" lon="26.528885">
<ele>119.030334</ele>
<time>2010-07-18T14:25:18Z</time>
<desc>lat.=55.900322, lon.=26.528885, Alt.=119.030334m. Speed=0.540000m/h.</desc>
<speed>0.150000</speed>
</trkpt>
<trkpt lat="55.900322" lon="26.528883">
<ele>119.034241</ele>
<time>2010-07-18T14:25:19Z</time>
<desc>lat.=55.900322, lon.=26.528883, Alt.=119.034241m. Speed=0.396000m/h.</desc>
<speed>0.110000</speed>
</trkpt>
<trkpt lat="55.900322" lon="26.528881">
<ele>119.038147</ele>
<time>2010-07-18T14:25:20Z</time>
<desc>lat.=55.900322, lon.=26.528881, Alt.=119.038147m. Speed=0.216000m/h.</desc>
<speed>0.060000</speed>
</trkpt>
<trkpt lat="55.900322" lon="26.528881">
<ele>119.038147</ele>
<time>2010-07-18T14:25:21Z</time>
<desc>lat.=55.900322, lon.=26.528881, Alt.=119.038147m. Speed=0.720000m/h.</desc>
<speed>0.200000</speed>
</trkpt>
<trkpt lat="55.900322" lon="26.528877">
<ele>119.042053</ele>
<time>2010-07-18T14:25:22Z</time>
<desc>lat.=55.900322, lon.=26.528877, Alt.=119.042053m. Speed=0.828000m/h.</desc>
<speed>0.230000</speed>
</trkpt>
<trkpt lat="55.900322" lon="26.528873">
<ele>119.044006</ele>
<time>2010-07-18T14:25:23Z</time>
<desc>lat.=55.900322, lon.=26.528873, Alt.=119.044006m. Speed=1.260000m/h.</desc>
<speed>0.350000</speed>
</trkpt>
<trkpt lat="55.900326" lon="26.528870">
<ele>119.020569</ele>
<time>2010-07-18T14:25:24Z</time>
<desc>lat.=55.900326, lon.=26.528870, Alt.=119.020569m. Speed=1.116000m/h.</desc>
<speed>0.310000</speed>
</trkpt>
<trkpt lat="55.900330" lon="26.528870">
<ele>118.954163</ele>
<time>2010-07-18T14:25:25Z</time>
<desc>lat.=55.900330, lon.=26.528870, Alt.=118.954163m. Speed=0.756000m/h.</desc>
<speed>0.210000</speed>
</trkpt>
<trkpt lat="55.900330" lon="26.528860">
<ele>118.876038</ele>
<time>2010-07-18T14:25:26Z</time>
<desc>lat.=55.900330, lon.=26.528860, Alt.=118.876038m. Speed=0.828000m/h.</desc>
<speed>0.230000</speed>
</trkpt>
<trkpt lat="55.900333" lon="26.528860">
<ele>118.696350</ele>
<time>2010-07-18T14:25:27Z</time>
<desc>lat.=55.900333, lon.=26.528860, Alt.=118.696350m. Speed=0.648000m/h.</desc>
<speed>0.180000</speed>
</trkpt>
<trkpt lat="55.900337" lon="26.528854">
<ele>118.411194</ele>
<time>2010-07-18T14:25:28Z</time>
<desc>lat.=55.900337, lon.=26.528854, Alt.=118.411194m. Speed=0.612000m/h.</desc>
<speed>0.170000</speed>
</trkpt>
<trkpt lat="55.900337" lon="26.528851">
<ele>118.409241</ele>
<time>2010-07-18T14:25:29Z</time>
<desc>lat.=55.900337, lon.=26.528851, Alt.=118.409241m. Speed=0.504000m/h.</desc>
<speed>0.140000</speed>
</trkpt>
<trkpt lat="55.900341" lon="26.528849">
<ele>118.405334</ele>
<time>2010-07-18T14:25:30Z</time>
<desc>lat.=55.900341, lon.=26.528849, Alt.=118.405334m. Speed=0.360000m/h.</desc>
<speed>0.100000</speed>
</trkpt>
<trkpt lat="55.900341" lon="26.528849">
<ele>118.401428</ele>
<time>2010-07-18T14:25:31Z</time>
<desc>lat.=55.900341, lon.=26.528849, Alt.=118.401428m. Speed=0.612000m/h.</desc>
<speed>0.170000</speed>
</trkpt>
<trkpt lat="55.900341" lon="26.528847">
<ele>118.397522</ele>
<time>2010-07-18T14:25:32Z</time>
<desc>lat.=55.900341, lon.=26.528847, Alt.=118.397522m. Speed=0.612000m/h.</desc>
<speed>0.170000</speed>
</trkpt>
<trkpt lat="55.900341" lon="26.528845">
<ele>118.391663</ele>
<time>2010-07-18T14:25:33Z</time>
<desc>lat.=55.900341, lon.=26.528845, Alt.=118.391663m. Speed=0.576000m/h.</desc>
<speed>0.160000</speed>
</trkpt>
<trkpt lat="55.900345" lon="26.528841">
<ele>118.393616</ele>
<time>2010-07-18T14:25:34Z</time>
<desc>lat.=55.900345, lon.=26.528841, Alt.=118.393616m. Speed=0.720000m/h.</desc>
<speed>0.200000</speed>
</trkpt>
<trkpt lat="55.900345" lon="26.528839">
<ele>118.391663</ele>
<time>2010-07-18T14:25:35Z</time>
<desc>lat.=55.900345, lon.=26.528839, Alt.=118.391663m. Speed=1.044000m/h.</desc>
<speed>0.290000</speed>
</trkpt>
<trkpt lat="55.900345" lon="26.528835">
<ele>118.387756</ele>
<time>2010-07-18T14:25:36Z</time>
<desc>lat.=55.900345, lon.=26.528835, Alt.=118.387756m. Speed=0.576000m/h.</desc>
<speed>0.160000</speed>
</trkpt>
<trkpt lat="55.900345" lon="26.528831">
<ele>118.383850</ele>
<time>2010-07-18T14:25:37Z</time>
<desc>lat.=55.900345, lon.=26.528831, Alt.=118.383850m. Speed=0.288000m/h.</desc>
<speed>0.080000</speed>
</trkpt>
<trkpt lat="55.900345" lon="26.528831">
<ele>118.376038</ele>
<time>2010-07-18T14:25:38Z</time>
<desc>lat.=55.900345, lon.=26.528831, Alt.=118.376038m. Speed=0.072000m/h.</desc>
<speed>0.020000</speed>
</trkpt>
<trkpt lat="55.900345" lon="26.528831">
<ele>118.366272</ele>
<time>2010-07-18T14:25:39Z</time>
<desc>lat.=55.900345, lon.=26.528831, Alt.=118.366272m. Speed=0.684000m/h.</desc>
<speed>0.190000</speed>
</trkpt>
<trkpt lat="55.900341" lon="26.528835">
<ele>118.362366</ele>
<time>2010-07-18T14:25:40Z</time>
<desc>lat.=55.900341, lon.=26.528835, Alt.=118.362366m. Speed=0.864000m/h.</desc>
<speed>0.240000</speed>
</trkpt>
<trkpt lat="55.900341" lon="26.528839">
<ele>118.364319</ele>
<time>2010-07-18T14:25:41Z</time>
<desc>lat.=55.900341, lon.=26.528839, Alt.=118.364319m. Speed=1.260000m/h.</desc>
<speed>0.350000</speed>
</trkpt>
<trkpt lat="55.900333" lon="26.528856">
<ele>118.247131</ele>
<time>2010-07-18T14:25:42Z</time>
<desc>lat.=55.900333, lon.=26.528856, Alt.=118.247131m. Speed=1.476000m/h.</desc>
<speed>0.410000</speed>
</trkpt>
<trkpt lat="55.900326" lon="26.528875">
<ele>118.081116</ele>
<time>2010-07-18T14:25:43Z</time>
<desc>lat.=55.900326, lon.=26.528875, Alt.=118.081116m. Speed=1.368000m/h.</desc>
<speed>0.380000</speed>
</trkpt>
<trkpt lat="55.900322" lon="26.528885">
<ele>118.112366</ele>
<time>2010-07-18T14:25:44Z</time>
<desc>lat.=55.900322, lon.=26.528885, Alt.=118.112366m. Speed=1.332000m/h.</desc>
<speed>0.370000</speed>
</trkpt>
<trkpt lat="55.900318" lon="26.528896">
<ele>118.190491</ele>
<time>2010-07-18T14:25:45Z</time>
<desc>lat.=55.900318, lon.=26.528896, Alt.=118.190491m. Speed=1.044000m/h.</desc>
<speed>0.290000</speed>
</trkpt>
<trkpt lat="55.900311" lon="26.528904">
<ele>118.297913</ele>
<time>2010-07-18T14:25:46Z</time>
<desc>lat.=55.900311, lon.=26.528904, Alt.=118.297913m. Speed=0.972000m/h.</desc>
<speed>0.270000</speed>
</trkpt>
<trkpt lat="55.900311" lon="26.528915">
<ele>118.233459</ele>
<time>2010-07-18T14:25:47Z</time>
<desc>lat.=55.900311, lon.=26.528915, Alt.=118.233459m. Speed=1.152000m/h.</desc>
<speed>0.320000</speed>
</trkpt>
<trkpt lat="55.900311" lon="26.528923">
<ele>118.225647</ele>
<time>2010-07-18T14:25:48Z</time>
<desc>lat.=55.900311, lon.=26.528923, Alt.=118.225647m. Speed=0.972000m/h.</desc>
<speed>0.270000</speed>
</trkpt>
<trkpt lat="55.900307" lon="26.528931">
<ele>118.192444</ele>
<time>2010-07-18T14:25:49Z</time>
<desc>lat.=55.900307, lon.=26.528931, Alt.=118.192444m. Speed=0.900000m/h.</desc>
<speed>0.250000</speed>
</trkpt>
<trkpt lat="55.900307" lon="26.528921">
<ele>118.237366</ele>
<time>2010-07-18T14:25:50Z</time>
<desc>lat.=55.900307, lon.=26.528921, Alt.=118.237366m. Speed=0.360000m/h.</desc>
<speed>0.100000</speed>
</trkpt>
<trkpt lat="55.900311" lon="26.528923">
<ele>118.196350</ele>
<time>2010-07-18T14:25:51Z</time>
<desc>lat.=55.900311, lon.=26.528923, Alt.=118.196350m. Speed=0.540000m/h.</desc>
<speed>0.150000</speed>
</trkpt>
<trkpt lat="55.900307" lon="26.528923">
<ele>118.198303</ele>
<time>2010-07-18T14:25:52Z</time>
<desc>lat.=55.900307, lon.=26.528923, Alt.=118.198303m. Speed=0.612000m/h.</desc>
<speed>0.170000</speed>
</trkpt>
<trkpt lat="55.900307" lon="26.528923">
<ele>118.200256</ele>
<time>2010-07-18T14:25:53Z</time>
<desc>lat.=55.900307, lon.=26.528923, Alt.=118.200256m. Speed=0.324000m/h.</desc>
<speed>0.090000</speed>
</trkpt>
<trkpt lat="55.900307" lon="26.528921">
<ele>118.200256</ele>
<time>2010-07-18T14:25:54Z</time>
<desc>lat.=55.900307, lon.=26.528921, Alt.=118.200256m. Speed=0.000000m/h.</desc>
<speed>0.000000</speed>
</trkpt>
<trkpt lat="55.900307" lon="26.528921">
<ele>118.202209</ele>
<time>2010-07-18T14:25:55Z</time>
<desc>lat.=55.900307, lon.=26.528921, Alt.=118.202209m. Speed=0.288000m/h.</desc>
<speed>0.080000</speed>
</trkpt>
<trkpt lat="55.900307" lon="26.528919">
<ele>118.206116</ele>
<time>2010-07-18T14:25:56Z</time>
<desc>lat.=55.900307, lon.=26.528919, Alt.=118.206116m. Speed=0.108000m/h.</desc>
<speed>0.030000</speed>
</trkpt>
<trkpt lat="55.900307" lon="26.528919">
<ele>118.211975</ele>
<time>2010-07-18T14:25:57Z</time>
<desc>lat.=55.900307, lon.=26.528919, Alt.=118.211975m. Speed=0.468000m/h.</desc>
<speed>0.130000</speed>
</trkpt>
<trkpt lat="55.900307" lon="26.528921">
<ele>118.217834</ele>
<time>2010-07-18T14:25:58Z</time>
<desc>lat.=55.900307, lon.=26.528921, Alt.=118.217834m. Speed=0.396000m/h.</desc>
<speed>0.110000</speed>
</trkpt>
<trkpt lat="55.900307" lon="26.528923">
<ele>118.223694</ele>
<time>2010-07-18T14:25:59Z</time>
<desc>lat.=55.900307, lon.=26.528923, Alt.=118.223694m. Speed=0.792000m/h.</desc>
<speed>0.220000</speed>
</trkpt>
<trkpt lat="55.900307" lon="26.528927">
<ele>118.229553</ele>
<time>2010-07-18T14:26:00Z</time>
<desc>lat.=55.900307, lon.=26.528927, Alt.=118.229553m. Speed=0.468000m/h.</desc>
<speed>0.130000</speed>
</trkpt>
<trkpt lat="55.900311" lon="26.528929">
<ele>118.235413</ele>
<time>2010-07-18T14:26:01Z</time>
<desc>lat.=55.900311, lon.=26.528929, Alt.=118.235413m. Speed=0.432000m/h.</desc>
<speed>0.120000</speed>
</trkpt>
<trkpt lat="55.900311" lon="26.528931">
<ele>118.241272</ele>
<time>2010-07-18T14:26:02Z</time>
<desc>lat.=55.900311, lon.=26.528931, Alt.=118.241272m. Speed=0.504000m/h.</desc>
<speed>0.140000</speed>
</trkpt>
<trkpt lat="55.900307" lon="26.528933">
<ele>118.243225</ele>
<time>2010-07-18T14:26:03Z</time>
<desc>lat.=55.900307, lon.=26.528933, Alt.=118.243225m. Speed=0.432000m/h.</desc>
<speed>0.120000</speed>
</trkpt>
<trkpt lat="55.900307" lon="26.528934">
<ele>118.247131</ele>
<time>2010-07-18T14:26:04Z</time>
<desc>lat.=55.900307, lon.=26.528934, Alt.=118.247131m. Speed=0.468000m/h.</desc>
<speed>0.130000</speed>
</trkpt>
<trkpt lat="55.900307" lon="26.528936">
<ele>118.252991</ele>
<time>2010-07-18T14:26:05Z</time>
<desc>lat.=55.900307, lon.=26.528936, Alt.=118.252991m. Speed=0.324000m/h.</desc>
<speed>0.090000</speed>
</trkpt>
<trkpt lat="55.900307" lon="26.528934">
<ele>118.252991</ele>
<time>2010-07-18T14:26:06Z</time>
<desc>lat.=55.900307, lon.=26.528934, Alt.=118.252991m. Speed=0.288000m/h.</desc>
<speed>0.080000</speed>
</trkpt>
<trkpt lat="55.900307" lon="26.528936">
<ele>118.254944</ele>
<time>2010-07-18T14:26:07Z</time>
<desc>lat.=55.900307, lon.=26.528936, Alt.=118.254944m. Speed=0.288000m/h.</desc>
<speed>0.080000</speed>
</trkpt>
<trkpt lat="55.900307" lon="26.528936">
<ele>118.256897</ele>
<time>2010-07-18T14:26:08Z</time>
<desc>lat.=55.900307, lon.=26.528936, Alt.=118.256897m. Speed=0.252000m/h.</desc>
<speed>0.070000</speed>
</trkpt>
<trkpt lat="55.900307" lon="26.528938">
<ele>118.258850</ele>
<time>2010-07-18T14:26:09Z</time>
<desc>lat.=55.900307, lon.=26.528938, Alt.=118.258850m. Speed=0.756000m/h.</desc>
<speed>0.210000</speed>
</trkpt>
<trkpt lat="55.900307" lon="26.528942">
<ele>118.256897</ele>
<time>2010-07-18T14:26:10Z</time>
<desc>lat.=55.900307, lon.=26.528942, Alt.=118.256897m. Speed=0.936000m/h.</desc>
<speed>0.260000</speed>
</trkpt>
<trkpt lat="55.900307" lon="26.528946">
<ele>118.256897</ele>
<time>2010-07-18T14:26:11Z</time>
<desc>lat.=55.900307, lon.=26.528946, Alt.=118.256897m. Speed=0.396000m/h.</desc>
<speed>0.110000</speed>
</trkpt>
<trkpt lat="55.900307" lon="26.528948">
<ele>118.256897</ele>
<time>2010-07-18T14:26:12Z</time>
<desc>lat.=55.900307, lon.=26.528948, Alt.=118.256897m. Speed=0.360000m/h.</desc>
<speed>0.100000</speed>
</trkpt>
<trkpt lat="55.900307" lon="26.528948">
<ele>118.254944</ele>
<time>2010-07-18T14:26:13Z</time>
<desc>lat.=55.900307, lon.=26.528948, Alt.=118.254944m. Speed=0.324000m/h.</desc>
<speed>0.090000</speed>
</trkpt>
<trkpt lat="55.900307" lon="26.528950">
<ele>118.251038</ele>
<time>2010-07-18T14:26:14Z</time>
<desc>lat.=55.900307, lon.=26.528950, Alt.=118.251038m. Speed=0.576000m/h.</desc>
<speed>0.160000</speed>
</trkpt>
<trkpt lat="55.900307" lon="26.528952">
<ele>118.247131</ele>
<time>2010-07-18T14:26:15Z</time>
<desc>lat.=55.900307, lon.=26.528952, Alt.=118.247131m. Speed=0.252000m/h.</desc>
<speed>0.070000</speed>
</trkpt>
<trkpt lat="55.900307" lon="26.528954">
<ele>118.247131</ele>
<time>2010-07-18T14:26:16Z</time>
<desc>lat.=55.900307, lon.=26.528954, Alt.=118.247131m. Speed=0.180000m/h.</desc>
<speed>0.050000</speed>
</trkpt>
<trkpt lat="55.900307" lon="26.528954">
<ele>118.247131</ele>
<time>2010-07-18T14:26:17Z</time>
<desc>lat.=55.900307, lon.=26.528954, Alt.=118.247131m. Speed=0.180000m/h.</desc>
<speed>0.050000</speed>
</trkpt>
<trkpt lat="55.900303" lon="26.528954">
<ele>118.241272</ele>
<time>2010-07-18T14:26:18Z</time>
<desc>lat.=55.900303, lon.=26.528954, Alt.=118.241272m. Speed=0.432000m/h.</desc>
<speed>0.120000</speed>
</trkpt>
<trkpt lat="55.900307" lon="26.528952">
<ele>118.235413</ele>
<time>2010-07-18T14:26:19Z</time>
<desc>lat.=55.900307, lon.=26.528952, Alt.=118.235413m. Speed=0.576000m/h.</desc>
<speed>0.160000</speed>
</trkpt>
<trkpt lat="55.900307" lon="26.528950">
<ele>118.231506</ele>
<time>2010-07-18T14:26:20Z</time>
<desc>lat.=55.900307, lon.=26.528950, Alt.=118.231506m. Speed=0.180000m/h.</desc>
<speed>0.050000</speed>
</trkpt>
<trkpt lat="55.900307" lon="26.528948">
<ele>118.231506</ele>
<time>2010-07-18T14:26:21Z</time>
<desc>lat.=55.900307, lon.=26.528948, Alt.=118.231506m. Speed=0.432000m/h.</desc>
<speed>0.120000</speed>
</trkpt>
<trkpt lat="55.900307" lon="26.528946">
<ele>118.231506</ele>
<time>2010-07-18T14:26:22Z</time>
<desc>lat.=55.900307, lon.=26.528946, Alt.=118.231506m. Speed=0.900000m/h.</desc>
<speed>0.250000</speed>
</trkpt>
<trkpt lat="55.900307" lon="26.528942">
<ele>118.231506</ele>
<time>2010-07-18T14:26:23Z</time>
<desc>lat.=55.900307, lon.=26.528942, Alt.=118.231506m. Speed=1.044000m/h.</desc>
<speed>0.290000</speed>
</trkpt>
<trkpt lat="55.900311" lon="26.528938">
<ele>118.235413</ele>
<time>2010-07-18T14:26:24Z</time>
<desc>lat.=55.900311, lon.=26.528938, Alt.=118.235413m. Speed=1.296000m/h.</desc>
<speed>0.360000</speed>
</trkpt>
<trkpt lat="55.900307" lon="26.528936">
<ele>118.360413</ele>
<time>2010-07-18T14:26:25Z</time>
<desc>lat.=55.900307, lon.=26.528936, Alt.=118.360413m. Speed=0.756000m/h.</desc>
<speed>0.210000</speed>
</trkpt>
<trkpt lat="55.900307" lon="26.528940">
<ele>118.313538</ele>
<time>2010-07-18T14:26:26Z</time>
<desc>lat.=55.900307, lon.=26.528940, Alt.=118.313538m. Speed=0.108000m/h.</desc>
<speed>0.030000</speed>
</trkpt>
<trkpt lat="55.900303" lon="26.528942">
<ele>118.288147</ele>
<time>2010-07-18T14:26:27Z</time>
<desc>lat.=55.900303, lon.=26.528942, Alt.=118.288147m. Speed=0.036000m/h.</desc>
<speed>0.010000</speed>
</trkpt>
<trkpt lat="55.900303" lon="26.528940">
<ele>118.377991</ele>
<time>2010-07-18T14:26:28Z</time>
<desc>lat.=55.900303, lon.=26.528940, Alt.=118.377991m. Speed=0.036000m/h.</desc>
<speed>0.010000</speed>
</trkpt>
<trkpt lat="55.900303" lon="26.528940">
<ele>118.383850</ele>
<time>2010-07-18T14:26:29Z</time>
<desc>lat.=55.900303, lon.=26.528940, Alt.=118.383850m. Speed=0.432000m/h.</desc>
<speed>0.120000</speed>
</trkpt>
<trkpt lat="55.900303" lon="26.528942">
<ele>118.389709</ele>
<time>2010-07-18T14:26:30Z</time>
<desc>lat.=55.900303, lon.=26.528942, Alt.=118.389709m. Speed=0.216000m/h.</desc>
<speed>0.060000</speed>
</trkpt>
<trkpt lat="55.900303" lon="26.528942">
<ele>118.393616</ele>
<time>2010-07-18T14:26:31Z</time>
<desc>lat.=55.900303, lon.=26.528942, Alt.=118.393616m. Speed=0.180000m/h.</desc>
<speed>0.050000</speed>
</trkpt>
<trkpt lat="55.900303" lon="26.528944">
<ele>118.407288</ele>
<time>2010-07-18T14:26:32Z</time>
<desc>lat.=55.900303, lon.=26.528944, Alt.=118.407288m. Speed=0.360000m/h.</desc>
<speed>0.100000</speed>
</trkpt>
<trkpt lat="55.900303" lon="26.528944">
<ele>118.417053</ele>
<time>2010-07-18T14:26:33Z</time>
<desc>lat.=55.900303, lon.=26.528944, Alt.=118.417053m. Speed=0.180000m/h.</desc>
<speed>0.050000</speed>
</trkpt>
<trkpt lat="55.900303" lon="26.528942">
<ele>118.426819</ele>
<time>2010-07-18T14:26:34Z</time>
<desc>lat.=55.900303, lon.=26.528942, Alt.=118.426819m. Speed=0.864000m/h.</desc>
<speed>0.240000</speed>
</trkpt>
<trkpt lat="55.900303" lon="26.528938">
<ele>118.430725</ele>
<time>2010-07-18T14:26:35Z</time>
<desc>lat.=55.900303, lon.=26.528938, Alt.=118.430725m. Speed=0.972000m/h.</desc>
<speed>0.270000</speed>
</trkpt>
<trkpt lat="55.900307" lon="26.528934">
<ele>118.434631</ele>
<time>2010-07-18T14:26:36Z</time>
<desc>lat.=55.900307, lon.=26.528934, Alt.=118.434631m. Speed=0.612000m/h.</desc>
<speed>0.170000</speed>
</trkpt>
<trkpt lat="55.900307" lon="26.528933">
<ele>118.436584</ele>
<time>2010-07-18T14:26:37Z</time>
<desc>lat.=55.900307, lon.=26.528933, Alt.=118.436584m. Speed=0.720000m/h.</desc>
<speed>0.200000</speed>
</trkpt>
<trkpt lat="55.900307" lon="26.528931">
<ele>118.442444</ele>
<time>2010-07-18T14:26:38Z</time>
<desc>lat.=55.900307, lon.=26.528931, Alt.=118.442444m. Speed=0.468000m/h.</desc>
<speed>0.130000</speed>
</trkpt>
<trkpt lat="55.900307" lon="26.528931">
<ele>118.448303</ele>
<time>2010-07-18T14:26:39Z</time>
<desc>lat.=55.900307, lon.=26.528931, Alt.=118.448303m. Speed=0.468000m/h.</desc>
<speed>0.130000</speed>
</trkpt>
<trkpt lat="55.900311" lon="26.528929">
<ele>118.452209</ele>
<time>2010-07-18T14:26:40Z</time>
<desc>lat.=55.900311, lon.=26.528929, Alt.=118.452209m. Speed=0.288000m/h.</desc>
<speed>0.080000</speed>
</trkpt>
<trkpt lat="55.900311" lon="26.528929">
<ele>118.458069</ele>
<time>2010-07-18T14:26:41Z</time>
<desc>lat.=55.900311, lon.=26.528929, Alt.=118.458069m. Speed=0.864000m/h.</desc>
<speed>0.240000</speed>
</trkpt>
<trkpt lat="55.900311" lon="26.528929">
<ele>118.460022</ele>
<time>2010-07-18T14:26:42Z</time>
<desc>lat.=55.900311, lon.=26.528929, Alt.=118.460022m. Speed=0.792000m/h.</desc>
<speed>0.220000</speed>
</trkpt>
<trkpt lat="55.900314" lon="26.528927">
<ele>118.456116</ele>
<time>2010-07-18T14:26:43Z</time>
<desc>lat.=55.900314, lon.=26.528927, Alt.=118.456116m. Speed=0.936000m/h.</desc>
<speed>0.260000</speed>
</trkpt>
<trkpt lat="55.900314" lon="26.528923">
<ele>118.452209</ele>
<time>2010-07-18T14:26:44Z</time>
<desc>lat.=55.900314, lon.=26.528923, Alt.=118.452209m. Speed=0.756000m/h.</desc>
<speed>0.210000</speed>
</trkpt>
<trkpt lat="55.900318" lon="26.528923">
<ele>118.452209</ele>
<time>2010-07-18T14:26:45Z</time>
<desc>lat.=55.900318, lon.=26.528923, Alt.=118.452209m. Speed=0.792000m/h.</desc>
<speed>0.220000</speed>
</trkpt>
<trkpt lat="55.900318" lon="26.528923">
<ele>118.450256</ele>
<time>2010-07-18T14:26:46Z</time>
<desc>lat.=55.900318, lon.=26.528923, Alt.=118.450256m. Speed=0.792000m/h.</desc>
<speed>0.220000</speed>
</trkpt>
<trkpt lat="55.900322" lon="26.528925">
<ele>118.452209</ele>
<time>2010-07-18T14:26:47Z</time>
<desc>lat.=55.900322, lon.=26.528925, Alt.=118.452209m. Speed=0.972000m/h.</desc>
<speed>0.270000</speed>
</trkpt>
<trkpt lat="55.900326" lon="26.528925">
<ele>118.452209</ele>
<time>2010-07-18T14:26:48Z</time>
<desc>lat.=55.900326, lon.=26.528925, Alt.=118.452209m. Speed=0.936000m/h.</desc>
<speed>0.260000</speed>
</trkpt>
<trkpt lat="55.900326" lon="26.528925">
<ele>118.450256</ele>
<time>2010-07-18T14:26:49Z</time>
<desc>lat.=55.900326, lon.=26.528925, Alt.=118.450256m. Speed=0.360000m/h.</desc>
<speed>0.100000</speed>
</trkpt>
<trkpt lat="55.900326" lon="26.528925">
<ele>118.442444</ele>
<time>2010-07-18T14:26:50Z</time>
<desc>lat.=55.900326, lon.=26.528925, Alt.=118.442444m. Speed=0.360000m/h.</desc>
<speed>0.100000</speed>
</trkpt>
<trkpt lat="55.900330" lon="26.528925">
<ele>118.434631</ele>
<time>2010-07-18T14:26:51Z</time>
<desc>lat.=55.900330, lon.=26.528925, Alt.=118.434631m. Speed=0.324000m/h.</desc>
<speed>0.090000</speed>
</trkpt>
<trkpt lat="55.900330" lon="26.528927">
<ele>118.422913</ele>
<time>2010-07-18T14:26:52Z</time>
<desc>lat.=55.900330, lon.=26.528927, Alt.=118.422913m. Speed=0.648000m/h.</desc>
<speed>0.180000</speed>
</trkpt>
<trkpt lat="55.900330" lon="26.528929">
<ele>118.413147</ele>
<time>2010-07-18T14:26:53Z</time>
<desc>lat.=55.900330, lon.=26.528929, Alt.=118.413147m. Speed=0.576000m/h.</desc>
<speed>0.160000</speed>
</trkpt>
<trkpt lat="55.900330" lon="26.528929">
<ele>118.405334</ele>
<time>2010-07-18T14:26:54Z</time>
<desc>lat.=55.900330, lon.=26.528929, Alt.=118.405334m. Speed=0.216000m/h.</desc>
<speed>0.060000</speed>
</trkpt>
<trkpt lat="55.900333" lon="26.528931">
<ele>118.399475</ele>
<time>2010-07-18T14:26:55Z</time>
<desc>lat.=55.900333, lon.=26.528931, Alt.=118.399475m. Speed=0.180000m/h.</desc>
<speed>0.050000</speed>
</trkpt>
<trkpt lat="55.900330" lon="26.528929">
<ele>118.389709</ele>
<time>2010-07-18T14:26:56Z</time>
<desc>lat.=55.900330, lon.=26.528929, Alt.=118.389709m. Speed=0.504000m/h.</desc>
<speed>0.140000</speed>
</trkpt>
<trkpt lat="55.900330" lon="26.528927">
<ele>118.383850</ele>
<time>2010-07-18T14:26:57Z</time>
<desc>lat.=55.900330, lon.=26.528927, Alt.=118.383850m. Speed=0.432000m/h.</desc>
<speed>0.120000</speed>
</trkpt>
<trkpt lat="55.900333" lon="26.528925">
<ele>118.376038</ele>
<time>2010-07-18T14:26:58Z</time>
<desc>lat.=55.900333, lon.=26.528925, Alt.=118.376038m. Speed=0.252000m/h.</desc>
<speed>0.070000</speed>
</trkpt>
<trkpt lat="55.900333" lon="26.528925">
<ele>118.366272</ele>
<time>2010-07-18T14:26:59Z</time>
<desc>lat.=55.900333, lon.=26.528925, Alt.=118.366272m. Speed=0.432000m/h.</desc>
<speed>0.120000</speed>
</trkpt>
<trkpt lat="55.900333" lon="26.528923">
<ele>118.352600</ele>
<time>2010-07-18T14:27:00Z</time>
<desc>lat.=55.900333, lon.=26.528923, Alt.=118.352600m. Speed=0.396000m/h.</desc>
<speed>0.110000</speed>
</trkpt>
<trkpt lat="55.900333" lon="26.528923">
<ele>118.342834</ele>
<time>2010-07-18T14:27:01Z</time>
<desc>lat.=55.900333, lon.=26.528923, Alt.=118.342834m. Speed=0.216000m/h.</desc>
<speed>0.060000</speed>
</trkpt>
<trkpt lat="55.900333" lon="26.528923">
<ele>118.335022</ele>
<time>2010-07-18T14:27:02Z</time>
<desc>lat.=55.900333, lon.=26.528923, Alt.=118.335022m. Speed=0.252000m/h.</desc>
<speed>0.070000</speed>
</trkpt>
<trkpt lat="55.900333" lon="26.528925">
<ele>118.329163</ele>
<time>2010-07-18T14:27:03Z</time>
<desc>lat.=55.900333, lon.=26.528925, Alt.=118.329163m. Speed=0.252000m/h.</desc>
<speed>0.070000</speed>
</trkpt>
<trkpt lat="55.900333" lon="26.528923">
<ele>118.323303</ele>
<time>2010-07-18T14:27:04Z</time>
<desc>lat.=55.900333, lon.=26.528923, Alt.=118.323303m. Speed=0.540000m/h.</desc>
<speed>0.150000</speed>
</trkpt>
<trkpt lat="55.900333" lon="26.528921">
<ele>118.317444</ele>
<time>2010-07-18T14:27:05Z</time>
<desc>lat.=55.900333, lon.=26.528921, Alt.=118.317444m. Speed=0.612000m/h.</desc>
<speed>0.170000</speed>
</trkpt>
<trkpt lat="55.900337" lon="26.528919">
<ele>118.309631</ele>
<time>2010-07-18T14:27:06Z</time>
<desc>lat.=55.900337, lon.=26.528919, Alt.=118.309631m. Speed=0.504000m/h.</desc>
<speed>0.140000</speed>
</trkpt>
<trkpt lat="55.900337" lon="26.528917">
<ele>118.301819</ele>
<time>2010-07-18T14:27:07Z</time>
<desc>lat.=55.900337, lon.=26.528917, Alt.=118.301819m. Speed=0.324000m/h.</desc>
<speed>0.090000</speed>
</trkpt>
<trkpt lat="55.900337" lon="26.528915">
<ele>118.295959</ele>
<time>2010-07-18T14:27:08Z</time>
<desc>lat.=55.900337, lon.=26.528915, Alt.=118.295959m. Speed=0.468000m/h.</desc>
<speed>0.130000</speed>
</trkpt>
<trkpt lat="55.900337" lon="26.528913">
<ele>118.292053</ele>
<time>2010-07-18T14:27:09Z</time>
<desc>lat.=55.900337, lon.=26.528913, Alt.=118.292053m. Speed=0.324000m/h.</desc>
<speed>0.090000</speed>
</trkpt>
<trkpt lat="55.900337" lon="26.528913">
<ele>118.288147</ele>
<time>2010-07-18T14:27:10Z</time>
<desc>lat.=55.900337, lon.=26.528913, Alt.=118.288147m. Speed=0.576000m/h.</desc>
<speed>0.160000</speed>
</trkpt>
<trkpt lat="55.900337" lon="26.528912">
<ele>118.286194</ele>
<time>2010-07-18T14:27:11Z</time>
<desc>lat.=55.900337, lon.=26.528912, Alt.=118.286194m. Speed=0.216000m/h.</desc>
<speed>0.060000</speed>
</trkpt>
<trkpt lat="55.900337" lon="26.528910">
<ele>118.282288</ele>
<time>2010-07-18T14:27:12Z</time>
<desc>lat.=55.900337, lon.=26.528910, Alt.=118.282288m. Speed=0.072000m/h.</desc>
<speed>0.020000</speed>
</trkpt>
<trkpt lat="55.900337" lon="26.528910">
<ele>118.280334</ele>
<time>2010-07-18T14:27:13Z</time>
<desc>lat.=55.900337, lon.=26.528910, Alt.=118.280334m. Speed=0.468000m/h.</desc>
<speed>0.130000</speed>
</trkpt>
<trkpt lat="55.900337" lon="26.528908">
<ele>118.280334</ele>
<time>2010-07-18T14:27:14Z</time>
<desc>lat.=55.900337, lon.=26.528908, Alt.=118.280334m. Speed=0.396000m/h.</desc>
<speed>0.110000</speed>
</trkpt>
<trkpt lat="55.900337" lon="26.528906">
<ele>118.282288</ele>
<time>2010-07-18T14:27:15Z</time>
<desc>lat.=55.900337, lon.=26.528906, Alt.=118.282288m. Speed=0.756000m/h.</desc>
<speed>0.210000</speed>
</trkpt>
<trkpt lat="55.900341" lon="26.528902">
<ele>118.282288</ele>
<time>2010-07-18T14:27:16Z</time>
<desc>lat.=55.900341, lon.=26.528902, Alt.=118.282288m. Speed=1.260000m/h.</desc>
<speed>0.350000</speed>
</trkpt>
<trkpt lat="55.900333" lon="26.528906">
<ele>118.022522</ele>
<time>2010-07-18T14:27:17Z</time>
<desc>lat.=55.900333, lon.=26.528906, Alt.=118.022522m. Speed=0.540000m/h.</desc>
<speed>0.150000</speed>
</trkpt>
<trkpt lat="55.900337" lon="26.528902">
<ele>117.905334</ele>
<time>2010-07-18T14:27:18Z</time>
<desc>lat.=55.900337, lon.=26.528902, Alt.=117.905334m. Speed=0.072000m/h.</desc>
<speed>0.020000</speed>
</trkpt>
<trkpt lat="55.900330" lon="26.528908">
<ele>117.585022</ele>
<time>2010-07-18T14:27:19Z</time>
<desc>lat.=55.900330, lon.=26.528908, Alt.=117.585022m. Speed=0.396000m/h.</desc>
<speed>0.110000</speed>
</trkpt>
<trkpt lat="55.900326" lon="26.528915">
<ele>117.436584</ele>
<time>2010-07-18T14:27:20Z</time>
<desc>lat.=55.900326, lon.=26.528915, Alt.=117.436584m. Speed=0.756000m/h.</desc>
<speed>0.210000</speed>
</trkpt>
<trkpt lat="55.900326" lon="26.528917">
<ele>117.434631</ele>
<time>2010-07-18T14:27:21Z</time>
<desc>lat.=55.900326, lon.=26.528917, Alt.=117.434631m. Speed=0.900000m/h.</desc>
<speed>0.250000</speed>
</trkpt>
<trkpt lat="55.900322" lon="26.528921">
<ele>117.432678</ele>
<time>2010-07-18T14:27:22Z</time>
<desc>lat.=55.900322, lon.=26.528921, Alt.=117.432678m. Speed=0.792000m/h.</desc>
<speed>0.220000</speed>
</trkpt>
<trkpt lat="55.900322" lon="26.528923">
<ele>117.432678</ele>
<time>2010-07-18T14:27:23Z</time>
<desc>lat.=55.900322, lon.=26.528923, Alt.=117.432678m. Speed=1.044000m/h.</desc>
<speed>0.290000</speed>
</trkpt>
<trkpt lat="55.900318" lon="26.528927">
<ele>117.436584</ele>
<time>2010-07-18T14:27:24Z</time>
<desc>lat.=55.900318, lon.=26.528927, Alt.=117.436584m. Speed=1.008000m/h.</desc>
<speed>0.280000</speed>
</trkpt>
<trkpt lat="55.900318" lon="26.528929">
<ele>117.440491</ele>
<time>2010-07-18T14:27:25Z</time>
<desc>lat.=55.900318, lon.=26.528929, Alt.=117.440491m. Speed=1.152000m/h.</desc>
<speed>0.320000</speed>
</trkpt>
<trkpt lat="55.900318" lon="26.528921">
<ele>117.598694</ele>
<time>2010-07-18T14:27:26Z</time>
<desc>lat.=55.900318, lon.=26.528921, Alt.=117.598694m. Speed=0.936000m/h.</desc>
<speed>0.260000</speed>
</trkpt>
<trkpt lat="55.900318" lon="26.528915">
<ele>117.743225</ele>
<time>2010-07-18T14:27:27Z</time>
<desc>lat.=55.900318, lon.=26.528915, Alt.=117.743225m. Speed=0.792000m/h.</desc>
<speed>0.220000</speed>
</trkpt>
<trkpt lat="55.900318" lon="26.528913">
<ele>117.749084</ele>
<time>2010-07-18T14:27:28Z</time>
<desc>lat.=55.900318, lon.=26.528913, Alt.=117.749084m. Speed=0.684000m/h.</desc>
<speed>0.190000</speed>
</trkpt>
<trkpt lat="55.900318" lon="26.528908">
<ele>117.930725</ele>
<time>2010-07-18T14:27:29Z</time>
<desc>lat.=55.900318, lon.=26.528908, Alt.=117.930725m. Speed=0.684000m/h.</desc>
<speed>0.190000</speed>
</trkpt>
<trkpt lat="55.900318" lon="26.528910">
<ele>117.936584</ele>
<time>2010-07-18T14:27:30Z</time>
<desc>lat.=55.900318, lon.=26.528910, Alt.=117.936584m. Speed=0.504000m/h.</desc>
<speed>0.140000</speed>
</trkpt>
<trkpt lat="55.900318" lon="26.528913">
<ele>117.938538</ele>
<time>2010-07-18T14:27:31Z</time>
<desc>lat.=55.900318, lon.=26.528913, Alt.=117.938538m. Speed=0.468000m/h.</desc>
<speed>0.130000</speed>
</trkpt>
<trkpt lat="55.900318" lon="26.528913">
<ele>117.938538</ele>
<time>2010-07-18T14:27:32Z</time>
<desc>lat.=55.900318, lon.=26.528913, Alt.=117.938538m. Speed=0.360000m/h.</desc>
<speed>0.100000</speed>
</trkpt>
<trkpt lat="55.900318" lon="26.528915">
<ele>117.936584</ele>
<time>2010-07-18T14:27:33Z</time>
<desc>lat.=55.900318, lon.=26.528915, Alt.=117.936584m. Speed=0.396000m/h.</desc>
<speed>0.110000</speed>
</trkpt>
<trkpt lat="55.900318" lon="26.528913">
<ele>117.932678</ele>
<time>2010-07-18T14:27:34Z</time>
<desc>lat.=55.900318, lon.=26.528913, Alt.=117.932678m. Speed=0.324000m/h.</desc>
<speed>0.090000</speed>
</trkpt>
<trkpt lat="55.900318" lon="26.528912">
<ele>117.926819</ele>
<time>2010-07-18T14:27:35Z</time>
<desc>lat.=55.900318, lon.=26.528912, Alt.=117.926819m. Speed=0.144000m/h.</desc>
<speed>0.040000</speed>
</trkpt>
<trkpt lat="55.900318" lon="26.528912">
<ele>117.922913</ele>
<time>2010-07-18T14:27:36Z</time>
<desc>lat.=55.900318, lon.=26.528912, Alt.=117.922913m. Speed=0.216000m/h.</desc>
<speed>0.060000</speed>
</trkpt>
<trkpt lat="55.900318" lon="26.528913">
<ele>117.922913</ele>
<time>2010-07-18T14:27:37Z</time>
<desc>lat.=55.900318, lon.=26.528913, Alt.=117.922913m. Speed=0.288000m/h.</desc>
<speed>0.080000</speed>
</trkpt>
<trkpt lat="55.900314" lon="26.528913">
<ele>117.917053</ele>
<time>2010-07-18T14:27:38Z</time>
<desc>lat.=55.900314, lon.=26.528913, Alt.=117.917053m. Speed=0.432000m/h.</desc>
<speed>0.120000</speed>
</trkpt>
<trkpt lat="55.900314" lon="26.528912">
<ele>117.913147</ele>
<time>2010-07-18T14:27:39Z</time>
<desc>lat.=55.900314, lon.=26.528912, Alt.=117.913147m. Speed=0.684000m/h.</desc>
<speed>0.190000</speed>
</trkpt>
<trkpt lat="55.900314" lon="26.528908">
<ele>117.915100</ele>
<time>2010-07-18T14:27:40Z</time>
<desc>lat.=55.900314, lon.=26.528908, Alt.=117.915100m. Speed=0.756000m/h.</desc>
<speed>0.210000</speed>
</trkpt>
<trkpt lat="55.900314" lon="26.528904">
<ele>117.917053</ele>
<time>2010-07-18T14:27:41Z</time>
<desc>lat.=55.900314, lon.=26.528904, Alt.=117.917053m. Speed=1.152000m/h.</desc>
<speed>0.320000</speed>
</trkpt>
<trkpt lat="55.900318" lon="26.528898">
<ele>117.797913</ele>
<time>2010-07-18T14:27:42Z</time>
<desc>lat.=55.900318, lon.=26.528898, Alt.=117.797913m. Speed=0.972000m/h.</desc>
<speed>0.270000</speed>
</trkpt>
<trkpt lat="55.900322" lon="26.528885">
<ele>117.965881</ele>
<time>2010-07-18T14:27:43Z</time>
<desc>lat.=55.900322, lon.=26.528885, Alt.=117.965881m. Speed=1.044000m/h.</desc>
<speed>0.290000</speed>
</trkpt>
<trkpt lat="55.900326" lon="26.528879">
<ele>118.085022</ele>
<time>2010-07-18T14:27:44Z</time>
<desc>lat.=55.900326, lon.=26.528879, Alt.=118.085022m. Speed=0.828000m/h.</desc>
<speed>0.230000</speed>
</trkpt>
<trkpt lat="55.900326" lon="26.528868">
<ele>118.135803</ele>
<time>2010-07-18T14:27:45Z</time>
<desc>lat.=55.900326, lon.=26.528868, Alt.=118.135803m. Speed=0.900000m/h.</desc>
<speed>0.250000</speed>
</trkpt>
<trkpt lat="55.900322" lon="26.528864">
<ele>118.135803</ele>
<time>2010-07-18T14:27:46Z</time>
<desc>lat.=55.900322, lon.=26.528864, Alt.=118.135803m. Speed=0.792000m/h.</desc>
<speed>0.220000</speed>
</trkpt>
<trkpt lat="55.900322" lon="26.528862">
<ele>118.135803</ele>
<time>2010-07-18T14:27:47Z</time>
<desc>lat.=55.900322, lon.=26.528862, Alt.=118.135803m. Speed=0.612000m/h.</desc>
<speed>0.170000</speed>
</trkpt>
<trkpt lat="55.900322" lon="26.528864">
<ele>118.133850</ele>
<time>2010-07-18T14:27:48Z</time>
<desc>lat.=55.900322, lon.=26.528864, Alt.=118.133850m. Speed=0.108000m/h.</desc>
<speed>0.030000</speed>
</trkpt>
<trkpt lat="55.900318" lon="26.528864">
<ele>118.133850</ele>
<time>2010-07-18T14:27:49Z</time>
<desc>lat.=55.900318, lon.=26.528864, Alt.=118.133850m. Speed=0.036000m/h.</desc>
<speed>0.010000</speed>
</trkpt>
<trkpt lat="55.900322" lon="26.528864">
<ele>118.137756</ele>
<time>2010-07-18T14:27:50Z</time>
<desc>lat.=55.900322, lon.=26.528864, Alt.=118.137756m. Speed=0.648000m/h.</desc>
<speed>0.180000</speed>
</trkpt>
<trkpt lat="55.900322" lon="26.528860">
<ele>118.137756</ele>
<time>2010-07-18T14:27:51Z</time>
<desc>lat.=55.900322, lon.=26.528860, Alt.=118.137756m. Speed=0.432000m/h.</desc>
<speed>0.120000</speed>
</trkpt>
<trkpt lat="55.900322" lon="26.528858">
<ele>118.135803</ele>
<time>2010-07-18T14:27:52Z</time>
<desc>lat.=55.900322, lon.=26.528858, Alt.=118.135803m. Speed=0.144000m/h.</desc>
<speed>0.040000</speed>
</trkpt>
<trkpt lat="55.900322" lon="26.528858">
<ele>118.135803</ele>
<time>2010-07-18T14:27:53Z</time>
<desc>lat.=55.900322, lon.=26.528858, Alt.=118.135803m. Speed=0.864000m/h.</desc>
<speed>0.240000</speed>
</trkpt>
<trkpt lat="55.900322" lon="26.528862">
<ele>118.137756</ele>
<time>2010-07-18T14:27:54Z</time>
<desc>lat.=55.900322, lon.=26.528862, Alt.=118.137756m. Speed=1.116000m/h.</desc>
<speed>0.310000</speed>
</trkpt>
<trkpt lat="55.900322" lon="26.528862">
<ele>118.116272</ele>
<time>2010-07-18T14:27:55Z</time>
<desc>lat.=55.900322, lon.=26.528862, Alt.=118.116272m. Speed=1.080000m/h.</desc>
<speed>0.300000</speed>
</trkpt>
<trkpt lat="55.900322" lon="26.528852">
<ele>118.294006</ele>
<time>2010-07-18T14:27:56Z</time>
<desc>lat.=55.900322, lon.=26.528852, Alt.=118.294006m. Speed=0.108000m/h.</desc>
<speed>0.030000</speed>
</trkpt>
<trkpt lat="55.900326" lon="26.528847">
<ele>118.323303</ele>
<time>2010-07-18T14:27:57Z</time>
<desc>lat.=55.900326, lon.=26.528847, Alt.=118.323303m. Speed=0.828000m/h.</desc>
<speed>0.230000</speed>
</trkpt>
<trkpt lat="55.900330" lon="26.528845">
<ele>118.614319</ele>
<time>2010-07-18T14:27:58Z</time>
<desc>lat.=55.900330, lon.=26.528845, Alt.=118.614319m. Speed=0.576000m/h.</desc>
<speed>0.160000</speed>
</trkpt>
<trkpt lat="55.900330" lon="26.528843">
<ele>118.711975</ele>
<time>2010-07-18T14:27:59Z</time>
<desc>lat.=55.900330, lon.=26.528843, Alt.=118.711975m. Speed=0.684000m/h.</desc>
<speed>0.190000</speed>
</trkpt>
<trkpt lat="55.900333" lon="26.528841">
<ele>118.721741</ele>
<time>2010-07-18T14:28:00Z</time>
<desc>lat.=55.900333, lon.=26.528841, Alt.=118.721741m. Speed=0.828000m/h.</desc>
<speed>0.230000</speed>
</trkpt>
<trkpt lat="55.900333" lon="26.528841">
<ele>118.729553</ele>
<time>2010-07-18T14:28:01Z</time>
<desc>lat.=55.900333, lon.=26.528841, Alt.=118.729553m. Speed=0.864000m/h.</desc>
<speed>0.240000</speed>
</trkpt>
<trkpt lat="55.900337" lon="26.528837">
<ele>118.735413</ele>
<time>2010-07-18T14:28:02Z</time>
<desc>lat.=55.900337, lon.=26.528837, Alt.=118.735413m. Speed=0.576000m/h.</desc>
<speed>0.160000</speed>
</trkpt>
<trkpt lat="55.900337" lon="26.528835">
<ele>118.733459</ele>
<time>2010-07-18T14:28:03Z</time>
<desc>lat.=55.900337, lon.=26.528835, Alt.=118.733459m. Speed=0.504000m/h.</desc>
<speed>0.140000</speed>
</trkpt>
<trkpt lat="55.900337" lon="26.528833">
<ele>118.733459</ele>
<time>2010-07-18T14:28:04Z</time>
<desc>lat.=55.900337, lon.=26.528833, Alt.=118.733459m. Speed=0.360000m/h.</desc>
<speed>0.100000</speed>
</trkpt>
<trkpt lat="55.900337" lon="26.528831">
<ele>118.735413</ele>
<time>2010-07-18T14:28:05Z</time>
<desc>lat.=55.900337, lon.=26.528831, Alt.=118.735413m. Speed=0.684000m/h.</desc>
<speed>0.190000</speed>
</trkpt>
<trkpt lat="55.900337" lon="26.528828">
<ele>118.739319</ele>
<time>2010-07-18T14:28:06Z</time>
<desc>lat.=55.900337, lon.=26.528828, Alt.=118.739319m. Speed=0.576000m/h.</desc>
<speed>0.160000</speed>
</trkpt>
<trkpt lat="55.900337" lon="26.528826">
<ele>118.745178</ele>
<time>2010-07-18T14:28:07Z</time>
<desc>lat.=55.900337, lon.=26.528826, Alt.=118.745178m. Speed=0.612000m/h.</desc>
<speed>0.170000</speed>
</trkpt>
<trkpt lat="55.900337" lon="26.528824">
<ele>118.743225</ele>
<time>2010-07-18T14:28:08Z</time>
<desc>lat.=55.900337, lon.=26.528824, Alt.=118.743225m. Speed=0.360000m/h.</desc>
<speed>0.100000</speed>
</trkpt>
<trkpt lat="55.900337" lon="26.528826">
<ele>118.747131</ele>
<time>2010-07-18T14:28:09Z</time>
<desc>lat.=55.900337, lon.=26.528826, Alt.=118.747131m. Speed=0.288000m/h.</desc>
<speed>0.080000</speed>
</trkpt>
<trkpt lat="55.900337" lon="26.528824">
<ele>118.749084</ele>
<time>2010-07-18T14:28:10Z</time>
<desc>lat.=55.900337, lon.=26.528824, Alt.=118.749084m. Speed=0.648000m/h.</desc>
<speed>0.180000</speed>
</trkpt>
<trkpt lat="55.900333" lon="26.528822">
<ele>118.749084</ele>
<time>2010-07-18T14:28:11Z</time>
<desc>lat.=55.900333, lon.=26.528822, Alt.=118.749084m. Speed=0.396000m/h.</desc>
<speed>0.110000</speed>
</trkpt>
<trkpt lat="55.900333" lon="26.528820">
<ele>118.747131</ele>
<time>2010-07-18T14:28:12Z</time>
<desc>lat.=55.900333, lon.=26.528820, Alt.=118.747131m. Speed=0.216000m/h.</desc>
<speed>0.060000</speed>
</trkpt>
<trkpt lat="55.900333" lon="26.528820">
<ele>118.745178</ele>
<time>2010-07-18T14:28:13Z</time>
<desc>lat.=55.900333, lon.=26.528820, Alt.=118.745178m. Speed=0.144000m/h.</desc>
<speed>0.040000</speed>
</trkpt>
<trkpt lat="55.900333" lon="26.528818">
<ele>118.745178</ele>
<time>2010-07-18T14:28:14Z</time>
<desc>lat.=55.900333, lon.=26.528818, Alt.=118.745178m. Speed=0.396000m/h.</desc>
<speed>0.110000</speed>
</trkpt>
<trkpt lat="55.900333" lon="26.528816">
<ele>118.747131</ele>
<time>2010-07-18T14:28:15Z</time>
<desc>lat.=55.900333, lon.=26.528816, Alt.=118.747131m. Speed=0.936000m/h.</desc>
<speed>0.260000</speed>
</trkpt>
<trkpt lat="55.900333" lon="26.528812">
<ele>118.745178</ele>
<time>2010-07-18T14:28:16Z</time>
<desc>lat.=55.900333, lon.=26.528812, Alt.=118.745178m. Speed=0.432000m/h.</desc>
<speed>0.120000</speed>
</trkpt>
<trkpt lat="55.900333" lon="26.528812">
<ele>118.741272</ele>
<time>2010-07-18T14:28:17Z</time>
<desc>lat.=55.900333, lon.=26.528812, Alt.=118.741272m. Speed=0.072000m/h.</desc>
<speed>0.020000</speed>
</trkpt>
<trkpt lat="55.900333" lon="26.528811">
<ele>118.737366</ele>
<time>2010-07-18T14:28:18Z</time>
<desc>lat.=55.900333, lon.=26.528811, Alt.=118.737366m. Speed=0.396000m/h.</desc>
<speed>0.110000</speed>
</trkpt>
<trkpt lat="55.900333" lon="26.528809">
<ele>118.733459</ele>
<time>2010-07-18T14:28:19Z</time>
<desc>lat.=55.900333, lon.=26.528809, Alt.=118.733459m. Speed=0.252000m/h.</desc>
<speed>0.070000</speed>
</trkpt>
<trkpt lat="55.900333" lon="26.528809">
<ele>118.727600</ele>
<time>2010-07-18T14:28:20Z</time>
<desc>lat.=55.900333, lon.=26.528809, Alt.=118.727600m. Speed=0.216000m/h.</desc>
<speed>0.060000</speed>
</trkpt>
<trkpt lat="55.900337" lon="26.528809">
<ele>118.723694</ele>
<time>2010-07-18T14:28:21Z</time>
<desc>lat.=55.900337, lon.=26.528809, Alt.=118.723694m. Speed=0.108000m/h.</desc>
<speed>0.030000</speed>
</trkpt>
<trkpt lat="55.900337" lon="26.528809">
<ele>118.713928</ele>
<time>2010-07-18T14:28:22Z</time>
<desc>lat.=55.900337, lon.=26.528809, Alt.=118.713928m. Speed=0.216000m/h.</desc>
<speed>0.060000</speed>
</trkpt>
<trkpt lat="55.900337" lon="26.528809">
<ele>118.706116</ele>
<time>2010-07-18T14:28:23Z</time>
<desc>lat.=55.900337, lon.=26.528809, Alt.=118.706116m. Speed=0.612000m/h.</desc>
<speed>0.170000</speed>
</trkpt>
<trkpt lat="55.900337" lon="26.528805">
<ele>118.698303</ele>
<time>2010-07-18T14:28:24Z</time>
<desc>lat.=55.900337, lon.=26.528805, Alt.=118.698303m. Speed=0.972000m/h.</desc>
<speed>0.270000</speed>
</trkpt>
<trkpt lat="55.900337" lon="26.528801">
<ele>118.690491</ele>
<time>2010-07-18T14:28:25Z</time>
<desc>lat.=55.900337, lon.=26.528801, Alt.=118.690491m. Speed=0.648000m/h.</desc>
<speed>0.180000</speed>
</trkpt>
<trkpt lat="55.900341" lon="26.528801">
<ele>118.678772</ele>
<time>2010-07-18T14:28:26Z</time>
<desc>lat.=55.900341, lon.=26.528801, Alt.=118.678772m. Speed=0.216000m/h.</desc>
<speed>0.060000</speed>
</trkpt>
<trkpt lat="55.900341" lon="26.528801">
<ele>118.665100</ele>
<time>2010-07-18T14:28:27Z</time>
<desc>lat.=55.900341, lon.=26.528801, Alt.=118.665100m. Speed=0.252000m/h.</desc>
<speed>0.070000</speed>
</trkpt>
<trkpt lat="55.900341" lon="26.528801">
<ele>118.649475</ele>
<time>2010-07-18T14:28:28Z</time>
<desc>lat.=55.900341, lon.=26.528801, Alt.=118.649475m. Speed=0.432000m/h.</desc>
<speed>0.120000</speed>
</trkpt>
<trkpt lat="55.900337" lon="26.528799">
<ele>118.635803</ele>
<time>2010-07-18T14:28:29Z</time>
<desc>lat.=55.900337, lon.=26.528799, Alt.=118.635803m. Speed=0.252000m/h.</desc>
<speed>0.070000</speed>
</trkpt>
<trkpt lat="55.900337" lon="26.528801">
<ele>118.624084</ele>
<time>2010-07-18T14:28:30Z</time>
<desc>lat.=55.900337, lon.=26.528801, Alt.=118.624084m. Speed=0.756000m/h.</desc>
<speed>0.210000</speed>
</trkpt>
<trkpt lat="55.900337" lon="26.528803">
<ele>118.614319</ele>
<time>2010-07-18T14:28:31Z</time>
<desc>lat.=55.900337, lon.=26.528803, Alt.=118.614319m. Speed=0.792000m/h.</desc>
<speed>0.220000</speed>
</trkpt>
<trkpt lat="55.900337" lon="26.528807">
<ele>118.604553</ele>
<time>2010-07-18T14:28:32Z</time>
<desc>lat.=55.900337, lon.=26.528807, Alt.=118.604553m. Speed=1.008000m/h.</desc>
<speed>0.280000</speed>
</trkpt>
<trkpt lat="55.900333" lon="26.528811">
<ele>118.596741</ele>
<time>2010-07-18T14:28:33Z</time>
<desc>lat.=55.900333, lon.=26.528811, Alt.=118.596741m. Speed=0.828000m/h.</desc>
<speed>0.230000</speed>
</trkpt>
<trkpt lat="55.900333" lon="26.528812">
<ele>118.590881</ele>
<time>2010-07-18T14:28:34Z</time>
<desc>lat.=55.900333, lon.=26.528812, Alt.=118.590881m. Speed=0.684000m/h.</desc>
<speed>0.190000</speed>
</trkpt>
<trkpt lat="55.900333" lon="26.528816">
<ele>118.585022</ele>
<time>2010-07-18T14:28:35Z</time>
<desc>lat.=55.900333, lon.=26.528816, Alt.=118.585022m. Speed=0.504000m/h.</desc>
<speed>0.140000</speed>
</trkpt>
<trkpt lat="55.900333" lon="26.528818">
<ele>118.585022</ele>
<time>2010-07-18T14:28:36Z</time>
<desc>lat.=55.900333, lon.=26.528818, Alt.=118.585022m. Speed=0.180000m/h.</desc>
<speed>0.050000</speed>
</trkpt>
<trkpt lat="55.900333" lon="26.528816">
<ele>118.583069</ele>
<time>2010-07-18T14:28:37Z</time>
<desc>lat.=55.900333, lon.=26.528816, Alt.=118.583069m. Speed=0.396000m/h.</desc>
<speed>0.110000</speed>
</trkpt>
<trkpt lat="55.900333" lon="26.528814">
<ele>118.583069</ele>
<time>2010-07-18T14:28:38Z</time>
<desc>lat.=55.900333, lon.=26.528814, Alt.=118.583069m. Speed=0.540000m/h.</desc>
<speed>0.150000</speed>
</trkpt>
<trkpt lat="55.900330" lon="26.528814">
<ele>118.585022</ele>
<time>2010-07-18T14:28:39Z</time>
<desc>lat.=55.900330, lon.=26.528814, Alt.=118.585022m. Speed=0.756000m/h.</desc>
<speed>0.210000</speed>
</trkpt>
<trkpt lat="55.900330" lon="26.528812">
<ele>118.583069</ele>
<time>2010-07-18T14:28:40Z</time>
<desc>lat.=55.900330, lon.=26.528812, Alt.=118.583069m. Speed=0.720000m/h.</desc>
<speed>0.200000</speed>
</trkpt>
<trkpt lat="55.900326" lon="26.528812">
<ele>118.579163</ele>
<time>2010-07-18T14:28:41Z</time>
<desc>lat.=55.900326, lon.=26.528812, Alt.=118.579163m. Speed=0.504000m/h.</desc>
<speed>0.140000</speed>
</trkpt>
<trkpt lat="55.900326" lon="26.528812">
<ele>118.573303</ele>
<time>2010-07-18T14:28:42Z</time>
<desc>lat.=55.900326, lon.=26.528812, Alt.=118.573303m. Speed=0.108000m/h.</desc>
<speed>0.030000</speed>
</trkpt>
<trkpt lat="55.900326" lon="26.528811">
<ele>118.565491</ele>
<time>2010-07-18T14:28:43Z</time>
<desc>lat.=55.900326, lon.=26.528811, Alt.=118.565491m. Speed=0.432000m/h.</desc>
<speed>0.120000</speed>
</trkpt>
<trkpt lat="55.900326" lon="26.528812">
<ele>118.557678</ele>
<time>2010-07-18T14:28:44Z</time>
<desc>lat.=55.900326, lon.=26.528812, Alt.=118.557678m. Speed=0.576000m/h.</desc>
<speed>0.160000</speed>
</trkpt>
<trkpt lat="55.900322" lon="26.528812">
<ele>118.547913</ele>
<time>2010-07-18T14:28:45Z</time>
<desc>lat.=55.900322, lon.=26.528812, Alt.=118.547913m. Speed=0.432000m/h.</desc>
<speed>0.120000</speed>
</trkpt>
<trkpt lat="55.900322" lon="26.528811">
<ele>118.540100</ele>
<time>2010-07-18T14:28:46Z</time>
<desc>lat.=55.900322, lon.=26.528811, Alt.=118.540100m. Speed=0.504000m/h.</desc>
<speed>0.140000</speed>
</trkpt>
<trkpt lat="55.900322" lon="26.528811">
<ele>118.530334</ele>
<time>2010-07-18T14:28:47Z</time>
<desc>lat.=55.900322, lon.=26.528811, Alt.=118.530334m. Speed=0.432000m/h.</desc>
<speed>0.120000</speed>
</trkpt>
<trkpt lat="55.900322" lon="26.528809">
<ele>118.522522</ele>
<time>2010-07-18T14:28:48Z</time>
<desc>lat.=55.900322, lon.=26.528809, Alt.=118.522522m. Speed=0.540000m/h.</desc>
<speed>0.150000</speed>
</trkpt>
<trkpt lat="55.900318" lon="26.528807">
<ele>118.514709</ele>
<time>2010-07-18T14:28:49Z</time>
<desc>lat.=55.900318, lon.=26.528807, Alt.=118.514709m. Speed=0.576000m/h.</desc>
<speed>0.160000</speed>
</trkpt>
<trkpt lat="55.900318" lon="26.528807">
<ele>118.510803</ele>
<time>2010-07-18T14:28:50Z</time>
<desc>lat.=55.900318, lon.=26.528807, Alt.=118.510803m. Speed=0.360000m/h.</desc>
<speed>0.100000</speed>
</trkpt>
<trkpt lat="55.900318" lon="26.528807">
<ele>118.506897</ele>
<time>2010-07-18T14:28:51Z</time>
<desc>lat.=55.900318, lon.=26.528807, Alt.=118.506897m. Speed=0.252000m/h.</desc>
<speed>0.070000</speed>
</trkpt>
<trkpt lat="55.900318" lon="26.528807">
<ele>118.502991</ele>
<time>2010-07-18T14:28:52Z</time>
<desc>lat.=55.900318, lon.=26.528807, Alt.=118.502991m. Speed=0.108000m/h.</desc>
<speed>0.030000</speed>
</trkpt>
<trkpt lat="55.900318" lon="26.528807">
<ele>118.502991</ele>
<time>2010-07-18T14:28:53Z</time>
<desc>lat.=55.900318, lon.=26.528807, Alt.=118.502991m. Speed=0.432000m/h.</desc>
<speed>0.120000</speed>
</trkpt>
<trkpt lat="55.900314" lon="26.528807">
<ele>118.506897</ele>
<time>2010-07-18T14:28:54Z</time>
<desc>lat.=55.900314, lon.=26.528807, Alt.=118.506897m. Speed=0.324000m/h.</desc>
<speed>0.090000</speed>
</trkpt>
<trkpt lat="55.900318" lon="26.528807">
<ele>118.510803</ele>
<time>2010-07-18T14:28:55Z</time>
<desc>lat.=55.900318, lon.=26.528807, Alt.=118.510803m. Speed=0.360000m/h.</desc>
<speed>0.100000</speed>
</trkpt>
<trkpt lat="55.900318" lon="26.528805">
<ele>118.514709</ele>
<time>2010-07-18T14:28:56Z</time>
<desc>lat.=55.900318, lon.=26.528805, Alt.=118.514709m. Speed=0.576000m/h.</desc>
<speed>0.160000</speed>
</trkpt>
<trkpt lat="55.900318" lon="26.528803">
<ele>118.518616</ele>
<time>2010-07-18T14:28:57Z</time>
<desc>lat.=55.900318, lon.=26.528803, Alt.=118.518616m. Speed=0.684000m/h.</desc>
<speed>0.190000</speed>
</trkpt>
<trkpt lat="55.900318" lon="26.528801">
<ele>118.522522</ele>
<time>2010-07-18T14:28:58Z</time>
<desc>lat.=55.900318, lon.=26.528801, Alt.=118.522522m. Speed=0.612000m/h.</desc>
<speed>0.170000</speed>
</trkpt>
<trkpt lat="55.900318" lon="26.528797">
<ele>118.522522</ele>
<time>2010-07-18T14:28:59Z</time>
<desc>lat.=55.900318, lon.=26.528797, Alt.=118.522522m. Speed=0.756000m/h.</desc>
<speed>0.210000</speed>
</trkpt>
<trkpt lat="55.900322" lon="26.528793">
<ele>118.526428</ele>
<time>2010-07-18T14:29:00Z</time>
<desc>lat.=55.900322, lon.=26.528793, Alt.=118.526428m. Speed=0.828000m/h.</desc>
<speed>0.230000</speed>
</trkpt>
<trkpt lat="55.900322" lon="26.528791">
<ele>118.524475</ele>
<time>2010-07-18T14:29:01Z</time>
<desc>lat.=55.900322, lon.=26.528791, Alt.=118.524475m. Speed=0.432000m/h.</desc>
<speed>0.120000</speed>
</trkpt>
<trkpt lat="55.900322" lon="26.528788">
<ele>118.524475</ele>
<time>2010-07-18T14:29:02Z</time>
<desc>lat.=55.900322, lon.=26.528788, Alt.=118.524475m. Speed=0.540000m/h.</desc>
<speed>0.150000</speed>
</trkpt>
<trkpt lat="55.900322" lon="26.528786">
<ele>118.528381</ele>
<time>2010-07-18T14:29:03Z</time>
<desc>lat.=55.900322, lon.=26.528786, Alt.=118.528381m. Speed=0.720000m/h.</desc>
<speed>0.200000</speed>
</trkpt>
<trkpt lat="55.900322" lon="26.528784">
<ele>118.540100</ele>
<time>2010-07-18T14:29:04Z</time>
<desc>lat.=55.900322, lon.=26.528784, Alt.=118.540100m. Speed=0.252000m/h.</desc>
<speed>0.070000</speed>
</trkpt>
<trkpt lat="55.900322" lon="26.528782">
<ele>118.557678</ele>
<time>2010-07-18T14:29:05Z</time>
<desc>lat.=55.900322, lon.=26.528782, Alt.=118.557678m. Speed=0.432000m/h.</desc>
<speed>0.120000</speed>
</trkpt>
<trkpt lat="55.900318" lon="26.528782">
<ele>118.567444</ele>
<time>2010-07-18T14:29:06Z</time>
<desc>lat.=55.900318, lon.=26.528782, Alt.=118.567444m. Speed=0.180000m/h.</desc>
<speed>0.050000</speed>
</trkpt>
<trkpt lat="55.900318" lon="26.528782">
<ele>118.577209</ele>
<time>2010-07-18T14:29:07Z</time>
<desc>lat.=55.900318, lon.=26.528782, Alt.=118.577209m. Speed=0.396000m/h.</desc>
<speed>0.110000</speed>
</trkpt>
<trkpt lat="55.900318" lon="26.528784">
<ele>118.583069</ele>
<time>2010-07-18T14:29:08Z</time>
<desc>lat.=55.900318, lon.=26.528784, Alt.=118.583069m. Speed=0.288000m/h.</desc>
<speed>0.080000</speed>
</trkpt>
<trkpt lat="55.900318" lon="26.528786">
<ele>118.588928</ele>
<time>2010-07-18T14:29:09Z</time>
<desc>lat.=55.900318, lon.=26.528786, Alt.=118.588928m. Speed=0.180000m/h.</desc>
<speed>0.050000</speed>
</trkpt>
<trkpt lat="55.900318" lon="26.528784">
<ele>118.594788</ele>
<time>2010-07-18T14:29:10Z</time>
<desc>lat.=55.900318, lon.=26.528784, Alt.=118.594788m. Speed=0.360000m/h.</desc>
<speed>0.100000</speed>
</trkpt>
<trkpt lat="55.900318" lon="26.528786">
<ele>118.598694</ele>
<time>2010-07-18T14:29:11Z</time>
<desc>lat.=55.900318, lon.=26.528786, Alt.=118.598694m. Speed=0.432000m/h.</desc>
<speed>0.120000</speed>
</trkpt>
<trkpt lat="55.900318" lon="26.528784">
<ele>118.606506</ele>
<time>2010-07-18T14:29:12Z</time>
<desc>lat.=55.900318, lon.=26.528784, Alt.=118.606506m. Speed=0.360000m/h.</desc>
<speed>0.100000</speed>
</trkpt>
<trkpt lat="55.900318" lon="26.528784">
<ele>118.604553</ele>
<time>2010-07-18T14:29:13Z</time>
<desc>lat.=55.900318, lon.=26.528784, Alt.=118.604553m. Speed=0.324000m/h.</desc>
<speed>0.090000</speed>
</trkpt>
<trkpt lat="55.900318" lon="26.528782">
<ele>118.602600</ele>
<time>2010-07-18T14:29:14Z</time>
<desc>lat.=55.900318, lon.=26.528782, Alt.=118.602600m. Speed=0.252000m/h.</desc>
<speed>0.070000</speed>
</trkpt>
<trkpt lat="55.900318" lon="26.528780">
<ele>118.594788</ele>
<time>2010-07-18T14:29:15Z</time>
<desc>lat.=55.900318, lon.=26.528780, Alt.=118.594788m. Speed=0.252000m/h.</desc>
<speed>0.070000</speed>
</trkpt>
<trkpt lat="55.900318" lon="26.528782">
<ele>118.590881</ele>
<time>2010-07-18T14:29:16Z</time>
<desc>lat.=55.900318, lon.=26.528782, Alt.=118.590881m. Speed=0.576000m/h.</desc>
<speed>0.160000</speed>
</trkpt>
<trkpt lat="55.900318" lon="26.528784">
<ele>118.586975</ele>
<time>2010-07-18T14:29:17Z</time>
<desc>lat.=55.900318, lon.=26.528784, Alt.=118.586975m. Speed=0.216000m/h.</desc>
<speed>0.060000</speed>
</trkpt>
<trkpt lat="55.900318" lon="26.528784">
<ele>118.585022</ele>
<time>2010-07-18T14:29:18Z</time>
<desc>lat.=55.900318, lon.=26.528784, Alt.=118.585022m. Speed=0.828000m/h.</desc>
<speed>0.230000</speed>
</trkpt>
<trkpt lat="55.900322" lon="26.528786">
<ele>118.585022</ele>
<time>2010-07-18T14:29:19Z</time>
<desc>lat.=55.900322, lon.=26.528786, Alt.=118.585022m. Speed=0.288000m/h.</desc>
<speed>0.080000</speed>
</trkpt>
<trkpt lat="55.900322" lon="26.528786">
<ele>118.581116</ele>
<time>2010-07-18T14:29:20Z</time>
<desc>lat.=55.900322, lon.=26.528786, Alt.=118.581116m. Speed=0.324000m/h.</desc>
<speed>0.090000</speed>
</trkpt>
<trkpt lat="55.900322" lon="26.528784">
<ele>118.579163</ele>
<time>2010-07-18T14:29:21Z</time>
<desc>lat.=55.900322, lon.=26.528784, Alt.=118.579163m. Speed=0.468000m/h.</desc>
<speed>0.130000</speed>
</trkpt>
<trkpt lat="55.900322" lon="26.528782">
<ele>118.579163</ele>
<time>2010-07-18T14:29:22Z</time>
<desc>lat.=55.900322, lon.=26.528782, Alt.=118.579163m. Speed=0.504000m/h.</desc>
<speed>0.140000</speed>
</trkpt>
<trkpt lat="55.900322" lon="26.528780">
<ele>118.575256</ele>
<time>2010-07-18T14:29:23Z</time>
<desc>lat.=55.900322, lon.=26.528780, Alt.=118.575256m. Speed=0.360000m/h.</desc>
<speed>0.100000</speed>
</trkpt>
<trkpt lat="55.900322" lon="26.528780">
<ele>118.569397</ele>
<time>2010-07-18T14:29:24Z</time>
<desc>lat.=55.900322, lon.=26.528780, Alt.=118.569397m. Speed=0.324000m/h.</desc>
<speed>0.090000</speed>
</trkpt>
<trkpt lat="55.900322" lon="26.528780">
<ele>118.567444</ele>
<time>2010-07-18T14:29:25Z</time>
<desc>lat.=55.900322, lon.=26.528780, Alt.=118.567444m. Speed=0.288000m/h.</desc>
<speed>0.080000</speed>
</trkpt>
<trkpt lat="55.900318" lon="26.528780">
<ele>118.565491</ele>
<time>2010-07-18T14:29:26Z</time>
<desc>lat.=55.900318, lon.=26.528780, Alt.=118.565491m. Speed=0.432000m/h.</desc>
<speed>0.120000</speed>
</trkpt>
<trkpt lat="55.900318" lon="26.528782">
<ele>118.565491</ele>
<time>2010-07-18T14:29:27Z</time>
<desc>lat.=55.900318, lon.=26.528782, Alt.=118.565491m. Speed=0.108000m/h.</desc>
<speed>0.030000</speed>
</trkpt>
<trkpt lat="55.900318" lon="26.528782">
<ele>118.567444</ele>
<time>2010-07-18T14:29:28Z</time>
<desc>lat.=55.900318, lon.=26.528782, Alt.=118.567444m. Speed=0.540000m/h.</desc>
<speed>0.150000</speed>
</trkpt>
<trkpt lat="55.900318" lon="26.528784">
<ele>118.573303</ele>
<time>2010-07-18T14:29:29Z</time>
<desc>lat.=55.900318, lon.=26.528784, Alt.=118.573303m. Speed=0.036000m/h.</desc>
<speed>0.010000</speed>
</trkpt>
<trkpt lat="55.900318" lon="26.528784">
<ele>118.581116</ele>
<time>2010-07-18T14:29:30Z</time>
<desc>lat.=55.900318, lon.=26.528784, Alt.=118.581116m. Speed=0.468000m/h.</desc>
<speed>0.130000</speed>
</trkpt>
<trkpt lat="55.900318" lon="26.528786">
<ele>118.586975</ele>
<time>2010-07-18T14:29:31Z</time>
<desc>lat.=55.900318, lon.=26.528786, Alt.=118.586975m. Speed=0.324000m/h.</desc>
<speed>0.090000</speed>
</trkpt>
<trkpt lat="55.900318" lon="26.528788">
<ele>118.594788</ele>
<time>2010-07-18T14:29:32Z</time>
<desc>lat.=55.900318, lon.=26.528788, Alt.=118.594788m. Speed=0.216000m/h.</desc>
<speed>0.060000</speed>
</trkpt>
<trkpt lat="55.900318" lon="26.528788">
<ele>118.604553</ele>
<time>2010-07-18T14:29:33Z</time>
<desc>lat.=55.900318, lon.=26.528788, Alt.=118.604553m. Speed=0.540000m/h.</desc>
<speed>0.150000</speed>
</trkpt>
<trkpt lat="55.900318" lon="26.528788">
<ele>118.616272</ele>
<time>2010-07-18T14:29:34Z</time>
<desc>lat.=55.900318, lon.=26.528788, Alt.=118.616272m. Speed=0.936000m/h.</desc>
<speed>0.260000</speed>
</trkpt>
<trkpt lat="55.900322" lon="26.528788">
<ele>118.627991</ele>
<time>2010-07-18T14:29:35Z</time>
<desc>lat.=55.900322, lon.=26.528788, Alt.=118.627991m. Speed=1.332000m/h.</desc>
<speed>0.370000</speed>
</trkpt>
<trkpt lat="55.900326" lon="26.528791">
<ele>118.741272</ele>
<time>2010-07-18T14:29:36Z</time>
<desc>lat.=55.900326, lon.=26.528791, Alt.=118.741272m. Speed=0.756000m/h.</desc>
<speed>0.210000</speed>
</trkpt>
<trkpt lat="55.900326" lon="26.528799">
<ele>118.659241</ele>
<time>2010-07-18T14:29:37Z</time>
<desc>lat.=55.900326, lon.=26.528799, Alt.=118.659241m. Speed=0.396000m/h.</desc>
<speed>0.110000</speed>
</trkpt>
<trkpt lat="55.900326" lon="26.528799">
<ele>118.803772</ele>
<time>2010-07-18T14:29:38Z</time>
<desc>lat.=55.900326, lon.=26.528799, Alt.=118.803772m. Speed=0.756000m/h.</desc>
<speed>0.210000</speed>
</trkpt>
<trkpt lat="55.900326" lon="26.528801">
<ele>118.836975</ele>
<time>2010-07-18T14:29:39Z</time>
<desc>lat.=55.900326, lon.=26.528801, Alt.=118.836975m. Speed=0.288000m/h.</desc>
<speed>0.080000</speed>
</trkpt>
<trkpt lat="55.900326" lon="26.528801">
<ele>118.838928</ele>
<time>2010-07-18T14:29:40Z</time>
<desc>lat.=55.900326, lon.=26.528801, Alt.=118.838928m. Speed=0.252000m/h.</desc>
<speed>0.070000</speed>
</trkpt>
<trkpt lat="55.900326" lon="26.528801">
<ele>118.838928</ele>
<time>2010-07-18T14:29:41Z</time>
<desc>lat.=55.900326, lon.=26.528801, Alt.=118.838928m. Speed=0.756000m/h.</desc>
<speed>0.210000</speed>
</trkpt>
<trkpt lat="55.900330" lon="26.528797">
<ele>118.840881</ele>
<time>2010-07-18T14:29:42Z</time>
<desc>lat.=55.900330, lon.=26.528797, Alt.=118.840881m. Speed=0.504000m/h.</desc>
<speed>0.140000</speed>
</trkpt>
<trkpt lat="55.900330" lon="26.528795">
<ele>118.844788</ele>
<time>2010-07-18T14:29:43Z</time>
<desc>lat.=55.900330, lon.=26.528795, Alt.=118.844788m. Speed=0.288000m/h.</desc>
<speed>0.080000</speed>
</trkpt>
<trkpt lat="55.900330" lon="26.528795">
<ele>118.850647</ele>
<time>2010-07-18T14:29:44Z</time>
<desc>lat.=55.900330, lon.=26.528795, Alt.=118.850647m. Speed=0.324000m/h.</desc>
<speed>0.090000</speed>
</trkpt>
<trkpt lat="55.900330" lon="26.528793">
<ele>118.856506</ele>
<time>2010-07-18T14:29:45Z</time>
<desc>lat.=55.900330, lon.=26.528793, Alt.=118.856506m. Speed=0.252000m/h.</desc>
<speed>0.070000</speed>
</trkpt>
<trkpt lat="55.900330" lon="26.528793">
<ele>118.864319</ele>
<time>2010-07-18T14:29:46Z</time>
<desc>lat.=55.900330, lon.=26.528793, Alt.=118.864319m. Speed=0.468000m/h.</desc>
<speed>0.130000</speed>
</trkpt>
<trkpt lat="55.900330" lon="26.528797">
<ele>118.870178</ele>
<time>2010-07-18T14:29:47Z</time>
<desc>lat.=55.900330, lon.=26.528797, Alt.=118.870178m. Speed=0.828000m/h.</desc>
<speed>0.230000</speed>
</trkpt>
<trkpt lat="55.900333" lon="26.528799">
<ele>118.874084</ele>
<time>2010-07-18T14:29:48Z</time>
<desc>lat.=55.900333, lon.=26.528799, Alt.=118.874084m. Speed=0.792000m/h.</desc>
<speed>0.220000</speed>
</trkpt>
<trkpt lat="55.900333" lon="26.528799">
<ele>118.877991</ele>
<time>2010-07-18T14:29:49Z</time>
<desc>lat.=55.900333, lon.=26.528799, Alt.=118.877991m. Speed=0.504000m/h.</desc>
<speed>0.140000</speed>
</trkpt>
<trkpt lat="55.900337" lon="26.528801">
<ele>118.877991</ele>
<time>2010-07-18T14:29:50Z</time>
<desc>lat.=55.900337, lon.=26.528801, Alt.=118.877991m. Speed=0.396000m/h.</desc>
<speed>0.110000</speed>
</trkpt>
<trkpt lat="55.900337" lon="26.528799">
<ele>118.877991</ele>
<time>2010-07-18T14:29:51Z</time>
<desc>lat.=55.900337, lon.=26.528799, Alt.=118.877991m. Speed=0.468000m/h.</desc>
<speed>0.130000</speed>
</trkpt>
<trkpt lat="55.900337" lon="26.528799">
<ele>118.877991</ele>
<time>2010-07-18T14:29:52Z</time>
<desc>lat.=55.900337, lon.=26.528799, Alt.=118.877991m. Speed=0.180000m/h.</desc>
<speed>0.050000</speed>
</trkpt>
<trkpt lat="55.900337" lon="26.528799">
<ele>118.883850</ele>
<time>2010-07-18T14:29:53Z</time>
<desc>lat.=55.900337, lon.=26.528799, Alt.=118.883850m. Speed=0.792000m/h.</desc>
<speed>0.220000</speed>
</trkpt>
<trkpt lat="55.900341" lon="26.528795">
<ele>118.883850</ele>
<time>2010-07-18T14:29:54Z</time>
<desc>lat.=55.900341, lon.=26.528795, Alt.=118.883850m. Speed=0.432000m/h.</desc>
<speed>0.120000</speed>
</trkpt>
<trkpt lat="55.900341" lon="26.528795">
<ele>118.881897</ele>
<time>2010-07-18T14:29:55Z</time>
<desc>lat.=55.900341, lon.=26.528795, Alt.=118.881897m. Speed=0.324000m/h.</desc>
<speed>0.090000</speed>
</trkpt>
<trkpt lat="55.900341" lon="26.528793">
<ele>118.877991</ele>
<time>2010-07-18T14:29:56Z</time>
<desc>lat.=55.900341, lon.=26.528793, Alt.=118.877991m. Speed=0.252000m/h.</desc>
<speed>0.070000</speed>
</trkpt>
<trkpt lat="55.900341" lon="26.528793">
<ele>118.876038</ele>
<time>2010-07-18T14:29:57Z</time>
<desc>lat.=55.900341, lon.=26.528793, Alt.=118.876038m. Speed=0.144000m/h.</desc>
<speed>0.040000</speed>
</trkpt>
<trkpt lat="55.900341" lon="26.528793">
<ele>118.876038</ele>
<time>2010-07-18T14:29:58Z</time>
<desc>lat.=55.900341, lon.=26.528793, Alt.=118.876038m. Speed=0.468000m/h.</desc>
<speed>0.130000</speed>
</trkpt>
<trkpt lat="55.900341" lon="26.528791">
<ele>118.874084</ele>
<time>2010-07-18T14:29:59Z</time>
<desc>lat.=55.900341, lon.=26.528791, Alt.=118.874084m. Speed=0.108000m/h.</desc>
<speed>0.030000</speed>
</trkpt>
<trkpt lat="55.900341" lon="26.528791">
<ele>118.872131</ele>
<time>2010-07-18T14:30:00Z</time>
<desc>lat.=55.900341, lon.=26.528791, Alt.=118.872131m. Speed=0.252000m/h.</desc>
<speed>0.070000</speed>
</trkpt>
<trkpt lat="55.900341" lon="26.528790">
<ele>118.874084</ele>
<time>2010-07-18T14:30:01Z</time>
<desc>lat.=55.900341, lon.=26.528790, Alt.=118.874084m. Speed=0.216000m/h.</desc>
<speed>0.060000</speed>
</trkpt>
<trkpt lat="55.900341" lon="26.528790">
<ele>118.872131</ele>
<time>2010-07-18T14:30:02Z</time>
<desc>lat.=55.900341, lon.=26.528790, Alt.=118.872131m. Speed=0.144000m/h.</desc>
<speed>0.040000</speed>
</trkpt>
<trkpt lat="55.900341" lon="26.528788">
<ele>118.870178</ele>
<time>2010-07-18T14:30:03Z</time>
<desc>lat.=55.900341, lon.=26.528788, Alt.=118.870178m. Speed=0.396000m/h.</desc>
<speed>0.110000</speed>
</trkpt>
<trkpt lat="55.900341" lon="26.528788">
<ele>118.868225</ele>
<time>2010-07-18T14:30:04Z</time>
<desc>lat.=55.900341, lon.=26.528788, Alt.=118.868225m. Speed=0.612000m/h.</desc>
<speed>0.170000</speed>
</trkpt>
<trkpt lat="55.900345" lon="26.528791">
<ele>118.864319</ele>
<time>2010-07-18T14:30:05Z</time>
<desc>lat.=55.900345, lon.=26.528791, Alt.=118.864319m. Speed=0.396000m/h.</desc>
<speed>0.110000</speed>
</trkpt>
<trkpt lat="55.900345" lon="26.528791">
<ele>118.862366</ele>
<time>2010-07-18T14:30:06Z</time>
<desc>lat.=55.900345, lon.=26.528791, Alt.=118.862366m. Speed=0.504000m/h.</desc>
<speed>0.140000</speed>
</trkpt>
<trkpt lat="55.900345" lon="26.528791">
<ele>118.864319</ele>
<time>2010-07-18T14:30:07Z</time>
<desc>lat.=55.900345, lon.=26.528791, Alt.=118.864319m. Speed=0.468000m/h.</desc>
<speed>0.130000</speed>
</trkpt>
<trkpt lat="55.900345" lon="26.528790">
<ele>118.866272</ele>
<time>2010-07-18T14:30:08Z</time>
<desc>lat.=55.900345, lon.=26.528790, Alt.=118.866272m. Speed=0.108000m/h.</desc>
<speed>0.030000</speed>
</trkpt>
<trkpt lat="55.900345" lon="26.528791">
<ele>118.866272</ele>
<time>2010-07-18T14:30:09Z</time>
<desc>lat.=55.900345, lon.=26.528791, Alt.=118.866272m. Speed=0.468000m/h.</desc>
<speed>0.130000</speed>
</trkpt>
<trkpt lat="55.900345" lon="26.528793">
<ele>118.862366</ele>
<time>2010-07-18T14:30:10Z</time>
<desc>lat.=55.900345, lon.=26.528793, Alt.=118.862366m. Speed=0.828000m/h.</desc>
<speed>0.230000</speed>
</trkpt>
<trkpt lat="55.900345" lon="26.528797">
<ele>118.858459</ele>
<time>2010-07-18T14:30:11Z</time>
<desc>lat.=55.900345, lon.=26.528797, Alt.=118.858459m. Speed=0.648000m/h.</desc>
<speed>0.180000</speed>
</trkpt>
<trkpt lat="55.900345" lon="26.528799">
<ele>118.850647</ele>
<time>2010-07-18T14:30:12Z</time>
<desc>lat.=55.900345, lon.=26.528799, Alt.=118.850647m. Speed=0.576000m/h.</desc>
<speed>0.160000</speed>
</trkpt>
<trkpt lat="55.900345" lon="26.528803">
<ele>118.846741</ele>
<time>2010-07-18T14:30:13Z</time>
<desc>lat.=55.900345, lon.=26.528803, Alt.=118.846741m. Speed=0.612000m/h.</desc>
<speed>0.170000</speed>
</trkpt>
<trkpt lat="55.900345" lon="26.528805">
<ele>118.840881</ele>
<time>2010-07-18T14:30:14Z</time>
<desc>lat.=55.900345, lon.=26.528805, Alt.=118.840881m. Speed=1.008000m/h.</desc>
<speed>0.280000</speed>
</trkpt>
<trkpt lat="55.900341" lon="26.528811">
<ele>118.838928</ele>
<time>2010-07-18T14:30:15Z</time>
<desc>lat.=55.900341, lon.=26.528811, Alt.=118.838928m. Speed=1.260000m/h.</desc>
<speed>0.350000</speed>
</trkpt>
<trkpt lat="55.900341" lon="26.528820">
<ele>118.862366</ele>
<time>2010-07-18T14:30:16Z</time>
<desc>lat.=55.900341, lon.=26.528820, Alt.=118.862366m. Speed=1.044000m/h.</desc>
<speed>0.290000</speed>
</trkpt>
<trkpt lat="55.900337" lon="26.528837">
<ele>118.922913</ele>
<time>2010-07-18T14:30:17Z</time>
<desc>lat.=55.900337, lon.=26.528837, Alt.=118.922913m. Speed=1.368000m/h.</desc>
<speed>0.380000</speed>
</trkpt>
<trkpt lat="55.900333" lon="26.528845">
<ele>119.182678</ele>
<time>2010-07-18T14:30:18Z</time>
<desc>lat.=55.900333, lon.=26.528845, Alt.=119.182678m. Speed=1.260000m/h.</desc>
<speed>0.350000</speed>
</trkpt>
<trkpt lat="55.900333" lon="26.528860">
<ele>119.211975</ele>
<time>2010-07-18T14:30:19Z</time>
<desc>lat.=55.900333, lon.=26.528860, Alt.=119.211975m. Speed=1.404000m/h.</desc>
<speed>0.390000</speed>
</trkpt>
<trkpt lat="55.900330" lon="26.528875">
<ele>119.243225</ele>
<time>2010-07-18T14:30:20Z</time>
<desc>lat.=55.900330, lon.=26.528875, Alt.=119.243225m. Speed=1.404000m/h.</desc>
<speed>0.390000</speed>
</trkpt>
<trkpt lat="55.900330" lon="26.528885">
<ele>119.227600</ele>
<time>2010-07-18T14:30:21Z</time>
<desc>lat.=55.900330, lon.=26.528885, Alt.=119.227600m. Speed=1.116000m/h.</desc>
<speed>0.310000</speed>
</trkpt>
<trkpt lat="55.900330" lon="26.528894">
<ele>119.126038</ele>
<time>2010-07-18T14:30:22Z</time>
<desc>lat.=55.900330, lon.=26.528894, Alt.=119.126038m. Speed=1.188000m/h.</desc>
<speed>0.330000</speed>
</trkpt>
<trkpt lat="55.900330" lon="26.528894">
<ele>119.143616</ele>
<time>2010-07-18T14:30:23Z</time>
<desc>lat.=55.900330, lon.=26.528894, Alt.=119.143616m. Speed=0.720000m/h.</desc>
<speed>0.200000</speed>
</trkpt>
<trkpt lat="55.900333" lon="26.528887">
<ele>119.249084</ele>
<time>2010-07-18T14:30:24Z</time>
<desc>lat.=55.900333, lon.=26.528887, Alt.=119.249084m. Speed=0.432000m/h.</desc>
<speed>0.120000</speed>
</trkpt>
<trkpt lat="55.900333" lon="26.528894">
<ele>119.346741</ele>
<time>2010-07-18T14:30:25Z</time>
<desc>lat.=55.900333, lon.=26.528894, Alt.=119.346741m. Speed=0.540000m/h.</desc>
<speed>0.150000</speed>
</trkpt>
<trkpt lat="55.900330" lon="26.528906">
<ele>119.309631</ele>
<time>2010-07-18T14:30:26Z</time>
<desc>lat.=55.900330, lon.=26.528906, Alt.=119.309631m. Speed=0.360000m/h.</desc>
<speed>0.100000</speed>
</trkpt>
<trkpt lat="55.900330" lon="26.528908">
<ele>119.311584</ele>
<time>2010-07-18T14:30:27Z</time>
<desc>lat.=55.900330, lon.=26.528908, Alt.=119.311584m. Speed=0.144000m/h.</desc>
<speed>0.040000</speed>
</trkpt>
<trkpt lat="55.900330" lon="26.528908">
<ele>119.313538</ele>
<time>2010-07-18T14:30:28Z</time>
<desc>lat.=55.900330, lon.=26.528908, Alt.=119.313538m. Speed=0.252000m/h.</desc>
<speed>0.070000</speed>
</trkpt>
<trkpt lat="55.900330" lon="26.528908">
<ele>119.317444</ele>
<time>2010-07-18T14:30:29Z</time>
<desc>lat.=55.900330, lon.=26.528908, Alt.=119.317444m. Speed=0.216000m/h.</desc>
<speed>0.060000</speed>
</trkpt>
<trkpt lat="55.900330" lon="26.528908">
<ele>119.327209</ele>
<time>2010-07-18T14:30:30Z</time>
<desc>lat.=55.900330, lon.=26.528908, Alt.=119.327209m. Speed=0.036000m/h.</desc>
<speed>0.010000</speed>
</trkpt>
<trkpt lat="55.900330" lon="26.528908">
<ele>119.338928</ele>
<time>2010-07-18T14:30:31Z</time>
<desc>lat.=55.900330, lon.=26.528908, Alt.=119.338928m. Speed=0.396000m/h.</desc>
<speed>0.110000</speed>
</trkpt>
<trkpt lat="55.900330" lon="26.528910">
<ele>119.346741</ele>
<time>2010-07-18T14:30:32Z</time>
<desc>lat.=55.900330, lon.=26.528910, Alt.=119.346741m. Speed=0.468000m/h.</desc>
<speed>0.130000</speed>
</trkpt>
<trkpt lat="55.900330" lon="26.528910">
<ele>119.346741</ele>
<time>2010-07-18T14:30:33Z</time>
<desc>lat.=55.900330, lon.=26.528910, Alt.=119.346741m. Speed=0.108000m/h.</desc>
<speed>0.030000</speed>
</trkpt>
<trkpt lat="55.900330" lon="26.528912">
<ele>119.350647</ele>
<time>2010-07-18T14:30:34Z</time>
<desc>lat.=55.900330, lon.=26.528912, Alt.=119.350647m. Speed=0.288000m/h.</desc>
<speed>0.080000</speed>
</trkpt>
<trkpt lat="55.900330" lon="26.528910">
<ele>119.352600</ele>
<time>2010-07-18T14:30:35Z</time>
<desc>lat.=55.900330, lon.=26.528910, Alt.=119.352600m. Speed=0.288000m/h.</desc>
<speed>0.080000</speed>
</trkpt>
<trkpt lat="55.900330" lon="26.528908">
<ele>119.360413</ele>
<time>2010-07-18T14:30:36Z</time>
<desc>lat.=55.900330, lon.=26.528908, Alt.=119.360413m. Speed=0.468000m/h.</desc>
<speed>0.130000</speed>
</trkpt>
<trkpt lat="55.900330" lon="26.528906">
<ele>119.370178</ele>
<time>2010-07-18T14:30:37Z</time>
<desc>lat.=55.900330, lon.=26.528906, Alt.=119.370178m. Speed=0.072000m/h.</desc>
<speed>0.020000</speed>
</trkpt>
<trkpt lat="55.900330" lon="26.528906">
<ele>119.376038</ele>
<time>2010-07-18T14:30:38Z</time>
<desc>lat.=55.900330, lon.=26.528906, Alt.=119.376038m. Speed=0.252000m/h.</desc>
<speed>0.070000</speed>
</trkpt>
<trkpt lat="55.900330" lon="26.528908">
<ele>119.383850</ele>
<time>2010-07-18T14:30:39Z</time>
<desc>lat.=55.900330, lon.=26.528908, Alt.=119.383850m. Speed=0.612000m/h.</desc>
<speed>0.170000</speed>
</trkpt>
<trkpt lat="55.900333" lon="26.528910">
<ele>119.389709</ele>
<time>2010-07-18T14:30:40Z</time>
<desc>lat.=55.900333, lon.=26.528910, Alt.=119.389709m. Speed=0.648000m/h.</desc>
<speed>0.180000</speed>
</trkpt>
<trkpt lat="55.900333" lon="26.528912">
<ele>119.401428</ele>
<time>2010-07-18T14:30:41Z</time>
<desc>lat.=55.900333, lon.=26.528912, Alt.=119.401428m. Speed=0.576000m/h.</desc>
<speed>0.160000</speed>
</trkpt>
<trkpt lat="55.900333" lon="26.528913">
<ele>119.411194</ele>
<time>2010-07-18T14:30:42Z</time>
<desc>lat.=55.900333, lon.=26.528913, Alt.=119.411194m. Speed=0.144000m/h.</desc>
<speed>0.040000</speed>
</trkpt>
<trkpt lat="55.900333" lon="26.528913">
<ele>119.419006</ele>
<time>2010-07-18T14:30:43Z</time>
<desc>lat.=55.900333, lon.=26.528913, Alt.=119.419006m. Speed=0.396000m/h.</desc>
<speed>0.110000</speed>
</trkpt>
<trkpt lat="55.900333" lon="26.528912">
<ele>119.424866</ele>
<time>2010-07-18T14:30:44Z</time>
<desc>lat.=55.900333, lon.=26.528912, Alt.=119.424866m. Speed=0.324000m/h.</desc>
<speed>0.090000</speed>
</trkpt>
<trkpt lat="55.900333" lon="26.528910">
<ele>119.428772</ele>
<time>2010-07-18T14:30:45Z</time>
<desc>lat.=55.900333, lon.=26.528910, Alt.=119.428772m. Speed=0.504000m/h.</desc>
<speed>0.140000</speed>
</trkpt>
<trkpt lat="55.900333" lon="26.528908">
<ele>119.432678</ele>
<time>2010-07-18T14:30:46Z</time>
<desc>lat.=55.900333, lon.=26.528908, Alt.=119.432678m. Speed=0.684000m/h.</desc>
<speed>0.190000</speed>
</trkpt>
<trkpt lat="55.900333" lon="26.528906">
<ele>119.436584</ele>
<time>2010-07-18T14:30:47Z</time>
<desc>lat.=55.900333, lon.=26.528906, Alt.=119.436584m. Speed=1.044000m/h.</desc>
<speed>0.290000</speed>
</trkpt>
<trkpt lat="55.900337" lon="26.528904">
<ele>119.436584</ele>
<time>2010-07-18T14:30:48Z</time>
<desc>lat.=55.900337, lon.=26.528904, Alt.=119.436584m. Speed=0.756000m/h.</desc>
<speed>0.210000</speed>
</trkpt>
<trkpt lat="55.900337" lon="26.528902">
<ele>119.438538</ele>
<time>2010-07-18T14:30:49Z</time>
<desc>lat.=55.900337, lon.=26.528902, Alt.=119.438538m. Speed=0.324000m/h.</desc>
<speed>0.090000</speed>
</trkpt>
<trkpt lat="55.900341" lon="26.528902">
<ele>119.442444</ele>
<time>2010-07-18T14:30:50Z</time>
<desc>lat.=55.900341, lon.=26.528902, Alt.=119.442444m. Speed=0.684000m/h.</desc>
<speed>0.190000</speed>
</trkpt>
<trkpt lat="55.900341" lon="26.528906">
<ele>119.450256</ele>
<time>2010-07-18T14:30:51Z</time>
<desc>lat.=55.900341, lon.=26.528906, Alt.=119.450256m. Speed=1.116000m/h.</desc>
<speed>0.310000</speed>
</trkpt>
<trkpt lat="55.900337" lon="26.528925">
<ele>119.465881</ele>
<time>2010-07-18T14:30:52Z</time>
<desc>lat.=55.900337, lon.=26.528925, Alt.=119.465881m. Speed=1.332000m/h.</desc>
<speed>0.370000</speed>
</trkpt>
<trkpt lat="55.900330" lon="26.528944">
<ele>119.510803</ele>
<time>2010-07-18T14:30:53Z</time>
<desc>lat.=55.900330, lon.=26.528944, Alt.=119.510803m. Speed=1.404000m/h.</desc>
<speed>0.390000</speed>
</trkpt>
<trkpt lat="55.900326" lon="26.528954">
<ele>119.442444</ele>
<time>2010-07-18T14:30:54Z</time>
<desc>lat.=55.900326, lon.=26.528954, Alt.=119.442444m. Speed=1.188000m/h.</desc>
<speed>0.330000</speed>
</trkpt>
<trkpt lat="55.900326" lon="26.528954">
<ele>119.385803</ele>
<time>2010-07-18T14:30:55Z</time>
<desc>lat.=55.900326, lon.=26.528954, Alt.=119.385803m. Speed=0.756000m/h.</desc>
<speed>0.210000</speed>
</trkpt>
<trkpt lat="55.900322" lon="26.528957">
<ele>119.413147</ele>
<time>2010-07-18T14:30:56Z</time>
<desc>lat.=55.900322, lon.=26.528957, Alt.=119.413147m. Speed=0.324000m/h.</desc>
<speed>0.090000</speed>
</trkpt>
<trkpt lat="55.900318" lon="26.528971">
<ele>119.327209</ele>
<time>2010-07-18T14:30:57Z</time>
<desc>lat.=55.900318, lon.=26.528971, Alt.=119.327209m. Speed=0.540000m/h.</desc>
<speed>0.150000</speed>
</trkpt>
<trkpt lat="55.900314" lon="26.528975">
<ele>119.233459</ele>
<time>2010-07-18T14:30:58Z</time>
<desc>lat.=55.900314, lon.=26.528975, Alt.=119.233459m. Speed=0.324000m/h.</desc>
<speed>0.090000</speed>
</trkpt>
<trkpt lat="55.900314" lon="26.528976">
<ele>119.235413</ele>
<time>2010-07-18T14:30:59Z</time>
<desc>lat.=55.900314, lon.=26.528976, Alt.=119.235413m. Speed=0.216000m/h.</desc>
<speed>0.060000</speed>
</trkpt>
<trkpt lat="55.900314" lon="26.528978">
<ele>119.239319</ele>
<time>2010-07-18T14:31:00Z</time>
<desc>lat.=55.900314, lon.=26.528978, Alt.=119.239319m. Speed=0.432000m/h.</desc>
<speed>0.120000</speed>
</trkpt>
<trkpt lat="55.900314" lon="26.528980">
<ele>119.249084</ele>
<time>2010-07-18T14:31:01Z</time>
<desc>lat.=55.900314, lon.=26.528980, Alt.=119.249084m. Speed=0.684000m/h.</desc>
<speed>0.190000</speed>
</trkpt>
<trkpt lat="55.900314" lon="26.528982">
<ele>119.258850</ele>
<time>2010-07-18T14:31:02Z</time>
<desc>lat.=55.900314, lon.=26.528982, Alt.=119.258850m. Speed=1.008000m/h.</desc>
<speed>0.280000</speed>
</trkpt>
<trkpt lat="55.900314" lon="26.528988">
<ele>119.272522</ele>
<time>2010-07-18T14:31:03Z</time>
<desc>lat.=55.900314, lon.=26.528988, Alt.=119.272522m. Speed=0.576000m/h.</desc>
<speed>0.160000</speed>
</trkpt>
<trkpt lat="55.900314" lon="26.528990">
<ele>119.282288</ele>
<time>2010-07-18T14:31:04Z</time>
<desc>lat.=55.900314, lon.=26.528990, Alt.=119.282288m. Speed=0.288000m/h.</desc>
<speed>0.080000</speed>
</trkpt>
<trkpt lat="55.900314" lon="26.528990">
<ele>119.292053</ele>
<time>2010-07-18T14:31:05Z</time>
<desc>lat.=55.900314, lon.=26.528990, Alt.=119.292053m. Speed=0.252000m/h.</desc>
<speed>0.070000</speed>
</trkpt>
<trkpt lat="55.900314" lon="26.528990">
<ele>119.295959</ele>
<time>2010-07-18T14:31:06Z</time>
<desc>lat.=55.900314, lon.=26.528990, Alt.=119.295959m. Speed=0.252000m/h.</desc>
<speed>0.070000</speed>
</trkpt>
<trkpt lat="55.900314" lon="26.528988">
<ele>119.301819</ele>
<time>2010-07-18T14:31:07Z</time>
<desc>lat.=55.900314, lon.=26.528988, Alt.=119.301819m. Speed=0.540000m/h.</desc>
<speed>0.150000</speed>
</trkpt>
<trkpt lat="55.900311" lon="26.528988">
<ele>119.307678</ele>
<time>2010-07-18T14:31:08Z</time>
<desc>lat.=55.900311, lon.=26.528988, Alt.=119.307678m. Speed=0.432000m/h.</desc>
<speed>0.120000</speed>
</trkpt>
<trkpt lat="55.900311" lon="26.528986">
<ele>119.309631</ele>
<time>2010-07-18T14:31:09Z</time>
<desc>lat.=55.900311, lon.=26.528986, Alt.=119.309631m. Speed=0.252000m/h.</desc>
<speed>0.070000</speed>
</trkpt>
<trkpt lat="55.900311" lon="26.528984">
<ele>119.313538</ele>
<time>2010-07-18T14:31:10Z</time>
<desc>lat.=55.900311, lon.=26.528984, Alt.=119.313538m. Speed=0.324000m/h.</desc>
<speed>0.090000</speed>
</trkpt>
<trkpt lat="55.900311" lon="26.528984">
<ele>119.317444</ele>
<time>2010-07-18T14:31:11Z</time>
<desc>lat.=55.900311, lon.=26.528984, Alt.=119.317444m. Speed=0.144000m/h.</desc>
<speed>0.040000</speed>
</trkpt>
<trkpt lat="55.900311" lon="26.528984">
<ele>119.323303</ele>
<time>2010-07-18T14:31:12Z</time>
<desc>lat.=55.900311, lon.=26.528984, Alt.=119.323303m. Speed=0.216000m/h.</desc>
<speed>0.060000</speed>
</trkpt>
<trkpt lat="55.900311" lon="26.528986">
<ele>119.331116</ele>
<time>2010-07-18T14:31:13Z</time>
<desc>lat.=55.900311, lon.=26.528986, Alt.=119.331116m. Speed=0.540000m/h.</desc>
<speed>0.150000</speed>
</trkpt>
<trkpt lat="55.900311" lon="26.528988">
<ele>119.336975</ele>
<time>2010-07-18T14:31:14Z</time>
<desc>lat.=55.900311, lon.=26.528988, Alt.=119.336975m. Speed=0.576000m/h.</desc>
<speed>0.160000</speed>
</trkpt>
<trkpt lat="55.900314" lon="26.528990">
<ele>119.346741</ele>
<time>2010-07-18T14:31:15Z</time>
<desc>lat.=55.900314, lon.=26.528990, Alt.=119.346741m. Speed=0.324000m/h.</desc>
<speed>0.090000</speed>
</trkpt>
<trkpt lat="55.900314" lon="26.528990">
<ele>119.354553</ele>
<time>2010-07-18T14:31:16Z</time>
<desc>lat.=55.900314, lon.=26.528990, Alt.=119.354553m. Speed=0.288000m/h.</desc>
<speed>0.080000</speed>
</trkpt>
<trkpt lat="55.900314" lon="26.528990">
<ele>119.364319</ele>
<time>2010-07-18T14:31:17Z</time>
<desc>lat.=55.900314, lon.=26.528990, Alt.=119.364319m. Speed=0.972000m/h.</desc>
<speed>0.270000</speed>
</trkpt>
<trkpt lat="55.900311" lon="26.528994">
<ele>119.372131</ele>
<time>2010-07-18T14:31:18Z</time>
<desc>lat.=55.900311, lon.=26.528994, Alt.=119.372131m. Speed=1.188000m/h.</desc>
<speed>0.330000</speed>
</trkpt>
<trkpt lat="55.900314" lon="26.529013">
<ele>119.342834</ele>
<time>2010-07-18T14:31:19Z</time>
<desc>lat.=55.900314, lon.=26.529013, Alt.=119.342834m. Speed=0.936000m/h.</desc>
<speed>0.260000</speed>
</trkpt>
<trkpt lat="55.900314" lon="26.529022">
<ele>119.381897</ele>
<time>2010-07-18T14:31:20Z</time>
<desc>lat.=55.900314, lon.=26.529022, Alt.=119.381897m. Speed=0.648000m/h.</desc>
<speed>0.180000</speed>
</trkpt>
<trkpt lat="55.900314" lon="26.529034">
<ele>119.481506</ele>
<time>2010-07-18T14:31:21Z</time>
<desc>lat.=55.900314, lon.=26.529034, Alt.=119.481506m. Speed=0.900000m/h.</desc>
<speed>0.250000</speed>
</trkpt>
<trkpt lat="55.900314" lon="26.529036">
<ele>119.540100</ele>
<time>2010-07-18T14:31:22Z</time>
<desc>lat.=55.900314, lon.=26.529036, Alt.=119.540100m. Speed=0.468000m/h.</desc>
<speed>0.130000</speed>
</trkpt>
<trkpt lat="55.900314" lon="26.529037">
<ele>119.551819</ele>
<time>2010-07-18T14:31:23Z</time>
<desc>lat.=55.900314, lon.=26.529037, Alt.=119.551819m. Speed=1.224000m/h.</desc>
<speed>0.340000</speed>
</trkpt>
<trkpt lat="55.900314" lon="26.529053">
<ele>119.495178</ele>
<time>2010-07-18T14:31:24Z</time>
<desc>lat.=55.900314, lon.=26.529053, Alt.=119.495178m. Speed=1.008000m/h.</desc>
<speed>0.280000</speed>
</trkpt>
<trkpt lat="55.900311" lon="26.529057">
<ele>119.645569</ele>
<time>2010-07-18T14:31:25Z</time>
<desc>lat.=55.900311, lon.=26.529057, Alt.=119.645569m. Speed=0.612000m/h.</desc>
<speed>0.170000</speed>
</trkpt>
<trkpt lat="55.900307" lon="26.529058">
<ele>119.651428</ele>
<time>2010-07-18T14:31:26Z</time>
<desc>lat.=55.900307, lon.=26.529058, Alt.=119.651428m. Speed=0.252000m/h.</desc>
<speed>0.070000</speed>
</trkpt>
<trkpt lat="55.900303" lon="26.529051">
<ele>119.715881</ele>
<time>2010-07-18T14:31:27Z</time>
<desc>lat.=55.900303, lon.=26.529051, Alt.=119.715881m. Speed=0.144000m/h.</desc>
<speed>0.040000</speed>
</trkpt>
<trkpt lat="55.900303" lon="26.529051">
<ele>119.725647</ele>
<time>2010-07-18T14:31:28Z</time>
<desc>lat.=55.900303, lon.=26.529051, Alt.=119.725647m. Speed=0.216000m/h.</desc>
<speed>0.060000</speed>
</trkpt>
<trkpt lat="55.900303" lon="26.529051">
<ele>119.735413</ele>
<time>2010-07-18T14:31:29Z</time>
<desc>lat.=55.900303, lon.=26.529051, Alt.=119.735413m. Speed=0.216000m/h.</desc>
<speed>0.060000</speed>
</trkpt>
<trkpt lat="55.900307" lon="26.529051">
<ele>119.745178</ele>
<time>2010-07-18T14:31:30Z</time>
<desc>lat.=55.900307, lon.=26.529051, Alt.=119.745178m. Speed=0.432000m/h.</desc>
<speed>0.120000</speed>
</trkpt>
<trkpt lat="55.900307" lon="26.529049">
<ele>119.752991</ele>
<time>2010-07-18T14:31:31Z</time>
<desc>lat.=55.900307, lon.=26.529049, Alt.=119.752991m. Speed=0.576000m/h.</desc>
<speed>0.160000</speed>
</trkpt>
<trkpt lat="55.900307" lon="26.529051">
<ele>119.764709</ele>
<time>2010-07-18T14:31:32Z</time>
<desc>lat.=55.900307, lon.=26.529051, Alt.=119.764709m. Speed=0.792000m/h.</desc>
<speed>0.220000</speed>
</trkpt>
<trkpt lat="55.900311" lon="26.529051">
<ele>119.774475</ele>
<time>2010-07-18T14:31:33Z</time>
<desc>lat.=55.900311, lon.=26.529051, Alt.=119.774475m. Speed=0.396000m/h.</desc>
<speed>0.110000</speed>
</trkpt>
<trkpt lat="55.900311" lon="26.529051">
<ele>119.782288</ele>
<time>2010-07-18T14:31:34Z</time>
<desc>lat.=55.900311, lon.=26.529051, Alt.=119.782288m. Speed=0.396000m/h.</desc>
<speed>0.110000</speed>
</trkpt>
<trkpt lat="55.900311" lon="26.529053">
<ele>119.788147</ele>
<time>2010-07-18T14:31:35Z</time>
<desc>lat.=55.900311, lon.=26.529053, Alt.=119.788147m. Speed=0.360000m/h.</desc>
<speed>0.100000</speed>
</trkpt>
<trkpt lat="55.900311" lon="26.529055">
<ele>119.794006</ele>
<time>2010-07-18T14:31:36Z</time>
<desc>lat.=55.900311, lon.=26.529055, Alt.=119.794006m. Speed=0.576000m/h.</desc>
<speed>0.160000</speed>
</trkpt>
<trkpt lat="55.900311" lon="26.529057">
<ele>119.799866</ele>
<time>2010-07-18T14:31:37Z</time>
<desc>lat.=55.900311, lon.=26.529057, Alt.=119.799866m. Speed=0.108000m/h.</desc>
<speed>0.030000</speed>
</trkpt>
<trkpt lat="55.900311" lon="26.529057">
<ele>119.799866</ele>
<time>2010-07-18T14:31:38Z</time>
<desc>lat.=55.900311, lon.=26.529057, Alt.=119.799866m. Speed=0.180000m/h.</desc>
<speed>0.050000</speed>
</trkpt>
<trkpt lat="55.900311" lon="26.529057">
<ele>119.799866</ele>
<time>2010-07-18T14:31:39Z</time>
<desc>lat.=55.900311, lon.=26.529057, Alt.=119.799866m. Speed=0.360000m/h.</desc>
<speed>0.100000</speed>
</trkpt>
<trkpt lat="55.900311" lon="26.529057">
<ele>119.799866</ele>
<time>2010-07-18T14:31:40Z</time>
<desc>lat.=55.900311, lon.=26.529057, Alt.=119.799866m. Speed=0.684000m/h.</desc>
<speed>0.190000</speed>
</trkpt>
<trkpt lat="55.900311" lon="26.529057">
<ele>119.799866</ele>
<time>2010-07-18T14:31:41Z</time>
<desc>lat.=55.900311, lon.=26.529057, Alt.=119.799866m. Speed=0.504000m/h.</desc>
<speed>0.140000</speed>
</trkpt>
<trkpt lat="55.900314" lon="26.529058">
<ele>119.807678</ele>
<time>2010-07-18T14:31:42Z</time>
<desc>lat.=55.900314, lon.=26.529058, Alt.=119.807678m. Speed=0.288000m/h.</desc>
<speed>0.080000</speed>
</trkpt>
<trkpt lat="55.900311" lon="26.529058">
<ele>119.817444</ele>
<time>2010-07-18T14:31:43Z</time>
<desc>lat.=55.900311, lon.=26.529058, Alt.=119.817444m. Speed=0.684000m/h.</desc>
<speed>0.190000</speed>
</trkpt>
<trkpt lat="55.900311" lon="26.529062">
<ele>119.823303</ele>
<time>2010-07-18T14:31:44Z</time>
<desc>lat.=55.900311, lon.=26.529062, Alt.=119.823303m. Speed=0.864000m/h.</desc>
<speed>0.240000</speed>
</trkpt>
<trkpt lat="55.900311" lon="26.529066">
<ele>119.823303</ele>
<time>2010-07-18T14:31:45Z</time>
<desc>lat.=55.900311, lon.=26.529066, Alt.=119.823303m. Speed=0.900000m/h.</desc>
<speed>0.250000</speed>
</trkpt>
<trkpt lat="55.900307" lon="26.529068">
<ele>119.815491</ele>
<time>2010-07-18T14:31:46Z</time>
<desc>lat.=55.900307, lon.=26.529068, Alt.=119.815491m. Speed=1.116000m/h.</desc>
<speed>0.310000</speed>
</trkpt>
<trkpt lat="55.900303" lon="26.529068">
<ele>119.838928</ele>
<time>2010-07-18T14:31:47Z</time>
<desc>lat.=55.900303, lon.=26.529068, Alt.=119.838928m. Speed=1.152000m/h.</desc>
<speed>0.320000</speed>
</trkpt>
<trkpt lat="55.900303" lon="26.529066">
<ele>119.786194</ele>
<time>2010-07-18T14:31:48Z</time>
<desc>lat.=55.900303, lon.=26.529066, Alt.=119.786194m. Speed=0.648000m/h.</desc>
<speed>0.180000</speed>
</trkpt>
<trkpt lat="55.900307" lon="26.529062">
<ele>119.803772</ele>
<time>2010-07-18T14:31:49Z</time>
<desc>lat.=55.900307, lon.=26.529062, Alt.=119.803772m. Speed=0.288000m/h.</desc>
<speed>0.080000</speed>
</trkpt>
<trkpt lat="55.900303" lon="26.529066">
<ele>119.889709</ele>
<time>2010-07-18T14:31:50Z</time>
<desc>lat.=55.900303, lon.=26.529066, Alt.=119.889709m. Speed=0.504000m/h.</desc>
<speed>0.140000</speed>
</trkpt>
<trkpt lat="55.900307" lon="26.529070">
<ele>119.909241</ele>
<time>2010-07-18T14:31:51Z</time>
<desc>lat.=55.900307, lon.=26.529070, Alt.=119.909241m. Speed=0.036000m/h.</desc>
<speed>0.010000</speed>
</trkpt>
<trkpt lat="55.900307" lon="26.529070">
<ele>119.911194</ele>
<time>2010-07-18T14:31:52Z</time>
<desc>lat.=55.900307, lon.=26.529070, Alt.=119.911194m. Speed=0.432000m/h.</desc>
<speed>0.120000</speed>
</trkpt>
<trkpt lat="55.900307" lon="26.529068">
<ele>119.911194</ele>
<time>2010-07-18T14:31:53Z</time>
<desc>lat.=55.900307, lon.=26.529068, Alt.=119.911194m. Speed=0.540000m/h.</desc>
<speed>0.150000</speed>
</trkpt>
<trkpt lat="55.900307" lon="26.529066">
<ele>119.909241</ele>
<time>2010-07-18T14:31:54Z</time>
<desc>lat.=55.900307, lon.=26.529066, Alt.=119.909241m. Speed=0.432000m/h.</desc>
<speed>0.120000</speed>
</trkpt>
<trkpt lat="55.900307" lon="26.529064">
<ele>119.911194</ele>
<time>2010-07-18T14:31:55Z</time>
<desc>lat.=55.900307, lon.=26.529064, Alt.=119.911194m. Speed=0.576000m/h.</desc>
<speed>0.160000</speed>
</trkpt>
<trkpt lat="55.900307" lon="26.529062">
<ele>119.915100</ele>
<time>2010-07-18T14:31:56Z</time>
<desc>lat.=55.900307, lon.=26.529062, Alt.=119.915100m. Speed=0.576000m/h.</desc>
<speed>0.160000</speed>
</trkpt>
<trkpt lat="55.900307" lon="26.529058">
<ele>119.911194</ele>
<time>2010-07-18T14:31:57Z</time>
<desc>lat.=55.900307, lon.=26.529058, Alt.=119.911194m. Speed=0.756000m/h.</desc>
<speed>0.210000</speed>
</trkpt>
<trkpt lat="55.900307" lon="26.529057">
<ele>119.915100</ele>
<time>2010-07-18T14:31:58Z</time>
<desc>lat.=55.900307, lon.=26.529057, Alt.=119.915100m. Speed=0.684000m/h.</desc>
<speed>0.190000</speed>
</trkpt>
<trkpt lat="55.900311" lon="26.529053">
<ele>119.920959</ele>
<time>2010-07-18T14:31:59Z</time>
<desc>lat.=55.900311, lon.=26.529053, Alt.=119.920959m. Speed=0.108000m/h.</desc>
<speed>0.030000</speed>
</trkpt>
<trkpt lat="55.900311" lon="26.529053">
<ele>119.928772</ele>
<time>2010-07-18T14:32:00Z</time>
<desc>lat.=55.900311, lon.=26.529053, Alt.=119.928772m. Speed=0.540000m/h.</desc>
<speed>0.150000</speed>
</trkpt>
<trkpt lat="55.900307" lon="26.529055">
<ele>119.934631</ele>
<time>2010-07-18T14:32:01Z</time>
<desc>lat.=55.900307, lon.=26.529055, Alt.=119.934631m. Speed=0.828000m/h.</desc>
<speed>0.230000</speed>
</trkpt>
<trkpt lat="55.900307" lon="26.529058">
<ele>119.942444</ele>
<time>2010-07-18T14:32:02Z</time>
<desc>lat.=55.900307, lon.=26.529058, Alt.=119.942444m. Speed=0.540000m/h.</desc>
<speed>0.150000</speed>
</trkpt>
<trkpt lat="55.900307" lon="26.529062">
<ele>119.956116</ele>
<time>2010-07-18T14:32:03Z</time>
<desc>lat.=55.900307, lon.=26.529062, Alt.=119.956116m. Speed=0.864000m/h.</desc>
<speed>0.240000</speed>
</trkpt>
<trkpt lat="55.900307" lon="26.529064">
<ele>119.965881</ele>
<time>2010-07-18T14:32:04Z</time>
<desc>lat.=55.900307, lon.=26.529064, Alt.=119.965881m. Speed=0.468000m/h.</desc>
<speed>0.130000</speed>
</trkpt>
<trkpt lat="55.900307" lon="26.529064">
<ele>119.975647</ele>
<time>2010-07-18T14:32:05Z</time>
<desc>lat.=55.900307, lon.=26.529064, Alt.=119.975647m. Speed=0.216000m/h.</desc>
<speed>0.060000</speed>
</trkpt>
<trkpt lat="55.900307" lon="26.529064">
<ele>119.981506</ele>
<time>2010-07-18T14:32:06Z</time>
<desc>lat.=55.900307, lon.=26.529064, Alt.=119.981506m. Speed=0.684000m/h.</desc>
<speed>0.190000</speed>
</trkpt>
<trkpt lat="55.900303" lon="26.529060">
<ele>119.989319</ele>
<time>2010-07-18T14:32:07Z</time>
<desc>lat.=55.900303, lon.=26.529060, Alt.=119.989319m. Speed=0.576000m/h.</desc>
<speed>0.160000</speed>
</trkpt>
<trkpt lat="55.900303" lon="26.529058">
<ele>119.995178</ele>
<time>2010-07-18T14:32:08Z</time>
<desc>lat.=55.900303, lon.=26.529058, Alt.=119.995178m. Speed=0.612000m/h.</desc>
<speed>0.170000</speed>
</trkpt>
<trkpt lat="55.900303" lon="26.529057">
<ele>119.999084</ele>
<time>2010-07-18T14:32:09Z</time>
<desc>lat.=55.900303, lon.=26.529057, Alt.=119.999084m. Speed=0.576000m/h.</desc>
<speed>0.160000</speed>
</trkpt>
<trkpt lat="55.900303" lon="26.529055">
<ele>120.002991</ele>
<time>2010-07-18T14:32:10Z</time>
<desc>lat.=55.900303, lon.=26.529055, Alt.=120.002991m. Speed=0.180000m/h.</desc>
<speed>0.050000</speed>
</trkpt>
<trkpt lat="55.900307" lon="26.529055">
<ele>120.006897</ele>
<time>2010-07-18T14:32:11Z</time>
<desc>lat.=55.900307, lon.=26.529055, Alt.=120.006897m. Speed=0.144000m/h.</desc>
<speed>0.040000</speed>
</trkpt>
<trkpt lat="55.900303" lon="26.529055">
<ele>120.008850</ele>
<time>2010-07-18T14:32:12Z</time>
<desc>lat.=55.900303, lon.=26.529055, Alt.=120.008850m. Speed=0.324000m/h.</desc>
<speed>0.090000</speed>
</trkpt>
<trkpt lat="55.900303" lon="26.529057">
<ele>120.004944</ele>
<time>2010-07-18T14:32:13Z</time>
<desc>lat.=55.900303, lon.=26.529057, Alt.=120.004944m. Speed=0.828000m/h.</desc>
<speed>0.230000</speed>
</trkpt>
<trkpt lat="55.900303" lon="26.529058">
<ele>120.002991</ele>
<time>2010-07-18T14:32:14Z</time>
<desc>lat.=55.900303, lon.=26.529058, Alt.=120.002991m. Speed=0.468000m/h.</desc>
<speed>0.130000</speed>
</trkpt>
<trkpt lat="55.900303" lon="26.529060">
<ele>119.995178</ele>
<time>2010-07-18T14:32:15Z</time>
<desc>lat.=55.900303, lon.=26.529060, Alt.=119.995178m. Speed=0.324000m/h.</desc>
<speed>0.090000</speed>
</trkpt>
<trkpt lat="55.900299" lon="26.529060">
<ele>119.995178</ele>
<time>2010-07-18T14:32:16Z</time>
<desc>lat.=55.900299, lon.=26.529060, Alt.=119.995178m. Speed=0.648000m/h.</desc>
<speed>0.180000</speed>
</trkpt>
<trkpt lat="55.900299" lon="26.529062">
<ele>119.995178</ele>
<time>2010-07-18T14:32:17Z</time>
<desc>lat.=55.900299, lon.=26.529062, Alt.=119.995178m. Speed=0.756000m/h.</desc>
<speed>0.210000</speed>
</trkpt>
<trkpt lat="55.900299" lon="26.529064">
<ele>119.995178</ele>
<time>2010-07-18T14:32:18Z</time>
<desc>lat.=55.900299, lon.=26.529064, Alt.=119.995178m. Speed=0.216000m/h.</desc>
<speed>0.060000</speed>
</trkpt>
<trkpt lat="55.900295" lon="26.529064">
<ele>119.991272</ele>
<time>2010-07-18T14:32:19Z</time>
<desc>lat.=55.900295, lon.=26.529064, Alt.=119.991272m. Speed=0.720000m/h.</desc>
<speed>0.200000</speed>
</trkpt>
<trkpt lat="55.900295" lon="26.529064">
<ele>119.989319</ele>
<time>2010-07-18T14:32:20Z</time>
<desc>lat.=55.900295, lon.=26.529064, Alt.=119.989319m. Speed=0.612000m/h.</desc>
<speed>0.170000</speed>
</trkpt>
<trkpt lat="55.900295" lon="26.529066">
<ele>119.987366</ele>
<time>2010-07-18T14:32:21Z</time>
<desc>lat.=55.900295, lon.=26.529066, Alt.=119.987366m. Speed=0.324000m/h.</desc>
<speed>0.090000</speed>
</trkpt>
<trkpt lat="55.900291" lon="26.529064">
<ele>119.987366</ele>
<time>2010-07-18T14:32:22Z</time>
<desc>lat.=55.900291, lon.=26.529064, Alt.=119.987366m. Speed=0.108000m/h.</desc>
<speed>0.030000</speed>
</trkpt>
<trkpt lat="55.900291" lon="26.529064">
<ele>119.987366</ele>
<time>2010-07-18T14:32:23Z</time>
<desc>lat.=55.900291, lon.=26.529064, Alt.=119.987366m. Speed=0.252000m/h.</desc>
<speed>0.070000</speed>
</trkpt>
<trkpt lat="55.900295" lon="26.529064">
<ele>119.989319</ele>
<time>2010-07-18T14:32:24Z</time>
<desc>lat.=55.900295, lon.=26.529064, Alt.=119.989319m. Speed=0.288000m/h.</desc>
<speed>0.080000</speed>
</trkpt>
<trkpt lat="55.900295" lon="26.529062">
<ele>119.991272</ele>
<time>2010-07-18T14:32:25Z</time>
<desc>lat.=55.900295, lon.=26.529062, Alt.=119.991272m. Speed=0.432000m/h.</desc>
<speed>0.120000</speed>
</trkpt>
<trkpt lat="55.900295" lon="26.529062">
<ele>119.993225</ele>
<time>2010-07-18T14:32:26Z</time>
<desc>lat.=55.900295, lon.=26.529062, Alt.=119.993225m. Speed=0.144000m/h.</desc>
<speed>0.040000</speed>
</trkpt>
<trkpt lat="55.900295" lon="26.529060">
<ele>119.997131</ele>
<time>2010-07-18T14:32:27Z</time>
<desc>lat.=55.900295, lon.=26.529060, Alt.=119.997131m. Speed=1.260000m/h.</desc>
<speed>0.350000</speed>
</trkpt>
<trkpt lat="55.900299" lon="26.529053">
<ele>119.950256</ele>
<time>2010-07-18T14:32:28Z</time>
<desc>lat.=55.900299, lon.=26.529053, Alt.=119.950256m. Speed=1.332000m/h.</desc>
<speed>0.370000</speed>
</trkpt>
<trkpt lat="55.900299" lon="26.529047">
<ele>119.833069</ele>
<time>2010-07-18T14:32:29Z</time>
<desc>lat.=55.900299, lon.=26.529047, Alt.=119.833069m. Speed=0.864000m/h.</desc>
<speed>0.240000</speed>
</trkpt>
<trkpt lat="55.900299" lon="26.529041">
<ele>119.745178</ele>
<time>2010-07-18T14:32:30Z</time>
<desc>lat.=55.900299, lon.=26.529041, Alt.=119.745178m. Speed=0.756000m/h.</desc>
<speed>0.210000</speed>
</trkpt>
<trkpt lat="55.900303" lon="26.529043">
<ele>119.594788</ele>
<time>2010-07-18T14:32:31Z</time>
<desc>lat.=55.900303, lon.=26.529043, Alt.=119.594788m. Speed=1.008000m/h.</desc>
<speed>0.280000</speed>
</trkpt>
<trkpt lat="55.900303" lon="26.529034">
<ele>119.544006</ele>
<time>2010-07-18T14:32:32Z</time>
<desc>lat.=55.900303, lon.=26.529034, Alt.=119.544006m. Speed=0.576000m/h.</desc>
<speed>0.160000</speed>
</trkpt>
<trkpt lat="55.900303" lon="26.529032">
<ele>119.540100</ele>
<time>2010-07-18T14:32:33Z</time>
<desc>lat.=55.900303, lon.=26.529032, Alt.=119.540100m. Speed=0.396000m/h.</desc>
<speed>0.110000</speed>
</trkpt>
<trkpt lat="55.900299" lon="26.529030">
<ele>119.542053</ele>
<time>2010-07-18T14:32:34Z</time>
<desc>lat.=55.900299, lon.=26.529030, Alt.=119.542053m. Speed=0.612000m/h.</desc>
<speed>0.170000</speed>
</trkpt>
<trkpt lat="55.900299" lon="26.529028">
<ele>119.542053</ele>
<time>2010-07-18T14:32:35Z</time>
<desc>lat.=55.900299, lon.=26.529028, Alt.=119.542053m. Speed=0.108000m/h.</desc>
<speed>0.030000</speed>
</trkpt>
<trkpt lat="55.900299" lon="26.529028">
<ele>119.544006</ele>
<time>2010-07-18T14:32:36Z</time>
<desc>lat.=55.900299, lon.=26.529028, Alt.=119.544006m. Speed=0.396000m/h.</desc>
<speed>0.110000</speed>
</trkpt>
<trkpt lat="55.900299" lon="26.529030">
<ele>119.547913</ele>
<time>2010-07-18T14:32:37Z</time>
<desc>lat.=55.900299, lon.=26.529030, Alt.=119.547913m. Speed=0.252000m/h.</desc>
<speed>0.070000</speed>
</trkpt>
<trkpt lat="55.900299" lon="26.529028">
<ele>119.547913</ele>
<time>2010-07-18T14:32:38Z</time>
<desc>lat.=55.900299, lon.=26.529028, Alt.=119.547913m. Speed=0.720000m/h.</desc>
<speed>0.200000</speed>
</trkpt>
<trkpt lat="55.900299" lon="26.529026">
<ele>119.547913</ele>
<time>2010-07-18T14:32:39Z</time>
<desc>lat.=55.900299, lon.=26.529026, Alt.=119.547913m. Speed=0.720000m/h.</desc>
<speed>0.200000</speed>
</trkpt>
<trkpt lat="55.900295" lon="26.529024">
<ele>119.547913</ele>
<time>2010-07-18T14:32:40Z</time>
<desc>lat.=55.900295, lon.=26.529024, Alt.=119.547913m. Speed=0.216000m/h.</desc>
<speed>0.060000</speed>
</trkpt>
<trkpt lat="55.900295" lon="26.529024">
<ele>119.547913</ele>
<time>2010-07-18T14:32:41Z</time>
<desc>lat.=55.900295, lon.=26.529024, Alt.=119.547913m. Speed=0.000000m/h.</desc>
<speed>0.000000</speed>
</trkpt>
<trkpt lat="55.900295" lon="26.529024">
<ele>119.544006</ele>
<time>2010-07-18T14:32:42Z</time>
<desc>lat.=55.900295, lon.=26.529024, Alt.=119.544006m. Speed=0.324000m/h.</desc>
<speed>0.090000</speed>
</trkpt>
<trkpt lat="55.900295" lon="26.529024">
<ele>119.538147</ele>
<time>2010-07-18T14:32:43Z</time>
<desc>lat.=55.900295, lon.=26.529024, Alt.=119.538147m. Speed=0.324000m/h.</desc>
<speed>0.090000</speed>
</trkpt>
<trkpt lat="55.900299" lon="26.529024">
<ele>119.534241</ele>
<time>2010-07-18T14:32:44Z</time>
<desc>lat.=55.900299, lon.=26.529024, Alt.=119.534241m. Speed=0.432000m/h.</desc>
<speed>0.120000</speed>
</trkpt>
<trkpt lat="55.900299" lon="26.529022">
<ele>119.530334</ele>
<time>2010-07-18T14:32:45Z</time>
<desc>lat.=55.900299, lon.=26.529022, Alt.=119.530334m. Speed=0.504000m/h.</desc>
<speed>0.140000</speed>
</trkpt>
<trkpt lat="55.900299" lon="26.529022">
<ele>119.522522</ele>
<time>2010-07-18T14:32:46Z</time>
<desc>lat.=55.900299, lon.=26.529022, Alt.=119.522522m. Speed=0.216000m/h.</desc>
<speed>0.060000</speed>
</trkpt>
<trkpt lat="55.900299" lon="26.529022">
<ele>119.520569</ele>
<time>2010-07-18T14:32:47Z</time>
<desc>lat.=55.900299, lon.=26.529022, Alt.=119.520569m. Speed=0.108000m/h.</desc>
<speed>0.030000</speed>
</trkpt>
<trkpt lat="55.900299" lon="26.529024">
<ele>119.516663</ele>
<time>2010-07-18T14:32:48Z</time>
<desc>lat.=55.900299, lon.=26.529024, Alt.=119.516663m. Speed=0.180000m/h.</desc>
<speed>0.050000</speed>
</trkpt>
<trkpt lat="55.900299" lon="26.529024">
<ele>119.510803</ele>
<time>2010-07-18T14:32:49Z</time>
<desc>lat.=55.900299, lon.=26.529024, Alt.=119.510803m. Speed=0.576000m/h.</desc>
<speed>0.160000</speed>
</trkpt>
<trkpt lat="55.900299" lon="26.529026">
<ele>119.508850</ele>
<time>2010-07-18T14:32:50Z</time>
<desc>lat.=55.900299, lon.=26.529026, Alt.=119.508850m. Speed=0.684000m/h.</desc>
<speed>0.190000</speed>
</trkpt>
<trkpt lat="55.900295" lon="26.529028">
<ele>119.506897</ele>
<time>2010-07-18T14:32:51Z</time>
<desc>lat.=55.900295, lon.=26.529028, Alt.=119.506897m. Speed=1.152000m/h.</desc>
<speed>0.320000</speed>
</trkpt>
<trkpt lat="55.900295" lon="26.529034">
<ele>119.620178</ele>
<time>2010-07-18T14:32:52Z</time>
<desc>lat.=55.900295, lon.=26.529034, Alt.=119.620178m. Speed=0.324000m/h.</desc>
<speed>0.090000</speed>
</trkpt>
<trkpt lat="55.900295" lon="26.529036">
<ele>119.583069</ele>
<time>2010-07-18T14:32:53Z</time>
<desc>lat.=55.900295, lon.=26.529036, Alt.=119.583069m. Speed=0.396000m/h.</desc>
<speed>0.110000</speed>
</trkpt>
<trkpt lat="55.900295" lon="26.529045">
<ele>119.526428</ele>
<time>2010-07-18T14:32:54Z</time>
<desc>lat.=55.900295, lon.=26.529045, Alt.=119.526428m. Speed=0.900000m/h.</desc>
<speed>0.250000</speed>
</trkpt>
<trkpt lat="55.900288" lon="26.529047">
<ele>119.516663</ele>
<time>2010-07-18T14:32:55Z</time>
<desc>lat.=55.900288, lon.=26.529047, Alt.=119.516663m. Speed=1.044000m/h.</desc>
<speed>0.290000</speed>
</trkpt>
<trkpt lat="55.900288" lon="26.529051">
<ele>119.516663</ele>
<time>2010-07-18T14:32:56Z</time>
<desc>lat.=55.900288, lon.=26.529051, Alt.=119.516663m. Speed=0.828000m/h.</desc>
<speed>0.230000</speed>
</trkpt>
<trkpt lat="55.900288" lon="26.529053">
<ele>119.518616</ele>
<time>2010-07-18T14:32:57Z</time>
<desc>lat.=55.900288, lon.=26.529053, Alt.=119.518616m. Speed=0.648000m/h.</desc>
<speed>0.180000</speed>
</trkpt>
<trkpt lat="55.900284" lon="26.529055">
<ele>119.520569</ele>
<time>2010-07-18T14:32:58Z</time>
<desc>lat.=55.900284, lon.=26.529055, Alt.=119.520569m. Speed=1.152000m/h.</desc>
<speed>0.320000</speed>
</trkpt>
<trkpt lat="55.900280" lon="26.529068">
<ele>119.483459</ele>
<time>2010-07-18T14:32:59Z</time>
<desc>lat.=55.900280, lon.=26.529068, Alt.=119.483459m. Speed=1.404000m/h.</desc>
<speed>0.390000</speed>
</trkpt>
<trkpt lat="55.900284" lon="26.529072">
<ele>119.530334</ele>
<time>2010-07-18T14:33:00Z</time>
<desc>lat.=55.900284, lon.=26.529072, Alt.=119.530334m. Speed=0.360000m/h.</desc>
<speed>0.100000</speed>
</trkpt>
<trkpt lat="55.900284" lon="26.529076">
<ele>119.559631</ele>
<time>2010-07-18T14:33:01Z</time>
<desc>lat.=55.900284, lon.=26.529076, Alt.=119.559631m. Speed=0.108000m/h.</desc>
<speed>0.030000</speed>
</trkpt>
<trkpt lat="55.900284" lon="26.529078">
<ele>119.626038</ele>
<time>2010-07-18T14:33:02Z</time>
<desc>lat.=55.900284, lon.=26.529078, Alt.=119.626038m. Speed=0.072000m/h.</desc>
<speed>0.020000</speed>
</trkpt>
<trkpt lat="55.900284" lon="26.529089">
<ele>119.624084</ele>
<time>2010-07-18T14:33:03Z</time>
<desc>lat.=55.900284, lon.=26.529089, Alt.=119.624084m. Speed=0.360000m/h.</desc>
<speed>0.100000</speed>
</trkpt>
<trkpt lat="55.900284" lon="26.529091">
<ele>119.626038</ele>
<time>2010-07-18T14:33:04Z</time>
<desc>lat.=55.900284, lon.=26.529091, Alt.=119.626038m. Speed=0.576000m/h.</desc>
<speed>0.160000</speed>
</trkpt>
<trkpt lat="55.900284" lon="26.529093">
<ele>119.627991</ele>
<time>2010-07-18T14:33:05Z</time>
<desc>lat.=55.900284, lon.=26.529093, Alt.=119.627991m. Speed=0.900000m/h.</desc>
<speed>0.250000</speed>
</trkpt>
<trkpt lat="55.900284" lon="26.529097">
<ele>119.631897</ele>
<time>2010-07-18T14:33:06Z</time>
<desc>lat.=55.900284, lon.=26.529097, Alt.=119.631897m. Speed=0.360000m/h.</desc>
<speed>0.100000</speed>
</trkpt>
<trkpt lat="55.900284" lon="26.529097">
<ele>119.635803</ele>
<time>2010-07-18T14:33:07Z</time>
<desc>lat.=55.900284, lon.=26.529097, Alt.=119.635803m. Speed=0.288000m/h.</desc>
<speed>0.080000</speed>
</trkpt>
<trkpt lat="55.900284" lon="26.529097">
<ele>119.639709</ele>
<time>2010-07-18T14:33:08Z</time>
<desc>lat.=55.900284, lon.=26.529097, Alt.=119.639709m. Speed=0.468000m/h.</desc>
<speed>0.130000</speed>
</trkpt>
<trkpt lat="55.900284" lon="26.529099">
<ele>119.641663</ele>
<time>2010-07-18T14:33:09Z</time>
<desc>lat.=55.900284, lon.=26.529099, Alt.=119.641663m. Speed=0.144000m/h.</desc>
<speed>0.040000</speed>
</trkpt>
<trkpt lat="55.900284" lon="26.529099">
<ele>119.643616</ele>
<time>2010-07-18T14:33:10Z</time>
<desc>lat.=55.900284, lon.=26.529099, Alt.=119.643616m. Speed=0.108000m/h.</desc>
<speed>0.030000</speed>
</trkpt>
<trkpt lat="55.900284" lon="26.529100">
<ele>119.645569</ele>
<time>2010-07-18T14:33:11Z</time>
<desc>lat.=55.900284, lon.=26.529100, Alt.=119.645569m. Speed=0.180000m/h.</desc>
<speed>0.050000</speed>
</trkpt>
<trkpt lat="55.900284" lon="26.529100">
<ele>119.643616</ele>
<time>2010-07-18T14:33:12Z</time>
<desc>lat.=55.900284, lon.=26.529100, Alt.=119.643616m. Speed=0.396000m/h.</desc>
<speed>0.110000</speed>
</trkpt>
<trkpt lat="55.900288" lon="26.529102">
<ele>119.641663</ele>
<time>2010-07-18T14:33:13Z</time>
<desc>lat.=55.900288, lon.=26.529102, Alt.=119.641663m. Speed=0.576000m/h.</desc>
<speed>0.160000</speed>
</trkpt>
<trkpt lat="55.900288" lon="26.529104">
<ele>119.643616</ele>
<time>2010-07-18T14:33:14Z</time>
<desc>lat.=55.900288, lon.=26.529104, Alt.=119.643616m. Speed=0.036000m/h.</desc>
<speed>0.010000</speed>
</trkpt>
<trkpt lat="55.900288" lon="26.529104">
<ele>119.643616</ele>
<time>2010-07-18T14:33:15Z</time>
<desc>lat.=55.900288, lon.=26.529104, Alt.=119.643616m. Speed=0.360000m/h.</desc>
<speed>0.100000</speed>
</trkpt>
<trkpt lat="55.900284" lon="26.529104">
<ele>119.641663</ele>
<time>2010-07-18T14:33:16Z</time>
<desc>lat.=55.900284, lon.=26.529104, Alt.=119.641663m. Speed=0.684000m/h.</desc>
<speed>0.190000</speed>
</trkpt>
<trkpt lat="55.900284" lon="26.529108">
<ele>119.641663</ele>
<time>2010-07-18T14:33:17Z</time>
<desc>lat.=55.900284, lon.=26.529108, Alt.=119.641663m. Speed=0.648000m/h.</desc>
<speed>0.180000</speed>
</trkpt>
<trkpt lat="55.900284" lon="26.529110">
<ele>119.643616</ele>
<time>2010-07-18T14:33:18Z</time>
<desc>lat.=55.900284, lon.=26.529110, Alt.=119.643616m. Speed=0.792000m/h.</desc>
<speed>0.220000</speed>
</trkpt>
<trkpt lat="55.900284" lon="26.529114">
<ele>119.641663</ele>
<time>2010-07-18T14:33:19Z</time>
<desc>lat.=55.900284, lon.=26.529114, Alt.=119.641663m. Speed=0.828000m/h.</desc>
<speed>0.230000</speed>
</trkpt>
<trkpt lat="55.900284" lon="26.529118">
<ele>119.641663</ele>
<time>2010-07-18T14:33:20Z</time>
<desc>lat.=55.900284, lon.=26.529118, Alt.=119.641663m. Speed=0.648000m/h.</desc>
<speed>0.180000</speed>
</trkpt>
<trkpt lat="55.900284" lon="26.529119">
<ele>119.639709</ele>
<time>2010-07-18T14:33:21Z</time>
<desc>lat.=55.900284, lon.=26.529119, Alt.=119.639709m. Speed=0.468000m/h.</desc>
<speed>0.130000</speed>
</trkpt>
<trkpt lat="55.900288" lon="26.529121">
<ele>119.637756</ele>
<time>2010-07-18T14:33:22Z</time>
<desc>lat.=55.900288, lon.=26.529121, Alt.=119.637756m. Speed=0.648000m/h.</desc>
<speed>0.180000</speed>
</trkpt>
<trkpt lat="55.900288" lon="26.529121">
<ele>119.635803</ele>
<time>2010-07-18T14:33:23Z</time>
<desc>lat.=55.900288, lon.=26.529121, Alt.=119.635803m. Speed=0.504000m/h.</desc>
<speed>0.140000</speed>
</trkpt>
<trkpt lat="55.900288" lon="26.529121">
<ele>119.633850</ele>
<time>2010-07-18T14:33:24Z</time>
<desc>lat.=55.900288, lon.=26.529121, Alt.=119.633850m. Speed=0.324000m/h.</desc>
<speed>0.090000</speed>
</trkpt>
<trkpt lat="55.900291" lon="26.529121">
<ele>119.631897</ele>
<time>2010-07-18T14:33:25Z</time>
<desc>lat.=55.900291, lon.=26.529121, Alt.=119.631897m. Speed=0.000000m/h.</desc>
<speed>0.000000</speed>
</trkpt>
<trkpt lat="55.900291" lon="26.529121">
<ele>119.629944</ele>
<time>2010-07-18T14:33:26Z</time>
<desc>lat.=55.900291, lon.=26.529121, Alt.=119.629944m. Speed=0.396000m/h.</desc>
<speed>0.110000</speed>
</trkpt>
<trkpt lat="55.900291" lon="26.529121">
<ele>119.633850</ele>
<time>2010-07-18T14:33:27Z</time>
<desc>lat.=55.900291, lon.=26.529121, Alt.=119.633850m. Speed=0.684000m/h.</desc>
<speed>0.190000</speed>
</trkpt>
<trkpt lat="55.900291" lon="26.529125">
<ele>119.631897</ele>
<time>2010-07-18T14:33:28Z</time>
<desc>lat.=55.900291, lon.=26.529125, Alt.=119.631897m. Speed=1.044000m/h.</desc>
<speed>0.290000</speed>
</trkpt>
<trkpt lat="55.900295" lon="26.529125">
<ele>119.627991</ele>
<time>2010-07-18T14:33:29Z</time>
<desc>lat.=55.900295, lon.=26.529125, Alt.=119.627991m. Speed=0.792000m/h.</desc>
<speed>0.220000</speed>
</trkpt>
<trkpt lat="55.900295" lon="26.529125">
<ele>119.622131</ele>
<time>2010-07-18T14:33:30Z</time>
<desc>lat.=55.900295, lon.=26.529125, Alt.=119.622131m. Speed=1.008000m/h.</desc>
<speed>0.280000</speed>
</trkpt>
<trkpt lat="55.900299" lon="26.529125">
<ele>119.614319</ele>
<time>2010-07-18T14:33:31Z</time>
<desc>lat.=55.900299, lon.=26.529125, Alt.=119.614319m. Speed=0.900000m/h.</desc>
<speed>0.250000</speed>
</trkpt>
<trkpt lat="55.900299" lon="26.529123">
<ele>119.604553</ele>
<time>2010-07-18T14:33:32Z</time>
<desc>lat.=55.900299, lon.=26.529123, Alt.=119.604553m. Speed=0.900000m/h.</desc>
<speed>0.250000</speed>
</trkpt>
<trkpt lat="55.900303" lon="26.529123">
<ele>119.594788</ele>
<time>2010-07-18T14:33:33Z</time>
<desc>lat.=55.900303, lon.=26.529123, Alt.=119.594788m. Speed=0.324000m/h.</desc>
<speed>0.090000</speed>
</trkpt>
<trkpt lat="55.900303" lon="26.529123">
<ele>119.583069</ele>
<time>2010-07-18T14:33:34Z</time>
<desc>lat.=55.900303, lon.=26.529123, Alt.=119.583069m. Speed=0.144000m/h.</desc>
<speed>0.040000</speed>
</trkpt>
<trkpt lat="55.900303" lon="26.529121">
<ele>119.569397</ele>
<time>2010-07-18T14:33:35Z</time>
<desc>lat.=55.900303, lon.=26.529121, Alt.=119.569397m. Speed=0.180000m/h.</desc>
<speed>0.050000</speed>
</trkpt>
<trkpt lat="55.900303" lon="26.529121">
<ele>119.553772</ele>
<time>2010-07-18T14:33:36Z</time>
<desc>lat.=55.900303, lon.=26.529121, Alt.=119.553772m. Speed=0.504000m/h.</desc>
<speed>0.140000</speed>
</trkpt>
<trkpt lat="55.900303" lon="26.529119">
<ele>119.542053</ele>
<time>2010-07-18T14:33:37Z</time>
<desc>lat.=55.900303, lon.=26.529119, Alt.=119.542053m. Speed=0.360000m/h.</desc>
<speed>0.100000</speed>
</trkpt>
<trkpt lat="55.900303" lon="26.529118">
<ele>119.536194</ele>
<time>2010-07-18T14:33:38Z</time>
<desc>lat.=55.900303, lon.=26.529118, Alt.=119.536194m. Speed=0.108000m/h.</desc>
<speed>0.030000</speed>
</trkpt>
<trkpt lat="55.900303" lon="26.529118">
<ele>119.534241</ele>
<time>2010-07-18T14:33:39Z</time>
<desc>lat.=55.900303, lon.=26.529118, Alt.=119.534241m. Speed=0.432000m/h.</desc>
<speed>0.120000</speed>
</trkpt>
<trkpt lat="55.900303" lon="26.529118">
<ele>119.532288</ele>
<time>2010-07-18T14:33:40Z</time>
<desc>lat.=55.900303, lon.=26.529118, Alt.=119.532288m. Speed=0.468000m/h.</desc>
<speed>0.130000</speed>
</trkpt>
<trkpt lat="55.900299" lon="26.529118">
<ele>119.532288</ele>
<time>2010-07-18T14:33:41Z</time>
<desc>lat.=55.900299, lon.=26.529118, Alt.=119.532288m. Speed=1.224000m/h.</desc>
<speed>0.340000</speed>
</trkpt>
<trkpt lat="55.900299" lon="26.529110">
<ele>119.479553</ele>
<time>2010-07-18T14:33:42Z</time>
<desc>lat.=55.900299, lon.=26.529110, Alt.=119.479553m. Speed=0.684000m/h.</desc>
<speed>0.190000</speed>
</trkpt>
<trkpt lat="55.900295" lon="26.529106">
<ele>119.606506</ele>
<time>2010-07-18T14:33:43Z</time>
<desc>lat.=55.900295, lon.=26.529106, Alt.=119.606506m. Speed=0.540000m/h.</desc>
<speed>0.150000</speed>
</trkpt>
<trkpt lat="55.900295" lon="26.529100">
<ele>119.663147</ele>
<time>2010-07-18T14:33:44Z</time>
<desc>lat.=55.900295, lon.=26.529100, Alt.=119.663147m. Speed=0.684000m/h.</desc>
<speed>0.190000</speed>
</trkpt>
<trkpt lat="55.900291" lon="26.529099">
<ele>119.647522</ele>
<time>2010-07-18T14:33:45Z</time>
<desc>lat.=55.900291, lon.=26.529099, Alt.=119.647522m. Speed=0.396000m/h.</desc>
<speed>0.110000</speed>
</trkpt>
<trkpt lat="55.900291" lon="26.529100">
<ele>119.649475</ele>
<time>2010-07-18T14:33:46Z</time>
<desc>lat.=55.900291, lon.=26.529100, Alt.=119.649475m. Speed=0.324000m/h.</desc>
<speed>0.090000</speed>
</trkpt>
<trkpt lat="55.900288" lon="26.529100">
<ele>119.647522</ele>
<time>2010-07-18T14:33:47Z</time>
<desc>lat.=55.900288, lon.=26.529100, Alt.=119.647522m. Speed=0.252000m/h.</desc>
<speed>0.070000</speed>
</trkpt>
<trkpt lat="55.900288" lon="26.529102">
<ele>119.645569</ele>
<time>2010-07-18T14:33:48Z</time>
<desc>lat.=55.900288, lon.=26.529102, Alt.=119.645569m. Speed=0.540000m/h.</desc>
<speed>0.150000</speed>
</trkpt>
<trkpt lat="55.900288" lon="26.529104">
<ele>119.641663</ele>
<time>2010-07-18T14:33:49Z</time>
<desc>lat.=55.900288, lon.=26.529104, Alt.=119.641663m. Speed=0.288000m/h.</desc>
<speed>0.080000</speed>
</trkpt>
<trkpt lat="55.900288" lon="26.529104">
<ele>119.635803</ele>
<time>2010-07-18T14:33:50Z</time>
<desc>lat.=55.900288, lon.=26.529104, Alt.=119.635803m. Speed=0.324000m/h.</desc>
<speed>0.090000</speed>
</trkpt>
<trkpt lat="55.900288" lon="26.529106">
<ele>119.633850</ele>
<time>2010-07-18T14:33:51Z</time>
<desc>lat.=55.900288, lon.=26.529106, Alt.=119.633850m. Speed=0.684000m/h.</desc>
<speed>0.190000</speed>
</trkpt>
<trkpt lat="55.900288" lon="26.529108">
<ele>119.633850</ele>
<time>2010-07-18T14:33:52Z</time>
<desc>lat.=55.900288, lon.=26.529108, Alt.=119.633850m. Speed=0.828000m/h.</desc>
<speed>0.230000</speed>
</trkpt>
<trkpt lat="55.900284" lon="26.529110">
<ele>119.635803</ele>
<time>2010-07-18T14:33:53Z</time>
<desc>lat.=55.900284, lon.=26.529110, Alt.=119.635803m. Speed=0.828000m/h.</desc>
<speed>0.230000</speed>
</trkpt>
<trkpt lat="55.900280" lon="26.529112">
<ele>119.635803</ele>
<time>2010-07-18T14:33:54Z</time>
<desc>lat.=55.900280, lon.=26.529112, Alt.=119.635803m. Speed=0.288000m/h.</desc>
<speed>0.080000</speed>
</trkpt>
<trkpt lat="55.900280" lon="26.529112">
<ele>119.635803</ele>
<time>2010-07-18T14:33:55Z</time>
<desc>lat.=55.900280, lon.=26.529112, Alt.=119.635803m. Speed=0.144000m/h.</desc>
<speed>0.040000</speed>
</trkpt>
<trkpt lat="55.900280" lon="26.529112">
<ele>119.637756</ele>
<time>2010-07-18T14:33:56Z</time>
<desc>lat.=55.900280, lon.=26.529112, Alt.=119.637756m. Speed=0.396000m/h.</desc>
<speed>0.110000</speed>
</trkpt>
<trkpt lat="55.900280" lon="26.529114">
<ele>119.637756</ele>
<time>2010-07-18T14:33:57Z</time>
<desc>lat.=55.900280, lon.=26.529114, Alt.=119.637756m. Speed=0.288000m/h.</desc>
<speed>0.080000</speed>
</trkpt>
<trkpt lat="55.900280" lon="26.529116">
<ele>119.637756</ele>
<time>2010-07-18T14:33:58Z</time>
<desc>lat.=55.900280, lon.=26.529116, Alt.=119.637756m. Speed=0.252000m/h.</desc>
<speed>0.070000</speed>
</trkpt>
<trkpt lat="55.900280" lon="26.529116">
<ele>119.637756</ele>
<time>2010-07-18T14:33:59Z</time>
<desc>lat.=55.900280, lon.=26.529116, Alt.=119.637756m. Speed=0.324000m/h.</desc>
<speed>0.090000</speed>
</trkpt>
<trkpt lat="55.900280" lon="26.529116">
<ele>119.639709</ele>
<time>2010-07-18T14:34:00Z</time>
<desc>lat.=55.900280, lon.=26.529116, Alt.=119.639709m. Speed=0.432000m/h.</desc>
<speed>0.120000</speed>
</trkpt>
<trkpt lat="55.900280" lon="26.529114">
<ele>119.643616</ele>
<time>2010-07-18T14:34:01Z</time>
<desc>lat.=55.900280, lon.=26.529114, Alt.=119.643616m. Speed=0.540000m/h.</desc>
<speed>0.150000</speed>
</trkpt>
<trkpt lat="55.900280" lon="26.529112">
<ele>119.643616</ele>
<time>2010-07-18T14:34:02Z</time>
<desc>lat.=55.900280, lon.=26.529112, Alt.=119.643616m. Speed=0.540000m/h.</desc>
<speed>0.150000</speed>
</trkpt>
<trkpt lat="55.900280" lon="26.529108">
<ele>119.643616</ele>
<time>2010-07-18T14:34:03Z</time>
<desc>lat.=55.900280, lon.=26.529108, Alt.=119.643616m. Speed=0.576000m/h.</desc>
<speed>0.160000</speed>
</trkpt>
<trkpt lat="55.900280" lon="26.529106">
<ele>119.643616</ele>
<time>2010-07-18T14:34:04Z</time>
<desc>lat.=55.900280, lon.=26.529106, Alt.=119.643616m. Speed=0.540000m/h.</desc>
<speed>0.150000</speed>
</trkpt>
<trkpt lat="55.900280" lon="26.529104">
<ele>119.641663</ele>
<time>2010-07-18T14:34:05Z</time>
<desc>lat.=55.900280, lon.=26.529104, Alt.=119.641663m. Speed=0.360000m/h.</desc>
<speed>0.100000</speed>
</trkpt>
<trkpt lat="55.900280" lon="26.529102">
<ele>119.639709</ele>
<time>2010-07-18T14:34:06Z</time>
<desc>lat.=55.900280, lon.=26.529102, Alt.=119.639709m. Speed=0.324000m/h.</desc>
<speed>0.090000</speed>
</trkpt>
<trkpt lat="55.900280" lon="26.529100">
<ele>119.629944</ele>
<time>2010-07-18T14:34:07Z</time>
<desc>lat.=55.900280, lon.=26.529100, Alt.=119.629944m. Speed=0.180000m/h.</desc>
<speed>0.050000</speed>
</trkpt>
<trkpt lat="55.900280" lon="26.529102">
<ele>119.622131</ele>
<time>2010-07-18T14:34:08Z</time>
<desc>lat.=55.900280, lon.=26.529102, Alt.=119.622131m. Speed=0.432000m/h.</desc>
<speed>0.120000</speed>
</trkpt>
<trkpt lat="55.900280" lon="26.529104">
<ele>119.616272</ele>
<time>2010-07-18T14:34:09Z</time>
<desc>lat.=55.900280, lon.=26.529104, Alt.=119.616272m. Speed=0.576000m/h.</desc>
<speed>0.160000</speed>
</trkpt>
<trkpt lat="55.900280" lon="26.529106">
<ele>119.610413</ele>
<time>2010-07-18T14:34:10Z</time>
<desc>lat.=55.900280, lon.=26.529106, Alt.=119.610413m. Speed=1.332000m/h.</desc>
<speed>0.370000</speed>
</trkpt>
<trkpt lat="55.900280" lon="26.529106">
<ele>119.420959</ele>
<time>2010-07-18T14:34:11Z</time>
<desc>lat.=55.900280, lon.=26.529106, Alt.=119.420959m. Speed=0.360000m/h.</desc>
<speed>0.100000</speed>
</trkpt>
<trkpt lat="55.900280" lon="26.529104">
<ele>119.038147</ele>
<time>2010-07-18T14:34:12Z</time>
<desc>lat.=55.900280, lon.=26.529104, Alt.=119.038147m. Speed=0.324000m/h.</desc>
<speed>0.090000</speed>
</trkpt>
<trkpt lat="55.900280" lon="26.529104">
<ele>118.665100</ele>
<time>2010-07-18T14:34:13Z</time>
<desc>lat.=55.900280, lon.=26.529104, Alt.=118.665100m. Speed=0.324000m/h.</desc>
<speed>0.090000</speed>
</trkpt>
<trkpt lat="55.900284" lon="26.529097">
<ele>118.335022</ele>
<time>2010-07-18T14:34:14Z</time>
<desc>lat.=55.900284, lon.=26.529097, Alt.=118.335022m. Speed=1.044000m/h.</desc>
<speed>0.290000</speed>
</trkpt>
<trkpt lat="55.900288" lon="26.529095">
<ele>118.321350</ele>
<time>2010-07-18T14:34:15Z</time>
<desc>lat.=55.900288, lon.=26.529095, Alt.=118.321350m. Speed=0.792000m/h.</desc>
<speed>0.220000</speed>
</trkpt>
<trkpt lat="55.900288" lon="26.529097">
<ele>118.299866</ele>
<time>2010-07-18T14:34:16Z</time>
<desc>lat.=55.900288, lon.=26.529097, Alt.=118.299866m. Speed=0.576000m/h.</desc>
<speed>0.160000</speed>
</trkpt>
<trkpt lat="55.900288" lon="26.529100">
<ele>118.280334</ele>
<time>2010-07-18T14:34:17Z</time>
<desc>lat.=55.900288, lon.=26.529100, Alt.=118.280334m. Speed=0.468000m/h.</desc>
<speed>0.130000</speed>
</trkpt>
<trkpt lat="55.900288" lon="26.529100">
<ele>118.264709</ele>
<time>2010-07-18T14:34:18Z</time>
<desc>lat.=55.900288, lon.=26.529100, Alt.=118.264709m. Speed=0.576000m/h.</desc>
<speed>0.160000</speed>
</trkpt>
<trkpt lat="55.900291" lon="26.529104">
<ele>118.247131</ele>
<time>2010-07-18T14:34:19Z</time>
<desc>lat.=55.900291, lon.=26.529104, Alt.=118.247131m. Speed=0.468000m/h.</desc>
<speed>0.130000</speed>
</trkpt>
<trkpt lat="55.900291" lon="26.529106">
<ele>118.233459</ele>
<time>2010-07-18T14:34:20Z</time>
<desc>lat.=55.900291, lon.=26.529106, Alt.=118.233459m. Speed=0.252000m/h.</desc>
<speed>0.070000</speed>
</trkpt>
<trkpt lat="55.900291" lon="26.529106">
<ele>118.219788</ele>
<time>2010-07-18T14:34:21Z</time>
<desc>lat.=55.900291, lon.=26.529106, Alt.=118.219788m. Speed=0.504000m/h.</desc>
<speed>0.140000</speed>
</trkpt>
<trkpt lat="55.900291" lon="26.529110">
<ele>118.206116</ele>
<time>2010-07-18T14:34:22Z</time>
<desc>lat.=55.900291, lon.=26.529110, Alt.=118.206116m. Speed=0.576000m/h.</desc>
<speed>0.160000</speed>
</trkpt>
<trkpt lat="55.900291" lon="26.529112">
<ele>118.192444</ele>
<time>2010-07-18T14:34:23Z</time>
<desc>lat.=55.900291, lon.=26.529112, Alt.=118.192444m. Speed=0.432000m/h.</desc>
<speed>0.120000</speed>
</trkpt>
<trkpt lat="55.900291" lon="26.529114">
<ele>118.184631</ele>
<time>2010-07-18T14:34:24Z</time>
<desc>lat.=55.900291, lon.=26.529114, Alt.=118.184631m. Speed=0.540000m/h.</desc>
<speed>0.150000</speed>
</trkpt>
<trkpt lat="55.900291" lon="26.529116">
<ele>118.172913</ele>
<time>2010-07-18T14:34:25Z</time>
<desc>lat.=55.900291, lon.=26.529116, Alt.=118.172913m. Speed=0.792000m/h.</desc>
<speed>0.220000</speed>
</trkpt>
<trkpt lat="55.900295" lon="26.529118">
<ele>118.167053</ele>
<time>2010-07-18T14:34:26Z</time>
<desc>lat.=55.900295, lon.=26.529118, Alt.=118.167053m. Speed=0.576000m/h.</desc>
<speed>0.160000</speed>
</trkpt>
<trkpt lat="55.900295" lon="26.529119">
<ele>118.165100</ele>
<time>2010-07-18T14:34:27Z</time>
<desc>lat.=55.900295, lon.=26.529119, Alt.=118.165100m. Speed=0.648000m/h.</desc>
<speed>0.180000</speed>
</trkpt>
<trkpt lat="55.900295" lon="26.529123">
<ele>118.161194</ele>
<time>2010-07-18T14:34:28Z</time>
<desc>lat.=55.900295, lon.=26.529123, Alt.=118.161194m. Speed=0.576000m/h.</desc>
<speed>0.160000</speed>
</trkpt>
<trkpt lat="55.900295" lon="26.529125">
<ele>118.153381</ele>
<time>2010-07-18T14:34:29Z</time>
<desc>lat.=55.900295, lon.=26.529125, Alt.=118.153381m. Speed=0.648000m/h.</desc>
<speed>0.180000</speed>
</trkpt>
<trkpt lat="55.900295" lon="26.529129">
<ele>118.145569</ele>
<time>2010-07-18T14:34:30Z</time>
<desc>lat.=55.900295, lon.=26.529129, Alt.=118.145569m. Speed=0.504000m/h.</desc>
<speed>0.140000</speed>
</trkpt>
<trkpt lat="55.900295" lon="26.529131">
<ele>118.131897</ele>
<time>2010-07-18T14:34:31Z</time>
<desc>lat.=55.900295, lon.=26.529131, Alt.=118.131897m. Speed=0.180000m/h.</desc>
<speed>0.050000</speed>
</trkpt>
<trkpt lat="55.900295" lon="26.529131">
<ele>118.122131</ele>
<time>2010-07-18T14:34:32Z</time>
<desc>lat.=55.900295, lon.=26.529131, Alt.=118.122131m. Speed=0.576000m/h.</desc>
<speed>0.160000</speed>
</trkpt>
<trkpt lat="55.900291" lon="26.529133">
<ele>118.112366</ele>
<time>2010-07-18T14:34:33Z</time>
<desc>lat.=55.900291, lon.=26.529133, Alt.=118.112366m. Speed=0.576000m/h.</desc>
<speed>0.160000</speed>
</trkpt>
<trkpt lat="55.900291" lon="26.529137">
<ele>118.104553</ele>
<time>2010-07-18T14:34:34Z</time>
<desc>lat.=55.900291, lon.=26.529137, Alt.=118.104553m. Speed=0.252000m/h.</desc>
<speed>0.070000</speed>
</trkpt>
<trkpt lat="55.900291" lon="26.529137">
<ele>118.098694</ele>
<time>2010-07-18T14:34:35Z</time>
<desc>lat.=55.900291, lon.=26.529137, Alt.=118.098694m. Speed=0.216000m/h.</desc>
<speed>0.060000</speed>
</trkpt>
<trkpt lat="55.900291" lon="26.529137">
<ele>118.094788</ele>
<time>2010-07-18T14:34:36Z</time>
<desc>lat.=55.900291, lon.=26.529137, Alt.=118.094788m. Speed=0.180000m/h.</desc>
<speed>0.050000</speed>
</trkpt>
<trkpt lat="55.900291" lon="26.529139">
<ele>118.094788</ele>
<time>2010-07-18T14:34:37Z</time>
<desc>lat.=55.900291, lon.=26.529139, Alt.=118.094788m. Speed=0.468000m/h.</desc>
<speed>0.130000</speed>
</trkpt>
<trkpt lat="55.900291" lon="26.529140">
<ele>118.092834</ele>
<time>2010-07-18T14:34:38Z</time>
<desc>lat.=55.900291, lon.=26.529140, Alt.=118.092834m. Speed=0.288000m/h.</desc>
<speed>0.080000</speed>
</trkpt>
<trkpt lat="55.900291" lon="26.529140">
<ele>118.092834</ele>
<time>2010-07-18T14:34:39Z</time>
<desc>lat.=55.900291, lon.=26.529140, Alt.=118.092834m. Speed=0.324000m/h.</desc>
<speed>0.090000</speed>
</trkpt>
<trkpt lat="55.900288" lon="26.529142">
<ele>118.088928</ele>
<time>2010-07-18T14:34:40Z</time>
<desc>lat.=55.900288, lon.=26.529142, Alt.=118.088928m. Speed=0.108000m/h.</desc>
<speed>0.030000</speed>
</trkpt>
<trkpt lat="55.900291" lon="26.529142">
<ele>118.086975</ele>
<time>2010-07-18T14:34:41Z</time>
<desc>lat.=55.900291, lon.=26.529142, Alt.=118.086975m. Speed=0.216000m/h.</desc>
<speed>0.060000</speed>
</trkpt>
<trkpt lat="55.900291" lon="26.529142">
<ele>118.085022</ele>
<time>2010-07-18T14:34:42Z</time>
<desc>lat.=55.900291, lon.=26.529142, Alt.=118.085022m. Speed=0.216000m/h.</desc>
<speed>0.060000</speed>
</trkpt>
<trkpt lat="55.900291" lon="26.529142">
<ele>118.081116</ele>
<time>2010-07-18T14:34:43Z</time>
<desc>lat.=55.900291, lon.=26.529142, Alt.=118.081116m. Speed=0.216000m/h.</desc>
<speed>0.060000</speed>
</trkpt>
<trkpt lat="55.900291" lon="26.529142">
<ele>118.075256</ele>
<time>2010-07-18T14:34:44Z</time>
<desc>lat.=55.900291, lon.=26.529142, Alt.=118.075256m. Speed=0.180000m/h.</desc>
<speed>0.050000</speed>
</trkpt>
<trkpt lat="55.900291" lon="26.529144">
<ele>118.069397</ele>
<time>2010-07-18T14:34:45Z</time>
<desc>lat.=55.900291, lon.=26.529144, Alt.=118.069397m. Speed=0.360000m/h.</desc>
<speed>0.100000</speed>
</trkpt>
<trkpt lat="55.900291" lon="26.529146">
<ele>118.061584</ele>
<time>2010-07-18T14:34:46Z</time>
<desc>lat.=55.900291, lon.=26.529146, Alt.=118.061584m. Speed=0.468000m/h.</desc>
<speed>0.130000</speed>
</trkpt>
<trkpt lat="55.900291" lon="26.529148">
<ele>118.053772</ele>
<time>2010-07-18T14:34:47Z</time>
<desc>lat.=55.900291, lon.=26.529148, Alt.=118.053772m. Speed=0.576000m/h.</desc>
<speed>0.160000</speed>
</trkpt>
<trkpt lat="55.900291" lon="26.529150">
<ele>118.051819</ele>
<time>2010-07-18T14:34:48Z</time>
<desc>lat.=55.900291, lon.=26.529150, Alt.=118.051819m. Speed=0.468000m/h.</desc>
<speed>0.130000</speed>
</trkpt>
<trkpt lat="55.900288" lon="26.529152">
<ele>118.049866</ele>
<time>2010-07-18T14:34:49Z</time>
<desc>lat.=55.900288, lon.=26.529152, Alt.=118.049866m. Speed=0.180000m/h.</desc>
<speed>0.050000</speed>
</trkpt>
<trkpt lat="55.900291" lon="26.529152">
<ele>118.045959</ele>
<time>2010-07-18T14:34:50Z</time>
<desc>lat.=55.900291, lon.=26.529152, Alt.=118.045959m. Speed=0.612000m/h.</desc>
<speed>0.170000</speed>
</trkpt>
<trkpt lat="55.900291" lon="26.529152">
<ele>118.045959</ele>
<time>2010-07-18T14:34:51Z</time>
<desc>lat.=55.900291, lon.=26.529152, Alt.=118.045959m. Speed=0.396000m/h.</desc>
<speed>0.110000</speed>
</trkpt>
<trkpt lat="55.900291" lon="26.529154">
<ele>118.051819</ele>
<time>2010-07-18T14:34:52Z</time>
<desc>lat.=55.900291, lon.=26.529154, Alt.=118.051819m. Speed=0.396000m/h.</desc>
<speed>0.110000</speed>
</trkpt>
<trkpt lat="55.900291" lon="26.529156">
<ele>118.059631</ele>
<time>2010-07-18T14:34:53Z</time>
<desc>lat.=55.900291, lon.=26.529156, Alt.=118.059631m. Speed=0.432000m/h.</desc>
<speed>0.120000</speed>
</trkpt>
<trkpt lat="55.900291" lon="26.529158">
<ele>118.067444</ele>
<time>2010-07-18T14:34:54Z</time>
<desc>lat.=55.900291, lon.=26.529158, Alt.=118.067444m. Speed=0.468000m/h.</desc>
<speed>0.130000</speed>
</trkpt>
<trkpt lat="55.900291" lon="26.529160">
<ele>118.077209</ele>
<time>2010-07-18T14:34:55Z</time>
<desc>lat.=55.900291, lon.=26.529160, Alt.=118.077209m. Speed=0.396000m/h.</desc>
<speed>0.110000</speed>
</trkpt>
<trkpt lat="55.900291" lon="26.529161">
<ele>118.083069</ele>
<time>2010-07-18T14:34:56Z</time>
<desc>lat.=55.900291, lon.=26.529161, Alt.=118.083069m. Speed=0.360000m/h.</desc>
<speed>0.100000</speed>
</trkpt>
<trkpt lat="55.900295" lon="26.529160">
<ele>118.088928</ele>
<time>2010-07-18T14:34:57Z</time>
<desc>lat.=55.900295, lon.=26.529160, Alt.=118.088928m. Speed=0.216000m/h.</desc>
<speed>0.060000</speed>
</trkpt>
<trkpt lat="55.900295" lon="26.529160">
<ele>118.090881</ele>
<time>2010-07-18T14:34:58Z</time>
<desc>lat.=55.900295, lon.=26.529160, Alt.=118.090881m. Speed=0.540000m/h.</desc>
<speed>0.150000</speed>
</trkpt>
<trkpt lat="55.900295" lon="26.529156">
<ele>118.096741</ele>
<time>2010-07-18T14:34:59Z</time>
<desc>lat.=55.900295, lon.=26.529156, Alt.=118.096741m. Speed=0.972000m/h.</desc>
<speed>0.270000</speed>
</trkpt>
<trkpt lat="55.900295" lon="26.529152">
<ele>118.100647</ele>
<time>2010-07-18T14:35:00Z</time>
<desc>lat.=55.900295, lon.=26.529152, Alt.=118.100647m. Speed=0.972000m/h.</desc>
<speed>0.270000</speed>
</trkpt>
<trkpt lat="55.900295" lon="26.529148">
<ele>118.106506</ele>
<time>2010-07-18T14:35:01Z</time>
<desc>lat.=55.900295, lon.=26.529148, Alt.=118.106506m. Speed=1.008000m/h.</desc>
<speed>0.280000</speed>
</trkpt>
<trkpt lat="55.900295" lon="26.529144">
<ele>118.110413</ele>
<time>2010-07-18T14:35:02Z</time>
<desc>lat.=55.900295, lon.=26.529144, Alt.=118.110413m. Speed=1.008000m/h.</desc>
<speed>0.280000</speed>
</trkpt>
<trkpt lat="55.900299" lon="26.529140">
<ele>118.112366</ele>
<time>2010-07-18T14:35:03Z</time>
<desc>lat.=55.900299, lon.=26.529140, Alt.=118.112366m. Speed=0.720000m/h.</desc>
<speed>0.200000</speed>
</trkpt>
<trkpt lat="55.900299" lon="26.529139">
<ele>118.116272</ele>
<time>2010-07-18T14:35:04Z</time>
<desc>lat.=55.900299, lon.=26.529139, Alt.=118.116272m. Speed=0.576000m/h.</desc>
<speed>0.160000</speed>
</trkpt>
<trkpt lat="55.900299" lon="26.529137">
<ele>118.118225</ele>
<time>2010-07-18T14:35:05Z</time>
<desc>lat.=55.900299, lon.=26.529137, Alt.=118.118225m. Speed=1.080000m/h.</desc>
<speed>0.300000</speed>
</trkpt>
<trkpt lat="55.900303" lon="26.529144">
<ele>118.157288</ele>
<time>2010-07-18T14:35:06Z</time>
<desc>lat.=55.900303, lon.=26.529144, Alt.=118.157288m. Speed=1.116000m/h.</desc>
<speed>0.310000</speed>
</trkpt>
<trkpt lat="55.900311" lon="26.529146">
<ele>118.075256</ele>
<time>2010-07-18T14:35:07Z</time>
<desc>lat.=55.900311, lon.=26.529146, Alt.=118.075256m. Speed=1.080000m/h.</desc>
<speed>0.300000</speed>
</trkpt>
<trkpt lat="55.900311" lon="26.529139">
<ele>118.057678</ele>
<time>2010-07-18T14:35:08Z</time>
<desc>lat.=55.900311, lon.=26.529139, Alt.=118.057678m. Speed=0.432000m/h.</desc>
<speed>0.120000</speed>
</trkpt>
<trkpt lat="55.900307" lon="26.529142">
<ele>118.147522</ele>
<time>2010-07-18T14:35:09Z</time>
<desc>lat.=55.900307, lon.=26.529142, Alt.=118.147522m. Speed=0.324000m/h.</desc>
<speed>0.090000</speed>
</trkpt>
<trkpt lat="55.900311" lon="26.529140">
<ele>118.225647</ele>
<time>2010-07-18T14:35:10Z</time>
<desc>lat.=55.900311, lon.=26.529140, Alt.=118.225647m. Speed=0.432000m/h.</desc>
<speed>0.120000</speed>
</trkpt>
<trkpt lat="55.900307" lon="26.529133">
<ele>118.290100</ele>
<time>2010-07-18T14:35:11Z</time>
<desc>lat.=55.900307, lon.=26.529133, Alt.=118.290100m. Speed=0.576000m/h.</desc>
<speed>0.160000</speed>
</trkpt>
<trkpt lat="55.900307" lon="26.529129">
<ele>118.297913</ele>
<time>2010-07-18T14:35:12Z</time>
<desc>lat.=55.900307, lon.=26.529129, Alt.=118.297913m. Speed=0.576000m/h.</desc>
<speed>0.160000</speed>
</trkpt>
<trkpt lat="55.900307" lon="26.529127">
<ele>118.305725</ele>
<time>2010-07-18T14:35:13Z</time>
<desc>lat.=55.900307, lon.=26.529127, Alt.=118.305725m. Speed=0.180000m/h.</desc>
<speed>0.050000</speed>
</trkpt>
<trkpt lat="55.900307" lon="26.529129">
<ele>118.313538</ele>
<time>2010-07-18T14:35:14Z</time>
<desc>lat.=55.900307, lon.=26.529129, Alt.=118.313538m. Speed=0.180000m/h.</desc>
<speed>0.050000</speed>
</trkpt>
<trkpt lat="55.900307" lon="26.529129">
<ele>118.317444</ele>
<time>2010-07-18T14:35:15Z</time>
<desc>lat.=55.900307, lon.=26.529129, Alt.=118.317444m. Speed=0.324000m/h.</desc>
<speed>0.090000</speed>
</trkpt>
<trkpt lat="55.900307" lon="26.529129">
<ele>118.323303</ele>
<time>2010-07-18T14:35:16Z</time>
<desc>lat.=55.900307, lon.=26.529129, Alt.=118.323303m. Speed=0.396000m/h.</desc>
<speed>0.110000</speed>
</trkpt>
<trkpt lat="55.900303" lon="26.529131">
<ele>118.327209</ele>
<time>2010-07-18T14:35:17Z</time>
<desc>lat.=55.900303, lon.=26.529131, Alt.=118.327209m. Speed=0.360000m/h.</desc>
<speed>0.100000</speed>
</trkpt>
<trkpt lat="55.900303" lon="26.529133">
<ele>118.327209</ele>
<time>2010-07-18T14:35:18Z</time>
<desc>lat.=55.900303, lon.=26.529133, Alt.=118.327209m. Speed=0.864000m/h.</desc>
<speed>0.240000</speed>
</trkpt>
<trkpt lat="55.900303" lon="26.529135">
<ele>118.329163</ele>
<time>2010-07-18T14:35:19Z</time>
<desc>lat.=55.900303, lon.=26.529135, Alt.=118.329163m. Speed=0.720000m/h.</desc>
<speed>0.200000</speed>
</trkpt>
<trkpt lat="55.900303" lon="26.529139">
<ele>118.329163</ele>
<time>2010-07-18T14:35:20Z</time>
<desc>lat.=55.900303, lon.=26.529139, Alt.=118.329163m. Speed=0.612000m/h.</desc>
<speed>0.170000</speed>
</trkpt>
<trkpt lat="55.900303" lon="26.529140">
<ele>118.329163</ele>
<time>2010-07-18T14:35:21Z</time>
<desc>lat.=55.900303, lon.=26.529140, Alt.=118.329163m. Speed=0.216000m/h.</desc>
<speed>0.060000</speed>
</trkpt>
<trkpt lat="55.900303" lon="26.529142">
<ele>118.327209</ele>
<time>2010-07-18T14:35:22Z</time>
<desc>lat.=55.900303, lon.=26.529142, Alt.=118.327209m. Speed=0.144000m/h.</desc>
<speed>0.040000</speed>
</trkpt>
<trkpt lat="55.900303" lon="26.529140">
<ele>118.321350</ele>
<time>2010-07-18T14:35:23Z</time>
<desc>lat.=55.900303, lon.=26.529140, Alt.=118.321350m. Speed=0.360000m/h.</desc>
<speed>0.100000</speed>
</trkpt>
<trkpt lat="55.900303" lon="26.529140">
<ele>118.317444</ele>
<time>2010-07-18T14:35:24Z</time>
<desc>lat.=55.900303, lon.=26.529140, Alt.=118.317444m. Speed=0.324000m/h.</desc>
<speed>0.090000</speed>
</trkpt>
<trkpt lat="55.900303" lon="26.529140">
<ele>118.309631</ele>
<time>2010-07-18T14:35:25Z</time>
<desc>lat.=55.900303, lon.=26.529140, Alt.=118.309631m. Speed=0.324000m/h.</desc>
<speed>0.090000</speed>
</trkpt>
<trkpt lat="55.900303" lon="26.529140">
<ele>118.301819</ele>
<time>2010-07-18T14:35:26Z</time>
<desc>lat.=55.900303, lon.=26.529140, Alt.=118.301819m. Speed=0.144000m/h.</desc>
<speed>0.040000</speed>
</trkpt>
<trkpt lat="55.900303" lon="26.529139">
<ele>118.294006</ele>
<time>2010-07-18T14:35:27Z</time>
<desc>lat.=55.900303, lon.=26.529139, Alt.=118.294006m. Speed=0.324000m/h.</desc>
<speed>0.090000</speed>
</trkpt>
<trkpt lat="55.900303" lon="26.529139">
<ele>118.292053</ele>
<time>2010-07-18T14:35:28Z</time>
<desc>lat.=55.900303, lon.=26.529139, Alt.=118.292053m. Speed=0.468000m/h.</desc>
<speed>0.130000</speed>
</trkpt>
<trkpt lat="55.900303" lon="26.529135">
<ele>118.284241</ele>
<time>2010-07-18T14:35:29Z</time>
<desc>lat.=55.900303, lon.=26.529135, Alt.=118.284241m. Speed=0.756000m/h.</desc>
<speed>0.210000</speed>
</trkpt>
<trkpt lat="55.900303" lon="26.529133">
<ele>118.272522</ele>
<time>2010-07-18T14:35:30Z</time>
<desc>lat.=55.900303, lon.=26.529133, Alt.=118.272522m. Speed=1.116000m/h.</desc>
<speed>0.310000</speed>
</trkpt>
<trkpt lat="55.900307" lon="26.529135">
<ele>118.155334</ele>
<time>2010-07-18T14:35:31Z</time>
<desc>lat.=55.900307, lon.=26.529135, Alt.=118.155334m. Speed=0.900000m/h.</desc>
<speed>0.250000</speed>
</trkpt>
<trkpt lat="55.900311" lon="26.529121">
<ele>117.944397</ele>
<time>2010-07-18T14:35:32Z</time>
<desc>lat.=55.900311, lon.=26.529121, Alt.=117.944397m. Speed=0.936000m/h.</desc>
<speed>0.260000</speed>
</trkpt>
<trkpt lat="55.900311" lon="26.529121">
<ele>117.835022</ele>
<time>2010-07-18T14:35:33Z</time>
<desc>lat.=55.900311, lon.=26.529121, Alt.=117.835022m. Speed=0.864000m/h.</desc>
<speed>0.240000</speed>
</trkpt>
<trkpt lat="55.900314" lon="26.529127">
<ele>117.852600</ele>
<time>2010-07-18T14:35:34Z</time>
<desc>lat.=55.900314, lon.=26.529127, Alt.=117.852600m. Speed=0.828000m/h.</desc>
<speed>0.230000</speed>
</trkpt>
<trkpt lat="55.900314" lon="26.529125">
<ele>117.842834</ele>
<time>2010-07-18T14:35:35Z</time>
<desc>lat.=55.900314, lon.=26.529125, Alt.=117.842834m. Speed=0.756000m/h.</desc>
<speed>0.210000</speed>
</trkpt>
<trkpt lat="55.900314" lon="26.529123">
<ele>117.829163</ele>
<time>2010-07-18T14:35:36Z</time>
<desc>lat.=55.900314, lon.=26.529123, Alt.=117.829163m. Speed=0.972000m/h.</desc>
<speed>0.270000</speed>
</trkpt>
<trkpt lat="55.900318" lon="26.529119">
<ele>117.819397</ele>
<time>2010-07-18T14:35:37Z</time>
<desc>lat.=55.900318, lon.=26.529119, Alt.=117.819397m. Speed=1.152000m/h.</desc>
<speed>0.320000</speed>
</trkpt>
<trkpt lat="55.900314" lon="26.529114">
<ele>117.723694</ele>
<time>2010-07-18T14:35:38Z</time>
<desc>lat.=55.900314, lon.=26.529114, Alt.=117.723694m. Speed=1.008000m/h.</desc>
<speed>0.280000</speed>
</trkpt>
<trkpt lat="55.900318" lon="26.529104">
<ele>117.639709</ele>
<time>2010-07-18T14:35:39Z</time>
<desc>lat.=55.900318, lon.=26.529104, Alt.=117.639709m. Speed=1.584000m/h.</desc>
<speed>0.440000</speed>
</trkpt>
<trkpt lat="55.900322" lon="26.529097">
<ele>117.626038</ele>
<time>2010-07-18T14:35:40Z</time>
<desc>lat.=55.900322, lon.=26.529097, Alt.=117.626038m. Speed=1.764000m/h.</desc>
<speed>0.490000</speed>
</trkpt>
<trkpt lat="55.900322" lon="26.529108">
<ele>117.598694</ele>
<time>2010-07-18T14:35:41Z</time>
<desc>lat.=55.900322, lon.=26.529108, Alt.=117.598694m. Speed=1.440000m/h.</desc>
<speed>0.400000</speed>
</trkpt>
<trkpt lat="55.900318" lon="26.529121">
<ele>117.442444</ele>
<time>2010-07-18T14:35:42Z</time>
<desc>lat.=55.900318, lon.=26.529121, Alt.=117.442444m. Speed=1.332000m/h.</desc>
<speed>0.370000</speed>
</trkpt>
<trkpt lat="55.900314" lon="26.529127">
<ele>117.297913</ele>
<time>2010-07-18T14:35:43Z</time>
<desc>lat.=55.900314, lon.=26.529127, Alt.=117.297913m. Speed=0.900000m/h.</desc>
<speed>0.250000</speed>
</trkpt>
<trkpt lat="55.900307" lon="26.529125">
<ele>117.190491</ele>
<time>2010-07-18T14:35:44Z</time>
<desc>lat.=55.900307, lon.=26.529125, Alt.=117.190491m. Speed=0.396000m/h.</desc>
<speed>0.110000</speed>
</trkpt>
<trkpt lat="55.900299" lon="26.529116">
<ele>116.991272</ele>
<time>2010-07-18T14:35:45Z</time>
<desc>lat.=55.900299, lon.=26.529116, Alt.=116.991272m. Speed=0.144000m/h.</desc>
<speed>0.040000</speed>
</trkpt>
<trkpt lat="55.900295" lon="26.529114">
<ele>116.778381</ele>
<time>2010-07-18T14:35:46Z</time>
<desc>lat.=55.900295, lon.=26.529114, Alt.=116.778381m. Speed=0.216000m/h.</desc>
<speed>0.060000</speed>
</trkpt>
<trkpt lat="55.900295" lon="26.529116">
<ele>116.772522</ele>
<time>2010-07-18T14:35:47Z</time>
<desc>lat.=55.900295, lon.=26.529116, Alt.=116.772522m. Speed=0.252000m/h.</desc>
<speed>0.070000</speed>
</trkpt>
<trkpt lat="55.900295" lon="26.529116">
<ele>116.770569</ele>
<time>2010-07-18T14:35:48Z</time>
<desc>lat.=55.900295, lon.=26.529116, Alt.=116.770569m. Speed=0.360000m/h.</desc>
<speed>0.100000</speed>
</trkpt>
<trkpt lat="55.900295" lon="26.529114">
<ele>116.770569</ele>
<time>2010-07-18T14:35:49Z</time>
<desc>lat.=55.900295, lon.=26.529114, Alt.=116.770569m. Speed=0.288000m/h.</desc>
<speed>0.080000</speed>
</trkpt>
<trkpt lat="55.900295" lon="26.529114">
<ele>116.768616</ele>
<time>2010-07-18T14:35:50Z</time>
<desc>lat.=55.900295, lon.=26.529114, Alt.=116.768616m. Speed=0.360000m/h.</desc>
<speed>0.100000</speed>
</trkpt>
<trkpt lat="55.900295" lon="26.529114">
<ele>116.764709</ele>
<time>2010-07-18T14:35:51Z</time>
<desc>lat.=55.900295, lon.=26.529114, Alt.=116.764709m. Speed=0.504000m/h.</desc>
<speed>0.140000</speed>
</trkpt>
<trkpt lat="55.900295" lon="26.529114">
<ele>116.760803</ele>
<time>2010-07-18T14:35:52Z</time>
<desc>lat.=55.900295, lon.=26.529114, Alt.=116.760803m. Speed=0.720000m/h.</desc>
<speed>0.200000</speed>
</trkpt>
<trkpt lat="55.900299" lon="26.529118">
<ele>116.756897</ele>
<time>2010-07-18T14:35:53Z</time>
<desc>lat.=55.900299, lon.=26.529118, Alt.=116.756897m. Speed=0.468000m/h.</desc>
<speed>0.130000</speed>
</trkpt>
<trkpt lat="55.900299" lon="26.529119">
<ele>116.751038</ele>
<time>2010-07-18T14:35:54Z</time>
<desc>lat.=55.900299, lon.=26.529119, Alt.=116.751038m. Speed=0.396000m/h.</desc>
<speed>0.110000</speed>
</trkpt>
<trkpt lat="55.900295" lon="26.529121">
<ele>116.743225</ele>
<time>2010-07-18T14:35:55Z</time>
<desc>lat.=55.900295, lon.=26.529121, Alt.=116.743225m. Speed=0.504000m/h.</desc>
<speed>0.140000</speed>
</trkpt>
<trkpt lat="55.900295" lon="26.529123">
<ele>116.735413</ele>
<time>2010-07-18T14:35:56Z</time>
<desc>lat.=55.900295, lon.=26.529123, Alt.=116.735413m. Speed=0.684000m/h.</desc>
<speed>0.190000</speed>
</trkpt>
<trkpt lat="55.900295" lon="26.529125">
<ele>116.731506</ele>
<time>2010-07-18T14:35:57Z</time>
<desc>lat.=55.900295, lon.=26.529125, Alt.=116.731506m. Speed=0.684000m/h.</desc>
<speed>0.190000</speed>
</trkpt>
<trkpt lat="55.900295" lon="26.529127">
<ele>116.723694</ele>
<time>2010-07-18T14:35:58Z</time>
<desc>lat.=55.900295, lon.=26.529127, Alt.=116.723694m. Speed=0.828000m/h.</desc>
<speed>0.230000</speed>
</trkpt>
<trkpt lat="55.900291" lon="26.529127">
<ele>116.717834</ele>
<time>2010-07-18T14:35:59Z</time>
<desc>lat.=55.900291, lon.=26.529127, Alt.=116.717834m. Speed=0.756000m/h.</desc>
<speed>0.210000</speed>
</trkpt>
<trkpt lat="55.900291" lon="26.529129">
<ele>116.713928</ele>
<time>2010-07-18T14:36:00Z</time>
<desc>lat.=55.900291, lon.=26.529129, Alt.=116.713928m. Speed=0.180000m/h.</desc>
<speed>0.050000</speed>
</trkpt>
<trkpt lat="55.900291" lon="26.529127">
<ele>116.708069</ele>
<time>2010-07-18T14:36:01Z</time>
<desc>lat.=55.900291, lon.=26.529127, Alt.=116.708069m. Speed=0.288000m/h.</desc>
<speed>0.080000</speed>
</trkpt>
<trkpt lat="55.900291" lon="26.529129">
<ele>116.704163</ele>
<time>2010-07-18T14:36:02Z</time>
<desc>lat.=55.900291, lon.=26.529129, Alt.=116.704163m. Speed=0.288000m/h.</desc>
<speed>0.080000</speed>
</trkpt>
<trkpt lat="55.900291" lon="26.529129">
<ele>116.702209</ele>
<time>2010-07-18T14:36:03Z</time>
<desc>lat.=55.900291, lon.=26.529129, Alt.=116.702209m. Speed=0.288000m/h.</desc>
<speed>0.080000</speed>
</trkpt>
<trkpt lat="55.900291" lon="26.529131">
<ele>116.694397</ele>
<time>2010-07-18T14:36:04Z</time>
<desc>lat.=55.900291, lon.=26.529131, Alt.=116.694397m. Speed=0.576000m/h.</desc>
<speed>0.160000</speed>
</trkpt>
<trkpt lat="55.900291" lon="26.529133">
<ele>116.686584</ele>
<time>2010-07-18T14:36:05Z</time>
<desc>lat.=55.900291, lon.=26.529133, Alt.=116.686584m. Speed=1.044000m/h.</desc>
<speed>0.290000</speed>
</trkpt>
<trkpt lat="55.900295" lon="26.529137">
<ele>116.678772</ele>
<time>2010-07-18T14:36:06Z</time>
<desc>lat.=55.900295, lon.=26.529137, Alt.=116.678772m. Speed=1.008000m/h.</desc>
<speed>0.280000</speed>
</trkpt>
<trkpt lat="55.900295" lon="26.529140">
<ele>116.670959</ele>
<time>2010-07-18T14:36:07Z</time>
<desc>lat.=55.900295, lon.=26.529140, Alt.=116.670959m. Speed=1.728000m/h.</desc>
<speed>0.480000</speed>
</trkpt>
<trkpt lat="55.900295" lon="26.529154">
<ele>116.569397</ele>
<time>2010-07-18T14:36:08Z</time>
<desc>lat.=55.900295, lon.=26.529154, Alt.=116.569397m. Speed=1.512000m/h.</desc>
<speed>0.420000</speed>
</trkpt>
<trkpt lat="55.900303" lon="26.529142">
<ele>116.385803</ele>
<time>2010-07-18T14:36:09Z</time>
<desc>lat.=55.900303, lon.=26.529142, Alt.=116.385803m. Speed=1.116000m/h.</desc>
<speed>0.310000</speed>
</trkpt>
<trkpt lat="55.900311" lon="26.529140">
<ele>116.284241</ele>
<time>2010-07-18T14:36:10Z</time>
<desc>lat.=55.900311, lon.=26.529140, Alt.=116.284241m. Speed=1.008000m/h.</desc>
<speed>0.280000</speed>
</trkpt>
<trkpt lat="55.900311" lon="26.529150">
<ele>116.391663</ele>
<time>2010-07-18T14:36:11Z</time>
<desc>lat.=55.900311, lon.=26.529150, Alt.=116.391663m. Speed=0.972000m/h.</desc>
<speed>0.270000</speed>
</trkpt>
<trkpt lat="55.900307" lon="26.529154">
<ele>116.469788</ele>
<time>2010-07-18T14:36:12Z</time>
<desc>lat.=55.900307, lon.=26.529154, Alt.=116.469788m. Speed=0.828000m/h.</desc>
<speed>0.230000</speed>
</trkpt>
<trkpt lat="55.900307" lon="26.529150">
<ele>116.426819</ele>
<time>2010-07-18T14:36:13Z</time>
<desc>lat.=55.900307, lon.=26.529150, Alt.=116.426819m. Speed=0.180000m/h.</desc>
<speed>0.050000</speed>
</trkpt>
<trkpt lat="55.900307" lon="26.529150">
<ele>116.424866</ele>
<time>2010-07-18T14:36:14Z</time>
<desc>lat.=55.900307, lon.=26.529150, Alt.=116.424866m. Speed=0.288000m/h.</desc>
<speed>0.080000</speed>
</trkpt>
<trkpt lat="55.900311" lon="26.529150">
<ele>116.422913</ele>
<time>2010-07-18T14:36:15Z</time>
<desc>lat.=55.900311, lon.=26.529150, Alt.=116.422913m. Speed=0.648000m/h.</desc>
<speed>0.180000</speed>
</trkpt>
<trkpt lat="55.900311" lon="26.529150">
<ele>116.417053</ele>
<time>2010-07-18T14:36:16Z</time>
<desc>lat.=55.900311, lon.=26.529150, Alt.=116.417053m. Speed=0.576000m/h.</desc>
<speed>0.160000</speed>
</trkpt>
<trkpt lat="55.900311" lon="26.529148">
<ele>116.401428</ele>
<time>2010-07-18T14:36:17Z</time>
<desc>lat.=55.900311, lon.=26.529148, Alt.=116.401428m. Speed=0.504000m/h.</desc>
<speed>0.140000</speed>
</trkpt>
<trkpt lat="55.900314" lon="26.529148">
<ele>116.385803</ele>
<time>2010-07-18T14:36:18Z</time>
<desc>lat.=55.900314, lon.=26.529148, Alt.=116.385803m. Speed=0.360000m/h.</desc>
<speed>0.100000</speed>
</trkpt>
<trkpt lat="55.900314" lon="26.529150">
<ele>116.370178</ele>
<time>2010-07-18T14:36:19Z</time>
<desc>lat.=55.900314, lon.=26.529150, Alt.=116.370178m. Speed=0.504000m/h.</desc>
<speed>0.140000</speed>
</trkpt>
<trkpt lat="55.900314" lon="26.529150">
<ele>116.358459</ele>
<time>2010-07-18T14:36:20Z</time>
<desc>lat.=55.900314, lon.=26.529150, Alt.=116.358459m. Speed=0.468000m/h.</desc>
<speed>0.130000</speed>
</trkpt>
<trkpt lat="55.900314" lon="26.529150">
<ele>116.348694</ele>
<time>2010-07-18T14:36:21Z</time>
<desc>lat.=55.900314, lon.=26.529150, Alt.=116.348694m. Speed=0.396000m/h.</desc>
<speed>0.110000</speed>
</trkpt>
<trkpt lat="55.900318" lon="26.529150">
<ele>116.333069</ele>
<time>2010-07-18T14:36:22Z</time>
<desc>lat.=55.900318, lon.=26.529150, Alt.=116.333069m. Speed=0.504000m/h.</desc>
<speed>0.140000</speed>
</trkpt>
<trkpt lat="55.900318" lon="26.529150">
<ele>116.317444</ele>
<time>2010-07-18T14:36:23Z</time>
<desc>lat.=55.900318, lon.=26.529150, Alt.=116.317444m. Speed=0.756000m/h.</desc>
<speed>0.210000</speed>
</trkpt>
<trkpt lat="55.900318" lon="26.529150">
<ele>116.299866</ele>
<time>2010-07-18T14:36:24Z</time>
<desc>lat.=55.900318, lon.=26.529150, Alt.=116.299866m. Speed=0.468000m/h.</desc>
<speed>0.130000</speed>
</trkpt>
<trkpt lat="55.900322" lon="26.529152">
<ele>116.284241</ele>
<time>2010-07-18T14:36:25Z</time>
<desc>lat.=55.900322, lon.=26.529152, Alt.=116.284241m. Speed=0.396000m/h.</desc>
<speed>0.110000</speed>
</trkpt>
<trkpt lat="55.900322" lon="26.529152">
<ele>116.272522</ele>
<time>2010-07-18T14:36:26Z</time>
<desc>lat.=55.900322, lon.=26.529152, Alt.=116.272522m. Speed=0.576000m/h.</desc>
<speed>0.160000</speed>
</trkpt>
<trkpt lat="55.900322" lon="26.529152">
<ele>116.258850</ele>
<time>2010-07-18T14:36:27Z</time>
<desc>lat.=55.900322, lon.=26.529152, Alt.=116.258850m. Speed=0.504000m/h.</desc>
<speed>0.140000</speed>
</trkpt>
<trkpt lat="55.900326" lon="26.529152">
<ele>116.245178</ele>
<time>2010-07-18T14:36:28Z</time>
<desc>lat.=55.900326, lon.=26.529152, Alt.=116.245178m. Speed=0.648000m/h.</desc>
<speed>0.180000</speed>
</trkpt>
<trkpt lat="55.900326" lon="26.529154">
<ele>116.233459</ele>
<time>2010-07-18T14:36:29Z</time>
<desc>lat.=55.900326, lon.=26.529154, Alt.=116.233459m. Speed=0.432000m/h.</desc>
<speed>0.120000</speed>
</trkpt>
<trkpt lat="55.900326" lon="26.529156">
<ele>116.223694</ele>
<time>2010-07-18T14:36:30Z</time>
<desc>lat.=55.900326, lon.=26.529156, Alt.=116.223694m. Speed=0.432000m/h.</desc>
<speed>0.120000</speed>
</trkpt>
<trkpt lat="55.900326" lon="26.529158">
<ele>116.210022</ele>
<time>2010-07-18T14:36:31Z</time>
<desc>lat.=55.900326, lon.=26.529158, Alt.=116.210022m. Speed=0.216000m/h.</desc>
<speed>0.060000</speed>
</trkpt>
<trkpt lat="55.900326" lon="26.529160">
<ele>116.198303</ele>
<time>2010-07-18T14:36:32Z</time>
<desc>lat.=55.900326, lon.=26.529160, Alt.=116.198303m. Speed=0.504000m/h.</desc>
<speed>0.140000</speed>
</trkpt>
<trkpt lat="55.900322" lon="26.529161">
<ele>116.188538</ele>
<time>2010-07-18T14:36:33Z</time>
<desc>lat.=55.900322, lon.=26.529161, Alt.=116.188538m. Speed=0.936000m/h.</desc>
<speed>0.260000</speed>
</trkpt>
<trkpt lat="55.900322" lon="26.529165">
<ele>116.180725</ele>
<time>2010-07-18T14:36:34Z</time>
<desc>lat.=55.900322, lon.=26.529165, Alt.=116.180725m. Speed=1.008000m/h.</desc>
<speed>0.280000</speed>
</trkpt>
<trkpt lat="55.900322" lon="26.529169">
<ele>116.174866</ele>
<time>2010-07-18T14:36:35Z</time>
<desc>lat.=55.900322, lon.=26.529169, Alt.=116.174866m. Speed=1.332000m/h.</desc>
<speed>0.370000</speed>
</trkpt>
<trkpt lat="55.900326" lon="26.529175">
<ele>116.153381</ele>
<time>2010-07-18T14:36:36Z</time>
<desc>lat.=55.900326, lon.=26.529175, Alt.=116.153381m. Speed=1.332000m/h.</desc>
<speed>0.370000</speed>
</trkpt>
<trkpt lat="55.900330" lon="26.529167">
<ele>116.198303</ele>
<time>2010-07-18T14:36:37Z</time>
<desc>lat.=55.900330, lon.=26.529167, Alt.=116.198303m. Speed=0.648000m/h.</desc>
<speed>0.180000</speed>
</trkpt>
<trkpt lat="55.900326" lon="26.529173">
<ele>116.452209</ele>
<time>2010-07-18T14:36:38Z</time>
<desc>lat.=55.900326, lon.=26.529173, Alt.=116.452209m. Speed=0.216000m/h.</desc>
<speed>0.060000</speed>
</trkpt>
<trkpt lat="55.900326" lon="26.529188">
<ele>116.557678</ele>
<time>2010-07-18T14:36:39Z</time>
<desc>lat.=55.900326, lon.=26.529188, Alt.=116.557678m. Speed=0.360000m/h.</desc>
<speed>0.100000</speed>
</trkpt>
<trkpt lat="55.900333" lon="26.529190">
<ele>116.653381</ele>
<time>2010-07-18T14:36:40Z</time>
<desc>lat.=55.900333, lon.=26.529190, Alt.=116.653381m. Speed=0.720000m/h.</desc>
<speed>0.200000</speed>
</trkpt>
<trkpt lat="55.900333" lon="26.529190">
<ele>116.649475</ele>
<time>2010-07-18T14:36:41Z</time>
<desc>lat.=55.900333, lon.=26.529190, Alt.=116.649475m. Speed=1.188000m/h.</desc>
<speed>0.330000</speed>
</trkpt>
<trkpt lat="55.900341" lon="26.529190">
<ele>116.481506</ele>
<time>2010-07-18T14:36:42Z</time>
<desc>lat.=55.900341, lon.=26.529190, Alt.=116.481506m. Speed=1.044000m/h.</desc>
<speed>0.290000</speed>
</trkpt>
<trkpt lat="55.900349" lon="26.529182">
<ele>116.254944</ele>
<time>2010-07-18T14:36:43Z</time>
<desc>lat.=55.900349, lon.=26.529182, Alt.=116.254944m. Speed=1.224000m/h.</desc>
<speed>0.340000</speed>
</trkpt>
<trkpt lat="55.900349" lon="26.529184">
<ele>116.110413</ele>
<time>2010-07-18T14:36:44Z</time>
<desc>lat.=55.900349, lon.=26.529184, Alt.=116.110413m. Speed=1.008000m/h.</desc>
<speed>0.280000</speed>
</trkpt>
<trkpt lat="55.900345" lon="26.529181">
<ele>115.784241</ele>
<time>2010-07-18T14:36:45Z</time>
<desc>lat.=55.900345, lon.=26.529181, Alt.=115.784241m. Speed=0.540000m/h.</desc>
<speed>0.150000</speed>
</trkpt>
<trkpt lat="55.900341" lon="26.529182">
<ele>115.485413</ele>
<time>2010-07-18T14:36:46Z</time>
<desc>lat.=55.900341, lon.=26.529182, Alt.=115.485413m. Speed=0.576000m/h.</desc>
<speed>0.160000</speed>
</trkpt>
<trkpt lat="55.900345" lon="26.529177">
<ele>115.149475</ele>
<time>2010-07-18T14:36:47Z</time>
<desc>lat.=55.900345, lon.=26.529177, Alt.=115.149475m. Speed=0.504000m/h.</desc>
<speed>0.140000</speed>
</trkpt>
<trkpt lat="55.900345" lon="26.529175">
<ele>115.137756</ele>
<time>2010-07-18T14:36:48Z</time>
<desc>lat.=55.900345, lon.=26.529175, Alt.=115.137756m. Speed=0.576000m/h.</desc>
<speed>0.160000</speed>
</trkpt>
<trkpt lat="55.900349" lon="26.529175">
<ele>115.122131</ele>
<time>2010-07-18T14:36:49Z</time>
<desc>lat.=55.900349, lon.=26.529175, Alt.=115.122131m. Speed=0.576000m/h.</desc>
<speed>0.160000</speed>
</trkpt>
<trkpt lat="55.900349" lon="26.529175">
<ele>115.104553</ele>
<time>2010-07-18T14:36:50Z</time>
<desc>lat.=55.900349, lon.=26.529175, Alt.=115.104553m. Speed=1.008000m/h.</desc>
<speed>0.280000</speed>
</trkpt>
<trkpt lat="55.900352" lon="26.529179">
<ele>115.086975</ele>
<time>2010-07-18T14:36:51Z</time>
<desc>lat.=55.900352, lon.=26.529179, Alt.=115.086975m. Speed=0.972000m/h.</desc>
<speed>0.270000</speed>
</trkpt>
<trkpt lat="55.900352" lon="26.529181">
<ele>115.067444</ele>
<time>2010-07-18T14:36:52Z</time>
<desc>lat.=55.900352, lon.=26.529181, Alt.=115.067444m. Speed=1.008000m/h.</desc>
<speed>0.280000</speed>
</trkpt>
<trkpt lat="55.900356" lon="26.529182">
<ele>115.047913</ele>
<time>2010-07-18T14:36:53Z</time>
<desc>lat.=55.900356, lon.=26.529182, Alt.=115.047913m. Speed=1.332000m/h.</desc>
<speed>0.370000</speed>
</trkpt>
<trkpt lat="55.900360" lon="26.529169">
<ele>114.737366</ele>
<time>2010-07-18T14:36:54Z</time>
<desc>lat.=55.900360, lon.=26.529169, Alt.=114.737366m. Speed=1.512000m/h.</desc>
<speed>0.420000</speed>
</trkpt>
<trkpt lat="55.900364" lon="26.529165">
<ele>114.592834</ele>
<time>2010-07-18T14:36:55Z</time>
<desc>lat.=55.900364, lon.=26.529165, Alt.=114.592834m. Speed=1.692000m/h.</desc>
<speed>0.470000</speed>
</trkpt>
<trkpt lat="55.900372" lon="26.529148">
<ele>114.477600</ele>
<time>2010-07-18T14:36:56Z</time>
<desc>lat.=55.900372, lon.=26.529148, Alt.=114.477600m. Speed=1.476000m/h.</desc>
<speed>0.410000</speed>
</trkpt>
<trkpt lat="55.900372" lon="26.529142">
<ele>114.315491</ele>
<time>2010-07-18T14:36:57Z</time>
<desc>lat.=55.900372, lon.=26.529142, Alt.=114.315491m. Speed=1.368000m/h.</desc>
<speed>0.380000</speed>
</trkpt>
<trkpt lat="55.900372" lon="26.529156">
<ele>114.239319</ele>
<time>2010-07-18T14:36:58Z</time>
<desc>lat.=55.900372, lon.=26.529156, Alt.=114.239319m. Speed=1.512000m/h.</desc>
<speed>0.420000</speed>
</trkpt>
<trkpt lat="55.900375" lon="26.529160">
<ele>114.124084</ele>
<time>2010-07-18T14:36:59Z</time>
<desc>lat.=55.900375, lon.=26.529160, Alt.=114.124084m. Speed=1.368000m/h.</desc>
<speed>0.380000</speed>
</trkpt>
<trkpt lat="55.900379" lon="26.529158">
<ele>113.905334</ele>
<time>2010-07-18T14:37:00Z</time>
<desc>lat.=55.900379, lon.=26.529158, Alt.=113.905334m. Speed=1.332000m/h.</desc>
<speed>0.370000</speed>
</trkpt>
<trkpt lat="55.900383" lon="26.529154">
<ele>113.868225</ele>
<time>2010-07-18T14:37:01Z</time>
<desc>lat.=55.900383, lon.=26.529154, Alt.=113.868225m. Speed=1.116000m/h.</desc>
<speed>0.310000</speed>
</trkpt>
<trkpt lat="55.900387" lon="26.529148">
<ele>113.922913</ele>
<time>2010-07-18T14:37:02Z</time>
<desc>lat.=55.900387, lon.=26.529148, Alt.=113.922913m. Speed=1.296000m/h.</desc>
<speed>0.360000</speed>
</trkpt>
<trkpt lat="55.900391" lon="26.529148">
<ele>113.940491</ele>
<time>2010-07-18T14:37:03Z</time>
<desc>lat.=55.900391, lon.=26.529148, Alt.=113.940491m. Speed=1.332000m/h.</desc>
<speed>0.370000</speed>
</trkpt>
<trkpt lat="55.900391" lon="26.529131">
<ele>113.874084</ele>
<time>2010-07-18T14:37:04Z</time>
<desc>lat.=55.900391, lon.=26.529131, Alt.=113.874084m. Speed=0.972000m/h.</desc>
<speed>0.270000</speed>
</trkpt>
<trkpt lat="55.900387" lon="26.529137">
<ele>113.835022</ele>
<time>2010-07-18T14:37:05Z</time>
<desc>lat.=55.900387, lon.=26.529137, Alt.=113.835022m. Speed=0.900000m/h.</desc>
<speed>0.250000</speed>
</trkpt>
<trkpt lat="55.900387" lon="26.529142">
<ele>113.864319</ele>
<time>2010-07-18T14:37:06Z</time>
<desc>lat.=55.900387, lon.=26.529142, Alt.=113.864319m. Speed=0.900000m/h.</desc>
<speed>0.250000</speed>
</trkpt>
<trkpt lat="55.900379" lon="26.529135">
<ele>113.594788</ele>
<time>2010-07-18T14:37:07Z</time>
<desc>lat.=55.900379, lon.=26.529135, Alt.=113.594788m. Speed=0.468000m/h.</desc>
<speed>0.130000</speed>
</trkpt>
<trkpt lat="55.900379" lon="26.529135">
<ele>113.585022</ele>
<time>2010-07-18T14:37:08Z</time>
<desc>lat.=55.900379, lon.=26.529135, Alt.=113.585022m. Speed=0.468000m/h.</desc>
<speed>0.130000</speed>
</trkpt>
<trkpt lat="55.900379" lon="26.529137">
<ele>113.579163</ele>
<time>2010-07-18T14:37:09Z</time>
<desc>lat.=55.900379, lon.=26.529137, Alt.=113.579163m. Speed=0.360000m/h.</desc>
<speed>0.100000</speed>
</trkpt>
<trkpt lat="55.900379" lon="26.529137">
<ele>113.571350</ele>
<time>2010-07-18T14:37:10Z</time>
<desc>lat.=55.900379, lon.=26.529137, Alt.=113.571350m. Speed=0.252000m/h.</desc>
<speed>0.070000</speed>
</trkpt>
<trkpt lat="55.900379" lon="26.529135">
<ele>113.565491</ele>
<time>2010-07-18T14:37:11Z</time>
<desc>lat.=55.900379, lon.=26.529135, Alt.=113.565491m. Speed=0.216000m/h.</desc>
<speed>0.060000</speed>
</trkpt>
<trkpt lat="55.900379" lon="26.529137">
<ele>113.565491</ele>
<time>2010-07-18T14:37:12Z</time>
<desc>lat.=55.900379, lon.=26.529137, Alt.=113.565491m. Speed=0.324000m/h.</desc>
<speed>0.090000</speed>
</trkpt>
<trkpt lat="55.900379" lon="26.529135">
<ele>113.565491</ele>
<time>2010-07-18T14:37:13Z</time>
<desc>lat.=55.900379, lon.=26.529135, Alt.=113.565491m. Speed=0.576000m/h.</desc>
<speed>0.160000</speed>
</trkpt>
<trkpt lat="55.900379" lon="26.529133">
<ele>113.563538</ele>
<time>2010-07-18T14:37:14Z</time>
<desc>lat.=55.900379, lon.=26.529133, Alt.=113.563538m. Speed=0.360000m/h.</desc>
<speed>0.100000</speed>
</trkpt>
<trkpt lat="55.900375" lon="26.529133">
<ele>113.563538</ele>
<time>2010-07-18T14:37:15Z</time>
<desc>lat.=55.900375, lon.=26.529133, Alt.=113.563538m. Speed=0.360000m/h.</desc>
<speed>0.100000</speed>
</trkpt>
<trkpt lat="55.900375" lon="26.529133">
<ele>113.561584</ele>
<time>2010-07-18T14:37:16Z</time>
<desc>lat.=55.900375, lon.=26.529133, Alt.=113.561584m. Speed=0.180000m/h.</desc>
<speed>0.050000</speed>
</trkpt>
<trkpt lat="55.900375" lon="26.529133">
<ele>113.559631</ele>
<time>2010-07-18T14:37:17Z</time>
<desc>lat.=55.900375, lon.=26.529133, Alt.=113.559631m. Speed=0.684000m/h.</desc>
<speed>0.190000</speed>
</trkpt>
<trkpt lat="55.900375" lon="26.529133">
<ele>113.555725</ele>
<time>2010-07-18T14:37:18Z</time>
<desc>lat.=55.900375, lon.=26.529133, Alt.=113.555725m. Speed=0.720000m/h.</desc>
<speed>0.200000</speed>
</trkpt>
<trkpt lat="55.900372" lon="26.529131">
<ele>113.549866</ele>
<time>2010-07-18T14:37:19Z</time>
<desc>lat.=55.900372, lon.=26.529131, Alt.=113.549866m. Speed=0.504000m/h.</desc>
<speed>0.140000</speed>
</trkpt>
<trkpt lat="55.900372" lon="26.529131">
<ele>113.545959</ele>
<time>2010-07-18T14:37:20Z</time>
<desc>lat.=55.900372, lon.=26.529131, Alt.=113.545959m. Speed=0.432000m/h.</desc>
<speed>0.120000</speed>
</trkpt>
<trkpt lat="55.900372" lon="26.529131">
<ele>113.542053</ele>
<time>2010-07-18T14:37:21Z</time>
<desc>lat.=55.900372, lon.=26.529131, Alt.=113.542053m. Speed=1.224000m/h.</desc>
<speed>0.340000</speed>
</trkpt>
<trkpt lat="55.900375" lon="26.529152">
<ele>113.430725</ele>
<time>2010-07-18T14:37:22Z</time>
<desc>lat.=55.900375, lon.=26.529152, Alt.=113.430725m. Speed=1.080000m/h.</desc>
<speed>0.300000</speed>
</trkpt>
<trkpt lat="55.900375" lon="26.529181">
<ele>113.516663</ele>
<time>2010-07-18T14:37:23Z</time>
<desc>lat.=55.900375, lon.=26.529181, Alt.=113.516663m. Speed=1.188000m/h.</desc>
<speed>0.330000</speed>
</trkpt>
<trkpt lat="55.900379" lon="26.529203">
<ele>113.616272</ele>
<time>2010-07-18T14:37:24Z</time>
<desc>lat.=55.900379, lon.=26.529203, Alt.=113.616272m. Speed=1.188000m/h.</desc>
<speed>0.330000</speed>
</trkpt>
<trkpt lat="55.900379" lon="26.529226">
<ele>113.741272</ele>
<time>2010-07-18T14:37:25Z</time>
<desc>lat.=55.900379, lon.=26.529226, Alt.=113.741272m. Speed=1.224000m/h.</desc>
<speed>0.340000</speed>
</trkpt>
<trkpt lat="55.900379" lon="26.529240">
<ele>113.877991</ele>
<time>2010-07-18T14:37:26Z</time>
<desc>lat.=55.900379, lon.=26.529240, Alt.=113.877991m. Speed=0.828000m/h.</desc>
<speed>0.230000</speed>
</trkpt>
<trkpt lat="55.900379" lon="26.529255">
<ele>113.889709</ele>
<time>2010-07-18T14:37:27Z</time>
<desc>lat.=55.900379, lon.=26.529255, Alt.=113.889709m. Speed=0.720000m/h.</desc>
<speed>0.200000</speed>
</trkpt>
<trkpt lat="55.900379" lon="26.529270">
<ele>113.702209</ele>
<time>2010-07-18T14:37:28Z</time>
<desc>lat.=55.900379, lon.=26.529270, Alt.=113.702209m. Speed=1.008000m/h.</desc>
<speed>0.280000</speed>
</trkpt>
<trkpt lat="55.900379" lon="26.529278">
<ele>113.512756</ele>
<time>2010-07-18T14:37:29Z</time>
<desc>lat.=55.900379, lon.=26.529278, Alt.=113.512756m. Speed=0.900000m/h.</desc>
<speed>0.250000</speed>
</trkpt>
<trkpt lat="55.900379" lon="26.529282">
<ele>113.504944</ele>
<time>2010-07-18T14:37:30Z</time>
<desc>lat.=55.900379, lon.=26.529282, Alt.=113.504944m. Speed=0.792000m/h.</desc>
<speed>0.220000</speed>
</trkpt>
<trkpt lat="55.900379" lon="26.529284">
<ele>113.499084</ele>
<time>2010-07-18T14:37:31Z</time>
<desc>lat.=55.900379, lon.=26.529284, Alt.=113.499084m. Speed=1.080000m/h.</desc>
<speed>0.300000</speed>
</trkpt>
<trkpt lat="55.900379" lon="26.529285">
<ele>113.448303</ele>
<time>2010-07-18T14:37:32Z</time>
<desc>lat.=55.900379, lon.=26.529285, Alt.=113.448303m. Speed=0.720000m/h.</desc>
<speed>0.200000</speed>
</trkpt>
<trkpt lat="55.900375" lon="26.529282">
<ele>113.362366</ele>
<time>2010-07-18T14:37:33Z</time>
<desc>lat.=55.900375, lon.=26.529282, Alt.=113.362366m. Speed=0.360000m/h.</desc>
<speed>0.100000</speed>
</trkpt>
<trkpt lat="55.900379" lon="26.529272">
<ele>113.210022</ele>
<time>2010-07-18T14:37:34Z</time>
<desc>lat.=55.900379, lon.=26.529272, Alt.=113.210022m. Speed=0.432000m/h.</desc>
<speed>0.120000</speed>
</trkpt>
<trkpt lat="55.900372" lon="26.529268">
<ele>113.026428</ele>
<time>2010-07-18T14:37:35Z</time>
<desc>lat.=55.900372, lon.=26.529268, Alt.=113.026428m. Speed=0.252000m/h.</desc>
<speed>0.070000</speed>
</trkpt>
<trkpt lat="55.900372" lon="26.529268">
<ele>113.024475</ele>
<time>2010-07-18T14:37:36Z</time>
<desc>lat.=55.900372, lon.=26.529268, Alt.=113.024475m. Speed=0.108000m/h.</desc>
<speed>0.030000</speed>
</trkpt>
<trkpt lat="55.900372" lon="26.529268">
<ele>113.020569</ele>
<time>2010-07-18T14:37:37Z</time>
<desc>lat.=55.900372, lon.=26.529268, Alt.=113.020569m. Speed=0.108000m/h.</desc>
<speed>0.030000</speed>
</trkpt>
<trkpt lat="55.900372" lon="26.529270">
<ele>113.020569</ele>
<time>2010-07-18T14:37:38Z</time>
<desc>lat.=55.900372, lon.=26.529270, Alt.=113.020569m. Speed=0.036000m/h.</desc>
<speed>0.010000</speed>
</trkpt>
<trkpt lat="55.900372" lon="26.529270">
<ele>113.016663</ele>
<time>2010-07-18T14:37:39Z</time>
<desc>lat.=55.900372, lon.=26.529270, Alt.=113.016663m. Speed=0.252000m/h.</desc>
<speed>0.070000</speed>
</trkpt>
<trkpt lat="55.900372" lon="26.529270">
<ele>113.010803</ele>
<time>2010-07-18T14:37:40Z</time>
<desc>lat.=55.900372, lon.=26.529270, Alt.=113.010803m. Speed=0.360000m/h.</desc>
<speed>0.100000</speed>
</trkpt>
<trkpt lat="55.900372" lon="26.529268">
<ele>113.006897</ele>
<time>2010-07-18T14:37:41Z</time>
<desc>lat.=55.900372, lon.=26.529268, Alt.=113.006897m. Speed=0.468000m/h.</desc>
<speed>0.130000</speed>
</trkpt>
<trkpt lat="55.900372" lon="26.529266">
<ele>113.002991</ele>
<time>2010-07-18T14:37:42Z</time>
<desc>lat.=55.900372, lon.=26.529266, Alt.=113.002991m. Speed=0.432000m/h.</desc>
<speed>0.120000</speed>
</trkpt>
<trkpt lat="55.900375" lon="26.529266">
<ele>113.001038</ele>
<time>2010-07-18T14:37:43Z</time>
<desc>lat.=55.900375, lon.=26.529266, Alt.=113.001038m. Speed=0.252000m/h.</desc>
<speed>0.070000</speed>
</trkpt>
<trkpt lat="55.900375" lon="26.529266">
<ele>112.999084</ele>
<time>2010-07-18T14:37:44Z</time>
<desc>lat.=55.900375, lon.=26.529266, Alt.=112.999084m. Speed=0.144000m/h.</desc>
<speed>0.040000</speed>
</trkpt>
<trkpt lat="55.900375" lon="26.529266">
<ele>112.999084</ele>
<time>2010-07-18T14:37:45Z</time>
<desc>lat.=55.900375, lon.=26.529266, Alt.=112.999084m. Speed=0.144000m/h.</desc>
<speed>0.040000</speed>
</trkpt>
<trkpt lat="55.900375" lon="26.529266">
<ele>112.999084</ele>
<time>2010-07-18T14:37:46Z</time>
<desc>lat.=55.900375, lon.=26.529266, Alt.=112.999084m. Speed=0.144000m/h.</desc>
<speed>0.040000</speed>
</trkpt>
<trkpt lat="55.900375" lon="26.529266">
<ele>112.997131</ele>
<time>2010-07-18T14:37:47Z</time>
<desc>lat.=55.900375, lon.=26.529266, Alt.=112.997131m. Speed=0.324000m/h.</desc>
<speed>0.090000</speed>
</trkpt>
<trkpt lat="55.900375" lon="26.529266">
<ele>112.993225</ele>
<time>2010-07-18T14:37:48Z</time>
<desc>lat.=55.900375, lon.=26.529266, Alt.=112.993225m. Speed=0.144000m/h.</desc>
<speed>0.040000</speed>
</trkpt>
<trkpt lat="55.900375" lon="26.529268">
<ele>112.987366</ele>
<time>2010-07-18T14:37:49Z</time>
<desc>lat.=55.900375, lon.=26.529268, Alt.=112.987366m. Speed=0.396000m/h.</desc>
<speed>0.110000</speed>
</trkpt>
<trkpt lat="55.900375" lon="26.529268">
<ele>112.979553</ele>
<time>2010-07-18T14:37:50Z</time>
<desc>lat.=55.900375, lon.=26.529268, Alt.=112.979553m. Speed=0.972000m/h.</desc>
<speed>0.270000</speed>
</trkpt>
<trkpt lat="55.900379" lon="26.529270">
<ele>112.975647</ele>
<time>2010-07-18T14:37:51Z</time>
<desc>lat.=55.900379, lon.=26.529270, Alt.=112.975647m. Speed=0.756000m/h.</desc>
<speed>0.210000</speed>
</trkpt>
<trkpt lat="55.900379" lon="26.529270">
<ele>112.971741</ele>
<time>2010-07-18T14:37:52Z</time>
<desc>lat.=55.900379, lon.=26.529270, Alt.=112.971741m. Speed=0.648000m/h.</desc>
<speed>0.180000</speed>
</trkpt>
<trkpt lat="55.900383" lon="26.529268">
<ele>112.963928</ele>
<time>2010-07-18T14:37:53Z</time>
<desc>lat.=55.900383, lon.=26.529268, Alt.=112.963928m. Speed=0.432000m/h.</desc>
<speed>0.120000</speed>
</trkpt>
<trkpt lat="55.900383" lon="26.529268">
<ele>112.954163</ele>
<time>2010-07-18T14:37:54Z</time>
<desc>lat.=55.900383, lon.=26.529268, Alt.=112.954163m. Speed=0.000000m/h.</desc>
<speed>0.000000</speed>
</trkpt>
<trkpt lat="55.900383" lon="26.529268">
<ele>112.948303</ele>
<time>2010-07-18T14:37:55Z</time>
<desc>lat.=55.900383, lon.=26.529268, Alt.=112.948303m. Speed=0.324000m/h.</desc>
<speed>0.090000</speed>
</trkpt>
<trkpt lat="55.900383" lon="26.529266">
<ele>112.942444</ele>
<time>2010-07-18T14:37:56Z</time>
<desc>lat.=55.900383, lon.=26.529266, Alt.=112.942444m. Speed=0.144000m/h.</desc>
<speed>0.040000</speed>
</trkpt>
<trkpt lat="55.900383" lon="26.529266">
<ele>112.938538</ele>
<time>2010-07-18T14:37:57Z</time>
<desc>lat.=55.900383, lon.=26.529266, Alt.=112.938538m. Speed=0.648000m/h.</desc>
<speed>0.180000</speed>
</trkpt>
<trkpt lat="55.900383" lon="26.529264">
<ele>112.936584</ele>
<time>2010-07-18T14:37:58Z</time>
<desc>lat.=55.900383, lon.=26.529264, Alt.=112.936584m. Speed=0.828000m/h.</desc>
<speed>0.230000</speed>
</trkpt>
<trkpt lat="55.900387" lon="26.529263">
<ele>112.932678</ele>
<time>2010-07-18T14:37:59Z</time>
<desc>lat.=55.900387, lon.=26.529263, Alt.=112.932678m. Speed=0.612000m/h.</desc>
<speed>0.170000</speed>
</trkpt>
<trkpt lat="55.900387" lon="26.529261">
<ele>112.930725</ele>
<time>2010-07-18T14:38:00Z</time>
<desc>lat.=55.900387, lon.=26.529261, Alt.=112.930725m. Speed=0.360000m/h.</desc>
<speed>0.100000</speed>
</trkpt>
<trkpt lat="55.900387" lon="26.529263">
<ele>112.932678</ele>
<time>2010-07-18T14:38:01Z</time>
<desc>lat.=55.900387, lon.=26.529263, Alt.=112.932678m. Speed=0.396000m/h.</desc>
<speed>0.110000</speed>
</trkpt>
<trkpt lat="55.900387" lon="26.529264">
<ele>112.934631</ele>
<time>2010-07-18T14:38:02Z</time>
<desc>lat.=55.900387, lon.=26.529264, Alt.=112.934631m. Speed=0.540000m/h.</desc>
<speed>0.150000</speed>
</trkpt>
<trkpt lat="55.900387" lon="26.529266">
<ele>112.934631</ele>
<time>2010-07-18T14:38:03Z</time>
<desc>lat.=55.900387, lon.=26.529266, Alt.=112.934631m. Speed=0.828000m/h.</desc>
<speed>0.230000</speed>
</trkpt>
<trkpt lat="55.900387" lon="26.529270">
<ele>112.934631</ele>
<time>2010-07-18T14:38:04Z</time>
<desc>lat.=55.900387, lon.=26.529270, Alt.=112.934631m. Speed=1.152000m/h.</desc>
<speed>0.320000</speed>
</trkpt>
<trkpt lat="55.900383" lon="26.529280">
<ele>113.088928</ele>
<time>2010-07-18T14:38:05Z</time>
<desc>lat.=55.900383, lon.=26.529280, Alt.=113.088928m. Speed=0.648000m/h.</desc>
<speed>0.180000</speed>
</trkpt>
<trkpt lat="55.900375" lon="26.529284">
<ele>113.256897</ele>
<time>2010-07-18T14:38:06Z</time>
<desc>lat.=55.900375, lon.=26.529284, Alt.=113.256897m. Speed=0.360000m/h.</desc>
<speed>0.100000</speed>
</trkpt>
<trkpt lat="55.900375" lon="26.529284">
<ele>113.395569</ele>
<time>2010-07-18T14:38:07Z</time>
<desc>lat.=55.900375, lon.=26.529284, Alt.=113.395569m. Speed=0.180000m/h.</desc>
<speed>0.050000</speed>
</trkpt>
<trkpt lat="55.900368" lon="26.529285">
<ele>113.518616</ele>
<time>2010-07-18T14:38:08Z</time>
<desc>lat.=55.900368, lon.=26.529285, Alt.=113.518616m. Speed=0.216000m/h.</desc>
<speed>0.060000</speed>
</trkpt>
<trkpt lat="55.900368" lon="26.529287">
<ele>113.522522</ele>
<time>2010-07-18T14:38:09Z</time>
<desc>lat.=55.900368, lon.=26.529287, Alt.=113.522522m. Speed=0.468000m/h.</desc>
<speed>0.130000</speed>
</trkpt>
<trkpt lat="55.900368" lon="26.529289">
<ele>113.528381</ele>
<time>2010-07-18T14:38:10Z</time>
<desc>lat.=55.900368, lon.=26.529289, Alt.=113.528381m. Speed=0.432000m/h.</desc>
<speed>0.120000</speed>
</trkpt>
<trkpt lat="55.900368" lon="26.529291">
<ele>113.536194</ele>
<time>2010-07-18T14:38:11Z</time>
<desc>lat.=55.900368, lon.=26.529291, Alt.=113.536194m. Speed=0.468000m/h.</desc>
<speed>0.130000</speed>
</trkpt>
<trkpt lat="55.900364" lon="26.529291">
<ele>113.544006</ele>
<time>2010-07-18T14:38:12Z</time>
<desc>lat.=55.900364, lon.=26.529291, Alt.=113.544006m. Speed=0.036000m/h.</desc>
<speed>0.010000</speed>
</trkpt>
<trkpt lat="55.900364" lon="26.529291">
<ele>113.549866</ele>
<time>2010-07-18T14:38:13Z</time>
<desc>lat.=55.900364, lon.=26.529291, Alt.=113.549866m. Speed=0.612000m/h.</desc>
<speed>0.170000</speed>
</trkpt>
<trkpt lat="55.900364" lon="26.529291">
<ele>113.553772</ele>
<time>2010-07-18T14:38:14Z</time>
<desc>lat.=55.900364, lon.=26.529291, Alt.=113.553772m. Speed=0.684000m/h.</desc>
<speed>0.190000</speed>
</trkpt>
<trkpt lat="55.900360" lon="26.529289">
<ele>113.559631</ele>
<time>2010-07-18T14:38:15Z</time>
<desc>lat.=55.900360, lon.=26.529289, Alt.=113.559631m. Speed=0.612000m/h.</desc>
<speed>0.170000</speed>
</trkpt>
<trkpt lat="55.900360" lon="26.529287">
<ele>113.563538</ele>
<time>2010-07-18T14:38:16Z</time>
<desc>lat.=55.900360, lon.=26.529287, Alt.=113.563538m. Speed=0.396000m/h.</desc>
<speed>0.110000</speed>
</trkpt>
<trkpt lat="55.900360" lon="26.529285">
<ele>113.569397</ele>
<time>2010-07-18T14:38:17Z</time>
<desc>lat.=55.900360, lon.=26.529285, Alt.=113.569397m. Speed=1.188000m/h.</desc>
<speed>0.330000</speed>
</trkpt>
<trkpt lat="55.900356" lon="26.529274">
<ele>113.688538</ele>
<time>2010-07-18T14:38:18Z</time>
<desc>lat.=55.900356, lon.=26.529274, Alt.=113.688538m. Speed=1.188000m/h.</desc>
<speed>0.330000</speed>
</trkpt>
<trkpt lat="55.900352" lon="26.529264">
<ele>113.825256</ele>
<time>2010-07-18T14:38:19Z</time>
<desc>lat.=55.900352, lon.=26.529264, Alt.=113.825256m. Speed=1.296000m/h.</desc>
<speed>0.360000</speed>
</trkpt>
<trkpt lat="55.900349" lon="26.529268">
<ele>113.938538</ele>
<time>2010-07-18T14:38:20Z</time>
<desc>lat.=55.900349, lon.=26.529268, Alt.=113.938538m. Speed=1.116000m/h.</desc>
<speed>0.310000</speed>
</trkpt>
<trkpt lat="55.900345" lon="26.529266">
<ele>114.044006</ele>
<time>2010-07-18T14:38:21Z</time>
<desc>lat.=55.900345, lon.=26.529266, Alt.=114.044006m. Speed=1.332000m/h.</desc>
<speed>0.370000</speed>
</trkpt>
<trkpt lat="55.900341" lon="26.529268">
<ele>114.159241</ele>
<time>2010-07-18T14:38:22Z</time>
<desc>lat.=55.900341, lon.=26.529268, Alt.=114.159241m. Speed=1.260000m/h.</desc>
<speed>0.350000</speed>
</trkpt>
<trkpt lat="55.900337" lon="26.529278">
<ele>114.321350</ele>
<time>2010-07-18T14:38:23Z</time>
<desc>lat.=55.900337, lon.=26.529278, Alt.=114.321350m. Speed=0.828000m/h.</desc>
<speed>0.230000</speed>
</trkpt>
<trkpt lat="55.900333" lon="26.529293">
<ele>114.391663</ele>
<time>2010-07-18T14:38:24Z</time>
<desc>lat.=55.900333, lon.=26.529293, Alt.=114.391663m. Speed=0.360000m/h.</desc>
<speed>0.100000</speed>
</trkpt>
<trkpt lat="55.900333" lon="26.529295">
<ele>114.573303</ele>
<time>2010-07-18T14:38:25Z</time>
<desc>lat.=55.900333, lon.=26.529295, Alt.=114.573303m. Speed=0.288000m/h.</desc>
<speed>0.080000</speed>
</trkpt>
<trkpt lat="55.900330" lon="26.529301">
<ele>114.745178</ele>
<time>2010-07-18T14:38:26Z</time>
<desc>lat.=55.900330, lon.=26.529301, Alt.=114.745178m. Speed=0.432000m/h.</desc>
<speed>0.120000</speed>
</trkpt>
<trkpt lat="55.900326" lon="26.529303">
<ele>114.754944</ele>
<time>2010-07-18T14:38:27Z</time>
<desc>lat.=55.900326, lon.=26.529303, Alt.=114.754944m. Speed=0.504000m/h.</desc>
<speed>0.140000</speed>
</trkpt>
<trkpt lat="55.900326" lon="26.529303">
<ele>114.762756</ele>
<time>2010-07-18T14:38:28Z</time>
<desc>lat.=55.900326, lon.=26.529303, Alt.=114.762756m. Speed=0.432000m/h.</desc>
<speed>0.120000</speed>
</trkpt>
<trkpt lat="55.900326" lon="26.529305">
<ele>114.774475</ele>
<time>2010-07-18T14:38:29Z</time>
<desc>lat.=55.900326, lon.=26.529305, Alt.=114.774475m. Speed=0.612000m/h.</desc>
<speed>0.170000</speed>
</trkpt>
<trkpt lat="55.900326" lon="26.529306">
<ele>114.784241</ele>
<time>2010-07-18T14:38:30Z</time>
<desc>lat.=55.900326, lon.=26.529306, Alt.=114.784241m. Speed=0.504000m/h.</desc>
<speed>0.140000</speed>
</trkpt>
<trkpt lat="55.900322" lon="26.529308">
<ele>114.794006</ele>
<time>2010-07-18T14:38:31Z</time>
<desc>lat.=55.900322, lon.=26.529308, Alt.=114.794006m. Speed=0.468000m/h.</desc>
<speed>0.130000</speed>
</trkpt>
<trkpt lat="55.900322" lon="26.529310">
<ele>114.801819</ele>
<time>2010-07-18T14:38:32Z</time>
<desc>lat.=55.900322, lon.=26.529310, Alt.=114.801819m. Speed=0.468000m/h.</desc>
<speed>0.130000</speed>
</trkpt>
<trkpt lat="55.900322" lon="26.529312">
<ele>114.809631</ele>
<time>2010-07-18T14:38:33Z</time>
<desc>lat.=55.900322, lon.=26.529312, Alt.=114.809631m. Speed=0.216000m/h.</desc>
<speed>0.060000</speed>
</trkpt>
<trkpt lat="55.900322" lon="26.529312">
<ele>114.819397</ele>
<time>2010-07-18T14:38:34Z</time>
<desc>lat.=55.900322, lon.=26.529312, Alt.=114.819397m. Speed=0.324000m/h.</desc>
<speed>0.090000</speed>
</trkpt>
<trkpt lat="55.900322" lon="26.529312">
<ele>114.825256</ele>
<time>2010-07-18T14:38:35Z</time>
<desc>lat.=55.900322, lon.=26.529312, Alt.=114.825256m. Speed=0.432000m/h.</desc>
<speed>0.120000</speed>
</trkpt>
<trkpt lat="55.900322" lon="26.529312">
<ele>114.831116</ele>
<time>2010-07-18T14:38:36Z</time>
<desc>lat.=55.900322, lon.=26.529312, Alt.=114.831116m. Speed=1.044000m/h.</desc>
<speed>0.290000</speed>
</trkpt>
<trkpt lat="55.900326" lon="26.529312">
<ele>114.836975</ele>
<time>2010-07-18T14:38:37Z</time>
<desc>lat.=55.900326, lon.=26.529312, Alt.=114.836975m. Speed=0.612000m/h.</desc>
<speed>0.170000</speed>
</trkpt>
<trkpt lat="55.900326" lon="26.529312">
<ele>114.844788</ele>
<time>2010-07-18T14:38:38Z</time>
<desc>lat.=55.900326, lon.=26.529312, Alt.=114.844788m. Speed=0.612000m/h.</desc>
<speed>0.170000</speed>
</trkpt>
<trkpt lat="55.900330" lon="26.529314">
<ele>114.852600</ele>
<time>2010-07-18T14:38:39Z</time>
<desc>lat.=55.900330, lon.=26.529314, Alt.=114.852600m. Speed=0.936000m/h.</desc>
<speed>0.260000</speed>
</trkpt>
<trkpt lat="55.900330" lon="26.529316">
<ele>114.860413</ele>
<time>2010-07-18T14:38:40Z</time>
<desc>lat.=55.900330, lon.=26.529316, Alt.=114.860413m. Speed=0.936000m/h.</desc>
<speed>0.260000</speed>
</trkpt>
<trkpt lat="55.900333" lon="26.529318">
<ele>114.870178</ele>
<time>2010-07-18T14:38:41Z</time>
<desc>lat.=55.900333, lon.=26.529318, Alt.=114.870178m. Speed=0.720000m/h.</desc>
<speed>0.200000</speed>
</trkpt>
<trkpt lat="55.900333" lon="26.529320">
<ele>114.881897</ele>
<time>2010-07-18T14:38:42Z</time>
<desc>lat.=55.900333, lon.=26.529320, Alt.=114.881897m. Speed=0.648000m/h.</desc>
<speed>0.180000</speed>
</trkpt>
<trkpt lat="55.900337" lon="26.529318">
<ele>114.895569</ele>
<time>2010-07-18T14:38:43Z</time>
<desc>lat.=55.900337, lon.=26.529318, Alt.=114.895569m. Speed=0.900000m/h.</desc>
<speed>0.250000</speed>
</trkpt>
<trkpt lat="55.900337" lon="26.529314">
<ele>114.909241</ele>
<time>2010-07-18T14:38:44Z</time>
<desc>lat.=55.900337, lon.=26.529314, Alt.=114.909241m. Speed=1.656000m/h.</desc>
<speed>0.460000</speed>
</trkpt>
<trkpt lat="55.900345" lon="26.529280">
<ele>115.127991</ele>
<time>2010-07-18T14:38:45Z</time>
<desc>lat.=55.900345, lon.=26.529280, Alt.=115.127991m. Speed=1.800000m/h.</desc>
<speed>0.500000</speed>
</trkpt>
<trkpt lat="55.900349" lon="26.529259">
<ele>115.501038</ele>
<time>2010-07-18T14:38:46Z</time>
<desc>lat.=55.900349, lon.=26.529259, Alt.=115.501038m. Speed=1.836000m/h.</desc>
<speed>0.510000</speed>
</trkpt>
<trkpt lat="55.900352" lon="26.529245">
<ele>115.854553</ele>
<time>2010-07-18T14:38:47Z</time>
<desc>lat.=55.900352, lon.=26.529245, Alt.=115.854553m. Speed=1.692000m/h.</desc>
<speed>0.470000</speed>
</trkpt>
<trkpt lat="55.900360" lon="26.529236">
<ele>116.133850</ele>
<time>2010-07-18T14:38:48Z</time>
<desc>lat.=55.900360, lon.=26.529236, Alt.=116.133850m. Speed=1.656000m/h.</desc>
<speed>0.460000</speed>
</trkpt>
<trkpt lat="55.900364" lon="26.529240">
<ele>116.374084</ele>
<time>2010-07-18T14:38:49Z</time>
<desc>lat.=55.900364, lon.=26.529240, Alt.=116.374084m. Speed=1.620000m/h.</desc>
<speed>0.450000</speed>
</trkpt>
<trkpt lat="55.900368" lon="26.529240">
<ele>116.706116</ele>
<time>2010-07-18T14:38:50Z</time>
<desc>lat.=55.900368, lon.=26.529240, Alt.=116.706116m. Speed=1.764000m/h.</desc>
<speed>0.490000</speed>
</trkpt>
<trkpt lat="55.900372" lon="26.529253">
<ele>116.960022</ele>
<time>2010-07-18T14:38:51Z</time>
<desc>lat.=55.900372, lon.=26.529253, Alt.=116.960022m. Speed=1.440000m/h.</desc>
<speed>0.400000</speed>
</trkpt>
<trkpt lat="55.900364" lon="26.529247">
<ele>117.258850</ele>
<time>2010-07-18T14:38:52Z</time>
<desc>lat.=55.900364, lon.=26.529247, Alt.=117.258850m. Speed=0.432000m/h.</desc>
<speed>0.120000</speed>
</trkpt>
<trkpt lat="55.900364" lon="26.529263">
<ele>117.387756</ele>
<time>2010-07-18T14:38:53Z</time>
<desc>lat.=55.900364, lon.=26.529263, Alt.=117.387756m. Speed=0.432000m/h.</desc>
<speed>0.120000</speed>
</trkpt>
<trkpt lat="55.900360" lon="26.529272">
<ele>117.639709</ele>
<time>2010-07-18T14:38:54Z</time>
<desc>lat.=55.900360, lon.=26.529272, Alt.=117.639709m. Speed=0.252000m/h.</desc>
<speed>0.070000</speed>
</trkpt>
<trkpt lat="55.900360" lon="26.529285">
<ele>117.879944</ele>
<time>2010-07-18T14:38:55Z</time>
<desc>lat.=55.900360, lon.=26.529285, Alt.=117.879944m. Speed=0.684000m/h.</desc>
<speed>0.190000</speed>
</trkpt>
<trkpt lat="55.900364" lon="26.529287">
<ele>117.889709</ele>
<time>2010-07-18T14:38:56Z</time>
<desc>lat.=55.900364, lon.=26.529287, Alt.=117.889709m. Speed=0.648000m/h.</desc>
<speed>0.180000</speed>
</trkpt>
<trkpt lat="55.900364" lon="26.529289">
<ele>117.897522</ele>
<time>2010-07-18T14:38:57Z</time>
<desc>lat.=55.900364, lon.=26.529289, Alt.=117.897522m. Speed=1.008000m/h.</desc>
<speed>0.280000</speed>
</trkpt>
<trkpt lat="55.900368" lon="26.529289">
<ele>117.905334</ele>
<time>2010-07-18T14:38:58Z</time>
<desc>lat.=55.900368, lon.=26.529289, Alt.=117.905334m. Speed=0.972000m/h.</desc>
<speed>0.270000</speed>
</trkpt>
<trkpt lat="55.900368" lon="26.529285">
<ele>117.913147</ele>
<time>2010-07-18T14:38:59Z</time>
<desc>lat.=55.900368, lon.=26.529285, Alt.=117.913147m. Speed=0.648000m/h.</desc>
<speed>0.180000</speed>
</trkpt>
<trkpt lat="55.900372" lon="26.529284">
<ele>117.926819</ele>
<time>2010-07-18T14:39:00Z</time>
<desc>lat.=55.900372, lon.=26.529284, Alt.=117.926819m. Speed=1.008000m/h.</desc>
<speed>0.280000</speed>
</trkpt>
<trkpt lat="55.900368" lon="26.529280">
<ele>117.936584</ele>
<time>2010-07-18T14:39:01Z</time>
<desc>lat.=55.900368, lon.=26.529280, Alt.=117.936584m. Speed=1.044000m/h.</desc>
<speed>0.290000</speed>
</trkpt>
<trkpt lat="55.900368" lon="26.529276">
<ele>117.942444</ele>
<time>2010-07-18T14:39:02Z</time>
<desc>lat.=55.900368, lon.=26.529276, Alt.=117.942444m. Speed=1.080000m/h.</desc>
<speed>0.300000</speed>
</trkpt>
<trkpt lat="55.900364" lon="26.529253">
<ele>118.143616</ele>
<time>2010-07-18T14:39:03Z</time>
<desc>lat.=55.900364, lon.=26.529253, Alt.=118.143616m. Speed=0.972000m/h.</desc>
<speed>0.270000</speed>
</trkpt>
<trkpt lat="55.900364" lon="26.529238">
<ele>118.362366</ele>
<time>2010-07-18T14:39:04Z</time>
<desc>lat.=55.900364, lon.=26.529238, Alt.=118.362366m. Speed=1.044000m/h.</desc>
<speed>0.290000</speed>
</trkpt>
<trkpt lat="55.900368" lon="26.529219">
<ele>118.561584</ele>
<time>2010-07-18T14:39:05Z</time>
<desc>lat.=55.900368, lon.=26.529219, Alt.=118.561584m. Speed=1.044000m/h.</desc>
<speed>0.290000</speed>
</trkpt>
<trkpt lat="55.900368" lon="26.529200">
<ele>118.747131</ele>
<time>2010-07-18T14:39:06Z</time>
<desc>lat.=55.900368, lon.=26.529200, Alt.=118.747131m. Speed=1.080000m/h.</desc>
<speed>0.300000</speed>
</trkpt>
<trkpt lat="55.900368" lon="26.529163">
<ele>118.997131</ele>
<time>2010-07-18T14:39:07Z</time>
<desc>lat.=55.900368, lon.=26.529163, Alt.=118.997131m. Speed=1.296000m/h.</desc>
<speed>0.360000</speed>
</trkpt>
<trkpt lat="55.900368" lon="26.529140">
<ele>119.149475</ele>
<time>2010-07-18T14:39:08Z</time>
<desc>lat.=55.900368, lon.=26.529140, Alt.=119.149475m. Speed=1.368000m/h.</desc>
<speed>0.380000</speed>
</trkpt>
<trkpt lat="55.900368" lon="26.529106">
<ele>119.354553</ele>
<time>2010-07-18T14:39:09Z</time>
<desc>lat.=55.900368, lon.=26.529106, Alt.=119.354553m. Speed=1.584000m/h.</desc>
<speed>0.440000</speed>
</trkpt>
<trkpt lat="55.900368" lon="26.529097">
<ele>119.485413</ele>
<time>2010-07-18T14:39:10Z</time>
<desc>lat.=55.900368, lon.=26.529097, Alt.=119.485413m. Speed=1.476000m/h.</desc>
<speed>0.410000</speed>
</trkpt>
<trkpt lat="55.900364" lon="26.529057">
<ele>119.653381</ele>
<time>2010-07-18T14:39:11Z</time>
<desc>lat.=55.900364, lon.=26.529057, Alt.=119.653381m. Speed=2.232000m/h.</desc>
<speed>0.620000</speed>
</trkpt>
<trkpt lat="55.900360" lon="26.529034">
<ele>119.627991</ele>
<time>2010-07-18T14:39:12Z</time>
<desc>lat.=55.900360, lon.=26.529034, Alt.=119.627991m. Speed=2.196000m/h.</desc>
<speed>0.610000</speed>
</trkpt>
<trkpt lat="55.900360" lon="26.529024">
<ele>119.600647</ele>
<time>2010-07-18T14:39:13Z</time>
<desc>lat.=55.900360, lon.=26.529024, Alt.=119.600647m. Speed=1.764000m/h.</desc>
<speed>0.490000</speed>
</trkpt>
<trkpt lat="55.900360" lon="26.529009">
<ele>119.612366</ele>
<time>2010-07-18T14:39:14Z</time>
<desc>lat.=55.900360, lon.=26.529009, Alt.=119.612366m. Speed=1.368000m/h.</desc>
<speed>0.380000</speed>
</trkpt>
<trkpt lat="55.900356" lon="26.529007">
<ele>119.526428</ele>
<time>2010-07-18T14:39:15Z</time>
<desc>lat.=55.900356, lon.=26.529007, Alt.=119.526428m. Speed=1.260000m/h.</desc>
<speed>0.350000</speed>
</trkpt>
<trkpt lat="55.900352" lon="26.529018">
<ele>119.477600</ele>
<time>2010-07-18T14:39:16Z</time>
<desc>lat.=55.900352, lon.=26.529018, Alt.=119.477600m. Speed=0.936000m/h.</desc>
<speed>0.260000</speed>
</trkpt>
<trkpt lat="55.900349" lon="26.528999">
<ele>119.661194</ele>
<time>2010-07-18T14:39:17Z</time>
<desc>lat.=55.900349, lon.=26.528999, Alt.=119.661194m. Speed=0.756000m/h.</desc>
<speed>0.210000</speed>
</trkpt>
<trkpt lat="55.900345" lon="26.528980">
<ele>119.901428</ele>
<time>2010-07-18T14:39:18Z</time>
<desc>lat.=55.900345, lon.=26.528980, Alt.=119.901428m. Speed=0.792000m/h.</desc>
<speed>0.220000</speed>
</trkpt>
<trkpt lat="55.900341" lon="26.528955">
<ele>120.122131</ele>
<time>2010-07-18T14:39:19Z</time>
<desc>lat.=55.900341, lon.=26.528955, Alt.=120.122131m. Speed=1.260000m/h.</desc>
<speed>0.350000</speed>
</trkpt>
<trkpt lat="55.900333" lon="26.528942">
<ele>120.159241</ele>
<time>2010-07-18T14:39:20Z</time>
<desc>lat.=55.900333, lon.=26.528942, Alt.=120.159241m. Speed=1.872000m/h.</desc>
<speed>0.520000</speed>
</trkpt>
<trkpt lat="55.900326" lon="26.528915">
<ele>120.206116</ele>
<time>2010-07-18T14:39:21Z</time>
<desc>lat.=55.900326, lon.=26.528915, Alt.=120.206116m. Speed=2.988000m/h.</desc>
<speed>0.830000</speed>
</trkpt>
<trkpt lat="55.900326" lon="26.528902">
<ele>120.202209</ele>
<time>2010-07-18T14:39:22Z</time>
<desc>lat.=55.900326, lon.=26.528902, Alt.=120.202209m. Speed=2.664000m/h.</desc>
<speed>0.740000</speed>
</trkpt>
<trkpt lat="55.900326" lon="26.528891">
<ele>120.208069</ele>
<time>2010-07-18T14:39:23Z</time>
<desc>lat.=55.900326, lon.=26.528891, Alt.=120.208069m. Speed=2.340000m/h.</desc>
<speed>0.650000</speed>
</trkpt>
<trkpt lat="55.900326" lon="26.528881">
<ele>120.200256</ele>
<time>2010-07-18T14:39:24Z</time>
<desc>lat.=55.900326, lon.=26.528881, Alt.=120.200256m. Speed=1.980000m/h.</desc>
<speed>0.550000</speed>
</trkpt>
<trkpt lat="55.900322" lon="26.528860">
<ele>120.329163</ele>
<time>2010-07-18T14:39:25Z</time>
<desc>lat.=55.900322, lon.=26.528860, Alt.=120.329163m. Speed=2.232000m/h.</desc>
<speed>0.620000</speed>
</trkpt>
<trkpt lat="55.900318" lon="26.528843">
<ele>120.483459</ele>
<time>2010-07-18T14:39:26Z</time>
<desc>lat.=55.900318, lon.=26.528843, Alt.=120.483459m. Speed=2.124000m/h.</desc>
<speed>0.590000</speed>
</trkpt>
<trkpt lat="55.900314" lon="26.528830">
<ele>120.665100</ele>
<time>2010-07-18T14:39:27Z</time>
<desc>lat.=55.900314, lon.=26.528830, Alt.=120.665100m. Speed=2.088000m/h.</desc>
<speed>0.580000</speed>
</trkpt>
<trkpt lat="55.900311" lon="26.528816">
<ele>120.885803</ele>
<time>2010-07-18T14:39:28Z</time>
<desc>lat.=55.900311, lon.=26.528816, Alt.=120.885803m. Speed=2.268000m/h.</desc>
<speed>0.630000</speed>
</trkpt>
<trkpt lat="55.900311" lon="26.528807">
<ele>120.876038</ele>
<time>2010-07-18T14:39:29Z</time>
<desc>lat.=55.900311, lon.=26.528807, Alt.=120.876038m. Speed=2.016000m/h.</desc>
<speed>0.560000</speed>
</trkpt>
<trkpt lat="55.900314" lon="26.528814">
<ele>121.088928</ele>
<time>2010-07-18T14:39:30Z</time>
<desc>lat.=55.900314, lon.=26.528814, Alt.=121.088928m. Speed=1.620000m/h.</desc>
<speed>0.450000</speed>
</trkpt>
<trkpt lat="55.900314" lon="26.528816">
<ele>121.301819</ele>
<time>2010-07-18T14:39:31Z</time>
<desc>lat.=55.900314, lon.=26.528816, Alt.=121.301819m. Speed=1.368000m/h.</desc>
<speed>0.380000</speed>
</trkpt>
<trkpt lat="55.900311" lon="26.528828">
<ele>121.463928</ele>
<time>2010-07-18T14:39:32Z</time>
<desc>lat.=55.900311, lon.=26.528828, Alt.=121.463928m. Speed=1.152000m/h.</desc>
<speed>0.320000</speed>
</trkpt>
<trkpt lat="55.900311" lon="26.528851">
<ele>121.594788</ele>
<time>2010-07-18T14:39:33Z</time>
<desc>lat.=55.900311, lon.=26.528851, Alt.=121.594788m. Speed=0.324000m/h.</desc>
<speed>0.090000</speed>
</trkpt>
<trkpt lat="55.900318" lon="26.528862">
<ele>121.786194</ele>
<time>2010-07-18T14:39:34Z</time>
<desc>lat.=55.900318, lon.=26.528862, Alt.=121.786194m. Speed=0.684000m/h.</desc>
<speed>0.190000</speed>
</trkpt>
<trkpt lat="55.900322" lon="26.528851">
<ele>122.032288</ele>
<time>2010-07-18T14:39:35Z</time>
<desc>lat.=55.900322, lon.=26.528851, Alt.=122.032288m. Speed=0.864000m/h.</desc>
<speed>0.240000</speed>
</trkpt>
<trkpt lat="55.900322" lon="26.528845">
<ele>122.204163</ele>
<time>2010-07-18T14:39:36Z</time>
<desc>lat.=55.900322, lon.=26.528845, Alt.=122.204163m. Speed=0.648000m/h.</desc>
<speed>0.180000</speed>
</trkpt>
<trkpt lat="55.900322" lon="26.528843">
<ele>122.196350</ele>
<time>2010-07-18T14:39:37Z</time>
<desc>lat.=55.900322, lon.=26.528843, Alt.=122.196350m. Speed=0.396000m/h.</desc>
<speed>0.110000</speed>
</trkpt>
<trkpt lat="55.900322" lon="26.528841">
<ele>122.194397</ele>
<time>2010-07-18T14:39:38Z</time>
<desc>lat.=55.900322, lon.=26.528841, Alt.=122.194397m. Speed=0.900000m/h.</desc>
<speed>0.250000</speed>
</trkpt>
<trkpt lat="55.900322" lon="26.528837">
<ele>122.196350</ele>
<time>2010-07-18T14:39:39Z</time>
<desc>lat.=55.900322, lon.=26.528837, Alt.=122.196350m. Speed=0.756000m/h.</desc>
<speed>0.210000</speed>
</trkpt>
<trkpt lat="55.900322" lon="26.528833">
<ele>122.198303</ele>
<time>2010-07-18T14:39:40Z</time>
<desc>lat.=55.900322, lon.=26.528833, Alt.=122.198303m. Speed=0.936000m/h.</desc>
<speed>0.260000</speed>
</trkpt>
<trkpt lat="55.900322" lon="26.528830">
<ele>122.196350</ele>
<time>2010-07-18T14:39:41Z</time>
<desc>lat.=55.900322, lon.=26.528830, Alt.=122.196350m. Speed=1.080000m/h.</desc>
<speed>0.300000</speed>
</trkpt>
<trkpt lat="55.900326" lon="26.528862">
<ele>121.993225</ele>
<time>2010-07-18T14:39:42Z</time>
<desc>lat.=55.900326, lon.=26.528862, Alt.=121.993225m. Speed=0.396000m/h.</desc>
<speed>0.110000</speed>
</trkpt>
<trkpt lat="55.900322" lon="26.528870">
<ele>121.950256</ele>
<time>2010-07-18T14:39:43Z</time>
<desc>lat.=55.900322, lon.=26.528870, Alt.=121.950256m. Speed=0.000000m/h.</desc>
<speed>0.000000</speed>
</trkpt>
<trkpt lat="55.900318" lon="26.528885">
<ele>121.866272</ele>
<time>2010-07-18T14:39:44Z</time>
<desc>lat.=55.900318, lon.=26.528885, Alt.=121.866272m. Speed=0.792000m/h.</desc>
<speed>0.220000</speed>
</trkpt>
<trkpt lat="55.900318" lon="26.528893">
<ele>121.979553</ele>
<time>2010-07-18T14:39:45Z</time>
<desc>lat.=55.900318, lon.=26.528893, Alt.=121.979553m. Speed=0.612000m/h.</desc>
<speed>0.170000</speed>
</trkpt>
<trkpt lat="55.900318" lon="26.528894">
<ele>121.977600</ele>
<time>2010-07-18T14:39:46Z</time>
<desc>lat.=55.900318, lon.=26.528894, Alt.=121.977600m. Speed=0.396000m/h.</desc>
<speed>0.110000</speed>
</trkpt>
<trkpt lat="55.900314" lon="26.528896">
<ele>121.975647</ele>
<time>2010-07-18T14:39:47Z</time>
<desc>lat.=55.900314, lon.=26.528896, Alt.=121.975647m. Speed=0.612000m/h.</desc>
<speed>0.170000</speed>
</trkpt>
<trkpt lat="55.900314" lon="26.528900">
<ele>121.975647</ele>
<time>2010-07-18T14:39:48Z</time>
<desc>lat.=55.900314, lon.=26.528900, Alt.=121.975647m. Speed=0.360000m/h.</desc>
<speed>0.100000</speed>
</trkpt>
<trkpt lat="55.900314" lon="26.528902">
<ele>121.973694</ele>
<time>2010-07-18T14:39:49Z</time>
<desc>lat.=55.900314, lon.=26.528902, Alt.=121.973694m. Speed=0.720000m/h.</desc>
<speed>0.200000</speed>
</trkpt>
<trkpt lat="55.900318" lon="26.528904">
<ele>121.971741</ele>
<time>2010-07-18T14:39:50Z</time>
<desc>lat.=55.900318, lon.=26.528904, Alt.=121.971741m. Speed=0.792000m/h.</desc>
<speed>0.220000</speed>
</trkpt>
<trkpt lat="55.900318" lon="26.528906">
<ele>121.969788</ele>
<time>2010-07-18T14:39:51Z</time>
<desc>lat.=55.900318, lon.=26.528906, Alt.=121.969788m. Speed=0.432000m/h.</desc>
<speed>0.120000</speed>
</trkpt>
<trkpt lat="55.900318" lon="26.528908">
<ele>121.969788</ele>
<time>2010-07-18T14:39:52Z</time>
<desc>lat.=55.900318, lon.=26.528908, Alt.=121.969788m. Speed=0.252000m/h.</desc>
<speed>0.070000</speed>
</trkpt>
<trkpt lat="55.900318" lon="26.528910">
<ele>121.969788</ele>
<time>2010-07-18T14:39:53Z</time>
<desc>lat.=55.900318, lon.=26.528910, Alt.=121.969788m. Speed=0.144000m/h.</desc>
<speed>0.040000</speed>
</trkpt>
<trkpt lat="55.900318" lon="26.528910">
<ele>121.967834</ele>
<time>2010-07-18T14:39:54Z</time>
<desc>lat.=55.900318, lon.=26.528910, Alt.=121.967834m. Speed=0.180000m/h.</desc>
<speed>0.050000</speed>
</trkpt>
<trkpt lat="55.900318" lon="26.528910">
<ele>121.965881</ele>
<time>2010-07-18T14:39:55Z</time>
<desc>lat.=55.900318, lon.=26.528910, Alt.=121.965881m. Speed=0.360000m/h.</desc>
<speed>0.100000</speed>
</trkpt>
<trkpt lat="55.900322" lon="26.528910">
<ele>121.961975</ele>
<time>2010-07-18T14:39:56Z</time>
<desc>lat.=55.900322, lon.=26.528910, Alt.=121.961975m. Speed=0.036000m/h.</desc>
<speed>0.010000</speed>
</trkpt>
<trkpt lat="55.900322" lon="26.528912">
<ele>121.961975</ele>
<time>2010-07-18T14:39:57Z</time>
<desc>lat.=55.900322, lon.=26.528912, Alt.=121.961975m. Speed=0.864000m/h.</desc>
<speed>0.240000</speed>
</trkpt>
<trkpt lat="55.900318" lon="26.528913">
<ele>121.961975</ele>
<time>2010-07-18T14:39:58Z</time>
<desc>lat.=55.900318, lon.=26.528913, Alt.=121.961975m. Speed=1.080000m/h.</desc>
<speed>0.300000</speed>
</trkpt>
<trkpt lat="55.900314" lon="26.528933">
<ele>121.946350</ele>
<time>2010-07-18T14:39:59Z</time>
<desc>lat.=55.900314, lon.=26.528933, Alt.=121.946350m. Speed=0.972000m/h.</desc>
<speed>0.270000</speed>
</trkpt>
<trkpt lat="55.900314" lon="26.528946">
<ele>121.979553</ele>
<time>2010-07-18T14:40:00Z</time>
<desc>lat.=55.900314, lon.=26.528946, Alt.=121.979553m. Speed=0.936000m/h.</desc>
<speed>0.260000</speed>
</trkpt>
<trkpt lat="55.900314" lon="26.528952">
<ele>121.993225</ele>
<time>2010-07-18T14:40:01Z</time>
<desc>lat.=55.900314, lon.=26.528952, Alt.=121.993225m. Speed=1.044000m/h.</desc>
<speed>0.290000</speed>
</trkpt>
<trkpt lat="55.900318" lon="26.528959">
<ele>121.926819</ele>
<time>2010-07-18T14:40:02Z</time>
<desc>lat.=55.900318, lon.=26.528959, Alt.=121.926819m. Speed=0.792000m/h.</desc>
<speed>0.220000</speed>
</trkpt>
<trkpt lat="55.900322" lon="26.528961">
<ele>121.932678</ele>
<time>2010-07-18T14:40:03Z</time>
<desc>lat.=55.900322, lon.=26.528961, Alt.=121.932678m. Speed=0.720000m/h.</desc>
<speed>0.200000</speed>
</trkpt>
<trkpt lat="55.900322" lon="26.528965">
<ele>121.936584</ele>
<time>2010-07-18T14:40:04Z</time>
<desc>lat.=55.900322, lon.=26.528965, Alt.=121.936584m. Speed=0.648000m/h.</desc>
<speed>0.180000</speed>
</trkpt>
<trkpt lat="55.900322" lon="26.528967">
<ele>121.944397</ele>
<time>2010-07-18T14:40:05Z</time>
<desc>lat.=55.900322, lon.=26.528967, Alt.=121.944397m. Speed=0.036000m/h.</desc>
<speed>0.010000</speed>
</trkpt>
<trkpt lat="55.900322" lon="26.528967">
<ele>121.950256</ele>
<time>2010-07-18T14:40:06Z</time>
<desc>lat.=55.900322, lon.=26.528967, Alt.=121.950256m. Speed=0.000000m/h.</desc>
<speed>0.000000</speed>
</trkpt>
<trkpt lat="55.900322" lon="26.528967">
<ele>121.960022</ele>
<time>2010-07-18T14:40:07Z</time>
<desc>lat.=55.900322, lon.=26.528967, Alt.=121.960022m. Speed=0.288000m/h.</desc>
<speed>0.080000</speed>
</trkpt>
<trkpt lat="55.900322" lon="26.528967">
<ele>121.967834</ele>
<time>2010-07-18T14:40:08Z</time>
<desc>lat.=55.900322, lon.=26.528967, Alt.=121.967834m. Speed=0.360000m/h.</desc>
<speed>0.100000</speed>
</trkpt>
<trkpt lat="55.900322" lon="26.528967">
<ele>121.977600</ele>
<time>2010-07-18T14:40:09Z</time>
<desc>lat.=55.900322, lon.=26.528967, Alt.=121.977600m. Speed=0.216000m/h.</desc>
<speed>0.060000</speed>
</trkpt>
<trkpt lat="55.900322" lon="26.528967">
<ele>121.987366</ele>
<time>2010-07-18T14:40:10Z</time>
<desc>lat.=55.900322, lon.=26.528967, Alt.=121.987366m. Speed=0.612000m/h.</desc>
<speed>0.170000</speed>
</trkpt>
<trkpt lat="55.900318" lon="26.528965">
<ele>121.995178</ele>
<time>2010-07-18T14:40:11Z</time>
<desc>lat.=55.900318, lon.=26.528965, Alt.=121.995178m. Speed=1.296000m/h.</desc>
<speed>0.360000</speed>
</trkpt>
<trkpt lat="55.900318" lon="26.528957">
<ele>122.020569</ele>
<time>2010-07-18T14:40:12Z</time>
<desc>lat.=55.900318, lon.=26.528957, Alt.=122.020569m. Speed=0.972000m/h.</desc>
<speed>0.270000</speed>
</trkpt>
<trkpt lat="55.900322" lon="26.528959">
<ele>122.038147</ele>
<time>2010-07-18T14:40:13Z</time>
<desc>lat.=55.900322, lon.=26.528959, Alt.=122.038147m. Speed=0.144000m/h.</desc>
<speed>0.040000</speed>
</trkpt>
<trkpt lat="55.900322" lon="26.528950">
<ele>122.006897</ele>
<time>2010-07-18T14:40:14Z</time>
<desc>lat.=55.900322, lon.=26.528950, Alt.=122.006897m. Speed=0.252000m/h.</desc>
<speed>0.070000</speed>
</trkpt>
<trkpt lat="55.900318" lon="26.528944">
<ele>122.036194</ele>
<time>2010-07-18T14:40:15Z</time>
<desc>lat.=55.900318, lon.=26.528944, Alt.=122.036194m. Speed=0.504000m/h.</desc>
<speed>0.140000</speed>
</trkpt>
<trkpt lat="55.900318" lon="26.528944">
<ele>122.044006</ele>
<time>2010-07-18T14:40:16Z</time>
<desc>lat.=55.900318, lon.=26.528944, Alt.=122.044006m. Speed=0.612000m/h.</desc>
<speed>0.170000</speed>
</trkpt>
<trkpt lat="55.900318" lon="26.528942">
<ele>122.051819</ele>
<time>2010-07-18T14:40:17Z</time>
<desc>lat.=55.900318, lon.=26.528942, Alt.=122.051819m. Speed=0.864000m/h.</desc>
<speed>0.240000</speed>
</trkpt>
<trkpt lat="55.900314" lon="26.528942">
<ele>122.059631</ele>
<time>2010-07-18T14:40:18Z</time>
<desc>lat.=55.900314, lon.=26.528942, Alt.=122.059631m. Speed=0.504000m/h.</desc>
<speed>0.140000</speed>
</trkpt>
<trkpt lat="55.900314" lon="26.528946">
<ele>122.063538</ele>
<time>2010-07-18T14:40:19Z</time>
<desc>lat.=55.900314, lon.=26.528946, Alt.=122.063538m. Speed=0.432000m/h.</desc>
<speed>0.120000</speed>
</trkpt>
<trkpt lat="55.900314" lon="26.528946">
<ele>122.065491</ele>
<time>2010-07-18T14:40:20Z</time>
<desc>lat.=55.900314, lon.=26.528946, Alt.=122.065491m. Speed=0.144000m/h.</desc>
<speed>0.040000</speed>
</trkpt>
<trkpt lat="55.900314" lon="26.528948">
<ele>122.069397</ele>
<time>2010-07-18T14:40:21Z</time>
<desc>lat.=55.900314, lon.=26.528948, Alt.=122.069397m. Speed=0.720000m/h.</desc>
<speed>0.200000</speed>
</trkpt>
<trkpt lat="55.900314" lon="26.528950">
<ele>122.075256</ele>
<time>2010-07-18T14:40:22Z</time>
<desc>lat.=55.900314, lon.=26.528950, Alt.=122.075256m. Speed=0.360000m/h.</desc>
<speed>0.100000</speed>
</trkpt>
<trkpt lat="55.900318" lon="26.528952">
<ele>122.077209</ele>
<time>2010-07-18T14:40:23Z</time>
<desc>lat.=55.900318, lon.=26.528952, Alt.=122.077209m. Speed=0.900000m/h.</desc>
<speed>0.250000</speed>
</trkpt>
<trkpt lat="55.900318" lon="26.528955">
<ele>122.075256</ele>
<time>2010-07-18T14:40:24Z</time>
<desc>lat.=55.900318, lon.=26.528955, Alt.=122.075256m. Speed=0.756000m/h.</desc>
<speed>0.210000</speed>
</trkpt>
<trkpt lat="55.900318" lon="26.528959">
<ele>122.069397</ele>
<time>2010-07-18T14:40:25Z</time>
<desc>lat.=55.900318, lon.=26.528959, Alt.=122.069397m. Speed=0.936000m/h.</desc>
<speed>0.260000</speed>
</trkpt>
<trkpt lat="55.900318" lon="26.528963">
<ele>122.065491</ele>
<time>2010-07-18T14:40:26Z</time>
<desc>lat.=55.900318, lon.=26.528963, Alt.=122.065491m. Speed=0.216000m/h.</desc>
<speed>0.060000</speed>
</trkpt>
</trkseg>
</trk>
</gpx>